<?xml version="1.0" encoding="UTF-8"?>
<gpx version="1.1" creator="https://www.youtrack.es" xsi:schemaLocation="http://www.topografix.com/GPX/1/1 http://www.topografix.com/GPX/1/1/gpx.xsd http://www.garmin.com/xmlschemas/GpxExtensions/v3 http://www.garmin.com/xmlschemas/GpxExtensionsv3.xsd http://www.garmin.com/xmlschemas/TrackPointExtension/v1 http://www.garmin.com/xmlschemas/TrackPointExtensionv1.xsd" xmlns:gpxtpx="http://www.garmin.com/xmlschemas/TrackPointExtension/v1" xmlns:gpxx="http://www.garmin.com/xmlschemas/GpxExtensions/v3" xmlns:xsi="http://www.w3.org/2001/XMLSchema-instance">
  <metadata>
    <link href="https://www.youtrack.es">
      <text>YouTrack.es</text>
    </link>
    <time>2026-05-08T14:30:05Z</time>
  </metadata>
  <trk>
    <src>https://www.youtrack.es</src>
    <link href="https://www.youtrack.es/ruta/30306-norte-de-espana">
      <text>YouTrack.es</text>
    </link>
    <trkseg>
      <trkpt lat="43.170786" lon="-1.672935">
        <ele>148.649</ele>
        <time>2021-06-12T07:47:06Z</time>
      </trkpt>
      <trkpt lat="43.170645" lon="-1.672970">
        <ele>158.702</ele>
        <time>2021-06-12T07:47:21Z</time>
      </trkpt>
      <trkpt lat="43.170670" lon="-1.673025">
        <ele>164.022</ele>
        <time>2021-06-12T07:47:41Z</time>
      </trkpt>
      <trkpt lat="43.170685" lon="-1.673048">
        <ele>165.008</ele>
        <time>2021-06-12T07:47:59Z</time>
      </trkpt>
      <trkpt lat="43.170711" lon="-1.673025">
        <ele>165.031</ele>
        <time>2021-06-12T07:48:13Z</time>
      </trkpt>
      <trkpt lat="43.170729" lon="-1.673033">
        <ele>165.949</ele>
        <time>2021-06-12T07:48:26Z</time>
      </trkpt>
      <trkpt lat="43.170744" lon="-1.673012">
        <ele>166.440</ele>
        <time>2021-06-12T07:48:36Z</time>
      </trkpt>
      <trkpt lat="43.170756" lon="-1.673005">
        <ele>166.966</ele>
        <time>2021-06-12T07:48:46Z</time>
      </trkpt>
      <trkpt lat="43.170818" lon="-1.672983">
        <ele>167.872</ele>
        <time>2021-06-12T07:48:57Z</time>
      </trkpt>
      <trkpt lat="43.170888" lon="-1.672964">
        <ele>170.244</ele>
        <time>2021-06-12T07:49:07Z</time>
      </trkpt>
      <trkpt lat="43.170932" lon="-1.672903">
        <ele>171.275</ele>
        <time>2021-06-12T07:49:16Z</time>
      </trkpt>
      <trkpt lat="43.170943" lon="-1.672854">
        <ele>171.731</ele>
        <time>2021-06-12T07:49:25Z</time>
      </trkpt>
      <trkpt lat="43.170949" lon="-1.672832">
        <ele>171.714</ele>
        <time>2021-06-12T07:49:27Z</time>
      </trkpt>
      <trkpt lat="43.171005" lon="-1.672646">
        <ele>168.854</ele>
        <time>2021-06-12T07:49:36Z</time>
      </trkpt>
      <trkpt lat="43.171064" lon="-1.672494">
        <ele>169.309</ele>
        <time>2021-06-12T07:49:43Z</time>
      </trkpt>
      <trkpt lat="43.171179" lon="-1.672247">
        <ele>169.308</ele>
        <time>2021-06-12T07:49:53Z</time>
      </trkpt>
      <trkpt lat="43.171295" lon="-1.672145">
        <ele>168.868</ele>
        <time>2021-06-12T07:50:00Z</time>
      </trkpt>
      <trkpt lat="43.171448" lon="-1.672257">
        <ele>168.396</ele>
        <time>2021-06-12T07:50:08Z</time>
      </trkpt>
      <trkpt lat="43.171628" lon="-1.672459">
        <ele>169.817</ele>
        <time>2021-06-12T07:50:18Z</time>
      </trkpt>
      <trkpt lat="43.171745" lon="-1.672602">
        <ele>168.883</ele>
        <time>2021-06-12T07:50:25Z</time>
      </trkpt>
      <trkpt lat="43.171759" lon="-1.672604">
        <ele>168.869</ele>
        <time>2021-06-12T07:50:26Z</time>
      </trkpt>
      <trkpt lat="43.171770" lon="-1.672600">
        <ele>168.351</ele>
        <time>2021-06-12T07:50:27Z</time>
      </trkpt>
      <trkpt lat="43.171783" lon="-1.672592">
        <ele>168.382</ele>
        <time>2021-06-12T07:50:28Z</time>
      </trkpt>
      <trkpt lat="43.171817" lon="-1.672546">
        <ele>167.488</ele>
        <time>2021-06-12T07:50:34Z</time>
      </trkpt>
      <trkpt lat="43.171829" lon="-1.672525">
        <ele>167.474</ele>
        <time>2021-06-12T07:50:36Z</time>
      </trkpt>
      <trkpt lat="43.171845" lon="-1.672507">
        <ele>167.456</ele>
        <time>2021-06-12T07:50:37Z</time>
      </trkpt>
      <trkpt lat="43.171911" lon="-1.672392">
        <ele>165.921</ele>
        <time>2021-06-12T07:50:42Z</time>
      </trkpt>
      <trkpt lat="43.171901" lon="-1.672356">
        <ele>165.908</ele>
        <time>2021-06-12T07:50:43Z</time>
      </trkpt>
      <trkpt lat="43.171877" lon="-1.672328">
        <ele>165.944</ele>
        <time>2021-06-12T07:50:44Z</time>
      </trkpt>
      <trkpt lat="43.171743" lon="-1.672176">
        <ele>165.482</ele>
        <time>2021-06-12T07:50:52Z</time>
      </trkpt>
      <trkpt lat="43.171692" lon="-1.672042">
        <ele>166.443</ele>
        <time>2021-06-12T07:50:58Z</time>
      </trkpt>
      <trkpt lat="43.171682" lon="-1.672016">
        <ele>167.859</ele>
        <time>2021-06-12T07:51:04Z</time>
      </trkpt>
      <trkpt lat="43.171636" lon="-1.672042">
        <ele>168.315</ele>
        <time>2021-06-12T07:51:12Z</time>
      </trkpt>
      <trkpt lat="43.171637" lon="-1.672053">
        <ele>169.377</ele>
        <time>2021-06-12T07:51:21Z</time>
      </trkpt>
      <trkpt lat="43.171651" lon="-1.672039">
        <ele>170.218</ele>
        <time>2021-06-12T07:51:33Z</time>
      </trkpt>
      <trkpt lat="43.171637" lon="-1.672026">
        <ele>170.244</ele>
        <time>2021-06-12T07:51:35Z</time>
      </trkpt>
      <trkpt lat="43.171625" lon="-1.672019">
        <ele>170.236</ele>
        <time>2021-06-12T07:51:36Z</time>
      </trkpt>
      <trkpt lat="43.171611" lon="-1.672011">
        <ele>170.217</ele>
        <time>2021-06-12T07:51:37Z</time>
      </trkpt>
      <trkpt lat="43.171470" lon="-1.671937">
        <ele>168.818</ele>
        <time>2021-06-12T07:51:43Z</time>
      </trkpt>
      <trkpt lat="43.171268" lon="-1.671827">
        <ele>167.808</ele>
        <time>2021-06-12T07:51:51Z</time>
      </trkpt>
      <trkpt lat="43.170989" lon="-1.671639">
        <ele>168.890</ele>
        <time>2021-06-12T07:52:02Z</time>
      </trkpt>
      <trkpt lat="43.170761" lon="-1.671487">
        <ele>170.768</ele>
        <time>2021-06-12T07:52:12Z</time>
      </trkpt>
      <trkpt lat="43.170566" lon="-1.671349">
        <ele>172.669</ele>
        <time>2021-06-12T07:52:21Z</time>
      </trkpt>
      <trkpt lat="43.170531" lon="-1.671324">
        <ele>173.635</ele>
        <time>2021-06-12T07:52:26Z</time>
      </trkpt>
      <trkpt lat="43.170538" lon="-1.671299">
        <ele>173.651</ele>
        <time>2021-06-12T07:52:40Z</time>
      </trkpt>
      <trkpt lat="43.170533" lon="-1.671296">
        <ele>172.693</ele>
        <time>2021-06-12T07:52:48Z</time>
      </trkpt>
      <trkpt lat="43.170540" lon="-1.671289">
        <ele>173.654</ele>
        <time>2021-06-12T07:53:00Z</time>
      </trkpt>
      <trkpt lat="43.170489" lon="-1.671254">
        <ele>174.150</ele>
        <time>2021-06-12T07:53:08Z</time>
      </trkpt>
      <trkpt lat="43.170329" lon="-1.671252">
        <ele>173.611</ele>
        <time>2021-06-12T07:53:16Z</time>
      </trkpt>
      <trkpt lat="43.170172" lon="-1.671218">
        <ele>172.621</ele>
        <time>2021-06-12T07:53:21Z</time>
      </trkpt>
      <trkpt lat="43.170134" lon="-1.671209">
        <ele>172.203</ele>
        <time>2021-06-12T07:53:22Z</time>
      </trkpt>
      <trkpt lat="43.170091" lon="-1.671204">
        <ele>172.208</ele>
        <time>2021-06-12T07:53:23Z</time>
      </trkpt>
      <trkpt lat="43.170043" lon="-1.671209">
        <ele>171.758</ele>
        <time>2021-06-12T07:53:24Z</time>
      </trkpt>
      <trkpt lat="43.169946" lon="-1.671230">
        <ele>171.286</ele>
        <time>2021-06-12T07:53:26Z</time>
      </trkpt>
      <trkpt lat="43.169894" lon="-1.671233">
        <ele>170.797</ele>
        <time>2021-06-12T07:53:27Z</time>
      </trkpt>
      <trkpt lat="43.169845" lon="-1.671230">
        <ele>170.753</ele>
        <time>2021-06-12T07:53:28Z</time>
      </trkpt>
      <trkpt lat="43.169462" lon="-1.671202">
        <ele>169.329</ele>
        <time>2021-06-12T07:53:36Z</time>
      </trkpt>
      <trkpt lat="43.168938" lon="-1.671207">
        <ele>166.421</ele>
        <time>2021-06-12T07:53:46Z</time>
      </trkpt>
      <trkpt lat="43.168605" lon="-1.671172">
        <ele>163.062</ele>
        <time>2021-06-12T07:53:53Z</time>
      </trkpt>
      <trkpt lat="43.168362" lon="-1.671078">
        <ele>159.268</ele>
        <time>2021-06-12T07:53:58Z</time>
      </trkpt>
      <trkpt lat="43.168321" lon="-1.671052">
        <ele>158.758</ele>
        <time>2021-06-12T07:53:59Z</time>
      </trkpt>
      <trkpt lat="43.168184" lon="-1.670918">
        <ele>154.952</ele>
        <time>2021-06-12T07:54:04Z</time>
      </trkpt>
      <trkpt lat="43.168078" lon="-1.670723">
        <ele>152.017</ele>
        <time>2021-06-12T07:54:10Z</time>
      </trkpt>
      <trkpt lat="43.168021" lon="-1.670590">
        <ele>150.108</ele>
        <time>2021-06-12T07:54:13Z</time>
      </trkpt>
      <trkpt lat="43.167987" lon="-1.670541">
        <ele>149.642</ele>
        <time>2021-06-12T07:54:14Z</time>
      </trkpt>
      <trkpt lat="43.167950" lon="-1.670497">
        <ele>149.670</ele>
        <time>2021-06-12T07:54:15Z</time>
      </trkpt>
      <trkpt lat="43.167905" lon="-1.670451">
        <ele>149.161</ele>
        <time>2021-06-12T07:54:16Z</time>
      </trkpt>
      <trkpt lat="43.167855" lon="-1.670411">
        <ele>148.627</ele>
        <time>2021-06-12T07:54:17Z</time>
      </trkpt>
      <trkpt lat="43.167462" lon="-1.670132">
        <ele>145.743</ele>
        <time>2021-06-12T07:54:24Z</time>
      </trkpt>
      <trkpt lat="43.167418" lon="-1.670082">
        <ele>145.345</ele>
        <time>2021-06-12T07:54:25Z</time>
      </trkpt>
      <trkpt lat="43.167376" lon="-1.670022">
        <ele>144.876</ele>
        <time>2021-06-12T07:54:26Z</time>
      </trkpt>
      <trkpt lat="43.167341" lon="-1.669954">
        <ele>144.372</ele>
        <time>2021-06-12T07:54:27Z</time>
      </trkpt>
      <trkpt lat="43.167314" lon="-1.669887">
        <ele>143.897</ele>
        <time>2021-06-12T07:54:28Z</time>
      </trkpt>
      <trkpt lat="43.167253" lon="-1.669753">
        <ele>142.823</ele>
        <time>2021-06-12T07:54:30Z</time>
      </trkpt>
      <trkpt lat="43.167220" lon="-1.669695">
        <ele>142.425</ele>
        <time>2021-06-12T07:54:31Z</time>
      </trkpt>
      <trkpt lat="43.167185" lon="-1.669647">
        <ele>141.908</ele>
        <time>2021-06-12T07:54:32Z</time>
      </trkpt>
      <trkpt lat="43.166944" lon="-1.669416">
        <ele>139.556</ele>
        <time>2021-06-12T07:54:39Z</time>
      </trkpt>
      <trkpt lat="43.166665" lon="-1.669333">
        <ele>136.614</ele>
        <time>2021-06-12T07:54:45Z</time>
      </trkpt>
      <trkpt lat="43.166501" lon="-1.669249">
        <ele>133.795</ele>
        <time>2021-06-12T07:54:49Z</time>
      </trkpt>
      <trkpt lat="43.166364" lon="-1.669197">
        <ele>132.351</ele>
        <time>2021-06-12T07:54:52Z</time>
      </trkpt>
      <trkpt lat="43.166117" lon="-1.669193">
        <ele>128.417</ele>
        <time>2021-06-12T07:54:58Z</time>
      </trkpt>
      <trkpt lat="43.165963" lon="-1.669181">
        <ele>123.679</ele>
        <time>2021-06-12T07:55:04Z</time>
      </trkpt>
      <trkpt lat="43.165850" lon="-1.669151">
        <ele>119.330</ele>
        <time>2021-06-12T07:55:10Z</time>
      </trkpt>
      <trkpt lat="43.165797" lon="-1.669139">
        <ele>118.346</ele>
        <time>2021-06-12T07:55:13Z</time>
      </trkpt>
      <trkpt lat="43.165771" lon="-1.669151">
        <ele>118.369</ele>
        <time>2021-06-12T07:55:14Z</time>
      </trkpt>
      <trkpt lat="43.165744" lon="-1.669170">
        <ele>118.304</ele>
        <time>2021-06-12T07:55:15Z</time>
      </trkpt>
      <trkpt lat="43.165717" lon="-1.669186">
        <ele>118.324</ele>
        <time>2021-06-12T07:55:16Z</time>
      </trkpt>
      <trkpt lat="43.165684" lon="-1.669193">
        <ele>118.308</ele>
        <time>2021-06-12T07:55:17Z</time>
      </trkpt>
      <trkpt lat="43.165646" lon="-1.669190">
        <ele>118.353</ele>
        <time>2021-06-12T07:55:18Z</time>
      </trkpt>
      <trkpt lat="43.165613" lon="-1.669181">
        <ele>117.991</ele>
        <time>2021-06-12T07:55:19Z</time>
      </trkpt>
      <trkpt lat="43.165582" lon="-1.669170">
        <ele>117.472</ele>
        <time>2021-06-12T07:55:20Z</time>
      </trkpt>
      <trkpt lat="43.165549" lon="-1.669158">
        <ele>116.958</ele>
        <time>2021-06-12T07:55:21Z</time>
      </trkpt>
      <trkpt lat="43.165343" lon="-1.669025">
        <ele>115.524</ele>
        <time>2021-06-12T07:55:26Z</time>
      </trkpt>
      <trkpt lat="43.165301" lon="-1.668989">
        <ele>115.036</ele>
        <time>2021-06-12T07:55:27Z</time>
      </trkpt>
      <trkpt lat="43.165252" lon="-1.668961">
        <ele>114.017</ele>
        <time>2021-06-12T07:55:28Z</time>
      </trkpt>
      <trkpt lat="43.165199" lon="-1.668947">
        <ele>113.523</ele>
        <time>2021-06-12T07:55:29Z</time>
      </trkpt>
      <trkpt lat="43.165146" lon="-1.668954">
        <ele>113.027</ele>
        <time>2021-06-12T07:55:30Z</time>
      </trkpt>
      <trkpt lat="43.165097" lon="-1.668979">
        <ele>112.668</ele>
        <time>2021-06-12T07:55:31Z</time>
      </trkpt>
      <trkpt lat="43.165058" lon="-1.669017">
        <ele>112.114</ele>
        <time>2021-06-12T07:55:32Z</time>
      </trkpt>
      <trkpt lat="43.165027" lon="-1.669067">
        <ele>111.608</ele>
        <time>2021-06-12T07:55:33Z</time>
      </trkpt>
      <trkpt lat="43.165005" lon="-1.669122">
        <ele>111.179</ele>
        <time>2021-06-12T07:55:34Z</time>
      </trkpt>
      <trkpt lat="43.164992" lon="-1.669166">
        <ele>110.617</ele>
        <time>2021-06-12T07:55:35Z</time>
      </trkpt>
      <trkpt lat="43.164987" lon="-1.669227">
        <ele>110.218</ele>
        <time>2021-06-12T07:55:36Z</time>
      </trkpt>
      <trkpt lat="43.164991" lon="-1.669273">
        <ele>110.224</ele>
        <time>2021-06-12T07:55:37Z</time>
      </trkpt>
      <trkpt lat="43.165002" lon="-1.669333">
        <ele>109.750</ele>
        <time>2021-06-12T07:55:38Z</time>
      </trkpt>
      <trkpt lat="43.165077" lon="-1.669954">
        <ele>107.862</ele>
        <time>2021-06-12T07:55:49Z</time>
      </trkpt>
      <trkpt lat="43.165171" lon="-1.670288">
        <ele>106.823</ele>
        <time>2021-06-12T07:55:56Z</time>
      </trkpt>
      <trkpt lat="43.165216" lon="-1.670405">
        <ele>106.879</ele>
        <time>2021-06-12T07:56:02Z</time>
      </trkpt>
      <trkpt lat="43.165278" lon="-1.670592">
        <ele>106.311</ele>
        <time>2021-06-12T07:56:08Z</time>
      </trkpt>
      <trkpt lat="43.165284" lon="-1.670897">
        <ele>107.321</ele>
        <time>2021-06-12T07:56:16Z</time>
      </trkpt>
      <trkpt lat="43.165323" lon="-1.671121">
        <ele>108.203</ele>
        <time>2021-06-12T07:56:22Z</time>
      </trkpt>
      <trkpt lat="43.165455" lon="-1.671376">
        <ele>110.208</ele>
        <time>2021-06-12T07:56:29Z</time>
      </trkpt>
      <trkpt lat="43.165589" lon="-1.671683">
        <ele>110.638</ele>
        <time>2021-06-12T07:56:37Z</time>
      </trkpt>
      <trkpt lat="43.165697" lon="-1.672013">
        <ele>110.666</ele>
        <time>2021-06-12T07:56:45Z</time>
      </trkpt>
      <trkpt lat="43.165806" lon="-1.672294">
        <ele>110.677</ele>
        <time>2021-06-12T07:56:52Z</time>
      </trkpt>
      <trkpt lat="43.165875" lon="-1.672367">
        <ele>110.693</ele>
        <time>2021-06-12T07:56:58Z</time>
      </trkpt>
      <trkpt lat="43.165875" lon="-1.672355">
        <ele>111.159</ele>
        <time>2021-06-12T07:57:08Z</time>
      </trkpt>
      <trkpt lat="43.165891" lon="-1.672393">
        <ele>110.621</ele>
        <time>2021-06-12T07:57:18Z</time>
      </trkpt>
      <trkpt lat="43.166012" lon="-1.672556">
        <ele>110.612</ele>
        <time>2021-06-12T07:57:26Z</time>
      </trkpt>
      <trkpt lat="43.166234" lon="-1.672829">
        <ele>111.198</ele>
        <time>2021-06-12T07:57:36Z</time>
      </trkpt>
      <trkpt lat="43.166431" lon="-1.673187">
        <ele>110.666</ele>
        <time>2021-06-12T07:57:45Z</time>
      </trkpt>
      <trkpt lat="43.166607" lon="-1.673517">
        <ele>112.129</ele>
        <time>2021-06-12T07:57:53Z</time>
      </trkpt>
      <trkpt lat="43.166808" lon="-1.673942">
        <ele>114.021</ele>
        <time>2021-06-12T07:58:03Z</time>
      </trkpt>
      <trkpt lat="43.166992" lon="-1.674294">
        <ele>116.408</ele>
        <time>2021-06-12T07:58:11Z</time>
      </trkpt>
      <trkpt lat="43.167110" lon="-1.674702">
        <ele>113.513</ele>
        <time>2021-06-12T07:58:19Z</time>
      </trkpt>
      <trkpt lat="43.167332" lon="-1.675218">
        <ele>110.651</ele>
        <time>2021-06-12T07:58:30Z</time>
      </trkpt>
      <trkpt lat="43.167518" lon="-1.675601">
        <ele>110.232</ele>
        <time>2021-06-12T07:58:39Z</time>
      </trkpt>
      <trkpt lat="43.167623" lon="-1.675835">
        <ele>110.268</ele>
        <time>2021-06-12T07:58:45Z</time>
      </trkpt>
      <trkpt lat="43.167800" lon="-1.676123">
        <ele>111.134</ele>
        <time>2021-06-12T07:58:53Z</time>
      </trkpt>
      <trkpt lat="43.168013" lon="-1.676365">
        <ele>111.626</ele>
        <time>2021-06-12T07:59:01Z</time>
      </trkpt>
      <trkpt lat="43.168214" lon="-1.676525">
        <ele>110.257</ele>
        <time>2021-06-12T07:59:08Z</time>
      </trkpt>
      <trkpt lat="43.168377" lon="-1.676610">
        <ele>109.793</ele>
        <time>2021-06-12T07:59:14Z</time>
      </trkpt>
      <trkpt lat="43.168664" lon="-1.676652">
        <ele>107.327</ele>
        <time>2021-06-12T07:59:23Z</time>
      </trkpt>
      <trkpt lat="43.168958" lon="-1.676596">
        <ele>109.768</ele>
        <time>2021-06-12T07:59:31Z</time>
      </trkpt>
      <trkpt lat="43.169172" lon="-1.676533">
        <ele>112.614</ele>
        <time>2021-06-12T07:59:37Z</time>
      </trkpt>
      <trkpt lat="43.169462" lon="-1.676447">
        <ele>116.408</ele>
        <time>2021-06-12T07:59:44Z</time>
      </trkpt>
      <trkpt lat="43.169799" lon="-1.676300">
        <ele>118.839</ele>
        <time>2021-06-12T07:59:53Z</time>
      </trkpt>
      <trkpt lat="43.170095" lon="-1.676249">
        <ele>120.387</ele>
        <time>2021-06-12T08:00:00Z</time>
      </trkpt>
      <trkpt lat="43.170466" lon="-1.676313">
        <ele>112.198</ele>
        <time>2021-06-12T08:00:09Z</time>
      </trkpt>
      <trkpt lat="43.170809" lon="-1.676444">
        <ele>109.734</ele>
        <time>2021-06-12T08:00:18Z</time>
      </trkpt>
      <trkpt lat="43.171315" lon="-1.676627">
        <ele>107.860</ele>
        <time>2021-06-12T08:00:31Z</time>
      </trkpt>
      <trkpt lat="43.171708" lon="-1.676775">
        <ele>107.382</ele>
        <time>2021-06-12T08:00:41Z</time>
      </trkpt>
      <trkpt lat="43.172142" lon="-1.676943">
        <ele>107.353</ele>
        <time>2021-06-12T08:00:52Z</time>
      </trkpt>
      <trkpt lat="43.172573" lon="-1.677118">
        <ele>107.329</ele>
        <time>2021-06-12T08:01:03Z</time>
      </trkpt>
      <trkpt lat="43.172615" lon="-1.677130">
        <ele>107.374</ele>
        <time>2021-06-12T08:01:04Z</time>
      </trkpt>
      <trkpt lat="43.173047" lon="-1.677272">
        <ele>106.856</ele>
        <time>2021-06-12T08:01:14Z</time>
      </trkpt>
      <trkpt lat="43.173479" lon="-1.677402">
        <ele>106.821</ele>
        <time>2021-06-12T08:01:25Z</time>
      </trkpt>
      <trkpt lat="43.173756" lon="-1.677400">
        <ele>106.808</ele>
        <time>2021-06-12T08:01:32Z</time>
      </trkpt>
      <trkpt lat="43.173964" lon="-1.677386">
        <ele>107.844</ele>
        <time>2021-06-12T08:01:38Z</time>
      </trkpt>
      <trkpt lat="43.174254" lon="-1.677372">
        <ele>108.242</ele>
        <time>2021-06-12T08:01:46Z</time>
      </trkpt>
      <trkpt lat="43.174566" lon="-1.677290">
        <ele>109.253</ele>
        <time>2021-06-12T08:01:54Z</time>
      </trkpt>
      <trkpt lat="43.174880" lon="-1.677080">
        <ele>108.729</ele>
        <time>2021-06-12T08:02:02Z</time>
      </trkpt>
      <trkpt lat="43.174991" lon="-1.676974">
        <ele>108.795</ele>
        <time>2021-06-12T08:02:05Z</time>
      </trkpt>
      <trkpt lat="43.175026" lon="-1.676934">
        <ele>108.797</ele>
        <time>2021-06-12T08:02:06Z</time>
      </trkpt>
      <trkpt lat="43.175382" lon="-1.676520">
        <ele>107.848</ele>
        <time>2021-06-12T08:02:16Z</time>
      </trkpt>
      <trkpt lat="43.175649" lon="-1.676180">
        <ele>106.394</ele>
        <time>2021-06-12T08:02:24Z</time>
      </trkpt>
      <trkpt lat="43.175880" lon="-1.675863">
        <ele>104.966</ele>
        <time>2021-06-12T08:02:31Z</time>
      </trkpt>
      <trkpt lat="43.175912" lon="-1.675821">
        <ele>104.929</ele>
        <time>2021-06-12T08:02:32Z</time>
      </trkpt>
      <trkpt lat="43.175942" lon="-1.675777">
        <ele>104.921</ele>
        <time>2021-06-12T08:02:33Z</time>
      </trkpt>
      <trkpt lat="43.176089" lon="-1.675434">
        <ele>104.408</ele>
        <time>2021-06-12T08:02:40Z</time>
      </trkpt>
      <trkpt lat="43.176182" lon="-1.675079">
        <ele>103.453</ele>
        <time>2021-06-12T08:02:47Z</time>
      </trkpt>
      <trkpt lat="43.176215" lon="-1.674712">
        <ele>103.061</ele>
        <time>2021-06-12T08:02:54Z</time>
      </trkpt>
      <trkpt lat="43.176257" lon="-1.674389">
        <ele>103.462</ele>
        <time>2021-06-12T08:03:02Z</time>
      </trkpt>
      <trkpt lat="43.176301" lon="-1.673982">
        <ele>103.068</ele>
        <time>2021-06-12T08:03:09Z</time>
      </trkpt>
      <trkpt lat="43.176362" lon="-1.673400">
        <ele>102.074</ele>
        <time>2021-06-12T08:03:19Z</time>
      </trkpt>
      <trkpt lat="43.176396" lon="-1.673073">
        <ele>102.546</ele>
        <time>2021-06-12T08:03:25Z</time>
      </trkpt>
      <trkpt lat="43.176405" lon="-1.673020">
        <ele>102.027</ele>
        <time>2021-06-12T08:03:26Z</time>
      </trkpt>
      <trkpt lat="43.176436" lon="-1.672698">
        <ele>99.613</ele>
        <time>2021-06-12T08:03:32Z</time>
      </trkpt>
      <trkpt lat="43.176439" lon="-1.672582">
        <ele>98.627</ele>
        <time>2021-06-12T08:03:34Z</time>
      </trkpt>
      <trkpt lat="43.176439" lon="-1.672526">
        <ele>98.168</ele>
        <time>2021-06-12T08:03:35Z</time>
      </trkpt>
      <trkpt lat="43.176424" lon="-1.672149">
        <ele>96.714</ele>
        <time>2021-06-12T08:03:42Z</time>
      </trkpt>
      <trkpt lat="43.176380" lon="-1.671676">
        <ele>97.208</ele>
        <time>2021-06-12T08:03:50Z</time>
      </trkpt>
      <trkpt lat="43.176365" lon="-1.671446">
        <ele>98.159</ele>
        <time>2021-06-12T08:03:54Z</time>
      </trkpt>
      <trkpt lat="43.176360" lon="-1.671385">
        <ele>98.177</ele>
        <time>2021-06-12T08:03:55Z</time>
      </trkpt>
      <trkpt lat="43.176355" lon="-1.671328">
        <ele>98.188</ele>
        <time>2021-06-12T08:03:56Z</time>
      </trkpt>
      <trkpt lat="43.176305" lon="-1.670919">
        <ele>99.634</ele>
        <time>2021-06-12T08:04:03Z</time>
      </trkpt>
      <trkpt lat="43.176245" lon="-1.670490">
        <ele>100.630</ele>
        <time>2021-06-12T08:04:10Z</time>
      </trkpt>
      <trkpt lat="43.176224" lon="-1.670375">
        <ele>101.052</ele>
        <time>2021-06-12T08:04:12Z</time>
      </trkpt>
      <trkpt lat="43.176127" lon="-1.669836">
        <ele>102.093</ele>
        <time>2021-06-12T08:04:21Z</time>
      </trkpt>
      <trkpt lat="43.176013" lon="-1.669285">
        <ele>101.529</ele>
        <time>2021-06-12T08:04:31Z</time>
      </trkpt>
      <trkpt lat="43.175929" lon="-1.668701">
        <ele>101.514</ele>
        <time>2021-06-12T08:04:42Z</time>
      </trkpt>
      <trkpt lat="43.175960" lon="-1.668346">
        <ele>101.554</ele>
        <time>2021-06-12T08:04:49Z</time>
      </trkpt>
      <trkpt lat="43.176104" lon="-1.667893">
        <ele>99.609</ele>
        <time>2021-06-12T08:04:58Z</time>
      </trkpt>
      <trkpt lat="43.176367" lon="-1.667518">
        <ele>99.108</ele>
        <time>2021-06-12T08:05:07Z</time>
      </trkpt>
      <trkpt lat="43.176469" lon="-1.667421">
        <ele>99.138</ele>
        <time>2021-06-12T08:05:10Z</time>
      </trkpt>
      <trkpt lat="43.176505" lon="-1.667395">
        <ele>99.176</ele>
        <time>2021-06-12T08:05:11Z</time>
      </trkpt>
      <trkpt lat="43.176907" lon="-1.667219">
        <ele>99.177</ele>
        <time>2021-06-12T08:05:21Z</time>
      </trkpt>
      <trkpt lat="43.177258" lon="-1.667250">
        <ele>98.653</ele>
        <time>2021-06-12T08:05:29Z</time>
      </trkpt>
      <trkpt lat="43.177300" lon="-1.667264">
        <ele>98.629</ele>
        <time>2021-06-12T08:05:30Z</time>
      </trkpt>
      <trkpt lat="43.177340" lon="-1.667279">
        <ele>98.671</ele>
        <time>2021-06-12T08:05:31Z</time>
      </trkpt>
      <trkpt lat="43.177497" lon="-1.667358">
        <ele>98.132</ele>
        <time>2021-06-12T08:05:35Z</time>
      </trkpt>
      <trkpt lat="43.177763" lon="-1.667607">
        <ele>97.248</ele>
        <time>2021-06-12T08:05:43Z</time>
      </trkpt>
      <trkpt lat="43.178096" lon="-1.668056">
        <ele>97.229</ele>
        <time>2021-06-12T08:05:54Z</time>
      </trkpt>
      <trkpt lat="43.178336" lon="-1.668386">
        <ele>97.700</ele>
        <time>2021-06-12T08:06:02Z</time>
      </trkpt>
      <trkpt lat="43.178582" lon="-1.668737">
        <ele>98.120</ele>
        <time>2021-06-12T08:06:11Z</time>
      </trkpt>
      <trkpt lat="43.178877" lon="-1.669152">
        <ele>97.708</ele>
        <time>2021-06-12T08:06:22Z</time>
      </trkpt>
      <trkpt lat="43.179118" lon="-1.669505">
        <ele>98.149</ele>
        <time>2021-06-12T08:06:31Z</time>
      </trkpt>
      <trkpt lat="43.179360" lon="-1.669840">
        <ele>96.727</ele>
        <time>2021-06-12T08:06:39Z</time>
      </trkpt>
      <trkpt lat="43.179652" lon="-1.670295">
        <ele>96.288</ele>
        <time>2021-06-12T08:06:49Z</time>
      </trkpt>
      <trkpt lat="43.179854" lon="-1.670550">
        <ele>95.754</ele>
        <time>2021-06-12T08:06:56Z</time>
      </trkpt>
      <trkpt lat="43.179926" lon="-1.670636">
        <ele>95.790</ele>
        <time>2021-06-12T08:06:59Z</time>
      </trkpt>
      <trkpt lat="43.179955" lon="-1.670656">
        <ele>95.752</ele>
        <time>2021-06-12T08:07:00Z</time>
      </trkpt>
      <trkpt lat="43.179985" lon="-1.670674">
        <ele>95.773</ele>
        <time>2021-06-12T08:07:01Z</time>
      </trkpt>
      <trkpt lat="43.180017" lon="-1.670689">
        <ele>95.779</ele>
        <time>2021-06-12T08:07:02Z</time>
      </trkpt>
      <trkpt lat="43.180052" lon="-1.670701">
        <ele>95.357</ele>
        <time>2021-06-12T08:07:03Z</time>
      </trkpt>
      <trkpt lat="43.180290" lon="-1.670774">
        <ele>95.300</ele>
        <time>2021-06-12T08:07:10Z</time>
      </trkpt>
      <trkpt lat="43.180551" lon="-1.670773">
        <ele>96.220</ele>
        <time>2021-06-12T08:07:17Z</time>
      </trkpt>
      <trkpt lat="43.180859" lon="-1.670696">
        <ele>96.708</ele>
        <time>2021-06-12T08:07:24Z</time>
      </trkpt>
      <trkpt lat="43.181319" lon="-1.670612">
        <ele>98.632</ele>
        <time>2021-06-12T08:07:32Z</time>
      </trkpt>
      <trkpt lat="43.181785" lon="-1.670597">
        <ele>98.160</ele>
        <time>2021-06-12T08:07:43Z</time>
      </trkpt>
      <trkpt lat="43.182241" lon="-1.670512">
        <ele>95.781</ele>
        <time>2021-06-12T08:07:54Z</time>
      </trkpt>
      <trkpt lat="43.182364" lon="-1.670482">
        <ele>96.227</ele>
        <time>2021-06-12T08:07:57Z</time>
      </trkpt>
      <trkpt lat="43.182405" lon="-1.670472">
        <ele>96.293</ele>
        <time>2021-06-12T08:07:58Z</time>
      </trkpt>
      <trkpt lat="43.182888" lon="-1.670334">
        <ele>95.725</ele>
        <time>2021-06-12T08:08:10Z</time>
      </trkpt>
      <trkpt lat="43.183158" lon="-1.670256">
        <ele>96.236</ele>
        <time>2021-06-12T08:08:17Z</time>
      </trkpt>
      <trkpt lat="43.183287" lon="-1.670202">
        <ele>96.212</ele>
        <time>2021-06-12T08:08:23Z</time>
      </trkpt>
      <trkpt lat="43.183420" lon="-1.670184">
        <ele>96.768</ele>
        <time>2021-06-12T08:08:31Z</time>
      </trkpt>
      <trkpt lat="43.183682" lon="-1.670109">
        <ele>97.742</ele>
        <time>2021-06-12T08:08:39Z</time>
      </trkpt>
      <trkpt lat="43.183936" lon="-1.670044">
        <ele>97.726</ele>
        <time>2021-06-12T08:08:46Z</time>
      </trkpt>
      <trkpt lat="43.184225" lon="-1.669961">
        <ele>97.208</ele>
        <time>2021-06-12T08:08:55Z</time>
      </trkpt>
      <trkpt lat="43.184512" lon="-1.669883">
        <ele>97.733</ele>
        <time>2021-06-12T08:09:04Z</time>
      </trkpt>
      <trkpt lat="43.184791" lon="-1.669825">
        <ele>98.161</ele>
        <time>2021-06-12T08:09:12Z</time>
      </trkpt>
      <trkpt lat="43.185131" lon="-1.669828">
        <ele>97.252</ele>
        <time>2021-06-12T08:09:21Z</time>
      </trkpt>
      <trkpt lat="43.185498" lon="-1.669968">
        <ele>96.738</ele>
        <time>2021-06-12T08:09:30Z</time>
      </trkpt>
      <trkpt lat="43.185537" lon="-1.669997">
        <ele>96.254</ele>
        <time>2021-06-12T08:09:31Z</time>
      </trkpt>
      <trkpt lat="43.185570" lon="-1.670021">
        <ele>96.216</ele>
        <time>2021-06-12T08:09:32Z</time>
      </trkpt>
      <trkpt lat="43.185601" lon="-1.670044">
        <ele>96.237</ele>
        <time>2021-06-12T08:09:33Z</time>
      </trkpt>
      <trkpt lat="43.185637" lon="-1.670075">
        <ele>96.273</ele>
        <time>2021-06-12T08:09:34Z</time>
      </trkpt>
      <trkpt lat="43.185668" lon="-1.670102">
        <ele>96.259</ele>
        <time>2021-06-12T08:09:35Z</time>
      </trkpt>
      <trkpt lat="43.185859" lon="-1.670326">
        <ele>95.703</ele>
        <time>2021-06-12T08:09:41Z</time>
      </trkpt>
      <trkpt lat="43.186040" lon="-1.670603">
        <ele>97.223</ele>
        <time>2021-06-12T08:09:49Z</time>
      </trkpt>
      <trkpt lat="43.186055" lon="-1.670637">
        <ele>97.208</ele>
        <time>2021-06-12T08:09:51Z</time>
      </trkpt>
      <trkpt lat="43.186101" lon="-1.670752">
        <ele>96.782</ele>
        <time>2021-06-12T08:09:59Z</time>
      </trkpt>
      <trkpt lat="43.186119" lon="-1.670832">
        <ele>96.780</ele>
        <time>2021-06-12T08:10:07Z</time>
      </trkpt>
      <trkpt lat="43.186117" lon="-1.670818">
        <ele>97.711</ele>
        <time>2021-06-12T08:10:19Z</time>
      </trkpt>
      <trkpt lat="43.186123" lon="-1.670811">
        <ele>97.727</ele>
        <time>2021-06-12T08:10:31Z</time>
      </trkpt>
      <trkpt lat="43.186125" lon="-1.670825">
        <ele>99.133</ele>
        <time>2021-06-12T08:10:43Z</time>
      </trkpt>
      <trkpt lat="43.186150" lon="-1.670881">
        <ele>98.145</ele>
        <time>2021-06-12T08:10:49Z</time>
      </trkpt>
      <trkpt lat="43.186222" lon="-1.671093">
        <ele>97.716</ele>
        <time>2021-06-12T08:10:55Z</time>
      </trkpt>
      <trkpt lat="43.186330" lon="-1.671407">
        <ele>98.162</ele>
        <time>2021-06-12T08:11:03Z</time>
      </trkpt>
      <trkpt lat="43.186317" lon="-1.671409">
        <ele>98.124</ele>
        <time>2021-06-12T08:11:05Z</time>
      </trkpt>
      <trkpt lat="43.186292" lon="-1.671314">
        <ele>97.704</ele>
        <time>2021-06-12T08:11:09Z</time>
      </trkpt>
      <trkpt lat="43.186281" lon="-1.671275">
        <ele>97.714</ele>
        <time>2021-06-12T08:11:10Z</time>
      </trkpt>
      <trkpt lat="43.186273" lon="-1.671248">
        <ele>97.708</ele>
        <time>2021-06-12T08:11:11Z</time>
      </trkpt>
      <trkpt lat="43.186182" lon="-1.670974">
        <ele>97.249</ele>
        <time>2021-06-12T08:11:19Z</time>
      </trkpt>
      <trkpt lat="43.186146" lon="-1.670892">
        <ele>97.277</ele>
        <time>2021-06-12T08:11:25Z</time>
      </trkpt>
      <trkpt lat="43.186159" lon="-1.670888">
        <ele>97.238</ele>
        <time>2021-06-12T08:11:30Z</time>
      </trkpt>
      <trkpt lat="43.186169" lon="-1.670918">
        <ele>96.784</ele>
        <time>2021-06-12T08:11:34Z</time>
      </trkpt>
      <trkpt lat="43.186176" lon="-1.670937">
        <ele>97.250</ele>
        <time>2021-06-12T08:11:35Z</time>
      </trkpt>
      <trkpt lat="43.186183" lon="-1.670962">
        <ele>97.212</ele>
        <time>2021-06-12T08:11:36Z</time>
      </trkpt>
      <trkpt lat="43.186189" lon="-1.670986">
        <ele>96.763</ele>
        <time>2021-06-12T08:11:37Z</time>
      </trkpt>
      <trkpt lat="43.186199" lon="-1.671017">
        <ele>97.299</ele>
        <time>2021-06-12T08:11:38Z</time>
      </trkpt>
      <trkpt lat="43.186310" lon="-1.671335">
        <ele>96.778</ele>
        <time>2021-06-12T08:11:46Z</time>
      </trkpt>
      <trkpt lat="43.186474" lon="-1.671808">
        <ele>96.733</ele>
        <time>2021-06-12T08:11:56Z</time>
      </trkpt>
      <trkpt lat="43.186605" lon="-1.672192">
        <ele>97.226</ele>
        <time>2021-06-12T08:12:05Z</time>
      </trkpt>
      <trkpt lat="43.186725" lon="-1.672537">
        <ele>97.208</ele>
        <time>2021-06-12T08:12:13Z</time>
      </trkpt>
      <trkpt lat="43.186842" lon="-1.672875">
        <ele>97.244</ele>
        <time>2021-06-12T08:12:20Z</time>
      </trkpt>
      <trkpt lat="43.187001" lon="-1.673359">
        <ele>96.742</ele>
        <time>2021-06-12T08:12:30Z</time>
      </trkpt>
      <trkpt lat="43.187124" lon="-1.673734">
        <ele>97.213</ele>
        <time>2021-06-12T08:12:39Z</time>
      </trkpt>
      <trkpt lat="43.187262" lon="-1.674126">
        <ele>97.239</ele>
        <time>2021-06-12T08:12:48Z</time>
      </trkpt>
      <trkpt lat="43.187396" lon="-1.674508">
        <ele>97.225</ele>
        <time>2021-06-12T08:12:57Z</time>
      </trkpt>
      <trkpt lat="43.187483" lon="-1.674772">
        <ele>98.187</ele>
        <time>2021-06-12T08:13:04Z</time>
      </trkpt>
      <trkpt lat="43.187601" lon="-1.675086">
        <ele>97.278</ele>
        <time>2021-06-12T08:13:13Z</time>
      </trkpt>
      <trkpt lat="43.187766" lon="-1.675360">
        <ele>96.744</ele>
        <time>2021-06-12T08:13:20Z</time>
      </trkpt>
      <trkpt lat="43.187931" lon="-1.675524">
        <ele>97.737</ele>
        <time>2021-06-12T08:13:26Z</time>
      </trkpt>
      <trkpt lat="43.188158" lon="-1.675671">
        <ele>98.649</ele>
        <time>2021-06-12T08:13:33Z</time>
      </trkpt>
      <trkpt lat="43.188381" lon="-1.675775">
        <ele>98.113</ele>
        <time>2021-06-12T08:13:39Z</time>
      </trkpt>
      <trkpt lat="43.188665" lon="-1.675822">
        <ele>96.708</ele>
        <time>2021-06-12T08:13:46Z</time>
      </trkpt>
      <trkpt lat="43.189007" lon="-1.675715">
        <ele>95.740</ele>
        <time>2021-06-12T08:13:54Z</time>
      </trkpt>
      <trkpt lat="43.189266" lon="-1.675569">
        <ele>96.248</ele>
        <time>2021-06-12T08:14:01Z</time>
      </trkpt>
      <trkpt lat="43.189492" lon="-1.675354">
        <ele>97.779</ele>
        <time>2021-06-12T08:14:08Z</time>
      </trkpt>
      <trkpt lat="43.189670" lon="-1.675062">
        <ele>98.615</ele>
        <time>2021-06-12T08:14:15Z</time>
      </trkpt>
      <trkpt lat="43.189845" lon="-1.674589">
        <ele>98.151</ele>
        <time>2021-06-12T08:14:26Z</time>
      </trkpt>
      <trkpt lat="43.189980" lon="-1.674142">
        <ele>99.123</ele>
        <time>2021-06-12T08:14:36Z</time>
      </trkpt>
      <trkpt lat="43.190082" lon="-1.673772">
        <ele>99.624</ele>
        <time>2021-06-12T08:14:44Z</time>
      </trkpt>
      <trkpt lat="43.190151" lon="-1.673531">
        <ele>99.610</ele>
        <time>2021-06-12T08:14:49Z</time>
      </trkpt>
      <trkpt lat="43.190242" lon="-1.673222">
        <ele>101.087</ele>
        <time>2021-06-12T08:14:56Z</time>
      </trkpt>
      <trkpt lat="43.190339" lon="-1.672864">
        <ele>101.542</ele>
        <time>2021-06-12T08:15:04Z</time>
      </trkpt>
      <trkpt lat="43.190400" lon="-1.672582">
        <ele>100.126</ele>
        <time>2021-06-12T08:15:10Z</time>
      </trkpt>
      <trkpt lat="43.190455" lon="-1.672257">
        <ele>98.108</ele>
        <time>2021-06-12T08:15:16Z</time>
      </trkpt>
      <trkpt lat="43.190484" lon="-1.671948">
        <ele>99.195</ele>
        <time>2021-06-12T08:15:22Z</time>
      </trkpt>
      <trkpt lat="43.190444" lon="-1.671586">
        <ele>100.643</ele>
        <time>2021-06-12T08:15:29Z</time>
      </trkpt>
      <trkpt lat="43.190430" lon="-1.671459">
        <ele>101.094</ele>
        <time>2021-06-12T08:15:31Z</time>
      </trkpt>
      <trkpt lat="43.190421" lon="-1.671412">
        <ele>101.040</ele>
        <time>2021-06-12T08:15:32Z</time>
      </trkpt>
      <trkpt lat="43.190371" lon="-1.671013">
        <ele>100.116</ele>
        <time>2021-06-12T08:15:40Z</time>
      </trkpt>
      <trkpt lat="43.190377" lon="-1.670697">
        <ele>98.188</ele>
        <time>2021-06-12T08:15:46Z</time>
      </trkpt>
      <trkpt lat="43.190355" lon="-1.670344">
        <ele>97.759</ele>
        <time>2021-06-12T08:15:54Z</time>
      </trkpt>
      <trkpt lat="43.190334" lon="-1.670028">
        <ele>97.235</ele>
        <time>2021-06-12T08:16:01Z</time>
      </trkpt>
      <trkpt lat="43.190318" lon="-1.669634">
        <ele>95.711</ele>
        <time>2021-06-12T08:16:10Z</time>
      </trkpt>
      <trkpt lat="43.190300" lon="-1.669320">
        <ele>95.321</ele>
        <time>2021-06-12T08:16:17Z</time>
      </trkpt>
      <trkpt lat="43.190300" lon="-1.669170">
        <ele>94.303</ele>
        <time>2021-06-12T08:16:22Z</time>
      </trkpt>
      <trkpt lat="43.190289" lon="-1.668878">
        <ele>94.308</ele>
        <time>2021-06-12T08:16:29Z</time>
      </trkpt>
      <trkpt lat="43.190286" lon="-1.668540">
        <ele>93.858</ele>
        <time>2021-06-12T08:16:37Z</time>
      </trkpt>
      <trkpt lat="43.190248" lon="-1.668267">
        <ele>94.396</ele>
        <time>2021-06-12T08:16:43Z</time>
      </trkpt>
      <trkpt lat="43.190270" lon="-1.667842">
        <ele>94.827</ele>
        <time>2021-06-12T08:16:52Z</time>
      </trkpt>
      <trkpt lat="43.190338" lon="-1.667555">
        <ele>96.263</ele>
        <time>2021-06-12T08:16:59Z</time>
      </trkpt>
      <trkpt lat="43.190458" lon="-1.667293">
        <ele>97.229</ele>
        <time>2021-06-12T08:17:06Z</time>
      </trkpt>
      <trkpt lat="43.190621" lon="-1.667081">
        <ele>97.241</ele>
        <time>2021-06-12T08:17:12Z</time>
      </trkpt>
      <trkpt lat="43.190841" lon="-1.666844">
        <ele>95.352</ele>
        <time>2021-06-12T08:17:20Z</time>
      </trkpt>
      <trkpt lat="43.191124" lon="-1.666754">
        <ele>93.858</ele>
        <time>2021-06-12T08:17:28Z</time>
      </trkpt>
      <trkpt lat="43.191473" lon="-1.666632">
        <ele>92.495</ele>
        <time>2021-06-12T08:17:37Z</time>
      </trkpt>
      <trkpt lat="43.191755" lon="-1.666492">
        <ele>92.449</ele>
        <time>2021-06-12T08:17:45Z</time>
      </trkpt>
      <trkpt lat="43.192048" lon="-1.666364">
        <ele>92.923</ele>
        <time>2021-06-12T08:17:53Z</time>
      </trkpt>
      <trkpt lat="43.192346" lon="-1.666235">
        <ele>91.408</ele>
        <time>2021-06-12T08:18:01Z</time>
      </trkpt>
      <trkpt lat="43.192539" lon="-1.666142">
        <ele>90.576</ele>
        <time>2021-06-12T08:18:08Z</time>
      </trkpt>
      <trkpt lat="43.192742" lon="-1.666010">
        <ele>89.014</ele>
        <time>2021-06-12T08:18:15Z</time>
      </trkpt>
      <trkpt lat="43.192982" lon="-1.665874">
        <ele>88.545</ele>
        <time>2021-06-12T08:18:23Z</time>
      </trkpt>
      <trkpt lat="43.193263" lon="-1.665716">
        <ele>88.541</ele>
        <time>2021-06-12T08:18:32Z</time>
      </trkpt>
      <trkpt lat="43.193478" lon="-1.665648">
        <ele>88.137</ele>
        <time>2021-06-12T08:18:40Z</time>
      </trkpt>
      <trkpt lat="43.193742" lon="-1.665599">
        <ele>87.689</ele>
        <time>2021-06-12T08:18:48Z</time>
      </trkpt>
      <trkpt lat="43.194049" lon="-1.665522">
        <ele>88.170</ele>
        <time>2021-06-12T08:18:56Z</time>
      </trkpt>
      <trkpt lat="43.194350" lon="-1.665519">
        <ele>90.096</ele>
        <time>2021-06-12T08:19:03Z</time>
      </trkpt>
      <trkpt lat="43.194472" lon="-1.665732">
        <ele>91.484</ele>
        <time>2021-06-12T08:19:09Z</time>
      </trkpt>
      <trkpt lat="43.194551" lon="-1.666068">
        <ele>91.907</ele>
        <time>2021-06-12T08:19:17Z</time>
      </trkpt>
      <trkpt lat="43.194633" lon="-1.666412">
        <ele>91.917</ele>
        <time>2021-06-12T08:19:24Z</time>
      </trkpt>
      <trkpt lat="43.194706" lon="-1.666632">
        <ele>92.408</ele>
        <time>2021-06-12T08:19:28Z</time>
      </trkpt>
      <trkpt lat="43.194755" lon="-1.666907">
        <ele>92.415</ele>
        <time>2021-06-12T08:19:33Z</time>
      </trkpt>
      <trkpt lat="43.194757" lon="-1.666963">
        <ele>92.493</ele>
        <time>2021-06-12T08:19:34Z</time>
      </trkpt>
      <trkpt lat="43.194758" lon="-1.667017">
        <ele>92.474</ele>
        <time>2021-06-12T08:19:35Z</time>
      </trkpt>
      <trkpt lat="43.194761" lon="-1.667288">
        <ele>92.480</ele>
        <time>2021-06-12T08:19:40Z</time>
      </trkpt>
      <trkpt lat="43.194723" lon="-1.667792">
        <ele>91.976</ele>
        <time>2021-06-12T08:19:49Z</time>
      </trkpt>
      <trkpt lat="43.194723" lon="-1.668115">
        <ele>91.418</ele>
        <time>2021-06-12T08:19:55Z</time>
      </trkpt>
      <trkpt lat="43.194729" lon="-1.668555">
        <ele>91.439</ele>
        <time>2021-06-12T08:20:04Z</time>
      </trkpt>
      <trkpt lat="43.194730" lon="-1.668618">
        <ele>90.995</ele>
        <time>2021-06-12T08:20:06Z</time>
      </trkpt>
      <trkpt lat="43.194736" lon="-1.668636">
        <ele>90.956</ele>
        <time>2021-06-12T08:20:07Z</time>
      </trkpt>
      <trkpt lat="43.194736" lon="-1.668694">
        <ele>90.559</ele>
        <time>2021-06-12T08:20:12Z</time>
      </trkpt>
      <trkpt lat="43.194716" lon="-1.668913">
        <ele>90.914</ele>
        <time>2021-06-12T08:20:18Z</time>
      </trkpt>
      <trkpt lat="43.194687" lon="-1.669245">
        <ele>89.508</ele>
        <time>2021-06-12T08:20:26Z</time>
      </trkpt>
      <trkpt lat="43.194694" lon="-1.669420">
        <ele>89.522</ele>
        <time>2021-06-12T08:20:32Z</time>
      </trkpt>
      <trkpt lat="43.194691" lon="-1.669454">
        <ele>89.580</ele>
        <time>2021-06-12T08:20:39Z</time>
      </trkpt>
      <trkpt lat="43.194690" lon="-1.669468">
        <ele>93.371</ele>
        <time>2021-06-12T08:21:00Z</time>
      </trkpt>
      <trkpt lat="43.194670" lon="-1.669468">
        <ele>94.317</ele>
        <time>2021-06-12T08:21:21Z</time>
      </trkpt>
      <trkpt lat="43.194670" lon="-1.669601">
        <ele>91.973</ele>
        <time>2021-06-12T08:21:27Z</time>
      </trkpt>
      <trkpt lat="43.194662" lon="-1.669769">
        <ele>90.065</ele>
        <time>2021-06-12T08:21:31Z</time>
      </trkpt>
      <trkpt lat="43.194669" lon="-1.669820">
        <ele>90.076</ele>
        <time>2021-06-12T08:21:32Z</time>
      </trkpt>
      <trkpt lat="43.194738" lon="-1.670108">
        <ele>87.192</ele>
        <time>2021-06-12T08:21:38Z</time>
      </trkpt>
      <trkpt lat="43.194771" lon="-1.670200">
        <ele>86.187</ele>
        <time>2021-06-12T08:21:40Z</time>
      </trkpt>
      <trkpt lat="43.194793" lon="-1.670244">
        <ele>86.142</ele>
        <time>2021-06-12T08:21:41Z</time>
      </trkpt>
      <trkpt lat="43.194931" lon="-1.670605">
        <ele>83.726</ele>
        <time>2021-06-12T08:21:49Z</time>
      </trkpt>
      <trkpt lat="43.194964" lon="-1.670729">
        <ele>82.808</ele>
        <time>2021-06-12T08:21:52Z</time>
      </trkpt>
      <trkpt lat="43.194984" lon="-1.670769">
        <ele>82.325</ele>
        <time>2021-06-12T08:21:53Z</time>
      </trkpt>
      <trkpt lat="43.195003" lon="-1.670805">
        <ele>81.873</ele>
        <time>2021-06-12T08:21:54Z</time>
      </trkpt>
      <trkpt lat="43.195024" lon="-1.670843">
        <ele>81.814</ele>
        <time>2021-06-12T08:21:55Z</time>
      </trkpt>
      <trkpt lat="43.195042" lon="-1.670879">
        <ele>81.340</ele>
        <time>2021-06-12T08:21:56Z</time>
      </trkpt>
      <trkpt lat="43.195129" lon="-1.671104">
        <ele>78.936</ele>
        <time>2021-06-12T08:22:03Z</time>
      </trkpt>
      <trkpt lat="43.195197" lon="-1.671139">
        <ele>87.198</ele>
        <time>2021-06-12T08:22:08Z</time>
      </trkpt>
      <trkpt lat="43.195238" lon="-1.671165">
        <ele>92.419</ele>
        <time>2021-06-12T08:22:25Z</time>
      </trkpt>
      <trkpt lat="43.195228" lon="-1.671154">
        <ele>94.355</ele>
        <time>2021-06-12T08:22:37Z</time>
      </trkpt>
      <trkpt lat="43.195184" lon="-1.671126">
        <ele>95.716</ele>
        <time>2021-06-12T08:22:49Z</time>
      </trkpt>
      <trkpt lat="43.195200" lon="-1.671103">
        <ele>98.176</ele>
        <time>2021-06-12T08:22:59Z</time>
      </trkpt>
      <trkpt lat="43.195219" lon="-1.671085">
        <ele>98.113</ele>
        <time>2021-06-12T08:23:06Z</time>
      </trkpt>
      <trkpt lat="43.195223" lon="-1.671079">
        <ele>98.108</ele>
        <time>2021-06-12T08:23:13Z</time>
      </trkpt>
      <trkpt lat="43.195224" lon="-1.671126">
        <ele>99.648</ele>
        <time>2021-06-12T08:23:30Z</time>
      </trkpt>
      <trkpt lat="43.195207" lon="-1.671160">
        <ele>101.576</ele>
        <time>2021-06-12T08:23:49Z</time>
      </trkpt>
      <trkpt lat="43.195235" lon="-1.671156">
        <ele>100.147</ele>
        <time>2021-06-12T08:24:02Z</time>
      </trkpt>
      <trkpt lat="43.195242" lon="-1.671146">
        <ele>97.233</ele>
        <time>2021-06-12T08:24:14Z</time>
      </trkpt>
      <trkpt lat="43.195243" lon="-1.671156">
        <ele>94.869</ele>
        <time>2021-06-12T08:24:22Z</time>
      </trkpt>
      <trkpt lat="43.195259" lon="-1.671131">
        <ele>94.311</ele>
        <time>2021-06-12T08:24:32Z</time>
      </trkpt>
      <trkpt lat="43.195269" lon="-1.671132">
        <ele>95.772</ele>
        <time>2021-06-12T08:24:41Z</time>
      </trkpt>
      <trkpt lat="43.195286" lon="-1.671165">
        <ele>95.378</ele>
        <time>2021-06-12T08:24:50Z</time>
      </trkpt>
      <trkpt lat="43.195283" lon="-1.671187">
        <ele>94.839</ele>
        <time>2021-06-12T08:24:51Z</time>
      </trkpt>
      <trkpt lat="43.195284" lon="-1.671209">
        <ele>94.301</ele>
        <time>2021-06-12T08:24:52Z</time>
      </trkpt>
      <trkpt lat="43.195293" lon="-1.671230">
        <ele>93.821</ele>
        <time>2021-06-12T08:24:53Z</time>
      </trkpt>
      <trkpt lat="43.195303" lon="-1.671252">
        <ele>93.308</ele>
        <time>2021-06-12T08:24:54Z</time>
      </trkpt>
      <trkpt lat="43.195314" lon="-1.671277">
        <ele>92.950</ele>
        <time>2021-06-12T08:24:55Z</time>
      </trkpt>
      <trkpt lat="43.195385" lon="-1.671430">
        <ele>90.528</ele>
        <time>2021-06-12T08:25:00Z</time>
      </trkpt>
      <trkpt lat="43.195561" lon="-1.671656">
        <ele>86.189</ele>
        <time>2021-06-12T08:25:08Z</time>
      </trkpt>
      <trkpt lat="43.195771" lon="-1.671878">
        <ele>85.255</ele>
        <time>2021-06-12T08:25:15Z</time>
      </trkpt>
      <trkpt lat="43.196009" lon="-1.672054">
        <ele>85.211</ele>
        <time>2021-06-12T08:25:21Z</time>
      </trkpt>
      <trkpt lat="43.196227" lon="-1.672166">
        <ele>86.173</ele>
        <time>2021-06-12T08:25:27Z</time>
      </trkpt>
      <trkpt lat="43.196297" lon="-1.672208">
        <ele>86.684</ele>
        <time>2021-06-12T08:25:31Z</time>
      </trkpt>
      <trkpt lat="43.196325" lon="-1.672231">
        <ele>87.150</ele>
        <time>2021-06-12T08:25:34Z</time>
      </trkpt>
      <trkpt lat="43.196493" lon="-1.672236">
        <ele>87.639</ele>
        <time>2021-06-12T08:25:40Z</time>
      </trkpt>
      <trkpt lat="43.196707" lon="-1.672215">
        <ele>88.101</ele>
        <time>2021-06-12T08:25:46Z</time>
      </trkpt>
      <trkpt lat="43.196944" lon="-1.672171">
        <ele>87.621</ele>
        <time>2021-06-12T08:25:52Z</time>
      </trkpt>
      <trkpt lat="43.197263" lon="-1.672077">
        <ele>87.108</ele>
        <time>2021-06-12T08:25:59Z</time>
      </trkpt>
      <trkpt lat="43.197495" lon="-1.671989">
        <ele>89.030</ele>
        <time>2021-06-12T08:26:06Z</time>
      </trkpt>
      <trkpt lat="43.197537" lon="-1.671968">
        <ele>89.558</ele>
        <time>2021-06-12T08:26:12Z</time>
      </trkpt>
      <trkpt lat="43.197558" lon="-1.671971">
        <ele>89.529</ele>
        <time>2021-06-12T08:26:14Z</time>
      </trkpt>
      <trkpt lat="43.197587" lon="-1.671982">
        <ele>92.945</ele>
        <time>2021-06-12T08:26:20Z</time>
      </trkpt>
      <trkpt lat="43.197636" lon="-1.671984">
        <ele>95.331</ele>
        <time>2021-06-12T08:26:25Z</time>
      </trkpt>
      <trkpt lat="43.197684" lon="-1.672014">
        <ele>97.223</ele>
        <time>2021-06-12T08:27:30Z</time>
      </trkpt>
      <trkpt lat="43.198781" lon="-1.673022">
        <ele>59.254</ele>
        <time>2021-06-12T08:27:33Z</time>
      </trkpt>
      <trkpt lat="43.199456" lon="-1.673182">
        <ele>83.730</ele>
        <time>2021-06-12T08:27:42Z</time>
      </trkpt>
      <trkpt lat="43.199643" lon="-1.673429">
        <ele>82.343</ele>
        <time>2021-06-12T08:27:50Z</time>
      </trkpt>
      <trkpt lat="43.199748" lon="-1.673595">
        <ele>81.864</ele>
        <time>2021-06-12T08:27:56Z</time>
      </trkpt>
      <trkpt lat="43.199981" lon="-1.673753">
        <ele>85.210</ele>
        <time>2021-06-12T08:28:03Z</time>
      </trkpt>
      <trkpt lat="43.200252" lon="-1.673808">
        <ele>88.108</ele>
        <time>2021-06-12T08:28:10Z</time>
      </trkpt>
      <trkpt lat="43.200362" lon="-1.673796">
        <ele>88.591</ele>
        <time>2021-06-12T08:28:12Z</time>
      </trkpt>
      <trkpt lat="43.200784" lon="-1.673682">
        <ele>91.459</ele>
        <time>2021-06-12T08:28:20Z</time>
      </trkpt>
      <trkpt lat="43.201117" lon="-1.673573">
        <ele>91.460</ele>
        <time>2021-06-12T08:28:28Z</time>
      </trkpt>
      <trkpt lat="43.201469" lon="-1.673386">
        <ele>89.036</ele>
        <time>2021-06-12T08:28:36Z</time>
      </trkpt>
      <trkpt lat="43.201756" lon="-1.673203">
        <ele>88.162</ele>
        <time>2021-06-12T08:28:44Z</time>
      </trkpt>
      <trkpt lat="43.202048" lon="-1.672881">
        <ele>89.554</ele>
        <time>2021-06-12T08:28:54Z</time>
      </trkpt>
      <trkpt lat="43.202274" lon="-1.672466">
        <ele>88.535</ele>
        <time>2021-06-12T08:29:04Z</time>
      </trkpt>
      <trkpt lat="43.202430" lon="-1.672183">
        <ele>87.671</ele>
        <time>2021-06-12T08:29:11Z</time>
      </trkpt>
      <trkpt lat="43.202533" lon="-1.672020">
        <ele>86.699</ele>
        <time>2021-06-12T08:29:18Z</time>
      </trkpt>
      <trkpt lat="43.202651" lon="-1.671831">
        <ele>87.607</ele>
        <time>2021-06-12T08:29:24Z</time>
      </trkpt>
      <trkpt lat="43.202756" lon="-1.671596">
        <ele>88.527</ele>
        <time>2021-06-12T08:29:30Z</time>
      </trkpt>
      <trkpt lat="43.202868" lon="-1.671220">
        <ele>89.508</ele>
        <time>2021-06-12T08:29:38Z</time>
      </trkpt>
      <trkpt lat="43.202917" lon="-1.670812">
        <ele>88.546</ele>
        <time>2021-06-12T08:29:46Z</time>
      </trkpt>
      <trkpt lat="43.202958" lon="-1.670453">
        <ele>86.684</ele>
        <time>2021-06-12T08:29:53Z</time>
      </trkpt>
      <trkpt lat="43.202990" lon="-1.670097">
        <ele>84.765</ele>
        <time>2021-06-12T08:30:01Z</time>
      </trkpt>
      <trkpt lat="43.203021" lon="-1.669864">
        <ele>82.381</ele>
        <time>2021-06-12T08:30:08Z</time>
      </trkpt>
      <trkpt lat="43.203064" lon="-1.669607">
        <ele>78.937</ele>
        <time>2021-06-12T08:30:15Z</time>
      </trkpt>
      <trkpt lat="43.203098" lon="-1.669348">
        <ele>76.559</ele>
        <time>2021-06-12T08:30:22Z</time>
      </trkpt>
      <trkpt lat="43.203145" lon="-1.668956">
        <ele>75.660</ele>
        <time>2021-06-12T08:30:30Z</time>
      </trkpt>
      <trkpt lat="43.203179" lon="-1.668629">
        <ele>74.176</ele>
        <time>2021-06-12T08:30:37Z</time>
      </trkpt>
      <trkpt lat="43.203199" lon="-1.668445">
        <ele>74.118</ele>
        <time>2021-06-12T08:30:43Z</time>
      </trkpt>
      <trkpt lat="43.203201" lon="-1.668421">
        <ele>73.698</ele>
        <time>2021-06-12T08:30:50Z</time>
      </trkpt>
      <trkpt lat="43.203191" lon="-1.668395">
        <ele>73.617</ele>
        <time>2021-06-12T08:31:09Z</time>
      </trkpt>
      <trkpt lat="43.203209" lon="-1.668372">
        <ele>76.008</ele>
        <time>2021-06-12T08:31:23Z</time>
      </trkpt>
      <trkpt lat="43.203210" lon="-1.668351">
        <ele>76.028</ele>
        <time>2021-06-12T08:31:24Z</time>
      </trkpt>
      <trkpt lat="43.203213" lon="-1.668325">
        <ele>76.046</ele>
        <time>2021-06-12T08:31:25Z</time>
      </trkpt>
      <trkpt lat="43.203211" lon="-1.668295">
        <ele>75.627</ele>
        <time>2021-06-12T08:31:26Z</time>
      </trkpt>
      <trkpt lat="43.203211" lon="-1.668265">
        <ele>75.653</ele>
        <time>2021-06-12T08:31:27Z</time>
      </trkpt>
      <trkpt lat="43.203214" lon="-1.668229">
        <ele>75.639</ele>
        <time>2021-06-12T08:31:28Z</time>
      </trkpt>
      <trkpt lat="43.203217" lon="-1.668194">
        <ele>76.091</ele>
        <time>2021-06-12T08:31:29Z</time>
      </trkpt>
      <trkpt lat="43.203223" lon="-1.668160">
        <ele>76.082</ele>
        <time>2021-06-12T08:31:30Z</time>
      </trkpt>
      <trkpt lat="43.203230" lon="-1.668126">
        <ele>76.028</ele>
        <time>2021-06-12T08:31:31Z</time>
      </trkpt>
      <trkpt lat="43.203233" lon="-1.668089">
        <ele>76.561</ele>
        <time>2021-06-12T08:31:32Z</time>
      </trkpt>
      <trkpt lat="43.203235" lon="-1.668054">
        <ele>77.021</ele>
        <time>2021-06-12T08:31:33Z</time>
      </trkpt>
      <trkpt lat="43.203237" lon="-1.668019">
        <ele>77.013</ele>
        <time>2021-06-12T08:31:34Z</time>
      </trkpt>
      <trkpt lat="43.203247" lon="-1.667845">
        <ele>78.008</ele>
        <time>2021-06-12T08:31:41Z</time>
      </trkpt>
      <trkpt lat="43.203231" lon="-1.667833">
        <ele>78.453</ele>
        <time>2021-06-12T08:31:53Z</time>
      </trkpt>
      <trkpt lat="43.203227" lon="-1.667806">
        <ele>78.941</ele>
        <time>2021-06-12T08:32:11Z</time>
      </trkpt>
      <trkpt lat="43.203243" lon="-1.667800">
        <ele>79.922</ele>
        <time>2021-06-12T08:32:27Z</time>
      </trkpt>
      <trkpt lat="43.203233" lon="-1.667776">
        <ele>81.868</ele>
        <time>2021-06-12T08:32:37Z</time>
      </trkpt>
      <trkpt lat="43.203225" lon="-1.667771">
        <ele>80.474</ele>
        <time>2021-06-12T08:32:52Z</time>
      </trkpt>
      <trkpt lat="43.203235" lon="-1.667732">
        <ele>80.496</ele>
        <time>2021-06-12T08:32:59Z</time>
      </trkpt>
      <trkpt lat="43.203254" lon="-1.667580">
        <ele>80.447</ele>
        <time>2021-06-12T08:33:04Z</time>
      </trkpt>
      <trkpt lat="43.203297" lon="-1.667292">
        <ele>82.323</ele>
        <time>2021-06-12T08:33:11Z</time>
      </trkpt>
      <trkpt lat="43.203374" lon="-1.666951">
        <ele>81.336</ele>
        <time>2021-06-12T08:33:18Z</time>
      </trkpt>
      <trkpt lat="43.203458" lon="-1.666596">
        <ele>77.017</ele>
        <time>2021-06-12T08:33:25Z</time>
      </trkpt>
      <trkpt lat="43.203557" lon="-1.666228">
        <ele>74.118</ele>
        <time>2021-06-12T08:33:32Z</time>
      </trkpt>
      <trkpt lat="43.203639" lon="-1.665887">
        <ele>71.708</ele>
        <time>2021-06-12T08:33:39Z</time>
      </trkpt>
      <trkpt lat="43.203684" lon="-1.665703">
        <ele>71.770</ele>
        <time>2021-06-12T08:33:44Z</time>
      </trkpt>
      <trkpt lat="43.203754" lon="-1.665398">
        <ele>70.718</ele>
        <time>2021-06-12T08:33:51Z</time>
      </trkpt>
      <trkpt lat="43.203866" lon="-1.665013">
        <ele>70.329</ele>
        <time>2021-06-12T08:33:59Z</time>
      </trkpt>
      <trkpt lat="43.203978" lon="-1.664673">
        <ele>68.835</ele>
        <time>2021-06-12T08:34:06Z</time>
      </trkpt>
      <trkpt lat="43.204113" lon="-1.664257">
        <ele>66.491</ele>
        <time>2021-06-12T08:34:14Z</time>
      </trkpt>
      <trkpt lat="43.204205" lon="-1.663899">
        <ele>63.163</ele>
        <time>2021-06-12T08:34:22Z</time>
      </trkpt>
      <trkpt lat="43.204355" lon="-1.663484">
        <ele>62.144</ele>
        <time>2021-06-12T08:34:31Z</time>
      </trkpt>
      <trkpt lat="43.204519" lon="-1.663098">
        <ele>60.280</ele>
        <time>2021-06-12T08:34:40Z</time>
      </trkpt>
      <trkpt lat="43.204623" lon="-1.662777">
        <ele>65.082</ele>
        <time>2021-06-12T08:34:48Z</time>
      </trkpt>
      <trkpt lat="43.204756" lon="-1.662519">
        <ele>75.143</ele>
        <time>2021-06-12T08:34:55Z</time>
      </trkpt>
      <trkpt lat="43.204937" lon="-1.662319">
        <ele>79.417</ele>
        <time>2021-06-12T08:35:02Z</time>
      </trkpt>
      <trkpt lat="43.205164" lon="-1.662191">
        <ele>80.808</ele>
        <time>2021-06-12T08:35:09Z</time>
      </trkpt>
      <trkpt lat="43.205354" lon="-1.662161">
        <ele>83.215</ele>
        <time>2021-06-12T08:35:15Z</time>
      </trkpt>
      <trkpt lat="43.205567" lon="-1.662147">
        <ele>86.173</ele>
        <time>2021-06-12T08:35:21Z</time>
      </trkpt>
      <trkpt lat="43.205821" lon="-1.662206">
        <ele>87.174</ele>
        <time>2021-06-12T08:35:28Z</time>
      </trkpt>
      <trkpt lat="43.205861" lon="-1.662210">
        <ele>87.610</ele>
        <time>2021-06-12T08:35:29Z</time>
      </trkpt>
      <trkpt lat="43.205900" lon="-1.662214">
        <ele>88.166</ele>
        <time>2021-06-12T08:35:30Z</time>
      </trkpt>
      <trkpt lat="43.206175" lon="-1.662313">
        <ele>91.988</ele>
        <time>2021-06-12T08:35:38Z</time>
      </trkpt>
      <trkpt lat="43.206389" lon="-1.662393">
        <ele>94.889</ele>
        <time>2021-06-12T08:35:44Z</time>
      </trkpt>
      <trkpt lat="43.206670" lon="-1.662522">
        <ele>96.735</ele>
        <time>2021-06-12T08:35:52Z</time>
      </trkpt>
      <trkpt lat="43.206895" lon="-1.662631">
        <ele>99.677</ele>
        <time>2021-06-12T08:35:59Z</time>
      </trkpt>
      <trkpt lat="43.207065" lon="-1.662735">
        <ele>102.561</ele>
        <time>2021-06-12T08:36:05Z</time>
      </trkpt>
      <trkpt lat="43.207217" lon="-1.662791">
        <ele>105.427</ele>
        <time>2021-06-12T08:36:11Z</time>
      </trkpt>
      <trkpt lat="43.207438" lon="-1.662989">
        <ele>109.208</ele>
        <time>2021-06-12T08:36:19Z</time>
      </trkpt>
      <trkpt lat="43.207661" lon="-1.663172">
        <ele>111.654</ele>
        <time>2021-06-12T08:36:25Z</time>
      </trkpt>
      <trkpt lat="43.207868" lon="-1.663422">
        <ele>112.122</ele>
        <time>2021-06-12T08:36:32Z</time>
      </trkpt>
      <trkpt lat="43.208027" lon="-1.663624">
        <ele>111.673</ele>
        <time>2021-06-12T08:36:38Z</time>
      </trkpt>
      <trkpt lat="43.208208" lon="-1.663898">
        <ele>111.679</ele>
        <time>2021-06-12T08:36:45Z</time>
      </trkpt>
      <trkpt lat="43.208364" lon="-1.664130">
        <ele>110.255</ele>
        <time>2021-06-12T08:36:51Z</time>
      </trkpt>
      <trkpt lat="43.208653" lon="-1.664474">
        <ele>96.257</ele>
        <time>2021-06-12T08:36:59Z</time>
      </trkpt>
      <trkpt lat="43.208897" lon="-1.664862">
        <ele>85.268</ele>
        <time>2021-06-12T08:37:08Z</time>
      </trkpt>
      <trkpt lat="43.209071" lon="-1.665209">
        <ele>80.884</ele>
        <time>2021-06-12T08:37:17Z</time>
      </trkpt>
      <trkpt lat="43.209186" lon="-1.665440">
        <ele>77.032</ele>
        <time>2021-06-12T08:37:23Z</time>
      </trkpt>
      <trkpt lat="43.209242" lon="-1.665643">
        <ele>74.692</ele>
        <time>2021-06-12T08:37:29Z</time>
      </trkpt>
      <trkpt lat="43.209325" lon="-1.665957">
        <ele>69.811</ele>
        <time>2021-06-12T08:37:40Z</time>
      </trkpt>
      <trkpt lat="43.209387" lon="-1.666303">
        <ele>65.908</ele>
        <time>2021-06-12T08:37:49Z</time>
      </trkpt>
      <trkpt lat="43.209434" lon="-1.666701">
        <ele>64.550</ele>
        <time>2021-06-12T08:37:57Z</time>
      </trkpt>
      <trkpt lat="43.209488" lon="-1.666999">
        <ele>62.188</ele>
        <time>2021-06-12T08:38:03Z</time>
      </trkpt>
      <trkpt lat="43.209542" lon="-1.667327">
        <ele>59.269</ele>
        <time>2021-06-12T08:38:10Z</time>
      </trkpt>
      <trkpt lat="43.209558" lon="-1.667442">
        <ele>57.395</ele>
        <time>2021-06-12T08:38:16Z</time>
      </trkpt>
      <trkpt lat="43.209569" lon="-1.667456">
        <ele>56.881</ele>
        <time>2021-06-12T08:38:26Z</time>
      </trkpt>
      <trkpt lat="43.209585" lon="-1.667480">
        <ele>59.743</ele>
        <time>2021-06-12T08:38:34Z</time>
      </trkpt>
      <trkpt lat="43.209605" lon="-1.667621">
        <ele>59.274</ele>
        <time>2021-06-12T08:38:41Z</time>
      </trkpt>
      <trkpt lat="43.209657" lon="-1.667895">
        <ele>59.270</ele>
        <time>2021-06-12T08:38:49Z</time>
      </trkpt>
      <trkpt lat="43.209692" lon="-1.668081">
        <ele>59.713</ele>
        <time>2021-06-12T08:38:55Z</time>
      </trkpt>
      <trkpt lat="43.209761" lon="-1.668305">
        <ele>60.743</ele>
        <time>2021-06-12T08:39:03Z</time>
      </trkpt>
      <trkpt lat="43.209777" lon="-1.668346">
        <ele>61.107</ele>
        <time>2021-06-12T08:39:05Z</time>
      </trkpt>
      <trkpt lat="43.209771" lon="-1.668365">
        <ele>61.608</ele>
        <time>2021-06-12T08:39:11Z</time>
      </trkpt>
      <trkpt lat="43.209786" lon="-1.668377">
        <ele>63.168</ele>
        <time>2021-06-12T08:39:23Z</time>
      </trkpt>
      <trkpt lat="43.209790" lon="-1.668385">
        <ele>63.176</ele>
        <time>2021-06-12T08:39:27Z</time>
      </trkpt>
      <trkpt lat="43.209785" lon="-1.668402">
        <ele>63.167</ele>
        <time>2021-06-12T08:39:28Z</time>
      </trkpt>
      <trkpt lat="43.209783" lon="-1.668421">
        <ele>63.123</ele>
        <time>2021-06-12T08:39:29Z</time>
      </trkpt>
      <trkpt lat="43.209788" lon="-1.668446">
        <ele>63.129</ele>
        <time>2021-06-12T08:39:30Z</time>
      </trkpt>
      <trkpt lat="43.209794" lon="-1.668478">
        <ele>63.161</ele>
        <time>2021-06-12T08:39:31Z</time>
      </trkpt>
      <trkpt lat="43.209804" lon="-1.668514">
        <ele>63.142</ele>
        <time>2021-06-12T08:39:32Z</time>
      </trkpt>
      <trkpt lat="43.209818" lon="-1.668551">
        <ele>63.188</ele>
        <time>2021-06-12T08:39:33Z</time>
      </trkpt>
      <trkpt lat="43.209837" lon="-1.668593">
        <ele>63.191</ele>
        <time>2021-06-12T08:39:34Z</time>
      </trkpt>
      <trkpt lat="43.210063" lon="-1.669059">
        <ele>63.581</ele>
        <time>2021-06-12T08:39:45Z</time>
      </trkpt>
      <trkpt lat="43.210231" lon="-1.669389">
        <ele>66.919</ele>
        <time>2021-06-12T08:39:53Z</time>
      </trkpt>
      <trkpt lat="43.210422" lon="-1.669777">
        <ele>65.908</ele>
        <time>2021-06-12T08:40:03Z</time>
      </trkpt>
      <trkpt lat="43.210603" lon="-1.670169">
        <ele>66.476</ele>
        <time>2021-06-12T08:40:12Z</time>
      </trkpt>
      <trkpt lat="43.210769" lon="-1.670495">
        <ele>67.914</ele>
        <time>2021-06-12T08:40:20Z</time>
      </trkpt>
      <trkpt lat="43.210931" lon="-1.670854">
        <ele>68.895</ele>
        <time>2021-06-12T08:40:28Z</time>
      </trkpt>
      <trkpt lat="43.211084" lon="-1.671214">
        <ele>66.981</ele>
        <time>2021-06-12T08:40:36Z</time>
      </trkpt>
      <trkpt lat="43.211204" lon="-1.671536">
        <ele>65.057</ele>
        <time>2021-06-12T08:40:44Z</time>
      </trkpt>
      <trkpt lat="43.211343" lon="-1.671850">
        <ele>63.549</ele>
        <time>2021-06-12T08:40:53Z</time>
      </trkpt>
      <trkpt lat="43.211461" lon="-1.672122">
        <ele>62.140</ele>
        <time>2021-06-12T08:41:00Z</time>
      </trkpt>
      <trkpt lat="43.211603" lon="-1.672364">
        <ele>60.786</ele>
        <time>2021-06-12T08:41:08Z</time>
      </trkpt>
      <trkpt lat="43.211800" lon="-1.672540">
        <ele>60.274</ele>
        <time>2021-06-12T08:41:15Z</time>
      </trkpt>
      <trkpt lat="43.212049" lon="-1.672646">
        <ele>65.956</ele>
        <time>2021-06-12T08:41:23Z</time>
      </trkpt>
      <trkpt lat="43.212233" lon="-1.672698">
        <ele>71.221</ele>
        <time>2021-06-12T08:41:29Z</time>
      </trkpt>
      <trkpt lat="43.212425" lon="-1.672699">
        <ele>77.508</ele>
        <time>2021-06-12T08:41:35Z</time>
      </trkpt>
      <trkpt lat="43.212654" lon="-1.672680">
        <ele>81.824</ele>
        <time>2021-06-12T08:41:42Z</time>
      </trkpt>
      <trkpt lat="43.212898" lon="-1.672598">
        <ele>84.262</ele>
        <time>2021-06-12T08:41:49Z</time>
      </trkpt>
      <trkpt lat="43.213068" lon="-1.672488">
        <ele>86.183</ele>
        <time>2021-06-12T08:41:55Z</time>
      </trkpt>
      <trkpt lat="43.213297" lon="-1.672340">
        <ele>87.699</ele>
        <time>2021-06-12T08:42:03Z</time>
      </trkpt>
      <trkpt lat="43.213495" lon="-1.672216">
        <ele>87.175</ele>
        <time>2021-06-12T08:42:10Z</time>
      </trkpt>
      <trkpt lat="43.213641" lon="-1.672131">
        <ele>88.547</ele>
        <time>2021-06-12T08:42:16Z</time>
      </trkpt>
      <trkpt lat="43.213834" lon="-1.672085">
        <ele>88.118</ele>
        <time>2021-06-12T08:42:23Z</time>
      </trkpt>
      <trkpt lat="43.213977" lon="-1.671952">
        <ele>87.654</ele>
        <time>2021-06-12T08:42:29Z</time>
      </trkpt>
      <trkpt lat="43.214200" lon="-1.671747">
        <ele>88.514</ele>
        <time>2021-06-12T08:42:37Z</time>
      </trkpt>
      <trkpt lat="43.214440" lon="-1.671612">
        <ele>90.054</ele>
        <time>2021-06-12T08:42:44Z</time>
      </trkpt>
      <trkpt lat="43.214606" lon="-1.671516">
        <ele>89.509</ele>
        <time>2021-06-12T08:42:50Z</time>
      </trkpt>
      <trkpt lat="43.214801" lon="-1.671386">
        <ele>89.508</ele>
        <time>2021-06-12T08:42:57Z</time>
      </trkpt>
      <trkpt lat="43.215004" lon="-1.671271">
        <ele>88.598</ele>
        <time>2021-06-12T08:43:02Z</time>
      </trkpt>
      <trkpt lat="43.215056" lon="-1.671255">
        <ele>88.566</ele>
        <time>2021-06-12T08:43:03Z</time>
      </trkpt>
      <trkpt lat="43.215370" lon="-1.671125">
        <ele>88.587</ele>
        <time>2021-06-12T08:43:10Z</time>
      </trkpt>
      <trkpt lat="43.215415" lon="-1.671115">
        <ele>88.573</ele>
        <time>2021-06-12T08:43:11Z</time>
      </trkpt>
      <trkpt lat="43.215822" lon="-1.671104">
        <ele>86.699</ele>
        <time>2021-06-12T08:43:20Z</time>
      </trkpt>
      <trkpt lat="43.215915" lon="-1.671105">
        <ele>86.611</ele>
        <time>2021-06-12T08:43:22Z</time>
      </trkpt>
      <trkpt lat="43.216359" lon="-1.671156">
        <ele>86.112</ele>
        <time>2021-06-12T08:43:32Z</time>
      </trkpt>
      <trkpt lat="43.216743" lon="-1.671208">
        <ele>84.238</ele>
        <time>2021-06-12T08:43:40Z</time>
      </trkpt>
      <trkpt lat="43.216913" lon="-1.671242">
        <ele>84.786</ele>
        <time>2021-06-12T08:43:45Z</time>
      </trkpt>
      <trkpt lat="43.217182" lon="-1.671394">
        <ele>83.260</ele>
        <time>2021-06-12T08:43:51Z</time>
      </trkpt>
      <trkpt lat="43.217496" lon="-1.671714">
        <ele>80.426</ele>
        <time>2021-06-12T08:43:59Z</time>
      </trkpt>
      <trkpt lat="43.217683" lon="-1.672071">
        <ele>78.908</ele>
        <time>2021-06-12T08:44:07Z</time>
      </trkpt>
      <trkpt lat="43.217803" lon="-1.672320">
        <ele>78.025</ele>
        <time>2021-06-12T08:44:12Z</time>
      </trkpt>
      <trkpt lat="43.217816" lon="-1.672381">
        <ele>78.023</ele>
        <time>2021-06-12T08:44:13Z</time>
      </trkpt>
      <trkpt lat="43.217828" lon="-1.672555">
        <ele>77.574</ele>
        <time>2021-06-12T08:44:16Z</time>
      </trkpt>
      <trkpt lat="43.217787" lon="-1.672865">
        <ele>76.530</ele>
        <time>2021-06-12T08:44:22Z</time>
      </trkpt>
      <trkpt lat="43.217728" lon="-1.673188">
        <ele>76.036</ele>
        <time>2021-06-12T08:44:29Z</time>
      </trkpt>
      <trkpt lat="43.217670" lon="-1.673509">
        <ele>72.228</ele>
        <time>2021-06-12T08:44:37Z</time>
      </trkpt>
      <trkpt lat="43.217604" lon="-1.673966">
        <ele>71.759</ele>
        <time>2021-06-12T08:44:46Z</time>
      </trkpt>
      <trkpt lat="43.217531" lon="-1.674363">
        <ele>71.765</ele>
        <time>2021-06-12T08:44:54Z</time>
      </trkpt>
      <trkpt lat="43.217450" lon="-1.674801">
        <ele>70.343</ele>
        <time>2021-06-12T08:45:01Z</time>
      </trkpt>
      <trkpt lat="43.217337" lon="-1.675324">
        <ele>69.364</ele>
        <time>2021-06-12T08:45:10Z</time>
      </trkpt>
      <trkpt lat="43.217269" lon="-1.675672">
        <ele>69.810</ele>
        <time>2021-06-12T08:45:17Z</time>
      </trkpt>
      <trkpt lat="43.217243" lon="-1.675971">
        <ele>68.308</ele>
        <time>2021-06-12T08:45:24Z</time>
      </trkpt>
      <trkpt lat="43.217232" lon="-1.676342">
        <ele>67.431</ele>
        <time>2021-06-12T08:45:31Z</time>
      </trkpt>
      <trkpt lat="43.217245" lon="-1.676751">
        <ele>66.479</ele>
        <time>2021-06-12T08:45:38Z</time>
      </trkpt>
      <trkpt lat="43.217261" lon="-1.677068">
        <ele>65.530</ele>
        <time>2021-06-12T08:45:44Z</time>
      </trkpt>
      <trkpt lat="43.217272" lon="-1.677323">
        <ele>64.026</ele>
        <time>2021-06-12T08:45:50Z</time>
      </trkpt>
      <trkpt lat="43.217252" lon="-1.677298">
        <ele>63.132</ele>
        <time>2021-06-12T08:46:01Z</time>
      </trkpt>
      <trkpt lat="43.217271" lon="-1.677371">
        <ele>65.984</ele>
        <time>2021-06-12T08:46:18Z</time>
      </trkpt>
      <trkpt lat="43.217270" lon="-1.677471">
        <ele>68.375</ele>
        <time>2021-06-12T08:46:29Z</time>
      </trkpt>
      <trkpt lat="43.217270" lon="-1.677710">
        <ele>71.751</ele>
        <time>2021-06-12T08:46:37Z</time>
      </trkpt>
      <trkpt lat="43.217301" lon="-1.677930">
        <ele>71.732</ele>
        <time>2021-06-12T08:46:42Z</time>
      </trkpt>
      <trkpt lat="43.217377" lon="-1.678263">
        <ele>69.892</ele>
        <time>2021-06-12T08:46:49Z</time>
      </trkpt>
      <trkpt lat="43.217411" lon="-1.678473">
        <ele>67.411</ele>
        <time>2021-06-12T08:46:55Z</time>
      </trkpt>
      <trkpt lat="43.217414" lon="-1.678511">
        <ele>66.908</ele>
        <time>2021-06-12T08:46:56Z</time>
      </trkpt>
      <trkpt lat="43.217419" lon="-1.678551">
        <ele>66.430</ele>
        <time>2021-06-12T08:46:57Z</time>
      </trkpt>
      <trkpt lat="43.217428" lon="-1.678591">
        <ele>65.518</ele>
        <time>2021-06-12T08:46:58Z</time>
      </trkpt>
      <trkpt lat="43.217437" lon="-1.678635">
        <ele>65.079</ele>
        <time>2021-06-12T08:46:59Z</time>
      </trkpt>
      <trkpt lat="43.217442" lon="-1.678679">
        <ele>64.555</ele>
        <time>2021-06-12T08:47:00Z</time>
      </trkpt>
      <trkpt lat="43.217533" lon="-1.678992">
        <ele>59.771</ele>
        <time>2021-06-12T08:47:08Z</time>
      </trkpt>
      <trkpt lat="43.217642" lon="-1.679223">
        <ele>56.843</ele>
        <time>2021-06-12T08:47:14Z</time>
      </trkpt>
      <trkpt lat="43.217849" lon="-1.679526">
        <ele>55.454</ele>
        <time>2021-06-12T08:47:21Z</time>
      </trkpt>
      <trkpt lat="43.218070" lon="-1.679726">
        <ele>52.570</ele>
        <time>2021-06-12T08:47:28Z</time>
      </trkpt>
      <trkpt lat="43.218148" lon="-1.679786">
        <ele>53.038</ele>
        <time>2021-06-12T08:47:30Z</time>
      </trkpt>
      <trkpt lat="43.218196" lon="-1.679822">
        <ele>54.970</ele>
        <time>2021-06-12T08:47:31Z</time>
      </trkpt>
      <trkpt lat="43.218243" lon="-1.679851">
        <ele>55.817</ele>
        <time>2021-06-12T08:47:32Z</time>
      </trkpt>
      <trkpt lat="43.218284" lon="-1.679874">
        <ele>56.808</ele>
        <time>2021-06-12T08:47:33Z</time>
      </trkpt>
      <trkpt lat="43.218330" lon="-1.679893">
        <ele>57.820</ele>
        <time>2021-06-12T08:47:34Z</time>
      </trkpt>
      <trkpt lat="43.218366" lon="-1.679905">
        <ele>58.758</ele>
        <time>2021-06-12T08:47:35Z</time>
      </trkpt>
      <trkpt lat="43.218623" lon="-1.680011">
        <ele>66.939</ele>
        <time>2021-06-12T08:47:42Z</time>
      </trkpt>
      <trkpt lat="43.219060" lon="-1.680170">
        <ele>70.345</ele>
        <time>2021-06-12T08:47:52Z</time>
      </trkpt>
      <trkpt lat="43.219388" lon="-1.680264">
        <ele>71.211</ele>
        <time>2021-06-12T08:48:00Z</time>
      </trkpt>
      <trkpt lat="43.219773" lon="-1.680357">
        <ele>72.783</ele>
        <time>2021-06-12T08:48:09Z</time>
      </trkpt>
      <trkpt lat="43.219817" lon="-1.680357">
        <ele>72.734</ele>
        <time>2021-06-12T08:48:10Z</time>
      </trkpt>
      <trkpt lat="43.219858" lon="-1.680358">
        <ele>73.280</ele>
        <time>2021-06-12T08:48:11Z</time>
      </trkpt>
      <trkpt lat="43.220155" lon="-1.680309">
        <ele>75.617</ele>
        <time>2021-06-12T08:48:18Z</time>
      </trkpt>
      <trkpt lat="43.220203" lon="-1.680294">
        <ele>76.087</ele>
        <time>2021-06-12T08:48:19Z</time>
      </trkpt>
      <trkpt lat="43.220452" lon="-1.680181">
        <ele>77.515</ele>
        <time>2021-06-12T08:48:25Z</time>
      </trkpt>
      <trkpt lat="43.220687" lon="-1.679992">
        <ele>79.408</ele>
        <time>2021-06-12T08:48:31Z</time>
      </trkpt>
      <trkpt lat="43.220957" lon="-1.679610">
        <ele>81.868</ele>
        <time>2021-06-12T08:48:39Z</time>
      </trkpt>
      <trkpt lat="43.221088" lon="-1.679269">
        <ele>83.296</ele>
        <time>2021-06-12T08:48:46Z</time>
      </trkpt>
      <trkpt lat="43.221122" lon="-1.679143">
        <ele>82.837</ele>
        <time>2021-06-12T08:48:48Z</time>
      </trkpt>
      <trkpt lat="43.221215" lon="-1.678757">
        <ele>82.853</ele>
        <time>2021-06-12T08:48:55Z</time>
      </trkpt>
      <trkpt lat="43.221251" lon="-1.678637">
        <ele>82.879</ele>
        <time>2021-06-12T08:48:57Z</time>
      </trkpt>
      <trkpt lat="43.221328" lon="-1.678346">
        <ele>83.291</ele>
        <time>2021-06-12T08:49:02Z</time>
      </trkpt>
      <trkpt lat="43.221461" lon="-1.677789">
        <ele>83.252</ele>
        <time>2021-06-12T08:49:11Z</time>
      </trkpt>
      <trkpt lat="43.221628" lon="-1.677245">
        <ele>78.058</ele>
        <time>2021-06-12T08:49:20Z</time>
      </trkpt>
      <trkpt lat="43.221695" lon="-1.677089">
        <ele>77.042</ele>
        <time>2021-06-12T08:49:23Z</time>
      </trkpt>
      <trkpt lat="43.221924" lon="-1.676705">
        <ele>74.122</ele>
        <time>2021-06-12T08:49:31Z</time>
      </trkpt>
      <trkpt lat="43.221959" lon="-1.676665">
        <ele>73.614</ele>
        <time>2021-06-12T08:49:32Z</time>
      </trkpt>
      <trkpt lat="43.222289" lon="-1.676383">
        <ele>72.708</ele>
        <time>2021-06-12T08:49:41Z</time>
      </trkpt>
      <trkpt lat="43.222565" lon="-1.676238">
        <ele>74.631</ele>
        <time>2021-06-12T08:49:48Z</time>
      </trkpt>
      <trkpt lat="43.222658" lon="-1.676209">
        <ele>75.639</ele>
        <time>2021-06-12T08:49:50Z</time>
      </trkpt>
      <trkpt lat="43.222888" lon="-1.676156">
        <ele>76.060</ele>
        <time>2021-06-12T08:49:55Z</time>
      </trkpt>
      <trkpt lat="43.223188" lon="-1.676107">
        <ele>74.666</ele>
        <time>2021-06-12T08:50:02Z</time>
      </trkpt>
      <trkpt lat="43.223423" lon="-1.676051">
        <ele>74.142</ele>
        <time>2021-06-12T08:50:08Z</time>
      </trkpt>
      <trkpt lat="43.223675" lon="-1.676015">
        <ele>72.714</ele>
        <time>2021-06-12T08:50:15Z</time>
      </trkpt>
      <trkpt lat="43.223920" lon="-1.675997">
        <ele>70.335</ele>
        <time>2021-06-12T08:50:22Z</time>
      </trkpt>
      <trkpt lat="43.223921" lon="-1.675993">
        <ele>66.431</ele>
        <time>2021-06-12T08:50:29Z</time>
      </trkpt>
      <trkpt lat="43.223925" lon="-1.675991">
        <ele>66.458</ele>
        <time>2021-06-12T08:50:49Z</time>
      </trkpt>
      <trkpt lat="43.223930" lon="-1.675989">
        <ele>65.052</ele>
        <time>2021-06-12T08:51:06Z</time>
      </trkpt>
      <trkpt lat="43.223909" lon="-1.676004">
        <ele>60.717</ele>
        <time>2021-06-12T08:51:19Z</time>
      </trkpt>
      <trkpt lat="43.223932" lon="-1.676001">
        <ele>61.608</ele>
        <time>2021-06-12T08:51:34Z</time>
      </trkpt>
      <trkpt lat="43.223942" lon="-1.676009">
        <ele>61.612</ele>
        <time>2021-06-12T08:51:44Z</time>
      </trkpt>
      <trkpt lat="43.223938" lon="-1.676004">
        <ele>62.680</ele>
        <time>2021-06-12T08:52:01Z</time>
      </trkpt>
      <trkpt lat="43.223940" lon="-1.676022">
        <ele>63.191</ele>
        <time>2021-06-12T08:52:11Z</time>
      </trkpt>
      <trkpt lat="43.223959" lon="-1.676023">
        <ele>60.297</ele>
        <time>2021-06-12T08:52:26Z</time>
      </trkpt>
      <trkpt lat="43.223946" lon="-1.676022">
        <ele>58.333</ele>
        <time>2021-06-12T08:52:43Z</time>
      </trkpt>
      <trkpt lat="43.223928" lon="-1.676029">
        <ele>58.345</ele>
        <time>2021-06-12T08:52:58Z</time>
      </trkpt>
      <trkpt lat="43.223926" lon="-1.676027">
        <ele>57.816</ele>
        <time>2021-06-12T08:53:11Z</time>
      </trkpt>
      <trkpt lat="43.223878" lon="-1.676040">
        <ele>64.562</ele>
        <time>2021-06-12T08:53:27Z</time>
      </trkpt>
      <trkpt lat="43.223906" lon="-1.676058">
        <ele>65.943</ele>
        <time>2021-06-12T08:53:41Z</time>
      </trkpt>
      <trkpt lat="43.223921" lon="-1.676055">
        <ele>65.064</ele>
        <time>2021-06-12T08:53:56Z</time>
      </trkpt>
      <trkpt lat="43.223918" lon="-1.676030">
        <ele>65.510</ele>
        <time>2021-06-12T08:54:09Z</time>
      </trkpt>
      <trkpt lat="43.223935" lon="-1.675998">
        <ele>68.308</ele>
        <time>2021-06-12T08:54:24Z</time>
      </trkpt>
      <trkpt lat="43.223947" lon="-1.676002">
        <ele>66.451</ele>
        <time>2021-06-12T08:54:36Z</time>
      </trkpt>
      <trkpt lat="43.223929" lon="-1.676009">
        <ele>66.949</ele>
        <time>2021-06-12T08:54:44Z</time>
      </trkpt>
      <trkpt lat="43.223925" lon="-1.676022">
        <ele>70.360</ele>
        <time>2021-06-12T08:54:58Z</time>
      </trkpt>
      <trkpt lat="43.223981" lon="-1.676013">
        <ele>69.376</ele>
        <time>2021-06-12T08:55:04Z</time>
      </trkpt>
      <trkpt lat="43.224185" lon="-1.676017">
        <ele>69.322</ele>
        <time>2021-06-12T08:55:12Z</time>
      </trkpt>
      <trkpt lat="43.224389" lon="-1.676062">
        <ele>67.994</ele>
        <time>2021-06-12T08:55:20Z</time>
      </trkpt>
      <trkpt lat="43.224593" lon="-1.676098">
        <ele>66.925</ele>
        <time>2021-06-12T08:55:26Z</time>
      </trkpt>
      <trkpt lat="43.224965" lon="-1.676220">
        <ele>65.911</ele>
        <time>2021-06-12T08:55:34Z</time>
      </trkpt>
      <trkpt lat="43.225207" lon="-1.676317">
        <ele>64.029</ele>
        <time>2021-06-12T08:55:41Z</time>
      </trkpt>
      <trkpt lat="43.225430" lon="-1.676481">
        <ele>63.100</ele>
        <time>2021-06-12T08:55:50Z</time>
      </trkpt>
      <trkpt lat="43.225643" lon="-1.676697">
        <ele>63.520</ele>
        <time>2021-06-12T08:55:58Z</time>
      </trkpt>
      <trkpt lat="43.225898" lon="-1.676950">
        <ele>65.008</ele>
        <time>2021-06-12T08:56:07Z</time>
      </trkpt>
      <trkpt lat="43.226045" lon="-1.677187">
        <ele>65.079</ele>
        <time>2021-06-12T08:56:14Z</time>
      </trkpt>
      <trkpt lat="43.226237" lon="-1.677489">
        <ele>65.067</ele>
        <time>2021-06-12T08:56:23Z</time>
      </trkpt>
      <trkpt lat="43.226463" lon="-1.677805">
        <ele>65.568</ele>
        <time>2021-06-12T08:56:33Z</time>
      </trkpt>
      <trkpt lat="43.226704" lon="-1.678128">
        <ele>65.594</ele>
        <time>2021-06-12T08:56:43Z</time>
      </trkpt>
      <trkpt lat="43.226879" lon="-1.678340">
        <ele>65.510</ele>
        <time>2021-06-12T08:56:50Z</time>
      </trkpt>
      <trkpt lat="43.227081" lon="-1.678598">
        <ele>65.982</ele>
        <time>2021-06-12T08:56:59Z</time>
      </trkpt>
      <trkpt lat="43.227284" lon="-1.678825">
        <ele>66.473</ele>
        <time>2021-06-12T08:57:08Z</time>
      </trkpt>
      <trkpt lat="43.227572" lon="-1.679026">
        <ele>65.999</ele>
        <time>2021-06-12T08:57:18Z</time>
      </trkpt>
      <trkpt lat="43.227759" lon="-1.679140">
        <ele>65.059</ele>
        <time>2021-06-12T08:57:24Z</time>
      </trkpt>
      <trkpt lat="43.227981" lon="-1.679206">
        <ele>65.003</ele>
        <time>2021-06-12T08:57:31Z</time>
      </trkpt>
      <trkpt lat="43.228143" lon="-1.679212">
        <ele>65.523</ele>
        <time>2021-06-12T08:57:37Z</time>
      </trkpt>
      <trkpt lat="43.228231" lon="-1.679185">
        <ele>66.408</ele>
        <time>2021-06-12T08:57:44Z</time>
      </trkpt>
      <trkpt lat="43.228241" lon="-1.679193">
        <ele>66.482</ele>
        <time>2021-06-12T08:57:48Z</time>
      </trkpt>
      <trkpt lat="43.228253" lon="-1.679196">
        <ele>65.930</ele>
        <time>2021-06-12T08:57:49Z</time>
      </trkpt>
      <trkpt lat="43.228264" lon="-1.679201">
        <ele>66.441</ele>
        <time>2021-06-12T08:57:50Z</time>
      </trkpt>
      <trkpt lat="43.228396" lon="-1.679182">
        <ele>65.957</ele>
        <time>2021-06-12T08:57:56Z</time>
      </trkpt>
      <trkpt lat="43.228656" lon="-1.679068">
        <ele>65.033</ele>
        <time>2021-06-12T08:58:04Z</time>
      </trkpt>
      <trkpt lat="43.228903" lon="-1.678957">
        <ele>66.435</ele>
        <time>2021-06-12T08:58:11Z</time>
      </trkpt>
      <trkpt lat="43.229133" lon="-1.678859">
        <ele>69.376</ele>
        <time>2021-06-12T08:58:18Z</time>
      </trkpt>
      <trkpt lat="43.229396" lon="-1.678731">
        <ele>74.162</ele>
        <time>2021-06-12T08:58:26Z</time>
      </trkpt>
      <trkpt lat="43.229812" lon="-1.678563">
        <ele>78.995</ele>
        <time>2021-06-12T08:58:36Z</time>
      </trkpt>
      <trkpt lat="43.230100" lon="-1.678365">
        <ele>81.349</ele>
        <time>2021-06-12T08:58:44Z</time>
      </trkpt>
      <trkpt lat="43.230336" lon="-1.678104">
        <ele>80.823</ele>
        <time>2021-06-12T08:58:52Z</time>
      </trkpt>
      <trkpt lat="43.230540" lon="-1.677722">
        <ele>80.408</ele>
        <time>2021-06-12T08:59:00Z</time>
      </trkpt>
      <trkpt lat="43.230680" lon="-1.677344">
        <ele>80.456</ele>
        <time>2021-06-12T08:59:07Z</time>
      </trkpt>
      <trkpt lat="43.230863" lon="-1.676865">
        <ele>80.824</ele>
        <time>2021-06-12T08:59:16Z</time>
      </trkpt>
      <trkpt lat="43.231013" lon="-1.676424">
        <ele>83.785</ele>
        <time>2021-06-12T08:59:24Z</time>
      </trkpt>
      <trkpt lat="43.231070" lon="-1.676262">
        <ele>84.751</ele>
        <time>2021-06-12T08:59:27Z</time>
      </trkpt>
      <trkpt lat="43.231255" lon="-1.675826">
        <ele>84.787</ele>
        <time>2021-06-12T08:59:35Z</time>
      </trkpt>
      <trkpt lat="43.231436" lon="-1.675510">
        <ele>83.799</ele>
        <time>2021-06-12T08:59:42Z</time>
      </trkpt>
      <trkpt lat="43.231512" lon="-1.675345">
        <ele>82.840</ele>
        <time>2021-06-12T08:59:45Z</time>
      </trkpt>
      <trkpt lat="43.231541" lon="-1.675295">
        <ele>82.396</ele>
        <time>2021-06-12T08:59:46Z</time>
      </trkpt>
      <trkpt lat="43.231774" lon="-1.675010">
        <ele>78.033</ele>
        <time>2021-06-12T08:59:53Z</time>
      </trkpt>
      <trkpt lat="43.231972" lon="-1.674861">
        <ele>77.023</ele>
        <time>2021-06-12T08:59:59Z</time>
      </trkpt>
      <trkpt lat="43.232310" lon="-1.674802">
        <ele>78.015</ele>
        <time>2021-06-12T09:00:07Z</time>
      </trkpt>
      <trkpt lat="43.232657" lon="-1.674878">
        <ele>77.008</ele>
        <time>2021-06-12T09:00:15Z</time>
      </trkpt>
      <trkpt lat="43.232892" lon="-1.674998">
        <ele>74.680</ele>
        <time>2021-06-12T09:00:22Z</time>
      </trkpt>
      <trkpt lat="43.233119" lon="-1.675263">
        <ele>70.348</ele>
        <time>2021-06-12T09:00:29Z</time>
      </trkpt>
      <trkpt lat="43.233151" lon="-1.675303">
        <ele>69.889</ele>
        <time>2021-06-12T09:00:30Z</time>
      </trkpt>
      <trkpt lat="43.233222" lon="-1.675375">
        <ele>68.825</ele>
        <time>2021-06-12T09:00:32Z</time>
      </trkpt>
      <trkpt lat="43.233501" lon="-1.675740">
        <ele>66.931</ele>
        <time>2021-06-12T09:00:41Z</time>
      </trkpt>
      <trkpt lat="43.233599" lon="-1.675867">
        <ele>66.433</ele>
        <time>2021-06-12T09:00:44Z</time>
      </trkpt>
      <trkpt lat="43.233914" lon="-1.676241">
        <ele>65.064</ele>
        <time>2021-06-12T09:00:53Z</time>
      </trkpt>
      <trkpt lat="43.234135" lon="-1.676501">
        <ele>63.510</ele>
        <time>2021-06-12T09:01:00Z</time>
      </trkpt>
      <trkpt lat="43.234307" lon="-1.676712">
        <ele>62.669</ele>
        <time>2021-06-12T09:01:05Z</time>
      </trkpt>
      <trkpt lat="43.234556" lon="-1.676943">
        <ele>60.704</ele>
        <time>2021-06-12T09:01:12Z</time>
      </trkpt>
      <trkpt lat="43.234877" lon="-1.677109">
        <ele>57.324</ele>
        <time>2021-06-12T09:01:20Z</time>
      </trkpt>
      <trkpt lat="43.234972" lon="-1.677133">
        <ele>56.808</ele>
        <time>2021-06-12T09:01:22Z</time>
      </trkpt>
      <trkpt lat="43.235275" lon="-1.677152">
        <ele>54.953</ele>
        <time>2021-06-12T09:01:29Z</time>
      </trkpt>
      <trkpt lat="43.235609" lon="-1.677078">
        <ele>53.071</ele>
        <time>2021-06-12T09:01:37Z</time>
      </trkpt>
      <trkpt lat="43.236042" lon="-1.676923">
        <ele>53.492</ele>
        <time>2021-06-12T09:01:47Z</time>
      </trkpt>
      <trkpt lat="43.236405" lon="-1.676684">
        <ele>54.458</ele>
        <time>2021-06-12T09:01:56Z</time>
      </trkpt>
      <trkpt lat="43.236719" lon="-1.676345">
        <ele>54.954</ele>
        <time>2021-06-12T09:02:05Z</time>
      </trkpt>
      <trkpt lat="43.237063" lon="-1.675802">
        <ele>55.436</ele>
        <time>2021-06-12T09:02:16Z</time>
      </trkpt>
      <trkpt lat="43.237450" lon="-1.675282">
        <ele>57.367</ele>
        <time>2021-06-12T09:02:27Z</time>
      </trkpt>
      <trkpt lat="43.237515" lon="-1.675198">
        <ele>57.373</ele>
        <time>2021-06-12T09:02:29Z</time>
      </trkpt>
      <trkpt lat="43.237548" lon="-1.675156">
        <ele>57.384</ele>
        <time>2021-06-12T09:02:30Z</time>
      </trkpt>
      <trkpt lat="43.237884" lon="-1.674742">
        <ele>57.807</ele>
        <time>2021-06-12T09:02:40Z</time>
      </trkpt>
      <trkpt lat="43.238076" lon="-1.674610">
        <ele>57.817</ele>
        <time>2021-06-12T09:02:46Z</time>
      </trkpt>
      <trkpt lat="43.239813" lon="-1.675332">
        <ele>58.708</ele>
        <time>2021-06-12T09:03:36Z</time>
      </trkpt>
      <trkpt lat="43.240008" lon="-1.675344">
        <ele>62.645</ele>
        <time>2021-06-12T09:03:43Z</time>
      </trkpt>
      <trkpt lat="43.240222" lon="-1.675478">
        <ele>57.373</ele>
        <time>2021-06-12T09:03:48Z</time>
      </trkpt>
      <trkpt lat="43.240535" lon="-1.675542">
        <ele>57.864</ele>
        <time>2021-06-12T09:03:56Z</time>
      </trkpt>
      <trkpt lat="43.240810" lon="-1.675524">
        <ele>57.330</ele>
        <time>2021-06-12T09:04:03Z</time>
      </trkpt>
      <trkpt lat="43.241108" lon="-1.675388">
        <ele>58.356</ele>
        <time>2021-06-12T09:04:11Z</time>
      </trkpt>
      <trkpt lat="43.241337" lon="-1.675208">
        <ele>58.358</ele>
        <time>2021-06-12T09:04:18Z</time>
      </trkpt>
      <trkpt lat="43.241500" lon="-1.674999">
        <ele>60.719</ele>
        <time>2021-06-12T09:04:24Z</time>
      </trkpt>
      <trkpt lat="43.241632" lon="-1.674746">
        <ele>61.615</ele>
        <time>2021-06-12T09:04:30Z</time>
      </trkpt>
      <trkpt lat="43.241760" lon="-1.674481">
        <ele>63.138</ele>
        <time>2021-06-12T09:04:36Z</time>
      </trkpt>
      <trkpt lat="43.241886" lon="-1.674233">
        <ele>65.970</ele>
        <time>2021-06-12T09:04:43Z</time>
      </trkpt>
      <trkpt lat="43.242064" lon="-1.673902">
        <ele>67.417</ele>
        <time>2021-06-12T09:04:50Z</time>
      </trkpt>
      <trkpt lat="43.242323" lon="-1.673504">
        <ele>68.808</ele>
        <time>2021-06-12T09:04:59Z</time>
      </trkpt>
      <trkpt lat="43.242560" lon="-1.673175">
        <ele>68.340</ele>
        <time>2021-06-12T09:05:06Z</time>
      </trkpt>
      <trkpt lat="43.242866" lon="-1.672766">
        <ele>66.918</ele>
        <time>2021-06-12T09:05:15Z</time>
      </trkpt>
      <trkpt lat="43.243172" lon="-1.672321">
        <ele>63.559</ele>
        <time>2021-06-12T09:05:24Z</time>
      </trkpt>
      <trkpt lat="43.243438" lon="-1.671952">
        <ele>61.615</ele>
        <time>2021-06-12T09:05:32Z</time>
      </trkpt>
      <trkpt lat="43.243650" lon="-1.671650">
        <ele>61.191</ele>
        <time>2021-06-12T09:05:39Z</time>
      </trkpt>
      <trkpt lat="43.243679" lon="-1.671607">
        <ele>61.193</ele>
        <time>2021-06-12T09:05:40Z</time>
      </trkpt>
      <trkpt lat="43.243945" lon="-1.671222">
        <ele>59.744</ele>
        <time>2021-06-12T09:05:49Z</time>
      </trkpt>
      <trkpt lat="43.244137" lon="-1.670926">
        <ele>61.180</ele>
        <time>2021-06-12T09:05:56Z</time>
      </trkpt>
      <trkpt lat="43.244393" lon="-1.670553">
        <ele>61.197</ele>
        <time>2021-06-12T09:06:05Z</time>
      </trkpt>
      <trkpt lat="43.244639" lon="-1.670218">
        <ele>59.223</ele>
        <time>2021-06-12T09:06:13Z</time>
      </trkpt>
      <trkpt lat="43.244830" lon="-1.670061">
        <ele>56.825</ele>
        <time>2021-06-12T09:06:19Z</time>
      </trkpt>
      <trkpt lat="43.245105" lon="-1.669880">
        <ele>55.808</ele>
        <time>2021-06-12T09:06:27Z</time>
      </trkpt>
      <trkpt lat="43.245315" lon="-1.669785">
        <ele>56.356</ele>
        <time>2021-06-12T09:06:34Z</time>
      </trkpt>
      <trkpt lat="43.245586" lon="-1.669697">
        <ele>56.314</ele>
        <time>2021-06-12T09:06:41Z</time>
      </trkpt>
      <trkpt lat="43.245845" lon="-1.669818">
        <ele>57.845</ele>
        <time>2021-06-12T09:06:49Z</time>
      </trkpt>
      <trkpt lat="43.245953" lon="-1.669879">
        <ele>56.811</ele>
        <time>2021-06-12T09:06:52Z</time>
      </trkpt>
      <trkpt lat="43.246295" lon="-1.670110">
        <ele>55.477</ele>
        <time>2021-06-12T09:06:59Z</time>
      </trkpt>
      <trkpt lat="43.246705" lon="-1.670409">
        <ele>55.489</ele>
        <time>2021-06-12T09:07:08Z</time>
      </trkpt>
      <trkpt lat="43.247128" lon="-1.670730">
        <ele>55.850</ele>
        <time>2021-06-12T09:07:18Z</time>
      </trkpt>
      <trkpt lat="43.247424" lon="-1.670944">
        <ele>54.976</ele>
        <time>2021-06-12T09:07:25Z</time>
      </trkpt>
      <trkpt lat="43.247686" lon="-1.671140">
        <ele>53.081</ele>
        <time>2021-06-12T09:07:32Z</time>
      </trkpt>
      <trkpt lat="43.248001" lon="-1.671385">
        <ele>52.061</ele>
        <time>2021-06-12T09:07:40Z</time>
      </trkpt>
      <trkpt lat="43.248316" lon="-1.671616">
        <ele>52.017</ele>
        <time>2021-06-12T09:07:49Z</time>
      </trkpt>
      <trkpt lat="43.248533" lon="-1.671833">
        <ele>51.508</ele>
        <time>2021-06-12T09:07:56Z</time>
      </trkpt>
      <trkpt lat="43.248786" lon="-1.672131">
        <ele>50.695</ele>
        <time>2021-06-12T09:08:06Z</time>
      </trkpt>
      <trkpt lat="43.249112" lon="-1.672484">
        <ele>49.143</ele>
        <time>2021-06-12T09:08:16Z</time>
      </trkpt>
      <trkpt lat="43.249394" lon="-1.672794">
        <ele>47.294</ele>
        <time>2021-06-12T09:08:23Z</time>
      </trkpt>
      <trkpt lat="43.249850" lon="-1.673374">
        <ele>44.310</ele>
        <time>2021-06-12T09:08:34Z</time>
      </trkpt>
      <trkpt lat="43.250120" lon="-1.673705">
        <ele>41.936</ele>
        <time>2021-06-12T09:08:41Z</time>
      </trkpt>
      <trkpt lat="43.250234" lon="-1.673852">
        <ele>40.978</ele>
        <time>2021-06-12T09:08:44Z</time>
      </trkpt>
      <trkpt lat="43.250260" lon="-1.673915">
        <ele>40.529</ele>
        <time>2021-06-12T09:08:45Z</time>
      </trkpt>
      <trkpt lat="43.250273" lon="-1.673993">
        <ele>40.015</ele>
        <time>2021-06-12T09:08:46Z</time>
      </trkpt>
      <trkpt lat="43.250274" lon="-1.674063">
        <ele>40.082</ele>
        <time>2021-06-12T09:08:47Z</time>
      </trkpt>
      <trkpt lat="43.250271" lon="-1.674132">
        <ele>39.543</ele>
        <time>2021-06-12T09:08:48Z</time>
      </trkpt>
      <trkpt lat="43.250250" lon="-1.674329">
        <ele>39.517</ele>
        <time>2021-06-12T09:08:51Z</time>
      </trkpt>
      <trkpt lat="43.250231" lon="-1.674387">
        <ele>39.508</ele>
        <time>2021-06-12T09:08:52Z</time>
      </trkpt>
      <trkpt lat="43.250226" lon="-1.674434">
        <ele>39.585</ele>
        <time>2021-06-12T09:08:53Z</time>
      </trkpt>
      <trkpt lat="43.250263" lon="-1.674831">
        <ele>41.463</ele>
        <time>2021-06-12T09:09:02Z</time>
      </trkpt>
      <trkpt lat="43.250330" lon="-1.675377">
        <ele>41.434</ele>
        <time>2021-06-12T09:09:12Z</time>
      </trkpt>
      <trkpt lat="43.250406" lon="-1.675907">
        <ele>42.970</ele>
        <time>2021-06-12T09:09:22Z</time>
      </trkpt>
      <trkpt lat="43.250491" lon="-1.676459">
        <ele>44.886</ele>
        <time>2021-06-12T09:09:32Z</time>
      </trkpt>
      <trkpt lat="43.250548" lon="-1.676834">
        <ele>45.328</ele>
        <time>2021-06-12T09:09:39Z</time>
      </trkpt>
      <trkpt lat="43.250618" lon="-1.677341">
        <ele>46.259</ele>
        <time>2021-06-12T09:09:47Z</time>
      </trkpt>
      <trkpt lat="43.250704" lon="-1.677917">
        <ele>47.265</ele>
        <time>2021-06-12T09:09:57Z</time>
      </trkpt>
      <trkpt lat="43.250774" lon="-1.678454">
        <ele>49.158</ele>
        <time>2021-06-12T09:10:06Z</time>
      </trkpt>
      <trkpt lat="43.250845" lon="-1.678836">
        <ele>49.152</ele>
        <time>2021-06-12T09:10:13Z</time>
      </trkpt>
      <trkpt lat="43.250904" lon="-1.679302">
        <ele>49.617</ele>
        <time>2021-06-12T09:10:21Z</time>
      </trkpt>
      <trkpt lat="43.250982" lon="-1.679852">
        <ele>49.108</ele>
        <time>2021-06-12T09:10:30Z</time>
      </trkpt>
      <trkpt lat="43.251105" lon="-1.680309">
        <ele>49.612</ele>
        <time>2021-06-12T09:10:38Z</time>
      </trkpt>
      <trkpt lat="43.251329" lon="-1.680736">
        <ele>50.640</ele>
        <time>2021-06-12T09:10:47Z</time>
      </trkpt>
      <trkpt lat="43.251566" lon="-1.680974">
        <ele>50.161</ele>
        <time>2021-06-12T09:10:54Z</time>
      </trkpt>
      <trkpt lat="43.251682" lon="-1.681053">
        <ele>49.187</ele>
        <time>2021-06-12T09:10:57Z</time>
      </trkpt>
      <trkpt lat="43.251760" lon="-1.681104">
        <ele>48.663</ele>
        <time>2021-06-12T09:10:59Z</time>
      </trkpt>
      <trkpt lat="43.251843" lon="-1.681159">
        <ele>48.275</ele>
        <time>2021-06-12T09:11:01Z</time>
      </trkpt>
      <trkpt lat="43.252192" lon="-1.681288">
        <ele>48.296</ele>
        <time>2021-06-12T09:11:09Z</time>
      </trkpt>
      <trkpt lat="43.252515" lon="-1.681384">
        <ele>48.692</ele>
        <time>2021-06-12T09:11:16Z</time>
      </trkpt>
      <trkpt lat="43.252866" lon="-1.681470">
        <ele>49.631</ele>
        <time>2021-06-12T09:11:24Z</time>
      </trkpt>
      <trkpt lat="43.253212" lon="-1.681513">
        <ele>50.661</ele>
        <time>2021-06-12T09:11:32Z</time>
      </trkpt>
      <trkpt lat="43.253569" lon="-1.681517">
        <ele>52.007</ele>
        <time>2021-06-12T09:11:41Z</time>
      </trkpt>
      <trkpt lat="43.253877" lon="-1.681517">
        <ele>52.508</ele>
        <time>2021-06-12T09:11:49Z</time>
      </trkpt>
      <trkpt lat="43.254311" lon="-1.681538">
        <ele>53.990</ele>
        <time>2021-06-12T09:11:59Z</time>
      </trkpt>
      <trkpt lat="43.254456" lon="-1.681446">
        <ele>53.958</ele>
        <time>2021-06-12T09:12:03Z</time>
      </trkpt>
      <trkpt lat="43.254581" lon="-1.681251">
        <ele>53.459</ele>
        <time>2021-06-12T09:12:10Z</time>
      </trkpt>
      <trkpt lat="43.254607" lon="-1.681226">
        <ele>53.955</ele>
        <time>2021-06-12T09:12:15Z</time>
      </trkpt>
      <trkpt lat="43.254622" lon="-1.681218">
        <ele>53.961</ele>
        <time>2021-06-12T09:12:16Z</time>
      </trkpt>
      <trkpt lat="43.254640" lon="-1.681212">
        <ele>53.913</ele>
        <time>2021-06-12T09:12:17Z</time>
      </trkpt>
      <trkpt lat="43.254660" lon="-1.681208">
        <ele>53.974</ele>
        <time>2021-06-12T09:12:18Z</time>
      </trkpt>
      <trkpt lat="43.254686" lon="-1.681211">
        <ele>53.980</ele>
        <time>2021-06-12T09:12:19Z</time>
      </trkpt>
      <trkpt lat="43.254717" lon="-1.681216">
        <ele>53.945</ele>
        <time>2021-06-12T09:12:20Z</time>
      </trkpt>
      <trkpt lat="43.254887" lon="-1.681196">
        <ele>53.947</ele>
        <time>2021-06-12T09:12:25Z</time>
      </trkpt>
      <trkpt lat="43.255169" lon="-1.681352">
        <ele>52.011</ele>
        <time>2021-06-12T09:12:33Z</time>
      </trkpt>
      <trkpt lat="43.255496" lon="-1.681530">
        <ele>49.608</ele>
        <time>2021-06-12T09:12:42Z</time>
      </trkpt>
      <trkpt lat="43.255579" lon="-1.681543">
        <ele>49.161</ele>
        <time>2021-06-12T09:12:44Z</time>
      </trkpt>
      <trkpt lat="43.255783" lon="-1.681509">
        <ele>49.669</ele>
        <time>2021-06-12T09:12:50Z</time>
      </trkpt>
      <trkpt lat="43.255970" lon="-1.681456">
        <ele>49.630</ele>
        <time>2021-06-12T09:12:57Z</time>
      </trkpt>
      <trkpt lat="43.256206" lon="-1.681354">
        <ele>49.626</ele>
        <time>2021-06-12T09:13:04Z</time>
      </trkpt>
      <trkpt lat="43.256424" lon="-1.681230">
        <ele>50.692</ele>
        <time>2021-06-12T09:13:10Z</time>
      </trkpt>
      <trkpt lat="43.256692" lon="-1.681090">
        <ele>51.554</ele>
        <time>2021-06-12T09:13:17Z</time>
      </trkpt>
      <trkpt lat="43.256938" lon="-1.681047">
        <ele>53.955</ele>
        <time>2021-06-12T09:13:24Z</time>
      </trkpt>
      <trkpt lat="43.257070" lon="-1.681006">
        <ele>58.391</ele>
        <time>2021-06-12T09:13:30Z</time>
      </trkpt>
      <trkpt lat="43.257262" lon="-1.680911">
        <ele>62.681</ele>
        <time>2021-06-12T09:13:37Z</time>
      </trkpt>
      <trkpt lat="43.257502" lon="-1.680816">
        <ele>68.361</ele>
        <time>2021-06-12T09:13:45Z</time>
      </trkpt>
      <trkpt lat="43.257736" lon="-1.680717">
        <ele>69.817</ele>
        <time>2021-06-12T09:13:52Z</time>
      </trkpt>
      <trkpt lat="43.258032" lon="-1.680581">
        <ele>69.808</ele>
        <time>2021-06-12T09:14:01Z</time>
      </trkpt>
      <trkpt lat="43.258316" lon="-1.680457">
        <ele>70.785</ele>
        <time>2021-06-12T09:14:09Z</time>
      </trkpt>
      <trkpt lat="43.258605" lon="-1.680267">
        <ele>72.293</ele>
        <time>2021-06-12T09:14:17Z</time>
      </trkpt>
      <trkpt lat="43.258931" lon="-1.680114">
        <ele>72.254</ele>
        <time>2021-06-12T09:14:26Z</time>
      </trkpt>
      <trkpt lat="43.259183" lon="-1.680090">
        <ele>69.890</ele>
        <time>2021-06-12T09:14:33Z</time>
      </trkpt>
      <trkpt lat="43.259369" lon="-1.680163">
        <ele>68.836</ele>
        <time>2021-06-12T09:14:40Z</time>
      </trkpt>
      <trkpt lat="43.259531" lon="-1.680268">
        <ele>66.988</ele>
        <time>2021-06-12T09:14:46Z</time>
      </trkpt>
      <trkpt lat="43.259774" lon="-1.680548">
        <ele>65.019</ele>
        <time>2021-06-12T09:14:53Z</time>
      </trkpt>
      <trkpt lat="43.260048" lon="-1.680967">
        <ele>62.145</ele>
        <time>2021-06-12T09:15:02Z</time>
      </trkpt>
      <trkpt lat="43.260198" lon="-1.681207">
        <ele>59.713</ele>
        <time>2021-06-12T09:15:10Z</time>
      </trkpt>
      <trkpt lat="43.260277" lon="-1.681475">
        <ele>57.343</ele>
        <time>2021-06-12T09:15:17Z</time>
      </trkpt>
      <trkpt lat="43.260281" lon="-1.681839">
        <ele>55.407</ele>
        <time>2021-06-12T09:15:23Z</time>
      </trkpt>
      <trkpt lat="43.260269" lon="-1.681981">
        <ele>55.408</ele>
        <time>2021-06-12T09:15:25Z</time>
      </trkpt>
      <trkpt lat="43.260261" lon="-1.682046">
        <ele>54.968</ele>
        <time>2021-06-12T09:15:26Z</time>
      </trkpt>
      <trkpt lat="43.260259" lon="-1.682113">
        <ele>54.976</ele>
        <time>2021-06-12T09:15:27Z</time>
      </trkpt>
      <trkpt lat="43.260247" lon="-1.682577">
        <ele>54.437</ele>
        <time>2021-06-12T09:15:34Z</time>
      </trkpt>
      <trkpt lat="43.260260" lon="-1.682905">
        <ele>54.453</ele>
        <time>2021-06-12T09:15:40Z</time>
      </trkpt>
      <trkpt lat="43.260297" lon="-1.683258">
        <ele>54.479</ele>
        <time>2021-06-12T09:15:48Z</time>
      </trkpt>
      <trkpt lat="43.260343" lon="-1.683464">
        <ele>53.471</ele>
        <time>2021-06-12T09:15:54Z</time>
      </trkpt>
      <trkpt lat="43.260464" lon="-1.683776">
        <ele>51.062</ele>
        <time>2021-06-12T09:16:01Z</time>
      </trkpt>
      <trkpt lat="43.260637" lon="-1.684117">
        <ele>47.778</ele>
        <time>2021-06-12T09:16:09Z</time>
      </trkpt>
      <trkpt lat="43.260791" lon="-1.684487">
        <ele>40.939</ele>
        <time>2021-06-12T09:16:17Z</time>
      </trkpt>
      <trkpt lat="43.260947" lon="-1.684797">
        <ele>35.201</ele>
        <time>2021-06-12T09:16:24Z</time>
      </trkpt>
      <trkpt lat="43.261121" lon="-1.685151">
        <ele>28.921</ele>
        <time>2021-06-12T09:16:32Z</time>
      </trkpt>
      <trkpt lat="43.261296" lon="-1.685547">
        <ele>23.608</ele>
        <time>2021-06-12T09:16:40Z</time>
      </trkpt>
      <trkpt lat="43.261465" lon="-1.685854">
        <ele>19.380</ele>
        <time>2021-06-12T09:16:47Z</time>
      </trkpt>
      <trkpt lat="43.261661" lon="-1.686129">
        <ele>15.528</ele>
        <time>2021-06-12T09:16:54Z</time>
      </trkpt>
      <trkpt lat="43.261697" lon="-1.686168">
        <ele>15.039</ele>
        <time>2021-06-12T09:16:55Z</time>
      </trkpt>
      <trkpt lat="43.261796" lon="-1.686281">
        <ele>14.095</ele>
        <time>2021-06-12T09:16:58Z</time>
      </trkpt>
      <trkpt lat="43.261829" lon="-1.686324">
        <ele>13.611</ele>
        <time>2021-06-12T09:16:59Z</time>
      </trkpt>
      <trkpt lat="43.262083" lon="-1.686569">
        <ele>12.173</ele>
        <time>2021-06-12T09:17:07Z</time>
      </trkpt>
      <trkpt lat="43.262259" lon="-1.686783">
        <ele>12.654</ele>
        <time>2021-06-12T09:17:13Z</time>
      </trkpt>
      <trkpt lat="43.262530" lon="-1.687053">
        <ele>9.760</ele>
        <time>2021-06-12T09:17:22Z</time>
      </trkpt>
      <trkpt lat="43.262787" lon="-1.687212">
        <ele>12.152</ele>
        <time>2021-06-12T09:17:29Z</time>
      </trkpt>
      <trkpt lat="43.263046" lon="-1.687349">
        <ele>14.553</ele>
        <time>2021-06-12T09:17:36Z</time>
      </trkpt>
      <trkpt lat="43.263085" lon="-1.687369">
        <ele>14.508</ele>
        <time>2021-06-12T09:17:37Z</time>
      </trkpt>
      <trkpt lat="43.263475" lon="-1.687552">
        <ele>20.308</ele>
        <time>2021-06-12T09:17:46Z</time>
      </trkpt>
      <trkpt lat="43.263756" lon="-1.687610">
        <ele>24.672</ele>
        <time>2021-06-12T09:17:53Z</time>
      </trkpt>
      <trkpt lat="43.263803" lon="-1.687607">
        <ele>25.660</ele>
        <time>2021-06-12T09:17:54Z</time>
      </trkpt>
      <trkpt lat="43.264053" lon="-1.687599">
        <ele>27.591</ele>
        <time>2021-06-12T09:18:00Z</time>
      </trkpt>
      <trkpt lat="43.264333" lon="-1.687528">
        <ele>29.417</ele>
        <time>2021-06-12T09:18:07Z</time>
      </trkpt>
      <trkpt lat="43.264662" lon="-1.687400">
        <ele>30.993</ele>
        <time>2021-06-12T09:18:15Z</time>
      </trkpt>
      <trkpt lat="43.264745" lon="-1.687349">
        <ele>32.335</ele>
        <time>2021-06-12T09:18:17Z</time>
      </trkpt>
      <trkpt lat="43.264785" lon="-1.687319">
        <ele>32.346</ele>
        <time>2021-06-12T09:18:18Z</time>
      </trkpt>
      <trkpt lat="43.264823" lon="-1.687293">
        <ele>33.372</ele>
        <time>2021-06-12T09:18:19Z</time>
      </trkpt>
      <trkpt lat="43.264856" lon="-1.687265">
        <ele>33.377</ele>
        <time>2021-06-12T09:18:20Z</time>
      </trkpt>
      <trkpt lat="43.264887" lon="-1.687238">
        <ele>33.361</ele>
        <time>2021-06-12T09:18:21Z</time>
      </trkpt>
      <trkpt lat="43.265104" lon="-1.687058">
        <ele>33.727</ele>
        <time>2021-06-12T09:18:27Z</time>
      </trkpt>
      <trkpt lat="43.265208" lon="-1.686965">
        <ele>33.708</ele>
        <time>2021-06-12T09:18:30Z</time>
      </trkpt>
      <trkpt lat="43.265433" lon="-1.686791">
        <ele>34.244</ele>
        <time>2021-06-12T09:18:37Z</time>
      </trkpt>
      <trkpt lat="43.265627" lon="-1.686613">
        <ele>34.252</ele>
        <time>2021-06-12T09:18:44Z</time>
      </trkpt>
      <trkpt lat="43.265771" lon="-1.686477">
        <ele>34.723</ele>
        <time>2021-06-12T09:18:49Z</time>
      </trkpt>
      <trkpt lat="43.265981" lon="-1.686227">
        <ele>36.169</ele>
        <time>2021-06-12T09:18:56Z</time>
      </trkpt>
      <trkpt lat="43.266202" lon="-1.685945">
        <ele>37.645</ele>
        <time>2021-06-12T09:19:04Z</time>
      </trkpt>
      <trkpt lat="43.266403" lon="-1.685757">
        <ele>38.157</ele>
        <time>2021-06-12T09:19:11Z</time>
      </trkpt>
      <trkpt lat="43.266742" lon="-1.685503">
        <ele>38.158</ele>
        <time>2021-06-12T09:19:21Z</time>
      </trkpt>
      <trkpt lat="43.266996" lon="-1.685318">
        <ele>39.034</ele>
        <time>2021-06-12T09:19:29Z</time>
      </trkpt>
      <trkpt lat="43.267308" lon="-1.685105">
        <ele>40.013</ele>
        <time>2021-06-12T09:19:37Z</time>
      </trkpt>
      <trkpt lat="43.267615" lon="-1.684869">
        <ele>40.043</ele>
        <time>2021-06-12T09:19:46Z</time>
      </trkpt>
      <trkpt lat="43.267773" lon="-1.684761">
        <ele>40.507</ele>
        <time>2021-06-12T09:19:50Z</time>
      </trkpt>
      <trkpt lat="43.267895" lon="-1.684691">
        <ele>40.508</ele>
        <time>2021-06-12T09:19:53Z</time>
      </trkpt>
      <trkpt lat="43.268020" lon="-1.684643">
        <ele>40.558</ele>
        <time>2021-06-12T09:19:56Z</time>
      </trkpt>
      <trkpt lat="43.268105" lon="-1.684622">
        <ele>40.926</ele>
        <time>2021-06-12T09:19:58Z</time>
      </trkpt>
      <trkpt lat="43.268319" lon="-1.684611">
        <ele>40.517</ele>
        <time>2021-06-12T09:20:03Z</time>
      </trkpt>
      <trkpt lat="43.268489" lon="-1.684638">
        <ele>40.963</ele>
        <time>2021-06-12T09:20:07Z</time>
      </trkpt>
      <trkpt lat="43.268531" lon="-1.684652">
        <ele>40.949</ele>
        <time>2021-06-12T09:20:08Z</time>
      </trkpt>
      <trkpt lat="43.268846" lon="-1.684826">
        <ele>41.491</ele>
        <time>2021-06-12T09:20:16Z</time>
      </trkpt>
      <trkpt lat="43.269020" lon="-1.684994">
        <ele>42.472</ele>
        <time>2021-06-12T09:20:21Z</time>
      </trkpt>
      <trkpt lat="43.269186" lon="-1.685285">
        <ele>40.978</ele>
        <time>2021-06-12T09:20:27Z</time>
      </trkpt>
      <trkpt lat="43.269231" lon="-1.685389">
        <ele>40.579</ele>
        <time>2021-06-12T09:20:29Z</time>
      </trkpt>
      <trkpt lat="43.269371" lon="-1.685940">
        <ele>40.005</ele>
        <time>2021-06-12T09:20:38Z</time>
      </trkpt>
      <trkpt lat="43.269487" lon="-1.686518">
        <ele>39.025</ele>
        <time>2021-06-12T09:20:48Z</time>
      </trkpt>
      <trkpt lat="43.269588" lon="-1.687003">
        <ele>39.508</ele>
        <time>2021-06-12T09:20:57Z</time>
      </trkpt>
      <trkpt lat="43.269726" lon="-1.687476">
        <ele>38.574</ele>
        <time>2021-06-12T09:21:07Z</time>
      </trkpt>
      <trkpt lat="43.269844" lon="-1.687748">
        <ele>37.142</ele>
        <time>2021-06-12T09:21:14Z</time>
      </trkpt>
      <trkpt lat="43.269934" lon="-1.687866">
        <ele>36.613</ele>
        <time>2021-06-12T09:21:19Z</time>
      </trkpt>
      <trkpt lat="43.269990" lon="-1.687938">
        <ele>37.139</ele>
        <time>2021-06-12T09:21:25Z</time>
      </trkpt>
      <trkpt lat="43.269992" lon="-1.687958">
        <ele>37.625</ele>
        <time>2021-06-12T09:21:31Z</time>
      </trkpt>
      <trkpt lat="43.270013" lon="-1.687958">
        <ele>40.977</ele>
        <time>2021-06-12T09:21:49Z</time>
      </trkpt>
      <trkpt lat="43.269993" lon="-1.687973">
        <ele>42.968</ele>
        <time>2021-06-12T09:22:07Z</time>
      </trkpt>
      <trkpt lat="43.269983" lon="-1.687961">
        <ele>42.924</ele>
        <time>2021-06-12T09:22:22Z</time>
      </trkpt>
      <trkpt lat="43.269991" lon="-1.687935">
        <ele>43.897</ele>
        <time>2021-06-12T09:22:37Z</time>
      </trkpt>
      <trkpt lat="43.269973" lon="-1.687947">
        <ele>41.923</ele>
        <time>2021-06-12T09:22:50Z</time>
      </trkpt>
      <trkpt lat="43.269963" lon="-1.687997">
        <ele>40.025</ele>
        <time>2021-06-12T09:23:07Z</time>
      </trkpt>
      <trkpt lat="43.269979" lon="-1.687985">
        <ele>43.408</ele>
        <time>2021-06-12T09:23:18Z</time>
      </trkpt>
      <trkpt lat="43.270013" lon="-1.688001">
        <ele>44.896</ele>
        <time>2021-06-12T09:23:25Z</time>
      </trkpt>
      <trkpt lat="43.270139" lon="-1.688107">
        <ele>46.784</ele>
        <time>2021-06-12T09:23:32Z</time>
      </trkpt>
      <trkpt lat="43.270314" lon="-1.688194">
        <ele>47.725</ele>
        <time>2021-06-12T09:23:38Z</time>
      </trkpt>
      <trkpt lat="43.270493" lon="-1.688292">
        <ele>47.751</ele>
        <time>2021-06-12T09:23:44Z</time>
      </trkpt>
      <trkpt lat="43.270790" lon="-1.688426">
        <ele>47.287</ele>
        <time>2021-06-12T09:23:53Z</time>
      </trkpt>
      <trkpt lat="43.270959" lon="-1.688540">
        <ele>47.259</ele>
        <time>2021-06-12T09:23:59Z</time>
      </trkpt>
      <trkpt lat="43.271195" lon="-1.688718">
        <ele>46.720</ele>
        <time>2021-06-12T09:24:06Z</time>
      </trkpt>
      <trkpt lat="43.271402" lon="-1.688929">
        <ele>46.716</ele>
        <time>2021-06-12T09:24:14Z</time>
      </trkpt>
      <trkpt lat="43.271600" lon="-1.689168">
        <ele>45.346</ele>
        <time>2021-06-12T09:24:22Z</time>
      </trkpt>
      <trkpt lat="43.271860" lon="-1.689383">
        <ele>43.888</ele>
        <time>2021-06-12T09:24:31Z</time>
      </trkpt>
      <trkpt lat="43.271972" lon="-1.689536">
        <ele>42.916</ele>
        <time>2021-06-12T09:24:35Z</time>
      </trkpt>
      <trkpt lat="43.271994" lon="-1.689591">
        <ele>42.408</ele>
        <time>2021-06-12T09:24:36Z</time>
      </trkpt>
      <trkpt lat="43.272018" lon="-1.689642">
        <ele>41.951</ele>
        <time>2021-06-12T09:24:37Z</time>
      </trkpt>
      <trkpt lat="43.272043" lon="-1.689673">
        <ele>41.419</ele>
        <time>2021-06-12T09:24:38Z</time>
      </trkpt>
      <trkpt lat="43.272074" lon="-1.689694">
        <ele>41.490</ele>
        <time>2021-06-12T09:24:39Z</time>
      </trkpt>
      <trkpt lat="43.272107" lon="-1.689707">
        <ele>41.456</ele>
        <time>2021-06-12T09:24:40Z</time>
      </trkpt>
      <trkpt lat="43.272336" lon="-1.689711">
        <ele>41.442</ele>
        <time>2021-06-12T09:24:46Z</time>
      </trkpt>
      <trkpt lat="43.272726" lon="-1.689678">
        <ele>42.454</ele>
        <time>2021-06-12T09:24:57Z</time>
      </trkpt>
      <trkpt lat="43.272956" lon="-1.689735">
        <ele>43.485</ele>
        <time>2021-06-12T09:25:04Z</time>
      </trkpt>
      <trkpt lat="43.273135" lon="-1.689808">
        <ele>47.741</ele>
        <time>2021-06-12T09:25:11Z</time>
      </trkpt>
      <trkpt lat="43.273396" lon="-1.689803">
        <ele>52.548</ele>
        <time>2021-06-12T09:25:20Z</time>
      </trkpt>
      <trkpt lat="43.273689" lon="-1.689852">
        <ele>54.961</ele>
        <time>2021-06-12T09:25:29Z</time>
      </trkpt>
      <trkpt lat="43.273889" lon="-1.689911">
        <ele>53.917</ele>
        <time>2021-06-12T09:25:35Z</time>
      </trkpt>
      <trkpt lat="43.274164" lon="-1.690012">
        <ele>53.408</ele>
        <time>2021-06-12T09:25:43Z</time>
      </trkpt>
      <trkpt lat="43.274438" lon="-1.690046">
        <ele>53.911</ele>
        <time>2021-06-12T09:25:51Z</time>
      </trkpt>
      <trkpt lat="43.274734" lon="-1.690144">
        <ele>54.959</ele>
        <time>2021-06-12T09:26:01Z</time>
      </trkpt>
      <trkpt lat="43.274939" lon="-1.690233">
        <ele>54.960</ele>
        <time>2021-06-12T09:26:08Z</time>
      </trkpt>
      <trkpt lat="43.275131" lon="-1.690303">
        <ele>56.356</ele>
        <time>2021-06-12T09:26:16Z</time>
      </trkpt>
      <trkpt lat="43.275180" lon="-1.690318">
        <ele>53.422</ele>
        <time>2021-06-12T09:26:21Z</time>
      </trkpt>
      <trkpt lat="43.275297" lon="-1.690418">
        <ele>51.514</ele>
        <time>2021-06-12T09:26:27Z</time>
      </trkpt>
      <trkpt lat="43.275449" lon="-1.690477">
        <ele>51.035</ele>
        <time>2021-06-12T09:26:33Z</time>
      </trkpt>
      <trkpt lat="43.275735" lon="-1.690532">
        <ele>52.571</ele>
        <time>2021-06-12T09:26:41Z</time>
      </trkpt>
      <trkpt lat="43.275823" lon="-1.690526">
        <ele>53.079</ele>
        <time>2021-06-12T09:26:43Z</time>
      </trkpt>
      <trkpt lat="43.276170" lon="-1.690537">
        <ele>53.405</ele>
        <time>2021-06-12T09:26:52Z</time>
      </trkpt>
      <trkpt lat="43.276505" lon="-1.690560">
        <ele>56.325</ele>
        <time>2021-06-12T09:27:01Z</time>
      </trkpt>
      <trkpt lat="43.276775" lon="-1.690562">
        <ele>58.708</ele>
        <time>2021-06-12T09:27:08Z</time>
      </trkpt>
      <trkpt lat="43.277101" lon="-1.690577">
        <ele>62.184</ele>
        <time>2021-06-12T09:27:16Z</time>
      </trkpt>
      <trkpt lat="43.277435" lon="-1.690591">
        <ele>62.152</ele>
        <time>2021-06-12T09:27:25Z</time>
      </trkpt>
      <trkpt lat="43.277791" lon="-1.690754">
        <ele>55.813</ele>
        <time>2021-06-12T09:27:34Z</time>
      </trkpt>
      <trkpt lat="43.278098" lon="-1.691052">
        <ele>50.679</ele>
        <time>2021-06-12T09:27:43Z</time>
      </trkpt>
      <trkpt lat="43.278306" lon="-1.691367">
        <ele>50.685</ele>
        <time>2021-06-12T09:27:51Z</time>
      </trkpt>
      <trkpt lat="43.278456" lon="-1.691735">
        <ele>48.657</ele>
        <time>2021-06-12T09:27:59Z</time>
      </trkpt>
      <trkpt lat="43.278523" lon="-1.692074">
        <ele>47.758</ele>
        <time>2021-06-12T09:28:06Z</time>
      </trkpt>
      <trkpt lat="43.278553" lon="-1.692455">
        <ele>47.754</ele>
        <time>2021-06-12T09:28:13Z</time>
      </trkpt>
      <trkpt lat="43.278521" lon="-1.692753">
        <ele>48.225</ele>
        <time>2021-06-12T09:28:18Z</time>
      </trkpt>
      <trkpt lat="43.278493" lon="-1.692944">
        <ele>47.726</ele>
        <time>2021-06-12T09:28:22Z</time>
      </trkpt>
      <trkpt lat="43.278347" lon="-1.693388">
        <ele>48.208</ele>
        <time>2021-06-12T09:28:30Z</time>
      </trkpt>
      <trkpt lat="43.278254" lon="-1.693578">
        <ele>48.608</ele>
        <time>2021-06-12T09:28:34Z</time>
      </trkpt>
      <trkpt lat="43.278230" lon="-1.693624">
        <ele>48.659</ele>
        <time>2021-06-12T09:28:35Z</time>
      </trkpt>
      <trkpt lat="43.278201" lon="-1.693675">
        <ele>48.657</ele>
        <time>2021-06-12T09:28:36Z</time>
      </trkpt>
      <trkpt lat="43.278171" lon="-1.693718">
        <ele>48.688</ele>
        <time>2021-06-12T09:28:37Z</time>
      </trkpt>
      <trkpt lat="43.278135" lon="-1.693761">
        <ele>48.654</ele>
        <time>2021-06-12T09:28:38Z</time>
      </trkpt>
      <trkpt lat="43.278092" lon="-1.693807">
        <ele>48.660</ele>
        <time>2021-06-12T09:28:39Z</time>
      </trkpt>
      <trkpt lat="43.278053" lon="-1.693848">
        <ele>48.672</ele>
        <time>2021-06-12T09:28:40Z</time>
      </trkpt>
      <trkpt lat="43.277684" lon="-1.694157">
        <ele>48.623</ele>
        <time>2021-06-12T09:28:49Z</time>
      </trkpt>
      <trkpt lat="43.277363" lon="-1.694415">
        <ele>45.849</ele>
        <time>2021-06-12T09:28:57Z</time>
      </trkpt>
      <trkpt lat="43.277105" lon="-1.694633">
        <ele>44.326</ele>
        <time>2021-06-12T09:29:04Z</time>
      </trkpt>
      <trkpt lat="43.277037" lon="-1.694685">
        <ele>44.347</ele>
        <time>2021-06-12T09:29:06Z</time>
      </trkpt>
      <trkpt lat="43.276963" lon="-1.694753">
        <ele>43.811</ele>
        <time>2021-06-12T09:29:08Z</time>
      </trkpt>
      <trkpt lat="43.276887" lon="-1.694834">
        <ele>44.308</ele>
        <time>2021-06-12T09:29:10Z</time>
      </trkpt>
      <trkpt lat="43.276847" lon="-1.694866">
        <ele>44.329</ele>
        <time>2021-06-12T09:29:11Z</time>
      </trkpt>
      <trkpt lat="43.276656" lon="-1.695013">
        <ele>43.857</ele>
        <time>2021-06-12T09:29:16Z</time>
      </trkpt>
      <trkpt lat="43.276372" lon="-1.695244">
        <ele>44.318</ele>
        <time>2021-06-12T09:29:23Z</time>
      </trkpt>
      <trkpt lat="43.276336" lon="-1.695275">
        <ele>44.834</ele>
        <time>2021-06-12T09:29:24Z</time>
      </trkpt>
      <trkpt lat="43.276091" lon="-1.695518">
        <ele>46.260</ele>
        <time>2021-06-12T09:29:31Z</time>
      </trkpt>
      <trkpt lat="43.276060" lon="-1.695566">
        <ele>45.852</ele>
        <time>2021-06-12T09:29:32Z</time>
      </trkpt>
      <trkpt lat="43.276032" lon="-1.695620">
        <ele>46.283</ele>
        <time>2021-06-12T09:29:33Z</time>
      </trkpt>
      <trkpt lat="43.276002" lon="-1.695676">
        <ele>46.259</ele>
        <time>2021-06-12T09:29:34Z</time>
      </trkpt>
      <trkpt lat="43.275967" lon="-1.695727">
        <ele>46.285</ele>
        <time>2021-06-12T09:29:35Z</time>
      </trkpt>
      <trkpt lat="43.275928" lon="-1.695778">
        <ele>46.289</ele>
        <time>2021-06-12T09:29:36Z</time>
      </trkpt>
      <trkpt lat="43.275879" lon="-1.695829">
        <ele>46.217</ele>
        <time>2021-06-12T09:29:37Z</time>
      </trkpt>
      <trkpt lat="43.275821" lon="-1.695883">
        <ele>45.808</ele>
        <time>2021-06-12T09:29:38Z</time>
      </trkpt>
      <trkpt lat="43.275678" lon="-1.696042">
        <ele>45.885</ele>
        <time>2021-06-12T09:29:41Z</time>
      </trkpt>
      <trkpt lat="43.275638" lon="-1.696112">
        <ele>45.823</ele>
        <time>2021-06-12T09:29:42Z</time>
      </trkpt>
      <trkpt lat="43.275608" lon="-1.696177">
        <ele>45.874</ele>
        <time>2021-06-12T09:29:43Z</time>
      </trkpt>
      <trkpt lat="43.275485" lon="-1.696523">
        <ele>46.720</ele>
        <time>2021-06-12T09:29:49Z</time>
      </trkpt>
      <trkpt lat="43.275375" lon="-1.696908">
        <ele>48.666</ele>
        <time>2021-06-12T09:29:57Z</time>
      </trkpt>
      <trkpt lat="43.275297" lon="-1.697187">
        <ele>48.688</ele>
        <time>2021-06-12T09:30:02Z</time>
      </trkpt>
      <trkpt lat="43.275155" lon="-1.697636">
        <ele>49.659</ele>
        <time>2021-06-12T09:30:10Z</time>
      </trkpt>
      <trkpt lat="43.275049" lon="-1.697956">
        <ele>49.685</ele>
        <time>2021-06-12T09:30:17Z</time>
      </trkpt>
      <trkpt lat="43.274979" lon="-1.698227">
        <ele>53.414</ele>
        <time>2021-06-12T09:30:23Z</time>
      </trkpt>
      <trkpt lat="43.274979" lon="-1.698509">
        <ele>56.354</ele>
        <time>2021-06-12T09:30:28Z</time>
      </trkpt>
      <trkpt lat="43.274989" lon="-1.698920">
        <ele>60.209</ele>
        <time>2021-06-12T09:30:35Z</time>
      </trkpt>
      <trkpt lat="43.275019" lon="-1.699248">
        <ele>62.108</ele>
        <time>2021-06-12T09:30:41Z</time>
      </trkpt>
      <trkpt lat="43.275035" lon="-1.699632">
        <ele>64.078</ele>
        <time>2021-06-12T09:30:48Z</time>
      </trkpt>
      <trkpt lat="43.275053" lon="-1.700015">
        <ele>65.096</ele>
        <time>2021-06-12T09:30:55Z</time>
      </trkpt>
      <trkpt lat="43.275059" lon="-1.700368">
        <ele>65.017</ele>
        <time>2021-06-12T09:31:01Z</time>
      </trkpt>
      <trkpt lat="43.275055" lon="-1.700430">
        <ele>65.543</ele>
        <time>2021-06-12T09:31:02Z</time>
      </trkpt>
      <trkpt lat="43.275051" lon="-1.700489">
        <ele>65.539</ele>
        <time>2021-06-12T09:31:03Z</time>
      </trkpt>
      <trkpt lat="43.275025" lon="-1.700902">
        <ele>65.561</ele>
        <time>2021-06-12T09:31:10Z</time>
      </trkpt>
      <trkpt lat="43.275017" lon="-1.700961">
        <ele>65.972</ele>
        <time>2021-06-12T09:31:11Z</time>
      </trkpt>
      <trkpt lat="43.275014" lon="-1.701017">
        <ele>66.448</ele>
        <time>2021-06-12T09:31:12Z</time>
      </trkpt>
      <trkpt lat="43.275011" lon="-1.701082">
        <ele>66.453</ele>
        <time>2021-06-12T09:31:13Z</time>
      </trkpt>
      <trkpt lat="43.275009" lon="-1.701149">
        <ele>66.404</ele>
        <time>2021-06-12T09:31:14Z</time>
      </trkpt>
      <trkpt lat="43.275006" lon="-1.701210">
        <ele>66.414</ele>
        <time>2021-06-12T09:31:15Z</time>
      </trkpt>
      <trkpt lat="43.275005" lon="-1.701266">
        <ele>66.908</ele>
        <time>2021-06-12T09:31:16Z</time>
      </trkpt>
      <trkpt lat="43.275003" lon="-1.701333">
        <ele>66.932</ele>
        <time>2021-06-12T09:31:17Z</time>
      </trkpt>
      <trkpt lat="43.274998" lon="-1.701391">
        <ele>67.410</ele>
        <time>2021-06-12T09:31:18Z</time>
      </trkpt>
      <trkpt lat="43.274977" lon="-1.701716">
        <ele>66.991</ele>
        <time>2021-06-12T09:31:24Z</time>
      </trkpt>
      <trkpt lat="43.274948" lon="-1.702025">
        <ele>68.337</ele>
        <time>2021-06-12T09:31:30Z</time>
      </trkpt>
      <trkpt lat="43.274860" lon="-1.702502">
        <ele>65.563</ele>
        <time>2021-06-12T09:31:37Z</time>
      </trkpt>
      <trkpt lat="43.274836" lon="-1.702667">
        <ele>65.585</ele>
        <time>2021-06-12T09:31:40Z</time>
      </trkpt>
      <trkpt lat="43.274779" lon="-1.703165">
        <ele>69.336</ele>
        <time>2021-06-12T09:31:48Z</time>
      </trkpt>
      <trkpt lat="43.274734" lon="-1.703555">
        <ele>73.232</ele>
        <time>2021-06-12T09:31:54Z</time>
      </trkpt>
      <trkpt lat="43.274702" lon="-1.703930">
        <ele>74.142</ele>
        <time>2021-06-12T09:32:00Z</time>
      </trkpt>
      <trkpt lat="43.274675" lon="-1.704176">
        <ele>75.622</ele>
        <time>2021-06-12T09:32:04Z</time>
      </trkpt>
      <trkpt lat="43.274655" lon="-1.704304">
        <ele>75.614</ele>
        <time>2021-06-12T09:32:06Z</time>
      </trkpt>
      <trkpt lat="43.274655" lon="-1.704363">
        <ele>75.108</ele>
        <time>2021-06-12T09:32:07Z</time>
      </trkpt>
      <trkpt lat="43.274649" lon="-1.704433">
        <ele>74.651</ele>
        <time>2021-06-12T09:32:08Z</time>
      </trkpt>
      <trkpt lat="43.274599" lon="-1.704809">
        <ele>71.769</ele>
        <time>2021-06-12T09:32:14Z</time>
      </trkpt>
      <trkpt lat="43.274592" lon="-1.704867">
        <ele>70.750</ele>
        <time>2021-06-12T09:32:15Z</time>
      </trkpt>
      <trkpt lat="43.274583" lon="-1.704930">
        <ele>70.386</ele>
        <time>2021-06-12T09:32:16Z</time>
      </trkpt>
      <trkpt lat="43.274476" lon="-1.705280">
        <ele>65.572</ele>
        <time>2021-06-12T09:32:22Z</time>
      </trkpt>
      <trkpt lat="43.274398" lon="-1.705664">
        <ele>64.054</ele>
        <time>2021-06-12T09:32:28Z</time>
      </trkpt>
      <trkpt lat="43.274400" lon="-1.705725">
        <ele>64.575</ele>
        <time>2021-06-12T09:32:29Z</time>
      </trkpt>
      <trkpt lat="43.274415" lon="-1.705915">
        <ele>65.091</ele>
        <time>2021-06-12T09:32:32Z</time>
      </trkpt>
      <trkpt lat="43.274428" lon="-1.706265">
        <ele>67.948</ele>
        <time>2021-06-12T09:32:38Z</time>
      </trkpt>
      <trkpt lat="43.274422" lon="-1.706329">
        <ele>68.361</ele>
        <time>2021-06-12T09:32:39Z</time>
      </trkpt>
      <trkpt lat="43.274418" lon="-1.706390">
        <ele>68.817</ele>
        <time>2021-06-12T09:32:40Z</time>
      </trkpt>
      <trkpt lat="43.274385" lon="-1.706792">
        <ele>70.308</ele>
        <time>2021-06-12T09:32:47Z</time>
      </trkpt>
      <trkpt lat="43.274355" lon="-1.707142">
        <ele>70.731</ele>
        <time>2021-06-12T09:32:53Z</time>
      </trkpt>
      <trkpt lat="43.274340" lon="-1.707440">
        <ele>70.319</ele>
        <time>2021-06-12T09:32:58Z</time>
      </trkpt>
      <trkpt lat="43.274315" lon="-1.707827">
        <ele>70.770</ele>
        <time>2021-06-12T09:33:05Z</time>
      </trkpt>
      <trkpt lat="43.274306" lon="-1.708128">
        <ele>70.726</ele>
        <time>2021-06-12T09:33:10Z</time>
      </trkpt>
      <trkpt lat="43.274318" lon="-1.708300">
        <ele>71.292</ele>
        <time>2021-06-12T09:33:13Z</time>
      </trkpt>
      <trkpt lat="43.274308" lon="-1.708377">
        <ele>71.224</ele>
        <time>2021-06-12T09:33:14Z</time>
      </trkpt>
      <trkpt lat="43.274276" lon="-1.708584">
        <ele>70.325</ele>
        <time>2021-06-12T09:33:17Z</time>
      </trkpt>
      <trkpt lat="43.274267" lon="-1.708663">
        <ele>70.371</ele>
        <time>2021-06-12T09:33:18Z</time>
      </trkpt>
      <trkpt lat="43.274266" lon="-1.708748">
        <ele>69.878</ele>
        <time>2021-06-12T09:33:19Z</time>
      </trkpt>
      <trkpt lat="43.274271" lon="-1.708823">
        <ele>69.833</ele>
        <time>2021-06-12T09:33:20Z</time>
      </trkpt>
      <trkpt lat="43.274276" lon="-1.708898">
        <ele>69.326</ele>
        <time>2021-06-12T09:33:21Z</time>
      </trkpt>
      <trkpt lat="43.274281" lon="-1.708969">
        <ele>68.808</ele>
        <time>2021-06-12T09:33:22Z</time>
      </trkpt>
      <trkpt lat="43.274288" lon="-1.709039">
        <ele>68.364</ele>
        <time>2021-06-12T09:33:23Z</time>
      </trkpt>
      <trkpt lat="43.274298" lon="-1.709114">
        <ele>67.942</ele>
        <time>2021-06-12T09:33:24Z</time>
      </trkpt>
      <trkpt lat="43.274401" lon="-1.709660">
        <ele>65.073</ele>
        <time>2021-06-12T09:33:32Z</time>
      </trkpt>
      <trkpt lat="43.274523" lon="-1.710271">
        <ele>58.749</ele>
        <time>2021-06-12T09:33:40Z</time>
      </trkpt>
      <trkpt lat="43.274663" lon="-1.710839">
        <ele>55.495</ele>
        <time>2021-06-12T09:33:49Z</time>
      </trkpt>
      <trkpt lat="43.274755" lon="-1.711050">
        <ele>53.427</ele>
        <time>2021-06-12T09:33:53Z</time>
      </trkpt>
      <trkpt lat="43.274829" lon="-1.711216">
        <ele>52.058</ele>
        <time>2021-06-12T09:33:56Z</time>
      </trkpt>
      <trkpt lat="43.274847" lon="-1.711292">
        <ele>51.034</ele>
        <time>2021-06-12T09:33:57Z</time>
      </trkpt>
      <trkpt lat="43.274949" lon="-1.711805">
        <ele>46.288</ele>
        <time>2021-06-12T09:34:06Z</time>
      </trkpt>
      <trkpt lat="43.274972" lon="-1.711915">
        <ele>45.324</ele>
        <time>2021-06-12T09:34:08Z</time>
      </trkpt>
      <trkpt lat="43.275098" lon="-1.712213">
        <ele>45.826</ele>
        <time>2021-06-12T09:34:15Z</time>
      </trkpt>
      <trkpt lat="43.275303" lon="-1.712537">
        <ele>45.808</ele>
        <time>2021-06-12T09:34:23Z</time>
      </trkpt>
      <trkpt lat="43.275608" lon="-1.712838">
        <ele>44.395</ele>
        <time>2021-06-12T09:34:32Z</time>
      </trkpt>
      <trkpt lat="43.275956" lon="-1.712989">
        <ele>42.913</ele>
        <time>2021-06-12T09:34:41Z</time>
      </trkpt>
      <trkpt lat="43.276306" lon="-1.713115">
        <ele>41.974</ele>
        <time>2021-06-12T09:34:50Z</time>
      </trkpt>
      <trkpt lat="43.276738" lon="-1.713216">
        <ele>40.980</ele>
        <time>2021-06-12T09:35:00Z</time>
      </trkpt>
      <trkpt lat="43.277017" lon="-1.713300">
        <ele>40.576</ele>
        <time>2021-06-12T09:35:07Z</time>
      </trkpt>
      <trkpt lat="43.277289" lon="-1.713370">
        <ele>40.078</ele>
        <time>2021-06-12T09:35:14Z</time>
      </trkpt>
      <trkpt lat="43.277574" lon="-1.713448">
        <ele>40.059</ele>
        <time>2021-06-12T09:35:21Z</time>
      </trkpt>
      <trkpt lat="43.277795" lon="-1.713532">
        <ele>40.065</ele>
        <time>2021-06-12T09:35:26Z</time>
      </trkpt>
      <trkpt lat="43.278120" lon="-1.713602">
        <ele>39.579</ele>
        <time>2021-06-12T09:35:34Z</time>
      </trkpt>
      <trkpt lat="43.278396" lon="-1.713662">
        <ele>40.005</ele>
        <time>2021-06-12T09:35:41Z</time>
      </trkpt>
      <trkpt lat="43.278529" lon="-1.713689">
        <ele>40.525</ele>
        <time>2021-06-12T09:35:44Z</time>
      </trkpt>
      <trkpt lat="43.278577" lon="-1.713707">
        <ele>40.508</ele>
        <time>2021-06-12T09:35:45Z</time>
      </trkpt>
      <trkpt lat="43.278623" lon="-1.713724">
        <ele>40.534</ele>
        <time>2021-06-12T09:35:46Z</time>
      </trkpt>
      <trkpt lat="43.278667" lon="-1.713741">
        <ele>40.592</ele>
        <time>2021-06-12T09:35:47Z</time>
      </trkpt>
      <trkpt lat="43.278707" lon="-1.713760">
        <ele>40.523</ele>
        <time>2021-06-12T09:35:48Z</time>
      </trkpt>
      <trkpt lat="43.278942" lon="-1.713820">
        <ele>40.059</ele>
        <time>2021-06-12T09:35:54Z</time>
      </trkpt>
      <trkpt lat="43.279196" lon="-1.713900">
        <ele>40.945</ele>
        <time>2021-06-12T09:36:00Z</time>
      </trkpt>
      <trkpt lat="43.279479" lon="-1.713998">
        <ele>40.937</ele>
        <time>2021-06-12T09:36:07Z</time>
      </trkpt>
      <trkpt lat="43.279770" lon="-1.714071">
        <ele>41.448</ele>
        <time>2021-06-12T09:36:15Z</time>
      </trkpt>
      <trkpt lat="43.280108" lon="-1.714154">
        <ele>40.094</ele>
        <time>2021-06-12T09:36:23Z</time>
      </trkpt>
      <trkpt lat="43.280465" lon="-1.714220">
        <ele>37.172</ele>
        <time>2021-06-12T09:36:32Z</time>
      </trkpt>
      <trkpt lat="43.280589" lon="-1.714219">
        <ele>36.613</ele>
        <time>2021-06-12T09:36:35Z</time>
      </trkpt>
      <trkpt lat="43.280758" lon="-1.714243">
        <ele>35.714</ele>
        <time>2021-06-12T09:36:39Z</time>
      </trkpt>
      <trkpt lat="43.280800" lon="-1.714251">
        <ele>35.708</ele>
        <time>2021-06-12T09:36:40Z</time>
      </trkpt>
      <trkpt lat="43.281087" lon="-1.714257">
        <ele>36.644</ele>
        <time>2021-06-12T09:36:47Z</time>
      </trkpt>
      <trkpt lat="43.281295" lon="-1.714239">
        <ele>36.672</ele>
        <time>2021-06-12T09:36:53Z</time>
      </trkpt>
      <trkpt lat="43.281522" lon="-1.714212">
        <ele>36.663</ele>
        <time>2021-06-12T09:36:59Z</time>
      </trkpt>
      <trkpt lat="43.281832" lon="-1.714169">
        <ele>36.699</ele>
        <time>2021-06-12T09:37:06Z</time>
      </trkpt>
      <trkpt lat="43.281968" lon="-1.714165">
        <ele>36.675</ele>
        <time>2021-06-12T09:37:09Z</time>
      </trkpt>
      <trkpt lat="43.282206" lon="-1.714138">
        <ele>38.167</ele>
        <time>2021-06-12T09:37:14Z</time>
      </trkpt>
      <trkpt lat="43.282252" lon="-1.714141">
        <ele>38.148</ele>
        <time>2021-06-12T09:37:15Z</time>
      </trkpt>
      <trkpt lat="43.282337" lon="-1.714152">
        <ele>39.054</ele>
        <time>2021-06-12T09:37:17Z</time>
      </trkpt>
      <trkpt lat="43.282379" lon="-1.714150">
        <ele>39.554</ele>
        <time>2021-06-12T09:37:18Z</time>
      </trkpt>
      <trkpt lat="43.282617" lon="-1.714126">
        <ele>41.456</ele>
        <time>2021-06-12T09:37:24Z</time>
      </trkpt>
      <trkpt lat="43.282829" lon="-1.714049">
        <ele>41.411</ele>
        <time>2021-06-12T09:37:29Z</time>
      </trkpt>
      <trkpt lat="43.283123" lon="-1.713920">
        <ele>41.908</ele>
        <time>2021-06-12T09:37:36Z</time>
      </trkpt>
      <trkpt lat="43.283410" lon="-1.713797">
        <ele>43.462</ele>
        <time>2021-06-12T09:37:43Z</time>
      </trkpt>
      <trkpt lat="43.283453" lon="-1.713767">
        <ele>43.470</ele>
        <time>2021-06-12T09:37:44Z</time>
      </trkpt>
      <trkpt lat="43.283494" lon="-1.713736">
        <ele>43.871</ele>
        <time>2021-06-12T09:37:45Z</time>
      </trkpt>
      <trkpt lat="43.283534" lon="-1.713709">
        <ele>43.877</ele>
        <time>2021-06-12T09:37:46Z</time>
      </trkpt>
      <trkpt lat="43.283573" lon="-1.713688">
        <ele>43.853</ele>
        <time>2021-06-12T09:37:47Z</time>
      </trkpt>
      <trkpt lat="43.283615" lon="-1.713669">
        <ele>43.865</ele>
        <time>2021-06-12T09:37:48Z</time>
      </trkpt>
      <trkpt lat="43.283901" lon="-1.713518">
        <ele>43.486</ele>
        <time>2021-06-12T09:37:56Z</time>
      </trkpt>
      <trkpt lat="43.284100" lon="-1.713410">
        <ele>43.862</ele>
        <time>2021-06-12T09:38:03Z</time>
      </trkpt>
      <trkpt lat="43.284452" lon="-1.713207">
        <ele>43.815</ele>
        <time>2021-06-12T09:38:14Z</time>
      </trkpt>
      <trkpt lat="43.284800" lon="-1.713029">
        <ele>42.965</ele>
        <time>2021-06-12T09:38:22Z</time>
      </trkpt>
      <trkpt lat="43.285116" lon="-1.712911">
        <ele>43.811</ele>
        <time>2021-06-12T09:38:30Z</time>
      </trkpt>
      <trkpt lat="43.285357" lon="-1.712846">
        <ele>44.308</ele>
        <time>2021-06-12T09:38:37Z</time>
      </trkpt>
      <trkpt lat="43.285667" lon="-1.712806">
        <ele>43.898</ele>
        <time>2021-06-12T09:38:45Z</time>
      </trkpt>
      <trkpt lat="43.285865" lon="-1.712810">
        <ele>43.886</ele>
        <time>2021-06-12T09:38:51Z</time>
      </trkpt>
      <trkpt lat="43.286167" lon="-1.712847">
        <ele>44.857</ele>
        <time>2021-06-12T09:38:59Z</time>
      </trkpt>
      <trkpt lat="43.286209" lon="-1.712853">
        <ele>44.873</ele>
        <time>2021-06-12T09:39:00Z</time>
      </trkpt>
      <trkpt lat="43.286432" lon="-1.712885">
        <ele>45.389</ele>
        <time>2021-06-12T09:39:06Z</time>
      </trkpt>
      <trkpt lat="43.286690" lon="-1.712936">
        <ele>45.881</ele>
        <time>2021-06-12T09:39:13Z</time>
      </trkpt>
      <trkpt lat="43.286950" lon="-1.712982">
        <ele>45.822</ele>
        <time>2021-06-12T09:39:20Z</time>
      </trkpt>
      <trkpt lat="43.286997" lon="-1.712984">
        <ele>45.858</ele>
        <time>2021-06-12T09:39:21Z</time>
      </trkpt>
      <trkpt lat="43.287082" lon="-1.712985">
        <ele>45.337</ele>
        <time>2021-06-12T09:39:23Z</time>
      </trkpt>
      <trkpt lat="43.287165" lon="-1.712989">
        <ele>44.349</ele>
        <time>2021-06-12T09:39:25Z</time>
      </trkpt>
      <trkpt lat="43.287414" lon="-1.712971">
        <ele>44.313</ele>
        <time>2021-06-12T09:39:32Z</time>
      </trkpt>
      <trkpt lat="43.287753" lon="-1.712857">
        <ele>42.908</ele>
        <time>2021-06-12T09:39:40Z</time>
      </trkpt>
      <trkpt lat="43.288025" lon="-1.712752">
        <ele>40.510</ele>
        <time>2021-06-12T09:39:47Z</time>
      </trkpt>
      <trkpt lat="43.288260" lon="-1.712665">
        <ele>39.538</ele>
        <time>2021-06-12T09:39:54Z</time>
      </trkpt>
      <trkpt lat="43.288505" lon="-1.712554">
        <ele>38.539</ele>
        <time>2021-06-12T09:40:02Z</time>
      </trkpt>
      <trkpt lat="43.288665" lon="-1.712476">
        <ele>38.515</ele>
        <time>2021-06-12T09:40:09Z</time>
      </trkpt>
      <trkpt lat="43.288790" lon="-1.712482">
        <ele>40.581</ele>
        <time>2021-06-12T09:40:16Z</time>
      </trkpt>
      <trkpt lat="43.289998" lon="-1.713889">
        <ele>15.533</ele>
        <time>2021-06-12T09:41:22Z</time>
      </trkpt>
      <trkpt lat="43.290106" lon="-1.714011">
        <ele>11.634</ele>
        <time>2021-06-12T09:41:25Z</time>
      </trkpt>
      <trkpt lat="43.290201" lon="-1.714077">
        <ele>16.050</ele>
        <time>2021-06-12T09:41:26Z</time>
      </trkpt>
      <trkpt lat="43.290270" lon="-1.714149">
        <ele>18.437</ele>
        <time>2021-06-12T09:41:27Z</time>
      </trkpt>
      <trkpt lat="43.290393" lon="-1.714505">
        <ele>27.049</ele>
        <time>2021-06-12T09:41:34Z</time>
      </trkpt>
      <trkpt lat="43.290446" lon="-1.714592">
        <ele>27.513</ele>
        <time>2021-06-12T09:41:40Z</time>
      </trkpt>
      <trkpt lat="43.290443" lon="-1.714613">
        <ele>28.008</ele>
        <time>2021-06-12T09:41:47Z</time>
      </trkpt>
      <trkpt lat="43.290438" lon="-1.714628">
        <ele>28.960</ele>
        <time>2021-06-12T09:41:59Z</time>
      </trkpt>
      <trkpt lat="43.290463" lon="-1.714599">
        <ele>30.948</ele>
        <time>2021-06-12T09:42:11Z</time>
      </trkpt>
      <trkpt lat="43.290455" lon="-1.714603">
        <ele>30.469</ele>
        <time>2021-06-12T09:42:24Z</time>
      </trkpt>
      <trkpt lat="43.290456" lon="-1.714600">
        <ele>31.825</ele>
        <time>2021-06-12T09:42:37Z</time>
      </trkpt>
      <trkpt lat="43.290450" lon="-1.714595">
        <ele>30.491</ele>
        <time>2021-06-12T09:42:48Z</time>
      </trkpt>
      <trkpt lat="43.290425" lon="-1.714604">
        <ele>34.253</ele>
        <time>2021-06-12T09:43:02Z</time>
      </trkpt>
      <trkpt lat="43.290440" lon="-1.714607">
        <ele>35.214</ele>
        <time>2021-06-12T09:43:13Z</time>
      </trkpt>
      <trkpt lat="43.290448" lon="-1.714596">
        <ele>32.840</ele>
        <time>2021-06-12T09:43:27Z</time>
      </trkpt>
      <trkpt lat="43.290432" lon="-1.714599">
        <ele>32.362</ele>
        <time>2021-06-12T09:43:43Z</time>
      </trkpt>
      <trkpt lat="43.290423" lon="-1.714633">
        <ele>31.883</ele>
        <time>2021-06-12T09:43:53Z</time>
      </trkpt>
      <trkpt lat="43.290408" lon="-1.714652">
        <ele>32.311</ele>
        <time>2021-06-12T09:44:06Z</time>
      </trkpt>
      <trkpt lat="43.290429" lon="-1.714660">
        <ele>35.208</ele>
        <time>2021-06-12T09:44:19Z</time>
      </trkpt>
      <trkpt lat="43.290422" lon="-1.714619">
        <ele>31.823</ele>
        <time>2021-06-12T09:44:35Z</time>
      </trkpt>
      <trkpt lat="43.290434" lon="-1.714630">
        <ele>30.911</ele>
        <time>2021-06-12T09:44:46Z</time>
      </trkpt>
      <trkpt lat="43.290436" lon="-1.714619">
        <ele>31.822</ele>
        <time>2021-06-12T09:45:02Z</time>
      </trkpt>
      <trkpt lat="43.290432" lon="-1.714616">
        <ele>32.378</ele>
        <time>2021-06-12T09:45:16Z</time>
      </trkpt>
      <trkpt lat="43.290423" lon="-1.714633">
        <ele>31.344</ele>
        <time>2021-06-12T09:45:29Z</time>
      </trkpt>
      <trkpt lat="43.290430" lon="-1.714627">
        <ele>31.376</ele>
        <time>2021-06-12T09:45:41Z</time>
      </trkpt>
      <trkpt lat="43.290449" lon="-1.714626">
        <ele>33.717</ele>
        <time>2021-06-12T09:45:54Z</time>
      </trkpt>
      <trkpt lat="43.290455" lon="-1.714627">
        <ele>31.363</ele>
        <time>2021-06-12T09:46:13Z</time>
      </trkpt>
      <trkpt lat="43.290443" lon="-1.714617">
        <ele>27.547</ele>
        <time>2021-06-12T09:46:30Z</time>
      </trkpt>
      <trkpt lat="43.290429" lon="-1.714602">
        <ele>28.529</ele>
        <time>2021-06-12T09:46:47Z</time>
      </trkpt>
      <trkpt lat="43.290425" lon="-1.714567">
        <ele>30.421</ele>
        <time>2021-06-12T09:46:59Z</time>
      </trkpt>
      <trkpt lat="43.290429" lon="-1.714610">
        <ele>34.208</ele>
        <time>2021-06-12T09:47:13Z</time>
      </trkpt>
      <trkpt lat="43.290420" lon="-1.714620">
        <ele>36.181</ele>
        <time>2021-06-12T09:47:26Z</time>
      </trkpt>
      <trkpt lat="43.290449" lon="-1.714618">
        <ele>36.199</ele>
        <time>2021-06-12T09:47:40Z</time>
      </trkpt>
      <trkpt lat="43.290434" lon="-1.714593">
        <ele>33.740</ele>
        <time>2021-06-12T09:48:01Z</time>
      </trkpt>
      <trkpt lat="43.290413" lon="-1.714600">
        <ele>32.876</ele>
        <time>2021-06-12T09:48:17Z</time>
      </trkpt>
      <trkpt lat="43.290403" lon="-1.714588">
        <ele>34.792</ele>
        <time>2021-06-12T09:48:32Z</time>
      </trkpt>
      <trkpt lat="43.290421" lon="-1.714602">
        <ele>37.124</ele>
        <time>2021-06-12T09:48:47Z</time>
      </trkpt>
      <trkpt lat="43.290452" lon="-1.714569">
        <ele>39.075</ele>
        <time>2021-06-12T09:49:02Z</time>
      </trkpt>
      <trkpt lat="43.290461" lon="-1.714551">
        <ele>38.531</ele>
        <time>2021-06-12T09:49:17Z</time>
      </trkpt>
      <trkpt lat="43.290484" lon="-1.714548">
        <ele>36.676</ele>
        <time>2021-06-12T09:49:27Z</time>
      </trkpt>
      <trkpt lat="43.290464" lon="-1.714562">
        <ele>34.790</ele>
        <time>2021-06-12T09:49:39Z</time>
      </trkpt>
      <trkpt lat="43.290437" lon="-1.714599">
        <ele>37.119</ele>
        <time>2021-06-12T09:49:52Z</time>
      </trkpt>
      <trkpt lat="43.290440" lon="-1.714593">
        <ele>37.608</ele>
        <time>2021-06-12T09:50:05Z</time>
      </trkpt>
      <trkpt lat="43.290461" lon="-1.714620">
        <ele>34.254</ele>
        <time>2021-06-12T09:50:19Z</time>
      </trkpt>
      <trkpt lat="43.290480" lon="-1.714589">
        <ele>31.382</ele>
        <time>2021-06-12T09:50:32Z</time>
      </trkpt>
      <trkpt lat="43.290470" lon="-1.714582">
        <ele>30.463</ele>
        <time>2021-06-12T09:50:46Z</time>
      </trkpt>
      <trkpt lat="43.290450" lon="-1.714612">
        <ele>31.829</ele>
        <time>2021-06-12T09:51:04Z</time>
      </trkpt>
      <trkpt lat="43.290437" lon="-1.714627">
        <ele>29.495</ele>
        <time>2021-06-12T09:51:17Z</time>
      </trkpt>
      <trkpt lat="43.290428" lon="-1.714598">
        <ele>27.077</ele>
        <time>2021-06-12T09:51:30Z</time>
      </trkpt>
      <trkpt lat="43.290424" lon="-1.714591">
        <ele>28.028</ele>
        <time>2021-06-12T09:51:43Z</time>
      </trkpt>
      <trkpt lat="43.290427" lon="-1.714597">
        <ele>30.934</ele>
        <time>2021-06-12T09:51:59Z</time>
      </trkpt>
      <trkpt lat="43.290444" lon="-1.714629">
        <ele>30.412</ele>
        <time>2021-06-12T09:52:13Z</time>
      </trkpt>
      <trkpt lat="43.290443" lon="-1.714611">
        <ele>31.332</ele>
        <time>2021-06-12T09:52:32Z</time>
      </trkpt>
      <trkpt lat="43.290446" lon="-1.714599">
        <ele>32.305</ele>
        <time>2021-06-12T09:52:44Z</time>
      </trkpt>
      <trkpt lat="43.290464" lon="-1.714585">
        <ele>28.908</ele>
        <time>2021-06-12T09:52:56Z</time>
      </trkpt>
      <trkpt lat="43.290488" lon="-1.714565">
        <ele>31.338</ele>
        <time>2021-06-12T09:53:13Z</time>
      </trkpt>
      <trkpt lat="43.290482" lon="-1.714576">
        <ele>29.966</ele>
        <time>2021-06-12T09:53:24Z</time>
      </trkpt>
      <trkpt lat="43.290483" lon="-1.714586">
        <ele>29.917</ele>
        <time>2021-06-12T09:53:40Z</time>
      </trkpt>
      <trkpt lat="43.290475" lon="-1.714606">
        <ele>32.343</ele>
        <time>2021-06-12T09:53:54Z</time>
      </trkpt>
      <trkpt lat="43.290477" lon="-1.714608">
        <ele>35.229</ele>
        <time>2021-06-12T09:54:07Z</time>
      </trkpt>
      <trkpt lat="43.290484" lon="-1.714591">
        <ele>34.761</ele>
        <time>2021-06-12T09:54:19Z</time>
      </trkpt>
      <trkpt lat="43.290453" lon="-1.714616">
        <ele>29.982</ele>
        <time>2021-06-12T09:54:41Z</time>
      </trkpt>
      <trkpt lat="43.290464" lon="-1.714595">
        <ele>32.338</ele>
        <time>2021-06-12T09:54:57Z</time>
      </trkpt>
      <trkpt lat="43.290464" lon="-1.714553">
        <ele>30.956</ele>
        <time>2021-06-12T09:55:15Z</time>
      </trkpt>
      <trkpt lat="43.290458" lon="-1.714575">
        <ele>34.259</ele>
        <time>2021-06-12T09:55:32Z</time>
      </trkpt>
      <trkpt lat="43.290436" lon="-1.714586">
        <ele>34.214</ele>
        <time>2021-06-12T09:55:48Z</time>
      </trkpt>
      <trkpt lat="43.290428" lon="-1.714604">
        <ele>32.808</ele>
        <time>2021-06-12T09:56:08Z</time>
      </trkpt>
      <trkpt lat="43.290435" lon="-1.714581">
        <ele>31.852</ele>
        <time>2021-06-12T09:56:26Z</time>
      </trkpt>
      <trkpt lat="43.290460" lon="-1.714571">
        <ele>32.830</ele>
        <time>2021-06-12T09:56:45Z</time>
      </trkpt>
      <trkpt lat="43.290461" lon="-1.714569">
        <ele>33.311</ele>
        <time>2021-06-12T09:57:01Z</time>
      </trkpt>
      <trkpt lat="43.290466" lon="-1.714574">
        <ele>33.737</ele>
        <time>2021-06-12T09:57:12Z</time>
      </trkpt>
      <trkpt lat="43.290474" lon="-1.714579">
        <ele>32.813</ele>
        <time>2021-06-12T09:57:29Z</time>
      </trkpt>
      <trkpt lat="43.290482" lon="-1.714594">
        <ele>33.375</ele>
        <time>2021-06-12T09:57:43Z</time>
      </trkpt>
      <trkpt lat="43.290486" lon="-1.714581">
        <ele>36.656</ele>
        <time>2021-06-12T09:57:59Z</time>
      </trkpt>
      <trkpt lat="43.290508" lon="-1.714591">
        <ele>36.692</ele>
        <time>2021-06-12T09:58:13Z</time>
      </trkpt>
      <trkpt lat="43.290492" lon="-1.714583">
        <ele>36.148</ele>
        <time>2021-06-12T09:58:28Z</time>
      </trkpt>
      <trkpt lat="43.290485" lon="-1.714573">
        <ele>36.161</ele>
        <time>2021-06-12T09:58:41Z</time>
      </trkpt>
      <trkpt lat="43.290496" lon="-1.714571">
        <ele>34.717</ele>
        <time>2021-06-12T09:58:57Z</time>
      </trkpt>
      <trkpt lat="43.290492" lon="-1.714560">
        <ele>32.808</ele>
        <time>2021-06-12T09:59:10Z</time>
      </trkpt>
      <trkpt lat="43.290469" lon="-1.714574">
        <ele>36.661</ele>
        <time>2021-06-12T09:59:27Z</time>
      </trkpt>
      <trkpt lat="43.290496" lon="-1.714547">
        <ele>38.589</ele>
        <time>2021-06-12T09:59:42Z</time>
      </trkpt>
      <trkpt lat="43.290497" lon="-1.714531">
        <ele>40.930</ele>
        <time>2021-06-12T09:59:55Z</time>
      </trkpt>
      <trkpt lat="43.290508" lon="-1.714525">
        <ele>41.416</ele>
        <time>2021-06-12T10:00:12Z</time>
      </trkpt>
      <trkpt lat="43.290515" lon="-1.714546">
        <ele>40.052</ele>
        <time>2021-06-12T10:00:27Z</time>
      </trkpt>
      <trkpt lat="43.290513" lon="-1.714561">
        <ele>40.914</ele>
        <time>2021-06-12T10:00:41Z</time>
      </trkpt>
      <trkpt lat="43.290509" lon="-1.714541">
        <ele>43.465</ele>
        <time>2021-06-12T10:00:55Z</time>
      </trkpt>
      <trkpt lat="43.290521" lon="-1.714553">
        <ele>39.591</ele>
        <time>2021-06-12T10:01:13Z</time>
      </trkpt>
      <trkpt lat="43.290509" lon="-1.714566">
        <ele>35.286</ele>
        <time>2021-06-12T10:01:30Z</time>
      </trkpt>
      <trkpt lat="43.290475" lon="-1.714565">
        <ele>33.760</ele>
        <time>2021-06-12T10:01:47Z</time>
      </trkpt>
      <trkpt lat="43.290470" lon="-1.714577">
        <ele>33.726</ele>
        <time>2021-06-12T10:01:58Z</time>
      </trkpt>
      <trkpt lat="43.290478" lon="-1.714577">
        <ele>32.808</ele>
        <time>2021-06-12T10:02:09Z</time>
      </trkpt>
      <trkpt lat="43.290475" lon="-1.714593">
        <ele>32.815</ele>
        <time>2021-06-12T10:02:19Z</time>
      </trkpt>
      <trkpt lat="43.290473" lon="-1.714607">
        <ele>32.853</ele>
        <time>2021-06-12T10:02:20Z</time>
      </trkpt>
      <trkpt lat="43.290470" lon="-1.714625">
        <ele>32.844</ele>
        <time>2021-06-12T10:02:21Z</time>
      </trkpt>
      <trkpt lat="43.290468" lon="-1.714643">
        <ele>33.360</ele>
        <time>2021-06-12T10:02:22Z</time>
      </trkpt>
      <trkpt lat="43.290469" lon="-1.714662">
        <ele>33.796</ele>
        <time>2021-06-12T10:02:23Z</time>
      </trkpt>
      <trkpt lat="43.290473" lon="-1.714679">
        <ele>34.238</ele>
        <time>2021-06-12T10:02:24Z</time>
      </trkpt>
      <trkpt lat="43.290476" lon="-1.714702">
        <ele>34.229</ele>
        <time>2021-06-12T10:02:25Z</time>
      </trkpt>
      <trkpt lat="43.290480" lon="-1.714726">
        <ele>34.215</ele>
        <time>2021-06-12T10:02:26Z</time>
      </trkpt>
      <trkpt lat="43.290485" lon="-1.714747">
        <ele>34.249</ele>
        <time>2021-06-12T10:02:27Z</time>
      </trkpt>
      <trkpt lat="43.290502" lon="-1.714946">
        <ele>36.102</ele>
        <time>2021-06-12T10:02:35Z</time>
      </trkpt>
      <trkpt lat="43.290545" lon="-1.715158">
        <ele>37.622</ele>
        <time>2021-06-12T10:02:43Z</time>
      </trkpt>
      <trkpt lat="43.290614" lon="-1.715534">
        <ele>39.508</ele>
        <time>2021-06-12T10:02:53Z</time>
      </trkpt>
      <trkpt lat="43.290651" lon="-1.715885">
        <ele>40.031</ele>
        <time>2021-06-12T10:03:01Z</time>
      </trkpt>
      <trkpt lat="43.290685" lon="-1.716193">
        <ele>38.149</ele>
        <time>2021-06-12T10:03:09Z</time>
      </trkpt>
      <trkpt lat="43.290747" lon="-1.716500">
        <ele>38.520</ele>
        <time>2021-06-12T10:03:17Z</time>
      </trkpt>
      <trkpt lat="43.290771" lon="-1.716730">
        <ele>39.596</ele>
        <time>2021-06-12T10:03:23Z</time>
      </trkpt>
      <trkpt lat="43.290866" lon="-1.717141">
        <ele>41.432</ele>
        <time>2021-06-12T10:03:31Z</time>
      </trkpt>
      <trkpt lat="43.290948" lon="-1.717537">
        <ele>42.944</ele>
        <time>2021-06-12T10:03:39Z</time>
      </trkpt>
      <trkpt lat="43.291006" lon="-1.717794">
        <ele>42.955</ele>
        <time>2021-06-12T10:03:46Z</time>
      </trkpt>
      <trkpt lat="43.291034" lon="-1.718012">
        <ele>44.341</ele>
        <time>2021-06-12T10:03:55Z</time>
      </trkpt>
      <trkpt lat="43.291042" lon="-1.718198">
        <ele>44.819</ele>
        <time>2021-06-12T10:04:06Z</time>
      </trkpt>
      <trkpt lat="43.291066" lon="-1.718186">
        <ele>44.809</ele>
        <time>2021-06-12T10:04:14Z</time>
      </trkpt>
      <trkpt lat="43.291064" lon="-1.718199">
        <ele>45.319</ele>
        <time>2021-06-12T10:04:26Z</time>
      </trkpt>
      <trkpt lat="43.291056" lon="-1.718238">
        <ele>46.208</ele>
        <time>2021-06-12T10:04:43Z</time>
      </trkpt>
      <trkpt lat="43.291174" lon="-1.719483">
        <ele>41.938</ele>
        <time>2021-06-12T10:05:09Z</time>
      </trkpt>
      <trkpt lat="43.291171" lon="-1.719862">
        <ele>39.516</ele>
        <time>2021-06-12T10:05:15Z</time>
      </trkpt>
      <trkpt lat="43.291161" lon="-1.720401">
        <ele>37.647</ele>
        <time>2021-06-12T10:05:24Z</time>
      </trkpt>
      <trkpt lat="43.291135" lon="-1.720865">
        <ele>36.633</ele>
        <time>2021-06-12T10:05:32Z</time>
      </trkpt>
      <trkpt lat="43.291135" lon="-1.721179">
        <ele>35.739</ele>
        <time>2021-06-12T10:05:39Z</time>
      </trkpt>
      <trkpt lat="43.291150" lon="-1.721474">
        <ele>34.221</ele>
        <time>2021-06-12T10:05:46Z</time>
      </trkpt>
      <trkpt lat="43.291151" lon="-1.721749">
        <ele>35.232</ele>
        <time>2021-06-12T10:05:52Z</time>
      </trkpt>
      <trkpt lat="43.291146" lon="-1.722263">
        <ele>34.278</ele>
        <time>2021-06-12T10:06:01Z</time>
      </trkpt>
      <trkpt lat="43.291162" lon="-1.722628">
        <ele>35.225</ele>
        <time>2021-06-12T10:06:09Z</time>
      </trkpt>
      <trkpt lat="43.291165" lon="-1.722927">
        <ele>35.726</ele>
        <time>2021-06-12T10:06:15Z</time>
      </trkpt>
      <trkpt lat="43.291156" lon="-1.723286">
        <ele>36.608</ele>
        <time>2021-06-12T10:06:22Z</time>
      </trkpt>
      <trkpt lat="43.291148" lon="-1.723673">
        <ele>37.108</ele>
        <time>2021-06-12T10:06:29Z</time>
      </trkpt>
      <trkpt lat="43.291139" lon="-1.724028">
        <ele>38.169</ele>
        <time>2021-06-12T10:06:35Z</time>
      </trkpt>
      <trkpt lat="43.291129" lon="-1.724418">
        <ele>39.077</ele>
        <time>2021-06-12T10:06:42Z</time>
      </trkpt>
      <trkpt lat="43.291117" lon="-1.724647">
        <ele>39.518</ele>
        <time>2021-06-12T10:06:47Z</time>
      </trkpt>
      <trkpt lat="43.291115" lon="-1.724935">
        <ele>40.924</ele>
        <time>2021-06-12T10:06:55Z</time>
      </trkpt>
      <trkpt lat="43.291127" lon="-1.725195">
        <ele>41.950</ele>
        <time>2021-06-12T10:07:03Z</time>
      </trkpt>
      <trkpt lat="43.291144" lon="-1.725487">
        <ele>41.922</ele>
        <time>2021-06-12T10:07:11Z</time>
      </trkpt>
      <trkpt lat="43.291169" lon="-1.725838">
        <ele>42.473</ele>
        <time>2021-06-12T10:07:19Z</time>
      </trkpt>
      <trkpt lat="43.291186" lon="-1.726025">
        <ele>42.989</ele>
        <time>2021-06-12T10:07:24Z</time>
      </trkpt>
      <trkpt lat="43.291197" lon="-1.726202">
        <ele>44.819</ele>
        <time>2021-06-12T10:07:29Z</time>
      </trkpt>
      <trkpt lat="43.291219" lon="-1.726435">
        <ele>49.109</ele>
        <time>2021-06-12T10:07:35Z</time>
      </trkpt>
      <trkpt lat="43.291223" lon="-1.726468">
        <ele>50.619</ele>
        <time>2021-06-12T10:07:36Z</time>
      </trkpt>
      <trkpt lat="43.291219" lon="-1.726510">
        <ele>51.508</ele>
        <time>2021-06-12T10:07:37Z</time>
      </trkpt>
      <trkpt lat="43.291217" lon="-1.726553">
        <ele>52.588</ele>
        <time>2021-06-12T10:07:38Z</time>
      </trkpt>
      <trkpt lat="43.291216" lon="-1.726590">
        <ele>53.456</ele>
        <time>2021-06-12T10:07:39Z</time>
      </trkpt>
      <trkpt lat="43.291213" lon="-1.726636">
        <ele>54.457</ele>
        <time>2021-06-12T10:07:40Z</time>
      </trkpt>
      <trkpt lat="43.291217" lon="-1.726828">
        <ele>56.813</ele>
        <time>2021-06-12T10:07:46Z</time>
      </trkpt>
      <trkpt lat="43.291215" lon="-1.726852">
        <ele>57.359</ele>
        <time>2021-06-12T10:07:47Z</time>
      </trkpt>
      <trkpt lat="43.291216" lon="-1.726872">
        <ele>57.811</ele>
        <time>2021-06-12T10:07:48Z</time>
      </trkpt>
      <trkpt lat="43.291237" lon="-1.727043">
        <ele>61.182</ele>
        <time>2021-06-12T10:07:55Z</time>
      </trkpt>
      <trkpt lat="43.291254" lon="-1.727165">
        <ele>63.158</ele>
        <time>2021-06-12T10:07:59Z</time>
      </trkpt>
      <trkpt lat="43.291282" lon="-1.727369">
        <ele>67.962</ele>
        <time>2021-06-12T10:08:06Z</time>
      </trkpt>
      <trkpt lat="43.291363" lon="-1.727671">
        <ele>74.683</ele>
        <time>2021-06-12T10:08:14Z</time>
      </trkpt>
      <trkpt lat="43.291504" lon="-1.728012">
        <ele>73.211</ele>
        <time>2021-06-12T10:08:21Z</time>
      </trkpt>
      <trkpt lat="43.291514" lon="-1.728594">
        <ele>34.208</ele>
        <time>2021-06-12T10:08:32Z</time>
      </trkpt>
      <trkpt lat="43.291596" lon="-1.728839">
        <ele>29.913</ele>
        <time>2021-06-12T10:08:38Z</time>
      </trkpt>
      <trkpt lat="43.291695" lon="-1.729147">
        <ele>26.021</ele>
        <time>2021-06-12T10:08:47Z</time>
      </trkpt>
      <trkpt lat="43.291855" lon="-1.729388">
        <ele>23.242</ele>
        <time>2021-06-12T10:08:55Z</time>
      </trkpt>
      <trkpt lat="43.291995" lon="-1.729534">
        <ele>22.228</ele>
        <time>2021-06-12T10:09:01Z</time>
      </trkpt>
      <trkpt lat="43.292165" lon="-1.729658">
        <ele>21.284</ele>
        <time>2021-06-12T10:09:07Z</time>
      </trkpt>
      <trkpt lat="43.292210" lon="-1.729705">
        <ele>21.226</ele>
        <time>2021-06-12T10:09:10Z</time>
      </trkpt>
      <trkpt lat="43.292359" lon="-1.729782">
        <ele>20.867</ele>
        <time>2021-06-12T10:09:16Z</time>
      </trkpt>
      <trkpt lat="43.292561" lon="-1.729842">
        <ele>19.873</ele>
        <time>2021-06-12T10:09:22Z</time>
      </trkpt>
      <trkpt lat="43.292851" lon="-1.729897">
        <ele>17.944</ele>
        <time>2021-06-12T10:09:31Z</time>
      </trkpt>
      <trkpt lat="43.293060" lon="-1.729860">
        <ele>16.405</ele>
        <time>2021-06-12T10:09:39Z</time>
      </trkpt>
      <trkpt lat="43.293303" lon="-1.729750">
        <ele>16.015</ele>
        <time>2021-06-12T10:09:48Z</time>
      </trkpt>
      <trkpt lat="43.293531" lon="-1.729714">
        <ele>17.408</ele>
        <time>2021-06-12T10:09:57Z</time>
      </trkpt>
      <trkpt lat="43.293719" lon="-1.729724">
        <ele>19.391</ele>
        <time>2021-06-12T10:10:05Z</time>
      </trkpt>
      <trkpt lat="43.293905" lon="-1.729693">
        <ele>19.389</ele>
        <time>2021-06-12T10:10:12Z</time>
      </trkpt>
      <trkpt lat="43.294000" lon="-1.729623">
        <ele>18.420</ele>
        <time>2021-06-12T10:10:19Z</time>
      </trkpt>
      <trkpt lat="43.294188" lon="-1.729623">
        <ele>19.326</ele>
        <time>2021-06-12T10:10:26Z</time>
      </trkpt>
      <trkpt lat="43.294315" lon="-1.729645">
        <ele>18.862</ele>
        <time>2021-06-12T10:10:32Z</time>
      </trkpt>
      <trkpt lat="43.294462" lon="-1.729579">
        <ele>17.914</ele>
        <time>2021-06-12T10:10:38Z</time>
      </trkpt>
      <trkpt lat="43.294756" lon="-1.729668">
        <ele>17.455</ele>
        <time>2021-06-12T10:10:46Z</time>
      </trkpt>
      <trkpt lat="43.294981" lon="-1.729825">
        <ele>17.941</ele>
        <time>2021-06-12T10:10:53Z</time>
      </trkpt>
      <trkpt lat="43.295226" lon="-1.730068">
        <ele>18.894</ele>
        <time>2021-06-12T10:11:02Z</time>
      </trkpt>
      <trkpt lat="43.295501" lon="-1.730408">
        <ele>17.957</ele>
        <time>2021-06-12T10:11:12Z</time>
      </trkpt>
      <trkpt lat="43.295599" lon="-1.730512">
        <ele>17.422</ele>
        <time>2021-06-12T10:11:15Z</time>
      </trkpt>
      <trkpt lat="43.295633" lon="-1.730546">
        <ele>17.408</ele>
        <time>2021-06-12T10:11:16Z</time>
      </trkpt>
      <trkpt lat="43.295668" lon="-1.730577">
        <ele>17.426</ele>
        <time>2021-06-12T10:11:17Z</time>
      </trkpt>
      <trkpt lat="43.295782" lon="-1.730646">
        <ele>17.424</ele>
        <time>2021-06-12T10:11:20Z</time>
      </trkpt>
      <trkpt lat="43.296199" lon="-1.730782">
        <ele>18.435</ele>
        <time>2021-06-12T10:11:31Z</time>
      </trkpt>
      <trkpt lat="43.296560" lon="-1.730953">
        <ele>18.431</ele>
        <time>2021-06-12T10:11:40Z</time>
      </trkpt>
      <trkpt lat="43.296870" lon="-1.731145">
        <ele>18.447</ele>
        <time>2021-06-12T10:11:48Z</time>
      </trkpt>
      <trkpt lat="43.297243" lon="-1.731324">
        <ele>17.959</ele>
        <time>2021-06-12T10:11:57Z</time>
      </trkpt>
      <trkpt lat="43.297589" lon="-1.731510">
        <ele>17.980</ele>
        <time>2021-06-12T10:12:06Z</time>
      </trkpt>
      <trkpt lat="43.297924" lon="-1.731631">
        <ele>17.936</ele>
        <time>2021-06-12T10:12:15Z</time>
      </trkpt>
      <trkpt lat="43.298197" lon="-1.731669">
        <ele>19.876</ele>
        <time>2021-06-12T10:12:22Z</time>
      </trkpt>
      <trkpt lat="43.298466" lon="-1.731740">
        <ele>20.390</ele>
        <time>2021-06-12T10:12:29Z</time>
      </trkpt>
      <trkpt lat="43.298815" lon="-1.731797">
        <ele>20.819</ele>
        <time>2021-06-12T10:12:37Z</time>
      </trkpt>
      <trkpt lat="43.299097" lon="-1.731924">
        <ele>18.808</ele>
        <time>2021-06-12T10:12:44Z</time>
      </trkpt>
      <trkpt lat="43.299413" lon="-1.732137">
        <ele>19.334</ele>
        <time>2021-06-12T10:12:52Z</time>
      </trkpt>
      <trkpt lat="43.299790" lon="-1.732451">
        <ele>19.882</ele>
        <time>2021-06-12T10:13:03Z</time>
      </trkpt>
      <trkpt lat="43.300076" lon="-1.732695">
        <ele>20.353</ele>
        <time>2021-06-12T10:13:12Z</time>
      </trkpt>
      <trkpt lat="43.300352" lon="-1.732882">
        <ele>20.379</ele>
        <time>2021-06-12T10:13:19Z</time>
      </trkpt>
      <trkpt lat="43.300393" lon="-1.732909">
        <ele>20.395</ele>
        <time>2021-06-12T10:13:20Z</time>
      </trkpt>
      <trkpt lat="43.300435" lon="-1.732937">
        <ele>20.317</ele>
        <time>2021-06-12T10:13:21Z</time>
      </trkpt>
      <trkpt lat="43.300475" lon="-1.732965">
        <ele>20.358</ele>
        <time>2021-06-12T10:13:22Z</time>
      </trkpt>
      <trkpt lat="43.300515" lon="-1.732992">
        <ele>20.374</ele>
        <time>2021-06-12T10:13:23Z</time>
      </trkpt>
      <trkpt lat="43.300555" lon="-1.733017">
        <ele>20.312</ele>
        <time>2021-06-12T10:13:24Z</time>
      </trkpt>
      <trkpt lat="43.300913" lon="-1.733205">
        <ele>19.832</ele>
        <time>2021-06-12T10:13:33Z</time>
      </trkpt>
      <trkpt lat="43.301160" lon="-1.733327">
        <ele>19.805</ele>
        <time>2021-06-12T10:13:39Z</time>
      </trkpt>
      <trkpt lat="43.301201" lon="-1.733348">
        <ele>19.808</ele>
        <time>2021-06-12T10:13:40Z</time>
      </trkpt>
      <trkpt lat="43.301574" lon="-1.733518">
        <ele>18.858</ele>
        <time>2021-06-12T10:13:49Z</time>
      </trkpt>
      <trkpt lat="43.301842" lon="-1.733662">
        <ele>18.876</ele>
        <time>2021-06-12T10:13:56Z</time>
      </trkpt>
      <trkpt lat="43.302231" lon="-1.733776">
        <ele>19.317</ele>
        <time>2021-06-12T10:14:06Z</time>
      </trkpt>
      <trkpt lat="43.302499" lon="-1.733859">
        <ele>20.333</ele>
        <time>2021-06-12T10:14:13Z</time>
      </trkpt>
      <trkpt lat="43.302804" lon="-1.733934">
        <ele>20.339</ele>
        <time>2021-06-12T10:14:20Z</time>
      </trkpt>
      <trkpt lat="43.302851" lon="-1.733951">
        <ele>19.871</ele>
        <time>2021-06-12T10:14:21Z</time>
      </trkpt>
      <trkpt lat="43.303277" lon="-1.734114">
        <ele>19.342</ele>
        <time>2021-06-12T10:14:30Z</time>
      </trkpt>
      <trkpt lat="43.303418" lon="-1.734144">
        <ele>19.318</ele>
        <time>2021-06-12T10:14:35Z</time>
      </trkpt>
      <trkpt lat="43.303659" lon="-1.734177">
        <ele>19.875</ele>
        <time>2021-06-12T10:14:42Z</time>
      </trkpt>
      <trkpt lat="43.304034" lon="-1.734231">
        <ele>19.328</ele>
        <time>2021-06-12T10:14:51Z</time>
      </trkpt>
      <trkpt lat="43.304079" lon="-1.734238">
        <ele>18.820</ele>
        <time>2021-06-12T10:14:52Z</time>
      </trkpt>
      <trkpt lat="43.304125" lon="-1.734245">
        <ele>18.408</ele>
        <time>2021-06-12T10:14:53Z</time>
      </trkpt>
      <trkpt lat="43.304557" lon="-1.734291">
        <ele>17.464</ele>
        <time>2021-06-12T10:15:02Z</time>
      </trkpt>
      <trkpt lat="43.305131" lon="-1.734413">
        <ele>16.072</ele>
        <time>2021-06-12T10:15:12Z</time>
      </trkpt>
      <trkpt lat="43.305456" lon="-1.734549">
        <ele>15.543</ele>
        <time>2021-06-12T10:15:19Z</time>
      </trkpt>
      <trkpt lat="43.305826" lon="-1.734740">
        <ele>14.539</ele>
        <time>2021-06-12T10:15:27Z</time>
      </trkpt>
      <trkpt lat="43.306155" lon="-1.734972">
        <ele>13.685</ele>
        <time>2021-06-12T10:15:35Z</time>
      </trkpt>
      <trkpt lat="43.306492" lon="-1.735237">
        <ele>13.677</ele>
        <time>2021-06-12T10:15:44Z</time>
      </trkpt>
      <trkpt lat="43.306664" lon="-1.735418">
        <ele>14.078</ele>
        <time>2021-06-12T10:15:51Z</time>
      </trkpt>
      <trkpt lat="43.306903" lon="-1.735508">
        <ele>13.634</ele>
        <time>2021-06-12T10:15:58Z</time>
      </trkpt>
      <trkpt lat="43.307412" lon="-1.735508">
        <ele>13.127</ele>
        <time>2021-06-12T10:16:10Z</time>
      </trkpt>
      <trkpt lat="43.307725" lon="-1.735512">
        <ele>13.168</ele>
        <time>2021-06-12T10:16:18Z</time>
      </trkpt>
      <trkpt lat="43.307941" lon="-1.735609">
        <ele>14.014</ele>
        <time>2021-06-12T10:16:25Z</time>
      </trkpt>
      <trkpt lat="43.308208" lon="-1.735872">
        <ele>13.608</ele>
        <time>2021-06-12T10:16:33Z</time>
      </trkpt>
      <trkpt lat="43.308245" lon="-1.735905">
        <ele>13.679</ele>
        <time>2021-06-12T10:16:34Z</time>
      </trkpt>
      <trkpt lat="43.308575" lon="-1.736041">
        <ele>13.117</ele>
        <time>2021-06-12T10:16:42Z</time>
      </trkpt>
      <trkpt lat="43.309047" lon="-1.736188">
        <ele>12.178</ele>
        <time>2021-06-12T10:16:54Z</time>
      </trkpt>
      <trkpt lat="43.309460" lon="-1.736310">
        <ele>13.194</ele>
        <time>2021-06-12T10:17:04Z</time>
      </trkpt>
      <trkpt lat="43.309811" lon="-1.736495">
        <ele>13.170</ele>
        <time>2021-06-12T10:17:13Z</time>
      </trkpt>
      <trkpt lat="43.309992" lon="-1.736702">
        <ele>13.642</ele>
        <time>2021-06-12T10:17:19Z</time>
      </trkpt>
      <trkpt lat="43.310067" lon="-1.736845">
        <ele>13.623</ele>
        <time>2021-06-12T10:17:22Z</time>
      </trkpt>
      <trkpt lat="43.310195" lon="-1.737280">
        <ele>13.679</ele>
        <time>2021-06-12T10:17:31Z</time>
      </trkpt>
      <trkpt lat="43.310222" lon="-1.737539">
        <ele>14.578</ele>
        <time>2021-06-12T10:17:37Z</time>
      </trkpt>
      <trkpt lat="43.310283" lon="-1.737848">
        <ele>14.533</ele>
        <time>2021-06-12T10:17:45Z</time>
      </trkpt>
      <trkpt lat="43.310321" lon="-1.738131">
        <ele>16.026</ele>
        <time>2021-06-12T10:17:52Z</time>
      </trkpt>
      <trkpt lat="43.310366" lon="-1.738449">
        <ele>16.908</ele>
        <time>2021-06-12T10:18:00Z</time>
      </trkpt>
      <trkpt lat="43.310386" lon="-1.738678">
        <ele>16.954</ele>
        <time>2021-06-12T10:18:06Z</time>
      </trkpt>
      <trkpt lat="43.310410" lon="-1.738957">
        <ele>16.942</ele>
        <time>2021-06-12T10:18:13Z</time>
      </trkpt>
      <trkpt lat="43.310454" lon="-1.739283">
        <ele>16.043</ele>
        <time>2021-06-12T10:18:20Z</time>
      </trkpt>
      <trkpt lat="43.310592" lon="-1.739654">
        <ele>15.019</ele>
        <time>2021-06-12T10:18:28Z</time>
      </trkpt>
      <trkpt lat="43.310797" lon="-1.740077">
        <ele>12.635</ele>
        <time>2021-06-12T10:18:38Z</time>
      </trkpt>
      <trkpt lat="43.310899" lon="-1.740264">
        <ele>12.187</ele>
        <time>2021-06-12T10:18:44Z</time>
      </trkpt>
      <trkpt lat="43.311080" lon="-1.740493">
        <ele>12.628</ele>
        <time>2021-06-12T10:18:54Z</time>
      </trkpt>
      <trkpt lat="43.311215" lon="-1.740689">
        <ele>13.694</ele>
        <time>2021-06-12T10:19:03Z</time>
      </trkpt>
      <trkpt lat="43.311381" lon="-1.740786">
        <ele>14.014</ele>
        <time>2021-06-12T10:19:09Z</time>
      </trkpt>
      <trkpt lat="43.311620" lon="-1.740773">
        <ele>16.054</ele>
        <time>2021-06-12T10:19:17Z</time>
      </trkpt>
      <trkpt lat="43.311797" lon="-1.740704">
        <ele>15.509</ele>
        <time>2021-06-12T10:19:25Z</time>
      </trkpt>
      <trkpt lat="43.312026" lon="-1.740597">
        <ele>13.608</ele>
        <time>2021-06-12T10:19:33Z</time>
      </trkpt>
      <trkpt lat="43.312262" lon="-1.740465">
        <ele>13.128</ele>
        <time>2021-06-12T10:19:41Z</time>
      </trkpt>
      <trkpt lat="43.312514" lon="-1.740257">
        <ele>11.686</ele>
        <time>2021-06-12T10:19:49Z</time>
      </trkpt>
      <trkpt lat="43.312728" lon="-1.739891">
        <ele>12.157</ele>
        <time>2021-06-12T10:19:58Z</time>
      </trkpt>
      <trkpt lat="43.312942" lon="-1.739357">
        <ele>13.623</ele>
        <time>2021-06-12T10:20:10Z</time>
      </trkpt>
      <trkpt lat="43.313094" lon="-1.739072">
        <ele>14.019</ele>
        <time>2021-06-12T10:20:19Z</time>
      </trkpt>
      <trkpt lat="43.313259" lon="-1.738880">
        <ele>16.061</ele>
        <time>2021-06-12T10:20:28Z</time>
      </trkpt>
      <trkpt lat="43.313443" lon="-1.738722">
        <ele>17.462</ele>
        <time>2021-06-12T10:20:37Z</time>
      </trkpt>
      <trkpt lat="43.313656" lon="-1.738624">
        <ele>18.418</ele>
        <time>2021-06-12T10:20:45Z</time>
      </trkpt>
      <trkpt lat="43.313938" lon="-1.738681">
        <ele>19.328</ele>
        <time>2021-06-12T10:20:54Z</time>
      </trkpt>
      <trkpt lat="43.314187" lon="-1.738870">
        <ele>19.389</ele>
        <time>2021-06-12T10:21:02Z</time>
      </trkpt>
      <trkpt lat="43.314413" lon="-1.739186">
        <ele>19.317</ele>
        <time>2021-06-12T10:21:11Z</time>
      </trkpt>
      <trkpt lat="43.314606" lon="-1.739609">
        <ele>19.308</ele>
        <time>2021-06-12T10:21:20Z</time>
      </trkpt>
      <trkpt lat="43.314798" lon="-1.740042">
        <ele>18.829</ele>
        <time>2021-06-12T10:21:29Z</time>
      </trkpt>
      <trkpt lat="43.314985" lon="-1.740374">
        <ele>18.437</ele>
        <time>2021-06-12T10:21:37Z</time>
      </trkpt>
      <trkpt lat="43.315217" lon="-1.740750">
        <ele>18.448</ele>
        <time>2021-06-12T10:21:46Z</time>
      </trkpt>
      <trkpt lat="43.315326" lon="-1.740918">
        <ele>17.994</ele>
        <time>2021-06-12T10:21:52Z</time>
      </trkpt>
      <trkpt lat="43.315493" lon="-1.741148">
        <ele>16.930</ele>
        <time>2021-06-12T10:21:59Z</time>
      </trkpt>
      <trkpt lat="43.315688" lon="-1.741396">
        <ele>15.072</ele>
        <time>2021-06-12T10:22:06Z</time>
      </trkpt>
      <trkpt lat="43.315857" lon="-1.741569">
        <ele>14.073</ele>
        <time>2021-06-12T10:22:13Z</time>
      </trkpt>
      <trkpt lat="43.316065" lon="-1.741770">
        <ele>13.189</ele>
        <time>2021-06-12T10:22:21Z</time>
      </trkpt>
      <trkpt lat="43.316162" lon="-1.741860">
        <ele>12.179</ele>
        <time>2021-06-12T10:22:24Z</time>
      </trkpt>
      <trkpt lat="43.316200" lon="-1.741883">
        <ele>12.105</ele>
        <time>2021-06-12T10:22:25Z</time>
      </trkpt>
      <trkpt lat="43.316235" lon="-1.741905">
        <ele>12.125</ele>
        <time>2021-06-12T10:22:26Z</time>
      </trkpt>
      <trkpt lat="43.316472" lon="-1.742018">
        <ele>12.108</ele>
        <time>2021-06-12T10:22:34Z</time>
      </trkpt>
      <trkpt lat="43.316659" lon="-1.742055">
        <ele>12.694</ele>
        <time>2021-06-12T10:22:41Z</time>
      </trkpt>
      <trkpt lat="43.316965" lon="-1.742078">
        <ele>15.572</ele>
        <time>2021-06-12T10:22:50Z</time>
      </trkpt>
      <trkpt lat="43.317252" lon="-1.742097">
        <ele>17.433</ele>
        <time>2021-06-12T10:22:58Z</time>
      </trkpt>
      <trkpt lat="43.317489" lon="-1.742113">
        <ele>17.989</ele>
        <time>2021-06-12T10:23:05Z</time>
      </trkpt>
      <trkpt lat="43.317681" lon="-1.742193">
        <ele>18.875</ele>
        <time>2021-06-12T10:23:11Z</time>
      </trkpt>
      <trkpt lat="43.317967" lon="-1.742246">
        <ele>16.447</ele>
        <time>2021-06-12T10:23:18Z</time>
      </trkpt>
      <trkpt lat="43.318347" lon="-1.742266">
        <ele>14.018</ele>
        <time>2021-06-12T10:23:28Z</time>
      </trkpt>
      <trkpt lat="43.318793" lon="-1.742233">
        <ele>12.624</ele>
        <time>2021-06-12T10:23:40Z</time>
      </trkpt>
      <trkpt lat="43.319120" lon="-1.742209">
        <ele>14.067</ele>
        <time>2021-06-12T10:23:50Z</time>
      </trkpt>
      <trkpt lat="43.319343" lon="-1.742201">
        <ele>16.081</ele>
        <time>2021-06-12T10:23:58Z</time>
      </trkpt>
      <trkpt lat="43.319606" lon="-1.742196">
        <ele>17.419</ele>
        <time>2021-06-12T10:24:08Z</time>
      </trkpt>
      <trkpt lat="43.319943" lon="-1.742167">
        <ele>20.308</ele>
        <time>2021-06-12T10:24:19Z</time>
      </trkpt>
      <trkpt lat="43.320230" lon="-1.742137">
        <ele>21.283</ele>
        <time>2021-06-12T10:24:28Z</time>
      </trkpt>
      <trkpt lat="43.320551" lon="-1.742097">
        <ele>21.711</ele>
        <time>2021-06-12T10:24:36Z</time>
      </trkpt>
      <trkpt lat="43.320890" lon="-1.742056">
        <ele>22.282</ele>
        <time>2021-06-12T10:24:45Z</time>
      </trkpt>
      <trkpt lat="43.321263" lon="-1.741982">
        <ele>20.878</ele>
        <time>2021-06-12T10:24:55Z</time>
      </trkpt>
      <trkpt lat="43.321514" lon="-1.741872">
        <ele>20.324</ele>
        <time>2021-06-12T10:25:02Z</time>
      </trkpt>
      <trkpt lat="43.321711" lon="-1.741762">
        <ele>20.866</ele>
        <time>2021-06-12T10:25:09Z</time>
      </trkpt>
      <trkpt lat="43.321941" lon="-1.741624">
        <ele>20.367</ele>
        <time>2021-06-12T10:25:17Z</time>
      </trkpt>
      <trkpt lat="43.322126" lon="-1.741529">
        <ele>20.383</ele>
        <time>2021-06-12T10:25:24Z</time>
      </trkpt>
      <trkpt lat="43.322343" lon="-1.741391">
        <ele>20.822</ele>
        <time>2021-06-12T10:25:32Z</time>
      </trkpt>
      <trkpt lat="43.322646" lon="-1.741229">
        <ele>19.362</ele>
        <time>2021-06-12T10:25:41Z</time>
      </trkpt>
      <trkpt lat="43.323038" lon="-1.740970">
        <ele>17.908</ele>
        <time>2021-06-12T10:25:51Z</time>
      </trkpt>
      <trkpt lat="43.323418" lon="-1.740728">
        <ele>17.908</ele>
        <time>2021-06-12T10:26:00Z</time>
      </trkpt>
      <trkpt lat="43.323604" lon="-1.740616">
        <ele>17.439</ele>
        <time>2021-06-12T10:26:04Z</time>
      </trkpt>
      <trkpt lat="43.323741" lon="-1.740527">
        <ele>17.417</ele>
        <time>2021-06-12T10:26:07Z</time>
      </trkpt>
      <trkpt lat="43.324104" lon="-1.740255">
        <ele>16.938</ele>
        <time>2021-06-12T10:26:15Z</time>
      </trkpt>
      <trkpt lat="43.324494" lon="-1.739908">
        <ele>16.094</ele>
        <time>2021-06-12T10:26:24Z</time>
      </trkpt>
      <trkpt lat="43.324936" lon="-1.739531">
        <ele>16.070</ele>
        <time>2021-06-12T10:26:34Z</time>
      </trkpt>
      <trkpt lat="43.325425" lon="-1.739256">
        <ele>15.072</ele>
        <time>2021-06-12T10:26:44Z</time>
      </trkpt>
      <trkpt lat="43.325894" lon="-1.739126">
        <ele>14.083</ele>
        <time>2021-06-12T10:26:53Z</time>
      </trkpt>
      <trkpt lat="43.326308" lon="-1.739037">
        <ele>13.159</ele>
        <time>2021-06-12T10:27:02Z</time>
      </trkpt>
      <trkpt lat="43.326499" lon="-1.739003">
        <ele>13.145</ele>
        <time>2021-06-12T10:27:08Z</time>
      </trkpt>
      <trkpt lat="43.326541" lon="-1.739001">
        <ele>13.147</ele>
        <time>2021-06-12T10:27:11Z</time>
      </trkpt>
      <trkpt lat="43.326551" lon="-1.738996">
        <ele>13.111</ele>
        <time>2021-06-12T10:27:12Z</time>
      </trkpt>
      <trkpt lat="43.326570" lon="-1.738991">
        <ele>13.608</ele>
        <time>2021-06-12T10:27:18Z</time>
      </trkpt>
      <trkpt lat="43.326641" lon="-1.738980">
        <ele>14.551</ele>
        <time>2021-06-12T10:27:26Z</time>
      </trkpt>
      <trkpt lat="43.326853" lon="-1.738948">
        <ele>15.089</ele>
        <time>2021-06-12T10:27:32Z</time>
      </trkpt>
      <trkpt lat="43.327218" lon="-1.738884">
        <ele>14.070</ele>
        <time>2021-06-12T10:27:40Z</time>
      </trkpt>
      <trkpt lat="43.327646" lon="-1.738797">
        <ele>14.026</ele>
        <time>2021-06-12T10:27:49Z</time>
      </trkpt>
      <trkpt lat="43.327688" lon="-1.738789">
        <ele>13.652</ele>
        <time>2021-06-12T10:27:50Z</time>
      </trkpt>
      <trkpt lat="43.327975" lon="-1.738733">
        <ele>14.024</ele>
        <time>2021-06-12T10:27:57Z</time>
      </trkpt>
      <trkpt lat="43.328284" lon="-1.738726">
        <ele>15.025</ele>
        <time>2021-06-12T10:28:04Z</time>
      </trkpt>
      <trkpt lat="43.328426" lon="-1.738761">
        <ele>15.581</ele>
        <time>2021-06-12T10:28:07Z</time>
      </trkpt>
      <trkpt lat="43.328474" lon="-1.738783">
        <ele>15.537</ele>
        <time>2021-06-12T10:28:08Z</time>
      </trkpt>
      <trkpt lat="43.328663" lon="-1.738898">
        <ele>15.049</ele>
        <time>2021-06-12T10:28:12Z</time>
      </trkpt>
      <trkpt lat="43.328706" lon="-1.738940">
        <ele>15.013</ele>
        <time>2021-06-12T10:28:13Z</time>
      </trkpt>
      <trkpt lat="43.328961" lon="-1.739300">
        <ele>14.508</ele>
        <time>2021-06-12T10:28:20Z</time>
      </trkpt>
      <trkpt lat="43.329193" lon="-1.739835">
        <ele>13.690</ele>
        <time>2021-06-12T10:28:28Z</time>
      </trkpt>
      <trkpt lat="43.329342" lon="-1.740457">
        <ele>12.628</ele>
        <time>2021-06-12T10:28:36Z</time>
      </trkpt>
      <trkpt lat="43.329472" lon="-1.741274">
        <ele>11.679</ele>
        <time>2021-06-12T10:28:47Z</time>
      </trkpt>
      <trkpt lat="43.329571" lon="-1.741910">
        <ele>11.695</ele>
        <time>2021-06-12T10:28:56Z</time>
      </trkpt>
      <trkpt lat="43.329664" lon="-1.742503">
        <ele>12.181</ele>
        <time>2021-06-12T10:29:05Z</time>
      </trkpt>
      <trkpt lat="43.329757" lon="-1.743113">
        <ele>11.123</ele>
        <time>2021-06-12T10:29:14Z</time>
      </trkpt>
      <trkpt lat="43.329849" lon="-1.743715">
        <ele>11.684</ele>
        <time>2021-06-12T10:29:23Z</time>
      </trkpt>
      <trkpt lat="43.329956" lon="-1.744387">
        <ele>12.680</ele>
        <time>2021-06-12T10:29:33Z</time>
      </trkpt>
      <trkpt lat="43.330071" lon="-1.745117">
        <ele>13.689</ele>
        <time>2021-06-12T10:29:44Z</time>
      </trkpt>
      <trkpt lat="43.330188" lon="-1.745837">
        <ele>12.606</ele>
        <time>2021-06-12T10:29:54Z</time>
      </trkpt>
      <trkpt lat="43.330305" lon="-1.746553">
        <ele>11.626</ele>
        <time>2021-06-12T10:30:03Z</time>
      </trkpt>
      <trkpt lat="43.330461" lon="-1.747533">
        <ele>10.208</ele>
        <time>2021-06-12T10:30:15Z</time>
      </trkpt>
      <trkpt lat="43.330565" lon="-1.748171">
        <ele>10.225</ele>
        <time>2021-06-12T10:30:24Z</time>
      </trkpt>
      <trkpt lat="43.330669" lon="-1.748790">
        <ele>9.723</ele>
        <time>2021-06-12T10:30:32Z</time>
      </trkpt>
      <trkpt lat="43.330832" lon="-1.749400">
        <ele>11.694</ele>
        <time>2021-06-12T10:30:41Z</time>
      </trkpt>
      <trkpt lat="43.330996" lon="-1.749760">
        <ele>13.690</ele>
        <time>2021-06-12T10:30:49Z</time>
      </trkpt>
      <trkpt lat="43.331137" lon="-1.750087">
        <ele>14.086</ele>
        <time>2021-06-12T10:30:58Z</time>
      </trkpt>
      <trkpt lat="43.331181" lon="-1.750200">
        <ele>13.658</ele>
        <time>2021-06-12T10:31:04Z</time>
      </trkpt>
      <trkpt lat="43.331167" lon="-1.750204">
        <ele>14.579</ele>
        <time>2021-06-12T10:31:16Z</time>
      </trkpt>
      <trkpt lat="43.331161" lon="-1.750214">
        <ele>14.535</ele>
        <time>2021-06-12T10:31:17Z</time>
      </trkpt>
      <trkpt lat="43.331145" lon="-1.750208">
        <ele>14.589</ele>
        <time>2021-06-12T10:31:19Z</time>
      </trkpt>
      <trkpt lat="43.331143" lon="-1.750140">
        <ele>14.006</ele>
        <time>2021-06-12T10:31:22Z</time>
      </trkpt>
      <trkpt lat="43.331132" lon="-1.750080">
        <ele>14.026</ele>
        <time>2021-06-12T10:31:24Z</time>
      </trkpt>
      <trkpt lat="43.331040" lon="-1.749825">
        <ele>13.108</ele>
        <time>2021-06-12T10:31:32Z</time>
      </trkpt>
      <trkpt lat="43.330885" lon="-1.749531">
        <ele>12.195</ele>
        <time>2021-06-12T10:31:39Z</time>
      </trkpt>
      <trkpt lat="43.330854" lon="-1.749493">
        <ele>12.173</ele>
        <time>2021-06-12T10:31:40Z</time>
      </trkpt>
      <trkpt lat="43.330828" lon="-1.749444">
        <ele>11.654</ele>
        <time>2021-06-12T10:31:41Z</time>
      </trkpt>
      <trkpt lat="43.330801" lon="-1.749380">
        <ele>11.690</ele>
        <time>2021-06-12T10:31:42Z</time>
      </trkpt>
      <trkpt lat="43.330780" lon="-1.749322">
        <ele>11.666</ele>
        <time>2021-06-12T10:31:43Z</time>
      </trkpt>
      <trkpt lat="43.330674" lon="-1.748926">
        <ele>10.238</ele>
        <time>2021-06-12T10:31:50Z</time>
      </trkpt>
      <trkpt lat="43.330644" lon="-1.748809">
        <ele>9.759</ele>
        <time>2021-06-12T10:31:52Z</time>
      </trkpt>
      <trkpt lat="43.330607" lon="-1.748712">
        <ele>9.775</ele>
        <time>2021-06-12T10:31:54Z</time>
      </trkpt>
      <trkpt lat="43.330595" lon="-1.748658">
        <ele>9.216</ele>
        <time>2021-06-12T10:31:55Z</time>
      </trkpt>
      <trkpt lat="43.330585" lon="-1.748601">
        <ele>9.776</ele>
        <time>2021-06-12T10:31:56Z</time>
      </trkpt>
      <trkpt lat="43.330508" lon="-1.748075">
        <ele>10.213</ele>
        <time>2021-06-12T10:32:05Z</time>
      </trkpt>
      <trkpt lat="43.330407" lon="-1.747435">
        <ele>11.108</ele>
        <time>2021-06-12T10:32:16Z</time>
      </trkpt>
      <trkpt lat="43.330327" lon="-1.746965">
        <ele>12.198</ele>
        <time>2021-06-12T10:32:24Z</time>
      </trkpt>
      <trkpt lat="43.330271" lon="-1.746646">
        <ele>11.166</ele>
        <time>2021-06-12T10:32:32Z</time>
      </trkpt>
      <trkpt lat="43.330261" lon="-1.746563">
        <ele>11.137</ele>
        <time>2021-06-12T10:32:35Z</time>
      </trkpt>
      <trkpt lat="43.330270" lon="-1.746533">
        <ele>11.183</ele>
        <time>2021-06-12T10:32:36Z</time>
      </trkpt>
      <trkpt lat="43.330286" lon="-1.746513">
        <ele>10.719</ele>
        <time>2021-06-12T10:32:37Z</time>
      </trkpt>
      <trkpt lat="43.330302" lon="-1.746501">
        <ele>11.141</ele>
        <time>2021-06-12T10:32:38Z</time>
      </trkpt>
      <trkpt lat="43.330313" lon="-1.746502">
        <ele>10.752</ele>
        <time>2021-06-12T10:32:39Z</time>
      </trkpt>
      <trkpt lat="43.330322" lon="-1.746505">
        <ele>11.118</ele>
        <time>2021-06-12T10:32:45Z</time>
      </trkpt>
      <trkpt lat="43.330326" lon="-1.746541">
        <ele>12.197</ele>
        <time>2021-06-12T10:32:53Z</time>
      </trkpt>
      <trkpt lat="43.330319" lon="-1.746542">
        <ele>11.123</ele>
        <time>2021-06-12T10:33:00Z</time>
      </trkpt>
      <trkpt lat="43.330321" lon="-1.746527">
        <ele>11.625</ele>
        <time>2021-06-12T10:33:09Z</time>
      </trkpt>
      <trkpt lat="43.330314" lon="-1.746499">
        <ele>11.608</ele>
        <time>2021-06-12T10:33:13Z</time>
      </trkpt>
      <trkpt lat="43.330310" lon="-1.746484">
        <ele>11.656</ele>
        <time>2021-06-12T10:33:14Z</time>
      </trkpt>
      <trkpt lat="43.330292" lon="-1.746422">
        <ele>11.694</ele>
        <time>2021-06-12T10:33:21Z</time>
      </trkpt>
      <trkpt lat="43.330275" lon="-1.746405">
        <ele>12.115</ele>
        <time>2021-06-12T10:33:27Z</time>
      </trkpt>
      <trkpt lat="43.330222" lon="-1.746323">
        <ele>12.631</ele>
        <time>2021-06-12T10:33:33Z</time>
      </trkpt>
      <trkpt lat="43.330170" lon="-1.746056">
        <ele>11.667</ele>
        <time>2021-06-12T10:33:41Z</time>
      </trkpt>
      <trkpt lat="43.330106" lon="-1.745696">
        <ele>10.789</ele>
        <time>2021-06-12T10:33:50Z</time>
      </trkpt>
      <trkpt lat="43.330059" lon="-1.745366">
        <ele>11.690</ele>
        <time>2021-06-12T10:33:58Z</time>
      </trkpt>
      <trkpt lat="43.329987" lon="-1.744859">
        <ele>12.126</ele>
        <time>2021-06-12T10:34:09Z</time>
      </trkpt>
      <trkpt lat="43.329923" lon="-1.744387">
        <ele>12.666</ele>
        <time>2021-06-12T10:34:18Z</time>
      </trkpt>
      <trkpt lat="43.329828" lon="-1.743778">
        <ele>12.629</ele>
        <time>2021-06-12T10:34:29Z</time>
      </trkpt>
      <trkpt lat="43.329814" lon="-1.743665">
        <ele>12.621</ele>
        <time>2021-06-12T10:34:31Z</time>
      </trkpt>
      <trkpt lat="43.329805" lon="-1.743605">
        <ele>12.608</ele>
        <time>2021-06-12T10:34:32Z</time>
      </trkpt>
      <trkpt lat="43.329795" lon="-1.743545">
        <ele>12.133</ele>
        <time>2021-06-12T10:34:33Z</time>
      </trkpt>
      <trkpt lat="43.329786" lon="-1.743490">
        <ele>12.121</ele>
        <time>2021-06-12T10:34:34Z</time>
      </trkpt>
      <trkpt lat="43.329776" lon="-1.743431">
        <ele>12.192</ele>
        <time>2021-06-12T10:34:35Z</time>
      </trkpt>
      <trkpt lat="43.329766" lon="-1.743371">
        <ele>12.158</ele>
        <time>2021-06-12T10:34:36Z</time>
      </trkpt>
      <trkpt lat="43.329667" lon="-1.742732">
        <ele>11.644</ele>
        <time>2021-06-12T10:34:47Z</time>
      </trkpt>
      <trkpt lat="43.329671" lon="-1.742541">
        <ele>11.646</ele>
        <time>2021-06-12T10:34:51Z</time>
      </trkpt>
      <trkpt lat="43.329685" lon="-1.742524">
        <ele>11.647</ele>
        <time>2021-06-12T10:34:52Z</time>
      </trkpt>
      <trkpt lat="43.329714" lon="-1.742544">
        <ele>11.183</ele>
        <time>2021-06-12T10:34:54Z</time>
      </trkpt>
      <trkpt lat="43.329725" lon="-1.742576">
        <ele>10.758</ele>
        <time>2021-06-12T10:34:55Z</time>
      </trkpt>
      <trkpt lat="43.329795" lon="-1.742748">
        <ele>8.752</ele>
        <time>2021-06-12T10:34:59Z</time>
      </trkpt>
      <trkpt lat="43.329818" lon="-1.742798">
        <ele>8.717</ele>
        <time>2021-06-12T10:35:00Z</time>
      </trkpt>
      <trkpt lat="43.329835" lon="-1.742855">
        <ele>8.708</ele>
        <time>2021-06-12T10:35:01Z</time>
      </trkpt>
      <trkpt lat="43.329933" lon="-1.743376">
        <ele>7.372</ele>
        <time>2021-06-12T10:35:09Z</time>
      </trkpt>
      <trkpt lat="43.330051" lon="-1.743930">
        <ele>7.380</ele>
        <time>2021-06-12T10:35:17Z</time>
      </trkpt>
      <trkpt lat="43.330188" lon="-1.744642">
        <ele>6.321</ele>
        <time>2021-06-12T10:35:28Z</time>
      </trkpt>
      <trkpt lat="43.330307" lon="-1.745188">
        <ele>5.947</ele>
        <time>2021-06-12T10:35:38Z</time>
      </trkpt>
      <trkpt lat="43.330397" lon="-1.745656">
        <ele>6.363</ele>
        <time>2021-06-12T10:35:46Z</time>
      </trkpt>
      <trkpt lat="43.330407" lon="-1.745714">
        <ele>6.315</ele>
        <time>2021-06-12T10:35:47Z</time>
      </trkpt>
      <trkpt lat="43.330517" lon="-1.746212">
        <ele>7.856</ele>
        <time>2021-06-12T10:35:56Z</time>
      </trkpt>
      <trkpt lat="43.330680" lon="-1.746564">
        <ele>6.342</ele>
        <time>2021-06-12T10:36:03Z</time>
      </trkpt>
      <trkpt lat="43.330723" lon="-1.746675">
        <ele>6.826</ele>
        <time>2021-06-12T10:36:05Z</time>
      </trkpt>
      <trkpt lat="43.330739" lon="-1.746730">
        <ele>6.847</ele>
        <time>2021-06-12T10:36:06Z</time>
      </trkpt>
      <trkpt lat="43.330751" lon="-1.746785">
        <ele>6.811</ele>
        <time>2021-06-12T10:36:07Z</time>
      </trkpt>
      <trkpt lat="43.330756" lon="-1.746839">
        <ele>6.808</ele>
        <time>2021-06-12T10:36:08Z</time>
      </trkpt>
      <trkpt lat="43.330758" lon="-1.746895">
        <ele>7.399</ele>
        <time>2021-06-12T10:36:09Z</time>
      </trkpt>
      <trkpt lat="43.330755" lon="-1.746952">
        <ele>6.817</ele>
        <time>2021-06-12T10:36:10Z</time>
      </trkpt>
      <trkpt lat="43.330746" lon="-1.747004">
        <ele>7.378</ele>
        <time>2021-06-12T10:36:11Z</time>
      </trkpt>
      <trkpt lat="43.330730" lon="-1.747055">
        <ele>7.334</ele>
        <time>2021-06-12T10:36:12Z</time>
      </trkpt>
      <trkpt lat="43.330705" lon="-1.747100">
        <ele>7.360</ele>
        <time>2021-06-12T10:36:13Z</time>
      </trkpt>
      <trkpt lat="43.330677" lon="-1.747139">
        <ele>7.382</ele>
        <time>2021-06-12T10:36:14Z</time>
      </trkpt>
      <trkpt lat="43.330646" lon="-1.747175">
        <ele>7.323</ele>
        <time>2021-06-12T10:36:15Z</time>
      </trkpt>
      <trkpt lat="43.330615" lon="-1.747212">
        <ele>7.359</ele>
        <time>2021-06-12T10:36:16Z</time>
      </trkpt>
      <trkpt lat="43.330590" lon="-1.747254">
        <ele>7.389</ele>
        <time>2021-06-12T10:36:17Z</time>
      </trkpt>
      <trkpt lat="43.330572" lon="-1.747305">
        <ele>7.306</ele>
        <time>2021-06-12T10:36:18Z</time>
      </trkpt>
      <trkpt lat="43.330567" lon="-1.747365">
        <ele>7.326</ele>
        <time>2021-06-12T10:36:19Z</time>
      </trkpt>
      <trkpt lat="43.330567" lon="-1.747425">
        <ele>7.308</ele>
        <time>2021-06-12T10:36:20Z</time>
      </trkpt>
      <trkpt lat="43.330591" lon="-1.747986">
        <ele>6.855</ele>
        <time>2021-06-12T10:36:29Z</time>
      </trkpt>
      <trkpt lat="43.330697" lon="-1.748680">
        <ele>4.963</ele>
        <time>2021-06-12T10:36:39Z</time>
      </trkpt>
      <trkpt lat="43.330772" lon="-1.749061">
        <ele>5.444</ele>
        <time>2021-06-12T10:36:46Z</time>
      </trkpt>
      <trkpt lat="43.330931" lon="-1.749472">
        <ele>7.340</ele>
        <time>2021-06-12T10:36:55Z</time>
      </trkpt>
      <trkpt lat="43.331123" lon="-1.749912">
        <ele>8.316</ele>
        <time>2021-06-12T10:37:04Z</time>
      </trkpt>
      <trkpt lat="43.331309" lon="-1.750327">
        <ele>9.238</ele>
        <time>2021-06-12T10:37:12Z</time>
      </trkpt>
      <trkpt lat="43.331513" lon="-1.750759">
        <ele>10.279</ele>
        <time>2021-06-12T10:37:20Z</time>
      </trkpt>
      <trkpt lat="43.331807" lon="-1.751278">
        <ele>10.775</ele>
        <time>2021-06-12T10:37:30Z</time>
      </trkpt>
      <trkpt lat="43.332052" lon="-1.751629">
        <ele>10.716</ele>
        <time>2021-06-12T10:37:38Z</time>
      </trkpt>
      <trkpt lat="43.332315" lon="-1.751996">
        <ele>11.176</ele>
        <time>2021-06-12T10:37:47Z</time>
      </trkpt>
      <trkpt lat="43.332575" lon="-1.752341">
        <ele>10.713</ele>
        <time>2021-06-12T10:37:57Z</time>
      </trkpt>
      <trkpt lat="43.332742" lon="-1.752575">
        <ele>11.608</ele>
        <time>2021-06-12T10:38:04Z</time>
      </trkpt>
      <trkpt lat="43.332903" lon="-1.752748">
        <ele>12.128</ele>
        <time>2021-06-12T10:38:11Z</time>
      </trkpt>
      <trkpt lat="43.333203" lon="-1.752956">
        <ele>11.686</ele>
        <time>2021-06-12T10:38:20Z</time>
      </trkpt>
      <trkpt lat="43.333466" lon="-1.753111">
        <ele>11.697</ele>
        <time>2021-06-12T10:38:28Z</time>
      </trkpt>
      <trkpt lat="43.333650" lon="-1.753192">
        <ele>13.133</ele>
        <time>2021-06-12T10:38:36Z</time>
      </trkpt>
      <trkpt lat="43.333861" lon="-1.753264">
        <ele>15.579</ele>
        <time>2021-06-12T10:38:45Z</time>
      </trkpt>
      <trkpt lat="43.334078" lon="-1.753313">
        <ele>16.441</ele>
        <time>2021-06-12T10:38:53Z</time>
      </trkpt>
      <trkpt lat="43.334359" lon="-1.753359">
        <ele>19.362</ele>
        <time>2021-06-12T10:39:03Z</time>
      </trkpt>
      <trkpt lat="43.334619" lon="-1.753366">
        <ele>18.858</ele>
        <time>2021-06-12T10:39:11Z</time>
      </trkpt>
      <trkpt lat="43.334914" lon="-1.753330">
        <ele>18.443</ele>
        <time>2021-06-12T10:39:20Z</time>
      </trkpt>
      <trkpt lat="43.335213" lon="-1.753197">
        <ele>17.464</ele>
        <time>2021-06-12T10:39:29Z</time>
      </trkpt>
      <trkpt lat="43.335427" lon="-1.752931">
        <ele>16.910</ele>
        <time>2021-06-12T10:39:37Z</time>
      </trkpt>
      <trkpt lat="43.335633" lon="-1.752587">
        <ele>15.508</ele>
        <time>2021-06-12T10:39:45Z</time>
      </trkpt>
      <trkpt lat="43.335739" lon="-1.752390">
        <ele>14.591</ele>
        <time>2021-06-12T10:39:51Z</time>
      </trkpt>
      <trkpt lat="43.335767" lon="-1.752352">
        <ele>14.549</ele>
        <time>2021-06-12T10:39:52Z</time>
      </trkpt>
      <trkpt lat="43.336005" lon="-1.752161">
        <ele>12.160</ele>
        <time>2021-06-12T10:39:59Z</time>
      </trkpt>
      <trkpt lat="43.336253" lon="-1.752106">
        <ele>11.656</ele>
        <time>2021-06-12T10:40:04Z</time>
      </trkpt>
      <trkpt lat="43.336520" lon="-1.752129">
        <ele>11.622</ele>
        <time>2021-06-12T10:40:09Z</time>
      </trkpt>
      <trkpt lat="43.336800" lon="-1.752217">
        <ele>12.634</ele>
        <time>2021-06-12T10:40:15Z</time>
      </trkpt>
      <trkpt lat="43.337146" lon="-1.752339">
        <ele>15.095</ele>
        <time>2021-06-12T10:40:22Z</time>
      </trkpt>
      <trkpt lat="43.337330" lon="-1.752440">
        <ele>16.981</ele>
        <time>2021-06-12T10:40:27Z</time>
      </trkpt>
      <trkpt lat="43.337567" lon="-1.752548">
        <ele>19.357</ele>
        <time>2021-06-12T10:40:34Z</time>
      </trkpt>
      <trkpt lat="43.337750" lon="-1.752637">
        <ele>21.200</ele>
        <time>2021-06-12T10:40:40Z</time>
      </trkpt>
      <trkpt lat="43.337945" lon="-1.752698">
        <ele>22.720</ele>
        <time>2021-06-12T10:40:46Z</time>
      </trkpt>
      <trkpt lat="43.338228" lon="-1.752764">
        <ele>25.108</ele>
        <time>2021-06-12T10:40:53Z</time>
      </trkpt>
      <trkpt lat="43.338447" lon="-1.752780">
        <ele>25.632</ele>
        <time>2021-06-12T10:40:59Z</time>
      </trkpt>
      <trkpt lat="43.338720" lon="-1.752799">
        <ele>25.140</ele>
        <time>2021-06-12T10:41:06Z</time>
      </trkpt>
      <trkpt lat="43.339008" lon="-1.752912">
        <ele>25.111</ele>
        <time>2021-06-12T10:41:13Z</time>
      </trkpt>
      <trkpt lat="43.339214" lon="-1.752979">
        <ele>25.167</ele>
        <time>2021-06-12T10:41:19Z</time>
      </trkpt>
      <trkpt lat="43.339396" lon="-1.752992">
        <ele>24.653</ele>
        <time>2021-06-12T10:41:24Z</time>
      </trkpt>
      <trkpt lat="43.339603" lon="-1.753046">
        <ele>26.525</ele>
        <time>2021-06-12T10:41:30Z</time>
      </trkpt>
      <trkpt lat="43.339858" lon="-1.753131">
        <ele>28.086</ele>
        <time>2021-06-12T10:41:36Z</time>
      </trkpt>
      <trkpt lat="43.340120" lon="-1.753216">
        <ele>27.522</ele>
        <time>2021-06-12T10:41:43Z</time>
      </trkpt>
      <trkpt lat="43.340165" lon="-1.753228">
        <ele>27.535</ele>
        <time>2021-06-12T10:41:44Z</time>
      </trkpt>
      <trkpt lat="43.340209" lon="-1.753239">
        <ele>27.586</ele>
        <time>2021-06-12T10:41:45Z</time>
      </trkpt>
      <trkpt lat="43.340611" lon="-1.753418">
        <ele>23.614</ele>
        <time>2021-06-12T10:41:54Z</time>
      </trkpt>
      <trkpt lat="43.340976" lon="-1.753649">
        <ele>17.408</ele>
        <time>2021-06-12T10:42:03Z</time>
      </trkpt>
      <trkpt lat="43.341231" lon="-1.753888">
        <ele>15.010</ele>
        <time>2021-06-12T10:42:10Z</time>
      </trkpt>
      <trkpt lat="43.341269" lon="-1.753927">
        <ele>15.098</ele>
        <time>2021-06-12T10:42:11Z</time>
      </trkpt>
      <trkpt lat="43.341299" lon="-1.753956">
        <ele>14.589</ele>
        <time>2021-06-12T10:42:12Z</time>
      </trkpt>
      <trkpt lat="43.341332" lon="-1.753991">
        <ele>14.515</ele>
        <time>2021-06-12T10:42:13Z</time>
      </trkpt>
      <trkpt lat="43.341363" lon="-1.754030">
        <ele>14.571</ele>
        <time>2021-06-12T10:42:14Z</time>
      </trkpt>
      <trkpt lat="43.341393" lon="-1.754071">
        <ele>14.533</ele>
        <time>2021-06-12T10:42:15Z</time>
      </trkpt>
      <trkpt lat="43.341431" lon="-1.754115">
        <ele>14.564</ele>
        <time>2021-06-12T10:42:16Z</time>
      </trkpt>
      <trkpt lat="43.341460" lon="-1.754148">
        <ele>14.560</ele>
        <time>2021-06-12T10:42:17Z</time>
      </trkpt>
      <trkpt lat="43.341490" lon="-1.754188">
        <ele>14.529</ele>
        <time>2021-06-12T10:42:18Z</time>
      </trkpt>
      <trkpt lat="43.341608" lon="-1.754346">
        <ele>14.500</ele>
        <time>2021-06-12T10:42:22Z</time>
      </trkpt>
      <trkpt lat="43.341689" lon="-1.754480">
        <ele>14.520</ele>
        <time>2021-06-12T10:42:25Z</time>
      </trkpt>
      <trkpt lat="43.341749" lon="-1.754567">
        <ele>14.008</ele>
        <time>2021-06-12T10:42:27Z</time>
      </trkpt>
      <trkpt lat="43.341964" lon="-1.754918">
        <ele>13.659</ele>
        <time>2021-06-12T10:42:35Z</time>
      </trkpt>
      <trkpt lat="43.342151" lon="-1.755217">
        <ele>12.627</ele>
        <time>2021-06-12T10:42:42Z</time>
      </trkpt>
      <trkpt lat="43.342368" lon="-1.755569">
        <ele>11.638</ele>
        <time>2021-06-12T10:42:51Z</time>
      </trkpt>
      <trkpt lat="43.342432" lon="-1.755658">
        <ele>11.164</ele>
        <time>2021-06-12T10:42:58Z</time>
      </trkpt>
      <trkpt lat="43.342477" lon="-1.755730">
        <ele>10.720</ele>
        <time>2021-06-12T10:43:08Z</time>
      </trkpt>
      <trkpt lat="43.342556" lon="-1.755885">
        <ele>10.762</ele>
        <time>2021-06-12T10:43:14Z</time>
      </trkpt>
      <trkpt lat="43.342718" lon="-1.756150">
        <ele>10.223</ele>
        <time>2021-06-12T10:43:24Z</time>
      </trkpt>
      <trkpt lat="43.342820" lon="-1.756305">
        <ele>9.719</ele>
        <time>2021-06-12T10:43:31Z</time>
      </trkpt>
      <trkpt lat="43.342952" lon="-1.756513">
        <ele>8.794</ele>
        <time>2021-06-12T10:43:39Z</time>
      </trkpt>
      <trkpt lat="43.343068" lon="-1.756700">
        <ele>8.357</ele>
        <time>2021-06-12T10:43:47Z</time>
      </trkpt>
      <trkpt lat="43.343083" lon="-1.756721">
        <ele>7.822</ele>
        <time>2021-06-12T10:43:53Z</time>
      </trkpt>
      <trkpt lat="43.343125" lon="-1.756812">
        <ele>7.308</ele>
        <time>2021-06-12T10:44:08Z</time>
      </trkpt>
      <trkpt lat="43.343211" lon="-1.756973">
        <ele>8.366</ele>
        <time>2021-06-12T10:44:14Z</time>
      </trkpt>
      <trkpt lat="43.343332" lon="-1.757233">
        <ele>8.344</ele>
        <time>2021-06-12T10:44:21Z</time>
      </trkpt>
      <trkpt lat="43.343462" lon="-1.757554">
        <ele>8.785</ele>
        <time>2021-06-12T10:44:28Z</time>
      </trkpt>
      <trkpt lat="43.343618" lon="-1.758006">
        <ele>9.711</ele>
        <time>2021-06-12T10:44:37Z</time>
      </trkpt>
      <trkpt lat="43.343707" lon="-1.758354">
        <ele>9.787</ele>
        <time>2021-06-12T10:44:43Z</time>
      </trkpt>
      <trkpt lat="43.343772" lon="-1.758732">
        <ele>11.139</ele>
        <time>2021-06-12T10:44:50Z</time>
      </trkpt>
      <trkpt lat="43.343825" lon="-1.759119">
        <ele>15.510</ele>
        <time>2021-06-12T10:44:58Z</time>
      </trkpt>
      <trkpt lat="43.343838" lon="-1.759510">
        <ele>16.416</ele>
        <time>2021-06-12T10:45:06Z</time>
      </trkpt>
      <trkpt lat="43.343841" lon="-1.759969">
        <ele>14.024</ele>
        <time>2021-06-12T10:45:15Z</time>
      </trkpt>
      <trkpt lat="43.343847" lon="-1.760381">
        <ele>13.104</ele>
        <time>2021-06-12T10:45:23Z</time>
      </trkpt>
      <trkpt lat="43.343846" lon="-1.760592">
        <ele>12.614</ele>
        <time>2021-06-12T10:45:29Z</time>
      </trkpt>
      <trkpt lat="43.343827" lon="-1.760653">
        <ele>12.608</ele>
        <time>2021-06-12T10:45:31Z</time>
      </trkpt>
      <trkpt lat="43.343811" lon="-1.760679">
        <ele>12.669</ele>
        <time>2021-06-12T10:45:32Z</time>
      </trkpt>
      <trkpt lat="43.343742" lon="-1.760825">
        <ele>12.617</ele>
        <time>2021-06-12T10:45:37Z</time>
      </trkpt>
      <trkpt lat="43.343747" lon="-1.760897">
        <ele>12.128</ele>
        <time>2021-06-12T10:45:39Z</time>
      </trkpt>
      <trkpt lat="43.343813" lon="-1.761203">
        <ele>9.714</ele>
        <time>2021-06-12T10:45:46Z</time>
      </trkpt>
      <trkpt lat="43.343830" lon="-1.761496">
        <ele>8.730</ele>
        <time>2021-06-12T10:45:52Z</time>
      </trkpt>
      <trkpt lat="43.343692" lon="-1.762071">
        <ele>6.862</ele>
        <time>2021-06-12T10:46:02Z</time>
      </trkpt>
      <trkpt lat="43.343591" lon="-1.762355">
        <ele>6.393</ele>
        <time>2021-06-12T10:46:08Z</time>
      </trkpt>
      <trkpt lat="43.343424" lon="-1.762693">
        <ele>7.829</ele>
        <time>2021-06-12T10:46:17Z</time>
      </trkpt>
      <trkpt lat="43.343244" lon="-1.762967">
        <ele>8.322</ele>
        <time>2021-06-12T10:46:25Z</time>
      </trkpt>
      <trkpt lat="43.343106" lon="-1.763154">
        <ele>8.762</ele>
        <time>2021-06-12T10:46:31Z</time>
      </trkpt>
      <trkpt lat="43.342891" lon="-1.763452">
        <ele>10.208</ele>
        <time>2021-06-12T10:46:39Z</time>
      </trkpt>
      <trkpt lat="43.342722" lon="-1.763695">
        <ele>10.208</ele>
        <time>2021-06-12T10:46:46Z</time>
      </trkpt>
      <trkpt lat="43.342623" lon="-1.763949">
        <ele>9.739</ele>
        <time>2021-06-12T10:46:52Z</time>
      </trkpt>
      <trkpt lat="43.342570" lon="-1.764341">
        <ele>7.877</ele>
        <time>2021-06-12T10:47:00Z</time>
      </trkpt>
      <trkpt lat="43.342528" lon="-1.764490">
        <ele>7.348</ele>
        <time>2021-06-12T10:47:06Z</time>
      </trkpt>
      <trkpt lat="43.342492" lon="-1.764533">
        <ele>6.834</ele>
        <time>2021-06-12T10:47:12Z</time>
      </trkpt>
      <trkpt lat="43.342480" lon="-1.764544">
        <ele>6.850</ele>
        <time>2021-06-12T10:47:13Z</time>
      </trkpt>
      <trkpt lat="43.342475" lon="-1.764545">
        <ele>6.362</ele>
        <time>2021-06-12T10:47:18Z</time>
      </trkpt>
      <trkpt lat="43.342477" lon="-1.764536">
        <ele>8.333</ele>
        <time>2021-06-12T10:47:31Z</time>
      </trkpt>
      <trkpt lat="43.342479" lon="-1.764540">
        <ele>8.769</ele>
        <time>2021-06-12T10:47:40Z</time>
      </trkpt>
      <trkpt lat="43.342482" lon="-1.764545">
        <ele>6.817</ele>
        <time>2021-06-12T10:47:53Z</time>
      </trkpt>
      <trkpt lat="43.342480" lon="-1.764561">
        <ele>7.387</ele>
        <time>2021-06-12T10:47:55Z</time>
      </trkpt>
      <trkpt lat="43.342472" lon="-1.764579">
        <ele>7.315</ele>
        <time>2021-06-12T10:47:56Z</time>
      </trkpt>
      <trkpt lat="43.342462" lon="-1.764599">
        <ele>7.308</ele>
        <time>2021-06-12T10:47:57Z</time>
      </trkpt>
      <trkpt lat="43.342455" lon="-1.764627">
        <ele>7.338</ele>
        <time>2021-06-12T10:47:58Z</time>
      </trkpt>
      <trkpt lat="43.342446" lon="-1.764659">
        <ele>7.396</ele>
        <time>2021-06-12T10:47:59Z</time>
      </trkpt>
      <trkpt lat="43.342435" lon="-1.764695">
        <ele>7.347</ele>
        <time>2021-06-12T10:48:00Z</time>
      </trkpt>
      <trkpt lat="43.342390" lon="-1.764977">
        <ele>6.353</ele>
        <time>2021-06-12T10:48:06Z</time>
      </trkpt>
      <trkpt lat="43.342339" lon="-1.765303">
        <ele>6.319</ele>
        <time>2021-06-12T10:48:12Z</time>
      </trkpt>
      <trkpt lat="43.342307" lon="-1.765485">
        <ele>5.431</ele>
        <time>2021-06-12T10:48:15Z</time>
      </trkpt>
      <trkpt lat="43.342237" lon="-1.765893">
        <ele>4.972</ele>
        <time>2021-06-12T10:48:23Z</time>
      </trkpt>
      <trkpt lat="43.342229" lon="-1.765978">
        <ele>4.928</ele>
        <time>2021-06-12T10:48:28Z</time>
      </trkpt>
      <trkpt lat="43.342223" lon="-1.766000">
        <ele>3.968</ele>
        <time>2021-06-12T10:48:37Z</time>
      </trkpt>
      <trkpt lat="43.342217" lon="-1.766011">
        <ele>4.442</ele>
        <time>2021-06-12T10:48:38Z</time>
      </trkpt>
      <trkpt lat="43.342209" lon="-1.766040">
        <ele>4.426</ele>
        <time>2021-06-12T10:48:40Z</time>
      </trkpt>
      <trkpt lat="43.342205" lon="-1.766059">
        <ele>4.408</ele>
        <time>2021-06-12T10:48:41Z</time>
      </trkpt>
      <trkpt lat="43.342202" lon="-1.766080">
        <ele>4.473</ele>
        <time>2021-06-12T10:48:42Z</time>
      </trkpt>
      <trkpt lat="43.342200" lon="-1.766094">
        <ele>4.471</ele>
        <time>2021-06-12T10:48:43Z</time>
      </trkpt>
      <trkpt lat="43.342195" lon="-1.766112">
        <ele>4.412</ele>
        <time>2021-06-12T10:48:44Z</time>
      </trkpt>
      <trkpt lat="43.342192" lon="-1.766129">
        <ele>5.418</ele>
        <time>2021-06-12T10:48:49Z</time>
      </trkpt>
      <trkpt lat="43.342197" lon="-1.766130">
        <ele>7.324</ele>
        <time>2021-06-12T10:48:58Z</time>
      </trkpt>
      <trkpt lat="43.342185" lon="-1.766114">
        <ele>6.866</ele>
        <time>2021-06-12T10:49:08Z</time>
      </trkpt>
      <trkpt lat="43.342202" lon="-1.766112">
        <ele>6.877</ele>
        <time>2021-06-12T10:49:17Z</time>
      </trkpt>
      <trkpt lat="43.342180" lon="-1.766216">
        <ele>6.863</ele>
        <time>2021-06-12T10:49:22Z</time>
      </trkpt>
      <trkpt lat="43.342132" lon="-1.766521">
        <ele>6.392</ele>
        <time>2021-06-12T10:49:29Z</time>
      </trkpt>
      <trkpt lat="43.342061" lon="-1.766995">
        <ele>5.973</ele>
        <time>2021-06-12T10:49:38Z</time>
      </trkpt>
      <trkpt lat="43.342012" lon="-1.767375">
        <ele>5.420</ele>
        <time>2021-06-12T10:49:45Z</time>
      </trkpt>
      <trkpt lat="43.341951" lon="-1.767921">
        <ele>4.408</ele>
        <time>2021-06-12T10:49:55Z</time>
      </trkpt>
      <trkpt lat="43.341887" lon="-1.768542">
        <ele>3.986</ele>
        <time>2021-06-12T10:50:06Z</time>
      </trkpt>
      <trkpt lat="43.341836" lon="-1.769230">
        <ele>3.954</ele>
        <time>2021-06-12T10:50:18Z</time>
      </trkpt>
      <trkpt lat="43.341829" lon="-1.769354">
        <ele>3.965</ele>
        <time>2021-06-12T10:50:20Z</time>
      </trkpt>
      <trkpt lat="43.341796" lon="-1.769998">
        <ele>4.491</ele>
        <time>2021-06-12T10:50:31Z</time>
      </trkpt>
      <trkpt lat="43.341754" lon="-1.770624">
        <ele>4.497</ele>
        <time>2021-06-12T10:50:42Z</time>
      </trkpt>
      <trkpt lat="43.341721" lon="-1.771175">
        <ele>4.449</ele>
        <time>2021-06-12T10:50:52Z</time>
      </trkpt>
      <trkpt lat="43.341675" lon="-1.771747">
        <ele>4.470</ele>
        <time>2021-06-12T10:51:02Z</time>
      </trkpt>
      <trkpt lat="43.341672" lon="-1.771803">
        <ele>4.976</ele>
        <time>2021-06-12T10:51:03Z</time>
      </trkpt>
      <trkpt lat="43.341671" lon="-1.771855">
        <ele>4.965</ele>
        <time>2021-06-12T10:51:04Z</time>
      </trkpt>
      <trkpt lat="43.341705" lon="-1.772160">
        <ele>5.468</ele>
        <time>2021-06-12T10:51:10Z</time>
      </trkpt>
      <trkpt lat="43.341712" lon="-1.772347">
        <ele>5.414</ele>
        <time>2021-06-12T10:51:14Z</time>
      </trkpt>
      <trkpt lat="43.341669" lon="-1.772700">
        <ele>4.908</ele>
        <time>2021-06-12T10:51:21Z</time>
      </trkpt>
      <trkpt lat="43.341711" lon="-1.773356">
        <ele>4.433</ele>
        <time>2021-06-12T10:51:33Z</time>
      </trkpt>
      <trkpt lat="43.341711" lon="-1.773888">
        <ele>4.411</ele>
        <time>2021-06-12T10:51:42Z</time>
      </trkpt>
      <trkpt lat="43.341703" lon="-1.774456">
        <ele>4.422</ele>
        <time>2021-06-12T10:51:52Z</time>
      </trkpt>
      <trkpt lat="43.341623" lon="-1.775068">
        <ele>4.448</ele>
        <time>2021-06-12T10:52:03Z</time>
      </trkpt>
      <trkpt lat="43.341541" lon="-1.775408">
        <ele>4.474</ele>
        <time>2021-06-12T10:52:12Z</time>
      </trkpt>
      <trkpt lat="43.341462" lon="-1.775680">
        <ele>4.926</ele>
        <time>2021-06-12T10:52:21Z</time>
      </trkpt>
      <trkpt lat="43.341319" lon="-1.776008">
        <ele>4.967</ele>
        <time>2021-06-12T10:52:31Z</time>
      </trkpt>
      <trkpt lat="43.341257" lon="-1.776287">
        <ele>5.433</ele>
        <time>2021-06-12T10:52:39Z</time>
      </trkpt>
      <trkpt lat="43.341221" lon="-1.776426">
        <ele>6.352</ele>
        <time>2021-06-12T10:52:46Z</time>
      </trkpt>
      <trkpt lat="43.341213" lon="-1.776420">
        <ele>6.853</ele>
        <time>2021-06-12T10:52:56Z</time>
      </trkpt>
      <trkpt lat="42.843496" lon="-1.681189">
        <ele>404.854</ele>
        <time>2021-06-11T06:37:17Z</time>
      </trkpt>
      <trkpt lat="42.843498" lon="-1.681179">
        <ele>407.756</ele>
        <time>2021-06-11T06:37:30Z</time>
      </trkpt>
      <trkpt lat="42.843430" lon="-1.681365">
        <ele>436.111</ele>
        <time>2021-06-11T06:37:46Z</time>
      </trkpt>
      <trkpt lat="42.843425" lon="-1.681374">
        <ele>438.508</ele>
        <time>2021-06-11T06:37:59Z</time>
      </trkpt>
      <trkpt lat="42.843430" lon="-1.681326">
        <ele>438.932</ele>
        <time>2021-06-11T06:38:11Z</time>
      </trkpt>
      <trkpt lat="42.843378" lon="-1.681216">
        <ele>437.590</ele>
        <time>2021-06-11T06:38:18Z</time>
      </trkpt>
      <trkpt lat="42.843165" lon="-1.681163">
        <ele>432.210</ele>
        <time>2021-06-11T06:38:29Z</time>
      </trkpt>
      <trkpt lat="42.843151" lon="-1.681141">
        <ele>431.268</ele>
        <time>2021-06-11T06:38:30Z</time>
      </trkpt>
      <trkpt lat="42.843199" lon="-1.681033">
        <ele>429.896</ele>
        <time>2021-06-11T06:38:35Z</time>
      </trkpt>
      <trkpt lat="42.843224" lon="-1.681032">
        <ele>429.881</ele>
        <time>2021-06-11T06:38:36Z</time>
      </trkpt>
      <trkpt lat="42.843241" lon="-1.681034">
        <ele>429.850</ele>
        <time>2021-06-11T06:38:37Z</time>
      </trkpt>
      <trkpt lat="42.843261" lon="-1.681040">
        <ele>429.885</ele>
        <time>2021-06-11T06:38:38Z</time>
      </trkpt>
      <trkpt lat="42.843435" lon="-1.681044">
        <ele>427.448</ele>
        <time>2021-06-11T06:38:45Z</time>
      </trkpt>
      <trkpt lat="42.843687" lon="-1.680987">
        <ele>426.061</ele>
        <time>2021-06-11T06:38:53Z</time>
      </trkpt>
      <trkpt lat="42.843976" lon="-1.681013">
        <ele>423.617</ele>
        <time>2021-06-11T06:39:01Z</time>
      </trkpt>
      <trkpt lat="42.844321" lon="-1.681134">
        <ele>424.508</ele>
        <time>2021-06-11T06:39:10Z</time>
      </trkpt>
      <trkpt lat="42.844650" lon="-1.681270">
        <ele>424.561</ele>
        <time>2021-06-11T06:39:19Z</time>
      </trkpt>
      <trkpt lat="42.844951" lon="-1.681414">
        <ele>424.049</ele>
        <time>2021-06-11T06:39:28Z</time>
      </trkpt>
      <trkpt lat="42.845292" lon="-1.681582">
        <ele>424.089</ele>
        <time>2021-06-11T06:39:38Z</time>
      </trkpt>
      <trkpt lat="42.845576" lon="-1.681748">
        <ele>424.597</ele>
        <time>2021-06-11T06:39:47Z</time>
      </trkpt>
      <trkpt lat="42.845840" lon="-1.681881">
        <ele>425.065</ele>
        <time>2021-06-11T06:39:56Z</time>
      </trkpt>
      <trkpt lat="42.846081" lon="-1.682024">
        <ele>426.940</ele>
        <time>2021-06-11T06:40:05Z</time>
      </trkpt>
      <trkpt lat="42.846320" lon="-1.682166">
        <ele>427.989</ele>
        <time>2021-06-11T06:40:15Z</time>
      </trkpt>
      <trkpt lat="42.846557" lon="-1.682351">
        <ele>427.954</ele>
        <time>2021-06-11T06:40:24Z</time>
      </trkpt>
      <trkpt lat="42.846835" lon="-1.682503">
        <ele>427.468</ele>
        <time>2021-06-11T06:40:35Z</time>
      </trkpt>
      <trkpt lat="42.847066" lon="-1.682497">
        <ele>428.442</ele>
        <time>2021-06-11T06:40:44Z</time>
      </trkpt>
      <trkpt lat="42.847273" lon="-1.682378">
        <ele>430.326</ele>
        <time>2021-06-11T06:40:52Z</time>
      </trkpt>
      <trkpt lat="42.847466" lon="-1.682409">
        <ele>431.208</ele>
        <time>2021-06-11T06:40:59Z</time>
      </trkpt>
      <trkpt lat="42.847556" lon="-1.682580">
        <ele>430.863</ele>
        <time>2021-06-11T06:41:04Z</time>
      </trkpt>
      <trkpt lat="42.847654" lon="-1.682723">
        <ele>430.341</ele>
        <time>2021-06-11T06:41:09Z</time>
      </trkpt>
      <trkpt lat="42.847966" lon="-1.682809">
        <ele>430.321</ele>
        <time>2021-06-11T06:41:18Z</time>
      </trkpt>
      <trkpt lat="42.848269" lon="-1.682851">
        <ele>430.359</ele>
        <time>2021-06-11T06:41:26Z</time>
      </trkpt>
      <trkpt lat="42.848732" lon="-1.682921">
        <ele>429.887</ele>
        <time>2021-06-11T06:41:38Z</time>
      </trkpt>
      <trkpt lat="42.849150" lon="-1.682997">
        <ele>430.322</ele>
        <time>2021-06-11T06:41:48Z</time>
      </trkpt>
      <trkpt lat="42.849513" lon="-1.683058">
        <ele>431.241</ele>
        <time>2021-06-11T06:41:57Z</time>
      </trkpt>
      <trkpt lat="42.849990" lon="-1.683147">
        <ele>432.296</ele>
        <time>2021-06-11T06:42:09Z</time>
      </trkpt>
      <trkpt lat="42.850374" lon="-1.683204">
        <ele>433.674</ele>
        <time>2021-06-11T06:42:20Z</time>
      </trkpt>
      <trkpt lat="42.850655" lon="-1.683251">
        <ele>435.156</ele>
        <time>2021-06-11T06:42:30Z</time>
      </trkpt>
      <trkpt lat="42.850898" lon="-1.683285">
        <ele>437.521</ele>
        <time>2021-06-11T06:42:40Z</time>
      </trkpt>
      <trkpt lat="42.851141" lon="-1.683300">
        <ele>440.408</ele>
        <time>2021-06-11T06:42:50Z</time>
      </trkpt>
      <trkpt lat="42.851332" lon="-1.683278">
        <ele>441.364</ele>
        <time>2021-06-11T06:42:58Z</time>
      </trkpt>
      <trkpt lat="42.851585" lon="-1.683195">
        <ele>442.362</ele>
        <time>2021-06-11T06:43:07Z</time>
      </trkpt>
      <trkpt lat="42.851870" lon="-1.683098">
        <ele>441.862</ele>
        <time>2021-06-11T06:43:16Z</time>
      </trkpt>
      <trkpt lat="42.852339" lon="-1.682949">
        <ele>441.830</ele>
        <time>2021-06-11T06:43:28Z</time>
      </trkpt>
      <trkpt lat="42.852857" lon="-1.682789">
        <ele>441.858</ele>
        <time>2021-06-11T06:43:41Z</time>
      </trkpt>
      <trkpt lat="42.853367" lon="-1.682632">
        <ele>442.853</ele>
        <time>2021-06-11T06:43:54Z</time>
      </trkpt>
      <trkpt lat="42.853716" lon="-1.682573">
        <ele>443.782</ele>
        <time>2021-06-11T06:44:04Z</time>
      </trkpt>
      <trkpt lat="42.854108" lon="-1.682649">
        <ele>443.397</ele>
        <time>2021-06-11T06:44:15Z</time>
      </trkpt>
      <trkpt lat="42.854529" lon="-1.682803">
        <ele>443.767</ele>
        <time>2021-06-11T06:44:26Z</time>
      </trkpt>
      <trkpt lat="42.854985" lon="-1.683032">
        <ele>443.781</ele>
        <time>2021-06-11T06:44:38Z</time>
      </trkpt>
      <trkpt lat="42.855283" lon="-1.683269">
        <ele>443.719</ele>
        <time>2021-06-11T06:44:47Z</time>
      </trkpt>
      <trkpt lat="42.855642" lon="-1.683620">
        <ele>443.708</ele>
        <time>2021-06-11T06:44:59Z</time>
      </trkpt>
      <trkpt lat="42.856001" lon="-1.683956">
        <ele>444.263</ele>
        <time>2021-06-11T06:45:11Z</time>
      </trkpt>
      <trkpt lat="42.856393" lon="-1.684321">
        <ele>444.761</ele>
        <time>2021-06-11T06:45:24Z</time>
      </trkpt>
      <trkpt lat="42.856704" lon="-1.684621">
        <ele>445.241</ele>
        <time>2021-06-11T06:45:35Z</time>
      </trkpt>
      <trkpt lat="42.857069" lon="-1.684970">
        <ele>446.659</ele>
        <time>2021-06-11T06:45:48Z</time>
      </trkpt>
      <trkpt lat="42.857377" lon="-1.685226">
        <ele>447.127</ele>
        <time>2021-06-11T06:45:58Z</time>
      </trkpt>
      <trkpt lat="42.857807" lon="-1.685490">
        <ele>446.632</ele>
        <time>2021-06-11T06:46:10Z</time>
      </trkpt>
      <trkpt lat="42.858153" lon="-1.685681">
        <ele>446.191</ele>
        <time>2021-06-11T06:46:19Z</time>
      </trkpt>
      <trkpt lat="42.858554" lon="-1.685879">
        <ele>447.696</ele>
        <time>2021-06-11T06:46:30Z</time>
      </trkpt>
      <trkpt lat="42.858733" lon="-1.685821">
        <ele>449.084</ele>
        <time>2021-06-11T06:46:35Z</time>
      </trkpt>
      <trkpt lat="42.858811" lon="-1.685805">
        <ele>449.007</ele>
        <time>2021-06-11T06:46:37Z</time>
      </trkpt>
      <trkpt lat="42.858849" lon="-1.685819">
        <ele>449.017</ele>
        <time>2021-06-11T06:46:38Z</time>
      </trkpt>
      <trkpt lat="42.858887" lon="-1.685847">
        <ele>449.008</ele>
        <time>2021-06-11T06:46:39Z</time>
      </trkpt>
      <trkpt lat="42.858918" lon="-1.685884">
        <ele>449.535</ele>
        <time>2021-06-11T06:46:40Z</time>
      </trkpt>
      <trkpt lat="42.858942" lon="-1.685930">
        <ele>449.053</ele>
        <time>2021-06-11T06:46:41Z</time>
      </trkpt>
      <trkpt lat="42.858962" lon="-1.685979">
        <ele>449.023</ele>
        <time>2021-06-11T06:46:42Z</time>
      </trkpt>
      <trkpt lat="42.859008" lon="-1.686073">
        <ele>449.091</ele>
        <time>2021-06-11T06:46:44Z</time>
      </trkpt>
      <trkpt lat="42.859046" lon="-1.686114">
        <ele>449.019</ele>
        <time>2021-06-11T06:46:45Z</time>
      </trkpt>
      <trkpt lat="42.859084" lon="-1.686141">
        <ele>448.574</ele>
        <time>2021-06-11T06:46:46Z</time>
      </trkpt>
      <trkpt lat="42.859127" lon="-1.686164">
        <ele>448.553</ele>
        <time>2021-06-11T06:46:47Z</time>
      </trkpt>
      <trkpt lat="42.859169" lon="-1.686187">
        <ele>448.568</ele>
        <time>2021-06-11T06:46:48Z</time>
      </trkpt>
      <trkpt lat="42.859580" lon="-1.686439">
        <ele>449.535</ele>
        <time>2021-06-11T06:46:58Z</time>
      </trkpt>
      <trkpt lat="42.859866" lon="-1.686740">
        <ele>448.586</ele>
        <time>2021-06-11T06:47:07Z</time>
      </trkpt>
      <trkpt lat="42.860080" lon="-1.687068">
        <ele>447.614</ele>
        <time>2021-06-11T06:47:15Z</time>
      </trkpt>
      <trkpt lat="42.860109" lon="-1.687107">
        <ele>447.108</ele>
        <time>2021-06-11T06:47:16Z</time>
      </trkpt>
      <trkpt lat="42.860140" lon="-1.687155">
        <ele>446.660</ele>
        <time>2021-06-11T06:47:17Z</time>
      </trkpt>
      <trkpt lat="42.860199" lon="-1.687237">
        <ele>446.128</ele>
        <time>2021-06-11T06:47:19Z</time>
      </trkpt>
      <trkpt lat="42.860500" lon="-1.687574">
        <ele>446.178</ele>
        <time>2021-06-11T06:47:28Z</time>
      </trkpt>
      <trkpt lat="42.860825" lon="-1.687959">
        <ele>446.626</ele>
        <time>2021-06-11T06:47:38Z</time>
      </trkpt>
      <trkpt lat="42.861020" lon="-1.688285">
        <ele>445.744</ele>
        <time>2021-06-11T06:47:45Z</time>
      </trkpt>
      <trkpt lat="42.861135" lon="-1.688412">
        <ele>444.729</ele>
        <time>2021-06-11T06:47:48Z</time>
      </trkpt>
      <trkpt lat="42.861287" lon="-1.688514">
        <ele>443.798</ele>
        <time>2021-06-11T06:47:50Z</time>
      </trkpt>
      <trkpt lat="42.861356" lon="-1.688543">
        <ele>443.333</ele>
        <time>2021-06-11T06:47:51Z</time>
      </trkpt>
      <trkpt lat="42.862074" lon="-1.688819">
        <ele>442.361</ele>
        <time>2021-06-11T06:48:02Z</time>
      </trkpt>
      <trkpt lat="42.862654" lon="-1.689052">
        <ele>442.321</ele>
        <time>2021-06-11T06:48:12Z</time>
      </trkpt>
      <trkpt lat="42.863138" lon="-1.689240">
        <ele>442.813</ele>
        <time>2021-06-11T06:48:22Z</time>
      </trkpt>
      <trkpt lat="42.863634" lon="-1.689442">
        <ele>443.708</ele>
        <time>2021-06-11T06:48:33Z</time>
      </trkpt>
      <trkpt lat="42.864195" lon="-1.689642">
        <ele>443.363</ele>
        <time>2021-06-11T06:48:46Z</time>
      </trkpt>
      <trkpt lat="42.864594" lon="-1.689743">
        <ele>443.391</ele>
        <time>2021-06-11T06:48:56Z</time>
      </trkpt>
      <trkpt lat="42.864986" lon="-1.689833">
        <ele>443.711</ele>
        <time>2021-06-11T06:49:06Z</time>
      </trkpt>
      <trkpt lat="42.865411" lon="-1.689925">
        <ele>444.719</ele>
        <time>2021-06-11T06:49:17Z</time>
      </trkpt>
      <trkpt lat="42.865814" lon="-1.690018">
        <ele>445.787</ele>
        <time>2021-06-11T06:49:27Z</time>
      </trkpt>
      <trkpt lat="42.866224" lon="-1.690109">
        <ele>446.692</ele>
        <time>2021-06-11T06:49:37Z</time>
      </trkpt>
      <trkpt lat="42.866671" lon="-1.690207">
        <ele>447.141</ele>
        <time>2021-06-11T06:49:48Z</time>
      </trkpt>
      <trkpt lat="42.867262" lon="-1.690332">
        <ele>446.696</ele>
        <time>2021-06-11T06:50:01Z</time>
      </trkpt>
      <trkpt lat="42.867752" lon="-1.690440">
        <ele>447.656</ele>
        <time>2021-06-11T06:50:12Z</time>
      </trkpt>
      <trkpt lat="42.868237" lon="-1.690549">
        <ele>447.659</ele>
        <time>2021-06-11T06:50:23Z</time>
      </trkpt>
      <trkpt lat="42.868696" lon="-1.690660">
        <ele>448.114</ele>
        <time>2021-06-11T06:50:34Z</time>
      </trkpt>
      <trkpt lat="42.869138" lon="-1.690766">
        <ele>449.008</ele>
        <time>2021-06-11T06:50:45Z</time>
      </trkpt>
      <trkpt lat="42.869621" lon="-1.690863">
        <ele>449.082</ele>
        <time>2021-06-11T06:50:57Z</time>
      </trkpt>
      <trkpt lat="42.870128" lon="-1.690980">
        <ele>450.010</ele>
        <time>2021-06-11T06:51:10Z</time>
      </trkpt>
      <trkpt lat="42.870517" lon="-1.691067">
        <ele>450.080</ele>
        <time>2021-06-11T06:51:20Z</time>
      </trkpt>
      <trkpt lat="42.870862" lon="-1.691147">
        <ele>450.588</ele>
        <time>2021-06-11T06:51:29Z</time>
      </trkpt>
      <trkpt lat="42.871276" lon="-1.691237">
        <ele>450.526</ele>
        <time>2021-06-11T06:51:40Z</time>
      </trkpt>
      <trkpt lat="42.871686" lon="-1.691333">
        <ele>451.091</ele>
        <time>2021-06-11T06:51:51Z</time>
      </trkpt>
      <trkpt lat="42.872039" lon="-1.691406">
        <ele>451.460</ele>
        <time>2021-06-11T06:52:01Z</time>
      </trkpt>
      <trkpt lat="42.872425" lon="-1.691479">
        <ele>451.935</ele>
        <time>2021-06-11T06:52:12Z</time>
      </trkpt>
      <trkpt lat="42.872777" lon="-1.691544">
        <ele>453.457</ele>
        <time>2021-06-11T06:52:22Z</time>
      </trkpt>
      <trkpt lat="42.873099" lon="-1.691575">
        <ele>454.300</ele>
        <time>2021-06-11T06:52:31Z</time>
      </trkpt>
      <trkpt lat="42.873488" lon="-1.691492">
        <ele>455.320</ele>
        <time>2021-06-11T06:52:42Z</time>
      </trkpt>
      <trkpt lat="42.873802" lon="-1.691378">
        <ele>456.208</ele>
        <time>2021-06-11T06:52:51Z</time>
      </trkpt>
      <trkpt lat="42.874086" lon="-1.691312">
        <ele>456.752</ele>
        <time>2021-06-11T06:53:00Z</time>
      </trkpt>
      <trkpt lat="42.874386" lon="-1.691309">
        <ele>458.640</ele>
        <time>2021-06-11T06:53:09Z</time>
      </trkpt>
      <trkpt lat="42.874744" lon="-1.691395">
        <ele>458.630</ele>
        <time>2021-06-11T06:53:19Z</time>
      </trkpt>
      <trkpt lat="42.875204" lon="-1.691531">
        <ele>459.648</ele>
        <time>2021-06-11T06:53:32Z</time>
      </trkpt>
      <trkpt lat="42.875547" lon="-1.691632">
        <ele>459.136</ele>
        <time>2021-06-11T06:53:42Z</time>
      </trkpt>
      <trkpt lat="42.875831" lon="-1.691729">
        <ele>460.651</ele>
        <time>2021-06-11T06:53:50Z</time>
      </trkpt>
      <trkpt lat="42.876075" lon="-1.691828">
        <ele>461.580</ele>
        <time>2021-06-11T06:53:57Z</time>
      </trkpt>
      <trkpt lat="42.876382" lon="-1.691950">
        <ele>462.545</ele>
        <time>2021-06-11T06:54:06Z</time>
      </trkpt>
      <trkpt lat="42.876755" lon="-1.692115">
        <ele>461.552</ele>
        <time>2021-06-11T06:54:17Z</time>
      </trkpt>
      <trkpt lat="42.876978" lon="-1.692203">
        <ele>461.053</ele>
        <time>2021-06-11T06:54:24Z</time>
      </trkpt>
      <trkpt lat="42.877286" lon="-1.692346">
        <ele>461.508</ele>
        <time>2021-06-11T06:54:34Z</time>
      </trkpt>
      <trkpt lat="42.877608" lon="-1.692535">
        <ele>460.608</ele>
        <time>2021-06-11T06:54:45Z</time>
      </trkpt>
      <trkpt lat="42.877961" lon="-1.692747">
        <ele>461.052</ele>
        <time>2021-06-11T06:54:57Z</time>
      </trkpt>
      <trkpt lat="42.878272" lon="-1.692941">
        <ele>460.620</ele>
        <time>2021-06-11T06:55:08Z</time>
      </trkpt>
      <trkpt lat="42.878522" lon="-1.693119">
        <ele>460.130</ele>
        <time>2021-06-11T06:55:17Z</time>
      </trkpt>
      <trkpt lat="42.878836" lon="-1.693374">
        <ele>460.138</ele>
        <time>2021-06-11T06:55:28Z</time>
      </trkpt>
      <trkpt lat="42.879182" lon="-1.693550">
        <ele>461.036</ele>
        <time>2021-06-11T06:55:39Z</time>
      </trkpt>
      <trkpt lat="42.879471" lon="-1.693570">
        <ele>463.051</ele>
        <time>2021-06-11T06:55:48Z</time>
      </trkpt>
      <trkpt lat="42.879734" lon="-1.693571">
        <ele>463.420</ele>
        <time>2021-06-11T06:55:57Z</time>
      </trkpt>
      <trkpt lat="42.880049" lon="-1.693617">
        <ele>465.445</ele>
        <time>2021-06-11T06:56:07Z</time>
      </trkpt>
      <trkpt lat="42.880391" lon="-1.693678">
        <ele>466.335</ele>
        <time>2021-06-11T06:56:18Z</time>
      </trkpt>
      <trkpt lat="42.880635" lon="-1.693738">
        <ele>466.386</ele>
        <time>2021-06-11T06:56:26Z</time>
      </trkpt>
      <trkpt lat="42.880898" lon="-1.693786">
        <ele>465.914</ele>
        <time>2021-06-11T06:56:35Z</time>
      </trkpt>
      <trkpt lat="42.881131" lon="-1.693840">
        <ele>467.808</ele>
        <time>2021-06-11T06:56:44Z</time>
      </trkpt>
      <trkpt lat="42.881190" lon="-1.693857">
        <ele>468.340</ele>
        <time>2021-06-11T06:56:51Z</time>
      </trkpt>
      <trkpt lat="42.881170" lon="-1.693846">
        <ele>466.378</ele>
        <time>2021-06-11T06:57:12Z</time>
      </trkpt>
      <trkpt lat="42.881201" lon="-1.693878">
        <ele>465.918</ele>
        <time>2021-06-11T06:57:25Z</time>
      </trkpt>
      <trkpt lat="42.881217" lon="-1.693891">
        <ele>465.916</ele>
        <time>2021-06-11T06:57:26Z</time>
      </trkpt>
      <trkpt lat="42.881237" lon="-1.693903">
        <ele>465.994</ele>
        <time>2021-06-11T06:57:27Z</time>
      </trkpt>
      <trkpt lat="42.881457" lon="-1.694030">
        <ele>466.319</ele>
        <time>2021-06-11T06:57:36Z</time>
      </trkpt>
      <trkpt lat="42.881670" lon="-1.694153">
        <ele>468.338</ele>
        <time>2021-06-11T06:57:44Z</time>
      </trkpt>
      <trkpt lat="42.881884" lon="-1.694274">
        <ele>469.763</ele>
        <time>2021-06-11T06:57:52Z</time>
      </trkpt>
      <trkpt lat="42.882182" lon="-1.694440">
        <ele>472.684</ele>
        <time>2021-06-11T06:58:03Z</time>
      </trkpt>
      <trkpt lat="42.882509" lon="-1.694494">
        <ele>475.007</ele>
        <time>2021-06-11T06:58:14Z</time>
      </trkpt>
      <trkpt lat="42.882788" lon="-1.694434">
        <ele>475.917</ele>
        <time>2021-06-11T06:58:23Z</time>
      </trkpt>
      <trkpt lat="42.883126" lon="-1.694355">
        <ele>476.908</ele>
        <time>2021-06-11T06:58:34Z</time>
      </trkpt>
      <trkpt lat="42.883365" lon="-1.694315">
        <ele>478.315</ele>
        <time>2021-06-11T06:58:42Z</time>
      </trkpt>
      <trkpt lat="42.883673" lon="-1.694192">
        <ele>479.873</ele>
        <time>2021-06-11T06:58:52Z</time>
      </trkpt>
      <trkpt lat="42.883975" lon="-1.694019">
        <ele>480.333</ele>
        <time>2021-06-11T06:59:01Z</time>
      </trkpt>
      <trkpt lat="42.884320" lon="-1.693890">
        <ele>480.851</ele>
        <time>2021-06-11T06:59:11Z</time>
      </trkpt>
      <trkpt lat="42.884680" lon="-1.693780">
        <ele>481.289</ele>
        <time>2021-06-11T06:59:21Z</time>
      </trkpt>
      <trkpt lat="42.884988" lon="-1.693698">
        <ele>483.264</ele>
        <time>2021-06-11T06:59:30Z</time>
      </trkpt>
      <trkpt lat="42.885295" lon="-1.693648">
        <ele>484.673</ele>
        <time>2021-06-11T06:59:39Z</time>
      </trkpt>
      <trkpt lat="42.885733" lon="-1.693619">
        <ele>484.138</ele>
        <time>2021-06-11T06:59:51Z</time>
      </trkpt>
      <trkpt lat="42.886137" lon="-1.693554">
        <ele>483.635</ele>
        <time>2021-06-11T07:00:02Z</time>
      </trkpt>
      <trkpt lat="42.886484" lon="-1.693451">
        <ele>483.286</ele>
        <time>2021-06-11T07:00:11Z</time>
      </trkpt>
      <trkpt lat="42.886787" lon="-1.693323">
        <ele>482.714</ele>
        <time>2021-06-11T07:00:19Z</time>
      </trkpt>
      <trkpt lat="42.887127" lon="-1.693071">
        <ele>482.708</ele>
        <time>2021-06-11T07:00:29Z</time>
      </trkpt>
      <trkpt lat="42.887441" lon="-1.692775">
        <ele>482.770</ele>
        <time>2021-06-11T07:00:39Z</time>
      </trkpt>
      <trkpt lat="42.887830" lon="-1.692414">
        <ele>483.638</ele>
        <time>2021-06-11T07:00:51Z</time>
      </trkpt>
      <trkpt lat="42.888200" lon="-1.692138">
        <ele>484.138</ele>
        <time>2021-06-11T07:01:02Z</time>
      </trkpt>
      <trkpt lat="42.888601" lon="-1.691879">
        <ele>484.136</ele>
        <time>2021-06-11T07:01:13Z</time>
      </trkpt>
      <trkpt lat="42.888878" lon="-1.691709">
        <ele>484.114</ele>
        <time>2021-06-11T07:01:21Z</time>
      </trkpt>
      <trkpt lat="42.889217" lon="-1.691512">
        <ele>484.659</ele>
        <time>2021-06-11T07:01:31Z</time>
      </trkpt>
      <trkpt lat="42.889598" lon="-1.691408">
        <ele>485.158</ele>
        <time>2021-06-11T07:01:42Z</time>
      </trkpt>
      <trkpt lat="42.889911" lon="-1.691350">
        <ele>485.123</ele>
        <time>2021-06-11T07:01:51Z</time>
      </trkpt>
      <trkpt lat="42.890222" lon="-1.691328">
        <ele>486.541</ele>
        <time>2021-06-11T07:02:00Z</time>
      </trkpt>
      <trkpt lat="42.890564" lon="-1.691325">
        <ele>486.581</ele>
        <time>2021-06-11T07:02:10Z</time>
      </trkpt>
      <trkpt lat="42.890944" lon="-1.691329">
        <ele>487.009</ele>
        <time>2021-06-11T07:02:20Z</time>
      </trkpt>
      <trkpt lat="42.891286" lon="-1.691413">
        <ele>486.508</ele>
        <time>2021-06-11T07:02:29Z</time>
      </trkpt>
      <trkpt lat="42.891585" lon="-1.691617">
        <ele>486.011</ele>
        <time>2021-06-11T07:02:38Z</time>
      </trkpt>
      <trkpt lat="42.891886" lon="-1.691832">
        <ele>486.519</ele>
        <time>2021-06-11T07:02:47Z</time>
      </trkpt>
      <trkpt lat="42.892215" lon="-1.692064">
        <ele>488.099</ele>
        <time>2021-06-11T07:02:58Z</time>
      </trkpt>
      <trkpt lat="42.892455" lon="-1.692245">
        <ele>489.917</ele>
        <time>2021-06-11T07:03:08Z</time>
      </trkpt>
      <trkpt lat="42.892612" lon="-1.692403">
        <ele>491.325</ele>
        <time>2021-06-11T07:03:16Z</time>
      </trkpt>
      <trkpt lat="42.892744" lon="-1.692668">
        <ele>492.870</ele>
        <time>2021-06-11T07:03:26Z</time>
      </trkpt>
      <trkpt lat="42.892819" lon="-1.692957">
        <ele>494.719</ele>
        <time>2021-06-11T07:03:35Z</time>
      </trkpt>
      <trkpt lat="42.892893" lon="-1.693189">
        <ele>495.784</ele>
        <time>2021-06-11T07:03:43Z</time>
      </trkpt>
      <trkpt lat="42.893024" lon="-1.693431">
        <ele>497.658</ele>
        <time>2021-06-11T07:03:53Z</time>
      </trkpt>
      <trkpt lat="42.893123" lon="-1.693543">
        <ele>498.152</ele>
        <time>2021-06-11T07:04:01Z</time>
      </trkpt>
      <trkpt lat="42.893266" lon="-1.693669">
        <ele>499.017</ele>
        <time>2021-06-11T07:04:09Z</time>
      </trkpt>
      <trkpt lat="42.893477" lon="-1.693827">
        <ele>499.508</ele>
        <time>2021-06-11T07:04:18Z</time>
      </trkpt>
      <trkpt lat="42.893769" lon="-1.694004">
        <ele>499.562</ele>
        <time>2021-06-11T07:04:29Z</time>
      </trkpt>
      <trkpt lat="42.894051" lon="-1.694169">
        <ele>500.560</ele>
        <time>2021-06-11T07:04:40Z</time>
      </trkpt>
      <trkpt lat="42.894312" lon="-1.694320">
        <ele>501.460</ele>
        <time>2021-06-11T07:04:50Z</time>
      </trkpt>
      <trkpt lat="42.894571" lon="-1.694470">
        <ele>501.988</ele>
        <time>2021-06-11T07:05:00Z</time>
      </trkpt>
      <trkpt lat="42.894857" lon="-1.694654">
        <ele>503.326</ele>
        <time>2021-06-11T07:05:12Z</time>
      </trkpt>
      <trkpt lat="42.895092" lon="-1.694789">
        <ele>504.891</ele>
        <time>2021-06-11T07:05:22Z</time>
      </trkpt>
      <trkpt lat="42.895263" lon="-1.694889">
        <ele>506.230</ele>
        <time>2021-06-11T07:05:30Z</time>
      </trkpt>
      <trkpt lat="42.895451" lon="-1.695004">
        <ele>506.785</ele>
        <time>2021-06-11T07:05:40Z</time>
      </trkpt>
      <trkpt lat="42.895648" lon="-1.695120">
        <ele>508.191</ele>
        <time>2021-06-11T07:05:50Z</time>
      </trkpt>
      <trkpt lat="42.895900" lon="-1.695268">
        <ele>510.181</ele>
        <time>2021-06-11T07:06:03Z</time>
      </trkpt>
      <trkpt lat="42.896099" lon="-1.695390">
        <ele>510.619</ele>
        <time>2021-06-11T07:06:13Z</time>
      </trkpt>
      <trkpt lat="42.896267" lon="-1.695490">
        <ele>512.008</ele>
        <time>2021-06-11T07:06:22Z</time>
      </trkpt>
      <trkpt lat="42.896408" lon="-1.695578">
        <ele>513.926</ele>
        <time>2021-06-11T07:06:30Z</time>
      </trkpt>
      <trkpt lat="42.896598" lon="-1.695694">
        <ele>515.874</ele>
        <time>2021-06-11T07:06:40Z</time>
      </trkpt>
      <trkpt lat="42.896825" lon="-1.695835">
        <ele>517.394</ele>
        <time>2021-06-11T07:06:53Z</time>
      </trkpt>
      <trkpt lat="42.897007" lon="-1.695900">
        <ele>518.762</ele>
        <time>2021-06-11T07:07:03Z</time>
      </trkpt>
      <trkpt lat="42.897040" lon="-1.695915">
        <ele>519.250</ele>
        <time>2021-06-11T07:07:07Z</time>
      </trkpt>
      <trkpt lat="42.897052" lon="-1.695914">
        <ele>519.275</ele>
        <time>2021-06-11T07:07:08Z</time>
      </trkpt>
      <trkpt lat="42.897066" lon="-1.695910">
        <ele>519.294</ele>
        <time>2021-06-11T07:07:09Z</time>
      </trkpt>
      <trkpt lat="42.897179" lon="-1.695896">
        <ele>520.239</ele>
        <time>2021-06-11T07:07:16Z</time>
      </trkpt>
      <trkpt lat="42.897303" lon="-1.695809">
        <ele>520.694</ele>
        <time>2021-06-11T07:07:25Z</time>
      </trkpt>
      <trkpt lat="42.897378" lon="-1.695705">
        <ele>521.157</ele>
        <time>2021-06-11T07:07:32Z</time>
      </trkpt>
      <trkpt lat="42.897454" lon="-1.695583">
        <ele>521.122</ele>
        <time>2021-06-11T07:07:39Z</time>
      </trkpt>
      <trkpt lat="42.897569" lon="-1.695442">
        <ele>521.108</ele>
        <time>2021-06-11T07:07:48Z</time>
      </trkpt>
      <trkpt lat="42.897708" lon="-1.695321">
        <ele>521.626</ele>
        <time>2021-06-11T07:07:57Z</time>
      </trkpt>
      <trkpt lat="42.897833" lon="-1.695250">
        <ele>523.084</ele>
        <time>2021-06-11T07:08:05Z</time>
      </trkpt>
      <trkpt lat="42.897958" lon="-1.695187">
        <ele>525.534</ele>
        <time>2021-06-11T07:08:13Z</time>
      </trkpt>
      <trkpt lat="42.898088" lon="-1.695167">
        <ele>526.992</ele>
        <time>2021-06-11T07:08:20Z</time>
      </trkpt>
      <trkpt lat="42.898108" lon="-1.695162">
        <ele>526.990</ele>
        <time>2021-06-11T07:08:21Z</time>
      </trkpt>
      <trkpt lat="42.898127" lon="-1.695154">
        <ele>527.435</ele>
        <time>2021-06-11T07:08:22Z</time>
      </trkpt>
      <trkpt lat="42.898149" lon="-1.695153">
        <ele>527.464</ele>
        <time>2021-06-11T07:08:23Z</time>
      </trkpt>
      <trkpt lat="42.898169" lon="-1.695158">
        <ele>527.929</ele>
        <time>2021-06-11T07:08:24Z</time>
      </trkpt>
      <trkpt lat="42.898189" lon="-1.695166">
        <ele>527.979</ele>
        <time>2021-06-11T07:08:25Z</time>
      </trkpt>
      <trkpt lat="42.898302" lon="-1.695286">
        <ele>527.905</ele>
        <time>2021-06-11T07:08:32Z</time>
      </trkpt>
      <trkpt lat="42.898345" lon="-1.695519">
        <ele>527.425</ele>
        <time>2021-06-11T07:08:40Z</time>
      </trkpt>
      <trkpt lat="42.898353" lon="-1.695643">
        <ele>527.408</ele>
        <time>2021-06-11T07:08:44Z</time>
      </trkpt>
      <trkpt lat="42.898358" lon="-1.695663">
        <ele>527.414</ele>
        <time>2021-06-11T07:08:45Z</time>
      </trkpt>
      <trkpt lat="42.898359" lon="-1.695679">
        <ele>527.472</ele>
        <time>2021-06-11T07:08:46Z</time>
      </trkpt>
      <trkpt lat="42.898356" lon="-1.695695">
        <ele>527.452</ele>
        <time>2021-06-11T07:08:47Z</time>
      </trkpt>
      <trkpt lat="42.898355" lon="-1.695713">
        <ele>527.420</ele>
        <time>2021-06-11T07:08:48Z</time>
      </trkpt>
      <trkpt lat="42.898358" lon="-1.695732">
        <ele>526.978</ele>
        <time>2021-06-11T07:08:49Z</time>
      </trkpt>
      <trkpt lat="42.898371" lon="-1.695737">
        <ele>527.423</ele>
        <time>2021-06-11T07:08:53Z</time>
      </trkpt>
      <trkpt lat="42.898367" lon="-1.695730">
        <ele>527.412</ele>
        <time>2021-06-11T07:09:03Z</time>
      </trkpt>
      <trkpt lat="42.898364" lon="-1.695717">
        <ele>526.427</ele>
        <time>2021-06-11T07:09:18Z</time>
      </trkpt>
      <trkpt lat="42.898372" lon="-1.695724">
        <ele>527.958</ele>
        <time>2021-06-11T07:09:31Z</time>
      </trkpt>
      <trkpt lat="42.898374" lon="-1.695723">
        <ele>526.952</ele>
        <time>2021-06-11T07:09:46Z</time>
      </trkpt>
      <trkpt lat="42.898378" lon="-1.695737">
        <ele>525.017</ele>
        <time>2021-06-11T07:10:00Z</time>
      </trkpt>
      <trkpt lat="42.898381" lon="-1.695732">
        <ele>523.508</ele>
        <time>2021-06-11T07:10:13Z</time>
      </trkpt>
      <trkpt lat="42.898362" lon="-1.695730">
        <ele>524.042</ele>
        <time>2021-06-11T07:10:28Z</time>
      </trkpt>
      <trkpt lat="42.898360" lon="-1.695714">
        <ele>526.480</ele>
        <time>2021-06-11T07:10:41Z</time>
      </trkpt>
      <trkpt lat="42.898360" lon="-1.695712">
        <ele>526.960</ele>
        <time>2021-06-11T07:10:54Z</time>
      </trkpt>
      <trkpt lat="42.898366" lon="-1.695735">
        <ele>527.938</ele>
        <time>2021-06-11T07:11:08Z</time>
      </trkpt>
      <trkpt lat="42.898361" lon="-1.695722">
        <ele>527.986</ele>
        <time>2021-06-11T07:11:20Z</time>
      </trkpt>
      <trkpt lat="42.898371" lon="-1.695737">
        <ele>526.951</ele>
        <time>2021-06-11T07:11:35Z</time>
      </trkpt>
      <trkpt lat="42.898375" lon="-1.695740">
        <ele>530.350</ele>
        <time>2021-06-11T07:11:53Z</time>
      </trkpt>
      <trkpt lat="42.898373" lon="-1.695746">
        <ele>529.395</ele>
        <time>2021-06-11T07:12:06Z</time>
      </trkpt>
      <trkpt lat="42.898378" lon="-1.695737">
        <ele>527.442</ele>
        <time>2021-06-11T07:12:22Z</time>
      </trkpt>
      <trkpt lat="42.898387" lon="-1.695740">
        <ele>527.422</ele>
        <time>2021-06-11T07:12:35Z</time>
      </trkpt>
      <trkpt lat="42.898392" lon="-1.695752">
        <ele>526.914</ele>
        <time>2021-06-11T07:12:47Z</time>
      </trkpt>
      <trkpt lat="42.898392" lon="-1.695755">
        <ele>525.008</ele>
        <time>2021-06-11T07:12:59Z</time>
      </trkpt>
      <trkpt lat="42.898387" lon="-1.695774">
        <ele>523.571</ele>
        <time>2021-06-11T07:13:15Z</time>
      </trkpt>
      <trkpt lat="42.898383" lon="-1.695766">
        <ele>524.559</ele>
        <time>2021-06-11T07:13:29Z</time>
      </trkpt>
      <trkpt lat="42.898381" lon="-1.695762">
        <ele>525.579</ele>
        <time>2021-06-11T07:13:43Z</time>
      </trkpt>
      <trkpt lat="42.898387" lon="-1.695736">
        <ele>527.937</ele>
        <time>2021-06-11T07:14:00Z</time>
      </trkpt>
      <trkpt lat="42.898377" lon="-1.695725">
        <ele>527.455</ele>
        <time>2021-06-11T07:14:18Z</time>
      </trkpt>
      <trkpt lat="42.898370" lon="-1.695725">
        <ele>526.430</ele>
        <time>2021-06-11T07:14:31Z</time>
      </trkpt>
      <trkpt lat="42.898377" lon="-1.695736">
        <ele>528.389</ele>
        <time>2021-06-11T07:14:47Z</time>
      </trkpt>
      <trkpt lat="42.898369" lon="-1.695739">
        <ele>528.324</ele>
        <time>2021-06-11T07:15:02Z</time>
      </trkpt>
      <trkpt lat="42.898370" lon="-1.695746">
        <ele>529.365</ele>
        <time>2021-06-11T07:15:16Z</time>
      </trkpt>
      <trkpt lat="42.898370" lon="-1.695762">
        <ele>529.368</ele>
        <time>2021-06-11T07:15:35Z</time>
      </trkpt>
      <trkpt lat="42.898374" lon="-1.695758">
        <ele>528.314</ele>
        <time>2021-06-11T07:15:47Z</time>
      </trkpt>
      <trkpt lat="42.898386" lon="-1.695755">
        <ele>529.808</ele>
        <time>2021-06-11T07:16:00Z</time>
      </trkpt>
      <trkpt lat="42.898383" lon="-1.695742">
        <ele>530.773</ele>
        <time>2021-06-11T07:16:12Z</time>
      </trkpt>
      <trkpt lat="42.898379" lon="-1.695744">
        <ele>530.371</ele>
        <time>2021-06-11T07:16:24Z</time>
      </trkpt>
      <trkpt lat="42.898374" lon="-1.695740">
        <ele>529.821</ele>
        <time>2021-06-11T07:16:40Z</time>
      </trkpt>
      <trkpt lat="42.898371" lon="-1.695731">
        <ele>529.869</ele>
        <time>2021-06-11T07:17:00Z</time>
      </trkpt>
      <trkpt lat="42.898383" lon="-1.695736">
        <ele>530.777</ele>
        <time>2021-06-11T07:17:20Z</time>
      </trkpt>
      <trkpt lat="42.898382" lon="-1.695738">
        <ele>530.792</ele>
        <time>2021-06-11T07:17:32Z</time>
      </trkpt>
      <trkpt lat="42.898390" lon="-1.695734">
        <ele>531.241</ele>
        <time>2021-06-11T07:17:45Z</time>
      </trkpt>
      <trkpt lat="42.898377" lon="-1.695720">
        <ele>530.396</ele>
        <time>2021-06-11T07:18:05Z</time>
      </trkpt>
      <trkpt lat="42.898389" lon="-1.695733">
        <ele>532.298</ele>
        <time>2021-06-11T07:18:27Z</time>
      </trkpt>
      <trkpt lat="42.898380" lon="-1.695768">
        <ele>530.715</ele>
        <time>2021-06-11T07:18:37Z</time>
      </trkpt>
      <trkpt lat="42.898363" lon="-1.695799">
        <ele>529.326</ele>
        <time>2021-06-11T07:18:44Z</time>
      </trkpt>
      <trkpt lat="42.898352" lon="-1.695810">
        <ele>529.308</ele>
        <time>2021-06-11T07:18:45Z</time>
      </trkpt>
      <trkpt lat="42.898343" lon="-1.695829">
        <ele>529.346</ele>
        <time>2021-06-11T07:18:46Z</time>
      </trkpt>
      <trkpt lat="42.898339" lon="-1.695852">
        <ele>529.374</ele>
        <time>2021-06-11T07:18:47Z</time>
      </trkpt>
      <trkpt lat="42.898341" lon="-1.695879">
        <ele>529.364</ele>
        <time>2021-06-11T07:18:48Z</time>
      </trkpt>
      <trkpt lat="42.898342" lon="-1.695903">
        <ele>529.362</ele>
        <time>2021-06-11T07:18:49Z</time>
      </trkpt>
      <trkpt lat="42.898341" lon="-1.695932">
        <ele>528.870</ele>
        <time>2021-06-11T07:18:50Z</time>
      </trkpt>
      <trkpt lat="42.898324" lon="-1.696295">
        <ele>529.345</ele>
        <time>2021-06-11T07:19:03Z</time>
      </trkpt>
      <trkpt lat="42.898318" lon="-1.696527">
        <ele>530.744</ele>
        <time>2021-06-11T07:19:12Z</time>
      </trkpt>
      <trkpt lat="42.898316" lon="-1.696801">
        <ele>531.769</ele>
        <time>2021-06-11T07:19:22Z</time>
      </trkpt>
      <trkpt lat="42.898305" lon="-1.697080">
        <ele>532.771</ele>
        <time>2021-06-11T07:19:32Z</time>
      </trkpt>
      <trkpt lat="42.898296" lon="-1.697420">
        <ele>534.141</ele>
        <time>2021-06-11T07:19:44Z</time>
      </trkpt>
      <trkpt lat="42.898351" lon="-1.697588">
        <ele>535.515</ele>
        <time>2021-06-11T07:19:52Z</time>
      </trkpt>
      <trkpt lat="42.898380" lon="-1.697610">
        <ele>536.508</ele>
        <time>2021-06-11T07:19:54Z</time>
      </trkpt>
      <trkpt lat="42.898397" lon="-1.697616">
        <ele>536.514</ele>
        <time>2021-06-11T07:19:55Z</time>
      </trkpt>
      <trkpt lat="42.898416" lon="-1.697616">
        <ele>537.042</ele>
        <time>2021-06-11T07:19:56Z</time>
      </trkpt>
      <trkpt lat="42.898432" lon="-1.697608">
        <ele>537.552</ele>
        <time>2021-06-11T07:19:57Z</time>
      </trkpt>
      <trkpt lat="42.898449" lon="-1.697596">
        <ele>537.950</ele>
        <time>2021-06-11T07:19:58Z</time>
      </trkpt>
      <trkpt lat="42.898465" lon="-1.697583">
        <ele>537.938</ele>
        <time>2021-06-11T07:19:59Z</time>
      </trkpt>
      <trkpt lat="42.898480" lon="-1.697566">
        <ele>538.423</ele>
        <time>2021-06-11T07:20:00Z</time>
      </trkpt>
      <trkpt lat="42.898495" lon="-1.697546">
        <ele>538.432</ele>
        <time>2021-06-11T07:20:01Z</time>
      </trkpt>
      <trkpt lat="42.898633" lon="-1.697344">
        <ele>540.437</ele>
        <time>2021-06-11T07:20:11Z</time>
      </trkpt>
      <trkpt lat="42.898776" lon="-1.697122">
        <ele>540.417</ele>
        <time>2021-06-11T07:20:22Z</time>
      </trkpt>
      <trkpt lat="42.898942" lon="-1.696920">
        <ele>540.487</ele>
        <time>2021-06-11T07:20:33Z</time>
      </trkpt>
      <trkpt lat="42.899121" lon="-1.696769">
        <ele>541.815</ele>
        <time>2021-06-11T07:20:43Z</time>
      </trkpt>
      <trkpt lat="42.899296" lon="-1.696701">
        <ele>542.808</ele>
        <time>2021-06-11T07:20:52Z</time>
      </trkpt>
      <trkpt lat="42.899514" lon="-1.696661">
        <ele>543.788</ele>
        <time>2021-06-11T07:21:03Z</time>
      </trkpt>
      <trkpt lat="42.899702" lon="-1.696653">
        <ele>545.226</ele>
        <time>2021-06-11T07:21:13Z</time>
      </trkpt>
      <trkpt lat="42.899831" lon="-1.696655">
        <ele>547.646</ele>
        <time>2021-06-11T07:21:21Z</time>
      </trkpt>
      <trkpt lat="42.900056" lon="-1.696718">
        <ele>549.024</ele>
        <time>2021-06-11T07:21:33Z</time>
      </trkpt>
      <trkpt lat="42.900243" lon="-1.696809">
        <ele>549.532</ele>
        <time>2021-06-11T07:21:43Z</time>
      </trkpt>
      <trkpt lat="42.900436" lon="-1.696903">
        <ele>551.447</ele>
        <time>2021-06-11T07:21:54Z</time>
      </trkpt>
      <trkpt lat="42.900528" lon="-1.696946">
        <ele>551.436</ele>
        <time>2021-06-11T07:21:59Z</time>
      </trkpt>
      <trkpt lat="42.900692" lon="-1.697030">
        <ele>553.371</ele>
        <time>2021-06-11T07:22:08Z</time>
      </trkpt>
      <trkpt lat="42.900889" lon="-1.697123">
        <ele>555.766</ele>
        <time>2021-06-11T07:22:19Z</time>
      </trkpt>
      <trkpt lat="42.901032" lon="-1.697201">
        <ele>556.229</ele>
        <time>2021-06-11T07:22:28Z</time>
      </trkpt>
      <trkpt lat="42.901180" lon="-1.697274">
        <ele>556.721</ele>
        <time>2021-06-11T07:22:36Z</time>
      </trkpt>
      <trkpt lat="42.901331" lon="-1.697363">
        <ele>557.708</ele>
        <time>2021-06-11T07:22:45Z</time>
      </trkpt>
      <trkpt lat="42.901508" lon="-1.697474">
        <ele>558.673</ele>
        <time>2021-06-11T07:22:56Z</time>
      </trkpt>
      <trkpt lat="42.901658" lon="-1.697567">
        <ele>560.111</ele>
        <time>2021-06-11T07:23:05Z</time>
      </trkpt>
      <trkpt lat="42.901745" lon="-1.697634">
        <ele>561.521</ele>
        <time>2021-06-11T07:23:12Z</time>
      </trkpt>
      <trkpt lat="42.901907" lon="-1.697740">
        <ele>562.519</ele>
        <time>2021-06-11T07:23:22Z</time>
      </trkpt>
      <trkpt lat="42.902072" lon="-1.697846">
        <ele>563.957</ele>
        <time>2021-06-11T07:23:32Z</time>
      </trkpt>
      <trkpt lat="42.902221" lon="-1.697950">
        <ele>565.382</ele>
        <time>2021-06-11T07:23:42Z</time>
      </trkpt>
      <trkpt lat="42.902380" lon="-1.698055">
        <ele>566.381</ele>
        <time>2021-06-11T07:23:52Z</time>
      </trkpt>
      <trkpt lat="42.902549" lon="-1.698162">
        <ele>567.316</ele>
        <time>2021-06-11T07:24:02Z</time>
      </trkpt>
      <trkpt lat="42.902681" lon="-1.698235">
        <ele>568.765</ele>
        <time>2021-06-11T07:24:10Z</time>
      </trkpt>
      <trkpt lat="42.902851" lon="-1.698292">
        <ele>569.268</ele>
        <time>2021-06-11T07:24:20Z</time>
      </trkpt>
      <trkpt lat="42.902938" lon="-1.698299">
        <ele>570.214</ele>
        <time>2021-06-11T07:24:27Z</time>
      </trkpt>
      <trkpt lat="42.903044" lon="-1.698261">
        <ele>572.108</ele>
        <time>2021-06-11T07:24:35Z</time>
      </trkpt>
      <trkpt lat="42.903183" lon="-1.698178">
        <ele>574.583</ele>
        <time>2021-06-11T07:24:44Z</time>
      </trkpt>
      <trkpt lat="42.903325" lon="-1.698081">
        <ele>575.411</ele>
        <time>2021-06-11T07:24:52Z</time>
      </trkpt>
      <trkpt lat="42.903464" lon="-1.698001">
        <ele>575.041</ele>
        <time>2021-06-11T07:25:00Z</time>
      </trkpt>
      <trkpt lat="42.903680" lon="-1.697899">
        <ele>576.429</ele>
        <time>2021-06-11T07:25:13Z</time>
      </trkpt>
      <trkpt lat="42.903818" lon="-1.697876">
        <ele>576.967</ele>
        <time>2021-06-11T07:25:21Z</time>
      </trkpt>
      <trkpt lat="42.903967" lon="-1.697905">
        <ele>578.862</ele>
        <time>2021-06-11T07:25:29Z</time>
      </trkpt>
      <trkpt lat="42.904109" lon="-1.697989">
        <ele>580.231</ele>
        <time>2021-06-11T07:25:37Z</time>
      </trkpt>
      <trkpt lat="42.904221" lon="-1.698136">
        <ele>580.786</ele>
        <time>2021-06-11T07:25:45Z</time>
      </trkpt>
      <trkpt lat="42.904336" lon="-1.698345">
        <ele>581.297</ele>
        <time>2021-06-11T07:25:55Z</time>
      </trkpt>
      <trkpt lat="42.904432" lon="-1.698559">
        <ele>582.723</ele>
        <time>2021-06-11T07:26:05Z</time>
      </trkpt>
      <trkpt lat="42.904534" lon="-1.698822">
        <ele>584.625</ele>
        <time>2021-06-11T07:26:16Z</time>
      </trkpt>
      <trkpt lat="42.904611" lon="-1.699065">
        <ele>585.108</ele>
        <time>2021-06-11T07:26:26Z</time>
      </trkpt>
      <trkpt lat="42.904675" lon="-1.699312">
        <ele>586.576</ele>
        <time>2021-06-11T07:26:36Z</time>
      </trkpt>
      <trkpt lat="42.904715" lon="-1.699460">
        <ele>587.584</ele>
        <time>2021-06-11T07:26:43Z</time>
      </trkpt>
      <trkpt lat="42.904773" lon="-1.699700">
        <ele>588.944</ele>
        <time>2021-06-11T07:26:53Z</time>
      </trkpt>
      <trkpt lat="42.904815" lon="-1.699939">
        <ele>589.492</ele>
        <time>2021-06-11T07:27:03Z</time>
      </trkpt>
      <trkpt lat="42.904833" lon="-1.700188">
        <ele>589.940</ele>
        <time>2021-06-11T07:27:13Z</time>
      </trkpt>
      <trkpt lat="42.904820" lon="-1.700293">
        <ele>590.395</ele>
        <time>2021-06-11T07:27:20Z</time>
      </trkpt>
      <trkpt lat="42.904813" lon="-1.700301">
        <ele>590.334</ele>
        <time>2021-06-11T07:27:27Z</time>
      </trkpt>
      <trkpt lat="42.904825" lon="-1.700283">
        <ele>591.879</ele>
        <time>2021-06-11T07:27:42Z</time>
      </trkpt>
      <trkpt lat="42.904818" lon="-1.700335">
        <ele>591.898</ele>
        <time>2021-06-11T07:27:51Z</time>
      </trkpt>
      <trkpt lat="42.904750" lon="-1.700475">
        <ele>592.715</ele>
        <time>2021-06-11T07:27:58Z</time>
      </trkpt>
      <trkpt lat="42.904626" lon="-1.700649">
        <ele>594.226</ele>
        <time>2021-06-11T07:28:08Z</time>
      </trkpt>
      <trkpt lat="42.904475" lon="-1.700825">
        <ele>596.108</ele>
        <time>2021-06-11T07:28:19Z</time>
      </trkpt>
      <trkpt lat="42.904356" lon="-1.700944">
        <ele>596.616</ele>
        <time>2021-06-11T07:28:27Z</time>
      </trkpt>
      <trkpt lat="42.904185" lon="-1.701024">
        <ele>598.084</ele>
        <time>2021-06-11T07:28:37Z</time>
      </trkpt>
      <trkpt lat="42.904049" lon="-1.701012">
        <ele>597.164</ele>
        <time>2021-06-11T07:28:45Z</time>
      </trkpt>
      <trkpt lat="42.903919" lon="-1.700935">
        <ele>598.052</ele>
        <time>2021-06-11T07:28:53Z</time>
      </trkpt>
      <trkpt lat="42.903733" lon="-1.700809">
        <ele>598.570</ele>
        <time>2021-06-11T07:29:04Z</time>
      </trkpt>
      <trkpt lat="42.903618" lon="-1.700755">
        <ele>599.575</ele>
        <time>2021-06-11T07:29:11Z</time>
      </trkpt>
      <trkpt lat="42.903419" lon="-1.700716">
        <ele>600.474</ele>
        <time>2021-06-11T07:29:22Z</time>
      </trkpt>
      <trkpt lat="42.903272" lon="-1.700794">
        <ele>601.919</ele>
        <time>2021-06-11T07:29:31Z</time>
      </trkpt>
      <trkpt lat="42.903253" lon="-1.700827">
        <ele>602.822</ele>
        <time>2021-06-11T07:29:33Z</time>
      </trkpt>
      <trkpt lat="42.903246" lon="-1.700850">
        <ele>602.862</ele>
        <time>2021-06-11T07:29:34Z</time>
      </trkpt>
      <trkpt lat="42.903239" lon="-1.700874">
        <ele>603.308</ele>
        <time>2021-06-11T07:29:35Z</time>
      </trkpt>
      <trkpt lat="42.903231" lon="-1.700897">
        <ele>603.308</ele>
        <time>2021-06-11T07:29:36Z</time>
      </trkpt>
      <trkpt lat="42.903225" lon="-1.700922">
        <ele>603.839</ele>
        <time>2021-06-11T07:29:37Z</time>
      </trkpt>
      <trkpt lat="42.903222" lon="-1.700946">
        <ele>603.827</ele>
        <time>2021-06-11T07:29:38Z</time>
      </trkpt>
      <trkpt lat="42.903221" lon="-1.700970">
        <ele>603.857</ele>
        <time>2021-06-11T07:29:39Z</time>
      </trkpt>
      <trkpt lat="42.903219" lon="-1.700999">
        <ele>604.315</ele>
        <time>2021-06-11T07:29:40Z</time>
      </trkpt>
      <trkpt lat="42.903218" lon="-1.701024">
        <ele>604.383</ele>
        <time>2021-06-11T07:29:41Z</time>
      </trkpt>
      <trkpt lat="42.903218" lon="-1.701050">
        <ele>604.358</ele>
        <time>2021-06-11T07:29:42Z</time>
      </trkpt>
      <trkpt lat="42.903239" lon="-1.701268">
        <ele>605.717</ele>
        <time>2021-06-11T07:29:51Z</time>
      </trkpt>
      <trkpt lat="42.903295" lon="-1.701479">
        <ele>606.272</ele>
        <time>2021-06-11T07:30:00Z</time>
      </trkpt>
      <trkpt lat="42.903403" lon="-1.701667">
        <ele>608.653</ele>
        <time>2021-06-11T07:30:11Z</time>
      </trkpt>
      <trkpt lat="42.903512" lon="-1.701742">
        <ele>609.604</ele>
        <time>2021-06-11T07:30:18Z</time>
      </trkpt>
      <trkpt lat="42.903678" lon="-1.701790">
        <ele>611.014</ele>
        <time>2021-06-11T07:30:29Z</time>
      </trkpt>
      <trkpt lat="42.903849" lon="-1.701811">
        <ele>612.508</ele>
        <time>2021-06-11T07:30:39Z</time>
      </trkpt>
      <trkpt lat="42.904060" lon="-1.701824">
        <ele>615.332</ele>
        <time>2021-06-11T07:30:50Z</time>
      </trkpt>
      <trkpt lat="42.904229" lon="-1.701816">
        <ele>615.310</ele>
        <time>2021-06-11T07:30:59Z</time>
      </trkpt>
      <trkpt lat="42.904385" lon="-1.701771">
        <ele>615.890</ele>
        <time>2021-06-11T07:31:08Z</time>
      </trkpt>
      <trkpt lat="42.904490" lon="-1.701651">
        <ele>616.888</ele>
        <time>2021-06-11T07:31:15Z</time>
      </trkpt>
      <trkpt lat="42.904618" lon="-1.701489">
        <ele>617.316</ele>
        <time>2021-06-11T07:31:24Z</time>
      </trkpt>
      <trkpt lat="42.904726" lon="-1.701334">
        <ele>616.841</ele>
        <time>2021-06-11T07:31:33Z</time>
      </trkpt>
      <trkpt lat="42.904871" lon="-1.701182">
        <ele>619.260</ele>
        <time>2021-06-11T07:31:43Z</time>
      </trkpt>
      <trkpt lat="42.904898" lon="-1.701167">
        <ele>620.185</ele>
        <time>2021-06-11T07:31:45Z</time>
      </trkpt>
      <trkpt lat="42.904911" lon="-1.701157">
        <ele>620.182</ele>
        <time>2021-06-11T07:31:46Z</time>
      </trkpt>
      <trkpt lat="42.905049" lon="-1.701109">
        <ele>622.143</ele>
        <time>2021-06-11T07:31:55Z</time>
      </trkpt>
      <trkpt lat="42.905183" lon="-1.701072">
        <ele>621.617</ele>
        <time>2021-06-11T07:32:04Z</time>
      </trkpt>
      <trkpt lat="42.905336" lon="-1.701024">
        <ele>621.108</ele>
        <time>2021-06-11T07:32:14Z</time>
      </trkpt>
      <trkpt lat="42.905520" lon="-1.700954">
        <ele>624.065</ele>
        <time>2021-06-11T07:32:24Z</time>
      </trkpt>
      <trkpt lat="42.905684" lon="-1.701018">
        <ele>624.933</ele>
        <time>2021-06-11T07:32:34Z</time>
      </trkpt>
      <trkpt lat="42.905875" lon="-1.701091">
        <ele>626.483</ele>
        <time>2021-06-11T07:32:45Z</time>
      </trkpt>
      <trkpt lat="42.906038" lon="-1.701123">
        <ele>627.861</ele>
        <time>2021-06-11T07:32:55Z</time>
      </trkpt>
      <trkpt lat="42.906146" lon="-1.701139">
        <ele>627.439</ele>
        <time>2021-06-11T07:33:02Z</time>
      </trkpt>
      <trkpt lat="42.906311" lon="-1.701066">
        <ele>629.364</ele>
        <time>2021-06-11T07:33:12Z</time>
      </trkpt>
      <trkpt lat="42.906426" lon="-1.701035">
        <ele>630.783</ele>
        <time>2021-06-11T07:33:19Z</time>
      </trkpt>
      <trkpt lat="42.906539" lon="-1.701057">
        <ele>631.258</ele>
        <time>2021-06-11T07:33:26Z</time>
      </trkpt>
      <trkpt lat="42.906648" lon="-1.701136">
        <ele>632.251</ele>
        <time>2021-06-11T07:33:34Z</time>
      </trkpt>
      <trkpt lat="42.906746" lon="-1.701294">
        <ele>633.101</ele>
        <time>2021-06-11T07:33:43Z</time>
      </trkpt>
      <trkpt lat="42.906844" lon="-1.701450">
        <ele>634.611</ele>
        <time>2021-06-11T07:33:52Z</time>
      </trkpt>
      <trkpt lat="42.906982" lon="-1.701552">
        <ele>635.508</ele>
        <time>2021-06-11T07:34:00Z</time>
      </trkpt>
      <trkpt lat="42.907148" lon="-1.701539">
        <ele>637.472</ele>
        <time>2021-06-11T07:34:09Z</time>
      </trkpt>
      <trkpt lat="42.907300" lon="-1.701446">
        <ele>639.410</ele>
        <time>2021-06-11T07:34:18Z</time>
      </trkpt>
      <trkpt lat="42.907347" lon="-1.701406">
        <ele>639.460</ele>
        <time>2021-06-11T07:34:22Z</time>
      </trkpt>
      <trkpt lat="42.907364" lon="-1.701403">
        <ele>639.418</ele>
        <time>2021-06-11T07:34:23Z</time>
      </trkpt>
      <trkpt lat="42.907383" lon="-1.701402">
        <ele>639.426</ele>
        <time>2021-06-11T07:34:24Z</time>
      </trkpt>
      <trkpt lat="42.907403" lon="-1.701404">
        <ele>639.451</ele>
        <time>2021-06-11T07:34:25Z</time>
      </trkpt>
      <trkpt lat="42.907425" lon="-1.701410">
        <ele>639.480</ele>
        <time>2021-06-11T07:34:26Z</time>
      </trkpt>
      <trkpt lat="42.907444" lon="-1.701416">
        <ele>639.495</ele>
        <time>2021-06-11T07:34:27Z</time>
      </trkpt>
      <trkpt lat="42.907460" lon="-1.701425">
        <ele>639.428</ele>
        <time>2021-06-11T07:34:28Z</time>
      </trkpt>
      <trkpt lat="42.907478" lon="-1.701432">
        <ele>639.489</ele>
        <time>2021-06-11T07:34:29Z</time>
      </trkpt>
      <trkpt lat="42.907496" lon="-1.701440">
        <ele>639.417</ele>
        <time>2021-06-11T07:34:30Z</time>
      </trkpt>
      <trkpt lat="42.907514" lon="-1.701451">
        <ele>639.808</ele>
        <time>2021-06-11T07:34:31Z</time>
      </trkpt>
      <trkpt lat="42.907639" lon="-1.701554">
        <ele>640.389</ele>
        <time>2021-06-11T07:34:39Z</time>
      </trkpt>
      <trkpt lat="42.907876" lon="-1.701595">
        <ele>641.837</ele>
        <time>2021-06-11T07:34:51Z</time>
      </trkpt>
      <trkpt lat="42.908056" lon="-1.701569">
        <ele>643.797</ele>
        <time>2021-06-11T07:35:00Z</time>
      </trkpt>
      <trkpt lat="42.908234" lon="-1.701463">
        <ele>645.165</ele>
        <time>2021-06-11T07:35:09Z</time>
      </trkpt>
      <trkpt lat="42.908468" lon="-1.701291">
        <ele>645.633</ele>
        <time>2021-06-11T07:35:21Z</time>
      </trkpt>
      <trkpt lat="42.908680" lon="-1.701176">
        <ele>644.758</ele>
        <time>2021-06-11T07:35:30Z</time>
      </trkpt>
      <trkpt lat="42.908937" lon="-1.701057">
        <ele>642.717</ele>
        <time>2021-06-11T07:35:37Z</time>
      </trkpt>
      <trkpt lat="42.909294" lon="-1.700869">
        <ele>640.352</ele>
        <time>2021-06-11T07:35:44Z</time>
      </trkpt>
      <trkpt lat="42.909809" lon="-1.700624">
        <ele>637.086</ele>
        <time>2021-06-11T07:35:51Z</time>
      </trkpt>
      <trkpt lat="42.910256" lon="-1.700564">
        <ele>634.660</ele>
        <time>2021-06-11T07:35:56Z</time>
      </trkpt>
      <trkpt lat="42.910551" lon="-1.700537">
        <ele>632.226</ele>
        <time>2021-06-11T07:35:59Z</time>
      </trkpt>
      <trkpt lat="42.910644" lon="-1.700497">
        <ele>631.708</ele>
        <time>2021-06-11T07:36:00Z</time>
      </trkpt>
      <trkpt lat="42.910732" lon="-1.700440">
        <ele>630.785</ele>
        <time>2021-06-11T07:36:01Z</time>
      </trkpt>
      <trkpt lat="42.911065" lon="-1.700176">
        <ele>628.813</ele>
        <time>2021-06-11T07:36:05Z</time>
      </trkpt>
      <trkpt lat="42.911149" lon="-1.700127">
        <ele>627.853</ele>
        <time>2021-06-11T07:36:06Z</time>
      </trkpt>
      <trkpt lat="42.911236" lon="-1.700087">
        <ele>627.421</ele>
        <time>2021-06-11T07:36:07Z</time>
      </trkpt>
      <trkpt lat="42.911425" lon="-1.700025">
        <ele>625.929</ele>
        <time>2021-06-11T07:36:09Z</time>
      </trkpt>
      <trkpt lat="42.912222" lon="-1.699839">
        <ele>621.194</ele>
        <time>2021-06-11T07:36:17Z</time>
      </trkpt>
      <trkpt lat="42.913093" lon="-1.699620">
        <ele>618.773</ele>
        <time>2021-06-11T07:36:27Z</time>
      </trkpt>
      <trkpt lat="42.913641" lon="-1.699402">
        <ele>617.788</ele>
        <time>2021-06-11T07:36:34Z</time>
      </trkpt>
      <trkpt lat="42.914089" lon="-1.699126">
        <ele>614.934</ele>
        <time>2021-06-11T07:36:40Z</time>
      </trkpt>
      <trkpt lat="42.914158" lon="-1.699055">
        <ele>614.955</ele>
        <time>2021-06-11T07:36:41Z</time>
      </trkpt>
      <trkpt lat="42.914221" lon="-1.698970">
        <ele>614.410</ele>
        <time>2021-06-11T07:36:42Z</time>
      </trkpt>
      <trkpt lat="42.914270" lon="-1.698884">
        <ele>613.908</ele>
        <time>2021-06-11T07:36:43Z</time>
      </trkpt>
      <trkpt lat="42.914317" lon="-1.698790">
        <ele>613.470</ele>
        <time>2021-06-11T07:36:44Z</time>
      </trkpt>
      <trkpt lat="42.914359" lon="-1.698693">
        <ele>613.438</ele>
        <time>2021-06-11T07:36:45Z</time>
      </trkpt>
      <trkpt lat="42.914721" lon="-1.697824">
        <ele>610.018</ele>
        <time>2021-06-11T07:36:54Z</time>
      </trkpt>
      <trkpt lat="42.914779" lon="-1.697739">
        <ele>609.656</ele>
        <time>2021-06-11T07:36:55Z</time>
      </trkpt>
      <trkpt lat="42.914845" lon="-1.697663">
        <ele>609.134</ele>
        <time>2021-06-11T07:36:56Z</time>
      </trkpt>
      <trkpt lat="42.914917" lon="-1.697594">
        <ele>608.669</ele>
        <time>2021-06-11T07:36:57Z</time>
      </trkpt>
      <trkpt lat="42.914992" lon="-1.697528">
        <ele>608.628</ele>
        <time>2021-06-11T07:36:58Z</time>
      </trkpt>
      <trkpt lat="42.915627" lon="-1.697012">
        <ele>605.243</ele>
        <time>2021-06-11T07:37:06Z</time>
      </trkpt>
      <trkpt lat="42.916393" lon="-1.696338">
        <ele>600.977</ele>
        <time>2021-06-11T07:37:16Z</time>
      </trkpt>
      <trkpt lat="42.917044" lon="-1.695683">
        <ele>596.661</ele>
        <time>2021-06-11T07:37:25Z</time>
      </trkpt>
      <trkpt lat="42.917581" lon="-1.695066">
        <ele>593.727</ele>
        <time>2021-06-11T07:37:33Z</time>
      </trkpt>
      <trkpt lat="42.917648" lon="-1.695018">
        <ele>593.708</ele>
        <time>2021-06-11T07:37:34Z</time>
      </trkpt>
      <trkpt lat="42.917726" lon="-1.694973">
        <ele>593.214</ele>
        <time>2021-06-11T07:37:35Z</time>
      </trkpt>
      <trkpt lat="42.917818" lon="-1.694934">
        <ele>592.722</ele>
        <time>2021-06-11T07:37:36Z</time>
      </trkpt>
      <trkpt lat="42.918439" lon="-1.694666">
        <ele>589.422</ele>
        <time>2021-06-11T07:37:43Z</time>
      </trkpt>
      <trkpt lat="42.918863" lon="-1.694369">
        <ele>587.040</ele>
        <time>2021-06-11T07:37:48Z</time>
      </trkpt>
      <trkpt lat="42.918946" lon="-1.694331">
        <ele>586.588</ele>
        <time>2021-06-11T07:37:49Z</time>
      </trkpt>
      <trkpt lat="42.919038" lon="-1.694305">
        <ele>586.053</ele>
        <time>2021-06-11T07:37:50Z</time>
      </trkpt>
      <trkpt lat="42.919131" lon="-1.694302">
        <ele>585.532</ele>
        <time>2021-06-11T07:37:51Z</time>
      </trkpt>
      <trkpt lat="42.919225" lon="-1.694314">
        <ele>585.557</ele>
        <time>2021-06-11T07:37:52Z</time>
      </trkpt>
      <trkpt lat="42.919322" lon="-1.694324">
        <ele>585.192</ele>
        <time>2021-06-11T07:37:53Z</time>
      </trkpt>
      <trkpt lat="42.919418" lon="-1.694322">
        <ele>584.673</ele>
        <time>2021-06-11T07:37:54Z</time>
      </trkpt>
      <trkpt lat="42.919602" lon="-1.694299">
        <ele>584.120</ele>
        <time>2021-06-11T07:37:56Z</time>
      </trkpt>
      <trkpt lat="42.919689" lon="-1.694267">
        <ele>583.608</ele>
        <time>2021-06-11T07:37:57Z</time>
      </trkpt>
      <trkpt lat="42.919773" lon="-1.694228">
        <ele>583.616</ele>
        <time>2021-06-11T07:37:58Z</time>
      </trkpt>
      <trkpt lat="42.920315" lon="-1.693850">
        <ele>581.764</ele>
        <time>2021-06-11T07:38:05Z</time>
      </trkpt>
      <trkpt lat="42.920380" lon="-1.693775">
        <ele>581.794</ele>
        <time>2021-06-11T07:38:06Z</time>
      </trkpt>
      <trkpt lat="42.920438" lon="-1.693693">
        <ele>581.752</ele>
        <time>2021-06-11T07:38:07Z</time>
      </trkpt>
      <trkpt lat="42.920752" lon="-1.693146">
        <ele>579.310</ele>
        <time>2021-06-11T07:38:14Z</time>
      </trkpt>
      <trkpt lat="42.921040" lon="-1.692529">
        <ele>577.875</ele>
        <time>2021-06-11T07:38:23Z</time>
      </trkpt>
      <trkpt lat="42.921393" lon="-1.691715">
        <ele>576.994</ele>
        <time>2021-06-11T07:38:34Z</time>
      </trkpt>
      <trkpt lat="42.921697" lon="-1.690990">
        <ele>575.939</ele>
        <time>2021-06-11T07:38:44Z</time>
      </trkpt>
      <trkpt lat="42.921759" lon="-1.690805">
        <ele>575.093</ele>
        <time>2021-06-11T07:38:48Z</time>
      </trkpt>
      <trkpt lat="42.921768" lon="-1.690787">
        <ele>574.565</ele>
        <time>2021-06-11T07:38:52Z</time>
      </trkpt>
      <trkpt lat="42.921767" lon="-1.690768">
        <ele>575.021</ele>
        <time>2021-06-11T07:39:05Z</time>
      </trkpt>
      <trkpt lat="42.921768" lon="-1.690770">
        <ele>575.008</ele>
        <time>2021-06-11T07:39:15Z</time>
      </trkpt>
      <trkpt lat="42.921768" lon="-1.690773">
        <ele>575.046</ele>
        <time>2021-06-11T07:39:27Z</time>
      </trkpt>
      <trkpt lat="42.921767" lon="-1.690773">
        <ele>575.434</ele>
        <time>2021-06-11T07:39:36Z</time>
      </trkpt>
      <trkpt lat="42.921781" lon="-1.690755">
        <ele>575.024</ele>
        <time>2021-06-11T07:39:39Z</time>
      </trkpt>
      <trkpt lat="42.921793" lon="-1.690739">
        <ele>575.422</ele>
        <time>2021-06-11T07:39:40Z</time>
      </trkpt>
      <trkpt lat="42.921805" lon="-1.690714">
        <ele>575.020</ele>
        <time>2021-06-11T07:39:41Z</time>
      </trkpt>
      <trkpt lat="42.921945" lon="-1.690429">
        <ele>575.085</ele>
        <time>2021-06-11T07:39:49Z</time>
      </trkpt>
      <trkpt lat="42.922004" lon="-1.690358">
        <ele>574.534</ele>
        <time>2021-06-11T07:39:51Z</time>
      </trkpt>
      <trkpt lat="42.922039" lon="-1.690330">
        <ele>574.589</ele>
        <time>2021-06-11T07:39:52Z</time>
      </trkpt>
      <trkpt lat="42.922079" lon="-1.690306">
        <ele>574.556</ele>
        <time>2021-06-11T07:39:53Z</time>
      </trkpt>
      <trkpt lat="42.922122" lon="-1.690286">
        <ele>574.559</ele>
        <time>2021-06-11T07:39:54Z</time>
      </trkpt>
      <trkpt lat="42.922166" lon="-1.690274">
        <ele>574.014</ele>
        <time>2021-06-11T07:39:55Z</time>
      </trkpt>
      <trkpt lat="42.922213" lon="-1.690269">
        <ele>574.008</ele>
        <time>2021-06-11T07:39:56Z</time>
      </trkpt>
      <trkpt lat="42.922260" lon="-1.690272">
        <ele>573.562</ele>
        <time>2021-06-11T07:39:57Z</time>
      </trkpt>
      <trkpt lat="42.922315" lon="-1.690286">
        <ele>573.520</ele>
        <time>2021-06-11T07:39:58Z</time>
      </trkpt>
      <trkpt lat="42.922364" lon="-1.690308">
        <ele>573.070</ele>
        <time>2021-06-11T07:39:59Z</time>
      </trkpt>
      <trkpt lat="42.922407" lon="-1.690331">
        <ele>573.038</ele>
        <time>2021-06-11T07:40:00Z</time>
      </trkpt>
      <trkpt lat="42.922880" lon="-1.690641">
        <ele>571.196</ele>
        <time>2021-06-11T07:40:09Z</time>
      </trkpt>
      <trkpt lat="42.923325" lon="-1.690873">
        <ele>570.281</ele>
        <time>2021-06-11T07:40:17Z</time>
      </trkpt>
      <trkpt lat="42.923712" lon="-1.690951">
        <ele>570.260</ele>
        <time>2021-06-11T07:40:24Z</time>
      </trkpt>
      <trkpt lat="42.924001" lon="-1.690990">
        <ele>570.225</ele>
        <time>2021-06-11T07:40:30Z</time>
      </trkpt>
      <trkpt lat="42.924422" lon="-1.691111">
        <ele>568.726</ele>
        <time>2021-06-11T07:40:38Z</time>
      </trkpt>
      <trkpt lat="42.924917" lon="-1.691221">
        <ele>567.847</ele>
        <time>2021-06-11T07:40:46Z</time>
      </trkpt>
      <trkpt lat="42.925405" lon="-1.691228">
        <ele>566.811</ele>
        <time>2021-06-11T07:40:54Z</time>
      </trkpt>
      <trkpt lat="42.925964" lon="-1.691256">
        <ele>566.808</ele>
        <time>2021-06-11T07:41:04Z</time>
      </trkpt>
      <trkpt lat="42.926398" lon="-1.691420">
        <ele>565.389</ele>
        <time>2021-06-11T07:41:12Z</time>
      </trkpt>
      <trkpt lat="42.926826" lon="-1.691601">
        <ele>564.487</ele>
        <time>2021-06-11T07:41:20Z</time>
      </trkpt>
      <trkpt lat="42.927231" lon="-1.691900">
        <ele>562.547</ele>
        <time>2021-06-11T07:41:28Z</time>
      </trkpt>
      <trkpt lat="42.927584" lon="-1.692089">
        <ele>561.575</ele>
        <time>2021-06-11T07:41:34Z</time>
      </trkpt>
      <trkpt lat="42.927647" lon="-1.692099">
        <ele>561.523</ele>
        <time>2021-06-11T07:41:35Z</time>
      </trkpt>
      <trkpt lat="42.928069" lon="-1.692093">
        <ele>560.528</ele>
        <time>2021-06-11T07:41:42Z</time>
      </trkpt>
      <trkpt lat="42.928544" lon="-1.691926">
        <ele>559.137</ele>
        <time>2021-06-11T07:41:50Z</time>
      </trkpt>
      <trkpt lat="42.929188" lon="-1.691607">
        <ele>559.182</ele>
        <time>2021-06-11T07:42:01Z</time>
      </trkpt>
      <trkpt lat="42.929722" lon="-1.691353">
        <ele>559.656</ele>
        <time>2021-06-11T07:42:10Z</time>
      </trkpt>
      <trkpt lat="42.930054" lon="-1.691134">
        <ele>558.159</ele>
        <time>2021-06-11T07:42:16Z</time>
      </trkpt>
      <trkpt lat="42.930462" lon="-1.690721">
        <ele>556.714</ele>
        <time>2021-06-11T07:42:24Z</time>
      </trkpt>
      <trkpt lat="42.930976" lon="-1.690169">
        <ele>554.308</ele>
        <time>2021-06-11T07:42:35Z</time>
      </trkpt>
      <trkpt lat="42.931380" lon="-1.689621">
        <ele>552.442</ele>
        <time>2021-06-11T07:42:45Z</time>
      </trkpt>
      <trkpt lat="42.931739" lon="-1.689083">
        <ele>552.450</ele>
        <time>2021-06-11T07:42:55Z</time>
      </trkpt>
      <trkpt lat="42.932185" lon="-1.688490">
        <ele>550.460</ele>
        <time>2021-06-11T07:43:06Z</time>
      </trkpt>
      <trkpt lat="42.932542" lon="-1.687933">
        <ele>549.528</ele>
        <time>2021-06-11T07:43:15Z</time>
      </trkpt>
      <trkpt lat="42.932834" lon="-1.687301">
        <ele>547.636</ele>
        <time>2021-06-11T07:43:24Z</time>
      </trkpt>
      <trkpt lat="42.933124" lon="-1.686662">
        <ele>545.291</ele>
        <time>2021-06-11T07:43:33Z</time>
      </trkpt>
      <trkpt lat="42.933386" lon="-1.686062">
        <ele>544.240</ele>
        <time>2021-06-11T07:43:41Z</time>
      </trkpt>
      <trkpt lat="42.933657" lon="-1.685315">
        <ele>543.235</ele>
        <time>2021-06-11T07:43:51Z</time>
      </trkpt>
      <trkpt lat="42.933681" lon="-1.685237">
        <ele>543.283</ele>
        <time>2021-06-11T07:43:52Z</time>
      </trkpt>
      <trkpt lat="42.933704" lon="-1.685157">
        <ele>543.225</ele>
        <time>2021-06-11T07:43:53Z</time>
      </trkpt>
      <trkpt lat="42.933918" lon="-1.684494">
        <ele>544.717</ele>
        <time>2021-06-11T07:44:02Z</time>
      </trkpt>
      <trkpt lat="42.934040" lon="-1.684084">
        <ele>544.208</ele>
        <time>2021-06-11T07:44:09Z</time>
      </trkpt>
      <trkpt lat="42.934068" lon="-1.683945">
        <ele>543.745</ele>
        <time>2021-06-11T07:44:15Z</time>
      </trkpt>
      <trkpt lat="42.934112" lon="-1.683643">
        <ele>542.813</ele>
        <time>2021-06-11T07:44:22Z</time>
      </trkpt>
      <trkpt lat="42.934133" lon="-1.683123">
        <ele>541.883</ele>
        <time>2021-06-11T07:44:30Z</time>
      </trkpt>
      <trkpt lat="42.934173" lon="-1.682213">
        <ele>539.941</ele>
        <time>2021-06-11T07:44:43Z</time>
      </trkpt>
      <trkpt lat="42.934215" lon="-1.681431">
        <ele>540.449</ele>
        <time>2021-06-11T07:44:54Z</time>
      </trkpt>
      <trkpt lat="42.934311" lon="-1.680883">
        <ele>541.374</ele>
        <time>2021-06-11T07:45:02Z</time>
      </trkpt>
      <trkpt lat="42.934551" lon="-1.680301">
        <ele>540.843</ele>
        <time>2021-06-11T07:45:11Z</time>
      </trkpt>
      <trkpt lat="42.934777" lon="-1.679801">
        <ele>540.468</ele>
        <time>2021-06-11T07:45:19Z</time>
      </trkpt>
      <trkpt lat="42.935011" lon="-1.679261">
        <ele>539.474</ele>
        <time>2021-06-11T07:45:28Z</time>
      </trkpt>
      <trkpt lat="42.935150" lon="-1.678958">
        <ele>539.456</ele>
        <time>2021-06-11T07:45:33Z</time>
      </trkpt>
      <trkpt lat="42.935307" lon="-1.678482">
        <ele>537.521</ele>
        <time>2021-06-11T07:45:41Z</time>
      </trkpt>
      <trkpt lat="42.935341" lon="-1.677930">
        <ele>537.508</ele>
        <time>2021-06-11T07:45:50Z</time>
      </trkpt>
      <trkpt lat="42.935305" lon="-1.677441">
        <ele>537.034</ele>
        <time>2021-06-11T07:45:58Z</time>
      </trkpt>
      <trkpt lat="42.935313" lon="-1.676769">
        <ele>537.542</ele>
        <time>2021-06-11T07:46:08Z</time>
      </trkpt>
      <trkpt lat="42.935367" lon="-1.676208">
        <ele>536.512</ele>
        <time>2021-06-11T07:46:17Z</time>
      </trkpt>
      <trkpt lat="42.935383" lon="-1.676146">
        <ele>536.030</ele>
        <time>2021-06-11T07:46:18Z</time>
      </trkpt>
      <trkpt lat="42.935404" lon="-1.676083">
        <ele>536.038</ele>
        <time>2021-06-11T07:46:19Z</time>
      </trkpt>
      <trkpt lat="42.935429" lon="-1.676022">
        <ele>536.083</ele>
        <time>2021-06-11T07:46:20Z</time>
      </trkpt>
      <trkpt lat="42.935456" lon="-1.675965">
        <ele>536.092</ele>
        <time>2021-06-11T07:46:21Z</time>
      </trkpt>
      <trkpt lat="42.935538" lon="-1.675807">
        <ele>535.547</ele>
        <time>2021-06-11T07:46:24Z</time>
      </trkpt>
      <trkpt lat="42.935801" lon="-1.675411">
        <ele>533.684</ele>
        <time>2021-06-11T07:46:33Z</time>
      </trkpt>
      <trkpt lat="42.936102" lon="-1.674945">
        <ele>532.707</ele>
        <time>2021-06-11T07:46:41Z</time>
      </trkpt>
      <trkpt lat="42.936340" lon="-1.674372">
        <ele>534.117</ele>
        <time>2021-06-11T07:46:49Z</time>
      </trkpt>
      <trkpt lat="42.936514" lon="-1.673869">
        <ele>534.608</ele>
        <time>2021-06-11T07:46:57Z</time>
      </trkpt>
      <trkpt lat="42.936712" lon="-1.673287">
        <ele>533.695</ele>
        <time>2021-06-11T07:47:07Z</time>
      </trkpt>
      <trkpt lat="42.936923" lon="-1.672664">
        <ele>532.773</ele>
        <time>2021-06-11T07:47:18Z</time>
      </trkpt>
      <trkpt lat="42.937133" lon="-1.672090">
        <ele>533.113</ele>
        <time>2021-06-11T07:47:28Z</time>
      </trkpt>
      <trkpt lat="42.937211" lon="-1.671924">
        <ele>533.111</ele>
        <time>2021-06-11T07:47:31Z</time>
      </trkpt>
      <trkpt lat="42.937243" lon="-1.671871">
        <ele>532.759</ele>
        <time>2021-06-11T07:47:32Z</time>
      </trkpt>
      <trkpt lat="42.937281" lon="-1.671817">
        <ele>533.164</ele>
        <time>2021-06-11T07:47:33Z</time>
      </trkpt>
      <trkpt lat="42.937397" lon="-1.671680">
        <ele>532.783</ele>
        <time>2021-06-11T07:47:36Z</time>
      </trkpt>
      <trkpt lat="42.937858" lon="-1.671299">
        <ele>531.768</ele>
        <time>2021-06-11T07:47:46Z</time>
      </trkpt>
      <trkpt lat="42.938252" lon="-1.670993">
        <ele>531.238</ele>
        <time>2021-06-11T07:47:55Z</time>
      </trkpt>
      <trkpt lat="42.938627" lon="-1.670704">
        <ele>530.770</ele>
        <time>2021-06-11T07:48:04Z</time>
      </trkpt>
      <trkpt lat="42.939004" lon="-1.670400">
        <ele>530.317</ele>
        <time>2021-06-11T07:48:13Z</time>
      </trkpt>
      <trkpt lat="42.939413" lon="-1.670078">
        <ele>529.308</ele>
        <time>2021-06-11T07:48:22Z</time>
      </trkpt>
      <trkpt lat="42.939596" lon="-1.669939">
        <ele>528.860</ele>
        <time>2021-06-11T07:48:26Z</time>
      </trkpt>
      <trkpt lat="42.939642" lon="-1.669900">
        <ele>528.328</ele>
        <time>2021-06-11T07:48:27Z</time>
      </trkpt>
      <trkpt lat="42.940112" lon="-1.669521">
        <ele>527.948</ele>
        <time>2021-06-11T07:48:37Z</time>
      </trkpt>
      <trkpt lat="42.940524" lon="-1.669202">
        <ele>527.466</ele>
        <time>2021-06-11T07:48:46Z</time>
      </trkpt>
      <trkpt lat="42.940992" lon="-1.668834">
        <ele>526.924</ele>
        <time>2021-06-11T07:48:56Z</time>
      </trkpt>
      <trkpt lat="42.941213" lon="-1.668668">
        <ele>526.939</ele>
        <time>2021-06-11T07:49:01Z</time>
      </trkpt>
      <trkpt lat="42.941513" lon="-1.668424">
        <ele>527.958</ele>
        <time>2021-06-11T07:49:09Z</time>
      </trkpt>
      <trkpt lat="42.941690" lon="-1.668274">
        <ele>528.313</ele>
        <time>2021-06-11T07:49:16Z</time>
      </trkpt>
      <trkpt lat="42.941862" lon="-1.668126">
        <ele>529.885</ele>
        <time>2021-06-11T07:49:24Z</time>
      </trkpt>
      <trkpt lat="42.942036" lon="-1.667947">
        <ele>531.289</ele>
        <time>2021-06-11T07:49:33Z</time>
      </trkpt>
      <trkpt lat="42.942171" lon="-1.667752">
        <ele>532.717</ele>
        <time>2021-06-11T07:49:41Z</time>
      </trkpt>
      <trkpt lat="42.942329" lon="-1.667518">
        <ele>534.608</ele>
        <time>2021-06-11T07:49:50Z</time>
      </trkpt>
      <trkpt lat="42.942481" lon="-1.667285">
        <ele>536.545</ele>
        <time>2021-06-11T07:49:59Z</time>
      </trkpt>
      <trkpt lat="42.942648" lon="-1.667033">
        <ele>537.533</ele>
        <time>2021-06-11T07:50:09Z</time>
      </trkpt>
      <trkpt lat="42.942777" lon="-1.666840">
        <ele>538.923</ele>
        <time>2021-06-11T07:50:17Z</time>
      </trkpt>
      <trkpt lat="42.942937" lon="-1.666633">
        <ele>540.421</ele>
        <time>2021-06-11T07:50:26Z</time>
      </trkpt>
      <trkpt lat="42.943092" lon="-1.666479">
        <ele>540.899</ele>
        <time>2021-06-11T07:50:34Z</time>
      </trkpt>
      <trkpt lat="42.943292" lon="-1.666369">
        <ele>542.394</ele>
        <time>2021-06-11T07:50:43Z</time>
      </trkpt>
      <trkpt lat="42.943439" lon="-1.666333">
        <ele>543.223</ele>
        <time>2021-06-11T07:50:51Z</time>
      </trkpt>
      <trkpt lat="42.943590" lon="-1.666313">
        <ele>543.798</ele>
        <time>2021-06-11T07:50:59Z</time>
      </trkpt>
      <trkpt lat="42.943693" lon="-1.666327">
        <ele>544.764</ele>
        <time>2021-06-11T07:51:05Z</time>
      </trkpt>
      <trkpt lat="42.943865" lon="-1.666359">
        <ele>545.606</ele>
        <time>2021-06-11T07:51:14Z</time>
      </trkpt>
      <trkpt lat="42.944002" lon="-1.666410">
        <ele>546.116</ele>
        <time>2021-06-11T07:51:22Z</time>
      </trkpt>
      <trkpt lat="42.944154" lon="-1.666474">
        <ele>547.108</ele>
        <time>2021-06-11T07:51:31Z</time>
      </trkpt>
      <trkpt lat="42.944313" lon="-1.666531">
        <ele>548.563</ele>
        <time>2021-06-11T07:51:39Z</time>
      </trkpt>
      <trkpt lat="42.944473" lon="-1.666554">
        <ele>549.561</ele>
        <time>2021-06-11T07:51:47Z</time>
      </trkpt>
      <trkpt lat="42.944628" lon="-1.666548">
        <ele>550.081</ele>
        <time>2021-06-11T07:51:55Z</time>
      </trkpt>
      <trkpt lat="42.944784" lon="-1.666525">
        <ele>550.419</ele>
        <time>2021-06-11T07:52:03Z</time>
      </trkpt>
      <trkpt lat="42.944942" lon="-1.666513">
        <ele>550.977</ele>
        <time>2021-06-11T07:52:12Z</time>
      </trkpt>
      <trkpt lat="42.945105" lon="-1.666524">
        <ele>552.452</ele>
        <time>2021-06-11T07:52:21Z</time>
      </trkpt>
      <trkpt lat="42.945264" lon="-1.666553">
        <ele>553.341</ele>
        <time>2021-06-11T07:52:30Z</time>
      </trkpt>
      <trkpt lat="42.945427" lon="-1.666522">
        <ele>555.316</ele>
        <time>2021-06-11T07:52:39Z</time>
      </trkpt>
      <trkpt lat="42.945600" lon="-1.666449">
        <ele>557.755</ele>
        <time>2021-06-11T07:52:49Z</time>
      </trkpt>
      <trkpt lat="42.945756" lon="-1.666384">
        <ele>558.607</ele>
        <time>2021-06-11T07:52:58Z</time>
      </trkpt>
      <trkpt lat="42.945883" lon="-1.666344">
        <ele>559.117</ele>
        <time>2021-06-11T07:53:05Z</time>
      </trkpt>
      <trkpt lat="42.945899" lon="-1.666334">
        <ele>559.108</ele>
        <time>2021-06-11T07:53:06Z</time>
      </trkpt>
      <trkpt lat="42.946039" lon="-1.666275">
        <ele>560.562</ele>
        <time>2021-06-11T07:53:14Z</time>
      </trkpt>
      <trkpt lat="42.946211" lon="-1.666208">
        <ele>562.070</ele>
        <time>2021-06-11T07:53:24Z</time>
      </trkpt>
      <trkpt lat="42.946391" lon="-1.666126">
        <ele>562.920</ele>
        <time>2021-06-11T07:53:34Z</time>
      </trkpt>
      <trkpt lat="42.946558" lon="-1.666060">
        <ele>562.968</ele>
        <time>2021-06-11T07:53:43Z</time>
      </trkpt>
      <trkpt lat="42.946696" lon="-1.665968">
        <ele>562.976</ele>
        <time>2021-06-11T07:53:51Z</time>
      </trkpt>
      <trkpt lat="42.946824" lon="-1.665879">
        <ele>563.961</ele>
        <time>2021-06-11T07:53:59Z</time>
      </trkpt>
      <trkpt lat="42.946961" lon="-1.665785">
        <ele>565.390</ele>
        <time>2021-06-11T07:54:07Z</time>
      </trkpt>
      <trkpt lat="42.946977" lon="-1.665775">
        <ele>565.315</ele>
        <time>2021-06-11T07:54:08Z</time>
      </trkpt>
      <trkpt lat="42.947133" lon="-1.665726">
        <ele>566.896</ele>
        <time>2021-06-11T07:54:17Z</time>
      </trkpt>
      <trkpt lat="42.947190" lon="-1.665716">
        <ele>566.831</ele>
        <time>2021-06-11T07:54:20Z</time>
      </trkpt>
      <trkpt lat="42.947209" lon="-1.665715">
        <ele>566.824</ele>
        <time>2021-06-11T07:54:21Z</time>
      </trkpt>
      <trkpt lat="42.947378" lon="-1.665714">
        <ele>568.708</ele>
        <time>2021-06-11T07:54:30Z</time>
      </trkpt>
      <trkpt lat="42.947532" lon="-1.665720">
        <ele>568.726</ele>
        <time>2021-06-11T07:54:38Z</time>
      </trkpt>
      <trkpt lat="42.947686" lon="-1.665718">
        <ele>569.284</ele>
        <time>2021-06-11T07:54:46Z</time>
      </trkpt>
      <trkpt lat="42.947895" lon="-1.665726">
        <ele>569.734</ele>
        <time>2021-06-11T07:54:56Z</time>
      </trkpt>
      <trkpt lat="42.948103" lon="-1.665776">
        <ele>570.652</ele>
        <time>2021-06-11T07:55:07Z</time>
      </trkpt>
      <trkpt lat="42.948285" lon="-1.665863">
        <ele>571.180</ele>
        <time>2021-06-11T07:55:17Z</time>
      </trkpt>
      <trkpt lat="42.948435" lon="-1.665968">
        <ele>571.665</ele>
        <time>2021-06-11T07:55:26Z</time>
      </trkpt>
      <trkpt lat="42.948605" lon="-1.666040">
        <ele>572.654</ele>
        <time>2021-06-11T07:55:35Z</time>
      </trkpt>
      <trkpt lat="42.948764" lon="-1.666051">
        <ele>575.019</ele>
        <time>2021-06-11T07:55:43Z</time>
      </trkpt>
      <trkpt lat="42.948940" lon="-1.666022">
        <ele>575.492</ele>
        <time>2021-06-11T07:55:52Z</time>
      </trkpt>
      <trkpt lat="42.949106" lon="-1.665996">
        <ele>575.973</ele>
        <time>2021-06-11T07:56:00Z</time>
      </trkpt>
      <trkpt lat="42.949302" lon="-1.665996">
        <ele>576.920</ele>
        <time>2021-06-11T07:56:09Z</time>
      </trkpt>
      <trkpt lat="42.949508" lon="-1.666053">
        <ele>577.808</ele>
        <time>2021-06-11T07:56:18Z</time>
      </trkpt>
      <trkpt lat="42.949678" lon="-1.666162">
        <ele>577.436</ele>
        <time>2021-06-11T07:56:26Z</time>
      </trkpt>
      <trkpt lat="42.949778" lon="-1.666288">
        <ele>576.484</ele>
        <time>2021-06-11T07:56:32Z</time>
      </trkpt>
      <trkpt lat="42.949795" lon="-1.666346">
        <ele>575.934</ele>
        <time>2021-06-11T07:56:37Z</time>
      </trkpt>
      <trkpt lat="42.949800" lon="-1.666336">
        <ele>578.372</ele>
        <time>2021-06-11T07:56:52Z</time>
      </trkpt>
      <trkpt lat="42.949796" lon="-1.666348">
        <ele>579.320</ele>
        <time>2021-06-11T07:57:02Z</time>
      </trkpt>
      <trkpt lat="42.949785" lon="-1.666352">
        <ele>580.775</ele>
        <time>2021-06-11T07:57:12Z</time>
      </trkpt>
      <trkpt lat="42.949789" lon="-1.666372">
        <ele>583.644</ele>
        <time>2021-06-11T07:57:27Z</time>
      </trkpt>
      <trkpt lat="42.949777" lon="-1.666363">
        <ele>585.139</ele>
        <time>2021-06-11T07:57:46Z</time>
      </trkpt>
      <trkpt lat="42.949754" lon="-1.666341">
        <ele>585.164</ele>
        <time>2021-06-11T07:58:09Z</time>
      </trkpt>
      <trkpt lat="42.949763" lon="-1.666332">
        <ele>586.506</ele>
        <time>2021-06-11T07:58:23Z</time>
      </trkpt>
      <trkpt lat="42.949757" lon="-1.666341">
        <ele>587.016</ele>
        <time>2021-06-11T07:58:37Z</time>
      </trkpt>
      <trkpt lat="42.949766" lon="-1.666369">
        <ele>585.508</ele>
        <time>2021-06-11T07:58:55Z</time>
      </trkpt>
      <trkpt lat="42.949775" lon="-1.666368">
        <ele>586.083</ele>
        <time>2021-06-11T07:59:09Z</time>
      </trkpt>
      <trkpt lat="42.949798" lon="-1.666353">
        <ele>585.531</ele>
        <time>2021-06-11T07:59:21Z</time>
      </trkpt>
      <trkpt lat="42.949810" lon="-1.666343">
        <ele>587.081</ele>
        <time>2021-06-11T07:59:37Z</time>
      </trkpt>
      <trkpt lat="42.949798" lon="-1.666376">
        <ele>589.449</ele>
        <time>2021-06-11T07:59:57Z</time>
      </trkpt>
      <trkpt lat="42.949783" lon="-1.666361">
        <ele>589.437</ele>
        <time>2021-06-11T08:00:13Z</time>
      </trkpt>
      <trkpt lat="42.949781" lon="-1.666349">
        <ele>588.982</ele>
        <time>2021-06-11T08:00:21Z</time>
      </trkpt>
      <trkpt lat="42.949798" lon="-1.666366">
        <ele>587.941</ele>
        <time>2021-06-11T08:00:39Z</time>
      </trkpt>
      <trkpt lat="42.949803" lon="-1.666368">
        <ele>588.956</ele>
        <time>2021-06-11T08:00:49Z</time>
      </trkpt>
      <trkpt lat="42.949775" lon="-1.666390">
        <ele>587.949</ele>
        <time>2021-06-11T08:01:04Z</time>
      </trkpt>
      <trkpt lat="42.949786" lon="-1.666471">
        <ele>586.002</ele>
        <time>2021-06-11T08:01:14Z</time>
      </trkpt>
      <trkpt lat="42.949789" lon="-1.666598">
        <ele>583.622</ele>
        <time>2021-06-11T08:01:21Z</time>
      </trkpt>
      <trkpt lat="42.949786" lon="-1.666864">
        <ele>581.208</ele>
        <time>2021-06-11T08:01:27Z</time>
      </trkpt>
      <trkpt lat="42.949797" lon="-1.667328">
        <ele>577.881</ele>
        <time>2021-06-11T08:01:34Z</time>
      </trkpt>
      <trkpt lat="42.949837" lon="-1.667965">
        <ele>575.489</ele>
        <time>2021-06-11T08:01:42Z</time>
      </trkpt>
      <trkpt lat="42.949860" lon="-1.668053">
        <ele>575.069</ele>
        <time>2021-06-11T08:01:43Z</time>
      </trkpt>
      <trkpt lat="42.949888" lon="-1.668118">
        <ele>574.557</ele>
        <time>2021-06-11T08:01:44Z</time>
      </trkpt>
      <trkpt lat="42.949989" lon="-1.668322">
        <ele>573.075</ele>
        <time>2021-06-11T08:01:47Z</time>
      </trkpt>
      <trkpt lat="42.950025" lon="-1.668393">
        <ele>572.670</ele>
        <time>2021-06-11T08:01:48Z</time>
      </trkpt>
      <trkpt lat="42.950292" lon="-1.668863">
        <ele>569.749</ele>
        <time>2021-06-11T08:01:54Z</time>
      </trkpt>
      <trkpt lat="42.950333" lon="-1.668963">
        <ele>568.724</ele>
        <time>2021-06-11T08:01:55Z</time>
      </trkpt>
      <trkpt lat="42.950366" lon="-1.669062">
        <ele>568.287</ele>
        <time>2021-06-11T08:01:56Z</time>
      </trkpt>
      <trkpt lat="42.950562" lon="-1.669729">
        <ele>564.442</ele>
        <time>2021-06-11T08:02:02Z</time>
      </trkpt>
      <trkpt lat="42.950916" lon="-1.670464">
        <ele>560.126</ele>
        <time>2021-06-11T08:02:09Z</time>
      </trkpt>
      <trkpt lat="42.951134" lon="-1.670769">
        <ele>558.108</ele>
        <time>2021-06-11T08:02:12Z</time>
      </trkpt>
      <trkpt lat="42.951229" lon="-1.670853">
        <ele>557.785</ele>
        <time>2021-06-11T08:02:13Z</time>
      </trkpt>
      <trkpt lat="42.951318" lon="-1.670916">
        <ele>557.263</ele>
        <time>2021-06-11T08:02:14Z</time>
      </trkpt>
      <trkpt lat="42.951395" lon="-1.670970">
        <ele>556.763</ele>
        <time>2021-06-11T08:02:15Z</time>
      </trkpt>
      <trkpt lat="42.951473" lon="-1.671042">
        <ele>556.281</ele>
        <time>2021-06-11T08:02:16Z</time>
      </trkpt>
      <trkpt lat="42.951538" lon="-1.671124">
        <ele>555.399</ele>
        <time>2021-06-11T08:02:17Z</time>
      </trkpt>
      <trkpt lat="42.951595" lon="-1.671218">
        <ele>554.874</ele>
        <time>2021-06-11T08:02:18Z</time>
      </trkpt>
      <trkpt lat="42.951644" lon="-1.671325">
        <ele>554.343</ele>
        <time>2021-06-11T08:02:19Z</time>
      </trkpt>
      <trkpt lat="42.951691" lon="-1.671454">
        <ele>553.348</ele>
        <time>2021-06-11T08:02:20Z</time>
      </trkpt>
      <trkpt lat="42.951733" lon="-1.671595">
        <ele>552.999</ele>
        <time>2021-06-11T08:02:21Z</time>
      </trkpt>
      <trkpt lat="42.951760" lon="-1.671701">
        <ele>551.907</ele>
        <time>2021-06-11T08:02:22Z</time>
      </trkpt>
      <trkpt lat="42.951866" lon="-1.672435">
        <ele>548.527</ele>
        <time>2021-06-11T08:02:27Z</time>
      </trkpt>
      <trkpt lat="42.951926" lon="-1.673468">
        <ele>542.808</ele>
        <time>2021-06-11T08:02:34Z</time>
      </trkpt>
      <trkpt lat="42.952072" lon="-1.674177">
        <ele>539.466</ele>
        <time>2021-06-11T08:02:39Z</time>
      </trkpt>
      <trkpt lat="42.952209" lon="-1.674524">
        <ele>537.594</ele>
        <time>2021-06-11T08:02:42Z</time>
      </trkpt>
      <trkpt lat="42.952275" lon="-1.674633">
        <ele>537.074</ele>
        <time>2021-06-11T08:02:43Z</time>
      </trkpt>
      <trkpt lat="42.952343" lon="-1.674726">
        <ele>536.552</ele>
        <time>2021-06-11T08:02:44Z</time>
      </trkpt>
      <trkpt lat="42.952414" lon="-1.674804">
        <ele>536.010</ele>
        <time>2021-06-11T08:02:45Z</time>
      </trkpt>
      <trkpt lat="42.952491" lon="-1.674866">
        <ele>535.185</ele>
        <time>2021-06-11T08:02:46Z</time>
      </trkpt>
      <trkpt lat="42.952581" lon="-1.674904">
        <ele>534.614</ele>
        <time>2021-06-11T08:02:47Z</time>
      </trkpt>
      <trkpt lat="42.952671" lon="-1.674923">
        <ele>533.629</ele>
        <time>2021-06-11T08:02:48Z</time>
      </trkpt>
      <trkpt lat="42.952765" lon="-1.674933">
        <ele>533.189</ele>
        <time>2021-06-11T08:02:49Z</time>
      </trkpt>
      <trkpt lat="42.952863" lon="-1.674943">
        <ele>532.706</ele>
        <time>2021-06-11T08:02:50Z</time>
      </trkpt>
      <trkpt lat="42.953157" lon="-1.675014">
        <ele>530.326</ele>
        <time>2021-06-11T08:02:53Z</time>
      </trkpt>
      <trkpt lat="42.953254" lon="-1.675068">
        <ele>529.808</ele>
        <time>2021-06-11T08:02:54Z</time>
      </trkpt>
      <trkpt lat="42.953337" lon="-1.675129">
        <ele>529.375</ele>
        <time>2021-06-11T08:02:55Z</time>
      </trkpt>
      <trkpt lat="42.953425" lon="-1.675205">
        <ele>528.353</ele>
        <time>2021-06-11T08:02:56Z</time>
      </trkpt>
      <trkpt lat="42.953500" lon="-1.675278">
        <ele>527.933</ele>
        <time>2021-06-11T08:02:57Z</time>
      </trkpt>
      <trkpt lat="42.953571" lon="-1.675355">
        <ele>526.931</ele>
        <time>2021-06-11T08:02:58Z</time>
      </trkpt>
      <trkpt lat="42.953897" lon="-1.675834">
        <ele>523.599</ele>
        <time>2021-06-11T08:03:03Z</time>
      </trkpt>
      <trkpt lat="42.954006" lon="-1.676033">
        <ele>522.664</ele>
        <time>2021-06-11T08:03:05Z</time>
      </trkpt>
      <trkpt lat="42.954075" lon="-1.676122">
        <ele>522.123</ele>
        <time>2021-06-11T08:03:06Z</time>
      </trkpt>
      <trkpt lat="42.954284" lon="-1.676341">
        <ele>521.168</ele>
        <time>2021-06-11T08:03:09Z</time>
      </trkpt>
      <trkpt lat="42.954373" lon="-1.676405">
        <ele>520.685</ele>
        <time>2021-06-11T08:03:10Z</time>
      </trkpt>
      <trkpt lat="42.954462" lon="-1.676461">
        <ele>519.789</ele>
        <time>2021-06-11T08:03:11Z</time>
      </trkpt>
      <trkpt lat="42.954553" lon="-1.676505">
        <ele>519.217</ele>
        <time>2021-06-11T08:03:12Z</time>
      </trkpt>
      <trkpt lat="42.954649" lon="-1.676540">
        <ele>518.208</ele>
        <time>2021-06-11T08:03:13Z</time>
      </trkpt>
      <trkpt lat="42.954749" lon="-1.676574">
        <ele>517.825</ele>
        <time>2021-06-11T08:03:14Z</time>
      </trkpt>
      <trkpt lat="42.955208" lon="-1.676716">
        <ele>517.353</ele>
        <time>2021-06-11T08:03:20Z</time>
      </trkpt>
      <trkpt lat="42.955885" lon="-1.676915">
        <ele>516.883</ele>
        <time>2021-06-11T08:03:30Z</time>
      </trkpt>
      <trkpt lat="42.956310" lon="-1.677053">
        <ele>516.821</ele>
        <time>2021-06-11T08:03:38Z</time>
      </trkpt>
      <trkpt lat="42.956533" lon="-1.677113">
        <ele>517.319</ele>
        <time>2021-06-11T08:03:44Z</time>
      </trkpt>
      <trkpt lat="42.956658" lon="-1.677111">
        <ele>517.354</ele>
        <time>2021-06-11T08:03:50Z</time>
      </trkpt>
      <trkpt lat="42.956656" lon="-1.677112">
        <ele>518.213</ele>
        <time>2021-06-11T08:03:57Z</time>
      </trkpt>
      <trkpt lat="42.956637" lon="-1.677121">
        <ele>521.658</ele>
        <time>2021-06-11T08:04:25Z</time>
      </trkpt>
      <trkpt lat="42.956643" lon="-1.677114">
        <ele>521.118</ele>
        <time>2021-06-11T08:04:35Z</time>
      </trkpt>
      <trkpt lat="42.956640" lon="-1.677109">
        <ele>520.698</ele>
        <time>2021-06-11T08:04:47Z</time>
      </trkpt>
      <trkpt lat="42.956646" lon="-1.677096">
        <ele>522.117</ele>
        <time>2021-06-11T08:05:07Z</time>
      </trkpt>
      <trkpt lat="42.956660" lon="-1.677114">
        <ele>519.708</ele>
        <time>2021-06-11T08:05:29Z</time>
      </trkpt>
      <trkpt lat="42.956669" lon="-1.677107">
        <ele>519.238</ele>
        <time>2021-06-11T08:05:45Z</time>
      </trkpt>
      <trkpt lat="42.956668" lon="-1.677106">
        <ele>519.776</ele>
        <time>2021-06-11T08:05:59Z</time>
      </trkpt>
      <trkpt lat="42.956652" lon="-1.677109">
        <ele>518.276</ele>
        <time>2021-06-11T08:06:16Z</time>
      </trkpt>
      <trkpt lat="42.956651" lon="-1.677115">
        <ele>519.244</ele>
        <time>2021-06-11T08:06:33Z</time>
      </trkpt>
      <trkpt lat="42.956645" lon="-1.677131">
        <ele>520.682</ele>
        <time>2021-06-11T08:06:51Z</time>
      </trkpt>
      <trkpt lat="42.956641" lon="-1.677149">
        <ele>520.647</ele>
        <time>2021-06-11T08:07:06Z</time>
      </trkpt>
      <trkpt lat="42.956650" lon="-1.677125">
        <ele>523.076</ele>
        <time>2021-06-11T08:07:27Z</time>
      </trkpt>
      <trkpt lat="42.956654" lon="-1.677119">
        <ele>522.161</ele>
        <time>2021-06-11T08:07:38Z</time>
      </trkpt>
      <trkpt lat="42.956657" lon="-1.677118">
        <ele>521.691</ele>
        <time>2021-06-11T08:07:48Z</time>
      </trkpt>
      <trkpt lat="42.956625" lon="-1.677147">
        <ele>521.681</ele>
        <time>2021-06-11T08:07:55Z</time>
      </trkpt>
      <trkpt lat="42.956611" lon="-1.677155">
        <ele>521.619</ele>
        <time>2021-06-11T08:07:56Z</time>
      </trkpt>
      <trkpt lat="42.956600" lon="-1.677159">
        <ele>521.608</ele>
        <time>2021-06-11T08:07:57Z</time>
      </trkpt>
      <trkpt lat="42.956591" lon="-1.677159">
        <ele>521.696</ele>
        <time>2021-06-11T08:07:58Z</time>
      </trkpt>
      <trkpt lat="42.956580" lon="-1.677159">
        <ele>522.174</ele>
        <time>2021-06-11T08:07:59Z</time>
      </trkpt>
      <trkpt lat="42.956569" lon="-1.677173">
        <ele>523.044</ele>
        <time>2021-06-11T08:08:07Z</time>
      </trkpt>
      <trkpt lat="42.956540" lon="-1.677190">
        <ele>523.042</ele>
        <time>2021-06-11T08:08:12Z</time>
      </trkpt>
      <trkpt lat="42.956557" lon="-1.677273">
        <ele>521.670</ele>
        <time>2021-06-11T08:08:16Z</time>
      </trkpt>
      <trkpt lat="42.956571" lon="-1.677301">
        <ele>520.635</ele>
        <time>2021-06-11T08:08:17Z</time>
      </trkpt>
      <trkpt lat="42.956580" lon="-1.677321">
        <ele>520.224</ele>
        <time>2021-06-11T08:08:18Z</time>
      </trkpt>
      <trkpt lat="42.956590" lon="-1.677344">
        <ele>519.739</ele>
        <time>2021-06-11T08:08:19Z</time>
      </trkpt>
      <trkpt lat="42.956598" lon="-1.677364">
        <ele>519.246</ele>
        <time>2021-06-11T08:08:20Z</time>
      </trkpt>
      <trkpt lat="42.956609" lon="-1.677456">
        <ele>516.888</ele>
        <time>2021-06-11T08:08:27Z</time>
      </trkpt>
      <trkpt lat="42.956601" lon="-1.677458">
        <ele>516.816</ele>
        <time>2021-06-11T08:08:39Z</time>
      </trkpt>
      <trkpt lat="42.956604" lon="-1.677455">
        <ele>518.208</ele>
        <time>2021-06-11T08:08:47Z</time>
      </trkpt>
      <trkpt lat="42.956608" lon="-1.677458">
        <ele>519.741</ele>
        <time>2021-06-11T08:09:00Z</time>
      </trkpt>
      <trkpt lat="42.956601" lon="-1.677466">
        <ele>525.089</ele>
        <time>2021-06-11T08:09:16Z</time>
      </trkpt>
      <trkpt lat="42.956593" lon="-1.677507">
        <ele>526.969</ele>
        <time>2021-06-11T08:09:32Z</time>
      </trkpt>
      <trkpt lat="42.956585" lon="-1.677524">
        <ele>526.437</ele>
        <time>2021-06-11T08:09:34Z</time>
      </trkpt>
      <trkpt lat="42.956551" lon="-1.677591">
        <ele>525.095</ele>
        <time>2021-06-11T08:09:40Z</time>
      </trkpt>
      <trkpt lat="42.956559" lon="-1.677628">
        <ele>524.070</ele>
        <time>2021-06-11T08:09:59Z</time>
      </trkpt>
      <trkpt lat="42.956515" lon="-1.677697">
        <ele>522.699</ele>
        <time>2021-06-11T08:10:05Z</time>
      </trkpt>
      <trkpt lat="42.956445" lon="-1.677820">
        <ele>522.144</ele>
        <time>2021-06-11T08:10:10Z</time>
      </trkpt>
      <trkpt lat="42.956321" lon="-1.678146">
        <ele>521.129</ele>
        <time>2021-06-11T08:10:18Z</time>
      </trkpt>
      <trkpt lat="42.956199" lon="-1.678367">
        <ele>520.600</ele>
        <time>2021-06-11T08:10:24Z</time>
      </trkpt>
      <trkpt lat="42.956044" lon="-1.678696">
        <ele>520.620</ele>
        <time>2021-06-11T08:10:32Z</time>
      </trkpt>
      <trkpt lat="42.955852" lon="-1.678926">
        <ele>521.608</ele>
        <time>2021-06-11T08:10:39Z</time>
      </trkpt>
      <trkpt lat="42.955795" lon="-1.679166">
        <ele>519.789</ele>
        <time>2021-06-11T08:10:45Z</time>
      </trkpt>
      <trkpt lat="42.955803" lon="-1.679487">
        <ele>518.797</ele>
        <time>2021-06-11T08:10:52Z</time>
      </trkpt>
      <trkpt lat="42.955753" lon="-1.679781">
        <ele>517.357</ele>
        <time>2021-06-11T08:10:58Z</time>
      </trkpt>
      <trkpt lat="42.955745" lon="-1.680007">
        <ele>515.885</ele>
        <time>2021-06-11T08:11:03Z</time>
      </trkpt>
      <trkpt lat="42.955693" lon="-1.680314">
        <ele>514.423</ele>
        <time>2021-06-11T08:11:10Z</time>
      </trkpt>
      <trkpt lat="42.955665" lon="-1.680623">
        <ele>513.478</ele>
        <time>2021-06-11T08:11:18Z</time>
      </trkpt>
      <trkpt lat="42.955646" lon="-1.680956">
        <ele>511.097</ele>
        <time>2021-06-11T08:11:27Z</time>
      </trkpt>
      <trkpt lat="42.955701" lon="-1.681256">
        <ele>510.652</ele>
        <time>2021-06-11T08:11:34Z</time>
      </trkpt>
      <trkpt lat="42.955700" lon="-1.681479">
        <ele>509.148</ele>
        <time>2021-06-11T08:11:40Z</time>
      </trkpt>
      <trkpt lat="42.955706" lon="-1.681670">
        <ele>508.161</ele>
        <time>2021-06-11T08:11:46Z</time>
      </trkpt>
      <trkpt lat="42.955771" lon="-1.681901">
        <ele>505.717</ele>
        <time>2021-06-11T08:11:53Z</time>
      </trkpt>
      <trkpt lat="42.955903" lon="-1.682101">
        <ele>504.808</ele>
        <time>2021-06-11T08:12:00Z</time>
      </trkpt>
      <trkpt lat="42.956038" lon="-1.682310">
        <ele>506.291</ele>
        <time>2021-06-11T08:12:07Z</time>
      </trkpt>
      <trkpt lat="42.956129" lon="-1.682525">
        <ele>506.769</ele>
        <time>2021-06-11T08:12:13Z</time>
      </trkpt>
      <trkpt lat="42.956282" lon="-1.682737">
        <ele>507.719</ele>
        <time>2021-06-11T08:12:20Z</time>
      </trkpt>
      <trkpt lat="42.956434" lon="-1.682766">
        <ele>512.567</ele>
        <time>2021-06-11T08:12:26Z</time>
      </trkpt>
      <trkpt lat="42.956478" lon="-1.682764">
        <ele>513.985</ele>
        <time>2021-06-11T08:12:28Z</time>
      </trkpt>
      <trkpt lat="42.956557" lon="-1.682832">
        <ele>517.840</ele>
        <time>2021-06-11T08:12:32Z</time>
      </trkpt>
      <trkpt lat="42.956689" lon="-1.682944">
        <ele>521.679</ele>
        <time>2021-06-11T08:12:39Z</time>
      </trkpt>
      <trkpt lat="42.956793" lon="-1.683013">
        <ele>524.034</ele>
        <time>2021-06-11T08:12:45Z</time>
      </trkpt>
      <trkpt lat="42.956905" lon="-1.683079">
        <ele>524.555</ele>
        <time>2021-06-11T08:12:52Z</time>
      </trkpt>
      <trkpt lat="42.957023" lon="-1.683177">
        <ele>525.007</ele>
        <time>2021-06-11T08:12:58Z</time>
      </trkpt>
      <trkpt lat="42.957196" lon="-1.683301">
        <ele>526.417</ele>
        <time>2021-06-11T08:13:06Z</time>
      </trkpt>
      <trkpt lat="42.957348" lon="-1.683394">
        <ele>528.808</ele>
        <time>2021-06-11T08:13:14Z</time>
      </trkpt>
      <trkpt lat="42.957419" lon="-1.683437">
        <ele>529.852</ele>
        <time>2021-06-11T08:13:21Z</time>
      </trkpt>
      <trkpt lat="42.957454" lon="-1.683457">
        <ele>529.310</ele>
        <time>2021-06-11T08:13:28Z</time>
      </trkpt>
      <trkpt lat="42.957470" lon="-1.683469">
        <ele>531.740</ele>
        <time>2021-06-11T08:13:43Z</time>
      </trkpt>
      <trkpt lat="42.957490" lon="-1.683482">
        <ele>532.288</ele>
        <time>2021-06-11T08:13:53Z</time>
      </trkpt>
      <trkpt lat="42.957508" lon="-1.683486">
        <ele>532.766</ele>
        <time>2021-06-11T08:14:02Z</time>
      </trkpt>
      <trkpt lat="42.957520" lon="-1.683465">
        <ele>534.631</ele>
        <time>2021-06-11T08:14:17Z</time>
      </trkpt>
      <trkpt lat="42.957526" lon="-1.683479">
        <ele>534.620</ele>
        <time>2021-06-11T08:14:31Z</time>
      </trkpt>
      <trkpt lat="42.957537" lon="-1.683480">
        <ele>532.225</ele>
        <time>2021-06-11T08:14:39Z</time>
      </trkpt>
      <trkpt lat="42.957506" lon="-1.683509">
        <ele>534.116</ele>
        <time>2021-06-11T08:14:54Z</time>
      </trkpt>
      <trkpt lat="42.957484" lon="-1.683521">
        <ele>534.176</ele>
        <time>2021-06-11T08:15:06Z</time>
      </trkpt>
      <trkpt lat="42.957451" lon="-1.683507">
        <ele>533.113</ele>
        <time>2021-06-11T08:15:10Z</time>
      </trkpt>
      <trkpt lat="42.957361" lon="-1.683438">
        <ele>533.608</ele>
        <time>2021-06-11T08:15:18Z</time>
      </trkpt>
      <trkpt lat="42.957290" lon="-1.683398">
        <ele>534.118</ele>
        <time>2021-06-11T08:15:26Z</time>
      </trkpt>
      <trkpt lat="42.957267" lon="-1.683409">
        <ele>534.626</ele>
        <time>2021-06-11T08:15:42Z</time>
      </trkpt>
      <trkpt lat="42.957241" lon="-1.683392">
        <ele>533.136</ele>
        <time>2021-06-11T08:16:01Z</time>
      </trkpt>
      <trkpt lat="42.957258" lon="-1.683377">
        <ele>533.184</ele>
        <time>2021-06-11T08:16:18Z</time>
      </trkpt>
      <trkpt lat="42.957239" lon="-1.683410">
        <ele>536.062</ele>
        <time>2021-06-11T08:16:40Z</time>
      </trkpt>
      <trkpt lat="42.957253" lon="-1.683397">
        <ele>533.167</ele>
        <time>2021-06-11T08:16:55Z</time>
      </trkpt>
      <trkpt lat="42.957267" lon="-1.683374">
        <ele>534.156</ele>
        <time>2021-06-11T08:17:10Z</time>
      </trkpt>
      <trkpt lat="42.957254" lon="-1.683377">
        <ele>533.651</ele>
        <time>2021-06-11T08:17:29Z</time>
      </trkpt>
      <trkpt lat="42.957264" lon="-1.683369">
        <ele>533.689</ele>
        <time>2021-06-11T08:17:38Z</time>
      </trkpt>
      <trkpt lat="42.957280" lon="-1.683385">
        <ele>534.106</ele>
        <time>2021-06-11T08:17:42Z</time>
      </trkpt>
      <trkpt lat="42.957415" lon="-1.683453">
        <ele>533.626</ele>
        <time>2021-06-11T08:17:48Z</time>
      </trkpt>
      <trkpt lat="42.957549" lon="-1.683472">
        <ele>533.608</ele>
        <time>2021-06-11T08:17:53Z</time>
      </trkpt>
      <trkpt lat="42.957787" lon="-1.683442">
        <ele>533.695</ele>
        <time>2021-06-11T08:18:01Z</time>
      </trkpt>
      <trkpt lat="42.957944" lon="-1.683385">
        <ele>533.153</ele>
        <time>2021-06-11T08:18:07Z</time>
      </trkpt>
      <trkpt lat="42.958094" lon="-1.683376">
        <ele>533.133</ele>
        <time>2021-06-11T08:18:14Z</time>
      </trkpt>
      <trkpt lat="42.958213" lon="-1.683445">
        <ele>534.131</ele>
        <time>2021-06-11T08:18:21Z</time>
      </trkpt>
      <trkpt lat="42.958363" lon="-1.683566">
        <ele>534.639</ele>
        <time>2021-06-11T08:18:30Z</time>
      </trkpt>
      <trkpt lat="42.958474" lon="-1.683641">
        <ele>536.054</ele>
        <time>2021-06-11T08:18:37Z</time>
      </trkpt>
      <trkpt lat="42.958575" lon="-1.683657">
        <ele>537.523</ele>
        <time>2021-06-11T08:18:44Z</time>
      </trkpt>
      <trkpt lat="42.958712" lon="-1.683648">
        <ele>538.928</ele>
        <time>2021-06-11T08:18:52Z</time>
      </trkpt>
      <trkpt lat="42.958789" lon="-1.683636">
        <ele>538.458</ele>
        <time>2021-06-11T08:18:56Z</time>
      </trkpt>
      <trkpt lat="42.958893" lon="-1.683609">
        <ele>539.452</ele>
        <time>2021-06-11T08:19:01Z</time>
      </trkpt>
      <trkpt lat="42.959027" lon="-1.683539">
        <ele>541.317</ele>
        <time>2021-06-11T08:19:08Z</time>
      </trkpt>
      <trkpt lat="42.959139" lon="-1.683453">
        <ele>543.708</ele>
        <time>2021-06-11T08:19:15Z</time>
      </trkpt>
      <trkpt lat="42.959275" lon="-1.683360">
        <ele>545.222</ele>
        <time>2021-06-11T08:19:22Z</time>
      </trkpt>
      <trkpt lat="42.959320" lon="-1.683334">
        <ele>547.190</ele>
        <time>2021-06-11T08:19:25Z</time>
      </trkpt>
      <trkpt lat="42.959396" lon="-1.683307">
        <ele>548.530</ele>
        <time>2021-06-11T08:19:29Z</time>
      </trkpt>
      <trkpt lat="42.959541" lon="-1.683281">
        <ele>548.548</ele>
        <time>2021-06-11T08:19:37Z</time>
      </trkpt>
      <trkpt lat="42.959723" lon="-1.683255">
        <ele>547.146</ele>
        <time>2021-06-11T08:19:45Z</time>
      </trkpt>
      <trkpt lat="42.959867" lon="-1.683196">
        <ele>545.281</ele>
        <time>2021-06-11T08:19:53Z</time>
      </trkpt>
      <trkpt lat="42.960029" lon="-1.683155">
        <ele>546.660</ele>
        <time>2021-06-11T08:20:01Z</time>
      </trkpt>
      <trkpt lat="42.960161" lon="-1.683122">
        <ele>548.035</ele>
        <time>2021-06-11T08:20:07Z</time>
      </trkpt>
      <trkpt lat="42.960361" lon="-1.683042">
        <ele>549.058</ele>
        <time>2021-06-11T08:20:14Z</time>
      </trkpt>
      <trkpt lat="42.960577" lon="-1.682941">
        <ele>548.052</ele>
        <time>2021-06-11T08:20:20Z</time>
      </trkpt>
      <trkpt lat="42.960835" lon="-1.682812">
        <ele>549.517</ele>
        <time>2021-06-11T08:20:26Z</time>
      </trkpt>
      <trkpt lat="42.961011" lon="-1.682797">
        <ele>550.408</ele>
        <time>2021-06-11T08:20:30Z</time>
      </trkpt>
      <trkpt lat="42.961255" lon="-1.682899">
        <ele>549.562</ele>
        <time>2021-06-11T08:20:38Z</time>
      </trkpt>
      <trkpt lat="42.961511" lon="-1.683004">
        <ele>547.140</ele>
        <time>2021-06-11T08:20:46Z</time>
      </trkpt>
      <trkpt lat="42.961763" lon="-1.683119">
        <ele>546.180</ele>
        <time>2021-06-11T08:20:54Z</time>
      </trkpt>
      <trkpt lat="42.961981" lon="-1.683265">
        <ele>546.138</ele>
        <time>2021-06-11T08:21:02Z</time>
      </trkpt>
      <trkpt lat="42.962267" lon="-1.683462">
        <ele>545.626</ele>
        <time>2021-06-11T08:21:12Z</time>
      </trkpt>
      <trkpt lat="42.962576" lon="-1.683601">
        <ele>546.151</ele>
        <time>2021-06-11T08:21:22Z</time>
      </trkpt>
      <trkpt lat="42.962737" lon="-1.683682">
        <ele>544.750</ele>
        <time>2021-06-11T08:21:27Z</time>
      </trkpt>
      <trkpt lat="42.962868" lon="-1.683764">
        <ele>543.225</ele>
        <time>2021-06-11T08:21:30Z</time>
      </trkpt>
      <trkpt lat="42.962916" lon="-1.683792">
        <ele>542.812</ele>
        <time>2021-06-11T08:21:31Z</time>
      </trkpt>
      <trkpt lat="42.962949" lon="-1.683810">
        <ele>542.332</ele>
        <time>2021-06-11T08:21:32Z</time>
      </trkpt>
      <trkpt lat="42.962978" lon="-1.683826">
        <ele>541.305</ele>
        <time>2021-06-11T08:21:33Z</time>
      </trkpt>
      <trkpt lat="42.963008" lon="-1.683845">
        <ele>540.808</ele>
        <time>2021-06-11T08:21:34Z</time>
      </trkpt>
      <trkpt lat="42.963036" lon="-1.683861">
        <ele>540.868</ele>
        <time>2021-06-11T08:21:35Z</time>
      </trkpt>
      <trkpt lat="42.963268" lon="-1.683960">
        <ele>539.456</ele>
        <time>2021-06-11T08:21:44Z</time>
      </trkpt>
      <trkpt lat="42.963548" lon="-1.683952">
        <ele>538.976</ele>
        <time>2021-06-11T08:21:52Z</time>
      </trkpt>
      <trkpt lat="42.963923" lon="-1.683940">
        <ele>539.474</ele>
        <time>2021-06-11T08:22:02Z</time>
      </trkpt>
      <trkpt lat="42.964194" lon="-1.683935">
        <ele>538.982</ele>
        <time>2021-06-11T08:22:09Z</time>
      </trkpt>
      <trkpt lat="42.964450" lon="-1.684033">
        <ele>537.987</ele>
        <time>2021-06-11T08:22:16Z</time>
      </trkpt>
      <trkpt lat="42.964635" lon="-1.684139">
        <ele>537.046</ele>
        <time>2021-06-11T08:22:22Z</time>
      </trkpt>
      <trkpt lat="42.964859" lon="-1.684270">
        <ele>536.511</ele>
        <time>2021-06-11T08:22:29Z</time>
      </trkpt>
      <trkpt lat="42.965106" lon="-1.684399">
        <ele>535.564</ele>
        <time>2021-06-11T08:22:37Z</time>
      </trkpt>
      <trkpt lat="42.965355" lon="-1.684530">
        <ele>535.106</ele>
        <time>2021-06-11T08:22:46Z</time>
      </trkpt>
      <trkpt lat="42.965592" lon="-1.684623">
        <ele>534.616</ele>
        <time>2021-06-11T08:22:54Z</time>
      </trkpt>
      <trkpt lat="42.965825" lon="-1.684720">
        <ele>534.108</ele>
        <time>2021-06-11T08:23:01Z</time>
      </trkpt>
      <trkpt lat="42.966029" lon="-1.684859">
        <ele>534.143</ele>
        <time>2021-06-11T08:23:08Z</time>
      </trkpt>
      <trkpt lat="42.966207" lon="-1.684969">
        <ele>534.131</ele>
        <time>2021-06-11T08:23:14Z</time>
      </trkpt>
      <trkpt lat="42.966397" lon="-1.685031">
        <ele>535.171</ele>
        <time>2021-06-11T08:23:21Z</time>
      </trkpt>
      <trkpt lat="42.966583" lon="-1.685110">
        <ele>536.589</ele>
        <time>2021-06-11T08:23:29Z</time>
      </trkpt>
      <trkpt lat="42.966802" lon="-1.685333">
        <ele>536.527</ele>
        <time>2021-06-11T08:23:37Z</time>
      </trkpt>
      <trkpt lat="42.966931" lon="-1.685451">
        <ele>537.092</ele>
        <time>2021-06-11T08:23:43Z</time>
      </trkpt>
      <trkpt lat="42.967088" lon="-1.685468">
        <ele>536.041</ele>
        <time>2021-06-11T08:23:50Z</time>
      </trkpt>
      <trkpt lat="42.967279" lon="-1.685353">
        <ele>536.016</ele>
        <time>2021-06-11T08:23:57Z</time>
      </trkpt>
      <trkpt lat="42.967471" lon="-1.685302">
        <ele>535.176</ele>
        <time>2021-06-11T08:24:04Z</time>
      </trkpt>
      <trkpt lat="42.967710" lon="-1.685222">
        <ele>535.190</ele>
        <time>2021-06-11T08:24:13Z</time>
      </trkpt>
      <trkpt lat="42.967792" lon="-1.685093">
        <ele>537.519</ele>
        <time>2021-06-11T08:24:18Z</time>
      </trkpt>
      <trkpt lat="42.967811" lon="-1.684920">
        <ele>538.408</ele>
        <time>2021-06-11T08:24:24Z</time>
      </trkpt>
      <trkpt lat="42.967830" lon="-1.684731">
        <ele>538.464</ele>
        <time>2021-06-11T08:24:31Z</time>
      </trkpt>
      <trkpt lat="42.967837" lon="-1.684704">
        <ele>537.962</ele>
        <time>2021-06-11T08:24:33Z</time>
      </trkpt>
      <trkpt lat="42.967874" lon="-1.684564">
        <ele>537.022</ele>
        <time>2021-06-11T08:24:40Z</time>
      </trkpt>
      <trkpt lat="42.967874" lon="-1.684543">
        <ele>537.030</ele>
        <time>2021-06-11T08:24:41Z</time>
      </trkpt>
      <trkpt lat="42.967874" lon="-1.684522">
        <ele>536.598</ele>
        <time>2021-06-11T08:24:42Z</time>
      </trkpt>
      <trkpt lat="42.967903" lon="-1.684301">
        <ele>533.183</ele>
        <time>2021-06-11T08:24:51Z</time>
      </trkpt>
      <trkpt lat="42.967907" lon="-1.684279">
        <ele>532.712</ele>
        <time>2021-06-11T08:24:52Z</time>
      </trkpt>
      <trkpt lat="42.967914" lon="-1.684257">
        <ele>532.737</ele>
        <time>2021-06-11T08:24:53Z</time>
      </trkpt>
      <trkpt lat="42.967922" lon="-1.684231">
        <ele>532.752</ele>
        <time>2021-06-11T08:24:54Z</time>
      </trkpt>
      <trkpt lat="42.967931" lon="-1.684202">
        <ele>532.253</ele>
        <time>2021-06-11T08:24:55Z</time>
      </trkpt>
      <trkpt lat="42.967943" lon="-1.684176">
        <ele>532.208</ele>
        <time>2021-06-11T08:24:56Z</time>
      </trkpt>
      <trkpt lat="42.967950" lon="-1.684153">
        <ele>532.208</ele>
        <time>2021-06-11T08:24:57Z</time>
      </trkpt>
      <trkpt lat="42.967971" lon="-1.684105">
        <ele>531.792</ele>
        <time>2021-06-11T08:24:59Z</time>
      </trkpt>
      <trkpt lat="42.968102" lon="-1.683969">
        <ele>531.230</ele>
        <time>2021-06-11T08:25:05Z</time>
      </trkpt>
      <trkpt lat="42.968274" lon="-1.683863">
        <ele>528.850</ele>
        <time>2021-06-11T08:25:09Z</time>
      </trkpt>
      <trkpt lat="42.968329" lon="-1.683848">
        <ele>528.338</ele>
        <time>2021-06-11T08:25:10Z</time>
      </trkpt>
      <trkpt lat="42.968384" lon="-1.683838">
        <ele>527.986</ele>
        <time>2021-06-11T08:25:11Z</time>
      </trkpt>
      <trkpt lat="42.968579" lon="-1.683820">
        <ele>527.961</ele>
        <time>2021-06-11T08:25:16Z</time>
      </trkpt>
      <trkpt lat="42.968690" lon="-1.683838">
        <ele>527.970</ele>
        <time>2021-06-11T08:25:19Z</time>
      </trkpt>
      <trkpt lat="42.968726" lon="-1.683847">
        <ele>527.985</ele>
        <time>2021-06-11T08:25:20Z</time>
      </trkpt>
      <trkpt lat="42.968947" lon="-1.683846">
        <ele>528.398</ele>
        <time>2021-06-11T08:25:27Z</time>
      </trkpt>
      <trkpt lat="42.969099" lon="-1.683787">
        <ele>528.315</ele>
        <time>2021-06-11T08:25:35Z</time>
      </trkpt>
      <trkpt lat="42.969326" lon="-1.683769">
        <ele>527.426</ele>
        <time>2021-06-11T08:25:43Z</time>
      </trkpt>
      <trkpt lat="42.969597" lon="-1.683888">
        <ele>526.408</ele>
        <time>2021-06-11T08:25:52Z</time>
      </trkpt>
      <trkpt lat="42.969842" lon="-1.684000">
        <ele>525.526</ele>
        <time>2021-06-11T08:26:00Z</time>
      </trkpt>
      <trkpt lat="42.970102" lon="-1.684120">
        <ele>525.064</ele>
        <time>2021-06-11T08:26:08Z</time>
      </trkpt>
      <trkpt lat="42.970358" lon="-1.684239">
        <ele>525.054</ele>
        <time>2021-06-11T08:26:16Z</time>
      </trkpt>
      <trkpt lat="42.970623" lon="-1.684392">
        <ele>525.042</ele>
        <time>2021-06-11T08:26:25Z</time>
      </trkpt>
      <trkpt lat="42.970738" lon="-1.684665">
        <ele>525.040</ele>
        <time>2021-06-11T08:26:32Z</time>
      </trkpt>
      <trkpt lat="42.970833" lon="-1.684968">
        <ele>525.535</ele>
        <time>2021-06-11T08:26:40Z</time>
      </trkpt>
      <trkpt lat="42.970999" lon="-1.685237">
        <ele>526.984</ele>
        <time>2021-06-11T08:26:49Z</time>
      </trkpt>
      <trkpt lat="42.971292" lon="-1.685427">
        <ele>526.489</ele>
        <time>2021-06-11T08:27:00Z</time>
      </trkpt>
      <trkpt lat="42.971566" lon="-1.685622">
        <ele>526.441</ele>
        <time>2021-06-11T08:27:10Z</time>
      </trkpt>
      <trkpt lat="42.971819" lon="-1.685805">
        <ele>525.981</ele>
        <time>2021-06-11T08:27:20Z</time>
      </trkpt>
      <trkpt lat="42.972082" lon="-1.685998">
        <ele>525.509</ele>
        <time>2021-06-11T08:27:29Z</time>
      </trkpt>
      <trkpt lat="42.972303" lon="-1.686169">
        <ele>525.508</ele>
        <time>2021-06-11T08:27:37Z</time>
      </trkpt>
      <trkpt lat="42.972497" lon="-1.686325">
        <ele>525.561</ele>
        <time>2021-06-11T08:27:44Z</time>
      </trkpt>
      <trkpt lat="42.972735" lon="-1.686582">
        <ele>526.429</ele>
        <time>2021-06-11T08:27:54Z</time>
      </trkpt>
      <trkpt lat="42.972931" lon="-1.686814">
        <ele>526.429</ele>
        <time>2021-06-11T08:28:03Z</time>
      </trkpt>
      <trkpt lat="42.973109" lon="-1.687025">
        <ele>526.957</ele>
        <time>2021-06-11T08:28:12Z</time>
      </trkpt>
      <trkpt lat="42.973262" lon="-1.687212">
        <ele>527.965</ele>
        <time>2021-06-11T08:28:20Z</time>
      </trkpt>
      <trkpt lat="42.973393" lon="-1.687365">
        <ele>528.880</ele>
        <time>2021-06-11T08:28:28Z</time>
      </trkpt>
      <trkpt lat="42.973503" lon="-1.687505">
        <ele>529.869</ele>
        <time>2021-06-11T08:28:36Z</time>
      </trkpt>
      <trkpt lat="42.973598" lon="-1.687629">
        <ele>530.794</ele>
        <time>2021-06-11T08:28:44Z</time>
      </trkpt>
      <trkpt lat="42.973717" lon="-1.687776">
        <ele>533.124</ele>
        <time>2021-06-11T08:28:54Z</time>
      </trkpt>
      <trkpt lat="42.973832" lon="-1.687900">
        <ele>535.504</ele>
        <time>2021-06-11T08:29:03Z</time>
      </trkpt>
      <trkpt lat="42.973950" lon="-1.687995">
        <ele>537.914</ele>
        <time>2021-06-11T08:29:12Z</time>
      </trkpt>
      <trkpt lat="42.973963" lon="-1.688000">
        <ele>537.908</ele>
        <time>2021-06-11T08:29:13Z</time>
      </trkpt>
      <trkpt lat="42.974082" lon="-1.688070">
        <ele>539.919</ele>
        <time>2021-06-11T08:29:22Z</time>
      </trkpt>
      <trkpt lat="42.974247" lon="-1.688082">
        <ele>540.897</ele>
        <time>2021-06-11T08:29:31Z</time>
      </trkpt>
      <trkpt lat="42.974400" lon="-1.688091">
        <ele>542.367</ele>
        <time>2021-06-11T08:29:38Z</time>
      </trkpt>
      <trkpt lat="42.974623" lon="-1.688123">
        <ele>542.335</ele>
        <time>2021-06-11T08:29:45Z</time>
      </trkpt>
      <trkpt lat="42.974966" lon="-1.688230">
        <ele>542.393</ele>
        <time>2021-06-11T08:29:57Z</time>
      </trkpt>
      <trkpt lat="42.975120" lon="-1.688350">
        <ele>541.358</ele>
        <time>2021-06-11T08:30:03Z</time>
      </trkpt>
      <trkpt lat="42.975380" lon="-1.688513">
        <ele>539.957</ele>
        <time>2021-06-11T08:30:13Z</time>
      </trkpt>
      <trkpt lat="42.975633" lon="-1.688601">
        <ele>540.852</ele>
        <time>2021-06-11T08:30:21Z</time>
      </trkpt>
      <trkpt lat="42.975912" lon="-1.688674">
        <ele>540.892</ele>
        <time>2021-06-11T08:30:30Z</time>
      </trkpt>
      <trkpt lat="42.976210" lon="-1.688722">
        <ele>541.373</ele>
        <time>2021-06-11T08:30:39Z</time>
      </trkpt>
      <trkpt lat="42.976490" lon="-1.688755">
        <ele>540.420</ele>
        <time>2021-06-11T08:30:48Z</time>
      </trkpt>
      <trkpt lat="42.976807" lon="-1.688799">
        <ele>540.408</ele>
        <time>2021-06-11T08:30:57Z</time>
      </trkpt>
      <trkpt lat="42.977155" lon="-1.688858">
        <ele>539.916</ele>
        <time>2021-06-11T08:31:07Z</time>
      </trkpt>
      <trkpt lat="42.977429" lon="-1.688902">
        <ele>541.894</ele>
        <time>2021-06-11T08:31:16Z</time>
      </trkpt>
      <trkpt lat="42.977484" lon="-1.688932">
        <ele>541.324</ele>
        <time>2021-06-11T08:31:19Z</time>
      </trkpt>
      <trkpt lat="42.977495" lon="-1.688956">
        <ele>540.832</ele>
        <time>2021-06-11T08:31:20Z</time>
      </trkpt>
      <trkpt lat="42.977512" lon="-1.689161">
        <ele>540.470</ele>
        <time>2021-06-11T08:31:26Z</time>
      </trkpt>
      <trkpt lat="42.977491" lon="-1.689402">
        <ele>539.975</ele>
        <time>2021-06-11T08:31:31Z</time>
      </trkpt>
      <trkpt lat="42.977475" lon="-1.689460">
        <ele>539.464</ele>
        <time>2021-06-11T08:31:32Z</time>
      </trkpt>
      <trkpt lat="42.977452" lon="-1.689522">
        <ele>538.969</ele>
        <time>2021-06-11T08:31:33Z</time>
      </trkpt>
      <trkpt lat="42.977426" lon="-1.689601">
        <ele>538.452</ele>
        <time>2021-06-11T08:31:34Z</time>
      </trkpt>
      <trkpt lat="42.977400" lon="-1.689677">
        <ele>537.953</ele>
        <time>2021-06-11T08:31:35Z</time>
      </trkpt>
      <trkpt lat="42.977368" lon="-1.689763">
        <ele>537.508</ele>
        <time>2021-06-11T08:31:36Z</time>
      </trkpt>
      <trkpt lat="42.977161" lon="-1.690360">
        <ele>534.108</ele>
        <time>2021-06-11T08:31:42Z</time>
      </trkpt>
      <trkpt lat="42.976884" lon="-1.691095">
        <ele>533.162</ele>
        <time>2021-06-11T08:31:50Z</time>
      </trkpt>
      <trkpt lat="42.976609" lon="-1.691805">
        <ele>531.750</ele>
        <time>2021-06-11T08:31:59Z</time>
      </trkpt>
      <trkpt lat="42.976452" lon="-1.692238">
        <ele>531.290</ele>
        <time>2021-06-11T08:32:06Z</time>
      </trkpt>
      <trkpt lat="42.976316" lon="-1.692598">
        <ele>531.298</ele>
        <time>2021-06-11T08:32:14Z</time>
      </trkpt>
      <trkpt lat="42.976170" lon="-1.692974">
        <ele>532.726</ele>
        <time>2021-06-11T08:32:23Z</time>
      </trkpt>
      <trkpt lat="42.976078" lon="-1.693169">
        <ele>533.621</ele>
        <time>2021-06-11T08:32:30Z</time>
      </trkpt>
      <trkpt lat="42.976066" lon="-1.693179">
        <ele>533.630</ele>
        <time>2021-06-11T08:32:31Z</time>
      </trkpt>
      <trkpt lat="42.976051" lon="-1.693183">
        <ele>533.635</ele>
        <time>2021-06-11T08:32:32Z</time>
      </trkpt>
      <trkpt lat="42.976040" lon="-1.693180">
        <ele>534.147</ele>
        <time>2021-06-11T08:32:33Z</time>
      </trkpt>
      <trkpt lat="42.976023" lon="-1.693168">
        <ele>534.129</ele>
        <time>2021-06-11T08:32:34Z</time>
      </trkpt>
      <trkpt lat="42.976007" lon="-1.693155">
        <ele>534.121</ele>
        <time>2021-06-11T08:32:35Z</time>
      </trkpt>
      <trkpt lat="42.975978" lon="-1.693128">
        <ele>534.108</ele>
        <time>2021-06-11T08:32:40Z</time>
      </trkpt>
      <trkpt lat="42.975991" lon="-1.693137">
        <ele>534.111</ele>
        <time>2021-06-11T08:32:47Z</time>
      </trkpt>
      <trkpt lat="42.976004" lon="-1.693147">
        <ele>533.659</ele>
        <time>2021-06-11T08:32:53Z</time>
      </trkpt>
      <trkpt lat="42.976016" lon="-1.693158">
        <ele>533.649</ele>
        <time>2021-06-11T08:32:54Z</time>
      </trkpt>
      <trkpt lat="42.976033" lon="-1.693175">
        <ele>533.617</ele>
        <time>2021-06-11T08:32:55Z</time>
      </trkpt>
      <trkpt lat="42.976054" lon="-1.693191">
        <ele>533.665</ele>
        <time>2021-06-11T08:32:56Z</time>
      </trkpt>
      <trkpt lat="42.976078" lon="-1.693209">
        <ele>533.670</ele>
        <time>2021-06-11T08:32:57Z</time>
      </trkpt>
      <trkpt lat="42.976100" lon="-1.693230">
        <ele>533.649</ele>
        <time>2021-06-11T08:32:58Z</time>
      </trkpt>
      <trkpt lat="42.976290" lon="-1.693374">
        <ele>533.624</ele>
        <time>2021-06-11T08:33:05Z</time>
      </trkpt>
      <trkpt lat="42.976561" lon="-1.693578">
        <ele>534.111</ele>
        <time>2021-06-11T08:33:14Z</time>
      </trkpt>
      <trkpt lat="42.976726" lon="-1.693706">
        <ele>534.621</ele>
        <time>2021-06-11T08:33:21Z</time>
      </trkpt>
      <trkpt lat="42.976962" lon="-1.693890">
        <ele>535.503</ele>
        <time>2021-06-11T08:33:30Z</time>
      </trkpt>
      <trkpt lat="42.977211" lon="-1.694093">
        <ele>536.008</ele>
        <time>2021-06-11T08:33:39Z</time>
      </trkpt>
      <trkpt lat="42.977524" lon="-1.694326">
        <ele>535.548</ele>
        <time>2021-06-11T08:33:49Z</time>
      </trkpt>
      <trkpt lat="42.977867" lon="-1.694568">
        <ele>536.046</ele>
        <time>2021-06-11T08:33:59Z</time>
      </trkpt>
      <trkpt lat="42.978141" lon="-1.694773">
        <ele>536.536</ele>
        <time>2021-06-11T08:34:07Z</time>
      </trkpt>
      <trkpt lat="42.978178" lon="-1.694801">
        <ele>536.544</ele>
        <time>2021-06-11T08:34:08Z</time>
      </trkpt>
      <trkpt lat="42.978520" lon="-1.695061">
        <ele>537.062</ele>
        <time>2021-06-11T08:34:18Z</time>
      </trkpt>
      <trkpt lat="42.978781" lon="-1.695259">
        <ele>537.517</ele>
        <time>2021-06-11T08:34:26Z</time>
      </trkpt>
      <trkpt lat="42.979177" lon="-1.695550">
        <ele>537.596</ele>
        <time>2021-06-11T08:34:38Z</time>
      </trkpt>
      <trkpt lat="42.979463" lon="-1.695761">
        <ele>537.961</ele>
        <time>2021-06-11T08:34:47Z</time>
      </trkpt>
      <trkpt lat="42.979657" lon="-1.695919">
        <ele>538.444</ele>
        <time>2021-06-11T08:34:53Z</time>
      </trkpt>
      <trkpt lat="42.980046" lon="-1.696278">
        <ele>538.905</ele>
        <time>2021-06-11T08:35:05Z</time>
      </trkpt>
      <trkpt lat="42.980414" lon="-1.696646">
        <ele>538.915</ele>
        <time>2021-06-11T08:35:16Z</time>
      </trkpt>
      <trkpt lat="42.980747" lon="-1.696975">
        <ele>539.408</ele>
        <time>2021-06-11T08:35:26Z</time>
      </trkpt>
      <trkpt lat="42.981005" lon="-1.697218">
        <ele>539.421</ele>
        <time>2021-06-11T08:35:35Z</time>
      </trkpt>
      <trkpt lat="42.981351" lon="-1.697535">
        <ele>539.979</ele>
        <time>2021-06-11T08:35:46Z</time>
      </trkpt>
      <trkpt lat="42.981633" lon="-1.697806">
        <ele>539.939</ele>
        <time>2021-06-11T08:35:55Z</time>
      </trkpt>
      <trkpt lat="42.981949" lon="-1.698126">
        <ele>539.917</ele>
        <time>2021-06-11T08:36:06Z</time>
      </trkpt>
      <trkpt lat="42.982154" lon="-1.698368">
        <ele>539.465</ele>
        <time>2021-06-11T08:36:13Z</time>
      </trkpt>
      <trkpt lat="42.982184" lon="-1.698405">
        <ele>539.420</ele>
        <time>2021-06-11T08:36:14Z</time>
      </trkpt>
      <trkpt lat="42.982522" lon="-1.698804">
        <ele>538.469</ele>
        <time>2021-06-11T08:36:24Z</time>
      </trkpt>
      <trkpt lat="42.982788" lon="-1.699125">
        <ele>538.424</ele>
        <time>2021-06-11T08:36:33Z</time>
      </trkpt>
      <trkpt lat="42.983034" lon="-1.699423">
        <ele>538.459</ele>
        <time>2021-06-11T08:36:42Z</time>
      </trkpt>
      <trkpt lat="42.983254" lon="-1.699692">
        <ele>538.903</ele>
        <time>2021-06-11T08:36:50Z</time>
      </trkpt>
      <trkpt lat="42.983449" lon="-1.699923">
        <ele>539.423</ele>
        <time>2021-06-11T08:36:57Z</time>
      </trkpt>
      <trkpt lat="42.983688" lon="-1.700209">
        <ele>539.408</ele>
        <time>2021-06-11T08:37:06Z</time>
      </trkpt>
      <trkpt lat="42.983947" lon="-1.700520">
        <ele>539.922</ele>
        <time>2021-06-11T08:37:16Z</time>
      </trkpt>
      <trkpt lat="42.984136" lon="-1.700754">
        <ele>540.430</ele>
        <time>2021-06-11T08:37:24Z</time>
      </trkpt>
      <trkpt lat="42.984300" lon="-1.700951">
        <ele>541.390</ele>
        <time>2021-06-11T08:37:32Z</time>
      </trkpt>
      <trkpt lat="42.984578" lon="-1.701280">
        <ele>541.888</ele>
        <time>2021-06-11T08:37:43Z</time>
      </trkpt>
      <trkpt lat="42.984867" lon="-1.701644">
        <ele>541.386</ele>
        <time>2021-06-11T08:37:54Z</time>
      </trkpt>
      <trkpt lat="42.985241" lon="-1.702089">
        <ele>541.371</ele>
        <time>2021-06-11T08:38:06Z</time>
      </trkpt>
      <trkpt lat="42.985568" lon="-1.702473">
        <ele>541.340</ele>
        <time>2021-06-11T08:38:17Z</time>
      </trkpt>
      <trkpt lat="42.985877" lon="-1.702843">
        <ele>542.365</ele>
        <time>2021-06-11T08:38:28Z</time>
      </trkpt>
      <trkpt lat="42.986090" lon="-1.703092">
        <ele>543.221</ele>
        <time>2021-06-11T08:38:37Z</time>
      </trkpt>
      <trkpt lat="42.986301" lon="-1.703346">
        <ele>544.741</ele>
        <time>2021-06-11T08:38:46Z</time>
      </trkpt>
      <trkpt lat="42.986523" lon="-1.703616">
        <ele>545.605</ele>
        <time>2021-06-11T08:38:56Z</time>
      </trkpt>
      <trkpt lat="42.986754" lon="-1.703886">
        <ele>546.108</ele>
        <time>2021-06-11T08:39:06Z</time>
      </trkpt>
      <trkpt lat="42.987021" lon="-1.704217">
        <ele>546.159</ele>
        <time>2021-06-11T08:39:17Z</time>
      </trkpt>
      <trkpt lat="42.987273" lon="-1.704521">
        <ele>546.127</ele>
        <time>2021-06-11T08:39:27Z</time>
      </trkpt>
      <trkpt lat="42.987551" lon="-1.704860">
        <ele>546.617</ele>
        <time>2021-06-11T08:39:38Z</time>
      </trkpt>
      <trkpt lat="42.987840" lon="-1.705208">
        <ele>547.165</ele>
        <time>2021-06-11T08:39:49Z</time>
      </trkpt>
      <trkpt lat="42.988129" lon="-1.705568">
        <ele>547.663</ele>
        <time>2021-06-11T08:40:00Z</time>
      </trkpt>
      <trkpt lat="42.988462" lon="-1.705958">
        <ele>548.018</ele>
        <time>2021-06-11T08:40:12Z</time>
      </trkpt>
      <trkpt lat="42.988695" lon="-1.706232">
        <ele>548.557</ele>
        <time>2021-06-11T08:40:21Z</time>
      </trkpt>
      <trkpt lat="42.988936" lon="-1.706530">
        <ele>549.092</ele>
        <time>2021-06-11T08:40:31Z</time>
      </trkpt>
      <trkpt lat="42.989163" lon="-1.706808">
        <ele>550.065</ele>
        <time>2021-06-11T08:40:40Z</time>
      </trkpt>
      <trkpt lat="42.989350" lon="-1.707038">
        <ele>550.968</ele>
        <time>2021-06-11T08:40:48Z</time>
      </trkpt>
      <trkpt lat="42.989587" lon="-1.707325">
        <ele>551.914</ele>
        <time>2021-06-11T08:40:58Z</time>
      </trkpt>
      <trkpt lat="42.989880" lon="-1.707674">
        <ele>552.908</ele>
        <time>2021-06-11T08:41:09Z</time>
      </trkpt>
      <trkpt lat="42.990103" lon="-1.707939">
        <ele>552.963</ele>
        <time>2021-06-11T08:41:17Z</time>
      </trkpt>
      <trkpt lat="42.990377" lon="-1.708347">
        <ele>553.311</ele>
        <time>2021-06-11T08:41:28Z</time>
      </trkpt>
      <trkpt lat="42.990530" lon="-1.708778">
        <ele>553.381</ele>
        <time>2021-06-11T08:41:38Z</time>
      </trkpt>
      <trkpt lat="42.990601" lon="-1.709058">
        <ele>552.939</ele>
        <time>2021-06-11T08:41:46Z</time>
      </trkpt>
      <trkpt lat="42.990628" lon="-1.709172">
        <ele>552.937</ele>
        <time>2021-06-11T08:41:50Z</time>
      </trkpt>
      <trkpt lat="42.990648" lon="-1.709173">
        <ele>552.952</ele>
        <time>2021-06-11T08:41:51Z</time>
      </trkpt>
      <trkpt lat="42.990668" lon="-1.709157">
        <ele>552.421</ele>
        <time>2021-06-11T08:41:52Z</time>
      </trkpt>
      <trkpt lat="42.990683" lon="-1.709141">
        <ele>552.446</ele>
        <time>2021-06-11T08:41:53Z</time>
      </trkpt>
      <trkpt lat="42.990700" lon="-1.709121">
        <ele>552.423</ele>
        <time>2021-06-11T08:41:54Z</time>
      </trkpt>
      <trkpt lat="42.990715" lon="-1.709105">
        <ele>552.983</ele>
        <time>2021-06-11T08:41:55Z</time>
      </trkpt>
      <trkpt lat="42.990724" lon="-1.709092">
        <ele>552.911</ele>
        <time>2021-06-11T08:41:56Z</time>
      </trkpt>
      <trkpt lat="42.990733" lon="-1.709072">
        <ele>553.808</ele>
        <time>2021-06-11T08:42:03Z</time>
      </trkpt>
      <trkpt lat="42.990740" lon="-1.709105">
        <ele>553.879</ele>
        <time>2021-06-11T08:42:06Z</time>
      </trkpt>
      <trkpt lat="42.990733" lon="-1.709123">
        <ele>553.847</ele>
        <time>2021-06-11T08:42:07Z</time>
      </trkpt>
      <trkpt lat="42.990715" lon="-1.709136">
        <ele>553.377</ele>
        <time>2021-06-11T08:42:08Z</time>
      </trkpt>
      <trkpt lat="42.990638" lon="-1.709204">
        <ele>553.815</ele>
        <time>2021-06-11T08:42:14Z</time>
      </trkpt>
      <trkpt lat="42.990639" lon="-1.709231">
        <ele>553.823</ele>
        <time>2021-06-11T08:42:15Z</time>
      </trkpt>
      <trkpt lat="42.990642" lon="-1.709251">
        <ele>553.848</ele>
        <time>2021-06-11T08:42:16Z</time>
      </trkpt>
      <trkpt lat="42.990710" lon="-1.709451">
        <ele>553.817</ele>
        <time>2021-06-11T08:42:23Z</time>
      </trkpt>
      <trkpt lat="42.990836" lon="-1.709641">
        <ele>552.962</ele>
        <time>2021-06-11T08:42:31Z</time>
      </trkpt>
      <trkpt lat="42.991100" lon="-1.709997">
        <ele>552.416</ele>
        <time>2021-06-11T08:42:42Z</time>
      </trkpt>
      <trkpt lat="42.991369" lon="-1.710358">
        <ele>553.376</ele>
        <time>2021-06-11T08:42:52Z</time>
      </trkpt>
      <trkpt lat="42.991702" lon="-1.710822">
        <ele>554.313</ele>
        <time>2021-06-11T08:43:04Z</time>
      </trkpt>
      <trkpt lat="42.991956" lon="-1.711164">
        <ele>554.308</ele>
        <time>2021-06-11T08:43:14Z</time>
      </trkpt>
      <trkpt lat="42.992176" lon="-1.711468">
        <ele>556.768</ele>
        <time>2021-06-11T08:43:24Z</time>
      </trkpt>
      <trkpt lat="42.992365" lon="-1.711737">
        <ele>559.686</ele>
        <time>2021-06-11T08:43:33Z</time>
      </trkpt>
      <trkpt lat="42.992561" lon="-1.712027">
        <ele>560.146</ele>
        <time>2021-06-11T08:43:42Z</time>
      </trkpt>
      <trkpt lat="42.992809" lon="-1.712439">
        <ele>559.144</ele>
        <time>2021-06-11T08:43:53Z</time>
      </trkpt>
      <trkpt lat="42.993037" lon="-1.712822">
        <ele>560.192</ele>
        <time>2021-06-11T08:44:03Z</time>
      </trkpt>
      <trkpt lat="42.993268" lon="-1.713166">
        <ele>561.027</ele>
        <time>2021-06-11T08:44:13Z</time>
      </trkpt>
      <trkpt lat="42.993547" lon="-1.713503">
        <ele>561.576</ele>
        <time>2021-06-11T08:44:24Z</time>
      </trkpt>
      <trkpt lat="42.993834" lon="-1.713904">
        <ele>561.031</ele>
        <time>2021-06-11T08:44:35Z</time>
      </trkpt>
      <trkpt lat="42.994039" lon="-1.714261">
        <ele>560.517</ele>
        <time>2021-06-11T08:44:44Z</time>
      </trkpt>
      <trkpt lat="42.994269" lon="-1.714657">
        <ele>560.587</ele>
        <time>2021-06-11T08:44:54Z</time>
      </trkpt>
      <trkpt lat="42.994526" lon="-1.715029">
        <ele>560.515</ele>
        <time>2021-06-11T08:45:04Z</time>
      </trkpt>
      <trkpt lat="42.994728" lon="-1.715321">
        <ele>560.508</ele>
        <time>2021-06-11T08:45:12Z</time>
      </trkpt>
      <trkpt lat="42.994904" lon="-1.715573">
        <ele>560.178</ele>
        <time>2021-06-11T08:45:19Z</time>
      </trkpt>
      <trkpt lat="42.995200" lon="-1.715945">
        <ele>560.116</ele>
        <time>2021-06-11T08:45:30Z</time>
      </trkpt>
      <trkpt lat="42.995447" lon="-1.716235">
        <ele>560.536</ele>
        <time>2021-06-11T08:45:40Z</time>
      </trkpt>
      <trkpt lat="42.995678" lon="-1.716526">
        <ele>560.144</ele>
        <time>2021-06-11T08:45:50Z</time>
      </trkpt>
      <trkpt lat="42.995832" lon="-1.716683">
        <ele>559.122</ele>
        <time>2021-06-11T08:45:57Z</time>
      </trkpt>
      <trkpt lat="42.995876" lon="-1.716722">
        <ele>560.147</ele>
        <time>2021-06-11T08:46:02Z</time>
      </trkpt>
      <trkpt lat="42.995896" lon="-1.716741">
        <ele>561.066</ele>
        <time>2021-06-11T08:46:10Z</time>
      </trkpt>
      <trkpt lat="42.995886" lon="-1.716774">
        <ele>564.461</ele>
        <time>2021-06-11T08:46:28Z</time>
      </trkpt>
      <trkpt lat="42.995869" lon="-1.716763">
        <ele>567.318</ele>
        <time>2021-06-11T08:46:46Z</time>
      </trkpt>
      <trkpt lat="42.995895" lon="-1.716724">
        <ele>571.698</ele>
        <time>2021-06-11T08:47:01Z</time>
      </trkpt>
      <trkpt lat="42.995892" lon="-1.716716">
        <ele>570.217</ele>
        <time>2021-06-11T08:47:10Z</time>
      </trkpt>
      <trkpt lat="42.995869" lon="-1.716705">
        <ele>568.708</ele>
        <time>2021-06-11T08:47:22Z</time>
      </trkpt>
      <trkpt lat="42.995852" lon="-1.716726">
        <ele>573.028</ele>
        <time>2021-06-11T08:47:37Z</time>
      </trkpt>
      <trkpt lat="42.995850" lon="-1.716730">
        <ele>574.596</ele>
        <time>2021-06-11T08:47:53Z</time>
      </trkpt>
      <trkpt lat="42.995835" lon="-1.716750">
        <ele>576.946</ele>
        <time>2021-06-11T08:48:05Z</time>
      </trkpt>
      <trkpt lat="42.995859" lon="-1.716737">
        <ele>579.394</ele>
        <time>2021-06-11T08:48:19Z</time>
      </trkpt>
      <trkpt lat="42.995862" lon="-1.716737">
        <ele>576.932</ele>
        <time>2021-06-11T08:48:30Z</time>
      </trkpt>
      <trkpt lat="42.995884" lon="-1.716798">
        <ele>575.927</ele>
        <time>2021-06-11T08:48:36Z</time>
      </trkpt>
      <trkpt lat="42.995886" lon="-1.716815">
        <ele>575.966</ele>
        <time>2021-06-11T08:48:37Z</time>
      </trkpt>
      <trkpt lat="42.995889" lon="-1.716835">
        <ele>575.941</ele>
        <time>2021-06-11T08:48:38Z</time>
      </trkpt>
      <trkpt lat="42.995894" lon="-1.716852">
        <ele>575.469</ele>
        <time>2021-06-11T08:48:39Z</time>
      </trkpt>
      <trkpt lat="42.995903" lon="-1.716865">
        <ele>575.404</ele>
        <time>2021-06-11T08:48:40Z</time>
      </trkpt>
      <trkpt lat="42.995917" lon="-1.716875">
        <ele>575.424</ele>
        <time>2021-06-11T08:48:41Z</time>
      </trkpt>
      <trkpt lat="42.995929" lon="-1.716891">
        <ele>575.408</ele>
        <time>2021-06-11T08:48:42Z</time>
      </trkpt>
      <trkpt lat="42.995937" lon="-1.716913">
        <ele>575.413</ele>
        <time>2021-06-11T08:48:43Z</time>
      </trkpt>
      <trkpt lat="42.995947" lon="-1.716934">
        <ele>575.061</ele>
        <time>2021-06-11T08:48:44Z</time>
      </trkpt>
      <trkpt lat="42.995959" lon="-1.716956">
        <ele>574.571</ele>
        <time>2021-06-11T08:48:45Z</time>
      </trkpt>
      <trkpt lat="42.996113" lon="-1.717183">
        <ele>574.559</ele>
        <time>2021-06-11T08:48:53Z</time>
      </trkpt>
      <trkpt lat="42.996242" lon="-1.717371">
        <ele>574.037</ele>
        <time>2021-06-11T08:49:01Z</time>
      </trkpt>
      <trkpt lat="42.996258" lon="-1.717381">
        <ele>573.052</ele>
        <time>2021-06-11T08:49:08Z</time>
      </trkpt>
      <trkpt lat="42.996320" lon="-1.717479">
        <ele>572.171</ele>
        <time>2021-06-11T08:49:13Z</time>
      </trkpt>
      <trkpt lat="42.996523" lon="-1.717772">
        <ele>570.616</ele>
        <time>2021-06-11T08:49:22Z</time>
      </trkpt>
      <trkpt lat="42.996763" lon="-1.718127">
        <ele>569.727</ele>
        <time>2021-06-11T08:49:32Z</time>
      </trkpt>
      <trkpt lat="42.996971" lon="-1.718434">
        <ele>568.768</ele>
        <time>2021-06-11T08:49:41Z</time>
      </trkpt>
      <trkpt lat="42.997113" lon="-1.718641">
        <ele>568.714</ele>
        <time>2021-06-11T08:49:47Z</time>
      </trkpt>
      <trkpt lat="42.997371" lon="-1.718978">
        <ele>567.308</ele>
        <time>2021-06-11T08:49:57Z</time>
      </trkpt>
      <trkpt lat="42.997583" lon="-1.719286">
        <ele>566.389</ele>
        <time>2021-06-11T08:50:05Z</time>
      </trkpt>
      <trkpt lat="42.997826" lon="-1.719675">
        <ele>563.937</ele>
        <time>2021-06-11T08:50:14Z</time>
      </trkpt>
      <trkpt lat="42.998136" lon="-1.720170">
        <ele>559.627</ele>
        <time>2021-06-11T08:50:25Z</time>
      </trkpt>
      <trkpt lat="42.998309" lon="-1.720436">
        <ele>557.265</ele>
        <time>2021-06-11T08:50:31Z</time>
      </trkpt>
      <trkpt lat="42.998337" lon="-1.720484">
        <ele>556.733</ele>
        <time>2021-06-11T08:50:32Z</time>
      </trkpt>
      <trkpt lat="42.998366" lon="-1.720533">
        <ele>556.728</ele>
        <time>2021-06-11T08:50:33Z</time>
      </trkpt>
      <trkpt lat="42.998537" lon="-1.720796">
        <ele>555.787</ele>
        <time>2021-06-11T08:50:39Z</time>
      </trkpt>
      <trkpt lat="42.998802" lon="-1.721166">
        <ele>552.452</ele>
        <time>2021-06-11T08:50:48Z</time>
      </trkpt>
      <trkpt lat="42.999011" lon="-1.721592">
        <ele>551.925</ele>
        <time>2021-06-11T08:50:57Z</time>
      </trkpt>
      <trkpt lat="42.999199" lon="-1.722009">
        <ele>555.326</ele>
        <time>2021-06-11T08:51:05Z</time>
      </trkpt>
      <trkpt lat="42.999487" lon="-1.722390">
        <ele>557.708</ele>
        <time>2021-06-11T08:51:14Z</time>
      </trkpt>
      <trkpt lat="42.999756" lon="-1.722731">
        <ele>558.608</ele>
        <time>2021-06-11T08:51:22Z</time>
      </trkpt>
      <trkpt lat="43.000050" lon="-1.723109">
        <ele>560.139</ele>
        <time>2021-06-11T08:51:32Z</time>
      </trkpt>
      <trkpt lat="43.000309" lon="-1.723446">
        <ele>562.097</ele>
        <time>2021-06-11T08:51:42Z</time>
      </trkpt>
      <trkpt lat="43.000588" lon="-1.723855">
        <ele>564.957</ele>
        <time>2021-06-11T08:51:53Z</time>
      </trkpt>
      <trkpt lat="43.000854" lon="-1.724280">
        <ele>566.385</ele>
        <time>2021-06-11T08:52:04Z</time>
      </trkpt>
      <trkpt lat="43.001159" lon="-1.724754">
        <ele>566.333</ele>
        <time>2021-06-11T08:52:17Z</time>
      </trkpt>
      <trkpt lat="43.001362" lon="-1.725081">
        <ele>566.848</ele>
        <time>2021-06-11T08:52:26Z</time>
      </trkpt>
      <trkpt lat="43.001541" lon="-1.725364">
        <ele>566.847</ele>
        <time>2021-06-11T08:52:34Z</time>
      </trkpt>
      <trkpt lat="43.001731" lon="-1.725664">
        <ele>568.262</ele>
        <time>2021-06-11T08:52:43Z</time>
      </trkpt>
      <trkpt lat="43.001907" lon="-1.725985">
        <ele>570.627</ele>
        <time>2021-06-11T08:52:52Z</time>
      </trkpt>
      <trkpt lat="43.002044" lon="-1.726373">
        <ele>572.668</ele>
        <time>2021-06-11T08:53:01Z</time>
      </trkpt>
      <trkpt lat="43.002077" lon="-1.726814">
        <ele>573.514</ele>
        <time>2021-06-11T08:53:11Z</time>
      </trkpt>
      <trkpt lat="43.002075" lon="-1.727082">
        <ele>573.008</ele>
        <time>2021-06-11T08:53:17Z</time>
      </trkpt>
      <trkpt lat="43.002106" lon="-1.727508">
        <ele>573.079</ele>
        <time>2021-06-11T08:53:26Z</time>
      </trkpt>
      <trkpt lat="43.002196" lon="-1.727857">
        <ele>570.617</ele>
        <time>2021-06-11T08:53:34Z</time>
      </trkpt>
      <trkpt lat="43.002319" lon="-1.728253">
        <ele>566.817</ele>
        <time>2021-06-11T08:53:43Z</time>
      </trkpt>
      <trkpt lat="43.002426" lon="-1.728591">
        <ele>561.515</ele>
        <time>2021-06-11T08:53:51Z</time>
      </trkpt>
      <trkpt lat="43.002541" lon="-1.728914">
        <ele>557.283</ele>
        <time>2021-06-11T08:53:59Z</time>
      </trkpt>
      <trkpt lat="43.002654" lon="-1.729264">
        <ele>555.328</ele>
        <time>2021-06-11T08:54:07Z</time>
      </trkpt>
      <trkpt lat="43.002792" lon="-1.729711">
        <ele>555.327</ele>
        <time>2021-06-11T08:54:17Z</time>
      </trkpt>
      <trkpt lat="43.002899" lon="-1.730113">
        <ele>554.382</ele>
        <time>2021-06-11T08:54:26Z</time>
      </trkpt>
      <trkpt lat="43.002982" lon="-1.730518">
        <ele>557.757</ele>
        <time>2021-06-11T08:54:35Z</time>
      </trkpt>
      <trkpt lat="43.003000" lon="-1.730741">
        <ele>560.500</ele>
        <time>2021-06-11T08:54:40Z</time>
      </trkpt>
      <trkpt lat="43.003023" lon="-1.731057">
        <ele>562.920</ele>
        <time>2021-06-11T08:54:47Z</time>
      </trkpt>
      <trkpt lat="43.003033" lon="-1.731425">
        <ele>562.908</ele>
        <time>2021-06-11T08:54:55Z</time>
      </trkpt>
      <trkpt lat="43.003029" lon="-1.731823">
        <ele>563.972</ele>
        <time>2021-06-11T08:55:03Z</time>
      </trkpt>
      <trkpt lat="43.003032" lon="-1.732184">
        <ele>566.850</ele>
        <time>2021-06-11T08:55:11Z</time>
      </trkpt>
      <trkpt lat="43.003021" lon="-1.732444">
        <ele>570.280</ele>
        <time>2021-06-11T08:55:17Z</time>
      </trkpt>
      <trkpt lat="43.003014" lon="-1.732873">
        <ele>574.078</ele>
        <time>2021-06-11T08:55:27Z</time>
      </trkpt>
      <trkpt lat="43.003012" lon="-1.733225">
        <ele>575.976</ele>
        <time>2021-06-11T08:55:36Z</time>
      </trkpt>
      <trkpt lat="43.003009" lon="-1.733576">
        <ele>577.831</ele>
        <time>2021-06-11T08:55:45Z</time>
      </trkpt>
      <trkpt lat="43.003007" lon="-1.733911">
        <ele>581.240</ele>
        <time>2021-06-11T08:55:54Z</time>
      </trkpt>
      <trkpt lat="43.003012" lon="-1.734181">
        <ele>582.785</ele>
        <time>2021-06-11T08:56:01Z</time>
      </trkpt>
      <trkpt lat="43.003018" lon="-1.734558">
        <ele>585.127</ele>
        <time>2021-06-11T08:56:11Z</time>
      </trkpt>
      <trkpt lat="43.003010" lon="-1.734877">
        <ele>586.568</ele>
        <time>2021-06-11T08:56:20Z</time>
      </trkpt>
      <trkpt lat="43.003006" lon="-1.735270">
        <ele>588.414</ele>
        <time>2021-06-11T08:56:30Z</time>
      </trkpt>
      <trkpt lat="43.002997" lon="-1.735647">
        <ele>589.908</ele>
        <time>2021-06-11T08:56:39Z</time>
      </trkpt>
      <trkpt lat="43.002975" lon="-1.736072">
        <ele>590.869</ele>
        <time>2021-06-11T08:56:49Z</time>
      </trkpt>
      <trkpt lat="43.002885" lon="-1.736446">
        <ele>593.227</ele>
        <time>2021-06-11T08:56:58Z</time>
      </trkpt>
      <trkpt lat="43.002718" lon="-1.736732">
        <ele>594.257</ele>
        <time>2021-06-11T08:57:06Z</time>
      </trkpt>
      <trkpt lat="43.002483" lon="-1.737029">
        <ele>595.165</ele>
        <time>2021-06-11T08:57:15Z</time>
      </trkpt>
      <trkpt lat="43.002147" lon="-1.737432">
        <ele>595.193</ele>
        <time>2021-06-11T08:57:26Z</time>
      </trkpt>
      <trkpt lat="43.001850" lon="-1.737782">
        <ele>596.118</ele>
        <time>2021-06-11T08:57:35Z</time>
      </trkpt>
      <trkpt lat="43.001529" lon="-1.738161">
        <ele>597.697</ele>
        <time>2021-06-11T08:57:45Z</time>
      </trkpt>
      <trkpt lat="43.001342" lon="-1.738395">
        <ele>598.072</ele>
        <time>2021-06-11T08:57:52Z</time>
      </trkpt>
      <trkpt lat="43.001309" lon="-1.738591">
        <ele>598.065</ele>
        <time>2021-06-11T08:57:57Z</time>
      </trkpt>
      <trkpt lat="43.001283" lon="-1.738949">
        <ele>599.568</ele>
        <time>2021-06-11T08:58:06Z</time>
      </trkpt>
      <trkpt lat="43.001299" lon="-1.739249">
        <ele>601.414</ele>
        <time>2021-06-11T08:58:14Z</time>
      </trkpt>
      <trkpt lat="43.001334" lon="-1.739497">
        <ele>600.408</ele>
        <time>2021-06-11T08:58:23Z</time>
      </trkpt>
      <trkpt lat="43.001344" lon="-1.739485">
        <ele>600.443</ele>
        <time>2021-06-11T08:58:33Z</time>
      </trkpt>
      <trkpt lat="43.001348" lon="-1.739482">
        <ele>598.561</ele>
        <time>2021-06-11T08:58:47Z</time>
      </trkpt>
      <trkpt lat="43.001374" lon="-1.739594">
        <ele>598.551</ele>
        <time>2021-06-11T08:58:53Z</time>
      </trkpt>
      <trkpt lat="43.001454" lon="-1.739793">
        <ele>598.569</ele>
        <time>2021-06-11T08:59:01Z</time>
      </trkpt>
      <trkpt lat="43.001577" lon="-1.739948">
        <ele>600.017</ele>
        <time>2021-06-11T08:59:09Z</time>
      </trkpt>
      <trkpt lat="43.001729" lon="-1.740040">
        <ele>601.992</ele>
        <time>2021-06-11T08:59:17Z</time>
      </trkpt>
      <trkpt lat="43.001874" lon="-1.740129">
        <ele>603.821</ele>
        <time>2021-06-11T08:59:25Z</time>
      </trkpt>
      <trkpt lat="43.001994" lon="-1.740201">
        <ele>604.366</ele>
        <time>2021-06-11T08:59:32Z</time>
      </trkpt>
      <trkpt lat="43.002144" lon="-1.740272">
        <ele>605.781</ele>
        <time>2021-06-11T08:59:40Z</time>
      </trkpt>
      <trkpt lat="43.002289" lon="-1.740349">
        <ele>608.161</ele>
        <time>2021-06-11T08:59:48Z</time>
      </trkpt>
      <trkpt lat="43.002450" lon="-1.740459">
        <ele>609.617</ele>
        <time>2021-06-11T08:59:58Z</time>
      </trkpt>
      <trkpt lat="43.002558" lon="-1.740573">
        <ele>609.108</ele>
        <time>2021-06-11T09:00:06Z</time>
      </trkpt>
      <trkpt lat="43.002563" lon="-1.740602">
        <ele>609.175</ele>
        <time>2021-06-11T09:00:07Z</time>
      </trkpt>
      <trkpt lat="43.002559" lon="-1.740623">
        <ele>609.643</ele>
        <time>2021-06-11T09:00:08Z</time>
      </trkpt>
      <trkpt lat="43.002548" lon="-1.740649">
        <ele>609.613</ele>
        <time>2021-06-11T09:00:09Z</time>
      </trkpt>
      <trkpt lat="43.002539" lon="-1.740674">
        <ele>610.061</ele>
        <time>2021-06-11T09:00:10Z</time>
      </trkpt>
      <trkpt lat="43.002529" lon="-1.740697">
        <ele>610.099</ele>
        <time>2021-06-11T09:00:11Z</time>
      </trkpt>
      <trkpt lat="43.002465" lon="-1.740901">
        <ele>612.584</ele>
        <time>2021-06-11T09:00:19Z</time>
      </trkpt>
      <trkpt lat="43.002447" lon="-1.741104">
        <ele>613.463</ele>
        <time>2021-06-11T09:00:26Z</time>
      </trkpt>
      <trkpt lat="43.002440" lon="-1.741183">
        <ele>613.938</ele>
        <time>2021-06-11T09:00:29Z</time>
      </trkpt>
      <trkpt lat="43.002436" lon="-1.741206">
        <ele>613.911</ele>
        <time>2021-06-11T09:00:30Z</time>
      </trkpt>
      <trkpt lat="43.002433" lon="-1.741465">
        <ele>614.421</ele>
        <time>2021-06-11T09:00:39Z</time>
      </trkpt>
      <trkpt lat="43.002462" lon="-1.741690">
        <ele>613.903</ele>
        <time>2021-06-11T09:00:48Z</time>
      </trkpt>
      <trkpt lat="43.002466" lon="-1.741774">
        <ele>613.908</ele>
        <time>2021-06-11T09:00:52Z</time>
      </trkpt>
      <trkpt lat="43.002466" lon="-1.741789">
        <ele>613.958</ele>
        <time>2021-06-11T09:00:58Z</time>
      </trkpt>
      <trkpt lat="43.002467" lon="-1.741809">
        <ele>614.496</ele>
        <time>2021-06-11T09:01:09Z</time>
      </trkpt>
      <trkpt lat="43.002460" lon="-1.741797">
        <ele>614.456</ele>
        <time>2021-06-11T09:01:17Z</time>
      </trkpt>
      <trkpt lat="43.002452" lon="-1.741780">
        <ele>614.484</ele>
        <time>2021-06-11T09:01:33Z</time>
      </trkpt>
      <trkpt lat="43.002466" lon="-1.741784">
        <ele>615.382</ele>
        <time>2021-06-11T09:01:50Z</time>
      </trkpt>
      <trkpt lat="43.002458" lon="-1.741781">
        <ele>615.367</ele>
        <time>2021-06-11T09:02:05Z</time>
      </trkpt>
      <trkpt lat="43.002467" lon="-1.741785">
        <ele>615.876</ele>
        <time>2021-06-11T09:02:17Z</time>
      </trkpt>
      <trkpt lat="43.002479" lon="-1.741789">
        <ele>614.451</ele>
        <time>2021-06-11T09:02:27Z</time>
      </trkpt>
      <trkpt lat="43.002487" lon="-1.741790">
        <ele>613.486</ele>
        <time>2021-06-11T09:02:39Z</time>
      </trkpt>
      <trkpt lat="43.002482" lon="-1.741812">
        <ele>613.960</ele>
        <time>2021-06-11T09:02:47Z</time>
      </trkpt>
      <trkpt lat="43.002469" lon="-1.741826">
        <ele>613.926</ele>
        <time>2021-06-11T09:02:57Z</time>
      </trkpt>
      <trkpt lat="43.002459" lon="-1.741838">
        <ele>615.808</ele>
        <time>2021-06-11T09:03:12Z</time>
      </trkpt>
      <trkpt lat="43.002469" lon="-1.741853">
        <ele>614.925</ele>
        <time>2021-06-11T09:03:19Z</time>
      </trkpt>
      <trkpt lat="43.002476" lon="-1.741868">
        <ele>615.323</ele>
        <time>2021-06-11T09:03:20Z</time>
      </trkpt>
      <trkpt lat="43.002482" lon="-1.741886">
        <ele>615.353</ele>
        <time>2021-06-11T09:03:21Z</time>
      </trkpt>
      <trkpt lat="43.002490" lon="-1.741907">
        <ele>615.851</ele>
        <time>2021-06-11T09:03:22Z</time>
      </trkpt>
      <trkpt lat="43.002494" lon="-1.741933">
        <ele>615.869</ele>
        <time>2021-06-11T09:03:23Z</time>
      </trkpt>
      <trkpt lat="43.002497" lon="-1.741959">
        <ele>615.864</ele>
        <time>2021-06-11T09:03:24Z</time>
      </trkpt>
      <trkpt lat="43.002522" lon="-1.742155">
        <ele>616.873</ele>
        <time>2021-06-11T09:03:31Z</time>
      </trkpt>
      <trkpt lat="43.002598" lon="-1.742388">
        <ele>614.418</ele>
        <time>2021-06-11T09:03:39Z</time>
      </trkpt>
      <trkpt lat="43.002723" lon="-1.742590">
        <ele>612.945</ele>
        <time>2021-06-11T09:03:46Z</time>
      </trkpt>
      <trkpt lat="43.002871" lon="-1.742842">
        <ele>609.147</ele>
        <time>2021-06-11T09:03:54Z</time>
      </trkpt>
      <trkpt lat="43.002998" lon="-1.743111">
        <ele>605.211</ele>
        <time>2021-06-11T09:03:59Z</time>
      </trkpt>
      <trkpt lat="43.003131" lon="-1.743449">
        <ele>600.908</ele>
        <time>2021-06-11T09:04:05Z</time>
      </trkpt>
      <trkpt lat="43.003163" lon="-1.743568">
        <ele>599.561</ele>
        <time>2021-06-11T09:04:07Z</time>
      </trkpt>
      <trkpt lat="43.003238" lon="-1.744131">
        <ele>592.719</ele>
        <time>2021-06-11T09:04:15Z</time>
      </trkpt>
      <trkpt lat="43.003332" lon="-1.744818">
        <ele>586.599</ele>
        <time>2021-06-11T09:04:22Z</time>
      </trkpt>
      <trkpt lat="43.003395" lon="-1.745139">
        <ele>581.717</ele>
        <time>2021-06-11T09:04:26Z</time>
      </trkpt>
      <trkpt lat="43.003410" lon="-1.745190">
        <ele>580.795</ele>
        <time>2021-06-11T09:04:27Z</time>
      </trkpt>
      <trkpt lat="43.003429" lon="-1.745235">
        <ele>580.270</ele>
        <time>2021-06-11T09:04:28Z</time>
      </trkpt>
      <trkpt lat="43.003447" lon="-1.745272">
        <ele>579.379</ele>
        <time>2021-06-11T09:04:29Z</time>
      </trkpt>
      <trkpt lat="43.003468" lon="-1.745308">
        <ele>578.874</ele>
        <time>2021-06-11T09:04:30Z</time>
      </trkpt>
      <trkpt lat="43.003656" lon="-1.745513">
        <ele>577.889</ele>
        <time>2021-06-11T09:04:36Z</time>
      </trkpt>
      <trkpt lat="43.003848" lon="-1.745731">
        <ele>577.406</ele>
        <time>2021-06-11T09:04:43Z</time>
      </trkpt>
      <trkpt lat="43.004003" lon="-1.745853">
        <ele>577.826</ele>
        <time>2021-06-11T09:04:50Z</time>
      </trkpt>
      <trkpt lat="43.004210" lon="-1.745993">
        <ele>578.808</ele>
        <time>2021-06-11T09:05:01Z</time>
      </trkpt>
      <trkpt lat="43.004364" lon="-1.746139">
        <ele>580.215</ele>
        <time>2021-06-11T09:05:11Z</time>
      </trkpt>
      <trkpt lat="43.004552" lon="-1.746354">
        <ele>581.733</ele>
        <time>2021-06-11T09:05:22Z</time>
      </trkpt>
      <trkpt lat="43.004750" lon="-1.746578">
        <ele>581.733</ele>
        <time>2021-06-11T09:05:33Z</time>
      </trkpt>
      <trkpt lat="43.004940" lon="-1.746795">
        <ele>583.131</ele>
        <time>2021-06-11T09:05:44Z</time>
      </trkpt>
      <trkpt lat="43.005068" lon="-1.746954">
        <ele>583.689</ele>
        <time>2021-06-11T09:05:52Z</time>
      </trkpt>
      <trkpt lat="43.005209" lon="-1.747118">
        <ele>584.624</ele>
        <time>2021-06-11T09:06:00Z</time>
      </trkpt>
      <trkpt lat="43.005405" lon="-1.747342">
        <ele>585.563</ele>
        <time>2021-06-11T09:06:10Z</time>
      </trkpt>
      <trkpt lat="43.005635" lon="-1.747628">
        <ele>587.098</ele>
        <time>2021-06-11T09:06:22Z</time>
      </trkpt>
      <trkpt lat="43.005802" lon="-1.747896">
        <ele>588.428</ele>
        <time>2021-06-11T09:06:32Z</time>
      </trkpt>
      <trkpt lat="43.005931" lon="-1.748101">
        <ele>589.489</ele>
        <time>2021-06-11T09:06:40Z</time>
      </trkpt>
      <trkpt lat="43.006017" lon="-1.748237">
        <ele>590.317</ele>
        <time>2021-06-11T09:06:47Z</time>
      </trkpt>
      <trkpt lat="43.006181" lon="-1.748468">
        <ele>590.808</ele>
        <time>2021-06-11T09:06:57Z</time>
      </trkpt>
      <trkpt lat="43.006369" lon="-1.748701">
        <ele>592.329</ele>
        <time>2021-06-11T09:07:07Z</time>
      </trkpt>
      <trkpt lat="43.006588" lon="-1.748971">
        <ele>592.767</ele>
        <time>2021-06-11T09:07:19Z</time>
      </trkpt>
      <trkpt lat="43.006767" lon="-1.749198">
        <ele>593.237</ele>
        <time>2021-06-11T09:07:28Z</time>
      </trkpt>
      <trkpt lat="43.006974" lon="-1.749463">
        <ele>594.285</ele>
        <time>2021-06-11T09:07:39Z</time>
      </trkpt>
      <trkpt lat="43.007140" lon="-1.749674">
        <ele>595.193</ele>
        <time>2021-06-11T09:07:48Z</time>
      </trkpt>
      <trkpt lat="43.007337" lon="-1.749929">
        <ele>595.688</ele>
        <time>2021-06-11T09:07:58Z</time>
      </trkpt>
      <trkpt lat="43.007470" lon="-1.750133">
        <ele>595.637</ele>
        <time>2021-06-11T09:08:06Z</time>
      </trkpt>
      <trkpt lat="43.007653" lon="-1.750406">
        <ele>595.182</ele>
        <time>2021-06-11T09:08:14Z</time>
      </trkpt>
      <trkpt lat="43.007891" lon="-1.750780">
        <ele>593.276</ele>
        <time>2021-06-11T09:08:23Z</time>
      </trkpt>
      <trkpt lat="43.008169" lon="-1.751164">
        <ele>590.390</ele>
        <time>2021-06-11T09:08:32Z</time>
      </trkpt>
      <trkpt lat="43.008201" lon="-1.751203">
        <ele>590.319</ele>
        <time>2021-06-11T09:08:33Z</time>
      </trkpt>
      <trkpt lat="43.008280" lon="-1.751329">
        <ele>589.408</ele>
        <time>2021-06-11T09:08:36Z</time>
      </trkpt>
      <trkpt lat="43.008303" lon="-1.751370">
        <ele>589.454</ele>
        <time>2021-06-11T09:08:37Z</time>
      </trkpt>
      <trkpt lat="43.008328" lon="-1.751413">
        <ele>589.432</ele>
        <time>2021-06-11T09:08:38Z</time>
      </trkpt>
      <trkpt lat="43.008355" lon="-1.751456">
        <ele>588.922</ele>
        <time>2021-06-11T09:08:39Z</time>
      </trkpt>
      <trkpt lat="43.008383" lon="-1.751509">
        <ele>588.940</ele>
        <time>2021-06-11T09:08:40Z</time>
      </trkpt>
      <trkpt lat="43.008406" lon="-1.751561">
        <ele>588.448</ele>
        <time>2021-06-11T09:08:41Z</time>
      </trkpt>
      <trkpt lat="43.008528" lon="-1.751879">
        <ele>586.553</ele>
        <time>2021-06-11T09:08:47Z</time>
      </trkpt>
      <trkpt lat="43.008533" lon="-1.751947">
        <ele>586.082</ele>
        <time>2021-06-11T09:08:48Z</time>
      </trkpt>
      <trkpt lat="43.008547" lon="-1.752390">
        <ele>583.637</ele>
        <time>2021-06-11T09:08:54Z</time>
      </trkpt>
      <trkpt lat="43.008563" lon="-1.752767">
        <ele>583.645</ele>
        <time>2021-06-11T09:08:59Z</time>
      </trkpt>
      <trkpt lat="43.008601" lon="-1.753005">
        <ele>583.147</ele>
        <time>2021-06-11T09:09:04Z</time>
      </trkpt>
      <trkpt lat="43.008678" lon="-1.753381">
        <ele>584.111</ele>
        <time>2021-06-11T09:09:14Z</time>
      </trkpt>
      <trkpt lat="43.008716" lon="-1.753625">
        <ele>585.108</ele>
        <time>2021-06-11T09:09:22Z</time>
      </trkpt>
      <trkpt lat="43.008715" lon="-1.753955">
        <ele>588.491</ele>
        <time>2021-06-11T09:09:33Z</time>
      </trkpt>
      <trkpt lat="43.008729" lon="-1.754052">
        <ele>589.979</ele>
        <time>2021-06-11T09:09:37Z</time>
      </trkpt>
      <trkpt lat="43.008742" lon="-1.754073">
        <ele>589.959</ele>
        <time>2021-06-11T09:09:38Z</time>
      </trkpt>
      <trkpt lat="43.008756" lon="-1.754089">
        <ele>589.987</ele>
        <time>2021-06-11T09:09:39Z</time>
      </trkpt>
      <trkpt lat="43.008906" lon="-1.754210">
        <ele>591.845</ele>
        <time>2021-06-11T09:09:49Z</time>
      </trkpt>
      <trkpt lat="43.008984" lon="-1.754249">
        <ele>593.240</ele>
        <time>2021-06-11T09:09:56Z</time>
      </trkpt>
      <trkpt lat="43.008994" lon="-1.754259">
        <ele>593.279</ele>
        <time>2021-06-11T09:09:57Z</time>
      </trkpt>
      <trkpt lat="43.009006" lon="-1.754267">
        <ele>593.234</ele>
        <time>2021-06-11T09:09:58Z</time>
      </trkpt>
      <trkpt lat="43.009018" lon="-1.754277">
        <ele>593.717</ele>
        <time>2021-06-11T09:09:59Z</time>
      </trkpt>
      <trkpt lat="43.009030" lon="-1.754286">
        <ele>593.787</ele>
        <time>2021-06-11T09:10:00Z</time>
      </trkpt>
      <trkpt lat="43.009131" lon="-1.754366">
        <ele>594.715</ele>
        <time>2021-06-11T09:10:09Z</time>
      </trkpt>
      <trkpt lat="43.009235" lon="-1.754452">
        <ele>595.608</ele>
        <time>2021-06-11T09:10:17Z</time>
      </trkpt>
      <trkpt lat="43.009361" lon="-1.754564">
        <ele>595.688</ele>
        <time>2021-06-11T09:10:26Z</time>
      </trkpt>
      <trkpt lat="43.009395" lon="-1.754594">
        <ele>596.186</ele>
        <time>2021-06-11T09:10:29Z</time>
      </trkpt>
      <trkpt lat="43.009448" lon="-1.754638">
        <ele>595.616</ele>
        <time>2021-06-11T09:10:36Z</time>
      </trkpt>
      <trkpt lat="43.009449" lon="-1.754641">
        <ele>597.134</ele>
        <time>2021-06-11T09:10:51Z</time>
      </trkpt>
      <trkpt lat="43.009434" lon="-1.754656">
        <ele>598.062</ele>
        <time>2021-06-11T09:10:58Z</time>
      </trkpt>
      <trkpt lat="43.009426" lon="-1.754648">
        <ele>598.077</ele>
        <time>2021-06-11T09:10:59Z</time>
      </trkpt>
      <trkpt lat="43.009413" lon="-1.754638">
        <ele>598.016</ele>
        <time>2021-06-11T09:11:00Z</time>
      </trkpt>
      <trkpt lat="43.009356" lon="-1.754572">
        <ele>598.051</ele>
        <time>2021-06-11T09:11:07Z</time>
      </trkpt>
      <trkpt lat="43.009381" lon="-1.754581">
        <ele>598.044</ele>
        <time>2021-06-11T09:11:11Z</time>
      </trkpt>
      <trkpt lat="43.009388" lon="-1.754589">
        <ele>598.005</ele>
        <time>2021-06-11T09:11:12Z</time>
      </trkpt>
      <trkpt lat="43.009398" lon="-1.754600">
        <ele>598.015</ele>
        <time>2021-06-11T09:11:13Z</time>
      </trkpt>
      <trkpt lat="43.009409" lon="-1.754610">
        <ele>597.608</ele>
        <time>2021-06-11T09:11:14Z</time>
      </trkpt>
      <trkpt lat="43.009419" lon="-1.754620">
        <ele>597.651</ele>
        <time>2021-06-11T09:11:15Z</time>
      </trkpt>
      <trkpt lat="43.009431" lon="-1.754632">
        <ele>597.619</ele>
        <time>2021-06-11T09:11:16Z</time>
      </trkpt>
      <trkpt lat="43.009446" lon="-1.754643">
        <ele>597.659</ele>
        <time>2021-06-11T09:11:17Z</time>
      </trkpt>
      <trkpt lat="43.009461" lon="-1.754653">
        <ele>597.627</ele>
        <time>2021-06-11T09:11:18Z</time>
      </trkpt>
      <trkpt lat="43.009577" lon="-1.754773">
        <ele>597.625</ele>
        <time>2021-06-11T09:11:24Z</time>
      </trkpt>
      <trkpt lat="43.009664" lon="-1.754849">
        <ele>597.670</ele>
        <time>2021-06-11T09:11:29Z</time>
      </trkpt>
      <trkpt lat="43.009641" lon="-1.754796">
        <ele>597.129</ele>
        <time>2021-06-11T09:11:33Z</time>
      </trkpt>
      <trkpt lat="43.009619" lon="-1.754783">
        <ele>597.194</ele>
        <time>2021-06-11T09:11:34Z</time>
      </trkpt>
      <trkpt lat="43.009453" lon="-1.754666">
        <ele>596.143</ele>
        <time>2021-06-11T09:11:42Z</time>
      </trkpt>
      <trkpt lat="43.009452" lon="-1.754638">
        <ele>596.164</ele>
        <time>2021-06-11T09:11:46Z</time>
      </trkpt>
      <trkpt lat="43.009465" lon="-1.754642">
        <ele>596.610</ele>
        <time>2021-06-11T09:11:55Z</time>
      </trkpt>
      <trkpt lat="43.009477" lon="-1.754658">
        <ele>596.608</ele>
        <time>2021-06-11T09:12:01Z</time>
      </trkpt>
      <trkpt lat="43.009567" lon="-1.754745">
        <ele>596.631</ele>
        <time>2021-06-11T09:12:07Z</time>
      </trkpt>
      <trkpt lat="43.009730" lon="-1.754887">
        <ele>597.199</ele>
        <time>2021-06-11T09:12:14Z</time>
      </trkpt>
      <trkpt lat="43.009905" lon="-1.755043">
        <ele>597.189</ele>
        <time>2021-06-11T09:12:21Z</time>
      </trkpt>
      <trkpt lat="43.010176" lon="-1.755271">
        <ele>596.677</ele>
        <time>2021-06-11T09:12:31Z</time>
      </trkpt>
      <trkpt lat="43.010341" lon="-1.755417">
        <ele>596.665</ele>
        <time>2021-06-11T09:12:38Z</time>
      </trkpt>
      <trkpt lat="43.010550" lon="-1.755603">
        <ele>595.650</ele>
        <time>2021-06-11T09:12:46Z</time>
      </trkpt>
      <trkpt lat="43.010837" lon="-1.755829">
        <ele>594.739</ele>
        <time>2021-06-11T09:12:55Z</time>
      </trkpt>
      <trkpt lat="43.011083" lon="-1.756024">
        <ele>594.784</ele>
        <time>2021-06-11T09:13:04Z</time>
      </trkpt>
      <trkpt lat="43.011334" lon="-1.756155">
        <ele>596.196</ele>
        <time>2021-06-11T09:13:13Z</time>
      </trkpt>
      <trkpt lat="43.011497" lon="-1.756268">
        <ele>597.131</ele>
        <time>2021-06-11T09:13:21Z</time>
      </trkpt>
      <trkpt lat="43.011602" lon="-1.756362">
        <ele>598.024</ele>
        <time>2021-06-11T09:13:29Z</time>
      </trkpt>
      <trkpt lat="43.011728" lon="-1.756486">
        <ele>600.408</ele>
        <time>2021-06-11T09:13:38Z</time>
      </trkpt>
      <trkpt lat="43.011863" lon="-1.756611">
        <ele>602.826</ele>
        <time>2021-06-11T09:13:47Z</time>
      </trkpt>
      <trkpt lat="43.012010" lon="-1.756728">
        <ele>602.434</ele>
        <time>2021-06-11T09:13:56Z</time>
      </trkpt>
      <trkpt lat="43.012173" lon="-1.756854">
        <ele>603.324</ele>
        <time>2021-06-11T09:14:05Z</time>
      </trkpt>
      <trkpt lat="43.012301" lon="-1.756950">
        <ele>604.882</ele>
        <time>2021-06-11T09:14:12Z</time>
      </trkpt>
      <trkpt lat="43.012430" lon="-1.757063">
        <ele>604.810</ele>
        <time>2021-06-11T09:14:19Z</time>
      </trkpt>
      <trkpt lat="43.012616" lon="-1.757213">
        <ele>604.875</ele>
        <time>2021-06-11T09:14:28Z</time>
      </trkpt>
      <trkpt lat="43.012768" lon="-1.757332">
        <ele>604.864</ele>
        <time>2021-06-11T09:14:36Z</time>
      </trkpt>
      <trkpt lat="43.012846" lon="-1.757422">
        <ele>604.869</ele>
        <time>2021-06-11T09:14:42Z</time>
      </trkpt>
      <trkpt lat="43.012844" lon="-1.757436">
        <ele>604.831</ele>
        <time>2021-06-11T09:14:43Z</time>
      </trkpt>
      <trkpt lat="43.012834" lon="-1.757447">
        <ele>604.861</ele>
        <time>2021-06-11T09:14:50Z</time>
      </trkpt>
      <trkpt lat="43.012830" lon="-1.757451">
        <ele>605.707</ele>
        <time>2021-06-11T09:15:01Z</time>
      </trkpt>
      <trkpt lat="43.012830" lon="-1.757430">
        <ele>607.208</ele>
        <time>2021-06-11T09:15:14Z</time>
      </trkpt>
      <trkpt lat="43.012824" lon="-1.757418">
        <ele>606.210</ele>
        <time>2021-06-11T09:15:25Z</time>
      </trkpt>
      <trkpt lat="43.012816" lon="-1.757446">
        <ele>606.268</ele>
        <time>2021-06-11T09:15:39Z</time>
      </trkpt>
      <trkpt lat="43.012832" lon="-1.757461">
        <ele>607.678</ele>
        <time>2021-06-11T09:15:52Z</time>
      </trkpt>
      <trkpt lat="43.012835" lon="-1.757456">
        <ele>608.656</ele>
        <time>2021-06-11T09:16:06Z</time>
      </trkpt>
      <trkpt lat="43.012846" lon="-1.757451">
        <ele>609.694</ele>
        <time>2021-06-11T09:16:19Z</time>
      </trkpt>
      <trkpt lat="43.012839" lon="-1.757439">
        <ele>611.019</ele>
        <time>2021-06-11T09:16:30Z</time>
      </trkpt>
      <trkpt lat="43.012841" lon="-1.757432">
        <ele>612.598</ele>
        <time>2021-06-11T09:16:43Z</time>
      </trkpt>
      <trkpt lat="43.012843" lon="-1.757442">
        <ele>612.973</ele>
        <time>2021-06-11T09:16:57Z</time>
      </trkpt>
      <trkpt lat="43.012841" lon="-1.757448">
        <ele>611.093</ele>
        <time>2021-06-11T09:17:12Z</time>
      </trkpt>
      <trkpt lat="43.012836" lon="-1.757455">
        <ele>609.165</ele>
        <time>2021-06-11T09:17:22Z</time>
      </trkpt>
      <trkpt lat="43.012825" lon="-1.757457">
        <ele>609.621</ele>
        <time>2021-06-11T09:17:35Z</time>
      </trkpt>
      <trkpt lat="43.012842" lon="-1.757472">
        <ele>607.608</ele>
        <time>2021-06-11T09:17:48Z</time>
      </trkpt>
      <trkpt lat="43.012847" lon="-1.757475">
        <ele>606.746</ele>
        <time>2021-06-11T09:18:01Z</time>
      </trkpt>
      <trkpt lat="43.012832" lon="-1.757466">
        <ele>606.294</ele>
        <time>2021-06-11T09:18:13Z</time>
      </trkpt>
      <trkpt lat="43.012819" lon="-1.757431">
        <ele>606.274</ele>
        <time>2021-06-11T09:18:26Z</time>
      </trkpt>
      <trkpt lat="43.012835" lon="-1.757420">
        <ele>605.732</ele>
        <time>2021-06-11T09:18:39Z</time>
      </trkpt>
      <trkpt lat="43.012845" lon="-1.757440">
        <ele>605.280</ele>
        <time>2021-06-11T09:18:52Z</time>
      </trkpt>
      <trkpt lat="43.012839" lon="-1.757469">
        <ele>608.145</ele>
        <time>2021-06-11T09:19:05Z</time>
      </trkpt>
      <trkpt lat="43.012832" lon="-1.757479">
        <ele>612.564</ele>
        <time>2021-06-11T09:19:19Z</time>
      </trkpt>
      <trkpt lat="43.012815" lon="-1.757463">
        <ele>614.939</ele>
        <time>2021-06-11T09:19:32Z</time>
      </trkpt>
      <trkpt lat="43.012809" lon="-1.757448">
        <ele>617.317</ele>
        <time>2021-06-11T09:19:46Z</time>
      </trkpt>
      <trkpt lat="43.012814" lon="-1.757433">
        <ele>618.787</ele>
        <time>2021-06-11T09:19:58Z</time>
      </trkpt>
      <trkpt lat="43.012819" lon="-1.757418">
        <ele>620.115</ele>
        <time>2021-06-11T09:20:11Z</time>
      </trkpt>
      <trkpt lat="43.012824" lon="-1.757427">
        <ele>620.608</ele>
        <time>2021-06-11T09:20:26Z</time>
      </trkpt>
      <trkpt lat="43.012837" lon="-1.757427">
        <ele>620.138</ele>
        <time>2021-06-11T09:20:40Z</time>
      </trkpt>
      <trkpt lat="43.012842" lon="-1.757415">
        <ele>620.656</ele>
        <time>2021-06-11T09:20:54Z</time>
      </trkpt>
      <trkpt lat="43.012830" lon="-1.757390">
        <ele>618.776</ele>
        <time>2021-06-11T09:21:11Z</time>
      </trkpt>
      <trkpt lat="43.012824" lon="-1.757400">
        <ele>616.374</ele>
        <time>2021-06-11T09:21:25Z</time>
      </trkpt>
      <trkpt lat="43.012828" lon="-1.757430">
        <ele>612.572</ele>
        <time>2021-06-11T09:21:45Z</time>
      </trkpt>
      <trkpt lat="43.012836" lon="-1.757441">
        <ele>609.657</ele>
        <time>2021-06-11T09:22:02Z</time>
      </trkpt>
      <trkpt lat="43.012831" lon="-1.757444">
        <ele>611.586</ele>
        <time>2021-06-11T09:22:18Z</time>
      </trkpt>
      <trkpt lat="43.012825" lon="-1.757442">
        <ele>611.531</ele>
        <time>2021-06-11T09:22:35Z</time>
      </trkpt>
      <trkpt lat="43.012820" lon="-1.757444">
        <ele>613.459</ele>
        <time>2021-06-11T09:22:53Z</time>
      </trkpt>
      <trkpt lat="43.012828" lon="-1.757438">
        <ele>614.403</ele>
        <time>2021-06-11T09:23:15Z</time>
      </trkpt>
      <trkpt lat="43.012820" lon="-1.757457">
        <ele>613.923</ele>
        <time>2021-06-11T09:23:37Z</time>
      </trkpt>
      <trkpt lat="43.012835" lon="-1.757450">
        <ele>615.308</ele>
        <time>2021-06-11T09:23:52Z</time>
      </trkpt>
      <trkpt lat="43.012846" lon="-1.757451">
        <ele>613.992</ele>
        <time>2021-06-11T09:23:58Z</time>
      </trkpt>
      <trkpt lat="43.012859" lon="-1.757457">
        <ele>613.970</ele>
        <time>2021-06-11T09:23:59Z</time>
      </trkpt>
      <trkpt lat="43.012878" lon="-1.757465">
        <ele>613.420</ele>
        <time>2021-06-11T09:24:00Z</time>
      </trkpt>
      <trkpt lat="43.013027" lon="-1.757568">
        <ele>612.968</ele>
        <time>2021-06-11T09:24:07Z</time>
      </trkpt>
      <trkpt lat="43.013180" lon="-1.757639">
        <ele>612.076</ele>
        <time>2021-06-11T09:24:15Z</time>
      </trkpt>
      <trkpt lat="43.013353" lon="-1.757701">
        <ele>613.411</ele>
        <time>2021-06-11T09:24:23Z</time>
      </trkpt>
      <trkpt lat="43.013587" lon="-1.757766">
        <ele>613.460</ele>
        <time>2021-06-11T09:24:32Z</time>
      </trkpt>
      <trkpt lat="43.013761" lon="-1.757846">
        <ele>612.915</ele>
        <time>2021-06-11T09:24:39Z</time>
      </trkpt>
      <trkpt lat="43.014020" lon="-1.758045">
        <ele>612.574</ele>
        <time>2021-06-11T09:24:50Z</time>
      </trkpt>
      <trkpt lat="43.014253" lon="-1.758229">
        <ele>612.556</ele>
        <time>2021-06-11T09:25:00Z</time>
      </trkpt>
      <trkpt lat="43.014450" lon="-1.758342">
        <ele>611.521</ele>
        <time>2021-06-11T09:25:08Z</time>
      </trkpt>
      <trkpt lat="43.014706" lon="-1.758463">
        <ele>611.508</ele>
        <time>2021-06-11T09:25:18Z</time>
      </trkpt>
      <trkpt lat="43.014941" lon="-1.758577">
        <ele>611.014</ele>
        <time>2021-06-11T09:25:27Z</time>
      </trkpt>
      <trkpt lat="43.015230" lon="-1.758710">
        <ele>610.022</ele>
        <time>2021-06-11T09:25:37Z</time>
      </trkpt>
      <trkpt lat="43.015405" lon="-1.758794">
        <ele>610.082</ele>
        <time>2021-06-11T09:25:43Z</time>
      </trkpt>
      <trkpt lat="43.015583" lon="-1.758848">
        <ele>609.670</ele>
        <time>2021-06-11T09:25:49Z</time>
      </trkpt>
      <trkpt lat="43.015778" lon="-1.758881">
        <ele>610.088</ele>
        <time>2021-06-11T09:25:56Z</time>
      </trkpt>
      <trkpt lat="43.016057" lon="-1.758939">
        <ele>609.623</ele>
        <time>2021-06-11T09:26:04Z</time>
      </trkpt>
      <trkpt lat="43.016415" lon="-1.759065">
        <ele>609.182</ele>
        <time>2021-06-11T09:26:13Z</time>
      </trkpt>
      <trkpt lat="43.016710" lon="-1.759122">
        <ele>609.657</ele>
        <time>2021-06-11T09:26:21Z</time>
      </trkpt>
      <trkpt lat="43.016933" lon="-1.759187">
        <ele>608.639</ele>
        <time>2021-06-11T09:26:29Z</time>
      </trkpt>
      <trkpt lat="43.017154" lon="-1.759275">
        <ele>609.601</ele>
        <time>2021-06-11T09:26:38Z</time>
      </trkpt>
      <trkpt lat="43.017443" lon="-1.759378">
        <ele>610.521</ele>
        <time>2021-06-11T09:26:48Z</time>
      </trkpt>
      <trkpt lat="43.017824" lon="-1.759458">
        <ele>611.508</ele>
        <time>2021-06-11T09:26:59Z</time>
      </trkpt>
      <trkpt lat="43.018184" lon="-1.759512">
        <ele>610.070</ele>
        <time>2021-06-11T09:27:07Z</time>
      </trkpt>
      <trkpt lat="43.018678" lon="-1.759504">
        <ele>608.618</ele>
        <time>2021-06-11T09:27:16Z</time>
      </trkpt>
      <trkpt lat="43.019047" lon="-1.759458">
        <ele>609.138</ele>
        <time>2021-06-11T09:27:24Z</time>
      </trkpt>
      <trkpt lat="43.019429" lon="-1.759412">
        <ele>610.026</ele>
        <time>2021-06-11T09:27:34Z</time>
      </trkpt>
      <trkpt lat="43.019878" lon="-1.759285">
        <ele>611.074</ele>
        <time>2021-06-11T09:27:45Z</time>
      </trkpt>
      <trkpt lat="43.020151" lon="-1.759279">
        <ele>612.019</ele>
        <time>2021-06-11T09:27:52Z</time>
      </trkpt>
      <trkpt lat="43.020432" lon="-1.759351">
        <ele>612.598</ele>
        <time>2021-06-11T09:28:00Z</time>
      </trkpt>
      <trkpt lat="43.020773" lon="-1.759378">
        <ele>612.913</ele>
        <time>2021-06-11T09:28:09Z</time>
      </trkpt>
      <trkpt lat="43.021127" lon="-1.759362">
        <ele>612.956</ele>
        <time>2021-06-11T09:28:17Z</time>
      </trkpt>
      <trkpt lat="43.021176" lon="-1.759359">
        <ele>612.959</ele>
        <time>2021-06-11T09:28:18Z</time>
      </trkpt>
      <trkpt lat="43.021532" lon="-1.759298">
        <ele>612.914</ele>
        <time>2021-06-11T09:28:27Z</time>
      </trkpt>
      <trkpt lat="43.021911" lon="-1.759122">
        <ele>613.908</ele>
        <time>2021-06-11T09:28:37Z</time>
      </trkpt>
      <trkpt lat="43.022322" lon="-1.758923">
        <ele>614.932</ele>
        <time>2021-06-11T09:28:48Z</time>
      </trkpt>
      <trkpt lat="43.022557" lon="-1.758819">
        <ele>614.480</ele>
        <time>2021-06-11T09:28:55Z</time>
      </trkpt>
      <trkpt lat="43.022895" lon="-1.758719">
        <ele>615.310</ele>
        <time>2021-06-11T09:29:04Z</time>
      </trkpt>
      <trkpt lat="43.023226" lon="-1.758644">
        <ele>616.858</ele>
        <time>2021-06-11T09:29:13Z</time>
      </trkpt>
      <trkpt lat="43.023546" lon="-1.758568">
        <ele>617.316</ele>
        <time>2021-06-11T09:29:22Z</time>
      </trkpt>
      <trkpt lat="43.023864" lon="-1.758496">
        <ele>617.311</ele>
        <time>2021-06-11T09:29:31Z</time>
      </trkpt>
      <trkpt lat="43.024147" lon="-1.758413">
        <ele>617.310</ele>
        <time>2021-06-11T09:29:40Z</time>
      </trkpt>
      <trkpt lat="43.024370" lon="-1.758316">
        <ele>617.775</ele>
        <time>2021-06-11T09:29:47Z</time>
      </trkpt>
      <trkpt lat="43.024644" lon="-1.758263">
        <ele>618.252</ele>
        <time>2021-06-11T09:29:57Z</time>
      </trkpt>
      <trkpt lat="43.024916" lon="-1.758375">
        <ele>618.753</ele>
        <time>2021-06-11T09:30:06Z</time>
      </trkpt>
      <trkpt lat="43.025193" lon="-1.758524">
        <ele>623.008</ele>
        <time>2021-06-11T09:30:16Z</time>
      </trkpt>
      <trkpt lat="43.025446" lon="-1.758662">
        <ele>623.008</ele>
        <time>2021-06-11T09:30:26Z</time>
      </trkpt>
      <trkpt lat="43.025534" lon="-1.758716">
        <ele>623.582</ele>
        <time>2021-06-11T09:30:30Z</time>
      </trkpt>
      <trkpt lat="43.025555" lon="-1.758731">
        <ele>623.550</ele>
        <time>2021-06-11T09:30:31Z</time>
      </trkpt>
      <trkpt lat="43.025577" lon="-1.758741">
        <ele>623.530</ele>
        <time>2021-06-11T09:30:32Z</time>
      </trkpt>
      <trkpt lat="43.025597" lon="-1.758751">
        <ele>623.558</ele>
        <time>2021-06-11T09:30:33Z</time>
      </trkpt>
      <trkpt lat="43.025619" lon="-1.758764">
        <ele>624.056</ele>
        <time>2021-06-11T09:30:34Z</time>
      </trkpt>
      <trkpt lat="43.025805" lon="-1.758844">
        <ele>624.541</ele>
        <time>2021-06-11T09:30:42Z</time>
      </trkpt>
      <trkpt lat="43.026025" lon="-1.758844">
        <ele>625.990</ele>
        <time>2021-06-11T09:30:51Z</time>
      </trkpt>
      <trkpt lat="43.026243" lon="-1.758740">
        <ele>626.425</ele>
        <time>2021-06-11T09:31:00Z</time>
      </trkpt>
      <trkpt lat="43.026476" lon="-1.758515">
        <ele>627.437</ele>
        <time>2021-06-11T09:31:10Z</time>
      </trkpt>
      <trkpt lat="43.026682" lon="-1.758284">
        <ele>628.849</ele>
        <time>2021-06-11T09:31:19Z</time>
      </trkpt>
      <trkpt lat="43.026850" lon="-1.758081">
        <ele>630.713</ele>
        <time>2021-06-11T09:31:27Z</time>
      </trkpt>
      <trkpt lat="43.027074" lon="-1.757829">
        <ele>632.608</ele>
        <time>2021-06-11T09:31:38Z</time>
      </trkpt>
      <trkpt lat="43.027264" lon="-1.757687">
        <ele>632.630</ele>
        <time>2021-06-11T09:31:47Z</time>
      </trkpt>
      <trkpt lat="43.027457" lon="-1.757629">
        <ele>633.198</ele>
        <time>2021-06-11T09:31:56Z</time>
      </trkpt>
      <trkpt lat="43.027657" lon="-1.757625">
        <ele>635.518</ele>
        <time>2021-06-11T09:32:05Z</time>
      </trkpt>
      <trkpt lat="43.027904" lon="-1.757678">
        <ele>634.666</ele>
        <time>2021-06-11T09:32:16Z</time>
      </trkpt>
      <trkpt lat="43.028143" lon="-1.757841">
        <ele>638.464</ele>
        <time>2021-06-11T09:32:28Z</time>
      </trkpt>
      <trkpt lat="43.028316" lon="-1.757987">
        <ele>638.929</ele>
        <time>2021-06-11T09:32:37Z</time>
      </trkpt>
      <trkpt lat="43.028481" lon="-1.758147">
        <ele>638.458</ele>
        <time>2021-06-11T09:32:46Z</time>
      </trkpt>
      <trkpt lat="43.028663" lon="-1.758362">
        <ele>638.993</ele>
        <time>2021-06-11T09:32:56Z</time>
      </trkpt>
      <trkpt lat="43.028816" lon="-1.758555">
        <ele>638.945</ele>
        <time>2021-06-11T09:33:05Z</time>
      </trkpt>
      <trkpt lat="43.028998" lon="-1.758766">
        <ele>639.847</ele>
        <time>2021-06-11T09:33:15Z</time>
      </trkpt>
      <trkpt lat="43.029170" lon="-1.758885">
        <ele>639.411</ele>
        <time>2021-06-11T09:33:24Z</time>
      </trkpt>
      <trkpt lat="43.029271" lon="-1.758955">
        <ele>638.908</ele>
        <time>2021-06-11T09:33:30Z</time>
      </trkpt>
      <trkpt lat="43.029296" lon="-1.758955">
        <ele>638.491</ele>
        <time>2021-06-11T09:33:31Z</time>
      </trkpt>
      <trkpt lat="43.029550" lon="-1.758967">
        <ele>637.429</ele>
        <time>2021-06-11T09:33:39Z</time>
      </trkpt>
      <trkpt lat="43.029775" lon="-1.758982">
        <ele>638.459</ele>
        <time>2021-06-11T09:33:47Z</time>
      </trkpt>
      <trkpt lat="43.029960" lon="-1.758891">
        <ele>640.397</ele>
        <time>2021-06-11T09:33:54Z</time>
      </trkpt>
      <trkpt lat="43.030108" lon="-1.758786">
        <ele>641.875</ele>
        <time>2021-06-11T09:34:01Z</time>
      </trkpt>
      <trkpt lat="43.030343" lon="-1.758625">
        <ele>643.230</ele>
        <time>2021-06-11T09:34:11Z</time>
      </trkpt>
      <trkpt lat="43.030549" lon="-1.758510">
        <ele>643.719</ele>
        <time>2021-06-11T09:34:20Z</time>
      </trkpt>
      <trkpt lat="43.030754" lon="-1.758423">
        <ele>642.724</ele>
        <time>2021-06-11T09:34:28Z</time>
      </trkpt>
      <trkpt lat="43.030970" lon="-1.758363">
        <ele>642.391</ele>
        <time>2021-06-11T09:34:35Z</time>
      </trkpt>
      <trkpt lat="43.031200" lon="-1.758310">
        <ele>641.381</ele>
        <time>2021-06-11T09:34:43Z</time>
      </trkpt>
      <trkpt lat="43.031550" lon="-1.758231">
        <ele>641.819</ele>
        <time>2021-06-11T09:34:53Z</time>
      </trkpt>
      <trkpt lat="43.031827" lon="-1.758164">
        <ele>642.708</ele>
        <time>2021-06-11T09:35:02Z</time>
      </trkpt>
      <trkpt lat="43.032113" lon="-1.758107">
        <ele>644.746</ele>
        <time>2021-06-11T09:35:11Z</time>
      </trkpt>
      <trkpt lat="43.032378" lon="-1.758005">
        <ele>645.634</ele>
        <time>2021-06-11T09:35:20Z</time>
      </trkpt>
      <trkpt lat="43.032602" lon="-1.757818">
        <ele>646.684</ele>
        <time>2021-06-11T09:35:29Z</time>
      </trkpt>
      <trkpt lat="43.032798" lon="-1.757603">
        <ele>647.582</ele>
        <time>2021-06-11T09:35:39Z</time>
      </trkpt>
      <trkpt lat="43.032995" lon="-1.757346">
        <ele>649.560</ele>
        <time>2021-06-11T09:35:50Z</time>
      </trkpt>
      <trkpt lat="43.033159" lon="-1.757052">
        <ele>653.885</ele>
        <time>2021-06-11T09:36:00Z</time>
      </trkpt>
      <trkpt lat="43.033312" lon="-1.756760">
        <ele>656.714</ele>
        <time>2021-06-11T09:36:09Z</time>
      </trkpt>
      <trkpt lat="43.033409" lon="-1.756547">
        <ele>657.229</ele>
        <time>2021-06-11T09:36:16Z</time>
      </trkpt>
      <trkpt lat="43.033570" lon="-1.756220">
        <ele>657.676</ele>
        <time>2021-06-11T09:36:26Z</time>
      </trkpt>
      <trkpt lat="43.033631" lon="-1.756111">
        <ele>658.190</ele>
        <time>2021-06-11T09:36:32Z</time>
      </trkpt>
      <trkpt lat="43.033737" lon="-1.755972">
        <ele>658.619</ele>
        <time>2021-06-11T09:36:40Z</time>
      </trkpt>
      <trkpt lat="43.033874" lon="-1.755820">
        <ele>661.008</ele>
        <time>2021-06-11T09:36:50Z</time>
      </trkpt>
      <trkpt lat="43.034030" lon="-1.755663">
        <ele>662.474</ele>
        <time>2021-06-11T09:37:01Z</time>
      </trkpt>
      <trkpt lat="43.034063" lon="-1.755636">
        <ele>662.472</ele>
        <time>2021-06-11T09:37:04Z</time>
      </trkpt>
      <trkpt lat="43.034076" lon="-1.755629">
        <ele>662.422</ele>
        <time>2021-06-11T09:37:05Z</time>
      </trkpt>
      <trkpt lat="43.034089" lon="-1.755617">
        <ele>662.480</ele>
        <time>2021-06-11T09:37:06Z</time>
      </trkpt>
      <trkpt lat="43.034101" lon="-1.755603">
        <ele>662.998</ele>
        <time>2021-06-11T09:37:07Z</time>
      </trkpt>
      <trkpt lat="43.034113" lon="-1.755590">
        <ele>662.963</ele>
        <time>2021-06-11T09:37:08Z</time>
      </trkpt>
      <trkpt lat="43.034124" lon="-1.755572">
        <ele>662.992</ele>
        <time>2021-06-11T09:37:09Z</time>
      </trkpt>
      <trkpt lat="43.034234" lon="-1.755461">
        <ele>665.327</ele>
        <time>2021-06-11T09:37:17Z</time>
      </trkpt>
      <trkpt lat="43.034339" lon="-1.755376">
        <ele>667.737</ele>
        <time>2021-06-11T09:37:25Z</time>
      </trkpt>
      <trkpt lat="43.034388" lon="-1.755336">
        <ele>668.249</ele>
        <time>2021-06-11T09:37:29Z</time>
      </trkpt>
      <trkpt lat="43.034403" lon="-1.755328">
        <ele>668.213</ele>
        <time>2021-06-11T09:37:30Z</time>
      </trkpt>
      <trkpt lat="43.034417" lon="-1.755317">
        <ele>668.208</ele>
        <time>2021-06-11T09:37:31Z</time>
      </trkpt>
      <trkpt lat="43.034428" lon="-1.755306">
        <ele>668.290</ele>
        <time>2021-06-11T09:37:32Z</time>
      </trkpt>
      <trkpt lat="43.034442" lon="-1.755298">
        <ele>668.258</ele>
        <time>2021-06-11T09:37:33Z</time>
      </trkpt>
      <trkpt lat="43.034459" lon="-1.755295">
        <ele>668.278</ele>
        <time>2021-06-11T09:37:34Z</time>
      </trkpt>
      <trkpt lat="43.034473" lon="-1.755291">
        <ele>667.746</ele>
        <time>2021-06-11T09:37:35Z</time>
      </trkpt>
      <trkpt lat="43.034601" lon="-1.755261">
        <ele>667.284</ele>
        <time>2021-06-11T09:37:44Z</time>
      </trkpt>
      <trkpt lat="43.034703" lon="-1.755268">
        <ele>666.899</ele>
        <time>2021-06-11T09:37:51Z</time>
      </trkpt>
      <trkpt lat="43.034850" lon="-1.755292">
        <ele>668.258</ele>
        <time>2021-06-11T09:38:00Z</time>
      </trkpt>
      <trkpt lat="43.035178" lon="-1.755400">
        <ele>675.983</ele>
        <time>2021-06-11T09:39:04Z</time>
      </trkpt>
      <trkpt lat="43.035174" lon="-1.755352">
        <ele>670.675</ele>
        <time>2021-06-11T09:39:22Z</time>
      </trkpt>
      <trkpt lat="43.035181" lon="-1.755357">
        <ele>669.228</ele>
        <time>2021-06-11T09:39:36Z</time>
      </trkpt>
      <trkpt lat="43.035199" lon="-1.755360">
        <ele>670.620</ele>
        <time>2021-06-11T09:39:41Z</time>
      </trkpt>
      <trkpt lat="43.035253" lon="-1.755404">
        <ele>669.708</ele>
        <time>2021-06-11T09:39:47Z</time>
      </trkpt>
      <trkpt lat="43.035331" lon="-1.755486">
        <ele>670.114</ele>
        <time>2021-06-11T09:39:57Z</time>
      </trkpt>
      <trkpt lat="43.035336" lon="-1.755481">
        <ele>670.122</ele>
        <time>2021-06-11T09:40:06Z</time>
      </trkpt>
      <trkpt lat="43.035341" lon="-1.755492">
        <ele>669.772</ele>
        <time>2021-06-11T09:40:12Z</time>
      </trkpt>
      <trkpt lat="43.035338" lon="-1.755499">
        <ele>669.790</ele>
        <time>2021-06-11T09:40:19Z</time>
      </trkpt>
      <trkpt lat="43.035340" lon="-1.755504">
        <ele>670.138</ele>
        <time>2021-06-11T09:40:28Z</time>
      </trkpt>
      <trkpt lat="43.035358" lon="-1.755540">
        <ele>670.633</ele>
        <time>2021-06-11T09:40:37Z</time>
      </trkpt>
      <trkpt lat="43.035444" lon="-1.755684">
        <ele>670.642</ele>
        <time>2021-06-11T09:40:46Z</time>
      </trkpt>
      <trkpt lat="43.035523" lon="-1.755832">
        <ele>671.157</ele>
        <time>2021-06-11T09:40:54Z</time>
      </trkpt>
      <trkpt lat="43.035650" lon="-1.756060">
        <ele>671.661</ele>
        <time>2021-06-11T09:41:04Z</time>
      </trkpt>
      <trkpt lat="43.035821" lon="-1.756296">
        <ele>672.121</ele>
        <time>2021-06-11T09:41:13Z</time>
      </trkpt>
      <trkpt lat="43.035988" lon="-1.756429">
        <ele>672.513</ele>
        <time>2021-06-11T09:41:20Z</time>
      </trkpt>
      <trkpt lat="43.036278" lon="-1.756514">
        <ele>673.008</ele>
        <time>2021-06-11T09:41:30Z</time>
      </trkpt>
      <trkpt lat="43.036555" lon="-1.756563">
        <ele>673.043</ele>
        <time>2021-06-11T09:41:40Z</time>
      </trkpt>
      <trkpt lat="43.036710" lon="-1.756564">
        <ele>673.581</ele>
        <time>2021-06-11T09:41:48Z</time>
      </trkpt>
      <trkpt lat="43.036908" lon="-1.756547">
        <ele>674.021</ele>
        <time>2021-06-11T09:41:58Z</time>
      </trkpt>
      <trkpt lat="43.037035" lon="-1.756554">
        <ele>674.079</ele>
        <time>2021-06-11T09:42:05Z</time>
      </trkpt>
      <trkpt lat="43.037056" lon="-1.756563">
        <ele>674.017</ele>
        <time>2021-06-11T09:42:06Z</time>
      </trkpt>
      <trkpt lat="43.037073" lon="-1.756573">
        <ele>674.082</ele>
        <time>2021-06-11T09:42:07Z</time>
      </trkpt>
      <trkpt lat="43.037093" lon="-1.756579">
        <ele>674.011</ele>
        <time>2021-06-11T09:42:08Z</time>
      </trkpt>
      <trkpt lat="43.037119" lon="-1.756577">
        <ele>674.076</ele>
        <time>2021-06-11T09:42:09Z</time>
      </trkpt>
      <trkpt lat="43.037220" lon="-1.756524">
        <ele>675.922</ele>
        <time>2021-06-11T09:42:10Z</time>
      </trkpt>
      <trkpt lat="43.037239" lon="-1.756502">
        <ele>677.362</ele>
        <time>2021-06-11T09:42:11Z</time>
      </trkpt>
      <trkpt lat="43.037402" lon="-1.756314">
        <ele>678.808</ele>
        <time>2021-06-11T09:42:19Z</time>
      </trkpt>
      <trkpt lat="43.037438" lon="-1.756296">
        <ele>688.908</ele>
        <time>2021-06-11T09:42:25Z</time>
      </trkpt>
      <trkpt lat="43.037456" lon="-1.756264">
        <ele>691.829</ele>
        <time>2021-06-11T09:42:30Z</time>
      </trkpt>
      <trkpt lat="43.037455" lon="-1.756248">
        <ele>692.277</ele>
        <time>2021-06-11T09:42:31Z</time>
      </trkpt>
      <trkpt lat="43.037458" lon="-1.756232">
        <ele>692.227</ele>
        <time>2021-06-11T09:42:32Z</time>
      </trkpt>
      <trkpt lat="43.037467" lon="-1.756216">
        <ele>692.255</ele>
        <time>2021-06-11T09:42:33Z</time>
      </trkpt>
      <trkpt lat="43.037479" lon="-1.756196">
        <ele>692.713</ele>
        <time>2021-06-11T09:42:34Z</time>
      </trkpt>
      <trkpt lat="43.037493" lon="-1.756175">
        <ele>692.728</ele>
        <time>2021-06-11T09:42:35Z</time>
      </trkpt>
      <trkpt lat="43.037508" lon="-1.756153">
        <ele>692.737</ele>
        <time>2021-06-11T09:42:36Z</time>
      </trkpt>
      <trkpt lat="43.037523" lon="-1.756128">
        <ele>692.752</ele>
        <time>2021-06-11T09:42:37Z</time>
      </trkpt>
      <trkpt lat="43.037641" lon="-1.755953">
        <ele>692.787</ele>
        <time>2021-06-11T09:42:46Z</time>
      </trkpt>
      <trkpt lat="43.037804" lon="-1.755774">
        <ele>691.342</ele>
        <time>2021-06-11T09:42:56Z</time>
      </trkpt>
      <trkpt lat="43.037946" lon="-1.755639">
        <ele>690.826</ele>
        <time>2021-06-11T09:43:04Z</time>
      </trkpt>
      <trkpt lat="43.038042" lon="-1.755551">
        <ele>690.808</ele>
        <time>2021-06-11T09:43:09Z</time>
      </trkpt>
      <trkpt lat="43.038059" lon="-1.755529">
        <ele>690.835</ele>
        <time>2021-06-11T09:43:10Z</time>
      </trkpt>
      <trkpt lat="43.038198" lon="-1.755295">
        <ele>691.323</ele>
        <time>2021-06-11T09:43:19Z</time>
      </trkpt>
      <trkpt lat="43.038266" lon="-1.755011">
        <ele>691.843</ele>
        <time>2021-06-11T09:43:29Z</time>
      </trkpt>
      <trkpt lat="43.038319" lon="-1.754715">
        <ele>692.741</ele>
        <time>2021-06-11T09:43:38Z</time>
      </trkpt>
      <trkpt lat="43.038351" lon="-1.754476">
        <ele>692.799</ele>
        <time>2021-06-11T09:43:46Z</time>
      </trkpt>
      <trkpt lat="43.038417" lon="-1.754141">
        <ele>693.764</ele>
        <time>2021-06-11T09:43:57Z</time>
      </trkpt>
      <trkpt lat="43.038490" lon="-1.753933">
        <ele>694.293</ele>
        <time>2021-06-11T09:44:05Z</time>
      </trkpt>
      <trkpt lat="43.038623" lon="-1.753769">
        <ele>694.298</ele>
        <time>2021-06-11T09:44:14Z</time>
      </trkpt>
      <trkpt lat="43.038767" lon="-1.753674">
        <ele>694.277</ele>
        <time>2021-06-11T09:44:22Z</time>
      </trkpt>
      <trkpt lat="43.038909" lon="-1.753605">
        <ele>694.261</ele>
        <time>2021-06-11T09:44:30Z</time>
      </trkpt>
      <trkpt lat="43.039090" lon="-1.753582">
        <ele>694.227</ele>
        <time>2021-06-11T09:44:39Z</time>
      </trkpt>
      <trkpt lat="43.039218" lon="-1.753592">
        <ele>694.208</ele>
        <time>2021-06-11T09:44:46Z</time>
      </trkpt>
      <trkpt lat="43.039371" lon="-1.753654">
        <ele>694.624</ele>
        <time>2021-06-11T09:44:54Z</time>
      </trkpt>
      <trkpt lat="43.039500" lon="-1.753744">
        <ele>695.142</ele>
        <time>2021-06-11T09:45:01Z</time>
      </trkpt>
      <trkpt lat="43.039653" lon="-1.753846">
        <ele>695.652</ele>
        <time>2021-06-11T09:45:09Z</time>
      </trkpt>
      <trkpt lat="43.039813" lon="-1.753966">
        <ele>696.160</ele>
        <time>2021-06-11T09:45:18Z</time>
      </trkpt>
      <trkpt lat="43.039992" lon="-1.754127">
        <ele>697.088</ele>
        <time>2021-06-11T09:45:27Z</time>
      </trkpt>
      <trkpt lat="43.040190" lon="-1.754308">
        <ele>697.533</ele>
        <time>2021-06-11T09:45:36Z</time>
      </trkpt>
      <trkpt lat="43.040353" lon="-1.754404">
        <ele>697.542</ele>
        <time>2021-06-11T09:45:43Z</time>
      </trkpt>
      <trkpt lat="43.040578" lon="-1.754506">
        <ele>698.027</ele>
        <time>2021-06-11T09:45:51Z</time>
      </trkpt>
      <trkpt lat="43.040797" lon="-1.754611">
        <ele>698.577</ele>
        <time>2021-06-11T09:45:59Z</time>
      </trkpt>
      <trkpt lat="43.040995" lon="-1.754713">
        <ele>698.561</ele>
        <time>2021-06-11T09:46:07Z</time>
      </trkpt>
      <trkpt lat="43.041232" lon="-1.754889">
        <ele>699.027</ele>
        <time>2021-06-11T09:46:16Z</time>
      </trkpt>
      <trkpt lat="43.041464" lon="-1.755116">
        <ele>699.508</ele>
        <time>2021-06-11T09:46:25Z</time>
      </trkpt>
      <trkpt lat="43.041663" lon="-1.755298">
        <ele>699.954</ele>
        <time>2021-06-11T09:46:33Z</time>
      </trkpt>
      <trkpt lat="43.041878" lon="-1.755402">
        <ele>700.482</ele>
        <time>2021-06-11T09:46:40Z</time>
      </trkpt>
      <trkpt lat="43.042160" lon="-1.755432">
        <ele>699.912</ele>
        <time>2021-06-11T09:46:49Z</time>
      </trkpt>
      <trkpt lat="43.042462" lon="-1.755456">
        <ele>699.920</ele>
        <time>2021-06-11T09:46:59Z</time>
      </trkpt>
      <trkpt lat="43.042662" lon="-1.755492">
        <ele>700.498</ele>
        <time>2021-06-11T09:47:06Z</time>
      </trkpt>
      <trkpt lat="43.042861" lon="-1.755539">
        <ele>700.913</ele>
        <time>2021-06-11T09:47:14Z</time>
      </trkpt>
      <trkpt lat="43.043091" lon="-1.755604">
        <ele>700.982</ele>
        <time>2021-06-11T09:47:23Z</time>
      </trkpt>
      <trkpt lat="43.043331" lon="-1.755678">
        <ele>701.427</ele>
        <time>2021-06-11T09:47:32Z</time>
      </trkpt>
      <trkpt lat="43.043496" lon="-1.755748">
        <ele>701.953</ele>
        <time>2021-06-11T09:47:39Z</time>
      </trkpt>
      <trkpt lat="43.043704" lon="-1.755884">
        <ele>701.904</ele>
        <time>2021-06-11T09:47:48Z</time>
      </trkpt>
      <trkpt lat="43.043971" lon="-1.756032">
        <ele>702.314</ele>
        <time>2021-06-11T09:47:58Z</time>
      </trkpt>
      <trkpt lat="43.044254" lon="-1.756114">
        <ele>702.808</ele>
        <time>2021-06-11T09:48:07Z</time>
      </trkpt>
      <trkpt lat="43.044525" lon="-1.756105">
        <ele>706.232</ele>
        <time>2021-06-11T09:48:16Z</time>
      </trkpt>
      <trkpt lat="43.044687" lon="-1.756084">
        <ele>708.130</ele>
        <time>2021-06-11T09:48:24Z</time>
      </trkpt>
      <trkpt lat="43.044825" lon="-1.756101">
        <ele>710.030</ele>
        <time>2021-06-11T09:48:31Z</time>
      </trkpt>
      <trkpt lat="43.045027" lon="-1.756151">
        <ele>713.948</ele>
        <time>2021-06-11T09:48:41Z</time>
      </trkpt>
      <trkpt lat="43.045183" lon="-1.756255">
        <ele>717.266</ele>
        <time>2021-06-11T09:48:50Z</time>
      </trkpt>
      <trkpt lat="43.045333" lon="-1.756363">
        <ele>719.221</ele>
        <time>2021-06-11T09:48:58Z</time>
      </trkpt>
      <trkpt lat="43.045491" lon="-1.756500">
        <ele>719.630</ele>
        <time>2021-06-11T09:49:07Z</time>
      </trkpt>
      <trkpt lat="43.045646" lon="-1.756616">
        <ele>719.645</ele>
        <time>2021-06-11T09:49:15Z</time>
      </trkpt>
      <trkpt lat="43.045801" lon="-1.756708">
        <ele>720.646</ele>
        <time>2021-06-11T09:49:24Z</time>
      </trkpt>
      <trkpt lat="43.045905" lon="-1.756830">
        <ele>721.188</ele>
        <time>2021-06-11T09:49:31Z</time>
      </trkpt>
      <trkpt lat="43.045987" lon="-1.757008">
        <ele>719.616</ele>
        <time>2021-06-11T09:49:39Z</time>
      </trkpt>
      <trkpt lat="43.046078" lon="-1.757356">
        <ele>717.708</ele>
        <time>2021-06-11T09:49:51Z</time>
      </trkpt>
      <trkpt lat="43.046147" lon="-1.757605">
        <ele>715.821</ele>
        <time>2021-06-11T09:50:00Z</time>
      </trkpt>
      <trkpt lat="43.046218" lon="-1.757817">
        <ele>715.829</ele>
        <time>2021-06-11T09:50:08Z</time>
      </trkpt>
      <trkpt lat="43.046292" lon="-1.757983">
        <ele>716.879</ele>
        <time>2021-06-11T09:50:15Z</time>
      </trkpt>
      <trkpt lat="43.046393" lon="-1.758174">
        <ele>717.277</ele>
        <time>2021-06-11T09:50:23Z</time>
      </trkpt>
      <trkpt lat="43.046491" lon="-1.758377">
        <ele>718.255</ele>
        <time>2021-06-11T09:50:31Z</time>
      </trkpt>
      <trkpt lat="43.046618" lon="-1.758602">
        <ele>719.220</ele>
        <time>2021-06-11T09:50:41Z</time>
      </trkpt>
      <trkpt lat="43.046753" lon="-1.758715">
        <ele>718.779</ele>
        <time>2021-06-11T09:50:48Z</time>
      </trkpt>
      <trkpt lat="43.046946" lon="-1.758821">
        <ele>722.014</ele>
        <time>2021-06-11T09:50:58Z</time>
      </trkpt>
      <trkpt lat="43.047136" lon="-1.758918">
        <ele>724.928</ele>
        <time>2021-06-11T09:51:07Z</time>
      </trkpt>
      <trkpt lat="43.047276" lon="-1.758953">
        <ele>724.989</ele>
        <time>2021-06-11T09:51:13Z</time>
      </trkpt>
      <trkpt lat="43.047455" lon="-1.758917">
        <ele>724.417</ele>
        <time>2021-06-11T09:51:21Z</time>
      </trkpt>
      <trkpt lat="43.047605" lon="-1.758886">
        <ele>726.408</ele>
        <time>2021-06-11T09:51:29Z</time>
      </trkpt>
      <trkpt lat="43.047725" lon="-1.758948">
        <ele>728.879</ele>
        <time>2021-06-11T09:51:36Z</time>
      </trkpt>
      <trkpt lat="43.047833" lon="-1.759048">
        <ele>729.367</ele>
        <time>2021-06-11T09:51:43Z</time>
      </trkpt>
      <trkpt lat="43.047917" lon="-1.759181">
        <ele>727.857</ele>
        <time>2021-06-11T09:51:50Z</time>
      </trkpt>
      <trkpt lat="43.047945" lon="-1.759231">
        <ele>725.435</ele>
        <time>2021-06-11T09:51:55Z</time>
      </trkpt>
      <trkpt lat="43.047971" lon="-1.759265">
        <ele>725.423</ele>
        <time>2021-06-11T09:52:04Z</time>
      </trkpt>
      <trkpt lat="43.047980" lon="-1.759279">
        <ele>723.588</ele>
        <time>2021-06-11T09:52:16Z</time>
      </trkpt>
      <trkpt lat="43.048005" lon="-1.759329">
        <ele>723.557</ele>
        <time>2021-06-11T09:52:23Z</time>
      </trkpt>
      <trkpt lat="43.048115" lon="-1.759440">
        <ele>724.442</ele>
        <time>2021-06-11T09:52:32Z</time>
      </trkpt>
      <trkpt lat="43.048284" lon="-1.759588">
        <ele>725.911</ele>
        <time>2021-06-11T09:52:43Z</time>
      </trkpt>
      <trkpt lat="43.048388" lon="-1.759640">
        <ele>726.821</ele>
        <time>2021-06-11T09:52:49Z</time>
      </trkpt>
      <trkpt lat="43.048410" lon="-1.759642">
        <ele>726.803</ele>
        <time>2021-06-11T09:52:50Z</time>
      </trkpt>
      <trkpt lat="43.048601" lon="-1.759680">
        <ele>729.308</ele>
        <time>2021-06-11T09:52:59Z</time>
      </trkpt>
      <trkpt lat="43.048741" lon="-1.759702">
        <ele>734.198</ele>
        <time>2021-06-11T09:53:06Z</time>
      </trkpt>
      <trkpt lat="43.048912" lon="-1.759715">
        <ele>735.026</ele>
        <time>2021-06-11T09:53:13Z</time>
      </trkpt>
      <trkpt lat="43.049073" lon="-1.759763">
        <ele>735.546</ele>
        <time>2021-06-11T09:53:21Z</time>
      </trkpt>
      <trkpt lat="43.049217" lon="-1.759806">
        <ele>736.924</ele>
        <time>2021-06-11T09:53:29Z</time>
      </trkpt>
      <trkpt lat="43.049321" lon="-1.759845">
        <ele>738.432</ele>
        <time>2021-06-11T09:53:36Z</time>
      </trkpt>
      <trkpt lat="43.049458" lon="-1.759902">
        <ele>738.497</ele>
        <time>2021-06-11T09:53:46Z</time>
      </trkpt>
      <trkpt lat="43.049513" lon="-1.759902">
        <ele>738.466</ele>
        <time>2021-06-11T09:53:53Z</time>
      </trkpt>
      <trkpt lat="43.049531" lon="-1.759870">
        <ele>737.481</ele>
        <time>2021-06-11T09:54:02Z</time>
      </trkpt>
      <trkpt lat="43.049516" lon="-1.759841">
        <ele>740.346</ele>
        <time>2021-06-11T09:54:21Z</time>
      </trkpt>
      <trkpt lat="43.049549" lon="-1.759858">
        <ele>739.388</ele>
        <time>2021-06-11T09:54:37Z</time>
      </trkpt>
      <trkpt lat="43.049575" lon="-1.759898">
        <ele>740.316</ele>
        <time>2021-06-11T09:54:58Z</time>
      </trkpt>
      <trkpt lat="43.049574" lon="-1.759887">
        <ele>738.408</ele>
        <time>2021-06-11T09:55:21Z</time>
      </trkpt>
      <trkpt lat="43.049572" lon="-1.759898">
        <ele>737.961</ele>
        <time>2021-06-11T09:55:37Z</time>
      </trkpt>
      <trkpt lat="43.049563" lon="-1.759885">
        <ele>736.529</ele>
        <time>2021-06-11T09:55:45Z</time>
      </trkpt>
      <trkpt lat="43.049564" lon="-1.759906">
        <ele>736.939</ele>
        <time>2021-06-11T09:55:52Z</time>
      </trkpt>
      <trkpt lat="43.049578" lon="-1.759913">
        <ele>738.927</ele>
        <time>2021-06-11T09:55:59Z</time>
      </trkpt>
      <trkpt lat="43.049600" lon="-1.759924">
        <ele>738.945</ele>
        <time>2021-06-11T09:56:02Z</time>
      </trkpt>
      <trkpt lat="43.049615" lon="-1.759929">
        <ele>739.340</ele>
        <time>2021-06-11T09:56:03Z</time>
      </trkpt>
      <trkpt lat="43.049631" lon="-1.759933">
        <ele>739.329</ele>
        <time>2021-06-11T09:56:04Z</time>
      </trkpt>
      <trkpt lat="43.049652" lon="-1.759935">
        <ele>739.874</ele>
        <time>2021-06-11T09:56:05Z</time>
      </trkpt>
      <trkpt lat="43.049672" lon="-1.759938">
        <ele>739.889</ele>
        <time>2021-06-11T09:56:06Z</time>
      </trkpt>
      <trkpt lat="43.049692" lon="-1.759940">
        <ele>740.306</ele>
        <time>2021-06-11T09:56:07Z</time>
      </trkpt>
      <trkpt lat="43.049711" lon="-1.759940">
        <ele>740.326</ele>
        <time>2021-06-11T09:56:08Z</time>
      </trkpt>
      <trkpt lat="43.049863" lon="-1.759944">
        <ele>743.208</ele>
        <time>2021-06-11T09:56:16Z</time>
      </trkpt>
      <trkpt lat="43.050033" lon="-1.759922">
        <ele>741.765</ele>
        <time>2021-06-11T09:56:24Z</time>
      </trkpt>
      <trkpt lat="43.050187" lon="-1.759894">
        <ele>741.733</ele>
        <time>2021-06-11T09:56:31Z</time>
      </trkpt>
      <trkpt lat="43.050315" lon="-1.759795">
        <ele>742.773</ele>
        <time>2021-06-11T09:56:38Z</time>
      </trkpt>
      <trkpt lat="43.050447" lon="-1.759709">
        <ele>745.111</ele>
        <time>2021-06-11T09:56:47Z</time>
      </trkpt>
      <trkpt lat="43.050606" lon="-1.759721">
        <ele>746.699</ele>
        <time>2021-06-11T09:56:54Z</time>
      </trkpt>
      <trkpt lat="43.050795" lon="-1.759769">
        <ele>746.194</ele>
        <time>2021-06-11T09:57:03Z</time>
      </trkpt>
      <trkpt lat="43.050956" lon="-1.759818">
        <ele>748.593</ele>
        <time>2021-06-11T09:57:11Z</time>
      </trkpt>
      <trkpt lat="43.051131" lon="-1.759888">
        <ele>754.718</ele>
        <time>2021-06-11T09:57:20Z</time>
      </trkpt>
      <trkpt lat="43.051287" lon="-1.759908">
        <ele>754.725</ele>
        <time>2021-06-11T09:57:28Z</time>
      </trkpt>
      <trkpt lat="43.051448" lon="-1.759965">
        <ele>757.626</ele>
        <time>2021-06-11T09:57:37Z</time>
      </trkpt>
      <trkpt lat="43.051611" lon="-1.760022">
        <ele>761.508</ele>
        <time>2021-06-11T09:57:46Z</time>
      </trkpt>
      <trkpt lat="43.051806" lon="-1.760102">
        <ele>763.408</ele>
        <time>2021-06-11T09:57:55Z</time>
      </trkpt>
      <trkpt lat="43.052036" lon="-1.760211">
        <ele>766.339</ele>
        <time>2021-06-11T09:58:06Z</time>
      </trkpt>
      <trkpt lat="43.052212" lon="-1.760291">
        <ele>764.357</ele>
        <time>2021-06-11T09:58:15Z</time>
      </trkpt>
      <trkpt lat="43.052360" lon="-1.760418">
        <ele>761.957</ele>
        <time>2021-06-11T09:58:24Z</time>
      </trkpt>
      <trkpt lat="43.052462" lon="-1.760531">
        <ele>763.465</ele>
        <time>2021-06-11T09:58:31Z</time>
      </trkpt>
      <trkpt lat="43.052621" lon="-1.760681">
        <ele>762.983</ele>
        <time>2021-06-11T09:58:41Z</time>
      </trkpt>
      <trkpt lat="43.052742" lon="-1.760796">
        <ele>760.028</ele>
        <time>2021-06-11T09:58:49Z</time>
      </trkpt>
      <trkpt lat="43.052850" lon="-1.760922">
        <ele>758.627</ele>
        <time>2021-06-11T09:58:57Z</time>
      </trkpt>
      <trkpt lat="43.052858" lon="-1.760930">
        <ele>758.642</ele>
        <time>2021-06-11T09:58:58Z</time>
      </trkpt>
      <trkpt lat="43.052868" lon="-1.760938">
        <ele>758.655</ele>
        <time>2021-06-11T09:58:59Z</time>
      </trkpt>
      <trkpt lat="43.052880" lon="-1.760951">
        <ele>758.607</ele>
        <time>2021-06-11T09:59:00Z</time>
      </trkpt>
      <trkpt lat="43.053000" lon="-1.761106">
        <ele>757.617</ele>
        <time>2021-06-11T09:59:09Z</time>
      </trkpt>
      <trkpt lat="43.053084" lon="-1.761225">
        <ele>757.608</ele>
        <time>2021-06-11T09:59:16Z</time>
      </trkpt>
      <trkpt lat="43.053164" lon="-1.761337">
        <ele>756.672</ele>
        <time>2021-06-11T09:59:23Z</time>
      </trkpt>
      <trkpt lat="43.053251" lon="-1.761428">
        <ele>755.770</ele>
        <time>2021-06-11T09:59:30Z</time>
      </trkpt>
      <trkpt lat="43.053395" lon="-1.761496">
        <ele>757.190</ele>
        <time>2021-06-11T09:59:39Z</time>
      </trkpt>
      <trkpt lat="43.053475" lon="-1.761522">
        <ele>759.118</ele>
        <time>2021-06-11T09:59:45Z</time>
      </trkpt>
      <trkpt lat="43.053603" lon="-1.761553">
        <ele>763.466</ele>
        <time>2021-06-11T09:59:53Z</time>
      </trkpt>
      <trkpt lat="43.053718" lon="-1.761564">
        <ele>766.371</ele>
        <time>2021-06-11T10:00:00Z</time>
      </trkpt>
      <trkpt lat="43.053875" lon="-1.761591">
        <ele>772.020</ele>
        <time>2021-06-11T10:00:10Z</time>
      </trkpt>
      <trkpt lat="43.053890" lon="-1.761592">
        <ele>772.525</ele>
        <time>2021-06-11T10:00:11Z</time>
      </trkpt>
      <trkpt lat="43.054033" lon="-1.761593">
        <ele>775.942</ele>
        <time>2021-06-11T10:00:20Z</time>
      </trkpt>
      <trkpt lat="43.054153" lon="-1.761600">
        <ele>779.222</ele>
        <time>2021-06-11T10:00:27Z</time>
      </trkpt>
      <trkpt lat="43.054316" lon="-1.761637">
        <ele>781.214</ele>
        <time>2021-06-11T10:00:36Z</time>
      </trkpt>
      <trkpt lat="43.054407" lon="-1.761677">
        <ele>780.208</ele>
        <time>2021-06-11T10:00:42Z</time>
      </trkpt>
      <trkpt lat="43.054564" lon="-1.761769">
        <ele>778.321</ele>
        <time>2021-06-11T10:00:52Z</time>
      </trkpt>
      <trkpt lat="43.054692" lon="-1.761839">
        <ele>776.449</ele>
        <time>2021-06-11T10:01:00Z</time>
      </trkpt>
      <trkpt lat="43.054805" lon="-1.761911">
        <ele>774.949</ele>
        <time>2021-06-11T10:01:07Z</time>
      </trkpt>
      <trkpt lat="43.054901" lon="-1.761985">
        <ele>773.067</ele>
        <time>2021-06-11T10:01:14Z</time>
      </trkpt>
      <trkpt lat="43.054984" lon="-1.762073">
        <ele>772.535</ele>
        <time>2021-06-11T10:01:21Z</time>
      </trkpt>
      <trkpt lat="43.055078" lon="-1.762167">
        <ele>772.040</ele>
        <time>2021-06-11T10:01:29Z</time>
      </trkpt>
      <trkpt lat="43.055163" lon="-1.762261">
        <ele>771.149</ele>
        <time>2021-06-11T10:01:36Z</time>
      </trkpt>
      <trkpt lat="43.055174" lon="-1.762277">
        <ele>771.194</ele>
        <time>2021-06-11T10:01:37Z</time>
      </trkpt>
      <trkpt lat="43.055189" lon="-1.762289">
        <ele>771.115</ele>
        <time>2021-06-11T10:01:38Z</time>
      </trkpt>
      <trkpt lat="43.055201" lon="-1.762301">
        <ele>771.165</ele>
        <time>2021-06-11T10:01:39Z</time>
      </trkpt>
      <trkpt lat="43.055211" lon="-1.762311">
        <ele>770.611</ele>
        <time>2021-06-11T10:01:40Z</time>
      </trkpt>
      <trkpt lat="43.055221" lon="-1.762320">
        <ele>770.608</ele>
        <time>2021-06-11T10:01:41Z</time>
      </trkpt>
      <trkpt lat="43.055271" lon="-1.762381">
        <ele>771.138</ele>
        <time>2021-06-11T10:01:48Z</time>
      </trkpt>
      <trkpt lat="43.055295" lon="-1.762406">
        <ele>772.056</ele>
        <time>2021-06-11T10:01:55Z</time>
      </trkpt>
      <trkpt lat="43.055287" lon="-1.762431">
        <ele>772.016</ele>
        <time>2021-06-11T10:02:07Z</time>
      </trkpt>
      <trkpt lat="43.055299" lon="-1.762436">
        <ele>774.084</ele>
        <time>2021-06-11T10:02:18Z</time>
      </trkpt>
      <trkpt lat="43.055303" lon="-1.762435">
        <ele>775.942</ele>
        <time>2021-06-11T10:02:31Z</time>
      </trkpt>
      <trkpt lat="43.055294" lon="-1.762421">
        <ele>773.597</ele>
        <time>2021-06-11T10:02:42Z</time>
      </trkpt>
      <trkpt lat="43.055289" lon="-1.762422">
        <ele>773.046</ele>
        <time>2021-06-11T10:02:52Z</time>
      </trkpt>
      <trkpt lat="43.055308" lon="-1.762449">
        <ele>772.531</ele>
        <time>2021-06-11T10:03:00Z</time>
      </trkpt>
      <trkpt lat="43.055450" lon="-1.762622">
        <ele>772.526</ele>
        <time>2021-06-11T10:03:10Z</time>
      </trkpt>
      <trkpt lat="43.055545" lon="-1.762783">
        <ele>774.047</ele>
        <time>2021-06-11T10:03:18Z</time>
      </trkpt>
      <trkpt lat="43.055644" lon="-1.762995">
        <ele>776.411</ele>
        <time>2021-06-11T10:03:27Z</time>
      </trkpt>
      <trkpt lat="43.055777" lon="-1.763179">
        <ele>777.308</ele>
        <time>2021-06-11T10:03:36Z</time>
      </trkpt>
      <trkpt lat="43.055940" lon="-1.763249">
        <ele>780.239</ele>
        <time>2021-06-11T10:03:45Z</time>
      </trkpt>
      <trkpt lat="43.056035" lon="-1.763279">
        <ele>783.647</ele>
        <time>2021-06-11T10:03:52Z</time>
      </trkpt>
      <trkpt lat="43.056126" lon="-1.763299">
        <ele>787.947</ele>
        <time>2021-06-11T10:03:59Z</time>
      </trkpt>
      <trkpt lat="43.056137" lon="-1.763304">
        <ele>788.445</ele>
        <time>2021-06-11T10:04:00Z</time>
      </trkpt>
      <trkpt lat="43.056152" lon="-1.763310">
        <ele>789.363</ele>
        <time>2021-06-11T10:04:01Z</time>
      </trkpt>
      <trkpt lat="43.056166" lon="-1.763315">
        <ele>790.338</ele>
        <time>2021-06-11T10:04:02Z</time>
      </trkpt>
      <trkpt lat="43.056181" lon="-1.763318">
        <ele>790.887</ele>
        <time>2021-06-11T10:04:03Z</time>
      </trkpt>
      <trkpt lat="43.056197" lon="-1.763319">
        <ele>791.772</ele>
        <time>2021-06-11T10:04:04Z</time>
      </trkpt>
      <trkpt lat="43.056211" lon="-1.763319">
        <ele>792.285</ele>
        <time>2021-06-11T10:04:05Z</time>
      </trkpt>
      <trkpt lat="43.056227" lon="-1.763319">
        <ele>793.289</ele>
        <time>2021-06-11T10:04:06Z</time>
      </trkpt>
      <trkpt lat="43.056312" lon="-1.763331">
        <ele>797.517</ele>
        <time>2021-06-11T10:04:12Z</time>
      </trkpt>
      <trkpt lat="43.056448" lon="-1.763335">
        <ele>803.308</ele>
        <time>2021-06-11T10:04:20Z</time>
      </trkpt>
      <trkpt lat="43.056599" lon="-1.763311">
        <ele>808.185</ele>
        <time>2021-06-11T10:04:28Z</time>
      </trkpt>
      <trkpt lat="43.056753" lon="-1.763299">
        <ele>812.983</ele>
        <time>2021-06-11T10:04:36Z</time>
      </trkpt>
      <trkpt lat="43.056920" lon="-1.763266">
        <ele>815.383</ele>
        <time>2021-06-11T10:04:44Z</time>
      </trkpt>
      <trkpt lat="43.057006" lon="-1.763232">
        <ele>815.881</ele>
        <time>2021-06-11T10:04:50Z</time>
      </trkpt>
      <trkpt lat="43.057115" lon="-1.763189">
        <ele>816.789</ele>
        <time>2021-06-11T10:04:57Z</time>
      </trkpt>
      <trkpt lat="43.057206" lon="-1.763186">
        <ele>817.264</ele>
        <time>2021-06-11T10:05:02Z</time>
      </trkpt>
      <trkpt lat="43.057224" lon="-1.763183">
        <ele>817.763</ele>
        <time>2021-06-11T10:05:03Z</time>
      </trkpt>
      <trkpt lat="43.057239" lon="-1.763178">
        <ele>817.718</ele>
        <time>2021-06-11T10:05:04Z</time>
      </trkpt>
      <trkpt lat="43.057260" lon="-1.763169">
        <ele>818.289</ele>
        <time>2021-06-11T10:05:05Z</time>
      </trkpt>
      <trkpt lat="43.057278" lon="-1.763160">
        <ele>818.706</ele>
        <time>2021-06-11T10:05:06Z</time>
      </trkpt>
      <trkpt lat="43.057294" lon="-1.763157">
        <ele>819.126</ele>
        <time>2021-06-11T10:05:07Z</time>
      </trkpt>
      <trkpt lat="43.057314" lon="-1.763156">
        <ele>819.608</ele>
        <time>2021-06-11T10:05:08Z</time>
      </trkpt>
      <trkpt lat="43.057416" lon="-1.763134">
        <ele>823.555</ele>
        <time>2021-06-11T10:05:14Z</time>
      </trkpt>
      <trkpt lat="43.057501" lon="-1.763122">
        <ele>827.883</ele>
        <time>2021-06-11T10:05:21Z</time>
      </trkpt>
      <trkpt lat="43.057516" lon="-1.763127">
        <ele>828.343</ele>
        <time>2021-06-11T10:05:22Z</time>
      </trkpt>
      <trkpt lat="43.057647" lon="-1.763110">
        <ele>834.021</ele>
        <time>2021-06-11T10:05:31Z</time>
      </trkpt>
      <trkpt lat="43.057815" lon="-1.763044">
        <ele>834.049</ele>
        <time>2021-06-11T10:05:41Z</time>
      </trkpt>
      <trkpt lat="43.057900" lon="-1.762935">
        <ele>833.184</ele>
        <time>2021-06-11T10:05:49Z</time>
      </trkpt>
      <trkpt lat="43.058012" lon="-1.762920">
        <ele>828.763</ele>
        <time>2021-06-11T10:05:56Z</time>
      </trkpt>
      <trkpt lat="43.058138" lon="-1.762904">
        <ele>827.378</ele>
        <time>2021-06-11T10:06:04Z</time>
      </trkpt>
      <trkpt lat="43.058292" lon="-1.762906">
        <ele>825.914</ele>
        <time>2021-06-11T10:06:13Z</time>
      </trkpt>
      <trkpt lat="43.058415" lon="-1.762981">
        <ele>826.354</ele>
        <time>2021-06-11T10:06:21Z</time>
      </trkpt>
      <trkpt lat="43.058448" lon="-1.763122">
        <ele>823.509</ele>
        <time>2021-06-11T10:06:30Z</time>
      </trkpt>
      <trkpt lat="43.058503" lon="-1.763269">
        <ele>818.208</ele>
        <time>2021-06-11T10:06:37Z</time>
      </trkpt>
      <trkpt lat="43.058645" lon="-1.763429">
        <ele>812.968</ele>
        <time>2021-06-11T10:06:46Z</time>
      </trkpt>
      <trkpt lat="43.058814" lon="-1.763525">
        <ele>814.346</ele>
        <time>2021-06-11T10:06:55Z</time>
      </trkpt>
      <trkpt lat="43.058882" lon="-1.763568">
        <ele>816.366</ele>
        <time>2021-06-11T10:07:01Z</time>
      </trkpt>
      <trkpt lat="43.058983" lon="-1.763608">
        <ele>819.154</ele>
        <time>2021-06-11T10:07:08Z</time>
      </trkpt>
      <trkpt lat="43.059109" lon="-1.763645">
        <ele>823.992</ele>
        <time>2021-06-11T10:07:16Z</time>
      </trkpt>
      <trkpt lat="43.059153" lon="-1.763645">
        <ele>825.957</ele>
        <time>2021-06-11T10:07:19Z</time>
      </trkpt>
      <trkpt lat="43.059168" lon="-1.763646">
        <ele>826.896</ele>
        <time>2021-06-11T10:07:20Z</time>
      </trkpt>
      <trkpt lat="43.059184" lon="-1.763650">
        <ele>827.361</ele>
        <time>2021-06-11T10:07:21Z</time>
      </trkpt>
      <trkpt lat="43.059201" lon="-1.763650">
        <ele>827.829</ele>
        <time>2021-06-11T10:07:22Z</time>
      </trkpt>
      <trkpt lat="43.059220" lon="-1.763649">
        <ele>828.300</ele>
        <time>2021-06-11T10:07:23Z</time>
      </trkpt>
      <trkpt lat="43.059240" lon="-1.763648">
        <ele>828.720</ele>
        <time>2021-06-11T10:07:24Z</time>
      </trkpt>
      <trkpt lat="43.059418" lon="-1.763616">
        <ele>832.608</ele>
        <time>2021-06-11T10:07:34Z</time>
      </trkpt>
      <trkpt lat="43.059567" lon="-1.763594">
        <ele>835.089</ele>
        <time>2021-06-11T10:07:42Z</time>
      </trkpt>
      <trkpt lat="43.059724" lon="-1.763524">
        <ele>836.977</ele>
        <time>2021-06-11T10:07:51Z</time>
      </trkpt>
      <trkpt lat="43.059839" lon="-1.763475">
        <ele>838.497</ele>
        <time>2021-06-11T10:07:57Z</time>
      </trkpt>
      <trkpt lat="43.060005" lon="-1.763400">
        <ele>837.465</ele>
        <time>2021-06-11T10:08:05Z</time>
      </trkpt>
      <trkpt lat="43.060188" lon="-1.763312">
        <ele>836.443</ele>
        <time>2021-06-11T10:08:14Z</time>
      </trkpt>
      <trkpt lat="43.060336" lon="-1.763179">
        <ele>836.058</ele>
        <time>2021-06-11T10:08:22Z</time>
      </trkpt>
      <trkpt lat="43.060478" lon="-1.763078">
        <ele>837.927</ele>
        <time>2021-06-11T10:08:30Z</time>
      </trkpt>
      <trkpt lat="43.060553" lon="-1.763030">
        <ele>837.432</ele>
        <time>2021-06-11T10:08:35Z</time>
      </trkpt>
      <trkpt lat="43.060563" lon="-1.763022">
        <ele>836.913</ele>
        <time>2021-06-11T10:08:36Z</time>
      </trkpt>
      <trkpt lat="43.060576" lon="-1.763012">
        <ele>836.943</ele>
        <time>2021-06-11T10:08:37Z</time>
      </trkpt>
      <trkpt lat="43.060590" lon="-1.763004">
        <ele>836.407</ele>
        <time>2021-06-11T10:08:38Z</time>
      </trkpt>
      <trkpt lat="43.060606" lon="-1.762994">
        <ele>836.408</ele>
        <time>2021-06-11T10:08:39Z</time>
      </trkpt>
      <trkpt lat="43.060640" lon="-1.762971">
        <ele>836.468</ele>
        <time>2021-06-11T10:08:41Z</time>
      </trkpt>
      <trkpt lat="43.060658" lon="-1.762959">
        <ele>836.036</ele>
        <time>2021-06-11T10:08:42Z</time>
      </trkpt>
      <trkpt lat="43.060674" lon="-1.762948">
        <ele>836.096</ele>
        <time>2021-06-11T10:08:43Z</time>
      </trkpt>
      <trkpt lat="43.060690" lon="-1.762935">
        <ele>836.074</ele>
        <time>2021-06-11T10:08:44Z</time>
      </trkpt>
      <trkpt lat="43.060706" lon="-1.762925">
        <ele>835.592</ele>
        <time>2021-06-11T10:08:45Z</time>
      </trkpt>
      <trkpt lat="43.060840" lon="-1.762817">
        <ele>835.527</ele>
        <time>2021-06-11T10:08:53Z</time>
      </trkpt>
      <trkpt lat="43.060989" lon="-1.762730">
        <ele>837.466</ele>
        <time>2021-06-11T10:09:01Z</time>
      </trkpt>
      <trkpt lat="43.061119" lon="-1.762732">
        <ele>838.441</ele>
        <time>2021-06-11T10:09:07Z</time>
      </trkpt>
      <trkpt lat="43.061140" lon="-1.762741">
        <ele>838.456</ele>
        <time>2021-06-11T10:09:08Z</time>
      </trkpt>
      <trkpt lat="43.061157" lon="-1.762756">
        <ele>838.459</ele>
        <time>2021-06-11T10:09:09Z</time>
      </trkpt>
      <trkpt lat="43.061188" lon="-1.762897">
        <ele>836.014</ele>
        <time>2021-06-11T10:09:16Z</time>
      </trkpt>
      <trkpt lat="43.061142" lon="-1.763109">
        <ele>835.008</ele>
        <time>2021-06-11T10:09:25Z</time>
      </trkpt>
      <trkpt lat="43.061110" lon="-1.763356">
        <ele>828.312</ele>
        <time>2021-06-11T10:09:34Z</time>
      </trkpt>
      <trkpt lat="43.061092" lon="-1.763587">
        <ele>823.580</ele>
        <time>2021-06-11T10:09:43Z</time>
      </trkpt>
      <trkpt lat="43.061065" lon="-1.763761">
        <ele>822.090</ele>
        <time>2021-06-11T10:09:50Z</time>
      </trkpt>
      <trkpt lat="43.061029" lon="-1.763935">
        <ele>821.178</ele>
        <time>2021-06-11T10:09:58Z</time>
      </trkpt>
      <trkpt lat="43.061017" lon="-1.763990">
        <ele>821.156</ele>
        <time>2021-06-11T10:10:03Z</time>
      </trkpt>
      <trkpt lat="43.061017" lon="-1.764023">
        <ele>820.691</ele>
        <time>2021-06-11T10:10:05Z</time>
      </trkpt>
      <trkpt lat="43.061012" lon="-1.764039">
        <ele>820.610</ele>
        <time>2021-06-11T10:10:06Z</time>
      </trkpt>
      <trkpt lat="43.061006" lon="-1.764056">
        <ele>820.125</ele>
        <time>2021-06-11T10:10:07Z</time>
      </trkpt>
      <trkpt lat="43.061000" lon="-1.764074">
        <ele>820.135</ele>
        <time>2021-06-11T10:10:08Z</time>
      </trkpt>
      <trkpt lat="43.060992" lon="-1.764091">
        <ele>819.686</ele>
        <time>2021-06-11T10:10:09Z</time>
      </trkpt>
      <trkpt lat="43.060985" lon="-1.764108">
        <ele>819.614</ele>
        <time>2021-06-11T10:10:10Z</time>
      </trkpt>
      <trkpt lat="43.060931" lon="-1.764265">
        <ele>818.208</ele>
        <time>2021-06-11T10:10:18Z</time>
      </trkpt>
      <trkpt lat="43.060812" lon="-1.764461">
        <ele>817.230</ele>
        <time>2021-06-11T10:10:28Z</time>
      </trkpt>
      <trkpt lat="43.060675" lon="-1.764609">
        <ele>819.168</ele>
        <time>2021-06-11T10:10:37Z</time>
      </trkpt>
      <trkpt lat="43.060547" lon="-1.764755">
        <ele>820.658</ele>
        <time>2021-06-11T10:10:46Z</time>
      </trkpt>
      <trkpt lat="43.060454" lon="-1.764917">
        <ele>821.516</ele>
        <time>2021-06-11T10:10:54Z</time>
      </trkpt>
      <trkpt lat="43.060428" lon="-1.765011">
        <ele>822.024</ele>
        <time>2021-06-11T10:11:00Z</time>
      </trkpt>
      <trkpt lat="43.060427" lon="-1.765034">
        <ele>822.029</ele>
        <time>2021-06-11T10:11:01Z</time>
      </trkpt>
      <trkpt lat="43.060423" lon="-1.765058">
        <ele>822.048</ele>
        <time>2021-06-11T10:11:02Z</time>
      </trkpt>
      <trkpt lat="43.060419" lon="-1.765082">
        <ele>822.013</ele>
        <time>2021-06-11T10:11:03Z</time>
      </trkpt>
      <trkpt lat="43.060415" lon="-1.765104">
        <ele>822.095</ele>
        <time>2021-06-11T10:11:04Z</time>
      </trkpt>
      <trkpt lat="43.060413" lon="-1.765127">
        <ele>822.049</ele>
        <time>2021-06-11T10:11:05Z</time>
      </trkpt>
      <trkpt lat="43.060412" lon="-1.765150">
        <ele>822.023</ele>
        <time>2021-06-11T10:11:06Z</time>
      </trkpt>
      <trkpt lat="43.060411" lon="-1.765173">
        <ele>822.008</ele>
        <time>2021-06-11T10:11:07Z</time>
      </trkpt>
      <trkpt lat="43.060408" lon="-1.765199">
        <ele>822.086</ele>
        <time>2021-06-11T10:11:08Z</time>
      </trkpt>
      <trkpt lat="43.060421" lon="-1.765413">
        <ele>823.554</ele>
        <time>2021-06-11T10:11:17Z</time>
      </trkpt>
      <trkpt lat="43.060444" lon="-1.765597">
        <ele>825.454</ele>
        <time>2021-06-11T10:11:25Z</time>
      </trkpt>
      <trkpt lat="43.060465" lon="-1.765770">
        <ele>824.972</ele>
        <time>2021-06-11T10:11:32Z</time>
      </trkpt>
      <trkpt lat="43.060458" lon="-1.766000">
        <ele>823.530</ele>
        <time>2021-06-11T10:11:41Z</time>
      </trkpt>
      <trkpt lat="43.060456" lon="-1.766236">
        <ele>821.145</ele>
        <time>2021-06-11T10:11:50Z</time>
      </trkpt>
      <trkpt lat="43.060442" lon="-1.766456">
        <ele>821.584</ele>
        <time>2021-06-11T10:11:58Z</time>
      </trkpt>
      <trkpt lat="43.060428" lon="-1.766679">
        <ele>822.029</ele>
        <time>2021-06-11T10:12:06Z</time>
      </trkpt>
      <trkpt lat="43.060405" lon="-1.766887">
        <ele>823.554</ele>
        <time>2021-06-11T10:12:14Z</time>
      </trkpt>
      <trkpt lat="43.060335" lon="-1.767069">
        <ele>825.956</ele>
        <time>2021-06-11T10:12:22Z</time>
      </trkpt>
      <trkpt lat="43.060276" lon="-1.767180">
        <ele>828.311</ele>
        <time>2021-06-11T10:12:29Z</time>
      </trkpt>
      <trkpt lat="43.060198" lon="-1.767380">
        <ele>831.608</ele>
        <time>2021-06-11T10:12:38Z</time>
      </trkpt>
      <trkpt lat="43.060225" lon="-1.767590">
        <ele>833.692</ele>
        <time>2021-06-11T10:12:46Z</time>
      </trkpt>
      <trkpt lat="43.060262" lon="-1.767625">
        <ele>835.080</ele>
        <time>2021-06-11T10:12:50Z</time>
      </trkpt>
      <trkpt lat="43.060275" lon="-1.767630">
        <ele>835.040</ele>
        <time>2021-06-11T10:12:51Z</time>
      </trkpt>
      <trkpt lat="43.060288" lon="-1.767644">
        <ele>835.528</ele>
        <time>2021-06-11T10:12:56Z</time>
      </trkpt>
      <trkpt lat="43.060276" lon="-1.767648">
        <ele>836.426</ele>
        <time>2021-06-11T10:13:04Z</time>
      </trkpt>
      <trkpt lat="43.060258" lon="-1.767661">
        <ele>836.911</ele>
        <time>2021-06-11T10:13:13Z</time>
      </trkpt>
      <trkpt lat="43.060248" lon="-1.767665">
        <ele>836.490</ele>
        <time>2021-06-11T10:13:21Z</time>
      </trkpt>
      <trkpt lat="43.060232" lon="-1.767692">
        <ele>837.985</ele>
        <time>2021-06-11T10:13:32Z</time>
      </trkpt>
      <trkpt lat="43.060220" lon="-1.767710">
        <ele>838.875</ele>
        <time>2021-06-11T10:13:41Z</time>
      </trkpt>
      <trkpt lat="43.060221" lon="-1.767737">
        <ele>839.328</ele>
        <time>2021-06-11T10:13:49Z</time>
      </trkpt>
      <trkpt lat="43.060217" lon="-1.767737">
        <ele>838.820</ele>
        <time>2021-06-11T10:14:01Z</time>
      </trkpt>
      <trkpt lat="43.060220" lon="-1.767743">
        <ele>839.308</ele>
        <time>2021-06-11T10:14:14Z</time>
      </trkpt>
      <trkpt lat="43.060232" lon="-1.767746">
        <ele>839.854</ele>
        <time>2021-06-11T10:14:26Z</time>
      </trkpt>
      <trkpt lat="43.060238" lon="-1.767749">
        <ele>836.922</ele>
        <time>2021-06-11T10:14:35Z</time>
      </trkpt>
      <trkpt lat="43.060214" lon="-1.767791">
        <ele>836.422</ele>
        <time>2021-06-11T10:14:45Z</time>
      </trkpt>
      <trkpt lat="43.060211" lon="-1.767757">
        <ele>837.970</ele>
        <time>2021-06-11T10:14:58Z</time>
      </trkpt>
      <trkpt lat="43.060207" lon="-1.767738">
        <ele>840.368</ele>
        <time>2021-06-11T10:15:06Z</time>
      </trkpt>
      <trkpt lat="43.060202" lon="-1.767708">
        <ele>842.243</ele>
        <time>2021-06-11T10:15:19Z</time>
      </trkpt>
      <trkpt lat="43.060196" lon="-1.767690">
        <ele>841.792</ele>
        <time>2021-06-11T10:15:27Z</time>
      </trkpt>
      <trkpt lat="43.060198" lon="-1.767707">
        <ele>840.397</ele>
        <time>2021-06-11T10:15:39Z</time>
      </trkpt>
      <trkpt lat="43.060214" lon="-1.767708">
        <ele>841.262</ele>
        <time>2021-06-11T10:15:46Z</time>
      </trkpt>
      <trkpt lat="43.060197" lon="-1.767710">
        <ele>841.283</ele>
        <time>2021-06-11T10:15:57Z</time>
      </trkpt>
      <trkpt lat="43.060196" lon="-1.767718">
        <ele>841.211</ele>
        <time>2021-06-11T10:16:06Z</time>
      </trkpt>
      <trkpt lat="43.060214" lon="-1.767730">
        <ele>842.708</ele>
        <time>2021-06-11T10:16:15Z</time>
      </trkpt>
      <trkpt lat="43.060226" lon="-1.767741">
        <ele>842.793</ele>
        <time>2021-06-11T10:16:22Z</time>
      </trkpt>
      <trkpt lat="43.060248" lon="-1.767744">
        <ele>843.651</ele>
        <time>2021-06-11T10:16:33Z</time>
      </trkpt>
      <trkpt lat="43.060225" lon="-1.767718">
        <ele>842.231</ele>
        <time>2021-06-11T10:16:44Z</time>
      </trkpt>
      <trkpt lat="43.060205" lon="-1.767702">
        <ele>842.269</ele>
        <time>2021-06-11T10:16:55Z</time>
      </trkpt>
      <trkpt lat="43.060222" lon="-1.767663">
        <ele>841.737</ele>
        <time>2021-06-11T10:17:08Z</time>
      </trkpt>
      <trkpt lat="43.060243" lon="-1.767647">
        <ele>841.262</ele>
        <time>2021-06-11T10:17:19Z</time>
      </trkpt>
      <trkpt lat="43.060272" lon="-1.767642">
        <ele>840.851</ele>
        <time>2021-06-11T10:17:31Z</time>
      </trkpt>
      <trkpt lat="43.060263" lon="-1.767625">
        <ele>841.276</ele>
        <time>2021-06-11T10:17:42Z</time>
      </trkpt>
      <trkpt lat="43.060283" lon="-1.767636">
        <ele>840.358</ele>
        <time>2021-06-11T10:17:50Z</time>
      </trkpt>
      <trkpt lat="43.060344" lon="-1.767642">
        <ele>839.352</ele>
        <time>2021-06-11T10:17:58Z</time>
      </trkpt>
      <trkpt lat="43.060353" lon="-1.767632">
        <ele>839.317</ele>
        <time>2021-06-11T10:17:59Z</time>
      </trkpt>
      <trkpt lat="43.060384" lon="-1.767562">
        <ele>839.808</ele>
        <time>2021-06-11T10:18:07Z</time>
      </trkpt>
      <trkpt lat="43.060386" lon="-1.767538">
        <ele>840.372</ele>
        <time>2021-06-11T10:18:18Z</time>
      </trkpt>
      <trkpt lat="43.060416" lon="-1.767547">
        <ele>844.160</ele>
        <time>2021-06-11T10:18:32Z</time>
      </trkpt>
      <trkpt lat="43.060401" lon="-1.767595">
        <ele>848.980</ele>
        <time>2021-06-11T10:18:53Z</time>
      </trkpt>
      <trkpt lat="43.060431" lon="-1.767603">
        <ele>851.338</ele>
        <time>2021-06-11T10:19:08Z</time>
      </trkpt>
      <trkpt lat="43.060432" lon="-1.767581">
        <ele>847.516</ele>
        <time>2021-06-11T10:19:25Z</time>
      </trkpt>
      <trkpt lat="43.060470" lon="-1.767571">
        <ele>846.511</ele>
        <time>2021-06-11T10:19:42Z</time>
      </trkpt>
      <trkpt lat="43.060467" lon="-1.767567">
        <ele>843.630</ele>
        <time>2021-06-11T10:19:56Z</time>
      </trkpt>
      <trkpt lat="43.060467" lon="-1.767556">
        <ele>844.625</ele>
        <time>2021-06-11T10:20:15Z</time>
      </trkpt>
      <trkpt lat="43.060450" lon="-1.767549">
        <ele>845.128</ele>
        <time>2021-06-11T10:20:33Z</time>
      </trkpt>
      <trkpt lat="43.060445" lon="-1.767576">
        <ele>845.189</ele>
        <time>2021-06-11T10:20:47Z</time>
      </trkpt>
      <trkpt lat="43.060454" lon="-1.767572">
        <ele>846.517</ele>
        <time>2021-06-11T10:21:00Z</time>
      </trkpt>
      <trkpt lat="43.060459" lon="-1.767562">
        <ele>843.208</ele>
        <time>2021-06-11T10:21:17Z</time>
      </trkpt>
      <trkpt lat="43.060436" lon="-1.767561">
        <ele>843.699</ele>
        <time>2021-06-11T10:21:29Z</time>
      </trkpt>
      <trkpt lat="43.060396" lon="-1.767573">
        <ele>840.327</ele>
        <time>2021-06-11T10:21:46Z</time>
      </trkpt>
      <trkpt lat="43.060381" lon="-1.767601">
        <ele>838.867</ele>
        <time>2021-06-11T10:22:01Z</time>
      </trkpt>
      <trkpt lat="43.060376" lon="-1.767609">
        <ele>838.835</ele>
        <time>2021-06-11T10:22:13Z</time>
      </trkpt>
      <trkpt lat="43.060391" lon="-1.767584">
        <ele>842.783</ele>
        <time>2021-06-11T10:22:29Z</time>
      </trkpt>
      <trkpt lat="43.060411" lon="-1.767558">
        <ele>845.138</ele>
        <time>2021-06-11T10:22:43Z</time>
      </trkpt>
      <trkpt lat="43.060398" lon="-1.767555">
        <ele>846.157</ele>
        <time>2021-06-11T10:23:08Z</time>
      </trkpt>
      <trkpt lat="43.060435" lon="-1.767545">
        <ele>843.662</ele>
        <time>2021-06-11T10:23:37Z</time>
      </trkpt>
      <trkpt lat="43.060412" lon="-1.767585">
        <ele>841.796</ele>
        <time>2021-06-11T10:23:57Z</time>
      </trkpt>
      <trkpt lat="43.060440" lon="-1.767633">
        <ele>841.731</ele>
        <time>2021-06-11T10:24:22Z</time>
      </trkpt>
      <trkpt lat="43.060412" lon="-1.767610">
        <ele>840.824</ele>
        <time>2021-06-11T10:24:44Z</time>
      </trkpt>
      <trkpt lat="43.060470" lon="-1.767630">
        <ele>842.208</ele>
        <time>2021-06-11T10:25:11Z</time>
      </trkpt>
      <trkpt lat="43.060443" lon="-1.767632">
        <ele>840.876</ele>
        <time>2021-06-11T10:25:39Z</time>
      </trkpt>
      <trkpt lat="43.060390" lon="-1.767596">
        <ele>842.244</ele>
        <time>2021-06-11T10:26:01Z</time>
      </trkpt>
      <trkpt lat="43.060369" lon="-1.767590">
        <ele>846.534</ele>
        <time>2021-06-11T10:26:29Z</time>
      </trkpt>
      <trkpt lat="43.060392" lon="-1.767601">
        <ele>848.032</ele>
        <time>2021-06-11T10:26:54Z</time>
      </trkpt>
      <trkpt lat="43.060422" lon="-1.767592">
        <ele>848.050</ele>
        <time>2021-06-11T10:27:14Z</time>
      </trkpt>
      <trkpt lat="43.060414" lon="-1.767610">
        <ele>843.625</ele>
        <time>2021-06-11T10:27:36Z</time>
      </trkpt>
      <trkpt lat="43.060397" lon="-1.767596">
        <ele>842.724</ele>
        <time>2021-06-11T10:27:52Z</time>
      </trkpt>
      <trkpt lat="43.060410" lon="-1.767589">
        <ele>841.789</ele>
        <time>2021-06-11T10:28:04Z</time>
      </trkpt>
      <trkpt lat="43.060426" lon="-1.767590">
        <ele>839.861</ele>
        <time>2021-06-11T10:28:23Z</time>
      </trkpt>
      <trkpt lat="43.060406" lon="-1.767594">
        <ele>842.721</ele>
        <time>2021-06-11T10:28:48Z</time>
      </trkpt>
      <trkpt lat="43.060401" lon="-1.767605">
        <ele>839.313</ele>
        <time>2021-06-11T10:29:08Z</time>
      </trkpt>
      <trkpt lat="43.060418" lon="-1.767594">
        <ele>838.808</ele>
        <time>2021-06-11T10:29:21Z</time>
      </trkpt>
      <trkpt lat="43.060429" lon="-1.767583">
        <ele>839.383</ele>
        <time>2021-06-11T10:29:27Z</time>
      </trkpt>
      <trkpt lat="43.060435" lon="-1.767576">
        <ele>836.921</ele>
        <time>2021-06-11T10:29:39Z</time>
      </trkpt>
      <trkpt lat="43.060424" lon="-1.767591">
        <ele>836.961</ele>
        <time>2021-06-11T10:29:43Z</time>
      </trkpt>
      <trkpt lat="43.060339" lon="-1.767711">
        <ele>837.449</ele>
        <time>2021-06-11T10:29:52Z</time>
      </trkpt>
      <trkpt lat="43.060334" lon="-1.767729">
        <ele>837.497</ele>
        <time>2021-06-11T10:29:53Z</time>
      </trkpt>
      <trkpt lat="43.060332" lon="-1.767886">
        <ele>836.982</ele>
        <time>2021-06-11T10:30:01Z</time>
      </trkpt>
      <trkpt lat="43.060369" lon="-1.768011">
        <ele>836.021</ele>
        <time>2021-06-11T10:30:09Z</time>
      </trkpt>
      <trkpt lat="43.060414" lon="-1.768207">
        <ele>835.086</ele>
        <time>2021-06-11T10:30:16Z</time>
      </trkpt>
      <trkpt lat="43.060487" lon="-1.768421">
        <ele>834.512</ele>
        <time>2021-06-11T10:30:22Z</time>
      </trkpt>
      <trkpt lat="43.060610" lon="-1.768708">
        <ele>834.032</ele>
        <time>2021-06-11T10:30:29Z</time>
      </trkpt>
      <trkpt lat="43.060779" lon="-1.768858">
        <ele>834.505</ele>
        <time>2021-06-11T10:30:35Z</time>
      </trkpt>
      <trkpt lat="43.060953" lon="-1.768851">
        <ele>835.508</ele>
        <time>2021-06-11T10:30:41Z</time>
      </trkpt>
      <trkpt lat="43.060966" lon="-1.768839">
        <ele>836.018</ele>
        <time>2021-06-11T10:30:45Z</time>
      </trkpt>
      <trkpt lat="43.060986" lon="-1.768860">
        <ele>836.016</ele>
        <time>2021-06-11T10:30:59Z</time>
      </trkpt>
      <trkpt lat="43.060991" lon="-1.768882">
        <ele>837.946</ele>
        <time>2021-06-11T10:31:18Z</time>
      </trkpt>
      <trkpt lat="43.060955" lon="-1.768880">
        <ele>838.874</ele>
        <time>2021-06-11T10:31:40Z</time>
      </trkpt>
      <trkpt lat="43.060978" lon="-1.768895">
        <ele>841.222</ele>
        <time>2021-06-11T10:31:54Z</time>
      </trkpt>
      <trkpt lat="43.060972" lon="-1.768920">
        <ele>841.777</ele>
        <time>2021-06-11T10:32:10Z</time>
      </trkpt>
      <trkpt lat="43.060993" lon="-1.768913">
        <ele>841.716</ele>
        <time>2021-06-11T10:32:29Z</time>
      </trkpt>
      <trkpt lat="43.061000" lon="-1.768913">
        <ele>840.881</ele>
        <time>2021-06-11T10:32:39Z</time>
      </trkpt>
      <trkpt lat="43.061002" lon="-1.768868">
        <ele>840.885</ele>
        <time>2021-06-11T10:32:51Z</time>
      </trkpt>
      <trkpt lat="43.061004" lon="-1.768856">
        <ele>841.289</ele>
        <time>2021-06-11T10:33:01Z</time>
      </trkpt>
      <trkpt lat="43.061021" lon="-1.768859">
        <ele>841.217</ele>
        <time>2021-06-11T10:33:03Z</time>
      </trkpt>
      <trkpt lat="43.061035" lon="-1.768864">
        <ele>841.208</ele>
        <time>2021-06-11T10:33:04Z</time>
      </trkpt>
      <trkpt lat="43.061132" lon="-1.768914">
        <ele>841.265</ele>
        <time>2021-06-11T10:33:12Z</time>
      </trkpt>
      <trkpt lat="43.061258" lon="-1.768936">
        <ele>841.273</ele>
        <time>2021-06-11T10:33:19Z</time>
      </trkpt>
      <trkpt lat="43.061487" lon="-1.769001">
        <ele>841.263</ele>
        <time>2021-06-11T10:33:25Z</time>
      </trkpt>
      <trkpt lat="43.061829" lon="-1.769082">
        <ele>839.881</ele>
        <time>2021-06-11T10:33:30Z</time>
      </trkpt>
      <trkpt lat="43.062278" lon="-1.769150">
        <ele>836.949</ele>
        <time>2021-06-11T10:33:35Z</time>
      </trkpt>
      <trkpt lat="43.062982" lon="-1.769247">
        <ele>831.614</ele>
        <time>2021-06-11T10:33:42Z</time>
      </trkpt>
      <trkpt lat="43.063929" lon="-1.769379">
        <ele>825.493</ele>
        <time>2021-06-11T10:33:51Z</time>
      </trkpt>
      <trkpt lat="43.064391" lon="-1.769498">
        <ele>822.038</ele>
        <time>2021-06-11T10:33:56Z</time>
      </trkpt>
      <trkpt lat="43.064765" lon="-1.769700">
        <ele>821.131</ele>
        <time>2021-06-11T10:34:01Z</time>
      </trkpt>
      <trkpt lat="43.065189" lon="-1.770025">
        <ele>821.561</ele>
        <time>2021-06-11T10:34:07Z</time>
      </trkpt>
      <trkpt lat="43.065552" lon="-1.770357">
        <ele>821.107</ele>
        <time>2021-06-11T10:34:12Z</time>
      </trkpt>
      <trkpt lat="43.065613" lon="-1.770441">
        <ele>820.608</ele>
        <time>2021-06-11T10:34:13Z</time>
      </trkpt>
      <trkpt lat="43.065653" lon="-1.770523">
        <ele>820.150</ele>
        <time>2021-06-11T10:34:14Z</time>
      </trkpt>
      <trkpt lat="43.065674" lon="-1.770609">
        <ele>819.668</ele>
        <time>2021-06-11T10:34:15Z</time>
      </trkpt>
      <trkpt lat="43.065676" lon="-1.770697">
        <ele>819.148</ele>
        <time>2021-06-11T10:34:16Z</time>
      </trkpt>
      <trkpt lat="43.065661" lon="-1.770789">
        <ele>818.786</ele>
        <time>2021-06-11T10:34:17Z</time>
      </trkpt>
      <trkpt lat="43.065629" lon="-1.770867">
        <ele>818.254</ele>
        <time>2021-06-11T10:34:18Z</time>
      </trkpt>
      <trkpt lat="43.065585" lon="-1.770933">
        <ele>817.749</ele>
        <time>2021-06-11T10:34:19Z</time>
      </trkpt>
      <trkpt lat="43.065530" lon="-1.770995">
        <ele>817.278</ele>
        <time>2021-06-11T10:34:20Z</time>
      </trkpt>
      <trkpt lat="43.065466" lon="-1.771057">
        <ele>816.793</ele>
        <time>2021-06-11T10:34:21Z</time>
      </trkpt>
      <trkpt lat="43.065087" lon="-1.771373">
        <ele>813.486</ele>
        <time>2021-06-11T10:34:26Z</time>
      </trkpt>
      <trkpt lat="43.064838" lon="-1.771605">
        <ele>811.460</ele>
        <time>2021-06-11T10:34:29Z</time>
      </trkpt>
      <trkpt lat="43.064757" lon="-1.771707">
        <ele>810.526</ele>
        <time>2021-06-11T10:34:30Z</time>
      </trkpt>
      <trkpt lat="43.064690" lon="-1.771814">
        <ele>810.008</ele>
        <time>2021-06-11T10:34:31Z</time>
      </trkpt>
      <trkpt lat="43.064347" lon="-1.772436">
        <ele>807.115</ele>
        <time>2021-06-11T10:34:37Z</time>
      </trkpt>
      <trkpt lat="43.064027" lon="-1.772849">
        <ele>805.213</ele>
        <time>2021-06-11T10:34:42Z</time>
      </trkpt>
      <trkpt lat="43.063865" lon="-1.772985">
        <ele>804.773</ele>
        <time>2021-06-11T10:34:44Z</time>
      </trkpt>
      <trkpt lat="43.063783" lon="-1.773035">
        <ele>804.231</ele>
        <time>2021-06-11T10:34:45Z</time>
      </trkpt>
      <trkpt lat="43.063697" lon="-1.773072">
        <ele>804.269</ele>
        <time>2021-06-11T10:34:46Z</time>
      </trkpt>
      <trkpt lat="43.063610" lon="-1.773095">
        <ele>803.834</ele>
        <time>2021-06-11T10:34:47Z</time>
      </trkpt>
      <trkpt lat="43.063523" lon="-1.773108">
        <ele>803.883</ele>
        <time>2021-06-11T10:34:48Z</time>
      </trkpt>
      <trkpt lat="43.062687" lon="-1.773213">
        <ele>801.488</ele>
        <time>2021-06-11T10:34:57Z</time>
      </trkpt>
      <trkpt lat="43.062545" lon="-1.773242">
        <ele>799.917</ele>
        <time>2021-06-11T10:34:59Z</time>
      </trkpt>
      <trkpt lat="43.062500" lon="-1.773279">
        <ele>798.987</ele>
        <time>2021-06-11T10:35:00Z</time>
      </trkpt>
      <trkpt lat="43.062476" lon="-1.773331">
        <ele>798.015</ele>
        <time>2021-06-11T10:35:01Z</time>
      </trkpt>
      <trkpt lat="43.062473" lon="-1.773391">
        <ele>797.508</ele>
        <time>2021-06-11T10:35:02Z</time>
      </trkpt>
      <trkpt lat="43.062491" lon="-1.773447">
        <ele>797.068</ele>
        <time>2021-06-11T10:35:03Z</time>
      </trkpt>
      <trkpt lat="43.062532" lon="-1.773492">
        <ele>797.086</ele>
        <time>2021-06-11T10:35:04Z</time>
      </trkpt>
      <trkpt lat="43.062583" lon="-1.773512">
        <ele>796.126</ele>
        <time>2021-06-11T10:35:05Z</time>
      </trkpt>
      <trkpt lat="43.062646" lon="-1.773513">
        <ele>795.194</ele>
        <time>2021-06-11T10:35:06Z</time>
      </trkpt>
      <trkpt lat="43.062714" lon="-1.773513">
        <ele>794.192</ele>
        <time>2021-06-11T10:35:07Z</time>
      </trkpt>
      <trkpt lat="43.062784" lon="-1.773518">
        <ele>793.747</ele>
        <time>2021-06-11T10:35:08Z</time>
      </trkpt>
      <trkpt lat="43.063354" lon="-1.773568">
        <ele>788.986</ele>
        <time>2021-06-11T10:35:15Z</time>
      </trkpt>
      <trkpt lat="43.063788" lon="-1.773604">
        <ele>787.431</ele>
        <time>2021-06-11T10:35:20Z</time>
      </trkpt>
      <trkpt lat="43.063875" lon="-1.773593">
        <ele>787.444</ele>
        <time>2021-06-11T10:35:21Z</time>
      </trkpt>
      <trkpt lat="43.064386" lon="-1.773434">
        <ele>785.505</ele>
        <time>2021-06-11T10:35:27Z</time>
      </trkpt>
      <trkpt lat="43.064546" lon="-1.773345">
        <ele>785.015</ele>
        <time>2021-06-11T10:35:29Z</time>
      </trkpt>
      <trkpt lat="43.064622" lon="-1.773286">
        <ele>784.508</ele>
        <time>2021-06-11T10:35:30Z</time>
      </trkpt>
      <trkpt lat="43.064765" lon="-1.773152">
        <ele>783.621</ele>
        <time>2021-06-11T10:35:32Z</time>
      </trkpt>
      <trkpt lat="43.065217" lon="-1.772617">
        <ele>780.259</ele>
        <time>2021-06-11T10:35:39Z</time>
      </trkpt>
      <trkpt lat="43.065682" lon="-1.772216">
        <ele>777.899</ele>
        <time>2021-06-11T10:35:45Z</time>
      </trkpt>
      <trkpt lat="43.066245" lon="-1.771836">
        <ele>775.417</ele>
        <time>2021-06-11T10:35:51Z</time>
      </trkpt>
      <trkpt lat="43.066829" lon="-1.771714">
        <ele>772.565</ele>
        <time>2021-06-11T10:35:56Z</time>
      </trkpt>
      <trkpt lat="43.067642" lon="-1.771624">
        <ele>765.830</ele>
        <time>2021-06-11T10:36:03Z</time>
      </trkpt>
      <trkpt lat="43.068238" lon="-1.771693">
        <ele>760.569</ele>
        <time>2021-06-11T10:36:08Z</time>
      </trkpt>
      <trkpt lat="43.069061" lon="-1.771921">
        <ele>753.844</ele>
        <time>2021-06-11T10:36:15Z</time>
      </trkpt>
      <trkpt lat="43.069845" lon="-1.772168">
        <ele>747.082</ele>
        <time>2021-06-11T10:36:22Z</time>
      </trkpt>
      <trkpt lat="43.070816" lon="-1.772541">
        <ele>739.343</ele>
        <time>2021-06-11T10:36:30Z</time>
      </trkpt>
      <trkpt lat="43.071369" lon="-1.772764">
        <ele>734.117</ele>
        <time>2021-06-11T10:36:35Z</time>
      </trkpt>
      <trkpt lat="43.071617" lon="-1.772849">
        <ele>731.208</ele>
        <time>2021-06-11T10:36:38Z</time>
      </trkpt>
      <trkpt lat="43.071684" lon="-1.772849">
        <ele>729.375</ele>
        <time>2021-06-11T10:36:39Z</time>
      </trkpt>
      <trkpt lat="43.071745" lon="-1.772823">
        <ele>726.863</ele>
        <time>2021-06-11T10:36:40Z</time>
      </trkpt>
      <trkpt lat="43.071796" lon="-1.772783">
        <ele>724.943</ele>
        <time>2021-06-11T10:36:41Z</time>
      </trkpt>
      <trkpt lat="43.071838" lon="-1.772727">
        <ele>724.461</ele>
        <time>2021-06-11T10:36:42Z</time>
      </trkpt>
      <trkpt lat="43.071872" lon="-1.772653">
        <ele>723.549</ele>
        <time>2021-06-11T10:36:43Z</time>
      </trkpt>
      <trkpt lat="43.071895" lon="-1.772567">
        <ele>722.534</ele>
        <time>2021-06-11T10:36:44Z</time>
      </trkpt>
      <trkpt lat="43.071912" lon="-1.772481">
        <ele>722.073</ele>
        <time>2021-06-11T10:36:45Z</time>
      </trkpt>
      <trkpt lat="43.072050" lon="-1.771836">
        <ele>718.258</ele>
        <time>2021-06-11T10:36:52Z</time>
      </trkpt>
      <trkpt lat="43.072134" lon="-1.771176">
        <ele>713.487</ele>
        <time>2021-06-11T10:36:59Z</time>
      </trkpt>
      <trkpt lat="43.072042" lon="-1.770408">
        <ele>709.542</ele>
        <time>2021-06-11T10:37:06Z</time>
      </trkpt>
      <trkpt lat="43.072012" lon="-1.770329">
        <ele>709.126</ele>
        <time>2021-06-11T10:37:07Z</time>
      </trkpt>
      <trkpt lat="43.071968" lon="-1.770260">
        <ele>708.108</ele>
        <time>2021-06-11T10:37:08Z</time>
      </trkpt>
      <trkpt lat="43.071906" lon="-1.770200">
        <ele>707.185</ele>
        <time>2021-06-11T10:37:09Z</time>
      </trkpt>
      <trkpt lat="43.071828" lon="-1.770153">
        <ele>705.733</ele>
        <time>2021-06-11T10:37:10Z</time>
      </trkpt>
      <trkpt lat="43.071747" lon="-1.770128">
        <ele>704.313</ele>
        <time>2021-06-11T10:37:11Z</time>
      </trkpt>
      <trkpt lat="43.071667" lon="-1.770125">
        <ele>703.361</ele>
        <time>2021-06-11T10:37:12Z</time>
      </trkpt>
      <trkpt lat="43.071593" lon="-1.770128">
        <ele>702.319</ele>
        <time>2021-06-11T10:37:13Z</time>
      </trkpt>
      <trkpt lat="43.071315" lon="-1.770095">
        <ele>698.034</ele>
        <time>2021-06-11T10:37:18Z</time>
      </trkpt>
      <trkpt lat="43.070914" lon="-1.769989">
        <ele>694.273</ele>
        <time>2021-06-11T10:37:25Z</time>
      </trkpt>
      <trkpt lat="43.070436" lon="-1.769881">
        <ele>691.338</ele>
        <time>2021-06-11T10:37:33Z</time>
      </trkpt>
      <trkpt lat="43.070157" lon="-1.769803">
        <ele>690.338</ele>
        <time>2021-06-11T10:37:40Z</time>
      </trkpt>
      <trkpt lat="43.069840" lon="-1.769648">
        <ele>688.970</ele>
        <time>2021-06-11T10:37:46Z</time>
      </trkpt>
      <trkpt lat="43.069599" lon="-1.769437">
        <ele>687.417</ele>
        <time>2021-06-11T10:37:50Z</time>
      </trkpt>
      <trkpt lat="43.069539" lon="-1.769363">
        <ele>687.008</ele>
        <time>2021-06-11T10:37:51Z</time>
      </trkpt>
      <trkpt lat="43.069480" lon="-1.769274">
        <ele>686.550</ele>
        <time>2021-06-11T10:37:52Z</time>
      </trkpt>
      <trkpt lat="43.069426" lon="-1.769175">
        <ele>686.588</ele>
        <time>2021-06-11T10:37:53Z</time>
      </trkpt>
      <trkpt lat="43.069376" lon="-1.769064">
        <ele>686.018</ele>
        <time>2021-06-11T10:37:54Z</time>
      </trkpt>
      <trkpt lat="43.069279" lon="-1.768856">
        <ele>685.076</ele>
        <time>2021-06-11T10:37:56Z</time>
      </trkpt>
      <trkpt lat="43.069220" lon="-1.768779">
        <ele>684.624</ele>
        <time>2021-06-11T10:37:57Z</time>
      </trkpt>
      <trkpt lat="43.069150" lon="-1.768727">
        <ele>684.179</ele>
        <time>2021-06-11T10:37:58Z</time>
      </trkpt>
      <trkpt lat="43.069078" lon="-1.768694">
        <ele>683.678</ele>
        <time>2021-06-11T10:37:59Z</time>
      </trkpt>
      <trkpt lat="43.069000" lon="-1.768677">
        <ele>683.113</ele>
        <time>2021-06-11T10:38:00Z</time>
      </trkpt>
      <trkpt lat="43.068915" lon="-1.768668">
        <ele>682.693</ele>
        <time>2021-06-11T10:38:01Z</time>
      </trkpt>
      <trkpt lat="43.068825" lon="-1.768669">
        <ele>682.165</ele>
        <time>2021-06-11T10:38:02Z</time>
      </trkpt>
      <trkpt lat="43.068736" lon="-1.768679">
        <ele>681.721</ele>
        <time>2021-06-11T10:38:03Z</time>
      </trkpt>
      <trkpt lat="43.068286" lon="-1.768721">
        <ele>678.808</ele>
        <time>2021-06-11T10:38:08Z</time>
      </trkpt>
      <trkpt lat="43.068226" lon="-1.768718">
        <ele>678.856</ele>
        <time>2021-06-11T10:38:09Z</time>
      </trkpt>
      <trkpt lat="43.068179" lon="-1.768696">
        <ele>678.344</ele>
        <time>2021-06-11T10:38:10Z</time>
      </trkpt>
      <trkpt lat="43.068149" lon="-1.768648">
        <ele>677.894</ele>
        <time>2021-06-11T10:38:11Z</time>
      </trkpt>
      <trkpt lat="43.068135" lon="-1.768573">
        <ele>677.342</ele>
        <time>2021-06-11T10:38:12Z</time>
      </trkpt>
      <trkpt lat="43.068146" lon="-1.768504">
        <ele>676.970</ele>
        <time>2021-06-11T10:38:13Z</time>
      </trkpt>
      <trkpt lat="43.068174" lon="-1.768446">
        <ele>676.455</ele>
        <time>2021-06-11T10:38:14Z</time>
      </trkpt>
      <trkpt lat="43.068213" lon="-1.768391">
        <ele>676.484</ele>
        <time>2021-06-11T10:38:15Z</time>
      </trkpt>
      <trkpt lat="43.068258" lon="-1.768338">
        <ele>676.499</ele>
        <time>2021-06-11T10:38:16Z</time>
      </trkpt>
      <trkpt lat="43.068308" lon="-1.768284">
        <ele>676.949</ele>
        <time>2021-06-11T10:38:17Z</time>
      </trkpt>
      <trkpt lat="43.068690" lon="-1.767862">
        <ele>676.402</ele>
        <time>2021-06-11T10:38:23Z</time>
      </trkpt>
      <trkpt lat="43.068762" lon="-1.767797">
        <ele>675.922</ele>
        <time>2021-06-11T10:38:24Z</time>
      </trkpt>
      <trkpt lat="43.068842" lon="-1.767745">
        <ele>675.908</ele>
        <time>2021-06-11T10:38:25Z</time>
      </trkpt>
      <trkpt lat="43.068929" lon="-1.767707">
        <ele>675.441</ele>
        <time>2021-06-11T10:38:26Z</time>
      </trkpt>
      <trkpt lat="43.069020" lon="-1.767682">
        <ele>675.479</ele>
        <time>2021-06-11T10:38:27Z</time>
      </trkpt>
      <trkpt lat="43.069120" lon="-1.767663">
        <ele>674.999</ele>
        <time>2021-06-11T10:38:28Z</time>
      </trkpt>
      <trkpt lat="43.069600" lon="-1.767605">
        <ele>670.657</ele>
        <time>2021-06-11T10:38:33Z</time>
      </trkpt>
      <trkpt lat="43.069683" lon="-1.767639">
        <ele>669.275</ele>
        <time>2021-06-11T10:38:34Z</time>
      </trkpt>
      <trkpt lat="43.069765" lon="-1.767691">
        <ele>668.710</ele>
        <time>2021-06-11T10:38:35Z</time>
      </trkpt>
      <trkpt lat="43.069846" lon="-1.767757">
        <ele>667.759</ele>
        <time>2021-06-11T10:38:36Z</time>
      </trkpt>
      <trkpt lat="43.069932" lon="-1.767837">
        <ele>667.234</ele>
        <time>2021-06-11T10:38:37Z</time>
      </trkpt>
      <trkpt lat="43.070101" lon="-1.767967">
        <ele>665.817</ele>
        <time>2021-06-11T10:38:39Z</time>
      </trkpt>
      <trkpt lat="43.070190" lon="-1.768008">
        <ele>664.887</ele>
        <time>2021-06-11T10:38:40Z</time>
      </trkpt>
      <trkpt lat="43.070797" lon="-1.768174">
        <ele>659.115</ele>
        <time>2021-06-11T10:38:46Z</time>
      </trkpt>
      <trkpt lat="43.071358" lon="-1.768172">
        <ele>652.808</ele>
        <time>2021-06-11T10:38:51Z</time>
      </trkpt>
      <trkpt lat="43.071475" lon="-1.768143">
        <ele>651.438</ele>
        <time>2021-06-11T10:38:52Z</time>
      </trkpt>
      <trkpt lat="43.071965" lon="-1.767985">
        <ele>647.136</ele>
        <time>2021-06-11T10:38:57Z</time>
      </trkpt>
      <trkpt lat="43.072043" lon="-1.767948">
        <ele>646.116</ele>
        <time>2021-06-11T10:38:58Z</time>
      </trkpt>
      <trkpt lat="43.072111" lon="-1.767889">
        <ele>645.694</ele>
        <time>2021-06-11T10:38:59Z</time>
      </trkpt>
      <trkpt lat="43.072162" lon="-1.767814">
        <ele>645.162</ele>
        <time>2021-06-11T10:39:00Z</time>
      </trkpt>
      <trkpt lat="43.072200" lon="-1.767727">
        <ele>644.737</ele>
        <time>2021-06-11T10:39:01Z</time>
      </trkpt>
      <trkpt lat="43.072225" lon="-1.767642">
        <ele>644.266</ele>
        <time>2021-06-11T10:39:02Z</time>
      </trkpt>
      <trkpt lat="43.072243" lon="-1.767559">
        <ele>644.241</ele>
        <time>2021-06-11T10:39:03Z</time>
      </trkpt>
      <trkpt lat="43.072319" lon="-1.767149">
        <ele>643.762</ele>
        <time>2021-06-11T10:39:09Z</time>
      </trkpt>
      <trkpt lat="43.072340" lon="-1.766818">
        <ele>643.283</ele>
        <time>2021-06-11T10:39:16Z</time>
      </trkpt>
      <trkpt lat="43.072320" lon="-1.766480">
        <ele>643.211</ele>
        <time>2021-06-11T10:39:23Z</time>
      </trkpt>
      <trkpt lat="43.072301" lon="-1.766021">
        <ele>641.808</ele>
        <time>2021-06-11T10:39:32Z</time>
      </trkpt>
      <trkpt lat="43.072284" lon="-1.765620">
        <ele>640.393</ele>
        <time>2021-06-11T10:39:38Z</time>
      </trkpt>
      <trkpt lat="43.072296" lon="-1.765568">
        <ele>640.381</ele>
        <time>2021-06-11T10:39:39Z</time>
      </trkpt>
      <trkpt lat="43.072322" lon="-1.765525">
        <ele>639.891</ele>
        <time>2021-06-11T10:39:40Z</time>
      </trkpt>
      <trkpt lat="43.072359" lon="-1.765496">
        <ele>639.459</ele>
        <time>2021-06-11T10:39:41Z</time>
      </trkpt>
      <trkpt lat="43.072406" lon="-1.765491">
        <ele>638.987</ele>
        <time>2021-06-11T10:39:42Z</time>
      </trkpt>
      <trkpt lat="43.072458" lon="-1.765513">
        <ele>638.492</ele>
        <time>2021-06-11T10:39:43Z</time>
      </trkpt>
      <trkpt lat="43.072506" lon="-1.765561">
        <ele>637.991</ele>
        <time>2021-06-11T10:39:44Z</time>
      </trkpt>
      <trkpt lat="43.072549" lon="-1.765634">
        <ele>637.036</ele>
        <time>2021-06-11T10:39:45Z</time>
      </trkpt>
      <trkpt lat="43.072584" lon="-1.765725">
        <ele>636.595</ele>
        <time>2021-06-11T10:39:46Z</time>
      </trkpt>
      <trkpt lat="43.072609" lon="-1.765830">
        <ele>636.049</ele>
        <time>2021-06-11T10:39:47Z</time>
      </trkpt>
      <trkpt lat="43.072627" lon="-1.765949">
        <ele>635.023</ele>
        <time>2021-06-11T10:39:48Z</time>
      </trkpt>
      <trkpt lat="43.072737" lon="-1.766690">
        <ele>631.708</ele>
        <time>2021-06-11T10:39:53Z</time>
      </trkpt>
      <trkpt lat="43.072807" lon="-1.767645">
        <ele>626.456</ele>
        <time>2021-06-11T10:39:59Z</time>
      </trkpt>
      <trkpt lat="43.072845" lon="-1.768295">
        <ele>623.074</ele>
        <time>2021-06-11T10:40:04Z</time>
      </trkpt>
      <trkpt lat="43.072873" lon="-1.768400">
        <ele>622.544</ele>
        <time>2021-06-11T10:40:05Z</time>
      </trkpt>
      <trkpt lat="43.072915" lon="-1.768496">
        <ele>622.512</ele>
        <time>2021-06-11T10:40:06Z</time>
      </trkpt>
      <trkpt lat="43.072966" lon="-1.768588">
        <ele>622.120</ele>
        <time>2021-06-11T10:40:07Z</time>
      </trkpt>
      <trkpt lat="43.073019" lon="-1.768683">
        <ele>621.125</ele>
        <time>2021-06-11T10:40:08Z</time>
      </trkpt>
      <trkpt lat="43.073328" lon="-1.769279">
        <ele>616.884</ele>
        <time>2021-06-11T10:40:13Z</time>
      </trkpt>
      <trkpt lat="43.073738" lon="-1.770053">
        <ele>610.539</ele>
        <time>2021-06-11T10:40:19Z</time>
      </trkpt>
      <trkpt lat="43.074246" lon="-1.771033">
        <ele>603.872</ele>
        <time>2021-06-11T10:40:27Z</time>
      </trkpt>
      <trkpt lat="43.074469" lon="-1.771504">
        <ele>601.413</ele>
        <time>2021-06-11T10:40:31Z</time>
      </trkpt>
      <trkpt lat="43.074591" lon="-1.772008">
        <ele>599.014</ele>
        <time>2021-06-11T10:40:35Z</time>
      </trkpt>
      <trkpt lat="43.074599" lon="-1.772112">
        <ele>598.508</ele>
        <time>2021-06-11T10:40:36Z</time>
      </trkpt>
      <trkpt lat="43.074600" lon="-1.772206">
        <ele>597.654</ele>
        <time>2021-06-11T10:40:37Z</time>
      </trkpt>
      <trkpt lat="43.074595" lon="-1.772293">
        <ele>597.142</ele>
        <time>2021-06-11T10:40:38Z</time>
      </trkpt>
      <trkpt lat="43.074587" lon="-1.772379">
        <ele>596.692</ele>
        <time>2021-06-11T10:40:39Z</time>
      </trkpt>
      <trkpt lat="43.074567" lon="-1.772721">
        <ele>594.750</ele>
        <time>2021-06-11T10:40:43Z</time>
      </trkpt>
      <trkpt lat="43.074578" lon="-1.772804">
        <ele>593.768</ele>
        <time>2021-06-11T10:40:44Z</time>
      </trkpt>
      <trkpt lat="43.074600" lon="-1.772887">
        <ele>593.223</ele>
        <time>2021-06-11T10:40:45Z</time>
      </trkpt>
      <trkpt lat="43.074630" lon="-1.772969">
        <ele>592.732</ele>
        <time>2021-06-11T10:40:46Z</time>
      </trkpt>
      <trkpt lat="43.074668" lon="-1.773055">
        <ele>592.347</ele>
        <time>2021-06-11T10:40:47Z</time>
      </trkpt>
      <trkpt lat="43.074710" lon="-1.773145">
        <ele>591.341</ele>
        <time>2021-06-11T10:40:48Z</time>
      </trkpt>
      <trkpt lat="43.074899" lon="-1.773512">
        <ele>588.481</ele>
        <time>2021-06-11T10:40:52Z</time>
      </trkpt>
      <trkpt lat="43.074953" lon="-1.773576">
        <ele>587.909</ele>
        <time>2021-06-11T10:40:53Z</time>
      </trkpt>
      <trkpt lat="43.075018" lon="-1.773619">
        <ele>587.008</ele>
        <time>2021-06-11T10:40:54Z</time>
      </trkpt>
      <trkpt lat="43.075094" lon="-1.773647">
        <ele>586.591</ele>
        <time>2021-06-11T10:40:55Z</time>
      </trkpt>
      <trkpt lat="43.075173" lon="-1.773677">
        <ele>586.049</ele>
        <time>2021-06-11T10:40:56Z</time>
      </trkpt>
      <trkpt lat="43.075342" lon="-1.773765">
        <ele>584.629</ele>
        <time>2021-06-11T10:40:58Z</time>
      </trkpt>
      <trkpt lat="43.075510" lon="-1.773870">
        <ele>583.647</ele>
        <time>2021-06-11T10:41:00Z</time>
      </trkpt>
      <trkpt lat="43.075601" lon="-1.773907">
        <ele>583.135</ele>
        <time>2021-06-11T10:41:01Z</time>
      </trkpt>
      <trkpt lat="43.075789" lon="-1.773974">
        <ele>582.720</ele>
        <time>2021-06-11T10:41:03Z</time>
      </trkpt>
      <trkpt lat="43.076155" lon="-1.774040">
        <ele>581.799</ele>
        <time>2021-06-11T10:41:07Z</time>
      </trkpt>
      <trkpt lat="43.076677" lon="-1.774010">
        <ele>581.714</ele>
        <time>2021-06-11T10:41:13Z</time>
      </trkpt>
      <trkpt lat="43.076980" lon="-1.773976">
        <ele>580.721</ele>
        <time>2021-06-11T10:41:17Z</time>
      </trkpt>
      <trkpt lat="43.077057" lon="-1.773936">
        <ele>580.741</ele>
        <time>2021-06-11T10:41:18Z</time>
      </trkpt>
      <trkpt lat="43.077121" lon="-1.773881">
        <ele>580.205</ele>
        <time>2021-06-11T10:41:19Z</time>
      </trkpt>
      <trkpt lat="43.077174" lon="-1.773807">
        <ele>579.808</ele>
        <time>2021-06-11T10:41:20Z</time>
      </trkpt>
      <trkpt lat="43.077212" lon="-1.773723">
        <ele>579.839</ele>
        <time>2021-06-11T10:41:21Z</time>
      </trkpt>
      <trkpt lat="43.077247" lon="-1.773637">
        <ele>579.897</ele>
        <time>2021-06-11T10:41:22Z</time>
      </trkpt>
      <trkpt lat="43.077285" lon="-1.773568">
        <ele>579.837</ele>
        <time>2021-06-11T10:41:23Z</time>
      </trkpt>
      <trkpt lat="43.077331" lon="-1.773512">
        <ele>579.365</ele>
        <time>2021-06-11T10:41:24Z</time>
      </trkpt>
      <trkpt lat="43.077381" lon="-1.773480">
        <ele>579.313</ele>
        <time>2021-06-11T10:41:25Z</time>
      </trkpt>
      <trkpt lat="43.077431" lon="-1.773474">
        <ele>579.878</ele>
        <time>2021-06-11T10:41:26Z</time>
      </trkpt>
      <trkpt lat="43.077477" lon="-1.773488">
        <ele>579.877</ele>
        <time>2021-06-11T10:41:27Z</time>
      </trkpt>
      <trkpt lat="43.077512" lon="-1.773513">
        <ele>580.232</ele>
        <time>2021-06-11T10:41:28Z</time>
      </trkpt>
      <trkpt lat="43.077540" lon="-1.773541">
        <ele>580.235</ele>
        <time>2021-06-11T10:41:29Z</time>
      </trkpt>
      <trkpt lat="43.077564" lon="-1.773569">
        <ele>580.786</ele>
        <time>2021-06-11T10:41:30Z</time>
      </trkpt>
      <trkpt lat="43.077694" lon="-1.773811">
        <ele>581.714</ele>
        <time>2021-06-11T10:41:38Z</time>
      </trkpt>
      <trkpt lat="43.077840" lon="-1.774124">
        <ele>582.208</ele>
        <time>2021-06-11T10:41:47Z</time>
      </trkpt>
      <trkpt lat="43.078057" lon="-1.774281">
        <ele>583.650</ele>
        <time>2021-06-11T10:41:56Z</time>
      </trkpt>
      <trkpt lat="43.078282" lon="-1.774376">
        <ele>584.128</ele>
        <time>2021-06-11T10:42:04Z</time>
      </trkpt>
      <trkpt lat="43.078524" lon="-1.774458">
        <ele>583.668</ele>
        <time>2021-06-11T10:42:13Z</time>
      </trkpt>
      <trkpt lat="43.078766" lon="-1.774534">
        <ele>585.566</ele>
        <time>2021-06-11T10:42:22Z</time>
      </trkpt>
      <trkpt lat="43.078982" lon="-1.774506">
        <ele>587.084</ele>
        <time>2021-06-11T10:42:30Z</time>
      </trkpt>
      <trkpt lat="43.079190" lon="-1.774378">
        <ele>586.029</ele>
        <time>2021-06-11T10:42:39Z</time>
      </trkpt>
      <trkpt lat="43.079210" lon="-1.774362">
        <ele>586.038</ele>
        <time>2021-06-11T10:42:40Z</time>
      </trkpt>
      <trkpt lat="43.079481" lon="-1.774247">
        <ele>585.153</ele>
        <time>2021-06-11T10:42:51Z</time>
      </trkpt>
      <trkpt lat="43.079569" lon="-1.774240">
        <ele>586.598</ele>
        <time>2021-06-11T10:42:58Z</time>
      </trkpt>
      <trkpt lat="43.079565" lon="-1.774242">
        <ele>587.515</ele>
        <time>2021-06-11T10:43:09Z</time>
      </trkpt>
      <trkpt lat="43.079599" lon="-1.774253">
        <ele>588.426</ele>
        <time>2021-06-11T10:43:16Z</time>
      </trkpt>
      <trkpt lat="43.079612" lon="-1.774264">
        <ele>588.408</ele>
        <time>2021-06-11T10:43:17Z</time>
      </trkpt>
      <trkpt lat="43.079623" lon="-1.774284">
        <ele>588.486</ele>
        <time>2021-06-11T10:43:18Z</time>
      </trkpt>
      <trkpt lat="43.079635" lon="-1.774304">
        <ele>588.994</ele>
        <time>2021-06-11T10:43:19Z</time>
      </trkpt>
      <trkpt lat="43.079648" lon="-1.774329">
        <ele>588.944</ele>
        <time>2021-06-11T10:43:20Z</time>
      </trkpt>
      <trkpt lat="43.079661" lon="-1.774351">
        <ele>588.992</ele>
        <time>2021-06-11T10:43:21Z</time>
      </trkpt>
      <trkpt lat="43.079675" lon="-1.774377">
        <ele>588.980</ele>
        <time>2021-06-11T10:43:22Z</time>
      </trkpt>
      <trkpt lat="43.079685" lon="-1.774406">
        <ele>589.495</ele>
        <time>2021-06-11T10:43:23Z</time>
      </trkpt>
      <trkpt lat="43.079764" lon="-1.774693">
        <ele>590.894</ele>
        <time>2021-06-11T10:43:32Z</time>
      </trkpt>
      <trkpt lat="43.079857" lon="-1.774911">
        <ele>591.849</ele>
        <time>2021-06-11T10:43:40Z</time>
      </trkpt>
      <trkpt lat="43.080040" lon="-1.775014">
        <ele>591.327</ele>
        <time>2021-06-11T10:43:48Z</time>
      </trkpt>
      <trkpt lat="43.080220" lon="-1.775065">
        <ele>590.868</ele>
        <time>2021-06-11T10:43:55Z</time>
      </trkpt>
      <trkpt lat="43.080411" lon="-1.775220">
        <ele>591.314</ele>
        <time>2021-06-11T10:44:04Z</time>
      </trkpt>
      <trkpt lat="43.080633" lon="-1.775497">
        <ele>591.308</ele>
        <time>2021-06-11T10:44:15Z</time>
      </trkpt>
      <trkpt lat="43.080846" lon="-1.775685">
        <ele>591.359</ele>
        <time>2021-06-11T10:44:23Z</time>
      </trkpt>
      <trkpt lat="43.081147" lon="-1.776007">
        <ele>590.897</ele>
        <time>2021-06-11T10:44:34Z</time>
      </trkpt>
      <trkpt lat="43.081298" lon="-1.776306">
        <ele>592.397</ele>
        <time>2021-06-11T10:44:43Z</time>
      </trkpt>
      <trkpt lat="43.081456" lon="-1.776607">
        <ele>593.215</ele>
        <time>2021-06-11T10:44:52Z</time>
      </trkpt>
      <trkpt lat="43.081656" lon="-1.776838">
        <ele>593.743</ele>
        <time>2021-06-11T10:45:00Z</time>
      </trkpt>
      <trkpt lat="43.081939" lon="-1.776923">
        <ele>593.268</ele>
        <time>2021-06-11T10:45:08Z</time>
      </trkpt>
      <trkpt lat="43.082307" lon="-1.776906">
        <ele>591.887</ele>
        <time>2021-06-11T10:45:16Z</time>
      </trkpt>
      <trkpt lat="43.082731" lon="-1.776850">
        <ele>591.312</ele>
        <time>2021-06-11T10:45:26Z</time>
      </trkpt>
      <trkpt lat="43.083130" lon="-1.776720">
        <ele>589.986</ele>
        <time>2021-06-11T10:45:36Z</time>
      </trkpt>
      <trkpt lat="43.083173" lon="-1.776686">
        <ele>589.460</ele>
        <time>2021-06-11T10:45:37Z</time>
      </trkpt>
      <trkpt lat="43.083209" lon="-1.776645">
        <ele>589.426</ele>
        <time>2021-06-11T10:45:38Z</time>
      </trkpt>
      <trkpt lat="43.083243" lon="-1.776594">
        <ele>588.908</ele>
        <time>2021-06-11T10:45:39Z</time>
      </trkpt>
      <trkpt lat="43.083274" lon="-1.776532">
        <ele>588.925</ele>
        <time>2021-06-11T10:45:40Z</time>
      </trkpt>
      <trkpt lat="43.083301" lon="-1.776474">
        <ele>588.433</ele>
        <time>2021-06-11T10:45:41Z</time>
      </trkpt>
      <trkpt lat="43.083515" lon="-1.776018">
        <ele>587.033</ele>
        <time>2021-06-11T10:45:49Z</time>
      </trkpt>
      <trkpt lat="43.083685" lon="-1.775558">
        <ele>585.531</ele>
        <time>2021-06-11T10:45:58Z</time>
      </trkpt>
      <trkpt lat="43.083816" lon="-1.775124">
        <ele>584.129</ele>
        <time>2021-06-11T10:46:06Z</time>
      </trkpt>
      <trkpt lat="43.083839" lon="-1.775070">
        <ele>584.184</ele>
        <time>2021-06-11T10:46:07Z</time>
      </trkpt>
      <trkpt lat="43.083863" lon="-1.775024">
        <ele>584.133</ele>
        <time>2021-06-11T10:46:08Z</time>
      </trkpt>
      <trkpt lat="43.084072" lon="-1.774737">
        <ele>583.158</ele>
        <time>2021-06-11T10:46:16Z</time>
      </trkpt>
      <trkpt lat="43.084328" lon="-1.774516">
        <ele>584.691</ele>
        <time>2021-06-11T10:46:25Z</time>
      </trkpt>
      <trkpt lat="43.084525" lon="-1.774321">
        <ele>584.181</ele>
        <time>2021-06-11T10:46:32Z</time>
      </trkpt>
      <trkpt lat="43.084776" lon="-1.773998">
        <ele>582.719</ele>
        <time>2021-06-11T10:46:40Z</time>
      </trkpt>
      <trkpt lat="43.084936" lon="-1.773842">
        <ele>581.708</ele>
        <time>2021-06-11T10:46:44Z</time>
      </trkpt>
      <trkpt lat="43.084987" lon="-1.773818">
        <ele>581.766</ele>
        <time>2021-06-11T10:46:45Z</time>
      </trkpt>
      <trkpt lat="43.085044" lon="-1.773817">
        <ele>581.254</ele>
        <time>2021-06-11T10:46:46Z</time>
      </trkpt>
      <trkpt lat="43.085104" lon="-1.773837">
        <ele>581.274</ele>
        <time>2021-06-11T10:46:47Z</time>
      </trkpt>
      <trkpt lat="43.085168" lon="-1.773876">
        <ele>580.752</ele>
        <time>2021-06-11T10:46:48Z</time>
      </trkpt>
      <trkpt lat="43.085218" lon="-1.773921">
        <ele>581.210</ele>
        <time>2021-06-11T10:46:49Z</time>
      </trkpt>
      <trkpt lat="43.085270" lon="-1.773981">
        <ele>581.285</ele>
        <time>2021-06-11T10:46:50Z</time>
      </trkpt>
      <trkpt lat="43.085313" lon="-1.774037">
        <ele>580.714</ele>
        <time>2021-06-11T10:46:51Z</time>
      </trkpt>
      <trkpt lat="43.085584" lon="-1.774397">
        <ele>581.739</ele>
        <time>2021-06-11T10:46:58Z</time>
      </trkpt>
      <trkpt lat="43.085617" lon="-1.774446">
        <ele>581.799</ele>
        <time>2021-06-11T10:46:59Z</time>
      </trkpt>
      <trkpt lat="43.085648" lon="-1.774493">
        <ele>581.707</ele>
        <time>2021-06-11T10:47:00Z</time>
      </trkpt>
      <trkpt lat="43.085858" lon="-1.774774">
        <ele>582.227</ele>
        <time>2021-06-11T10:47:07Z</time>
      </trkpt>
      <trkpt lat="43.085877" lon="-1.774825">
        <ele>582.708</ele>
        <time>2021-06-11T10:47:08Z</time>
      </trkpt>
      <trkpt lat="43.085890" lon="-1.774875">
        <ele>583.166</ele>
        <time>2021-06-11T10:47:09Z</time>
      </trkpt>
      <trkpt lat="43.085896" lon="-1.774927">
        <ele>583.674</ele>
        <time>2021-06-11T10:47:10Z</time>
      </trkpt>
      <trkpt lat="43.085898" lon="-1.774980">
        <ele>584.144</ele>
        <time>2021-06-11T10:47:11Z</time>
      </trkpt>
      <trkpt lat="43.085898" lon="-1.775035">
        <ele>584.132</ele>
        <time>2021-06-11T10:47:12Z</time>
      </trkpt>
      <trkpt lat="43.085894" lon="-1.775091">
        <ele>584.140</ele>
        <time>2021-06-11T10:47:13Z</time>
      </trkpt>
      <trkpt lat="43.085820" lon="-1.775565">
        <ele>586.055</ele>
        <time>2021-06-11T10:47:21Z</time>
      </trkpt>
      <trkpt lat="43.085722" lon="-1.776225">
        <ele>586.544</ele>
        <time>2021-06-11T10:47:31Z</time>
      </trkpt>
      <trkpt lat="43.085658" lon="-1.776683">
        <ele>585.189</ele>
        <time>2021-06-11T10:47:37Z</time>
      </trkpt>
      <trkpt lat="43.085657" lon="-1.776760">
        <ele>585.157</ele>
        <time>2021-06-11T10:47:38Z</time>
      </trkpt>
      <trkpt lat="43.085666" lon="-1.776835">
        <ele>585.100</ele>
        <time>2021-06-11T10:47:39Z</time>
      </trkpt>
      <trkpt lat="43.085684" lon="-1.776913">
        <ele>584.620</ele>
        <time>2021-06-11T10:47:40Z</time>
      </trkpt>
      <trkpt lat="43.085708" lon="-1.776985">
        <ele>584.608</ele>
        <time>2021-06-11T10:47:41Z</time>
      </trkpt>
      <trkpt lat="43.085737" lon="-1.777056">
        <ele>584.682</ele>
        <time>2021-06-11T10:47:42Z</time>
      </trkpt>
      <trkpt lat="43.085766" lon="-1.777124">
        <ele>584.140</ele>
        <time>2021-06-11T10:47:43Z</time>
      </trkpt>
      <trkpt lat="43.085908" lon="-1.777459">
        <ele>583.110</ele>
        <time>2021-06-11T10:47:49Z</time>
      </trkpt>
      <trkpt lat="43.086125" lon="-1.777784">
        <ele>581.728</ele>
        <time>2021-06-11T10:47:56Z</time>
      </trkpt>
      <trkpt lat="43.086297" lon="-1.778022">
        <ele>580.236</ele>
        <time>2021-06-11T10:48:02Z</time>
      </trkpt>
      <trkpt lat="43.086360" lon="-1.778090">
        <ele>579.831</ele>
        <time>2021-06-11T10:48:10Z</time>
      </trkpt>
      <trkpt lat="43.086478" lon="-1.778164">
        <ele>579.820</ele>
        <time>2021-06-11T10:48:19Z</time>
      </trkpt>
      <trkpt lat="43.086613" lon="-1.778221">
        <ele>579.385</ele>
        <time>2021-06-11T10:48:27Z</time>
      </trkpt>
      <trkpt lat="43.086775" lon="-1.778165">
        <ele>577.817</ele>
        <time>2021-06-11T10:48:36Z</time>
      </trkpt>
      <trkpt lat="43.086902" lon="-1.778168">
        <ele>576.487</ele>
        <time>2021-06-11T10:48:44Z</time>
      </trkpt>
      <trkpt lat="43.086973" lon="-1.778162">
        <ele>575.915</ele>
        <time>2021-06-11T10:48:51Z</time>
      </trkpt>
      <trkpt lat="43.086982" lon="-1.778164">
        <ele>575.408</ele>
        <time>2021-06-11T10:49:07Z</time>
      </trkpt>
      <trkpt lat="43.087002" lon="-1.778154">
        <ele>575.478</ele>
        <time>2021-06-11T10:49:17Z</time>
      </trkpt>
      <trkpt lat="43.087125" lon="-1.778129">
        <ele>575.476</ele>
        <time>2021-06-11T10:49:23Z</time>
      </trkpt>
      <trkpt lat="43.087418" lon="-1.778070">
        <ele>575.066</ele>
        <time>2021-06-11T10:49:33Z</time>
      </trkpt>
      <trkpt lat="43.087657" lon="-1.778053">
        <ele>574.544</ele>
        <time>2021-06-11T10:49:41Z</time>
      </trkpt>
      <trkpt lat="43.087813" lon="-1.777995">
        <ele>574.062</ele>
        <time>2021-06-11T10:49:49Z</time>
      </trkpt>
      <trkpt lat="43.087939" lon="-1.777937">
        <ele>573.087</ele>
        <time>2021-06-11T10:49:56Z</time>
      </trkpt>
      <trkpt lat="43.087927" lon="-1.777929">
        <ele>573.026</ele>
        <time>2021-06-11T10:50:09Z</time>
      </trkpt>
      <trkpt lat="43.087949" lon="-1.777920">
        <ele>572.661</ele>
        <time>2021-06-11T10:50:16Z</time>
      </trkpt>
      <trkpt lat="43.088134" lon="-1.777818">
        <ele>571.195</ele>
        <time>2021-06-11T10:50:23Z</time>
      </trkpt>
      <trkpt lat="43.088260" lon="-1.777737">
        <ele>570.649</ele>
        <time>2021-06-11T10:50:27Z</time>
      </trkpt>
      <trkpt lat="43.088290" lon="-1.777698">
        <ele>570.623</ele>
        <time>2021-06-11T10:50:28Z</time>
      </trkpt>
      <trkpt lat="43.088306" lon="-1.777678">
        <ele>570.608</ele>
        <time>2021-06-11T10:50:29Z</time>
      </trkpt>
      <trkpt lat="43.088316" lon="-1.777668">
        <ele>570.296</ele>
        <time>2021-06-11T10:50:30Z</time>
      </trkpt>
      <trkpt lat="43.088320" lon="-1.777659">
        <ele>570.674</ele>
        <time>2021-06-11T10:50:31Z</time>
      </trkpt>
      <trkpt lat="43.088318" lon="-1.777647">
        <ele>570.644</ele>
        <time>2021-06-11T10:50:32Z</time>
      </trkpt>
      <trkpt lat="43.088309" lon="-1.777641">
        <ele>570.682</ele>
        <time>2021-06-11T10:50:33Z</time>
      </trkpt>
      <trkpt lat="43.088293" lon="-1.777642">
        <ele>571.180</ele>
        <time>2021-06-11T10:50:40Z</time>
      </trkpt>
      <trkpt lat="43.088284" lon="-1.777643">
        <ele>571.675</ele>
        <time>2021-06-11T10:50:46Z</time>
      </trkpt>
      <trkpt lat="43.088253" lon="-1.777646">
        <ele>572.164</ele>
        <time>2021-06-11T10:50:50Z</time>
      </trkpt>
      <trkpt lat="43.088238" lon="-1.777624">
        <ele>572.689</ele>
        <time>2021-06-11T10:50:57Z</time>
      </trkpt>
      <trkpt lat="43.088241" lon="-1.777619">
        <ele>571.699</ele>
        <time>2021-06-11T10:51:06Z</time>
      </trkpt>
      <trkpt lat="43.088242" lon="-1.777610">
        <ele>572.607</ele>
        <time>2021-06-11T10:51:20Z</time>
      </trkpt>
      <trkpt lat="43.088237" lon="-1.777621">
        <ele>571.127</ele>
        <time>2021-06-11T10:51:31Z</time>
      </trkpt>
      <trkpt lat="43.088230" lon="-1.777617">
        <ele>570.208</ele>
        <time>2021-06-11T10:51:40Z</time>
      </trkpt>
      <trkpt lat="43.088229" lon="-1.777615">
        <ele>570.256</ele>
        <time>2021-06-11T10:51:48Z</time>
      </trkpt>
      <trkpt lat="43.088234" lon="-1.777603">
        <ele>569.724</ele>
        <time>2021-06-11T10:51:58Z</time>
      </trkpt>
      <trkpt lat="43.088231" lon="-1.777598">
        <ele>569.744</ele>
        <time>2021-06-11T10:52:08Z</time>
      </trkpt>
      <trkpt lat="43.088224" lon="-1.777609">
        <ele>570.262</ele>
        <time>2021-06-11T10:52:19Z</time>
      </trkpt>
      <trkpt lat="43.088215" lon="-1.777611">
        <ele>569.750</ele>
        <time>2021-06-11T10:52:29Z</time>
      </trkpt>
      <trkpt lat="43.088229" lon="-1.777628">
        <ele>570.625</ele>
        <time>2021-06-11T10:52:40Z</time>
      </trkpt>
      <trkpt lat="43.088232" lon="-1.777623">
        <ele>572.124</ele>
        <time>2021-06-11T10:52:54Z</time>
      </trkpt>
      <trkpt lat="43.088228" lon="-1.777624">
        <ele>572.679</ele>
        <time>2021-06-11T10:53:05Z</time>
      </trkpt>
      <trkpt lat="43.088245" lon="-1.777637">
        <ele>573.022</ele>
        <time>2021-06-11T10:53:11Z</time>
      </trkpt>
      <trkpt lat="43.088283" lon="-1.777656">
        <ele>572.662</ele>
        <time>2021-06-11T10:53:20Z</time>
      </trkpt>
      <trkpt lat="43.088277" lon="-1.777662">
        <ele>573.008</ele>
        <time>2021-06-11T10:53:28Z</time>
      </trkpt>
      <trkpt lat="43.088274" lon="-1.777662">
        <ele>573.008</ele>
        <time>2021-06-11T10:53:40Z</time>
      </trkpt>
      <trkpt lat="43.088268" lon="-1.777662">
        <ele>573.519</ele>
        <time>2021-06-11T10:53:52Z</time>
      </trkpt>
      <trkpt lat="43.088274" lon="-1.777652">
        <ele>574.577</ele>
        <time>2021-06-11T10:54:08Z</time>
      </trkpt>
      <trkpt lat="43.088292" lon="-1.777648">
        <ele>574.547</ele>
        <time>2021-06-11T10:54:21Z</time>
      </trkpt>
      <trkpt lat="43.088310" lon="-1.777643">
        <ele>574.055</ele>
        <time>2021-06-11T10:54:22Z</time>
      </trkpt>
      <trkpt lat="43.088321" lon="-1.777631">
        <ele>573.533</ele>
        <time>2021-06-11T10:54:23Z</time>
      </trkpt>
      <trkpt lat="43.088332" lon="-1.777611">
        <ele>573.088</ele>
        <time>2021-06-11T10:54:24Z</time>
      </trkpt>
      <trkpt lat="43.088344" lon="-1.777585">
        <ele>573.037</ele>
        <time>2021-06-11T10:54:25Z</time>
      </trkpt>
      <trkpt lat="43.088356" lon="-1.777558">
        <ele>573.032</ele>
        <time>2021-06-11T10:54:26Z</time>
      </trkpt>
      <trkpt lat="43.088470" lon="-1.777342">
        <ele>572.626</ele>
        <time>2021-06-11T10:54:33Z</time>
      </trkpt>
      <trkpt lat="43.088626" lon="-1.777048">
        <ele>572.147</ele>
        <time>2021-06-11T10:54:41Z</time>
      </trkpt>
      <trkpt lat="43.088822" lon="-1.776688">
        <ele>572.111</ele>
        <time>2021-06-11T10:54:50Z</time>
      </trkpt>
      <trkpt lat="43.089044" lon="-1.776311">
        <ele>573.008</ele>
        <time>2021-06-11T10:55:00Z</time>
      </trkpt>
      <trkpt lat="43.089241" lon="-1.775934">
        <ele>573.029</ele>
        <time>2021-06-11T10:55:09Z</time>
      </trkpt>
      <trkpt lat="43.089460" lon="-1.775575">
        <ele>573.047</ele>
        <time>2021-06-11T10:55:18Z</time>
      </trkpt>
      <trkpt lat="43.089706" lon="-1.775225">
        <ele>571.637</ele>
        <time>2021-06-11T10:55:27Z</time>
      </trkpt>
      <trkpt lat="43.089903" lon="-1.774921">
        <ele>569.785</ele>
        <time>2021-06-11T10:55:35Z</time>
      </trkpt>
      <trkpt lat="43.089981" lon="-1.774654">
        <ele>569.763</ele>
        <time>2021-06-11T10:55:41Z</time>
      </trkpt>
      <trkpt lat="43.090100" lon="-1.774297">
        <ele>568.218</ele>
        <time>2021-06-11T10:55:49Z</time>
      </trkpt>
      <trkpt lat="43.090296" lon="-1.774081">
        <ele>568.257</ele>
        <time>2021-06-11T10:55:55Z</time>
      </trkpt>
      <trkpt lat="43.090393" lon="-1.773958">
        <ele>568.212</ele>
        <time>2021-06-11T10:55:58Z</time>
      </trkpt>
      <trkpt lat="43.090577" lon="-1.773674">
        <ele>569.261</ele>
        <time>2021-06-11T10:56:06Z</time>
      </trkpt>
      <trkpt lat="43.090718" lon="-1.773381">
        <ele>572.121</ele>
        <time>2021-06-11T10:56:15Z</time>
      </trkpt>
      <trkpt lat="43.090794" lon="-1.773210">
        <ele>573.013</ele>
        <time>2021-06-11T10:56:22Z</time>
      </trkpt>
      <trkpt lat="43.090864" lon="-1.773091">
        <ele>573.008</ele>
        <time>2021-06-11T10:56:28Z</time>
      </trkpt>
      <trkpt lat="43.091046" lon="-1.772929">
        <ele>574.513</ele>
        <time>2021-06-11T10:56:38Z</time>
      </trkpt>
      <trkpt lat="43.091155" lon="-1.772877">
        <ele>575.091</ele>
        <time>2021-06-11T10:56:45Z</time>
      </trkpt>
      <trkpt lat="43.091301" lon="-1.772814">
        <ele>576.441</ele>
        <time>2021-06-11T10:56:54Z</time>
      </trkpt>
      <trkpt lat="43.091469" lon="-1.772749">
        <ele>576.959</ele>
        <time>2021-06-11T10:57:03Z</time>
      </trkpt>
      <trkpt lat="43.091623" lon="-1.772713">
        <ele>577.897</ele>
        <time>2021-06-11T10:57:11Z</time>
      </trkpt>
      <trkpt lat="43.091712" lon="-1.772734">
        <ele>578.352</ele>
        <time>2021-06-11T10:57:17Z</time>
      </trkpt>
      <trkpt lat="43.091853" lon="-1.772850">
        <ele>578.851</ele>
        <time>2021-06-11T10:57:26Z</time>
      </trkpt>
      <trkpt lat="43.091994" lon="-1.773002">
        <ele>580.266</ele>
        <time>2021-06-11T10:57:35Z</time>
      </trkpt>
      <trkpt lat="43.092136" lon="-1.773076">
        <ele>583.174</ele>
        <time>2021-06-11T10:57:43Z</time>
      </trkpt>
      <trkpt lat="43.092323" lon="-1.772987">
        <ele>586.556</ele>
        <time>2021-06-11T10:57:53Z</time>
      </trkpt>
      <trkpt lat="43.092435" lon="-1.772884">
        <ele>588.421</ele>
        <time>2021-06-11T10:58:01Z</time>
      </trkpt>
      <trkpt lat="43.092553" lon="-1.772752">
        <ele>590.308</ele>
        <time>2021-06-11T10:58:10Z</time>
      </trkpt>
      <trkpt lat="43.092654" lon="-1.772612">
        <ele>590.874</ele>
        <time>2021-06-11T10:58:19Z</time>
      </trkpt>
      <trkpt lat="43.092691" lon="-1.772576">
        <ele>590.882</ele>
        <time>2021-06-11T10:58:22Z</time>
      </trkpt>
      <trkpt lat="43.092708" lon="-1.772574">
        <ele>590.812</ele>
        <time>2021-06-11T10:58:23Z</time>
      </trkpt>
      <trkpt lat="43.092729" lon="-1.772570">
        <ele>590.320</ele>
        <time>2021-06-11T10:58:24Z</time>
      </trkpt>
      <trkpt lat="43.092746" lon="-1.772556">
        <ele>590.318</ele>
        <time>2021-06-11T10:58:25Z</time>
      </trkpt>
      <trkpt lat="43.092762" lon="-1.772540">
        <ele>590.843</ele>
        <time>2021-06-11T10:58:26Z</time>
      </trkpt>
      <trkpt lat="43.092777" lon="-1.772525">
        <ele>590.832</ele>
        <time>2021-06-11T10:58:27Z</time>
      </trkpt>
      <trkpt lat="43.092930" lon="-1.772436">
        <ele>591.387</ele>
        <time>2021-06-11T10:58:36Z</time>
      </trkpt>
      <trkpt lat="43.093120" lon="-1.772478">
        <ele>592.342</ele>
        <time>2021-06-11T10:58:46Z</time>
      </trkpt>
      <trkpt lat="43.093133" lon="-1.772491">
        <ele>592.322</ele>
        <time>2021-06-11T10:58:47Z</time>
      </trkpt>
      <trkpt lat="43.093150" lon="-1.772505">
        <ele>592.314</ele>
        <time>2021-06-11T10:58:48Z</time>
      </trkpt>
      <trkpt lat="43.093169" lon="-1.772515">
        <ele>592.308</ele>
        <time>2021-06-11T10:58:49Z</time>
      </trkpt>
      <trkpt lat="43.093189" lon="-1.772523">
        <ele>592.781</ele>
        <time>2021-06-11T10:58:50Z</time>
      </trkpt>
      <trkpt lat="43.093209" lon="-1.772532">
        <ele>592.759</ele>
        <time>2021-06-11T10:58:51Z</time>
      </trkpt>
      <trkpt lat="43.093229" lon="-1.772543">
        <ele>592.719</ele>
        <time>2021-06-11T10:58:52Z</time>
      </trkpt>
      <trkpt lat="43.093245" lon="-1.772552">
        <ele>593.217</ele>
        <time>2021-06-11T10:58:53Z</time>
      </trkpt>
      <trkpt lat="43.093262" lon="-1.772565">
        <ele>593.265</ele>
        <time>2021-06-11T10:58:54Z</time>
      </trkpt>
      <trkpt lat="43.093277" lon="-1.772578">
        <ele>593.210</ele>
        <time>2021-06-11T10:58:55Z</time>
      </trkpt>
      <trkpt lat="43.093342" lon="-1.772629">
        <ele>594.249</ele>
        <time>2021-06-11T10:59:02Z</time>
      </trkpt>
      <trkpt lat="43.093343" lon="-1.772634">
        <ele>594.784</ele>
        <time>2021-06-11T10:59:16Z</time>
      </trkpt>
      <trkpt lat="43.093362" lon="-1.772653">
        <ele>594.298</ele>
        <time>2021-06-11T10:59:28Z</time>
      </trkpt>
      <trkpt lat="43.093487" lon="-1.772764">
        <ele>594.715</ele>
        <time>2021-06-11T10:59:36Z</time>
      </trkpt>
      <trkpt lat="43.093645" lon="-1.772890">
        <ele>597.126</ele>
        <time>2021-06-11T10:59:45Z</time>
      </trkpt>
      <trkpt lat="43.093841" lon="-1.772868">
        <ele>597.608</ele>
        <time>2021-06-11T10:59:54Z</time>
      </trkpt>
      <trkpt lat="43.093963" lon="-1.772696">
        <ele>598.056</ele>
        <time>2021-06-11T11:00:03Z</time>
      </trkpt>
      <trkpt lat="43.094034" lon="-1.772467">
        <ele>598.084</ele>
        <time>2021-06-11T11:00:12Z</time>
      </trkpt>
      <trkpt lat="43.094099" lon="-1.772250">
        <ele>597.664</ele>
        <time>2021-06-11T11:00:20Z</time>
      </trkpt>
      <trkpt lat="43.094157" lon="-1.771995">
        <ele>600.442</ele>
        <time>2021-06-11T11:00:28Z</time>
      </trkpt>
      <trkpt lat="43.094142" lon="-1.771636">
        <ele>602.890</ele>
        <time>2021-06-11T11:00:37Z</time>
      </trkpt>
      <trkpt lat="43.094102" lon="-1.771322">
        <ele>606.285</ele>
        <time>2021-06-11T11:00:45Z</time>
      </trkpt>
      <trkpt lat="43.094062" lon="-1.770978">
        <ele>610.014</ele>
        <time>2021-06-11T11:00:54Z</time>
      </trkpt>
      <trkpt lat="43.094049" lon="-1.770657">
        <ele>614.489</ele>
        <time>2021-06-11T11:01:03Z</time>
      </trkpt>
      <trkpt lat="43.094044" lon="-1.770311">
        <ele>613.916</ele>
        <time>2021-06-11T11:01:12Z</time>
      </trkpt>
      <trkpt lat="43.094049" lon="-1.770021">
        <ele>612.976</ele>
        <time>2021-06-11T11:01:20Z</time>
      </trkpt>
      <trkpt lat="43.094106" lon="-1.769769">
        <ele>613.413</ele>
        <time>2021-06-11T11:01:27Z</time>
      </trkpt>
      <trkpt lat="43.094230" lon="-1.769502">
        <ele>611.508</ele>
        <time>2021-06-11T11:01:36Z</time>
      </trkpt>
      <trkpt lat="43.094299" lon="-1.769250">
        <ele>609.168</ele>
        <time>2021-06-11T11:01:44Z</time>
      </trkpt>
      <trkpt lat="43.094270" lon="-1.768959">
        <ele>607.256</ele>
        <time>2021-06-11T11:01:50Z</time>
      </trkpt>
      <trkpt lat="43.094253" lon="-1.768899">
        <ele>606.776</ele>
        <time>2021-06-11T11:01:51Z</time>
      </trkpt>
      <trkpt lat="43.094235" lon="-1.768838">
        <ele>606.234</ele>
        <time>2021-06-11T11:01:52Z</time>
      </trkpt>
      <trkpt lat="43.094156" lon="-1.768349">
        <ele>603.832</ele>
        <time>2021-06-11T11:01:58Z</time>
      </trkpt>
      <trkpt lat="43.094159" lon="-1.768240">
        <ele>603.397</ele>
        <time>2021-06-11T11:01:59Z</time>
      </trkpt>
      <trkpt lat="43.094173" lon="-1.768121">
        <ele>602.856</ele>
        <time>2021-06-11T11:02:00Z</time>
      </trkpt>
      <trkpt lat="43.094196" lon="-1.768008">
        <ele>601.961</ele>
        <time>2021-06-11T11:02:01Z</time>
      </trkpt>
      <trkpt lat="43.094229" lon="-1.767882">
        <ele>601.472</ele>
        <time>2021-06-11T11:02:02Z</time>
      </trkpt>
      <trkpt lat="43.094420" lon="-1.767076">
        <ele>595.613</ele>
        <time>2021-06-11T11:02:08Z</time>
      </trkpt>
      <trkpt lat="43.094634" lon="-1.766338">
        <ele>591.814</ele>
        <time>2021-06-11T11:02:13Z</time>
      </trkpt>
      <trkpt lat="43.094867" lon="-1.765505">
        <ele>587.508</ele>
        <time>2021-06-11T11:02:19Z</time>
      </trkpt>
      <trkpt lat="43.094910" lon="-1.765254">
        <ele>586.054</ele>
        <time>2021-06-11T11:02:21Z</time>
      </trkpt>
      <trkpt lat="43.094958" lon="-1.765132">
        <ele>585.182</ele>
        <time>2021-06-11T11:02:22Z</time>
      </trkpt>
      <trkpt lat="43.095016" lon="-1.765030">
        <ele>584.622</ele>
        <time>2021-06-11T11:02:23Z</time>
      </trkpt>
      <trkpt lat="43.095086" lon="-1.764930">
        <ele>583.680</ele>
        <time>2021-06-11T11:02:24Z</time>
      </trkpt>
      <trkpt lat="43.095162" lon="-1.764825">
        <ele>583.158</ele>
        <time>2021-06-11T11:02:25Z</time>
      </trkpt>
      <trkpt lat="43.095232" lon="-1.764721">
        <ele>582.733</ele>
        <time>2021-06-11T11:02:26Z</time>
      </trkpt>
      <trkpt lat="43.095479" lon="-1.764276">
        <ele>580.742</ele>
        <time>2021-06-11T11:02:30Z</time>
      </trkpt>
      <trkpt lat="43.095526" lon="-1.764147">
        <ele>580.787</ele>
        <time>2021-06-11T11:02:31Z</time>
      </trkpt>
      <trkpt lat="43.095560" lon="-1.764026">
        <ele>580.225</ele>
        <time>2021-06-11T11:02:32Z</time>
      </trkpt>
      <trkpt lat="43.095590" lon="-1.763892">
        <ele>579.826</ele>
        <time>2021-06-11T11:02:33Z</time>
      </trkpt>
      <trkpt lat="43.095613" lon="-1.763761">
        <ele>579.308</ele>
        <time>2021-06-11T11:02:34Z</time>
      </trkpt>
      <trkpt lat="43.095631" lon="-1.763645">
        <ele>578.808</ele>
        <time>2021-06-11T11:02:35Z</time>
      </trkpt>
      <trkpt lat="43.095716" lon="-1.762873">
        <ele>575.089</ele>
        <time>2021-06-11T11:02:41Z</time>
      </trkpt>
      <trkpt lat="43.095899" lon="-1.762087">
        <ele>571.167</ele>
        <time>2021-06-11T11:02:47Z</time>
      </trkpt>
      <trkpt lat="43.096198" lon="-1.760833">
        <ele>565.867</ele>
        <time>2021-06-11T11:02:57Z</time>
      </trkpt>
      <trkpt lat="43.096305" lon="-1.759943">
        <ele>560.565</ele>
        <time>2021-06-11T11:03:04Z</time>
      </trkpt>
      <trkpt lat="43.096313" lon="-1.759580">
        <ele>558.193</ele>
        <time>2021-06-11T11:03:07Z</time>
      </trkpt>
      <trkpt lat="43.096299" lon="-1.759471">
        <ele>557.738</ele>
        <time>2021-06-11T11:03:08Z</time>
      </trkpt>
      <trkpt lat="43.096274" lon="-1.759354">
        <ele>556.787</ele>
        <time>2021-06-11T11:03:09Z</time>
      </trkpt>
      <trkpt lat="43.096154" lon="-1.758811">
        <ele>554.892</ele>
        <time>2021-06-11T11:03:14Z</time>
      </trkpt>
      <trkpt lat="43.096151" lon="-1.758697">
        <ele>554.887</ele>
        <time>2021-06-11T11:03:15Z</time>
      </trkpt>
      <trkpt lat="43.096162" lon="-1.758596">
        <ele>554.842</ele>
        <time>2021-06-11T11:03:16Z</time>
      </trkpt>
      <trkpt lat="43.096208" lon="-1.758389">
        <ele>554.826</ele>
        <time>2021-06-11T11:03:18Z</time>
      </trkpt>
      <trkpt lat="43.096427" lon="-1.757619">
        <ele>557.708</ele>
        <time>2021-06-11T11:03:26Z</time>
      </trkpt>
      <trkpt lat="43.096475" lon="-1.757342">
        <ele>557.715</ele>
        <time>2021-06-11T11:03:29Z</time>
      </trkpt>
      <trkpt lat="43.096470" lon="-1.756784">
        <ele>558.153</ele>
        <time>2021-06-11T11:03:36Z</time>
      </trkpt>
      <trkpt lat="43.096463" lon="-1.756706">
        <ele>558.123</ele>
        <time>2021-06-11T11:03:37Z</time>
      </trkpt>
      <trkpt lat="43.096430" lon="-1.756178">
        <ele>558.121</ele>
        <time>2021-06-11T11:03:44Z</time>
      </trkpt>
      <trkpt lat="43.096439" lon="-1.756113">
        <ele>558.149</ele>
        <time>2021-06-11T11:03:45Z</time>
      </trkpt>
      <trkpt lat="43.096455" lon="-1.756048">
        <ele>558.184</ele>
        <time>2021-06-11T11:03:46Z</time>
      </trkpt>
      <trkpt lat="43.096673" lon="-1.755490">
        <ele>557.793</ele>
        <time>2021-06-11T11:03:55Z</time>
      </trkpt>
      <trkpt lat="43.096720" lon="-1.755307">
        <ele>557.788</ele>
        <time>2021-06-11T11:03:58Z</time>
      </trkpt>
      <trkpt lat="43.096734" lon="-1.754733">
        <ele>557.284</ele>
        <time>2021-06-11T11:04:07Z</time>
      </trkpt>
      <trkpt lat="43.096714" lon="-1.753922">
        <ele>556.207</ele>
        <time>2021-06-11T11:04:18Z</time>
      </trkpt>
      <trkpt lat="43.096704" lon="-1.753690">
        <ele>555.717</ele>
        <time>2021-06-11T11:04:21Z</time>
      </trkpt>
      <trkpt lat="43.096683" lon="-1.753613">
        <ele>555.708</ele>
        <time>2021-06-11T11:04:22Z</time>
      </trkpt>
      <trkpt lat="43.096654" lon="-1.753552">
        <ele>555.395</ele>
        <time>2021-06-11T11:04:23Z</time>
      </trkpt>
      <trkpt lat="43.096608" lon="-1.753501">
        <ele>555.323</ele>
        <time>2021-06-11T11:04:24Z</time>
      </trkpt>
      <trkpt lat="43.096555" lon="-1.753470">
        <ele>555.323</ele>
        <time>2021-06-11T11:04:25Z</time>
      </trkpt>
      <trkpt lat="43.096494" lon="-1.753458">
        <ele>554.841</ele>
        <time>2021-06-11T11:04:26Z</time>
      </trkpt>
      <trkpt lat="43.096430" lon="-1.753463">
        <ele>554.389</ele>
        <time>2021-06-11T11:04:27Z</time>
      </trkpt>
      <trkpt lat="43.096364" lon="-1.753478">
        <ele>553.894</ele>
        <time>2021-06-11T11:04:28Z</time>
      </trkpt>
      <trkpt lat="43.096298" lon="-1.753497">
        <ele>553.343</ele>
        <time>2021-06-11T11:04:29Z</time>
      </trkpt>
      <trkpt lat="43.096028" lon="-1.753553">
        <ele>552.478</ele>
        <time>2021-06-11T11:04:33Z</time>
      </trkpt>
      <trkpt lat="43.095962" lon="-1.753547">
        <ele>552.451</ele>
        <time>2021-06-11T11:04:34Z</time>
      </trkpt>
      <trkpt lat="43.095896" lon="-1.753532">
        <ele>552.401</ele>
        <time>2021-06-11T11:04:35Z</time>
      </trkpt>
      <trkpt lat="43.095831" lon="-1.753503">
        <ele>551.911</ele>
        <time>2021-06-11T11:04:36Z</time>
      </trkpt>
      <trkpt lat="43.095769" lon="-1.753467">
        <ele>551.908</ele>
        <time>2021-06-11T11:04:37Z</time>
      </trkpt>
      <trkpt lat="43.095705" lon="-1.753425">
        <ele>551.972</ele>
        <time>2021-06-11T11:04:38Z</time>
      </trkpt>
      <trkpt lat="43.095526" lon="-1.753306">
        <ele>551.410</ele>
        <time>2021-06-11T11:04:41Z</time>
      </trkpt>
      <trkpt lat="43.095178" lon="-1.753128">
        <ele>550.490</ele>
        <time>2021-06-11T11:04:47Z</time>
      </trkpt>
      <trkpt lat="43.095119" lon="-1.753120">
        <ele>550.088</ele>
        <time>2021-06-11T11:04:48Z</time>
      </trkpt>
      <trkpt lat="43.095062" lon="-1.753123">
        <ele>549.546</ele>
        <time>2021-06-11T11:04:49Z</time>
      </trkpt>
      <trkpt lat="43.094999" lon="-1.753138">
        <ele>549.071</ele>
        <time>2021-06-11T11:04:50Z</time>
      </trkpt>
      <trkpt lat="43.094936" lon="-1.753165">
        <ele>548.540</ele>
        <time>2021-06-11T11:04:51Z</time>
      </trkpt>
      <trkpt lat="43.094866" lon="-1.753201">
        <ele>547.645</ele>
        <time>2021-06-11T11:04:52Z</time>
      </trkpt>
      <trkpt lat="43.094378" lon="-1.753484">
        <ele>542.359</ele>
        <time>2021-06-11T11:04:58Z</time>
      </trkpt>
      <trkpt lat="43.094295" lon="-1.753569">
        <ele>541.303</ele>
        <time>2021-06-11T11:04:59Z</time>
      </trkpt>
      <trkpt lat="43.094210" lon="-1.753672">
        <ele>540.423</ele>
        <time>2021-06-11T11:05:00Z</time>
      </trkpt>
      <trkpt lat="43.094132" lon="-1.753784">
        <ele>539.908</ele>
        <time>2021-06-11T11:05:01Z</time>
      </trkpt>
      <trkpt lat="43.094059" lon="-1.753905">
        <ele>538.972</ele>
        <time>2021-06-11T11:05:02Z</time>
      </trkpt>
      <trkpt lat="43.093986" lon="-1.754041">
        <ele>537.930</ele>
        <time>2021-06-11T11:05:03Z</time>
      </trkpt>
      <trkpt lat="43.093920" lon="-1.754177">
        <ele>537.030</ele>
        <time>2021-06-11T11:05:04Z</time>
      </trkpt>
      <trkpt lat="43.093469" lon="-1.755156">
        <ele>531.298</ele>
        <time>2021-06-11T11:05:11Z</time>
      </trkpt>
      <trkpt lat="43.093363" lon="-1.755385">
        <ele>529.316</ele>
        <time>2021-06-11T11:05:13Z</time>
      </trkpt>
      <trkpt lat="43.093306" lon="-1.755472">
        <ele>528.831</ele>
        <time>2021-06-11T11:05:14Z</time>
      </trkpt>
      <trkpt lat="43.093234" lon="-1.755544">
        <ele>528.320</ele>
        <time>2021-06-11T11:05:15Z</time>
      </trkpt>
      <trkpt lat="43.093157" lon="-1.755586">
        <ele>527.935</ele>
        <time>2021-06-11T11:05:16Z</time>
      </trkpt>
      <trkpt lat="43.093063" lon="-1.755609">
        <ele>526.962</ele>
        <time>2021-06-11T11:05:17Z</time>
      </trkpt>
      <trkpt lat="43.092981" lon="-1.755619">
        <ele>526.483</ele>
        <time>2021-06-11T11:05:18Z</time>
      </trkpt>
      <trkpt lat="43.092882" lon="-1.755637">
        <ele>525.511</ele>
        <time>2021-06-11T11:05:19Z</time>
      </trkpt>
      <trkpt lat="43.092792" lon="-1.755668">
        <ele>525.008</ele>
        <time>2021-06-11T11:05:20Z</time>
      </trkpt>
      <trkpt lat="43.092691" lon="-1.755719">
        <ele>524.013</ele>
        <time>2021-06-11T11:05:21Z</time>
      </trkpt>
      <trkpt lat="43.092602" lon="-1.755788">
        <ele>522.681</ele>
        <time>2021-06-11T11:05:22Z</time>
      </trkpt>
      <trkpt lat="43.092517" lon="-1.755878">
        <ele>521.641</ele>
        <time>2021-06-11T11:05:23Z</time>
      </trkpt>
      <trkpt lat="43.092432" lon="-1.755981">
        <ele>520.669</ele>
        <time>2021-06-11T11:05:24Z</time>
      </trkpt>
      <trkpt lat="43.091855" lon="-1.756719">
        <ele>513.457</ele>
        <time>2021-06-11T11:05:31Z</time>
      </trkpt>
      <trkpt lat="43.091347" lon="-1.757440">
        <ele>507.792</ele>
        <time>2021-06-11T11:05:37Z</time>
      </trkpt>
      <trkpt lat="43.091171" lon="-1.757877">
        <ele>504.851</ele>
        <time>2021-06-11T11:05:40Z</time>
      </trkpt>
      <trkpt lat="43.091142" lon="-1.758016">
        <ele>504.356</ele>
        <time>2021-06-11T11:05:41Z</time>
      </trkpt>
      <trkpt lat="43.091127" lon="-1.758176">
        <ele>503.378</ele>
        <time>2021-06-11T11:05:42Z</time>
      </trkpt>
      <trkpt lat="43.091110" lon="-1.758874">
        <ele>500.033</ele>
        <time>2021-06-11T11:05:47Z</time>
      </trkpt>
      <trkpt lat="43.091091" lon="-1.758978">
        <ele>499.526</ele>
        <time>2021-06-11T11:05:48Z</time>
      </trkpt>
      <trkpt lat="43.091054" lon="-1.759063">
        <ele>499.008</ele>
        <time>2021-06-11T11:05:49Z</time>
      </trkpt>
      <trkpt lat="43.090993" lon="-1.759137">
        <ele>498.564</ele>
        <time>2021-06-11T11:05:50Z</time>
      </trkpt>
      <trkpt lat="43.090929" lon="-1.759178">
        <ele>498.182</ele>
        <time>2021-06-11T11:05:51Z</time>
      </trkpt>
      <trkpt lat="43.090849" lon="-1.759205">
        <ele>497.692</ele>
        <time>2021-06-11T11:05:52Z</time>
      </trkpt>
      <trkpt lat="43.090773" lon="-1.759211">
        <ele>497.160</ele>
        <time>2021-06-11T11:05:53Z</time>
      </trkpt>
      <trkpt lat="43.090698" lon="-1.759203">
        <ele>496.668</ele>
        <time>2021-06-11T11:05:54Z</time>
      </trkpt>
      <trkpt lat="43.090613" lon="-1.759194">
        <ele>496.143</ele>
        <time>2021-06-11T11:05:55Z</time>
      </trkpt>
      <trkpt lat="43.090530" lon="-1.759200">
        <ele>495.752</ele>
        <time>2021-06-11T11:05:56Z</time>
      </trkpt>
      <trkpt lat="43.090458" lon="-1.759226">
        <ele>495.237</ele>
        <time>2021-06-11T11:05:57Z</time>
      </trkpt>
      <trkpt lat="43.090375" lon="-1.759285">
        <ele>494.293</ele>
        <time>2021-06-11T11:05:58Z</time>
      </trkpt>
      <trkpt lat="43.090309" lon="-1.759354">
        <ele>493.765</ele>
        <time>2021-06-11T11:05:59Z</time>
      </trkpt>
      <trkpt lat="43.090235" lon="-1.759445">
        <ele>492.821</ele>
        <time>2021-06-11T11:06:00Z</time>
      </trkpt>
      <trkpt lat="43.089865" lon="-1.759902">
        <ele>488.408</ele>
        <time>2021-06-11T11:06:05Z</time>
      </trkpt>
      <trkpt lat="43.089785" lon="-1.759957">
        <ele>487.596</ele>
        <time>2021-06-11T11:06:06Z</time>
      </trkpt>
      <trkpt lat="43.089716" lon="-1.759979">
        <ele>487.544</ele>
        <time>2021-06-11T11:06:07Z</time>
      </trkpt>
      <trkpt lat="43.089638" lon="-1.759967">
        <ele>487.094</ele>
        <time>2021-06-11T11:06:08Z</time>
      </trkpt>
      <trkpt lat="43.089568" lon="-1.759929">
        <ele>487.042</ele>
        <time>2021-06-11T11:06:09Z</time>
      </trkpt>
      <trkpt lat="43.089494" lon="-1.759876">
        <ele>487.070</ele>
        <time>2021-06-11T11:06:10Z</time>
      </trkpt>
      <trkpt lat="43.089435" lon="-1.759824">
        <ele>487.015</ele>
        <time>2021-06-11T11:06:11Z</time>
      </trkpt>
      <trkpt lat="43.089378" lon="-1.759740">
        <ele>486.534</ele>
        <time>2021-06-11T11:06:12Z</time>
      </trkpt>
      <trkpt lat="43.089346" lon="-1.759648">
        <ele>486.519</ele>
        <time>2021-06-11T11:06:13Z</time>
      </trkpt>
      <trkpt lat="43.089324" lon="-1.759539">
        <ele>486.574</ele>
        <time>2021-06-11T11:06:14Z</time>
      </trkpt>
      <trkpt lat="43.089312" lon="-1.759437">
        <ele>486.556</ele>
        <time>2021-06-11T11:06:15Z</time>
      </trkpt>
      <trkpt lat="43.089302" lon="-1.759314">
        <ele>486.521</ele>
        <time>2021-06-11T11:06:16Z</time>
      </trkpt>
      <trkpt lat="43.089296" lon="-1.759200">
        <ele>486.508</ele>
        <time>2021-06-11T11:06:17Z</time>
      </trkpt>
      <trkpt lat="43.089303" lon="-1.758317">
        <ele>486.024</ele>
        <time>2021-06-11T11:06:25Z</time>
      </trkpt>
      <trkpt lat="43.089308" lon="-1.758102">
        <ele>485.692</ele>
        <time>2021-06-11T11:06:27Z</time>
      </trkpt>
      <trkpt lat="43.089282" lon="-1.757977">
        <ele>485.122</ele>
        <time>2021-06-11T11:06:28Z</time>
      </trkpt>
      <trkpt lat="43.089239" lon="-1.757887">
        <ele>485.180</ele>
        <time>2021-06-11T11:06:29Z</time>
      </trkpt>
      <trkpt lat="43.089168" lon="-1.757796">
        <ele>484.618</ele>
        <time>2021-06-11T11:06:30Z</time>
      </trkpt>
      <trkpt lat="43.089102" lon="-1.757745">
        <ele>484.123</ele>
        <time>2021-06-11T11:06:31Z</time>
      </trkpt>
      <trkpt lat="43.089016" lon="-1.757710">
        <ele>483.642</ele>
        <time>2021-06-11T11:06:32Z</time>
      </trkpt>
      <trkpt lat="43.088942" lon="-1.757703">
        <ele>483.617</ele>
        <time>2021-06-11T11:06:33Z</time>
      </trkpt>
      <trkpt lat="43.088853" lon="-1.757713">
        <ele>483.689</ele>
        <time>2021-06-11T11:06:34Z</time>
      </trkpt>
      <trkpt lat="43.088783" lon="-1.757721">
        <ele>483.606</ele>
        <time>2021-06-11T11:06:35Z</time>
      </trkpt>
      <trkpt lat="43.088699" lon="-1.757714">
        <ele>483.626</ele>
        <time>2021-06-11T11:06:36Z</time>
      </trkpt>
      <trkpt lat="43.088629" lon="-1.757686">
        <ele>483.608</ele>
        <time>2021-06-11T11:06:37Z</time>
      </trkpt>
      <trkpt lat="43.088569" lon="-1.757637">
        <ele>483.675</ele>
        <time>2021-06-11T11:06:38Z</time>
      </trkpt>
      <trkpt lat="43.088526" lon="-1.757572">
        <ele>483.673</ele>
        <time>2021-06-11T11:06:39Z</time>
      </trkpt>
      <trkpt lat="43.088495" lon="-1.757482">
        <ele>483.613</ele>
        <time>2021-06-11T11:06:40Z</time>
      </trkpt>
      <trkpt lat="43.088484" lon="-1.757402">
        <ele>483.681</ele>
        <time>2021-06-11T11:06:41Z</time>
      </trkpt>
      <trkpt lat="43.088475" lon="-1.757306">
        <ele>483.639</ele>
        <time>2021-06-11T11:06:42Z</time>
      </trkpt>
      <trkpt lat="43.088471" lon="-1.756663">
        <ele>482.244</ele>
        <time>2021-06-11T11:06:49Z</time>
      </trkpt>
      <trkpt lat="43.088564" lon="-1.756055">
        <ele>479.843</ele>
        <time>2021-06-11T11:06:55Z</time>
      </trkpt>
      <trkpt lat="43.088563" lon="-1.755970">
        <ele>479.328</ele>
        <time>2021-06-11T11:06:56Z</time>
      </trkpt>
      <trkpt lat="43.088538" lon="-1.755867">
        <ele>478.886</ele>
        <time>2021-06-11T11:06:57Z</time>
      </trkpt>
      <trkpt lat="43.088502" lon="-1.755793">
        <ele>478.360</ele>
        <time>2021-06-11T11:06:58Z</time>
      </trkpt>
      <trkpt lat="43.088442" lon="-1.755729">
        <ele>477.926</ele>
        <time>2021-06-11T11:06:59Z</time>
      </trkpt>
      <trkpt lat="43.088382" lon="-1.755698">
        <ele>477.408</ele>
        <time>2021-06-11T11:07:00Z</time>
      </trkpt>
      <trkpt lat="43.088314" lon="-1.755686">
        <ele>476.995</ele>
        <time>2021-06-11T11:07:01Z</time>
      </trkpt>
      <trkpt lat="43.088245" lon="-1.755686">
        <ele>475.923</ele>
        <time>2021-06-11T11:07:02Z</time>
      </trkpt>
      <trkpt lat="43.087819" lon="-1.755664">
        <ele>472.183</ele>
        <time>2021-06-11T11:07:09Z</time>
      </trkpt>
      <trkpt lat="43.087736" lon="-1.755661">
        <ele>470.761</ele>
        <time>2021-06-11T11:07:13Z</time>
      </trkpt>
      <trkpt lat="43.087750" lon="-1.755657">
        <ele>471.119</ele>
        <time>2021-06-11T11:07:22Z</time>
      </trkpt>
      <trkpt lat="43.087753" lon="-1.755656">
        <ele>471.614</ele>
        <time>2021-06-11T11:07:38Z</time>
      </trkpt>
      <trkpt lat="43.087748" lon="-1.755653">
        <ele>471.163</ele>
        <time>2021-06-11T11:07:48Z</time>
      </trkpt>
      <trkpt lat="43.087749" lon="-1.755662">
        <ele>470.238</ele>
        <time>2021-06-11T11:08:03Z</time>
      </trkpt>
      <trkpt lat="43.087682" lon="-1.755653">
        <ele>469.751</ele>
        <time>2021-06-11T11:08:08Z</time>
      </trkpt>
      <trkpt lat="43.087547" lon="-1.755667">
        <ele>468.301</ele>
        <time>2021-06-11T11:08:12Z</time>
      </trkpt>
      <trkpt lat="43.087503" lon="-1.755688">
        <ele>467.811</ele>
        <time>2021-06-11T11:08:13Z</time>
      </trkpt>
      <trkpt lat="43.087458" lon="-1.755716">
        <ele>467.308</ele>
        <time>2021-06-11T11:08:14Z</time>
      </trkpt>
      <trkpt lat="43.087113" lon="-1.755978">
        <ele>464.492</ele>
        <time>2021-06-11T11:08:20Z</time>
      </trkpt>
      <trkpt lat="43.086714" lon="-1.756284">
        <ele>459.630</ele>
        <time>2021-06-11T11:08:25Z</time>
      </trkpt>
      <trkpt lat="43.086382" lon="-1.756546">
        <ele>456.210</ele>
        <time>2021-06-11T11:08:29Z</time>
      </trkpt>
      <trkpt lat="43.086309" lon="-1.756582">
        <ele>455.318</ele>
        <time>2021-06-11T11:08:30Z</time>
      </trkpt>
      <trkpt lat="43.086241" lon="-1.756596">
        <ele>454.876</ele>
        <time>2021-06-11T11:08:31Z</time>
      </trkpt>
      <trkpt lat="43.086170" lon="-1.756586">
        <ele>454.351</ele>
        <time>2021-06-11T11:08:32Z</time>
      </trkpt>
      <trkpt lat="43.086120" lon="-1.756553">
        <ele>453.870</ele>
        <time>2021-06-11T11:08:33Z</time>
      </trkpt>
      <trkpt lat="43.086077" lon="-1.756490">
        <ele>453.485</ele>
        <time>2021-06-11T11:08:34Z</time>
      </trkpt>
      <trkpt lat="43.086056" lon="-1.756414">
        <ele>453.475</ele>
        <time>2021-06-11T11:08:35Z</time>
      </trkpt>
      <trkpt lat="43.086053" lon="-1.756318">
        <ele>452.928</ele>
        <time>2021-06-11T11:08:36Z</time>
      </trkpt>
      <trkpt lat="43.086065" lon="-1.756220">
        <ele>452.420</ele>
        <time>2021-06-11T11:08:37Z</time>
      </trkpt>
      <trkpt lat="43.086085" lon="-1.756116">
        <ele>451.908</ele>
        <time>2021-06-11T11:08:38Z</time>
      </trkpt>
      <trkpt lat="43.086108" lon="-1.756001">
        <ele>451.494</ele>
        <time>2021-06-11T11:08:39Z</time>
      </trkpt>
      <trkpt lat="43.086287" lon="-1.755248">
        <ele>447.192</ele>
        <time>2021-06-11T11:08:45Z</time>
      </trkpt>
      <trkpt lat="43.086424" lon="-1.754752">
        <ele>444.232</ele>
        <time>2021-06-11T11:08:49Z</time>
      </trkpt>
      <trkpt lat="43.086441" lon="-1.754622">
        <ele>443.720</ele>
        <time>2021-06-11T11:08:50Z</time>
      </trkpt>
      <trkpt lat="43.086446" lon="-1.754494">
        <ele>443.358</ele>
        <time>2021-06-11T11:08:51Z</time>
      </trkpt>
      <trkpt lat="43.086443" lon="-1.754357">
        <ele>442.353</ele>
        <time>2021-06-11T11:08:52Z</time>
      </trkpt>
      <trkpt lat="43.086438" lon="-1.754228">
        <ele>441.862</ele>
        <time>2021-06-11T11:08:53Z</time>
      </trkpt>
      <trkpt lat="43.086379" lon="-1.753333">
        <ele>438.977</ele>
        <time>2021-06-11T11:09:00Z</time>
      </trkpt>
      <trkpt lat="43.086349" lon="-1.753222">
        <ele>438.557</ele>
        <time>2021-06-11T11:09:01Z</time>
      </trkpt>
      <trkpt lat="43.086313" lon="-1.753128">
        <ele>438.500</ele>
        <time>2021-06-11T11:09:02Z</time>
      </trkpt>
      <trkpt lat="43.086228" lon="-1.752922">
        <ele>437.520</ele>
        <time>2021-06-11T11:09:04Z</time>
      </trkpt>
      <trkpt lat="43.086200" lon="-1.752818">
        <ele>437.008</ele>
        <time>2021-06-11T11:09:05Z</time>
      </trkpt>
      <trkpt lat="43.086181" lon="-1.752708">
        <ele>437.042</ele>
        <time>2021-06-11T11:09:06Z</time>
      </trkpt>
      <trkpt lat="43.086137" lon="-1.752046">
        <ele>434.180</ele>
        <time>2021-06-11T11:09:12Z</time>
      </trkpt>
      <trkpt lat="43.086103" lon="-1.751756">
        <ele>433.270</ele>
        <time>2021-06-11T11:09:15Z</time>
      </trkpt>
      <trkpt lat="43.086078" lon="-1.751669">
        <ele>432.748</ele>
        <time>2021-06-11T11:09:16Z</time>
      </trkpt>
      <trkpt lat="43.085866" lon="-1.751117">
        <ele>430.336</ele>
        <time>2021-06-11T11:09:23Z</time>
      </trkpt>
      <trkpt lat="43.085775" lon="-1.750820">
        <ele>428.491</ele>
        <time>2021-06-11T11:09:27Z</time>
      </trkpt>
      <trkpt lat="43.085762" lon="-1.750725">
        <ele>427.450</ele>
        <time>2021-06-11T11:09:28Z</time>
      </trkpt>
      <trkpt lat="43.085754" lon="-1.750616">
        <ele>426.945</ele>
        <time>2021-06-11T11:09:29Z</time>
      </trkpt>
      <trkpt lat="43.085751" lon="-1.750509">
        <ele>426.432</ele>
        <time>2021-06-11T11:09:30Z</time>
      </trkpt>
      <trkpt lat="43.085750" lon="-1.750411">
        <ele>426.092</ele>
        <time>2021-06-11T11:09:31Z</time>
      </trkpt>
      <trkpt lat="43.085757" lon="-1.749896">
        <ele>424.511</ele>
        <time>2021-06-11T11:09:37Z</time>
      </trkpt>
      <trkpt lat="43.085728" lon="-1.749647">
        <ele>424.508</ele>
        <time>2021-06-11T11:09:42Z</time>
      </trkpt>
      <trkpt lat="43.085656" lon="-1.749454">
        <ele>426.020</ele>
        <time>2021-06-11T11:09:49Z</time>
      </trkpt>
      <trkpt lat="43.085551" lon="-1.749248">
        <ele>429.398</ele>
        <time>2021-06-11T11:09:57Z</time>
      </trkpt>
      <trkpt lat="43.085493" lon="-1.748996">
        <ele>431.798</ele>
        <time>2021-06-11T11:10:06Z</time>
      </trkpt>
      <trkpt lat="43.085544" lon="-1.748813">
        <ele>433.296</ele>
        <time>2021-06-11T11:10:13Z</time>
      </trkpt>
      <trkpt lat="43.085628" lon="-1.748570">
        <ele>434.134</ele>
        <time>2021-06-11T11:10:22Z</time>
      </trkpt>
      <trkpt lat="43.085705" lon="-1.748296">
        <ele>434.689</ele>
        <time>2021-06-11T11:10:32Z</time>
      </trkpt>
      <trkpt lat="43.085756" lon="-1.748067">
        <ele>434.638</ele>
        <time>2021-06-11T11:10:40Z</time>
      </trkpt>
      <trkpt lat="43.085794" lon="-1.747831">
        <ele>435.143</ele>
        <time>2021-06-11T11:10:48Z</time>
      </trkpt>
      <trkpt lat="43.085821" lon="-1.747576">
        <ele>435.184</ele>
        <time>2021-06-11T11:10:56Z</time>
      </trkpt>
      <trkpt lat="43.085769" lon="-1.747317">
        <ele>435.107</ele>
        <time>2021-06-11T11:11:04Z</time>
      </trkpt>
      <trkpt lat="43.085713" lon="-1.746961">
        <ele>433.617</ele>
        <time>2021-06-11T11:11:11Z</time>
      </trkpt>
      <trkpt lat="43.085697" lon="-1.746720">
        <ele>432.208</ele>
        <time>2021-06-11T11:11:14Z</time>
      </trkpt>
      <trkpt lat="43.085665" lon="-1.746528">
        <ele>431.225</ele>
        <time>2021-06-11T11:11:16Z</time>
      </trkpt>
      <trkpt lat="43.085636" lon="-1.746433">
        <ele>430.873</ele>
        <time>2021-06-11T11:11:17Z</time>
      </trkpt>
      <trkpt lat="43.085603" lon="-1.746337">
        <ele>430.343</ele>
        <time>2021-06-11T11:11:18Z</time>
      </trkpt>
      <trkpt lat="43.085583" lon="-1.746249">
        <ele>429.851</ele>
        <time>2021-06-11T11:11:19Z</time>
      </trkpt>
      <trkpt lat="43.085579" lon="-1.746164">
        <ele>429.319</ele>
        <time>2021-06-11T11:11:20Z</time>
      </trkpt>
      <trkpt lat="43.085595" lon="-1.746082">
        <ele>428.434</ele>
        <time>2021-06-11T11:11:21Z</time>
      </trkpt>
      <trkpt lat="43.085632" lon="-1.746006">
        <ele>428.423</ele>
        <time>2021-06-11T11:11:22Z</time>
      </trkpt>
      <trkpt lat="43.085672" lon="-1.745949">
        <ele>427.998</ele>
        <time>2021-06-11T11:11:23Z</time>
      </trkpt>
      <trkpt lat="43.085718" lon="-1.745897">
        <ele>427.464</ele>
        <time>2021-06-11T11:11:24Z</time>
      </trkpt>
      <trkpt lat="43.086025" lon="-1.745568">
        <ele>427.906</ele>
        <time>2021-06-11T11:11:32Z</time>
      </trkpt>
      <trkpt lat="43.086230" lon="-1.745348">
        <ele>428.816</ele>
        <time>2021-06-11T11:11:39Z</time>
      </trkpt>
      <trkpt lat="43.086408" lon="-1.745003">
        <ele>427.908</ele>
        <time>2021-06-11T11:11:47Z</time>
      </trkpt>
      <trkpt lat="43.086587" lon="-1.744637">
        <ele>426.933</ele>
        <time>2021-06-11T11:11:53Z</time>
      </trkpt>
      <trkpt lat="43.086626" lon="-1.744590">
        <ele>426.961</ele>
        <time>2021-06-11T11:11:54Z</time>
      </trkpt>
      <trkpt lat="43.086671" lon="-1.744552">
        <ele>427.431</ele>
        <time>2021-06-11T11:11:55Z</time>
      </trkpt>
      <trkpt lat="43.086715" lon="-1.744530">
        <ele>427.419</ele>
        <time>2021-06-11T11:11:56Z</time>
      </trkpt>
      <trkpt lat="43.086759" lon="-1.744519">
        <ele>427.457</ele>
        <time>2021-06-11T11:11:57Z</time>
      </trkpt>
      <trkpt lat="43.086800" lon="-1.744520">
        <ele>427.472</ele>
        <time>2021-06-11T11:11:58Z</time>
      </trkpt>
      <trkpt lat="43.086834" lon="-1.744536">
        <ele>427.931</ele>
        <time>2021-06-11T11:11:59Z</time>
      </trkpt>
      <trkpt lat="43.086862" lon="-1.744558">
        <ele>427.966</ele>
        <time>2021-06-11T11:12:00Z</time>
      </trkpt>
      <trkpt lat="43.086885" lon="-1.744580">
        <ele>428.495</ele>
        <time>2021-06-11T11:12:01Z</time>
      </trkpt>
      <trkpt lat="43.086907" lon="-1.744603">
        <ele>428.849</ele>
        <time>2021-06-11T11:12:02Z</time>
      </trkpt>
      <trkpt lat="43.086973" lon="-1.744671">
        <ele>429.323</ele>
        <time>2021-06-11T11:12:07Z</time>
      </trkpt>
      <trkpt lat="43.087061" lon="-1.744769">
        <ele>429.808</ele>
        <time>2021-06-11T11:12:13Z</time>
      </trkpt>
      <trkpt lat="43.087206" lon="-1.744903">
        <ele>431.716</ele>
        <time>2021-06-11T11:12:22Z</time>
      </trkpt>
      <trkpt lat="43.087296" lon="-1.744978">
        <ele>432.264</ele>
        <time>2021-06-11T11:12:28Z</time>
      </trkpt>
      <trkpt lat="43.087400" lon="-1.745021">
        <ele>433.234</ele>
        <time>2021-06-11T11:12:35Z</time>
      </trkpt>
      <trkpt lat="43.087417" lon="-1.745011">
        <ele>433.632</ele>
        <time>2021-06-11T11:12:36Z</time>
      </trkpt>
      <trkpt lat="43.087426" lon="-1.744997">
        <ele>434.120</ele>
        <time>2021-06-11T11:12:37Z</time>
      </trkpt>
      <trkpt lat="43.087430" lon="-1.744978">
        <ele>434.115</ele>
        <time>2021-06-11T11:12:38Z</time>
      </trkpt>
      <trkpt lat="43.087428" lon="-1.744957">
        <ele>434.174</ele>
        <time>2021-06-11T11:12:39Z</time>
      </trkpt>
      <trkpt lat="43.087421" lon="-1.744935">
        <ele>434.189</ele>
        <time>2021-06-11T11:12:40Z</time>
      </trkpt>
      <trkpt lat="43.087411" lon="-1.744912">
        <ele>434.629</ele>
        <time>2021-06-11T11:12:41Z</time>
      </trkpt>
      <trkpt lat="43.087397" lon="-1.744893">
        <ele>434.600</ele>
        <time>2021-06-11T11:12:42Z</time>
      </trkpt>
      <trkpt lat="43.087384" lon="-1.744874">
        <ele>434.620</ele>
        <time>2021-06-11T11:12:43Z</time>
      </trkpt>
      <trkpt lat="43.087370" lon="-1.744857">
        <ele>434.608</ele>
        <time>2021-06-11T11:12:44Z</time>
      </trkpt>
      <trkpt lat="43.087356" lon="-1.744842">
        <ele>434.689</ele>
        <time>2021-06-11T11:12:45Z</time>
      </trkpt>
      <trkpt lat="43.087342" lon="-1.744827">
        <ele>434.627</ele>
        <time>2021-06-11T11:12:46Z</time>
      </trkpt>
      <trkpt lat="43.087213" lon="-1.744670">
        <ele>434.137</ele>
        <time>2021-06-11T11:12:55Z</time>
      </trkpt>
      <trkpt lat="43.087126" lon="-1.744491">
        <ele>434.635</ele>
        <time>2021-06-11T11:13:03Z</time>
      </trkpt>
      <trkpt lat="43.087071" lon="-1.744299">
        <ele>435.133</ele>
        <time>2021-06-11T11:13:11Z</time>
      </trkpt>
      <trkpt lat="43.087045" lon="-1.744093">
        <ele>435.668</ele>
        <time>2021-06-11T11:13:19Z</time>
      </trkpt>
      <trkpt lat="43.087023" lon="-1.743890">
        <ele>436.557</ele>
        <time>2021-06-11T11:13:27Z</time>
      </trkpt>
      <trkpt lat="43.087009" lon="-1.743741">
        <ele>438.082</ele>
        <time>2021-06-11T11:13:34Z</time>
      </trkpt>
      <trkpt lat="43.086988" lon="-1.743572">
        <ele>439.965</ele>
        <time>2021-06-11T11:13:41Z</time>
      </trkpt>
      <trkpt lat="43.086960" lon="-1.743340">
        <ele>439.468</ele>
        <time>2021-06-11T11:13:51Z</time>
      </trkpt>
      <trkpt lat="43.086914" lon="-1.743154">
        <ele>440.414</ele>
        <time>2021-06-11T11:13:59Z</time>
      </trkpt>
      <trkpt lat="43.086912" lon="-1.743136">
        <ele>441.808</ele>
        <time>2021-06-11T11:14:05Z</time>
      </trkpt>
      <trkpt lat="43.086927" lon="-1.743124">
        <ele>441.853</ele>
        <time>2021-06-11T11:14:17Z</time>
      </trkpt>
      <trkpt lat="43.086919" lon="-1.743093">
        <ele>441.381</ele>
        <time>2021-06-11T11:14:30Z</time>
      </trkpt>
      <trkpt lat="43.086903" lon="-1.743058">
        <ele>441.321</ele>
        <time>2021-06-11T11:14:36Z</time>
      </trkpt>
      <trkpt lat="43.086899" lon="-1.743044">
        <ele>441.329</ele>
        <time>2021-06-11T11:14:37Z</time>
      </trkpt>
      <trkpt lat="43.086893" lon="-1.743033">
        <ele>441.397</ele>
        <time>2021-06-11T11:14:38Z</time>
      </trkpt>
      <trkpt lat="43.086885" lon="-1.743022">
        <ele>441.322</ele>
        <time>2021-06-11T11:14:39Z</time>
      </trkpt>
      <trkpt lat="43.086875" lon="-1.743009">
        <ele>441.851</ele>
        <time>2021-06-11T11:14:40Z</time>
      </trkpt>
      <trkpt lat="43.086865" lon="-1.742996">
        <ele>441.816</ele>
        <time>2021-06-11T11:14:41Z</time>
      </trkpt>
      <trkpt lat="43.086854" lon="-1.742983">
        <ele>442.364</ele>
        <time>2021-06-11T11:14:42Z</time>
      </trkpt>
      <trkpt lat="43.086804" lon="-1.742863">
        <ele>442.306</ele>
        <time>2021-06-11T11:14:49Z</time>
      </trkpt>
      <trkpt lat="43.086771" lon="-1.742747">
        <ele>442.316</ele>
        <time>2021-06-11T11:14:55Z</time>
      </trkpt>
      <trkpt lat="43.086735" lon="-1.742560">
        <ele>443.708</ele>
        <time>2021-06-11T11:15:04Z</time>
      </trkpt>
      <trkpt lat="43.086728" lon="-1.742389">
        <ele>443.333</ele>
        <time>2021-06-11T11:15:12Z</time>
      </trkpt>
      <trkpt lat="43.086744" lon="-1.742231">
        <ele>444.291</ele>
        <time>2021-06-11T11:15:20Z</time>
      </trkpt>
      <trkpt lat="43.086739" lon="-1.742055">
        <ele>447.121</ele>
        <time>2021-06-11T11:15:28Z</time>
      </trkpt>
      <trkpt lat="43.086733" lon="-1.741983">
        <ele>448.129</ele>
        <time>2021-06-11T11:15:31Z</time>
      </trkpt>
      <trkpt lat="43.086727" lon="-1.741960">
        <ele>448.147</ele>
        <time>2021-06-11T11:15:32Z</time>
      </trkpt>
      <trkpt lat="43.086727" lon="-1.741933">
        <ele>448.152</ele>
        <time>2021-06-11T11:15:33Z</time>
      </trkpt>
      <trkpt lat="43.086668" lon="-1.741632">
        <ele>448.511</ele>
        <time>2021-06-11T11:15:43Z</time>
      </trkpt>
      <trkpt lat="43.086580" lon="-1.741288">
        <ele>450.056</ele>
        <time>2021-06-11T11:15:53Z</time>
      </trkpt>
      <trkpt lat="43.086539" lon="-1.741046">
        <ele>449.076</ele>
        <time>2021-06-11T11:15:59Z</time>
      </trkpt>
      <trkpt lat="43.086470" lon="-1.740684">
        <ele>449.590</ele>
        <time>2021-06-11T11:16:07Z</time>
      </trkpt>
      <trkpt lat="43.086407" lon="-1.740388">
        <ele>449.019</ele>
        <time>2021-06-11T11:16:15Z</time>
      </trkpt>
      <trkpt lat="43.086435" lon="-1.740098">
        <ele>448.508</ele>
        <time>2021-06-11T11:16:22Z</time>
      </trkpt>
      <trkpt lat="43.086517" lon="-1.739816">
        <ele>447.654</ele>
        <time>2021-06-11T11:16:28Z</time>
      </trkpt>
      <trkpt lat="43.086534" lon="-1.739764">
        <ele>447.152</ele>
        <time>2021-06-11T11:16:29Z</time>
      </trkpt>
      <trkpt lat="43.086553" lon="-1.739715">
        <ele>447.152</ele>
        <time>2021-06-11T11:16:30Z</time>
      </trkpt>
      <trkpt lat="43.086765" lon="-1.739338">
        <ele>446.140</ele>
        <time>2021-06-11T11:16:38Z</time>
      </trkpt>
      <trkpt lat="43.086919" lon="-1.739067">
        <ele>445.728</ele>
        <time>2021-06-11T11:16:45Z</time>
      </trkpt>
      <trkpt lat="43.086971" lon="-1.738796">
        <ele>445.253</ele>
        <time>2021-06-11T11:16:52Z</time>
      </trkpt>
      <trkpt lat="43.086908" lon="-1.738477">
        <ele>446.162</ele>
        <time>2021-06-11T11:16:59Z</time>
      </trkpt>
      <trkpt lat="43.086733" lon="-1.738072">
        <ele>447.627</ele>
        <time>2021-06-11T11:17:09Z</time>
      </trkpt>
      <trkpt lat="43.086657" lon="-1.737787">
        <ele>449.045</ele>
        <time>2021-06-11T11:17:17Z</time>
      </trkpt>
      <trkpt lat="43.086753" lon="-1.737594">
        <ele>450.547</ele>
        <time>2021-06-11T11:17:24Z</time>
      </trkpt>
      <trkpt lat="43.086880" lon="-1.737430">
        <ele>451.911</ele>
        <time>2021-06-11T11:17:32Z</time>
      </trkpt>
      <trkpt lat="43.086946" lon="-1.737346">
        <ele>452.408</ele>
        <time>2021-06-11T11:17:37Z</time>
      </trkpt>
      <trkpt lat="43.086957" lon="-1.737325">
        <ele>452.481</ele>
        <time>2021-06-11T11:17:43Z</time>
      </trkpt>
      <trkpt lat="43.086957" lon="-1.737331">
        <ele>450.529</ele>
        <time>2021-06-11T11:17:52Z</time>
      </trkpt>
      <trkpt lat="43.086955" lon="-1.737337">
        <ele>449.039</ele>
        <time>2021-06-11T11:18:09Z</time>
      </trkpt>
      <trkpt lat="43.086945" lon="-1.737334">
        <ele>449.047</ele>
        <time>2021-06-11T11:18:21Z</time>
      </trkpt>
      <trkpt lat="43.086933" lon="-1.737337">
        <ele>449.575</ele>
        <time>2021-06-11T11:18:36Z</time>
      </trkpt>
      <trkpt lat="43.086953" lon="-1.737329">
        <ele>449.560</ele>
        <time>2021-06-11T11:18:48Z</time>
      </trkpt>
      <trkpt lat="43.086965" lon="-1.737320">
        <ele>449.559</ele>
        <time>2021-06-11T11:18:51Z</time>
      </trkpt>
      <trkpt lat="43.087039" lon="-1.737248">
        <ele>451.094</ele>
        <time>2021-06-11T11:18:57Z</time>
      </trkpt>
      <trkpt lat="43.087191" lon="-1.737059">
        <ele>451.995</ele>
        <time>2021-06-11T11:19:06Z</time>
      </trkpt>
      <trkpt lat="43.087334" lon="-1.736901">
        <ele>453.449</ele>
        <time>2021-06-11T11:19:14Z</time>
      </trkpt>
      <trkpt lat="43.087462" lon="-1.736756">
        <ele>454.823</ele>
        <time>2021-06-11T11:19:22Z</time>
      </trkpt>
      <trkpt lat="43.087602" lon="-1.736592">
        <ele>456.208</ele>
        <time>2021-06-11T11:19:31Z</time>
      </trkpt>
      <trkpt lat="43.087788" lon="-1.736451">
        <ele>457.746</ele>
        <time>2021-06-11T11:19:41Z</time>
      </trkpt>
      <trkpt lat="43.087971" lon="-1.736376">
        <ele>458.234</ele>
        <time>2021-06-11T11:19:50Z</time>
      </trkpt>
      <trkpt lat="43.088131" lon="-1.736235">
        <ele>458.254</ele>
        <time>2021-06-11T11:19:59Z</time>
      </trkpt>
      <trkpt lat="43.088257" lon="-1.736064">
        <ele>458.692</ele>
        <time>2021-06-11T11:20:07Z</time>
      </trkpt>
      <trkpt lat="43.088426" lon="-1.736062">
        <ele>458.240</ele>
        <time>2021-06-11T11:20:14Z</time>
      </trkpt>
      <trkpt lat="43.088551" lon="-1.736233">
        <ele>458.295</ele>
        <time>2021-06-11T11:20:21Z</time>
      </trkpt>
      <trkpt lat="43.088602" lon="-1.736485">
        <ele>458.624</ele>
        <time>2021-06-11T11:20:29Z</time>
      </trkpt>
      <trkpt lat="43.088648" lon="-1.736847">
        <ele>459.679</ele>
        <time>2021-06-11T11:20:39Z</time>
      </trkpt>
      <trkpt lat="43.088763" lon="-1.736974">
        <ele>460.671</ele>
        <time>2021-06-11T11:20:45Z</time>
      </trkpt>
      <trkpt lat="43.088957" lon="-1.737017">
        <ele>461.041</ele>
        <time>2021-06-11T11:20:53Z</time>
      </trkpt>
      <trkpt lat="43.089168" lon="-1.737083">
        <ele>461.015</ele>
        <time>2021-06-11T11:21:02Z</time>
      </trkpt>
      <trkpt lat="43.089321" lon="-1.737303">
        <ele>462.008</ele>
        <time>2021-06-11T11:21:11Z</time>
      </trkpt>
      <trkpt lat="43.089477" lon="-1.737520">
        <ele>462.594</ele>
        <time>2021-06-11T11:21:20Z</time>
      </trkpt>
      <trkpt lat="43.089647" lon="-1.737640">
        <ele>463.472</ele>
        <time>2021-06-11T11:21:28Z</time>
      </trkpt>
      <trkpt lat="43.089798" lon="-1.737686">
        <ele>465.412</ele>
        <time>2021-06-11T11:21:35Z</time>
      </trkpt>
      <trkpt lat="43.090016" lon="-1.737659">
        <ele>467.330</ele>
        <time>2021-06-11T11:21:44Z</time>
      </trkpt>
      <trkpt lat="43.090225" lon="-1.737608">
        <ele>469.278</ele>
        <time>2021-06-11T11:21:53Z</time>
      </trkpt>
      <trkpt lat="43.090424" lon="-1.737545">
        <ele>469.743</ele>
        <time>2021-06-11T11:22:02Z</time>
      </trkpt>
      <trkpt lat="43.090616" lon="-1.737595">
        <ele>469.232</ele>
        <time>2021-06-11T11:22:09Z</time>
      </trkpt>
      <trkpt lat="43.090895" lon="-1.737756">
        <ele>467.837</ele>
        <time>2021-06-11T11:22:15Z</time>
      </trkpt>
      <trkpt lat="43.090952" lon="-1.737772">
        <ele>467.812</ele>
        <time>2021-06-11T11:22:16Z</time>
      </trkpt>
      <trkpt lat="43.091020" lon="-1.737782">
        <ele>467.332</ele>
        <time>2021-06-11T11:22:17Z</time>
      </trkpt>
      <trkpt lat="43.091083" lon="-1.737779">
        <ele>466.805</ele>
        <time>2021-06-11T11:22:18Z</time>
      </trkpt>
      <trkpt lat="43.091151" lon="-1.737763">
        <ele>466.808</ele>
        <time>2021-06-11T11:22:19Z</time>
      </trkpt>
      <trkpt lat="43.091216" lon="-1.737743">
        <ele>466.318</ele>
        <time>2021-06-11T11:22:20Z</time>
      </trkpt>
      <trkpt lat="43.091504" lon="-1.737632">
        <ele>464.966</ele>
        <time>2021-06-11T11:22:24Z</time>
      </trkpt>
      <trkpt lat="43.091571" lon="-1.737584">
        <ele>464.496</ele>
        <time>2021-06-11T11:22:25Z</time>
      </trkpt>
      <trkpt lat="43.091636" lon="-1.737516">
        <ele>464.474</ele>
        <time>2021-06-11T11:22:26Z</time>
      </trkpt>
      <trkpt lat="43.091695" lon="-1.737437">
        <ele>463.922</ele>
        <time>2021-06-11T11:22:27Z</time>
      </trkpt>
      <trkpt lat="43.091751" lon="-1.737349">
        <ele>463.437</ele>
        <time>2021-06-11T11:22:28Z</time>
      </trkpt>
      <trkpt lat="43.091801" lon="-1.737252">
        <ele>463.096</ele>
        <time>2021-06-11T11:22:29Z</time>
      </trkpt>
      <trkpt lat="43.091840" lon="-1.737145">
        <ele>462.561</ele>
        <time>2021-06-11T11:22:30Z</time>
      </trkpt>
      <trkpt lat="43.091864" lon="-1.737030">
        <ele>462.036</ele>
        <time>2021-06-11T11:22:31Z</time>
      </trkpt>
      <trkpt lat="43.091877" lon="-1.736913">
        <ele>461.517</ele>
        <time>2021-06-11T11:22:32Z</time>
      </trkpt>
      <trkpt lat="43.091886" lon="-1.736798">
        <ele>461.518</ele>
        <time>2021-06-11T11:22:33Z</time>
      </trkpt>
      <trkpt lat="43.091910" lon="-1.736577">
        <ele>461.008</ele>
        <time>2021-06-11T11:22:35Z</time>
      </trkpt>
      <trkpt lat="43.091940" lon="-1.736478">
        <ele>461.070</ele>
        <time>2021-06-11T11:22:36Z</time>
      </trkpt>
      <trkpt lat="43.091986" lon="-1.736396">
        <ele>461.058</ele>
        <time>2021-06-11T11:22:37Z</time>
      </trkpt>
      <trkpt lat="43.092050" lon="-1.736335">
        <ele>460.688</ele>
        <time>2021-06-11T11:22:38Z</time>
      </trkpt>
      <trkpt lat="43.092115" lon="-1.736302">
        <ele>460.696</ele>
        <time>2021-06-11T11:22:39Z</time>
      </trkpt>
      <trkpt lat="43.092187" lon="-1.736283">
        <ele>460.694</ele>
        <time>2021-06-11T11:22:40Z</time>
      </trkpt>
      <trkpt lat="43.092258" lon="-1.736273">
        <ele>460.649</ele>
        <time>2021-06-11T11:22:41Z</time>
      </trkpt>
      <trkpt lat="43.092326" lon="-1.736261">
        <ele>460.638</ele>
        <time>2021-06-11T11:22:42Z</time>
      </trkpt>
      <trkpt lat="43.092391" lon="-1.736235">
        <ele>461.043</ele>
        <time>2021-06-11T11:22:43Z</time>
      </trkpt>
      <trkpt lat="43.092450" lon="-1.736195">
        <ele>461.055</ele>
        <time>2021-06-11T11:22:44Z</time>
      </trkpt>
      <trkpt lat="43.092506" lon="-1.736142">
        <ele>461.007</ele>
        <time>2021-06-11T11:22:45Z</time>
      </trkpt>
      <trkpt lat="43.092553" lon="-1.736089">
        <ele>461.017</ele>
        <time>2021-06-11T11:22:46Z</time>
      </trkpt>
      <trkpt lat="43.092865" lon="-1.735711">
        <ele>461.008</ele>
        <time>2021-06-11T11:22:54Z</time>
      </trkpt>
      <trkpt lat="43.093170" lon="-1.735320">
        <ele>462.512</ele>
        <time>2021-06-11T11:23:04Z</time>
      </trkpt>
      <trkpt lat="43.093291" lon="-1.735138">
        <ele>463.010</ele>
        <time>2021-06-11T11:23:08Z</time>
      </trkpt>
      <trkpt lat="43.093317" lon="-1.735090">
        <ele>463.020</ele>
        <time>2021-06-11T11:23:09Z</time>
      </trkpt>
      <trkpt lat="43.093482" lon="-1.734729">
        <ele>462.538</ele>
        <time>2021-06-11T11:23:17Z</time>
      </trkpt>
      <trkpt lat="43.093617" lon="-1.734293">
        <ele>460.636</ele>
        <time>2021-06-11T11:23:25Z</time>
      </trkpt>
      <trkpt lat="43.093624" lon="-1.734231">
        <ele>460.651</ele>
        <time>2021-06-11T11:23:26Z</time>
      </trkpt>
      <trkpt lat="43.093628" lon="-1.734170">
        <ele>461.090</ele>
        <time>2021-06-11T11:23:27Z</time>
      </trkpt>
      <trkpt lat="43.093627" lon="-1.734110">
        <ele>460.615</ele>
        <time>2021-06-11T11:23:28Z</time>
      </trkpt>
      <trkpt lat="43.093624" lon="-1.734055">
        <ele>460.655</ele>
        <time>2021-06-11T11:23:29Z</time>
      </trkpt>
      <trkpt lat="43.093617" lon="-1.733998">
        <ele>460.607</ele>
        <time>2021-06-11T11:23:30Z</time>
      </trkpt>
      <trkpt lat="43.093609" lon="-1.733940">
        <ele>460.617</ele>
        <time>2021-06-11T11:23:31Z</time>
      </trkpt>
      <trkpt lat="43.093601" lon="-1.733884">
        <ele>460.608</ele>
        <time>2021-06-11T11:23:32Z</time>
      </trkpt>
      <trkpt lat="43.093597" lon="-1.733825">
        <ele>460.652</ele>
        <time>2021-06-11T11:23:33Z</time>
      </trkpt>
      <trkpt lat="43.093598" lon="-1.733758">
        <ele>460.670</ele>
        <time>2021-06-11T11:23:34Z</time>
      </trkpt>
      <trkpt lat="43.093608" lon="-1.733690">
        <ele>460.650</ele>
        <time>2021-06-11T11:23:35Z</time>
      </trkpt>
      <trkpt lat="43.093632" lon="-1.733627">
        <ele>460.688</ele>
        <time>2021-06-11T11:23:36Z</time>
      </trkpt>
      <trkpt lat="43.093672" lon="-1.733578">
        <ele>460.686</ele>
        <time>2021-06-11T11:23:37Z</time>
      </trkpt>
      <trkpt lat="43.093720" lon="-1.733547">
        <ele>460.631</ele>
        <time>2021-06-11T11:23:38Z</time>
      </trkpt>
      <trkpt lat="43.093770" lon="-1.733535">
        <ele>460.640</ele>
        <time>2021-06-11T11:23:39Z</time>
      </trkpt>
      <trkpt lat="43.093818" lon="-1.733535">
        <ele>461.085</ele>
        <time>2021-06-11T11:23:40Z</time>
      </trkpt>
      <trkpt lat="43.093860" lon="-1.733549">
        <ele>461.023</ele>
        <time>2021-06-11T11:23:41Z</time>
      </trkpt>
      <trkpt lat="43.093897" lon="-1.733572">
        <ele>461.583</ele>
        <time>2021-06-11T11:23:42Z</time>
      </trkpt>
      <trkpt lat="43.093929" lon="-1.733599">
        <ele>461.511</ele>
        <time>2021-06-11T11:23:43Z</time>
      </trkpt>
      <trkpt lat="43.093958" lon="-1.733625">
        <ele>461.508</ele>
        <time>2021-06-11T11:23:44Z</time>
      </trkpt>
      <trkpt lat="43.093990" lon="-1.733647">
        <ele>462.019</ele>
        <time>2021-06-11T11:23:45Z</time>
      </trkpt>
      <trkpt lat="43.094150" lon="-1.733710">
        <ele>463.077</ele>
        <time>2021-06-11T11:23:51Z</time>
      </trkpt>
      <trkpt lat="43.094340" lon="-1.733700">
        <ele>463.987</ele>
        <time>2021-06-11T11:23:58Z</time>
      </trkpt>
      <trkpt lat="43.094450" lon="-1.733554">
        <ele>464.425</ele>
        <time>2021-06-11T11:24:04Z</time>
      </trkpt>
      <trkpt lat="43.094463" lon="-1.733317">
        <ele>465.913</ele>
        <time>2021-06-11T11:24:11Z</time>
      </trkpt>
      <trkpt lat="43.094395" lon="-1.733006">
        <ele>464.928</ele>
        <time>2021-06-11T11:24:19Z</time>
      </trkpt>
      <trkpt lat="43.094301" lon="-1.732569">
        <ele>463.917</ele>
        <time>2021-06-11T11:24:28Z</time>
      </trkpt>
      <trkpt lat="43.094283" lon="-1.732210">
        <ele>463.952</ele>
        <time>2021-06-11T11:24:35Z</time>
      </trkpt>
      <trkpt lat="43.094339" lon="-1.731897">
        <ele>463.915</ele>
        <time>2021-06-11T11:24:42Z</time>
      </trkpt>
      <trkpt lat="43.094446" lon="-1.731569">
        <ele>464.965</ele>
        <time>2021-06-11T11:24:49Z</time>
      </trkpt>
      <trkpt lat="43.094641" lon="-1.731120">
        <ele>463.411</ele>
        <time>2021-06-11T11:24:59Z</time>
      </trkpt>
      <trkpt lat="43.094732" lon="-1.730730">
        <ele>463.008</ele>
        <time>2021-06-11T11:25:07Z</time>
      </trkpt>
      <trkpt lat="43.094792" lon="-1.730403">
        <ele>462.568</ele>
        <time>2021-06-11T11:25:14Z</time>
      </trkpt>
      <trkpt lat="43.094830" lon="-1.730057">
        <ele>461.566</ele>
        <time>2021-06-11T11:25:21Z</time>
      </trkpt>
      <trkpt lat="43.094891" lon="-1.729700">
        <ele>461.586</ele>
        <time>2021-06-11T11:25:28Z</time>
      </trkpt>
      <trkpt lat="43.094986" lon="-1.729353">
        <ele>462.554</ele>
        <time>2021-06-11T11:25:36Z</time>
      </trkpt>
      <trkpt lat="43.095020" lon="-1.729301">
        <ele>463.492</ele>
        <time>2021-06-11T11:25:41Z</time>
      </trkpt>
      <trkpt lat="43.095005" lon="-1.729305">
        <ele>463.457</ele>
        <time>2021-06-11T11:26:00Z</time>
      </trkpt>
      <trkpt lat="43.095007" lon="-1.729267">
        <ele>461.046</ele>
        <time>2021-06-11T11:26:18Z</time>
      </trkpt>
      <trkpt lat="43.095014" lon="-1.729264">
        <ele>462.061</ele>
        <time>2021-06-11T11:26:36Z</time>
      </trkpt>
      <trkpt lat="43.094997" lon="-1.729272">
        <ele>462.063</ele>
        <time>2021-06-11T11:26:51Z</time>
      </trkpt>
      <trkpt lat="43.094999" lon="-1.729285">
        <ele>463.444</ele>
        <time>2021-06-11T11:27:03Z</time>
      </trkpt>
      <trkpt lat="43.095012" lon="-1.729304">
        <ele>465.918</ele>
        <time>2021-06-11T11:27:19Z</time>
      </trkpt>
      <trkpt lat="43.095019" lon="-1.729268">
        <ele>466.308</ele>
        <time>2021-06-11T11:27:28Z</time>
      </trkpt>
      <trkpt lat="43.095025" lon="-1.729263">
        <ele>466.863</ele>
        <time>2021-06-11T11:27:36Z</time>
      </trkpt>
      <trkpt lat="43.095019" lon="-1.729259">
        <ele>468.781</ele>
        <time>2021-06-11T11:27:55Z</time>
      </trkpt>
      <trkpt lat="43.095018" lon="-1.729250">
        <ele>469.741</ele>
        <time>2021-06-11T11:28:09Z</time>
      </trkpt>
      <trkpt lat="43.095010" lon="-1.729249">
        <ele>468.359</ele>
        <time>2021-06-11T11:28:21Z</time>
      </trkpt>
      <trkpt lat="43.095002" lon="-1.729237">
        <ele>470.297</ele>
        <time>2021-06-11T11:28:33Z</time>
      </trkpt>
      <trkpt lat="43.095001" lon="-1.729200">
        <ele>469.762</ele>
        <time>2021-06-11T11:28:37Z</time>
      </trkpt>
      <trkpt lat="43.095000" lon="-1.729183">
        <ele>469.711</ele>
        <time>2021-06-11T11:28:38Z</time>
      </trkpt>
      <trkpt lat="43.095004" lon="-1.729162">
        <ele>470.296</ele>
        <time>2021-06-11T11:28:39Z</time>
      </trkpt>
      <trkpt lat="43.095009" lon="-1.729140">
        <ele>470.246</ele>
        <time>2021-06-11T11:28:40Z</time>
      </trkpt>
      <trkpt lat="43.095012" lon="-1.729113">
        <ele>470.288</ele>
        <time>2021-06-11T11:28:41Z</time>
      </trkpt>
      <trkpt lat="43.095067" lon="-1.728865">
        <ele>470.716</ele>
        <time>2021-06-11T11:28:49Z</time>
      </trkpt>
      <trkpt lat="43.095162" lon="-1.728586">
        <ele>472.108</ele>
        <time>2021-06-11T11:28:56Z</time>
      </trkpt>
      <trkpt lat="43.095296" lon="-1.728350">
        <ele>472.661</ele>
        <time>2021-06-11T11:29:02Z</time>
      </trkpt>
      <trkpt lat="43.095422" lon="-1.728080">
        <ele>470.279</ele>
        <time>2021-06-11T11:29:08Z</time>
      </trkpt>
      <trkpt lat="43.095574" lon="-1.727774">
        <ele>468.759</ele>
        <time>2021-06-11T11:29:14Z</time>
      </trkpt>
      <trkpt lat="43.095620" lon="-1.727654">
        <ele>468.397</ele>
        <time>2021-06-11T11:29:16Z</time>
      </trkpt>
      <trkpt lat="43.095786" lon="-1.727085">
        <ele>465.425</ele>
        <time>2021-06-11T11:29:25Z</time>
      </trkpt>
      <trkpt lat="43.095925" lon="-1.726685">
        <ele>463.410</ele>
        <time>2021-06-11T11:29:31Z</time>
      </trkpt>
      <trkpt lat="43.095952" lon="-1.726617">
        <ele>463.439</ele>
        <time>2021-06-11T11:29:32Z</time>
      </trkpt>
      <trkpt lat="43.096091" lon="-1.726197">
        <ele>461.524</ele>
        <time>2021-06-11T11:29:38Z</time>
      </trkpt>
      <trkpt lat="43.096099" lon="-1.726121">
        <ele>461.547</ele>
        <time>2021-06-11T11:29:39Z</time>
      </trkpt>
      <trkpt lat="43.096100" lon="-1.726044">
        <ele>461.029</ele>
        <time>2021-06-11T11:29:40Z</time>
      </trkpt>
      <trkpt lat="43.096092" lon="-1.725965">
        <ele>460.621</ele>
        <time>2021-06-11T11:29:41Z</time>
      </trkpt>
      <trkpt lat="43.096081" lon="-1.725891">
        <ele>460.108</ele>
        <time>2021-06-11T11:29:42Z</time>
      </trkpt>
      <trkpt lat="43.096070" lon="-1.725820">
        <ele>459.631</ele>
        <time>2021-06-11T11:29:43Z</time>
      </trkpt>
      <trkpt lat="43.096042" lon="-1.725671">
        <ele>458.669</ele>
        <time>2021-06-11T11:29:45Z</time>
      </trkpt>
      <trkpt lat="43.096040" lon="-1.725597">
        <ele>458.699</ele>
        <time>2021-06-11T11:29:46Z</time>
      </trkpt>
      <trkpt lat="43.096053" lon="-1.725523">
        <ele>458.257</ele>
        <time>2021-06-11T11:29:47Z</time>
      </trkpt>
      <trkpt lat="43.096081" lon="-1.725456">
        <ele>457.745</ele>
        <time>2021-06-11T11:29:48Z</time>
      </trkpt>
      <trkpt lat="43.096118" lon="-1.725401">
        <ele>457.210</ele>
        <time>2021-06-11T11:29:49Z</time>
      </trkpt>
      <trkpt lat="43.096166" lon="-1.725354">
        <ele>457.229</ele>
        <time>2021-06-11T11:29:50Z</time>
      </trkpt>
      <trkpt lat="43.096221" lon="-1.725320">
        <ele>457.294</ele>
        <time>2021-06-11T11:29:51Z</time>
      </trkpt>
      <trkpt lat="43.096277" lon="-1.725293">
        <ele>457.228</ele>
        <time>2021-06-11T11:29:52Z</time>
      </trkpt>
      <trkpt lat="43.096335" lon="-1.725261">
        <ele>457.289</ele>
        <time>2021-06-11T11:29:53Z</time>
      </trkpt>
      <trkpt lat="43.096399" lon="-1.725226">
        <ele>457.217</ele>
        <time>2021-06-11T11:29:54Z</time>
      </trkpt>
      <trkpt lat="43.096468" lon="-1.725188">
        <ele>457.208</ele>
        <time>2021-06-11T11:29:55Z</time>
      </trkpt>
      <trkpt lat="43.096532" lon="-1.725143">
        <ele>456.789</ele>
        <time>2021-06-11T11:29:56Z</time>
      </trkpt>
      <trkpt lat="43.096593" lon="-1.725086">
        <ele>456.797</ele>
        <time>2021-06-11T11:29:57Z</time>
      </trkpt>
      <trkpt lat="43.096650" lon="-1.725020">
        <ele>456.297</ele>
        <time>2021-06-11T11:29:58Z</time>
      </trkpt>
      <trkpt lat="43.096697" lon="-1.724948">
        <ele>455.365</ele>
        <time>2021-06-11T11:29:59Z</time>
      </trkpt>
      <trkpt lat="43.096738" lon="-1.724872">
        <ele>454.853</ele>
        <time>2021-06-11T11:30:00Z</time>
      </trkpt>
      <trkpt lat="43.096962" lon="-1.724377">
        <ele>453.488</ele>
        <time>2021-06-11T11:30:06Z</time>
      </trkpt>
      <trkpt lat="43.096984" lon="-1.724282">
        <ele>452.477</ele>
        <time>2021-06-11T11:30:07Z</time>
      </trkpt>
      <trkpt lat="43.096997" lon="-1.724185">
        <ele>451.932</ele>
        <time>2021-06-11T11:30:08Z</time>
      </trkpt>
      <trkpt lat="43.096999" lon="-1.724088">
        <ele>451.498</ele>
        <time>2021-06-11T11:30:09Z</time>
      </trkpt>
      <trkpt lat="43.096987" lon="-1.723993">
        <ele>451.015</ele>
        <time>2021-06-11T11:30:10Z</time>
      </trkpt>
      <trkpt lat="43.096962" lon="-1.723899">
        <ele>450.526</ele>
        <time>2021-06-11T11:30:11Z</time>
      </trkpt>
      <trkpt lat="43.096925" lon="-1.723808">
        <ele>450.008</ele>
        <time>2021-06-11T11:30:12Z</time>
      </trkpt>
      <trkpt lat="43.096882" lon="-1.723728">
        <ele>450.026</ele>
        <time>2021-06-11T11:30:13Z</time>
      </trkpt>
      <trkpt lat="43.096630" lon="-1.723237">
        <ele>447.124</ele>
        <time>2021-06-11T11:30:19Z</time>
      </trkpt>
      <trkpt lat="43.096576" lon="-1.723071">
        <ele>445.744</ele>
        <time>2021-06-11T11:30:23Z</time>
      </trkpt>
      <trkpt lat="43.096571" lon="-1.723072">
        <ele>445.222</ele>
        <time>2021-06-11T11:30:34Z</time>
      </trkpt>
      <trkpt lat="43.096579" lon="-1.723084">
        <ele>446.120</ele>
        <time>2021-06-11T11:30:48Z</time>
      </trkpt>
      <trkpt lat="43.096590" lon="-1.723085">
        <ele>448.535</ele>
        <time>2021-06-11T11:31:07Z</time>
      </trkpt>
      <trkpt lat="43.096589" lon="-1.723047">
        <ele>449.064</ele>
        <time>2021-06-11T11:31:19Z</time>
      </trkpt>
      <trkpt lat="43.096591" lon="-1.722871">
        <ele>450.089</ele>
        <time>2021-06-11T11:31:28Z</time>
      </trkpt>
      <trkpt lat="43.096558" lon="-1.722680">
        <ele>449.044</ele>
        <time>2021-06-11T11:31:35Z</time>
      </trkpt>
      <trkpt lat="43.096516" lon="-1.722505">
        <ele>447.105</ele>
        <time>2021-06-11T11:31:41Z</time>
      </trkpt>
      <trkpt lat="43.096414" lon="-1.722257">
        <ele>445.215</ele>
        <time>2021-06-11T11:31:48Z</time>
      </trkpt>
      <trkpt lat="43.096254" lon="-1.721847">
        <ele>442.808</ele>
        <time>2021-06-11T11:31:55Z</time>
      </trkpt>
      <trkpt lat="43.096215" lon="-1.721692">
        <ele>442.371</ele>
        <time>2021-06-11T11:31:57Z</time>
      </trkpt>
      <trkpt lat="43.096188" lon="-1.721523">
        <ele>442.389</ele>
        <time>2021-06-11T11:31:59Z</time>
      </trkpt>
      <trkpt lat="43.096081" lon="-1.720756">
        <ele>439.929</ele>
        <time>2021-06-11T11:32:07Z</time>
      </trkpt>
      <trkpt lat="43.096056" lon="-1.720647">
        <ele>439.427</ele>
        <time>2021-06-11T11:32:08Z</time>
      </trkpt>
      <trkpt lat="43.096024" lon="-1.720534">
        <ele>438.985</ele>
        <time>2021-06-11T11:32:09Z</time>
      </trkpt>
      <trkpt lat="43.095874" lon="-1.720137">
        <ele>437.060</ele>
        <time>2021-06-11T11:32:13Z</time>
      </trkpt>
      <trkpt lat="43.095804" lon="-1.720042">
        <ele>436.589</ele>
        <time>2021-06-11T11:32:14Z</time>
      </trkpt>
      <trkpt lat="43.095731" lon="-1.719983">
        <ele>436.124</ele>
        <time>2021-06-11T11:32:15Z</time>
      </trkpt>
      <trkpt lat="43.095647" lon="-1.719947">
        <ele>435.684</ele>
        <time>2021-06-11T11:32:16Z</time>
      </trkpt>
      <trkpt lat="43.095565" lon="-1.719933">
        <ele>435.107</ele>
        <time>2021-06-11T11:32:17Z</time>
      </trkpt>
      <trkpt lat="43.095473" lon="-1.719922">
        <ele>434.617</ele>
        <time>2021-06-11T11:32:18Z</time>
      </trkpt>
      <trkpt lat="43.095394" lon="-1.719892">
        <ele>434.108</ele>
        <time>2021-06-11T11:32:19Z</time>
      </trkpt>
      <trkpt lat="43.095332" lon="-1.719838">
        <ele>433.625</ele>
        <time>2021-06-11T11:32:20Z</time>
      </trkpt>
      <trkpt lat="43.095272" lon="-1.719748">
        <ele>433.613</ele>
        <time>2021-06-11T11:32:21Z</time>
      </trkpt>
      <trkpt lat="43.095226" lon="-1.719657">
        <ele>433.233</ele>
        <time>2021-06-11T11:32:22Z</time>
      </trkpt>
      <trkpt lat="43.095182" lon="-1.719543">
        <ele>432.741</ele>
        <time>2021-06-11T11:32:23Z</time>
      </trkpt>
      <trkpt lat="43.095146" lon="-1.719430">
        <ele>432.279</ele>
        <time>2021-06-11T11:32:24Z</time>
      </trkpt>
      <trkpt lat="43.094931" lon="-1.718724">
        <ele>429.384</ele>
        <time>2021-06-11T11:32:30Z</time>
      </trkpt>
      <trkpt lat="43.094911" lon="-1.718604">
        <ele>429.363</ele>
        <time>2021-06-11T11:32:31Z</time>
      </trkpt>
      <trkpt lat="43.094919" lon="-1.718497">
        <ele>428.838</ele>
        <time>2021-06-11T11:32:32Z</time>
      </trkpt>
      <trkpt lat="43.094960" lon="-1.718383">
        <ele>428.471</ele>
        <time>2021-06-11T11:32:33Z</time>
      </trkpt>
      <trkpt lat="43.095013" lon="-1.718291">
        <ele>427.941</ele>
        <time>2021-06-11T11:32:34Z</time>
      </trkpt>
      <trkpt lat="43.095080" lon="-1.718184">
        <ele>427.415</ele>
        <time>2021-06-11T11:32:35Z</time>
      </trkpt>
      <trkpt lat="43.095138" lon="-1.718082">
        <ele>426.908</ele>
        <time>2021-06-11T11:32:36Z</time>
      </trkpt>
      <trkpt lat="43.095390" lon="-1.717515">
        <ele>423.694</ele>
        <time>2021-06-11T11:32:41Z</time>
      </trkpt>
      <trkpt lat="43.095413" lon="-1.717392">
        <ele>422.682</ele>
        <time>2021-06-11T11:32:42Z</time>
      </trkpt>
      <trkpt lat="43.095416" lon="-1.717248">
        <ele>422.122</ele>
        <time>2021-06-11T11:32:43Z</time>
      </trkpt>
      <trkpt lat="43.095400" lon="-1.717130">
        <ele>421.120</ele>
        <time>2021-06-11T11:32:44Z</time>
      </trkpt>
      <trkpt lat="43.095364" lon="-1.716990">
        <ele>420.228</ele>
        <time>2021-06-11T11:32:45Z</time>
      </trkpt>
      <trkpt lat="43.095323" lon="-1.716879">
        <ele>419.273</ele>
        <time>2021-06-11T11:32:46Z</time>
      </trkpt>
      <trkpt lat="43.095264" lon="-1.716753">
        <ele>418.352</ele>
        <time>2021-06-11T11:32:47Z</time>
      </trkpt>
      <trkpt lat="43.095210" lon="-1.716651">
        <ele>417.877</ele>
        <time>2021-06-11T11:32:48Z</time>
      </trkpt>
      <trkpt lat="43.095054" lon="-1.716345">
        <ele>414.965</ele>
        <time>2021-06-11T11:32:51Z</time>
      </trkpt>
      <trkpt lat="43.095018" lon="-1.716222">
        <ele>413.968</ele>
        <time>2021-06-11T11:32:52Z</time>
      </trkpt>
      <trkpt lat="43.095003" lon="-1.716114">
        <ele>413.514</ele>
        <time>2021-06-11T11:32:53Z</time>
      </trkpt>
      <trkpt lat="43.095008" lon="-1.715983">
        <ele>412.508</ele>
        <time>2021-06-11T11:32:54Z</time>
      </trkpt>
      <trkpt lat="43.095033" lon="-1.715879">
        <ele>412.023</ele>
        <time>2021-06-11T11:32:55Z</time>
      </trkpt>
      <trkpt lat="43.095083" lon="-1.715783">
        <ele>411.131</ele>
        <time>2021-06-11T11:32:56Z</time>
      </trkpt>
      <trkpt lat="43.095137" lon="-1.715730">
        <ele>410.121</ele>
        <time>2021-06-11T11:32:57Z</time>
      </trkpt>
      <trkpt lat="43.095216" lon="-1.715690">
        <ele>409.169</ele>
        <time>2021-06-11T11:32:58Z</time>
      </trkpt>
      <trkpt lat="43.095286" lon="-1.715680">
        <ele>408.787</ele>
        <time>2021-06-11T11:32:59Z</time>
      </trkpt>
      <trkpt lat="43.095375" lon="-1.715691">
        <ele>407.752</ele>
        <time>2021-06-11T11:33:00Z</time>
      </trkpt>
      <trkpt lat="43.095446" lon="-1.715716">
        <ele>407.281</ele>
        <time>2021-06-11T11:33:01Z</time>
      </trkpt>
      <trkpt lat="43.095537" lon="-1.715755">
        <ele>406.246</ele>
        <time>2021-06-11T11:33:02Z</time>
      </trkpt>
      <trkpt lat="43.095703" lon="-1.715822">
        <ele>405.327</ele>
        <time>2021-06-11T11:33:04Z</time>
      </trkpt>
      <trkpt lat="43.095802" lon="-1.715840">
        <ele>404.868</ele>
        <time>2021-06-11T11:33:05Z</time>
      </trkpt>
      <trkpt lat="43.095886" lon="-1.715831">
        <ele>403.814</ele>
        <time>2021-06-11T11:33:06Z</time>
      </trkpt>
      <trkpt lat="43.095984" lon="-1.715785">
        <ele>403.408</ele>
        <time>2021-06-11T11:33:07Z</time>
      </trkpt>
      <trkpt lat="43.096063" lon="-1.715725">
        <ele>402.429</ele>
        <time>2021-06-11T11:33:08Z</time>
      </trkpt>
      <trkpt lat="43.096158" lon="-1.715642">
        <ele>401.977</ele>
        <time>2021-06-11T11:33:09Z</time>
      </trkpt>
      <trkpt lat="43.096327" lon="-1.715468">
        <ele>400.577</ele>
        <time>2021-06-11T11:33:11Z</time>
      </trkpt>
      <trkpt lat="43.096395" lon="-1.715375">
        <ele>400.085</ele>
        <time>2021-06-11T11:33:12Z</time>
      </trkpt>
      <trkpt lat="43.096461" lon="-1.715262">
        <ele>399.583</ele>
        <time>2021-06-11T11:33:13Z</time>
      </trkpt>
      <trkpt lat="43.096529" lon="-1.715128">
        <ele>398.648</ele>
        <time>2021-06-11T11:33:14Z</time>
      </trkpt>
      <trkpt lat="43.096583" lon="-1.715016">
        <ele>398.117</ele>
        <time>2021-06-11T11:33:15Z</time>
      </trkpt>
      <trkpt lat="43.096847" lon="-1.714519">
        <ele>394.792</ele>
        <time>2021-06-11T11:33:19Z</time>
      </trkpt>
      <trkpt lat="43.096899" lon="-1.714380">
        <ele>394.232</ele>
        <time>2021-06-11T11:33:20Z</time>
      </trkpt>
      <trkpt lat="43.097218" lon="-1.713379">
        <ele>389.492</ele>
        <time>2021-06-11T11:33:27Z</time>
      </trkpt>
      <trkpt lat="43.097458" lon="-1.712532">
        <ele>384.111</ele>
        <time>2021-06-11T11:33:33Z</time>
      </trkpt>
      <trkpt lat="43.097699" lon="-1.711831">
        <ele>379.308</ele>
        <time>2021-06-11T11:33:39Z</time>
      </trkpt>
      <trkpt lat="43.097718" lon="-1.711716">
        <ele>378.970</ele>
        <time>2021-06-11T11:33:40Z</time>
      </trkpt>
      <trkpt lat="43.097725" lon="-1.711577">
        <ele>378.968</ele>
        <time>2021-06-11T11:33:41Z</time>
      </trkpt>
      <trkpt lat="43.097723" lon="-1.711443">
        <ele>378.488</ele>
        <time>2021-06-11T11:33:42Z</time>
      </trkpt>
      <trkpt lat="43.097723" lon="-1.711333">
        <ele>378.476</ele>
        <time>2021-06-11T11:33:43Z</time>
      </trkpt>
      <trkpt lat="43.097733" lon="-1.711208">
        <ele>377.914</ele>
        <time>2021-06-11T11:33:44Z</time>
      </trkpt>
      <trkpt lat="43.097760" lon="-1.711098">
        <ele>377.439</ele>
        <time>2021-06-11T11:33:45Z</time>
      </trkpt>
      <trkpt lat="43.097808" lon="-1.710988">
        <ele>376.968</ele>
        <time>2021-06-11T11:33:46Z</time>
      </trkpt>
      <trkpt lat="43.097864" lon="-1.710910">
        <ele>376.433</ele>
        <time>2021-06-11T11:33:47Z</time>
      </trkpt>
      <trkpt lat="43.097933" lon="-1.710848">
        <ele>376.065</ele>
        <time>2021-06-11T11:33:48Z</time>
      </trkpt>
      <trkpt lat="43.098010" lon="-1.710805">
        <ele>375.568</ele>
        <time>2021-06-11T11:33:49Z</time>
      </trkpt>
      <trkpt lat="43.098093" lon="-1.710770">
        <ele>375.014</ele>
        <time>2021-06-11T11:33:50Z</time>
      </trkpt>
      <trkpt lat="43.098420" lon="-1.710674">
        <ele>373.608</ele>
        <time>2021-06-11T11:33:54Z</time>
      </trkpt>
      <trkpt lat="43.098489" lon="-1.710686">
        <ele>372.633</ele>
        <time>2021-06-11T11:33:55Z</time>
      </trkpt>
      <trkpt lat="43.098558" lon="-1.710728">
        <ele>372.191</ele>
        <time>2021-06-11T11:33:56Z</time>
      </trkpt>
      <trkpt lat="43.098606" lon="-1.710787">
        <ele>372.171</ele>
        <time>2021-06-11T11:33:57Z</time>
      </trkpt>
      <trkpt lat="43.098638" lon="-1.710870">
        <ele>371.699</ele>
        <time>2021-06-11T11:33:58Z</time>
      </trkpt>
      <trkpt lat="43.098657" lon="-1.710957">
        <ele>371.297</ele>
        <time>2021-06-11T11:33:59Z</time>
      </trkpt>
      <trkpt lat="43.098665" lon="-1.711048">
        <ele>370.792</ele>
        <time>2021-06-11T11:34:00Z</time>
      </trkpt>
      <trkpt lat="43.098668" lon="-1.711150">
        <ele>370.241</ele>
        <time>2021-06-11T11:34:01Z</time>
      </trkpt>
      <trkpt lat="43.098654" lon="-1.711914">
        <ele>368.386</ele>
        <time>2021-06-11T11:34:08Z</time>
      </trkpt>
      <trkpt lat="43.098662" lon="-1.712985">
        <ele>363.582</ele>
        <time>2021-06-11T11:34:17Z</time>
      </trkpt>
      <trkpt lat="43.098798" lon="-1.713609">
        <ele>360.143</ele>
        <time>2021-06-11T11:34:22Z</time>
      </trkpt>
      <trkpt lat="43.099171" lon="-1.714777">
        <ele>353.417</ele>
        <time>2021-06-11T11:34:31Z</time>
      </trkpt>
      <trkpt lat="43.099242" lon="-1.714896">
        <ele>352.908</ele>
        <time>2021-06-11T11:34:32Z</time>
      </trkpt>
      <trkpt lat="43.099318" lon="-1.714981">
        <ele>351.975</ele>
        <time>2021-06-11T11:34:33Z</time>
      </trkpt>
      <trkpt lat="43.099410" lon="-1.715050">
        <ele>351.533</ele>
        <time>2021-06-11T11:34:34Z</time>
      </trkpt>
      <trkpt lat="43.099504" lon="-1.715084">
        <ele>351.063</ele>
        <time>2021-06-11T11:34:35Z</time>
      </trkpt>
      <trkpt lat="43.099602" lon="-1.715088">
        <ele>350.061</ele>
        <time>2021-06-11T11:34:36Z</time>
      </trkpt>
      <trkpt lat="43.099698" lon="-1.715075">
        <ele>349.589</ele>
        <time>2021-06-11T11:34:37Z</time>
      </trkpt>
      <trkpt lat="43.099803" lon="-1.715059">
        <ele>349.184</ele>
        <time>2021-06-11T11:34:38Z</time>
      </trkpt>
      <trkpt lat="43.099903" lon="-1.715054">
        <ele>348.673</ele>
        <time>2021-06-11T11:34:39Z</time>
      </trkpt>
      <trkpt lat="43.100004" lon="-1.715063">
        <ele>348.178</ele>
        <time>2021-06-11T11:34:40Z</time>
      </trkpt>
      <trkpt lat="43.100106" lon="-1.715086">
        <ele>347.129</ele>
        <time>2021-06-11T11:34:41Z</time>
      </trkpt>
      <trkpt lat="43.100205" lon="-1.715124">
        <ele>346.600</ele>
        <time>2021-06-11T11:34:42Z</time>
      </trkpt>
      <trkpt lat="43.100314" lon="-1.715175">
        <ele>345.720</ele>
        <time>2021-06-11T11:34:43Z</time>
      </trkpt>
      <trkpt lat="43.100504" lon="-1.715241">
        <ele>343.808</ele>
        <time>2021-06-11T11:34:45Z</time>
      </trkpt>
      <trkpt lat="43.100595" lon="-1.715238">
        <ele>342.869</ele>
        <time>2021-06-11T11:34:46Z</time>
      </trkpt>
      <trkpt lat="43.100684" lon="-1.715210">
        <ele>341.857</ele>
        <time>2021-06-11T11:34:47Z</time>
      </trkpt>
      <trkpt lat="43.100777" lon="-1.715149">
        <ele>341.447</ele>
        <time>2021-06-11T11:34:48Z</time>
      </trkpt>
      <trkpt lat="43.100857" lon="-1.715069">
        <ele>340.435</ele>
        <time>2021-06-11T11:34:49Z</time>
      </trkpt>
      <trkpt lat="43.100931" lon="-1.714973">
        <ele>339.933</ele>
        <time>2021-06-11T11:34:50Z</time>
      </trkpt>
      <trkpt lat="43.101009" lon="-1.714864">
        <ele>339.438</ele>
        <time>2021-06-11T11:34:51Z</time>
      </trkpt>
      <trkpt lat="43.101568" lon="-1.713955">
        <ele>335.697</ele>
        <time>2021-06-11T11:34:59Z</time>
      </trkpt>
      <trkpt lat="43.101717" lon="-1.713565">
        <ele>333.752</ele>
        <time>2021-06-11T11:35:02Z</time>
      </trkpt>
      <trkpt lat="43.101753" lon="-1.713417">
        <ele>333.239</ele>
        <time>2021-06-11T11:35:03Z</time>
      </trkpt>
      <trkpt lat="43.101777" lon="-1.713282">
        <ele>332.201</ele>
        <time>2021-06-11T11:35:04Z</time>
      </trkpt>
      <trkpt lat="43.101808" lon="-1.712986">
        <ele>331.321</ele>
        <time>2021-06-11T11:35:06Z</time>
      </trkpt>
      <trkpt lat="43.101808" lon="-1.712856">
        <ele>330.808</ele>
        <time>2021-06-11T11:35:07Z</time>
      </trkpt>
      <trkpt lat="43.101795" lon="-1.712714">
        <ele>330.350</ele>
        <time>2021-06-11T11:35:08Z</time>
      </trkpt>
      <trkpt lat="43.101773" lon="-1.712588">
        <ele>329.898</ele>
        <time>2021-06-11T11:35:09Z</time>
      </trkpt>
      <trkpt lat="43.101737" lon="-1.712465">
        <ele>329.398</ele>
        <time>2021-06-11T11:35:10Z</time>
      </trkpt>
      <trkpt lat="43.101697" lon="-1.712363">
        <ele>328.976</ele>
        <time>2021-06-11T11:35:11Z</time>
      </trkpt>
      <trkpt lat="43.101649" lon="-1.712252">
        <ele>328.434</ele>
        <time>2021-06-11T11:35:12Z</time>
      </trkpt>
      <trkpt lat="43.101609" lon="-1.712146">
        <ele>327.979</ele>
        <time>2021-06-11T11:35:13Z</time>
      </trkpt>
      <trkpt lat="43.101584" lon="-1.712030">
        <ele>327.468</ele>
        <time>2021-06-11T11:35:14Z</time>
      </trkpt>
      <trkpt lat="43.101583" lon="-1.711903">
        <ele>326.923</ele>
        <time>2021-06-11T11:35:15Z</time>
      </trkpt>
      <trkpt lat="43.101611" lon="-1.711779">
        <ele>326.534</ele>
        <time>2021-06-11T11:35:16Z</time>
      </trkpt>
      <trkpt lat="43.101657" lon="-1.711664">
        <ele>326.055</ele>
        <time>2021-06-11T11:35:17Z</time>
      </trkpt>
      <trkpt lat="43.101710" lon="-1.711552">
        <ele>325.510</ele>
        <time>2021-06-11T11:35:18Z</time>
      </trkpt>
      <trkpt lat="43.101804" lon="-1.711315">
        <ele>324.508</ele>
        <time>2021-06-11T11:35:20Z</time>
      </trkpt>
      <trkpt lat="43.101839" lon="-1.711194">
        <ele>324.590</ele>
        <time>2021-06-11T11:35:21Z</time>
      </trkpt>
      <trkpt lat="43.101865" lon="-1.711069">
        <ele>324.128</ele>
        <time>2021-06-11T11:35:22Z</time>
      </trkpt>
      <trkpt lat="43.101887" lon="-1.710913">
        <ele>323.178</ele>
        <time>2021-06-11T11:35:23Z</time>
      </trkpt>
      <trkpt lat="43.101895" lon="-1.710793">
        <ele>322.686</ele>
        <time>2021-06-11T11:35:24Z</time>
      </trkpt>
      <trkpt lat="43.101898" lon="-1.710666">
        <ele>322.614</ele>
        <time>2021-06-11T11:35:25Z</time>
      </trkpt>
      <trkpt lat="43.101895" lon="-1.710520">
        <ele>322.189</ele>
        <time>2021-06-11T11:35:26Z</time>
      </trkpt>
      <trkpt lat="43.101886" lon="-1.710386">
        <ele>321.728</ele>
        <time>2021-06-11T11:35:27Z</time>
      </trkpt>
      <trkpt lat="43.101867" lon="-1.710257">
        <ele>321.293</ele>
        <time>2021-06-11T11:35:28Z</time>
      </trkpt>
      <trkpt lat="43.101836" lon="-1.710134">
        <ele>320.722</ele>
        <time>2021-06-11T11:35:29Z</time>
      </trkpt>
      <trkpt lat="43.101791" lon="-1.710021">
        <ele>319.762</ele>
        <time>2021-06-11T11:35:30Z</time>
      </trkpt>
      <trkpt lat="43.101730" lon="-1.709906">
        <ele>319.308</ele>
        <time>2021-06-11T11:35:31Z</time>
      </trkpt>
      <trkpt lat="43.101670" lon="-1.709803">
        <ele>318.808</ele>
        <time>2021-06-11T11:35:32Z</time>
      </trkpt>
      <trkpt lat="43.101204" lon="-1.708992">
        <ele>313.029</ele>
        <time>2021-06-11T11:35:40Z</time>
      </trkpt>
      <trkpt lat="43.101108" lon="-1.708870">
        <ele>312.087</ele>
        <time>2021-06-11T11:35:42Z</time>
      </trkpt>
      <trkpt lat="43.101056" lon="-1.708823">
        <ele>311.617</ele>
        <time>2021-06-11T11:35:43Z</time>
      </trkpt>
      <trkpt lat="43.101004" lon="-1.708793">
        <ele>311.165</ele>
        <time>2021-06-11T11:35:44Z</time>
      </trkpt>
      <trkpt lat="43.100939" lon="-1.708769">
        <ele>310.193</ele>
        <time>2021-06-11T11:35:45Z</time>
      </trkpt>
      <trkpt lat="43.100874" lon="-1.708750">
        <ele>309.618</ele>
        <time>2021-06-11T11:35:46Z</time>
      </trkpt>
      <trkpt lat="43.100580" lon="-1.708654">
        <ele>306.357</ele>
        <time>2021-06-11T11:35:51Z</time>
      </trkpt>
      <trkpt lat="43.100551" lon="-1.708617">
        <ele>306.322</ele>
        <time>2021-06-11T11:35:52Z</time>
      </trkpt>
      <trkpt lat="43.100529" lon="-1.708563">
        <ele>306.328</ele>
        <time>2021-06-11T11:35:53Z</time>
      </trkpt>
      <trkpt lat="43.100522" lon="-1.708504">
        <ele>306.389</ele>
        <time>2021-06-11T11:35:54Z</time>
      </trkpt>
      <trkpt lat="43.100532" lon="-1.708432">
        <ele>305.817</ele>
        <time>2021-06-11T11:35:55Z</time>
      </trkpt>
      <trkpt lat="43.100559" lon="-1.708372">
        <ele>306.308</ele>
        <time>2021-06-11T11:35:56Z</time>
      </trkpt>
      <trkpt lat="43.100606" lon="-1.708320">
        <ele>305.839</ele>
        <time>2021-06-11T11:35:57Z</time>
      </trkpt>
      <trkpt lat="43.100652" lon="-1.708288">
        <ele>305.837</ele>
        <time>2021-06-11T11:35:58Z</time>
      </trkpt>
      <trkpt lat="43.100712" lon="-1.708257">
        <ele>305.337</ele>
        <time>2021-06-11T11:35:59Z</time>
      </trkpt>
      <trkpt lat="43.100768" lon="-1.708229">
        <ele>305.385</ele>
        <time>2021-06-11T11:36:00Z</time>
      </trkpt>
      <trkpt lat="43.100821" lon="-1.708203">
        <ele>304.883</ele>
        <time>2021-06-11T11:36:01Z</time>
      </trkpt>
      <trkpt lat="43.100883" lon="-1.708171">
        <ele>304.828</ele>
        <time>2021-06-11T11:36:02Z</time>
      </trkpt>
      <trkpt lat="43.100942" lon="-1.708132">
        <ele>304.387</ele>
        <time>2021-06-11T11:36:03Z</time>
      </trkpt>
      <trkpt lat="43.100992" lon="-1.708090">
        <ele>304.312</ele>
        <time>2021-06-11T11:36:04Z</time>
      </trkpt>
      <trkpt lat="43.101043" lon="-1.708023">
        <ele>304.325</ele>
        <time>2021-06-11T11:36:05Z</time>
      </trkpt>
      <trkpt lat="43.101080" lon="-1.707936">
        <ele>304.326</ele>
        <time>2021-06-11T11:36:06Z</time>
      </trkpt>
      <trkpt lat="43.101090" lon="-1.707842">
        <ele>304.308</ele>
        <time>2021-06-11T11:36:07Z</time>
      </trkpt>
      <trkpt lat="43.101082" lon="-1.707757">
        <ele>303.908</ele>
        <time>2021-06-11T11:36:08Z</time>
      </trkpt>
      <trkpt lat="43.101069" lon="-1.707646">
        <ele>303.469</ele>
        <time>2021-06-11T11:36:09Z</time>
      </trkpt>
      <trkpt lat="43.101074" lon="-1.707578">
        <ele>302.957</ele>
        <time>2021-06-11T11:36:10Z</time>
      </trkpt>
      <trkpt lat="43.101099" lon="-1.707499">
        <ele>302.417</ele>
        <time>2021-06-11T11:36:11Z</time>
      </trkpt>
      <trkpt lat="43.101139" lon="-1.707448">
        <ele>301.935</ele>
        <time>2021-06-11T11:36:12Z</time>
      </trkpt>
      <trkpt lat="43.101200" lon="-1.707424">
        <ele>301.943</ele>
        <time>2021-06-11T11:36:13Z</time>
      </trkpt>
      <trkpt lat="43.101266" lon="-1.707445">
        <ele>301.528</ele>
        <time>2021-06-11T11:36:14Z</time>
      </trkpt>
      <trkpt lat="43.101322" lon="-1.707490">
        <ele>301.037</ele>
        <time>2021-06-11T11:36:15Z</time>
      </trkpt>
      <trkpt lat="43.101370" lon="-1.707546">
        <ele>300.082</ele>
        <time>2021-06-11T11:36:16Z</time>
      </trkpt>
      <trkpt lat="43.101426" lon="-1.707629">
        <ele>299.512</ele>
        <time>2021-06-11T11:36:17Z</time>
      </trkpt>
      <trkpt lat="43.101465" lon="-1.707693">
        <ele>299.132</ele>
        <time>2021-06-11T11:36:18Z</time>
      </trkpt>
      <trkpt lat="43.101567" lon="-1.707842">
        <ele>298.105</ele>
        <time>2021-06-11T11:36:20Z</time>
      </trkpt>
      <trkpt lat="43.101622" lon="-1.707903">
        <ele>297.608</ele>
        <time>2021-06-11T11:36:21Z</time>
      </trkpt>
      <trkpt lat="43.101693" lon="-1.707970">
        <ele>296.778</ele>
        <time>2021-06-11T11:36:22Z</time>
      </trkpt>
      <trkpt lat="43.101761" lon="-1.708023">
        <ele>296.286</ele>
        <time>2021-06-11T11:36:23Z</time>
      </trkpt>
      <trkpt lat="43.101825" lon="-1.708069">
        <ele>295.736</ele>
        <time>2021-06-11T11:36:24Z</time>
      </trkpt>
      <trkpt lat="43.102290" lon="-1.708370">
        <ele>291.994</ele>
        <time>2021-06-11T11:36:30Z</time>
      </trkpt>
      <trkpt lat="43.102392" lon="-1.708407">
        <ele>291.412</ele>
        <time>2021-06-11T11:36:31Z</time>
      </trkpt>
      <trkpt lat="43.102484" lon="-1.708417">
        <ele>290.497</ele>
        <time>2021-06-11T11:36:32Z</time>
      </trkpt>
      <trkpt lat="43.102591" lon="-1.708402">
        <ele>289.966</ele>
        <time>2021-06-11T11:36:33Z</time>
      </trkpt>
      <trkpt lat="43.103216" lon="-1.708242">
        <ele>286.191</ele>
        <time>2021-06-11T11:36:39Z</time>
      </trkpt>
      <trkpt lat="43.103929" lon="-1.708046">
        <ele>281.357</ele>
        <time>2021-06-11T11:36:46Z</time>
      </trkpt>
      <trkpt lat="43.104527" lon="-1.707863">
        <ele>277.000</ele>
        <time>2021-06-11T11:36:52Z</time>
      </trkpt>
      <trkpt lat="43.104611" lon="-1.707820">
        <ele>276.520</ele>
        <time>2021-06-11T11:36:53Z</time>
      </trkpt>
      <trkpt lat="43.104708" lon="-1.707753">
        <ele>275.508</ele>
        <time>2021-06-11T11:36:54Z</time>
      </trkpt>
      <trkpt lat="43.104794" lon="-1.707670">
        <ele>274.562</ele>
        <time>2021-06-11T11:36:55Z</time>
      </trkpt>
      <trkpt lat="43.104850" lon="-1.707600">
        <ele>274.130</ele>
        <time>2021-06-11T11:36:56Z</time>
      </trkpt>
      <trkpt lat="43.104912" lon="-1.707502">
        <ele>273.690</ele>
        <time>2021-06-11T11:36:57Z</time>
      </trkpt>
      <trkpt lat="43.104975" lon="-1.707376">
        <ele>273.168</ele>
        <time>2021-06-11T11:36:58Z</time>
      </trkpt>
      <trkpt lat="43.105015" lon="-1.707284">
        <ele>273.146</ele>
        <time>2021-06-11T11:36:59Z</time>
      </trkpt>
      <trkpt lat="43.105184" lon="-1.706996">
        <ele>271.211</ele>
        <time>2021-06-11T11:37:02Z</time>
      </trkpt>
      <trkpt lat="43.105261" lon="-1.706908">
        <ele>270.730</ele>
        <time>2021-06-11T11:37:03Z</time>
      </trkpt>
      <trkpt lat="43.105326" lon="-1.706829">
        <ele>270.245</ele>
        <time>2021-06-11T11:37:04Z</time>
      </trkpt>
      <trkpt lat="43.105386" lon="-1.706738">
        <ele>269.781</ele>
        <time>2021-06-11T11:37:05Z</time>
      </trkpt>
      <trkpt lat="43.105449" lon="-1.706631">
        <ele>269.361</ele>
        <time>2021-06-11T11:37:06Z</time>
      </trkpt>
      <trkpt lat="43.105505" lon="-1.706529">
        <ele>268.317</ele>
        <time>2021-06-11T11:37:07Z</time>
      </trkpt>
      <trkpt lat="43.105778" lon="-1.706011">
        <ele>264.908</ele>
        <time>2021-06-11T11:37:12Z</time>
      </trkpt>
      <trkpt lat="43.105817" lon="-1.705898">
        <ele>264.515</ele>
        <time>2021-06-11T11:37:13Z</time>
      </trkpt>
      <trkpt lat="43.105853" lon="-1.705765">
        <ele>264.053</ele>
        <time>2021-06-11T11:37:14Z</time>
      </trkpt>
      <trkpt lat="43.105988" lon="-1.704889">
        <ele>259.283</ele>
        <time>2021-06-11T11:37:21Z</time>
      </trkpt>
      <trkpt lat="43.106020" lon="-1.704653">
        <ele>257.751</ele>
        <time>2021-06-11T11:37:23Z</time>
      </trkpt>
      <trkpt lat="43.106061" lon="-1.704524">
        <ele>257.289</ele>
        <time>2021-06-11T11:37:24Z</time>
      </trkpt>
      <trkpt lat="43.106121" lon="-1.704415">
        <ele>256.814</ele>
        <time>2021-06-11T11:37:25Z</time>
      </trkpt>
      <trkpt lat="43.106182" lon="-1.704330">
        <ele>255.853</ele>
        <time>2021-06-11T11:37:26Z</time>
      </trkpt>
      <trkpt lat="43.106263" lon="-1.704229">
        <ele>255.328</ele>
        <time>2021-06-11T11:37:27Z</time>
      </trkpt>
      <trkpt lat="43.106861" lon="-1.703446">
        <ele>251.027</ele>
        <time>2021-06-11T11:37:35Z</time>
      </trkpt>
      <trkpt lat="43.106914" lon="-1.703330">
        <ele>250.068</ele>
        <time>2021-06-11T11:37:36Z</time>
      </trkpt>
      <trkpt lat="43.106953" lon="-1.703211">
        <ele>249.614</ele>
        <time>2021-06-11T11:37:37Z</time>
      </trkpt>
      <trkpt lat="43.106982" lon="-1.703090">
        <ele>248.608</ele>
        <time>2021-06-11T11:37:38Z</time>
      </trkpt>
      <trkpt lat="43.107005" lon="-1.702961">
        <ele>248.139</ele>
        <time>2021-06-11T11:37:39Z</time>
      </trkpt>
      <trkpt lat="43.107016" lon="-1.702832">
        <ele>247.667</ele>
        <time>2021-06-11T11:37:40Z</time>
      </trkpt>
      <trkpt lat="43.107017" lon="-1.702699">
        <ele>247.267</ele>
        <time>2021-06-11T11:37:41Z</time>
      </trkpt>
      <trkpt lat="43.107009" lon="-1.702556">
        <ele>246.765</ele>
        <time>2021-06-11T11:37:42Z</time>
      </trkpt>
      <trkpt lat="43.107000" lon="-1.702422">
        <ele>246.223</ele>
        <time>2021-06-11T11:37:43Z</time>
      </trkpt>
      <trkpt lat="43.106958" lon="-1.701747">
        <ele>243.828</ele>
        <time>2021-06-11T11:37:48Z</time>
      </trkpt>
      <trkpt lat="43.106973" lon="-1.701604">
        <ele>243.397</ele>
        <time>2021-06-11T11:37:49Z</time>
      </trkpt>
      <trkpt lat="43.107000" lon="-1.701470">
        <ele>242.852</ele>
        <time>2021-06-11T11:37:50Z</time>
      </trkpt>
      <trkpt lat="43.107039" lon="-1.701342">
        <ele>242.357</ele>
        <time>2021-06-11T11:37:51Z</time>
      </trkpt>
      <trkpt lat="43.107088" lon="-1.701207">
        <ele>241.900</ele>
        <time>2021-06-11T11:37:52Z</time>
      </trkpt>
      <trkpt lat="43.107256" lon="-1.700695">
        <ele>239.920</ele>
        <time>2021-06-11T11:37:56Z</time>
      </trkpt>
      <trkpt lat="43.107278" lon="-1.700556">
        <ele>239.508</ele>
        <time>2021-06-11T11:37:57Z</time>
      </trkpt>
      <trkpt lat="43.107291" lon="-1.700425">
        <ele>239.032</ele>
        <time>2021-06-11T11:37:58Z</time>
      </trkpt>
      <trkpt lat="43.107293" lon="-1.700297">
        <ele>239.040</ele>
        <time>2021-06-11T11:37:59Z</time>
      </trkpt>
      <trkpt lat="43.107287" lon="-1.700161">
        <ele>238.590</ele>
        <time>2021-06-11T11:38:00Z</time>
      </trkpt>
      <trkpt lat="43.107270" lon="-1.700018">
        <ele>238.018</ele>
        <time>2021-06-11T11:38:01Z</time>
      </trkpt>
      <trkpt lat="43.107249" lon="-1.699885">
        <ele>237.546</ele>
        <time>2021-06-11T11:38:02Z</time>
      </trkpt>
      <trkpt lat="43.107120" lon="-1.699234">
        <ele>235.161</ele>
        <time>2021-06-11T11:38:07Z</time>
      </trkpt>
      <trkpt lat="43.107114" lon="-1.699102">
        <ele>234.740</ele>
        <time>2021-06-11T11:38:08Z</time>
      </trkpt>
      <trkpt lat="43.107133" lon="-1.698966">
        <ele>234.225</ele>
        <time>2021-06-11T11:38:09Z</time>
      </trkpt>
      <trkpt lat="43.107171" lon="-1.698844">
        <ele>233.716</ele>
        <time>2021-06-11T11:38:10Z</time>
      </trkpt>
      <trkpt lat="43.107220" lon="-1.698726">
        <ele>233.276</ele>
        <time>2021-06-11T11:38:11Z</time>
      </trkpt>
      <trkpt lat="43.107279" lon="-1.698606">
        <ele>233.213</ele>
        <time>2021-06-11T11:38:12Z</time>
      </trkpt>
      <trkpt lat="43.107336" lon="-1.698494">
        <ele>232.708</ele>
        <time>2021-06-11T11:38:13Z</time>
      </trkpt>
      <trkpt lat="43.107794" lon="-1.697716">
        <ele>227.938</ele>
        <time>2021-06-11T11:38:20Z</time>
      </trkpt>
      <trkpt lat="43.107838" lon="-1.697584">
        <ele>227.466</ele>
        <time>2021-06-11T11:38:21Z</time>
      </trkpt>
      <trkpt lat="43.107863" lon="-1.697446">
        <ele>226.586</ele>
        <time>2021-06-11T11:38:22Z</time>
      </trkpt>
      <trkpt lat="43.107862" lon="-1.697319">
        <ele>226.054</ele>
        <time>2021-06-11T11:38:23Z</time>
      </trkpt>
      <trkpt lat="43.107840" lon="-1.697189">
        <ele>225.062</ele>
        <time>2021-06-11T11:38:24Z</time>
      </trkpt>
      <trkpt lat="43.107800" lon="-1.697072">
        <ele>224.697</ele>
        <time>2021-06-11T11:38:25Z</time>
      </trkpt>
      <trkpt lat="43.107747" lon="-1.696961">
        <ele>224.166</ele>
        <time>2021-06-11T11:38:26Z</time>
      </trkpt>
      <trkpt lat="43.107693" lon="-1.696858">
        <ele>223.641</ele>
        <time>2021-06-11T11:38:27Z</time>
      </trkpt>
      <trkpt lat="43.107598" lon="-1.696646">
        <ele>222.651</ele>
        <time>2021-06-11T11:38:29Z</time>
      </trkpt>
      <trkpt lat="43.107570" lon="-1.696547">
        <ele>222.201</ele>
        <time>2021-06-11T11:38:30Z</time>
      </trkpt>
      <trkpt lat="43.107558" lon="-1.696440">
        <ele>221.711</ele>
        <time>2021-06-11T11:38:31Z</time>
      </trkpt>
      <trkpt lat="43.107570" lon="-1.696345">
        <ele>221.208</ele>
        <time>2021-06-11T11:38:32Z</time>
      </trkpt>
      <trkpt lat="43.107603" lon="-1.696261">
        <ele>220.742</ele>
        <time>2021-06-11T11:38:33Z</time>
      </trkpt>
      <trkpt lat="43.107654" lon="-1.696191">
        <ele>220.760</ele>
        <time>2021-06-11T11:38:34Z</time>
      </trkpt>
      <trkpt lat="43.107721" lon="-1.696137">
        <ele>220.270</ele>
        <time>2021-06-11T11:38:35Z</time>
      </trkpt>
      <trkpt lat="43.107793" lon="-1.696094">
        <ele>219.818</ele>
        <time>2021-06-11T11:38:36Z</time>
      </trkpt>
      <trkpt lat="43.107873" lon="-1.696036">
        <ele>219.326</ele>
        <time>2021-06-11T11:38:37Z</time>
      </trkpt>
      <trkpt lat="43.107940" lon="-1.695959">
        <ele>219.391</ele>
        <time>2021-06-11T11:38:38Z</time>
      </trkpt>
      <trkpt lat="43.107994" lon="-1.695862">
        <ele>218.840</ele>
        <time>2021-06-11T11:38:39Z</time>
      </trkpt>
      <trkpt lat="43.108040" lon="-1.695743">
        <ele>218.335</ele>
        <time>2021-06-11T11:38:40Z</time>
      </trkpt>
      <trkpt lat="43.108072" lon="-1.695631">
        <ele>217.457</ele>
        <time>2021-06-11T11:38:41Z</time>
      </trkpt>
      <trkpt lat="43.108096" lon="-1.695515">
        <ele>216.900</ele>
        <time>2021-06-11T11:38:42Z</time>
      </trkpt>
      <trkpt lat="43.108116" lon="-1.695385">
        <ele>216.420</ele>
        <time>2021-06-11T11:38:43Z</time>
      </trkpt>
      <trkpt lat="43.108219" lon="-1.694783">
        <ele>214.508</ele>
        <time>2021-06-11T11:38:48Z</time>
      </trkpt>
      <trkpt lat="43.108254" lon="-1.694667">
        <ele>214.072</ele>
        <time>2021-06-11T11:38:49Z</time>
      </trkpt>
      <trkpt lat="43.108428" lon="-1.694236">
        <ele>212.590</ele>
        <time>2021-06-11T11:38:53Z</time>
      </trkpt>
      <trkpt lat="43.108495" lon="-1.694142">
        <ele>212.130</ele>
        <time>2021-06-11T11:38:54Z</time>
      </trkpt>
      <trkpt lat="43.108639" lon="-1.693976">
        <ele>210.648</ele>
        <time>2021-06-11T11:38:56Z</time>
      </trkpt>
      <trkpt lat="43.108712" lon="-1.693918">
        <ele>210.166</ele>
        <time>2021-06-11T11:38:57Z</time>
      </trkpt>
      <trkpt lat="43.108863" lon="-1.693792">
        <ele>208.791</ele>
        <time>2021-06-11T11:38:59Z</time>
      </trkpt>
      <trkpt lat="43.108923" lon="-1.693704">
        <ele>208.260</ele>
        <time>2021-06-11T11:39:00Z</time>
      </trkpt>
      <trkpt lat="43.108972" lon="-1.693598">
        <ele>207.375</ele>
        <time>2021-06-11T11:39:01Z</time>
      </trkpt>
      <trkpt lat="43.109011" lon="-1.693475">
        <ele>206.849</ele>
        <time>2021-06-11T11:39:02Z</time>
      </trkpt>
      <trkpt lat="43.109030" lon="-1.693354">
        <ele>206.302</ele>
        <time>2021-06-11T11:39:03Z</time>
      </trkpt>
      <trkpt lat="43.109031" lon="-1.693234">
        <ele>205.822</ele>
        <time>2021-06-11T11:39:04Z</time>
      </trkpt>
      <trkpt lat="43.109024" lon="-1.693108">
        <ele>205.308</ele>
        <time>2021-06-11T11:39:05Z</time>
      </trkpt>
      <trkpt lat="43.109005" lon="-1.692346">
        <ele>202.411</ele>
        <time>2021-06-11T11:39:11Z</time>
      </trkpt>
      <trkpt lat="43.109002" lon="-1.691799">
        <ele>200.099</ele>
        <time>2021-06-11T11:39:15Z</time>
      </trkpt>
      <trkpt lat="43.108970" lon="-1.691666">
        <ele>199.169</ele>
        <time>2021-06-11T11:39:16Z</time>
      </trkpt>
      <trkpt lat="43.108924" lon="-1.691541">
        <ele>198.667</ele>
        <time>2021-06-11T11:39:17Z</time>
      </trkpt>
      <trkpt lat="43.108821" lon="-1.691299">
        <ele>196.745</ele>
        <time>2021-06-11T11:39:19Z</time>
      </trkpt>
      <trkpt lat="43.108759" lon="-1.691200">
        <ele>195.740</ele>
        <time>2021-06-11T11:39:20Z</time>
      </trkpt>
      <trkpt lat="43.108685" lon="-1.691121">
        <ele>194.849</ele>
        <time>2021-06-11T11:39:21Z</time>
      </trkpt>
      <trkpt lat="43.108599" lon="-1.691062">
        <ele>194.354</ele>
        <time>2021-06-11T11:39:22Z</time>
      </trkpt>
      <trkpt lat="43.108507" lon="-1.691028">
        <ele>193.331</ele>
        <time>2021-06-11T11:39:23Z</time>
      </trkpt>
      <trkpt lat="43.108414" lon="-1.691005">
        <ele>192.461</ele>
        <time>2021-06-11T11:39:24Z</time>
      </trkpt>
      <trkpt lat="43.107972" lon="-1.690946">
        <ele>190.007</ele>
        <time>2021-06-11T11:39:29Z</time>
      </trkpt>
      <trkpt lat="43.107378" lon="-1.690862">
        <ele>186.608</ele>
        <time>2021-06-11T11:39:36Z</time>
      </trkpt>
      <trkpt lat="43.107295" lon="-1.690822">
        <ele>186.180</ele>
        <time>2021-06-11T11:39:37Z</time>
      </trkpt>
      <trkpt lat="43.107215" lon="-1.690769">
        <ele>185.658</ele>
        <time>2021-06-11T11:39:38Z</time>
      </trkpt>
      <trkpt lat="43.107140" lon="-1.690707">
        <ele>185.138</ele>
        <time>2021-06-11T11:39:39Z</time>
      </trkpt>
      <trkpt lat="43.107065" lon="-1.690635">
        <ele>184.236</ele>
        <time>2021-06-11T11:39:40Z</time>
      </trkpt>
      <trkpt lat="43.106981" lon="-1.690540">
        <ele>183.724</ele>
        <time>2021-06-11T11:39:41Z</time>
      </trkpt>
      <trkpt lat="43.106924" lon="-1.690464">
        <ele>183.299</ele>
        <time>2021-06-11T11:39:42Z</time>
      </trkpt>
      <trkpt lat="43.106860" lon="-1.690366">
        <ele>183.248</ele>
        <time>2021-06-11T11:39:43Z</time>
      </trkpt>
      <trkpt lat="43.106802" lon="-1.690257">
        <ele>182.713</ele>
        <time>2021-06-11T11:39:44Z</time>
      </trkpt>
      <trkpt lat="43.106752" lon="-1.690141">
        <ele>182.724</ele>
        <time>2021-06-11T11:39:45Z</time>
      </trkpt>
      <trkpt lat="43.106712" lon="-1.690023">
        <ele>182.704</ele>
        <time>2021-06-11T11:39:46Z</time>
      </trkpt>
      <trkpt lat="43.106464" lon="-1.689385">
        <ele>180.814</ele>
        <time>2021-06-11T11:39:52Z</time>
      </trkpt>
      <trkpt lat="43.106369" lon="-1.689058">
        <ele>179.908</ele>
        <time>2021-06-11T11:39:55Z</time>
      </trkpt>
      <trkpt lat="43.106353" lon="-1.688933">
        <ele>179.469</ele>
        <time>2021-06-11T11:39:56Z</time>
      </trkpt>
      <trkpt lat="43.106286" lon="-1.688299">
        <ele>177.047</ele>
        <time>2021-06-11T11:40:01Z</time>
      </trkpt>
      <trkpt lat="43.106229" lon="-1.687874">
        <ele>174.617</ele>
        <time>2021-06-11T11:40:06Z</time>
      </trkpt>
      <trkpt lat="43.106134" lon="-1.686891">
        <ele>171.725</ele>
        <time>2021-06-11T11:40:17Z</time>
      </trkpt>
      <trkpt lat="43.106072" lon="-1.686520">
        <ele>170.273</ele>
        <time>2021-06-11T11:40:21Z</time>
      </trkpt>
      <trkpt lat="43.106039" lon="-1.686444">
        <ele>170.228</ele>
        <time>2021-06-11T11:40:22Z</time>
      </trkpt>
      <trkpt lat="43.105999" lon="-1.686384">
        <ele>169.847</ele>
        <time>2021-06-11T11:40:23Z</time>
      </trkpt>
      <trkpt lat="43.105907" lon="-1.686248">
        <ele>169.872</ele>
        <time>2021-06-11T11:40:27Z</time>
      </trkpt>
      <trkpt lat="43.105906" lon="-1.686221">
        <ele>169.825</ele>
        <time>2021-06-11T11:40:28Z</time>
      </trkpt>
      <trkpt lat="43.105922" lon="-1.686198">
        <ele>169.826</ele>
        <time>2021-06-11T11:40:29Z</time>
      </trkpt>
      <trkpt lat="43.105946" lon="-1.686187">
        <ele>169.808</ele>
        <time>2021-06-11T11:40:30Z</time>
      </trkpt>
      <trkpt lat="43.105961" lon="-1.686190">
        <ele>169.808</ele>
        <time>2021-06-11T11:40:31Z</time>
      </trkpt>
      <trkpt lat="43.105980" lon="-1.686203">
        <ele>169.879</ele>
        <time>2021-06-11T11:40:32Z</time>
      </trkpt>
      <trkpt lat="43.105998" lon="-1.686218">
        <ele>169.357</ele>
        <time>2021-06-11T11:40:33Z</time>
      </trkpt>
      <trkpt lat="43.106018" lon="-1.686234">
        <ele>169.387</ele>
        <time>2021-06-11T11:40:34Z</time>
      </trkpt>
      <trkpt lat="43.106035" lon="-1.686244">
        <ele>169.345</ele>
        <time>2021-06-11T11:40:35Z</time>
      </trkpt>
      <trkpt lat="43.106061" lon="-1.686251">
        <ele>169.343</ele>
        <time>2021-06-11T11:40:36Z</time>
      </trkpt>
      <trkpt lat="43.106091" lon="-1.686256">
        <ele>168.838</ele>
        <time>2021-06-11T11:40:37Z</time>
      </trkpt>
      <trkpt lat="43.106125" lon="-1.686258">
        <ele>168.847</ele>
        <time>2021-06-11T11:40:38Z</time>
      </trkpt>
      <trkpt lat="43.106167" lon="-1.686264">
        <ele>168.842</ele>
        <time>2021-06-11T11:40:39Z</time>
      </trkpt>
      <trkpt lat="43.106209" lon="-1.686275">
        <ele>168.828</ele>
        <time>2021-06-11T11:40:40Z</time>
      </trkpt>
      <trkpt lat="43.106255" lon="-1.686283">
        <ele>168.389</ele>
        <time>2021-06-11T11:40:41Z</time>
      </trkpt>
      <trkpt lat="43.106306" lon="-1.686286">
        <ele>167.817</ele>
        <time>2021-06-11T11:40:42Z</time>
      </trkpt>
      <trkpt lat="43.106785" lon="-1.686319">
        <ele>165.408</ele>
        <time>2021-06-11T11:40:50Z</time>
      </trkpt>
      <trkpt lat="43.107094" lon="-1.686352">
        <ele>165.099</ele>
        <time>2021-06-11T11:40:56Z</time>
      </trkpt>
      <trkpt lat="43.107138" lon="-1.686360">
        <ele>165.067</ele>
        <time>2021-06-11T11:40:57Z</time>
      </trkpt>
      <trkpt lat="43.107182" lon="-1.686366">
        <ele>165.067</ele>
        <time>2021-06-11T11:40:58Z</time>
      </trkpt>
      <trkpt lat="43.107460" lon="-1.686456">
        <ele>164.535</ele>
        <time>2021-06-11T11:41:06Z</time>
      </trkpt>
      <trkpt lat="43.107677" lon="-1.686565">
        <ele>165.473</ele>
        <time>2021-06-11T11:41:14Z</time>
      </trkpt>
      <trkpt lat="43.107874" lon="-1.686719">
        <ele>165.448</ele>
        <time>2021-06-11T11:41:24Z</time>
      </trkpt>
      <trkpt lat="43.108035" lon="-1.686824">
        <ele>165.477</ele>
        <time>2021-06-11T11:41:33Z</time>
      </trkpt>
      <trkpt lat="43.108073" lon="-1.686830">
        <ele>165.952</ele>
        <time>2021-06-11T11:41:40Z</time>
      </trkpt>
      <trkpt lat="43.108083" lon="-1.686835">
        <ele>165.957</ele>
        <time>2021-06-11T11:41:48Z</time>
      </trkpt>
      <trkpt lat="43.108127" lon="-1.686822">
        <ele>166.900</ele>
        <time>2021-06-11T11:41:53Z</time>
      </trkpt>
      <trkpt lat="43.108136" lon="-1.686812">
        <ele>167.420</ele>
        <time>2021-06-11T11:41:54Z</time>
      </trkpt>
      <trkpt lat="43.108222" lon="-1.686690">
        <ele>168.808</ele>
        <time>2021-06-11T11:42:05Z</time>
      </trkpt>
      <trkpt lat="43.108313" lon="-1.686586">
        <ele>171.292</ele>
        <time>2021-06-11T11:42:16Z</time>
      </trkpt>
      <trkpt lat="43.108394" lon="-1.686481">
        <ele>172.640</ele>
        <time>2021-06-11T11:42:27Z</time>
      </trkpt>
      <trkpt lat="43.108384" lon="-1.686476">
        <ele>171.740</ele>
        <time>2021-06-11T11:42:34Z</time>
      </trkpt>
      <trkpt lat="43.108433" lon="-1.686439">
        <ele>172.238</ele>
        <time>2021-06-11T11:42:41Z</time>
      </trkpt>
      <trkpt lat="43.108487" lon="-1.686361">
        <ele>173.146</ele>
        <time>2021-06-11T11:42:51Z</time>
      </trkpt>
      <trkpt lat="43.108496" lon="-1.686358">
        <ele>173.121</ele>
        <time>2021-06-11T11:43:02Z</time>
      </trkpt>
      <trkpt lat="43.108506" lon="-1.686364">
        <ele>173.110</ele>
        <time>2021-06-11T11:43:12Z</time>
      </trkpt>
      <trkpt lat="43.108558" lon="-1.686296">
        <ele>172.625</ele>
        <time>2021-06-11T11:43:21Z</time>
      </trkpt>
      <trkpt lat="43.108620" lon="-1.686230">
        <ele>176.097</ele>
        <time>2021-06-11T11:43:30Z</time>
      </trkpt>
      <trkpt lat="43.108716" lon="-1.686152">
        <ele>177.923</ele>
        <time>2021-06-11T11:43:41Z</time>
      </trkpt>
      <trkpt lat="43.108804" lon="-1.686117">
        <ele>178.425</ele>
        <time>2021-06-11T11:43:51Z</time>
      </trkpt>
      <trkpt lat="43.108815" lon="-1.686105">
        <ele>178.408</ele>
        <time>2021-06-11T11:43:58Z</time>
      </trkpt>
      <trkpt lat="43.108852" lon="-1.686089">
        <ele>177.956</ele>
        <time>2021-06-11T11:44:07Z</time>
      </trkpt>
      <trkpt lat="43.108988" lon="-1.686046">
        <ele>180.874</ele>
        <time>2021-06-11T11:44:20Z</time>
      </trkpt>
      <trkpt lat="43.109064" lon="-1.685963">
        <ele>182.344</ele>
        <time>2021-06-11T11:44:31Z</time>
      </trkpt>
      <trkpt lat="43.109067" lon="-1.685948">
        <ele>183.232</ele>
        <time>2021-06-11T11:44:41Z</time>
      </trkpt>
      <trkpt lat="43.109079" lon="-1.685925">
        <ele>184.760</ele>
        <time>2021-06-11T11:44:54Z</time>
      </trkpt>
      <trkpt lat="43.109083" lon="-1.685911">
        <ele>184.775</ele>
        <time>2021-06-11T11:44:55Z</time>
      </trkpt>
      <trkpt lat="43.109094" lon="-1.685893">
        <ele>184.734</ele>
        <time>2021-06-11T11:44:56Z</time>
      </trkpt>
      <trkpt lat="43.109105" lon="-1.685882">
        <ele>184.739</ele>
        <time>2021-06-11T11:44:57Z</time>
      </trkpt>
      <trkpt lat="43.109116" lon="-1.685871">
        <ele>184.795</ele>
        <time>2021-06-11T11:44:58Z</time>
      </trkpt>
      <trkpt lat="43.109128" lon="-1.685857">
        <ele>185.149</ele>
        <time>2021-06-11T11:44:59Z</time>
      </trkpt>
      <trkpt lat="43.109267" lon="-1.685734">
        <ele>185.123</ele>
        <time>2021-06-11T11:45:09Z</time>
      </trkpt>
      <trkpt lat="43.109391" lon="-1.685677">
        <ele>187.508</ele>
        <time>2021-06-11T11:45:17Z</time>
      </trkpt>
      <trkpt lat="43.109404" lon="-1.685684">
        <ele>188.076</ele>
        <time>2021-06-11T11:45:18Z</time>
      </trkpt>
      <trkpt lat="43.109416" lon="-1.685688">
        <ele>188.574</ele>
        <time>2021-06-11T11:45:19Z</time>
      </trkpt>
      <trkpt lat="43.109426" lon="-1.685694">
        <ele>189.044</ele>
        <time>2021-06-11T11:45:20Z</time>
      </trkpt>
      <trkpt lat="43.109434" lon="-1.685705">
        <ele>189.512</ele>
        <time>2021-06-11T11:45:21Z</time>
      </trkpt>
      <trkpt lat="43.109452" lon="-1.685737">
        <ele>189.510</ele>
        <time>2021-06-11T11:45:23Z</time>
      </trkpt>
      <trkpt lat="43.109459" lon="-1.685756">
        <ele>190.035</ele>
        <time>2021-06-11T11:45:24Z</time>
      </trkpt>
      <trkpt lat="43.109469" lon="-1.685774">
        <ele>190.444</ele>
        <time>2021-06-11T11:45:25Z</time>
      </trkpt>
      <trkpt lat="43.109481" lon="-1.685798">
        <ele>190.469</ele>
        <time>2021-06-11T11:45:26Z</time>
      </trkpt>
      <trkpt lat="43.109492" lon="-1.685814">
        <ele>190.414</ele>
        <time>2021-06-11T11:45:27Z</time>
      </trkpt>
      <trkpt lat="43.109621" lon="-1.685880">
        <ele>190.054</ele>
        <time>2021-06-11T11:45:36Z</time>
      </trkpt>
      <trkpt lat="43.109638" lon="-1.685879">
        <ele>190.409</ele>
        <time>2021-06-11T11:45:37Z</time>
      </trkpt>
      <trkpt lat="43.109656" lon="-1.685877">
        <ele>190.008</ele>
        <time>2021-06-11T11:45:38Z</time>
      </trkpt>
      <trkpt lat="43.109671" lon="-1.685879">
        <ele>190.448</ele>
        <time>2021-06-11T11:45:39Z</time>
      </trkpt>
      <trkpt lat="43.109687" lon="-1.685879">
        <ele>190.456</ele>
        <time>2021-06-11T11:45:40Z</time>
      </trkpt>
      <trkpt lat="43.109706" lon="-1.685875">
        <ele>190.456</ele>
        <time>2021-06-11T11:45:41Z</time>
      </trkpt>
      <trkpt lat="43.109726" lon="-1.685865">
        <ele>190.414</ele>
        <time>2021-06-11T11:45:42Z</time>
      </trkpt>
      <trkpt lat="43.109742" lon="-1.685850">
        <ele>190.042</ele>
        <time>2021-06-11T11:45:43Z</time>
      </trkpt>
      <trkpt lat="43.109754" lon="-1.685839">
        <ele>190.027</ele>
        <time>2021-06-11T11:45:44Z</time>
      </trkpt>
      <trkpt lat="43.109764" lon="-1.685830">
        <ele>190.076</ele>
        <time>2021-06-11T11:45:45Z</time>
      </trkpt>
      <trkpt lat="43.109773" lon="-1.685816">
        <ele>190.021</ele>
        <time>2021-06-11T11:45:46Z</time>
      </trkpt>
      <trkpt lat="43.109779" lon="-1.685798">
        <ele>190.077</ele>
        <time>2021-06-11T11:45:47Z</time>
      </trkpt>
      <trkpt lat="43.109781" lon="-1.685780">
        <ele>190.061</ele>
        <time>2021-06-11T11:45:48Z</time>
      </trkpt>
      <trkpt lat="43.109799" lon="-1.685732">
        <ele>190.027</ele>
        <time>2021-06-11T11:45:52Z</time>
      </trkpt>
      <trkpt lat="43.109810" lon="-1.685722">
        <ele>190.008</ele>
        <time>2021-06-11T11:45:53Z</time>
      </trkpt>
      <trkpt lat="43.109820" lon="-1.685708">
        <ele>190.014</ele>
        <time>2021-06-11T11:45:54Z</time>
      </trkpt>
      <trkpt lat="43.109837" lon="-1.685697">
        <ele>190.082</ele>
        <time>2021-06-11T11:45:55Z</time>
      </trkpt>
      <trkpt lat="43.109849" lon="-1.685686">
        <ele>190.432</ele>
        <time>2021-06-11T11:45:56Z</time>
      </trkpt>
      <trkpt lat="43.109862" lon="-1.685674">
        <ele>190.460</ele>
        <time>2021-06-11T11:45:57Z</time>
      </trkpt>
      <trkpt lat="43.109950" lon="-1.685534">
        <ele>190.058</ele>
        <time>2021-06-11T11:46:05Z</time>
      </trkpt>
      <trkpt lat="43.110116" lon="-1.685270">
        <ele>188.573</ele>
        <time>2021-06-11T11:46:15Z</time>
      </trkpt>
      <trkpt lat="43.110293" lon="-1.685034">
        <ele>187.192</ele>
        <time>2021-06-11T11:46:23Z</time>
      </trkpt>
      <trkpt lat="43.110565" lon="-1.684631">
        <ele>184.237</ele>
        <time>2021-06-11T11:46:33Z</time>
      </trkpt>
      <trkpt lat="43.110640" lon="-1.684539">
        <ele>183.748</ele>
        <time>2021-06-11T11:46:35Z</time>
      </trkpt>
      <trkpt lat="43.110684" lon="-1.684494">
        <ele>183.261</ele>
        <time>2021-06-11T11:46:36Z</time>
      </trkpt>
      <trkpt lat="43.110732" lon="-1.684453">
        <ele>182.717</ele>
        <time>2021-06-11T11:46:37Z</time>
      </trkpt>
      <trkpt lat="43.110931" lon="-1.684317">
        <ele>181.308</ele>
        <time>2021-06-11T11:46:41Z</time>
      </trkpt>
      <trkpt lat="43.111031" lon="-1.684276">
        <ele>180.341</ele>
        <time>2021-06-11T11:46:43Z</time>
      </trkpt>
      <trkpt lat="43.111082" lon="-1.684264">
        <ele>179.949</ele>
        <time>2021-06-11T11:46:44Z</time>
      </trkpt>
      <trkpt lat="43.111136" lon="-1.684259">
        <ele>178.999</ele>
        <time>2021-06-11T11:46:45Z</time>
      </trkpt>
      <trkpt lat="43.111300" lon="-1.684246">
        <ele>177.977</ele>
        <time>2021-06-11T11:46:48Z</time>
      </trkpt>
      <trkpt lat="43.111343" lon="-1.684224">
        <ele>177.975</ele>
        <time>2021-06-11T11:46:49Z</time>
      </trkpt>
      <trkpt lat="43.111393" lon="-1.684186">
        <ele>177.980</ele>
        <time>2021-06-11T11:46:50Z</time>
      </trkpt>
      <trkpt lat="43.111413" lon="-1.684165">
        <ele>177.949</ele>
        <time>2021-06-11T11:46:51Z</time>
      </trkpt>
      <trkpt lat="43.111441" lon="-1.684135">
        <ele>177.974</ele>
        <time>2021-06-11T11:46:52Z</time>
      </trkpt>
      <trkpt lat="43.111469" lon="-1.684096">
        <ele>177.953</ele>
        <time>2021-06-11T11:46:53Z</time>
      </trkpt>
      <trkpt lat="43.111491" lon="-1.684069">
        <ele>177.904</ele>
        <time>2021-06-11T11:46:54Z</time>
      </trkpt>
      <trkpt lat="43.111514" lon="-1.684043">
        <ele>177.514</ele>
        <time>2021-06-11T11:46:55Z</time>
      </trkpt>
      <trkpt lat="43.111658" lon="-1.683886">
        <ele>178.408</ele>
        <time>2021-06-11T11:47:01Z</time>
      </trkpt>
      <trkpt lat="43.111750" lon="-1.683791">
        <ele>177.982</ele>
        <time>2021-06-11T11:47:04Z</time>
      </trkpt>
      <trkpt lat="43.111851" lon="-1.683670">
        <ele>176.550</ele>
        <time>2021-06-11T11:47:07Z</time>
      </trkpt>
      <trkpt lat="43.112091" lon="-1.683369">
        <ele>173.680</ele>
        <time>2021-06-11T11:47:12Z</time>
      </trkpt>
      <trkpt lat="43.112417" lon="-1.683086">
        <ele>169.338</ele>
        <time>2021-06-11T11:47:17Z</time>
      </trkpt>
      <trkpt lat="43.112470" lon="-1.683032">
        <ele>168.386</ele>
        <time>2021-06-11T11:47:18Z</time>
      </trkpt>
      <trkpt lat="43.112509" lon="-1.682971">
        <ele>167.841</ele>
        <time>2021-06-11T11:47:19Z</time>
      </trkpt>
      <trkpt lat="43.112532" lon="-1.682899">
        <ele>166.950</ele>
        <time>2021-06-11T11:47:20Z</time>
      </trkpt>
      <trkpt lat="43.112535" lon="-1.682837">
        <ele>166.425</ele>
        <time>2021-06-11T11:47:21Z</time>
      </trkpt>
      <trkpt lat="43.112526" lon="-1.682791">
        <ele>165.917</ele>
        <time>2021-06-11T11:47:22Z</time>
      </trkpt>
      <trkpt lat="43.112516" lon="-1.682748">
        <ele>165.487</ele>
        <time>2021-06-11T11:47:23Z</time>
      </trkpt>
      <trkpt lat="43.112507" lon="-1.682646">
        <ele>163.515</ele>
        <time>2021-06-11T11:47:26Z</time>
      </trkpt>
      <trkpt lat="43.112499" lon="-1.682620">
        <ele>163.508</ele>
        <time>2021-06-11T11:47:27Z</time>
      </trkpt>
      <trkpt lat="43.112493" lon="-1.682598">
        <ele>163.028</ele>
        <time>2021-06-11T11:47:28Z</time>
      </trkpt>
      <trkpt lat="43.112483" lon="-1.682582">
        <ele>162.176</ele>
        <time>2021-06-11T11:47:33Z</time>
      </trkpt>
      <trkpt lat="43.112488" lon="-1.682583">
        <ele>160.226</ele>
        <time>2021-06-11T11:47:45Z</time>
      </trkpt>
      <trkpt lat="43.112489" lon="-1.682552">
        <ele>159.734</ele>
        <time>2021-06-11T11:47:47Z</time>
      </trkpt>
      <trkpt lat="43.112485" lon="-1.682520">
        <ele>159.272</ele>
        <time>2021-06-11T11:47:48Z</time>
      </trkpt>
      <trkpt lat="43.112474" lon="-1.682208">
        <ele>158.247</ele>
        <time>2021-06-11T11:47:55Z</time>
      </trkpt>
      <trkpt lat="43.112477" lon="-1.681900">
        <ele>157.786</ele>
        <time>2021-06-11T11:48:04Z</time>
      </trkpt>
      <trkpt lat="43.112506" lon="-1.681572">
        <ele>159.281</ele>
        <time>2021-06-11T11:48:13Z</time>
      </trkpt>
      <trkpt lat="43.112514" lon="-1.681344">
        <ele>161.618</ele>
        <time>2021-06-11T11:48:22Z</time>
      </trkpt>
      <trkpt lat="43.112526" lon="-1.681323">
        <ele>162.198</ele>
        <time>2021-06-11T11:48:24Z</time>
      </trkpt>
      <trkpt lat="43.112544" lon="-1.681304">
        <ele>161.617</ele>
        <time>2021-06-11T11:48:30Z</time>
      </trkpt>
      <trkpt lat="43.112552" lon="-1.681299">
        <ele>162.108</ele>
        <time>2021-06-11T11:48:41Z</time>
      </trkpt>
      <trkpt lat="43.112550" lon="-1.681300">
        <ele>161.658</ele>
        <time>2021-06-11T11:48:57Z</time>
      </trkpt>
      <trkpt lat="43.112548" lon="-1.681304">
        <ele>161.636</ele>
        <time>2021-06-11T11:49:15Z</time>
      </trkpt>
      <trkpt lat="43.112544" lon="-1.681310">
        <ele>160.216</ele>
        <time>2021-06-11T11:49:32Z</time>
      </trkpt>
      <trkpt lat="43.112552" lon="-1.681299">
        <ele>160.264</ele>
        <time>2021-06-11T11:49:44Z</time>
      </trkpt>
      <trkpt lat="43.112578" lon="-1.681248">
        <ele>160.242</ele>
        <time>2021-06-11T11:49:47Z</time>
      </trkpt>
      <trkpt lat="43.112578" lon="-1.681222">
        <ele>160.287</ele>
        <time>2021-06-11T11:49:48Z</time>
      </trkpt>
      <trkpt lat="43.112581" lon="-1.681204">
        <ele>160.256</ele>
        <time>2021-06-11T11:49:49Z</time>
      </trkpt>
      <trkpt lat="43.112596" lon="-1.681165">
        <ele>160.611</ele>
        <time>2021-06-11T11:49:51Z</time>
      </trkpt>
      <trkpt lat="43.112625" lon="-1.681126">
        <ele>160.636</ele>
        <time>2021-06-11T11:49:52Z</time>
      </trkpt>
      <trkpt lat="43.112647" lon="-1.681100">
        <ele>161.117</ele>
        <time>2021-06-11T11:49:53Z</time>
      </trkpt>
      <trkpt lat="43.112873" lon="-1.680967">
        <ele>159.718</ele>
        <time>2021-06-11T11:50:00Z</time>
      </trkpt>
      <trkpt lat="43.113098" lon="-1.680989">
        <ele>158.708</ele>
        <time>2021-06-11T11:50:06Z</time>
      </trkpt>
      <trkpt lat="43.113372" lon="-1.681012">
        <ele>159.240</ele>
        <time>2021-06-11T11:50:14Z</time>
      </trkpt>
      <trkpt lat="43.113563" lon="-1.681035">
        <ele>160.698</ele>
        <time>2021-06-11T11:50:20Z</time>
      </trkpt>
      <trkpt lat="43.113816" lon="-1.681020">
        <ele>161.648</ele>
        <time>2021-06-11T11:50:28Z</time>
      </trkpt>
      <trkpt lat="43.114082" lon="-1.680896">
        <ele>161.676</ele>
        <time>2021-06-11T11:50:36Z</time>
      </trkpt>
      <trkpt lat="43.114426" lon="-1.680753">
        <ele>162.684</ele>
        <time>2021-06-11T11:50:47Z</time>
      </trkpt>
      <trkpt lat="43.114713" lon="-1.680612">
        <ele>162.169</ele>
        <time>2021-06-11T11:50:56Z</time>
      </trkpt>
      <trkpt lat="43.115052" lon="-1.680430">
        <ele>161.678</ele>
        <time>2021-06-11T11:51:06Z</time>
      </trkpt>
      <trkpt lat="43.115193" lon="-1.680328">
        <ele>161.673</ele>
        <time>2021-06-11T11:51:10Z</time>
      </trkpt>
      <trkpt lat="43.115494" lon="-1.680089">
        <ele>160.643</ele>
        <time>2021-06-11T11:51:17Z</time>
      </trkpt>
      <trkpt lat="43.115731" lon="-1.679868">
        <ele>159.264</ele>
        <time>2021-06-11T11:51:22Z</time>
      </trkpt>
      <trkpt lat="43.115773" lon="-1.679804">
        <ele>158.710</ele>
        <time>2021-06-11T11:51:23Z</time>
      </trkpt>
      <trkpt lat="43.115816" lon="-1.679729">
        <ele>158.208</ele>
        <time>2021-06-11T11:51:24Z</time>
      </trkpt>
      <trkpt lat="43.116047" lon="-1.679204">
        <ele>155.331</ele>
        <time>2021-06-11T11:51:30Z</time>
      </trkpt>
      <trkpt lat="43.116079" lon="-1.679094">
        <ele>154.999</ele>
        <time>2021-06-11T11:51:31Z</time>
      </trkpt>
      <trkpt lat="43.116097" lon="-1.678990">
        <ele>154.469</ele>
        <time>2021-06-11T11:51:32Z</time>
      </trkpt>
      <trkpt lat="43.116134" lon="-1.678332">
        <ele>152.597</ele>
        <time>2021-06-11T11:51:38Z</time>
      </trkpt>
      <trkpt lat="43.116248" lon="-1.677560">
        <ele>149.635</ele>
        <time>2021-06-11T11:51:45Z</time>
      </trkpt>
      <trkpt lat="43.116283" lon="-1.677453">
        <ele>149.150</ele>
        <time>2021-06-11T11:51:46Z</time>
      </trkpt>
      <trkpt lat="43.116324" lon="-1.677361">
        <ele>149.149</ele>
        <time>2021-06-11T11:51:47Z</time>
      </trkpt>
      <trkpt lat="43.116374" lon="-1.677278">
        <ele>149.194</ele>
        <time>2021-06-11T11:51:48Z</time>
      </trkpt>
      <trkpt lat="43.116432" lon="-1.677205">
        <ele>148.676</ele>
        <time>2021-06-11T11:51:49Z</time>
      </trkpt>
      <trkpt lat="43.116499" lon="-1.677145">
        <ele>148.690</ele>
        <time>2021-06-11T11:51:50Z</time>
      </trkpt>
      <trkpt lat="43.116556" lon="-1.677110">
        <ele>148.619</ele>
        <time>2021-06-11T11:51:51Z</time>
      </trkpt>
      <trkpt lat="43.116618" lon="-1.677086">
        <ele>148.608</ele>
        <time>2021-06-11T11:51:52Z</time>
      </trkpt>
      <trkpt lat="43.116676" lon="-1.677074">
        <ele>148.644</ele>
        <time>2021-06-11T11:51:53Z</time>
      </trkpt>
      <trkpt lat="43.117037" lon="-1.677017">
        <ele>150.142</ele>
        <time>2021-06-11T11:52:00Z</time>
      </trkpt>
      <trkpt lat="43.117309" lon="-1.676962">
        <ele>151.032</ele>
        <time>2021-06-11T11:52:07Z</time>
      </trkpt>
      <trkpt lat="43.117739" lon="-1.676866">
        <ele>151.090</ele>
        <time>2021-06-11T11:52:18Z</time>
      </trkpt>
      <trkpt lat="43.118069" lon="-1.676799">
        <ele>151.078</ele>
        <time>2021-06-11T11:52:27Z</time>
      </trkpt>
      <trkpt lat="43.118390" lon="-1.676801">
        <ele>151.043</ele>
        <time>2021-06-11T11:52:35Z</time>
      </trkpt>
      <trkpt lat="43.118643" lon="-1.676834">
        <ele>151.512</ele>
        <time>2021-06-11T11:52:42Z</time>
      </trkpt>
      <trkpt lat="43.118898" lon="-1.676858">
        <ele>151.047</ele>
        <time>2021-06-11T11:52:49Z</time>
      </trkpt>
      <trkpt lat="43.119280" lon="-1.676895">
        <ele>151.067</ele>
        <time>2021-06-11T11:52:59Z</time>
      </trkpt>
      <trkpt lat="43.119361" lon="-1.676896">
        <ele>151.081</ele>
        <time>2021-06-11T11:53:01Z</time>
      </trkpt>
      <trkpt lat="43.119754" lon="-1.676900">
        <ele>150.519</ele>
        <time>2021-06-11T11:53:11Z</time>
      </trkpt>
      <trkpt lat="43.120053" lon="-1.676910">
        <ele>149.608</ele>
        <time>2021-06-11T11:53:18Z</time>
      </trkpt>
      <trkpt lat="43.120452" lon="-1.676936">
        <ele>149.663</ele>
        <time>2021-06-11T11:53:28Z</time>
      </trkpt>
      <trkpt lat="43.120763" lon="-1.677000">
        <ele>151.031</ele>
        <time>2021-06-11T11:53:37Z</time>
      </trkpt>
      <trkpt lat="43.120995" lon="-1.677112">
        <ele>151.591</ele>
        <time>2021-06-11T11:53:45Z</time>
      </trkpt>
      <trkpt lat="43.121164" lon="-1.677275">
        <ele>152.099</ele>
        <time>2021-06-11T11:53:52Z</time>
      </trkpt>
      <trkpt lat="43.121197" lon="-1.677311">
        <ele>152.967</ele>
        <time>2021-06-11T11:53:56Z</time>
      </trkpt>
      <trkpt lat="43.121191" lon="-1.677316">
        <ele>152.962</ele>
        <time>2021-06-11T11:54:10Z</time>
      </trkpt>
      <trkpt lat="43.121199" lon="-1.677323">
        <ele>153.491</ele>
        <time>2021-06-11T11:54:16Z</time>
      </trkpt>
      <trkpt lat="43.121207" lon="-1.677334">
        <ele>153.446</ele>
        <time>2021-06-11T11:54:17Z</time>
      </trkpt>
      <trkpt lat="43.121215" lon="-1.677346">
        <ele>153.475</ele>
        <time>2021-06-11T11:54:18Z</time>
      </trkpt>
      <trkpt lat="43.121249" lon="-1.677376">
        <ele>154.428</ele>
        <time>2021-06-11T11:54:25Z</time>
      </trkpt>
      <trkpt lat="43.121246" lon="-1.677371">
        <ele>153.420</ele>
        <time>2021-06-11T11:54:37Z</time>
      </trkpt>
      <trkpt lat="43.121248" lon="-1.677374">
        <ele>153.408</ele>
        <time>2021-06-11T11:54:57Z</time>
      </trkpt>
      <trkpt lat="43.121240" lon="-1.677399">
        <ele>153.434</ele>
        <time>2021-06-11T11:55:14Z</time>
      </trkpt>
      <trkpt lat="43.121250" lon="-1.677406">
        <ele>152.512</ele>
        <time>2021-06-11T11:55:26Z</time>
      </trkpt>
      <trkpt lat="43.121247" lon="-1.677396">
        <ele>153.452</ele>
        <time>2021-06-11T11:55:37Z</time>
      </trkpt>
      <trkpt lat="43.121254" lon="-1.677412">
        <ele>153.910</ele>
        <time>2021-06-11T11:55:45Z</time>
      </trkpt>
      <trkpt lat="43.121286" lon="-1.677442">
        <ele>153.968</ele>
        <time>2021-06-11T11:55:49Z</time>
      </trkpt>
      <trkpt lat="43.121298" lon="-1.677458">
        <ele>153.943</ele>
        <time>2021-06-11T11:55:50Z</time>
      </trkpt>
      <trkpt lat="43.121312" lon="-1.677480">
        <ele>154.452</ele>
        <time>2021-06-11T11:55:51Z</time>
      </trkpt>
      <trkpt lat="43.121328" lon="-1.677501">
        <ele>154.467</ele>
        <time>2021-06-11T11:55:52Z</time>
      </trkpt>
      <trkpt lat="43.121344" lon="-1.677517">
        <ele>154.494</ele>
        <time>2021-06-11T11:55:53Z</time>
      </trkpt>
      <trkpt lat="43.121365" lon="-1.677534">
        <ele>154.457</ele>
        <time>2021-06-11T11:55:54Z</time>
      </trkpt>
      <trkpt lat="43.121497" lon="-1.677661">
        <ele>154.922</ele>
        <time>2021-06-11T11:56:01Z</time>
      </trkpt>
      <trkpt lat="43.121745" lon="-1.677821">
        <ele>154.408</ele>
        <time>2021-06-11T11:56:10Z</time>
      </trkpt>
      <trkpt lat="43.121957" lon="-1.677865">
        <ele>153.956</ele>
        <time>2021-06-11T11:56:17Z</time>
      </trkpt>
      <trkpt lat="43.122261" lon="-1.677833">
        <ele>154.464</ele>
        <time>2021-06-11T11:56:25Z</time>
      </trkpt>
      <trkpt lat="43.122631" lon="-1.677788">
        <ele>153.454</ele>
        <time>2021-06-11T11:56:32Z</time>
      </trkpt>
      <trkpt lat="43.123064" lon="-1.677730">
        <ele>152.022</ele>
        <time>2021-06-11T11:56:39Z</time>
      </trkpt>
      <trkpt lat="43.123132" lon="-1.677715">
        <ele>152.050</ele>
        <time>2021-06-11T11:56:40Z</time>
      </trkpt>
      <trkpt lat="43.123281" lon="-1.677661">
        <ele>151.525</ele>
        <time>2021-06-11T11:56:42Z</time>
      </trkpt>
      <trkpt lat="43.123342" lon="-1.677624">
        <ele>151.064</ele>
        <time>2021-06-11T11:56:43Z</time>
      </trkpt>
      <trkpt lat="43.123414" lon="-1.677564">
        <ele>151.049</ele>
        <time>2021-06-11T11:56:44Z</time>
      </trkpt>
      <trkpt lat="43.123482" lon="-1.677497">
        <ele>150.591</ele>
        <time>2021-06-11T11:56:45Z</time>
      </trkpt>
      <trkpt lat="43.123542" lon="-1.677432">
        <ele>150.181</ele>
        <time>2021-06-11T11:56:46Z</time>
      </trkpt>
      <trkpt lat="43.124113" lon="-1.676938">
        <ele>145.719</ele>
        <time>2021-06-11T11:56:54Z</time>
      </trkpt>
      <trkpt lat="43.124634" lon="-1.676582">
        <ele>142.408</ele>
        <time>2021-06-11T11:57:00Z</time>
      </trkpt>
      <trkpt lat="43.125319" lon="-1.676118">
        <ele>140.496</ele>
        <time>2021-06-11T11:57:08Z</time>
      </trkpt>
      <trkpt lat="43.125632" lon="-1.675944">
        <ele>141.414</ele>
        <time>2021-06-11T11:57:13Z</time>
      </trkpt>
      <trkpt lat="43.125675" lon="-1.675938">
        <ele>141.484</ele>
        <time>2021-06-11T11:57:14Z</time>
      </trkpt>
      <trkpt lat="43.125715" lon="-1.675937">
        <ele>141.462</ele>
        <time>2021-06-11T11:57:15Z</time>
      </trkpt>
      <trkpt lat="43.125979" lon="-1.675994">
        <ele>144.390</ele>
        <time>2021-06-11T11:57:23Z</time>
      </trkpt>
      <trkpt lat="43.126205" lon="-1.676074">
        <ele>147.275</ele>
        <time>2021-06-11T11:57:31Z</time>
      </trkpt>
      <trkpt lat="43.126434" lon="-1.676056">
        <ele>149.184</ele>
        <time>2021-06-11T11:57:39Z</time>
      </trkpt>
      <trkpt lat="43.126642" lon="-1.675895">
        <ele>151.549</ele>
        <time>2021-06-11T11:57:48Z</time>
      </trkpt>
      <trkpt lat="43.126776" lon="-1.675676">
        <ele>152.552</ele>
        <time>2021-06-11T11:57:55Z</time>
      </trkpt>
      <trkpt lat="43.126905" lon="-1.675354">
        <ele>152.053</ele>
        <time>2021-06-11T11:58:04Z</time>
      </trkpt>
      <trkpt lat="43.127014" lon="-1.674944">
        <ele>150.508</ele>
        <time>2021-06-11T11:58:14Z</time>
      </trkpt>
      <trkpt lat="43.127068" lon="-1.674440">
        <ele>149.108</ele>
        <time>2021-06-11T11:58:23Z</time>
      </trkpt>
      <trkpt lat="43.127062" lon="-1.673813">
        <ele>147.712</ele>
        <time>2021-06-11T11:58:33Z</time>
      </trkpt>
      <trkpt lat="43.126999" lon="-1.673204">
        <ele>145.760</ele>
        <time>2021-06-11T11:58:44Z</time>
      </trkpt>
      <trkpt lat="43.126988" lon="-1.673071">
        <ele>145.330</ele>
        <time>2021-06-11T11:58:46Z</time>
      </trkpt>
      <trkpt lat="43.126994" lon="-1.673013">
        <ele>144.818</ele>
        <time>2021-06-11T11:58:47Z</time>
      </trkpt>
      <trkpt lat="43.127006" lon="-1.672942">
        <ele>144.816</ele>
        <time>2021-06-11T11:58:48Z</time>
      </trkpt>
      <trkpt lat="43.127027" lon="-1.672879">
        <ele>144.861</ele>
        <time>2021-06-11T11:58:49Z</time>
      </trkpt>
      <trkpt lat="43.127059" lon="-1.672818">
        <ele>144.370</ele>
        <time>2021-06-11T11:58:50Z</time>
      </trkpt>
      <trkpt lat="43.127098" lon="-1.672768">
        <ele>144.325</ele>
        <time>2021-06-11T11:58:51Z</time>
      </trkpt>
      <trkpt lat="43.127149" lon="-1.672717">
        <ele>143.856</ele>
        <time>2021-06-11T11:58:52Z</time>
      </trkpt>
      <trkpt lat="43.127194" lon="-1.672673">
        <ele>143.859</ele>
        <time>2021-06-11T11:58:53Z</time>
      </trkpt>
      <trkpt lat="43.127240" lon="-1.672622">
        <ele>143.314</ele>
        <time>2021-06-11T11:58:54Z</time>
      </trkpt>
      <trkpt lat="43.127326" lon="-1.672499">
        <ele>142.808</ele>
        <time>2021-06-11T11:58:56Z</time>
      </trkpt>
      <trkpt lat="43.127363" lon="-1.672414">
        <ele>142.422</ele>
        <time>2021-06-11T11:58:57Z</time>
      </trkpt>
      <trkpt lat="43.127392" lon="-1.672327">
        <ele>142.470</ele>
        <time>2021-06-11T11:58:58Z</time>
      </trkpt>
      <trkpt lat="43.127609" lon="-1.671547">
        <ele>138.510</ele>
        <time>2021-06-11T11:59:06Z</time>
      </trkpt>
      <trkpt lat="43.127640" lon="-1.671470">
        <ele>138.018</ele>
        <time>2021-06-11T11:59:07Z</time>
      </trkpt>
      <trkpt lat="43.127686" lon="-1.671382">
        <ele>137.656</ele>
        <time>2021-06-11T11:59:08Z</time>
      </trkpt>
      <trkpt lat="43.127732" lon="-1.671306">
        <ele>137.191</ele>
        <time>2021-06-11T11:59:09Z</time>
      </trkpt>
      <trkpt lat="43.127790" lon="-1.671230">
        <ele>136.640</ele>
        <time>2021-06-11T11:59:10Z</time>
      </trkpt>
      <trkpt lat="43.127851" lon="-1.671160">
        <ele>135.675</ele>
        <time>2021-06-11T11:59:11Z</time>
      </trkpt>
      <trkpt lat="43.128253" lon="-1.670783">
        <ele>132.399</ele>
        <time>2021-06-11T11:59:17Z</time>
      </trkpt>
      <trkpt lat="43.128316" lon="-1.670711">
        <ele>131.807</ele>
        <time>2021-06-11T11:59:18Z</time>
      </trkpt>
      <trkpt lat="43.128373" lon="-1.670634">
        <ele>131.327</ele>
        <time>2021-06-11T11:59:19Z</time>
      </trkpt>
      <trkpt lat="43.128608" lon="-1.670334">
        <ele>129.908</ele>
        <time>2021-06-11T11:59:23Z</time>
      </trkpt>
      <trkpt lat="43.128667" lon="-1.670281">
        <ele>129.966</ele>
        <time>2021-06-11T11:59:24Z</time>
      </trkpt>
      <trkpt lat="43.129060" lon="-1.669993">
        <ele>127.084</ele>
        <time>2021-06-11T11:59:30Z</time>
      </trkpt>
      <trkpt lat="43.129129" lon="-1.669961">
        <ele>127.054</ele>
        <time>2021-06-11T11:59:31Z</time>
      </trkpt>
      <trkpt lat="43.129201" lon="-1.669938">
        <ele>126.562</ele>
        <time>2021-06-11T11:59:32Z</time>
      </trkpt>
      <trkpt lat="43.129279" lon="-1.669925">
        <ele>126.080</ele>
        <time>2021-06-11T11:59:33Z</time>
      </trkpt>
      <trkpt lat="43.129347" lon="-1.669922">
        <ele>125.585</ele>
        <time>2021-06-11T11:59:34Z</time>
      </trkpt>
      <trkpt lat="43.129420" lon="-1.669924">
        <ele>125.184</ele>
        <time>2021-06-11T11:59:35Z</time>
      </trkpt>
      <trkpt lat="43.129543" lon="-1.669938">
        <ele>125.169</ele>
        <time>2021-06-11T11:59:37Z</time>
      </trkpt>
      <trkpt lat="43.129599" lon="-1.669956">
        <ele>124.638</ele>
        <time>2021-06-11T11:59:38Z</time>
      </trkpt>
      <trkpt lat="43.129646" lon="-1.669980">
        <ele>124.670</ele>
        <time>2021-06-11T11:59:39Z</time>
      </trkpt>
      <trkpt lat="43.129844" lon="-1.670105">
        <ele>124.117</ele>
        <time>2021-06-11T11:59:45Z</time>
      </trkpt>
      <trkpt lat="43.129864" lon="-1.670113">
        <ele>124.608</ele>
        <time>2021-06-11T11:59:50Z</time>
      </trkpt>
      <trkpt lat="43.129857" lon="-1.670119">
        <ele>125.510</ele>
        <time>2021-06-11T12:00:03Z</time>
      </trkpt>
      <trkpt lat="43.129874" lon="-1.670138">
        <ele>126.568</ele>
        <time>2021-06-11T12:00:14Z</time>
      </trkpt>
      <trkpt lat="43.129884" lon="-1.670153">
        <ele>126.558</ele>
        <time>2021-06-11T12:00:15Z</time>
      </trkpt>
      <trkpt lat="43.129898" lon="-1.670173">
        <ele>127.086</ele>
        <time>2021-06-11T12:00:16Z</time>
      </trkpt>
      <trkpt lat="43.129919" lon="-1.670187">
        <ele>127.584</ele>
        <time>2021-06-11T12:00:17Z</time>
      </trkpt>
      <trkpt lat="43.129942" lon="-1.670201">
        <ele>127.969</ele>
        <time>2021-06-11T12:00:18Z</time>
      </trkpt>
      <trkpt lat="43.129974" lon="-1.670221">
        <ele>127.998</ele>
        <time>2021-06-11T12:00:19Z</time>
      </trkpt>
      <trkpt lat="43.130261" lon="-1.670439">
        <ele>128.453</ele>
        <time>2021-06-11T12:00:28Z</time>
      </trkpt>
      <trkpt lat="43.130625" lon="-1.670675">
        <ele>128.444</ele>
        <time>2021-06-11T12:00:38Z</time>
      </trkpt>
      <trkpt lat="43.130839" lon="-1.670848">
        <ele>128.405</ele>
        <time>2021-06-11T12:00:44Z</time>
      </trkpt>
      <trkpt lat="43.130870" lon="-1.670885">
        <ele>128.415</ele>
        <time>2021-06-11T12:00:45Z</time>
      </trkpt>
      <trkpt lat="43.130903" lon="-1.670933">
        <ele>128.408</ele>
        <time>2021-06-11T12:00:46Z</time>
      </trkpt>
      <trkpt lat="43.130984" lon="-1.671060">
        <ele>128.991</ele>
        <time>2021-06-11T12:00:49Z</time>
      </trkpt>
      <trkpt lat="43.131011" lon="-1.671105">
        <ele>128.969</ele>
        <time>2021-06-11T12:00:50Z</time>
      </trkpt>
      <trkpt lat="43.131034" lon="-1.671143">
        <ele>128.929</ele>
        <time>2021-06-11T12:00:51Z</time>
      </trkpt>
      <trkpt lat="43.131060" lon="-1.671184">
        <ele>128.997</ele>
        <time>2021-06-11T12:00:52Z</time>
      </trkpt>
      <trkpt lat="43.131091" lon="-1.671222">
        <ele>128.445</ele>
        <time>2021-06-11T12:00:53Z</time>
      </trkpt>
      <trkpt lat="43.131125" lon="-1.671260">
        <ele>128.440</ele>
        <time>2021-06-11T12:00:54Z</time>
      </trkpt>
      <trkpt lat="43.131154" lon="-1.671291">
        <ele>128.429</ele>
        <time>2021-06-11T12:00:55Z</time>
      </trkpt>
      <trkpt lat="43.131348" lon="-1.671412">
        <ele>128.494</ele>
        <time>2021-06-11T12:01:01Z</time>
      </trkpt>
      <trkpt lat="43.131543" lon="-1.671404">
        <ele>130.476</ele>
        <time>2021-06-11T12:01:08Z</time>
      </trkpt>
      <trkpt lat="43.131685" lon="-1.671241">
        <ele>130.490</ele>
        <time>2021-06-11T12:01:13Z</time>
      </trkpt>
      <trkpt lat="43.131846" lon="-1.670908">
        <ele>128.919</ele>
        <time>2021-06-11T12:01:20Z</time>
      </trkpt>
      <trkpt lat="43.131923" lon="-1.670511">
        <ele>128.908</ele>
        <time>2021-06-11T12:01:28Z</time>
      </trkpt>
      <trkpt lat="43.132058" lon="-1.670106">
        <ele>130.874</ele>
        <time>2021-06-11T12:01:37Z</time>
      </trkpt>
      <trkpt lat="43.132190" lon="-1.669635">
        <ele>129.442</ele>
        <time>2021-06-11T12:01:47Z</time>
      </trkpt>
      <trkpt lat="43.132274" lon="-1.669209">
        <ele>127.532</ele>
        <time>2021-06-11T12:01:55Z</time>
      </trkpt>
      <trkpt lat="43.132313" lon="-1.669010">
        <ele>126.510</ele>
        <time>2021-06-11T12:02:01Z</time>
      </trkpt>
      <trkpt lat="43.132310" lon="-1.668973">
        <ele>125.548</ele>
        <time>2021-06-11T12:02:07Z</time>
      </trkpt>
      <trkpt lat="43.132345" lon="-1.668801">
        <ele>126.013</ele>
        <time>2021-06-11T12:02:15Z</time>
      </trkpt>
      <trkpt lat="43.132389" lon="-1.668564">
        <ele>125.562</ele>
        <time>2021-06-11T12:02:23Z</time>
      </trkpt>
      <trkpt lat="43.132434" lon="-1.668231">
        <ele>125.597</ele>
        <time>2021-06-11T12:02:32Z</time>
      </trkpt>
      <trkpt lat="43.132484" lon="-1.667852">
        <ele>126.021</ele>
        <time>2021-06-11T12:02:40Z</time>
      </trkpt>
      <trkpt lat="43.132561" lon="-1.667295">
        <ele>126.541</ele>
        <time>2021-06-11T12:02:50Z</time>
      </trkpt>
      <trkpt lat="43.132740" lon="-1.666807">
        <ele>125.505</ele>
        <time>2021-06-11T12:02:59Z</time>
      </trkpt>
      <trkpt lat="43.132876" lon="-1.666442">
        <ele>124.608</ele>
        <time>2021-06-11T12:03:05Z</time>
      </trkpt>
      <trkpt lat="43.132903" lon="-1.666385">
        <ele>124.639</ele>
        <time>2021-06-11T12:03:06Z</time>
      </trkpt>
      <trkpt lat="43.132934" lon="-1.666336">
        <ele>124.677</ele>
        <time>2021-06-11T12:03:07Z</time>
      </trkpt>
      <trkpt lat="43.132969" lon="-1.666297">
        <ele>125.127</ele>
        <time>2021-06-11T12:03:08Z</time>
      </trkpt>
      <trkpt lat="43.133004" lon="-1.666264">
        <ele>125.135</ele>
        <time>2021-06-11T12:03:09Z</time>
      </trkpt>
      <trkpt lat="43.133040" lon="-1.666233">
        <ele>125.163</ele>
        <time>2021-06-11T12:03:10Z</time>
      </trkpt>
      <trkpt lat="43.133327" lon="-1.665997">
        <ele>125.578</ele>
        <time>2021-06-11T12:03:19Z</time>
      </trkpt>
      <trkpt lat="43.133344" lon="-1.665977">
        <ele>125.597</ele>
        <time>2021-06-11T12:03:20Z</time>
      </trkpt>
      <trkpt lat="43.133348" lon="-1.665955">
        <ele>125.512</ele>
        <time>2021-06-11T12:03:21Z</time>
      </trkpt>
      <trkpt lat="43.133342" lon="-1.665933">
        <ele>125.574</ele>
        <time>2021-06-11T12:03:22Z</time>
      </trkpt>
      <trkpt lat="43.133333" lon="-1.665921">
        <ele>125.556</ele>
        <time>2021-06-11T12:03:23Z</time>
      </trkpt>
      <trkpt lat="43.133325" lon="-1.665907">
        <ele>125.521</ele>
        <time>2021-06-11T12:03:24Z</time>
      </trkpt>
      <trkpt lat="43.133319" lon="-1.665899">
        <ele>124.608</ele>
        <time>2021-06-11T12:03:31Z</time>
      </trkpt>
      <trkpt lat="43.133332" lon="-1.665911">
        <ele>125.164</ele>
        <time>2021-06-11T12:03:40Z</time>
      </trkpt>
      <trkpt lat="43.133340" lon="-1.665921">
        <ele>125.142</ele>
        <time>2021-06-11T12:03:42Z</time>
      </trkpt>
      <trkpt lat="43.133345" lon="-1.665933">
        <ele>125.112</ele>
        <time>2021-06-11T12:03:43Z</time>
      </trkpt>
      <trkpt lat="43.133368" lon="-1.666010">
        <ele>124.620</ele>
        <time>2021-06-11T12:03:47Z</time>
      </trkpt>
      <trkpt lat="43.133406" lon="-1.666049">
        <ele>124.128</ele>
        <time>2021-06-11T12:03:50Z</time>
      </trkpt>
      <trkpt lat="43.133472" lon="-1.666220">
        <ele>122.243</ele>
        <time>2021-06-11T12:03:57Z</time>
      </trkpt>
      <trkpt lat="43.133492" lon="-1.666262">
        <ele>121.712</ele>
        <time>2021-06-11T12:03:59Z</time>
      </trkpt>
      <trkpt lat="43.133508" lon="-1.666314">
        <ele>121.767</ele>
        <time>2021-06-11T12:04:02Z</time>
      </trkpt>
      <trkpt lat="43.133499" lon="-1.666359">
        <ele>124.199</ele>
        <time>2021-06-11T12:04:10Z</time>
      </trkpt>
      <trkpt lat="43.133501" lon="-1.666386">
        <ele>125.107</ele>
        <time>2021-06-11T12:04:16Z</time>
      </trkpt>
      <trkpt lat="43.133668" lon="-1.666367">
        <ele>124.127</ele>
        <time>2021-06-11T12:04:23Z</time>
      </trkpt>
      <trkpt lat="43.133892" lon="-1.666306">
        <ele>122.708</ele>
        <time>2021-06-11T12:04:29Z</time>
      </trkpt>
      <trkpt lat="43.134145" lon="-1.666268">
        <ele>123.126</ele>
        <time>2021-06-11T12:04:36Z</time>
      </trkpt>
      <trkpt lat="43.134317" lon="-1.666249">
        <ele>123.144</ele>
        <time>2021-06-11T12:04:42Z</time>
      </trkpt>
      <trkpt lat="43.134539" lon="-1.666128">
        <ele>123.624</ele>
        <time>2021-06-11T12:04:50Z</time>
      </trkpt>
      <trkpt lat="43.134628" lon="-1.666093">
        <ele>125.112</ele>
        <time>2021-06-11T12:04:55Z</time>
      </trkpt>
      <trkpt lat="43.134630" lon="-1.666093">
        <ele>125.560</ele>
        <time>2021-06-11T12:05:02Z</time>
      </trkpt>
      <trkpt lat="43.134619" lon="-1.666072">
        <ele>127.065</ele>
        <time>2021-06-11T12:05:09Z</time>
      </trkpt>
      <trkpt lat="43.134612" lon="-1.666062">
        <ele>127.934</ele>
        <time>2021-06-11T12:05:20Z</time>
      </trkpt>
      <trkpt lat="43.134629" lon="-1.666084">
        <ele>127.989</ele>
        <time>2021-06-11T12:05:38Z</time>
      </trkpt>
      <trkpt lat="43.134636" lon="-1.666073">
        <ele>128.413</ele>
        <time>2021-06-11T12:05:51Z</time>
      </trkpt>
      <trkpt lat="43.134627" lon="-1.666062">
        <ele>129.943</ele>
        <time>2021-06-11T12:06:06Z</time>
      </trkpt>
      <trkpt lat="43.134611" lon="-1.666079">
        <ele>129.907</ele>
        <time>2021-06-11T12:06:21Z</time>
      </trkpt>
      <trkpt lat="43.134617" lon="-1.666102">
        <ele>128.408</ele>
        <time>2021-06-11T12:06:37Z</time>
      </trkpt>
      <trkpt lat="43.134598" lon="-1.666112">
        <ele>126.048</ele>
        <time>2021-06-11T12:06:52Z</time>
      </trkpt>
      <trkpt lat="43.134610" lon="-1.666086">
        <ele>127.946</ele>
        <time>2021-06-11T12:07:08Z</time>
      </trkpt>
      <trkpt lat="43.134636" lon="-1.666065">
        <ele>127.036</ele>
        <time>2021-06-11T12:07:18Z</time>
      </trkpt>
      <trkpt lat="43.134630" lon="-1.666054">
        <ele>126.544</ele>
        <time>2021-06-11T12:07:30Z</time>
      </trkpt>
      <trkpt lat="43.134623" lon="-1.666066">
        <ele>126.022</ele>
        <time>2021-06-11T12:07:42Z</time>
      </trkpt>
      <trkpt lat="43.134617" lon="-1.666059">
        <ele>125.177</ele>
        <time>2021-06-11T12:07:53Z</time>
      </trkpt>
      <trkpt lat="43.134623" lon="-1.666068">
        <ele>123.156</ele>
        <time>2021-06-11T12:08:06Z</time>
      </trkpt>
      <trkpt lat="43.134628" lon="-1.666061">
        <ele>121.771</ele>
        <time>2021-06-11T12:08:20Z</time>
      </trkpt>
      <trkpt lat="43.134638" lon="-1.666057">
        <ele>122.211</ele>
        <time>2021-06-11T12:08:33Z</time>
      </trkpt>
      <trkpt lat="43.134634" lon="-1.666081">
        <ele>124.621</ele>
        <time>2021-06-11T12:08:45Z</time>
      </trkpt>
      <trkpt lat="43.134639" lon="-1.666088">
        <ele>124.103</ele>
        <time>2021-06-11T12:08:55Z</time>
      </trkpt>
      <trkpt lat="43.134612" lon="-1.666077">
        <ele>123.608</ele>
        <time>2021-06-11T12:09:06Z</time>
      </trkpt>
      <trkpt lat="43.134619" lon="-1.666093">
        <ele>123.668</ele>
        <time>2021-06-11T12:09:18Z</time>
      </trkpt>
      <trkpt lat="43.134619" lon="-1.666064">
        <ele>125.526</ele>
        <time>2021-06-11T12:09:28Z</time>
      </trkpt>
      <trkpt lat="43.134626" lon="-1.666073">
        <ele>126.556</ele>
        <time>2021-06-11T12:09:39Z</time>
      </trkpt>
      <trkpt lat="43.134634" lon="-1.666066">
        <ele>124.154</ele>
        <time>2021-06-11T12:09:49Z</time>
      </trkpt>
      <trkpt lat="43.134636" lon="-1.666059">
        <ele>121.722</ele>
        <time>2021-06-11T12:10:03Z</time>
      </trkpt>
      <trkpt lat="43.134617" lon="-1.666063">
        <ele>121.797</ele>
        <time>2021-06-11T12:10:15Z</time>
      </trkpt>
      <trkpt lat="43.134605" lon="-1.666046">
        <ele>124.126</ele>
        <time>2021-06-11T12:10:28Z</time>
      </trkpt>
      <trkpt lat="43.134598" lon="-1.666025">
        <ele>123.121</ele>
        <time>2021-06-11T12:10:40Z</time>
      </trkpt>
      <trkpt lat="43.134603" lon="-1.666047">
        <ele>123.151</ele>
        <time>2021-06-11T12:10:54Z</time>
      </trkpt>
      <trkpt lat="43.134600" lon="-1.666045">
        <ele>121.701</ele>
        <time>2021-06-11T12:11:09Z</time>
      </trkpt>
      <trkpt lat="43.134597" lon="-1.666042">
        <ele>122.211</ele>
        <time>2021-06-11T12:11:19Z</time>
      </trkpt>
      <trkpt lat="43.134601" lon="-1.666015">
        <ele>122.208</ele>
        <time>2021-06-11T12:11:27Z</time>
      </trkpt>
      <trkpt lat="43.134614" lon="-1.666008">
        <ele>122.762</ele>
        <time>2021-06-11T12:11:47Z</time>
      </trkpt>
      <trkpt lat="43.134637" lon="-1.666034">
        <ele>123.120</ele>
        <time>2021-06-11T12:12:05Z</time>
      </trkpt>
      <trkpt lat="43.134621" lon="-1.666054">
        <ele>122.790</ele>
        <time>2021-06-11T12:12:27Z</time>
      </trkpt>
      <trkpt lat="43.134614" lon="-1.666024">
        <ele>122.718</ele>
        <time>2021-06-11T12:12:46Z</time>
      </trkpt>
      <trkpt lat="43.135040" lon="-1.665760">
        <ele>123.116</ele>
        <time>2021-06-11T13:03:26Z</time>
      </trkpt>
      <trkpt lat="43.135040" lon="-1.665753">
        <ele>118.811</ele>
        <time>2021-06-11T13:03:35Z</time>
      </trkpt>
      <trkpt lat="43.135056" lon="-1.665760">
        <ele>120.750</ele>
        <time>2021-06-11T13:03:45Z</time>
      </trkpt>
      <trkpt lat="43.135129" lon="-1.665778">
        <ele>122.215</ele>
        <time>2021-06-11T13:03:51Z</time>
      </trkpt>
      <trkpt lat="43.135277" lon="-1.665830">
        <ele>123.659</ele>
        <time>2021-06-11T13:03:59Z</time>
      </trkpt>
      <trkpt lat="43.135448" lon="-1.665878">
        <ele>123.603</ele>
        <time>2021-06-11T13:04:07Z</time>
      </trkpt>
      <trkpt lat="43.135465" lon="-1.665869">
        <ele>123.623</ele>
        <time>2021-06-11T13:04:08Z</time>
      </trkpt>
      <trkpt lat="43.135484" lon="-1.665860">
        <ele>123.608</ele>
        <time>2021-06-11T13:04:09Z</time>
      </trkpt>
      <trkpt lat="43.135624" lon="-1.665770">
        <ele>126.042</ele>
        <time>2021-06-11T13:04:17Z</time>
      </trkpt>
      <trkpt lat="43.135781" lon="-1.665700">
        <ele>127.920</ele>
        <time>2021-06-11T13:04:24Z</time>
      </trkpt>
      <trkpt lat="43.135939" lon="-1.665660">
        <ele>129.970</ele>
        <time>2021-06-11T13:04:31Z</time>
      </trkpt>
      <trkpt lat="43.136063" lon="-1.665629">
        <ele>131.848</ele>
        <time>2021-06-11T13:04:38Z</time>
      </trkpt>
      <trkpt lat="43.136161" lon="-1.665606">
        <ele>134.796</ele>
        <time>2021-06-11T13:04:46Z</time>
      </trkpt>
      <trkpt lat="43.136169" lon="-1.665581">
        <ele>136.181</ele>
        <time>2021-06-11T13:04:57Z</time>
      </trkpt>
      <trkpt lat="43.136180" lon="-1.665589">
        <ele>135.690</ele>
        <time>2021-06-11T13:05:07Z</time>
      </trkpt>
      <trkpt lat="43.136209" lon="-1.665595">
        <ele>134.755</ele>
        <time>2021-06-11T13:05:17Z</time>
      </trkpt>
      <trkpt lat="43.136276" lon="-1.665602">
        <ele>135.687</ele>
        <time>2021-06-11T13:05:24Z</time>
      </trkpt>
      <trkpt lat="43.136275" lon="-1.665587">
        <ele>137.142</ele>
        <time>2021-06-11T13:05:39Z</time>
      </trkpt>
      <trkpt lat="43.136353" lon="-1.665596">
        <ele>137.626</ele>
        <time>2021-06-11T13:05:46Z</time>
      </trkpt>
      <trkpt lat="43.136567" lon="-1.665586">
        <ele>137.608</ele>
        <time>2021-06-11T13:05:53Z</time>
      </trkpt>
      <trkpt lat="43.136874" lon="-1.665608">
        <ele>136.135</ele>
        <time>2021-06-11T13:06:02Z</time>
      </trkpt>
      <trkpt lat="43.137251" lon="-1.665621">
        <ele>137.153</ele>
        <time>2021-06-11T13:06:14Z</time>
      </trkpt>
      <trkpt lat="43.137595" lon="-1.665641">
        <ele>136.163</ele>
        <time>2021-06-11T13:06:25Z</time>
      </trkpt>
      <trkpt lat="43.137796" lon="-1.665659">
        <ele>138.091</ele>
        <time>2021-06-11T13:06:32Z</time>
      </trkpt>
      <trkpt lat="43.137989" lon="-1.665665">
        <ele>140.099</ele>
        <time>2021-06-11T13:06:39Z</time>
      </trkpt>
      <trkpt lat="43.138139" lon="-1.665675">
        <ele>141.424</ele>
        <time>2021-06-11T13:06:45Z</time>
      </trkpt>
      <trkpt lat="43.138337" lon="-1.665694">
        <ele>142.413</ele>
        <time>2021-06-11T13:06:54Z</time>
      </trkpt>
      <trkpt lat="43.138513" lon="-1.665719">
        <ele>142.858</ele>
        <time>2021-06-11T13:07:02Z</time>
      </trkpt>
      <trkpt lat="43.138528" lon="-1.665730">
        <ele>141.993</ele>
        <time>2021-06-11T13:07:10Z</time>
      </trkpt>
      <trkpt lat="43.138535" lon="-1.665721">
        <ele>141.965</ele>
        <time>2021-06-11T13:07:29Z</time>
      </trkpt>
      <trkpt lat="43.138551" lon="-1.665736">
        <ele>142.421</ele>
        <time>2021-06-11T13:07:47Z</time>
      </trkpt>
      <trkpt lat="43.138564" lon="-1.665744">
        <ele>141.908</ele>
        <time>2021-06-11T13:07:48Z</time>
      </trkpt>
      <trkpt lat="43.138579" lon="-1.665749">
        <ele>141.416</ele>
        <time>2021-06-11T13:07:49Z</time>
      </trkpt>
      <trkpt lat="43.138597" lon="-1.665754">
        <ele>141.454</ele>
        <time>2021-06-11T13:07:50Z</time>
      </trkpt>
      <trkpt lat="43.138616" lon="-1.665759">
        <ele>140.974</ele>
        <time>2021-06-11T13:07:51Z</time>
      </trkpt>
      <trkpt lat="43.138639" lon="-1.665763">
        <ele>140.932</ele>
        <time>2021-06-11T13:07:52Z</time>
      </trkpt>
      <trkpt lat="43.138665" lon="-1.665765">
        <ele>140.450</ele>
        <time>2021-06-11T13:07:53Z</time>
      </trkpt>
      <trkpt lat="43.138866" lon="-1.665832">
        <ele>139.025</ele>
        <time>2021-06-11T13:08:00Z</time>
      </trkpt>
      <trkpt lat="43.139096" lon="-1.665957">
        <ele>138.584</ele>
        <time>2021-06-11T13:08:07Z</time>
      </trkpt>
      <trkpt lat="43.139356" lon="-1.666145">
        <ele>136.159</ele>
        <time>2021-06-11T13:08:15Z</time>
      </trkpt>
      <trkpt lat="43.139713" lon="-1.666403">
        <ele>134.765</ele>
        <time>2021-06-11T13:08:24Z</time>
      </trkpt>
      <trkpt lat="43.139943" lon="-1.666530">
        <ele>134.268</ele>
        <time>2021-06-11T13:08:30Z</time>
      </trkpt>
      <trkpt lat="43.140074" lon="-1.666590">
        <ele>134.714</ele>
        <time>2021-06-11T13:08:33Z</time>
      </trkpt>
      <trkpt lat="43.140433" lon="-1.666652">
        <ele>135.208</ele>
        <time>2021-06-11T13:08:41Z</time>
      </trkpt>
      <trkpt lat="43.140755" lon="-1.666667">
        <ele>133.713</ele>
        <time>2021-06-11T13:08:49Z</time>
      </trkpt>
      <trkpt lat="43.140880" lon="-1.666683">
        <ele>133.241</ele>
        <time>2021-06-11T13:08:55Z</time>
      </trkpt>
      <trkpt lat="43.140906" lon="-1.666670">
        <ele>132.321</ele>
        <time>2021-06-11T13:09:03Z</time>
      </trkpt>
      <trkpt lat="43.141027" lon="-1.666685">
        <ele>130.869</ele>
        <time>2021-06-11T13:09:09Z</time>
      </trkpt>
      <trkpt lat="43.141243" lon="-1.666732">
        <ele>128.947</ele>
        <time>2021-06-11T13:09:16Z</time>
      </trkpt>
      <trkpt lat="43.141492" lon="-1.666819">
        <ele>127.042</ele>
        <time>2021-06-11T13:09:24Z</time>
      </trkpt>
      <trkpt lat="43.141723" lon="-1.666929">
        <ele>126.051</ele>
        <time>2021-06-11T13:09:31Z</time>
      </trkpt>
      <trkpt lat="43.141965" lon="-1.667067">
        <ele>124.116</ele>
        <time>2021-06-11T13:09:38Z</time>
      </trkpt>
      <trkpt lat="43.142167" lon="-1.667147">
        <ele>123.688</ele>
        <time>2021-06-11T13:09:45Z</time>
      </trkpt>
      <trkpt lat="43.142246" lon="-1.667179">
        <ele>123.124</ele>
        <time>2021-06-11T13:09:51Z</time>
      </trkpt>
      <trkpt lat="43.142267" lon="-1.667190">
        <ele>123.126</ele>
        <time>2021-06-11T13:10:04Z</time>
      </trkpt>
      <trkpt lat="43.142268" lon="-1.667193">
        <ele>122.208</ele>
        <time>2021-06-11T13:10:24Z</time>
      </trkpt>
      <trkpt lat="43.142271" lon="-1.667213">
        <ele>122.245</ele>
        <time>2021-06-11T13:10:39Z</time>
      </trkpt>
      <trkpt lat="43.142280" lon="-1.667211">
        <ele>120.353</ele>
        <time>2021-06-11T13:10:57Z</time>
      </trkpt>
      <trkpt lat="43.142312" lon="-1.667242">
        <ele>120.733</ele>
        <time>2021-06-11T13:11:04Z</time>
      </trkpt>
      <trkpt lat="43.142405" lon="-1.667290">
        <ele>121.281</ele>
        <time>2021-06-11T13:11:10Z</time>
      </trkpt>
      <trkpt lat="43.142570" lon="-1.667433">
        <ele>120.339</ele>
        <time>2021-06-11T13:11:17Z</time>
      </trkpt>
      <trkpt lat="43.143273" lon="-1.667998">
        <ele>127.054</ele>
        <time>2021-06-11T13:11:45Z</time>
      </trkpt>
      <trkpt lat="43.143243" lon="-1.668030">
        <ele>128.433</ele>
        <time>2021-06-11T13:12:00Z</time>
      </trkpt>
      <trkpt lat="43.143253" lon="-1.668031">
        <ele>133.788</ele>
        <time>2021-06-11T13:12:10Z</time>
      </trkpt>
      <trkpt lat="43.143233" lon="-1.668032">
        <ele>130.424</ele>
        <time>2021-06-11T13:12:23Z</time>
      </trkpt>
      <trkpt lat="43.143231" lon="-1.668044">
        <ele>128.904</ele>
        <time>2021-06-11T13:12:33Z</time>
      </trkpt>
      <trkpt lat="43.143241" lon="-1.668017">
        <ele>130.414</ele>
        <time>2021-06-11T13:12:47Z</time>
      </trkpt>
      <trkpt lat="43.143237" lon="-1.668029">
        <ele>134.208</ele>
        <time>2021-06-11T13:12:59Z</time>
      </trkpt>
      <trkpt lat="43.143269" lon="-1.668046">
        <ele>134.769</ele>
        <time>2021-06-11T13:13:15Z</time>
      </trkpt>
      <trkpt lat="43.143262" lon="-1.668024">
        <ele>135.277</ele>
        <time>2021-06-11T13:13:29Z</time>
      </trkpt>
      <trkpt lat="43.143262" lon="-1.668048">
        <ele>135.227</ele>
        <time>2021-06-11T13:13:39Z</time>
      </trkpt>
      <trkpt lat="43.143199" lon="-1.668077">
        <ele>136.125</ele>
        <time>2021-06-11T13:13:57Z</time>
      </trkpt>
      <trkpt lat="43.143210" lon="-1.668061">
        <ele>132.883</ele>
        <time>2021-06-11T13:14:12Z</time>
      </trkpt>
      <trkpt lat="43.143212" lon="-1.668051">
        <ele>133.298</ele>
        <time>2021-06-11T13:14:24Z</time>
      </trkpt>
      <trkpt lat="43.143207" lon="-1.668032">
        <ele>130.417</ele>
        <time>2021-06-11T13:14:39Z</time>
      </trkpt>
      <trkpt lat="43.143193" lon="-1.668060">
        <ele>128.962</ele>
        <time>2021-06-11T13:14:55Z</time>
      </trkpt>
      <trkpt lat="43.143187" lon="-1.668086">
        <ele>126.517</ele>
        <time>2021-06-11T13:15:11Z</time>
      </trkpt>
      <trkpt lat="43.143175" lon="-1.668078">
        <ele>126.587</ele>
        <time>2021-06-11T13:15:23Z</time>
      </trkpt>
      <trkpt lat="43.143185" lon="-1.668080">
        <ele>127.915</ele>
        <time>2021-06-11T13:15:34Z</time>
      </trkpt>
      <trkpt lat="43.143173" lon="-1.668079">
        <ele>126.008</ele>
        <time>2021-06-11T13:15:49Z</time>
      </trkpt>
      <trkpt lat="43.143168" lon="-1.668087">
        <ele>124.628</ele>
        <time>2021-06-11T13:16:02Z</time>
      </trkpt>
      <trkpt lat="43.143171" lon="-1.668084">
        <ele>124.686</ele>
        <time>2021-06-11T13:16:20Z</time>
      </trkpt>
      <trkpt lat="43.143199" lon="-1.668052">
        <ele>123.156</ele>
        <time>2021-06-11T13:16:32Z</time>
      </trkpt>
      <trkpt lat="43.143240" lon="-1.668040">
        <ele>124.644</ele>
        <time>2021-06-11T13:16:44Z</time>
      </trkpt>
      <trkpt lat="43.143236" lon="-1.668066">
        <ele>125.142</ele>
        <time>2021-06-11T13:16:53Z</time>
      </trkpt>
      <trkpt lat="43.143210" lon="-1.668084">
        <ele>123.187</ele>
        <time>2021-06-11T13:17:03Z</time>
      </trkpt>
      <trkpt lat="43.143183" lon="-1.668076">
        <ele>121.766</ele>
        <time>2021-06-11T13:17:20Z</time>
      </trkpt>
      <trkpt lat="43.143202" lon="-1.668070">
        <ele>126.041</ele>
        <time>2021-06-11T13:17:37Z</time>
      </trkpt>
      <trkpt lat="43.143212" lon="-1.668094">
        <ele>129.993</ele>
        <time>2021-06-11T13:17:52Z</time>
      </trkpt>
      <trkpt lat="43.143262" lon="-1.668055">
        <ele>131.365</ele>
        <time>2021-06-11T13:18:05Z</time>
      </trkpt>
      <trkpt lat="43.143301" lon="-1.668061">
        <ele>132.321</ele>
        <time>2021-06-11T13:18:14Z</time>
      </trkpt>
      <trkpt lat="43.143330" lon="-1.668002">
        <ele>132.808</ele>
        <time>2021-06-11T13:18:25Z</time>
      </trkpt>
      <trkpt lat="43.143279" lon="-1.668017">
        <ele>133.246</ele>
        <time>2021-06-11T13:18:36Z</time>
      </trkpt>
      <trkpt lat="43.143249" lon="-1.668050">
        <ele>131.854</ele>
        <time>2021-06-11T13:18:49Z</time>
      </trkpt>
      <trkpt lat="43.143229" lon="-1.668079">
        <ele>130.884</ele>
        <time>2021-06-11T13:18:54Z</time>
      </trkpt>
      <trkpt lat="43.143220" lon="-1.668058">
        <ele>130.842</ele>
        <time>2021-06-11T13:18:59Z</time>
      </trkpt>
      <trkpt lat="43.143234" lon="-1.668052">
        <ele>130.490</ele>
        <time>2021-06-11T13:19:06Z</time>
      </trkpt>
      <trkpt lat="43.143257" lon="-1.668052">
        <ele>131.325</ele>
        <time>2021-06-11T13:19:19Z</time>
      </trkpt>
      <trkpt lat="43.143258" lon="-1.668053">
        <ele>131.374</ele>
        <time>2021-06-11T13:19:20Z</time>
      </trkpt>
      <trkpt lat="43.143333" lon="-1.668138">
        <ele>131.339</ele>
        <time>2021-06-11T13:19:25Z</time>
      </trkpt>
      <trkpt lat="43.143612" lon="-1.668458">
        <ele>131.322</ele>
        <time>2021-06-11T13:19:36Z</time>
      </trkpt>
      <trkpt lat="43.143683" lon="-1.668528">
        <ele>130.862</ele>
        <time>2021-06-11T13:19:39Z</time>
      </trkpt>
      <trkpt lat="43.143694" lon="-1.668521">
        <ele>130.808</ele>
        <time>2021-06-11T13:19:41Z</time>
      </trkpt>
      <trkpt lat="43.143630" lon="-1.668489">
        <ele>128.908</ele>
        <time>2021-06-11T13:19:45Z</time>
      </trkpt>
      <trkpt lat="43.143609" lon="-1.668474">
        <ele>128.919</ele>
        <time>2021-06-11T13:19:46Z</time>
      </trkpt>
      <trkpt lat="43.143589" lon="-1.668454">
        <ele>128.437</ele>
        <time>2021-06-11T13:19:47Z</time>
      </trkpt>
      <trkpt lat="43.143380" lon="-1.668242">
        <ele>127.517</ele>
        <time>2021-06-11T13:19:56Z</time>
      </trkpt>
      <trkpt lat="43.143248" lon="-1.668113">
        <ele>127.075</ele>
        <time>2021-06-11T13:20:04Z</time>
      </trkpt>
      <trkpt lat="43.143251" lon="-1.668080">
        <ele>127.093</ele>
        <time>2021-06-11T13:20:12Z</time>
      </trkpt>
      <trkpt lat="43.143282" lon="-1.668115">
        <ele>127.038</ele>
        <time>2021-06-11T13:20:15Z</time>
      </trkpt>
      <trkpt lat="43.143423" lon="-1.668313">
        <ele>127.047</ele>
        <time>2021-06-11T13:20:24Z</time>
      </trkpt>
      <trkpt lat="43.143609" lon="-1.668527">
        <ele>126.562</ele>
        <time>2021-06-11T13:20:33Z</time>
      </trkpt>
      <trkpt lat="43.143789" lon="-1.668692">
        <ele>125.573</ele>
        <time>2021-06-11T13:20:41Z</time>
      </trkpt>
      <trkpt lat="43.144020" lon="-1.668802">
        <ele>125.585</ele>
        <time>2021-06-11T13:20:49Z</time>
      </trkpt>
      <trkpt lat="43.144276" lon="-1.668831">
        <ele>127.513</ele>
        <time>2021-06-11T13:20:57Z</time>
      </trkpt>
      <trkpt lat="43.144587" lon="-1.668815">
        <ele>127.908</ele>
        <time>2021-06-11T13:21:05Z</time>
      </trkpt>
      <trkpt lat="43.144905" lon="-1.668803">
        <ele>129.494</ele>
        <time>2021-06-11T13:21:13Z</time>
      </trkpt>
      <trkpt lat="43.145177" lon="-1.668806">
        <ele>130.872</ele>
        <time>2021-06-11T13:21:20Z</time>
      </trkpt>
      <trkpt lat="43.145459" lon="-1.668840">
        <ele>131.852</ele>
        <time>2021-06-11T13:21:28Z</time>
      </trkpt>
      <trkpt lat="43.145712" lon="-1.668872">
        <ele>133.760</ele>
        <time>2021-06-11T13:21:34Z</time>
      </trkpt>
      <trkpt lat="43.145755" lon="-1.668872">
        <ele>133.778</ele>
        <time>2021-06-11T13:21:35Z</time>
      </trkpt>
      <trkpt lat="43.146089" lon="-1.668913">
        <ele>135.223</ele>
        <time>2021-06-11T13:21:43Z</time>
      </trkpt>
      <trkpt lat="43.146551" lon="-1.668879">
        <ele>134.752</ele>
        <time>2021-06-11T13:21:53Z</time>
      </trkpt>
      <trkpt lat="43.146910" lon="-1.668805">
        <ele>133.767</ele>
        <time>2021-06-11T13:22:01Z</time>
      </trkpt>
      <trkpt lat="43.147170" lon="-1.668748">
        <ele>130.847</ele>
        <time>2021-06-11T13:22:08Z</time>
      </trkpt>
      <trkpt lat="43.147516" lon="-1.668728">
        <ele>128.429</ele>
        <time>2021-06-11T13:22:17Z</time>
      </trkpt>
      <trkpt lat="43.147834" lon="-1.668790">
        <ele>127.521</ele>
        <time>2021-06-11T13:22:25Z</time>
      </trkpt>
      <trkpt lat="43.148027" lon="-1.668854">
        <ele>129.408</ele>
        <time>2021-06-11T13:22:31Z</time>
      </trkpt>
      <trkpt lat="43.148346" lon="-1.668980">
        <ele>132.881</ele>
        <time>2021-06-11T13:22:39Z</time>
      </trkpt>
      <trkpt lat="43.148692" lon="-1.669117">
        <ele>131.379</ele>
        <time>2021-06-11T13:22:47Z</time>
      </trkpt>
      <trkpt lat="43.149138" lon="-1.669250">
        <ele>130.839</ele>
        <time>2021-06-11T13:22:58Z</time>
      </trkpt>
      <trkpt lat="43.149383" lon="-1.669242">
        <ele>130.437</ele>
        <time>2021-06-11T13:23:04Z</time>
      </trkpt>
      <trkpt lat="43.149704" lon="-1.669119">
        <ele>129.465</ele>
        <time>2021-06-11T13:23:12Z</time>
      </trkpt>
      <trkpt lat="43.149939" lon="-1.669034">
        <ele>128.930</ele>
        <time>2021-06-11T13:23:19Z</time>
      </trkpt>
      <trkpt lat="43.150214" lon="-1.668928">
        <ele>129.469</ele>
        <time>2021-06-11T13:23:26Z</time>
      </trkpt>
      <trkpt lat="43.150412" lon="-1.668869">
        <ele>129.964</ele>
        <time>2021-06-11T13:23:31Z</time>
      </trkpt>
      <trkpt lat="43.150737" lon="-1.668831">
        <ele>129.426</ele>
        <time>2021-06-11T13:23:39Z</time>
      </trkpt>
      <trkpt lat="43.151026" lon="-1.668880">
        <ele>129.447</ele>
        <time>2021-06-11T13:23:46Z</time>
      </trkpt>
      <trkpt lat="43.151329" lon="-1.669006">
        <ele>130.411</ele>
        <time>2021-06-11T13:23:53Z</time>
      </trkpt>
      <trkpt lat="43.151659" lon="-1.669105">
        <ele>129.408</ele>
        <time>2021-06-11T13:24:01Z</time>
      </trkpt>
      <trkpt lat="43.151980" lon="-1.669186">
        <ele>126.549</ele>
        <time>2021-06-11T13:24:09Z</time>
      </trkpt>
      <trkpt lat="43.152285" lon="-1.669306">
        <ele>124.147</ele>
        <time>2021-06-11T13:24:17Z</time>
      </trkpt>
      <trkpt lat="43.152556" lon="-1.669460">
        <ele>121.767</ele>
        <time>2021-06-11T13:24:24Z</time>
      </trkpt>
      <trkpt lat="43.152851" lon="-1.669624">
        <ele>119.355</ele>
        <time>2021-06-11T13:24:32Z</time>
      </trkpt>
      <trkpt lat="43.153221" lon="-1.669843">
        <ele>117.963</ele>
        <time>2021-06-11T13:24:42Z</time>
      </trkpt>
      <trkpt lat="43.153610" lon="-1.670068">
        <ele>116.998</ele>
        <time>2021-06-11T13:24:52Z</time>
      </trkpt>
      <trkpt lat="43.154000" lon="-1.670300">
        <ele>117.457</ele>
        <time>2021-06-11T13:25:02Z</time>
      </trkpt>
      <trkpt lat="43.154073" lon="-1.670354">
        <ele>117.992</ele>
        <time>2021-06-11T13:25:04Z</time>
      </trkpt>
      <trkpt lat="43.154445" lon="-1.670560">
        <ele>117.953</ele>
        <time>2021-06-11T13:25:14Z</time>
      </trkpt>
      <trkpt lat="43.154842" lon="-1.670802">
        <ele>120.304</ele>
        <time>2021-06-11T13:25:25Z</time>
      </trkpt>
      <trkpt lat="43.155180" lon="-1.670988">
        <ele>119.814</ele>
        <time>2021-06-11T13:25:34Z</time>
      </trkpt>
      <trkpt lat="43.155572" lon="-1.671196">
        <ele>121.208</ele>
        <time>2021-06-11T13:25:44Z</time>
      </trkpt>
      <trkpt lat="43.155951" lon="-1.671355">
        <ele>123.132</ele>
        <time>2021-06-11T13:25:54Z</time>
      </trkpt>
      <trkpt lat="43.156206" lon="-1.671423">
        <ele>123.110</ele>
        <time>2021-06-11T13:26:01Z</time>
      </trkpt>
      <trkpt lat="43.156520" lon="-1.671496">
        <ele>121.290</ele>
        <time>2021-06-11T13:26:09Z</time>
      </trkpt>
      <trkpt lat="43.156789" lon="-1.671554">
        <ele>119.828</ele>
        <time>2021-06-11T13:26:16Z</time>
      </trkpt>
      <trkpt lat="43.157111" lon="-1.671643">
        <ele>120.346</ele>
        <time>2021-06-11T13:26:23Z</time>
      </trkpt>
      <trkpt lat="43.157510" lon="-1.671737">
        <ele>121.291</ele>
        <time>2021-06-11T13:26:32Z</time>
      </trkpt>
      <trkpt lat="43.157745" lon="-1.671755">
        <ele>120.720</ele>
        <time>2021-06-11T13:26:38Z</time>
      </trkpt>
      <trkpt lat="43.158094" lon="-1.671782">
        <ele>119.855</ele>
        <time>2021-06-11T13:26:46Z</time>
      </trkpt>
      <trkpt lat="43.158603" lon="-1.671806">
        <ele>115.968</ele>
        <time>2021-06-11T13:26:58Z</time>
      </trkpt>
      <trkpt lat="43.158889" lon="-1.671832">
        <ele>115.542</ele>
        <time>2021-06-11T13:27:05Z</time>
      </trkpt>
      <trkpt lat="43.159264" lon="-1.671864">
        <ele>115.026</ele>
        <time>2021-06-11T13:27:14Z</time>
      </trkpt>
      <trkpt lat="43.159559" lon="-1.671889">
        <ele>115.008</ele>
        <time>2021-06-11T13:27:21Z</time>
      </trkpt>
      <trkpt lat="43.159838" lon="-1.671855">
        <ele>117.923</ele>
        <time>2021-06-11T13:27:28Z</time>
      </trkpt>
      <trkpt lat="43.160150" lon="-1.671739">
        <ele>118.361</ele>
        <time>2021-06-11T13:27:36Z</time>
      </trkpt>
      <trkpt lat="43.160501" lon="-1.671613">
        <ele>117.971</ele>
        <time>2021-06-11T13:27:45Z</time>
      </trkpt>
      <trkpt lat="43.160926" lon="-1.671473">
        <ele>116.459</ele>
        <time>2021-06-11T13:27:55Z</time>
      </trkpt>
      <trkpt lat="43.161194" lon="-1.671374">
        <ele>114.587</ele>
        <time>2021-06-11T13:28:02Z</time>
      </trkpt>
      <trkpt lat="43.161542" lon="-1.671252">
        <ele>113.022</ele>
        <time>2021-06-11T13:28:11Z</time>
      </trkpt>
      <trkpt lat="43.161849" lon="-1.671138">
        <ele>112.611</ele>
        <time>2021-06-11T13:28:19Z</time>
      </trkpt>
      <trkpt lat="43.162088" lon="-1.671043">
        <ele>115.076</ele>
        <time>2021-06-11T13:28:26Z</time>
      </trkpt>
      <trkpt lat="43.162499" lon="-1.670927">
        <ele>116.479</ele>
        <time>2021-06-11T13:28:35Z</time>
      </trkpt>
      <trkpt lat="43.162877" lon="-1.670860">
        <ele>116.905</ele>
        <time>2021-06-11T13:28:44Z</time>
      </trkpt>
      <trkpt lat="43.163136" lon="-1.670898">
        <ele>116.925</ele>
        <time>2021-06-11T13:28:51Z</time>
      </trkpt>
      <trkpt lat="43.163345" lon="-1.670982">
        <ele>118.308</ele>
        <time>2021-06-11T13:28:57Z</time>
      </trkpt>
      <trkpt lat="43.163585" lon="-1.671148">
        <ele>118.384</ele>
        <time>2021-06-11T13:29:05Z</time>
      </trkpt>
      <trkpt lat="43.163791" lon="-1.671274">
        <ele>116.942</ele>
        <time>2021-06-11T13:29:11Z</time>
      </trkpt>
      <trkpt lat="43.163988" lon="-1.671378">
        <ele>115.922</ele>
        <time>2021-06-11T13:29:17Z</time>
      </trkpt>
      <trkpt lat="43.164906" lon="-1.671898">
        <ele>116.430</ele>
        <time>2021-06-11T13:29:39Z</time>
      </trkpt>
      <trkpt lat="43.165263" lon="-1.672009">
        <ele>116.488</ele>
        <time>2021-06-11T13:29:47Z</time>
      </trkpt>
      <trkpt lat="43.165559" lon="-1.672135">
        <ele>117.493</ele>
        <time>2021-06-11T13:29:56Z</time>
      </trkpt>
      <trkpt lat="43.165610" lon="-1.672155">
        <ele>117.432</ele>
        <time>2021-06-11T13:29:58Z</time>
      </trkpt>
      <trkpt lat="43.165651" lon="-1.672125">
        <ele>116.917</ele>
        <time>2021-06-11T13:30:00Z</time>
      </trkpt>
      <trkpt lat="43.165659" lon="-1.672087">
        <ele>116.978</ele>
        <time>2021-06-11T13:30:01Z</time>
      </trkpt>
      <trkpt lat="43.165655" lon="-1.672052">
        <ele>116.933</ele>
        <time>2021-06-11T13:30:02Z</time>
      </trkpt>
      <trkpt lat="43.165643" lon="-1.672009">
        <ele>116.926</ele>
        <time>2021-06-11T13:30:03Z</time>
      </trkpt>
      <trkpt lat="43.165628" lon="-1.671974">
        <ele>116.908</ele>
        <time>2021-06-11T13:30:04Z</time>
      </trkpt>
      <trkpt lat="43.165608" lon="-1.671935">
        <ele>116.994</ele>
        <time>2021-06-11T13:30:05Z</time>
      </trkpt>
      <trkpt lat="43.165591" lon="-1.671895">
        <ele>116.952</ele>
        <time>2021-06-11T13:30:06Z</time>
      </trkpt>
      <trkpt lat="43.165576" lon="-1.671850">
        <ele>116.482</ele>
        <time>2021-06-11T13:30:07Z</time>
      </trkpt>
      <trkpt lat="43.165439" lon="-1.671447">
        <ele>115.580</ele>
        <time>2021-06-11T13:30:16Z</time>
      </trkpt>
      <trkpt lat="43.165289" lon="-1.671088">
        <ele>115.578</ele>
        <time>2021-06-11T13:30:24Z</time>
      </trkpt>
      <trkpt lat="43.165255" lon="-1.670935">
        <ele>115.013</ele>
        <time>2021-06-11T13:30:27Z</time>
      </trkpt>
      <trkpt lat="43.165254" lon="-1.670877">
        <ele>115.032</ele>
        <time>2021-06-11T13:30:28Z</time>
      </trkpt>
      <trkpt lat="43.165250" lon="-1.670470">
        <ele>113.547</ele>
        <time>2021-06-11T13:30:35Z</time>
      </trkpt>
      <trkpt lat="43.165228" lon="-1.670435">
        <ele>113.054</ele>
        <time>2021-06-11T13:30:36Z</time>
      </trkpt>
      <trkpt lat="43.165200" lon="-1.670406">
        <ele>113.056</ele>
        <time>2021-06-11T13:30:37Z</time>
      </trkpt>
      <trkpt lat="43.165168" lon="-1.670382">
        <ele>112.611</ele>
        <time>2021-06-11T13:30:38Z</time>
      </trkpt>
      <trkpt lat="43.165143" lon="-1.670365">
        <ele>112.608</ele>
        <time>2021-06-11T13:30:39Z</time>
      </trkpt>
      <trkpt lat="43.165055" lon="-1.670177">
        <ele>112.162</ele>
        <time>2021-06-11T13:30:45Z</time>
      </trkpt>
      <trkpt lat="43.165011" lon="-1.669845">
        <ele>112.160</ele>
        <time>2021-06-11T13:30:53Z</time>
      </trkpt>
      <trkpt lat="43.164993" lon="-1.669751">
        <ele>112.610</ele>
        <time>2021-06-11T13:30:59Z</time>
      </trkpt>
      <trkpt lat="43.164994" lon="-1.669756">
        <ele>112.618</ele>
        <time>2021-06-11T13:31:08Z</time>
      </trkpt>
      <trkpt lat="43.164994" lon="-1.669743">
        <ele>110.276</ele>
        <time>2021-06-11T13:31:17Z</time>
      </trkpt>
      <trkpt lat="43.164992" lon="-1.669745">
        <ele>107.841</ele>
        <time>2021-06-11T13:31:30Z</time>
      </trkpt>
      <trkpt lat="43.164992" lon="-1.669745">
        <ele>107.380</ele>
        <time>2021-06-11T13:31:47Z</time>
      </trkpt>
      <trkpt lat="43.164998" lon="-1.669747">
        <ele>109.795</ele>
        <time>2021-06-11T13:32:04Z</time>
      </trkpt>
      <trkpt lat="43.164990" lon="-1.669739">
        <ele>109.289</ele>
        <time>2021-06-11T13:32:19Z</time>
      </trkpt>
      <trkpt lat="43.164985" lon="-1.669748">
        <ele>109.706</ele>
        <time>2021-06-11T13:32:33Z</time>
      </trkpt>
      <trkpt lat="43.165006" lon="-1.669756">
        <ele>108.726</ele>
        <time>2021-06-11T13:32:46Z</time>
      </trkpt>
      <trkpt lat="43.165013" lon="-1.669726">
        <ele>110.208</ele>
        <time>2021-06-11T13:32:59Z</time>
      </trkpt>
      <trkpt lat="43.165020" lon="-1.669730">
        <ele>111.695</ele>
        <time>2021-06-11T13:33:17Z</time>
      </trkpt>
      <trkpt lat="43.165018" lon="-1.669754">
        <ele>111.663</ele>
        <time>2021-06-11T13:33:32Z</time>
      </trkpt>
      <trkpt lat="43.165028" lon="-1.669741">
        <ele>111.143</ele>
        <time>2021-06-11T13:33:48Z</time>
      </trkpt>
      <trkpt lat="43.165029" lon="-1.669746">
        <ele>109.241</ele>
        <time>2021-06-11T13:34:04Z</time>
      </trkpt>
      <trkpt lat="43.165033" lon="-1.669756">
        <ele>108.799</ele>
        <time>2021-06-11T13:34:16Z</time>
      </trkpt>
      <trkpt lat="43.165019" lon="-1.669736">
        <ele>105.834</ele>
        <time>2021-06-11T13:34:26Z</time>
      </trkpt>
      <trkpt lat="43.165015" lon="-1.669713">
        <ele>105.823</ele>
        <time>2021-06-11T13:34:27Z</time>
      </trkpt>
      <trkpt lat="43.165008" lon="-1.669695">
        <ele>106.358</ele>
        <time>2021-06-11T13:34:28Z</time>
      </trkpt>
      <trkpt lat="43.165004" lon="-1.669670">
        <ele>105.882</ele>
        <time>2021-06-11T13:34:29Z</time>
      </trkpt>
      <trkpt lat="43.165001" lon="-1.669644">
        <ele>105.843</ele>
        <time>2021-06-11T13:34:30Z</time>
      </trkpt>
      <trkpt lat="43.164997" lon="-1.669616">
        <ele>105.817</ele>
        <time>2021-06-11T13:34:31Z</time>
      </trkpt>
      <trkpt lat="43.164994" lon="-1.669584">
        <ele>106.308</ele>
        <time>2021-06-11T13:34:32Z</time>
      </trkpt>
      <trkpt lat="43.164950" lon="-1.669347">
        <ele>107.845</ele>
        <time>2021-06-11T13:34:40Z</time>
      </trkpt>
      <trkpt lat="43.164935" lon="-1.669089">
        <ele>109.273</ele>
        <time>2021-06-11T13:34:49Z</time>
      </trkpt>
      <trkpt lat="43.165001" lon="-1.668946">
        <ele>108.793</ele>
        <time>2021-06-11T13:34:54Z</time>
      </trkpt>
      <trkpt lat="43.165182" lon="-1.668843">
        <ele>109.761</ele>
        <time>2021-06-11T13:35:02Z</time>
      </trkpt>
      <trkpt lat="43.165357" lon="-1.668911">
        <ele>111.179</ele>
        <time>2021-06-11T13:35:10Z</time>
      </trkpt>
      <trkpt lat="43.165374" lon="-1.668920">
        <ele>111.194</ele>
        <time>2021-06-11T13:35:12Z</time>
      </trkpt>
      <trkpt lat="43.165386" lon="-1.668932">
        <ele>111.113</ele>
        <time>2021-06-11T13:35:13Z</time>
      </trkpt>
      <trkpt lat="43.165397" lon="-1.668945">
        <ele>111.178</ele>
        <time>2021-06-11T13:35:14Z</time>
      </trkpt>
      <trkpt lat="43.165410" lon="-1.668959">
        <ele>111.171</ele>
        <time>2021-06-11T13:35:15Z</time>
      </trkpt>
      <trkpt lat="43.165425" lon="-1.668975">
        <ele>111.641</ele>
        <time>2021-06-11T13:35:16Z</time>
      </trkpt>
      <trkpt lat="43.165440" lon="-1.668987">
        <ele>111.615</ele>
        <time>2021-06-11T13:35:17Z</time>
      </trkpt>
      <trkpt lat="43.165457" lon="-1.668999">
        <ele>111.608</ele>
        <time>2021-06-11T13:35:18Z</time>
      </trkpt>
      <trkpt lat="43.165476" lon="-1.669011">
        <ele>111.614</ele>
        <time>2021-06-11T13:35:19Z</time>
      </trkpt>
      <trkpt lat="43.165642" lon="-1.669103">
        <ele>114.072</ele>
        <time>2021-06-11T13:35:28Z</time>
      </trkpt>
      <trkpt lat="43.165783" lon="-1.669154">
        <ele>115.562</ele>
        <time>2021-06-11T13:35:37Z</time>
      </trkpt>
      <trkpt lat="43.165826" lon="-1.669139">
        <ele>115.060</ele>
        <time>2021-06-11T13:35:44Z</time>
      </trkpt>
      <trkpt lat="43.165834" lon="-1.669141">
        <ele>116.488</ele>
        <time>2021-06-11T13:35:52Z</time>
      </trkpt>
      <trkpt lat="43.165917" lon="-1.669171">
        <ele>118.843</ele>
        <time>2021-06-11T13:36:02Z</time>
      </trkpt>
      <trkpt lat="43.165963" lon="-1.669179">
        <ele>122.222</ele>
        <time>2021-06-11T13:36:10Z</time>
      </trkpt>
      <trkpt lat="43.166022" lon="-1.669163">
        <ele>125.137</ele>
        <time>2021-06-11T13:36:21Z</time>
      </trkpt>
      <trkpt lat="43.166093" lon="-1.669159">
        <ele>126.514</ele>
        <time>2021-06-11T13:36:30Z</time>
      </trkpt>
      <trkpt lat="43.166157" lon="-1.669149">
        <ele>128.954</ele>
        <time>2021-06-11T13:36:38Z</time>
      </trkpt>
      <trkpt lat="43.166171" lon="-1.669151">
        <ele>131.809</ele>
        <time>2021-06-11T13:36:47Z</time>
      </trkpt>
      <trkpt lat="43.166222" lon="-1.669162">
        <ele>134.708</ele>
        <time>2021-06-11T13:36:57Z</time>
      </trkpt>
      <trkpt lat="43.166308" lon="-1.669169">
        <ele>136.118</ele>
        <time>2021-06-11T13:37:07Z</time>
      </trkpt>
      <trkpt lat="43.166329" lon="-1.669179">
        <ele>135.636</ele>
        <time>2021-06-11T13:37:16Z</time>
      </trkpt>
      <trkpt lat="43.166390" lon="-1.669189">
        <ele>136.636</ele>
        <time>2021-06-11T13:37:23Z</time>
      </trkpt>
      <trkpt lat="43.166446" lon="-1.669213">
        <ele>138.014</ele>
        <time>2021-06-11T13:37:31Z</time>
      </trkpt>
      <trkpt lat="43.166488" lon="-1.669244">
        <ele>139.532</ele>
        <time>2021-06-11T13:37:41Z</time>
      </trkpt>
      <trkpt lat="43.166588" lon="-1.669276">
        <ele>140.427</ele>
        <time>2021-06-11T13:37:51Z</time>
      </trkpt>
      <trkpt lat="43.166674" lon="-1.669311">
        <ele>142.496</ele>
        <time>2021-06-11T13:38:00Z</time>
      </trkpt>
      <trkpt lat="43.166799" lon="-1.669353">
        <ele>146.771</ele>
        <time>2021-06-11T13:38:12Z</time>
      </trkpt>
      <trkpt lat="43.166843" lon="-1.669375">
        <ele>149.175</ele>
        <time>2021-06-11T13:38:20Z</time>
      </trkpt>
      <trkpt lat="43.166895" lon="-1.669353">
        <ele>146.228</ele>
        <time>2021-06-11T13:38:40Z</time>
      </trkpt>
      <trkpt lat="43.166947" lon="-1.669374">
        <ele>146.220</ele>
        <time>2021-06-11T13:38:47Z</time>
      </trkpt>
      <trkpt lat="43.166973" lon="-1.669390">
        <ele>146.708</ele>
        <time>2021-06-11T13:38:55Z</time>
      </trkpt>
      <trkpt lat="43.166991" lon="-1.669374">
        <ele>147.224</ele>
        <time>2021-06-11T13:39:12Z</time>
      </trkpt>
      <trkpt lat="43.166982" lon="-1.669358">
        <ele>145.322</ele>
        <time>2021-06-11T13:39:43Z</time>
      </trkpt>
      <trkpt lat="43.166964" lon="-1.669380">
        <ele>143.892</ele>
        <time>2021-06-11T13:40:08Z</time>
      </trkpt>
      <trkpt lat="43.166981" lon="-1.669395">
        <ele>144.850</ele>
        <time>2021-06-11T13:40:26Z</time>
      </trkpt>
      <trkpt lat="43.167012" lon="-1.669411">
        <ele>144.398</ele>
        <time>2021-06-11T13:40:32Z</time>
      </trkpt>
      <trkpt lat="43.167039" lon="-1.669444">
        <ele>143.883</ele>
        <time>2021-06-11T13:40:36Z</time>
      </trkpt>
      <trkpt lat="43.167053" lon="-1.669453">
        <ele>143.832</ele>
        <time>2021-06-11T13:40:37Z</time>
      </trkpt>
      <trkpt lat="43.167063" lon="-1.669462">
        <ele>143.897</ele>
        <time>2021-06-11T13:40:38Z</time>
      </trkpt>
      <trkpt lat="43.167077" lon="-1.669473">
        <ele>143.817</ele>
        <time>2021-06-11T13:40:39Z</time>
      </trkpt>
      <trkpt lat="43.167092" lon="-1.669485">
        <ele>143.887</ele>
        <time>2021-06-11T13:40:40Z</time>
      </trkpt>
      <trkpt lat="43.167189" lon="-1.669612">
        <ele>144.315</ele>
        <time>2021-06-11T13:40:48Z</time>
      </trkpt>
      <trkpt lat="43.167260" lon="-1.669740">
        <ele>143.308</ele>
        <time>2021-06-11T13:40:56Z</time>
      </trkpt>
      <trkpt lat="43.167392" lon="-1.669949">
        <ele>141.988</ele>
        <time>2021-06-11T13:41:06Z</time>
      </trkpt>
      <trkpt lat="43.167443" lon="-1.670023">
        <ele>142.896</ele>
        <time>2021-06-11T13:41:13Z</time>
      </trkpt>
      <trkpt lat="43.167500" lon="-1.670076">
        <ele>143.876</ele>
        <time>2021-06-11T13:41:20Z</time>
      </trkpt>
      <trkpt lat="43.167600" lon="-1.670144">
        <ele>144.874</ele>
        <time>2021-06-11T13:41:30Z</time>
      </trkpt>
      <trkpt lat="43.167625" lon="-1.670153">
        <ele>144.822</ele>
        <time>2021-06-11T13:41:32Z</time>
      </trkpt>
      <trkpt lat="43.167639" lon="-1.670158">
        <ele>144.377</ele>
        <time>2021-06-11T13:41:33Z</time>
      </trkpt>
      <trkpt lat="43.167652" lon="-1.670167">
        <ele>144.336</ele>
        <time>2021-06-11T13:41:34Z</time>
      </trkpt>
      <trkpt lat="43.167666" lon="-1.670175">
        <ele>143.811</ele>
        <time>2021-06-11T13:41:35Z</time>
      </trkpt>
      <trkpt lat="43.167677" lon="-1.670182">
        <ele>143.831</ele>
        <time>2021-06-11T13:41:36Z</time>
      </trkpt>
      <trkpt lat="43.167687" lon="-1.670189">
        <ele>143.861</ele>
        <time>2021-06-11T13:41:37Z</time>
      </trkpt>
      <trkpt lat="43.167764" lon="-1.670242">
        <ele>145.307</ele>
        <time>2021-06-11T13:41:46Z</time>
      </trkpt>
      <trkpt lat="43.167823" lon="-1.670303">
        <ele>147.708</ele>
        <time>2021-06-11T13:41:53Z</time>
      </trkpt>
      <trkpt lat="43.167855" lon="-1.670321">
        <ele>149.150</ele>
        <time>2021-06-11T13:42:01Z</time>
      </trkpt>
      <trkpt lat="43.167886" lon="-1.670344">
        <ele>152.018</ele>
        <time>2021-06-11T13:42:14Z</time>
      </trkpt>
      <trkpt lat="43.167945" lon="-1.670401">
        <ele>153.998</ele>
        <time>2021-06-11T13:42:21Z</time>
      </trkpt>
      <trkpt lat="43.167990" lon="-1.670518">
        <ele>156.886</ele>
        <time>2021-06-11T13:42:30Z</time>
      </trkpt>
      <trkpt lat="43.168024" lon="-1.670609">
        <ele>160.684</ele>
        <time>2021-06-11T13:42:39Z</time>
      </trkpt>
      <trkpt lat="43.168067" lon="-1.670709">
        <ele>162.669</ele>
        <time>2021-06-11T13:42:48Z</time>
      </trkpt>
      <trkpt lat="43.168103" lon="-1.670801">
        <ele>165.978</ele>
        <time>2021-06-11T13:42:57Z</time>
      </trkpt>
      <trkpt lat="43.168132" lon="-1.670854">
        <ele>167.873</ele>
        <time>2021-06-11T13:43:01Z</time>
      </trkpt>
      <trkpt lat="43.168231" lon="-1.670963">
        <ele>167.469</ele>
        <time>2021-06-11T13:43:09Z</time>
      </trkpt>
      <trkpt lat="43.168349" lon="-1.671060">
        <ele>169.304</ele>
        <time>2021-06-11T13:43:19Z</time>
      </trkpt>
      <trkpt lat="43.168466" lon="-1.671108">
        <ele>170.724</ele>
        <time>2021-06-11T13:43:29Z</time>
      </trkpt>
      <trkpt lat="43.168577" lon="-1.671153">
        <ele>169.308</ele>
        <time>2021-06-11T13:43:37Z</time>
      </trkpt>
      <trkpt lat="43.168742" lon="-1.671187">
        <ele>166.943</ele>
        <time>2021-06-11T13:43:49Z</time>
      </trkpt>
      <trkpt lat="43.168855" lon="-1.671199">
        <ele>166.981</ele>
        <time>2021-06-11T13:43:58Z</time>
      </trkpt>
      <trkpt lat="43.168941" lon="-1.671185">
        <ele>166.411</ele>
        <time>2021-06-11T13:44:08Z</time>
      </trkpt>
      <trkpt lat="43.168993" lon="-1.671185">
        <ele>166.489</ele>
        <time>2021-06-11T13:44:15Z</time>
      </trkpt>
      <trkpt lat="43.169152" lon="-1.671186">
        <ele>166.977</ele>
        <time>2021-06-11T13:44:23Z</time>
      </trkpt>
      <trkpt lat="43.169367" lon="-1.671188">
        <ele>167.482</ele>
        <time>2021-06-11T13:44:34Z</time>
      </trkpt>
      <trkpt lat="43.169552" lon="-1.671185">
        <ele>167.821</ele>
        <time>2021-06-11T13:44:44Z</time>
      </trkpt>
      <trkpt lat="43.169751" lon="-1.671191">
        <ele>167.856</ele>
        <time>2021-06-11T13:44:54Z</time>
      </trkpt>
      <trkpt lat="43.169949" lon="-1.671194">
        <ele>168.322</ele>
        <time>2021-06-11T13:45:05Z</time>
      </trkpt>
      <trkpt lat="43.170129" lon="-1.671181">
        <ele>170.262</ele>
        <time>2021-06-11T13:45:15Z</time>
      </trkpt>
      <trkpt lat="43.170316" lon="-1.671217">
        <ele>171.708</ele>
        <time>2021-06-11T13:45:25Z</time>
      </trkpt>
      <trkpt lat="43.170445" lon="-1.671233">
        <ele>172.608</ele>
        <time>2021-06-11T13:45:32Z</time>
      </trkpt>
      <trkpt lat="43.170637" lon="-1.671340">
        <ele>172.619</ele>
        <time>2021-06-11T13:45:40Z</time>
      </trkpt>
      <trkpt lat="43.170767" lon="-1.671440">
        <ele>171.247</ele>
        <time>2021-06-11T13:45:44Z</time>
      </trkpt>
      <trkpt lat="43.171069" lon="-1.671643">
        <ele>169.387</ele>
        <time>2021-06-11T13:45:51Z</time>
      </trkpt>
      <trkpt lat="43.171379" lon="-1.671818">
        <ele>167.865</ele>
        <time>2021-06-11T13:45:58Z</time>
      </trkpt>
      <trkpt lat="43.171677" lon="-1.672054">
        <ele>166.923</ele>
        <time>2021-06-11T13:46:06Z</time>
      </trkpt>
      <trkpt lat="43.171895" lon="-1.672273">
        <ele>167.438</ele>
        <time>2021-06-11T13:46:13Z</time>
      </trkpt>
      <trkpt lat="43.171921" lon="-1.672338">
        <ele>167.467</ele>
        <time>2021-06-11T13:46:15Z</time>
      </trkpt>
      <trkpt lat="43.171918" lon="-1.672361">
        <ele>167.442</ele>
        <time>2021-06-11T13:46:16Z</time>
      </trkpt>
      <trkpt lat="43.171911" lon="-1.672375">
        <ele>167.475</ele>
        <time>2021-06-11T13:46:17Z</time>
      </trkpt>
      <trkpt lat="43.171900" lon="-1.672391">
        <ele>167.828</ele>
        <time>2021-06-11T13:46:23Z</time>
      </trkpt>
      <trkpt lat="43.171884" lon="-1.672386">
        <ele>170.720</ele>
        <time>2021-06-11T13:46:35Z</time>
      </trkpt>
      <trkpt lat="43.171865" lon="-1.672413">
        <ele>171.208</ele>
        <time>2021-06-11T13:46:44Z</time>
      </trkpt>
      <trkpt lat="43.171825" lon="-1.672508">
        <ele>172.234</ele>
        <time>2021-06-11T13:46:53Z</time>
      </trkpt>
      <trkpt lat="43.171831" lon="-1.672519">
        <ele>172.242</ele>
        <time>2021-06-11T13:47:01Z</time>
      </trkpt>
      <trkpt lat="43.171832" lon="-1.672530">
        <ele>171.252</ele>
        <time>2021-06-11T13:47:17Z</time>
      </trkpt>
      <trkpt lat="43.171832" lon="-1.672535">
        <ele>170.260</ele>
        <time>2021-06-11T13:47:30Z</time>
      </trkpt>
      <trkpt lat="43.171834" lon="-1.672528">
        <ele>169.398</ele>
        <time>2021-06-11T13:47:47Z</time>
      </trkpt>
      <trkpt lat="43.171823" lon="-1.672525">
        <ele>170.233</ele>
        <time>2021-06-11T13:48:02Z</time>
      </trkpt>
      <trkpt lat="43.171816" lon="-1.672536">
        <ele>171.722</ele>
        <time>2021-06-11T13:48:15Z</time>
      </trkpt>
      <trkpt lat="43.171815" lon="-1.672545">
        <ele>172.237</ele>
        <time>2021-06-11T13:48:30Z</time>
      </trkpt>
      <trkpt lat="43.171831" lon="-1.672533">
        <ele>171.263</ele>
        <time>2021-06-11T13:48:53Z</time>
      </trkpt>
      <trkpt lat="43.171824" lon="-1.672519">
        <ele>172.244</ele>
        <time>2021-06-11T13:49:14Z</time>
      </trkpt>
      <trkpt lat="43.171829" lon="-1.672523">
        <ele>174.118</ele>
        <time>2021-06-11T13:49:36Z</time>
      </trkpt>
      <trkpt lat="43.171856" lon="-1.672539">
        <ele>176.008</ele>
        <time>2021-06-11T13:50:00Z</time>
      </trkpt>
      <trkpt lat="43.171865" lon="-1.672541">
        <ele>176.523</ele>
        <time>2021-06-11T13:50:31Z</time>
      </trkpt>
      <trkpt lat="43.171849" lon="-1.672529">
        <ele>174.641</ele>
        <time>2021-06-11T13:50:59Z</time>
      </trkpt>
      <trkpt lat="43.171849" lon="-1.672519">
        <ele>173.171</ele>
        <time>2021-06-11T13:51:20Z</time>
      </trkpt>
      <trkpt lat="43.171852" lon="-1.672515">
        <ele>170.279</ele>
        <time>2021-06-11T13:51:46Z</time>
      </trkpt>
      <trkpt lat="43.171847" lon="-1.672507">
        <ele>169.867</ele>
        <time>2021-06-11T13:52:12Z</time>
      </trkpt>
      <trkpt lat="43.171841" lon="-1.672509">
        <ele>171.782</ele>
        <time>2021-06-11T13:52:45Z</time>
      </trkpt>
      <trkpt lat="43.171847" lon="-1.672518">
        <ele>169.381</ele>
        <time>2021-06-11T13:53:12Z</time>
      </trkpt>
      <trkpt lat="43.171851" lon="-1.672530">
        <ele>169.316</ele>
        <time>2021-06-11T13:53:40Z</time>
      </trkpt>
      <trkpt lat="43.171840" lon="-1.672522">
        <ele>170.717</ele>
        <time>2021-06-11T13:54:05Z</time>
      </trkpt>
      <trkpt lat="43.171845" lon="-1.672522">
        <ele>171.787</ele>
        <time>2021-06-11T13:54:29Z</time>
      </trkpt>
      <trkpt lat="43.171840" lon="-1.672516">
        <ele>174.115</ele>
        <time>2021-06-11T13:54:54Z</time>
      </trkpt>
      <trkpt lat="43.171844" lon="-1.672543">
        <ele>175.508</ele>
        <time>2021-06-11T13:55:19Z</time>
      </trkpt>
      <trkpt lat="43.171830" lon="-1.672554">
        <ele>176.058</ele>
        <time>2021-06-11T13:55:36Z</time>
      </trkpt>
      <trkpt lat="43.171826" lon="-1.672578">
        <ele>175.566</ele>
        <time>2021-06-11T13:55:38Z</time>
      </trkpt>
      <trkpt lat="43.171823" lon="-1.672595">
        <ele>175.136</ele>
        <time>2021-06-11T13:55:39Z</time>
      </trkpt>
      <trkpt lat="43.171818" lon="-1.672608">
        <ele>175.154</ele>
        <time>2021-06-11T13:55:40Z</time>
      </trkpt>
      <trkpt lat="43.171814" lon="-1.672622">
        <ele>175.122</ele>
        <time>2021-06-11T13:55:41Z</time>
      </trkpt>
      <trkpt lat="43.171810" lon="-1.672637">
        <ele>175.197</ele>
        <time>2021-06-11T13:55:42Z</time>
      </trkpt>
      <trkpt lat="43.171805" lon="-1.672653">
        <ele>175.126</ele>
        <time>2021-06-11T13:55:43Z</time>
      </trkpt>
      <trkpt lat="43.171800" lon="-1.672666">
        <ele>175.161</ele>
        <time>2021-06-11T13:55:44Z</time>
      </trkpt>
      <trkpt lat="43.171738" lon="-1.672769">
        <ele>176.586</ele>
        <time>2021-06-11T13:55:54Z</time>
      </trkpt>
      <trkpt lat="43.171667" lon="-1.672873">
        <ele>177.560</ele>
        <time>2021-06-11T13:56:03Z</time>
      </trkpt>
      <trkpt lat="43.171587" lon="-1.672981">
        <ele>177.926</ele>
        <time>2021-06-11T13:56:14Z</time>
      </trkpt>
      <trkpt lat="43.171524" lon="-1.673087">
        <ele>177.008</ele>
        <time>2021-06-11T13:56:24Z</time>
      </trkpt>
      <trkpt lat="43.171413" lon="-1.673188">
        <ele>175.115</ele>
        <time>2021-06-11T13:56:35Z</time>
      </trkpt>
      <trkpt lat="43.171294" lon="-1.673177">
        <ele>172.673</ele>
        <time>2021-06-11T13:56:45Z</time>
      </trkpt>
      <trkpt lat="43.171207" lon="-1.673113">
        <ele>172.263</ele>
        <time>2021-06-11T13:56:54Z</time>
      </trkpt>
      <trkpt lat="43.171159" lon="-1.673092">
        <ele>172.631</ele>
        <time>2021-06-11T13:56:59Z</time>
      </trkpt>
      <trkpt lat="43.171145" lon="-1.673094">
        <ele>172.239</ele>
        <time>2021-06-11T13:57:00Z</time>
      </trkpt>
      <trkpt lat="43.171042" lon="-1.673095">
        <ele>170.284</ele>
        <time>2021-06-11T13:57:09Z</time>
      </trkpt>
      <trkpt lat="43.170960" lon="-1.673104">
        <ele>170.213</ele>
        <time>2021-06-11T13:57:16Z</time>
      </trkpt>
      <trkpt lat="43.170942" lon="-1.673101">
        <ele>169.878</ele>
        <time>2021-06-11T13:57:18Z</time>
      </trkpt>
      <trkpt lat="43.170933" lon="-1.673093">
        <ele>169.844</ele>
        <time>2021-06-11T13:57:19Z</time>
      </trkpt>
      <trkpt lat="43.170924" lon="-1.673085">
        <ele>169.805</ele>
        <time>2021-06-11T13:57:20Z</time>
      </trkpt>
      <trkpt lat="43.170881" lon="-1.673092">
        <ele>168.815</ele>
        <time>2021-06-11T13:57:25Z</time>
      </trkpt>
      <trkpt lat="43.170871" lon="-1.673105">
        <ele>167.808</ele>
        <time>2021-06-11T13:57:32Z</time>
      </trkpt>
      <trkpt lat="43.170857" lon="-1.673097">
        <ele>170.291</ele>
        <time>2021-06-11T13:57:52Z</time>
      </trkpt>
      <trkpt lat="43.170842" lon="-1.673096">
        <ele>170.759</ele>
        <time>2021-06-11T13:58:05Z</time>
      </trkpt>
      <trkpt lat="43.170859" lon="-1.673102">
        <ele>170.779</ele>
        <time>2021-06-11T13:58:30Z</time>
      </trkpt>
      <trkpt lat="43.170860" lon="-1.673135">
        <ele>168.367</ele>
        <time>2021-06-11T13:58:44Z</time>
      </trkpt>
      <trkpt lat="43.341194" lon="-1.776413">
        <ele>6.886</ele>
        <time>2021-06-12T10:53:06Z</time>
      </trkpt>
      <trkpt lat="43.348835" lon="-1.785192">
        <ele>9.760</ele>
        <time>2021-06-12T11:09:32Z</time>
      </trkpt>
      <trkpt lat="43.338180" lon="-1.788729">
        <ele>31.326</ele>
        <time>2021-06-12T11:24:27Z</time>
      </trkpt>
      <trkpt lat="43.346177" lon="-1.801862">
        <ele>7.308</ele>
        <time>2021-06-12T12:33:22Z</time>
      </trkpt>
      <trkpt lat="43.359260" lon="-1.792228">
        <ele>2.025</ele>
        <time>2021-06-12T12:42:56Z</time>
      </trkpt>
      <trkpt lat="43.366710" lon="-1.808667">
        <ele>40.985</ele>
        <time>2021-06-13T06:50:03Z</time>
      </trkpt>
      <trkpt lat="43.364476" lon="-1.807299">
        <ele>53.486</ele>
        <time>2021-06-13T06:51:57Z</time>
      </trkpt>
      <trkpt lat="43.372510" lon="-1.809980">
        <ele>136.636</ele>
        <time>2021-06-13T07:01:08Z</time>
      </trkpt>
      <trkpt lat="43.368989" lon="-1.811902">
        <ele>159.238</ele>
        <time>2021-06-13T07:05:50Z</time>
      </trkpt>
      <trkpt lat="43.366752" lon="-1.826111">
        <ele>191.462</ele>
        <time>2021-06-13T07:31:47Z</time>
      </trkpt>
      <trkpt lat="43.369700" lon="-1.832713">
        <ele>190.991</ele>
        <time>2021-06-13T07:35:01Z</time>
      </trkpt>
      <trkpt lat="43.365490" lon="-1.829473">
        <ele>262.543</ele>
        <time>2021-06-13T07:42:44Z</time>
      </trkpt>
      <trkpt lat="43.350388" lon="-1.846352">
        <ele>426.964</ele>
        <time>2021-06-13T08:17:24Z</time>
      </trkpt>
      <trkpt lat="43.338610" lon="-1.871723">
        <ele>388.006</ele>
        <time>2021-06-13T08:32:51Z</time>
      </trkpt>
      <trkpt lat="43.332430" lon="-1.904003">
        <ele>232.316</ele>
        <time>2021-06-13T08:38:48Z</time>
      </trkpt>
      <trkpt lat="43.330057" lon="-1.898259">
        <ele>175.108</ele>
        <time>2021-06-13T08:40:05Z</time>
      </trkpt>
      <trkpt lat="43.324528" lon="-1.910297">
        <ele>20.373</ele>
        <time>2021-06-13T08:44:39Z</time>
      </trkpt>
      <trkpt lat="43.324200" lon="-1.901548">
        <ele>30.983</ele>
        <time>2021-06-13T08:48:55Z</time>
      </trkpt>
      <trkpt lat="43.319304" lon="-1.898061">
        <ele>9.794</ele>
        <time>2021-06-13T08:52:07Z</time>
      </trkpt>
      <trkpt lat="43.317596" lon="-1.913515">
        <ele>14.074</ele>
        <time>2021-06-13T09:01:06Z</time>
      </trkpt>
      <trkpt lat="43.321324" lon="-1.922425">
        <ele>20.816</ele>
        <time>2021-06-13T09:04:29Z</time>
      </trkpt>
      <trkpt lat="43.319663" lon="-1.938456">
        <ele>22.780</ele>
        <time>2021-06-13T09:09:38Z</time>
      </trkpt>
      <trkpt lat="43.322294" lon="-1.936813">
        <ele>8.729</ele>
        <time>2021-06-13T09:11:08Z</time>
      </trkpt>
      <trkpt lat="43.322122" lon="-1.965712">
        <ele>11.681</ele>
        <time>2021-06-13T09:41:22Z</time>
      </trkpt>
      <trkpt lat="43.326394" lon="-1.971761">
        <ele>12.679</ele>
        <time>2021-06-13T09:48:12Z</time>
      </trkpt>
      <trkpt lat="43.320991" lon="-1.986223">
        <ele>3.905</ele>
        <time>2021-06-13T10:10:14Z</time>
      </trkpt>
      <trkpt lat="43.315154" lon="-1.989155">
        <ele>8.325</ele>
        <time>2021-06-13T10:17:14Z</time>
      </trkpt>
      <trkpt lat="43.316498" lon="-2.004433">
        <ele>5.408</ele>
        <time>2021-06-13T10:22:45Z</time>
      </trkpt>
      <trkpt lat="43.321447" lon="-2.005338">
        <ele>2.054</ele>
        <time>2021-06-13T10:37:56Z</time>
      </trkpt>
      <trkpt lat="43.316627" lon="-2.004698">
        <ele>3.514</ele>
        <time>2021-06-13T10:46:04Z</time>
      </trkpt>
      <trkpt lat="43.313237" lon="-2.011058">
        <ele>44.835</ele>
        <time>2021-06-13T10:53:13Z</time>
      </trkpt>
      <trkpt lat="43.319292" lon="-2.017450">
        <ele>139.015</ele>
        <time>2021-06-13T11:15:21Z</time>
      </trkpt>
      <trkpt lat="43.294748" lon="-2.092649">
        <ele>305.347</ele>
        <time>2021-06-13T14:13:01Z</time>
      </trkpt>
      <trkpt lat="43.293946" lon="-2.089252">
        <ele>338.581</ele>
        <time>2021-06-13T14:21:49Z</time>
      </trkpt>
      <trkpt lat="43.289830" lon="-2.104951">
        <ele>280.880</ele>
        <time>2021-06-13T14:31:39Z</time>
      </trkpt>
      <trkpt lat="43.289339" lon="-2.094410">
        <ele>201.082</ele>
        <time>2021-06-13T14:34:36Z</time>
      </trkpt>
      <trkpt lat="43.281802" lon="-2.114554">
        <ele>76.584</ele>
        <time>2021-06-13T14:43:15Z</time>
      </trkpt>
      <trkpt lat="43.276978" lon="-2.113395">
        <ele>9.707</ele>
        <time>2021-06-13T14:48:21Z</time>
      </trkpt>
      <trkpt lat="43.275225" lon="-2.132645">
        <ele>7.317</ele>
        <time>2021-06-13T15:10:51Z</time>
      </trkpt>
      <trkpt lat="43.284989" lon="-2.131964">
        <ele>5.408</ele>
        <time>2021-06-13T15:15:42Z</time>
      </trkpt>
      <trkpt lat="43.287573" lon="-2.146510">
        <ele>97.785</ele>
        <time>2021-06-13T15:30:45Z</time>
      </trkpt>
      <trkpt lat="43.290924" lon="-2.145584">
        <ele>158.255</ele>
        <time>2021-06-14T07:09:20Z</time>
      </trkpt>
      <trkpt lat="43.287261" lon="-2.146725">
        <ele>95.376</ele>
        <time>2021-06-14T07:13:59Z</time>
      </trkpt>
      <trkpt lat="43.287990" lon="-2.150750">
        <ele>73.276</ele>
        <time>2021-06-14T07:15:06Z</time>
      </trkpt>
      <trkpt lat="43.283048" lon="-2.151490">
        <ele>28.058</ele>
        <time>2021-06-14T07:17:19Z</time>
      </trkpt>
      <trkpt lat="43.284761" lon="-2.157572">
        <ele>1.182</ele>
        <time>2021-06-14T07:19:03Z</time>
      </trkpt>
      <trkpt lat="43.290805" lon="-2.152740">
        <ele>6.881</ele>
        <time>2021-06-14T07:23:19Z</time>
      </trkpt>
      <trkpt lat="43.286635" lon="-2.177392">
        <ele>12.653</ele>
        <time>2021-06-14T07:40:36Z</time>
      </trkpt>
      <trkpt lat="43.294223" lon="-2.183908">
        <ele>8.377</ele>
        <time>2021-06-14T07:49:21Z</time>
      </trkpt>
      <trkpt lat="43.292089" lon="-2.189960">
        <ele>2.561</ele>
        <time>2021-06-14T07:58:48Z</time>
      </trkpt>
      <trkpt lat="43.298349" lon="-2.192191">
        <ele>10.727</ele>
        <time>2021-06-14T08:04:03Z</time>
      </trkpt>
      <trkpt lat="43.302935" lon="-2.204411">
        <ele>30.408</ele>
        <time>2021-06-14T08:11:53Z</time>
      </trkpt>
      <trkpt lat="43.306551" lon="-2.201924">
        <ele>15.024</ele>
        <time>2021-06-14T08:22:33Z</time>
      </trkpt>
      <trkpt lat="43.303331" lon="-2.206654">
        <ele>12.174</ele>
        <time>2021-06-14T08:25:46Z</time>
      </trkpt>
      <trkpt lat="43.310330" lon="-2.228065">
        <ele>26.515</ele>
        <time>2021-06-14T08:33:27Z</time>
      </trkpt>
      <trkpt lat="43.307530" lon="-2.239114">
        <ele>12.155</ele>
        <time>2021-06-14T08:35:38Z</time>
      </trkpt>
      <trkpt lat="43.293923" lon="-2.253208">
        <ele>5.477</ele>
        <time>2021-06-14T08:54:34Z</time>
      </trkpt>
      <trkpt lat="43.296152" lon="-2.256108">
        <ele>38.171</ele>
        <time>2021-06-14T08:57:32Z</time>
      </trkpt>
      <trkpt lat="43.285534" lon="-2.258517">
        <ele>13.670</ele>
        <time>2021-06-14T09:02:55Z</time>
      </trkpt>
      <trkpt lat="43.284802" lon="-2.265824">
        <ele>5.452</ele>
        <time>2021-06-14T09:06:11Z</time>
      </trkpt>
      <trkpt lat="43.275473" lon="-2.274001">
        <ele>30.983</ele>
        <time>2021-06-14T09:11:18Z</time>
      </trkpt>
      <trkpt lat="43.281993" lon="-2.293481">
        <ele>105.425</ele>
        <time>2021-06-14T09:24:14Z</time>
      </trkpt>
      <trkpt lat="43.279020" lon="-2.298718">
        <ele>127.017</ele>
        <time>2021-06-14T09:39:15Z</time>
      </trkpt>
      <trkpt lat="43.284320" lon="-2.311120">
        <ele>144.808</ele>
        <time>2021-06-14T09:58:49Z</time>
      </trkpt>
      <trkpt lat="43.279398" lon="-2.310322">
        <ele>140.075</ele>
        <time>2021-06-14T10:00:50Z</time>
      </trkpt>
      <trkpt lat="43.281078" lon="-2.317350">
        <ele>161.615</ele>
        <time>2021-06-14T10:03:58Z</time>
      </trkpt>
      <trkpt lat="43.274935" lon="-2.324886">
        <ele>197.666</ele>
        <time>2021-06-14T10:11:41Z</time>
      </trkpt>
      <trkpt lat="43.282101" lon="-2.337471">
        <ele>199.616</ele>
        <time>2021-06-14T10:19:01Z</time>
      </trkpt>
      <trkpt lat="43.293955" lon="-2.336963">
        <ele>143.868</ele>
        <time>2021-06-14T10:21:49Z</time>
      </trkpt>
      <trkpt lat="43.294532" lon="-2.341524">
        <ele>120.782</ele>
        <time>2021-06-14T10:22:57Z</time>
      </trkpt>
      <trkpt lat="43.299980" lon="-2.337077">
        <ele>81.811</ele>
        <time>2021-06-14T10:24:22Z</time>
      </trkpt>
      <trkpt lat="43.302176" lon="-2.343093">
        <ele>57.813</ele>
        <time>2021-06-14T10:34:49Z</time>
      </trkpt>
      <trkpt lat="43.288213" lon="-2.359853">
        <ele>11.165</ele>
        <time>2021-06-14T10:44:41Z</time>
      </trkpt>
      <trkpt lat="43.290682" lon="-2.363503">
        <ele>15.068</ele>
        <time>2021-06-14T10:46:03Z</time>
      </trkpt>
      <trkpt lat="43.289925" lon="-2.360165">
        <ele>12.114</ele>
        <time>2021-06-14T10:49:47Z</time>
      </trkpt>
      <trkpt lat="43.303249" lon="-2.357058">
        <ele>15.508</ele>
        <time>2021-06-14T10:57:43Z</time>
      </trkpt>
      <trkpt lat="43.308538" lon="-2.372411">
        <ele>60.213</ele>
        <time>2021-06-14T11:09:25Z</time>
      </trkpt>
      <trkpt lat="43.304303" lon="-2.387059">
        <ele>59.743</ele>
        <time>2021-06-14T11:16:41Z</time>
      </trkpt>
      <trkpt lat="43.309790" lon="-2.408593">
        <ele>18.894</ele>
        <time>2021-06-14T11:24:46Z</time>
      </trkpt>
      <trkpt lat="43.320642" lon="-2.412852">
        <ele>50.674</ele>
        <time>2021-06-14T11:47:51Z</time>
      </trkpt>
      <trkpt lat="43.318379" lon="-2.434171">
        <ele>11.146</ele>
        <time>2021-06-14T12:50:31Z</time>
      </trkpt>
      <trkpt lat="43.319464" lon="-2.455368">
        <ele>9.210</ele>
        <time>2021-06-14T12:57:43Z</time>
      </trkpt>
      <trkpt lat="43.312787" lon="-2.458559">
        <ele>42.429</ele>
        <time>2021-06-14T13:04:36Z</time>
      </trkpt>
      <trkpt lat="43.308244" lon="-2.469982">
        <ele>40.951</ele>
        <time>2021-06-14T13:08:55Z</time>
      </trkpt>
      <trkpt lat="43.293910" lon="-2.477910">
        <ele>71.776</ele>
        <time>2021-06-14T13:20:23Z</time>
      </trkpt>
      <trkpt lat="43.288180" lon="-2.493877">
        <ele>69.390</ele>
        <time>2021-06-14T13:33:36Z</time>
      </trkpt>
      <trkpt lat="43.266260" lon="-2.499449">
        <ele>97.719</ele>
        <time>2021-06-14T13:44:28Z</time>
      </trkpt>
      <trkpt lat="43.264138" lon="-2.517504">
        <ele>117.908</ele>
        <time>2021-06-14T13:53:09Z</time>
      </trkpt>
      <trkpt lat="43.252971" lon="-2.527360">
        <ele>124.684</ele>
        <time>2021-06-14T13:58:42Z</time>
      </trkpt>
      <trkpt lat="43.249752" lon="-2.543532">
        <ele>156.324</ele>
        <time>2021-06-14T14:07:46Z</time>
      </trkpt>
      <trkpt lat="43.251451" lon="-2.558870">
        <ele>227.435</ele>
        <time>2021-06-15T06:56:18Z</time>
      </trkpt>
      <trkpt lat="43.254902" lon="-2.558964">
        <ele>246.245</ele>
        <time>2021-06-15T07:00:02Z</time>
      </trkpt>
      <trkpt lat="43.255636" lon="-2.567344">
        <ele>309.637</ele>
        <time>2021-06-15T07:12:04Z</time>
      </trkpt>
      <trkpt lat="43.251490" lon="-2.571255">
        <ele>360.611</ele>
        <time>2021-06-15T07:18:09Z</time>
      </trkpt>
      <trkpt lat="43.260751" lon="-2.589210">
        <ele>231.840</ele>
        <time>2021-06-15T07:23:03Z</time>
      </trkpt>
      <trkpt lat="43.272304" lon="-2.595942">
        <ele>198.652</ele>
        <time>2021-06-15T07:30:43Z</time>
      </trkpt>
      <trkpt lat="43.270995" lon="-2.607228">
        <ele>216.989</ele>
        <time>2021-06-15T07:35:49Z</time>
      </trkpt>
      <trkpt lat="43.274787" lon="-2.610806">
        <ele>200.006</ele>
        <time>2021-06-15T07:40:11Z</time>
      </trkpt>
      <trkpt lat="43.273497" lon="-2.617615">
        <ele>157.726</ele>
        <time>2021-06-15T07:41:57Z</time>
      </trkpt>
      <trkpt lat="43.283187" lon="-2.632437">
        <ele>107.308</ele>
        <time>2021-06-15T07:45:35Z</time>
      </trkpt>
      <trkpt lat="43.297041" lon="-2.635163">
        <ele>83.745</ele>
        <time>2021-06-15T07:54:00Z</time>
      </trkpt>
      <trkpt lat="43.320495" lon="-2.656046">
        <ele>10.215</ele>
        <time>2021-06-15T08:06:13Z</time>
      </trkpt>
      <trkpt lat="43.318060" lon="-2.678672">
        <ele>6.896</ele>
        <time>2021-06-15T08:13:34Z</time>
      </trkpt>
      <trkpt lat="43.310941" lon="-2.681789">
        <ele>28.516</ele>
        <time>2021-06-15T08:40:01Z</time>
      </trkpt>
      <trkpt lat="43.308693" lon="-2.689168">
        <ele>48.248</ele>
        <time>2021-06-15T08:43:37Z</time>
      </trkpt>
      <trkpt lat="43.312402" lon="-2.692419">
        <ele>74.172</ele>
        <time>2021-06-15T08:46:40Z</time>
      </trkpt>
      <trkpt lat="43.309683" lon="-2.693496">
        <ele>88.541</ele>
        <time>2021-06-15T08:50:12Z</time>
      </trkpt>
      <trkpt lat="43.311276" lon="-2.702044">
        <ele>147.213</ele>
        <time>2021-06-15T09:22:29Z</time>
      </trkpt>
      <trkpt lat="43.317996" lon="-2.705651">
        <ele>199.111</ele>
        <time>2021-06-15T09:29:30Z</time>
      </trkpt>
      <trkpt lat="43.313976" lon="-2.722025">
        <ele>271.721</ele>
        <time>2021-06-15T09:48:25Z</time>
      </trkpt>
      <trkpt lat="43.322454" lon="-2.725880">
        <ele>216.903</ele>
        <time>2021-06-15T09:50:29Z</time>
      </trkpt>
      <trkpt lat="43.334728" lon="-2.748747">
        <ele>99.608</ele>
        <time>2021-06-15T09:55:45Z</time>
      </trkpt>
      <trkpt lat="43.327854" lon="-2.755796">
        <ele>76.548</ele>
        <time>2021-06-15T09:58:59Z</time>
      </trkpt>
      <trkpt lat="43.319246" lon="-2.745305">
        <ele>92.998</ele>
        <time>2021-06-15T10:04:35Z</time>
      </trkpt>
      <trkpt lat="43.311099" lon="-2.747375">
        <ele>105.419</ele>
        <time>2021-06-15T10:08:50Z</time>
      </trkpt>
      <trkpt lat="43.299799" lon="-2.740086">
        <ele>176.099</ele>
        <time>2021-06-15T10:21:19Z</time>
      </trkpt>
      <trkpt lat="43.298694" lon="-2.747788">
        <ele>146.291</ele>
        <time>2021-06-15T10:23:52Z</time>
      </trkpt>
      <trkpt lat="43.303194" lon="-2.749732">
        <ele>185.615</ele>
        <time>2021-06-15T10:31:28Z</time>
      </trkpt>
      <trkpt lat="43.290164" lon="-2.763789">
        <ele>279.484</ele>
        <time>2021-06-15T11:03:08Z</time>
      </trkpt>
      <trkpt lat="43.279877" lon="-2.756218">
        <ele>301.956</ele>
        <time>2021-06-15T11:14:14Z</time>
      </trkpt>
      <trkpt lat="43.282437" lon="-2.761168">
        <ele>260.184</ele>
        <time>2021-06-15T11:15:05Z</time>
      </trkpt>
      <trkpt lat="43.274679" lon="-2.782288">
        <ele>148.607</ele>
        <time>2021-06-15T11:18:55Z</time>
      </trkpt>
      <trkpt lat="43.267774" lon="-2.783669">
        <ele>100.117</ele>
        <time>2021-06-15T11:20:16Z</time>
      </trkpt>
      <trkpt lat="43.260747" lon="-2.796275">
        <ele>79.408</ele>
        <time>2021-06-15T12:06:47Z</time>
      </trkpt>
      <trkpt lat="43.285053" lon="-2.866237">
        <ele>54.495</ele>
        <time>2021-06-15T12:45:42Z</time>
      </trkpt>
      <trkpt lat="43.275908" lon="-2.866699">
        <ele>107.375</ele>
        <time>2021-06-15T12:59:32Z</time>
      </trkpt>
      <trkpt lat="43.275697" lon="-2.871235">
        <ele>117.476</ele>
        <time>2021-06-15T13:03:02Z</time>
      </trkpt>
      <trkpt lat="43.270644" lon="-2.872091">
        <ele>241.496</ele>
        <time>2021-06-15T13:39:20Z</time>
      </trkpt>
      <trkpt lat="43.269820" lon="-2.888792">
        <ele>337.068</ele>
        <time>2021-06-15T14:02:44Z</time>
      </trkpt>
      <trkpt lat="43.273109" lon="-2.897419">
        <ele>305.832</ele>
        <time>2021-06-15T14:04:37Z</time>
      </trkpt>
      <trkpt lat="43.269221" lon="-2.899858">
        <ele>282.281</ele>
        <time>2021-06-15T14:05:42Z</time>
      </trkpt>
      <trkpt lat="43.270655" lon="-2.911164">
        <ele>246.773</ele>
        <time>2021-06-15T14:08:00Z</time>
      </trkpt>
      <trkpt lat="43.268887" lon="-2.907325">
        <ele>253.985</ele>
        <time>2021-06-15T14:11:01Z</time>
      </trkpt>
      <trkpt lat="43.255440" lon="-2.916801">
        <ele>66.489</ele>
        <time>2021-06-15T14:31:42Z</time>
      </trkpt>
      <trkpt lat="43.251653" lon="-2.914548">
        <ele>93.817</ele>
        <time>2021-06-15T14:35:12Z</time>
      </trkpt>
      <trkpt lat="43.260176" lon="-2.905485">
        <ele>89.508</ele>
        <time>2021-06-22T05:42:03Z</time>
      </trkpt>
      <trkpt lat="43.257129" lon="-2.907576">
        <ele>81.875</ele>
        <time>2021-06-22T05:44:05Z</time>
      </trkpt>
      <trkpt lat="43.264870" lon="-2.917037">
        <ele>56.325</ele>
        <time>2021-06-22T05:55:25Z</time>
      </trkpt>
      <trkpt lat="43.262966" lon="-2.924454">
        <ele>14.546</ele>
        <time>2021-06-22T05:59:49Z</time>
      </trkpt>
      <trkpt lat="43.268304" lon="-2.931559">
        <ele>15.016</ele>
        <time>2021-06-22T06:04:43Z</time>
      </trkpt>
      <trkpt lat="43.264869" lon="-2.958792">
        <ele>10.228</ele>
        <time>2021-06-22T06:16:19Z</time>
      </trkpt>
      <trkpt lat="43.279687" lon="-2.971134">
        <ele>8.782</ele>
        <time>2021-06-22T06:24:44Z</time>
      </trkpt>
      <trkpt lat="43.278730" lon="-2.978432">
        <ele>14.011</ele>
        <time>2021-06-22T06:28:28Z</time>
      </trkpt>
      <trkpt lat="43.292100" lon="-2.973570">
        <ele>6.823</ele>
        <time>2021-06-22T06:35:19Z</time>
      </trkpt>
      <trkpt lat="43.302591" lon="-2.980527">
        <ele>5.911</ele>
        <time>2021-06-22T06:41:00Z</time>
      </trkpt>
      <trkpt lat="43.302563" lon="-2.999096">
        <ele>5.421</ele>
        <time>2021-06-22T06:47:38Z</time>
      </trkpt>
      <trkpt lat="43.306401" lon="-2.999981">
        <ele>13.103</ele>
        <time>2021-06-22T06:49:36Z</time>
      </trkpt>
      <trkpt lat="43.304580" lon="-3.007482">
        <ele>14.508</ele>
        <time>2021-06-22T06:52:39Z</time>
      </trkpt>
      <trkpt lat="43.313495" lon="-3.028538">
        <ele>32.898</ele>
        <time>2021-06-22T07:02:47Z</time>
      </trkpt>
      <trkpt lat="43.310747" lon="-3.032494">
        <ele>41.938</ele>
        <time>2021-06-22T07:04:37Z</time>
      </trkpt>
      <trkpt lat="43.317377" lon="-3.063058">
        <ele>88.529</ele>
        <time>2021-06-22T07:31:20Z</time>
      </trkpt>
      <trkpt lat="43.329354" lon="-3.079336">
        <ele>118.859</ele>
        <time>2021-06-22T07:45:23Z</time>
      </trkpt>
      <trkpt lat="43.330360" lon="-3.073938">
        <ele>101.081</ele>
        <time>2021-06-22T07:47:04Z</time>
      </trkpt>
      <trkpt lat="43.345572" lon="-3.109977">
        <ele>4.435</ele>
        <time>2021-06-22T08:11:34Z</time>
      </trkpt>
      <trkpt lat="43.337314" lon="-3.112144">
        <ele>6.344</ele>
        <time>2021-06-22T08:17:30Z</time>
      </trkpt>
      <trkpt lat="43.339341" lon="-3.119785">
        <ele>27.536</ele>
        <time>2021-06-22T08:24:25Z</time>
      </trkpt>
      <trkpt lat="43.344634" lon="-3.121045">
        <ele>20.819</ele>
        <time>2021-06-22T08:26:35Z</time>
      </trkpt>
      <trkpt lat="43.347835" lon="-3.134758">
        <ele>49.609</ele>
        <time>2021-06-22T08:35:47Z</time>
      </trkpt>
      <trkpt lat="43.343865" lon="-3.139022">
        <ele>99.119</ele>
        <time>2021-06-22T08:41:56Z</time>
      </trkpt>
      <trkpt lat="43.345432" lon="-3.146307">
        <ele>66.908</ele>
        <time>2021-06-22T08:46:16Z</time>
      </trkpt>
      <trkpt lat="43.346322" lon="-3.143226">
        <ele>57.878</ele>
        <time>2021-06-22T08:47:25Z</time>
      </trkpt>
      <trkpt lat="43.351502" lon="-3.150466">
        <ele>46.748</ele>
        <time>2021-06-22T08:52:35Z</time>
      </trkpt>
      <trkpt lat="43.352779" lon="-3.168645">
        <ele>34.729</ele>
        <time>2021-06-22T09:15:29Z</time>
      </trkpt>
      <trkpt lat="43.349574" lon="-3.166528">
        <ele>31.869</ele>
        <time>2021-06-22T09:17:37Z</time>
      </trkpt>
      <trkpt lat="43.349846" lon="-3.172866">
        <ele>23.221</ele>
        <time>2021-06-22T09:24:07Z</time>
      </trkpt>
      <trkpt lat="43.354519" lon="-3.174574">
        <ele>70.345</ele>
        <time>2021-06-22T09:29:44Z</time>
      </trkpt>
      <trkpt lat="43.353885" lon="-3.182505">
        <ele>112.144</ele>
        <time>2021-06-22T09:35:51Z</time>
      </trkpt>
      <trkpt lat="43.361018" lon="-3.189051">
        <ele>140.946</ele>
        <time>2021-06-22T09:45:17Z</time>
      </trkpt>
      <trkpt lat="43.362592" lon="-3.186011">
        <ele>114.569</ele>
        <time>2021-06-22T09:46:08Z</time>
      </trkpt>
      <trkpt lat="43.358808" lon="-3.200932">
        <ele>14.504</ele>
        <time>2021-06-22T09:51:20Z</time>
      </trkpt>
      <trkpt lat="43.369829" lon="-3.203439">
        <ele>41.924</ele>
        <time>2021-06-22T10:36:50Z</time>
      </trkpt>
      <trkpt lat="43.369376" lon="-3.214912">
        <ele>6.308</ele>
        <time>2021-06-22T10:52:03Z</time>
      </trkpt>
      <trkpt lat="43.383609" lon="-3.220959">
        <ele>45.833</ele>
        <time>2021-06-23T05:58:18Z</time>
      </trkpt>
      <trkpt lat="43.396344" lon="-3.237582">
        <ele>43.833</ele>
        <time>2021-06-23T06:09:29Z</time>
      </trkpt>
      <trkpt lat="43.400816" lon="-3.265946">
        <ele>36.674</ele>
        <time>2021-06-23T06:23:28Z</time>
      </trkpt>
      <trkpt lat="43.398645" lon="-3.277600">
        <ele>66.934</ele>
        <time>2021-06-23T06:31:10Z</time>
      </trkpt>
      <trkpt lat="43.404193" lon="-3.300043">
        <ele>30.936</ele>
        <time>2021-06-23T06:39:49Z</time>
      </trkpt>
      <trkpt lat="43.401931" lon="-3.315693">
        <ele>17.410</ele>
        <time>2021-06-23T06:48:58Z</time>
      </trkpt>
      <trkpt lat="43.391631" lon="-3.314698">
        <ele>7.899</ele>
        <time>2021-06-23T06:53:34Z</time>
      </trkpt>
      <trkpt lat="43.379266" lon="-3.321149">
        <ele>4.951</ele>
        <time>2021-06-23T07:00:44Z</time>
      </trkpt>
      <trkpt lat="43.384242" lon="-3.322907">
        <ele>42.987</ele>
        <time>2021-06-23T07:08:22Z</time>
      </trkpt>
      <trkpt lat="43.393787" lon="-3.344862">
        <ele>136.642</ele>
        <time>2021-06-23T07:29:12Z</time>
      </trkpt>
      <trkpt lat="43.391136" lon="-3.352480">
        <ele>137.626</ele>
        <time>2021-06-23T07:32:13Z</time>
      </trkpt>
      <trkpt lat="43.396760" lon="-3.357106">
        <ele>84.208</ele>
        <time>2021-06-23T07:33:44Z</time>
      </trkpt>
      <trkpt lat="43.393692" lon="-3.358877">
        <ele>42.975</ele>
        <time>2021-06-23T07:34:45Z</time>
      </trkpt>
      <trkpt lat="43.403066" lon="-3.374356">
        <ele>38.555</ele>
        <time>2021-06-23T07:41:44Z</time>
      </trkpt>
      <trkpt lat="43.396810" lon="-3.394274">
        <ele>139.596</ele>
        <time>2021-06-23T08:00:08Z</time>
      </trkpt>
      <trkpt lat="43.405730" lon="-3.412190">
        <ele>89.066</ele>
        <time>2021-06-23T08:09:48Z</time>
      </trkpt>
      <trkpt lat="43.412214" lon="-3.407737">
        <ele>15.598</ele>
        <time>2021-06-23T08:12:25Z</time>
      </trkpt>
      <trkpt lat="43.409100" lon="-3.427962">
        <ele>17.472</ele>
        <time>2021-06-23T08:39:18Z</time>
      </trkpt>
      <trkpt lat="43.416077" lon="-3.440343">
        <ele>10.241</ele>
        <time>2021-06-23T08:44:17Z</time>
      </trkpt>
      <trkpt lat="43.439789" lon="-3.455457">
        <ele>6.883</ele>
        <time>2021-06-23T09:31:53Z</time>
      </trkpt>
      <trkpt lat="43.445437" lon="-3.454206">
        <ele>15.076</ele>
        <time>2021-06-23T09:35:55Z</time>
      </trkpt>
      <trkpt lat="43.462276" lon="-3.464069">
        <ele>8.390</ele>
        <time>2021-06-23T09:47:43Z</time>
      </trkpt>
      <trkpt lat="43.463825" lon="-3.478144">
        <ele>7.319</ele>
        <time>2021-06-23T10:06:34Z</time>
      </trkpt>
      <trkpt lat="43.457295" lon="-3.485608">
        <ele>9.708</ele>
        <time>2021-06-23T10:10:44Z</time>
      </trkpt>
      <trkpt lat="43.456969" lon="-3.498720">
        <ele>27.064</ele>
        <time>2021-06-23T10:32:08Z</time>
      </trkpt>
      <trkpt lat="43.469608" lon="-3.555511">
        <ele>53.414</ele>
        <time>2021-06-23T11:04:02Z</time>
      </trkpt>
      <trkpt lat="43.474878" lon="-3.606119">
        <ele>51.575</ele>
        <time>2021-06-23T11:31:55Z</time>
      </trkpt>
      <trkpt lat="43.470498" lon="-3.645750">
        <ele>118.895</ele>
        <time>2021-06-23T12:01:27Z</time>
      </trkpt>
      <trkpt lat="43.473296" lon="-3.648315">
        <ele>86.127</ele>
        <time>2021-06-23T12:02:22Z</time>
      </trkpt>
      <trkpt lat="43.450795" lon="-3.731822">
        <ele>31.331</ele>
        <time>2021-06-23T12:43:51Z</time>
      </trkpt>
      <trkpt lat="43.453327" lon="-3.741637">
        <ele>14.570</ele>
        <time>2021-06-23T12:46:42Z</time>
      </trkpt>
      <trkpt lat="43.447685" lon="-3.765096">
        <ele>4.922</ele>
        <time>2021-06-23T13:04:40Z</time>
      </trkpt>
      <trkpt lat="43.461783" lon="-3.801018">
        <ele>5.963</ele>
        <time>2021-06-23T13:22:20Z</time>
      </trkpt>
      <trkpt lat="43.462593" lon="-3.814404">
        <ele>29.444</ele>
        <time>2021-06-24T06:59:11Z</time>
      </trkpt>
      <trkpt lat="43.461705" lon="-3.800244">
        <ele>5.418</ele>
        <time>2021-06-24T07:20:25Z</time>
      </trkpt>
      <trkpt lat="43.453454" lon="-3.814264">
        <ele>9.208</ele>
        <time>2021-06-24T07:28:02Z</time>
      </trkpt>
      <trkpt lat="43.452269" lon="-3.827809">
        <ele>7.393</ele>
        <time>2021-06-24T07:54:33Z</time>
      </trkpt>
      <trkpt lat="43.439896" lon="-3.839259">
        <ele>6.833</ele>
        <time>2021-06-24T08:05:05Z</time>
      </trkpt>
      <trkpt lat="43.447470" lon="-3.866867">
        <ele>48.284</ele>
        <time>2021-06-24T08:18:56Z</time>
      </trkpt>
      <trkpt lat="43.431133" lon="-3.916865">
        <ele>76.054</ele>
        <time>2021-06-24T08:36:58Z</time>
      </trkpt>
      <trkpt lat="43.403050" lon="-3.950982">
        <ele>13.176</ele>
        <time>2021-06-24T08:56:13Z</time>
      </trkpt>
      <trkpt lat="43.406277" lon="-3.969625">
        <ele>75.670</ele>
        <time>2021-06-24T09:11:17Z</time>
      </trkpt>
      <trkpt lat="43.394519" lon="-4.000997">
        <ele>21.759</ele>
        <time>2021-06-24T09:46:01Z</time>
      </trkpt>
      <trkpt lat="43.396670" lon="-4.004810">
        <ele>31.831</ele>
        <time>2021-06-24T09:48:09Z</time>
      </trkpt>
      <trkpt lat="43.390692" lon="-4.025929">
        <ele>15.084</ele>
        <time>2021-06-24T09:55:17Z</time>
      </trkpt>
      <trkpt lat="43.373319" lon="-4.041164">
        <ele>16.007</ele>
        <time>2021-06-24T10:03:33Z</time>
      </trkpt>
      <trkpt lat="43.378092" lon="-4.048479">
        <ele>22.717</ele>
        <time>2021-06-24T10:07:12Z</time>
      </trkpt>
      <trkpt lat="43.375517" lon="-4.055277">
        <ele>28.508</ele>
        <time>2021-06-24T10:09:46Z</time>
      </trkpt>
      <trkpt lat="43.389018" lon="-4.108897">
        <ele>84.245</ele>
        <time>2021-06-24T10:39:24Z</time>
      </trkpt>
      <trkpt lat="43.392219" lon="-4.109101">
        <ele>99.665</ele>
        <time>2021-06-24T10:53:57Z</time>
      </trkpt>
      <trkpt lat="43.398193" lon="-4.167142">
        <ele>74.696</ele>
        <time>2021-06-25T06:16:12Z</time>
      </trkpt>
      <trkpt lat="43.394837" lon="-4.192951">
        <ele>28.526</ele>
        <time>2021-06-25T06:24:17Z</time>
      </trkpt>
      <trkpt lat="43.386897" lon="-4.206447">
        <ele>45.838</ele>
        <time>2021-06-25T06:32:56Z</time>
      </trkpt>
      <trkpt lat="43.384939" lon="-4.225084">
        <ele>37.672</ele>
        <time>2021-06-25T06:43:14Z</time>
      </trkpt>
      <trkpt lat="43.389829" lon="-4.247678">
        <ele>52.531</ele>
        <time>2021-06-25T06:56:11Z</time>
      </trkpt>
      <trkpt lat="43.386700" lon="-4.290333">
        <ele>42.943</ele>
        <time>2021-06-25T07:12:02Z</time>
      </trkpt>
      <trkpt lat="43.379087" lon="-4.316449">
        <ele>19.812</ele>
        <time>2021-06-25T07:51:13Z</time>
      </trkpt>
      <trkpt lat="43.384545" lon="-4.321584">
        <ele>15.532</ele>
        <time>2021-06-25T07:59:52Z</time>
      </trkpt>
      <trkpt lat="43.384738" lon="-4.330192">
        <ele>15.005</ele>
        <time>2021-06-25T08:02:10Z</time>
      </trkpt>
      <trkpt lat="43.388257" lon="-4.328046">
        <ele>9.708</ele>
        <time>2021-06-25T08:04:00Z</time>
      </trkpt>
      <trkpt lat="43.394796" lon="-4.342274">
        <ele>66.418</ele>
        <time>2021-06-25T08:15:30Z</time>
      </trkpt>
      <trkpt lat="43.392988" lon="-4.366060">
        <ele>21.298</ele>
        <time>2021-06-25T08:26:42Z</time>
      </trkpt>
      <trkpt lat="43.389022" lon="-4.371438">
        <ele>16.479</ele>
        <time>2021-06-25T08:29:50Z</time>
      </trkpt>
      <trkpt lat="43.389086" lon="-4.385023">
        <ele>12.149</ele>
        <time>2021-06-25T08:37:50Z</time>
      </trkpt>
      <trkpt lat="43.382386" lon="-4.390181">
        <ele>9.751</ele>
        <time>2021-06-25T08:42:48Z</time>
      </trkpt>
      <trkpt lat="43.381401" lon="-4.396921">
        <ele>10.225</ele>
        <time>2021-06-25T08:44:40Z</time>
      </trkpt>
      <trkpt lat="43.387395" lon="-4.398920">
        <ele>6.334</ele>
        <time>2021-06-25T08:54:57Z</time>
      </trkpt>
      <trkpt lat="43.388523" lon="-4.408836">
        <ele>47.246</ele>
        <time>2021-06-25T09:10:11Z</time>
      </trkpt>
      <trkpt lat="43.371737" lon="-4.476383">
        <ele>14.029</ele>
        <time>2021-06-25T09:33:54Z</time>
      </trkpt>
      <trkpt lat="43.376256" lon="-4.481605">
        <ele>34.700</ele>
        <time>2021-06-25T09:38:36Z</time>
      </trkpt>
      <trkpt lat="43.374434" lon="-4.517727">
        <ele>7.320</ele>
        <time>2021-06-25T09:55:01Z</time>
      </trkpt>
      <trkpt lat="43.382294" lon="-4.565229">
        <ele>53.908</ele>
        <time>2021-06-25T10:18:36Z</time>
      </trkpt>
      <trkpt lat="43.395088" lon="-4.590016">
        <ele>50.129</ele>
        <time>2021-06-25T10:30:49Z</time>
      </trkpt>
      <trkpt lat="43.392171" lon="-4.613385">
        <ele>45.349</ele>
        <time>2021-06-25T10:42:14Z</time>
      </trkpt>
      <trkpt lat="43.398843" lon="-4.696880">
        <ele>18.860</ele>
        <time>2021-06-25T11:49:23Z</time>
      </trkpt>
      <trkpt lat="43.395797" lon="-4.729674">
        <ele>56.820</ele>
        <time>2021-06-25T12:02:15Z</time>
      </trkpt>
      <trkpt lat="43.402824" lon="-4.741225">
        <ele>58.392</ele>
        <time>2021-06-25T12:06:18Z</time>
      </trkpt>
      <trkpt lat="43.404450" lon="-4.759887">
        <ele>53.936</ele>
        <time>2021-06-25T12:11:51Z</time>
      </trkpt>
      <trkpt lat="43.413433" lon="-4.752470">
        <ele>24.615</ele>
        <time>2021-06-25T12:14:52Z</time>
      </trkpt>
      <trkpt lat="43.420946" lon="-4.755339">
        <ele>23.257</ele>
        <time>2021-06-25T12:20:31Z</time>
      </trkpt>
      <trkpt lat="43.424970" lon="-4.773753">
        <ele>26.061</ele>
        <time>2021-06-25T13:33:44Z</time>
      </trkpt>
      <trkpt lat="43.425368" lon="-4.811277">
        <ele>28.521</ele>
        <time>2021-06-25T13:46:32Z</time>
      </trkpt>
      <trkpt lat="43.430442" lon="-4.809030">
        <ele>15.513</ele>
        <time>2021-06-25T13:48:13Z</time>
      </trkpt>
      <trkpt lat="43.435970" lon="-4.818406">
        <ele>21.708</ele>
        <time>2021-06-25T13:59:08Z</time>
      </trkpt>
      <trkpt lat="43.433338" lon="-4.837254">
        <ele>5.423</ele>
        <time>2021-06-26T07:07:18Z</time>
      </trkpt>
      <trkpt lat="43.436737" lon="-4.839450">
        <ele>6.833</ele>
        <time>2021-06-26T07:11:52Z</time>
      </trkpt>
      <trkpt lat="43.433881" lon="-4.857936">
        <ele>39.094</ele>
        <time>2021-06-26T07:21:10Z</time>
      </trkpt>
      <trkpt lat="43.426909" lon="-4.862926">
        <ele>34.264</ele>
        <time>2021-06-26T07:25:05Z</time>
      </trkpt>
      <trkpt lat="43.430806" lon="-4.872462">
        <ele>54.426</ele>
        <time>2021-06-26T07:29:39Z</time>
      </trkpt>
      <trkpt lat="43.441104" lon="-4.872774">
        <ele>14.060</ele>
        <time>2021-06-26T07:36:00Z</time>
      </trkpt>
      <trkpt lat="43.442643" lon="-4.921530">
        <ele>55.879</ele>
        <time>2021-06-26T07:56:38Z</time>
      </trkpt>
      <trkpt lat="43.435607" lon="-4.940552">
        <ele>64.041</ele>
        <time>2021-06-26T08:09:11Z</time>
      </trkpt>
      <trkpt lat="43.440576" lon="-4.960389">
        <ele>71.262</ele>
        <time>2021-06-26T08:15:58Z</time>
      </trkpt>
      <trkpt lat="43.438406" lon="-4.979595">
        <ele>63.583</ele>
        <time>2021-06-26T08:21:41Z</time>
      </trkpt>
      <trkpt lat="43.459469" lon="-5.046528">
        <ele>33.711</ele>
        <time>2021-06-26T08:45:31Z</time>
      </trkpt>
      <trkpt lat="43.458880" lon="-5.061198">
        <ele>11.108</ele>
        <time>2021-06-26T09:02:43Z</time>
      </trkpt>
      <trkpt lat="43.461764" lon="-5.060348">
        <ele>13.143</ele>
        <time>2021-06-26T09:04:12Z</time>
      </trkpt>
      <trkpt lat="43.465517" lon="-5.082862">
        <ele>17.963</ele>
        <time>2021-06-26T09:15:23Z</time>
      </trkpt>
      <trkpt lat="43.464342" lon="-5.127333">
        <ele>44.384</ele>
        <time>2021-06-26T09:35:47Z</time>
      </trkpt>
      <trkpt lat="43.468280" lon="-5.134800">
        <ele>60.714</ele>
        <time>2021-06-26T09:39:58Z</time>
      </trkpt>
      <trkpt lat="43.472640" lon="-5.134345">
        <ele>93.886</ele>
        <time>2021-06-26T09:49:15Z</time>
      </trkpt>
      <trkpt lat="43.473069" lon="-5.168007">
        <ele>67.930</ele>
        <time>2021-06-26T10:26:02Z</time>
      </trkpt>
      <trkpt lat="43.461744" lon="-5.187284">
        <ele>134.239</ele>
        <time>2021-06-26T10:40:23Z</time>
      </trkpt>
      <trkpt lat="43.462810" lon="-5.201864">
        <ele>94.891</ele>
        <time>2021-06-26T10:45:08Z</time>
      </trkpt>
      <trkpt lat="43.466593" lon="-5.200224">
        <ele>85.234</ele>
        <time>2021-06-26T10:46:24Z</time>
      </trkpt>
      <trkpt lat="43.481462" lon="-5.234314">
        <ele>23.655</ele>
        <time>2021-06-26T10:59:29Z</time>
      </trkpt>
      <trkpt lat="43.484378" lon="-5.273135">
        <ele>39.510</ele>
        <time>2021-06-26T11:12:14Z</time>
      </trkpt>
      <trkpt lat="43.490058" lon="-5.278175">
        <ele>14.508</ele>
        <time>2021-06-26T11:14:34Z</time>
      </trkpt>
      <trkpt lat="43.487382" lon="-5.290122">
        <ele>31.390</ele>
        <time>2021-06-26T11:19:13Z</time>
      </trkpt>
      <trkpt lat="43.491091" lon="-5.319092">
        <ele>76.050</ele>
        <time>2021-06-26T11:43:57Z</time>
      </trkpt>
      <trkpt lat="43.495998" lon="-5.328589">
        <ele>95.331</ele>
        <time>2021-06-26T11:49:38Z</time>
      </trkpt>
      <trkpt lat="43.504003" lon="-5.329622">
        <ele>147.791</ele>
        <time>2021-06-26T11:58:12Z</time>
      </trkpt>
      <trkpt lat="43.503065" lon="-5.355178">
        <ele>117.913</ele>
        <time>2021-06-26T12:35:54Z</time>
      </trkpt>
      <trkpt lat="43.498137" lon="-5.363334">
        <ele>89.527</ele>
        <time>2021-06-26T12:37:34Z</time>
      </trkpt>
      <trkpt lat="43.507346" lon="-5.384480">
        <ele>20.386</ele>
        <time>2021-06-26T12:42:30Z</time>
      </trkpt>
      <trkpt lat="43.503482" lon="-5.412808">
        <ele>15.528</ele>
        <time>2021-06-26T12:50:49Z</time>
      </trkpt>
      <trkpt lat="43.481052" lon="-5.434821">
        <ele>-0.413</ele>
        <time>2021-06-26T13:01:41Z</time>
      </trkpt>
      <trkpt lat="43.492370" lon="-5.449465">
        <ele>59.243</ele>
        <time>2021-06-27T08:05:56Z</time>
      </trkpt>
      <trkpt lat="43.481948" lon="-5.477199">
        <ele>206.807</ele>
        <time>2021-06-27T08:35:20Z</time>
      </trkpt>
      <trkpt lat="43.485326" lon="-5.491717">
        <ele>244.708</ele>
        <time>2021-06-27T08:46:39Z</time>
      </trkpt>
      <trkpt lat="43.489878" lon="-5.488819">
        <ele>253.958</ele>
        <time>2021-06-27T08:49:23Z</time>
      </trkpt>
      <trkpt lat="43.492291" lon="-5.492928">
        <ele>245.768</ele>
        <time>2021-06-27T08:51:12Z</time>
      </trkpt>
      <trkpt lat="43.499589" lon="-5.488399">
        <ele>249.169</ele>
        <time>2021-06-27T08:57:00Z</time>
      </trkpt>
      <trkpt lat="43.505186" lon="-5.505662">
        <ele>216.939</ele>
        <time>2021-06-27T09:03:28Z</time>
      </trkpt>
      <trkpt lat="43.513871" lon="-5.508722">
        <ele>183.791</ele>
        <time>2021-06-27T09:05:57Z</time>
      </trkpt>
      <trkpt lat="43.509635" lon="-5.542741">
        <ele>58.325</ele>
        <time>2021-06-27T09:12:03Z</time>
      </trkpt>
      <trkpt lat="43.515752" lon="-5.545859">
        <ele>104.964</ele>
        <time>2021-06-27T09:22:55Z</time>
      </trkpt>
      <trkpt lat="43.513291" lon="-5.549531">
        <ele>128.476</ele>
        <time>2021-06-27T09:31:06Z</time>
      </trkpt>
      <trkpt lat="43.518822" lon="-5.554720">
        <ele>165.079</ele>
        <time>2021-06-27T09:48:22Z</time>
      </trkpt>
      <trkpt lat="43.521918" lon="-5.573207">
        <ele>135.605</ele>
        <time>2021-06-27T09:58:00Z</time>
      </trkpt>
      <trkpt lat="43.515658" lon="-5.582208">
        <ele>137.125</ele>
        <time>2021-06-27T10:04:08Z</time>
      </trkpt>
      <trkpt lat="43.525073" lon="-5.588922">
        <ele>149.608</ele>
        <time>2021-06-27T10:10:24Z</time>
      </trkpt>
      <trkpt lat="43.534906" lon="-5.606604">
        <ele>75.694</ele>
        <time>2021-06-27T10:20:05Z</time>
      </trkpt>
      <trkpt lat="43.542067" lon="-5.633408">
        <ele>16.414</ele>
        <time>2021-06-27T10:33:16Z</time>
      </trkpt>
      <trkpt lat="43.541974" lon="-5.664963">
        <ele>43.855</ele>
        <time>2021-06-27T10:51:01Z</time>
      </trkpt>
      <trkpt lat="43.539646" lon="-5.663596">
        <ele>57.825</ele>
        <time>2021-06-30T05:53:54Z</time>
      </trkpt>
      <trkpt lat="43.544087" lon="-5.665145">
        <ele>22.787</ele>
        <time>2021-06-30T05:59:05Z</time>
      </trkpt>
      <trkpt lat="43.534864" lon="-5.683615">
        <ele>3.561</ele>
        <time>2021-06-30T06:09:38Z</time>
      </trkpt>
      <trkpt lat="43.539577" lon="-5.693328">
        <ele>15.060</ele>
        <time>2021-06-30T06:14:31Z</time>
      </trkpt>
      <trkpt lat="43.535980" lon="-5.719179">
        <ele>11.662</ele>
        <time>2021-06-30T06:23:38Z</time>
      </trkpt>
      <trkpt lat="43.551461" lon="-5.732219">
        <ele>12.174</ele>
        <time>2021-06-30T06:33:21Z</time>
      </trkpt>
      <trkpt lat="43.523390" lon="-5.819678">
        <ele>61.656</ele>
        <time>2021-06-30T07:12:41Z</time>
      </trkpt>
      <trkpt lat="43.535934" lon="-5.831573">
        <ele>46.221</ele>
        <time>2021-06-30T07:21:06Z</time>
      </trkpt>
      <trkpt lat="43.550493" lon="-5.858594">
        <ele>26.508</ele>
        <time>2021-06-30T07:29:10Z</time>
      </trkpt>
      <trkpt lat="43.553608" lon="-5.915292">
        <ele>8.354</ele>
        <time>2021-06-30T07:46:11Z</time>
      </trkpt>
      <trkpt lat="43.561560" lon="-5.924896">
        <ele>5.934</ele>
        <time>2021-06-30T08:09:27Z</time>
      </trkpt>
      <trkpt lat="43.574338" lon="-5.929262">
        <ele>18.855</ele>
        <time>2021-06-30T08:35:27Z</time>
      </trkpt>
      <trkpt lat="43.571251" lon="-5.960543">
        <ele>10.295</ele>
        <time>2021-06-30T08:45:09Z</time>
      </trkpt>
      <trkpt lat="43.560399" lon="-5.973491">
        <ele>33.747</ele>
        <time>2021-06-30T08:51:54Z</time>
      </trkpt>
      <trkpt lat="43.572842" lon="-5.978074">
        <ele>53.961</ele>
        <time>2021-06-30T09:07:17Z</time>
      </trkpt>
      <trkpt lat="43.572802" lon="-5.997501">
        <ele>19.810</ele>
        <time>2021-06-30T09:19:25Z</time>
      </trkpt>
      <trkpt lat="43.550098" lon="-6.025481">
        <ele>74.122</ele>
        <time>2021-06-30T09:34:55Z</time>
      </trkpt>
      <trkpt lat="43.552379" lon="-6.026962">
        <ele>103.472</ele>
        <time>2021-06-30T09:38:26Z</time>
      </trkpt>
      <trkpt lat="43.540794" lon="-6.032330">
        <ele>81.813</ele>
        <time>2021-06-30T09:45:20Z</time>
      </trkpt>
      <trkpt lat="43.541105" lon="-6.037792">
        <ele>116.914</ele>
        <time>2021-06-30T09:49:07Z</time>
      </trkpt>
      <trkpt lat="43.527981" lon="-6.050353">
        <ele>143.308</ele>
        <time>2021-06-30T10:53:17Z</time>
      </trkpt>
      <trkpt lat="43.533668" lon="-6.061441">
        <ele>80.824</ele>
        <time>2021-06-30T10:55:21Z</time>
      </trkpt>
      <trkpt lat="43.531617" lon="-6.084601">
        <ele>34.784</ele>
        <time>2021-06-30T11:03:06Z</time>
      </trkpt>
      <trkpt lat="43.538770" lon="-6.082194">
        <ele>11.655</ele>
        <time>2021-06-30T11:11:31Z</time>
      </trkpt>
      <trkpt lat="43.543101" lon="-6.091756">
        <ele>66.425</ele>
        <time>2021-06-30T11:18:37Z</time>
      </trkpt>
      <trkpt lat="43.539921" lon="-6.122837">
        <ele>143.347</ele>
        <time>2021-06-30T11:35:25Z</time>
      </trkpt>
      <trkpt lat="43.558689" lon="-6.149143">
        <ele>62.111</ele>
        <time>2021-07-01T06:54:41Z</time>
      </trkpt>
      <trkpt lat="43.563397" lon="-6.145089">
        <ele>53.030</ele>
        <time>2021-07-01T07:01:09Z</time>
      </trkpt>
      <trkpt lat="43.568025" lon="-6.153997">
        <ele>8.332</ele>
        <time>2021-07-01T07:17:16Z</time>
      </trkpt>
      <trkpt lat="43.557538" lon="-6.170825">
        <ele>158.291</ele>
        <time>2021-07-01T07:45:27Z</time>
      </trkpt>
      <trkpt lat="43.562989" lon="-6.180861">
        <ele>119.881</ele>
        <time>2021-07-01T07:47:40Z</time>
      </trkpt>
      <trkpt lat="43.552780" lon="-6.191555">
        <ele>51.519</ele>
        <time>2021-07-01T07:52:04Z</time>
      </trkpt>
      <trkpt lat="43.550813" lon="-6.213581">
        <ele>84.708</ele>
        <time>2021-07-01T08:03:55Z</time>
      </trkpt>
      <trkpt lat="43.546834" lon="-6.219897">
        <ele>97.216</ele>
        <time>2021-07-01T08:08:30Z</time>
      </trkpt>
      <trkpt lat="43.554025" lon="-6.229030">
        <ele>41.936</ele>
        <time>2021-07-01T08:10:11Z</time>
      </trkpt>
      <trkpt lat="43.558225" lon="-6.228165">
        <ele>21.287</ele>
        <time>2021-07-01T08:10:56Z</time>
      </trkpt>
      <trkpt lat="43.564986" lon="-6.237614">
        <ele>62.657</ele>
        <time>2021-07-01T08:50:00Z</time>
      </trkpt>
      <trkpt lat="43.560877" lon="-6.243113">
        <ele>105.459</ele>
        <time>2021-07-01T08:55:28Z</time>
      </trkpt>
      <trkpt lat="43.564326" lon="-6.242344">
        <ele>126.573</ele>
        <time>2021-07-01T08:58:35Z</time>
      </trkpt>
      <trkpt lat="43.561943" lon="-6.267208">
        <ele>157.762</ele>
        <time>2021-07-01T09:12:05Z</time>
      </trkpt>
      <trkpt lat="43.558601" lon="-6.268191">
        <ele>165.424</ele>
        <time>2021-07-01T09:13:56Z</time>
      </trkpt>
      <trkpt lat="43.562068" lon="-6.273068">
        <ele>147.754</ele>
        <time>2021-07-01T09:18:05Z</time>
      </trkpt>
      <trkpt lat="43.558389" lon="-6.278148">
        <ele>94.856</ele>
        <time>2021-07-01T09:19:21Z</time>
      </trkpt>
      <trkpt lat="43.563933" lon="-6.278034">
        <ele>127.011</ele>
        <time>2021-07-01T09:23:56Z</time>
      </trkpt>
      <trkpt lat="43.562712" lon="-6.285611">
        <ele>128.908</ele>
        <time>2021-07-01T09:27:44Z</time>
      </trkpt>
      <trkpt lat="43.556565" lon="-6.286770">
        <ele>125.562</ele>
        <time>2021-07-01T09:30:25Z</time>
      </trkpt>
      <trkpt lat="43.556362" lon="-6.294903">
        <ele>84.232</ele>
        <time>2021-07-01T09:32:09Z</time>
      </trkpt>
      <trkpt lat="43.560927" lon="-6.293478">
        <ele>115.993</ele>
        <time>2021-07-01T09:35:52Z</time>
      </trkpt>
      <trkpt lat="43.553318" lon="-6.302976">
        <ele>83.743</ele>
        <time>2021-07-01T09:40:31Z</time>
      </trkpt>
      <trkpt lat="43.559806" lon="-6.304351">
        <ele>126.085</ele>
        <time>2021-07-01T09:46:59Z</time>
      </trkpt>
      <trkpt lat="43.551493" lon="-6.313870">
        <ele>127.589</ele>
        <time>2021-07-01T10:11:07Z</time>
      </trkpt>
      <trkpt lat="43.551938" lon="-6.337556">
        <ele>126.568</ele>
        <time>2021-07-01T10:21:12Z</time>
      </trkpt>
      <trkpt lat="43.545141" lon="-6.333748">
        <ele>67.980</ele>
        <time>2021-07-01T10:22:33Z</time>
      </trkpt>
      <trkpt lat="43.545669" lon="-6.346588">
        <ele>135.648</ele>
        <time>2021-07-01T10:36:58Z</time>
      </trkpt>
      <trkpt lat="43.548645" lon="-6.347981">
        <ele>139.061</ele>
        <time>2021-07-01T10:39:03Z</time>
      </trkpt>
      <trkpt lat="43.546925" lon="-6.363882">
        <ele>133.217</ele>
        <time>2021-07-01T10:45:55Z</time>
      </trkpt>
      <trkpt lat="43.543528" lon="-6.364376">
        <ele>109.208</ele>
        <time>2021-07-01T10:46:33Z</time>
      </trkpt>
      <trkpt lat="43.548169" lon="-6.369951">
        <ele>108.241</ele>
        <time>2021-07-01T10:49:25Z</time>
      </trkpt>
      <trkpt lat="43.545103" lon="-6.373232">
        <ele>76.051</ele>
        <time>2021-07-01T10:50:36Z</time>
      </trkpt>
      <trkpt lat="43.541213" lon="-6.425746">
        <ele>112.682</ele>
        <time>2021-07-01T12:26:20Z</time>
      </trkpt>
      <trkpt lat="43.546794" lon="-6.446751">
        <ele>96.242</ele>
        <time>2021-07-01T12:32:23Z</time>
      </trkpt>
      <trkpt lat="43.543818" lon="-6.447391">
        <ele>95.784</ele>
        <time>2021-07-01T12:33:36Z</time>
      </trkpt>
      <trkpt lat="43.544742" lon="-6.452529">
        <ele>73.678</ele>
        <time>2021-07-01T12:34:21Z</time>
      </trkpt>
      <trkpt lat="43.541321" lon="-6.451437">
        <ele>49.637</ele>
        <time>2021-07-01T12:35:03Z</time>
      </trkpt>
      <trkpt lat="43.546176" lon="-6.466038">
        <ele>13.689</ele>
        <time>2021-07-01T12:45:52Z</time>
      </trkpt>
      <trkpt lat="43.540739" lon="-6.472786">
        <ele>45.849</ele>
        <time>2021-07-01T12:50:36Z</time>
      </trkpt>
      <trkpt lat="43.547131" lon="-6.468335">
        <ele>74.102</ele>
        <time>2021-07-01T12:55:01Z</time>
      </trkpt>
      <trkpt lat="43.542978" lon="-6.479474">
        <ele>108.722</ele>
        <time>2021-07-01T13:07:04Z</time>
      </trkpt>
      <trkpt lat="43.535032" lon="-6.486292">
        <ele>124.608</ele>
        <time>2021-07-01T13:11:59Z</time>
      </trkpt>
      <trkpt lat="43.537394" lon="-6.489860">
        <ele>139.041</ele>
        <time>2021-07-01T13:13:43Z</time>
      </trkpt>
      <trkpt lat="43.532284" lon="-6.530328">
        <ele>77.521</ele>
        <time>2021-07-01T13:39:40Z</time>
      </trkpt>
      <trkpt lat="43.543918" lon="-6.535429">
        <ele>8.732</ele>
        <time>2021-07-01T13:46:28Z</time>
      </trkpt>
      <trkpt lat="43.528954" lon="-6.548517">
        <ele>81.832</ele>
        <time>2021-07-01T14:06:28Z</time>
      </trkpt>
      <trkpt lat="43.542586" lon="-6.602238">
        <ele>98.674</ele>
        <time>2021-07-01T14:24:47Z</time>
      </trkpt>
      <trkpt lat="43.546016" lon="-6.600667">
        <ele>90.098</ele>
        <time>2021-07-01T14:47:07Z</time>
      </trkpt>
      <trkpt lat="43.542545" lon="-6.602326">
        <ele>105.897</ele>
        <time>2021-07-02T07:07:27Z</time>
      </trkpt>
      <trkpt lat="43.545539" lon="-6.609612">
        <ele>115.029</ele>
        <time>2021-07-02T07:10:44Z</time>
      </trkpt>
      <trkpt lat="43.550385" lon="-6.609623">
        <ele>110.229</ele>
        <time>2021-07-02T07:12:41Z</time>
      </trkpt>
      <trkpt lat="43.551685" lon="-6.615621">
        <ele>106.300</ele>
        <time>2021-07-02T07:14:34Z</time>
      </trkpt>
      <trkpt lat="43.541310" lon="-6.631417">
        <ele>76.520</ele>
        <time>2021-07-02T07:19:44Z</time>
      </trkpt>
      <trkpt lat="43.544259" lon="-6.629380">
        <ele>91.908</ele>
        <time>2021-07-02T07:22:30Z</time>
      </trkpt>
      <trkpt lat="43.543706" lon="-6.664973">
        <ele>64.069</ele>
        <time>2021-07-02T07:32:21Z</time>
      </trkpt>
      <trkpt lat="43.546275" lon="-6.667119">
        <ele>71.789</ele>
        <time>2021-07-02T07:33:52Z</time>
      </trkpt>
      <trkpt lat="43.538495" lon="-6.678324">
        <ele>67.930</ele>
        <time>2021-07-02T07:40:10Z</time>
      </trkpt>
      <trkpt lat="43.530564" lon="-6.720465">
        <ele>38.160</ele>
        <time>2021-07-02T07:57:55Z</time>
      </trkpt>
      <trkpt lat="43.545328" lon="-6.730448">
        <ele>32.372</ele>
        <time>2021-07-02T08:10:18Z</time>
      </trkpt>
      <trkpt lat="43.539569" lon="-6.751362">
        <ele>93.316</ele>
        <time>2021-07-02T08:21:29Z</time>
      </trkpt>
      <trkpt lat="43.549237" lon="-6.822494">
        <ele>70.775</ele>
        <time>2021-07-02T08:57:45Z</time>
      </trkpt>
      <trkpt lat="43.546877" lon="-6.832624">
        <ele>65.027</ele>
        <time>2021-07-02T09:00:19Z</time>
      </trkpt>
      <trkpt lat="43.554486" lon="-6.843028">
        <ele>59.291</ele>
        <time>2021-07-02T09:04:06Z</time>
      </trkpt>
      <trkpt lat="43.560488" lon="-6.871467">
        <ele>54.981</ele>
        <time>2021-07-02T09:39:55Z</time>
      </trkpt>
      <trkpt lat="43.554729" lon="-6.881099">
        <ele>21.719</ele>
        <time>2021-07-02T09:42:10Z</time>
      </trkpt>
      <trkpt lat="43.564460" lon="-6.928621">
        <ele>35.208</ele>
        <time>2021-07-02T10:08:33Z</time>
      </trkpt>
      <trkpt lat="43.560265" lon="-6.944025">
        <ele>17.426</ele>
        <time>2021-07-02T10:19:00Z</time>
      </trkpt>
      <trkpt lat="43.553509" lon="-6.950394">
        <ele>42.956</ele>
        <time>2021-07-02T10:58:00Z</time>
      </trkpt>
      <trkpt lat="43.540659" lon="-6.990258">
        <ele>40.547</ele>
        <time>2021-07-02T11:10:59Z</time>
      </trkpt>
      <trkpt lat="43.542386" lon="-7.006343">
        <ele>28.057</ele>
        <time>2021-07-02T11:31:21Z</time>
      </trkpt>
      <trkpt lat="43.539199" lon="-7.018034">
        <ele>29.499</ele>
        <time>2021-07-02T11:35:02Z</time>
      </trkpt>
      <trkpt lat="43.544323" lon="-7.022360">
        <ele>29.473</ele>
        <time>2021-07-02T11:37:31Z</time>
      </trkpt>
      <trkpt lat="43.543127" lon="-7.040896">
        <ele>30.912</ele>
        <time>2021-07-02T11:49:23Z</time>
      </trkpt>
      <trkpt lat="43.538746" lon="-7.040770">
        <ele>40.514</ele>
        <time>2021-07-02T11:52:40Z</time>
      </trkpt>
      <trkpt lat="43.543105" lon="-7.042654">
        <ele>30.469</ele>
        <time>2021-07-06T05:20:55Z</time>
      </trkpt>
      <trkpt lat="43.540580" lon="-7.060669">
        <ele>49.604</ele>
        <time>2021-07-06T05:27:57Z</time>
      </trkpt>
      <trkpt lat="43.549923" lon="-7.140124">
        <ele>28.524</ele>
        <time>2021-07-06T05:50:58Z</time>
      </trkpt>
      <trkpt lat="43.542367" lon="-7.171118">
        <ele>65.008</ele>
        <time>2021-07-06T06:06:54Z</time>
      </trkpt>
      <trkpt lat="43.544300" lon="-7.223719">
        <ele>61.163</ele>
        <time>2021-07-06T06:23:11Z</time>
      </trkpt>
      <trkpt lat="43.539546" lon="-7.237650">
        <ele>60.783</ele>
        <time>2021-07-06T06:28:04Z</time>
      </trkpt>
      <trkpt lat="43.540392" lon="-7.252070">
        <ele>49.184</ele>
        <time>2021-07-06T06:32:49Z</time>
      </trkpt>
      <trkpt lat="43.534763" lon="-7.261314">
        <ele>22.784</ele>
        <time>2021-07-06T06:35:39Z</time>
      </trkpt>
      <trkpt lat="43.513137" lon="-7.276470">
        <ele>33.766</ele>
        <time>2021-07-06T06:50:49Z</time>
      </trkpt>
      <trkpt lat="43.500570" lon="-7.269536">
        <ele>79.950</ele>
        <time>2021-07-06T07:01:13Z</time>
      </trkpt>
      <trkpt lat="43.490461" lon="-7.279046">
        <ele>107.399</ele>
        <time>2021-07-06T07:24:12Z</time>
      </trkpt>
      <trkpt lat="43.489454" lon="-7.285626">
        <ele>117.421</ele>
        <time>2021-07-06T07:28:04Z</time>
      </trkpt>
      <trkpt lat="43.476669" lon="-7.300434">
        <ele>68.372</ele>
        <time>2021-07-06T07:35:01Z</time>
      </trkpt>
      <trkpt lat="43.468670" lon="-7.298680">
        <ele>72.713</ele>
        <time>2021-07-06T07:55:15Z</time>
      </trkpt>
      <trkpt lat="43.461225" lon="-7.309017">
        <ele>129.914</ele>
        <time>2021-07-06T08:06:36Z</time>
      </trkpt>
      <trkpt lat="43.466166" lon="-7.306824">
        <ele>155.308</ele>
        <time>2021-07-06T08:10:38Z</time>
      </trkpt>
      <trkpt lat="43.450974" lon="-7.324945">
        <ele>211.144</ele>
        <time>2021-07-06T08:26:32Z</time>
      </trkpt>
      <trkpt lat="43.451710" lon="-7.335911">
        <ele>167.844</ele>
        <time>2021-07-06T08:33:50Z</time>
      </trkpt>
      <trkpt lat="43.441365" lon="-7.359392">
        <ele>102.075</ele>
        <time>2021-07-06T08:42:19Z</time>
      </trkpt>
      <trkpt lat="43.425116" lon="-7.366692">
        <ele>163.095</ele>
        <time>2021-07-06T09:36:08Z</time>
      </trkpt>
      <trkpt lat="43.425770" lon="-7.362989">
        <ele>182.317</ele>
        <time>2021-07-06T09:42:55Z</time>
      </trkpt>
      <trkpt lat="43.415659" lon="-7.362289">
        <ele>273.151</ele>
        <time>2021-07-06T09:56:27Z</time>
      </trkpt>
      <trkpt lat="43.413423" lon="-7.370444">
        <ele>362.020</ele>
        <time>2021-07-06T10:13:34Z</time>
      </trkpt>
      <trkpt lat="43.403412" lon="-7.376637">
        <ele>427.442</ele>
        <time>2021-07-06T10:30:51Z</time>
      </trkpt>
      <trkpt lat="43.396681" lon="-7.391836">
        <ele>485.692</ele>
        <time>2021-07-06T10:44:14Z</time>
      </trkpt>
      <trkpt lat="43.398874" lon="-7.396322">
        <ele>499.073</ele>
        <time>2021-07-06T10:46:54Z</time>
      </trkpt>
      <trkpt lat="43.389732" lon="-7.419318">
        <ele>536.520</ele>
        <time>2021-07-06T10:59:42Z</time>
      </trkpt>
      <trkpt lat="43.381853" lon="-7.426708">
        <ele>539.908</ele>
        <time>2021-07-06T11:04:38Z</time>
      </trkpt>
      <trkpt lat="43.373330" lon="-7.449016">
        <ele>524.056</ele>
        <time>2021-07-06T11:12:46Z</time>
      </trkpt>
      <trkpt lat="43.367983" lon="-7.453032">
        <ele>516.346</ele>
        <time>2021-07-06T11:15:26Z</time>
      </trkpt>
      <trkpt lat="43.358803" lon="-7.494245">
        <ele>464.967</ele>
        <time>2021-07-08T06:40:59Z</time>
      </trkpt>
      <trkpt lat="43.339093" lon="-7.535089">
        <ele>464.987</ele>
        <time>2021-07-08T07:03:19Z</time>
      </trkpt>
      <trkpt lat="43.307329" lon="-7.664451">
        <ele>475.099</ele>
        <time>2021-07-08T07:59:06Z</time>
      </trkpt>
      <trkpt lat="43.299042" lon="-7.683038">
        <ele>475.583</ele>
        <time>2021-07-08T08:36:28Z</time>
      </trkpt>
      <trkpt lat="43.282849" lon="-7.686785">
        <ele>436.132</ele>
        <time>2021-07-08T09:43:01Z</time>
      </trkpt>
      <trkpt lat="43.282074" lon="-7.695795">
        <ele>434.114</ele>
        <time>2021-07-08T09:46:00Z</time>
      </trkpt>
      <trkpt lat="43.231333" lon="-7.732111">
        <ele>417.827</ele>
        <time>2021-07-08T10:22:47Z</time>
      </trkpt>
      <trkpt lat="43.206567" lon="-7.738228">
        <ele>437.068</ele>
        <time>2021-07-08T10:34:03Z</time>
      </trkpt>
      <trkpt lat="43.199723" lon="-7.746627">
        <ele>431.714</ele>
        <time>2021-07-08T10:37:09Z</time>
      </trkpt>
      <trkpt lat="43.174093" lon="-7.757337">
        <ele>414.908</ele>
        <time>2021-07-08T10:51:02Z</time>
      </trkpt>
      <trkpt lat="43.172512" lon="-7.793028">
        <ele>414.439</ele>
        <time>2021-07-09T06:45:55Z</time>
      </trkpt>
      <trkpt lat="43.166460" lon="-7.795043">
        <ele>453.879</ele>
        <time>2021-07-09T07:07:41Z</time>
      </trkpt>
      <trkpt lat="43.160535" lon="-7.808326">
        <ele>497.650</ele>
        <time>2021-07-09T07:17:10Z</time>
      </trkpt>
      <trkpt lat="43.148110" lon="-7.815642">
        <ele>500.520</ele>
        <time>2021-07-09T07:29:10Z</time>
      </trkpt>
      <trkpt lat="43.140440" lon="-7.826874">
        <ele>458.662</ele>
        <time>2021-07-09T07:35:42Z</time>
      </trkpt>
      <trkpt lat="43.131388" lon="-7.821914">
        <ele>464.976</ele>
        <time>2021-07-09T07:45:08Z</time>
      </trkpt>
      <trkpt lat="43.133205" lon="-7.815461">
        <ele>477.975</ele>
        <time>2021-07-09T07:48:45Z</time>
      </trkpt>
      <trkpt lat="43.115730" lon="-7.814534">
        <ele>490.847</ele>
        <time>2021-07-09T08:12:07Z</time>
      </trkpt>
      <trkpt lat="43.117505" lon="-7.834438">
        <ele>449.018</ele>
        <time>2021-07-09T08:18:52Z</time>
      </trkpt>
      <trkpt lat="43.113558" lon="-7.841839">
        <ele>467.898</ele>
        <time>2021-07-09T08:23:34Z</time>
      </trkpt>
      <trkpt lat="43.098273" lon="-7.843309">
        <ele>496.617</ele>
        <time>2021-07-09T08:54:53Z</time>
      </trkpt>
      <trkpt lat="43.097334" lon="-7.847504">
        <ele>505.708</ele>
        <time>2021-07-09T08:56:46Z</time>
      </trkpt>
      <trkpt lat="43.084316" lon="-7.851370">
        <ele>534.648</ele>
        <time>2021-07-09T09:05:45Z</time>
      </trkpt>
      <trkpt lat="43.074133" lon="-7.869030">
        <ele>562.968</ele>
        <time>2021-07-09T09:17:05Z</time>
      </trkpt>
      <trkpt lat="43.073857" lon="-7.896411">
        <ele>618.749</ele>
        <time>2021-07-09T09:33:59Z</time>
      </trkpt>
      <trkpt lat="43.066275" lon="-7.901986">
        <ele>608.179</ele>
        <time>2021-07-09T09:38:14Z</time>
      </trkpt>
      <trkpt lat="43.064875" lon="-7.919241">
        <ele>627.891</ele>
        <time>2021-07-09T09:46:14Z</time>
      </trkpt>
      <trkpt lat="43.055797" lon="-7.919425">
        <ele>700.915</ele>
        <time>2021-07-09T09:56:30Z</time>
      </trkpt>
      <trkpt lat="43.042825" lon="-7.908312">
        <ele>646.134</ele>
        <time>2021-07-09T10:08:07Z</time>
      </trkpt>
      <trkpt lat="43.038351" lon="-7.914429">
        <ele>660.546</ele>
        <time>2021-07-09T10:14:06Z</time>
      </trkpt>
      <trkpt lat="43.033124" lon="-7.911700">
        <ele>701.478</ele>
        <time>2021-07-09T10:23:41Z</time>
      </trkpt>
      <trkpt lat="43.032294" lon="-7.934337">
        <ele>697.033</ele>
        <time>2021-07-09T10:31:25Z</time>
      </trkpt>
      <trkpt lat="43.039920" lon="-7.949165">
        <ele>625.426</ele>
        <time>2021-07-09T10:33:31Z</time>
      </trkpt>
      <trkpt lat="43.035344" lon="-7.985584">
        <ele>609.108</ele>
        <time>2021-07-09T10:44:59Z</time>
      </trkpt>
      <trkpt lat="43.040539" lon="-8.022834">
        <ele>517.334</ele>
        <time>2021-07-09T12:09:52Z</time>
      </trkpt>
      <trkpt lat="43.034493" lon="-8.031185">
        <ele>492.894</ele>
        <time>2021-07-09T12:14:15Z</time>
      </trkpt>
      <trkpt lat="43.033488" lon="-8.048533">
        <ele>499.535</ele>
        <time>2021-07-09T12:21:22Z</time>
      </trkpt>
      <trkpt lat="43.019387" lon="-8.056881">
        <ele>550.925</ele>
        <time>2021-07-09T12:32:26Z</time>
      </trkpt>
      <trkpt lat="43.013348" lon="-8.074459">
        <ele>505.377</ele>
        <time>2021-07-09T12:36:02Z</time>
      </trkpt>
      <trkpt lat="43.016664" lon="-8.118122">
        <ele>482.221</ele>
        <time>2021-07-09T12:48:31Z</time>
      </trkpt>
      <trkpt lat="42.998700" lon="-8.136380">
        <ele>479.330</ele>
        <time>2021-07-10T06:48:00Z</time>
      </trkpt>
      <trkpt lat="43.003073" lon="-8.149666">
        <ele>489.982</ele>
        <time>2021-07-10T06:59:13Z</time>
      </trkpt>
      <trkpt lat="42.999435" lon="-8.165174">
        <ele>536.041</ele>
        <time>2021-07-10T07:07:43Z</time>
      </trkpt>
      <trkpt lat="42.986901" lon="-8.178120">
        <ele>451.981</ele>
        <time>2021-07-10T07:12:15Z</time>
      </trkpt>
      <trkpt lat="42.986989" lon="-8.202877">
        <ele>476.409</ele>
        <time>2021-07-10T07:22:44Z</time>
      </trkpt>
      <trkpt lat="42.980813" lon="-8.218040">
        <ele>438.908</ele>
        <time>2021-07-10T07:30:45Z</time>
      </trkpt>
      <trkpt lat="42.982678" lon="-8.233391">
        <ele>429.391</ele>
        <time>2021-07-10T07:35:15Z</time>
      </trkpt>
      <trkpt lat="42.973445" lon="-8.252334">
        <ele>403.851</ele>
        <time>2021-07-10T07:43:48Z</time>
      </trkpt>
      <trkpt lat="42.970422" lon="-8.271846">
        <ele>375.052</ele>
        <time>2021-07-10T07:55:35Z</time>
      </trkpt>
      <trkpt lat="42.963880" lon="-8.281597">
        <ele>358.262</ele>
        <time>2021-07-10T08:04:30Z</time>
      </trkpt>
      <trkpt lat="42.960896" lon="-8.312378">
        <ele>336.644</ele>
        <time>2021-07-10T08:14:42Z</time>
      </trkpt>
      <trkpt lat="42.934969" lon="-8.362256">
        <ele>375.038</ele>
        <time>2021-07-10T08:41:13Z</time>
      </trkpt>
      <trkpt lat="42.923022" lon="-8.404940">
        <ele>373.677</ele>
        <time>2021-07-10T09:25:30Z</time>
      </trkpt>
      <trkpt lat="42.914718" lon="-8.414408">
        <ele>368.829</ele>
        <time>2021-07-10T09:30:16Z</time>
      </trkpt>
      <trkpt lat="42.914583" lon="-8.421402">
        <ele>343.861</ele>
        <time>2021-07-10T09:31:43Z</time>
      </trkpt>
      <trkpt lat="42.908708" lon="-8.423587">
        <ele>347.621</ele>
        <time>2021-07-10T09:35:12Z</time>
      </trkpt>
      <trkpt lat="42.900188" lon="-8.446864">
        <ele>303.913</ele>
        <time>2021-07-10T09:47:34Z</time>
      </trkpt>
      <trkpt lat="42.892183" lon="-8.497628">
        <ele>341.808</ele>
        <time>2021-07-10T10:10:01Z</time>
      </trkpt>
      <trkpt lat="42.886997" lon="-8.505041">
        <ele>295.753</ele>
        <time>2021-07-10T10:11:34Z</time>
      </trkpt>
      <trkpt lat="42.886913" lon="-8.532789">
        <ele>292.343</ele>
        <time>2021-07-10T10:21:31Z</time>
      </trkpt>
      <trkpt lat="42.877276" lon="-8.536025">
        <ele>274.534</ele>
        <time>2021-07-10T10:27:54Z</time>
      </trkpt>
      <trkpt lat="42.880063" lon="-8.545587">
        <ele>258.264</ele>
        <time>2021-07-10T10:54:47Z</time>
      </trkpt>
      <trkpt lat="42.880439" lon="-8.545719">
        <ele>263.097</ele>
        <time>2021-07-11T06:08:46Z</time>
      </trkpt>
      <trkpt lat="42.880453" lon="-8.545712">
        <ele>263.023</ele>
        <time>2021-07-11T06:09:00Z</time>
      </trkpt>
      <trkpt lat="42.880451" lon="-8.545715">
        <ele>264.525</ele>
        <time>2021-07-11T06:09:14Z</time>
      </trkpt>
      <trkpt lat="42.880457" lon="-8.545700">
        <ele>264.508</ele>
        <time>2021-07-11T06:09:20Z</time>
      </trkpt>
      <trkpt lat="42.880632" lon="-8.545628">
        <ele>264.536</ele>
        <time>2021-07-11T06:09:29Z</time>
      </trkpt>
      <trkpt lat="42.880844" lon="-8.545524">
        <ele>264.978</ele>
        <time>2021-07-11T06:09:38Z</time>
      </trkpt>
      <trkpt lat="42.880884" lon="-8.545509">
        <ele>265.425</ele>
        <time>2021-07-11T06:09:40Z</time>
      </trkpt>
      <trkpt lat="42.880929" lon="-8.545432">
        <ele>265.935</ele>
        <time>2021-07-11T06:09:44Z</time>
      </trkpt>
      <trkpt lat="42.881019" lon="-8.545424">
        <ele>265.999</ele>
        <time>2021-07-11T06:09:49Z</time>
      </trkpt>
      <trkpt lat="42.881043" lon="-8.545423">
        <ele>265.937</ele>
        <time>2021-07-11T06:09:50Z</time>
      </trkpt>
      <trkpt lat="42.881292" lon="-8.545418">
        <ele>266.494</ele>
        <time>2021-07-11T06:10:01Z</time>
      </trkpt>
      <trkpt lat="42.881523" lon="-8.545426">
        <ele>266.922</ele>
        <time>2021-07-11T06:10:10Z</time>
      </trkpt>
      <trkpt lat="42.881603" lon="-8.545425">
        <ele>267.323</ele>
        <time>2021-07-11T06:10:14Z</time>
      </trkpt>
      <trkpt lat="42.881639" lon="-8.545321">
        <ele>269.383</ele>
        <time>2021-07-11T06:10:21Z</time>
      </trkpt>
      <trkpt lat="42.881653" lon="-8.545262">
        <ele>270.711</ele>
        <time>2021-07-11T06:10:23Z</time>
      </trkpt>
      <trkpt lat="42.881624" lon="-8.545112">
        <ele>269.308</ele>
        <time>2021-07-11T06:10:30Z</time>
      </trkpt>
      <trkpt lat="42.881466" lon="-8.545001">
        <ele>264.939</ele>
        <time>2021-07-11T06:10:41Z</time>
      </trkpt>
      <trkpt lat="42.881430" lon="-8.544982">
        <ele>264.071</ele>
        <time>2021-07-11T06:10:43Z</time>
      </trkpt>
      <trkpt lat="42.881301" lon="-8.544841">
        <ele>267.348</ele>
        <time>2021-07-11T06:10:53Z</time>
      </trkpt>
      <trkpt lat="42.881287" lon="-8.544653">
        <ele>268.378</ele>
        <time>2021-07-11T06:11:01Z</time>
      </trkpt>
      <trkpt lat="42.881163" lon="-8.544505">
        <ele>269.382</ele>
        <time>2021-07-11T06:11:08Z</time>
      </trkpt>
      <trkpt lat="42.881166" lon="-8.544293">
        <ele>271.270</ele>
        <time>2021-07-11T06:11:16Z</time>
      </trkpt>
      <trkpt lat="42.881179" lon="-8.544070">
        <ele>272.177</ele>
        <time>2021-07-11T06:11:25Z</time>
      </trkpt>
      <trkpt lat="42.881192" lon="-8.543961">
        <ele>271.725</ele>
        <time>2021-07-11T06:11:30Z</time>
      </trkpt>
      <trkpt lat="42.881212" lon="-8.543770">
        <ele>268.855</ele>
        <time>2021-07-11T06:11:38Z</time>
      </trkpt>
      <trkpt lat="42.881175" lon="-8.543563">
        <ele>266.907</ele>
        <time>2021-07-11T06:11:47Z</time>
      </trkpt>
      <trkpt lat="42.881246" lon="-8.543351">
        <ele>269.717</ele>
        <time>2021-07-11T06:11:55Z</time>
      </trkpt>
      <trkpt lat="42.881268" lon="-8.543140">
        <ele>271.708</ele>
        <time>2021-07-11T06:12:03Z</time>
      </trkpt>
      <trkpt lat="42.881237" lon="-8.542914">
        <ele>272.612</ele>
        <time>2021-07-11T06:12:11Z</time>
      </trkpt>
      <trkpt lat="42.881158" lon="-8.542685">
        <ele>276.074</ele>
        <time>2021-07-11T06:12:20Z</time>
      </trkpt>
      <trkpt lat="42.881134" lon="-8.542543">
        <ele>278.961</ele>
        <time>2021-07-11T06:12:25Z</time>
      </trkpt>
      <trkpt lat="42.881231" lon="-8.542399">
        <ele>280.811</ele>
        <time>2021-07-11T06:12:32Z</time>
      </trkpt>
      <trkpt lat="42.881300" lon="-8.542377">
        <ele>280.885</ele>
        <time>2021-07-11T06:12:37Z</time>
      </trkpt>
      <trkpt lat="42.881336" lon="-8.542362">
        <ele>281.323</ele>
        <time>2021-07-11T06:12:39Z</time>
      </trkpt>
      <trkpt lat="42.881419" lon="-8.542195">
        <ele>285.180</ele>
        <time>2021-07-11T06:12:45Z</time>
      </trkpt>
      <trkpt lat="42.881491" lon="-8.541975">
        <ele>286.138</ele>
        <time>2021-07-11T06:12:52Z</time>
      </trkpt>
      <trkpt lat="42.881579" lon="-8.541745">
        <ele>286.687</ele>
        <time>2021-07-11T06:13:00Z</time>
      </trkpt>
      <trkpt lat="42.881594" lon="-8.541726">
        <ele>287.542</ele>
        <time>2021-07-11T06:13:02Z</time>
      </trkpt>
      <trkpt lat="42.881666" lon="-8.541540">
        <ele>294.726</ele>
        <time>2021-07-11T06:13:08Z</time>
      </trkpt>
      <trkpt lat="42.881677" lon="-8.541499">
        <ele>296.208</ele>
        <time>2021-07-11T06:13:09Z</time>
      </trkpt>
      <trkpt lat="42.881814" lon="-8.541097">
        <ele>299.575</ele>
        <time>2021-07-11T06:13:17Z</time>
      </trkpt>
      <trkpt lat="42.881868" lon="-8.540821">
        <ele>296.297</ele>
        <time>2021-07-11T06:13:23Z</time>
      </trkpt>
      <trkpt lat="42.881902" lon="-8.540447">
        <ele>291.944</ele>
        <time>2021-07-11T06:13:32Z</time>
      </trkpt>
      <trkpt lat="42.881907" lon="-8.540305">
        <ele>289.044</ele>
        <time>2021-07-11T06:13:36Z</time>
      </trkpt>
      <trkpt lat="42.881851" lon="-8.540143">
        <ele>284.698</ele>
        <time>2021-07-11T06:13:42Z</time>
      </trkpt>
      <trkpt lat="42.881872" lon="-8.540045">
        <ele>285.166</ele>
        <time>2021-07-11T06:13:46Z</time>
      </trkpt>
      <trkpt lat="42.881864" lon="-8.539781">
        <ele>282.713</ele>
        <time>2021-07-11T06:13:54Z</time>
      </trkpt>
      <trkpt lat="42.881801" lon="-8.539534">
        <ele>280.351</ele>
        <time>2021-07-11T06:14:00Z</time>
      </trkpt>
      <trkpt lat="42.881666" lon="-8.539182">
        <ele>281.387</ele>
        <time>2021-07-11T06:14:10Z</time>
      </trkpt>
      <trkpt lat="42.881555" lon="-8.538908">
        <ele>282.242</ele>
        <time>2021-07-11T06:14:18Z</time>
      </trkpt>
      <trkpt lat="42.881441" lon="-8.538571">
        <ele>283.226</ele>
        <time>2021-07-11T06:14:28Z</time>
      </trkpt>
      <trkpt lat="42.881348" lon="-8.538272">
        <ele>285.108</ele>
        <time>2021-07-11T06:14:38Z</time>
      </trkpt>
      <trkpt lat="42.881312" lon="-8.538022">
        <ele>286.195</ele>
        <time>2021-07-11T06:14:46Z</time>
      </trkpt>
      <trkpt lat="42.881315" lon="-8.537830">
        <ele>285.147</ele>
        <time>2021-07-11T06:14:53Z</time>
      </trkpt>
      <trkpt lat="42.881341" lon="-8.537621">
        <ele>283.794</ele>
        <time>2021-07-11T06:15:01Z</time>
      </trkpt>
      <trkpt lat="42.881391" lon="-8.537304">
        <ele>282.244</ele>
        <time>2021-07-11T06:15:12Z</time>
      </trkpt>
      <trkpt lat="42.881442" lon="-8.536954">
        <ele>281.818</ele>
        <time>2021-07-11T06:15:23Z</time>
      </trkpt>
      <trkpt lat="42.881508" lon="-8.536573">
        <ele>280.336</ele>
        <time>2021-07-11T06:15:35Z</time>
      </trkpt>
      <trkpt lat="42.881580" lon="-8.536282">
        <ele>281.333</ele>
        <time>2021-07-11T06:15:44Z</time>
      </trkpt>
      <trkpt lat="42.881645" lon="-8.536000">
        <ele>282.211</ele>
        <time>2021-07-11T06:15:53Z</time>
      </trkpt>
      <trkpt lat="42.881708" lon="-8.535700">
        <ele>282.295</ele>
        <time>2021-07-11T06:16:02Z</time>
      </trkpt>
      <trkpt lat="42.881773" lon="-8.535367">
        <ele>283.749</ele>
        <time>2021-07-11T06:16:13Z</time>
      </trkpt>
      <trkpt lat="42.881801" lon="-8.535136">
        <ele>286.123</ele>
        <time>2021-07-11T06:16:22Z</time>
      </trkpt>
      <trkpt lat="42.881821" lon="-8.534996">
        <ele>285.608</ele>
        <time>2021-07-11T06:16:27Z</time>
      </trkpt>
      <trkpt lat="42.881868" lon="-8.534894">
        <ele>286.136</ele>
        <time>2021-07-11T06:16:31Z</time>
      </trkpt>
      <trkpt lat="42.882004" lon="-8.534726">
        <ele>286.198</ele>
        <time>2021-07-11T06:16:39Z</time>
      </trkpt>
      <trkpt lat="42.882183" lon="-8.534535">
        <ele>286.115</ele>
        <time>2021-07-11T06:16:47Z</time>
      </trkpt>
      <trkpt lat="42.882391" lon="-8.534356">
        <ele>287.555</ele>
        <time>2021-07-11T06:16:56Z</time>
      </trkpt>
      <trkpt lat="42.882521" lon="-8.534321">
        <ele>289.469</ele>
        <time>2021-07-11T06:17:02Z</time>
      </trkpt>
      <trkpt lat="42.882770" lon="-8.534276">
        <ele>288.557</ele>
        <time>2021-07-11T06:17:12Z</time>
      </trkpt>
      <trkpt lat="42.882934" lon="-8.534248">
        <ele>288.554</ele>
        <time>2021-07-11T06:17:19Z</time>
      </trkpt>
      <trkpt lat="42.883087" lon="-8.534220">
        <ele>289.412</ele>
        <time>2021-07-11T06:17:26Z</time>
      </trkpt>
      <trkpt lat="42.883260" lon="-8.534197">
        <ele>291.993</ele>
        <time>2021-07-11T06:17:35Z</time>
      </trkpt>
      <trkpt lat="42.883443" lon="-8.534168">
        <ele>296.765</ele>
        <time>2021-07-11T06:17:43Z</time>
      </trkpt>
      <trkpt lat="42.883648" lon="-8.534121">
        <ele>298.621</ele>
        <time>2021-07-11T06:17:51Z</time>
      </trkpt>
      <trkpt lat="42.883820" lon="-8.534079">
        <ele>300.008</ele>
        <time>2021-07-11T06:17:59Z</time>
      </trkpt>
      <trkpt lat="42.883965" lon="-8.534047">
        <ele>304.346</ele>
        <time>2021-07-11T06:18:06Z</time>
      </trkpt>
      <trkpt lat="42.884182" lon="-8.533948">
        <ele>306.858</ele>
        <time>2021-07-11T06:18:15Z</time>
      </trkpt>
      <trkpt lat="42.884246" lon="-8.533910">
        <ele>306.385</ele>
        <time>2021-07-11T06:18:18Z</time>
      </trkpt>
      <trkpt lat="42.884288" lon="-8.533781">
        <ele>304.875</ele>
        <time>2021-07-11T06:18:23Z</time>
      </trkpt>
      <trkpt lat="42.884280" lon="-8.533662">
        <ele>302.479</ele>
        <time>2021-07-11T06:18:27Z</time>
      </trkpt>
      <trkpt lat="42.884158" lon="-8.533587">
        <ele>299.177</ele>
        <time>2021-07-11T06:18:32Z</time>
      </trkpt>
      <trkpt lat="42.884134" lon="-8.533476">
        <ele>295.734</ele>
        <time>2021-07-11T06:18:36Z</time>
      </trkpt>
      <trkpt lat="42.884217" lon="-8.533300">
        <ele>291.972</ele>
        <time>2021-07-11T06:18:43Z</time>
      </trkpt>
      <trkpt lat="42.884353" lon="-8.533263">
        <ele>290.486</ele>
        <time>2021-07-11T06:18:49Z</time>
      </trkpt>
      <trkpt lat="42.884533" lon="-8.533257">
        <ele>289.060</ele>
        <time>2021-07-11T06:18:57Z</time>
      </trkpt>
      <trkpt lat="42.884691" lon="-8.533278">
        <ele>288.026</ele>
        <time>2021-07-11T06:19:05Z</time>
      </trkpt>
      <trkpt lat="42.884774" lon="-8.533292">
        <ele>287.008</ele>
        <time>2021-07-11T06:19:09Z</time>
      </trkpt>
      <trkpt lat="42.884843" lon="-8.533277">
        <ele>287.015</ele>
        <time>2021-07-11T06:19:14Z</time>
      </trkpt>
      <trkpt lat="42.884999" lon="-8.533175">
        <ele>287.587</ele>
        <time>2021-07-11T06:19:22Z</time>
      </trkpt>
      <trkpt lat="42.885130" lon="-8.533028">
        <ele>287.024</ele>
        <time>2021-07-11T06:19:29Z</time>
      </trkpt>
      <trkpt lat="42.885201" lon="-8.532774">
        <ele>286.134</ele>
        <time>2021-07-11T06:19:36Z</time>
      </trkpt>
      <trkpt lat="42.885163" lon="-8.532535">
        <ele>286.128</ele>
        <time>2021-07-11T06:19:43Z</time>
      </trkpt>
      <trkpt lat="42.885101" lon="-8.532297">
        <ele>286.636</ele>
        <time>2021-07-11T06:19:51Z</time>
      </trkpt>
      <trkpt lat="42.885039" lon="-8.532071">
        <ele>288.583</ele>
        <time>2021-07-11T06:19:59Z</time>
      </trkpt>
      <trkpt lat="42.885039" lon="-8.531833">
        <ele>289.021</ele>
        <time>2021-07-11T06:20:07Z</time>
      </trkpt>
      <trkpt lat="42.885133" lon="-8.531552">
        <ele>288.079</ele>
        <time>2021-07-11T06:20:16Z</time>
      </trkpt>
      <trkpt lat="42.885256" lon="-8.531276">
        <ele>287.505</ele>
        <time>2021-07-11T06:20:24Z</time>
      </trkpt>
      <trkpt lat="42.885394" lon="-8.530987">
        <ele>287.525</ele>
        <time>2021-07-11T06:20:32Z</time>
      </trkpt>
      <trkpt lat="42.885570" lon="-8.530733">
        <ele>290.908</ele>
        <time>2021-07-11T06:20:40Z</time>
      </trkpt>
      <trkpt lat="42.885793" lon="-8.530425">
        <ele>293.364</ele>
        <time>2021-07-11T06:20:49Z</time>
      </trkpt>
      <trkpt lat="42.885917" lon="-8.530101">
        <ele>293.896</ele>
        <time>2021-07-11T06:20:57Z</time>
      </trkpt>
      <trkpt lat="42.886003" lon="-8.529696">
        <ele>293.853</ele>
        <time>2021-07-11T06:21:06Z</time>
      </trkpt>
      <trkpt lat="42.886072" lon="-8.529277">
        <ele>293.363</ele>
        <time>2021-07-11T06:21:16Z</time>
      </trkpt>
      <trkpt lat="42.886114" lon="-8.528879">
        <ele>292.857</ele>
        <time>2021-07-11T06:21:26Z</time>
      </trkpt>
      <trkpt lat="42.886141" lon="-8.528562">
        <ele>292.395</ele>
        <time>2021-07-11T06:21:35Z</time>
      </trkpt>
      <trkpt lat="42.886165" lon="-8.528268">
        <ele>293.812</ele>
        <time>2021-07-11T06:21:43Z</time>
      </trkpt>
      <trkpt lat="42.886201" lon="-8.527927">
        <ele>294.760</ele>
        <time>2021-07-11T06:21:53Z</time>
      </trkpt>
      <trkpt lat="42.886301" lon="-8.527614">
        <ele>294.358</ele>
        <time>2021-07-11T06:22:02Z</time>
      </trkpt>
      <trkpt lat="42.886469" lon="-8.527213">
        <ele>294.752</ele>
        <time>2021-07-11T06:22:13Z</time>
      </trkpt>
      <trkpt lat="42.886607" lon="-8.526905">
        <ele>294.317</ele>
        <time>2021-07-11T06:22:21Z</time>
      </trkpt>
      <trkpt lat="42.886734" lon="-8.526638">
        <ele>293.808</ele>
        <time>2021-07-11T06:22:28Z</time>
      </trkpt>
      <trkpt lat="42.886876" lon="-8.526315">
        <ele>293.332</ele>
        <time>2021-07-11T06:22:36Z</time>
      </trkpt>
      <trkpt lat="42.886977" lon="-8.525927">
        <ele>294.714</ele>
        <time>2021-07-11T06:22:45Z</time>
      </trkpt>
      <trkpt lat="42.887051" lon="-8.525661">
        <ele>297.651</ele>
        <time>2021-07-11T06:22:51Z</time>
      </trkpt>
      <trkpt lat="42.887117" lon="-8.525366">
        <ele>300.021</ele>
        <time>2021-07-11T06:22:58Z</time>
      </trkpt>
      <trkpt lat="42.887208" lon="-8.524950">
        <ele>299.525</ele>
        <time>2021-07-11T06:23:07Z</time>
      </trkpt>
      <trkpt lat="42.887224" lon="-8.524502">
        <ele>299.133</ele>
        <time>2021-07-11T06:23:16Z</time>
      </trkpt>
      <trkpt lat="42.887245" lon="-8.524089">
        <ele>296.730</ele>
        <time>2021-07-11T06:23:24Z</time>
      </trkpt>
      <trkpt lat="42.887251" lon="-8.523649">
        <ele>295.228</ele>
        <time>2021-07-11T06:23:33Z</time>
      </trkpt>
      <trkpt lat="42.887245" lon="-8.523206">
        <ele>295.273</ele>
        <time>2021-07-11T06:23:42Z</time>
      </trkpt>
      <trkpt lat="42.887220" lon="-8.522801">
        <ele>295.285</ele>
        <time>2021-07-11T06:23:51Z</time>
      </trkpt>
      <trkpt lat="42.887169" lon="-8.522393">
        <ele>295.713</ele>
        <time>2021-07-11T06:24:00Z</time>
      </trkpt>
      <trkpt lat="42.887111" lon="-8.522008">
        <ele>296.208</ele>
        <time>2021-07-11T06:24:09Z</time>
      </trkpt>
      <trkpt lat="42.887051" lon="-8.521704">
        <ele>296.734</ele>
        <time>2021-07-11T06:24:17Z</time>
      </trkpt>
      <trkpt lat="42.886996" lon="-8.521451">
        <ele>296.756</ele>
        <time>2021-07-11T06:24:24Z</time>
      </trkpt>
      <trkpt lat="42.886900" lon="-8.521027">
        <ele>297.163</ele>
        <time>2021-07-11T06:24:34Z</time>
      </trkpt>
      <trkpt lat="42.886839" lon="-8.520700">
        <ele>297.693</ele>
        <time>2021-07-11T06:24:41Z</time>
      </trkpt>
      <trkpt lat="42.886753" lon="-8.520233">
        <ele>298.687</ele>
        <time>2021-07-11T06:24:52Z</time>
      </trkpt>
      <trkpt lat="42.886693" lon="-8.519843">
        <ele>300.035</ele>
        <time>2021-07-11T06:25:01Z</time>
      </trkpt>
      <trkpt lat="42.886655" lon="-8.519486">
        <ele>300.062</ele>
        <time>2021-07-11T06:25:09Z</time>
      </trkpt>
      <trkpt lat="42.886628" lon="-8.519199">
        <ele>300.540</ele>
        <time>2021-07-11T06:25:17Z</time>
      </trkpt>
      <trkpt lat="42.886592" lon="-8.518797">
        <ele>299.533</ele>
        <time>2021-07-11T06:25:26Z</time>
      </trkpt>
      <trkpt lat="42.886550" lon="-8.518369">
        <ele>298.123</ele>
        <time>2021-07-11T06:25:34Z</time>
      </trkpt>
      <trkpt lat="42.886520" lon="-8.518132">
        <ele>297.615</ele>
        <time>2021-07-11T06:25:38Z</time>
      </trkpt>
      <trkpt lat="42.886458" lon="-8.517675">
        <ele>296.708</ele>
        <time>2021-07-11T06:25:45Z</time>
      </trkpt>
      <trkpt lat="42.886418" lon="-8.517342">
        <ele>295.780</ele>
        <time>2021-07-11T06:25:50Z</time>
      </trkpt>
      <trkpt lat="42.886398" lon="-8.517284">
        <ele>295.762</ele>
        <time>2021-07-11T06:25:51Z</time>
      </trkpt>
      <trkpt lat="42.886368" lon="-8.517219">
        <ele>295.749</ele>
        <time>2021-07-11T06:25:52Z</time>
      </trkpt>
      <trkpt lat="42.886320" lon="-8.517106">
        <ele>295.739</ele>
        <time>2021-07-11T06:25:54Z</time>
      </trkpt>
      <trkpt lat="42.886307" lon="-8.517059">
        <ele>295.773</ele>
        <time>2021-07-11T06:25:55Z</time>
      </trkpt>
      <trkpt lat="42.886303" lon="-8.517019">
        <ele>295.771</ele>
        <time>2021-07-11T06:25:56Z</time>
      </trkpt>
      <trkpt lat="42.886309" lon="-8.516967">
        <ele>295.778</ele>
        <time>2021-07-11T06:25:57Z</time>
      </trkpt>
      <trkpt lat="42.886322" lon="-8.516914">
        <ele>295.296</ele>
        <time>2021-07-11T06:25:58Z</time>
      </trkpt>
      <trkpt lat="42.886338" lon="-8.516861">
        <ele>295.242</ele>
        <time>2021-07-11T06:25:59Z</time>
      </trkpt>
      <trkpt lat="42.886350" lon="-8.516804">
        <ele>294.722</ele>
        <time>2021-07-11T06:26:00Z</time>
      </trkpt>
      <trkpt lat="42.886356" lon="-8.516759">
        <ele>294.714</ele>
        <time>2021-07-11T06:26:01Z</time>
      </trkpt>
      <trkpt lat="42.886363" lon="-8.516645">
        <ele>294.708</ele>
        <time>2021-07-11T06:26:03Z</time>
      </trkpt>
      <trkpt lat="42.886363" lon="-8.516584">
        <ele>294.761</ele>
        <time>2021-07-11T06:26:04Z</time>
      </trkpt>
      <trkpt lat="42.886351" lon="-8.516101">
        <ele>294.323</ele>
        <time>2021-07-11T06:26:12Z</time>
      </trkpt>
      <trkpt lat="42.886354" lon="-8.515543">
        <ele>292.310</ele>
        <time>2021-07-11T06:26:20Z</time>
      </trkpt>
      <trkpt lat="42.886383" lon="-8.514679">
        <ele>290.930</ele>
        <time>2021-07-11T06:26:32Z</time>
      </trkpt>
      <trkpt lat="42.886400" lon="-8.514139">
        <ele>290.424</ele>
        <time>2021-07-11T06:26:39Z</time>
      </trkpt>
      <trkpt lat="42.886408" lon="-8.513507">
        <ele>289.022</ele>
        <time>2021-07-11T06:26:47Z</time>
      </trkpt>
      <trkpt lat="42.886418" lon="-8.513236">
        <ele>289.059</ele>
        <time>2021-07-11T06:26:51Z</time>
      </trkpt>
      <trkpt lat="42.886410" lon="-8.513171">
        <ele>289.017</ele>
        <time>2021-07-11T06:26:52Z</time>
      </trkpt>
      <trkpt lat="42.886396" lon="-8.513130">
        <ele>288.582</ele>
        <time>2021-07-11T06:26:53Z</time>
      </trkpt>
      <trkpt lat="42.886376" lon="-8.513097">
        <ele>288.543</ele>
        <time>2021-07-11T06:26:54Z</time>
      </trkpt>
      <trkpt lat="42.886348" lon="-8.513063">
        <ele>288.517</ele>
        <time>2021-07-11T06:26:55Z</time>
      </trkpt>
      <trkpt lat="42.886320" lon="-8.513034">
        <ele>288.508</ele>
        <time>2021-07-11T06:26:56Z</time>
      </trkpt>
      <trkpt lat="42.886297" lon="-8.513000">
        <ele>288.535</ele>
        <time>2021-07-11T06:26:57Z</time>
      </trkpt>
      <trkpt lat="42.886290" lon="-8.512959">
        <ele>288.537</ele>
        <time>2021-07-11T06:26:58Z</time>
      </trkpt>
      <trkpt lat="42.886301" lon="-8.512919">
        <ele>288.514</ele>
        <time>2021-07-11T06:26:59Z</time>
      </trkpt>
      <trkpt lat="42.886322" lon="-8.512888">
        <ele>288.544</ele>
        <time>2021-07-11T06:27:00Z</time>
      </trkpt>
      <trkpt lat="42.886335" lon="-8.512851">
        <ele>288.538</ele>
        <time>2021-07-11T06:27:01Z</time>
      </trkpt>
      <trkpt lat="42.886338" lon="-8.512806">
        <ele>288.556</ele>
        <time>2021-07-11T06:27:02Z</time>
      </trkpt>
      <trkpt lat="42.886339" lon="-8.512760">
        <ele>288.573</ele>
        <time>2021-07-11T06:27:03Z</time>
      </trkpt>
      <trkpt lat="42.886340" lon="-8.512700">
        <ele>288.581</ele>
        <time>2021-07-11T06:27:04Z</time>
      </trkpt>
      <trkpt lat="42.886338" lon="-8.512645">
        <ele>288.082</ele>
        <time>2021-07-11T06:27:05Z</time>
      </trkpt>
      <trkpt lat="42.886331" lon="-8.512323">
        <ele>286.643</ele>
        <time>2021-07-11T06:27:12Z</time>
      </trkpt>
      <trkpt lat="42.886320" lon="-8.511947">
        <ele>285.617</ele>
        <time>2021-07-11T06:27:20Z</time>
      </trkpt>
      <trkpt lat="42.886305" lon="-8.511602">
        <ele>286.108</ele>
        <time>2021-07-11T06:27:29Z</time>
      </trkpt>
      <trkpt lat="42.886300" lon="-8.511438">
        <ele>285.625</ele>
        <time>2021-07-11T06:27:35Z</time>
      </trkpt>
      <trkpt lat="42.886295" lon="-8.511209">
        <ele>284.647</ele>
        <time>2021-07-11T06:27:43Z</time>
      </trkpt>
      <trkpt lat="42.886289" lon="-8.511133">
        <ele>284.244</ele>
        <time>2021-07-11T06:27:48Z</time>
      </trkpt>
      <trkpt lat="42.886297" lon="-8.511150">
        <ele>284.244</ele>
        <time>2021-07-11T06:27:54Z</time>
      </trkpt>
      <trkpt lat="42.886273" lon="-8.511110">
        <ele>286.678</ele>
        <time>2021-07-11T06:28:20Z</time>
      </trkpt>
      <trkpt lat="42.886298" lon="-8.511160">
        <ele>283.796</ele>
        <time>2021-07-11T06:28:42Z</time>
      </trkpt>
      <trkpt lat="42.886292" lon="-8.511150">
        <ele>283.223</ele>
        <time>2021-07-11T06:28:56Z</time>
      </trkpt>
      <trkpt lat="42.886308" lon="-8.511141">
        <ele>286.131</ele>
        <time>2021-07-11T06:29:24Z</time>
      </trkpt>
      <trkpt lat="42.886312" lon="-8.511133">
        <ele>284.663</ele>
        <time>2021-07-11T06:29:50Z</time>
      </trkpt>
      <trkpt lat="42.886314" lon="-8.511132">
        <ele>284.244</ele>
        <time>2021-07-11T06:30:01Z</time>
      </trkpt>
      <trkpt lat="42.886308" lon="-8.511111">
        <ele>283.718</ele>
        <time>2021-07-11T06:30:05Z</time>
      </trkpt>
      <trkpt lat="42.886244" lon="-8.510991">
        <ele>283.708</ele>
        <time>2021-07-11T06:30:11Z</time>
      </trkpt>
      <trkpt lat="42.886183" lon="-8.510821">
        <ele>283.743</ele>
        <time>2021-07-11T06:30:18Z</time>
      </trkpt>
      <trkpt lat="42.886178" lon="-8.510806">
        <ele>283.215</ele>
        <time>2021-07-11T06:30:23Z</time>
      </trkpt>
      <trkpt lat="42.886178" lon="-8.510796">
        <ele>279.842</ele>
        <time>2021-07-11T06:30:44Z</time>
      </trkpt>
      <trkpt lat="42.886183" lon="-8.510789">
        <ele>279.812</ele>
        <time>2021-07-11T06:31:02Z</time>
      </trkpt>
      <trkpt lat="42.886185" lon="-8.510712">
        <ele>280.896</ele>
        <time>2021-07-11T06:31:09Z</time>
      </trkpt>
      <trkpt lat="42.886184" lon="-8.510460">
        <ele>281.884</ele>
        <time>2021-07-11T06:31:16Z</time>
      </trkpt>
      <trkpt lat="42.886291" lon="-8.510308">
        <ele>281.391</ele>
        <time>2021-07-11T06:31:22Z</time>
      </trkpt>
      <trkpt lat="42.886393" lon="-8.510071">
        <ele>280.399</ele>
        <time>2021-07-11T06:31:30Z</time>
      </trkpt>
      <trkpt lat="42.886442" lon="-8.509882">
        <ele>279.472</ele>
        <time>2021-07-11T06:31:37Z</time>
      </trkpt>
      <trkpt lat="42.886463" lon="-8.509531">
        <ele>278.413</ele>
        <time>2021-07-11T06:31:46Z</time>
      </trkpt>
      <trkpt lat="42.886474" lon="-8.509165">
        <ele>279.814</ele>
        <time>2021-07-11T06:31:55Z</time>
      </trkpt>
      <trkpt lat="42.886491" lon="-8.508877">
        <ele>280.808</ele>
        <time>2021-07-11T06:32:03Z</time>
      </trkpt>
      <trkpt lat="42.886513" lon="-8.508498">
        <ele>280.864</ele>
        <time>2021-07-11T06:32:13Z</time>
      </trkpt>
      <trkpt lat="42.886515" lon="-8.507996">
        <ele>282.246</ele>
        <time>2021-07-11T06:32:25Z</time>
      </trkpt>
      <trkpt lat="42.886523" lon="-8.507492">
        <ele>283.273</ele>
        <time>2021-07-11T06:32:41Z</time>
      </trkpt>
      <trkpt lat="42.886538" lon="-8.507246">
        <ele>284.653</ele>
        <time>2021-07-11T06:32:49Z</time>
      </trkpt>
      <trkpt lat="42.886635" lon="-8.506198">
        <ele>291.977</ele>
        <time>2021-07-11T06:33:24Z</time>
      </trkpt>
      <trkpt lat="42.886701" lon="-8.505708">
        <ele>293.825</ele>
        <time>2021-07-11T06:33:40Z</time>
      </trkpt>
      <trkpt lat="42.886754" lon="-8.505379">
        <ele>294.732</ele>
        <time>2021-07-11T06:33:51Z</time>
      </trkpt>
      <trkpt lat="42.886847" lon="-8.505054">
        <ele>296.260</ele>
        <time>2021-07-11T06:34:03Z</time>
      </trkpt>
      <trkpt lat="42.886947" lon="-8.504874">
        <ele>295.763</ele>
        <time>2021-07-11T06:34:12Z</time>
      </trkpt>
      <trkpt lat="42.887035" lon="-8.504735">
        <ele>296.244</ele>
        <time>2021-07-11T06:34:19Z</time>
      </trkpt>
      <trkpt lat="42.887212" lon="-8.504578">
        <ele>296.718</ele>
        <time>2021-07-11T06:34:29Z</time>
      </trkpt>
      <trkpt lat="42.887319" lon="-8.504496">
        <ele>296.708</ele>
        <time>2021-07-11T06:34:36Z</time>
      </trkpt>
      <trkpt lat="42.887542" lon="-8.504345">
        <ele>296.293</ele>
        <time>2021-07-11T06:34:45Z</time>
      </trkpt>
      <trkpt lat="42.887798" lon="-8.504159">
        <ele>295.775</ele>
        <time>2021-07-11T06:34:54Z</time>
      </trkpt>
      <trkpt lat="42.888020" lon="-8.503969">
        <ele>295.742</ele>
        <time>2021-07-11T06:35:03Z</time>
      </trkpt>
      <trkpt lat="42.888162" lon="-8.503817">
        <ele>296.752</ele>
        <time>2021-07-11T06:35:10Z</time>
      </trkpt>
      <trkpt lat="42.888166" lon="-8.503795">
        <ele>296.716</ele>
        <time>2021-07-11T06:35:11Z</time>
      </trkpt>
      <trkpt lat="42.888168" lon="-8.503777">
        <ele>297.194</ele>
        <time>2021-07-11T06:35:12Z</time>
      </trkpt>
      <trkpt lat="42.888158" lon="-8.503754">
        <ele>297.131</ele>
        <time>2021-07-11T06:35:13Z</time>
      </trkpt>
      <trkpt lat="42.888135" lon="-8.503737">
        <ele>297.659</ele>
        <time>2021-07-11T06:35:14Z</time>
      </trkpt>
      <trkpt lat="42.888114" lon="-8.503732">
        <ele>298.126</ele>
        <time>2021-07-11T06:35:16Z</time>
      </trkpt>
      <trkpt lat="42.888082" lon="-8.503736">
        <ele>298.647</ele>
        <time>2021-07-11T06:35:17Z</time>
      </trkpt>
      <trkpt lat="42.887929" lon="-8.503822">
        <ele>300.511</ele>
        <time>2021-07-11T06:35:25Z</time>
      </trkpt>
      <trkpt lat="42.887799" lon="-8.503905">
        <ele>302.408</ele>
        <time>2021-07-11T06:35:33Z</time>
      </trkpt>
      <trkpt lat="42.887661" lon="-8.503973">
        <ele>303.959</ele>
        <time>2021-07-11T06:35:41Z</time>
      </trkpt>
      <trkpt lat="42.887538" lon="-8.503934">
        <ele>306.331</ele>
        <time>2021-07-11T06:35:49Z</time>
      </trkpt>
      <trkpt lat="42.887463" lon="-8.503798">
        <ele>308.758</ele>
        <time>2021-07-11T06:35:57Z</time>
      </trkpt>
      <trkpt lat="42.887466" lon="-8.503619">
        <ele>311.138</ele>
        <time>2021-07-11T06:36:06Z</time>
      </trkpt>
      <trkpt lat="42.887466" lon="-8.503595">
        <ele>311.182</ele>
        <time>2021-07-11T06:36:07Z</time>
      </trkpt>
      <trkpt lat="42.887465" lon="-8.503575">
        <ele>311.190</ele>
        <time>2021-07-11T06:36:08Z</time>
      </trkpt>
      <trkpt lat="42.887467" lon="-8.503556">
        <ele>311.187</ele>
        <time>2021-07-11T06:36:09Z</time>
      </trkpt>
      <trkpt lat="42.887473" lon="-8.503531">
        <ele>311.635</ele>
        <time>2021-07-11T06:36:10Z</time>
      </trkpt>
      <trkpt lat="42.887475" lon="-8.503517">
        <ele>311.638</ele>
        <time>2021-07-11T06:36:11Z</time>
      </trkpt>
      <trkpt lat="42.887478" lon="-8.503491">
        <ele>311.670</ele>
        <time>2021-07-11T06:36:12Z</time>
      </trkpt>
      <trkpt lat="42.887480" lon="-8.503473">
        <ele>311.617</ele>
        <time>2021-07-11T06:36:13Z</time>
      </trkpt>
      <trkpt lat="42.887521" lon="-8.503280">
        <ele>312.008</ele>
        <time>2021-07-11T06:36:23Z</time>
      </trkpt>
      <trkpt lat="42.887578" lon="-8.503099">
        <ele>313.040</ele>
        <time>2021-07-11T06:36:32Z</time>
      </trkpt>
      <trkpt lat="42.887620" lon="-8.502907">
        <ele>313.592</ele>
        <time>2021-07-11T06:36:39Z</time>
      </trkpt>
      <trkpt lat="42.887715" lon="-8.502589">
        <ele>314.929</ele>
        <time>2021-07-11T06:36:51Z</time>
      </trkpt>
      <trkpt lat="42.887771" lon="-8.502399">
        <ele>314.479</ele>
        <time>2021-07-11T06:36:58Z</time>
      </trkpt>
      <trkpt lat="42.887811" lon="-8.502281">
        <ele>314.053</ele>
        <time>2021-07-11T06:37:05Z</time>
      </trkpt>
      <trkpt lat="42.887829" lon="-8.502233">
        <ele>314.441</ele>
        <time>2021-07-11T06:37:08Z</time>
      </trkpt>
      <trkpt lat="42.887831" lon="-8.502214">
        <ele>314.448</ele>
        <time>2021-07-11T06:37:09Z</time>
      </trkpt>
      <trkpt lat="42.887837" lon="-8.502196">
        <ele>314.446</ele>
        <time>2021-07-11T06:37:10Z</time>
      </trkpt>
      <trkpt lat="42.887843" lon="-8.502175">
        <ele>314.992</ele>
        <time>2021-07-11T06:37:11Z</time>
      </trkpt>
      <trkpt lat="42.887849" lon="-8.502157">
        <ele>314.973</ele>
        <time>2021-07-11T06:37:12Z</time>
      </trkpt>
      <trkpt lat="42.887859" lon="-8.502140">
        <ele>314.920</ele>
        <time>2021-07-11T06:37:13Z</time>
      </trkpt>
      <trkpt lat="42.887869" lon="-8.502121">
        <ele>314.908</ele>
        <time>2021-07-11T06:37:14Z</time>
      </trkpt>
      <trkpt lat="42.887879" lon="-8.502103">
        <ele>314.496</ele>
        <time>2021-07-11T06:37:15Z</time>
      </trkpt>
      <trkpt lat="42.887889" lon="-8.502083">
        <ele>314.498</ele>
        <time>2021-07-11T06:37:16Z</time>
      </trkpt>
      <trkpt lat="42.887899" lon="-8.502063">
        <ele>314.955</ele>
        <time>2021-07-11T06:37:17Z</time>
      </trkpt>
      <trkpt lat="42.887908" lon="-8.502045">
        <ele>314.955</ele>
        <time>2021-07-11T06:37:18Z</time>
      </trkpt>
      <trkpt lat="42.887919" lon="-8.502007">
        <ele>314.979</ele>
        <time>2021-07-11T06:37:20Z</time>
      </trkpt>
      <trkpt lat="42.887932" lon="-8.501977">
        <ele>315.467</ele>
        <time>2021-07-11T06:37:21Z</time>
      </trkpt>
      <trkpt lat="42.887939" lon="-8.501957">
        <ele>315.464</ele>
        <time>2021-07-11T06:37:22Z</time>
      </trkpt>
      <trkpt lat="42.887945" lon="-8.501935">
        <ele>315.442</ele>
        <time>2021-07-11T06:37:23Z</time>
      </trkpt>
      <trkpt lat="42.887980" lon="-8.501768">
        <ele>316.869</ele>
        <time>2021-07-11T06:37:31Z</time>
      </trkpt>
      <trkpt lat="42.887983" lon="-8.501748">
        <ele>316.804</ele>
        <time>2021-07-11T06:37:32Z</time>
      </trkpt>
      <trkpt lat="42.887982" lon="-8.501726">
        <ele>317.324</ele>
        <time>2021-07-11T06:37:33Z</time>
      </trkpt>
      <trkpt lat="42.887977" lon="-8.501709">
        <ele>317.308</ele>
        <time>2021-07-11T06:37:34Z</time>
      </trkpt>
      <trkpt lat="42.887970" lon="-8.501687">
        <ele>317.383</ele>
        <time>2021-07-11T06:37:35Z</time>
      </trkpt>
      <trkpt lat="42.887967" lon="-8.501668">
        <ele>317.895</ele>
        <time>2021-07-11T06:37:36Z</time>
      </trkpt>
      <trkpt lat="42.887967" lon="-8.501501">
        <ele>318.892</ele>
        <time>2021-07-11T06:37:44Z</time>
      </trkpt>
      <trkpt lat="42.887945" lon="-8.501299">
        <ele>321.262</ele>
        <time>2021-07-11T06:37:54Z</time>
      </trkpt>
      <trkpt lat="42.887927" lon="-8.501197">
        <ele>322.196</ele>
        <time>2021-07-11T06:38:00Z</time>
      </trkpt>
      <trkpt lat="42.887922" lon="-8.501169">
        <ele>322.194</ele>
        <time>2021-07-11T06:38:02Z</time>
      </trkpt>
      <trkpt lat="42.887923" lon="-8.501106">
        <ele>323.141</ele>
        <time>2021-07-11T06:38:06Z</time>
      </trkpt>
      <trkpt lat="42.887920" lon="-8.501088">
        <ele>324.159</ele>
        <time>2021-07-11T06:38:12Z</time>
      </trkpt>
      <trkpt lat="42.887926" lon="-8.501084">
        <ele>324.548</ele>
        <time>2021-07-11T06:38:21Z</time>
      </trkpt>
      <trkpt lat="42.887929" lon="-8.501034">
        <ele>324.561</ele>
        <time>2021-07-11T06:38:32Z</time>
      </trkpt>
      <trkpt lat="42.887902" lon="-8.500983">
        <ele>326.017</ele>
        <time>2021-07-11T06:38:40Z</time>
      </trkpt>
      <trkpt lat="42.887883" lon="-8.500902">
        <ele>328.408</ele>
        <time>2021-07-11T06:38:48Z</time>
      </trkpt>
      <trkpt lat="42.887862" lon="-8.500803">
        <ele>330.891</ele>
        <time>2021-07-11T06:38:58Z</time>
      </trkpt>
      <trkpt lat="42.887846" lon="-8.500685">
        <ele>334.253</ele>
        <time>2021-07-11T06:39:09Z</time>
      </trkpt>
      <trkpt lat="42.887840" lon="-8.500605">
        <ele>336.190</ele>
        <time>2021-07-11T06:39:16Z</time>
      </trkpt>
      <trkpt lat="42.887824" lon="-8.500487">
        <ele>337.580</ele>
        <time>2021-07-11T06:39:25Z</time>
      </trkpt>
      <trkpt lat="42.887807" lon="-8.500371">
        <ele>339.934</ele>
        <time>2021-07-11T06:39:34Z</time>
      </trkpt>
      <trkpt lat="42.887811" lon="-8.500312">
        <ele>340.452</ele>
        <time>2021-07-11T06:39:44Z</time>
      </trkpt>
      <trkpt lat="42.887805" lon="-8.500158">
        <ele>342.319</ele>
        <time>2021-07-11T06:39:55Z</time>
      </trkpt>
      <trkpt lat="42.887811" lon="-8.500009">
        <ele>343.887</ele>
        <time>2021-07-11T06:40:04Z</time>
      </trkpt>
      <trkpt lat="42.887846" lon="-8.499875">
        <ele>344.728</ele>
        <time>2021-07-11T06:40:13Z</time>
      </trkpt>
      <trkpt lat="42.887890" lon="-8.499706">
        <ele>345.789</ele>
        <time>2021-07-11T06:40:23Z</time>
      </trkpt>
      <trkpt lat="42.887947" lon="-8.499470">
        <ele>346.617</ele>
        <time>2021-07-11T06:40:36Z</time>
      </trkpt>
      <trkpt lat="42.887989" lon="-8.499259">
        <ele>348.108</ele>
        <time>2021-07-11T06:40:48Z</time>
      </trkpt>
      <trkpt lat="42.888034" lon="-8.499086">
        <ele>348.629</ele>
        <time>2021-07-11T06:40:59Z</time>
      </trkpt>
      <trkpt lat="42.888093" lon="-8.498936">
        <ele>349.551</ele>
        <time>2021-07-11T06:41:11Z</time>
      </trkpt>
      <trkpt lat="42.888116" lon="-8.498843">
        <ele>350.558</ele>
        <time>2021-07-11T06:41:19Z</time>
      </trkpt>
      <trkpt lat="42.888155" lon="-8.498675">
        <ele>351.988</ele>
        <time>2021-07-11T06:41:30Z</time>
      </trkpt>
      <trkpt lat="42.888200" lon="-8.498506">
        <ele>353.412</ele>
        <time>2021-07-11T06:41:42Z</time>
      </trkpt>
      <trkpt lat="42.888240" lon="-8.498399">
        <ele>353.970</ele>
        <time>2021-07-11T06:41:52Z</time>
      </trkpt>
      <trkpt lat="42.888260" lon="-8.498283">
        <ele>354.887</ele>
        <time>2021-07-11T06:42:01Z</time>
      </trkpt>
      <trkpt lat="42.888274" lon="-8.498248">
        <ele>355.395</ele>
        <time>2021-07-11T06:42:04Z</time>
      </trkpt>
      <trkpt lat="42.888307" lon="-8.498123">
        <ele>356.323</ele>
        <time>2021-07-11T06:42:13Z</time>
      </trkpt>
      <trkpt lat="42.888353" lon="-8.497970">
        <ele>357.283</ele>
        <time>2021-07-11T06:42:24Z</time>
      </trkpt>
      <trkpt lat="42.888394" lon="-8.497801">
        <ele>358.211</ele>
        <time>2021-07-11T06:42:35Z</time>
      </trkpt>
      <trkpt lat="42.888458" lon="-8.497623">
        <ele>359.608</ele>
        <time>2021-07-11T06:42:47Z</time>
      </trkpt>
      <trkpt lat="42.888496" lon="-8.497483">
        <ele>361.159</ele>
        <time>2021-07-11T06:42:57Z</time>
      </trkpt>
      <trkpt lat="42.888550" lon="-8.497331">
        <ele>363.031</ele>
        <time>2021-07-11T06:43:08Z</time>
      </trkpt>
      <trkpt lat="42.888603" lon="-8.497152">
        <ele>365.918</ele>
        <time>2021-07-11T06:43:19Z</time>
      </trkpt>
      <trkpt lat="42.888655" lon="-8.497009">
        <ele>367.838</ele>
        <time>2021-07-11T06:43:30Z</time>
      </trkpt>
      <trkpt lat="42.888662" lon="-8.496938">
        <ele>369.782</ele>
        <time>2021-07-11T06:43:43Z</time>
      </trkpt>
      <trkpt lat="42.888667" lon="-8.496926">
        <ele>369.770</ele>
        <time>2021-07-11T06:43:44Z</time>
      </trkpt>
      <trkpt lat="42.888672" lon="-8.496913">
        <ele>369.717</ele>
        <time>2021-07-11T06:43:45Z</time>
      </trkpt>
      <trkpt lat="42.888732" lon="-8.496781">
        <ele>372.655</ele>
        <time>2021-07-11T06:43:57Z</time>
      </trkpt>
      <trkpt lat="42.888798" lon="-8.496593">
        <ele>374.062</ele>
        <time>2021-07-11T06:44:09Z</time>
      </trkpt>
      <trkpt lat="42.888845" lon="-8.496434">
        <ele>376.483</ele>
        <time>2021-07-11T06:44:19Z</time>
      </trkpt>
      <trkpt lat="42.888914" lon="-8.496249">
        <ele>377.911</ele>
        <time>2021-07-11T06:44:30Z</time>
      </trkpt>
      <trkpt lat="42.888951" lon="-8.496149">
        <ele>377.908</ele>
        <time>2021-07-11T06:44:39Z</time>
      </trkpt>
      <trkpt lat="42.888987" lon="-8.496082">
        <ele>376.453</ele>
        <time>2021-07-11T06:44:45Z</time>
      </trkpt>
      <trkpt lat="42.889085" lon="-8.495824">
        <ele>377.485</ele>
        <time>2021-07-11T06:44:55Z</time>
      </trkpt>
      <trkpt lat="42.889214" lon="-8.495482">
        <ele>378.462</ele>
        <time>2021-07-11T06:45:07Z</time>
      </trkpt>
      <trkpt lat="42.889274" lon="-8.495336">
        <ele>378.492</ele>
        <time>2021-07-11T06:45:14Z</time>
      </trkpt>
      <trkpt lat="42.889349" lon="-8.495113">
        <ele>377.986</ele>
        <time>2021-07-11T06:45:23Z</time>
      </trkpt>
      <trkpt lat="42.889403" lon="-8.494965">
        <ele>378.454</ele>
        <time>2021-07-11T06:45:31Z</time>
      </trkpt>
      <trkpt lat="42.889472" lon="-8.494760">
        <ele>377.931</ele>
        <time>2021-07-11T06:45:40Z</time>
      </trkpt>
      <trkpt lat="42.889582" lon="-8.494526">
        <ele>377.979</ele>
        <time>2021-07-11T06:45:50Z</time>
      </trkpt>
      <trkpt lat="42.889671" lon="-8.494286">
        <ele>379.339</ele>
        <time>2021-07-11T06:45:59Z</time>
      </trkpt>
      <trkpt lat="42.889698" lon="-8.494034">
        <ele>379.801</ele>
        <time>2021-07-11T06:46:07Z</time>
      </trkpt>
      <trkpt lat="42.889716" lon="-8.493927">
        <ele>379.821</ele>
        <time>2021-07-11T06:46:14Z</time>
      </trkpt>
      <trkpt lat="42.889719" lon="-8.493934">
        <ele>380.808</ele>
        <time>2021-07-11T06:46:27Z</time>
      </trkpt>
      <trkpt lat="42.889733" lon="-8.493936">
        <ele>380.890</ele>
        <time>2021-07-11T06:46:28Z</time>
      </trkpt>
      <trkpt lat="42.889742" lon="-8.493948">
        <ele>380.872</ele>
        <time>2021-07-11T06:46:29Z</time>
      </trkpt>
      <trkpt lat="42.889740" lon="-8.493977">
        <ele>380.819</ele>
        <time>2021-07-11T06:46:30Z</time>
      </trkpt>
      <trkpt lat="42.889730" lon="-8.493997">
        <ele>380.899</ele>
        <time>2021-07-11T06:46:31Z</time>
      </trkpt>
      <trkpt lat="42.889708" lon="-8.494019">
        <ele>381.343</ele>
        <time>2021-07-11T06:46:33Z</time>
      </trkpt>
      <trkpt lat="42.889687" lon="-8.494043">
        <ele>381.341</ele>
        <time>2021-07-11T06:46:34Z</time>
      </trkpt>
      <trkpt lat="42.889652" lon="-8.494088">
        <ele>381.738</ele>
        <time>2021-07-11T06:46:36Z</time>
      </trkpt>
      <trkpt lat="42.889500" lon="-8.494179">
        <ele>382.266</ele>
        <time>2021-07-11T06:46:43Z</time>
      </trkpt>
      <trkpt lat="42.889307" lon="-8.494265">
        <ele>382.746</ele>
        <time>2021-07-11T06:46:52Z</time>
      </trkpt>
      <trkpt lat="42.889147" lon="-8.494225">
        <ele>383.288</ele>
        <time>2021-07-11T06:46:59Z</time>
      </trkpt>
      <trkpt lat="42.889028" lon="-8.494042">
        <ele>383.216</ele>
        <time>2021-07-11T06:47:06Z</time>
      </trkpt>
      <trkpt lat="42.888921" lon="-8.493870">
        <ele>383.708</ele>
        <time>2021-07-11T06:47:15Z</time>
      </trkpt>
      <trkpt lat="42.888859" lon="-8.493755">
        <ele>382.221</ele>
        <time>2021-07-11T06:47:22Z</time>
      </trkpt>
      <trkpt lat="42.888769" lon="-8.493675">
        <ele>381.363</ele>
        <time>2021-07-11T06:47:30Z</time>
      </trkpt>
      <trkpt lat="42.888769" lon="-8.493680">
        <ele>380.810</ele>
        <time>2021-07-11T06:47:40Z</time>
      </trkpt>
      <trkpt lat="42.888764" lon="-8.493675">
        <ele>380.850</ele>
        <time>2021-07-11T06:47:50Z</time>
      </trkpt>
      <trkpt lat="42.888760" lon="-8.493654">
        <ele>379.314</ele>
        <time>2021-07-11T06:48:01Z</time>
      </trkpt>
      <trkpt lat="42.888774" lon="-8.493655">
        <ele>378.942</ele>
        <time>2021-07-11T06:48:25Z</time>
      </trkpt>
      <trkpt lat="42.888771" lon="-8.493642">
        <ele>380.359</ele>
        <time>2021-07-11T06:48:45Z</time>
      </trkpt>
      <trkpt lat="42.888771" lon="-8.493657">
        <ele>381.737</ele>
        <time>2021-07-11T06:49:01Z</time>
      </trkpt>
      <trkpt lat="42.888779" lon="-8.493659">
        <ele>381.315</ele>
        <time>2021-07-11T06:49:24Z</time>
      </trkpt>
      <trkpt lat="42.888763" lon="-8.493671">
        <ele>380.365</ele>
        <time>2021-07-11T06:49:42Z</time>
      </trkpt>
      <trkpt lat="42.888764" lon="-8.493665">
        <ele>379.811</ele>
        <time>2021-07-11T06:49:57Z</time>
      </trkpt>
      <trkpt lat="42.888757" lon="-8.493693">
        <ele>379.308</ele>
        <time>2021-07-11T06:50:17Z</time>
      </trkpt>
      <trkpt lat="42.888790" lon="-8.493783">
        <ele>379.378</ele>
        <time>2021-07-11T06:50:25Z</time>
      </trkpt>
      <trkpt lat="42.888797" lon="-8.493791">
        <ele>379.820</ele>
        <time>2021-07-11T06:50:30Z</time>
      </trkpt>
      <trkpt lat="42.888885" lon="-8.493868">
        <ele>381.347</ele>
        <time>2021-07-11T06:50:39Z</time>
      </trkpt>
      <trkpt lat="42.888980" lon="-8.493969">
        <ele>381.767</ele>
        <time>2021-07-11T06:50:46Z</time>
      </trkpt>
      <trkpt lat="42.889063" lon="-8.494127">
        <ele>381.771</ele>
        <time>2021-07-11T06:50:54Z</time>
      </trkpt>
      <trkpt lat="42.889156" lon="-8.494259">
        <ele>381.349</ele>
        <time>2021-07-11T06:51:01Z</time>
      </trkpt>
      <trkpt lat="42.889295" lon="-8.494265">
        <ele>381.736</ele>
        <time>2021-07-11T06:51:08Z</time>
      </trkpt>
      <trkpt lat="42.889514" lon="-8.494179">
        <ele>380.364</ele>
        <time>2021-07-11T06:51:17Z</time>
      </trkpt>
      <trkpt lat="42.889663" lon="-8.494056">
        <ele>380.869</ele>
        <time>2021-07-11T06:51:25Z</time>
      </trkpt>
      <trkpt lat="42.889767" lon="-8.493808">
        <ele>379.804</ele>
        <time>2021-07-11T06:51:34Z</time>
      </trkpt>
      <trkpt lat="42.889855" lon="-8.493609">
        <ele>379.324</ele>
        <time>2021-07-11T06:51:41Z</time>
      </trkpt>
      <trkpt lat="42.889911" lon="-8.493417">
        <ele>379.308</ele>
        <time>2021-07-11T06:51:47Z</time>
      </trkpt>
      <trkpt lat="42.890010" lon="-8.493097">
        <ele>377.963</ele>
        <time>2021-07-11T06:51:56Z</time>
      </trkpt>
      <trkpt lat="42.890084" lon="-8.492885">
        <ele>376.915</ele>
        <time>2021-07-11T06:52:03Z</time>
      </trkpt>
      <trkpt lat="42.890213" lon="-8.492631">
        <ele>377.462</ele>
        <time>2021-07-11T06:52:12Z</time>
      </trkpt>
      <trkpt lat="42.890326" lon="-8.492344">
        <ele>377.472</ele>
        <time>2021-07-11T06:52:21Z</time>
      </trkpt>
      <trkpt lat="42.890393" lon="-8.492194">
        <ele>377.936</ele>
        <time>2021-07-11T06:52:27Z</time>
      </trkpt>
      <trkpt lat="42.890494" lon="-8.491911">
        <ele>378.954</ele>
        <time>2021-07-11T06:52:35Z</time>
      </trkpt>
      <trkpt lat="42.890690" lon="-8.491433">
        <ele>378.931</ele>
        <time>2021-07-11T06:52:47Z</time>
      </trkpt>
      <trkpt lat="42.890787" lon="-8.491107">
        <ele>378.929</ele>
        <time>2021-07-11T06:52:56Z</time>
      </trkpt>
      <trkpt lat="42.890865" lon="-8.490722">
        <ele>378.929</ele>
        <time>2021-07-11T06:53:05Z</time>
      </trkpt>
      <trkpt lat="42.890968" lon="-8.490277">
        <ele>376.900</ele>
        <time>2021-07-11T06:53:11Z</time>
      </trkpt>
      <trkpt lat="42.891079" lon="-8.489711">
        <ele>375.520</ele>
        <time>2021-07-11T06:53:18Z</time>
      </trkpt>
      <trkpt lat="42.891210" lon="-8.489333">
        <ele>374.508</ele>
        <time>2021-07-11T06:53:24Z</time>
      </trkpt>
      <trkpt lat="42.891294" lon="-8.489092">
        <ele>373.689</ele>
        <time>2021-07-11T06:53:28Z</time>
      </trkpt>
      <trkpt lat="42.891348" lon="-8.488868">
        <ele>372.161</ele>
        <time>2021-07-11T06:53:32Z</time>
      </trkpt>
      <trkpt lat="42.891400" lon="-8.488478">
        <ele>371.298</ele>
        <time>2021-07-11T06:53:40Z</time>
      </trkpt>
      <trkpt lat="42.891458" lon="-8.488004">
        <ele>371.638</ele>
        <time>2021-07-11T06:53:51Z</time>
      </trkpt>
      <trkpt lat="42.891450" lon="-8.487702">
        <ele>371.652</ele>
        <time>2021-07-11T06:54:00Z</time>
      </trkpt>
      <trkpt lat="42.891327" lon="-8.487565">
        <ele>371.270</ele>
        <time>2021-07-11T06:54:05Z</time>
      </trkpt>
      <trkpt lat="42.891091" lon="-8.487437">
        <ele>369.797</ele>
        <time>2021-07-11T06:54:13Z</time>
      </trkpt>
      <trkpt lat="42.890847" lon="-8.487367">
        <ele>370.255</ele>
        <time>2021-07-11T06:54:21Z</time>
      </trkpt>
      <trkpt lat="42.890763" lon="-8.487195">
        <ele>370.291</ele>
        <time>2021-07-11T06:54:27Z</time>
      </trkpt>
      <trkpt lat="42.890714" lon="-8.486954">
        <ele>370.781</ele>
        <time>2021-07-11T06:54:36Z</time>
      </trkpt>
      <trkpt lat="42.890655" lon="-8.486686">
        <ele>371.219</ele>
        <time>2021-07-11T06:54:48Z</time>
      </trkpt>
      <trkpt lat="42.890612" lon="-8.486478">
        <ele>374.508</ele>
        <time>2021-07-11T06:54:58Z</time>
      </trkpt>
      <trkpt lat="42.890600" lon="-8.486252">
        <ele>377.426</ele>
        <time>2021-07-11T06:55:07Z</time>
      </trkpt>
      <trkpt lat="42.890598" lon="-8.486081">
        <ele>380.858</ele>
        <time>2021-07-11T06:55:14Z</time>
      </trkpt>
      <trkpt lat="42.890708" lon="-8.485934">
        <ele>383.275</ele>
        <time>2021-07-11T06:55:22Z</time>
      </trkpt>
      <trkpt lat="42.890745" lon="-8.485842">
        <ele>384.165</ele>
        <time>2021-07-11T06:55:26Z</time>
      </trkpt>
      <trkpt lat="42.890739" lon="-8.485575">
        <ele>385.669</ele>
        <time>2021-07-11T06:55:36Z</time>
      </trkpt>
      <trkpt lat="42.890734" lon="-8.485221">
        <ele>387.067</ele>
        <time>2021-07-11T06:55:48Z</time>
      </trkpt>
      <trkpt lat="42.890727" lon="-8.484863">
        <ele>388.544</ele>
        <time>2021-07-11T06:56:00Z</time>
      </trkpt>
      <trkpt lat="42.890724" lon="-8.484600">
        <ele>388.962</ele>
        <time>2021-07-11T06:56:09Z</time>
      </trkpt>
      <trkpt lat="42.890717" lon="-8.484302">
        <ele>390.467</ele>
        <time>2021-07-11T06:56:20Z</time>
      </trkpt>
      <trkpt lat="42.890724" lon="-8.484114">
        <ele>392.381</ele>
        <time>2021-07-11T06:56:28Z</time>
      </trkpt>
      <trkpt lat="42.890716" lon="-8.483916">
        <ele>394.219</ele>
        <time>2021-07-11T06:56:36Z</time>
      </trkpt>
      <trkpt lat="42.890703" lon="-8.483632">
        <ele>394.208</ele>
        <time>2021-07-11T06:56:46Z</time>
      </trkpt>
      <trkpt lat="42.890695" lon="-8.483371">
        <ele>394.263</ele>
        <time>2021-07-11T06:56:54Z</time>
      </trkpt>
      <trkpt lat="42.890675" lon="-8.482991">
        <ele>393.355</ele>
        <time>2021-07-11T06:57:03Z</time>
      </trkpt>
      <trkpt lat="42.890662" lon="-8.482605">
        <ele>393.842</ele>
        <time>2021-07-11T06:57:12Z</time>
      </trkpt>
      <trkpt lat="42.890653" lon="-8.482261">
        <ele>394.212</ele>
        <time>2021-07-11T06:57:22Z</time>
      </trkpt>
      <trkpt lat="42.890646" lon="-8.481918">
        <ele>393.816</ele>
        <time>2021-07-11T06:57:32Z</time>
      </trkpt>
      <trkpt lat="42.890644" lon="-8.481555">
        <ele>392.834</ele>
        <time>2021-07-11T06:57:41Z</time>
      </trkpt>
      <trkpt lat="42.890627" lon="-8.481099">
        <ele>390.951</ele>
        <time>2021-07-11T06:57:48Z</time>
      </trkpt>
      <trkpt lat="42.890616" lon="-8.480376">
        <ele>387.599</ele>
        <time>2021-07-11T06:57:56Z</time>
      </trkpt>
      <trkpt lat="42.890589" lon="-8.479620">
        <ele>383.756</ele>
        <time>2021-07-11T06:58:02Z</time>
      </trkpt>
      <trkpt lat="42.890551" lon="-8.478696">
        <ele>382.259</ele>
        <time>2021-07-11T06:58:09Z</time>
      </trkpt>
      <trkpt lat="42.890545" lon="-8.478127">
        <ele>383.714</ele>
        <time>2021-07-11T06:58:15Z</time>
      </trkpt>
      <trkpt lat="42.890540" lon="-8.477800">
        <ele>386.108</ele>
        <time>2021-07-11T06:58:21Z</time>
      </trkpt>
      <trkpt lat="42.890526" lon="-8.477474">
        <ele>387.032</ele>
        <time>2021-07-11T06:58:29Z</time>
      </trkpt>
      <trkpt lat="42.890520" lon="-8.477178">
        <ele>388.594</ele>
        <time>2021-07-11T06:58:36Z</time>
      </trkpt>
      <trkpt lat="42.890511" lon="-8.476791">
        <ele>391.831</ele>
        <time>2021-07-11T06:58:46Z</time>
      </trkpt>
      <trkpt lat="42.890502" lon="-8.476436">
        <ele>394.231</ele>
        <time>2021-07-11T06:58:56Z</time>
      </trkpt>
      <trkpt lat="42.890544" lon="-8.476228">
        <ele>394.265</ele>
        <time>2021-07-11T06:59:03Z</time>
      </trkpt>
      <trkpt lat="42.890565" lon="-8.476210">
        <ele>394.213</ele>
        <time>2021-07-11T06:59:04Z</time>
      </trkpt>
      <trkpt lat="42.890590" lon="-8.476196">
        <ele>394.730</ele>
        <time>2021-07-11T06:59:05Z</time>
      </trkpt>
      <trkpt lat="42.890613" lon="-8.476189">
        <ele>394.738</ele>
        <time>2021-07-11T06:59:06Z</time>
      </trkpt>
      <trkpt lat="42.890642" lon="-8.476185">
        <ele>394.266</ele>
        <time>2021-07-11T06:59:07Z</time>
      </trkpt>
      <trkpt lat="42.890662" lon="-8.476186">
        <ele>394.229</ele>
        <time>2021-07-11T06:59:08Z</time>
      </trkpt>
      <trkpt lat="42.890692" lon="-8.476189">
        <ele>393.821</ele>
        <time>2021-07-11T06:59:09Z</time>
      </trkpt>
      <trkpt lat="42.891009" lon="-8.476273">
        <ele>390.908</ele>
        <time>2021-07-11T06:59:20Z</time>
      </trkpt>
      <trkpt lat="42.891312" lon="-8.476341">
        <ele>390.493</ele>
        <time>2021-07-11T06:59:29Z</time>
      </trkpt>
      <trkpt lat="42.891568" lon="-8.476402">
        <ele>388.555</ele>
        <time>2021-07-11T06:59:38Z</time>
      </trkpt>
      <trkpt lat="42.891769" lon="-8.476446">
        <ele>389.492</ele>
        <time>2021-07-11T06:59:46Z</time>
      </trkpt>
      <trkpt lat="42.891957" lon="-8.476493">
        <ele>388.922</ele>
        <time>2021-07-11T06:59:53Z</time>
      </trkpt>
      <trkpt lat="42.892180" lon="-8.476545">
        <ele>389.946</ele>
        <time>2021-07-11T07:00:01Z</time>
      </trkpt>
      <trkpt lat="42.892204" lon="-8.476535">
        <ele>389.954</ele>
        <time>2021-07-11T07:00:02Z</time>
      </trkpt>
      <trkpt lat="42.892222" lon="-8.476512">
        <ele>390.441</ele>
        <time>2021-07-11T07:00:03Z</time>
      </trkpt>
      <trkpt lat="42.892237" lon="-8.476474">
        <ele>390.929</ele>
        <time>2021-07-11T07:00:04Z</time>
      </trkpt>
      <trkpt lat="42.892237" lon="-8.476444">
        <ele>391.325</ele>
        <time>2021-07-11T07:00:05Z</time>
      </trkpt>
      <trkpt lat="42.892230" lon="-8.476414">
        <ele>391.326</ele>
        <time>2021-07-11T07:00:06Z</time>
      </trkpt>
      <trkpt lat="42.892217" lon="-8.476380">
        <ele>391.308</ele>
        <time>2021-07-11T07:00:07Z</time>
      </trkpt>
      <trkpt lat="42.892129" lon="-8.476165">
        <ele>392.308</ele>
        <time>2021-07-11T07:00:13Z</time>
      </trkpt>
      <trkpt lat="42.892066" lon="-8.475834">
        <ele>391.329</ele>
        <time>2021-07-11T07:00:21Z</time>
      </trkpt>
      <trkpt lat="42.892017" lon="-8.475342">
        <ele>390.991</ele>
        <time>2021-07-11T07:00:32Z</time>
      </trkpt>
      <trkpt lat="42.891959" lon="-8.474844">
        <ele>389.978</ele>
        <time>2021-07-11T07:00:44Z</time>
      </trkpt>
      <trkpt lat="42.891919" lon="-8.474511">
        <ele>389.418</ele>
        <time>2021-07-11T07:00:52Z</time>
      </trkpt>
      <trkpt lat="42.891866" lon="-8.474005">
        <ele>390.982</ele>
        <time>2021-07-11T07:01:04Z</time>
      </trkpt>
      <trkpt lat="42.891812" lon="-8.473591">
        <ele>390.930</ele>
        <time>2021-07-11T07:01:14Z</time>
      </trkpt>
      <trkpt lat="42.891757" lon="-8.473113">
        <ele>390.457</ele>
        <time>2021-07-11T07:01:25Z</time>
      </trkpt>
      <trkpt lat="42.891722" lon="-8.472726">
        <ele>390.415</ele>
        <time>2021-07-11T07:01:34Z</time>
      </trkpt>
      <trkpt lat="42.891683" lon="-8.472408">
        <ele>389.973</ele>
        <time>2021-07-11T07:01:42Z</time>
      </trkpt>
      <trkpt lat="42.891632" lon="-8.472049">
        <ele>389.985</ele>
        <time>2021-07-11T07:01:51Z</time>
      </trkpt>
      <trkpt lat="42.891561" lon="-8.471586">
        <ele>391.813</ele>
        <time>2021-07-11T07:02:02Z</time>
      </trkpt>
      <trkpt lat="42.891513" lon="-8.471206">
        <ele>394.208</ele>
        <time>2021-07-11T07:02:12Z</time>
      </trkpt>
      <trkpt lat="42.891471" lon="-8.470844">
        <ele>396.294</ele>
        <time>2021-07-11T07:02:22Z</time>
      </trkpt>
      <trkpt lat="42.891398" lon="-8.470374">
        <ele>398.186</ele>
        <time>2021-07-11T07:02:35Z</time>
      </trkpt>
      <trkpt lat="42.891352" lon="-8.470031">
        <ele>398.623</ele>
        <time>2021-07-11T07:02:43Z</time>
      </trkpt>
      <trkpt lat="42.891298" lon="-8.469623">
        <ele>398.113</ele>
        <time>2021-07-11T07:02:53Z</time>
      </trkpt>
      <trkpt lat="42.891243" lon="-8.469197">
        <ele>399.577</ele>
        <time>2021-07-11T07:03:04Z</time>
      </trkpt>
      <trkpt lat="42.891200" lon="-8.468903">
        <ele>400.015</ele>
        <time>2021-07-11T07:03:11Z</time>
      </trkpt>
      <trkpt lat="42.891157" lon="-8.468645">
        <ele>400.032</ele>
        <time>2021-07-11T07:03:18Z</time>
      </trkpt>
      <trkpt lat="42.891081" lon="-8.468257">
        <ele>399.510</ele>
        <time>2021-07-11T07:03:27Z</time>
      </trkpt>
      <trkpt lat="42.891032" lon="-8.467883">
        <ele>398.682</ele>
        <time>2021-07-11T07:03:35Z</time>
      </trkpt>
      <trkpt lat="42.890962" lon="-8.467437">
        <ele>396.643</ele>
        <time>2021-07-11T07:03:43Z</time>
      </trkpt>
      <trkpt lat="42.890913" lon="-8.466982">
        <ele>394.717</ele>
        <time>2021-07-11T07:03:50Z</time>
      </trkpt>
      <trkpt lat="42.890821" lon="-8.466354">
        <ele>392.808</ele>
        <time>2021-07-11T07:04:00Z</time>
      </trkpt>
      <trkpt lat="42.890769" lon="-8.465947">
        <ele>392.885</ele>
        <time>2021-07-11T07:04:08Z</time>
      </trkpt>
      <trkpt lat="42.890706" lon="-8.465576">
        <ele>393.327</ele>
        <time>2021-07-11T07:04:16Z</time>
      </trkpt>
      <trkpt lat="42.890635" lon="-8.465123">
        <ele>393.814</ele>
        <time>2021-07-11T07:04:26Z</time>
      </trkpt>
      <trkpt lat="42.890585" lon="-8.464704">
        <ele>393.314</ele>
        <time>2021-07-11T07:04:36Z</time>
      </trkpt>
      <trkpt lat="42.890521" lon="-8.464324">
        <ele>393.378</ele>
        <time>2021-07-11T07:04:45Z</time>
      </trkpt>
      <trkpt lat="42.890468" lon="-8.463990">
        <ele>392.896</ele>
        <time>2021-07-11T07:04:52Z</time>
      </trkpt>
      <trkpt lat="42.890415" lon="-8.463651">
        <ele>392.823</ele>
        <time>2021-07-11T07:04:59Z</time>
      </trkpt>
      <trkpt lat="42.890381" lon="-8.463316">
        <ele>394.721</ele>
        <time>2021-07-11T07:05:07Z</time>
      </trkpt>
      <trkpt lat="42.890378" lon="-8.462952">
        <ele>398.641</ele>
        <time>2021-07-11T07:05:15Z</time>
      </trkpt>
      <trkpt lat="42.890369" lon="-8.462584">
        <ele>399.081</ele>
        <time>2021-07-11T07:05:23Z</time>
      </trkpt>
      <trkpt lat="42.890366" lon="-8.462278">
        <ele>397.609</ele>
        <time>2021-07-11T07:05:30Z</time>
      </trkpt>
      <trkpt lat="42.890362" lon="-8.461958">
        <ele>394.708</ele>
        <time>2021-07-11T07:05:37Z</time>
      </trkpt>
      <trkpt lat="42.890365" lon="-8.461735">
        <ele>393.871</ele>
        <time>2021-07-11T07:05:42Z</time>
      </trkpt>
      <trkpt lat="42.890382" lon="-8.461466">
        <ele>390.963</ele>
        <time>2021-07-11T07:05:49Z</time>
      </trkpt>
      <trkpt lat="42.890416" lon="-8.461184">
        <ele>390.430</ele>
        <time>2021-07-11T07:05:55Z</time>
      </trkpt>
      <trkpt lat="42.890446" lon="-8.460997">
        <ele>391.330</ele>
        <time>2021-07-11T07:06:00Z</time>
      </trkpt>
      <trkpt lat="42.890494" lon="-8.460719">
        <ele>392.814</ele>
        <time>2021-07-11T07:06:06Z</time>
      </trkpt>
      <trkpt lat="42.890527" lon="-8.460358">
        <ele>394.282</ele>
        <time>2021-07-11T07:06:14Z</time>
      </trkpt>
      <trkpt lat="42.890547" lon="-8.460057">
        <ele>394.759</ele>
        <time>2021-07-11T07:06:21Z</time>
      </trkpt>
      <trkpt lat="42.890542" lon="-8.459744">
        <ele>395.237</ele>
        <time>2021-07-11T07:06:27Z</time>
      </trkpt>
      <trkpt lat="42.890470" lon="-8.459328">
        <ele>395.718</ele>
        <time>2021-07-11T07:06:36Z</time>
      </trkpt>
      <trkpt lat="42.890386" lon="-8.458864">
        <ele>395.298</ele>
        <time>2021-07-11T07:06:45Z</time>
      </trkpt>
      <trkpt lat="42.890375" lon="-8.458728">
        <ele>394.717</ele>
        <time>2021-07-11T07:06:47Z</time>
      </trkpt>
      <trkpt lat="42.890357" lon="-8.458412">
        <ele>394.208</ele>
        <time>2021-07-11T07:06:51Z</time>
      </trkpt>
      <trkpt lat="42.890343" lon="-8.458339">
        <ele>394.278</ele>
        <time>2021-07-11T07:06:52Z</time>
      </trkpt>
      <trkpt lat="42.890320" lon="-8.458251">
        <ele>393.820</ele>
        <time>2021-07-11T07:06:53Z</time>
      </trkpt>
      <trkpt lat="42.890294" lon="-8.458173">
        <ele>393.847</ele>
        <time>2021-07-11T07:06:54Z</time>
      </trkpt>
      <trkpt lat="42.890275" lon="-8.458117">
        <ele>393.357</ele>
        <time>2021-07-11T07:06:55Z</time>
      </trkpt>
      <trkpt lat="42.890160" lon="-8.457724">
        <ele>390.991</ele>
        <time>2021-07-11T07:07:00Z</time>
      </trkpt>
      <trkpt lat="42.890146" lon="-8.457636">
        <ele>390.469</ele>
        <time>2021-07-11T07:07:01Z</time>
      </trkpt>
      <trkpt lat="42.890105" lon="-8.457099">
        <ele>389.436</ele>
        <time>2021-07-11T07:07:07Z</time>
      </trkpt>
      <trkpt lat="42.890103" lon="-8.456834">
        <ele>388.524</ele>
        <time>2021-07-11T07:07:10Z</time>
      </trkpt>
      <trkpt lat="42.890150" lon="-8.456322">
        <ele>388.051</ele>
        <time>2021-07-11T07:07:16Z</time>
      </trkpt>
      <trkpt lat="42.890159" lon="-8.456263">
        <ele>388.001</ele>
        <time>2021-07-11T07:07:17Z</time>
      </trkpt>
      <trkpt lat="42.890172" lon="-8.456203">
        <ele>388.011</ele>
        <time>2021-07-11T07:07:18Z</time>
      </trkpt>
      <trkpt lat="42.890194" lon="-8.456125">
        <ele>387.508</ele>
        <time>2021-07-11T07:07:19Z</time>
      </trkpt>
      <trkpt lat="42.890219" lon="-8.456051">
        <ele>387.522</ele>
        <time>2021-07-11T07:07:20Z</time>
      </trkpt>
      <trkpt lat="42.890250" lon="-8.455969">
        <ele>387.064</ele>
        <time>2021-07-11T07:07:21Z</time>
      </trkpt>
      <trkpt lat="42.890481" lon="-8.455372">
        <ele>382.791</ele>
        <time>2021-07-11T07:07:29Z</time>
      </trkpt>
      <trkpt lat="42.890825" lon="-8.454772">
        <ele>380.881</ele>
        <time>2021-07-11T07:07:38Z</time>
      </trkpt>
      <trkpt lat="42.890846" lon="-8.454698">
        <ele>380.825</ele>
        <time>2021-07-11T07:07:39Z</time>
      </trkpt>
      <trkpt lat="42.890861" lon="-8.454615">
        <ele>380.813</ele>
        <time>2021-07-11T07:07:40Z</time>
      </trkpt>
      <trkpt lat="42.890892" lon="-8.454068">
        <ele>380.380</ele>
        <time>2021-07-11T07:07:47Z</time>
      </trkpt>
      <trkpt lat="42.890933" lon="-8.453325">
        <ele>376.488</ele>
        <time>2021-07-11T07:07:56Z</time>
      </trkpt>
      <trkpt lat="42.891186" lon="-8.452748">
        <ele>373.138</ele>
        <time>2021-07-11T07:08:06Z</time>
      </trkpt>
      <trkpt lat="42.891306" lon="-8.452597">
        <ele>371.670</ele>
        <time>2021-07-11T07:08:09Z</time>
      </trkpt>
      <trkpt lat="42.891328" lon="-8.452545">
        <ele>371.217</ele>
        <time>2021-07-11T07:08:10Z</time>
      </trkpt>
      <trkpt lat="42.891342" lon="-8.452491">
        <ele>370.708</ele>
        <time>2021-07-11T07:08:11Z</time>
      </trkpt>
      <trkpt lat="42.891350" lon="-8.452427">
        <ele>370.230</ele>
        <time>2021-07-11T07:08:12Z</time>
      </trkpt>
      <trkpt lat="42.891353" lon="-8.452354">
        <ele>369.212</ele>
        <time>2021-07-11T07:08:13Z</time>
      </trkpt>
      <trkpt lat="42.891355" lon="-8.452292">
        <ele>368.899</ele>
        <time>2021-07-11T07:08:14Z</time>
      </trkpt>
      <trkpt lat="42.891376" lon="-8.451793">
        <ele>362.049</ele>
        <time>2021-07-11T07:08:20Z</time>
      </trkpt>
      <trkpt lat="42.891409" lon="-8.451354">
        <ele>359.673</ele>
        <time>2021-07-11T07:08:25Z</time>
      </trkpt>
      <trkpt lat="42.891429" lon="-8.451020">
        <ele>361.111</ele>
        <time>2021-07-11T07:08:30Z</time>
      </trkpt>
      <trkpt lat="42.891412" lon="-8.450883">
        <ele>363.028</ele>
        <time>2021-07-11T07:08:35Z</time>
      </trkpt>
      <trkpt lat="42.891400" lon="-8.450642">
        <ele>364.026</ele>
        <time>2021-07-11T07:08:43Z</time>
      </trkpt>
      <trkpt lat="42.891479" lon="-8.450235">
        <ele>364.044</ele>
        <time>2021-07-11T07:08:53Z</time>
      </trkpt>
      <trkpt lat="42.891538" lon="-8.449861">
        <ele>364.405</ele>
        <time>2021-07-11T07:09:02Z</time>
      </trkpt>
      <trkpt lat="42.891578" lon="-8.449661">
        <ele>364.915</ele>
        <time>2021-07-11T07:09:08Z</time>
      </trkpt>
      <trkpt lat="42.891605" lon="-8.449652">
        <ele>364.908</ele>
        <time>2021-07-11T07:09:09Z</time>
      </trkpt>
      <trkpt lat="42.891629" lon="-8.449657">
        <ele>364.421</ele>
        <time>2021-07-11T07:09:10Z</time>
      </trkpt>
      <trkpt lat="42.891654" lon="-8.449669">
        <ele>364.473</ele>
        <time>2021-07-11T07:09:11Z</time>
      </trkpt>
      <trkpt lat="42.891679" lon="-8.449686">
        <ele>364.440</ele>
        <time>2021-07-11T07:09:12Z</time>
      </trkpt>
      <trkpt lat="42.891707" lon="-8.449705">
        <ele>364.030</ele>
        <time>2021-07-11T07:09:13Z</time>
      </trkpt>
      <trkpt lat="42.891868" lon="-8.449798">
        <ele>362.544</ele>
        <time>2021-07-11T07:09:18Z</time>
      </trkpt>
      <trkpt lat="42.892088" lon="-8.449815">
        <ele>360.112</ele>
        <time>2021-07-11T07:09:25Z</time>
      </trkpt>
      <trkpt lat="42.892202" lon="-8.449694">
        <ele>359.699</ele>
        <time>2021-07-11T07:09:30Z</time>
      </trkpt>
      <trkpt lat="42.892330" lon="-8.449492">
        <ele>360.157</ele>
        <time>2021-07-11T07:09:37Z</time>
      </trkpt>
      <trkpt lat="42.892481" lon="-8.449240">
        <ele>358.795</ele>
        <time>2021-07-11T07:09:45Z</time>
      </trkpt>
      <trkpt lat="42.892677" lon="-8.448959">
        <ele>358.249</ele>
        <time>2021-07-11T07:09:54Z</time>
      </trkpt>
      <trkpt lat="42.892870" lon="-8.448726">
        <ele>355.823</ele>
        <time>2021-07-11T07:10:01Z</time>
      </trkpt>
      <trkpt lat="42.893162" lon="-8.448390">
        <ele>355.808</ele>
        <time>2021-07-11T07:10:12Z</time>
      </trkpt>
      <trkpt lat="42.893448" lon="-8.448102">
        <ele>354.816</ele>
        <time>2021-07-11T07:10:22Z</time>
      </trkpt>
      <trkpt lat="42.893736" lon="-8.447936">
        <ele>352.998</ele>
        <time>2021-07-11T07:10:29Z</time>
      </trkpt>
      <trkpt lat="42.894009" lon="-8.447759">
        <ele>349.135</ele>
        <time>2021-07-11T07:10:34Z</time>
      </trkpt>
      <trkpt lat="42.894069" lon="-8.447686">
        <ele>347.635</ele>
        <time>2021-07-11T07:10:35Z</time>
      </trkpt>
      <trkpt lat="42.894134" lon="-8.447576">
        <ele>345.739</ele>
        <time>2021-07-11T07:10:37Z</time>
      </trkpt>
      <trkpt lat="42.894241" lon="-8.447358">
        <ele>342.327</ele>
        <time>2021-07-11T07:10:42Z</time>
      </trkpt>
      <trkpt lat="42.894371" lon="-8.447226">
        <ele>339.494</ele>
        <time>2021-07-11T07:10:47Z</time>
      </trkpt>
      <trkpt lat="42.894460" lon="-8.447165">
        <ele>337.032</ele>
        <time>2021-07-11T07:10:50Z</time>
      </trkpt>
      <trkpt lat="42.894546" lon="-8.447134">
        <ele>336.153</ele>
        <time>2021-07-11T07:10:52Z</time>
      </trkpt>
      <trkpt lat="42.894588" lon="-8.447127">
        <ele>335.604</ele>
        <time>2021-07-11T07:10:53Z</time>
      </trkpt>
      <trkpt lat="42.894700" lon="-8.447153">
        <ele>334.614</ele>
        <time>2021-07-11T07:10:55Z</time>
      </trkpt>
      <trkpt lat="42.894781" lon="-8.447224">
        <ele>334.208</ele>
        <time>2021-07-11T07:10:57Z</time>
      </trkpt>
      <trkpt lat="42.894812" lon="-8.447276">
        <ele>333.752</ele>
        <time>2021-07-11T07:10:58Z</time>
      </trkpt>
      <trkpt lat="42.894851" lon="-8.447352">
        <ele>333.254</ele>
        <time>2021-07-11T07:10:59Z</time>
      </trkpt>
      <trkpt lat="42.895005" lon="-8.447660">
        <ele>329.321</ele>
        <time>2021-07-11T07:11:04Z</time>
      </trkpt>
      <trkpt lat="42.895055" lon="-8.447717">
        <ele>328.991</ele>
        <time>2021-07-11T07:11:05Z</time>
      </trkpt>
      <trkpt lat="42.895084" lon="-8.447737">
        <ele>328.475</ele>
        <time>2021-07-11T07:11:06Z</time>
      </trkpt>
      <trkpt lat="42.895122" lon="-8.447753">
        <ele>327.933</ele>
        <time>2021-07-11T07:11:07Z</time>
      </trkpt>
      <trkpt lat="42.895167" lon="-8.447761">
        <ele>327.460</ele>
        <time>2021-07-11T07:11:08Z</time>
      </trkpt>
      <trkpt lat="42.895221" lon="-8.447765">
        <ele>326.588</ele>
        <time>2021-07-11T07:11:09Z</time>
      </trkpt>
      <trkpt lat="42.895291" lon="-8.447772">
        <ele>325.555</ele>
        <time>2021-07-11T07:11:11Z</time>
      </trkpt>
      <trkpt lat="42.895357" lon="-8.447776">
        <ele>325.007</ele>
        <time>2021-07-11T07:11:12Z</time>
      </trkpt>
      <trkpt lat="42.895505" lon="-8.447771">
        <ele>323.617</ele>
        <time>2021-07-11T07:11:15Z</time>
      </trkpt>
      <trkpt lat="42.895599" lon="-8.447749">
        <ele>323.108</ele>
        <time>2021-07-11T07:11:17Z</time>
      </trkpt>
      <trkpt lat="42.895698" lon="-8.447688">
        <ele>323.142</ele>
        <time>2021-07-11T07:11:19Z</time>
      </trkpt>
      <trkpt lat="42.895883" lon="-8.447549">
        <ele>323.664</ele>
        <time>2021-07-11T07:11:24Z</time>
      </trkpt>
      <trkpt lat="42.895926" lon="-8.447531">
        <ele>323.641</ele>
        <time>2021-07-11T07:11:25Z</time>
      </trkpt>
      <trkpt lat="42.895962" lon="-8.447523">
        <ele>323.631</ele>
        <time>2021-07-11T07:11:26Z</time>
      </trkpt>
      <trkpt lat="42.896004" lon="-8.447522">
        <ele>323.685</ele>
        <time>2021-07-11T07:11:27Z</time>
      </trkpt>
      <trkpt lat="42.896050" lon="-8.447518">
        <ele>323.623</ele>
        <time>2021-07-11T07:11:28Z</time>
      </trkpt>
      <trkpt lat="42.896076" lon="-8.447516">
        <ele>324.180</ele>
        <time>2021-07-11T07:11:29Z</time>
      </trkpt>
      <trkpt lat="42.896308" lon="-8.447546">
        <ele>325.088</ele>
        <time>2021-07-11T07:11:36Z</time>
      </trkpt>
      <trkpt lat="42.896559" lon="-8.447563">
        <ele>327.453</ele>
        <time>2021-07-11T07:11:43Z</time>
      </trkpt>
      <trkpt lat="42.896871" lon="-8.447546">
        <ele>327.904</ele>
        <time>2021-07-11T07:11:50Z</time>
      </trkpt>
      <trkpt lat="42.897043" lon="-8.447506">
        <ele>324.514</ele>
        <time>2021-07-11T07:11:53Z</time>
      </trkpt>
      <trkpt lat="42.897092" lon="-8.447471">
        <ele>323.608</ele>
        <time>2021-07-11T07:11:54Z</time>
      </trkpt>
      <trkpt lat="42.897136" lon="-8.447420">
        <ele>322.622</ele>
        <time>2021-07-11T07:11:55Z</time>
      </trkpt>
      <trkpt lat="42.897174" lon="-8.447330">
        <ele>321.284</ele>
        <time>2021-07-11T07:11:56Z</time>
      </trkpt>
      <trkpt lat="42.897186" lon="-8.447284">
        <ele>320.741</ele>
        <time>2021-07-11T07:11:57Z</time>
      </trkpt>
      <trkpt lat="42.897202" lon="-8.447218">
        <ele>320.271</ele>
        <time>2021-07-11T07:11:58Z</time>
      </trkpt>
      <trkpt lat="42.897294" lon="-8.446827">
        <ele>316.435</ele>
        <time>2021-07-11T07:12:04Z</time>
      </trkpt>
      <trkpt lat="42.897476" lon="-8.446325">
        <ele>313.583</ele>
        <time>2021-07-11T07:12:11Z</time>
      </trkpt>
      <trkpt lat="42.897619" lon="-8.445936">
        <ele>309.630</ele>
        <time>2021-07-11T07:12:17Z</time>
      </trkpt>
      <trkpt lat="42.897797" lon="-8.445532">
        <ele>305.838</ele>
        <time>2021-07-11T07:12:24Z</time>
      </trkpt>
      <trkpt lat="42.897818" lon="-8.445467">
        <ele>304.872</ele>
        <time>2021-07-11T07:12:28Z</time>
      </trkpt>
      <trkpt lat="42.897814" lon="-8.445470">
        <ele>304.313</ele>
        <time>2021-07-11T07:12:47Z</time>
      </trkpt>
      <trkpt lat="42.897812" lon="-8.445474">
        <ele>303.914</ele>
        <time>2021-07-11T07:13:00Z</time>
      </trkpt>
      <trkpt lat="42.897818" lon="-8.445469">
        <ele>304.308</ele>
        <time>2021-07-11T07:13:03Z</time>
      </trkpt>
      <trkpt lat="42.897920" lon="-8.445356">
        <ele>303.484</ele>
        <time>2021-07-11T07:13:08Z</time>
      </trkpt>
      <trkpt lat="42.897952" lon="-8.445317">
        <ele>302.956</ele>
        <time>2021-07-11T07:13:09Z</time>
      </trkpt>
      <trkpt lat="42.898122" lon="-8.445057">
        <ele>301.053</ele>
        <time>2021-07-11T07:13:15Z</time>
      </trkpt>
      <trkpt lat="42.898156" lon="-8.444932">
        <ele>300.033</ele>
        <time>2021-07-11T07:13:17Z</time>
      </trkpt>
      <trkpt lat="42.898175" lon="-8.444829">
        <ele>299.547</ele>
        <time>2021-07-11T07:13:18Z</time>
      </trkpt>
      <trkpt lat="42.898180" lon="-8.444769">
        <ele>299.525</ele>
        <time>2021-07-11T07:13:19Z</time>
      </trkpt>
      <trkpt lat="42.898179" lon="-8.444721">
        <ele>299.172</ele>
        <time>2021-07-11T07:13:20Z</time>
      </trkpt>
      <trkpt lat="42.898170" lon="-8.444663">
        <ele>299.170</ele>
        <time>2021-07-11T07:13:22Z</time>
      </trkpt>
      <trkpt lat="42.898071" lon="-8.444440">
        <ele>298.672</ele>
        <time>2021-07-11T07:13:28Z</time>
      </trkpt>
      <trkpt lat="42.898003" lon="-8.444188">
        <ele>299.513</ele>
        <time>2021-07-11T07:13:35Z</time>
      </trkpt>
      <trkpt lat="42.898037" lon="-8.444128">
        <ele>299.514</ele>
        <time>2021-07-11T07:13:37Z</time>
      </trkpt>
      <trkpt lat="42.898260" lon="-8.444120">
        <ele>299.508</ele>
        <time>2021-07-11T07:13:43Z</time>
      </trkpt>
      <trkpt lat="42.898340" lon="-8.444163">
        <ele>299.554</ele>
        <time>2021-07-11T07:13:46Z</time>
      </trkpt>
      <trkpt lat="42.898366" lon="-8.444183">
        <ele>299.566</ele>
        <time>2021-07-11T07:13:47Z</time>
      </trkpt>
      <trkpt lat="42.898392" lon="-8.444208">
        <ele>300.043</ele>
        <time>2021-07-11T07:13:48Z</time>
      </trkpt>
      <trkpt lat="42.898562" lon="-8.444489">
        <ele>300.093</ele>
        <time>2021-07-11T07:13:58Z</time>
      </trkpt>
      <trkpt lat="42.898688" lon="-8.444570">
        <ele>301.047</ele>
        <time>2021-07-11T07:14:04Z</time>
      </trkpt>
      <trkpt lat="42.898893" lon="-8.444642">
        <ele>303.495</ele>
        <time>2021-07-11T07:14:13Z</time>
      </trkpt>
      <trkpt lat="42.899029" lon="-8.444639">
        <ele>303.912</ele>
        <time>2021-07-11T07:14:20Z</time>
      </trkpt>
      <trkpt lat="42.899180" lon="-8.444753">
        <ele>305.880</ele>
        <time>2021-07-11T07:14:28Z</time>
      </trkpt>
      <trkpt lat="42.899253" lon="-8.444942">
        <ele>306.363</ele>
        <time>2021-07-11T07:14:33Z</time>
      </trkpt>
      <trkpt lat="42.899342" lon="-8.445159">
        <ele>306.344</ele>
        <time>2021-07-11T07:14:39Z</time>
      </trkpt>
      <trkpt lat="42.899393" lon="-8.445433">
        <ele>305.818</ele>
        <time>2021-07-11T07:14:47Z</time>
      </trkpt>
      <trkpt lat="42.899399" lon="-8.445749">
        <ele>307.708</ele>
        <time>2021-07-11T07:14:55Z</time>
      </trkpt>
      <trkpt lat="42.899445" lon="-8.446079">
        <ele>308.753</ele>
        <time>2021-07-11T07:15:01Z</time>
      </trkpt>
      <trkpt lat="42.899501" lon="-8.446377">
        <ele>307.745</ele>
        <time>2021-07-11T07:15:07Z</time>
      </trkpt>
      <trkpt lat="42.899548" lon="-8.446466">
        <ele>304.872</ele>
        <time>2021-07-11T07:15:10Z</time>
      </trkpt>
      <trkpt lat="42.899559" lon="-8.446475">
        <ele>304.852</ele>
        <time>2021-07-11T07:15:11Z</time>
      </trkpt>
      <trkpt lat="42.899577" lon="-8.446483">
        <ele>304.866</ele>
        <time>2021-07-11T07:15:12Z</time>
      </trkpt>
      <trkpt lat="42.899597" lon="-8.446487">
        <ele>304.364</ele>
        <time>2021-07-11T07:15:13Z</time>
      </trkpt>
      <trkpt lat="42.899621" lon="-8.446490">
        <ele>304.391</ele>
        <time>2021-07-11T07:15:14Z</time>
      </trkpt>
      <trkpt lat="42.899640" lon="-8.446496">
        <ele>303.919</ele>
        <time>2021-07-11T07:15:15Z</time>
      </trkpt>
      <trkpt lat="42.899793" lon="-8.446570">
        <ele>303.981</ele>
        <time>2021-07-11T07:15:23Z</time>
      </trkpt>
      <trkpt lat="42.899807" lon="-8.446584">
        <ele>304.361</ele>
        <time>2021-07-11T07:15:24Z</time>
      </trkpt>
      <trkpt lat="42.899815" lon="-8.446602">
        <ele>304.317</ele>
        <time>2021-07-11T07:15:25Z</time>
      </trkpt>
      <trkpt lat="42.899819" lon="-8.446761">
        <ele>304.808</ele>
        <time>2021-07-11T07:15:31Z</time>
      </trkpt>
      <trkpt lat="42.899833" lon="-8.446785">
        <ele>304.315</ele>
        <time>2021-07-11T07:15:32Z</time>
      </trkpt>
      <trkpt lat="42.899852" lon="-8.446804">
        <ele>304.397</ele>
        <time>2021-07-11T07:15:33Z</time>
      </trkpt>
      <trkpt lat="42.899876" lon="-8.446815">
        <ele>304.364</ele>
        <time>2021-07-11T07:15:34Z</time>
      </trkpt>
      <trkpt lat="42.899897" lon="-8.446822">
        <ele>304.344</ele>
        <time>2021-07-11T07:15:35Z</time>
      </trkpt>
      <trkpt lat="42.900158" lon="-8.446826">
        <ele>303.458</ele>
        <time>2021-07-11T07:15:46Z</time>
      </trkpt>
      <trkpt lat="42.900284" lon="-8.446731">
        <ele>302.466</ele>
        <time>2021-07-11T07:15:53Z</time>
      </trkpt>
      <trkpt lat="42.900371" lon="-8.446533">
        <ele>304.333</ele>
        <time>2021-07-11T07:16:00Z</time>
      </trkpt>
      <trkpt lat="42.900440" lon="-8.446298">
        <ele>308.731</ele>
        <time>2021-07-11T07:16:08Z</time>
      </trkpt>
      <trkpt lat="42.900510" lon="-8.446047">
        <ele>308.756</ele>
        <time>2021-07-11T07:16:16Z</time>
      </trkpt>
      <trkpt lat="42.900594" lon="-8.445679">
        <ele>308.259</ele>
        <time>2021-07-11T07:16:25Z</time>
      </trkpt>
      <trkpt lat="42.900650" lon="-8.445343">
        <ele>306.814</ele>
        <time>2021-07-11T07:16:34Z</time>
      </trkpt>
      <trkpt lat="42.900722" lon="-8.445019">
        <ele>306.808</ele>
        <time>2021-07-11T07:16:42Z</time>
      </trkpt>
      <trkpt lat="42.900765" lon="-8.444536">
        <ele>308.252</ele>
        <time>2021-07-11T07:16:54Z</time>
      </trkpt>
      <trkpt lat="42.900848" lon="-8.444249">
        <ele>306.344</ele>
        <time>2021-07-11T07:17:03Z</time>
      </trkpt>
      <trkpt lat="42.900930" lon="-8.443925">
        <ele>306.881</ele>
        <time>2021-07-11T07:17:12Z</time>
      </trkpt>
      <trkpt lat="42.901061" lon="-8.443507">
        <ele>307.211</ele>
        <time>2021-07-11T07:17:21Z</time>
      </trkpt>
      <trkpt lat="42.901103" lon="-8.443385">
        <ele>307.765</ele>
        <time>2021-07-11T07:17:23Z</time>
      </trkpt>
      <trkpt lat="42.901292" lon="-8.442990">
        <ele>308.743</ele>
        <time>2021-07-11T07:17:32Z</time>
      </trkpt>
      <trkpt lat="42.901438" lon="-8.442713">
        <ele>309.230</ele>
        <time>2021-07-11T07:17:39Z</time>
      </trkpt>
      <trkpt lat="42.901525" lon="-8.442413">
        <ele>311.118</ele>
        <time>2021-07-11T07:17:47Z</time>
      </trkpt>
      <trkpt lat="42.901550" lon="-8.442238">
        <ele>311.629</ele>
        <time>2021-07-11T07:17:53Z</time>
      </trkpt>
      <trkpt lat="42.901589" lon="-8.441982">
        <ele>313.500</ele>
        <time>2021-07-11T07:18:02Z</time>
      </trkpt>
      <trkpt lat="42.901619" lon="-8.441737">
        <ele>314.920</ele>
        <time>2021-07-11T07:18:11Z</time>
      </trkpt>
      <trkpt lat="42.901644" lon="-8.441519">
        <ele>316.408</ele>
        <time>2021-07-11T07:18:20Z</time>
      </trkpt>
      <trkpt lat="42.901673" lon="-8.441311">
        <ele>317.819</ele>
        <time>2021-07-11T07:18:28Z</time>
      </trkpt>
      <trkpt lat="42.901704" lon="-8.441065">
        <ele>320.221</ele>
        <time>2021-07-11T07:18:37Z</time>
      </trkpt>
      <trkpt lat="42.901740" lon="-8.440764">
        <ele>321.288</ele>
        <time>2021-07-11T07:18:47Z</time>
      </trkpt>
      <trkpt lat="42.901766" lon="-8.440447">
        <ele>321.288</ele>
        <time>2021-07-11T07:18:55Z</time>
      </trkpt>
      <trkpt lat="42.901808" lon="-8.440127">
        <ele>321.272</ele>
        <time>2021-07-11T07:19:03Z</time>
      </trkpt>
      <trkpt lat="42.901884" lon="-8.439690">
        <ele>320.730</ele>
        <time>2021-07-11T07:19:14Z</time>
      </trkpt>
      <trkpt lat="42.901917" lon="-8.439298">
        <ele>320.727</ele>
        <time>2021-07-11T07:19:23Z</time>
      </trkpt>
      <trkpt lat="42.901935" lon="-8.438916">
        <ele>321.215</ele>
        <time>2021-07-11T07:19:32Z</time>
      </trkpt>
      <trkpt lat="42.901962" lon="-8.438548">
        <ele>321.222</ele>
        <time>2021-07-11T07:19:41Z</time>
      </trkpt>
      <trkpt lat="42.902051" lon="-8.438297">
        <ele>322.162</ele>
        <time>2021-07-11T07:19:48Z</time>
      </trkpt>
      <trkpt lat="42.902218" lon="-8.437967">
        <ele>323.108</ele>
        <time>2021-07-11T07:19:58Z</time>
      </trkpt>
      <trkpt lat="42.902393" lon="-8.437673">
        <ele>322.108</ele>
        <time>2021-07-11T07:20:08Z</time>
      </trkpt>
      <trkpt lat="42.902545" lon="-8.437481">
        <ele>323.179</ele>
        <time>2021-07-11T07:20:15Z</time>
      </trkpt>
      <trkpt lat="42.902655" lon="-8.437320">
        <ele>324.121</ele>
        <time>2021-07-11T07:20:22Z</time>
      </trkpt>
      <trkpt lat="42.902774" lon="-8.437132">
        <ele>325.048</ele>
        <time>2021-07-11T07:20:31Z</time>
      </trkpt>
      <trkpt lat="42.902909" lon="-8.436919">
        <ele>325.078</ele>
        <time>2021-07-11T07:20:40Z</time>
      </trkpt>
      <trkpt lat="42.903033" lon="-8.436746">
        <ele>327.422</ele>
        <time>2021-07-11T07:20:46Z</time>
      </trkpt>
      <trkpt lat="42.903154" lon="-8.436569">
        <ele>328.950</ele>
        <time>2021-07-11T07:20:53Z</time>
      </trkpt>
      <trkpt lat="42.903323" lon="-8.436314">
        <ele>329.837</ele>
        <time>2021-07-11T07:21:03Z</time>
      </trkpt>
      <trkpt lat="42.903476" lon="-8.436093">
        <ele>331.375</ele>
        <time>2021-07-11T07:21:11Z</time>
      </trkpt>
      <trkpt lat="42.903667" lon="-8.435822">
        <ele>333.226</ele>
        <time>2021-07-11T07:21:21Z</time>
      </trkpt>
      <trkpt lat="42.903750" lon="-8.435684">
        <ele>333.747</ele>
        <time>2021-07-11T07:21:27Z</time>
      </trkpt>
      <trkpt lat="42.903841" lon="-8.435550">
        <ele>335.111</ele>
        <time>2021-07-11T07:21:34Z</time>
      </trkpt>
      <trkpt lat="42.903899" lon="-8.435471">
        <ele>335.108</ele>
        <time>2021-07-11T07:21:39Z</time>
      </trkpt>
      <trkpt lat="42.904020" lon="-8.435309">
        <ele>336.689</ele>
        <time>2021-07-11T07:21:46Z</time>
      </trkpt>
      <trkpt lat="42.904154" lon="-8.435121">
        <ele>338.551</ele>
        <time>2021-07-11T07:21:54Z</time>
      </trkpt>
      <trkpt lat="42.904156" lon="-8.435094">
        <ele>338.558</ele>
        <time>2021-07-11T07:21:55Z</time>
      </trkpt>
      <trkpt lat="42.904148" lon="-8.434827">
        <ele>339.418</ele>
        <time>2021-07-11T07:22:04Z</time>
      </trkpt>
      <trkpt lat="42.904150" lon="-8.434618">
        <ele>340.422</ele>
        <time>2021-07-11T07:22:11Z</time>
      </trkpt>
      <trkpt lat="42.904224" lon="-8.434372">
        <ele>339.460</ele>
        <time>2021-07-11T07:22:19Z</time>
      </trkpt>
      <trkpt lat="42.904256" lon="-8.434144">
        <ele>339.067</ele>
        <time>2021-07-11T07:22:26Z</time>
      </trkpt>
      <trkpt lat="42.904294" lon="-8.433949">
        <ele>338.545</ele>
        <time>2021-07-11T07:22:32Z</time>
      </trkpt>
      <trkpt lat="42.904351" lon="-8.433707">
        <ele>339.449</ele>
        <time>2021-07-11T07:22:40Z</time>
      </trkpt>
      <trkpt lat="42.904408" lon="-8.433552">
        <ele>341.402</ele>
        <time>2021-07-11T07:22:48Z</time>
      </trkpt>
      <trkpt lat="42.904440" lon="-8.433407">
        <ele>341.822</ele>
        <time>2021-07-11T07:22:55Z</time>
      </trkpt>
      <trkpt lat="42.904475" lon="-8.433277">
        <ele>341.808</ele>
        <time>2021-07-11T07:23:02Z</time>
      </trkpt>
      <trkpt lat="42.904463" lon="-8.433248">
        <ele>343.861</ele>
        <time>2021-07-11T07:23:16Z</time>
      </trkpt>
      <trkpt lat="42.904472" lon="-8.433240">
        <ele>339.013</ele>
        <time>2021-07-11T07:23:43Z</time>
      </trkpt>
      <trkpt lat="42.904454" lon="-8.433246">
        <ele>338.070</ele>
        <time>2021-07-11T07:24:00Z</time>
      </trkpt>
      <trkpt lat="42.904485" lon="-8.433206">
        <ele>339.450</ele>
        <time>2021-07-11T07:24:07Z</time>
      </trkpt>
      <trkpt lat="42.904530" lon="-8.433121">
        <ele>339.494</ele>
        <time>2021-07-11T07:24:13Z</time>
      </trkpt>
      <trkpt lat="42.904623" lon="-8.432974">
        <ele>339.922</ele>
        <time>2021-07-11T07:24:21Z</time>
      </trkpt>
      <trkpt lat="42.904702" lon="-8.432861">
        <ele>339.919</ele>
        <time>2021-07-11T07:24:28Z</time>
      </trkpt>
      <trkpt lat="42.904825" lon="-8.432695">
        <ele>340.487</ele>
        <time>2021-07-11T07:24:36Z</time>
      </trkpt>
      <trkpt lat="42.904944" lon="-8.432528">
        <ele>340.499</ele>
        <time>2021-07-11T07:24:44Z</time>
      </trkpt>
      <trkpt lat="42.905012" lon="-8.432414">
        <ele>340.407</ele>
        <time>2021-07-11T07:24:50Z</time>
      </trkpt>
      <trkpt lat="42.905084" lon="-8.432266">
        <ele>340.427</ele>
        <time>2021-07-11T07:24:57Z</time>
      </trkpt>
      <trkpt lat="42.905203" lon="-8.432037">
        <ele>341.408</ele>
        <time>2021-07-11T07:25:06Z</time>
      </trkpt>
      <trkpt lat="42.905271" lon="-8.431891">
        <ele>343.896</ele>
        <time>2021-07-11T07:25:13Z</time>
      </trkpt>
      <trkpt lat="42.905315" lon="-8.431741">
        <ele>344.778</ele>
        <time>2021-07-11T07:25:21Z</time>
      </trkpt>
      <trkpt lat="42.905317" lon="-8.431723">
        <ele>345.295</ele>
        <time>2021-07-11T07:25:22Z</time>
      </trkpt>
      <trkpt lat="42.905322" lon="-8.431704">
        <ele>345.235</ele>
        <time>2021-07-11T07:25:23Z</time>
      </trkpt>
      <trkpt lat="42.905372" lon="-8.431515">
        <ele>344.719</ele>
        <time>2021-07-11T07:25:30Z</time>
      </trkpt>
      <trkpt lat="42.905381" lon="-8.431270">
        <ele>345.277</ele>
        <time>2021-07-11T07:25:40Z</time>
      </trkpt>
      <trkpt lat="42.905399" lon="-8.431094">
        <ele>345.284</ele>
        <time>2021-07-11T07:25:47Z</time>
      </trkpt>
      <trkpt lat="42.905480" lon="-8.430833">
        <ele>345.762</ele>
        <time>2021-07-11T07:25:55Z</time>
      </trkpt>
      <trkpt lat="42.905576" lon="-8.430590">
        <ele>346.682</ele>
        <time>2021-07-11T07:26:02Z</time>
      </trkpt>
      <trkpt lat="42.906209" lon="-8.429864">
        <ele>345.243</ele>
        <time>2021-07-11T07:26:27Z</time>
      </trkpt>
      <trkpt lat="42.906343" lon="-8.429742">
        <ele>345.217</ele>
        <time>2021-07-11T07:26:33Z</time>
      </trkpt>
      <trkpt lat="42.906334" lon="-8.429715">
        <ele>345.708</ele>
        <time>2021-07-11T07:26:35Z</time>
      </trkpt>
      <trkpt lat="42.906334" lon="-8.429705">
        <ele>346.265</ele>
        <time>2021-07-11T07:26:36Z</time>
      </trkpt>
      <trkpt lat="42.906345" lon="-8.429701">
        <ele>346.237</ele>
        <time>2021-07-11T07:26:37Z</time>
      </trkpt>
      <trkpt lat="42.906354" lon="-8.429693">
        <ele>345.724</ele>
        <time>2021-07-11T07:26:38Z</time>
      </trkpt>
      <trkpt lat="42.906360" lon="-8.429685">
        <ele>345.744</ele>
        <time>2021-07-11T07:26:39Z</time>
      </trkpt>
      <trkpt lat="42.906368" lon="-8.429675">
        <ele>345.278</ele>
        <time>2021-07-11T07:26:40Z</time>
      </trkpt>
      <trkpt lat="42.906373" lon="-8.429663">
        <ele>345.296</ele>
        <time>2021-07-11T07:26:41Z</time>
      </trkpt>
      <trkpt lat="42.906377" lon="-8.429646">
        <ele>345.253</ele>
        <time>2021-07-11T07:26:42Z</time>
      </trkpt>
      <trkpt lat="42.906383" lon="-8.429629">
        <ele>345.251</ele>
        <time>2021-07-11T07:26:43Z</time>
      </trkpt>
      <trkpt lat="42.906390" lon="-8.429613">
        <ele>344.782</ele>
        <time>2021-07-11T07:26:44Z</time>
      </trkpt>
      <trkpt lat="42.906396" lon="-8.429595">
        <ele>344.743</ele>
        <time>2021-07-11T07:26:45Z</time>
      </trkpt>
      <trkpt lat="42.906404" lon="-8.429578">
        <ele>345.217</ele>
        <time>2021-07-11T07:26:46Z</time>
      </trkpt>
      <trkpt lat="42.906413" lon="-8.429562">
        <ele>345.208</ele>
        <time>2021-07-11T07:26:47Z</time>
      </trkpt>
      <trkpt lat="42.906421" lon="-8.429545">
        <ele>345.285</ele>
        <time>2021-07-11T07:26:48Z</time>
      </trkpt>
      <trkpt lat="42.906428" lon="-8.429526">
        <ele>345.277</ele>
        <time>2021-07-11T07:26:49Z</time>
      </trkpt>
      <trkpt lat="42.906436" lon="-8.429509">
        <ele>345.224</ele>
        <time>2021-07-11T07:26:50Z</time>
      </trkpt>
      <trkpt lat="42.906447" lon="-8.429495">
        <ele>345.264</ele>
        <time>2021-07-11T07:26:51Z</time>
      </trkpt>
      <trkpt lat="42.906463" lon="-8.429474">
        <ele>345.788</ele>
        <time>2021-07-11T07:26:52Z</time>
      </trkpt>
      <trkpt lat="42.906473" lon="-8.429458">
        <ele>345.716</ele>
        <time>2021-07-11T07:26:53Z</time>
      </trkpt>
      <trkpt lat="42.906548" lon="-8.429298">
        <ele>347.183</ele>
        <time>2021-07-11T07:27:01Z</time>
      </trkpt>
      <trkpt lat="42.906631" lon="-8.429115">
        <ele>350.581</ele>
        <time>2021-07-11T07:27:10Z</time>
      </trkpt>
      <trkpt lat="42.906709" lon="-8.428907">
        <ele>354.396</ele>
        <time>2021-07-11T07:27:20Z</time>
      </trkpt>
      <trkpt lat="42.906784" lon="-8.428727">
        <ele>356.731</ele>
        <time>2021-07-11T07:27:29Z</time>
      </trkpt>
      <trkpt lat="42.906879" lon="-8.428486">
        <ele>358.724</ele>
        <time>2021-07-11T07:27:40Z</time>
      </trkpt>
      <trkpt lat="42.906966" lon="-8.428280">
        <ele>361.108</ele>
        <time>2021-07-11T07:27:50Z</time>
      </trkpt>
      <trkpt lat="42.907018" lon="-8.428130">
        <ele>362.066</ele>
        <time>2021-07-11T07:27:58Z</time>
      </trkpt>
      <trkpt lat="42.907092" lon="-8.427978">
        <ele>364.488</ele>
        <time>2021-07-11T07:28:08Z</time>
      </trkpt>
      <trkpt lat="42.907158" lon="-8.427904">
        <ele>365.965</ele>
        <time>2021-07-11T07:28:13Z</time>
      </trkpt>
      <trkpt lat="42.907171" lon="-8.427893">
        <ele>365.935</ele>
        <time>2021-07-11T07:28:14Z</time>
      </trkpt>
      <trkpt lat="42.907182" lon="-8.427882">
        <ele>366.419</ele>
        <time>2021-07-11T07:28:15Z</time>
      </trkpt>
      <trkpt lat="42.907311" lon="-8.427772">
        <ele>367.347</ele>
        <time>2021-07-11T07:28:22Z</time>
      </trkpt>
      <trkpt lat="42.907428" lon="-8.427599">
        <ele>367.334</ele>
        <time>2021-07-11T07:28:28Z</time>
      </trkpt>
      <trkpt lat="42.907548" lon="-8.427510">
        <ele>367.382</ele>
        <time>2021-07-11T07:28:33Z</time>
      </trkpt>
      <trkpt lat="42.907707" lon="-8.427416">
        <ele>364.448</ele>
        <time>2021-07-11T07:28:39Z</time>
      </trkpt>
      <trkpt lat="42.907883" lon="-8.427291">
        <ele>364.461</ele>
        <time>2021-07-11T07:28:45Z</time>
      </trkpt>
      <trkpt lat="42.908060" lon="-8.427107">
        <ele>363.017</ele>
        <time>2021-07-11T07:28:52Z</time>
      </trkpt>
      <trkpt lat="42.908173" lon="-8.426942">
        <ele>361.108</ele>
        <time>2021-07-11T07:28:56Z</time>
      </trkpt>
      <trkpt lat="42.908383" lon="-8.426554">
        <ele>351.911</ele>
        <time>2021-07-11T07:29:03Z</time>
      </trkpt>
      <trkpt lat="42.908494" lon="-8.426282">
        <ele>346.243</ele>
        <time>2021-07-11T07:29:09Z</time>
      </trkpt>
      <trkpt lat="42.908677" lon="-8.426201">
        <ele>341.810</ele>
        <time>2021-07-11T07:29:17Z</time>
      </trkpt>
      <trkpt lat="42.908792" lon="-8.426178">
        <ele>341.460</ele>
        <time>2021-07-11T07:29:24Z</time>
      </trkpt>
      <trkpt lat="42.908880" lon="-8.426050">
        <ele>340.964</ele>
        <time>2021-07-11T07:29:29Z</time>
      </trkpt>
      <trkpt lat="42.908973" lon="-8.425792">
        <ele>340.412</ele>
        <time>2021-07-11T07:29:37Z</time>
      </trkpt>
      <trkpt lat="42.909002" lon="-8.425508">
        <ele>341.499</ele>
        <time>2021-07-11T07:29:46Z</time>
      </trkpt>
      <trkpt lat="42.908936" lon="-8.425277">
        <ele>341.827</ele>
        <time>2021-07-11T07:29:54Z</time>
      </trkpt>
      <trkpt lat="42.908866" lon="-8.425020">
        <ele>341.437</ele>
        <time>2021-07-11T07:30:03Z</time>
      </trkpt>
      <trkpt lat="42.908825" lon="-8.424783">
        <ele>340.949</ele>
        <time>2021-07-11T07:30:11Z</time>
      </trkpt>
      <trkpt lat="42.908795" lon="-8.424625">
        <ele>341.813</ele>
        <time>2021-07-11T07:30:17Z</time>
      </trkpt>
      <trkpt lat="42.908763" lon="-8.424284">
        <ele>346.208</ele>
        <time>2021-07-11T07:30:27Z</time>
      </trkpt>
      <trkpt lat="42.908739" lon="-8.424000">
        <ele>347.630</ele>
        <time>2021-07-11T07:30:36Z</time>
      </trkpt>
      <trkpt lat="42.908708" lon="-8.423735">
        <ele>347.182</ele>
        <time>2021-07-11T07:30:45Z</time>
      </trkpt>
      <trkpt lat="42.908706" lon="-8.423606">
        <ele>348.129</ele>
        <time>2021-07-11T07:30:50Z</time>
      </trkpt>
      <trkpt lat="42.908675" lon="-8.423510">
        <ele>348.659</ele>
        <time>2021-07-11T07:30:58Z</time>
      </trkpt>
      <trkpt lat="42.908674" lon="-8.423515">
        <ele>349.123</ele>
        <time>2021-07-11T07:31:06Z</time>
      </trkpt>
      <trkpt lat="42.908669" lon="-8.423500">
        <ele>348.171</ele>
        <time>2021-07-11T07:31:17Z</time>
      </trkpt>
      <trkpt lat="42.908670" lon="-8.423499">
        <ele>344.248</ele>
        <time>2021-07-11T07:31:37Z</time>
      </trkpt>
      <trkpt lat="42.908676" lon="-8.423488">
        <ele>343.876</ele>
        <time>2021-07-11T07:31:54Z</time>
      </trkpt>
      <trkpt lat="42.908665" lon="-8.423498">
        <ele>343.327</ele>
        <time>2021-07-11T07:32:15Z</time>
      </trkpt>
      <trkpt lat="42.908681" lon="-8.423509">
        <ele>341.868</ele>
        <time>2021-07-11T07:32:33Z</time>
      </trkpt>
      <trkpt lat="42.908681" lon="-8.423500">
        <ele>344.214</ele>
        <time>2021-07-11T07:32:53Z</time>
      </trkpt>
      <trkpt lat="42.908686" lon="-8.423481">
        <ele>344.208</ele>
        <time>2021-07-11T07:33:03Z</time>
      </trkpt>
      <trkpt lat="42.908673" lon="-8.423479">
        <ele>344.259</ele>
        <time>2021-07-11T07:33:09Z</time>
      </trkpt>
      <trkpt lat="42.908677" lon="-8.423477">
        <ele>344.261</ele>
        <time>2021-07-11T07:33:11Z</time>
      </trkpt>
      <trkpt lat="42.908763" lon="-8.423423">
        <ele>344.718</ele>
        <time>2021-07-11T07:33:18Z</time>
      </trkpt>
      <trkpt lat="42.908897" lon="-8.423452">
        <ele>344.788</ele>
        <time>2021-07-11T07:33:25Z</time>
      </trkpt>
      <trkpt lat="42.909046" lon="-8.423499">
        <ele>344.762</ele>
        <time>2021-07-11T07:33:33Z</time>
      </trkpt>
      <trkpt lat="42.909207" lon="-8.423558">
        <ele>344.240</ele>
        <time>2021-07-11T07:33:40Z</time>
      </trkpt>
      <trkpt lat="42.909506" lon="-8.423676">
        <ele>345.217</ele>
        <time>2021-07-11T07:33:50Z</time>
      </trkpt>
      <trkpt lat="42.909727" lon="-8.423764">
        <ele>345.795</ele>
        <time>2021-07-11T07:33:57Z</time>
      </trkpt>
      <trkpt lat="42.909994" lon="-8.423863">
        <ele>346.278</ele>
        <time>2021-07-11T07:34:05Z</time>
      </trkpt>
      <trkpt lat="42.910401" lon="-8.424020">
        <ele>346.233</ele>
        <time>2021-07-11T07:34:17Z</time>
      </trkpt>
      <trkpt lat="42.910661" lon="-8.424111">
        <ele>346.226</ele>
        <time>2021-07-11T07:34:26Z</time>
      </trkpt>
      <trkpt lat="42.910919" lon="-8.424197">
        <ele>346.208</ele>
        <time>2021-07-11T07:34:34Z</time>
      </trkpt>
      <trkpt lat="42.911060" lon="-8.424236">
        <ele>345.784</ele>
        <time>2021-07-11T07:34:41Z</time>
      </trkpt>
      <trkpt lat="42.911053" lon="-8.424246">
        <ele>345.746</ele>
        <time>2021-07-11T07:34:51Z</time>
      </trkpt>
      <trkpt lat="42.911113" lon="-8.424256">
        <ele>346.653</ele>
        <time>2021-07-11T07:35:00Z</time>
      </trkpt>
      <trkpt lat="42.911352" lon="-8.424277">
        <ele>345.713</ele>
        <time>2021-07-11T07:35:08Z</time>
      </trkpt>
      <trkpt lat="42.911412" lon="-8.424274">
        <ele>345.757</ele>
        <time>2021-07-11T07:35:09Z</time>
      </trkpt>
      <trkpt lat="42.911688" lon="-8.424255">
        <ele>345.265</ele>
        <time>2021-07-11T07:35:16Z</time>
      </trkpt>
      <trkpt lat="42.911807" lon="-8.424231">
        <ele>344.782</ele>
        <time>2021-07-11T07:35:19Z</time>
      </trkpt>
      <trkpt lat="42.912160" lon="-8.424106">
        <ele>342.820</ele>
        <time>2021-07-11T07:35:27Z</time>
      </trkpt>
      <trkpt lat="42.912556" lon="-8.423854">
        <ele>341.454</ele>
        <time>2021-07-11T07:35:36Z</time>
      </trkpt>
      <trkpt lat="42.912866" lon="-8.423558">
        <ele>340.456</ele>
        <time>2021-07-11T07:35:44Z</time>
      </trkpt>
      <trkpt lat="42.913102" lon="-8.423232">
        <ele>341.411</ele>
        <time>2021-07-11T07:35:52Z</time>
      </trkpt>
      <trkpt lat="42.913355" lon="-8.422800">
        <ele>342.308</ele>
        <time>2021-07-11T07:36:03Z</time>
      </trkpt>
      <trkpt lat="42.913578" lon="-8.421815">
        <ele>339.472</ele>
        <time>2021-07-11T07:36:23Z</time>
      </trkpt>
      <trkpt lat="42.913510" lon="-8.421265">
        <ele>338.024</ele>
        <time>2021-07-11T07:36:32Z</time>
      </trkpt>
      <trkpt lat="42.913512" lon="-8.421238">
        <ele>338.011</ele>
        <time>2021-07-11T07:36:33Z</time>
      </trkpt>
      <trkpt lat="42.913512" lon="-8.421213">
        <ele>338.561</ele>
        <time>2021-07-11T07:36:34Z</time>
      </trkpt>
      <trkpt lat="42.913510" lon="-8.421197">
        <ele>338.525</ele>
        <time>2021-07-11T07:36:35Z</time>
      </trkpt>
      <trkpt lat="42.913509" lon="-8.421171">
        <ele>338.573</ele>
        <time>2021-07-11T07:36:36Z</time>
      </trkpt>
      <trkpt lat="42.913511" lon="-8.421147">
        <ele>338.510</ele>
        <time>2021-07-11T07:36:37Z</time>
      </trkpt>
      <trkpt lat="42.913511" lon="-8.421118">
        <ele>339.058</ele>
        <time>2021-07-11T07:36:38Z</time>
      </trkpt>
      <trkpt lat="42.913512" lon="-8.421094">
        <ele>339.012</ele>
        <time>2021-07-11T07:36:39Z</time>
      </trkpt>
      <trkpt lat="42.913538" lon="-8.420868">
        <ele>339.932</ele>
        <time>2021-07-11T07:36:47Z</time>
      </trkpt>
      <trkpt lat="42.913616" lon="-8.420584">
        <ele>343.305</ele>
        <time>2021-07-11T07:36:57Z</time>
      </trkpt>
      <trkpt lat="42.913735" lon="-8.420298">
        <ele>345.708</ele>
        <time>2021-07-11T07:37:08Z</time>
      </trkpt>
      <trkpt lat="42.913751" lon="-8.420048">
        <ele>346.228</ele>
        <time>2021-07-11T07:37:16Z</time>
      </trkpt>
      <trkpt lat="42.913763" lon="-8.419704">
        <ele>346.680</ele>
        <time>2021-07-11T07:37:27Z</time>
      </trkpt>
      <trkpt lat="42.913765" lon="-8.419354">
        <ele>347.167</ele>
        <time>2021-07-11T07:37:38Z</time>
      </trkpt>
      <trkpt lat="42.913755" lon="-8.419073">
        <ele>348.677</ele>
        <time>2021-07-11T07:37:47Z</time>
      </trkpt>
      <trkpt lat="42.913751" lon="-8.418721">
        <ele>350.061</ele>
        <time>2021-07-11T07:37:58Z</time>
      </trkpt>
      <trkpt lat="42.913735" lon="-8.418503">
        <ele>350.599</ele>
        <time>2021-07-11T07:38:05Z</time>
      </trkpt>
      <trkpt lat="42.913730" lon="-8.418247">
        <ele>350.566</ele>
        <time>2021-07-11T07:38:13Z</time>
      </trkpt>
      <trkpt lat="42.913726" lon="-8.417931">
        <ele>351.034</ele>
        <time>2021-07-11T07:38:23Z</time>
      </trkpt>
      <trkpt lat="42.913737" lon="-8.417585">
        <ele>351.994</ele>
        <time>2021-07-11T07:38:34Z</time>
      </trkpt>
      <trkpt lat="42.913744" lon="-8.417247">
        <ele>353.457</ele>
        <time>2021-07-11T07:38:45Z</time>
      </trkpt>
      <trkpt lat="42.913747" lon="-8.416914">
        <ele>355.322</ele>
        <time>2021-07-11T07:38:56Z</time>
      </trkpt>
      <trkpt lat="42.913747" lon="-8.416545">
        <ele>357.708</ele>
        <time>2021-07-11T07:39:08Z</time>
      </trkpt>
      <trkpt lat="42.913747" lon="-8.416244">
        <ele>359.626</ele>
        <time>2021-07-11T07:39:18Z</time>
      </trkpt>
      <trkpt lat="42.913736" lon="-8.415965">
        <ele>360.688</ele>
        <time>2021-07-11T07:39:27Z</time>
      </trkpt>
      <trkpt lat="42.913727" lon="-8.415720">
        <ele>361.145</ele>
        <time>2021-07-11T07:39:35Z</time>
      </trkpt>
      <trkpt lat="42.913734" lon="-8.415376">
        <ele>363.085</ele>
        <time>2021-07-11T07:39:46Z</time>
      </trkpt>
      <trkpt lat="42.913738" lon="-8.415029">
        <ele>364.999</ele>
        <time>2021-07-11T07:39:57Z</time>
      </trkpt>
      <trkpt lat="42.913726" lon="-8.414689">
        <ele>365.437</ele>
        <time>2021-07-11T07:40:07Z</time>
      </trkpt>
      <trkpt lat="42.913724" lon="-8.414448">
        <ele>365.494</ele>
        <time>2021-07-11T07:40:15Z</time>
      </trkpt>
      <trkpt lat="42.913712" lon="-8.414176">
        <ele>365.982</ele>
        <time>2021-07-11T07:40:24Z</time>
      </trkpt>
      <trkpt lat="42.913601" lon="-8.414074">
        <ele>367.846</ele>
        <time>2021-07-11T07:40:30Z</time>
      </trkpt>
      <trkpt lat="42.913434" lon="-8.414061">
        <ele>369.288</ele>
        <time>2021-07-11T07:40:37Z</time>
      </trkpt>
      <trkpt lat="42.913180" lon="-8.414077">
        <ele>369.716</ele>
        <time>2021-07-11T07:40:45Z</time>
      </trkpt>
      <trkpt lat="42.912928" lon="-8.414122">
        <ele>369.708</ele>
        <time>2021-07-11T07:40:52Z</time>
      </trkpt>
      <trkpt lat="42.912621" lon="-8.414139">
        <ele>370.221</ele>
        <time>2021-07-11T07:41:01Z</time>
      </trkpt>
      <trkpt lat="42.912330" lon="-8.414147">
        <ele>370.753</ele>
        <time>2021-07-11T07:41:09Z</time>
      </trkpt>
      <trkpt lat="42.912061" lon="-8.414193">
        <ele>371.610</ele>
        <time>2021-07-11T07:41:17Z</time>
      </trkpt>
      <trkpt lat="42.911821" lon="-8.414227">
        <ele>373.180</ele>
        <time>2021-07-11T07:41:24Z</time>
      </trkpt>
      <trkpt lat="42.911473" lon="-8.414287">
        <ele>375.054</ele>
        <time>2021-07-11T07:41:35Z</time>
      </trkpt>
      <trkpt lat="42.911260" lon="-8.414338">
        <ele>374.022</ele>
        <time>2021-07-11T07:41:42Z</time>
      </trkpt>
      <trkpt lat="42.911045" lon="-8.414417">
        <ele>373.659</ele>
        <time>2021-07-11T07:41:49Z</time>
      </trkpt>
      <trkpt lat="42.910794" lon="-8.414445">
        <ele>371.677</ele>
        <time>2021-07-11T07:41:58Z</time>
      </trkpt>
      <trkpt lat="42.910531" lon="-8.414479">
        <ele>372.679</ele>
        <time>2021-07-11T07:42:07Z</time>
      </trkpt>
      <trkpt lat="42.910241" lon="-8.414503">
        <ele>373.105</ele>
        <time>2021-07-11T07:42:17Z</time>
      </trkpt>
      <trkpt lat="42.909951" lon="-8.414515">
        <ele>372.625</ele>
        <time>2021-07-11T07:42:27Z</time>
      </trkpt>
      <trkpt lat="42.909717" lon="-8.414557">
        <ele>370.208</ele>
        <time>2021-07-11T07:42:35Z</time>
      </trkpt>
      <trkpt lat="42.909499" lon="-8.414630">
        <ele>370.224</ele>
        <time>2021-07-11T07:42:43Z</time>
      </trkpt>
      <trkpt lat="42.909258" lon="-8.414692">
        <ele>369.286</ele>
        <time>2021-07-11T07:42:50Z</time>
      </trkpt>
      <trkpt lat="42.908958" lon="-8.414758">
        <ele>368.863</ele>
        <time>2021-07-11T07:42:58Z</time>
      </trkpt>
      <trkpt lat="42.908723" lon="-8.414762">
        <ele>368.853</ele>
        <time>2021-07-11T07:43:06Z</time>
      </trkpt>
      <trkpt lat="42.908579" lon="-8.414761">
        <ele>369.777</ele>
        <time>2021-07-11T07:43:12Z</time>
      </trkpt>
      <trkpt lat="42.908404" lon="-8.414719">
        <ele>370.715</ele>
        <time>2021-07-11T07:43:19Z</time>
      </trkpt>
      <trkpt lat="42.908309" lon="-8.414521">
        <ele>371.672</ele>
        <time>2021-07-11T07:43:27Z</time>
      </trkpt>
      <trkpt lat="42.908241" lon="-8.414313">
        <ele>371.640</ele>
        <time>2021-07-11T07:43:34Z</time>
      </trkpt>
      <trkpt lat="42.908189" lon="-8.414112">
        <ele>371.254</ele>
        <time>2021-07-11T07:43:41Z</time>
      </trkpt>
      <trkpt lat="42.908101" lon="-8.413819">
        <ele>369.756</ele>
        <time>2021-07-11T07:43:49Z</time>
      </trkpt>
      <trkpt lat="42.908020" lon="-8.413565">
        <ele>368.811</ele>
        <time>2021-07-11T07:43:55Z</time>
      </trkpt>
      <trkpt lat="42.907951" lon="-8.413299">
        <ele>367.808</ele>
        <time>2021-07-11T07:44:02Z</time>
      </trkpt>
      <trkpt lat="42.907889" lon="-8.413051">
        <ele>369.772</ele>
        <time>2021-07-11T07:44:08Z</time>
      </trkpt>
      <trkpt lat="42.907855" lon="-8.412909">
        <ele>370.214</ele>
        <time>2021-07-11T07:44:12Z</time>
      </trkpt>
      <trkpt lat="42.907771" lon="-8.412627">
        <ele>369.221</ele>
        <time>2021-07-11T07:44:19Z</time>
      </trkpt>
      <trkpt lat="42.907728" lon="-8.412342">
        <ele>368.341</ele>
        <time>2021-07-11T07:44:26Z</time>
      </trkpt>
      <trkpt lat="42.907687" lon="-8.412135">
        <ele>368.895</ele>
        <time>2021-07-11T07:44:34Z</time>
      </trkpt>
      <trkpt lat="42.907676" lon="-8.412089">
        <ele>369.273</ele>
        <time>2021-07-11T07:44:36Z</time>
      </trkpt>
      <trkpt lat="42.907640" lon="-8.412030">
        <ele>368.850</ele>
        <time>2021-07-11T07:44:43Z</time>
      </trkpt>
      <trkpt lat="42.907592" lon="-8.411901">
        <ele>367.348</ele>
        <time>2021-07-11T07:44:50Z</time>
      </trkpt>
      <trkpt lat="42.907525" lon="-8.411649">
        <ele>364.966</ele>
        <time>2021-07-11T07:44:58Z</time>
      </trkpt>
      <trkpt lat="42.907491" lon="-8.411430">
        <ele>363.529</ele>
        <time>2021-07-11T07:45:05Z</time>
      </trkpt>
      <trkpt lat="42.907422" lon="-8.411244">
        <ele>362.021</ele>
        <time>2021-07-11T07:45:11Z</time>
      </trkpt>
      <trkpt lat="42.907330" lon="-8.411085">
        <ele>361.508</ele>
        <time>2021-07-11T07:45:16Z</time>
      </trkpt>
      <trkpt lat="42.907199" lon="-8.410934">
        <ele>362.073</ele>
        <time>2021-07-11T07:45:23Z</time>
      </trkpt>
      <trkpt lat="42.907020" lon="-8.410801">
        <ele>362.575</ele>
        <time>2021-07-11T07:45:30Z</time>
      </trkpt>
      <trkpt lat="42.906835" lon="-8.410694">
        <ele>361.112</ele>
        <time>2021-07-11T07:45:38Z</time>
      </trkpt>
      <trkpt lat="42.906802" lon="-8.410687">
        <ele>360.672</ele>
        <time>2021-07-11T07:45:39Z</time>
      </trkpt>
      <trkpt lat="42.906776" lon="-8.410680">
        <ele>360.696</ele>
        <time>2021-07-11T07:45:40Z</time>
      </trkpt>
      <trkpt lat="42.906751" lon="-8.410665">
        <ele>360.164</ele>
        <time>2021-07-11T07:45:41Z</time>
      </trkpt>
      <trkpt lat="42.906723" lon="-8.410646">
        <ele>359.611</ele>
        <time>2021-07-11T07:45:42Z</time>
      </trkpt>
      <trkpt lat="42.906663" lon="-8.410604">
        <ele>358.739</ele>
        <time>2021-07-11T07:45:45Z</time>
      </trkpt>
      <trkpt lat="42.906638" lon="-8.410585">
        <ele>358.298</ele>
        <time>2021-07-11T07:45:46Z</time>
      </trkpt>
      <trkpt lat="42.906622" lon="-8.410570">
        <ele>358.215</ele>
        <time>2021-07-11T07:45:47Z</time>
      </trkpt>
      <trkpt lat="42.906604" lon="-8.410555">
        <ele>358.226</ele>
        <time>2021-07-11T07:45:48Z</time>
      </trkpt>
      <trkpt lat="42.906458" lon="-8.410403">
        <ele>356.708</ele>
        <time>2021-07-11T07:45:58Z</time>
      </trkpt>
      <trkpt lat="42.906423" lon="-8.410346">
        <ele>356.326</ele>
        <time>2021-07-11T07:46:00Z</time>
      </trkpt>
      <trkpt lat="42.906299" lon="-8.410184">
        <ele>353.918</ele>
        <time>2021-07-11T07:46:08Z</time>
      </trkpt>
      <trkpt lat="42.906255" lon="-8.410045">
        <ele>352.935</ele>
        <time>2021-07-11T07:46:12Z</time>
      </trkpt>
      <trkpt lat="42.906206" lon="-8.409781">
        <ele>352.445</ele>
        <time>2021-07-11T07:46:19Z</time>
      </trkpt>
      <trkpt lat="42.906111" lon="-8.409564">
        <ele>350.019</ele>
        <time>2021-07-11T07:46:26Z</time>
      </trkpt>
      <trkpt lat="42.906042" lon="-8.409435">
        <ele>348.137</ele>
        <time>2021-07-11T07:46:31Z</time>
      </trkpt>
      <trkpt lat="42.906036" lon="-8.409410">
        <ele>348.194</ele>
        <time>2021-07-11T07:46:32Z</time>
      </trkpt>
      <trkpt lat="42.905988" lon="-8.409172">
        <ele>347.172</ele>
        <time>2021-07-11T07:46:38Z</time>
      </trkpt>
      <trkpt lat="42.905850" lon="-8.408885">
        <ele>345.717</ele>
        <time>2021-07-11T07:46:44Z</time>
      </trkpt>
      <trkpt lat="42.905760" lon="-8.408636">
        <ele>344.287</ele>
        <time>2021-07-11T07:46:50Z</time>
      </trkpt>
      <trkpt lat="42.905761" lon="-8.408605">
        <ele>344.215</ele>
        <time>2021-07-11T07:46:51Z</time>
      </trkpt>
      <trkpt lat="42.905787" lon="-8.408383">
        <ele>341.808</ele>
        <time>2021-07-11T07:46:57Z</time>
      </trkpt>
      <trkpt lat="42.905829" lon="-8.408184">
        <ele>340.488</ele>
        <time>2021-07-11T07:47:03Z</time>
      </trkpt>
      <trkpt lat="42.905840" lon="-8.408027">
        <ele>338.560</ele>
        <time>2021-07-11T07:47:08Z</time>
      </trkpt>
      <trkpt lat="42.905846" lon="-8.407977">
        <ele>336.187</ele>
        <time>2021-07-11T07:47:13Z</time>
      </trkpt>
      <trkpt lat="42.905856" lon="-8.407878">
        <ele>334.687</ele>
        <time>2021-07-11T07:47:28Z</time>
      </trkpt>
      <trkpt lat="42.905861" lon="-8.407843">
        <ele>334.651</ele>
        <time>2021-07-11T07:47:29Z</time>
      </trkpt>
      <trkpt lat="42.905877" lon="-8.407637">
        <ele>333.289</ele>
        <time>2021-07-11T07:47:34Z</time>
      </trkpt>
      <trkpt lat="42.905882" lon="-8.407609">
        <ele>332.766</ele>
        <time>2021-07-11T07:47:35Z</time>
      </trkpt>
      <trkpt lat="42.905884" lon="-8.407566">
        <ele>332.294</ele>
        <time>2021-07-11T07:47:36Z</time>
      </trkpt>
      <trkpt lat="42.905882" lon="-8.407520">
        <ele>332.249</ele>
        <time>2021-07-11T07:47:37Z</time>
      </trkpt>
      <trkpt lat="42.905878" lon="-8.407470">
        <ele>331.302</ele>
        <time>2021-07-11T07:47:38Z</time>
      </trkpt>
      <trkpt lat="42.905862" lon="-8.407233">
        <ele>328.922</ele>
        <time>2021-07-11T07:47:44Z</time>
      </trkpt>
      <trkpt lat="42.905866" lon="-8.407003">
        <ele>326.908</ele>
        <time>2021-07-11T07:47:50Z</time>
      </trkpt>
      <trkpt lat="42.905875" lon="-8.406966">
        <ele>327.481</ele>
        <time>2021-07-11T07:47:51Z</time>
      </trkpt>
      <trkpt lat="42.905879" lon="-8.406923">
        <ele>327.483</ele>
        <time>2021-07-11T07:47:52Z</time>
      </trkpt>
      <trkpt lat="42.905887" lon="-8.406871">
        <ele>327.950</ele>
        <time>2021-07-11T07:47:53Z</time>
      </trkpt>
      <trkpt lat="42.905890" lon="-8.406825">
        <ele>327.920</ele>
        <time>2021-07-11T07:47:54Z</time>
      </trkpt>
      <trkpt lat="42.905888" lon="-8.406777">
        <ele>327.914</ele>
        <time>2021-07-11T07:47:55Z</time>
      </trkpt>
      <trkpt lat="42.905887" lon="-8.406734">
        <ele>327.412</ele>
        <time>2021-07-11T07:47:56Z</time>
      </trkpt>
      <trkpt lat="42.905892" lon="-8.406454">
        <ele>325.539</ele>
        <time>2021-07-11T07:48:02Z</time>
      </trkpt>
      <trkpt lat="42.905883" lon="-8.406207">
        <ele>323.117</ele>
        <time>2021-07-11T07:48:06Z</time>
      </trkpt>
      <trkpt lat="42.905881" lon="-8.406149">
        <ele>322.617</ele>
        <time>2021-07-11T07:48:07Z</time>
      </trkpt>
      <trkpt lat="42.905884" lon="-8.406082">
        <ele>322.187</ele>
        <time>2021-07-11T07:48:08Z</time>
      </trkpt>
      <trkpt lat="42.905905" lon="-8.405605">
        <ele>319.715</ele>
        <time>2021-07-11T07:48:14Z</time>
      </trkpt>
      <trkpt lat="42.905904" lon="-8.405109">
        <ele>316.808</ele>
        <time>2021-07-11T07:48:20Z</time>
      </trkpt>
      <trkpt lat="42.905908" lon="-8.404883">
        <ele>315.918</ele>
        <time>2021-07-11T07:48:23Z</time>
      </trkpt>
      <trkpt lat="42.905902" lon="-8.404479">
        <ele>314.430</ele>
        <time>2021-07-11T07:48:30Z</time>
      </trkpt>
      <trkpt lat="42.905799" lon="-8.404168">
        <ele>311.197</ele>
        <time>2021-07-11T07:48:37Z</time>
      </trkpt>
      <trkpt lat="42.905769" lon="-8.403943">
        <ele>309.257</ele>
        <time>2021-07-11T07:48:43Z</time>
      </trkpt>
      <trkpt lat="42.905779" lon="-8.403678">
        <ele>307.221</ele>
        <time>2021-07-11T07:48:50Z</time>
      </trkpt>
      <trkpt lat="42.905801" lon="-8.403466">
        <ele>305.879</ele>
        <time>2021-07-11T07:48:55Z</time>
      </trkpt>
      <trkpt lat="42.905816" lon="-8.403269">
        <ele>304.886</ele>
        <time>2021-07-11T07:49:00Z</time>
      </trkpt>
      <trkpt lat="42.905879" lon="-8.402980">
        <ele>302.414</ele>
        <time>2021-07-11T07:49:06Z</time>
      </trkpt>
      <trkpt lat="42.905901" lon="-8.402924">
        <ele>301.533</ele>
        <time>2021-07-11T07:49:07Z</time>
      </trkpt>
      <trkpt lat="42.906038" lon="-8.402695">
        <ele>299.123</ele>
        <time>2021-07-11T07:49:13Z</time>
      </trkpt>
      <trkpt lat="42.906132" lon="-8.402472">
        <ele>298.615</ele>
        <time>2021-07-11T07:49:19Z</time>
      </trkpt>
      <trkpt lat="42.906150" lon="-8.402305">
        <ele>299.508</ele>
        <time>2021-07-11T07:49:27Z</time>
      </trkpt>
      <trkpt lat="42.906181" lon="-8.402250">
        <ele>304.840</ele>
        <time>2021-07-11T07:49:47Z</time>
      </trkpt>
      <trkpt lat="42.906123" lon="-8.402019">
        <ele>303.482</ele>
        <time>2021-07-11T07:49:54Z</time>
      </trkpt>
      <trkpt lat="42.906091" lon="-8.401779">
        <ele>300.579</ele>
        <time>2021-07-11T07:49:59Z</time>
      </trkpt>
      <trkpt lat="42.906077" lon="-8.401610">
        <ele>297.619</ele>
        <time>2021-07-11T07:50:03Z</time>
      </trkpt>
      <trkpt lat="42.906047" lon="-8.401559">
        <ele>298.113</ele>
        <time>2021-07-11T07:50:18Z</time>
      </trkpt>
      <trkpt lat="42.906045" lon="-8.401492">
        <ele>301.981</ele>
        <time>2021-07-11T07:50:28Z</time>
      </trkpt>
      <trkpt lat="42.906062" lon="-8.401349">
        <ele>304.828</ele>
        <time>2021-07-11T07:50:35Z</time>
      </trkpt>
      <trkpt lat="42.906117" lon="-8.401074">
        <ele>307.796</ele>
        <time>2021-07-11T07:50:44Z</time>
      </trkpt>
      <trkpt lat="42.906175" lon="-8.400868">
        <ele>307.265</ele>
        <time>2021-07-11T07:50:50Z</time>
      </trkpt>
      <trkpt lat="42.906217" lon="-8.400666">
        <ele>305.368</ele>
        <time>2021-07-11T07:50:56Z</time>
      </trkpt>
      <trkpt lat="42.906251" lon="-8.400451">
        <ele>303.914</ele>
        <time>2021-07-11T07:51:02Z</time>
      </trkpt>
      <trkpt lat="42.906300" lon="-8.400219">
        <ele>301.508</ele>
        <time>2021-07-11T07:51:09Z</time>
      </trkpt>
      <trkpt lat="42.906354" lon="-8.399998">
        <ele>297.613</ele>
        <time>2021-07-11T07:51:17Z</time>
      </trkpt>
      <trkpt lat="42.906361" lon="-8.399935">
        <ele>298.195</ele>
        <time>2021-07-11T07:51:24Z</time>
      </trkpt>
      <trkpt lat="42.906358" lon="-8.399886">
        <ele>299.592</ele>
        <time>2021-07-11T07:51:35Z</time>
      </trkpt>
      <trkpt lat="42.906374" lon="-8.399812">
        <ele>299.122</ele>
        <time>2021-07-11T07:51:40Z</time>
      </trkpt>
      <trkpt lat="42.906381" lon="-8.399787">
        <ele>298.616</ele>
        <time>2021-07-11T07:51:41Z</time>
      </trkpt>
      <trkpt lat="42.906384" lon="-8.399758">
        <ele>298.654</ele>
        <time>2021-07-11T07:51:42Z</time>
      </trkpt>
      <trkpt lat="42.906388" lon="-8.399731">
        <ele>298.631</ele>
        <time>2021-07-11T07:51:43Z</time>
      </trkpt>
      <trkpt lat="42.906391" lon="-8.399704">
        <ele>298.679</ele>
        <time>2021-07-11T07:51:44Z</time>
      </trkpt>
      <trkpt lat="42.906392" lon="-8.399677">
        <ele>298.183</ele>
        <time>2021-07-11T07:51:45Z</time>
      </trkpt>
      <trkpt lat="42.906392" lon="-8.399647">
        <ele>298.125</ele>
        <time>2021-07-11T07:51:46Z</time>
      </trkpt>
      <trkpt lat="42.906390" lon="-8.399614">
        <ele>297.617</ele>
        <time>2021-07-11T07:51:47Z</time>
      </trkpt>
      <trkpt lat="42.906387" lon="-8.399582">
        <ele>297.608</ele>
        <time>2021-07-11T07:51:48Z</time>
      </trkpt>
      <trkpt lat="42.906381" lon="-8.399546">
        <ele>297.155</ele>
        <time>2021-07-11T07:51:49Z</time>
      </trkpt>
      <trkpt lat="42.906373" lon="-8.399509">
        <ele>296.777</ele>
        <time>2021-07-11T07:51:50Z</time>
      </trkpt>
      <trkpt lat="42.906363" lon="-8.399478">
        <ele>296.774</ele>
        <time>2021-07-11T07:51:51Z</time>
      </trkpt>
      <trkpt lat="42.906353" lon="-8.399451">
        <ele>296.274</ele>
        <time>2021-07-11T07:51:52Z</time>
      </trkpt>
      <trkpt lat="42.906279" lon="-8.399233">
        <ele>293.848</ele>
        <time>2021-07-11T07:51:59Z</time>
      </trkpt>
      <trkpt lat="42.906206" lon="-8.398992">
        <ele>290.426</ele>
        <time>2021-07-11T07:52:06Z</time>
      </trkpt>
      <trkpt lat="42.906094" lon="-8.398710">
        <ele>287.573</ele>
        <time>2021-07-11T07:52:13Z</time>
      </trkpt>
      <trkpt lat="42.905986" lon="-8.398462">
        <ele>286.191</ele>
        <time>2021-07-11T07:52:20Z</time>
      </trkpt>
      <trkpt lat="42.905888" lon="-8.398253">
        <ele>283.751</ele>
        <time>2021-07-11T07:52:27Z</time>
      </trkpt>
      <trkpt lat="42.905815" lon="-8.398117">
        <ele>282.701</ele>
        <time>2021-07-11T07:52:33Z</time>
      </trkpt>
      <trkpt lat="42.905817" lon="-8.398122">
        <ele>283.211</ele>
        <time>2021-07-11T07:52:41Z</time>
      </trkpt>
      <trkpt lat="42.905813" lon="-8.398100">
        <ele>282.208</ele>
        <time>2021-07-11T07:52:45Z</time>
      </trkpt>
      <trkpt lat="42.905779" lon="-8.398002">
        <ele>279.812</ele>
        <time>2021-07-11T07:52:50Z</time>
      </trkpt>
      <trkpt lat="42.905744" lon="-8.397935">
        <ele>277.984</ele>
        <time>2021-07-11T07:52:59Z</time>
      </trkpt>
      <trkpt lat="42.905715" lon="-8.397866">
        <ele>277.421</ele>
        <time>2021-07-11T07:53:02Z</time>
      </trkpt>
      <trkpt lat="42.905730" lon="-8.397860">
        <ele>277.051</ele>
        <time>2021-07-11T07:53:07Z</time>
      </trkpt>
      <trkpt lat="42.905742" lon="-8.397870">
        <ele>277.955</ele>
        <time>2021-07-11T07:53:13Z</time>
      </trkpt>
      <trkpt lat="42.905743" lon="-8.397904">
        <ele>279.463</ele>
        <time>2021-07-11T07:53:19Z</time>
      </trkpt>
      <trkpt lat="42.905750" lon="-8.397922">
        <ele>279.870</ele>
        <time>2021-07-11T07:53:20Z</time>
      </trkpt>
      <trkpt lat="42.905753" lon="-8.397931">
        <ele>280.328</ele>
        <time>2021-07-11T07:53:21Z</time>
      </trkpt>
      <trkpt lat="42.905760" lon="-8.397944">
        <ele>280.864</ele>
        <time>2021-07-11T07:53:22Z</time>
      </trkpt>
      <trkpt lat="42.905771" lon="-8.397963">
        <ele>281.306</ele>
        <time>2021-07-11T07:53:24Z</time>
      </trkpt>
      <trkpt lat="42.905800" lon="-8.398047">
        <ele>282.216</ele>
        <time>2021-07-11T07:53:29Z</time>
      </trkpt>
      <trkpt lat="42.905791" lon="-8.398059">
        <ele>282.708</ele>
        <time>2021-07-11T07:53:30Z</time>
      </trkpt>
      <trkpt lat="42.905782" lon="-8.398062">
        <ele>282.753</ele>
        <time>2021-07-11T07:53:31Z</time>
      </trkpt>
      <trkpt lat="42.905774" lon="-8.398070">
        <ele>282.795</ele>
        <time>2021-07-11T07:53:37Z</time>
      </trkpt>
      <trkpt lat="42.905683" lon="-8.398036">
        <ele>282.752</ele>
        <time>2021-07-11T07:53:42Z</time>
      </trkpt>
      <trkpt lat="42.905582" lon="-8.397941">
        <ele>282.262</ele>
        <time>2021-07-11T07:53:48Z</time>
      </trkpt>
      <trkpt lat="42.905546" lon="-8.397840">
        <ele>283.216</ele>
        <time>2021-07-11T07:53:54Z</time>
      </trkpt>
      <trkpt lat="42.905544" lon="-8.397808">
        <ele>283.234</ele>
        <time>2021-07-11T07:53:55Z</time>
      </trkpt>
      <trkpt lat="42.905543" lon="-8.397776">
        <ele>283.261</ele>
        <time>2021-07-11T07:53:56Z</time>
      </trkpt>
      <trkpt lat="42.905543" lon="-8.397747">
        <ele>282.729</ele>
        <time>2021-07-11T07:53:57Z</time>
      </trkpt>
      <trkpt lat="42.905548" lon="-8.397556">
        <ele>281.347</ele>
        <time>2021-07-11T07:54:01Z</time>
      </trkpt>
      <trkpt lat="42.905564" lon="-8.397279">
        <ele>277.929</ele>
        <time>2021-07-11T07:54:07Z</time>
      </trkpt>
      <trkpt lat="42.905591" lon="-8.397008">
        <ele>274.121</ele>
        <time>2021-07-11T07:54:14Z</time>
      </trkpt>
      <trkpt lat="42.905591" lon="-8.396792">
        <ele>269.708</ele>
        <time>2021-07-11T07:54:20Z</time>
      </trkpt>
      <trkpt lat="42.905597" lon="-8.396693">
        <ele>269.321</ele>
        <time>2021-07-11T07:54:27Z</time>
      </trkpt>
      <trkpt lat="42.905650" lon="-8.396587">
        <ele>270.223</ele>
        <time>2021-07-11T07:54:39Z</time>
      </trkpt>
      <trkpt lat="42.905669" lon="-8.396389">
        <ele>269.790</ele>
        <time>2021-07-11T07:54:44Z</time>
      </trkpt>
      <trkpt lat="42.905672" lon="-8.396314">
        <ele>269.390</ele>
        <time>2021-07-11T07:54:46Z</time>
      </trkpt>
      <trkpt lat="42.905676" lon="-8.396276">
        <ele>269.374</ele>
        <time>2021-07-11T07:54:47Z</time>
      </trkpt>
      <trkpt lat="42.905694" lon="-8.396029">
        <ele>267.322</ele>
        <time>2021-07-11T07:54:53Z</time>
      </trkpt>
      <trkpt lat="42.905717" lon="-8.395744">
        <ele>264.959</ele>
        <time>2021-07-11T07:54:59Z</time>
      </trkpt>
      <trkpt lat="42.905736" lon="-8.395563">
        <ele>264.587</ele>
        <time>2021-07-11T07:55:05Z</time>
      </trkpt>
      <trkpt lat="42.905748" lon="-8.395463">
        <ele>264.018</ele>
        <time>2021-07-11T07:55:11Z</time>
      </trkpt>
      <trkpt lat="42.905751" lon="-8.395313">
        <ele>262.598</ele>
        <time>2021-07-11T07:55:19Z</time>
      </trkpt>
      <trkpt lat="42.905766" lon="-8.395147">
        <ele>261.117</ele>
        <time>2021-07-11T07:55:26Z</time>
      </trkpt>
      <trkpt lat="42.905787" lon="-8.395004">
        <ele>262.508</ele>
        <time>2021-07-11T07:55:32Z</time>
      </trkpt>
      <trkpt lat="42.905826" lon="-8.394835">
        <ele>263.588</ele>
        <time>2021-07-11T07:55:39Z</time>
      </trkpt>
      <trkpt lat="42.905882" lon="-8.394643">
        <ele>261.660</ele>
        <time>2021-07-11T07:55:46Z</time>
      </trkpt>
      <trkpt lat="42.905886" lon="-8.394613">
        <ele>261.657</ele>
        <time>2021-07-11T07:55:47Z</time>
      </trkpt>
      <trkpt lat="42.905894" lon="-8.394563">
        <ele>261.147</ele>
        <time>2021-07-11T07:55:49Z</time>
      </trkpt>
      <trkpt lat="42.905950" lon="-8.394313">
        <ele>260.691</ele>
        <time>2021-07-11T07:55:56Z</time>
      </trkpt>
      <trkpt lat="42.905954" lon="-8.394277">
        <ele>258.229</ele>
        <time>2021-07-11T07:56:02Z</time>
      </trkpt>
      <trkpt lat="42.905973" lon="-8.394257">
        <ele>256.396</ele>
        <time>2021-07-11T07:56:18Z</time>
      </trkpt>
      <trkpt lat="42.905973" lon="-8.394242">
        <ele>255.334</ele>
        <time>2021-07-11T07:56:36Z</time>
      </trkpt>
      <trkpt lat="42.905947" lon="-8.394100">
        <ele>254.484</ele>
        <time>2021-07-11T07:56:44Z</time>
      </trkpt>
      <trkpt lat="42.905933" lon="-8.394093">
        <ele>254.407</ele>
        <time>2021-07-11T07:56:51Z</time>
      </trkpt>
      <trkpt lat="42.905938" lon="-8.394020">
        <ele>254.817</ele>
        <time>2021-07-11T07:56:59Z</time>
      </trkpt>
      <trkpt lat="42.905894" lon="-8.393896">
        <ele>256.308</ele>
        <time>2021-07-11T07:57:05Z</time>
      </trkpt>
      <trkpt lat="42.905872" lon="-8.393885">
        <ele>256.365</ele>
        <time>2021-07-11T07:57:06Z</time>
      </trkpt>
      <trkpt lat="42.905860" lon="-8.393879">
        <ele>256.347</ele>
        <time>2021-07-11T07:57:07Z</time>
      </trkpt>
      <trkpt lat="42.905625" lon="-8.393829">
        <ele>255.894</ele>
        <time>2021-07-11T07:57:15Z</time>
      </trkpt>
      <trkpt lat="42.905325" lon="-8.393734">
        <ele>255.344</ele>
        <time>2021-07-11T07:57:22Z</time>
      </trkpt>
      <trkpt lat="42.904948" lon="-8.393451">
        <ele>253.928</ele>
        <time>2021-07-11T07:57:31Z</time>
      </trkpt>
      <trkpt lat="42.904681" lon="-8.393081">
        <ele>253.956</ele>
        <time>2021-07-11T07:57:39Z</time>
      </trkpt>
      <trkpt lat="42.904490" lon="-8.392790">
        <ele>253.963</ele>
        <time>2021-07-11T07:57:47Z</time>
      </trkpt>
      <trkpt lat="42.904284" lon="-8.392511">
        <ele>254.821</ele>
        <time>2021-07-11T07:57:55Z</time>
      </trkpt>
      <trkpt lat="42.904047" lon="-8.392173">
        <ele>255.379</ele>
        <time>2021-07-11T07:58:05Z</time>
      </trkpt>
      <trkpt lat="42.903855" lon="-8.391886">
        <ele>256.305</ele>
        <time>2021-07-11T07:58:14Z</time>
      </trkpt>
      <trkpt lat="42.903713" lon="-8.391684">
        <ele>257.225</ele>
        <time>2021-07-11T07:58:21Z</time>
      </trkpt>
      <trkpt lat="42.903528" lon="-8.391417">
        <ele>258.208</ele>
        <time>2021-07-11T07:58:30Z</time>
      </trkpt>
      <trkpt lat="42.903332" lon="-8.391133">
        <ele>259.624</ele>
        <time>2021-07-11T07:58:39Z</time>
      </trkpt>
      <trkpt lat="42.903136" lon="-8.390847">
        <ele>260.656</ele>
        <time>2021-07-11T07:58:48Z</time>
      </trkpt>
      <trkpt lat="42.902947" lon="-8.390563">
        <ele>262.193</ele>
        <time>2021-07-11T07:58:57Z</time>
      </trkpt>
      <trkpt lat="42.902766" lon="-8.390293">
        <ele>263.563</ele>
        <time>2021-07-11T07:59:06Z</time>
      </trkpt>
      <trkpt lat="42.902563" lon="-8.389998">
        <ele>264.987</ele>
        <time>2021-07-11T07:59:16Z</time>
      </trkpt>
      <trkpt lat="42.902397" lon="-8.389752">
        <ele>265.965</ele>
        <time>2021-07-11T07:59:24Z</time>
      </trkpt>
      <trkpt lat="42.902193" lon="-8.389420">
        <ele>267.342</ele>
        <time>2021-07-11T07:59:35Z</time>
      </trkpt>
      <trkpt lat="42.902036" lon="-8.389130">
        <ele>267.860</ele>
        <time>2021-07-11T07:59:44Z</time>
      </trkpt>
      <trkpt lat="42.901887" lon="-8.388786">
        <ele>269.356</ele>
        <time>2021-07-11T07:59:54Z</time>
      </trkpt>
      <trkpt lat="42.901744" lon="-8.388407">
        <ele>270.759</ele>
        <time>2021-07-11T08:00:05Z</time>
      </trkpt>
      <trkpt lat="42.901644" lon="-8.388095">
        <ele>271.214</ele>
        <time>2021-07-11T08:00:13Z</time>
      </trkpt>
      <trkpt lat="42.901508" lon="-8.387641">
        <ele>271.708</ele>
        <time>2021-07-11T08:00:24Z</time>
      </trkpt>
      <trkpt lat="42.901403" lon="-8.387256">
        <ele>271.722</ele>
        <time>2021-07-11T08:00:33Z</time>
      </trkpt>
      <trkpt lat="42.901297" lon="-8.386887">
        <ele>271.734</ele>
        <time>2021-07-11T08:00:41Z</time>
      </trkpt>
      <trkpt lat="42.901175" lon="-8.386463">
        <ele>271.761</ele>
        <time>2021-07-11T08:00:50Z</time>
      </trkpt>
      <trkpt lat="42.901080" lon="-8.386120">
        <ele>271.711</ele>
        <time>2021-07-11T08:00:57Z</time>
      </trkpt>
      <trkpt lat="42.900979" lon="-8.385750">
        <ele>271.215</ele>
        <time>2021-07-11T08:01:05Z</time>
      </trkpt>
      <trkpt lat="42.900874" lon="-8.385373">
        <ele>271.243</ele>
        <time>2021-07-11T08:01:13Z</time>
      </trkpt>
      <trkpt lat="42.900750" lon="-8.384931">
        <ele>271.290</ele>
        <time>2021-07-11T08:01:22Z</time>
      </trkpt>
      <trkpt lat="42.900625" lon="-8.384485">
        <ele>271.238</ele>
        <time>2021-07-11T08:01:31Z</time>
      </trkpt>
      <trkpt lat="42.900539" lon="-8.384206">
        <ele>271.267</ele>
        <time>2021-07-11T08:01:37Z</time>
      </trkpt>
      <trkpt lat="42.900412" lon="-8.383737">
        <ele>271.781</ele>
        <time>2021-07-11T08:01:47Z</time>
      </trkpt>
      <trkpt lat="42.900295" lon="-8.383307">
        <ele>273.119</ele>
        <time>2021-07-11T08:01:57Z</time>
      </trkpt>
      <trkpt lat="42.900196" lon="-8.382942">
        <ele>274.508</ele>
        <time>2021-07-11T08:02:06Z</time>
      </trkpt>
      <trkpt lat="42.900069" lon="-8.382496">
        <ele>276.023</ele>
        <time>2021-07-11T08:02:17Z</time>
      </trkpt>
      <trkpt lat="42.899996" lon="-8.382211">
        <ele>276.085</ele>
        <time>2021-07-11T08:02:24Z</time>
      </trkpt>
      <trkpt lat="42.899854" lon="-8.381676">
        <ele>277.412</ele>
        <time>2021-07-11T08:02:36Z</time>
      </trkpt>
      <trkpt lat="42.899779" lon="-8.381199">
        <ele>278.462</ele>
        <time>2021-07-11T08:02:46Z</time>
      </trkpt>
      <trkpt lat="42.899767" lon="-8.380775">
        <ele>278.956</ele>
        <time>2021-07-11T08:02:55Z</time>
      </trkpt>
      <trkpt lat="42.899821" lon="-8.380287">
        <ele>279.494</ele>
        <time>2021-07-11T08:03:05Z</time>
      </trkpt>
      <trkpt lat="42.899952" lon="-8.379821">
        <ele>279.431</ele>
        <time>2021-07-11T08:03:15Z</time>
      </trkpt>
      <trkpt lat="42.900079" lon="-8.379492">
        <ele>278.999</ele>
        <time>2021-07-11T08:03:23Z</time>
      </trkpt>
      <trkpt lat="42.900286" lon="-8.379013">
        <ele>278.426</ele>
        <time>2021-07-11T08:03:33Z</time>
      </trkpt>
      <trkpt lat="42.900522" lon="-8.378495">
        <ele>278.447</ele>
        <time>2021-07-11T08:03:44Z</time>
      </trkpt>
      <trkpt lat="42.900753" lon="-8.377986">
        <ele>278.911</ele>
        <time>2021-07-11T08:03:54Z</time>
      </trkpt>
      <trkpt lat="42.900986" lon="-8.377467">
        <ele>278.908</ele>
        <time>2021-07-11T08:04:04Z</time>
      </trkpt>
      <trkpt lat="42.901175" lon="-8.377043">
        <ele>278.979</ele>
        <time>2021-07-11T08:04:13Z</time>
      </trkpt>
      <trkpt lat="42.901384" lon="-8.376578">
        <ele>279.441</ele>
        <time>2021-07-11T08:04:23Z</time>
      </trkpt>
      <trkpt lat="42.901653" lon="-8.375974">
        <ele>278.988</ele>
        <time>2021-07-11T08:04:35Z</time>
      </trkpt>
      <trkpt lat="42.901904" lon="-8.375409">
        <ele>278.448</ele>
        <time>2021-07-11T08:04:46Z</time>
      </trkpt>
      <trkpt lat="42.902128" lon="-8.374902">
        <ele>278.982</ele>
        <time>2021-07-11T08:04:56Z</time>
      </trkpt>
      <trkpt lat="42.902366" lon="-8.374357">
        <ele>278.980</ele>
        <time>2021-07-11T08:05:06Z</time>
      </trkpt>
      <trkpt lat="42.902530" lon="-8.373996">
        <ele>278.497</ele>
        <time>2021-07-11T08:05:13Z</time>
      </trkpt>
      <trkpt lat="42.902768" lon="-8.373458">
        <ele>277.465</ele>
        <time>2021-07-11T08:05:24Z</time>
      </trkpt>
      <trkpt lat="42.903001" lon="-8.372954">
        <ele>277.485</ele>
        <time>2021-07-11T08:05:34Z</time>
      </trkpt>
      <trkpt lat="42.903053" lon="-8.372837">
        <ele>277.089</ele>
        <time>2021-07-11T08:05:36Z</time>
      </trkpt>
      <trkpt lat="42.903077" lon="-8.372782">
        <ele>276.517</ele>
        <time>2021-07-11T08:05:37Z</time>
      </trkpt>
      <trkpt lat="42.903102" lon="-8.372723">
        <ele>276.508</ele>
        <time>2021-07-11T08:05:38Z</time>
      </trkpt>
      <trkpt lat="42.903130" lon="-8.372664">
        <ele>276.545</ele>
        <time>2021-07-11T08:05:39Z</time>
      </trkpt>
      <trkpt lat="42.903160" lon="-8.372597">
        <ele>276.067</ele>
        <time>2021-07-11T08:05:40Z</time>
      </trkpt>
      <trkpt lat="42.903188" lon="-8.372530">
        <ele>275.564</ele>
        <time>2021-07-11T08:05:41Z</time>
      </trkpt>
      <trkpt lat="42.903314" lon="-8.372245">
        <ele>274.564</ele>
        <time>2021-07-11T08:05:45Z</time>
      </trkpt>
      <trkpt lat="42.903350" lon="-8.372167">
        <ele>274.558</ele>
        <time>2021-07-11T08:05:46Z</time>
      </trkpt>
      <trkpt lat="42.903456" lon="-8.371930">
        <ele>273.636</ele>
        <time>2021-07-11T08:05:49Z</time>
      </trkpt>
      <trkpt lat="42.903493" lon="-8.371851">
        <ele>273.683</ele>
        <time>2021-07-11T08:05:50Z</time>
      </trkpt>
      <trkpt lat="42.903785" lon="-8.371082">
        <ele>272.151</ele>
        <time>2021-07-11T08:06:00Z</time>
      </trkpt>
      <trkpt lat="42.903824" lon="-8.370880">
        <ele>272.148</ele>
        <time>2021-07-11T08:06:03Z</time>
      </trkpt>
      <trkpt lat="42.903816" lon="-8.370380">
        <ele>273.661</ele>
        <time>2021-07-11T08:06:12Z</time>
      </trkpt>
      <trkpt lat="42.903784" lon="-8.370110">
        <ele>274.517</ele>
        <time>2021-07-11T08:06:19Z</time>
      </trkpt>
      <trkpt lat="42.903723" lon="-8.369816">
        <ele>276.508</ele>
        <time>2021-07-11T08:06:28Z</time>
      </trkpt>
      <trkpt lat="42.903668" lon="-8.369454">
        <ele>278.451</ele>
        <time>2021-07-11T08:06:39Z</time>
      </trkpt>
      <trkpt lat="42.903632" lon="-8.369002">
        <ele>280.363</ele>
        <time>2021-07-11T08:06:51Z</time>
      </trkpt>
      <trkpt lat="42.903648" lon="-8.368622">
        <ele>281.340</ele>
        <time>2021-07-11T08:07:00Z</time>
      </trkpt>
      <trkpt lat="42.903697" lon="-8.368184">
        <ele>280.810</ele>
        <time>2021-07-11T08:07:10Z</time>
      </trkpt>
      <trkpt lat="42.903741" lon="-8.367781">
        <ele>280.834</ele>
        <time>2021-07-11T08:07:18Z</time>
      </trkpt>
      <trkpt lat="42.903802" lon="-8.367280">
        <ele>280.892</ele>
        <time>2021-07-11T08:07:28Z</time>
      </trkpt>
      <trkpt lat="42.903886" lon="-8.366669">
        <ele>282.269</ele>
        <time>2021-07-11T08:07:41Z</time>
      </trkpt>
      <trkpt lat="42.903948" lon="-8.366190">
        <ele>283.747</ele>
        <time>2021-07-11T08:07:52Z</time>
      </trkpt>
      <trkpt lat="42.904002" lon="-8.365759">
        <ele>285.141</ele>
        <time>2021-07-11T08:08:02Z</time>
      </trkpt>
      <trkpt lat="42.904048" lon="-8.365383">
        <ele>286.181</ele>
        <time>2021-07-11T08:08:11Z</time>
      </trkpt>
      <trkpt lat="42.904097" lon="-8.364943">
        <ele>287.509</ele>
        <time>2021-07-11T08:08:21Z</time>
      </trkpt>
      <trkpt lat="42.904163" lon="-8.364433">
        <ele>289.008</ele>
        <time>2021-07-11T08:08:33Z</time>
      </trkpt>
      <trkpt lat="42.904226" lon="-8.363973">
        <ele>289.971</ele>
        <time>2021-07-11T08:08:44Z</time>
      </trkpt>
      <trkpt lat="42.904269" lon="-8.363642">
        <ele>290.943</ele>
        <time>2021-07-11T08:08:52Z</time>
      </trkpt>
      <trkpt lat="42.904321" lon="-8.363230">
        <ele>292.310</ele>
        <time>2021-07-11T08:09:02Z</time>
      </trkpt>
      <trkpt lat="42.904399" lon="-8.362846">
        <ele>293.310</ele>
        <time>2021-07-11T08:09:11Z</time>
      </trkpt>
      <trkpt lat="42.904569" lon="-8.362489">
        <ele>292.324</ele>
        <time>2021-07-11T08:09:20Z</time>
      </trkpt>
      <trkpt lat="42.904633" lon="-8.362437">
        <ele>291.972</ele>
        <time>2021-07-11T08:09:22Z</time>
      </trkpt>
      <trkpt lat="42.904674" lon="-8.362440">
        <ele>291.929</ele>
        <time>2021-07-11T08:09:23Z</time>
      </trkpt>
      <trkpt lat="42.904708" lon="-8.362465">
        <ele>291.917</ele>
        <time>2021-07-11T08:09:24Z</time>
      </trkpt>
      <trkpt lat="42.904726" lon="-8.362491">
        <ele>292.344</ele>
        <time>2021-07-11T08:09:25Z</time>
      </trkpt>
      <trkpt lat="42.904745" lon="-8.362519">
        <ele>292.305</ele>
        <time>2021-07-11T08:09:26Z</time>
      </trkpt>
      <trkpt lat="42.904842" lon="-8.362654">
        <ele>294.315</ele>
        <time>2021-07-11T08:09:32Z</time>
      </trkpt>
      <trkpt lat="42.904973" lon="-8.362828">
        <ele>295.708</ele>
        <time>2021-07-11T08:09:40Z</time>
      </trkpt>
      <trkpt lat="42.905099" lon="-8.362940">
        <ele>297.111</ele>
        <time>2021-07-11T08:09:47Z</time>
      </trkpt>
      <trkpt lat="42.905121" lon="-8.362941">
        <ele>297.193</ele>
        <time>2021-07-11T08:09:48Z</time>
      </trkpt>
      <trkpt lat="42.905142" lon="-8.362945">
        <ele>297.180</ele>
        <time>2021-07-11T08:09:49Z</time>
      </trkpt>
      <trkpt lat="42.905160" lon="-8.362959">
        <ele>297.180</ele>
        <time>2021-07-11T08:09:50Z</time>
      </trkpt>
      <trkpt lat="42.905181" lon="-8.362976">
        <ele>297.654</ele>
        <time>2021-07-11T08:09:51Z</time>
      </trkpt>
      <trkpt lat="42.905201" lon="-8.362992">
        <ele>297.622</ele>
        <time>2021-07-11T08:09:52Z</time>
      </trkpt>
      <trkpt lat="42.905432" lon="-8.363155">
        <ele>299.189</ele>
        <time>2021-07-11T08:10:02Z</time>
      </trkpt>
      <trkpt lat="42.905674" lon="-8.363279">
        <ele>301.537</ele>
        <time>2021-07-11T08:10:11Z</time>
      </trkpt>
      <trkpt lat="42.905848" lon="-8.363362">
        <ele>300.593</ele>
        <time>2021-07-11T08:10:17Z</time>
      </trkpt>
      <trkpt lat="42.905988" lon="-8.363430">
        <ele>299.165</ele>
        <time>2021-07-11T08:10:23Z</time>
      </trkpt>
      <trkpt lat="42.906290" lon="-8.363573">
        <ele>299.121</ele>
        <time>2021-07-11T08:10:33Z</time>
      </trkpt>
      <trkpt lat="42.906512" lon="-8.363673">
        <ele>298.608</ele>
        <time>2021-07-11T08:10:41Z</time>
      </trkpt>
      <trkpt lat="42.906783" lon="-8.363798">
        <ele>297.616</ele>
        <time>2021-07-11T08:10:50Z</time>
      </trkpt>
      <trkpt lat="42.907052" lon="-8.363921">
        <ele>296.798</ele>
        <time>2021-07-11T08:10:57Z</time>
      </trkpt>
      <trkpt lat="42.907094" lon="-8.363946">
        <ele>296.795</ele>
        <time>2021-07-11T08:10:58Z</time>
      </trkpt>
      <trkpt lat="42.907139" lon="-8.363967">
        <ele>296.215</ele>
        <time>2021-07-11T08:10:59Z</time>
      </trkpt>
      <trkpt lat="42.907186" lon="-8.363979">
        <ele>296.239</ele>
        <time>2021-07-11T08:11:00Z</time>
      </trkpt>
      <trkpt lat="42.907245" lon="-8.363972">
        <ele>296.227</ele>
        <time>2021-07-11T08:11:01Z</time>
      </trkpt>
      <trkpt lat="42.907281" lon="-8.363950">
        <ele>296.254</ele>
        <time>2021-07-11T08:11:02Z</time>
      </trkpt>
      <trkpt lat="42.907318" lon="-8.363914">
        <ele>296.252</ele>
        <time>2021-07-11T08:11:03Z</time>
      </trkpt>
      <trkpt lat="42.907350" lon="-8.363876">
        <ele>296.221</ele>
        <time>2021-07-11T08:11:04Z</time>
      </trkpt>
      <trkpt lat="42.907489" lon="-8.363720">
        <ele>296.741</ele>
        <time>2021-07-11T08:11:10Z</time>
      </trkpt>
      <trkpt lat="42.907734" lon="-8.363541">
        <ele>297.605</ele>
        <time>2021-07-11T08:11:19Z</time>
      </trkpt>
      <trkpt lat="42.907870" lon="-8.363494">
        <ele>298.108</ele>
        <time>2021-07-11T08:11:26Z</time>
      </trkpt>
      <trkpt lat="42.908002" lon="-8.363427">
        <ele>297.189</ele>
        <time>2021-07-11T08:11:33Z</time>
      </trkpt>
      <trkpt lat="42.908224" lon="-8.363332">
        <ele>296.241</ele>
        <time>2021-07-11T08:11:44Z</time>
      </trkpt>
      <trkpt lat="42.908421" lon="-8.363271">
        <ele>296.738</ele>
        <time>2021-07-11T08:11:52Z</time>
      </trkpt>
      <trkpt lat="42.908673" lon="-8.363203">
        <ele>297.148</ele>
        <time>2021-07-11T08:12:02Z</time>
      </trkpt>
      <trkpt lat="42.908707" lon="-8.363227">
        <ele>297.612</ele>
        <time>2021-07-11T08:12:04Z</time>
      </trkpt>
      <trkpt lat="42.908718" lon="-8.363243">
        <ele>297.650</ele>
        <time>2021-07-11T08:12:05Z</time>
      </trkpt>
      <trkpt lat="42.908730" lon="-8.363256">
        <ele>297.677</ele>
        <time>2021-07-11T08:12:06Z</time>
      </trkpt>
      <trkpt lat="42.908742" lon="-8.363270">
        <ele>298.115</ele>
        <time>2021-07-11T08:12:07Z</time>
      </trkpt>
      <trkpt lat="42.908754" lon="-8.363282">
        <ele>298.196</ele>
        <time>2021-07-11T08:12:08Z</time>
      </trkpt>
      <trkpt lat="42.908759" lon="-8.363303">
        <ele>298.631</ele>
        <time>2021-07-11T08:12:13Z</time>
      </trkpt>
      <trkpt lat="42.908761" lon="-8.363294">
        <ele>298.124</ele>
        <time>2021-07-11T08:12:21Z</time>
      </trkpt>
      <trkpt lat="42.908735" lon="-8.363276">
        <ele>297.108</ele>
        <time>2021-07-11T08:12:41Z</time>
      </trkpt>
      <trkpt lat="42.908735" lon="-8.363288">
        <ele>298.686</ele>
        <time>2021-07-11T08:12:55Z</time>
      </trkpt>
      <trkpt lat="42.908735" lon="-8.363277">
        <ele>298.678</ele>
        <time>2021-07-11T08:13:13Z</time>
      </trkpt>
      <trkpt lat="42.908737" lon="-8.363286">
        <ele>298.615</ele>
        <time>2021-07-11T08:13:14Z</time>
      </trkpt>
      <trkpt lat="42.908787" lon="-8.363464">
        <ele>296.215</ele>
        <time>2021-07-11T08:13:22Z</time>
      </trkpt>
      <trkpt lat="42.908793" lon="-8.363469">
        <ele>293.879</ele>
        <time>2021-07-11T08:13:28Z</time>
      </trkpt>
      <trkpt lat="42.908798" lon="-8.363469">
        <ele>292.827</ele>
        <time>2021-07-11T08:13:46Z</time>
      </trkpt>
      <trkpt lat="42.908800" lon="-8.363475">
        <ele>292.854</ele>
        <time>2021-07-11T08:13:49Z</time>
      </trkpt>
      <trkpt lat="42.908850" lon="-8.363520">
        <ele>293.372</ele>
        <time>2021-07-11T08:13:53Z</time>
      </trkpt>
      <trkpt lat="42.908968" lon="-8.363630">
        <ele>294.757</ele>
        <time>2021-07-11T08:13:58Z</time>
      </trkpt>
      <trkpt lat="42.909083" lon="-8.363600">
        <ele>298.600</ele>
        <time>2021-07-11T08:14:03Z</time>
      </trkpt>
      <trkpt lat="42.909096" lon="-8.363569">
        <ele>298.620</ele>
        <time>2021-07-11T08:14:04Z</time>
      </trkpt>
      <trkpt lat="42.909105" lon="-8.363546">
        <ele>298.608</ele>
        <time>2021-07-11T08:14:05Z</time>
      </trkpt>
      <trkpt lat="42.909255" lon="-8.363319">
        <ele>296.282</ele>
        <time>2021-07-11T08:14:13Z</time>
      </trkpt>
      <trkpt lat="42.909368" lon="-8.363194">
        <ele>294.744</ele>
        <time>2021-07-11T08:14:18Z</time>
      </trkpt>
      <trkpt lat="42.909489" lon="-8.362966">
        <ele>291.471</ele>
        <time>2021-07-11T08:14:25Z</time>
      </trkpt>
      <trkpt lat="42.909588" lon="-8.362780">
        <ele>290.991</ele>
        <time>2021-07-11T08:14:33Z</time>
      </trkpt>
      <trkpt lat="42.909642" lon="-8.362658">
        <ele>290.925</ele>
        <time>2021-07-11T08:14:39Z</time>
      </trkpt>
      <trkpt lat="42.909647" lon="-8.362640">
        <ele>290.993</ele>
        <time>2021-07-11T08:14:40Z</time>
      </trkpt>
      <trkpt lat="42.909659" lon="-8.362613">
        <ele>291.410</ele>
        <time>2021-07-11T08:14:41Z</time>
      </trkpt>
      <trkpt lat="42.909675" lon="-8.362586">
        <ele>291.448</ele>
        <time>2021-07-11T08:14:42Z</time>
      </trkpt>
      <trkpt lat="42.909692" lon="-8.362561">
        <ele>291.988</ele>
        <time>2021-07-11T08:14:43Z</time>
      </trkpt>
      <trkpt lat="42.909705" lon="-8.362529">
        <ele>291.924</ele>
        <time>2021-07-11T08:14:44Z</time>
      </trkpt>
      <trkpt lat="42.909721" lon="-8.362494">
        <ele>291.926</ele>
        <time>2021-07-11T08:14:45Z</time>
      </trkpt>
      <trkpt lat="42.909733" lon="-8.362465">
        <ele>291.408</ele>
        <time>2021-07-11T08:14:46Z</time>
      </trkpt>
      <trkpt lat="42.909744" lon="-8.362436">
        <ele>291.485</ele>
        <time>2021-07-11T08:14:47Z</time>
      </trkpt>
      <trkpt lat="42.909761" lon="-8.362402">
        <ele>290.997</ele>
        <time>2021-07-11T08:14:48Z</time>
      </trkpt>
      <trkpt lat="42.909775" lon="-8.362366">
        <ele>290.974</ele>
        <time>2021-07-11T08:14:49Z</time>
      </trkpt>
      <trkpt lat="42.909787" lon="-8.362337">
        <ele>290.414</ele>
        <time>2021-07-11T08:14:50Z</time>
      </trkpt>
      <trkpt lat="42.909800" lon="-8.362307">
        <ele>290.458</ele>
        <time>2021-07-11T08:14:51Z</time>
      </trkpt>
      <trkpt lat="42.909812" lon="-8.362274">
        <ele>290.946</ele>
        <time>2021-07-11T08:14:52Z</time>
      </trkpt>
      <trkpt lat="42.909893" lon="-8.362039">
        <ele>289.963</ele>
        <time>2021-07-11T08:15:00Z</time>
      </trkpt>
      <trkpt lat="42.909944" lon="-8.361877">
        <ele>289.991</ele>
        <time>2021-07-11T08:15:05Z</time>
      </trkpt>
      <trkpt lat="42.909958" lon="-8.361847">
        <ele>289.993</ele>
        <time>2021-07-11T08:15:06Z</time>
      </trkpt>
      <trkpt lat="42.909966" lon="-8.361809">
        <ele>289.965</ele>
        <time>2021-07-11T08:15:07Z</time>
      </trkpt>
      <trkpt lat="42.909972" lon="-8.361773">
        <ele>290.421</ele>
        <time>2021-07-11T08:15:08Z</time>
      </trkpt>
      <trkpt lat="42.909977" lon="-8.361743">
        <ele>290.408</ele>
        <time>2021-07-11T08:15:09Z</time>
      </trkpt>
      <trkpt lat="42.910038" lon="-8.361368">
        <ele>288.536</ele>
        <time>2021-07-11T08:15:18Z</time>
      </trkpt>
      <trkpt lat="42.910106" lon="-8.361156">
        <ele>287.538</ele>
        <time>2021-07-11T08:15:23Z</time>
      </trkpt>
      <trkpt lat="42.910204" lon="-8.360939">
        <ele>286.695</ele>
        <time>2021-07-11T08:15:29Z</time>
      </trkpt>
      <trkpt lat="42.910332" lon="-8.360662">
        <ele>286.635</ele>
        <time>2021-07-11T08:15:36Z</time>
      </trkpt>
      <trkpt lat="42.910411" lon="-8.360432">
        <ele>284.679</ele>
        <time>2021-07-11T08:15:42Z</time>
      </trkpt>
      <trkpt lat="42.910510" lon="-8.360229">
        <ele>283.797</ele>
        <time>2021-07-11T08:15:48Z</time>
      </trkpt>
      <trkpt lat="42.910624" lon="-8.360028">
        <ele>283.754</ele>
        <time>2021-07-11T08:15:54Z</time>
      </trkpt>
      <trkpt lat="42.910818" lon="-8.359731">
        <ele>283.712</ele>
        <time>2021-07-11T08:16:01Z</time>
      </trkpt>
      <trkpt lat="42.910954" lon="-8.359504">
        <ele>280.886</ele>
        <time>2021-07-11T08:16:07Z</time>
      </trkpt>
      <trkpt lat="42.911100" lon="-8.359235">
        <ele>279.460</ele>
        <time>2021-07-11T08:16:14Z</time>
      </trkpt>
      <trkpt lat="42.911287" lon="-8.358927">
        <ele>277.426</ele>
        <time>2021-07-11T08:16:22Z</time>
      </trkpt>
      <trkpt lat="42.911446" lon="-8.358646">
        <ele>276.008</ele>
        <time>2021-07-11T08:16:29Z</time>
      </trkpt>
      <trkpt lat="42.911709" lon="-8.358216">
        <ele>273.615</ele>
        <time>2021-07-11T08:16:40Z</time>
      </trkpt>
      <trkpt lat="42.911904" lon="-8.357905">
        <ele>271.277</ele>
        <time>2021-07-11T08:16:48Z</time>
      </trkpt>
      <trkpt lat="42.912008" lon="-8.357752">
        <ele>269.774</ele>
        <time>2021-07-11T08:16:54Z</time>
      </trkpt>
      <trkpt lat="42.912018" lon="-8.357743">
        <ele>269.774</ele>
        <time>2021-07-11T08:16:55Z</time>
      </trkpt>
      <trkpt lat="42.912030" lon="-8.357732">
        <ele>269.718</ele>
        <time>2021-07-11T08:16:56Z</time>
      </trkpt>
      <trkpt lat="42.912041" lon="-8.357721">
        <ele>269.766</ele>
        <time>2021-07-11T08:16:57Z</time>
      </trkpt>
      <trkpt lat="42.912052" lon="-8.357704">
        <ele>269.783</ele>
        <time>2021-07-11T08:16:58Z</time>
      </trkpt>
      <trkpt lat="42.912077" lon="-8.357653">
        <ele>268.891</ele>
        <time>2021-07-11T08:17:01Z</time>
      </trkpt>
      <trkpt lat="42.912090" lon="-8.357609">
        <ele>268.825</ele>
        <time>2021-07-11T08:17:02Z</time>
      </trkpt>
      <trkpt lat="42.912102" lon="-8.357588">
        <ele>268.826</ele>
        <time>2021-07-11T08:17:03Z</time>
      </trkpt>
      <trkpt lat="42.912116" lon="-8.357565">
        <ele>268.808</ele>
        <time>2021-07-11T08:17:04Z</time>
      </trkpt>
      <trkpt lat="42.912274" lon="-8.357397">
        <ele>267.308</ele>
        <time>2021-07-11T08:17:12Z</time>
      </trkpt>
      <trkpt lat="42.912339" lon="-8.357197">
        <ele>265.999</ele>
        <time>2021-07-11T08:17:17Z</time>
      </trkpt>
      <trkpt lat="42.912433" lon="-8.356875">
        <ele>263.081</ele>
        <time>2021-07-11T08:17:22Z</time>
      </trkpt>
      <trkpt lat="42.912470" lon="-8.356577">
        <ele>261.698</ele>
        <time>2021-07-11T08:17:25Z</time>
      </trkpt>
      <trkpt lat="42.912480" lon="-8.356384">
        <ele>261.638</ele>
        <time>2021-07-11T08:17:28Z</time>
      </trkpt>
      <trkpt lat="42.912488" lon="-8.356170">
        <ele>262.592</ele>
        <time>2021-07-11T08:17:33Z</time>
      </trkpt>
      <trkpt lat="42.912487" lon="-8.355922">
        <ele>264.970</ele>
        <time>2021-07-11T08:17:40Z</time>
      </trkpt>
      <trkpt lat="42.912484" lon="-8.355617">
        <ele>266.937</ele>
        <time>2021-07-11T08:17:49Z</time>
      </trkpt>
      <trkpt lat="42.912498" lon="-8.355423">
        <ele>267.845</ele>
        <time>2021-07-11T08:17:56Z</time>
      </trkpt>
      <trkpt lat="42.912506" lon="-8.355355">
        <ele>268.325</ele>
        <time>2021-07-11T08:17:59Z</time>
      </trkpt>
      <trkpt lat="42.912595" lon="-8.355053">
        <ele>269.726</ele>
        <time>2021-07-11T08:18:10Z</time>
      </trkpt>
      <trkpt lat="42.912653" lon="-8.354751">
        <ele>270.708</ele>
        <time>2021-07-11T08:18:21Z</time>
      </trkpt>
      <trkpt lat="42.912744" lon="-8.354424">
        <ele>273.108</ele>
        <time>2021-07-11T08:18:32Z</time>
      </trkpt>
      <trkpt lat="42.912840" lon="-8.354082">
        <ele>275.079</ele>
        <time>2021-07-11T08:18:43Z</time>
      </trkpt>
      <trkpt lat="42.912932" lon="-8.353803">
        <ele>277.061</ele>
        <time>2021-07-11T08:18:53Z</time>
      </trkpt>
      <trkpt lat="42.913062" lon="-8.353568">
        <ele>277.488</ele>
        <time>2021-07-11T08:19:02Z</time>
      </trkpt>
      <trkpt lat="42.913282" lon="-8.353334">
        <ele>277.988</ele>
        <time>2021-07-11T08:19:12Z</time>
      </trkpt>
      <trkpt lat="42.913414" lon="-8.353204">
        <ele>278.992</ele>
        <time>2021-07-11T08:19:18Z</time>
      </trkpt>
      <trkpt lat="42.913618" lon="-8.352981">
        <ele>279.480</ele>
        <time>2021-07-11T08:19:27Z</time>
      </trkpt>
      <trkpt lat="42.913730" lon="-8.352757">
        <ele>279.477</ele>
        <time>2021-07-11T08:19:34Z</time>
      </trkpt>
      <trkpt lat="42.913857" lon="-8.352469">
        <ele>279.495</ele>
        <time>2021-07-11T08:19:42Z</time>
      </trkpt>
      <trkpt lat="42.913982" lon="-8.352120">
        <ele>279.864</ele>
        <time>2021-07-11T08:19:53Z</time>
      </trkpt>
      <trkpt lat="42.914061" lon="-8.351854">
        <ele>279.806</ele>
        <time>2021-07-11T08:20:01Z</time>
      </trkpt>
      <trkpt lat="42.914203" lon="-8.351459">
        <ele>280.816</ele>
        <time>2021-07-11T08:20:12Z</time>
      </trkpt>
      <trkpt lat="42.914333" lon="-8.351106">
        <ele>281.308</ele>
        <time>2021-07-11T08:20:22Z</time>
      </trkpt>
      <trkpt lat="42.914412" lon="-8.350856">
        <ele>281.813</ele>
        <time>2021-07-11T08:20:29Z</time>
      </trkpt>
      <trkpt lat="42.914512" lon="-8.350511">
        <ele>282.715</ele>
        <time>2021-07-11T08:20:39Z</time>
      </trkpt>
      <trkpt lat="42.914597" lon="-8.350265">
        <ele>283.742</ele>
        <time>2021-07-11T08:20:47Z</time>
      </trkpt>
      <trkpt lat="42.914696" lon="-8.350036">
        <ele>284.282</ele>
        <time>2021-07-11T08:20:56Z</time>
      </trkpt>
      <trkpt lat="42.914715" lon="-8.349915">
        <ele>284.236</ele>
        <time>2021-07-11T08:21:02Z</time>
      </trkpt>
      <trkpt lat="42.914734" lon="-8.349672">
        <ele>286.664</ele>
        <time>2021-07-11T08:21:12Z</time>
      </trkpt>
      <trkpt lat="42.914733" lon="-8.349571">
        <ele>288.581</ele>
        <time>2021-07-11T08:21:17Z</time>
      </trkpt>
      <trkpt lat="42.914730" lon="-8.349554">
        <ele>288.559</ele>
        <time>2021-07-11T08:21:18Z</time>
      </trkpt>
      <trkpt lat="42.914676" lon="-8.349427">
        <ele>289.457</ele>
        <time>2021-07-11T08:21:27Z</time>
      </trkpt>
      <trkpt lat="42.914631" lon="-8.349359">
        <ele>289.900</ele>
        <time>2021-07-11T08:21:34Z</time>
      </trkpt>
      <trkpt lat="42.914563" lon="-8.349280">
        <ele>291.920</ele>
        <time>2021-07-11T08:21:42Z</time>
      </trkpt>
      <trkpt lat="42.914470" lon="-8.349185">
        <ele>292.308</ele>
        <time>2021-07-11T08:21:48Z</time>
      </trkpt>
      <trkpt lat="42.914398" lon="-8.349091">
        <ele>293.322</ele>
        <time>2021-07-11T08:21:55Z</time>
      </trkpt>
      <trkpt lat="42.914365" lon="-8.348910">
        <ele>294.344</ele>
        <time>2021-07-11T08:22:05Z</time>
      </trkpt>
      <trkpt lat="42.914390" lon="-8.348776">
        <ele>296.291</ele>
        <time>2021-07-11T08:22:13Z</time>
      </trkpt>
      <trkpt lat="42.914435" lon="-8.348584">
        <ele>297.651</ele>
        <time>2021-07-11T08:22:23Z</time>
      </trkpt>
      <trkpt lat="42.914505" lon="-8.348415">
        <ele>299.135</ele>
        <time>2021-07-11T08:22:31Z</time>
      </trkpt>
      <trkpt lat="42.914582" lon="-8.348205">
        <ele>300.053</ele>
        <time>2021-07-11T08:22:41Z</time>
      </trkpt>
      <trkpt lat="42.914636" lon="-8.347954">
        <ele>300.550</ele>
        <time>2021-07-11T08:22:51Z</time>
      </trkpt>
      <trkpt lat="42.914686" lon="-8.347740">
        <ele>301.088</ele>
        <time>2021-07-11T08:23:00Z</time>
      </trkpt>
      <trkpt lat="42.914786" lon="-8.347552">
        <ele>301.551</ele>
        <time>2021-07-11T08:23:09Z</time>
      </trkpt>
      <trkpt lat="42.914877" lon="-8.347419">
        <ele>302.901</ele>
        <time>2021-07-11T08:23:16Z</time>
      </trkpt>
      <trkpt lat="42.915023" lon="-8.347228">
        <ele>304.311</ele>
        <time>2021-07-11T08:23:27Z</time>
      </trkpt>
      <trkpt lat="42.915148" lon="-8.347014">
        <ele>305.808</ele>
        <time>2021-07-11T08:23:37Z</time>
      </trkpt>
      <trkpt lat="42.915237" lon="-8.346856">
        <ele>306.392</ele>
        <time>2021-07-11T08:23:44Z</time>
      </trkpt>
      <trkpt lat="42.915384" lon="-8.346651">
        <ele>307.234</ele>
        <time>2021-07-11T08:23:54Z</time>
      </trkpt>
      <trkpt lat="42.915485" lon="-8.346476">
        <ele>308.251</ele>
        <time>2021-07-11T08:24:02Z</time>
      </trkpt>
      <trkpt lat="42.915607" lon="-8.346265">
        <ele>310.181</ele>
        <time>2021-07-11T08:24:11Z</time>
      </trkpt>
      <trkpt lat="42.915683" lon="-8.346019">
        <ele>311.145</ele>
        <time>2021-07-11T08:24:20Z</time>
      </trkpt>
      <trkpt lat="42.915831" lon="-8.345728">
        <ele>312.533</ele>
        <time>2021-07-11T08:24:33Z</time>
      </trkpt>
      <trkpt lat="42.915953" lon="-8.345543">
        <ele>313.570</ele>
        <time>2021-07-11T08:24:41Z</time>
      </trkpt>
      <trkpt lat="42.916023" lon="-8.345387">
        <ele>314.428</ele>
        <time>2021-07-11T08:24:50Z</time>
      </trkpt>
      <trkpt lat="42.916025" lon="-8.345370">
        <ele>314.961</ele>
        <time>2021-07-11T08:24:51Z</time>
      </trkpt>
      <trkpt lat="42.916080" lon="-8.345180">
        <ele>315.421</ele>
        <time>2021-07-11T08:25:01Z</time>
      </trkpt>
      <trkpt lat="42.916120" lon="-8.344999">
        <ele>316.413</ele>
        <time>2021-07-11T08:25:09Z</time>
      </trkpt>
      <trkpt lat="42.916187" lon="-8.344803">
        <ele>318.308</ele>
        <time>2021-07-11T08:25:18Z</time>
      </trkpt>
      <trkpt lat="42.916247" lon="-8.344605">
        <ele>319.353</ele>
        <time>2021-07-11T08:25:28Z</time>
      </trkpt>
      <trkpt lat="42.916275" lon="-8.344549">
        <ele>320.285</ele>
        <time>2021-07-11T08:25:32Z</time>
      </trkpt>
      <trkpt lat="42.916307" lon="-8.344421">
        <ele>321.722</ele>
        <time>2021-07-11T08:25:41Z</time>
      </trkpt>
      <trkpt lat="42.916330" lon="-8.344330">
        <ele>322.652</ele>
        <time>2021-07-11T08:25:47Z</time>
      </trkpt>
      <trkpt lat="42.916316" lon="-8.344175">
        <ele>322.686</ele>
        <time>2021-07-11T08:25:54Z</time>
      </trkpt>
      <trkpt lat="42.916318" lon="-8.344142">
        <ele>322.644</ele>
        <time>2021-07-11T08:25:55Z</time>
      </trkpt>
      <trkpt lat="42.916363" lon="-8.343913">
        <ele>321.751</ele>
        <time>2021-07-11T08:26:03Z</time>
      </trkpt>
      <trkpt lat="42.916450" lon="-8.343819">
        <ele>321.729</ele>
        <time>2021-07-11T08:26:08Z</time>
      </trkpt>
      <trkpt lat="42.916548" lon="-8.343794">
        <ele>322.689</ele>
        <time>2021-07-11T08:26:15Z</time>
      </trkpt>
      <trkpt lat="42.916548" lon="-8.343589">
        <ele>324.506</ele>
        <time>2021-07-11T08:26:25Z</time>
      </trkpt>
      <trkpt lat="42.916541" lon="-8.343440">
        <ele>326.926</ele>
        <time>2021-07-11T08:26:32Z</time>
      </trkpt>
      <trkpt lat="42.916546" lon="-8.343417">
        <ele>326.908</ele>
        <time>2021-07-11T08:26:33Z</time>
      </trkpt>
      <trkpt lat="42.916548" lon="-8.343392">
        <ele>327.495</ele>
        <time>2021-07-11T08:26:34Z</time>
      </trkpt>
      <trkpt lat="42.916546" lon="-8.343367">
        <ele>327.467</ele>
        <time>2021-07-11T08:26:35Z</time>
      </trkpt>
      <trkpt lat="42.916546" lon="-8.343341">
        <ele>327.444</ele>
        <time>2021-07-11T08:26:36Z</time>
      </trkpt>
      <trkpt lat="42.916549" lon="-8.343314">
        <ele>327.984</ele>
        <time>2021-07-11T08:26:37Z</time>
      </trkpt>
      <trkpt lat="42.916554" lon="-8.343291">
        <ele>327.968</ele>
        <time>2021-07-11T08:26:38Z</time>
      </trkpt>
      <trkpt lat="42.916561" lon="-8.343273">
        <ele>327.926</ele>
        <time>2021-07-11T08:26:39Z</time>
      </trkpt>
      <trkpt lat="42.916571" lon="-8.343255">
        <ele>327.913</ele>
        <time>2021-07-11T08:26:40Z</time>
      </trkpt>
      <trkpt lat="42.916585" lon="-8.343242">
        <ele>328.421</ele>
        <time>2021-07-11T08:26:41Z</time>
      </trkpt>
      <trkpt lat="42.916602" lon="-8.343231">
        <ele>328.497</ele>
        <time>2021-07-11T08:26:42Z</time>
      </trkpt>
      <trkpt lat="42.916615" lon="-8.343228">
        <ele>328.423</ele>
        <time>2021-07-11T08:26:43Z</time>
      </trkpt>
      <trkpt lat="42.916625" lon="-8.343227">
        <ele>328.925</ele>
        <time>2021-07-11T08:26:44Z</time>
      </trkpt>
      <trkpt lat="42.916727" lon="-8.343258">
        <ele>329.808</ele>
        <time>2021-07-11T08:26:52Z</time>
      </trkpt>
      <trkpt lat="42.916860" lon="-8.343279">
        <ele>331.386</ele>
        <time>2021-07-11T08:27:00Z</time>
      </trkpt>
      <trkpt lat="42.917052" lon="-8.343221">
        <ele>333.258</ele>
        <time>2021-07-11T08:27:10Z</time>
      </trkpt>
      <trkpt lat="42.917119" lon="-8.343145">
        <ele>334.215</ele>
        <time>2021-07-11T08:27:17Z</time>
      </trkpt>
      <trkpt lat="42.917180" lon="-8.343024">
        <ele>336.135</ele>
        <time>2021-07-11T08:27:26Z</time>
      </trkpt>
      <trkpt lat="42.917228" lon="-8.342855">
        <ele>338.019</ele>
        <time>2021-07-11T08:27:35Z</time>
      </trkpt>
      <trkpt lat="42.917306" lon="-8.342673">
        <ele>341.847</ele>
        <time>2021-07-11T08:27:44Z</time>
      </trkpt>
      <trkpt lat="42.917359" lon="-8.342524">
        <ele>340.984</ele>
        <time>2021-07-11T08:27:51Z</time>
      </trkpt>
      <trkpt lat="42.917420" lon="-8.342353">
        <ele>339.912</ele>
        <time>2021-07-11T08:27:59Z</time>
      </trkpt>
      <trkpt lat="42.917492" lon="-8.342115">
        <ele>339.998</ele>
        <time>2021-07-11T08:28:08Z</time>
      </trkpt>
      <trkpt lat="42.917555" lon="-8.341924">
        <ele>341.415</ele>
        <time>2021-07-11T08:28:15Z</time>
      </trkpt>
      <trkpt lat="42.917623" lon="-8.341754">
        <ele>342.326</ele>
        <time>2021-07-11T08:28:22Z</time>
      </trkpt>
      <trkpt lat="42.917701" lon="-8.341543">
        <ele>343.308</ele>
        <time>2021-07-11T08:28:30Z</time>
      </trkpt>
      <trkpt lat="42.917772" lon="-8.341257">
        <ele>343.826</ele>
        <time>2021-07-11T08:28:40Z</time>
      </trkpt>
      <trkpt lat="42.917846" lon="-8.341054">
        <ele>343.358</ele>
        <time>2021-07-11T08:28:48Z</time>
      </trkpt>
      <trkpt lat="42.917901" lon="-8.340891">
        <ele>341.435</ele>
        <time>2021-07-11T08:28:55Z</time>
      </trkpt>
      <trkpt lat="42.917957" lon="-8.340673">
        <ele>340.925</ele>
        <time>2021-07-11T08:29:03Z</time>
      </trkpt>
      <trkpt lat="42.918012" lon="-8.340465">
        <ele>343.829</ele>
        <time>2021-07-11T08:29:11Z</time>
      </trkpt>
      <trkpt lat="42.918089" lon="-8.340162">
        <ele>345.247</ele>
        <time>2021-07-11T08:29:22Z</time>
      </trkpt>
      <trkpt lat="42.918146" lon="-8.339974">
        <ele>344.744</ele>
        <time>2021-07-11T08:29:29Z</time>
      </trkpt>
      <trkpt lat="42.918190" lon="-8.339821">
        <ele>345.752</ele>
        <time>2021-07-11T08:29:37Z</time>
      </trkpt>
      <trkpt lat="42.918250" lon="-8.339590">
        <ele>347.639</ele>
        <time>2021-07-11T08:29:46Z</time>
      </trkpt>
      <trkpt lat="42.918304" lon="-8.339351">
        <ele>347.601</ele>
        <time>2021-07-11T08:29:54Z</time>
      </trkpt>
      <trkpt lat="42.918370" lon="-8.339162">
        <ele>349.121</ele>
        <time>2021-07-11T08:30:02Z</time>
      </trkpt>
      <trkpt lat="42.918433" lon="-8.338955">
        <ele>350.508</ele>
        <time>2021-07-11T08:30:10Z</time>
      </trkpt>
      <trkpt lat="42.918441" lon="-8.338907">
        <ele>350.560</ele>
        <time>2021-07-11T08:30:12Z</time>
      </trkpt>
      <trkpt lat="42.918442" lon="-8.338884">
        <ele>351.052</ele>
        <time>2021-07-11T08:30:13Z</time>
      </trkpt>
      <trkpt lat="42.918477" lon="-8.338695">
        <ele>352.429</ele>
        <time>2021-07-11T08:30:20Z</time>
      </trkpt>
      <trkpt lat="42.918507" lon="-8.338442">
        <ele>351.919</ele>
        <time>2021-07-11T08:30:27Z</time>
      </trkpt>
      <trkpt lat="42.918505" lon="-8.338185">
        <ele>352.943</ele>
        <time>2021-07-11T08:30:36Z</time>
      </trkpt>
      <trkpt lat="42.918487" lon="-8.337909">
        <ele>353.411</ele>
        <time>2021-07-11T08:30:46Z</time>
      </trkpt>
      <trkpt lat="42.918474" lon="-8.337647">
        <ele>353.498</ele>
        <time>2021-07-11T08:30:55Z</time>
      </trkpt>
      <trkpt lat="42.918453" lon="-8.337352">
        <ele>355.396</ele>
        <time>2021-07-11T08:31:06Z</time>
      </trkpt>
      <trkpt lat="42.918436" lon="-8.337112">
        <ele>357.224</ele>
        <time>2021-07-11T08:31:15Z</time>
      </trkpt>
      <trkpt lat="42.918423" lon="-8.337010">
        <ele>358.204</ele>
        <time>2021-07-11T08:31:20Z</time>
      </trkpt>
      <trkpt lat="42.918423" lon="-8.336995">
        <ele>358.214</ele>
        <time>2021-07-11T08:31:21Z</time>
      </trkpt>
      <trkpt lat="42.918396" lon="-8.336820">
        <ele>359.108</ele>
        <time>2021-07-11T08:31:29Z</time>
      </trkpt>
      <trkpt lat="42.918390" lon="-8.336708">
        <ele>359.629</ele>
        <time>2021-07-11T08:31:35Z</time>
      </trkpt>
      <trkpt lat="42.918371" lon="-8.336515">
        <ele>360.661</ele>
        <time>2021-07-11T08:31:43Z</time>
      </trkpt>
      <trkpt lat="42.918343" lon="-8.336256">
        <ele>361.558</ele>
        <time>2021-07-11T08:31:52Z</time>
      </trkpt>
      <trkpt lat="42.918321" lon="-8.336062">
        <ele>362.058</ele>
        <time>2021-07-11T08:31:59Z</time>
      </trkpt>
      <trkpt lat="42.918283" lon="-8.335833">
        <ele>363.032</ele>
        <time>2021-07-11T08:32:08Z</time>
      </trkpt>
      <trkpt lat="42.918293" lon="-8.335599">
        <ele>364.030</ele>
        <time>2021-07-11T08:32:17Z</time>
      </trkpt>
      <trkpt lat="42.918266" lon="-8.335433">
        <ele>364.977</ele>
        <time>2021-07-11T08:32:24Z</time>
      </trkpt>
      <trkpt lat="42.918230" lon="-8.335167">
        <ele>365.995</ele>
        <time>2021-07-11T08:32:34Z</time>
      </trkpt>
      <trkpt lat="42.918198" lon="-8.334903">
        <ele>367.318</ele>
        <time>2021-07-11T08:32:45Z</time>
      </trkpt>
      <trkpt lat="42.918173" lon="-8.334622">
        <ele>367.898</ele>
        <time>2021-07-11T08:32:56Z</time>
      </trkpt>
      <trkpt lat="42.918162" lon="-8.334572">
        <ele>366.817</ele>
        <time>2021-07-11T08:33:02Z</time>
      </trkpt>
      <trkpt lat="42.918175" lon="-8.334548">
        <ele>366.408</ele>
        <time>2021-07-11T08:33:17Z</time>
      </trkpt>
      <trkpt lat="42.918183" lon="-8.334540">
        <ele>365.978</ele>
        <time>2021-07-11T08:33:30Z</time>
      </trkpt>
      <trkpt lat="42.918191" lon="-8.334545">
        <ele>365.420</ele>
        <time>2021-07-11T08:33:42Z</time>
      </trkpt>
      <trkpt lat="42.918204" lon="-8.334558">
        <ele>365.417</ele>
        <time>2021-07-11T08:33:59Z</time>
      </trkpt>
      <trkpt lat="42.918223" lon="-8.334551">
        <ele>365.937</ele>
        <time>2021-07-11T08:34:07Z</time>
      </trkpt>
      <trkpt lat="42.918230" lon="-8.334539">
        <ele>365.961</ele>
        <time>2021-07-11T08:34:18Z</time>
      </trkpt>
      <trkpt lat="42.918229" lon="-8.334524">
        <ele>364.919</ele>
        <time>2021-07-11T08:34:35Z</time>
      </trkpt>
      <trkpt lat="42.918243" lon="-8.334512">
        <ele>364.416</ele>
        <time>2021-07-11T08:34:47Z</time>
      </trkpt>
      <trkpt lat="42.918247" lon="-8.334516">
        <ele>365.424</ele>
        <time>2021-07-11T08:34:59Z</time>
      </trkpt>
      <trkpt lat="42.918214" lon="-8.334531">
        <ele>366.437</ele>
        <time>2021-07-11T08:35:14Z</time>
      </trkpt>
      <trkpt lat="42.918216" lon="-8.334538">
        <ele>366.849</ele>
        <time>2021-07-11T08:35:34Z</time>
      </trkpt>
      <trkpt lat="42.918219" lon="-8.334519">
        <ele>366.413</ele>
        <time>2021-07-11T08:35:46Z</time>
      </trkpt>
      <trkpt lat="42.918222" lon="-8.334516">
        <ele>364.408</ele>
        <time>2021-07-11T08:36:05Z</time>
      </trkpt>
      <trkpt lat="42.918218" lon="-8.334512">
        <ele>362.570</ele>
        <time>2021-07-11T08:36:20Z</time>
      </trkpt>
      <trkpt lat="42.918201" lon="-8.334532">
        <ele>364.412</ele>
        <time>2021-07-11T08:36:33Z</time>
      </trkpt>
      <trkpt lat="42.918206" lon="-8.334541">
        <ele>364.459</ele>
        <time>2021-07-11T08:36:45Z</time>
      </trkpt>
      <trkpt lat="42.918225" lon="-8.334528">
        <ele>365.499</ele>
        <time>2021-07-11T08:36:55Z</time>
      </trkpt>
      <trkpt lat="42.918215" lon="-8.334541">
        <ele>365.913</ele>
        <time>2021-07-11T08:37:12Z</time>
      </trkpt>
      <trkpt lat="42.918206" lon="-8.334551">
        <ele>363.051</ele>
        <time>2021-07-11T08:37:27Z</time>
      </trkpt>
      <trkpt lat="42.918192" lon="-8.334539">
        <ele>363.028</ele>
        <time>2021-07-11T08:37:37Z</time>
      </trkpt>
      <trkpt lat="42.918218" lon="-8.334527">
        <ele>361.586</ele>
        <time>2021-07-11T08:37:54Z</time>
      </trkpt>
      <trkpt lat="42.918212" lon="-8.334523">
        <ele>361.591</ele>
        <time>2021-07-11T08:38:07Z</time>
      </trkpt>
      <trkpt lat="42.918215" lon="-8.334540">
        <ele>363.581</ele>
        <time>2021-07-11T08:38:19Z</time>
      </trkpt>
      <trkpt lat="42.918215" lon="-8.334552">
        <ele>365.419</ele>
        <time>2021-07-11T08:38:35Z</time>
      </trkpt>
      <trkpt lat="42.918204" lon="-8.334559">
        <ele>364.408</ele>
        <time>2021-07-11T08:38:44Z</time>
      </trkpt>
      <trkpt lat="42.918229" lon="-8.334549">
        <ele>363.516</ele>
        <time>2021-07-11T08:38:56Z</time>
      </trkpt>
      <trkpt lat="42.918237" lon="-8.334577">
        <ele>364.418</ele>
        <time>2021-07-11T08:39:12Z</time>
      </trkpt>
      <trkpt lat="42.918249" lon="-8.334560">
        <ele>367.395</ele>
        <time>2021-07-11T08:39:26Z</time>
      </trkpt>
      <trkpt lat="42.918245" lon="-8.334538">
        <ele>367.895</ele>
        <time>2021-07-11T08:39:42Z</time>
      </trkpt>
      <trkpt lat="42.918231" lon="-8.334532">
        <ele>366.819</ele>
        <time>2021-07-11T08:39:54Z</time>
      </trkpt>
      <trkpt lat="42.918232" lon="-8.334533">
        <ele>366.887</ele>
        <time>2021-07-11T08:40:03Z</time>
      </trkpt>
      <trkpt lat="42.918221" lon="-8.334526">
        <ele>365.454</ele>
        <time>2021-07-11T08:40:20Z</time>
      </trkpt>
      <trkpt lat="42.918236" lon="-8.334528">
        <ele>368.362</ele>
        <time>2021-07-11T08:40:37Z</time>
      </trkpt>
      <trkpt lat="42.918240" lon="-8.334514">
        <ele>369.758</ele>
        <time>2021-07-11T08:40:47Z</time>
      </trkpt>
      <trkpt lat="42.918238" lon="-8.334516">
        <ele>370.752</ele>
        <time>2021-07-11T08:41:01Z</time>
      </trkpt>
      <trkpt lat="42.918207" lon="-8.334522">
        <ele>371.217</ele>
        <time>2021-07-11T08:41:14Z</time>
      </trkpt>
      <trkpt lat="42.918209" lon="-8.334521">
        <ele>371.208</ele>
        <time>2021-07-11T08:41:31Z</time>
      </trkpt>
      <trkpt lat="42.918222" lon="-8.334521">
        <ele>373.192</ele>
        <time>2021-07-11T08:41:45Z</time>
      </trkpt>
      <trkpt lat="42.918226" lon="-8.334526">
        <ele>374.534</ele>
        <time>2021-07-11T08:42:01Z</time>
      </trkpt>
      <trkpt lat="42.918215" lon="-8.334529">
        <ele>373.621</ele>
        <time>2021-07-11T08:42:16Z</time>
      </trkpt>
      <trkpt lat="42.918181" lon="-8.334545">
        <ele>373.111</ele>
        <time>2021-07-11T08:42:33Z</time>
      </trkpt>
      <trkpt lat="42.918180" lon="-8.334544">
        <ele>372.185</ele>
        <time>2021-07-11T08:42:52Z</time>
      </trkpt>
      <trkpt lat="42.918179" lon="-8.334577">
        <ele>373.653</ele>
        <time>2021-07-11T08:43:08Z</time>
      </trkpt>
      <trkpt lat="42.918175" lon="-8.334575">
        <ele>372.170</ele>
        <time>2021-07-11T08:43:24Z</time>
      </trkpt>
      <trkpt lat="42.918195" lon="-8.334564">
        <ele>370.728</ele>
        <time>2021-07-11T08:43:39Z</time>
      </trkpt>
      <trkpt lat="42.918215" lon="-8.334556">
        <ele>371.241</ele>
        <time>2021-07-11T08:43:53Z</time>
      </trkpt>
      <trkpt lat="42.918235" lon="-8.334569">
        <ele>371.281</ele>
        <time>2021-07-11T08:44:06Z</time>
      </trkpt>
      <trkpt lat="42.918224" lon="-8.334556">
        <ele>372.609</ele>
        <time>2021-07-11T08:44:21Z</time>
      </trkpt>
      <trkpt lat="42.918219" lon="-8.334567">
        <ele>373.108</ele>
        <time>2021-07-11T08:44:40Z</time>
      </trkpt>
      <trkpt lat="42.918187" lon="-8.334567">
        <ele>372.171</ele>
        <time>2021-07-11T08:44:56Z</time>
      </trkpt>
      <trkpt lat="42.918210" lon="-8.334575">
        <ele>372.673</ele>
        <time>2021-07-11T08:45:09Z</time>
      </trkpt>
      <trkpt lat="42.918231" lon="-8.334583">
        <ele>372.630</ele>
        <time>2021-07-11T08:45:23Z</time>
      </trkpt>
      <trkpt lat="42.918222" lon="-8.334598">
        <ele>373.120</ele>
        <time>2021-07-11T08:45:40Z</time>
      </trkpt>
      <trkpt lat="42.918217" lon="-8.334599">
        <ele>370.794</ele>
        <time>2021-07-11T08:45:57Z</time>
      </trkpt>
      <trkpt lat="42.918229" lon="-8.334593">
        <ele>368.382</ele>
        <time>2021-07-11T08:46:11Z</time>
      </trkpt>
      <trkpt lat="42.918223" lon="-8.334562">
        <ele>366.439</ele>
        <time>2021-07-11T08:46:23Z</time>
      </trkpt>
      <trkpt lat="42.918240" lon="-8.334565">
        <ele>367.367</ele>
        <time>2021-07-11T08:46:37Z</time>
      </trkpt>
      <trkpt lat="42.918240" lon="-8.334575">
        <ele>368.325</ele>
        <time>2021-07-11T08:46:51Z</time>
      </trkpt>
      <trkpt lat="42.918237" lon="-8.334564">
        <ele>369.226</ele>
        <time>2021-07-11T08:47:07Z</time>
      </trkpt>
      <trkpt lat="42.918248" lon="-8.334568">
        <ele>370.208</ele>
        <time>2021-07-11T08:47:19Z</time>
      </trkpt>
      <trkpt lat="42.918244" lon="-8.334590">
        <ele>369.208</ele>
        <time>2021-07-11T08:47:34Z</time>
      </trkpt>
      <trkpt lat="42.918225" lon="-8.334609">
        <ele>367.399</ele>
        <time>2021-07-11T08:47:48Z</time>
      </trkpt>
      <trkpt lat="42.918205" lon="-8.334582">
        <ele>365.981</ele>
        <time>2021-07-11T08:48:02Z</time>
      </trkpt>
      <trkpt lat="42.918205" lon="-8.334576">
        <ele>364.428</ele>
        <time>2021-07-11T08:48:16Z</time>
      </trkpt>
      <trkpt lat="42.918197" lon="-8.334566">
        <ele>361.568</ele>
        <time>2021-07-11T08:48:34Z</time>
      </trkpt>
      <trkpt lat="42.918224" lon="-8.334564">
        <ele>362.012</ele>
        <time>2021-07-11T08:48:46Z</time>
      </trkpt>
      <trkpt lat="42.918224" lon="-8.334546">
        <ele>361.120</ele>
        <time>2021-07-11T08:49:01Z</time>
      </trkpt>
      <trkpt lat="42.918219" lon="-8.334536">
        <ele>362.577</ele>
        <time>2021-07-11T08:49:12Z</time>
      </trkpt>
      <trkpt lat="42.918205" lon="-8.334546">
        <ele>362.055</ele>
        <time>2021-07-11T08:49:26Z</time>
      </trkpt>
      <trkpt lat="42.918210" lon="-8.334539">
        <ele>361.142</ele>
        <time>2021-07-11T08:49:46Z</time>
      </trkpt>
      <trkpt lat="42.918220" lon="-8.334551">
        <ele>362.022</ele>
        <time>2021-07-11T08:50:03Z</time>
      </trkpt>
      <trkpt lat="42.918217" lon="-8.334549">
        <ele>360.614</ele>
        <time>2021-07-11T08:50:19Z</time>
      </trkpt>
      <trkpt lat="42.918217" lon="-8.334521">
        <ele>361.108</ele>
        <time>2021-07-11T08:50:25Z</time>
      </trkpt>
      <trkpt lat="42.918213" lon="-8.334521">
        <ele>361.551</ele>
        <time>2021-07-11T08:50:32Z</time>
      </trkpt>
      <trkpt lat="42.918199" lon="-8.334427">
        <ele>361.153</ele>
        <time>2021-07-11T08:50:39Z</time>
      </trkpt>
      <trkpt lat="42.918172" lon="-8.334305">
        <ele>361.530</ele>
        <time>2021-07-11T08:50:48Z</time>
      </trkpt>
      <trkpt lat="42.918142" lon="-8.334221">
        <ele>362.020</ele>
        <time>2021-07-11T08:50:55Z</time>
      </trkpt>
      <trkpt lat="42.918106" lon="-8.334103">
        <ele>363.594</ele>
        <time>2021-07-11T08:51:02Z</time>
      </trkpt>
      <trkpt lat="42.918026" lon="-8.333944">
        <ele>364.922</ele>
        <time>2021-07-11T08:51:09Z</time>
      </trkpt>
      <trkpt lat="42.918007" lon="-8.333937">
        <ele>365.459</ele>
        <time>2021-07-11T08:51:10Z</time>
      </trkpt>
      <trkpt lat="42.917864" lon="-8.333907">
        <ele>366.467</ele>
        <time>2021-07-11T08:51:17Z</time>
      </trkpt>
      <trkpt lat="42.917793" lon="-8.333731">
        <ele>367.842</ele>
        <time>2021-07-11T08:51:24Z</time>
      </trkpt>
      <trkpt lat="42.917743" lon="-8.333447">
        <ele>369.222</ele>
        <time>2021-07-11T08:51:34Z</time>
      </trkpt>
      <trkpt lat="42.917683" lon="-8.333145">
        <ele>370.214</ele>
        <time>2021-07-11T08:51:44Z</time>
      </trkpt>
      <trkpt lat="42.917639" lon="-8.332835">
        <ele>371.608</ele>
        <time>2021-07-11T08:51:54Z</time>
      </trkpt>
      <trkpt lat="42.917585" lon="-8.332475">
        <ele>373.151</ele>
        <time>2021-07-11T08:52:06Z</time>
      </trkpt>
      <trkpt lat="42.917529" lon="-8.332048">
        <ele>374.043</ele>
        <time>2021-07-11T08:52:20Z</time>
      </trkpt>
      <trkpt lat="42.917489" lon="-8.331717">
        <ele>375.560</ele>
        <time>2021-07-11T08:52:31Z</time>
      </trkpt>
      <trkpt lat="42.917444" lon="-8.331418">
        <ele>376.470</ele>
        <time>2021-07-11T08:52:41Z</time>
      </trkpt>
      <trkpt lat="42.917399" lon="-8.331013">
        <ele>377.984</ele>
        <time>2021-07-11T08:52:54Z</time>
      </trkpt>
      <trkpt lat="42.917371" lon="-8.330722">
        <ele>378.942</ele>
        <time>2021-07-11T08:53:04Z</time>
      </trkpt>
      <trkpt lat="42.917324" lon="-8.330388">
        <ele>379.349</ele>
        <time>2021-07-11T08:53:16Z</time>
      </trkpt>
      <trkpt lat="42.917288" lon="-8.330156">
        <ele>380.327</ele>
        <time>2021-07-11T08:53:24Z</time>
      </trkpt>
      <trkpt lat="42.917228" lon="-8.329795">
        <ele>380.863</ele>
        <time>2021-07-11T08:53:37Z</time>
      </trkpt>
      <trkpt lat="42.917168" lon="-8.329524">
        <ele>382.244</ele>
        <time>2021-07-11T08:53:46Z</time>
      </trkpt>
      <trkpt lat="42.917113" lon="-8.329251">
        <ele>385.118</ele>
        <time>2021-07-11T08:53:56Z</time>
      </trkpt>
      <trkpt lat="42.917035" lon="-8.328916">
        <ele>387.508</ele>
        <time>2021-07-11T08:54:08Z</time>
      </trkpt>
      <trkpt lat="42.916957" lon="-8.328630">
        <ele>389.483</ele>
        <time>2021-07-11T08:54:19Z</time>
      </trkpt>
      <trkpt lat="42.916886" lon="-8.328384">
        <ele>392.335</ele>
        <time>2021-07-11T08:54:29Z</time>
      </trkpt>
      <trkpt lat="42.916814" lon="-8.328130">
        <ele>395.242</ele>
        <time>2021-07-11T08:54:39Z</time>
      </trkpt>
      <trkpt lat="42.916751" lon="-8.327905">
        <ele>396.242</ele>
        <time>2021-07-11T08:54:48Z</time>
      </trkpt>
      <trkpt lat="42.916653" lon="-8.327608">
        <ele>398.126</ele>
        <time>2021-07-11T08:55:00Z</time>
      </trkpt>
      <trkpt lat="42.916568" lon="-8.327359">
        <ele>400.044</ele>
        <time>2021-07-11T08:55:10Z</time>
      </trkpt>
      <trkpt lat="42.916492" lon="-8.327156">
        <ele>401.411</ele>
        <time>2021-07-11T08:55:19Z</time>
      </trkpt>
      <trkpt lat="42.916435" lon="-8.327015">
        <ele>401.999</ele>
        <time>2021-07-11T08:55:25Z</time>
      </trkpt>
      <trkpt lat="42.916428" lon="-8.326993">
        <ele>401.976</ele>
        <time>2021-07-11T08:55:26Z</time>
      </trkpt>
      <trkpt lat="42.916420" lon="-8.326972">
        <ele>401.990</ele>
        <time>2021-07-11T08:55:27Z</time>
      </trkpt>
      <trkpt lat="42.916345" lon="-8.326763">
        <ele>404.819</ele>
        <time>2021-07-11T08:55:36Z</time>
      </trkpt>
      <trkpt lat="42.916243" lon="-8.326505">
        <ele>406.708</ele>
        <time>2021-07-11T08:55:47Z</time>
      </trkpt>
      <trkpt lat="42.916155" lon="-8.326270">
        <ele>409.614</ele>
        <time>2021-07-11T08:55:57Z</time>
      </trkpt>
      <trkpt lat="42.916076" lon="-8.326054">
        <ele>408.726</ele>
        <time>2021-07-11T08:56:06Z</time>
      </trkpt>
      <trkpt lat="42.915997" lon="-8.325819">
        <ele>409.683</ele>
        <time>2021-07-11T08:56:16Z</time>
      </trkpt>
      <trkpt lat="42.915876" lon="-8.325530">
        <ele>411.153</ele>
        <time>2021-07-11T08:56:28Z</time>
      </trkpt>
      <trkpt lat="42.915785" lon="-8.325303">
        <ele>410.147</ele>
        <time>2021-07-11T08:56:38Z</time>
      </trkpt>
      <trkpt lat="42.915718" lon="-8.325115">
        <ele>411.165</ele>
        <time>2021-07-11T08:56:46Z</time>
      </trkpt>
      <trkpt lat="42.915646" lon="-8.324889">
        <ele>412.082</ele>
        <time>2021-07-11T08:56:55Z</time>
      </trkpt>
      <trkpt lat="42.915571" lon="-8.324605">
        <ele>412.590</ele>
        <time>2021-07-11T08:57:06Z</time>
      </trkpt>
      <trkpt lat="42.915508" lon="-8.324313">
        <ele>413.085</ele>
        <time>2021-07-11T08:57:16Z</time>
      </trkpt>
      <trkpt lat="42.915466" lon="-8.324090">
        <ele>413.089</ele>
        <time>2021-07-11T08:57:24Z</time>
      </trkpt>
      <trkpt lat="42.915411" lon="-8.323740">
        <ele>412.017</ele>
        <time>2021-07-11T08:57:35Z</time>
      </trkpt>
      <trkpt lat="42.915364" lon="-8.323404">
        <ele>411.108</ele>
        <time>2021-07-11T08:57:43Z</time>
      </trkpt>
      <trkpt lat="42.915350" lon="-8.323098">
        <ele>410.635</ele>
        <time>2021-07-11T08:57:49Z</time>
      </trkpt>
      <trkpt lat="42.915335" lon="-8.322951">
        <ele>410.147</ele>
        <time>2021-07-11T08:57:52Z</time>
      </trkpt>
      <trkpt lat="42.915345" lon="-8.322450">
        <ele>409.144</ele>
        <time>2021-07-11T08:57:59Z</time>
      </trkpt>
      <trkpt lat="42.915390" lon="-8.321800">
        <ele>407.764</ele>
        <time>2021-07-11T08:58:08Z</time>
      </trkpt>
      <trkpt lat="42.915514" lon="-8.321002">
        <ele>406.238</ele>
        <time>2021-07-11T08:58:19Z</time>
      </trkpt>
      <trkpt lat="42.915695" lon="-8.320291">
        <ele>404.896</ele>
        <time>2021-07-11T08:58:28Z</time>
      </trkpt>
      <trkpt lat="42.915911" lon="-8.319654">
        <ele>401.913</ele>
        <time>2021-07-11T08:58:35Z</time>
      </trkpt>
      <trkpt lat="42.916225" lon="-8.318849">
        <ele>398.621</ele>
        <time>2021-07-11T08:58:43Z</time>
      </trkpt>
      <trkpt lat="42.916559" lon="-8.317844">
        <ele>394.758</ele>
        <time>2021-07-11T08:58:53Z</time>
      </trkpt>
      <trkpt lat="42.916746" lon="-8.316904">
        <ele>391.352</ele>
        <time>2021-07-11T08:59:00Z</time>
      </trkpt>
      <trkpt lat="42.916891" lon="-8.315623">
        <ele>388.517</ele>
        <time>2021-07-11T08:59:11Z</time>
      </trkpt>
      <trkpt lat="42.917002" lon="-8.314525">
        <ele>387.008</ele>
        <time>2021-07-11T08:59:21Z</time>
      </trkpt>
      <trkpt lat="42.917103" lon="-8.313533">
        <ele>385.662</ele>
        <time>2021-07-11T08:59:31Z</time>
      </trkpt>
      <trkpt lat="42.917187" lon="-8.312720">
        <ele>384.154</ele>
        <time>2021-07-11T08:59:40Z</time>
      </trkpt>
      <trkpt lat="42.917264" lon="-8.311943">
        <ele>382.791</ele>
        <time>2021-07-11T08:59:49Z</time>
      </trkpt>
      <trkpt lat="42.917344" lon="-8.311154">
        <ele>380.381</ele>
        <time>2021-07-11T08:59:58Z</time>
      </trkpt>
      <trkpt lat="42.917428" lon="-8.310314">
        <ele>378.425</ele>
        <time>2021-07-11T09:00:07Z</time>
      </trkpt>
      <trkpt lat="42.917530" lon="-8.309304">
        <ele>375.523</ele>
        <time>2021-07-11T09:00:17Z</time>
      </trkpt>
      <trkpt lat="42.917631" lon="-8.308283">
        <ele>372.180</ele>
        <time>2021-07-11T09:00:27Z</time>
      </trkpt>
      <trkpt lat="42.917716" lon="-8.307469">
        <ele>371.638</ele>
        <time>2021-07-11T09:00:36Z</time>
      </trkpt>
      <trkpt lat="42.917770" lon="-8.307009">
        <ele>373.124</ele>
        <time>2021-07-11T09:00:43Z</time>
      </trkpt>
      <trkpt lat="42.917792" lon="-8.306755">
        <ele>373.104</ele>
        <time>2021-07-11T09:00:50Z</time>
      </trkpt>
      <trkpt lat="42.917811" lon="-8.306550">
        <ele>373.614</ele>
        <time>2021-07-11T09:00:57Z</time>
      </trkpt>
      <trkpt lat="42.917835" lon="-8.306289">
        <ele>374.008</ele>
        <time>2021-07-11T09:01:06Z</time>
      </trkpt>
      <trkpt lat="42.917863" lon="-8.305990">
        <ele>376.049</ele>
        <time>2021-07-11T09:01:16Z</time>
      </trkpt>
      <trkpt lat="42.917896" lon="-8.305676">
        <ele>376.921</ele>
        <time>2021-07-11T09:01:26Z</time>
      </trkpt>
      <trkpt lat="42.917928" lon="-8.305342">
        <ele>378.948</ele>
        <time>2021-07-11T09:01:37Z</time>
      </trkpt>
      <trkpt lat="42.917958" lon="-8.305030">
        <ele>379.888</ele>
        <time>2021-07-11T09:01:47Z</time>
      </trkpt>
      <trkpt lat="42.917985" lon="-8.304784">
        <ele>380.892</ele>
        <time>2021-07-11T09:01:55Z</time>
      </trkpt>
      <trkpt lat="42.918020" lon="-8.304429">
        <ele>381.360</ele>
        <time>2021-07-11T09:02:06Z</time>
      </trkpt>
      <trkpt lat="42.918053" lon="-8.304027">
        <ele>381.767</ele>
        <time>2021-07-11T09:02:17Z</time>
      </trkpt>
      <trkpt lat="42.918090" lon="-8.303651">
        <ele>381.765</ele>
        <time>2021-07-11T09:02:26Z</time>
      </trkpt>
      <trkpt lat="42.918138" lon="-8.303249">
        <ele>381.394</ele>
        <time>2021-07-11T09:02:36Z</time>
      </trkpt>
      <trkpt lat="42.918244" lon="-8.302697">
        <ele>381.757</ele>
        <time>2021-07-11T09:02:50Z</time>
      </trkpt>
      <trkpt lat="42.918365" lon="-8.302272">
        <ele>382.222</ele>
        <time>2021-07-11T09:03:01Z</time>
      </trkpt>
      <trkpt lat="42.918483" lon="-8.301951">
        <ele>382.208</ele>
        <time>2021-07-11T09:03:10Z</time>
      </trkpt>
      <trkpt lat="42.918642" lon="-8.301606">
        <ele>383.256</ele>
        <time>2021-07-11T09:03:20Z</time>
      </trkpt>
      <trkpt lat="42.918792" lon="-8.301351">
        <ele>383.738</ele>
        <time>2021-07-11T09:03:28Z</time>
      </trkpt>
      <trkpt lat="42.918985" lon="-8.301070">
        <ele>383.715</ele>
        <time>2021-07-11T09:03:38Z</time>
      </trkpt>
      <trkpt lat="42.919186" lon="-8.300819">
        <ele>383.725</ele>
        <time>2021-07-11T09:03:47Z</time>
      </trkpt>
      <trkpt lat="42.919402" lon="-8.300574">
        <ele>383.739</ele>
        <time>2021-07-11T09:03:56Z</time>
      </trkpt>
      <trkpt lat="42.919653" lon="-8.300287">
        <ele>383.247</ele>
        <time>2021-07-11T09:04:06Z</time>
      </trkpt>
      <trkpt lat="42.919913" lon="-8.299997">
        <ele>383.264</ele>
        <time>2021-07-11T09:04:17Z</time>
      </trkpt>
      <trkpt lat="42.920217" lon="-8.299635">
        <ele>383.712</ele>
        <time>2021-07-11T09:04:30Z</time>
      </trkpt>
      <trkpt lat="42.920475" lon="-8.299322">
        <ele>385.111</ele>
        <time>2021-07-11T09:04:41Z</time>
      </trkpt>
      <trkpt lat="42.920709" lon="-8.299041">
        <ele>385.121</ele>
        <time>2021-07-11T09:04:51Z</time>
      </trkpt>
      <trkpt lat="42.920908" lon="-8.298792">
        <ele>386.103</ele>
        <time>2021-07-11T09:05:01Z</time>
      </trkpt>
      <trkpt lat="42.921113" lon="-8.298507">
        <ele>387.508</ele>
        <time>2021-07-11T09:05:13Z</time>
      </trkpt>
      <trkpt lat="42.921272" lon="-8.298306">
        <ele>388.038</ele>
        <time>2021-07-11T09:05:22Z</time>
      </trkpt>
      <trkpt lat="42.921401" lon="-8.298121">
        <ele>388.550</ele>
        <time>2021-07-11T09:05:30Z</time>
      </trkpt>
      <trkpt lat="42.921564" lon="-8.297891">
        <ele>389.967</ele>
        <time>2021-07-11T09:05:40Z</time>
      </trkpt>
      <trkpt lat="42.921656" lon="-8.297746">
        <ele>390.467</ele>
        <time>2021-07-11T09:05:47Z</time>
      </trkpt>
      <trkpt lat="42.921795" lon="-8.297555">
        <ele>391.351</ele>
        <time>2021-07-11T09:05:56Z</time>
      </trkpt>
      <trkpt lat="42.921930" lon="-8.297332">
        <ele>392.339</ele>
        <time>2021-07-11T09:06:06Z</time>
      </trkpt>
      <trkpt lat="42.922052" lon="-8.297120">
        <ele>393.386</ele>
        <time>2021-07-11T09:06:16Z</time>
      </trkpt>
      <trkpt lat="42.922180" lon="-8.296862">
        <ele>395.294</ele>
        <time>2021-07-11T09:06:27Z</time>
      </trkpt>
      <trkpt lat="42.922290" lon="-8.296603">
        <ele>396.661</ele>
        <time>2021-07-11T09:06:38Z</time>
      </trkpt>
      <trkpt lat="42.922398" lon="-8.296325">
        <ele>397.121</ele>
        <time>2021-07-11T09:06:49Z</time>
      </trkpt>
      <trkpt lat="42.922489" lon="-8.296069">
        <ele>397.613</ele>
        <time>2021-07-11T09:06:59Z</time>
      </trkpt>
      <trkpt lat="42.922568" lon="-8.295853">
        <ele>398.108</ele>
        <time>2021-07-11T09:07:07Z</time>
      </trkpt>
      <trkpt lat="42.922637" lon="-8.295627">
        <ele>398.693</ele>
        <time>2021-07-11T09:07:15Z</time>
      </trkpt>
      <trkpt lat="42.922726" lon="-8.295349">
        <ele>399.575</ele>
        <time>2021-07-11T09:07:25Z</time>
      </trkpt>
      <trkpt lat="42.922808" lon="-8.295092">
        <ele>400.552</ele>
        <time>2021-07-11T09:07:34Z</time>
      </trkpt>
      <trkpt lat="42.922909" lon="-8.294788">
        <ele>401.982</ele>
        <time>2021-07-11T09:07:45Z</time>
      </trkpt>
      <trkpt lat="42.922998" lon="-8.294499">
        <ele>402.426</ele>
        <time>2021-07-11T09:07:55Z</time>
      </trkpt>
      <trkpt lat="42.923073" lon="-8.294189">
        <ele>402.444</ele>
        <time>2021-07-11T09:08:05Z</time>
      </trkpt>
      <trkpt lat="42.923151" lon="-8.293812">
        <ele>403.491</ele>
        <time>2021-07-11T09:08:15Z</time>
      </trkpt>
      <trkpt lat="42.923207" lon="-8.293497">
        <ele>403.489</ele>
        <time>2021-07-11T09:08:23Z</time>
      </trkpt>
      <trkpt lat="42.923295" lon="-8.293030">
        <ele>402.983</ele>
        <time>2021-07-11T09:08:34Z</time>
      </trkpt>
      <trkpt lat="42.923382" lon="-8.292632">
        <ele>401.925</ele>
        <time>2021-07-11T09:08:42Z</time>
      </trkpt>
      <trkpt lat="42.923501" lon="-8.292198">
        <ele>400.517</ele>
        <time>2021-07-11T09:08:48Z</time>
      </trkpt>
      <trkpt lat="42.923682" lon="-8.291623">
        <ele>398.608</ele>
        <time>2021-07-11T09:08:54Z</time>
      </trkpt>
      <trkpt lat="42.923917" lon="-8.290874">
        <ele>396.635</ele>
        <time>2021-07-11T09:09:01Z</time>
      </trkpt>
      <trkpt lat="42.924394" lon="-8.289245">
        <ele>392.317</ele>
        <time>2021-07-11T09:09:16Z</time>
      </trkpt>
      <trkpt lat="42.924412" lon="-8.289043">
        <ele>391.334</ele>
        <time>2021-07-11T09:09:17Z</time>
      </trkpt>
      <trkpt lat="42.924371" lon="-8.288383">
        <ele>390.964</ele>
        <time>2021-07-11T09:09:23Z</time>
      </trkpt>
      <trkpt lat="42.924346" lon="-8.288285">
        <ele>390.428</ele>
        <time>2021-07-11T09:09:24Z</time>
      </trkpt>
      <trkpt lat="42.924025" lon="-8.287336">
        <ele>387.556</ele>
        <time>2021-07-11T09:09:33Z</time>
      </trkpt>
      <trkpt lat="42.923662" lon="-8.286220">
        <ele>385.153</ele>
        <time>2021-07-11T09:09:44Z</time>
      </trkpt>
      <trkpt lat="42.923599" lon="-8.285677">
        <ele>384.111</ele>
        <time>2021-07-11T09:09:50Z</time>
      </trkpt>
      <trkpt lat="42.923606" lon="-8.285498">
        <ele>384.173</ele>
        <time>2021-07-11T09:09:52Z</time>
      </trkpt>
      <trkpt lat="42.923768" lon="-8.284818">
        <ele>383.285</ele>
        <time>2021-07-11T09:10:00Z</time>
      </trkpt>
      <trkpt lat="42.923982" lon="-8.284416">
        <ele>381.713</ele>
        <time>2021-07-11T09:10:06Z</time>
      </trkpt>
      <trkpt lat="42.924413" lon="-8.283913">
        <ele>378.908</ele>
        <time>2021-07-11T09:10:15Z</time>
      </trkpt>
      <trkpt lat="42.924980" lon="-8.283334">
        <ele>376.084</ele>
        <time>2021-07-11T09:10:25Z</time>
      </trkpt>
      <trkpt lat="42.925392" lon="-8.282828">
        <ele>373.656</ele>
        <time>2021-07-11T09:10:33Z</time>
      </trkpt>
      <trkpt lat="42.925677" lon="-8.282359">
        <ele>372.143</ele>
        <time>2021-07-11T09:10:40Z</time>
      </trkpt>
      <trkpt lat="42.925971" lon="-8.281740">
        <ele>371.253</ele>
        <time>2021-07-11T09:10:48Z</time>
      </trkpt>
      <trkpt lat="42.926219" lon="-8.281000">
        <ele>370.777</ele>
        <time>2021-07-11T09:10:57Z</time>
      </trkpt>
      <trkpt lat="42.926356" lon="-8.280337">
        <ele>369.715</ele>
        <time>2021-07-11T09:11:06Z</time>
      </trkpt>
      <trkpt lat="42.926375" lon="-8.279901">
        <ele>368.882</ele>
        <time>2021-07-11T09:11:12Z</time>
      </trkpt>
      <trkpt lat="42.926336" lon="-8.279383">
        <ele>367.840</ele>
        <time>2021-07-11T09:11:20Z</time>
      </trkpt>
      <trkpt lat="42.926292" lon="-8.279007">
        <ele>368.348</ele>
        <time>2021-07-11T09:11:28Z</time>
      </trkpt>
      <trkpt lat="42.926257" lon="-8.278723">
        <ele>368.361</ele>
        <time>2021-07-11T09:11:35Z</time>
      </trkpt>
      <trkpt lat="42.926209" lon="-8.278260">
        <ele>368.817</ele>
        <time>2021-07-11T09:11:45Z</time>
      </trkpt>
      <trkpt lat="42.926172" lon="-8.277875">
        <ele>369.208</ele>
        <time>2021-07-11T09:11:54Z</time>
      </trkpt>
      <trkpt lat="42.926139" lon="-8.277560">
        <ele>369.741</ele>
        <time>2021-07-11T09:12:03Z</time>
      </trkpt>
      <trkpt lat="42.926159" lon="-8.277540">
        <ele>369.733</ele>
        <time>2021-07-11T09:12:05Z</time>
      </trkpt>
      <trkpt lat="42.926176" lon="-8.277549">
        <ele>369.710</ele>
        <time>2021-07-11T09:12:06Z</time>
      </trkpt>
      <trkpt lat="42.926206" lon="-8.277583">
        <ele>369.290</ele>
        <time>2021-07-11T09:12:07Z</time>
      </trkpt>
      <trkpt lat="42.926243" lon="-8.277603">
        <ele>369.214</ele>
        <time>2021-07-11T09:12:09Z</time>
      </trkpt>
      <trkpt lat="42.926261" lon="-8.277604">
        <ele>368.852</ele>
        <time>2021-07-11T09:12:10Z</time>
      </trkpt>
      <trkpt lat="42.926284" lon="-8.277598">
        <ele>368.819</ele>
        <time>2021-07-11T09:12:11Z</time>
      </trkpt>
      <trkpt lat="42.926308" lon="-8.277584">
        <ele>368.877</ele>
        <time>2021-07-11T09:12:12Z</time>
      </trkpt>
      <trkpt lat="42.926327" lon="-8.277566">
        <ele>368.844</ele>
        <time>2021-07-11T09:12:13Z</time>
      </trkpt>
      <trkpt lat="42.926345" lon="-8.277541">
        <ele>368.305</ele>
        <time>2021-07-11T09:12:14Z</time>
      </trkpt>
      <trkpt lat="42.926354" lon="-8.277517">
        <ele>368.315</ele>
        <time>2021-07-11T09:12:15Z</time>
      </trkpt>
      <trkpt lat="42.926360" lon="-8.277487">
        <ele>368.308</ele>
        <time>2021-07-11T09:12:16Z</time>
      </trkpt>
      <trkpt lat="42.926364" lon="-8.277461">
        <ele>368.361</ele>
        <time>2021-07-11T09:12:17Z</time>
      </trkpt>
      <trkpt lat="42.926422" lon="-8.277208">
        <ele>367.893</ele>
        <time>2021-07-11T09:12:25Z</time>
      </trkpt>
      <trkpt lat="42.926482" lon="-8.276972">
        <ele>368.840</ele>
        <time>2021-07-11T09:12:33Z</time>
      </trkpt>
      <trkpt lat="42.926495" lon="-8.276791">
        <ele>369.240</ele>
        <time>2021-07-11T09:12:40Z</time>
      </trkpt>
      <trkpt lat="42.926493" lon="-8.276472">
        <ele>370.294</ele>
        <time>2021-07-11T09:12:49Z</time>
      </trkpt>
      <trkpt lat="42.926482" lon="-8.276291">
        <ele>370.272</ele>
        <time>2021-07-11T09:12:54Z</time>
      </trkpt>
      <trkpt lat="42.926464" lon="-8.275983">
        <ele>371.289</ele>
        <time>2021-07-11T09:13:03Z</time>
      </trkpt>
      <trkpt lat="42.926452" lon="-8.275760">
        <ele>371.667</ele>
        <time>2021-07-11T09:13:09Z</time>
      </trkpt>
      <trkpt lat="42.926445" lon="-8.275481">
        <ele>372.129</ele>
        <time>2021-07-11T09:13:16Z</time>
      </trkpt>
      <trkpt lat="42.926377" lon="-8.275179">
        <ele>373.100</ele>
        <time>2021-07-11T09:13:25Z</time>
      </trkpt>
      <trkpt lat="42.926324" lon="-8.274992">
        <ele>373.620</ele>
        <time>2021-07-11T09:13:30Z</time>
      </trkpt>
      <trkpt lat="42.926249" lon="-8.274710">
        <ele>372.608</ele>
        <time>2021-07-11T09:13:37Z</time>
      </trkpt>
      <trkpt lat="42.926152" lon="-8.274409">
        <ele>374.099</ele>
        <time>2021-07-11T09:13:45Z</time>
      </trkpt>
      <trkpt lat="42.926072" lon="-8.274221">
        <ele>374.521</ele>
        <time>2021-07-11T09:13:52Z</time>
      </trkpt>
      <trkpt lat="42.926050" lon="-8.274214">
        <ele>374.048</ele>
        <time>2021-07-11T09:13:53Z</time>
      </trkpt>
      <trkpt lat="42.926020" lon="-8.274200">
        <ele>373.678</ele>
        <time>2021-07-11T09:13:54Z</time>
      </trkpt>
      <trkpt lat="42.925990" lon="-8.274175">
        <ele>373.622</ele>
        <time>2021-07-11T09:13:55Z</time>
      </trkpt>
      <trkpt lat="42.925965" lon="-8.274147">
        <ele>373.670</ele>
        <time>2021-07-11T09:13:56Z</time>
      </trkpt>
      <trkpt lat="42.925947" lon="-8.274119">
        <ele>373.697</ele>
        <time>2021-07-11T09:13:57Z</time>
      </trkpt>
      <trkpt lat="42.925927" lon="-8.274082">
        <ele>373.145</ele>
        <time>2021-07-11T09:13:58Z</time>
      </trkpt>
      <trkpt lat="42.925828" lon="-8.273871">
        <ele>373.635</ele>
        <time>2021-07-11T09:14:05Z</time>
      </trkpt>
      <trkpt lat="42.925725" lon="-8.273519">
        <ele>374.086</ele>
        <time>2021-07-11T09:14:14Z</time>
      </trkpt>
      <trkpt lat="42.925688" lon="-8.273280">
        <ele>376.414</ele>
        <time>2021-07-11T09:14:21Z</time>
      </trkpt>
      <trkpt lat="42.925637" lon="-8.273006">
        <ele>377.408</ele>
        <time>2021-07-11T09:14:28Z</time>
      </trkpt>
      <trkpt lat="42.925570" lon="-8.272733">
        <ele>377.950</ele>
        <time>2021-07-11T09:14:36Z</time>
      </trkpt>
      <trkpt lat="42.925511" lon="-8.272519">
        <ele>378.912</ele>
        <time>2021-07-11T09:14:43Z</time>
      </trkpt>
      <trkpt lat="42.925462" lon="-8.272233">
        <ele>376.969</ele>
        <time>2021-07-11T09:14:52Z</time>
      </trkpt>
      <trkpt lat="42.925433" lon="-8.272025">
        <ele>374.549</ele>
        <time>2021-07-11T09:14:58Z</time>
      </trkpt>
      <trkpt lat="42.925383" lon="-8.271774">
        <ele>373.693</ele>
        <time>2021-07-11T09:15:06Z</time>
      </trkpt>
      <trkpt lat="42.925356" lon="-8.271574">
        <ele>371.291</ele>
        <time>2021-07-11T09:15:12Z</time>
      </trkpt>
      <trkpt lat="42.925341" lon="-8.271430">
        <ele>370.758</ele>
        <time>2021-07-11T09:15:17Z</time>
      </trkpt>
      <trkpt lat="42.925329" lon="-8.271180">
        <ele>368.876</ele>
        <time>2021-07-11T09:15:24Z</time>
      </trkpt>
      <trkpt lat="42.925294" lon="-8.270924">
        <ele>368.332</ele>
        <time>2021-07-11T09:15:31Z</time>
      </trkpt>
      <trkpt lat="42.925257" lon="-8.270660">
        <ele>369.792</ele>
        <time>2021-07-11T09:15:37Z</time>
      </trkpt>
      <trkpt lat="42.925210" lon="-8.270410">
        <ele>370.211</ele>
        <time>2021-07-11T09:15:44Z</time>
      </trkpt>
      <trkpt lat="42.925166" lon="-8.270163">
        <ele>372.108</ele>
        <time>2021-07-11T09:15:51Z</time>
      </trkpt>
      <trkpt lat="42.925161" lon="-8.269933">
        <ele>373.180</ele>
        <time>2021-07-11T09:15:57Z</time>
      </trkpt>
      <trkpt lat="42.925118" lon="-8.269618">
        <ele>374.562</ele>
        <time>2021-07-11T09:16:04Z</time>
      </trkpt>
      <trkpt lat="42.925068" lon="-8.269387">
        <ele>375.049</ele>
        <time>2021-07-11T09:16:10Z</time>
      </trkpt>
      <trkpt lat="42.925006" lon="-8.269144">
        <ele>373.689</ele>
        <time>2021-07-11T09:16:18Z</time>
      </trkpt>
      <trkpt lat="42.924929" lon="-8.268927">
        <ele>373.633</ele>
        <time>2021-07-11T09:16:25Z</time>
      </trkpt>
      <trkpt lat="42.924756" lon="-8.268693">
        <ele>373.181</ele>
        <time>2021-07-11T09:16:34Z</time>
      </trkpt>
      <trkpt lat="42.924577" lon="-8.268586">
        <ele>372.638</ele>
        <time>2021-07-11T09:16:41Z</time>
      </trkpt>
      <trkpt lat="42.924404" lon="-8.268426">
        <ele>373.616</ele>
        <time>2021-07-11T09:16:48Z</time>
      </trkpt>
      <trkpt lat="42.924270" lon="-8.268269">
        <ele>371.623</ele>
        <time>2021-07-11T09:16:55Z</time>
      </trkpt>
      <trkpt lat="42.924160" lon="-8.268111">
        <ele>372.183</ele>
        <time>2021-07-11T09:17:02Z</time>
      </trkpt>
      <trkpt lat="42.924052" lon="-8.267954">
        <ele>374.511</ele>
        <time>2021-07-11T09:17:10Z</time>
      </trkpt>
      <trkpt lat="42.923950" lon="-8.267815">
        <ele>375.508</ele>
        <time>2021-07-11T09:17:17Z</time>
      </trkpt>
      <trkpt lat="42.923916" lon="-8.267759">
        <ele>375.569</ele>
        <time>2021-07-11T09:17:19Z</time>
      </trkpt>
      <trkpt lat="42.923803" lon="-8.267575">
        <ele>376.951</ele>
        <time>2021-07-11T09:17:26Z</time>
      </trkpt>
      <trkpt lat="42.923674" lon="-8.267289">
        <ele>377.458</ele>
        <time>2021-07-11T09:17:34Z</time>
      </trkpt>
      <trkpt lat="42.923593" lon="-8.267015">
        <ele>375.078</ele>
        <time>2021-07-11T09:17:42Z</time>
      </trkpt>
      <trkpt lat="42.923568" lon="-8.266756">
        <ele>372.652</ele>
        <time>2021-07-11T09:17:50Z</time>
      </trkpt>
      <trkpt lat="42.923561" lon="-8.266528">
        <ele>371.260</ele>
        <time>2021-07-11T09:17:58Z</time>
      </trkpt>
      <trkpt lat="42.923579" lon="-8.266306">
        <ele>372.117</ele>
        <time>2021-07-11T09:18:04Z</time>
      </trkpt>
      <trkpt lat="42.923612" lon="-8.265993">
        <ele>371.695</ele>
        <time>2021-07-11T09:18:12Z</time>
      </trkpt>
      <trkpt lat="42.923632" lon="-8.265756">
        <ele>373.636</ele>
        <time>2021-07-11T09:18:18Z</time>
      </trkpt>
      <trkpt lat="42.923638" lon="-8.265712">
        <ele>373.617</ele>
        <time>2021-07-11T09:18:19Z</time>
      </trkpt>
      <trkpt lat="42.923640" lon="-8.265673">
        <ele>374.018</ele>
        <time>2021-07-11T09:18:20Z</time>
      </trkpt>
      <trkpt lat="42.923640" lon="-8.265640">
        <ele>374.008</ele>
        <time>2021-07-11T09:18:21Z</time>
      </trkpt>
      <trkpt lat="42.923639" lon="-8.265606">
        <ele>374.550</ele>
        <time>2021-07-11T09:18:22Z</time>
      </trkpt>
      <trkpt lat="42.923637" lon="-8.265575">
        <ele>375.052</ele>
        <time>2021-07-11T09:18:23Z</time>
      </trkpt>
      <trkpt lat="42.923631" lon="-8.265544">
        <ele>375.519</ele>
        <time>2021-07-11T09:18:24Z</time>
      </trkpt>
      <trkpt lat="42.923621" lon="-8.265242">
        <ele>378.469</ele>
        <time>2021-07-11T09:18:31Z</time>
      </trkpt>
      <trkpt lat="42.923535" lon="-8.264956">
        <ele>375.513</ele>
        <time>2021-07-11T09:18:38Z</time>
      </trkpt>
      <trkpt lat="42.923440" lon="-8.264660">
        <ele>371.291</ele>
        <time>2021-07-11T09:18:46Z</time>
      </trkpt>
      <trkpt lat="42.923340" lon="-8.264291">
        <ele>369.218</ele>
        <time>2021-07-11T09:18:55Z</time>
      </trkpt>
      <trkpt lat="42.923275" lon="-8.263996">
        <ele>369.256</ele>
        <time>2021-07-11T09:19:02Z</time>
      </trkpt>
      <trkpt lat="42.923215" lon="-8.263657">
        <ele>367.884</ele>
        <time>2021-07-11T09:19:11Z</time>
      </trkpt>
      <trkpt lat="42.923131" lon="-8.263367">
        <ele>366.807</ele>
        <time>2021-07-11T09:19:19Z</time>
      </trkpt>
      <trkpt lat="42.923100" lon="-8.263150">
        <ele>366.417</ele>
        <time>2021-07-11T09:19:26Z</time>
      </trkpt>
      <trkpt lat="42.923038" lon="-8.262934">
        <ele>364.008</ele>
        <time>2021-07-11T09:19:36Z</time>
      </trkpt>
      <trkpt lat="42.923007" lon="-8.262840">
        <ele>363.095</ele>
        <time>2021-07-11T09:19:41Z</time>
      </trkpt>
      <trkpt lat="42.922969" lon="-8.262666">
        <ele>362.557</ele>
        <time>2021-07-11T09:19:48Z</time>
      </trkpt>
      <trkpt lat="42.922944" lon="-8.262507">
        <ele>361.174</ele>
        <time>2021-07-11T09:19:53Z</time>
      </trkpt>
      <trkpt lat="42.922902" lon="-8.262350">
        <ele>359.634</ele>
        <time>2021-07-11T09:19:59Z</time>
      </trkpt>
      <trkpt lat="42.922892" lon="-8.262334">
        <ele>359.628</ele>
        <time>2021-07-11T09:20:00Z</time>
      </trkpt>
      <trkpt lat="42.922886" lon="-8.262311">
        <ele>359.686</ele>
        <time>2021-07-11T09:20:01Z</time>
      </trkpt>
      <trkpt lat="42.922882" lon="-8.262285">
        <ele>360.193</ele>
        <time>2021-07-11T09:20:02Z</time>
      </trkpt>
      <trkpt lat="42.922876" lon="-8.262261">
        <ele>360.121</ele>
        <time>2021-07-11T09:20:03Z</time>
      </trkpt>
      <trkpt lat="42.922869" lon="-8.262240">
        <ele>360.146</ele>
        <time>2021-07-11T09:20:04Z</time>
      </trkpt>
      <trkpt lat="42.922861" lon="-8.262216">
        <ele>360.188</ele>
        <time>2021-07-11T09:20:05Z</time>
      </trkpt>
      <trkpt lat="42.922805" lon="-8.262076">
        <ele>361.516</ele>
        <time>2021-07-11T09:20:12Z</time>
      </trkpt>
      <trkpt lat="42.922757" lon="-8.262032">
        <ele>360.608</ele>
        <time>2021-07-11T09:20:15Z</time>
      </trkpt>
      <trkpt lat="42.922742" lon="-8.262013">
        <ele>360.151</ele>
        <time>2021-07-11T09:20:16Z</time>
      </trkpt>
      <trkpt lat="42.922638" lon="-8.261821">
        <ele>360.163</ele>
        <time>2021-07-11T09:20:24Z</time>
      </trkpt>
      <trkpt lat="42.922535" lon="-8.261561">
        <ele>367.360</ele>
        <time>2021-07-11T09:20:32Z</time>
      </trkpt>
      <trkpt lat="42.922518" lon="-8.261327">
        <ele>371.280</ele>
        <time>2021-07-11T09:20:40Z</time>
      </trkpt>
      <trkpt lat="42.922492" lon="-8.261103">
        <ele>372.674</ele>
        <time>2021-07-11T09:20:48Z</time>
      </trkpt>
      <trkpt lat="42.922466" lon="-8.260884">
        <ele>375.072</ele>
        <time>2021-07-11T09:20:56Z</time>
      </trkpt>
      <trkpt lat="42.922434" lon="-8.260668">
        <ele>376.969</ele>
        <time>2021-07-11T09:21:04Z</time>
      </trkpt>
      <trkpt lat="42.922427" lon="-8.260521">
        <ele>377.417</ele>
        <time>2021-07-11T09:21:10Z</time>
      </trkpt>
      <trkpt lat="42.922417" lon="-8.260405">
        <ele>376.965</ele>
        <time>2021-07-11T09:21:15Z</time>
      </trkpt>
      <trkpt lat="42.922386" lon="-8.260161">
        <ele>378.468</ele>
        <time>2021-07-11T09:21:24Z</time>
      </trkpt>
      <trkpt lat="42.922386" lon="-8.259942">
        <ele>378.414</ele>
        <time>2021-07-11T09:21:31Z</time>
      </trkpt>
      <trkpt lat="42.922381" lon="-8.259570">
        <ele>380.308</ele>
        <time>2021-07-11T09:21:41Z</time>
      </trkpt>
      <trkpt lat="42.922370" lon="-8.259257">
        <ele>382.283</ele>
        <time>2021-07-11T09:21:49Z</time>
      </trkpt>
      <trkpt lat="42.922378" lon="-8.259020">
        <ele>384.185</ele>
        <time>2021-07-11T09:21:56Z</time>
      </trkpt>
      <trkpt lat="42.922386" lon="-8.258876">
        <ele>384.122</ele>
        <time>2021-07-11T09:22:01Z</time>
      </trkpt>
      <trkpt lat="42.922408" lon="-8.258860">
        <ele>384.682</ele>
        <time>2021-07-11T09:22:02Z</time>
      </trkpt>
      <trkpt lat="42.922419" lon="-8.258848">
        <ele>385.196</ele>
        <time>2021-07-11T09:22:03Z</time>
      </trkpt>
      <trkpt lat="42.922437" lon="-8.258833">
        <ele>385.134</ele>
        <time>2021-07-11T09:22:04Z</time>
      </trkpt>
      <trkpt lat="42.922453" lon="-8.258811">
        <ele>385.121</ele>
        <time>2021-07-11T09:22:05Z</time>
      </trkpt>
      <trkpt lat="42.922461" lon="-8.258781">
        <ele>385.119</ele>
        <time>2021-07-11T09:22:06Z</time>
      </trkpt>
      <trkpt lat="42.922462" lon="-8.258742">
        <ele>385.183</ele>
        <time>2021-07-11T09:22:07Z</time>
      </trkpt>
      <trkpt lat="42.922460" lon="-8.258708">
        <ele>385.125</ele>
        <time>2021-07-11T09:22:08Z</time>
      </trkpt>
      <trkpt lat="42.922456" lon="-8.258665">
        <ele>385.117</ele>
        <time>2021-07-11T09:22:10Z</time>
      </trkpt>
      <trkpt lat="42.922441" lon="-8.258333">
        <ele>385.108</ele>
        <time>2021-07-11T09:22:18Z</time>
      </trkpt>
      <trkpt lat="42.922432" lon="-8.258074">
        <ele>385.115</ele>
        <time>2021-07-11T09:22:25Z</time>
      </trkpt>
      <trkpt lat="42.922389" lon="-8.257753">
        <ele>384.617</ele>
        <time>2021-07-11T09:22:34Z</time>
      </trkpt>
      <trkpt lat="42.922352" lon="-8.257433">
        <ele>384.614</ele>
        <time>2021-07-11T09:22:42Z</time>
      </trkpt>
      <trkpt lat="42.922298" lon="-8.257034">
        <ele>384.114</ele>
        <time>2021-07-11T09:22:51Z</time>
      </trkpt>
      <trkpt lat="42.922237" lon="-8.256776">
        <ele>383.788</ele>
        <time>2021-07-11T09:22:58Z</time>
      </trkpt>
      <trkpt lat="42.922120" lon="-8.256558">
        <ele>381.756</ele>
        <time>2021-07-11T09:23:05Z</time>
      </trkpt>
      <trkpt lat="42.922010" lon="-8.256300">
        <ele>380.363</ele>
        <time>2021-07-11T09:23:12Z</time>
      </trkpt>
      <trkpt lat="42.921905" lon="-8.256070">
        <ele>380.851</ele>
        <time>2021-07-11T09:23:20Z</time>
      </trkpt>
      <trkpt lat="42.921818" lon="-8.255871">
        <ele>383.752</ele>
        <time>2021-07-11T09:23:28Z</time>
      </trkpt>
      <trkpt lat="42.921708" lon="-8.255623">
        <ele>386.153</ele>
        <time>2021-07-11T09:23:37Z</time>
      </trkpt>
      <trkpt lat="42.921606" lon="-8.255310">
        <ele>387.508</ele>
        <time>2021-07-11T09:23:47Z</time>
      </trkpt>
      <trkpt lat="42.921569" lon="-8.255208">
        <ele>387.008</ele>
        <time>2021-07-11T09:23:51Z</time>
      </trkpt>
      <trkpt lat="42.921556" lon="-8.255193">
        <ele>386.522</ele>
        <time>2021-07-11T09:23:52Z</time>
      </trkpt>
      <trkpt lat="42.921545" lon="-8.255174">
        <ele>386.174</ele>
        <time>2021-07-11T09:23:53Z</time>
      </trkpt>
      <trkpt lat="42.921535" lon="-8.255150">
        <ele>386.111</ele>
        <time>2021-07-11T09:23:54Z</time>
      </trkpt>
      <trkpt lat="42.921526" lon="-8.255118">
        <ele>385.681</ele>
        <time>2021-07-11T09:23:55Z</time>
      </trkpt>
      <trkpt lat="42.921518" lon="-8.255083">
        <ele>385.695</ele>
        <time>2021-07-11T09:23:56Z</time>
      </trkpt>
      <trkpt lat="42.921414" lon="-8.254802">
        <ele>385.693</ele>
        <time>2021-07-11T09:24:03Z</time>
      </trkpt>
      <trkpt lat="42.921300" lon="-8.254551">
        <ele>386.110</ele>
        <time>2021-07-11T09:24:10Z</time>
      </trkpt>
      <trkpt lat="42.921204" lon="-8.254308">
        <ele>385.168</ele>
        <time>2021-07-11T09:24:16Z</time>
      </trkpt>
      <trkpt lat="42.921117" lon="-8.254049">
        <ele>384.679</ele>
        <time>2021-07-11T09:24:23Z</time>
      </trkpt>
      <trkpt lat="42.920964" lon="-8.253866">
        <ele>384.105</ele>
        <time>2021-07-11T09:24:29Z</time>
      </trkpt>
      <trkpt lat="42.920710" lon="-8.253536">
        <ele>382.225</ele>
        <time>2021-07-11T09:24:38Z</time>
      </trkpt>
      <trkpt lat="42.920519" lon="-8.253327">
        <ele>380.808</ele>
        <time>2021-07-11T09:24:44Z</time>
      </trkpt>
      <trkpt lat="42.920351" lon="-8.253207">
        <ele>379.884</ele>
        <time>2021-07-11T09:24:51Z</time>
      </trkpt>
      <trkpt lat="42.920163" lon="-8.253108">
        <ele>379.876</ele>
        <time>2021-07-11T09:24:58Z</time>
      </trkpt>
      <trkpt lat="42.920007" lon="-8.253015">
        <ele>379.843</ele>
        <time>2021-07-11T09:25:05Z</time>
      </trkpt>
      <trkpt lat="42.919849" lon="-8.252899">
        <ele>378.933</ele>
        <time>2021-07-11T09:25:12Z</time>
      </trkpt>
      <trkpt lat="42.919723" lon="-8.252781">
        <ele>376.067</ele>
        <time>2021-07-11T09:25:20Z</time>
      </trkpt>
      <trkpt lat="42.919637" lon="-8.252610">
        <ele>372.665</ele>
        <time>2021-07-11T09:25:28Z</time>
      </trkpt>
      <trkpt lat="42.919522" lon="-8.252406">
        <ele>369.762</ele>
        <time>2021-07-11T09:25:35Z</time>
      </trkpt>
      <trkpt lat="42.919425" lon="-8.252196">
        <ele>368.890</ele>
        <time>2021-07-11T09:25:41Z</time>
      </trkpt>
      <trkpt lat="42.919339" lon="-8.251980">
        <ele>367.833</ele>
        <time>2021-07-11T09:25:47Z</time>
      </trkpt>
      <trkpt lat="42.919203" lon="-8.251771">
        <ele>367.823</ele>
        <time>2021-07-11T09:25:55Z</time>
      </trkpt>
      <trkpt lat="42.919096" lon="-8.251578">
        <ele>365.915</ele>
        <time>2021-07-11T09:26:03Z</time>
      </trkpt>
      <trkpt lat="42.919001" lon="-8.251403">
        <ele>365.408</ele>
        <time>2021-07-11T09:26:10Z</time>
      </trkpt>
      <trkpt lat="42.918943" lon="-8.251288">
        <ele>366.430</ele>
        <time>2021-07-11T09:26:16Z</time>
      </trkpt>
      <trkpt lat="42.918890" lon="-8.251167">
        <ele>365.432</ele>
        <time>2021-07-11T09:26:24Z</time>
      </trkpt>
      <trkpt lat="42.918816" lon="-8.251013">
        <ele>364.449</ele>
        <time>2021-07-11T09:26:30Z</time>
      </trkpt>
      <trkpt lat="42.918763" lon="-8.250823">
        <ele>363.599</ele>
        <time>2021-07-11T09:26:37Z</time>
      </trkpt>
      <trkpt lat="42.918720" lon="-8.250555">
        <ele>363.033</ele>
        <time>2021-07-11T09:26:44Z</time>
      </trkpt>
      <trkpt lat="42.918641" lon="-8.250164">
        <ele>361.511</ele>
        <time>2021-07-11T09:26:52Z</time>
      </trkpt>
      <trkpt lat="42.918572" lon="-8.249797">
        <ele>360.638</ele>
        <time>2021-07-11T09:26:59Z</time>
      </trkpt>
      <trkpt lat="42.918523" lon="-8.249520">
        <ele>359.616</ele>
        <time>2021-07-11T09:27:05Z</time>
      </trkpt>
      <trkpt lat="42.918472" lon="-8.249226">
        <ele>359.164</ele>
        <time>2021-07-11T09:27:12Z</time>
      </trkpt>
      <trkpt lat="42.918399" lon="-8.248875">
        <ele>357.706</ele>
        <time>2021-07-11T09:27:19Z</time>
      </trkpt>
      <trkpt lat="42.918318" lon="-8.248505">
        <ele>355.816</ele>
        <time>2021-07-11T09:27:27Z</time>
      </trkpt>
      <trkpt lat="42.918253" lon="-8.248249">
        <ele>354.808</ele>
        <time>2021-07-11T09:27:33Z</time>
      </trkpt>
      <trkpt lat="42.918194" lon="-8.248011">
        <ele>353.983</ele>
        <time>2021-07-11T09:27:40Z</time>
      </trkpt>
      <trkpt lat="42.918162" lon="-8.247761">
        <ele>353.495</ele>
        <time>2021-07-11T09:27:48Z</time>
      </trkpt>
      <trkpt lat="42.918134" lon="-8.247510">
        <ele>351.532</ele>
        <time>2021-07-11T09:27:55Z</time>
      </trkpt>
      <trkpt lat="42.918109" lon="-8.247376">
        <ele>350.012</ele>
        <time>2021-07-11T09:28:02Z</time>
      </trkpt>
      <trkpt lat="42.918105" lon="-8.247342">
        <ele>349.586</ele>
        <time>2021-07-11T09:28:04Z</time>
      </trkpt>
      <trkpt lat="42.918087" lon="-8.247181">
        <ele>348.624</ele>
        <time>2021-07-11T09:28:10Z</time>
      </trkpt>
      <trkpt lat="42.918088" lon="-8.247150">
        <ele>348.621</ele>
        <time>2021-07-11T09:28:11Z</time>
      </trkpt>
      <trkpt lat="42.918085" lon="-8.247111">
        <ele>348.169</ele>
        <time>2021-07-11T09:28:12Z</time>
      </trkpt>
      <trkpt lat="42.918075" lon="-8.247071">
        <ele>347.647</ele>
        <time>2021-07-11T09:28:13Z</time>
      </trkpt>
      <trkpt lat="42.918066" lon="-8.247022">
        <ele>347.129</ele>
        <time>2021-07-11T09:28:14Z</time>
      </trkpt>
      <trkpt lat="42.918060" lon="-8.246979">
        <ele>347.121</ele>
        <time>2021-07-11T09:28:15Z</time>
      </trkpt>
      <trkpt lat="42.918056" lon="-8.246936">
        <ele>346.608</ele>
        <time>2021-07-11T09:28:16Z</time>
      </trkpt>
      <trkpt lat="42.918012" lon="-8.246654">
        <ele>344.751</ele>
        <time>2021-07-11T09:28:22Z</time>
      </trkpt>
      <trkpt lat="42.917959" lon="-8.246352">
        <ele>343.353</ele>
        <time>2021-07-11T09:28:28Z</time>
      </trkpt>
      <trkpt lat="42.917882" lon="-8.246101">
        <ele>341.830</ele>
        <time>2021-07-11T09:28:35Z</time>
      </trkpt>
      <trkpt lat="42.917798" lon="-8.245867">
        <ele>342.830</ele>
        <time>2021-07-11T09:28:43Z</time>
      </trkpt>
      <trkpt lat="42.917782" lon="-8.245829">
        <ele>343.314</ele>
        <time>2021-07-11T09:28:45Z</time>
      </trkpt>
      <trkpt lat="42.917769" lon="-8.245806">
        <ele>343.812</ele>
        <time>2021-07-11T09:28:47Z</time>
      </trkpt>
      <trkpt lat="42.917769" lon="-8.245783">
        <ele>343.899</ele>
        <time>2021-07-11T09:28:48Z</time>
      </trkpt>
      <trkpt lat="42.917767" lon="-8.245763">
        <ele>343.817</ele>
        <time>2021-07-11T09:28:49Z</time>
      </trkpt>
      <trkpt lat="42.917768" lon="-8.245747">
        <ele>343.885</ele>
        <time>2021-07-11T09:28:50Z</time>
      </trkpt>
      <trkpt lat="42.917774" lon="-8.245727">
        <ele>343.889</ele>
        <time>2021-07-11T09:28:51Z</time>
      </trkpt>
      <trkpt lat="42.917780" lon="-8.245704">
        <ele>343.817</ele>
        <time>2021-07-11T09:28:52Z</time>
      </trkpt>
      <trkpt lat="42.917782" lon="-8.245683">
        <ele>343.808</ele>
        <time>2021-07-11T09:28:53Z</time>
      </trkpt>
      <trkpt lat="42.917784" lon="-8.245657">
        <ele>343.865</ele>
        <time>2021-07-11T09:28:54Z</time>
      </trkpt>
      <trkpt lat="42.917787" lon="-8.245628">
        <ele>343.877</ele>
        <time>2021-07-11T09:28:55Z</time>
      </trkpt>
      <trkpt lat="42.917793" lon="-8.245422">
        <ele>343.884</ele>
        <time>2021-07-11T09:29:03Z</time>
      </trkpt>
      <trkpt lat="42.917814" lon="-8.245185">
        <ele>343.384</ele>
        <time>2021-07-11T09:29:12Z</time>
      </trkpt>
      <trkpt lat="42.917822" lon="-8.245064">
        <ele>344.718</ele>
        <time>2021-07-11T09:29:20Z</time>
      </trkpt>
      <trkpt lat="42.917827" lon="-8.244880">
        <ele>344.796</ele>
        <time>2021-07-11T09:29:27Z</time>
      </trkpt>
      <trkpt lat="42.917873" lon="-8.244672">
        <ele>343.363</ele>
        <time>2021-07-11T09:29:34Z</time>
      </trkpt>
      <trkpt lat="42.917924" lon="-8.244495">
        <ele>342.861</ele>
        <time>2021-07-11T09:29:40Z</time>
      </trkpt>
      <trkpt lat="42.917922" lon="-8.244473">
        <ele>342.856</ele>
        <time>2021-07-11T09:29:41Z</time>
      </trkpt>
      <trkpt lat="42.917919" lon="-8.244455">
        <ele>342.859</ele>
        <time>2021-07-11T09:29:42Z</time>
      </trkpt>
      <trkpt lat="42.917914" lon="-8.244452">
        <ele>343.314</ele>
        <time>2021-07-11T09:29:48Z</time>
      </trkpt>
      <trkpt lat="42.917901" lon="-8.244433">
        <ele>342.808</ele>
        <time>2021-07-11T09:29:55Z</time>
      </trkpt>
      <trkpt lat="42.917637" lon="-8.244513">
        <ele>340.482</ele>
        <time>2021-07-11T09:30:08Z</time>
      </trkpt>
      <trkpt lat="42.917611" lon="-8.244500">
        <ele>339.984</ele>
        <time>2021-07-11T09:30:11Z</time>
      </trkpt>
      <trkpt lat="42.917597" lon="-8.244437">
        <ele>339.421</ele>
        <time>2021-07-11T09:30:16Z</time>
      </trkpt>
      <trkpt lat="42.917601" lon="-8.244373">
        <ele>339.471</ele>
        <time>2021-07-11T09:30:23Z</time>
      </trkpt>
      <trkpt lat="42.917636" lon="-8.244258">
        <ele>339.925</ele>
        <time>2021-07-11T09:30:30Z</time>
      </trkpt>
      <trkpt lat="42.917669" lon="-8.243962">
        <ele>339.423</ele>
        <time>2021-07-11T09:30:42Z</time>
      </trkpt>
      <trkpt lat="42.917670" lon="-8.243846">
        <ele>339.030</ele>
        <time>2021-07-11T09:30:46Z</time>
      </trkpt>
      <trkpt lat="42.917663" lon="-8.243821">
        <ele>338.588</ele>
        <time>2021-07-11T09:30:47Z</time>
      </trkpt>
      <trkpt lat="42.917661" lon="-8.243799">
        <ele>338.522</ele>
        <time>2021-07-11T09:30:48Z</time>
      </trkpt>
      <trkpt lat="42.917673" lon="-8.243742">
        <ele>337.562</ele>
        <time>2021-07-11T09:30:51Z</time>
      </trkpt>
      <trkpt lat="42.917689" lon="-8.243715">
        <ele>338.008</ele>
        <time>2021-07-11T09:30:52Z</time>
      </trkpt>
      <trkpt lat="42.917703" lon="-8.243698">
        <ele>338.008</ele>
        <time>2021-07-11T09:30:53Z</time>
      </trkpt>
      <trkpt lat="42.917727" lon="-8.243690">
        <ele>338.589</ele>
        <time>2021-07-11T09:30:55Z</time>
      </trkpt>
      <trkpt lat="42.917879" lon="-8.243583">
        <ele>339.961</ele>
        <time>2021-07-11T09:31:03Z</time>
      </trkpt>
      <trkpt lat="42.917936" lon="-8.243481">
        <ele>341.478</ele>
        <time>2021-07-11T09:31:08Z</time>
      </trkpt>
      <trkpt lat="42.918043" lon="-8.243427">
        <ele>343.888</ele>
        <time>2021-07-11T09:31:14Z</time>
      </trkpt>
      <trkpt lat="42.918077" lon="-8.243408">
        <ele>344.242</ele>
        <time>2021-07-11T09:31:21Z</time>
      </trkpt>
      <trkpt lat="42.918175" lon="-8.243371">
        <ele>343.360</ele>
        <time>2021-07-11T09:31:29Z</time>
      </trkpt>
      <trkpt lat="42.918270" lon="-8.243278">
        <ele>343.837</ele>
        <time>2021-07-11T09:31:37Z</time>
      </trkpt>
      <trkpt lat="42.918283" lon="-8.243219">
        <ele>344.215</ele>
        <time>2021-07-11T09:31:45Z</time>
      </trkpt>
      <trkpt lat="42.918281" lon="-8.243233">
        <ele>346.261</ele>
        <time>2021-07-11T09:31:59Z</time>
      </trkpt>
      <trkpt lat="42.918279" lon="-8.243228">
        <ele>346.221</ele>
        <time>2021-07-11T09:32:17Z</time>
      </trkpt>
      <trkpt lat="42.918270" lon="-8.243216">
        <ele>346.213</ele>
        <time>2021-07-11T09:32:26Z</time>
      </trkpt>
      <trkpt lat="42.918262" lon="-8.243202">
        <ele>345.208</ele>
        <time>2021-07-11T09:32:35Z</time>
      </trkpt>
      <trkpt lat="42.918255" lon="-8.243200">
        <ele>345.263</ele>
        <time>2021-07-11T09:32:36Z</time>
      </trkpt>
      <trkpt lat="42.918207" lon="-8.243065">
        <ele>346.275</ele>
        <time>2021-07-11T09:32:43Z</time>
      </trkpt>
      <trkpt lat="42.918098" lon="-8.242953">
        <ele>347.692</ele>
        <time>2021-07-11T09:32:51Z</time>
      </trkpt>
      <trkpt lat="42.918073" lon="-8.242846">
        <ele>348.162</ele>
        <time>2021-07-11T09:32:59Z</time>
      </trkpt>
      <trkpt lat="42.918026" lon="-8.242722">
        <ele>349.566</ele>
        <time>2021-07-11T09:33:08Z</time>
      </trkpt>
      <trkpt lat="42.917992" lon="-8.242588">
        <ele>350.514</ele>
        <time>2021-07-11T09:33:17Z</time>
      </trkpt>
      <trkpt lat="42.917948" lon="-8.242485">
        <ele>350.581</ele>
        <time>2021-07-11T09:33:26Z</time>
      </trkpt>
      <trkpt lat="42.917937" lon="-8.242460">
        <ele>351.049</ele>
        <time>2021-07-11T09:33:28Z</time>
      </trkpt>
      <trkpt lat="42.917884" lon="-8.242347">
        <ele>351.068</ele>
        <time>2021-07-11T09:33:37Z</time>
      </trkpt>
      <trkpt lat="42.917868" lon="-8.242263">
        <ele>352.442</ele>
        <time>2021-07-11T09:33:43Z</time>
      </trkpt>
      <trkpt lat="42.917861" lon="-8.242114">
        <ele>353.426</ele>
        <time>2021-07-11T09:33:52Z</time>
      </trkpt>
      <trkpt lat="42.917818" lon="-8.241963">
        <ele>353.408</ele>
        <time>2021-07-11T09:34:01Z</time>
      </trkpt>
      <trkpt lat="42.917776" lon="-8.241825">
        <ele>355.853</ele>
        <time>2021-07-11T09:34:10Z</time>
      </trkpt>
      <trkpt lat="42.917757" lon="-8.241676">
        <ele>357.265</ele>
        <time>2021-07-11T09:34:20Z</time>
      </trkpt>
      <trkpt lat="42.917782" lon="-8.241509">
        <ele>358.732</ele>
        <time>2021-07-11T09:34:28Z</time>
      </trkpt>
      <trkpt lat="42.917866" lon="-8.241333">
        <ele>358.712</ele>
        <time>2021-07-11T09:34:36Z</time>
      </trkpt>
      <trkpt lat="42.917972" lon="-8.241120">
        <ele>357.256</ele>
        <time>2021-07-11T09:34:45Z</time>
      </trkpt>
      <trkpt lat="42.918055" lon="-8.240909">
        <ele>358.294</ele>
        <time>2021-07-11T09:34:54Z</time>
      </trkpt>
      <trkpt lat="42.918109" lon="-8.240706">
        <ele>359.651</ele>
        <time>2021-07-11T09:35:02Z</time>
      </trkpt>
      <trkpt lat="42.918172" lon="-8.240518">
        <ele>361.529</ele>
        <time>2021-07-11T09:35:09Z</time>
      </trkpt>
      <trkpt lat="42.918308" lon="-8.240359">
        <ele>362.548</ele>
        <time>2021-07-11T09:35:19Z</time>
      </trkpt>
      <trkpt lat="42.918412" lon="-8.240297">
        <ele>363.561</ele>
        <time>2021-07-11T09:35:26Z</time>
      </trkpt>
      <trkpt lat="42.918496" lon="-8.240208">
        <ele>364.017</ele>
        <time>2021-07-11T09:35:32Z</time>
      </trkpt>
      <trkpt lat="42.918583" lon="-8.240122">
        <ele>365.408</ele>
        <time>2021-07-11T09:35:39Z</time>
      </trkpt>
      <trkpt lat="42.918595" lon="-8.240116">
        <ele>365.911</ele>
        <time>2021-07-11T09:35:40Z</time>
      </trkpt>
      <trkpt lat="42.918608" lon="-8.240104">
        <ele>366.453</ele>
        <time>2021-07-11T09:35:46Z</time>
      </trkpt>
      <trkpt lat="42.918612" lon="-8.240105">
        <ele>368.360</ele>
        <time>2021-07-11T09:35:56Z</time>
      </trkpt>
      <trkpt lat="42.918615" lon="-8.240097">
        <ele>369.780</ele>
        <time>2021-07-11T09:36:13Z</time>
      </trkpt>
      <trkpt lat="42.918634" lon="-8.240047">
        <ele>369.234</ele>
        <time>2021-07-11T09:36:22Z</time>
      </trkpt>
      <trkpt lat="42.918727" lon="-8.239957">
        <ele>368.322</ele>
        <time>2021-07-11T09:36:29Z</time>
      </trkpt>
      <trkpt lat="42.918846" lon="-8.239823">
        <ele>369.779</ele>
        <time>2021-07-11T09:36:37Z</time>
      </trkpt>
      <trkpt lat="42.918917" lon="-8.239692">
        <ele>372.117</ele>
        <time>2021-07-11T09:36:45Z</time>
      </trkpt>
      <trkpt lat="42.918981" lon="-8.239560">
        <ele>375.047</ele>
        <time>2021-07-11T09:36:51Z</time>
      </trkpt>
      <trkpt lat="42.919046" lon="-8.239404">
        <ele>377.929</ele>
        <time>2021-07-11T09:36:58Z</time>
      </trkpt>
      <trkpt lat="42.919153" lon="-8.239231">
        <ele>378.421</ele>
        <time>2021-07-11T09:37:05Z</time>
      </trkpt>
      <trkpt lat="42.919229" lon="-8.239015">
        <ele>379.308</ele>
        <time>2021-07-11T09:37:14Z</time>
      </trkpt>
      <trkpt lat="42.919327" lon="-8.238800">
        <ele>379.841</ele>
        <time>2021-07-11T09:37:22Z</time>
      </trkpt>
      <trkpt lat="42.919404" lon="-8.238650">
        <ele>379.313</ele>
        <time>2021-07-11T09:37:29Z</time>
      </trkpt>
      <trkpt lat="42.919489" lon="-8.238490">
        <ele>379.810</ele>
        <time>2021-07-11T09:37:38Z</time>
      </trkpt>
      <trkpt lat="42.919494" lon="-8.238480">
        <ele>378.470</ele>
        <time>2021-07-11T09:37:49Z</time>
      </trkpt>
      <trkpt lat="42.919492" lon="-8.238474">
        <ele>377.944</ele>
        <time>2021-07-11T09:38:02Z</time>
      </trkpt>
      <trkpt lat="42.919509" lon="-8.238438">
        <ele>377.472</ele>
        <time>2021-07-11T09:38:09Z</time>
      </trkpt>
      <trkpt lat="42.919576" lon="-8.238264">
        <ele>376.949</ele>
        <time>2021-07-11T09:38:16Z</time>
      </trkpt>
      <trkpt lat="42.919580" lon="-8.238300">
        <ele>376.997</ele>
        <time>2021-07-11T09:38:21Z</time>
      </trkpt>
      <trkpt lat="42.919544" lon="-8.238419">
        <ele>376.957</ele>
        <time>2021-07-11T09:38:28Z</time>
      </trkpt>
      <trkpt lat="42.919556" lon="-8.238429">
        <ele>377.400</ele>
        <time>2021-07-11T09:38:45Z</time>
      </trkpt>
      <trkpt lat="42.919540" lon="-8.238388">
        <ele>376.920</ele>
        <time>2021-07-11T09:38:50Z</time>
      </trkpt>
      <trkpt lat="42.919611" lon="-8.238222">
        <ele>376.408</ele>
        <time>2021-07-11T09:38:57Z</time>
      </trkpt>
      <trkpt lat="42.919722" lon="-8.237932">
        <ele>377.422</ele>
        <time>2021-07-11T09:39:06Z</time>
      </trkpt>
      <trkpt lat="42.919760" lon="-8.237777">
        <ele>377.954</ele>
        <time>2021-07-11T09:39:12Z</time>
      </trkpt>
      <trkpt lat="42.919771" lon="-8.237754">
        <ele>377.961</ele>
        <time>2021-07-11T09:39:20Z</time>
      </trkpt>
      <trkpt lat="42.919788" lon="-8.237751">
        <ele>374.571</ele>
        <time>2021-07-11T09:39:40Z</time>
      </trkpt>
      <trkpt lat="42.919771" lon="-8.237755">
        <ele>374.515</ele>
        <time>2021-07-11T09:40:02Z</time>
      </trkpt>
      <trkpt lat="42.919779" lon="-8.237736">
        <ele>376.953</ele>
        <time>2021-07-11T09:40:22Z</time>
      </trkpt>
      <trkpt lat="42.919808" lon="-8.237678">
        <ele>376.950</ele>
        <time>2021-07-11T09:40:31Z</time>
      </trkpt>
      <trkpt lat="42.919933" lon="-8.237542">
        <ele>378.438</ele>
        <time>2021-07-11T09:40:39Z</time>
      </trkpt>
      <trkpt lat="42.920055" lon="-8.237460">
        <ele>379.343</ele>
        <time>2021-07-11T09:40:47Z</time>
      </trkpt>
      <trkpt lat="42.920143" lon="-8.237403">
        <ele>379.864</ele>
        <time>2021-07-11T09:40:54Z</time>
      </trkpt>
      <trkpt lat="42.920259" lon="-8.237299">
        <ele>381.310</ele>
        <time>2021-07-11T09:41:03Z</time>
      </trkpt>
      <trkpt lat="42.920327" lon="-8.237192">
        <ele>382.208</ele>
        <time>2021-07-11T09:41:10Z</time>
      </trkpt>
      <trkpt lat="42.920374" lon="-8.237045">
        <ele>385.121</ele>
        <time>2021-07-11T09:41:19Z</time>
      </trkpt>
      <trkpt lat="42.920397" lon="-8.236896">
        <ele>386.543</ele>
        <time>2021-07-11T09:41:27Z</time>
      </trkpt>
      <trkpt lat="42.920397" lon="-8.236872">
        <ele>386.540</ele>
        <time>2021-07-11T09:41:28Z</time>
      </trkpt>
      <trkpt lat="42.920396" lon="-8.236852">
        <ele>386.530</ele>
        <time>2021-07-11T09:41:29Z</time>
      </trkpt>
      <trkpt lat="42.920395" lon="-8.236830">
        <ele>387.014</ele>
        <time>2021-07-11T09:41:30Z</time>
      </trkpt>
      <trkpt lat="42.920394" lon="-8.236806">
        <ele>387.082</ele>
        <time>2021-07-11T09:41:31Z</time>
      </trkpt>
      <trkpt lat="42.920391" lon="-8.236782">
        <ele>387.059</ele>
        <time>2021-07-11T09:41:32Z</time>
      </trkpt>
      <trkpt lat="42.920391" lon="-8.236759">
        <ele>387.587</ele>
        <time>2021-07-11T09:41:33Z</time>
      </trkpt>
      <trkpt lat="42.920393" lon="-8.236736">
        <ele>388.049</ele>
        <time>2021-07-11T09:41:34Z</time>
      </trkpt>
      <trkpt lat="42.920396" lon="-8.236716">
        <ele>388.002</ele>
        <time>2021-07-11T09:41:35Z</time>
      </trkpt>
      <trkpt lat="42.920410" lon="-8.236612">
        <ele>390.422</ele>
        <time>2021-07-11T09:41:40Z</time>
      </trkpt>
      <trkpt lat="42.920411" lon="-8.236589">
        <ele>390.408</ele>
        <time>2021-07-11T09:41:41Z</time>
      </trkpt>
      <trkpt lat="42.920416" lon="-8.236500">
        <ele>390.491</ele>
        <time>2021-07-11T09:41:45Z</time>
      </trkpt>
      <trkpt lat="42.920419" lon="-8.236478">
        <ele>390.443</ele>
        <time>2021-07-11T09:41:46Z</time>
      </trkpt>
      <trkpt lat="42.920416" lon="-8.236453">
        <ele>390.420</ele>
        <time>2021-07-11T09:41:47Z</time>
      </trkpt>
      <trkpt lat="42.920393" lon="-8.236267">
        <ele>392.320</ele>
        <time>2021-07-11T09:41:55Z</time>
      </trkpt>
      <trkpt lat="42.920393" lon="-8.236248">
        <ele>392.334</ele>
        <time>2021-07-11T09:41:56Z</time>
      </trkpt>
      <trkpt lat="42.920389" lon="-8.236230">
        <ele>393.322</ele>
        <time>2021-07-11T09:41:57Z</time>
      </trkpt>
      <trkpt lat="42.920386" lon="-8.236212">
        <ele>393.879</ele>
        <time>2021-07-11T09:41:58Z</time>
      </trkpt>
      <trkpt lat="42.920383" lon="-8.236189">
        <ele>394.287</ele>
        <time>2021-07-11T09:41:59Z</time>
      </trkpt>
      <trkpt lat="42.920384" lon="-8.236168">
        <ele>394.274</ele>
        <time>2021-07-11T09:42:00Z</time>
      </trkpt>
      <trkpt lat="42.920386" lon="-8.236143">
        <ele>394.756</ele>
        <time>2021-07-11T09:42:01Z</time>
      </trkpt>
      <trkpt lat="42.920388" lon="-8.236124">
        <ele>395.221</ele>
        <time>2021-07-11T09:42:02Z</time>
      </trkpt>
      <trkpt lat="42.920387" lon="-8.236103">
        <ele>395.208</ele>
        <time>2021-07-11T09:42:03Z</time>
      </trkpt>
      <trkpt lat="42.920385" lon="-8.236083">
        <ele>395.724</ele>
        <time>2021-07-11T09:42:04Z</time>
      </trkpt>
      <trkpt lat="42.920383" lon="-8.235891">
        <ele>397.126</ele>
        <time>2021-07-11T09:42:12Z</time>
      </trkpt>
      <trkpt lat="42.920392" lon="-8.235734">
        <ele>399.093</ele>
        <time>2021-07-11T09:42:19Z</time>
      </trkpt>
      <trkpt lat="42.920420" lon="-8.235580">
        <ele>399.023</ele>
        <time>2021-07-11T09:42:27Z</time>
      </trkpt>
      <trkpt lat="42.920485" lon="-8.235418">
        <ele>399.087</ele>
        <time>2021-07-11T09:42:35Z</time>
      </trkpt>
      <trkpt lat="42.920569" lon="-8.235249">
        <ele>398.145</ele>
        <time>2021-07-11T09:42:41Z</time>
      </trkpt>
      <trkpt lat="42.920630" lon="-8.235096">
        <ele>398.172</ele>
        <time>2021-07-11T09:42:47Z</time>
      </trkpt>
      <trkpt lat="42.920640" lon="-8.235037">
        <ele>398.130</ele>
        <time>2021-07-11T09:42:53Z</time>
      </trkpt>
      <trkpt lat="42.920676" lon="-8.234954">
        <ele>398.191</ele>
        <time>2021-07-11T09:43:04Z</time>
      </trkpt>
      <trkpt lat="42.920743" lon="-8.234755">
        <ele>400.581</ele>
        <time>2021-07-11T09:43:12Z</time>
      </trkpt>
      <trkpt lat="42.920781" lon="-8.234523">
        <ele>401.919</ele>
        <time>2021-07-11T09:43:20Z</time>
      </trkpt>
      <trkpt lat="42.920783" lon="-8.234420">
        <ele>402.408</ele>
        <time>2021-07-11T09:43:24Z</time>
      </trkpt>
      <trkpt lat="42.920778" lon="-8.234395">
        <ele>402.916</ele>
        <time>2021-07-11T09:43:26Z</time>
      </trkpt>
      <trkpt lat="42.920785" lon="-8.234243">
        <ele>405.838</ele>
        <time>2021-07-11T09:43:32Z</time>
      </trkpt>
      <trkpt lat="42.920840" lon="-8.234048">
        <ele>406.755</ele>
        <time>2021-07-11T09:43:38Z</time>
      </trkpt>
      <trkpt lat="42.920846" lon="-8.234018">
        <ele>407.215</ele>
        <time>2021-07-11T09:43:39Z</time>
      </trkpt>
      <trkpt lat="42.920924" lon="-8.233755">
        <ele>410.619</ele>
        <time>2021-07-11T09:43:48Z</time>
      </trkpt>
      <trkpt lat="42.921032" lon="-8.233516">
        <ele>412.017</ele>
        <time>2021-07-11T09:43:56Z</time>
      </trkpt>
      <trkpt lat="42.921110" lon="-8.233372">
        <ele>413.984</ele>
        <time>2021-07-11T09:44:02Z</time>
      </trkpt>
      <trkpt lat="42.921195" lon="-8.233189">
        <ele>415.472</ele>
        <time>2021-07-11T09:44:09Z</time>
      </trkpt>
      <trkpt lat="42.921274" lon="-8.233006">
        <ele>415.929</ele>
        <time>2021-07-11T09:44:15Z</time>
      </trkpt>
      <trkpt lat="42.921401" lon="-8.232745">
        <ele>415.400</ele>
        <time>2021-07-11T09:44:22Z</time>
      </trkpt>
      <trkpt lat="42.921512" lon="-8.232553">
        <ele>414.420</ele>
        <time>2021-07-11T09:44:28Z</time>
      </trkpt>
      <trkpt lat="42.921724" lon="-8.232179">
        <ele>410.608</ele>
        <time>2021-07-11T09:44:37Z</time>
      </trkpt>
      <trkpt lat="42.921838" lon="-8.231919">
        <ele>409.199</ele>
        <time>2021-07-11T09:44:45Z</time>
      </trkpt>
      <trkpt lat="42.921916" lon="-8.231731">
        <ele>410.111</ele>
        <time>2021-07-11T09:44:52Z</time>
      </trkpt>
      <trkpt lat="42.921991" lon="-8.231588">
        <ele>411.548</ele>
        <time>2021-07-11T09:44:59Z</time>
      </trkpt>
      <trkpt lat="42.922057" lon="-8.231398">
        <ele>411.538</ele>
        <time>2021-07-11T09:45:07Z</time>
      </trkpt>
      <trkpt lat="42.922109" lon="-8.231212">
        <ele>412.532</ele>
        <time>2021-07-11T09:45:14Z</time>
      </trkpt>
      <trkpt lat="42.922187" lon="-8.230933">
        <ele>410.690</ele>
        <time>2021-07-11T09:45:23Z</time>
      </trkpt>
      <trkpt lat="42.922231" lon="-8.230753">
        <ele>409.627</ele>
        <time>2021-07-11T09:45:31Z</time>
      </trkpt>
      <trkpt lat="42.922307" lon="-8.230489">
        <ele>410.135</ele>
        <time>2021-07-11T09:45:42Z</time>
      </trkpt>
      <trkpt lat="42.922362" lon="-8.230315">
        <ele>411.134</ele>
        <time>2021-07-11T09:45:50Z</time>
      </trkpt>
      <trkpt lat="42.922424" lon="-8.230138">
        <ele>411.155</ele>
        <time>2021-07-11T09:45:57Z</time>
      </trkpt>
      <trkpt lat="42.922493" lon="-8.229961">
        <ele>410.110</ele>
        <time>2021-07-11T09:46:03Z</time>
      </trkpt>
      <trkpt lat="42.922550" lon="-8.229794">
        <ele>409.108</ele>
        <time>2021-07-11T09:46:08Z</time>
      </trkpt>
      <trkpt lat="42.922635" lon="-8.229535">
        <ele>409.150</ele>
        <time>2021-07-11T09:46:16Z</time>
      </trkpt>
      <trkpt lat="42.922689" lon="-8.229333">
        <ele>408.792</ele>
        <time>2021-07-11T09:46:23Z</time>
      </trkpt>
      <trkpt lat="42.922762" lon="-8.229163">
        <ele>407.229</ele>
        <time>2021-07-11T09:46:31Z</time>
      </trkpt>
      <trkpt lat="42.922829" lon="-8.229031">
        <ele>406.269</ele>
        <time>2021-07-11T09:46:37Z</time>
      </trkpt>
      <trkpt lat="42.922901" lon="-8.228893">
        <ele>405.813</ele>
        <time>2021-07-11T09:46:42Z</time>
      </trkpt>
      <trkpt lat="42.923092" lon="-8.228648">
        <ele>402.951</ele>
        <time>2021-07-11T09:46:48Z</time>
      </trkpt>
      <trkpt lat="42.923274" lon="-8.228408">
        <ele>399.578</ele>
        <time>2021-07-11T09:46:54Z</time>
      </trkpt>
      <trkpt lat="42.923427" lon="-8.228150">
        <ele>397.656</ele>
        <time>2021-07-11T09:47:00Z</time>
      </trkpt>
      <trkpt lat="42.923522" lon="-8.227906">
        <ele>396.261</ele>
        <time>2021-07-11T09:47:05Z</time>
      </trkpt>
      <trkpt lat="42.923657" lon="-8.227630">
        <ele>397.121</ele>
        <time>2021-07-11T09:47:13Z</time>
      </trkpt>
      <trkpt lat="42.923795" lon="-8.227364">
        <ele>397.613</ele>
        <time>2021-07-11T09:47:20Z</time>
      </trkpt>
      <trkpt lat="42.923915" lon="-8.227105">
        <ele>396.208</ele>
        <time>2021-07-11T09:47:28Z</time>
      </trkpt>
      <trkpt lat="42.924083" lon="-8.226867">
        <ele>394.713</ele>
        <time>2021-07-11T09:47:37Z</time>
      </trkpt>
      <trkpt lat="42.924288" lon="-8.226659">
        <ele>393.315</ele>
        <time>2021-07-11T09:47:46Z</time>
      </trkpt>
      <trkpt lat="42.924511" lon="-8.226411">
        <ele>392.372</ele>
        <time>2021-07-11T09:47:56Z</time>
      </trkpt>
      <trkpt lat="42.924616" lon="-8.226185">
        <ele>393.382</ele>
        <time>2021-07-11T09:48:03Z</time>
      </trkpt>
      <trkpt lat="42.924717" lon="-8.225986">
        <ele>393.316</ele>
        <time>2021-07-11T09:48:09Z</time>
      </trkpt>
      <trkpt lat="42.924820" lon="-8.225747">
        <ele>394.224</ele>
        <time>2021-07-11T09:48:17Z</time>
      </trkpt>
      <trkpt lat="42.924880" lon="-8.225596">
        <ele>393.321</ele>
        <time>2021-07-11T09:48:23Z</time>
      </trkpt>
      <trkpt lat="42.924952" lon="-8.225373">
        <ele>391.879</ele>
        <time>2021-07-11T09:48:30Z</time>
      </trkpt>
      <trkpt lat="42.925106" lon="-8.224963">
        <ele>392.337</ele>
        <time>2021-07-11T09:48:41Z</time>
      </trkpt>
      <trkpt lat="42.925254" lon="-8.224586">
        <ele>392.349</ele>
        <time>2021-07-11T09:48:51Z</time>
      </trkpt>
      <trkpt lat="42.925380" lon="-8.224346">
        <ele>392.813</ele>
        <time>2021-07-11T09:48:59Z</time>
      </trkpt>
      <trkpt lat="42.925500" lon="-8.224112">
        <ele>394.208</ele>
        <time>2021-07-11T09:49:09Z</time>
      </trkpt>
      <trkpt lat="42.925562" lon="-8.223954">
        <ele>394.720</ele>
        <time>2021-07-11T09:49:15Z</time>
      </trkpt>
      <trkpt lat="42.925638" lon="-8.223731">
        <ele>394.752</ele>
        <time>2021-07-11T09:49:22Z</time>
      </trkpt>
      <trkpt lat="42.925785" lon="-8.223301">
        <ele>393.839</ele>
        <time>2021-07-11T09:49:32Z</time>
      </trkpt>
      <trkpt lat="42.925907" lon="-8.222824">
        <ele>393.849</ele>
        <time>2021-07-11T09:49:42Z</time>
      </trkpt>
      <trkpt lat="42.925900" lon="-8.222636">
        <ele>393.373</ele>
        <time>2021-07-11T09:49:45Z</time>
      </trkpt>
      <trkpt lat="42.925891" lon="-8.222205">
        <ele>392.371</ele>
        <time>2021-07-11T09:49:53Z</time>
      </trkpt>
      <trkpt lat="42.925941" lon="-8.221923">
        <ele>391.368</ele>
        <time>2021-07-11T09:50:00Z</time>
      </trkpt>
      <trkpt lat="42.926027" lon="-8.221589">
        <ele>390.466</ele>
        <time>2021-07-11T09:50:08Z</time>
      </trkpt>
      <trkpt lat="42.926122" lon="-8.221244">
        <ele>387.525</ele>
        <time>2021-07-11T09:50:15Z</time>
      </trkpt>
      <trkpt lat="42.926257" lon="-8.220778">
        <ele>386.526</ele>
        <time>2021-07-11T09:50:24Z</time>
      </trkpt>
      <trkpt lat="42.926351" lon="-8.220445">
        <ele>387.508</ele>
        <time>2021-07-11T09:50:32Z</time>
      </trkpt>
      <trkpt lat="42.926451" lon="-8.220113">
        <ele>386.508</ele>
        <time>2021-07-11T09:50:42Z</time>
      </trkpt>
      <trkpt lat="42.926532" lon="-8.219863">
        <ele>385.679</ele>
        <time>2021-07-11T09:50:50Z</time>
      </trkpt>
      <trkpt lat="42.926604" lon="-8.219593">
        <ele>385.141</ele>
        <time>2021-07-11T09:50:58Z</time>
      </trkpt>
      <trkpt lat="42.926677" lon="-8.219269">
        <ele>385.148</ele>
        <time>2021-07-11T09:51:05Z</time>
      </trkpt>
      <trkpt lat="42.926731" lon="-8.219037">
        <ele>386.538</ele>
        <time>2021-07-11T09:51:12Z</time>
      </trkpt>
      <trkpt lat="42.926781" lon="-8.218824">
        <ele>387.532</ele>
        <time>2021-07-11T09:51:19Z</time>
      </trkpt>
      <trkpt lat="42.926827" lon="-8.218639">
        <ele>387.510</ele>
        <time>2021-07-11T09:51:25Z</time>
      </trkpt>
      <trkpt lat="42.926883" lon="-8.218419">
        <ele>389.467</ele>
        <time>2021-07-11T09:51:32Z</time>
      </trkpt>
      <trkpt lat="42.926957" lon="-8.218181">
        <ele>393.835</ele>
        <time>2021-07-11T09:51:41Z</time>
      </trkpt>
      <trkpt lat="42.926989" lon="-8.218102">
        <ele>394.781</ele>
        <time>2021-07-11T09:51:44Z</time>
      </trkpt>
      <trkpt lat="42.927004" lon="-8.218084">
        <ele>395.261</ele>
        <time>2021-07-11T09:51:45Z</time>
      </trkpt>
      <trkpt lat="42.927021" lon="-8.218067">
        <ele>395.217</ele>
        <time>2021-07-11T09:51:46Z</time>
      </trkpt>
      <trkpt lat="42.927040" lon="-8.218054">
        <ele>395.208</ele>
        <time>2021-07-11T09:51:47Z</time>
      </trkpt>
      <trkpt lat="42.927062" lon="-8.218039">
        <ele>395.225</ele>
        <time>2021-07-11T09:51:48Z</time>
      </trkpt>
      <trkpt lat="42.927082" lon="-8.218023">
        <ele>395.287</ele>
        <time>2021-07-11T09:51:49Z</time>
      </trkpt>
      <trkpt lat="42.927101" lon="-8.218007">
        <ele>395.234</ele>
        <time>2021-07-11T09:51:50Z</time>
      </trkpt>
      <trkpt lat="42.927212" lon="-8.217825">
        <ele>395.234</ele>
        <time>2021-07-11T09:51:58Z</time>
      </trkpt>
      <trkpt lat="42.927297" lon="-8.217639">
        <ele>395.788</ele>
        <time>2021-07-11T09:52:06Z</time>
      </trkpt>
      <trkpt lat="42.927411" lon="-8.217350">
        <ele>398.126</ele>
        <time>2021-07-11T09:52:17Z</time>
      </trkpt>
      <trkpt lat="42.927527" lon="-8.217046">
        <ele>400.023</ele>
        <time>2021-07-11T09:52:29Z</time>
      </trkpt>
      <trkpt lat="42.927666" lon="-8.216701">
        <ele>401.991</ele>
        <time>2021-07-11T09:52:42Z</time>
      </trkpt>
      <trkpt lat="42.927754" lon="-8.216473">
        <ele>402.977</ele>
        <time>2021-07-11T09:52:51Z</time>
      </trkpt>
      <trkpt lat="42.927835" lon="-8.216271">
        <ele>403.861</ele>
        <time>2021-07-11T09:52:58Z</time>
      </trkpt>
      <trkpt lat="42.927949" lon="-8.215983">
        <ele>405.327</ele>
        <time>2021-07-11T09:53:09Z</time>
      </trkpt>
      <trkpt lat="42.928029" lon="-8.215757">
        <ele>406.208</ele>
        <time>2021-07-11T09:53:17Z</time>
      </trkpt>
      <trkpt lat="42.928102" lon="-8.215580">
        <ele>406.244</ele>
        <time>2021-07-11T09:53:24Z</time>
      </trkpt>
      <trkpt lat="42.928192" lon="-8.215398">
        <ele>408.776</ele>
        <time>2021-07-11T09:53:32Z</time>
      </trkpt>
      <trkpt lat="42.928246" lon="-8.215248">
        <ele>409.173</ele>
        <time>2021-07-11T09:53:39Z</time>
      </trkpt>
      <trkpt lat="42.928311" lon="-8.215093">
        <ele>409.173</ele>
        <time>2021-07-11T09:53:46Z</time>
      </trkpt>
      <trkpt lat="42.928391" lon="-8.214845">
        <ele>410.197</ele>
        <time>2021-07-11T09:53:54Z</time>
      </trkpt>
      <trkpt lat="42.928446" lon="-8.214719">
        <ele>409.675</ele>
        <time>2021-07-11T09:54:01Z</time>
      </trkpt>
      <trkpt lat="42.928528" lon="-8.214592">
        <ele>409.182</ele>
        <time>2021-07-11T09:54:09Z</time>
      </trkpt>
      <trkpt lat="42.928532" lon="-8.214549">
        <ele>408.740</ele>
        <time>2021-07-11T09:54:17Z</time>
      </trkpt>
      <trkpt lat="42.928545" lon="-8.214529">
        <ele>408.743</ele>
        <time>2021-07-11T09:54:21Z</time>
      </trkpt>
      <trkpt lat="42.928584" lon="-8.214484">
        <ele>408.764</ele>
        <time>2021-07-11T09:54:29Z</time>
      </trkpt>
      <trkpt lat="42.928584" lon="-8.214505">
        <ele>410.110</ele>
        <time>2021-07-11T09:54:35Z</time>
      </trkpt>
      <trkpt lat="42.928564" lon="-8.214560">
        <ele>411.508</ele>
        <time>2021-07-11T09:54:41Z</time>
      </trkpt>
      <trkpt lat="42.928567" lon="-8.214577">
        <ele>411.141</ele>
        <time>2021-07-11T09:54:42Z</time>
      </trkpt>
      <trkpt lat="42.928572" lon="-8.214598">
        <ele>411.193</ele>
        <time>2021-07-11T09:54:43Z</time>
      </trkpt>
      <trkpt lat="42.928571" lon="-8.214615">
        <ele>411.120</ele>
        <time>2021-07-11T09:54:44Z</time>
      </trkpt>
      <trkpt lat="42.928568" lon="-8.214629">
        <ele>411.130</ele>
        <time>2021-07-11T09:54:45Z</time>
      </trkpt>
      <trkpt lat="42.928562" lon="-8.214641">
        <ele>411.164</ele>
        <time>2021-07-11T09:54:46Z</time>
      </trkpt>
      <trkpt lat="42.928538" lon="-8.214673">
        <ele>410.122</ele>
        <time>2021-07-11T09:54:52Z</time>
      </trkpt>
      <trkpt lat="42.928533" lon="-8.214677">
        <ele>409.159</ele>
        <time>2021-07-11T09:55:10Z</time>
      </trkpt>
      <trkpt lat="42.928528" lon="-8.214665">
        <ele>407.227</ele>
        <time>2021-07-11T09:55:27Z</time>
      </trkpt>
      <trkpt lat="42.928533" lon="-8.214669">
        <ele>406.772</ele>
        <time>2021-07-11T09:55:42Z</time>
      </trkpt>
      <trkpt lat="42.928542" lon="-8.214671">
        <ele>407.713</ele>
        <time>2021-07-11T09:56:03Z</time>
      </trkpt>
      <trkpt lat="42.928548" lon="-8.214651">
        <ele>409.114</ele>
        <time>2021-07-11T09:56:27Z</time>
      </trkpt>
      <trkpt lat="42.928534" lon="-8.214678">
        <ele>410.108</ele>
        <time>2021-07-11T09:56:47Z</time>
      </trkpt>
      <trkpt lat="42.928531" lon="-8.214678">
        <ele>410.144</ele>
        <time>2021-07-11T09:57:02Z</time>
      </trkpt>
      <trkpt lat="42.928529" lon="-8.214672">
        <ele>408.216</ele>
        <time>2021-07-11T09:57:22Z</time>
      </trkpt>
      <trkpt lat="42.928531" lon="-8.214669">
        <ele>407.773</ele>
        <time>2021-07-11T09:57:39Z</time>
      </trkpt>
      <trkpt lat="42.928518" lon="-8.214676">
        <ele>405.863</ele>
        <time>2021-07-11T09:57:53Z</time>
      </trkpt>
      <trkpt lat="42.928518" lon="-8.214682">
        <ele>403.867</ele>
        <time>2021-07-11T09:58:07Z</time>
      </trkpt>
      <trkpt lat="42.928532" lon="-8.214680">
        <ele>403.415</ele>
        <time>2021-07-11T09:58:19Z</time>
      </trkpt>
      <trkpt lat="42.928540" lon="-8.214672">
        <ele>405.852</ele>
        <time>2021-07-11T09:58:38Z</time>
      </trkpt>
      <trkpt lat="42.928533" lon="-8.214663">
        <ele>406.260</ele>
        <time>2021-07-11T09:58:55Z</time>
      </trkpt>
      <trkpt lat="42.928533" lon="-8.214665">
        <ele>405.839</ele>
        <time>2021-07-11T09:59:11Z</time>
      </trkpt>
      <trkpt lat="42.928531" lon="-8.214671">
        <ele>406.201</ele>
        <time>2021-07-11T09:59:24Z</time>
      </trkpt>
      <trkpt lat="42.928549" lon="-8.214674">
        <ele>406.221</ele>
        <time>2021-07-11T09:59:40Z</time>
      </trkpt>
      <trkpt lat="42.928538" lon="-8.214672">
        <ele>406.208</ele>
        <time>2021-07-11T09:59:54Z</time>
      </trkpt>
      <trkpt lat="42.928542" lon="-8.214667">
        <ele>406.240</ele>
        <time>2021-07-11T10:00:14Z</time>
      </trkpt>
      <trkpt lat="42.928557" lon="-8.214702">
        <ele>406.282</ele>
        <time>2021-07-11T10:00:33Z</time>
      </trkpt>
      <trkpt lat="42.928550" lon="-8.214697">
        <ele>403.819</ele>
        <time>2021-07-11T10:00:46Z</time>
      </trkpt>
      <trkpt lat="42.928528" lon="-8.214688">
        <ele>403.439</ele>
        <time>2021-07-11T10:00:58Z</time>
      </trkpt>
      <trkpt lat="42.928528" lon="-8.214701">
        <ele>404.893</ele>
        <time>2021-07-11T10:01:10Z</time>
      </trkpt>
      <trkpt lat="42.928533" lon="-8.214702">
        <ele>405.311</ele>
        <time>2021-07-11T10:01:22Z</time>
      </trkpt>
      <trkpt lat="42.928559" lon="-8.214697">
        <ele>406.288</ele>
        <time>2021-07-11T10:01:38Z</time>
      </trkpt>
      <trkpt lat="42.928557" lon="-8.214641">
        <ele>404.376</ele>
        <time>2021-07-11T10:01:58Z</time>
      </trkpt>
      <trkpt lat="42.928526" lon="-8.214647">
        <ele>405.871</ele>
        <time>2021-07-11T10:02:13Z</time>
      </trkpt>
      <trkpt lat="42.928523" lon="-8.214662">
        <ele>405.341</ele>
        <time>2021-07-11T10:02:30Z</time>
      </trkpt>
      <trkpt lat="42.928541" lon="-8.214676">
        <ele>404.815</ele>
        <time>2021-07-11T10:02:47Z</time>
      </trkpt>
      <trkpt lat="42.928542" lon="-8.214658">
        <ele>403.808</ele>
        <time>2021-07-11T10:03:08Z</time>
      </trkpt>
      <trkpt lat="42.928568" lon="-8.214675">
        <ele>404.884</ele>
        <time>2021-07-11T10:03:24Z</time>
      </trkpt>
      <trkpt lat="42.928567" lon="-8.214645">
        <ele>406.236</ele>
        <time>2021-07-11T10:03:46Z</time>
      </trkpt>
      <trkpt lat="42.928554" lon="-8.214632">
        <ele>406.723</ele>
        <time>2021-07-11T10:04:01Z</time>
      </trkpt>
      <trkpt lat="42.928556" lon="-8.214647">
        <ele>406.233</ele>
        <time>2021-07-11T10:04:21Z</time>
      </trkpt>
      <trkpt lat="42.928555" lon="-8.214682">
        <ele>404.367</ele>
        <time>2021-07-11T10:04:46Z</time>
      </trkpt>
      <trkpt lat="42.928547" lon="-8.214682">
        <ele>403.475</ele>
        <time>2021-07-11T10:05:02Z</time>
      </trkpt>
      <trkpt lat="42.928538" lon="-8.214668">
        <ele>405.882</ele>
        <time>2021-07-11T10:05:23Z</time>
      </trkpt>
      <trkpt lat="42.928538" lon="-8.214671">
        <ele>407.760</ele>
        <time>2021-07-11T10:05:44Z</time>
      </trkpt>
      <trkpt lat="42.928546" lon="-8.214666">
        <ele>408.745</ele>
        <time>2021-07-11T10:06:06Z</time>
      </trkpt>
      <trkpt lat="42.928554" lon="-8.214651">
        <ele>406.747</ele>
        <time>2021-07-11T10:06:25Z</time>
      </trkpt>
      <trkpt lat="42.928549" lon="-8.214667">
        <ele>406.211</ele>
        <time>2021-07-11T10:06:40Z</time>
      </trkpt>
      <trkpt lat="42.928540" lon="-8.214675">
        <ele>403.808</ele>
        <time>2021-07-11T10:07:00Z</time>
      </trkpt>
      <trkpt lat="42.928531" lon="-8.214696">
        <ele>402.481</ele>
        <time>2021-07-11T10:07:18Z</time>
      </trkpt>
      <trkpt lat="42.928542" lon="-8.214709">
        <ele>402.973</ele>
        <time>2021-07-11T10:07:32Z</time>
      </trkpt>
      <trkpt lat="42.928537" lon="-8.214683">
        <ele>402.480</ele>
        <time>2021-07-11T10:07:51Z</time>
      </trkpt>
      <trkpt lat="42.928538" lon="-8.214655">
        <ele>405.840</ele>
        <time>2021-07-11T10:08:13Z</time>
      </trkpt>
      <trkpt lat="42.928548" lon="-8.214635">
        <ele>408.794</ele>
        <time>2021-07-11T10:08:30Z</time>
      </trkpt>
      <trkpt lat="42.928561" lon="-8.214634">
        <ele>409.142</ele>
        <time>2021-07-11T10:08:50Z</time>
      </trkpt>
      <trkpt lat="42.928564" lon="-8.214649">
        <ele>410.659</ele>
        <time>2021-07-11T10:09:08Z</time>
      </trkpt>
      <trkpt lat="42.928571" lon="-8.214662">
        <ele>413.077</ele>
        <time>2021-07-11T10:09:23Z</time>
      </trkpt>
      <trkpt lat="42.928571" lon="-8.214676">
        <ele>416.372</ele>
        <time>2021-07-11T10:09:42Z</time>
      </trkpt>
      <trkpt lat="42.928553" lon="-8.214647">
        <ele>415.913</ele>
        <time>2021-07-11T10:10:00Z</time>
      </trkpt>
      <trkpt lat="42.928544" lon="-8.214664">
        <ele>411.114</ele>
        <time>2021-07-11T10:10:18Z</time>
      </trkpt>
      <trkpt lat="42.928542" lon="-8.214680">
        <ele>409.608</ele>
        <time>2021-07-11T10:10:33Z</time>
      </trkpt>
      <trkpt lat="42.928547" lon="-8.214669">
        <ele>410.674</ele>
        <time>2021-07-11T10:10:50Z</time>
      </trkpt>
      <trkpt lat="42.928551" lon="-8.214670">
        <ele>410.636</ele>
        <time>2021-07-11T10:11:12Z</time>
      </trkpt>
      <trkpt lat="42.928546" lon="-8.214660">
        <ele>409.643</ele>
        <time>2021-07-11T10:11:30Z</time>
      </trkpt>
      <trkpt lat="42.928533" lon="-8.214665">
        <ele>409.613</ele>
        <time>2021-07-11T10:11:45Z</time>
      </trkpt>
      <trkpt lat="42.928519" lon="-8.214666">
        <ele>407.247</ele>
        <time>2021-07-11T10:12:05Z</time>
      </trkpt>
      <trkpt lat="42.928533" lon="-8.214677">
        <ele>407.275</ele>
        <time>2021-07-11T10:12:19Z</time>
      </trkpt>
      <trkpt lat="42.928511" lon="-8.214691">
        <ele>407.772</ele>
        <time>2021-07-11T10:12:36Z</time>
      </trkpt>
      <trkpt lat="42.928522" lon="-8.214705">
        <ele>407.780</ele>
        <time>2021-07-11T10:12:58Z</time>
      </trkpt>
      <trkpt lat="42.928538" lon="-8.214675">
        <ele>409.688</ele>
        <time>2021-07-11T10:13:18Z</time>
      </trkpt>
      <trkpt lat="42.928542" lon="-8.214658">
        <ele>411.524</ele>
        <time>2021-07-11T10:13:38Z</time>
      </trkpt>
      <trkpt lat="42.928529" lon="-8.214660">
        <ele>410.626</ele>
        <time>2021-07-11T10:14:01Z</time>
      </trkpt>
      <trkpt lat="42.928529" lon="-8.214674">
        <ele>407.208</ele>
        <time>2021-07-11T10:14:28Z</time>
      </trkpt>
      <trkpt lat="42.928520" lon="-8.214684">
        <ele>406.755</ele>
        <time>2021-07-11T10:14:47Z</time>
      </trkpt>
      <trkpt lat="42.928526" lon="-8.214676">
        <ele>407.717</ele>
        <time>2021-07-11T10:15:11Z</time>
      </trkpt>
      <trkpt lat="42.928539" lon="-8.214671">
        <ele>408.254</ele>
        <time>2021-07-11T10:15:31Z</time>
      </trkpt>
      <trkpt lat="42.928558" lon="-8.214698">
        <ele>410.184</ele>
        <time>2021-07-11T10:15:55Z</time>
      </trkpt>
      <trkpt lat="42.928536" lon="-8.214686">
        <ele>408.758</ele>
        <time>2021-07-11T10:16:19Z</time>
      </trkpt>
      <trkpt lat="42.928551" lon="-8.214675">
        <ele>407.216</ele>
        <time>2021-07-11T10:16:38Z</time>
      </trkpt>
      <trkpt lat="42.928554" lon="-8.214670">
        <ele>404.823</ele>
        <time>2021-07-11T10:16:58Z</time>
      </trkpt>
      <trkpt lat="42.928523" lon="-8.214682">
        <ele>405.851</ele>
        <time>2021-07-11T10:17:21Z</time>
      </trkpt>
      <trkpt lat="42.928520" lon="-8.214693">
        <ele>407.293</ele>
        <time>2021-07-11T10:17:37Z</time>
      </trkpt>
      <trkpt lat="42.928521" lon="-8.214711">
        <ele>405.865</ele>
        <time>2021-07-11T10:17:55Z</time>
      </trkpt>
      <trkpt lat="42.928536" lon="-8.214706">
        <ele>406.721</ele>
        <time>2021-07-11T10:18:11Z</time>
      </trkpt>
      <trkpt lat="42.928551" lon="-8.214679">
        <ele>405.808</ele>
        <time>2021-07-11T10:18:31Z</time>
      </trkpt>
      <trkpt lat="42.928559" lon="-8.214671">
        <ele>408.796</ele>
        <time>2021-07-11T10:18:44Z</time>
      </trkpt>
      <trkpt lat="42.928546" lon="-8.214676">
        <ele>409.618</ele>
        <time>2021-07-11T10:19:01Z</time>
      </trkpt>
      <trkpt lat="42.928551" lon="-8.214700">
        <ele>411.185</ele>
        <time>2021-07-11T10:19:24Z</time>
      </trkpt>
      <trkpt lat="42.928540" lon="-8.214704">
        <ele>410.135</ele>
        <time>2021-07-11T10:19:43Z</time>
      </trkpt>
      <trkpt lat="42.928553" lon="-8.214673">
        <ele>409.139</ele>
        <time>2021-07-11T10:19:59Z</time>
      </trkpt>
      <trkpt lat="42.928542" lon="-8.214680">
        <ele>407.757</ele>
        <time>2021-07-11T10:20:14Z</time>
      </trkpt>
      <trkpt lat="42.928555" lon="-8.214680">
        <ele>406.724</ele>
        <time>2021-07-11T10:20:33Z</time>
      </trkpt>
      <trkpt lat="42.928541" lon="-8.214668">
        <ele>408.212</ele>
        <time>2021-07-11T10:20:54Z</time>
      </trkpt>
      <trkpt lat="42.928529" lon="-8.214674">
        <ele>407.742</ele>
        <time>2021-07-11T10:21:12Z</time>
      </trkpt>
      <trkpt lat="42.928535" lon="-8.214693">
        <ele>406.222</ele>
        <time>2021-07-11T10:21:32Z</time>
      </trkpt>
      <trkpt lat="42.928540" lon="-8.214695">
        <ele>405.314</ele>
        <time>2021-07-11T10:21:49Z</time>
      </trkpt>
      <trkpt lat="42.928545" lon="-8.214678">
        <ele>406.708</ele>
        <time>2021-07-11T10:22:06Z</time>
      </trkpt>
      <trkpt lat="42.928546" lon="-8.214678">
        <ele>407.741</ele>
        <time>2021-07-11T10:22:23Z</time>
      </trkpt>
      <trkpt lat="42.928552" lon="-8.214647">
        <ele>407.743</ele>
        <time>2021-07-11T10:22:47Z</time>
      </trkpt>
      <trkpt lat="42.928524" lon="-8.214663">
        <ele>409.620</ele>
        <time>2021-07-11T10:23:10Z</time>
      </trkpt>
      <trkpt lat="42.928510" lon="-8.214679">
        <ele>408.710</ele>
        <time>2021-07-11T10:23:27Z</time>
      </trkpt>
      <trkpt lat="42.928513" lon="-8.214679">
        <ele>410.684</ele>
        <time>2021-07-11T10:23:51Z</time>
      </trkpt>
      <trkpt lat="42.928525" lon="-8.214687">
        <ele>410.192</ele>
        <time>2021-07-11T10:24:12Z</time>
      </trkpt>
      <trkpt lat="42.928547" lon="-8.214667">
        <ele>409.169</ele>
        <time>2021-07-11T10:24:29Z</time>
      </trkpt>
      <trkpt lat="42.928538" lon="-8.214675">
        <ele>408.727</ele>
        <time>2021-07-11T10:24:46Z</time>
      </trkpt>
      <trkpt lat="42.928563" lon="-8.214680">
        <ele>407.785</ele>
        <time>2021-07-11T10:24:51Z</time>
      </trkpt>
      <trkpt lat="42.928573" lon="-8.214643">
        <ele>406.789</ele>
        <time>2021-07-11T10:24:57Z</time>
      </trkpt>
      <trkpt lat="42.928568" lon="-8.214636">
        <ele>406.217</ele>
        <time>2021-07-11T10:24:59Z</time>
      </trkpt>
      <trkpt lat="42.928552" lon="-8.214546">
        <ele>405.308</ele>
        <time>2021-07-11T10:25:03Z</time>
      </trkpt>
      <trkpt lat="42.928568" lon="-8.214521">
        <ele>405.395</ele>
        <time>2021-07-11T10:25:04Z</time>
      </trkpt>
      <trkpt lat="42.928576" lon="-8.214508">
        <ele>405.347</ele>
        <time>2021-07-11T10:25:05Z</time>
      </trkpt>
      <trkpt lat="42.928599" lon="-8.214476">
        <ele>404.864</ele>
        <time>2021-07-11T10:25:07Z</time>
      </trkpt>
      <trkpt lat="42.928610" lon="-8.214465">
        <ele>404.844</ele>
        <time>2021-07-11T10:25:08Z</time>
      </trkpt>
      <trkpt lat="42.928623" lon="-8.214447">
        <ele>404.818</ele>
        <time>2021-07-11T10:25:09Z</time>
      </trkpt>
      <trkpt lat="42.928633" lon="-8.214426">
        <ele>404.386</ele>
        <time>2021-07-11T10:25:10Z</time>
      </trkpt>
      <trkpt lat="42.928643" lon="-8.214402">
        <ele>404.363</ele>
        <time>2021-07-11T10:25:11Z</time>
      </trkpt>
      <trkpt lat="42.928711" lon="-8.214181">
        <ele>405.331</ele>
        <time>2021-07-11T10:25:19Z</time>
      </trkpt>
      <trkpt lat="42.928738" lon="-8.214007">
        <ele>406.733</ele>
        <time>2021-07-11T10:25:26Z</time>
      </trkpt>
      <trkpt lat="42.928740" lon="-8.213964">
        <ele>408.223</ele>
        <time>2021-07-11T10:25:32Z</time>
      </trkpt>
      <trkpt lat="42.928790" lon="-8.213946">
        <ele>413.015</ele>
        <time>2021-07-11T10:26:00Z</time>
      </trkpt>
      <trkpt lat="42.928787" lon="-8.213910">
        <ele>410.608</ele>
        <time>2021-07-11T10:26:23Z</time>
      </trkpt>
      <trkpt lat="42.928782" lon="-8.213776">
        <ele>411.170</ele>
        <time>2021-07-11T10:26:30Z</time>
      </trkpt>
      <trkpt lat="42.928777" lon="-8.213552">
        <ele>411.542</ele>
        <time>2021-07-11T10:26:37Z</time>
      </trkpt>
      <trkpt lat="42.928774" lon="-8.213372">
        <ele>411.539</ele>
        <time>2021-07-11T10:26:43Z</time>
      </trkpt>
      <trkpt lat="42.928774" lon="-8.213108">
        <ele>410.129</ele>
        <time>2021-07-11T10:26:51Z</time>
      </trkpt>
      <trkpt lat="42.928759" lon="-8.212873">
        <ele>409.673</ele>
        <time>2021-07-11T10:26:58Z</time>
      </trkpt>
      <trkpt lat="42.928736" lon="-8.212612">
        <ele>410.181</ele>
        <time>2021-07-11T10:27:05Z</time>
      </trkpt>
      <trkpt lat="42.928728" lon="-8.212371">
        <ele>409.158</ele>
        <time>2021-07-11T10:27:11Z</time>
      </trkpt>
      <trkpt lat="42.928710" lon="-8.212009">
        <ele>406.796</ele>
        <time>2021-07-11T10:27:19Z</time>
      </trkpt>
      <trkpt lat="42.928707" lon="-8.211672">
        <ele>403.863</ele>
        <time>2021-07-11T10:27:26Z</time>
      </trkpt>
      <trkpt lat="42.928681" lon="-8.211335">
        <ele>401.044</ele>
        <time>2021-07-11T10:27:34Z</time>
      </trkpt>
      <trkpt lat="42.928663" lon="-8.211026">
        <ele>398.618</ele>
        <time>2021-07-11T10:27:42Z</time>
      </trkpt>
      <trkpt lat="42.928622" lon="-8.210701">
        <ele>395.708</ele>
        <time>2021-07-11T10:27:51Z</time>
      </trkpt>
      <trkpt lat="42.928568" lon="-8.210458">
        <ele>393.823</ele>
        <time>2021-07-11T10:27:59Z</time>
      </trkpt>
      <trkpt lat="42.928476" lon="-8.210170">
        <ele>393.815</ele>
        <time>2021-07-11T10:28:09Z</time>
      </trkpt>
      <trkpt lat="42.928428" lon="-8.210021">
        <ele>392.812</ele>
        <time>2021-07-11T10:28:15Z</time>
      </trkpt>
      <trkpt lat="42.928349" lon="-8.209784">
        <ele>391.832</ele>
        <time>2021-07-11T10:28:23Z</time>
      </trkpt>
      <trkpt lat="42.928333" lon="-8.209752">
        <ele>391.816</ele>
        <time>2021-07-11T10:28:24Z</time>
      </trkpt>
      <trkpt lat="42.928321" lon="-8.209724">
        <ele>391.314</ele>
        <time>2021-07-11T10:28:25Z</time>
      </trkpt>
      <trkpt lat="42.928311" lon="-8.209695">
        <ele>390.911</ele>
        <time>2021-07-11T10:28:26Z</time>
      </trkpt>
      <trkpt lat="42.928301" lon="-8.209664">
        <ele>390.959</ele>
        <time>2021-07-11T10:28:27Z</time>
      </trkpt>
      <trkpt lat="42.928227" lon="-8.209449">
        <ele>388.593</ele>
        <time>2021-07-11T10:28:35Z</time>
      </trkpt>
      <trkpt lat="42.928114" lon="-8.209183">
        <ele>388.065</ele>
        <time>2021-07-11T10:28:42Z</time>
      </trkpt>
      <trkpt lat="42.927987" lon="-8.208923">
        <ele>388.021</ele>
        <time>2021-07-11T10:28:49Z</time>
      </trkpt>
      <trkpt lat="42.927898" lon="-8.208730">
        <ele>388.008</ele>
        <time>2021-07-11T10:28:56Z</time>
      </trkpt>
      <trkpt lat="42.927807" lon="-8.208516">
        <ele>386.166</ele>
        <time>2021-07-11T10:29:04Z</time>
      </trkpt>
      <trkpt lat="42.927747" lon="-8.208400">
        <ele>386.178</ele>
        <time>2021-07-11T10:29:10Z</time>
      </trkpt>
      <trkpt lat="42.927740" lon="-8.208360">
        <ele>387.525</ele>
        <time>2021-07-11T10:29:11Z</time>
      </trkpt>
      <trkpt lat="42.927731" lon="-8.208316">
        <ele>388.515</ele>
        <time>2021-07-11T10:29:12Z</time>
      </trkpt>
      <trkpt lat="42.927721" lon="-8.208281">
        <ele>389.469</ele>
        <time>2021-07-11T10:29:13Z</time>
      </trkpt>
      <trkpt lat="42.927709" lon="-8.208252">
        <ele>389.487</ele>
        <time>2021-07-11T10:29:14Z</time>
      </trkpt>
      <trkpt lat="42.927696" lon="-8.208219">
        <ele>389.984</ele>
        <time>2021-07-11T10:29:15Z</time>
      </trkpt>
      <trkpt lat="42.927684" lon="-8.208183">
        <ele>390.452</ele>
        <time>2021-07-11T10:29:16Z</time>
      </trkpt>
      <trkpt lat="42.927673" lon="-8.208156">
        <ele>389.951</ele>
        <time>2021-07-11T10:29:17Z</time>
      </trkpt>
      <trkpt lat="42.927663" lon="-8.208136">
        <ele>389.901</ele>
        <time>2021-07-11T10:29:18Z</time>
      </trkpt>
      <trkpt lat="42.927648" lon="-8.208113">
        <ele>389.411</ele>
        <time>2021-07-11T10:29:19Z</time>
      </trkpt>
      <trkpt lat="42.927633" lon="-8.208084">
        <ele>389.408</ele>
        <time>2021-07-11T10:29:20Z</time>
      </trkpt>
      <trkpt lat="42.927620" lon="-8.208055">
        <ele>389.432</ele>
        <time>2021-07-11T10:29:21Z</time>
      </trkpt>
      <trkpt lat="42.927611" lon="-8.208028">
        <ele>389.494</ele>
        <time>2021-07-11T10:29:22Z</time>
      </trkpt>
      <trkpt lat="42.927599" lon="-8.207909">
        <ele>389.421</ele>
        <time>2021-07-11T10:29:27Z</time>
      </trkpt>
      <trkpt lat="42.927607" lon="-8.207700">
        <ele>393.341</ele>
        <time>2021-07-11T10:29:34Z</time>
      </trkpt>
      <trkpt lat="42.927575" lon="-8.207336">
        <ele>391.855</ele>
        <time>2021-07-11T10:29:41Z</time>
      </trkpt>
      <trkpt lat="42.927538" lon="-8.206967">
        <ele>388.923</ele>
        <time>2021-07-11T10:29:48Z</time>
      </trkpt>
      <trkpt lat="42.927514" lon="-8.206641">
        <ele>386.130</ele>
        <time>2021-07-11T10:29:55Z</time>
      </trkpt>
      <trkpt lat="42.927501" lon="-8.206356">
        <ele>384.678</ele>
        <time>2021-07-11T10:30:02Z</time>
      </trkpt>
      <trkpt lat="42.927462" lon="-8.206088">
        <ele>382.796</ele>
        <time>2021-07-11T10:30:08Z</time>
      </trkpt>
      <trkpt lat="42.927446" lon="-8.205749">
        <ele>382.731</ele>
        <time>2021-07-11T10:30:16Z</time>
      </trkpt>
      <trkpt lat="42.927446" lon="-8.205448">
        <ele>383.224</ele>
        <time>2021-07-11T10:30:22Z</time>
      </trkpt>
      <trkpt lat="42.927432" lon="-8.205010">
        <ele>384.608</ele>
        <time>2021-07-11T10:30:29Z</time>
      </trkpt>
      <trkpt lat="42.927456" lon="-8.204632">
        <ele>384.696</ele>
        <time>2021-07-11T10:30:35Z</time>
      </trkpt>
      <trkpt lat="42.927487" lon="-8.204170">
        <ele>385.198</ele>
        <time>2021-07-11T10:30:44Z</time>
      </trkpt>
      <trkpt lat="42.927524" lon="-8.203869">
        <ele>383.785</ele>
        <time>2021-07-11T10:30:50Z</time>
      </trkpt>
      <trkpt lat="42.927584" lon="-8.203576">
        <ele>382.735</ele>
        <time>2021-07-11T10:30:56Z</time>
      </trkpt>
      <trkpt lat="42.927635" lon="-8.203308">
        <ele>380.369</ele>
        <time>2021-07-11T10:31:02Z</time>
      </trkpt>
      <trkpt lat="42.927659" lon="-8.203150">
        <ele>378.457</ele>
        <time>2021-07-11T10:31:08Z</time>
      </trkpt>
      <trkpt lat="42.927664" lon="-8.203102">
        <ele>378.994</ele>
        <time>2021-07-11T10:31:14Z</time>
      </trkpt>
      <trkpt lat="42.927665" lon="-8.203075">
        <ele>379.832</ele>
        <time>2021-07-11T10:31:27Z</time>
      </trkpt>
      <trkpt lat="42.927668" lon="-8.203064">
        <ele>379.334</ele>
        <time>2021-07-11T10:31:28Z</time>
      </trkpt>
      <trkpt lat="42.927678" lon="-8.203040">
        <ele>378.955</ele>
        <time>2021-07-11T10:31:30Z</time>
      </trkpt>
      <trkpt lat="42.927685" lon="-8.203014">
        <ele>378.410</ele>
        <time>2021-07-11T10:31:31Z</time>
      </trkpt>
      <trkpt lat="42.927692" lon="-8.202982">
        <ele>377.908</ele>
        <time>2021-07-11T10:31:33Z</time>
      </trkpt>
      <trkpt lat="42.927725" lon="-8.202748">
        <ele>375.050</ele>
        <time>2021-07-11T10:31:45Z</time>
      </trkpt>
      <trkpt lat="42.927744" lon="-8.202727">
        <ele>374.092</ele>
        <time>2021-07-11T10:32:02Z</time>
      </trkpt>
      <trkpt lat="42.927756" lon="-8.202715">
        <ele>375.029</ele>
        <time>2021-07-11T10:32:20Z</time>
      </trkpt>
      <trkpt lat="42.927752" lon="-8.202713">
        <ele>375.569</ele>
        <time>2021-07-11T10:32:40Z</time>
      </trkpt>
      <trkpt lat="42.927749" lon="-8.202702">
        <ele>375.553</ele>
        <time>2021-07-11T10:32:41Z</time>
      </trkpt>
      <trkpt lat="42.927746" lon="-8.202676">
        <ele>375.041</ele>
        <time>2021-07-11T10:32:42Z</time>
      </trkpt>
      <trkpt lat="42.927747" lon="-8.202642">
        <ele>375.088</ele>
        <time>2021-07-11T10:32:43Z</time>
      </trkpt>
      <trkpt lat="42.927753" lon="-8.202604">
        <ele>375.586</ele>
        <time>2021-07-11T10:32:44Z</time>
      </trkpt>
      <trkpt lat="42.927760" lon="-8.202554">
        <ele>375.583</ele>
        <time>2021-07-11T10:32:45Z</time>
      </trkpt>
      <trkpt lat="42.927767" lon="-8.202492">
        <ele>376.025</ele>
        <time>2021-07-11T10:32:46Z</time>
      </trkpt>
      <trkpt lat="42.927779" lon="-8.202416">
        <ele>376.417</ele>
        <time>2021-07-11T10:32:47Z</time>
      </trkpt>
      <trkpt lat="42.927664" lon="-8.201607">
        <ele>371.608</ele>
        <time>2021-07-11T10:32:59Z</time>
      </trkpt>
      <trkpt lat="42.927650" lon="-8.201368">
        <ele>368.315</ele>
        <time>2021-07-11T10:33:05Z</time>
      </trkpt>
      <trkpt lat="42.927701" lon="-8.201136">
        <ele>364.917</ele>
        <time>2021-07-11T10:33:09Z</time>
      </trkpt>
      <trkpt lat="42.927708" lon="-8.201082">
        <ele>363.094</ele>
        <time>2021-07-11T10:33:14Z</time>
      </trkpt>
      <trkpt lat="42.927737" lon="-8.201049">
        <ele>367.884</ele>
        <time>2021-07-11T10:33:37Z</time>
      </trkpt>
      <trkpt lat="42.927723" lon="-8.201017">
        <ele>366.478</ele>
        <time>2021-07-11T10:33:59Z</time>
      </trkpt>
      <trkpt lat="42.927724" lon="-8.200989">
        <ele>365.946</ele>
        <time>2021-07-11T10:34:08Z</time>
      </trkpt>
      <trkpt lat="42.927730" lon="-8.200973">
        <ele>364.993</ele>
        <time>2021-07-11T10:34:22Z</time>
      </trkpt>
      <trkpt lat="42.927736" lon="-8.200947">
        <ele>365.421</ele>
        <time>2021-07-11T10:34:39Z</time>
      </trkpt>
      <trkpt lat="42.927719" lon="-8.200904">
        <ele>365.464</ele>
        <time>2021-07-11T10:34:44Z</time>
      </trkpt>
      <trkpt lat="42.927713" lon="-8.200885">
        <ele>365.406</ele>
        <time>2021-07-11T10:34:45Z</time>
      </trkpt>
      <trkpt lat="42.927704" lon="-8.200864">
        <ele>364.916</ele>
        <time>2021-07-11T10:34:46Z</time>
      </trkpt>
      <trkpt lat="42.927692" lon="-8.200840">
        <ele>364.908</ele>
        <time>2021-07-11T10:34:47Z</time>
      </trkpt>
      <trkpt lat="42.927677" lon="-8.200813">
        <ele>364.483</ele>
        <time>2021-07-11T10:34:48Z</time>
      </trkpt>
      <trkpt lat="42.927551" lon="-8.200587">
        <ele>363.015</ele>
        <time>2021-07-11T10:34:55Z</time>
      </trkpt>
      <trkpt lat="42.927433" lon="-8.200289">
        <ele>361.512</ele>
        <time>2021-07-11T10:35:03Z</time>
      </trkpt>
      <trkpt lat="42.927317" lon="-8.199986">
        <ele>362.562</ele>
        <time>2021-07-11T10:35:12Z</time>
      </trkpt>
      <trkpt lat="42.927265" lon="-8.199843">
        <ele>364.486</ele>
        <time>2021-07-11T10:35:19Z</time>
      </trkpt>
      <trkpt lat="42.927187" lon="-8.199670">
        <ele>365.484</ele>
        <time>2021-07-11T10:35:26Z</time>
      </trkpt>
      <trkpt lat="42.927109" lon="-8.199518">
        <ele>364.991</ele>
        <time>2021-07-11T10:35:34Z</time>
      </trkpt>
      <trkpt lat="42.927047" lon="-8.199413">
        <ele>365.489</ele>
        <time>2021-07-11T10:35:40Z</time>
      </trkpt>
      <trkpt lat="42.926955" lon="-8.199286">
        <ele>364.022</ele>
        <time>2021-07-11T10:35:48Z</time>
      </trkpt>
      <trkpt lat="42.926855" lon="-8.199173">
        <ele>361.162</ele>
        <time>2021-07-11T10:35:57Z</time>
      </trkpt>
      <trkpt lat="42.926748" lon="-8.199042">
        <ele>364.008</ele>
        <time>2021-07-11T10:36:06Z</time>
      </trkpt>
      <trkpt lat="42.926673" lon="-8.198935">
        <ele>365.908</ele>
        <time>2021-07-11T10:36:13Z</time>
      </trkpt>
      <trkpt lat="42.926644" lon="-8.198900">
        <ele>367.849</ele>
        <time>2021-07-11T10:36:20Z</time>
      </trkpt>
      <trkpt lat="42.926590" lon="-8.198827">
        <ele>369.251</ele>
        <time>2021-07-11T10:36:29Z</time>
      </trkpt>
      <trkpt lat="42.926544" lon="-8.198757">
        <ele>370.778</ele>
        <time>2021-07-11T10:36:37Z</time>
      </trkpt>
      <trkpt lat="42.926502" lon="-8.198676">
        <ele>372.658</ele>
        <time>2021-07-11T10:36:47Z</time>
      </trkpt>
      <trkpt lat="42.926426" lon="-8.198580">
        <ele>374.042</ele>
        <time>2021-07-11T10:36:58Z</time>
      </trkpt>
      <trkpt lat="42.926342" lon="-8.198497">
        <ele>375.090</ele>
        <time>2021-07-11T10:37:09Z</time>
      </trkpt>
      <trkpt lat="42.926293" lon="-8.198406">
        <ele>377.427</ele>
        <time>2021-07-11T10:37:19Z</time>
      </trkpt>
      <trkpt lat="42.926242" lon="-8.198321">
        <ele>380.385</ele>
        <time>2021-07-11T10:37:28Z</time>
      </trkpt>
      <trkpt lat="42.926168" lon="-8.198226">
        <ele>379.893</ele>
        <time>2021-07-11T10:37:37Z</time>
      </trkpt>
      <trkpt lat="42.926096" lon="-8.198127">
        <ele>378.465</ele>
        <time>2021-07-11T10:37:46Z</time>
      </trkpt>
      <trkpt lat="42.926002" lon="-8.198043">
        <ele>375.521</ele>
        <time>2021-07-11T10:37:55Z</time>
      </trkpt>
      <trkpt lat="42.925922" lon="-8.197952">
        <ele>376.908</ele>
        <time>2021-07-11T10:38:05Z</time>
      </trkpt>
      <trkpt lat="42.925886" lon="-8.197910">
        <ele>378.426</ele>
        <time>2021-07-11T10:38:14Z</time>
      </trkpt>
      <trkpt lat="42.925875" lon="-8.197818">
        <ele>380.388</ele>
        <time>2021-07-11T10:38:23Z</time>
      </trkpt>
      <trkpt lat="42.925878" lon="-8.197788">
        <ele>380.885</ele>
        <time>2021-07-11T10:38:25Z</time>
      </trkpt>
      <trkpt lat="42.925905" lon="-8.197636">
        <ele>384.125</ele>
        <time>2021-07-11T10:38:35Z</time>
      </trkpt>
      <trkpt lat="42.925900" lon="-8.197625">
        <ele>385.159</ele>
        <time>2021-07-11T10:38:44Z</time>
      </trkpt>
      <trkpt lat="42.925917" lon="-8.197553">
        <ele>385.127</ele>
        <time>2021-07-11T10:38:55Z</time>
      </trkpt>
      <trkpt lat="42.925966" lon="-8.197403">
        <ele>385.174</ele>
        <time>2021-07-11T10:39:04Z</time>
      </trkpt>
      <trkpt lat="42.926010" lon="-8.197276">
        <ele>386.592</ele>
        <time>2021-07-11T10:39:12Z</time>
      </trkpt>
      <trkpt lat="42.926054" lon="-8.197150">
        <ele>385.184</ele>
        <time>2021-07-11T10:39:19Z</time>
      </trkpt>
      <trkpt lat="42.926090" lon="-8.197063">
        <ele>385.107</ele>
        <time>2021-07-11T10:39:27Z</time>
      </trkpt>
      <trkpt lat="42.926123" lon="-8.196956">
        <ele>386.517</ele>
        <time>2021-07-11T10:39:35Z</time>
      </trkpt>
      <trkpt lat="42.926170" lon="-8.196806">
        <ele>387.008</ele>
        <time>2021-07-11T10:39:44Z</time>
      </trkpt>
      <trkpt lat="42.926232" lon="-8.196639">
        <ele>388.545</ele>
        <time>2021-07-11T10:39:52Z</time>
      </trkpt>
      <trkpt lat="42.926318" lon="-8.196497">
        <ele>389.927</ele>
        <time>2021-07-11T10:40:00Z</time>
      </trkpt>
      <trkpt lat="42.926408" lon="-8.196333">
        <ele>392.334</ele>
        <time>2021-07-11T10:40:07Z</time>
      </trkpt>
      <trkpt lat="42.926510" lon="-8.196167">
        <ele>393.314</ele>
        <time>2021-07-11T10:40:15Z</time>
      </trkpt>
      <trkpt lat="42.926568" lon="-8.196019">
        <ele>394.768</ele>
        <time>2021-07-11T10:40:21Z</time>
      </trkpt>
      <trkpt lat="42.926570" lon="-8.195989">
        <ele>395.286</ele>
        <time>2021-07-11T10:40:22Z</time>
      </trkpt>
      <trkpt lat="42.926571" lon="-8.195962">
        <ele>395.223</ele>
        <time>2021-07-11T10:40:23Z</time>
      </trkpt>
      <trkpt lat="42.926572" lon="-8.195933">
        <ele>395.251</ele>
        <time>2021-07-11T10:40:24Z</time>
      </trkpt>
      <trkpt lat="42.926568" lon="-8.195905">
        <ele>395.236</ele>
        <time>2021-07-11T10:40:25Z</time>
      </trkpt>
      <trkpt lat="42.926567" lon="-8.195878">
        <ele>395.217</ele>
        <time>2021-07-11T10:40:26Z</time>
      </trkpt>
      <trkpt lat="42.926568" lon="-8.195848">
        <ele>395.218</ele>
        <time>2021-07-11T10:40:27Z</time>
      </trkpt>
      <trkpt lat="42.926573" lon="-8.195811">
        <ele>395.708</ele>
        <time>2021-07-11T10:40:29Z</time>
      </trkpt>
      <trkpt lat="42.926574" lon="-8.195775">
        <ele>395.790</ele>
        <time>2021-07-11T10:40:30Z</time>
      </trkpt>
      <trkpt lat="42.926576" lon="-8.195750">
        <ele>395.762</ele>
        <time>2021-07-11T10:40:31Z</time>
      </trkpt>
      <trkpt lat="42.926579" lon="-8.195726">
        <ele>395.789</ele>
        <time>2021-07-11T10:40:32Z</time>
      </trkpt>
      <trkpt lat="42.926584" lon="-8.195698">
        <ele>395.719</ele>
        <time>2021-07-11T10:40:33Z</time>
      </trkpt>
      <trkpt lat="42.926588" lon="-8.195671">
        <ele>396.253</ele>
        <time>2021-07-11T10:40:34Z</time>
      </trkpt>
      <trkpt lat="42.926591" lon="-8.195643">
        <ele>396.281</ele>
        <time>2021-07-11T10:40:35Z</time>
      </trkpt>
      <trkpt lat="42.926596" lon="-8.195611">
        <ele>396.248</ele>
        <time>2021-07-11T10:40:36Z</time>
      </trkpt>
      <trkpt lat="42.926645" lon="-8.195359">
        <ele>394.266</ele>
        <time>2021-07-11T10:40:45Z</time>
      </trkpt>
      <trkpt lat="42.926676" lon="-8.195114">
        <ele>393.389</ele>
        <time>2021-07-11T10:40:52Z</time>
      </trkpt>
      <trkpt lat="42.926603" lon="-8.194908">
        <ele>392.306</ele>
        <time>2021-07-11T10:40:57Z</time>
      </trkpt>
      <trkpt lat="42.926555" lon="-8.194655">
        <ele>390.926</ele>
        <time>2021-07-11T10:41:03Z</time>
      </trkpt>
      <trkpt lat="42.926492" lon="-8.194299">
        <ele>389.408</ele>
        <time>2021-07-11T10:41:10Z</time>
      </trkpt>
      <trkpt lat="42.926474" lon="-8.194181">
        <ele>389.415</ele>
        <time>2021-07-11T10:41:12Z</time>
      </trkpt>
      <trkpt lat="42.926460" lon="-8.194125">
        <ele>389.467</ele>
        <time>2021-07-11T10:41:13Z</time>
      </trkpt>
      <trkpt lat="42.926331" lon="-8.193647">
        <ele>388.054</ele>
        <time>2021-07-11T10:41:21Z</time>
      </trkpt>
      <trkpt lat="42.926216" lon="-8.193250">
        <ele>386.174</ele>
        <time>2021-07-11T10:41:28Z</time>
      </trkpt>
      <trkpt lat="42.926152" lon="-8.192970">
        <ele>384.628</ele>
        <time>2021-07-11T10:41:34Z</time>
      </trkpt>
      <trkpt lat="42.926148" lon="-8.192695">
        <ele>383.736</ele>
        <time>2021-07-11T10:41:42Z</time>
      </trkpt>
      <trkpt lat="42.926155" lon="-8.192350">
        <ele>383.293</ele>
        <time>2021-07-11T10:41:49Z</time>
      </trkpt>
      <trkpt lat="42.926157" lon="-8.191908">
        <ele>381.321</ele>
        <time>2021-07-11T10:41:57Z</time>
      </trkpt>
      <trkpt lat="42.926153" lon="-8.191403">
        <ele>378.985</ele>
        <time>2021-07-11T10:42:06Z</time>
      </trkpt>
      <trkpt lat="42.926154" lon="-8.190985">
        <ele>377.989</ele>
        <time>2021-07-11T10:42:13Z</time>
      </trkpt>
      <trkpt lat="42.926168" lon="-8.190388">
        <ele>376.017</ele>
        <time>2021-07-11T10:42:22Z</time>
      </trkpt>
      <trkpt lat="42.926160" lon="-8.190262">
        <ele>375.008</ele>
        <time>2021-07-11T10:42:24Z</time>
      </trkpt>
      <trkpt lat="42.926150" lon="-8.190201">
        <ele>375.095</ele>
        <time>2021-07-11T10:42:25Z</time>
      </trkpt>
      <trkpt lat="42.926132" lon="-8.190142">
        <ele>375.017</ele>
        <time>2021-07-11T10:42:26Z</time>
      </trkpt>
      <trkpt lat="42.926103" lon="-8.190086">
        <ele>374.544</ele>
        <time>2021-07-11T10:42:27Z</time>
      </trkpt>
      <trkpt lat="42.926075" lon="-8.190045">
        <ele>374.544</ele>
        <time>2021-07-11T10:42:28Z</time>
      </trkpt>
      <trkpt lat="42.926039" lon="-8.190005">
        <ele>374.028</ele>
        <time>2021-07-11T10:42:29Z</time>
      </trkpt>
      <trkpt lat="42.926002" lon="-8.189982">
        <ele>374.076</ele>
        <time>2021-07-11T10:42:30Z</time>
      </trkpt>
      <trkpt lat="42.925977" lon="-8.189965">
        <ele>374.043</ele>
        <time>2021-07-11T10:42:31Z</time>
      </trkpt>
      <trkpt lat="42.925951" lon="-8.189944">
        <ele>374.091</ele>
        <time>2021-07-11T10:42:32Z</time>
      </trkpt>
      <trkpt lat="42.925920" lon="-8.189926">
        <ele>373.622</ele>
        <time>2021-07-11T10:42:33Z</time>
      </trkpt>
      <trkpt lat="42.925889" lon="-8.189911">
        <ele>373.662</ele>
        <time>2021-07-11T10:42:34Z</time>
      </trkpt>
      <trkpt lat="42.925857" lon="-8.189897">
        <ele>373.608</ele>
        <time>2021-07-11T10:42:35Z</time>
      </trkpt>
      <trkpt lat="42.925506" lon="-8.189730">
        <ele>373.108</ele>
        <time>2021-07-11T10:42:44Z</time>
      </trkpt>
      <trkpt lat="42.925461" lon="-8.189707">
        <ele>373.159</ele>
        <time>2021-07-11T10:42:45Z</time>
      </trkpt>
      <trkpt lat="42.925111" lon="-8.189540">
        <ele>373.131</ele>
        <time>2021-07-11T10:42:53Z</time>
      </trkpt>
      <trkpt lat="42.924747" lon="-8.189389">
        <ele>373.158</ele>
        <time>2021-07-11T10:43:01Z</time>
      </trkpt>
      <trkpt lat="42.924568" lon="-8.189311">
        <ele>372.128</ele>
        <time>2021-07-11T10:43:06Z</time>
      </trkpt>
      <trkpt lat="42.924413" lon="-8.189230">
        <ele>370.262</ele>
        <time>2021-07-11T10:43:13Z</time>
      </trkpt>
      <trkpt lat="42.924207" lon="-8.189147">
        <ele>369.750</ele>
        <time>2021-07-11T10:43:21Z</time>
      </trkpt>
      <trkpt lat="42.923944" lon="-8.189031">
        <ele>370.227</ele>
        <time>2021-07-11T10:43:32Z</time>
      </trkpt>
      <trkpt lat="42.923705" lon="-8.188921">
        <ele>369.235</ele>
        <time>2021-07-11T10:43:42Z</time>
      </trkpt>
      <trkpt lat="42.923492" lon="-8.188814">
        <ele>369.284</ele>
        <time>2021-07-11T10:43:52Z</time>
      </trkpt>
      <trkpt lat="42.923391" lon="-8.188769">
        <ele>368.807</ele>
        <time>2021-07-11T10:43:58Z</time>
      </trkpt>
      <trkpt lat="42.923247" lon="-8.188704">
        <ele>367.817</ele>
        <time>2021-07-11T10:44:05Z</time>
      </trkpt>
      <trkpt lat="42.923067" lon="-8.188615">
        <ele>364.908</ele>
        <time>2021-07-11T10:44:11Z</time>
      </trkpt>
      <trkpt lat="42.923047" lon="-8.188592">
        <ele>364.465</ele>
        <time>2021-07-11T10:44:12Z</time>
      </trkpt>
      <trkpt lat="42.923081" lon="-8.188452">
        <ele>362.097</ele>
        <time>2021-07-11T10:44:18Z</time>
      </trkpt>
      <trkpt lat="42.923103" lon="-8.188417">
        <ele>361.184</ele>
        <time>2021-07-11T10:44:19Z</time>
      </trkpt>
      <trkpt lat="42.923124" lon="-8.188394">
        <ele>360.144</ele>
        <time>2021-07-11T10:44:20Z</time>
      </trkpt>
      <trkpt lat="42.923148" lon="-8.188371">
        <ele>359.648</ele>
        <time>2021-07-11T10:44:21Z</time>
      </trkpt>
      <trkpt lat="42.923184" lon="-8.188326">
        <ele>358.286</ele>
        <time>2021-07-11T10:44:23Z</time>
      </trkpt>
      <trkpt lat="42.923191" lon="-8.188308">
        <ele>357.223</ele>
        <time>2021-07-11T10:44:24Z</time>
      </trkpt>
      <trkpt lat="42.923198" lon="-8.188291">
        <ele>356.391</ele>
        <time>2021-07-11T10:44:25Z</time>
      </trkpt>
      <trkpt lat="42.923238" lon="-8.188219">
        <ele>351.579</ele>
        <time>2021-07-11T10:44:30Z</time>
      </trkpt>
      <trkpt lat="42.923216" lon="-8.188184">
        <ele>350.505</ele>
        <time>2021-07-11T10:44:31Z</time>
      </trkpt>
      <trkpt lat="42.923169" lon="-8.188139">
        <ele>350.525</ele>
        <time>2021-07-11T10:44:32Z</time>
      </trkpt>
      <trkpt lat="42.923129" lon="-8.188101">
        <ele>351.008</ele>
        <time>2021-07-11T10:44:33Z</time>
      </trkpt>
      <trkpt lat="42.923104" lon="-8.188069">
        <ele>351.054</ele>
        <time>2021-07-11T10:44:34Z</time>
      </trkpt>
      <trkpt lat="42.923081" lon="-8.188041">
        <ele>351.526</ele>
        <time>2021-07-11T10:44:35Z</time>
      </trkpt>
      <trkpt lat="42.923060" lon="-8.188023">
        <ele>352.483</ele>
        <time>2021-07-11T10:44:36Z</time>
      </trkpt>
      <trkpt lat="42.922816" lon="-8.187829">
        <ele>352.943</ele>
        <time>2021-07-11T10:44:46Z</time>
      </trkpt>
      <trkpt lat="42.922807" lon="-8.187777">
        <ele>352.457</ele>
        <time>2021-07-11T10:44:47Z</time>
      </trkpt>
      <trkpt lat="42.922774" lon="-8.187466">
        <ele>349.525</ele>
        <time>2021-07-11T10:44:54Z</time>
      </trkpt>
      <trkpt lat="42.922685" lon="-8.187153">
        <ele>346.652</ele>
        <time>2021-07-11T10:45:01Z</time>
      </trkpt>
      <trkpt lat="42.922591" lon="-8.186977">
        <ele>346.620</ele>
        <time>2021-07-11T10:45:07Z</time>
      </trkpt>
      <trkpt lat="42.922586" lon="-8.186938">
        <ele>346.661</ele>
        <time>2021-07-11T10:45:08Z</time>
      </trkpt>
      <trkpt lat="42.922585" lon="-8.186899">
        <ele>346.621</ele>
        <time>2021-07-11T10:45:09Z</time>
      </trkpt>
      <trkpt lat="42.922589" lon="-8.186800">
        <ele>346.213</ele>
        <time>2021-07-11T10:45:11Z</time>
      </trkpt>
      <trkpt lat="42.922648" lon="-8.186441">
        <ele>344.208</ele>
        <time>2021-07-11T10:45:16Z</time>
      </trkpt>
      <trkpt lat="42.922680" lon="-8.186152">
        <ele>343.383</ele>
        <time>2021-07-11T10:45:20Z</time>
      </trkpt>
      <trkpt lat="42.922677" lon="-8.186109">
        <ele>343.345</ele>
        <time>2021-07-11T10:45:21Z</time>
      </trkpt>
      <trkpt lat="42.922613" lon="-8.185667">
        <ele>340.952</ele>
        <time>2021-07-11T10:45:29Z</time>
      </trkpt>
      <trkpt lat="42.922618" lon="-8.185572">
        <ele>339.972</ele>
        <time>2021-07-11T10:45:31Z</time>
      </trkpt>
      <trkpt lat="42.922637" lon="-8.185498">
        <ele>339.936</ele>
        <time>2021-07-11T10:45:32Z</time>
      </trkpt>
      <trkpt lat="42.922650" lon="-8.185463">
        <ele>339.994</ele>
        <time>2021-07-11T10:45:33Z</time>
      </trkpt>
      <trkpt lat="42.922743" lon="-8.185274">
        <ele>339.971</ele>
        <time>2021-07-11T10:45:37Z</time>
      </trkpt>
      <trkpt lat="42.922773" lon="-8.185233">
        <ele>339.939</ele>
        <time>2021-07-11T10:45:38Z</time>
      </trkpt>
      <trkpt lat="42.922815" lon="-8.185190">
        <ele>339.926</ele>
        <time>2021-07-11T10:45:39Z</time>
      </trkpt>
      <trkpt lat="42.922854" lon="-8.185160">
        <ele>339.947</ele>
        <time>2021-07-11T10:45:40Z</time>
      </trkpt>
      <trkpt lat="42.922887" lon="-8.185137">
        <ele>339.911</ele>
        <time>2021-07-11T10:45:41Z</time>
      </trkpt>
      <trkpt lat="42.923105" lon="-8.184987">
        <ele>340.408</ele>
        <time>2021-07-11T10:45:49Z</time>
      </trkpt>
      <trkpt lat="42.923330" lon="-8.184918">
        <ele>341.469</ele>
        <time>2021-07-11T10:45:57Z</time>
      </trkpt>
      <trkpt lat="42.923488" lon="-8.184879">
        <ele>342.321</ele>
        <time>2021-07-11T10:46:03Z</time>
      </trkpt>
      <trkpt lat="42.923623" lon="-8.184830">
        <ele>342.868</ele>
        <time>2021-07-11T10:46:11Z</time>
      </trkpt>
      <trkpt lat="42.923831" lon="-8.184741">
        <ele>343.858</ele>
        <time>2021-07-11T10:46:20Z</time>
      </trkpt>
      <trkpt lat="42.923984" lon="-8.184622">
        <ele>345.232</ele>
        <time>2021-07-11T10:46:28Z</time>
      </trkpt>
      <trkpt lat="42.924096" lon="-8.184488">
        <ele>345.260</ele>
        <time>2021-07-11T10:46:36Z</time>
      </trkpt>
      <trkpt lat="42.924161" lon="-8.184315">
        <ele>344.777</ele>
        <time>2021-07-11T10:46:43Z</time>
      </trkpt>
      <trkpt lat="42.924203" lon="-8.184040">
        <ele>342.865</ele>
        <time>2021-07-11T10:46:49Z</time>
      </trkpt>
      <trkpt lat="42.924203" lon="-8.183733">
        <ele>339.428</ele>
        <time>2021-07-11T10:46:55Z</time>
      </trkpt>
      <trkpt lat="42.924260" lon="-8.183425">
        <ele>337.089</ele>
        <time>2021-07-11T10:47:01Z</time>
      </trkpt>
      <trkpt lat="42.924288" lon="-8.183341">
        <ele>336.117</ele>
        <time>2021-07-11T10:47:02Z</time>
      </trkpt>
      <trkpt lat="42.924392" lon="-8.183082">
        <ele>334.208</ele>
        <time>2021-07-11T10:47:07Z</time>
      </trkpt>
      <trkpt lat="42.924484" lon="-8.182771">
        <ele>333.259</ele>
        <time>2021-07-11T10:47:14Z</time>
      </trkpt>
      <trkpt lat="42.924532" lon="-8.182529">
        <ele>331.341</ele>
        <time>2021-07-11T10:47:19Z</time>
      </trkpt>
      <trkpt lat="42.924591" lon="-8.182269">
        <ele>327.918</ele>
        <time>2021-07-11T10:47:26Z</time>
      </trkpt>
      <trkpt lat="42.924628" lon="-8.181968">
        <ele>324.518</ele>
        <time>2021-07-11T10:47:32Z</time>
      </trkpt>
      <trkpt lat="42.924677" lon="-8.181624">
        <ele>323.642</ele>
        <time>2021-07-11T10:47:40Z</time>
      </trkpt>
      <trkpt lat="42.924714" lon="-8.181283">
        <ele>323.120</ele>
        <time>2021-07-11T10:47:48Z</time>
      </trkpt>
      <trkpt lat="42.924738" lon="-8.180986">
        <ele>321.747</ele>
        <time>2021-07-11T10:47:55Z</time>
      </trkpt>
      <trkpt lat="42.924790" lon="-8.180763">
        <ele>321.765</ele>
        <time>2021-07-11T10:48:02Z</time>
      </trkpt>
      <trkpt lat="42.924907" lon="-8.180609">
        <ele>322.134</ele>
        <time>2021-07-11T10:48:09Z</time>
      </trkpt>
      <trkpt lat="42.925041" lon="-8.180539">
        <ele>323.655</ele>
        <time>2021-07-11T10:48:15Z</time>
      </trkpt>
      <trkpt lat="42.925261" lon="-8.180510">
        <ele>324.110</ele>
        <time>2021-07-11T10:48:24Z</time>
      </trkpt>
      <trkpt lat="42.925436" lon="-8.180451">
        <ele>324.108</ele>
        <time>2021-07-11T10:48:31Z</time>
      </trkpt>
      <trkpt lat="42.925510" lon="-8.180390">
        <ele>325.080</ele>
        <time>2021-07-11T10:48:34Z</time>
      </trkpt>
      <trkpt lat="42.925527" lon="-8.180363">
        <ele>325.562</ele>
        <time>2021-07-11T10:48:35Z</time>
      </trkpt>
      <trkpt lat="42.925538" lon="-8.180342">
        <ele>326.049</ele>
        <time>2021-07-11T10:48:36Z</time>
      </trkpt>
      <trkpt lat="42.925548" lon="-8.180319">
        <ele>326.579</ele>
        <time>2021-07-11T10:48:37Z</time>
      </trkpt>
      <trkpt lat="42.925553" lon="-8.180301">
        <ele>326.913</ele>
        <time>2021-07-11T10:48:38Z</time>
      </trkpt>
      <trkpt lat="42.925547" lon="-8.180189">
        <ele>327.971</ele>
        <time>2021-07-11T10:48:45Z</time>
      </trkpt>
      <trkpt lat="42.925516" lon="-8.179948">
        <ele>327.988</ele>
        <time>2021-07-11T10:48:54Z</time>
      </trkpt>
      <trkpt lat="42.925470" lon="-8.179792">
        <ele>329.326</ele>
        <time>2021-07-11T10:49:02Z</time>
      </trkpt>
      <trkpt lat="42.925460" lon="-8.179753">
        <ele>329.884</ele>
        <time>2021-07-11T10:49:05Z</time>
      </trkpt>
      <trkpt lat="42.925455" lon="-8.179736">
        <ele>329.807</ele>
        <time>2021-07-11T10:49:06Z</time>
      </trkpt>
      <trkpt lat="42.925449" lon="-8.179721">
        <ele>329.817</ele>
        <time>2021-07-11T10:49:07Z</time>
      </trkpt>
      <trkpt lat="42.925444" lon="-8.179707">
        <ele>330.308</ele>
        <time>2021-07-11T10:49:08Z</time>
      </trkpt>
      <trkpt lat="42.925439" lon="-8.179692">
        <ele>330.385</ele>
        <time>2021-07-11T10:49:09Z</time>
      </trkpt>
      <trkpt lat="42.925432" lon="-8.179676">
        <ele>330.357</ele>
        <time>2021-07-11T10:49:10Z</time>
      </trkpt>
      <trkpt lat="42.925358" lon="-8.179482">
        <ele>332.234</ele>
        <time>2021-07-11T10:49:20Z</time>
      </trkpt>
      <trkpt lat="42.925351" lon="-8.179464">
        <ele>332.254</ele>
        <time>2021-07-11T10:49:21Z</time>
      </trkpt>
      <trkpt lat="42.925343" lon="-8.179445">
        <ele>332.738</ele>
        <time>2021-07-11T10:49:22Z</time>
      </trkpt>
      <trkpt lat="42.925338" lon="-8.179426">
        <ele>332.766</ele>
        <time>2021-07-11T10:49:23Z</time>
      </trkpt>
      <trkpt lat="42.925334" lon="-8.179403">
        <ele>332.743</ele>
        <time>2021-07-11T10:49:24Z</time>
      </trkpt>
      <trkpt lat="42.925331" lon="-8.179386">
        <ele>332.721</ele>
        <time>2021-07-11T10:49:25Z</time>
      </trkpt>
      <trkpt lat="42.925301" lon="-8.179199">
        <ele>332.292</ele>
        <time>2021-07-11T10:49:34Z</time>
      </trkpt>
      <trkpt lat="42.925270" lon="-8.179008">
        <ele>334.273</ele>
        <time>2021-07-11T10:49:43Z</time>
      </trkpt>
      <trkpt lat="42.925265" lon="-8.178828">
        <ele>337.520</ele>
        <time>2021-07-11T10:49:52Z</time>
      </trkpt>
      <trkpt lat="42.925261" lon="-8.178810">
        <ele>338.008</ele>
        <time>2021-07-11T10:49:53Z</time>
      </trkpt>
      <trkpt lat="42.925257" lon="-8.178794">
        <ele>338.086</ele>
        <time>2021-07-11T10:49:54Z</time>
      </trkpt>
      <trkpt lat="42.925254" lon="-8.178777">
        <ele>338.528</ele>
        <time>2021-07-11T10:49:55Z</time>
      </trkpt>
      <trkpt lat="42.925253" lon="-8.178760">
        <ele>338.555</ele>
        <time>2021-07-11T10:49:56Z</time>
      </trkpt>
      <trkpt lat="42.925253" lon="-8.178742">
        <ele>338.535</ele>
        <time>2021-07-11T10:49:57Z</time>
      </trkpt>
      <trkpt lat="42.925254" lon="-8.178609">
        <ele>339.479</ele>
        <time>2021-07-11T10:50:05Z</time>
      </trkpt>
      <trkpt lat="42.925251" lon="-8.178490">
        <ele>341.857</ele>
        <time>2021-07-11T10:50:13Z</time>
      </trkpt>
      <trkpt lat="42.925250" lon="-8.178300">
        <ele>348.134</ele>
        <time>2021-07-11T10:50:24Z</time>
      </trkpt>
      <trkpt lat="42.925240" lon="-8.178161">
        <ele>352.422</ele>
        <time>2021-07-11T10:50:32Z</time>
      </trkpt>
      <trkpt lat="42.925250" lon="-8.178007">
        <ele>352.988</ele>
        <time>2021-07-11T10:50:40Z</time>
      </trkpt>
      <trkpt lat="42.925257" lon="-8.177860">
        <ele>357.724</ele>
        <time>2021-07-11T10:50:48Z</time>
      </trkpt>
      <trkpt lat="42.925265" lon="-8.177748">
        <ele>359.126</ele>
        <time>2021-07-11T10:50:54Z</time>
      </trkpt>
      <trkpt lat="42.925265" lon="-8.177726">
        <ele>359.108</ele>
        <time>2021-07-11T10:50:55Z</time>
      </trkpt>
      <trkpt lat="42.925267" lon="-8.177704">
        <ele>359.125</ele>
        <time>2021-07-11T10:50:56Z</time>
      </trkpt>
      <trkpt lat="42.925269" lon="-8.177680">
        <ele>359.617</ele>
        <time>2021-07-11T10:50:57Z</time>
      </trkpt>
      <trkpt lat="42.925272" lon="-8.177659">
        <ele>359.614</ele>
        <time>2021-07-11T10:50:58Z</time>
      </trkpt>
      <trkpt lat="42.925274" lon="-8.177640">
        <ele>360.194</ele>
        <time>2021-07-11T10:50:59Z</time>
      </trkpt>
      <trkpt lat="42.925315" lon="-8.177414">
        <ele>357.288</ele>
        <time>2021-07-11T10:51:08Z</time>
      </trkpt>
      <trkpt lat="42.925382" lon="-8.177214">
        <ele>355.376</ele>
        <time>2021-07-11T10:51:17Z</time>
      </trkpt>
      <trkpt lat="42.925421" lon="-8.177095">
        <ele>354.883</ele>
        <time>2021-07-11T10:51:25Z</time>
      </trkpt>
      <trkpt lat="42.925466" lon="-8.176911">
        <ele>354.381</ele>
        <time>2021-07-11T10:51:35Z</time>
      </trkpt>
      <trkpt lat="42.925517" lon="-8.176762">
        <ele>354.347</ele>
        <time>2021-07-11T10:51:43Z</time>
      </trkpt>
      <trkpt lat="42.925587" lon="-8.176562">
        <ele>355.329</ele>
        <time>2021-07-11T10:51:53Z</time>
      </trkpt>
      <trkpt lat="42.925634" lon="-8.176405">
        <ele>357.221</ele>
        <time>2021-07-11T10:52:01Z</time>
      </trkpt>
      <trkpt lat="42.925703" lon="-8.176201">
        <ele>357.708</ele>
        <time>2021-07-11T10:52:10Z</time>
      </trkpt>
      <trkpt lat="42.925765" lon="-8.176019">
        <ele>357.271</ele>
        <time>2021-07-11T10:52:19Z</time>
      </trkpt>
      <trkpt lat="42.925822" lon="-8.175865">
        <ele>357.713</ele>
        <time>2021-07-11T10:52:27Z</time>
      </trkpt>
      <trkpt lat="42.925827" lon="-8.175843">
        <ele>358.220</ele>
        <time>2021-07-11T10:52:28Z</time>
      </trkpt>
      <trkpt lat="42.925834" lon="-8.175819">
        <ele>358.710</ele>
        <time>2021-07-11T10:52:29Z</time>
      </trkpt>
      <trkpt lat="42.925840" lon="-8.175799">
        <ele>358.784</ele>
        <time>2021-07-11T10:52:30Z</time>
      </trkpt>
      <trkpt lat="42.925850" lon="-8.175779">
        <ele>359.112</ele>
        <time>2021-07-11T10:52:31Z</time>
      </trkpt>
      <trkpt lat="42.925907" lon="-8.175639">
        <ele>358.779</ele>
        <time>2021-07-11T10:52:38Z</time>
      </trkpt>
      <trkpt lat="42.925978" lon="-8.175476">
        <ele>358.717</ele>
        <time>2021-07-11T10:52:45Z</time>
      </trkpt>
      <trkpt lat="42.926029" lon="-8.175332">
        <ele>359.632</ele>
        <time>2021-07-11T10:52:51Z</time>
      </trkpt>
      <trkpt lat="42.926107" lon="-8.175147">
        <ele>363.092</ele>
        <time>2021-07-11T10:52:59Z</time>
      </trkpt>
      <trkpt lat="42.926187" lon="-8.174967">
        <ele>362.011</ele>
        <time>2021-07-11T10:53:06Z</time>
      </trkpt>
      <trkpt lat="42.926243" lon="-8.174794">
        <ele>364.408</ele>
        <time>2021-07-11T10:53:13Z</time>
      </trkpt>
      <trkpt lat="42.926328" lon="-8.174562">
        <ele>365.460</ele>
        <time>2021-07-11T10:53:21Z</time>
      </trkpt>
      <trkpt lat="42.926426" lon="-8.174402">
        <ele>365.952</ele>
        <time>2021-07-11T10:53:29Z</time>
      </trkpt>
      <trkpt lat="42.926541" lon="-8.174266">
        <ele>367.359</ele>
        <time>2021-07-11T10:53:37Z</time>
      </trkpt>
      <trkpt lat="42.926625" lon="-8.174210">
        <ele>368.369</ele>
        <time>2021-07-11T10:53:44Z</time>
      </trkpt>
      <trkpt lat="42.926641" lon="-8.174213">
        <ele>368.353</ele>
        <time>2021-07-11T10:53:54Z</time>
      </trkpt>
      <trkpt lat="42.926653" lon="-8.174195">
        <ele>368.331</ele>
        <time>2021-07-11T10:54:02Z</time>
      </trkpt>
      <trkpt lat="42.926675" lon="-8.174191">
        <ele>368.398</ele>
        <time>2021-07-11T10:54:03Z</time>
      </trkpt>
      <trkpt lat="42.926761" lon="-8.174175">
        <ele>368.366</ele>
        <time>2021-07-11T10:54:09Z</time>
      </trkpt>
      <trkpt lat="42.926952" lon="-8.174124">
        <ele>368.382</ele>
        <time>2021-07-11T10:54:18Z</time>
      </trkpt>
      <trkpt lat="42.927143" lon="-8.174007">
        <ele>369.743</ele>
        <time>2021-07-11T10:54:25Z</time>
      </trkpt>
      <trkpt lat="42.927271" lon="-8.173865">
        <ele>369.717</ele>
        <time>2021-07-11T10:54:32Z</time>
      </trkpt>
      <trkpt lat="42.927373" lon="-8.173705">
        <ele>369.208</ele>
        <time>2021-07-11T10:54:38Z</time>
      </trkpt>
      <trkpt lat="42.927432" lon="-8.173495">
        <ele>369.765</ele>
        <time>2021-07-11T10:54:45Z</time>
      </trkpt>
      <trkpt lat="42.927374" lon="-8.173244">
        <ele>370.277</ele>
        <time>2021-07-11T10:54:53Z</time>
      </trkpt>
      <trkpt lat="42.927304" lon="-8.172950">
        <ele>370.274</ele>
        <time>2021-07-11T10:55:00Z</time>
      </trkpt>
      <trkpt lat="42.927271" lon="-8.172718">
        <ele>368.834</ele>
        <time>2021-07-11T10:55:05Z</time>
      </trkpt>
      <trkpt lat="42.927198" lon="-8.172456">
        <ele>366.488</ele>
        <time>2021-07-11T10:55:11Z</time>
      </trkpt>
      <trkpt lat="42.927134" lon="-8.172223">
        <ele>364.086</ele>
        <time>2021-07-11T10:55:16Z</time>
      </trkpt>
      <trkpt lat="42.927074" lon="-8.171929">
        <ele>360.163</ele>
        <time>2021-07-11T10:55:22Z</time>
      </trkpt>
      <trkpt lat="42.927085" lon="-8.171803">
        <ele>356.331</ele>
        <time>2021-07-11T10:55:27Z</time>
      </trkpt>
      <trkpt lat="42.927107" lon="-8.171680">
        <ele>353.925</ele>
        <time>2021-07-11T10:55:49Z</time>
      </trkpt>
      <trkpt lat="42.927081" lon="-8.171655">
        <ele>353.426</ele>
        <time>2021-07-11T10:56:08Z</time>
      </trkpt>
      <trkpt lat="42.927072" lon="-8.171612">
        <ele>352.408</ele>
        <time>2021-07-11T10:56:10Z</time>
      </trkpt>
      <trkpt lat="42.927081" lon="-8.171373">
        <ele>347.608</ele>
        <time>2021-07-11T10:56:15Z</time>
      </trkpt>
      <trkpt lat="42.927071" lon="-8.170948">
        <ele>341.459</ele>
        <time>2021-07-11T10:56:22Z</time>
      </trkpt>
      <trkpt lat="42.927060" lon="-8.170629">
        <ele>340.921</ele>
        <time>2021-07-11T10:56:27Z</time>
      </trkpt>
      <trkpt lat="42.927105" lon="-8.170385">
        <ele>343.338</ele>
        <time>2021-07-11T10:56:33Z</time>
      </trkpt>
      <trkpt lat="42.927121" lon="-8.170245">
        <ele>345.298</ele>
        <time>2021-07-11T10:56:40Z</time>
      </trkpt>
      <trkpt lat="42.927143" lon="-8.170096">
        <ele>345.222</ele>
        <time>2021-07-11T10:56:48Z</time>
      </trkpt>
      <trkpt lat="42.927144" lon="-8.170072">
        <ele>345.750</ele>
        <time>2021-07-11T10:56:49Z</time>
      </trkpt>
      <trkpt lat="42.927146" lon="-8.170056">
        <ele>345.717</ele>
        <time>2021-07-11T10:56:50Z</time>
      </trkpt>
      <trkpt lat="42.927145" lon="-8.169952">
        <ele>346.245</ele>
        <time>2021-07-11T10:56:56Z</time>
      </trkpt>
      <trkpt lat="42.927126" lon="-8.169775">
        <ele>348.166</ele>
        <time>2021-07-11T10:57:04Z</time>
      </trkpt>
      <trkpt lat="42.927087" lon="-8.169548">
        <ele>350.029</ele>
        <time>2021-07-11T10:57:14Z</time>
      </trkpt>
      <trkpt lat="42.927042" lon="-8.169359">
        <ele>352.921</ele>
        <time>2021-07-11T10:57:23Z</time>
      </trkpt>
      <trkpt lat="42.926991" lon="-8.169083">
        <ele>354.308</ele>
        <time>2021-07-11T10:57:35Z</time>
      </trkpt>
      <trkpt lat="42.926959" lon="-8.168908">
        <ele>355.333</ele>
        <time>2021-07-11T10:57:43Z</time>
      </trkpt>
      <trkpt lat="42.926916" lon="-8.168693">
        <ele>357.215</ele>
        <time>2021-07-11T10:57:53Z</time>
      </trkpt>
      <trkpt lat="42.926881" lon="-8.168530">
        <ele>360.162</ele>
        <time>2021-07-11T10:58:02Z</time>
      </trkpt>
      <trkpt lat="42.926836" lon="-8.168325">
        <ele>361.122</ele>
        <time>2021-07-11T10:58:12Z</time>
      </trkpt>
      <trkpt lat="42.926810" lon="-8.168213">
        <ele>362.576</ele>
        <time>2021-07-11T10:58:20Z</time>
      </trkpt>
      <trkpt lat="42.926795" lon="-8.168096">
        <ele>363.094</ele>
        <time>2021-07-11T10:58:28Z</time>
      </trkpt>
      <trkpt lat="42.926785" lon="-8.167978">
        <ele>364.031</ele>
        <time>2021-07-11T10:58:37Z</time>
      </trkpt>
      <trkpt lat="42.926778" lon="-8.167925">
        <ele>364.979</ele>
        <time>2021-07-11T10:58:41Z</time>
      </trkpt>
      <trkpt lat="42.926777" lon="-8.167824">
        <ele>365.437</ele>
        <time>2021-07-11T10:58:49Z</time>
      </trkpt>
      <trkpt lat="42.926781" lon="-8.167690">
        <ele>365.949</ele>
        <time>2021-07-11T10:58:59Z</time>
      </trkpt>
      <trkpt lat="42.926781" lon="-8.167544">
        <ele>368.813</ele>
        <time>2021-07-11T10:59:09Z</time>
      </trkpt>
      <trkpt lat="42.926779" lon="-8.167356">
        <ele>371.208</ele>
        <time>2021-07-11T10:59:20Z</time>
      </trkpt>
      <trkpt lat="42.926780" lon="-8.167215">
        <ele>371.610</ele>
        <time>2021-07-11T10:59:28Z</time>
      </trkpt>
      <trkpt lat="42.926783" lon="-8.167032">
        <ele>372.142</ele>
        <time>2021-07-11T10:59:38Z</time>
      </trkpt>
      <trkpt lat="42.926766" lon="-8.166875">
        <ele>373.699</ele>
        <time>2021-07-11T10:59:46Z</time>
      </trkpt>
      <trkpt lat="42.926720" lon="-8.166650">
        <ele>374.079</ele>
        <time>2021-07-11T10:59:57Z</time>
      </trkpt>
      <trkpt lat="42.926670" lon="-8.166467">
        <ele>374.513</ele>
        <time>2021-07-11T11:00:06Z</time>
      </trkpt>
      <trkpt lat="42.926607" lon="-8.166291">
        <ele>376.921</ele>
        <time>2021-07-11T11:00:16Z</time>
      </trkpt>
      <trkpt lat="42.926538" lon="-8.166123">
        <ele>378.978</ele>
        <time>2021-07-11T11:00:25Z</time>
      </trkpt>
      <trkpt lat="42.926455" lon="-8.165950">
        <ele>380.366</ele>
        <time>2021-07-11T11:00:34Z</time>
      </trkpt>
      <trkpt lat="42.926404" lon="-8.165829">
        <ele>381.394</ele>
        <time>2021-07-11T11:00:41Z</time>
      </trkpt>
      <trkpt lat="42.926357" lon="-8.165668">
        <ele>382.757</ele>
        <time>2021-07-11T11:00:49Z</time>
      </trkpt>
      <trkpt lat="42.926313" lon="-8.165505">
        <ele>383.722</ele>
        <time>2021-07-11T11:00:58Z</time>
      </trkpt>
      <trkpt lat="42.926300" lon="-8.165312">
        <ele>383.208</ele>
        <time>2021-07-11T11:01:08Z</time>
      </trkpt>
      <trkpt lat="42.926301" lon="-8.165291">
        <ele>383.756</ele>
        <time>2021-07-11T11:01:09Z</time>
      </trkpt>
      <trkpt lat="42.926301" lon="-8.165272">
        <ele>383.798</ele>
        <time>2021-07-11T11:01:10Z</time>
      </trkpt>
      <trkpt lat="42.926303" lon="-8.165252">
        <ele>383.765</ele>
        <time>2021-07-11T11:01:11Z</time>
      </trkpt>
      <trkpt lat="42.926305" lon="-8.165233">
        <ele>383.735</ele>
        <time>2021-07-11T11:01:12Z</time>
      </trkpt>
      <trkpt lat="42.926306" lon="-8.165215">
        <ele>384.189</ele>
        <time>2021-07-11T11:01:13Z</time>
      </trkpt>
      <trkpt lat="42.926307" lon="-8.165196">
        <ele>383.757</ele>
        <time>2021-07-11T11:01:14Z</time>
      </trkpt>
      <trkpt lat="42.926307" lon="-8.165177">
        <ele>383.774</ele>
        <time>2021-07-11T11:01:15Z</time>
      </trkpt>
      <trkpt lat="42.926307" lon="-8.165159">
        <ele>383.742</ele>
        <time>2021-07-11T11:01:16Z</time>
      </trkpt>
      <trkpt lat="42.926328" lon="-8.165062">
        <ele>384.125</ele>
        <time>2021-07-11T11:01:22Z</time>
      </trkpt>
      <trkpt lat="42.926328" lon="-8.165044">
        <ele>384.126</ele>
        <time>2021-07-11T11:01:23Z</time>
      </trkpt>
      <trkpt lat="42.926329" lon="-8.165028">
        <ele>384.608</ele>
        <time>2021-07-11T11:01:24Z</time>
      </trkpt>
      <trkpt lat="42.926334" lon="-8.164999">
        <ele>384.608</ele>
        <time>2021-07-11T11:01:26Z</time>
      </trkpt>
      <trkpt lat="42.926337" lon="-8.164971">
        <ele>384.659</ele>
        <time>2021-07-11T11:01:31Z</time>
      </trkpt>
      <trkpt lat="42.926326" lon="-8.164961">
        <ele>385.191</ele>
        <time>2021-07-11T11:01:38Z</time>
      </trkpt>
      <trkpt lat="42.926341" lon="-8.164956">
        <ele>386.578</ele>
        <time>2021-07-11T11:01:49Z</time>
      </trkpt>
      <trkpt lat="42.926377" lon="-8.164956">
        <ele>386.198</ele>
        <time>2021-07-11T11:02:00Z</time>
      </trkpt>
      <trkpt lat="42.926394" lon="-8.164951">
        <ele>387.592</ele>
        <time>2021-07-11T11:02:12Z</time>
      </trkpt>
      <trkpt lat="42.926378" lon="-8.164941">
        <ele>387.540</ele>
        <time>2021-07-11T11:02:28Z</time>
      </trkpt>
      <trkpt lat="42.926374" lon="-8.164916">
        <ele>388.077</ele>
        <time>2021-07-11T11:02:41Z</time>
      </trkpt>
      <trkpt lat="42.926369" lon="-8.164942">
        <ele>384.615</ele>
        <time>2021-07-11T11:02:57Z</time>
      </trkpt>
      <trkpt lat="42.926377" lon="-8.164932">
        <ele>385.644</ele>
        <time>2021-07-11T11:03:09Z</time>
      </trkpt>
      <trkpt lat="42.926376" lon="-8.164921">
        <ele>387.505</ele>
        <time>2021-07-11T11:03:22Z</time>
      </trkpt>
      <trkpt lat="42.926357" lon="-8.164892">
        <ele>388.015</ele>
        <time>2021-07-11T11:03:28Z</time>
      </trkpt>
      <trkpt lat="42.926336" lon="-8.164861">
        <ele>387.508</ele>
        <time>2021-07-11T11:03:33Z</time>
      </trkpt>
      <trkpt lat="42.926327" lon="-8.164844">
        <ele>387.561</ele>
        <time>2021-07-11T11:03:34Z</time>
      </trkpt>
      <trkpt lat="42.926319" lon="-8.164823">
        <ele>388.033</ele>
        <time>2021-07-11T11:03:35Z</time>
      </trkpt>
      <trkpt lat="42.926313" lon="-8.164810">
        <ele>388.010</ele>
        <time>2021-07-11T11:03:36Z</time>
      </trkpt>
      <trkpt lat="42.926305" lon="-8.164792">
        <ele>388.090</ele>
        <time>2021-07-11T11:03:37Z</time>
      </trkpt>
      <trkpt lat="42.926255" lon="-8.164570">
        <ele>388.054</ele>
        <time>2021-07-11T11:03:48Z</time>
      </trkpt>
      <trkpt lat="42.926242" lon="-8.164424">
        <ele>388.542</ele>
        <time>2021-07-11T11:03:56Z</time>
      </trkpt>
      <trkpt lat="42.926219" lon="-8.164196">
        <ele>389.989</ele>
        <time>2021-07-11T11:04:07Z</time>
      </trkpt>
      <trkpt lat="42.926217" lon="-8.164012">
        <ele>390.457</ele>
        <time>2021-07-11T11:04:16Z</time>
      </trkpt>
      <trkpt lat="42.926207" lon="-8.163844">
        <ele>391.883</ele>
        <time>2021-07-11T11:04:24Z</time>
      </trkpt>
      <trkpt lat="42.926197" lon="-8.163655">
        <ele>390.925</ele>
        <time>2021-07-11T11:04:33Z</time>
      </trkpt>
      <trkpt lat="42.926198" lon="-8.163502">
        <ele>392.817</ele>
        <time>2021-07-11T11:04:42Z</time>
      </trkpt>
      <trkpt lat="42.926210" lon="-8.163508">
        <ele>395.208</ele>
        <time>2021-07-11T11:04:51Z</time>
      </trkpt>
      <trkpt lat="42.926221" lon="-8.163507">
        <ele>396.265</ele>
        <time>2021-07-11T11:05:03Z</time>
      </trkpt>
      <trkpt lat="42.926225" lon="-8.163437">
        <ele>394.727</ele>
        <time>2021-07-11T11:05:10Z</time>
      </trkpt>
      <trkpt lat="42.926244" lon="-8.163225">
        <ele>393.314</ele>
        <time>2021-07-11T11:05:17Z</time>
      </trkpt>
      <trkpt lat="42.926266" lon="-8.163003">
        <ele>393.324</ele>
        <time>2021-07-11T11:05:26Z</time>
      </trkpt>
      <trkpt lat="42.926270" lon="-8.162869">
        <ele>395.798</ele>
        <time>2021-07-11T11:05:34Z</time>
      </trkpt>
      <trkpt lat="42.926273" lon="-8.162851">
        <ele>395.786</ele>
        <time>2021-07-11T11:05:35Z</time>
      </trkpt>
      <trkpt lat="42.926299" lon="-8.162785">
        <ele>395.793</ele>
        <time>2021-07-11T11:05:39Z</time>
      </trkpt>
      <trkpt lat="42.926343" lon="-8.162584">
        <ele>395.761</ele>
        <time>2021-07-11T11:05:48Z</time>
      </trkpt>
      <trkpt lat="42.926382" lon="-8.162391">
        <ele>395.214</ele>
        <time>2021-07-11T11:05:55Z</time>
      </trkpt>
      <trkpt lat="42.926440" lon="-8.162240">
        <ele>395.754</ele>
        <time>2021-07-11T11:06:03Z</time>
      </trkpt>
      <trkpt lat="42.926529" lon="-8.162021">
        <ele>396.609</ele>
        <time>2021-07-11T11:06:11Z</time>
      </trkpt>
      <trkpt lat="42.926613" lon="-8.161759">
        <ele>397.108</ele>
        <time>2021-07-11T11:06:19Z</time>
      </trkpt>
      <trkpt lat="42.926732" lon="-8.161466">
        <ele>395.738</ele>
        <time>2021-07-11T11:06:27Z</time>
      </trkpt>
      <trkpt lat="42.926914" lon="-8.161090">
        <ele>393.330</ele>
        <time>2021-07-11T11:06:37Z</time>
      </trkpt>
      <trkpt lat="42.927037" lon="-8.160812">
        <ele>392.377</ele>
        <time>2021-07-11T11:06:45Z</time>
      </trkpt>
      <trkpt lat="42.927094" lon="-8.160685">
        <ele>392.847</ele>
        <time>2021-07-11T11:06:49Z</time>
      </trkpt>
      <trkpt lat="42.927192" lon="-8.160429">
        <ele>395.711</ele>
        <time>2021-07-11T11:06:57Z</time>
      </trkpt>
      <trkpt lat="42.927272" lon="-8.160358">
        <ele>398.119</ele>
        <time>2021-07-11T11:07:04Z</time>
      </trkpt>
      <trkpt lat="42.927294" lon="-8.160351">
        <ele>398.136</ele>
        <time>2021-07-11T11:07:12Z</time>
      </trkpt>
      <trkpt lat="42.927305" lon="-8.160337">
        <ele>398.174</ele>
        <time>2021-07-11T11:07:13Z</time>
      </trkpt>
      <trkpt lat="42.927395" lon="-8.160107">
        <ele>399.558</ele>
        <time>2021-07-11T11:07:21Z</time>
      </trkpt>
      <trkpt lat="42.927452" lon="-8.159851">
        <ele>399.552</ele>
        <time>2021-07-11T11:07:28Z</time>
      </trkpt>
      <trkpt lat="42.927622" lon="-8.159462">
        <ele>399.017</ele>
        <time>2021-07-11T11:07:39Z</time>
      </trkpt>
      <trkpt lat="42.927760" lon="-8.159108">
        <ele>399.508</ele>
        <time>2021-07-11T11:07:48Z</time>
      </trkpt>
      <trkpt lat="42.927907" lon="-8.158704">
        <ele>399.552</ele>
        <time>2021-07-11T11:07:58Z</time>
      </trkpt>
      <trkpt lat="42.928050" lon="-8.158295">
        <ele>401.044</ele>
        <time>2021-07-11T11:08:08Z</time>
      </trkpt>
      <trkpt lat="42.928233" lon="-8.157779">
        <ele>403.871</ele>
        <time>2021-07-11T11:08:20Z</time>
      </trkpt>
      <trkpt lat="42.928384" lon="-8.157401">
        <ele>403.821</ele>
        <time>2021-07-11T11:08:29Z</time>
      </trkpt>
      <trkpt lat="42.928524" lon="-8.157002">
        <ele>404.875</ele>
        <time>2021-07-11T11:08:39Z</time>
      </trkpt>
      <trkpt lat="42.928655" lon="-8.156623">
        <ele>406.233</ele>
        <time>2021-07-11T11:08:48Z</time>
      </trkpt>
      <trkpt lat="42.928878" lon="-8.156051">
        <ele>407.280</ele>
        <time>2021-07-11T11:09:01Z</time>
      </trkpt>
      <trkpt lat="42.929110" lon="-8.155492">
        <ele>408.238</ele>
        <time>2021-07-11T11:09:13Z</time>
      </trkpt>
      <trkpt lat="42.929266" lon="-8.155056">
        <ele>408.287</ele>
        <time>2021-07-11T11:09:22Z</time>
      </trkpt>
      <trkpt lat="42.929527" lon="-8.154326">
        <ele>407.242</ele>
        <time>2021-07-11T11:09:35Z</time>
      </trkpt>
      <trkpt lat="42.929727" lon="-8.153766">
        <ele>405.326</ele>
        <time>2021-07-11T11:09:45Z</time>
      </trkpt>
      <trkpt lat="42.929874" lon="-8.153163">
        <ele>403.808</ele>
        <time>2021-07-11T11:09:56Z</time>
      </trkpt>
      <trkpt lat="42.929974" lon="-8.152564">
        <ele>401.445</ele>
        <time>2021-07-11T11:10:05Z</time>
      </trkpt>
      <trkpt lat="42.930047" lon="-8.151800">
        <ele>398.617</ele>
        <time>2021-07-11T11:10:15Z</time>
      </trkpt>
      <trkpt lat="42.930068" lon="-8.151030">
        <ele>396.644</ele>
        <time>2021-07-11T11:10:24Z</time>
      </trkpt>
      <trkpt lat="42.930054" lon="-8.150312">
        <ele>395.784</ele>
        <time>2021-07-11T11:10:33Z</time>
      </trkpt>
      <trkpt lat="42.930043" lon="-8.149772">
        <ele>396.248</ele>
        <time>2021-07-11T11:10:42Z</time>
      </trkpt>
      <trkpt lat="42.930044" lon="-8.149698">
        <ele>396.296</ele>
        <time>2021-07-11T11:10:43Z</time>
      </trkpt>
      <trkpt lat="42.930049" lon="-8.149181">
        <ele>396.693</ele>
        <time>2021-07-11T11:10:53Z</time>
      </trkpt>
      <trkpt lat="42.930047" lon="-8.148561">
        <ele>398.641</ele>
        <time>2021-07-11T11:11:04Z</time>
      </trkpt>
      <trkpt lat="42.930022" lon="-8.148069">
        <ele>399.048</ele>
        <time>2021-07-11T11:11:13Z</time>
      </trkpt>
      <trkpt lat="42.930011" lon="-8.147566">
        <ele>397.661</ele>
        <time>2021-07-11T11:11:22Z</time>
      </trkpt>
      <trkpt lat="42.929997" lon="-8.147044">
        <ele>396.617</ele>
        <time>2021-07-11T11:11:31Z</time>
      </trkpt>
      <trkpt lat="42.929994" lon="-8.146544">
        <ele>395.708</ele>
        <time>2021-07-11T11:11:39Z</time>
      </trkpt>
      <trkpt lat="42.929992" lon="-8.145995">
        <ele>394.761</ele>
        <time>2021-07-11T11:11:48Z</time>
      </trkpt>
      <trkpt lat="42.929983" lon="-8.145441">
        <ele>393.353</ele>
        <time>2021-07-11T11:11:57Z</time>
      </trkpt>
      <trkpt lat="42.929973" lon="-8.144951">
        <ele>392.860</ele>
        <time>2021-07-11T11:12:07Z</time>
      </trkpt>
      <trkpt lat="42.929976" lon="-8.144772">
        <ele>392.390</ele>
        <time>2021-07-11T11:12:12Z</time>
      </trkpt>
      <trkpt lat="42.929974" lon="-8.144656">
        <ele>392.324</ele>
        <time>2021-07-11T11:12:18Z</time>
      </trkpt>
      <trkpt lat="42.929951" lon="-8.144637">
        <ele>392.342</ele>
        <time>2021-07-11T11:12:23Z</time>
      </trkpt>
      <trkpt lat="42.929939" lon="-8.144630">
        <ele>392.389</ele>
        <time>2021-07-11T11:12:24Z</time>
      </trkpt>
      <trkpt lat="42.929933" lon="-8.144629">
        <ele>391.857</ele>
        <time>2021-07-11T11:12:30Z</time>
      </trkpt>
      <trkpt lat="42.929925" lon="-8.144640">
        <ele>392.899</ele>
        <time>2021-07-11T11:12:42Z</time>
      </trkpt>
      <trkpt lat="42.929932" lon="-8.144605">
        <ele>393.807</ele>
        <time>2021-07-11T11:12:56Z</time>
      </trkpt>
      <trkpt lat="42.929922" lon="-8.144613">
        <ele>394.727</ele>
        <time>2021-07-11T11:13:14Z</time>
      </trkpt>
      <trkpt lat="42.929887" lon="-8.144597">
        <ele>392.808</ele>
        <time>2021-07-11T11:13:43Z</time>
      </trkpt>
      <trkpt lat="42.929909" lon="-8.144601">
        <ele>390.426</ele>
        <time>2021-07-11T11:14:00Z</time>
      </trkpt>
      <trkpt lat="42.929943" lon="-8.144621">
        <ele>391.398</ele>
        <time>2021-07-11T11:14:15Z</time>
      </trkpt>
      <trkpt lat="42.929935" lon="-8.144602">
        <ele>392.385</ele>
        <time>2021-07-11T11:14:36Z</time>
      </trkpt>
      <trkpt lat="42.929928" lon="-8.144609">
        <ele>393.855</ele>
        <time>2021-07-11T11:15:06Z</time>
      </trkpt>
      <trkpt lat="42.929913" lon="-8.144579">
        <ele>397.619</ele>
        <time>2021-07-11T11:15:26Z</time>
      </trkpt>
      <trkpt lat="42.929916" lon="-8.144594">
        <ele>395.727</ele>
        <time>2021-07-11T11:15:51Z</time>
      </trkpt>
      <trkpt lat="42.929913" lon="-8.144590">
        <ele>395.284</ele>
        <time>2021-07-11T11:16:15Z</time>
      </trkpt>
      <trkpt lat="42.929931" lon="-8.144616">
        <ele>390.462</ele>
        <time>2021-07-11T11:16:36Z</time>
      </trkpt>
      <trkpt lat="42.929940" lon="-8.144603">
        <ele>391.825</ele>
        <time>2021-07-11T11:16:58Z</time>
      </trkpt>
      <trkpt lat="42.929957" lon="-8.144636">
        <ele>393.326</ele>
        <time>2021-07-11T11:17:16Z</time>
      </trkpt>
      <trkpt lat="42.929944" lon="-8.144600">
        <ele>390.908</ele>
        <time>2021-07-11T11:17:36Z</time>
      </trkpt>
      <trkpt lat="42.929929" lon="-8.144601">
        <ele>390.408</ele>
        <time>2021-07-11T11:17:54Z</time>
      </trkpt>
      <trkpt lat="42.929936" lon="-8.144619">
        <ele>390.959</ele>
        <time>2021-07-11T11:18:11Z</time>
      </trkpt>
      <trkpt lat="42.929930" lon="-8.144594">
        <ele>390.991</ele>
        <time>2021-07-11T11:18:18Z</time>
      </trkpt>
      <trkpt lat="42.929929" lon="-8.144562">
        <ele>391.378</ele>
        <time>2021-07-11T11:18:21Z</time>
      </trkpt>
      <trkpt lat="42.929933" lon="-8.144539">
        <ele>391.348</ele>
        <time>2021-07-11T11:18:22Z</time>
      </trkpt>
      <trkpt lat="42.929935" lon="-8.144526">
        <ele>391.332</ele>
        <time>2021-07-11T11:18:23Z</time>
      </trkpt>
      <trkpt lat="42.929943" lon="-8.144407">
        <ele>391.350</ele>
        <time>2021-07-11T11:18:30Z</time>
      </trkpt>
      <trkpt lat="42.929944" lon="-8.144343">
        <ele>391.397</ele>
        <time>2021-07-11T11:18:33Z</time>
      </trkpt>
      <trkpt lat="42.929924" lon="-8.144143">
        <ele>389.975</ele>
        <time>2021-07-11T11:18:40Z</time>
      </trkpt>
      <trkpt lat="42.929925" lon="-8.143840">
        <ele>388.573</ele>
        <time>2021-07-11T11:18:49Z</time>
      </trkpt>
      <trkpt lat="42.929933" lon="-8.143475">
        <ele>388.085</ele>
        <time>2021-07-11T11:18:57Z</time>
      </trkpt>
      <trkpt lat="42.929932" lon="-8.143147">
        <ele>386.513</ele>
        <time>2021-07-11T11:19:04Z</time>
      </trkpt>
      <trkpt lat="42.929936" lon="-8.142797">
        <ele>385.608</ele>
        <time>2021-07-11T11:19:12Z</time>
      </trkpt>
      <trkpt lat="42.929928" lon="-8.142519">
        <ele>385.614</ele>
        <time>2021-07-11T11:19:19Z</time>
      </trkpt>
      <trkpt lat="42.929926" lon="-8.142310">
        <ele>385.696</ele>
        <time>2021-07-11T11:19:26Z</time>
      </trkpt>
      <trkpt lat="42.929949" lon="-8.142112">
        <ele>384.653</ele>
        <time>2021-07-11T11:19:33Z</time>
      </trkpt>
      <trkpt lat="42.929983" lon="-8.141836">
        <ele>384.153</ele>
        <time>2021-07-11T11:19:42Z</time>
      </trkpt>
      <trkpt lat="42.930039" lon="-8.141564">
        <ele>383.227</ele>
        <time>2021-07-11T11:19:49Z</time>
      </trkpt>
      <trkpt lat="42.930187" lon="-8.141199">
        <ele>382.265</ele>
        <time>2021-07-11T11:19:58Z</time>
      </trkpt>
      <trkpt lat="42.930346" lon="-8.140840">
        <ele>381.322</ele>
        <time>2021-07-11T11:20:05Z</time>
      </trkpt>
      <trkpt lat="42.930408" lon="-8.140746">
        <ele>380.360</ele>
        <time>2021-07-11T11:20:09Z</time>
      </trkpt>
      <trkpt lat="42.930490" lon="-8.140615">
        <ele>379.834</ele>
        <time>2021-07-11T11:20:14Z</time>
      </trkpt>
      <trkpt lat="42.930625" lon="-8.140324">
        <ele>377.955</ele>
        <time>2021-07-11T11:20:22Z</time>
      </trkpt>
      <trkpt lat="42.930717" lon="-8.140024">
        <ele>376.010</ele>
        <time>2021-07-11T11:20:28Z</time>
      </trkpt>
      <trkpt lat="42.930780" lon="-8.139635">
        <ele>374.508</ele>
        <time>2021-07-11T11:20:35Z</time>
      </trkpt>
      <trkpt lat="42.930832" lon="-8.139181">
        <ele>372.660</ele>
        <time>2021-07-11T11:20:42Z</time>
      </trkpt>
      <trkpt lat="42.930891" lon="-8.138690">
        <ele>370.782</ele>
        <time>2021-07-11T11:20:48Z</time>
      </trkpt>
      <trkpt lat="42.930894" lon="-8.138606">
        <ele>370.799</ele>
        <time>2021-07-11T11:20:49Z</time>
      </trkpt>
      <trkpt lat="42.930901" lon="-8.138365">
        <ele>369.759</ele>
        <time>2021-07-11T11:20:52Z</time>
      </trkpt>
      <trkpt lat="42.930925" lon="-8.137801">
        <ele>367.323</ele>
        <time>2021-07-11T11:20:59Z</time>
      </trkpt>
      <trkpt lat="42.930858" lon="-8.137272">
        <ele>364.981</ele>
        <time>2021-07-11T11:21:05Z</time>
      </trkpt>
      <trkpt lat="42.930685" lon="-8.136556">
        <ele>362.088</ele>
        <time>2021-07-11T11:21:13Z</time>
      </trkpt>
      <trkpt lat="42.930649" lon="-8.136472">
        <ele>361.596</ele>
        <time>2021-07-11T11:21:14Z</time>
      </trkpt>
      <trkpt lat="42.930605" lon="-8.136399">
        <ele>361.155</ele>
        <time>2021-07-11T11:21:15Z</time>
      </trkpt>
      <trkpt lat="42.930548" lon="-8.136340">
        <ele>360.607</ele>
        <time>2021-07-11T11:21:16Z</time>
      </trkpt>
      <trkpt lat="42.930488" lon="-8.136292">
        <ele>360.117</ele>
        <time>2021-07-11T11:21:17Z</time>
      </trkpt>
      <trkpt lat="42.930420" lon="-8.136249">
        <ele>359.608</ele>
        <time>2021-07-11T11:21:18Z</time>
      </trkpt>
      <trkpt lat="42.930351" lon="-8.136217">
        <ele>359.692</ele>
        <time>2021-07-11T11:21:19Z</time>
      </trkpt>
      <trkpt lat="42.930272" lon="-8.136193">
        <ele>359.124</ele>
        <time>2021-07-11T11:21:20Z</time>
      </trkpt>
      <trkpt lat="42.930196" lon="-8.136179">
        <ele>358.771</ele>
        <time>2021-07-11T11:21:21Z</time>
      </trkpt>
      <trkpt lat="42.929732" lon="-8.136195">
        <ele>355.851</ele>
        <time>2021-07-11T11:21:27Z</time>
      </trkpt>
      <trkpt lat="42.929182" lon="-8.136350">
        <ele>352.495</ele>
        <time>2021-07-11T11:21:34Z</time>
      </trkpt>
      <trkpt lat="42.928967" lon="-8.136415">
        <ele>350.543</ele>
        <time>2021-07-11T11:21:38Z</time>
      </trkpt>
      <trkpt lat="42.928870" lon="-8.136432">
        <ele>348.680</ele>
        <time>2021-07-11T11:21:42Z</time>
      </trkpt>
      <trkpt lat="42.928852" lon="-8.136416">
        <ele>348.188</ele>
        <time>2021-07-11T11:21:43Z</time>
      </trkpt>
      <trkpt lat="42.928841" lon="-8.136392">
        <ele>347.611</ele>
        <time>2021-07-11T11:21:44Z</time>
      </trkpt>
      <trkpt lat="42.928842" lon="-8.136361">
        <ele>347.121</ele>
        <time>2021-07-11T11:21:45Z</time>
      </trkpt>
      <trkpt lat="42.928849" lon="-8.136343">
        <ele>347.103</ele>
        <time>2021-07-11T11:21:46Z</time>
      </trkpt>
      <trkpt lat="42.928861" lon="-8.136325">
        <ele>347.108</ele>
        <time>2021-07-11T11:21:47Z</time>
      </trkpt>
      <trkpt lat="42.928880" lon="-8.136305">
        <ele>347.118</ele>
        <time>2021-07-11T11:21:48Z</time>
      </trkpt>
      <trkpt lat="42.929058" lon="-8.136130">
        <ele>345.270</ele>
        <time>2021-07-11T11:21:53Z</time>
      </trkpt>
      <trkpt lat="42.929218" lon="-8.135990">
        <ele>342.837</ele>
        <time>2021-07-11T11:21:57Z</time>
      </trkpt>
      <trkpt lat="42.929243" lon="-8.135949">
        <ele>341.837</ele>
        <time>2021-07-11T11:21:58Z</time>
      </trkpt>
      <trkpt lat="42.929253" lon="-8.135910">
        <ele>341.861</ele>
        <time>2021-07-11T11:21:59Z</time>
      </trkpt>
      <trkpt lat="42.929253" lon="-8.135871">
        <ele>341.489</ele>
        <time>2021-07-11T11:22:00Z</time>
      </trkpt>
      <trkpt lat="42.929244" lon="-8.135826">
        <ele>341.426</ele>
        <time>2021-07-11T11:22:01Z</time>
      </trkpt>
      <trkpt lat="42.929231" lon="-8.135778">
        <ele>340.944</ele>
        <time>2021-07-11T11:22:02Z</time>
      </trkpt>
      <trkpt lat="42.929223" lon="-8.135595">
        <ele>341.445</ele>
        <time>2021-07-11T11:22:07Z</time>
      </trkpt>
      <trkpt lat="42.929234" lon="-8.135578">
        <ele>341.847</ele>
        <time>2021-07-11T11:22:08Z</time>
      </trkpt>
      <trkpt lat="42.929252" lon="-8.135556">
        <ele>341.811</ele>
        <time>2021-07-11T11:22:09Z</time>
      </trkpt>
      <trkpt lat="42.929454" lon="-8.135425">
        <ele>344.708</ele>
        <time>2021-07-11T11:22:18Z</time>
      </trkpt>
      <trkpt lat="42.929683" lon="-8.135311">
        <ele>346.641</ele>
        <time>2021-07-11T11:22:27Z</time>
      </trkpt>
      <trkpt lat="42.929789" lon="-8.135270">
        <ele>347.113</ele>
        <time>2021-07-11T11:22:33Z</time>
      </trkpt>
      <trkpt lat="42.929973" lon="-8.135244">
        <ele>347.680</ele>
        <time>2021-07-11T11:22:42Z</time>
      </trkpt>
      <trkpt lat="42.930238" lon="-8.135232">
        <ele>348.630</ele>
        <time>2021-07-11T11:22:53Z</time>
      </trkpt>
      <trkpt lat="42.930419" lon="-8.135229">
        <ele>349.174</ele>
        <time>2021-07-11T11:23:01Z</time>
      </trkpt>
      <trkpt lat="42.930585" lon="-8.135147">
        <ele>347.122</ele>
        <time>2021-07-11T11:23:07Z</time>
      </trkpt>
      <trkpt lat="42.930623" lon="-8.135092">
        <ele>346.679</ele>
        <time>2021-07-11T11:23:08Z</time>
      </trkpt>
      <trkpt lat="42.930843" lon="-8.134771">
        <ele>342.357</ele>
        <time>2021-07-11T11:23:13Z</time>
      </trkpt>
      <trkpt lat="42.930920" lon="-8.134665">
        <ele>341.424</ele>
        <time>2021-07-11T11:23:15Z</time>
      </trkpt>
      <trkpt lat="42.930942" lon="-8.134610">
        <ele>340.904</ele>
        <time>2021-07-11T11:23:16Z</time>
      </trkpt>
      <trkpt lat="42.930954" lon="-8.134529">
        <ele>339.914</ele>
        <time>2021-07-11T11:23:17Z</time>
      </trkpt>
      <trkpt lat="42.930950" lon="-8.134459">
        <ele>339.408</ele>
        <time>2021-07-11T11:23:18Z</time>
      </trkpt>
      <trkpt lat="42.930943" lon="-8.134408">
        <ele>339.499</ele>
        <time>2021-07-11T11:23:19Z</time>
      </trkpt>
      <trkpt lat="42.930928" lon="-8.134344">
        <ele>339.051</ele>
        <time>2021-07-11T11:23:20Z</time>
      </trkpt>
      <trkpt lat="42.930921" lon="-8.134306">
        <ele>338.518</ele>
        <time>2021-07-11T11:23:21Z</time>
      </trkpt>
      <trkpt lat="42.930911" lon="-8.134245">
        <ele>338.098</ele>
        <time>2021-07-11T11:23:22Z</time>
      </trkpt>
      <trkpt lat="42.930836" lon="-8.133804">
        <ele>335.142</ele>
        <time>2021-07-11T11:23:28Z</time>
      </trkpt>
      <trkpt lat="42.930701" lon="-8.133125">
        <ele>329.830</ele>
        <time>2021-07-11T11:23:37Z</time>
      </trkpt>
      <trkpt lat="42.930636" lon="-8.132736">
        <ele>325.057</ele>
        <time>2021-07-11T11:23:43Z</time>
      </trkpt>
      <trkpt lat="42.930600" lon="-8.132579">
        <ele>322.115</ele>
        <time>2021-07-11T11:23:46Z</time>
      </trkpt>
      <trkpt lat="42.930583" lon="-8.132525">
        <ele>321.257</ele>
        <time>2021-07-11T11:23:47Z</time>
      </trkpt>
      <trkpt lat="42.930569" lon="-8.132467">
        <ele>320.700</ele>
        <time>2021-07-11T11:23:48Z</time>
      </trkpt>
      <trkpt lat="42.930495" lon="-8.132027">
        <ele>316.820</ele>
        <time>2021-07-11T11:23:55Z</time>
      </trkpt>
      <trkpt lat="42.930458" lon="-8.131678">
        <ele>314.908</ele>
        <time>2021-07-11T11:24:01Z</time>
      </trkpt>
      <trkpt lat="42.930467" lon="-8.131484">
        <ele>314.012</ele>
        <time>2021-07-11T11:24:05Z</time>
      </trkpt>
      <trkpt lat="42.930459" lon="-8.131407">
        <ele>313.534</ele>
        <time>2021-07-11T11:24:07Z</time>
      </trkpt>
      <trkpt lat="42.930464" lon="-8.131343">
        <ele>313.581</ele>
        <time>2021-07-11T11:24:08Z</time>
      </trkpt>
      <trkpt lat="42.930468" lon="-8.131295">
        <ele>313.521</ele>
        <time>2021-07-11T11:24:09Z</time>
      </trkpt>
      <trkpt lat="42.930772" lon="-8.130387">
        <ele>311.165</ele>
        <time>2021-07-11T11:24:37Z</time>
      </trkpt>
      <trkpt lat="42.930829" lon="-8.130306">
        <ele>313.563</ele>
        <time>2021-07-11T11:24:44Z</time>
      </trkpt>
      <trkpt lat="42.930830" lon="-8.130304">
        <ele>314.920</ele>
        <time>2021-07-11T11:25:02Z</time>
      </trkpt>
      <trkpt lat="42.930829" lon="-8.130275">
        <ele>314.948</ele>
        <time>2021-07-11T11:25:12Z</time>
      </trkpt>
      <trkpt lat="42.930833" lon="-8.130258">
        <ele>315.932</ele>
        <time>2021-07-11T11:25:21Z</time>
      </trkpt>
      <trkpt lat="42.930844" lon="-8.130258">
        <ele>317.392</ele>
        <time>2021-07-11T11:25:32Z</time>
      </trkpt>
      <trkpt lat="42.930864" lon="-8.130211">
        <ele>317.311</ele>
        <time>2021-07-11T11:25:39Z</time>
      </trkpt>
      <trkpt lat="42.930870" lon="-8.130197">
        <ele>316.808</ele>
        <time>2021-07-11T11:25:40Z</time>
      </trkpt>
      <trkpt lat="42.930890" lon="-8.130163">
        <ele>316.480</ele>
        <time>2021-07-11T11:25:42Z</time>
      </trkpt>
      <trkpt lat="42.930907" lon="-8.130141">
        <ele>316.412</ele>
        <time>2021-07-11T11:25:43Z</time>
      </trkpt>
      <trkpt lat="42.930913" lon="-8.130124">
        <ele>315.999</ele>
        <time>2021-07-11T11:25:44Z</time>
      </trkpt>
      <trkpt lat="42.930923" lon="-8.130091">
        <ele>315.989</ele>
        <time>2021-07-11T11:25:45Z</time>
      </trkpt>
      <trkpt lat="42.930927" lon="-8.130074">
        <ele>315.943</ele>
        <time>2021-07-11T11:25:46Z</time>
      </trkpt>
      <trkpt lat="42.930932" lon="-8.130053">
        <ele>315.961</ele>
        <time>2021-07-11T11:25:47Z</time>
      </trkpt>
      <trkpt lat="42.930936" lon="-8.130031">
        <ele>315.988</ele>
        <time>2021-07-11T11:25:48Z</time>
      </trkpt>
      <trkpt lat="42.930941" lon="-8.130005">
        <ele>315.946</ele>
        <time>2021-07-11T11:25:49Z</time>
      </trkpt>
      <trkpt lat="42.930946" lon="-8.129981">
        <ele>315.495</ele>
        <time>2021-07-11T11:25:50Z</time>
      </trkpt>
      <trkpt lat="42.931020" lon="-8.129698">
        <ele>315.449</ele>
        <time>2021-07-11T11:26:01Z</time>
      </trkpt>
      <trkpt lat="42.931034" lon="-8.129471">
        <ele>316.423</ele>
        <time>2021-07-11T11:26:08Z</time>
      </trkpt>
      <trkpt lat="42.930992" lon="-8.129295">
        <ele>317.308</ele>
        <time>2021-07-11T11:26:16Z</time>
      </trkpt>
      <trkpt lat="42.930965" lon="-8.129118">
        <ele>317.326</ele>
        <time>2021-07-11T11:26:24Z</time>
      </trkpt>
      <trkpt lat="42.930952" lon="-8.128965">
        <ele>317.388</ele>
        <time>2021-07-11T11:26:32Z</time>
      </trkpt>
      <trkpt lat="42.930948" lon="-8.128940">
        <ele>317.875</ele>
        <time>2021-07-11T11:26:38Z</time>
      </trkpt>
      <trkpt lat="42.930945" lon="-8.128854">
        <ele>317.865</ele>
        <time>2021-07-11T11:26:46Z</time>
      </trkpt>
      <trkpt lat="42.930938" lon="-8.128729">
        <ele>318.839</ele>
        <time>2021-07-11T11:26:56Z</time>
      </trkpt>
      <trkpt lat="42.930949" lon="-8.128629">
        <ele>319.757</ele>
        <time>2021-07-11T11:27:04Z</time>
      </trkpt>
      <trkpt lat="42.930960" lon="-8.128485">
        <ele>321.714</ele>
        <time>2021-07-11T11:27:13Z</time>
      </trkpt>
      <trkpt lat="42.930977" lon="-8.128359">
        <ele>324.542</ele>
        <time>2021-07-11T11:27:22Z</time>
      </trkpt>
      <trkpt lat="42.930990" lon="-8.128236">
        <ele>326.571</ele>
        <time>2021-07-11T11:27:30Z</time>
      </trkpt>
      <trkpt lat="42.931002" lon="-8.128108">
        <ele>328.941</ele>
        <time>2021-07-11T11:27:40Z</time>
      </trkpt>
      <trkpt lat="42.931023" lon="-8.127973">
        <ele>331.315</ele>
        <time>2021-07-11T11:27:51Z</time>
      </trkpt>
      <trkpt lat="42.931026" lon="-8.127960">
        <ele>332.208</ele>
        <time>2021-07-11T11:28:00Z</time>
      </trkpt>
      <trkpt lat="42.931034" lon="-8.127860">
        <ele>331.744</ele>
        <time>2021-07-11T11:28:08Z</time>
      </trkpt>
      <trkpt lat="42.931054" lon="-8.127738">
        <ele>334.236</ele>
        <time>2021-07-11T11:28:19Z</time>
      </trkpt>
      <trkpt lat="42.931052" lon="-8.127671">
        <ele>335.113</ele>
        <time>2021-07-11T11:28:28Z</time>
      </trkpt>
      <trkpt lat="42.931059" lon="-8.127625">
        <ele>334.653</ele>
        <time>2021-07-11T11:28:39Z</time>
      </trkpt>
      <trkpt lat="42.931060" lon="-8.127482">
        <ele>335.627</ele>
        <time>2021-07-11T11:28:51Z</time>
      </trkpt>
      <trkpt lat="42.931053" lon="-8.127340">
        <ele>336.165</ele>
        <time>2021-07-11T11:29:02Z</time>
      </trkpt>
      <trkpt lat="42.931044" lon="-8.127167">
        <ele>337.092</ele>
        <time>2021-07-11T11:29:14Z</time>
      </trkpt>
      <trkpt lat="42.931029" lon="-8.127034">
        <ele>341.460</ele>
        <time>2021-07-11T11:29:24Z</time>
      </trkpt>
      <trkpt lat="42.930993" lon="-8.126855">
        <ele>344.716</ele>
        <time>2021-07-11T11:29:36Z</time>
      </trkpt>
      <trkpt lat="42.930969" lon="-8.126763">
        <ele>346.276</ele>
        <time>2021-07-11T11:29:44Z</time>
      </trkpt>
      <trkpt lat="42.930971" lon="-8.126766">
        <ele>346.613</ele>
        <time>2021-07-11T11:29:52Z</time>
      </trkpt>
      <trkpt lat="42.930946" lon="-8.126715">
        <ele>346.208</ele>
        <time>2021-07-11T11:30:02Z</time>
      </trkpt>
      <trkpt lat="42.930921" lon="-8.126559">
        <ele>346.688</ele>
        <time>2021-07-11T11:30:07Z</time>
      </trkpt>
      <trkpt lat="42.930861" lon="-8.126323">
        <ele>348.610</ele>
        <time>2021-07-11T11:30:16Z</time>
      </trkpt>
      <trkpt lat="42.930785" lon="-8.126131">
        <ele>349.157</ele>
        <time>2021-07-11T11:30:25Z</time>
      </trkpt>
      <trkpt lat="42.930721" lon="-8.125993">
        <ele>351.047</ele>
        <time>2021-07-11T11:30:34Z</time>
      </trkpt>
      <trkpt lat="42.930633" lon="-8.125831">
        <ele>351.961</ele>
        <time>2021-07-11T11:30:45Z</time>
      </trkpt>
      <trkpt lat="42.930535" lon="-8.125659">
        <ele>356.369</ele>
        <time>2021-07-11T11:30:55Z</time>
      </trkpt>
      <trkpt lat="42.930458" lon="-8.125507">
        <ele>358.236</ele>
        <time>2021-07-11T11:31:04Z</time>
      </trkpt>
      <trkpt lat="42.930430" lon="-8.125423">
        <ele>357.714</ele>
        <time>2021-07-11T11:31:09Z</time>
      </trkpt>
      <trkpt lat="42.930347" lon="-8.125271">
        <ele>358.294</ele>
        <time>2021-07-11T11:31:20Z</time>
      </trkpt>
      <trkpt lat="42.930307" lon="-8.125213">
        <ele>359.657</ele>
        <time>2021-07-11T11:31:24Z</time>
      </trkpt>
      <trkpt lat="42.930251" lon="-8.125035">
        <ele>361.122</ele>
        <time>2021-07-11T11:31:35Z</time>
      </trkpt>
      <trkpt lat="42.930213" lon="-8.124837">
        <ele>363.008</ele>
        <time>2021-07-11T11:31:46Z</time>
      </trkpt>
      <trkpt lat="42.930187" lon="-8.124685">
        <ele>364.056</ele>
        <time>2021-07-11T11:31:55Z</time>
      </trkpt>
      <trkpt lat="42.930175" lon="-8.124562">
        <ele>365.468</ele>
        <time>2021-07-11T11:32:03Z</time>
      </trkpt>
      <trkpt lat="42.930175" lon="-8.124532">
        <ele>365.915</ele>
        <time>2021-07-11T11:32:05Z</time>
      </trkpt>
      <trkpt lat="42.930173" lon="-8.124518">
        <ele>365.945</ele>
        <time>2021-07-11T11:32:06Z</time>
      </trkpt>
      <trkpt lat="42.930170" lon="-8.124505">
        <ele>366.459</ele>
        <time>2021-07-11T11:32:07Z</time>
      </trkpt>
      <trkpt lat="42.930166" lon="-8.124467">
        <ele>366.477</ele>
        <time>2021-07-11T11:32:09Z</time>
      </trkpt>
      <trkpt lat="42.930163" lon="-8.124455">
        <ele>366.474</ele>
        <time>2021-07-11T11:32:10Z</time>
      </trkpt>
      <trkpt lat="42.930159" lon="-8.124440">
        <ele>366.832</ele>
        <time>2021-07-11T11:32:11Z</time>
      </trkpt>
      <trkpt lat="42.930146" lon="-8.124397">
        <ele>367.365</ele>
        <time>2021-07-11T11:32:14Z</time>
      </trkpt>
      <trkpt lat="42.930126" lon="-8.124240">
        <ele>369.268</ele>
        <time>2021-07-11T11:32:23Z</time>
      </trkpt>
      <trkpt lat="42.930121" lon="-8.124224">
        <ele>369.214</ele>
        <time>2021-07-11T11:32:24Z</time>
      </trkpt>
      <trkpt lat="42.930101" lon="-8.124092">
        <ele>369.708</ele>
        <time>2021-07-11T11:32:32Z</time>
      </trkpt>
      <trkpt lat="42.930108" lon="-8.124023">
        <ele>370.273</ele>
        <time>2021-07-11T11:32:36Z</time>
      </trkpt>
      <trkpt lat="42.930094" lon="-8.123864">
        <ele>371.245</ele>
        <time>2021-07-11T11:32:45Z</time>
      </trkpt>
      <trkpt lat="42.930097" lon="-8.123792">
        <ele>372.162</ele>
        <time>2021-07-11T11:32:49Z</time>
      </trkpt>
      <trkpt lat="42.930101" lon="-8.123760">
        <ele>372.622</ele>
        <time>2021-07-11T11:32:51Z</time>
      </trkpt>
      <trkpt lat="42.930098" lon="-8.123742">
        <ele>373.186</ele>
        <time>2021-07-11T11:32:52Z</time>
      </trkpt>
      <trkpt lat="42.930098" lon="-8.123727">
        <ele>373.174</ele>
        <time>2021-07-11T11:32:53Z</time>
      </trkpt>
      <trkpt lat="42.930115" lon="-8.123578">
        <ele>375.041</ele>
        <time>2021-07-11T11:33:01Z</time>
      </trkpt>
      <trkpt lat="42.930119" lon="-8.123452">
        <ele>376.049</ele>
        <time>2021-07-11T11:33:08Z</time>
      </trkpt>
      <trkpt lat="42.930122" lon="-8.123275">
        <ele>378.426</ele>
        <time>2021-07-11T11:33:17Z</time>
      </trkpt>
      <trkpt lat="42.930143" lon="-8.123091">
        <ele>380.347</ele>
        <time>2021-07-11T11:33:27Z</time>
      </trkpt>
      <trkpt lat="42.930151" lon="-8.123001">
        <ele>381.711</ele>
        <time>2021-07-11T11:33:32Z</time>
      </trkpt>
      <trkpt lat="42.930150" lon="-8.122980">
        <ele>381.708</ele>
        <time>2021-07-11T11:33:33Z</time>
      </trkpt>
      <trkpt lat="42.930148" lon="-8.122957">
        <ele>382.289</ele>
        <time>2021-07-11T11:33:34Z</time>
      </trkpt>
      <trkpt lat="42.930150" lon="-8.122944">
        <ele>382.251</ele>
        <time>2021-07-11T11:33:35Z</time>
      </trkpt>
      <trkpt lat="42.930151" lon="-8.122924">
        <ele>382.238</ele>
        <time>2021-07-11T11:33:36Z</time>
      </trkpt>
      <trkpt lat="42.930150" lon="-8.122908">
        <ele>382.298</ele>
        <time>2021-07-11T11:33:37Z</time>
      </trkpt>
      <trkpt lat="42.930122" lon="-8.122760">
        <ele>383.232</ele>
        <time>2021-07-11T11:33:46Z</time>
      </trkpt>
      <trkpt lat="42.930079" lon="-8.122637">
        <ele>382.740</ele>
        <time>2021-07-11T11:33:55Z</time>
      </trkpt>
      <trkpt lat="42.930013" lon="-8.122484">
        <ele>383.237</ele>
        <time>2021-07-11T11:34:02Z</time>
      </trkpt>
      <trkpt lat="42.930011" lon="-8.122467">
        <ele>383.735</ele>
        <time>2021-07-11T11:34:03Z</time>
      </trkpt>
      <trkpt lat="42.930004" lon="-8.122441">
        <ele>384.192</ele>
        <time>2021-07-11T11:34:05Z</time>
      </trkpt>
      <trkpt lat="42.930000" lon="-8.122427">
        <ele>384.173</ele>
        <time>2021-07-11T11:34:06Z</time>
      </trkpt>
      <trkpt lat="42.930001" lon="-8.122412">
        <ele>384.120</ele>
        <time>2021-07-11T11:34:07Z</time>
      </trkpt>
      <trkpt lat="42.929996" lon="-8.122398">
        <ele>384.108</ele>
        <time>2021-07-11T11:34:08Z</time>
      </trkpt>
      <trkpt lat="42.929977" lon="-8.122362">
        <ele>385.626</ele>
        <time>2021-07-11T11:34:11Z</time>
      </trkpt>
      <trkpt lat="42.929971" lon="-8.122345">
        <ele>386.178</ele>
        <time>2021-07-11T11:34:12Z</time>
      </trkpt>
      <trkpt lat="42.929945" lon="-8.122221">
        <ele>386.175</ele>
        <time>2021-07-11T11:34:20Z</time>
      </trkpt>
      <trkpt lat="42.929925" lon="-8.122054">
        <ele>386.535</ele>
        <time>2021-07-11T11:34:29Z</time>
      </trkpt>
      <trkpt lat="42.929919" lon="-8.121941">
        <ele>386.129</ele>
        <time>2021-07-11T11:34:36Z</time>
      </trkpt>
      <trkpt lat="42.929896" lon="-8.121768">
        <ele>385.697</ele>
        <time>2021-07-11T11:34:46Z</time>
      </trkpt>
      <trkpt lat="42.929872" lon="-8.121606">
        <ele>387.074</ele>
        <time>2021-07-11T11:34:54Z</time>
      </trkpt>
      <trkpt lat="42.929833" lon="-8.121410">
        <ele>389.492</ele>
        <time>2021-07-11T11:35:04Z</time>
      </trkpt>
      <trkpt lat="42.929774" lon="-8.121198">
        <ele>391.312</ele>
        <time>2021-07-11T11:35:14Z</time>
      </trkpt>
      <trkpt lat="42.929720" lon="-8.121021">
        <ele>393.332</ele>
        <time>2021-07-11T11:35:24Z</time>
      </trkpt>
      <trkpt lat="42.929697" lon="-8.120853">
        <ele>395.205</ele>
        <time>2021-07-11T11:35:33Z</time>
      </trkpt>
      <trkpt lat="42.929659" lon="-8.120711">
        <ele>395.708</ele>
        <time>2021-07-11T11:35:43Z</time>
      </trkpt>
      <trkpt lat="42.929634" lon="-8.120662">
        <ele>395.248</ele>
        <time>2021-07-11T11:35:51Z</time>
      </trkpt>
      <trkpt lat="42.929657" lon="-8.120657">
        <ele>394.770</ele>
        <time>2021-07-11T11:36:10Z</time>
      </trkpt>
      <trkpt lat="42.929669" lon="-8.120658">
        <ele>394.767</ele>
        <time>2021-07-11T11:36:24Z</time>
      </trkpt>
      <trkpt lat="42.929681" lon="-8.120647">
        <ele>393.817</ele>
        <time>2021-07-11T11:36:37Z</time>
      </trkpt>
      <trkpt lat="42.929646" lon="-8.120561">
        <ele>393.361</ele>
        <time>2021-07-11T11:36:42Z</time>
      </trkpt>
      <trkpt lat="42.929618" lon="-8.120533">
        <ele>392.859</ele>
        <time>2021-07-11T11:36:44Z</time>
      </trkpt>
      <trkpt lat="42.929590" lon="-8.120510">
        <ele>392.876</ele>
        <time>2021-07-11T11:36:45Z</time>
      </trkpt>
      <trkpt lat="42.929546" lon="-8.120473">
        <ele>393.374</ele>
        <time>2021-07-11T11:36:48Z</time>
      </trkpt>
      <trkpt lat="42.929540" lon="-8.120456">
        <ele>393.363</ele>
        <time>2021-07-11T11:36:49Z</time>
      </trkpt>
      <trkpt lat="42.929520" lon="-8.120423">
        <ele>393.344</ele>
        <time>2021-07-11T11:36:52Z</time>
      </trkpt>
      <trkpt lat="42.929510" lon="-8.120414">
        <ele>393.318</ele>
        <time>2021-07-11T11:36:53Z</time>
      </trkpt>
      <trkpt lat="42.929470" lon="-8.120362">
        <ele>392.808</ele>
        <time>2021-07-11T11:36:57Z</time>
      </trkpt>
      <trkpt lat="42.929457" lon="-8.120342">
        <ele>393.383</ele>
        <time>2021-07-11T11:36:58Z</time>
      </trkpt>
      <trkpt lat="42.929445" lon="-8.120329">
        <ele>393.355</ele>
        <time>2021-07-11T11:36:59Z</time>
      </trkpt>
      <trkpt lat="42.929436" lon="-8.120326">
        <ele>393.352</ele>
        <time>2021-07-11T11:37:00Z</time>
      </trkpt>
      <trkpt lat="42.929428" lon="-8.120319">
        <ele>393.362</ele>
        <time>2021-07-11T11:37:01Z</time>
      </trkpt>
      <trkpt lat="42.929415" lon="-8.120312">
        <ele>393.356</ele>
        <time>2021-07-11T11:37:02Z</time>
      </trkpt>
      <trkpt lat="42.929402" lon="-8.120303">
        <ele>393.374</ele>
        <time>2021-07-11T11:37:03Z</time>
      </trkpt>
      <trkpt lat="42.929392" lon="-8.120286">
        <ele>393.391</ele>
        <time>2021-07-11T11:37:05Z</time>
      </trkpt>
      <trkpt lat="42.929387" lon="-8.120260">
        <ele>393.399</ele>
        <time>2021-07-11T11:37:06Z</time>
      </trkpt>
      <trkpt lat="42.929393" lon="-8.120230">
        <ele>393.342</ele>
        <time>2021-07-11T11:37:08Z</time>
      </trkpt>
      <trkpt lat="42.929408" lon="-8.120214">
        <ele>392.822</ele>
        <time>2021-07-11T11:37:09Z</time>
      </trkpt>
      <trkpt lat="42.929419" lon="-8.120204">
        <ele>392.814</ele>
        <time>2021-07-11T11:37:10Z</time>
      </trkpt>
      <trkpt lat="42.929429" lon="-8.120197">
        <ele>392.808</ele>
        <time>2021-07-11T11:37:11Z</time>
      </trkpt>
      <trkpt lat="42.929442" lon="-8.120185">
        <ele>393.381</ele>
        <time>2021-07-11T11:37:12Z</time>
      </trkpt>
      <trkpt lat="42.929450" lon="-8.120176">
        <ele>393.313</ele>
        <time>2021-07-11T11:37:13Z</time>
      </trkpt>
      <trkpt lat="42.929510" lon="-8.120067">
        <ele>393.840</ele>
        <time>2021-07-11T11:37:19Z</time>
      </trkpt>
      <trkpt lat="42.929530" lon="-8.119842">
        <ele>392.370</ele>
        <time>2021-07-11T11:37:28Z</time>
      </trkpt>
      <trkpt lat="42.929503" lon="-8.119585">
        <ele>391.814</ele>
        <time>2021-07-11T11:37:38Z</time>
      </trkpt>
      <trkpt lat="42.929501" lon="-8.119343">
        <ele>391.362</ele>
        <time>2021-07-11T11:37:45Z</time>
      </trkpt>
      <trkpt lat="42.929522" lon="-8.119131">
        <ele>388.029</ele>
        <time>2021-07-11T11:37:52Z</time>
      </trkpt>
      <trkpt lat="42.929527" lon="-8.118941">
        <ele>384.157</ele>
        <time>2021-07-11T11:38:00Z</time>
      </trkpt>
      <trkpt lat="42.929529" lon="-8.118822">
        <ele>384.148</ele>
        <time>2021-07-11T11:38:07Z</time>
      </trkpt>
      <trkpt lat="42.929528" lon="-8.118763">
        <ele>385.161</ele>
        <time>2021-07-11T11:38:14Z</time>
      </trkpt>
      <trkpt lat="42.929533" lon="-8.118723">
        <ele>387.017</ele>
        <time>2021-07-11T11:38:37Z</time>
      </trkpt>
      <trkpt lat="42.929516" lon="-8.118780">
        <ele>392.808</ele>
        <time>2021-07-11T11:39:01Z</time>
      </trkpt>
      <trkpt lat="42.929484" lon="-8.118743">
        <ele>396.641</ele>
        <time>2021-07-11T11:39:16Z</time>
      </trkpt>
      <trkpt lat="42.929466" lon="-8.118711">
        <ele>398.153</ele>
        <time>2021-07-11T11:39:26Z</time>
      </trkpt>
      <trkpt lat="42.929436" lon="-8.118572">
        <ele>399.550</ele>
        <time>2021-07-11T11:39:33Z</time>
      </trkpt>
      <trkpt lat="42.929409" lon="-8.118332">
        <ele>399.060</ele>
        <time>2021-07-11T11:39:42Z</time>
      </trkpt>
      <trkpt lat="42.929402" lon="-8.118072">
        <ele>400.054</ele>
        <time>2021-07-11T11:39:53Z</time>
      </trkpt>
      <trkpt lat="42.929393" lon="-8.117920">
        <ele>400.062</ele>
        <time>2021-07-11T11:40:00Z</time>
      </trkpt>
      <trkpt lat="42.929373" lon="-8.117684">
        <ele>401.439</ele>
        <time>2021-07-11T11:40:09Z</time>
      </trkpt>
      <trkpt lat="42.929337" lon="-8.117542">
        <ele>402.437</ele>
        <time>2021-07-11T11:40:16Z</time>
      </trkpt>
      <trkpt lat="42.929329" lon="-8.117522">
        <ele>402.422</ele>
        <time>2021-07-11T11:40:17Z</time>
      </trkpt>
      <trkpt lat="42.929326" lon="-8.117497">
        <ele>402.962</ele>
        <time>2021-07-11T11:40:18Z</time>
      </trkpt>
      <trkpt lat="42.929323" lon="-8.117472">
        <ele>402.908</ele>
        <time>2021-07-11T11:40:19Z</time>
      </trkpt>
      <trkpt lat="42.929286" lon="-8.117287">
        <ele>403.808</ele>
        <time>2021-07-11T11:40:28Z</time>
      </trkpt>
      <trkpt lat="42.929259" lon="-8.117222">
        <ele>404.849</ele>
        <time>2021-07-11T11:40:32Z</time>
      </trkpt>
      <trkpt lat="42.929253" lon="-8.117199">
        <ele>404.821</ele>
        <time>2021-07-11T11:40:33Z</time>
      </trkpt>
      <trkpt lat="42.929198" lon="-8.117015">
        <ele>405.868</ele>
        <time>2021-07-11T11:40:43Z</time>
      </trkpt>
      <trkpt lat="42.929164" lon="-8.116813">
        <ele>407.258</ele>
        <time>2021-07-11T11:40:53Z</time>
      </trkpt>
      <trkpt lat="42.929141" lon="-8.116647">
        <ele>406.782</ele>
        <time>2021-07-11T11:41:01Z</time>
      </trkpt>
      <trkpt lat="42.929106" lon="-8.116438">
        <ele>407.720</ele>
        <time>2021-07-11T11:41:11Z</time>
      </trkpt>
      <trkpt lat="42.929079" lon="-8.116256">
        <ele>409.697</ele>
        <time>2021-07-11T11:41:20Z</time>
      </trkpt>
      <trkpt lat="42.929047" lon="-8.116081">
        <ele>411.515</ele>
        <time>2021-07-11T11:41:29Z</time>
      </trkpt>
      <trkpt lat="42.929004" lon="-8.115933">
        <ele>413.594</ele>
        <time>2021-07-11T11:41:38Z</time>
      </trkpt>
      <trkpt lat="42.928968" lon="-8.115784">
        <ele>414.957</ele>
        <time>2021-07-11T11:41:48Z</time>
      </trkpt>
      <trkpt lat="42.928947" lon="-8.115666">
        <ele>415.922</ele>
        <time>2021-07-11T11:41:55Z</time>
      </trkpt>
      <trkpt lat="42.928919" lon="-8.115527">
        <ele>416.808</ele>
        <time>2021-07-11T11:42:03Z</time>
      </trkpt>
      <trkpt lat="42.928893" lon="-8.115421">
        <ele>418.326</ele>
        <time>2021-07-11T11:42:11Z</time>
      </trkpt>
      <trkpt lat="42.928859" lon="-8.115258">
        <ele>418.768</ele>
        <time>2021-07-11T11:42:21Z</time>
      </trkpt>
      <trkpt lat="42.928825" lon="-8.115097">
        <ele>419.715</ele>
        <time>2021-07-11T11:42:31Z</time>
      </trkpt>
      <trkpt lat="42.928792" lon="-8.114921">
        <ele>421.165</ele>
        <time>2021-07-11T11:42:41Z</time>
      </trkpt>
      <trkpt lat="42.928771" lon="-8.114783">
        <ele>422.159</ele>
        <time>2021-07-11T11:42:49Z</time>
      </trkpt>
      <trkpt lat="42.928758" lon="-8.114658">
        <ele>422.677</ele>
        <time>2021-07-11T11:42:57Z</time>
      </trkpt>
      <trkpt lat="42.928726" lon="-8.114470">
        <ele>423.124</ele>
        <time>2021-07-11T11:43:07Z</time>
      </trkpt>
      <trkpt lat="42.928687" lon="-8.114283">
        <ele>426.952</ele>
        <time>2021-07-11T11:43:18Z</time>
      </trkpt>
      <trkpt lat="42.928652" lon="-8.114154">
        <ele>430.366</ele>
        <time>2021-07-11T11:43:25Z</time>
      </trkpt>
      <trkpt lat="42.928622" lon="-8.114012">
        <ele>430.829</ele>
        <time>2021-07-11T11:43:34Z</time>
      </trkpt>
      <trkpt lat="42.928604" lon="-8.113954">
        <ele>431.221</ele>
        <time>2021-07-11T11:43:38Z</time>
      </trkpt>
      <trkpt lat="42.928593" lon="-8.113928">
        <ele>431.708</ele>
        <time>2021-07-11T11:43:40Z</time>
      </trkpt>
      <trkpt lat="42.928557" lon="-8.113840">
        <ele>432.213</ele>
        <time>2021-07-11T11:43:46Z</time>
      </trkpt>
      <trkpt lat="42.928551" lon="-8.113824">
        <ele>432.745</ele>
        <time>2021-07-11T11:43:47Z</time>
      </trkpt>
      <trkpt lat="42.928540" lon="-8.113812">
        <ele>433.212</ele>
        <time>2021-07-11T11:43:48Z</time>
      </trkpt>
      <trkpt lat="42.928519" lon="-8.113784">
        <ele>433.662</ele>
        <time>2021-07-11T11:43:50Z</time>
      </trkpt>
      <trkpt lat="42.928511" lon="-8.113769">
        <ele>433.666</ele>
        <time>2021-07-11T11:43:51Z</time>
      </trkpt>
      <trkpt lat="42.928451" lon="-8.113662">
        <ele>435.684</ele>
        <time>2021-07-11T11:43:59Z</time>
      </trkpt>
      <trkpt lat="42.928441" lon="-8.113653">
        <ele>435.611</ele>
        <time>2021-07-11T11:44:00Z</time>
      </trkpt>
      <trkpt lat="42.928338" lon="-8.113534">
        <ele>437.099</ele>
        <time>2021-07-11T11:44:10Z</time>
      </trkpt>
      <trkpt lat="42.928237" lon="-8.113435">
        <ele>438.591</ele>
        <time>2021-07-11T11:44:19Z</time>
      </trkpt>
      <trkpt lat="42.928139" lon="-8.113346">
        <ele>438.981</ele>
        <time>2021-07-11T11:44:27Z</time>
      </trkpt>
      <trkpt lat="42.928028" lon="-8.113221">
        <ele>440.419</ele>
        <time>2021-07-11T11:44:36Z</time>
      </trkpt>
      <trkpt lat="42.927927" lon="-8.113107">
        <ele>440.908</ele>
        <time>2021-07-11T11:44:44Z</time>
      </trkpt>
      <trkpt lat="42.927860" lon="-8.113006">
        <ele>440.466</ele>
        <time>2021-07-11T11:44:52Z</time>
      </trkpt>
      <trkpt lat="42.927830" lon="-8.112991">
        <ele>440.978</ele>
        <time>2021-07-11T11:44:55Z</time>
      </trkpt>
      <trkpt lat="42.927777" lon="-8.113005">
        <ele>440.985</ele>
        <time>2021-07-11T11:45:00Z</time>
      </trkpt>
      <trkpt lat="42.927661" lon="-8.113028">
        <ele>440.475</ele>
        <time>2021-07-11T11:45:07Z</time>
      </trkpt>
      <trkpt lat="42.927472" lon="-8.112984">
        <ele>440.939</ele>
        <time>2021-07-11T11:45:17Z</time>
      </trkpt>
      <trkpt lat="42.927380" lon="-8.112867">
        <ele>439.457</ele>
        <time>2021-07-11T11:45:23Z</time>
      </trkpt>
      <trkpt lat="42.927276" lon="-8.112744">
        <ele>437.594</ele>
        <time>2021-07-11T11:45:30Z</time>
      </trkpt>
      <trkpt lat="42.927119" lon="-8.112619">
        <ele>434.632</ele>
        <time>2021-07-11T11:45:39Z</time>
      </trkpt>
      <trkpt lat="42.927116" lon="-8.112589">
        <ele>434.157</ele>
        <time>2021-07-11T11:45:40Z</time>
      </trkpt>
      <trkpt lat="42.927122" lon="-8.112570">
        <ele>434.100</ele>
        <time>2021-07-11T11:45:41Z</time>
      </trkpt>
      <trkpt lat="42.927134" lon="-8.112542">
        <ele>434.120</ele>
        <time>2021-07-11T11:45:42Z</time>
      </trkpt>
      <trkpt lat="42.927151" lon="-8.112511">
        <ele>433.608</ele>
        <time>2021-07-11T11:45:43Z</time>
      </trkpt>
      <trkpt lat="42.927168" lon="-8.112478">
        <ele>433.222</ele>
        <time>2021-07-11T11:45:44Z</time>
      </trkpt>
      <trkpt lat="42.927357" lon="-8.112162">
        <ele>429.374</ele>
        <time>2021-07-11T11:45:51Z</time>
      </trkpt>
      <trkpt lat="42.927580" lon="-8.111834">
        <ele>426.461</ele>
        <time>2021-07-11T11:45:58Z</time>
      </trkpt>
      <trkpt lat="42.927766" lon="-8.111551">
        <ele>425.081</ele>
        <time>2021-07-11T11:46:05Z</time>
      </trkpt>
      <trkpt lat="42.927906" lon="-8.111298">
        <ele>422.675</ele>
        <time>2021-07-11T11:46:12Z</time>
      </trkpt>
      <trkpt lat="42.927997" lon="-8.111140">
        <ele>419.793</ele>
        <time>2021-07-11T11:46:18Z</time>
      </trkpt>
      <trkpt lat="42.928070" lon="-8.110899">
        <ele>417.820</ele>
        <time>2021-07-11T11:46:24Z</time>
      </trkpt>
      <trkpt lat="42.928104" lon="-8.110496">
        <ele>414.448</ele>
        <time>2021-07-11T11:46:32Z</time>
      </trkpt>
      <trkpt lat="42.928117" lon="-8.110221">
        <ele>412.569</ele>
        <time>2021-07-11T11:46:39Z</time>
      </trkpt>
      <trkpt lat="42.928151" lon="-8.109906">
        <ele>411.104</ele>
        <time>2021-07-11T11:46:47Z</time>
      </trkpt>
      <trkpt lat="42.928130" lon="-8.109558">
        <ele>408.224</ele>
        <time>2021-07-11T11:46:56Z</time>
      </trkpt>
      <trkpt lat="42.928036" lon="-8.109226">
        <ele>407.208</ele>
        <time>2021-07-11T11:47:04Z</time>
      </trkpt>
      <trkpt lat="42.927949" lon="-8.108922">
        <ele>406.223</ele>
        <time>2021-07-11T11:47:10Z</time>
      </trkpt>
      <trkpt lat="42.927931" lon="-8.108852">
        <ele>406.255</ele>
        <time>2021-07-11T11:47:11Z</time>
      </trkpt>
      <trkpt lat="42.927914" lon="-8.108785">
        <ele>405.812</ele>
        <time>2021-07-11T11:47:12Z</time>
      </trkpt>
      <trkpt lat="42.927816" lon="-8.108432">
        <ele>402.912</ele>
        <time>2021-07-11T11:47:18Z</time>
      </trkpt>
      <trkpt lat="42.927730" lon="-8.108105">
        <ele>401.916</ele>
        <time>2021-07-11T11:47:24Z</time>
      </trkpt>
      <trkpt lat="42.927602" lon="-8.107634">
        <ele>399.554</ele>
        <time>2021-07-11T11:47:31Z</time>
      </trkpt>
      <trkpt lat="42.927527" lon="-8.107369">
        <ele>399.511</ele>
        <time>2021-07-11T11:47:37Z</time>
      </trkpt>
      <trkpt lat="42.927455" lon="-8.107157">
        <ele>398.619</ele>
        <time>2021-07-11T11:47:44Z</time>
      </trkpt>
      <trkpt lat="42.927356" lon="-8.106801">
        <ele>397.677</ele>
        <time>2021-07-11T11:47:53Z</time>
      </trkpt>
      <trkpt lat="42.927320" lon="-8.106706">
        <ele>397.161</ele>
        <time>2021-07-11T11:47:57Z</time>
      </trkpt>
      <trkpt lat="42.927322" lon="-8.106722">
        <ele>397.627</ele>
        <time>2021-07-11T11:48:18Z</time>
      </trkpt>
      <trkpt lat="42.927317" lon="-8.106709">
        <ele>398.108</ele>
        <time>2021-07-11T11:48:28Z</time>
      </trkpt>
      <trkpt lat="42.927320" lon="-8.106717">
        <ele>397.154</ele>
        <time>2021-07-11T11:48:48Z</time>
      </trkpt>
      <trkpt lat="42.927323" lon="-8.106717">
        <ele>398.116</ele>
        <time>2021-07-11T11:49:12Z</time>
      </trkpt>
      <trkpt lat="42.927315" lon="-8.106714">
        <ele>398.663</ele>
        <time>2021-07-11T11:49:32Z</time>
      </trkpt>
      <trkpt lat="42.927309" lon="-8.106715">
        <ele>399.543</ele>
        <time>2021-07-11T11:49:54Z</time>
      </trkpt>
      <trkpt lat="42.927305" lon="-8.106704">
        <ele>397.687</ele>
        <time>2021-07-11T11:50:19Z</time>
      </trkpt>
      <trkpt lat="42.927310" lon="-8.106709">
        <ele>397.175</ele>
        <time>2021-07-11T11:50:49Z</time>
      </trkpt>
      <trkpt lat="42.927318" lon="-8.106711">
        <ele>397.182</ele>
        <time>2021-07-11T11:51:13Z</time>
      </trkpt>
      <trkpt lat="42.927314" lon="-8.106710">
        <ele>397.180</ele>
        <time>2021-07-11T11:51:35Z</time>
      </trkpt>
      <trkpt lat="42.927314" lon="-8.106702">
        <ele>397.643</ele>
        <time>2021-07-11T11:51:51Z</time>
      </trkpt>
      <trkpt lat="42.927310" lon="-8.106675">
        <ele>397.664</ele>
        <time>2021-07-11T11:51:53Z</time>
      </trkpt>
      <trkpt lat="42.927254" lon="-8.106457">
        <ele>397.110</ele>
        <time>2021-07-11T11:52:00Z</time>
      </trkpt>
      <trkpt lat="42.927179" lon="-8.106180">
        <ele>396.208</ele>
        <time>2021-07-11T11:52:06Z</time>
      </trkpt>
      <trkpt lat="42.927060" lon="-8.105727">
        <ele>393.891</ele>
        <time>2021-07-11T11:52:14Z</time>
      </trkpt>
      <trkpt lat="42.926604" lon="-8.104359">
        <ele>388.983</ele>
        <time>2021-07-11T11:52:43Z</time>
      </trkpt>
      <trkpt lat="42.926574" lon="-8.104336">
        <ele>389.430</ele>
        <time>2021-07-11T11:52:49Z</time>
      </trkpt>
      <trkpt lat="42.926567" lon="-8.104310">
        <ele>389.970</ele>
        <time>2021-07-11T11:52:56Z</time>
      </trkpt>
      <trkpt lat="42.926553" lon="-8.104301">
        <ele>390.444</ele>
        <time>2021-07-11T11:53:14Z</time>
      </trkpt>
      <trkpt lat="42.926549" lon="-8.104310">
        <ele>391.382</ele>
        <time>2021-07-11T11:53:38Z</time>
      </trkpt>
      <trkpt lat="42.926559" lon="-8.104296">
        <ele>390.979</ele>
        <time>2021-07-11T11:53:54Z</time>
      </trkpt>
      <trkpt lat="42.926555" lon="-8.104316">
        <ele>392.367</ele>
        <time>2021-07-11T11:54:12Z</time>
      </trkpt>
      <trkpt lat="42.926564" lon="-8.104322">
        <ele>390.934</ele>
        <time>2021-07-11T11:54:25Z</time>
      </trkpt>
      <trkpt lat="42.926563" lon="-8.104318">
        <ele>390.455</ele>
        <time>2021-07-11T11:54:37Z</time>
      </trkpt>
      <trkpt lat="42.926563" lon="-8.104315">
        <ele>390.410</ele>
        <time>2021-07-11T11:54:49Z</time>
      </trkpt>
      <trkpt lat="42.926562" lon="-8.104313">
        <ele>391.308</ele>
        <time>2021-07-11T11:55:03Z</time>
      </trkpt>
      <trkpt lat="42.926552" lon="-8.104302">
        <ele>392.320</ele>
        <time>2021-07-11T11:55:16Z</time>
      </trkpt>
      <trkpt lat="42.926548" lon="-8.104282">
        <ele>391.832</ele>
        <time>2021-07-11T11:55:31Z</time>
      </trkpt>
      <trkpt lat="42.926554" lon="-8.104294">
        <ele>392.319</ele>
        <time>2021-07-11T11:55:45Z</time>
      </trkpt>
      <trkpt lat="42.926547" lon="-8.104303">
        <ele>393.879</ele>
        <time>2021-07-11T11:56:00Z</time>
      </trkpt>
      <trkpt lat="42.926554" lon="-8.104304">
        <ele>393.333</ele>
        <time>2021-07-11T11:56:10Z</time>
      </trkpt>
      <trkpt lat="42.926555" lon="-8.104305">
        <ele>392.321</ele>
        <time>2021-07-11T11:56:23Z</time>
      </trkpt>
      <trkpt lat="42.926552" lon="-8.104304">
        <ele>391.398</ele>
        <time>2021-07-11T11:56:38Z</time>
      </trkpt>
      <trkpt lat="42.926566" lon="-8.104299">
        <ele>392.886</ele>
        <time>2021-07-11T11:56:55Z</time>
      </trkpt>
      <trkpt lat="42.926563" lon="-8.104297">
        <ele>392.888</ele>
        <time>2021-07-11T11:57:06Z</time>
      </trkpt>
      <trkpt lat="42.926559" lon="-8.104291">
        <ele>393.324</ele>
        <time>2021-07-11T11:57:19Z</time>
      </trkpt>
      <trkpt lat="42.926561" lon="-8.104279">
        <ele>393.326</ele>
        <time>2021-07-11T11:57:32Z</time>
      </trkpt>
      <trkpt lat="42.926562" lon="-8.104277">
        <ele>392.808</ele>
        <time>2021-07-11T11:57:44Z</time>
      </trkpt>
      <trkpt lat="42.926562" lon="-8.104293">
        <ele>391.815</ele>
        <time>2021-07-11T11:57:59Z</time>
      </trkpt>
      <trkpt lat="42.926562" lon="-8.104297">
        <ele>391.317</ele>
        <time>2021-07-11T11:58:10Z</time>
      </trkpt>
      <trkpt lat="42.926569" lon="-8.104301">
        <ele>392.394</ele>
        <time>2021-07-11T11:58:26Z</time>
      </trkpt>
      <trkpt lat="42.926566" lon="-8.104296">
        <ele>392.874</ele>
        <time>2021-07-11T11:58:39Z</time>
      </trkpt>
      <trkpt lat="42.926558" lon="-8.104291">
        <ele>393.348</ele>
        <time>2021-07-11T11:58:51Z</time>
      </trkpt>
      <trkpt lat="42.926561" lon="-8.104286">
        <ele>392.816</ele>
        <time>2021-07-11T11:59:03Z</time>
      </trkpt>
      <trkpt lat="42.926570" lon="-8.104280">
        <ele>393.833</ele>
        <time>2021-07-11T11:59:19Z</time>
      </trkpt>
      <trkpt lat="42.926564" lon="-8.104287">
        <ele>395.281</ele>
        <time>2021-07-11T11:59:33Z</time>
      </trkpt>
      <trkpt lat="42.926563" lon="-8.104291">
        <ele>393.839</ele>
        <time>2021-07-11T11:59:43Z</time>
      </trkpt>
      <trkpt lat="42.926556" lon="-8.104290">
        <ele>393.801</ele>
        <time>2021-07-11T11:59:56Z</time>
      </trkpt>
      <trkpt lat="42.926553" lon="-8.104281">
        <ele>392.321</ele>
        <time>2021-07-11T12:00:08Z</time>
      </trkpt>
      <trkpt lat="42.926545" lon="-8.104282">
        <ele>392.808</ele>
        <time>2021-07-11T12:00:18Z</time>
      </trkpt>
      <trkpt lat="42.926533" lon="-8.104278">
        <ele>394.790</ele>
        <time>2021-07-11T12:00:27Z</time>
      </trkpt>
      <trkpt lat="42.926523" lon="-8.104278">
        <ele>394.792</ele>
        <time>2021-07-11T12:00:41Z</time>
      </trkpt>
      <trkpt lat="42.926519" lon="-8.104279">
        <ele>393.859</ele>
        <time>2021-07-11T12:00:54Z</time>
      </trkpt>
      <trkpt lat="42.926525" lon="-8.104279">
        <ele>393.879</ele>
        <time>2021-07-11T12:01:05Z</time>
      </trkpt>
      <trkpt lat="42.926525" lon="-8.104283">
        <ele>394.253</ele>
        <time>2021-07-11T12:01:19Z</time>
      </trkpt>
      <trkpt lat="42.926525" lon="-8.104286">
        <ele>393.841</ele>
        <time>2021-07-11T12:01:30Z</time>
      </trkpt>
      <trkpt lat="42.926482" lon="-8.104294">
        <ele>387.518</ele>
        <time>2021-07-11T12:49:00Z</time>
      </trkpt>
      <trkpt lat="42.926487" lon="-8.104246">
        <ele>394.286</ele>
        <time>2021-07-11T12:49:12Z</time>
      </trkpt>
      <trkpt lat="42.926502" lon="-8.104243">
        <ele>394.274</ele>
        <time>2021-07-11T12:49:21Z</time>
      </trkpt>
      <trkpt lat="42.926530" lon="-8.104266">
        <ele>390.956</ele>
        <time>2021-07-11T12:49:31Z</time>
      </trkpt>
      <trkpt lat="42.926547" lon="-8.104286">
        <ele>389.921</ele>
        <time>2021-07-11T12:49:44Z</time>
      </trkpt>
      <trkpt lat="42.926537" lon="-8.104271">
        <ele>390.408</ele>
        <time>2021-07-11T12:49:49Z</time>
      </trkpt>
      <trkpt lat="42.926430" lon="-8.104192">
        <ele>390.944</ele>
        <time>2021-07-11T12:50:00Z</time>
      </trkpt>
      <trkpt lat="42.926258" lon="-8.104197">
        <ele>390.466</ele>
        <time>2021-07-11T12:50:12Z</time>
      </trkpt>
      <trkpt lat="42.926093" lon="-8.104170">
        <ele>390.473</ele>
        <time>2021-07-11T12:50:24Z</time>
      </trkpt>
      <trkpt lat="42.925949" lon="-8.104133">
        <ele>391.393</ele>
        <time>2021-07-11T12:50:36Z</time>
      </trkpt>
      <trkpt lat="42.925834" lon="-8.104091">
        <ele>391.887</ele>
        <time>2021-07-11T12:50:47Z</time>
      </trkpt>
      <trkpt lat="42.925747" lon="-8.104039">
        <ele>392.825</ele>
        <time>2021-07-11T12:50:56Z</time>
      </trkpt>
      <trkpt lat="42.925726" lon="-8.104025">
        <ele>393.822</ele>
        <time>2021-07-11T12:51:04Z</time>
      </trkpt>
      <trkpt lat="42.925677" lon="-8.103987">
        <ele>394.270</ele>
        <time>2021-07-11T12:51:12Z</time>
      </trkpt>
      <trkpt lat="42.925666" lon="-8.103980">
        <ele>394.284</ele>
        <time>2021-07-11T12:51:13Z</time>
      </trkpt>
      <trkpt lat="42.925635" lon="-8.103945">
        <ele>394.707</ele>
        <time>2021-07-11T12:51:16Z</time>
      </trkpt>
      <trkpt lat="42.925509" lon="-8.103845">
        <ele>396.217</ele>
        <time>2021-07-11T12:51:27Z</time>
      </trkpt>
      <trkpt lat="42.925461" lon="-8.103807">
        <ele>396.208</ele>
        <time>2021-07-11T12:51:32Z</time>
      </trkpt>
      <trkpt lat="42.925367" lon="-8.103703">
        <ele>397.165</ele>
        <time>2021-07-11T12:51:42Z</time>
      </trkpt>
      <trkpt lat="42.925298" lon="-8.103619">
        <ele>397.677</ele>
        <time>2021-07-11T12:51:49Z</time>
      </trkpt>
      <trkpt lat="42.925235" lon="-8.103488">
        <ele>399.044</ele>
        <time>2021-07-11T12:51:58Z</time>
      </trkpt>
      <trkpt lat="42.925184" lon="-8.103340">
        <ele>401.074</ele>
        <time>2021-07-11T12:52:08Z</time>
      </trkpt>
      <trkpt lat="42.925141" lon="-8.103215">
        <ele>401.968</ele>
        <time>2021-07-11T12:52:16Z</time>
      </trkpt>
      <trkpt lat="42.925089" lon="-8.103046">
        <ele>403.496</ele>
        <time>2021-07-11T12:52:24Z</time>
      </trkpt>
      <trkpt lat="42.925074" lon="-8.102978">
        <ele>404.323</ele>
        <time>2021-07-11T12:52:28Z</time>
      </trkpt>
      <trkpt lat="42.925019" lon="-8.102786">
        <ele>405.871</ele>
        <time>2021-07-11T12:52:38Z</time>
      </trkpt>
      <trkpt lat="42.924951" lon="-8.102590">
        <ele>407.298</ele>
        <time>2021-07-11T12:52:47Z</time>
      </trkpt>
      <trkpt lat="42.924874" lon="-8.102345">
        <ele>408.215</ele>
        <time>2021-07-11T12:52:58Z</time>
      </trkpt>
      <trkpt lat="42.924806" lon="-8.102133">
        <ele>408.726</ele>
        <time>2021-07-11T12:53:07Z</time>
      </trkpt>
      <trkpt lat="42.924735" lon="-8.101909">
        <ele>409.608</ele>
        <time>2021-07-11T12:53:16Z</time>
      </trkpt>
      <trkpt lat="42.924669" lon="-8.101668">
        <ele>410.196</ele>
        <time>2021-07-11T12:53:25Z</time>
      </trkpt>
      <trkpt lat="42.924639" lon="-8.101363">
        <ele>410.128</ele>
        <time>2021-07-11T12:53:35Z</time>
      </trkpt>
      <trkpt lat="42.924642" lon="-8.101146">
        <ele>410.145</ele>
        <time>2021-07-11T12:53:42Z</time>
      </trkpt>
      <trkpt lat="42.924649" lon="-8.100719">
        <ele>410.665</ele>
        <time>2021-07-11T12:53:53Z</time>
      </trkpt>
      <trkpt lat="42.924654" lon="-8.100319">
        <ele>411.159</ele>
        <time>2021-07-11T12:54:03Z</time>
      </trkpt>
      <trkpt lat="42.924658" lon="-8.099884">
        <ele>413.047</ele>
        <time>2021-07-11T12:54:14Z</time>
      </trkpt>
      <trkpt lat="42.924667" lon="-8.099564">
        <ele>413.994</ele>
        <time>2021-07-11T12:54:23Z</time>
      </trkpt>
      <trkpt lat="42.924713" lon="-8.099288">
        <ele>414.922</ele>
        <time>2021-07-11T12:54:32Z</time>
      </trkpt>
      <trkpt lat="42.924708" lon="-8.099031">
        <ele>415.443</ele>
        <time>2021-07-11T12:54:41Z</time>
      </trkpt>
      <trkpt lat="42.924644" lon="-8.098789">
        <ele>415.964</ele>
        <time>2021-07-11T12:54:49Z</time>
      </trkpt>
      <trkpt lat="42.924589" lon="-8.098506">
        <ele>415.910</ele>
        <time>2021-07-11T12:54:59Z</time>
      </trkpt>
      <trkpt lat="42.924576" lon="-8.098141">
        <ele>417.308</ele>
        <time>2021-07-11T12:55:11Z</time>
      </trkpt>
      <trkpt lat="42.924617" lon="-8.097794">
        <ele>417.331</ele>
        <time>2021-07-11T12:55:21Z</time>
      </trkpt>
      <trkpt lat="42.924696" lon="-8.097497">
        <ele>418.353</ele>
        <time>2021-07-11T12:55:30Z</time>
      </trkpt>
      <trkpt lat="42.924747" lon="-8.097245">
        <ele>420.260</ele>
        <time>2021-07-11T12:55:38Z</time>
      </trkpt>
      <trkpt lat="42.924683" lon="-8.096949">
        <ele>419.750</ele>
        <time>2021-07-11T12:55:46Z</time>
      </trkpt>
      <trkpt lat="42.924609" lon="-8.096670">
        <ele>418.774</ele>
        <time>2021-07-11T12:55:52Z</time>
      </trkpt>
      <trkpt lat="42.924583" lon="-8.096556">
        <ele>418.782</ele>
        <time>2021-07-11T12:55:54Z</time>
      </trkpt>
      <trkpt lat="42.924526" lon="-8.096367">
        <ele>418.339</ele>
        <time>2021-07-11T12:55:57Z</time>
      </trkpt>
      <trkpt lat="42.924422" lon="-8.095935">
        <ele>416.337</ele>
        <time>2021-07-11T12:56:04Z</time>
      </trkpt>
      <trkpt lat="42.924220" lon="-8.095258">
        <ele>414.456</ele>
        <time>2021-07-11T12:56:13Z</time>
      </trkpt>
      <trkpt lat="42.923924" lon="-8.094760">
        <ele>413.559</ele>
        <time>2021-07-11T12:56:20Z</time>
      </trkpt>
      <trkpt lat="42.923767" lon="-8.094572">
        <ele>413.014</ele>
        <time>2021-07-11T12:56:23Z</time>
      </trkpt>
      <trkpt lat="42.923239" lon="-8.094094">
        <ele>412.508</ele>
        <time>2021-07-11T12:56:32Z</time>
      </trkpt>
      <trkpt lat="42.922655" lon="-8.093596">
        <ele>412.032</ele>
        <time>2021-07-11T12:56:42Z</time>
      </trkpt>
      <trkpt lat="42.922258" lon="-8.093286">
        <ele>411.524</ele>
        <time>2021-07-11T12:56:50Z</time>
      </trkpt>
      <trkpt lat="42.921769" lon="-8.093014">
        <ele>410.611</ele>
        <time>2021-07-11T12:56:59Z</time>
      </trkpt>
      <trkpt lat="42.921203" lon="-8.092807">
        <ele>408.721</ele>
        <time>2021-07-11T12:57:07Z</time>
      </trkpt>
      <trkpt lat="42.920612" lon="-8.092516">
        <ele>405.855</ele>
        <time>2021-07-11T12:57:15Z</time>
      </trkpt>
      <trkpt lat="42.920469" lon="-8.092375">
        <ele>403.863</ele>
        <time>2021-07-11T12:57:18Z</time>
      </trkpt>
      <trkpt lat="42.920443" lon="-8.092306">
        <ele>402.980</ele>
        <time>2021-07-11T12:57:19Z</time>
      </trkpt>
      <trkpt lat="42.920437" lon="-8.092260">
        <ele>402.998</ele>
        <time>2021-07-11T12:57:20Z</time>
      </trkpt>
      <trkpt lat="42.920433" lon="-8.092232">
        <ele>402.425</ele>
        <time>2021-07-11T12:57:21Z</time>
      </trkpt>
      <trkpt lat="42.920422" lon="-8.092203">
        <ele>401.926</ele>
        <time>2021-07-11T12:57:23Z</time>
      </trkpt>
      <trkpt lat="42.920408" lon="-8.092190">
        <ele>401.908</ele>
        <time>2021-07-11T12:57:24Z</time>
      </trkpt>
      <trkpt lat="42.920399" lon="-8.092183">
        <ele>401.408</ele>
        <time>2021-07-11T12:57:25Z</time>
      </trkpt>
      <trkpt lat="42.920387" lon="-8.092173">
        <ele>401.429</ele>
        <time>2021-07-11T12:57:26Z</time>
      </trkpt>
      <trkpt lat="42.920374" lon="-8.092158">
        <ele>401.041</ele>
        <time>2021-07-11T12:57:27Z</time>
      </trkpt>
      <trkpt lat="42.920360" lon="-8.092142">
        <ele>400.518</ele>
        <time>2021-07-11T12:57:28Z</time>
      </trkpt>
      <trkpt lat="42.920345" lon="-8.092122">
        <ele>400.538</ele>
        <time>2021-07-11T12:57:29Z</time>
      </trkpt>
      <trkpt lat="42.920209" lon="-8.091941">
        <ele>398.662</ele>
        <time>2021-07-11T12:57:36Z</time>
      </trkpt>
      <trkpt lat="42.920075" lon="-8.091759">
        <ele>396.680</ele>
        <time>2021-07-11T12:57:42Z</time>
      </trkpt>
      <trkpt lat="42.919971" lon="-8.091597">
        <ele>395.287</ele>
        <time>2021-07-11T12:57:48Z</time>
      </trkpt>
      <trkpt lat="42.919881" lon="-8.091444">
        <ele>394.755</ele>
        <time>2021-07-11T12:57:54Z</time>
      </trkpt>
      <trkpt lat="42.919767" lon="-8.091272">
        <ele>393.326</ele>
        <time>2021-07-11T12:58:00Z</time>
      </trkpt>
      <trkpt lat="42.919603" lon="-8.091056">
        <ele>390.947</ele>
        <time>2021-07-11T12:58:06Z</time>
      </trkpt>
      <trkpt lat="42.919511" lon="-8.090811">
        <ele>388.911</ele>
        <time>2021-07-11T12:58:13Z</time>
      </trkpt>
      <trkpt lat="42.919487" lon="-8.090506">
        <ele>383.708</ele>
        <time>2021-07-11T12:58:21Z</time>
      </trkpt>
      <trkpt lat="42.919430" lon="-8.090170">
        <ele>379.829</ele>
        <time>2021-07-11T12:58:30Z</time>
      </trkpt>
      <trkpt lat="42.919389" lon="-8.089976">
        <ele>377.951</ele>
        <time>2021-07-11T12:58:38Z</time>
      </trkpt>
      <trkpt lat="42.919329" lon="-8.089687">
        <ele>375.098</ele>
        <time>2021-07-11T12:58:46Z</time>
      </trkpt>
      <trkpt lat="42.919297" lon="-8.089445">
        <ele>372.648</ele>
        <time>2021-07-11T12:58:52Z</time>
      </trkpt>
      <trkpt lat="42.919209" lon="-8.089156">
        <ele>369.732</ele>
        <time>2021-07-11T12:58:59Z</time>
      </trkpt>
      <trkpt lat="42.919090" lon="-8.088945">
        <ele>368.310</ele>
        <time>2021-07-11T12:59:05Z</time>
      </trkpt>
      <trkpt lat="42.919033" lon="-8.088939">
        <ele>367.367</ele>
        <time>2021-07-11T12:59:07Z</time>
      </trkpt>
      <trkpt lat="42.919008" lon="-8.088951">
        <ele>366.865</ele>
        <time>2021-07-11T12:59:08Z</time>
      </trkpt>
      <trkpt lat="42.918985" lon="-8.088974">
        <ele>365.999</ele>
        <time>2021-07-11T12:59:09Z</time>
      </trkpt>
      <trkpt lat="42.918968" lon="-8.088999">
        <ele>365.407</ele>
        <time>2021-07-11T12:59:10Z</time>
      </trkpt>
      <trkpt lat="42.918946" lon="-8.089041">
        <ele>364.427</ele>
        <time>2021-07-11T12:59:11Z</time>
      </trkpt>
      <trkpt lat="42.918927" lon="-8.089076">
        <ele>364.008</ele>
        <time>2021-07-11T12:59:12Z</time>
      </trkpt>
      <trkpt lat="42.918769" lon="-8.089195">
        <ele>360.196</ele>
        <time>2021-07-11T12:59:17Z</time>
      </trkpt>
      <trkpt lat="42.918641" lon="-8.089239">
        <ele>357.738</ele>
        <time>2021-07-11T12:59:21Z</time>
      </trkpt>
      <trkpt lat="42.918611" lon="-8.089217">
        <ele>356.725</ele>
        <time>2021-07-11T12:59:22Z</time>
      </trkpt>
      <trkpt lat="42.918588" lon="-8.089190">
        <ele>356.765</ele>
        <time>2021-07-11T12:59:23Z</time>
      </trkpt>
      <trkpt lat="42.918573" lon="-8.089158">
        <ele>356.339</ele>
        <time>2021-07-11T12:59:24Z</time>
      </trkpt>
      <trkpt lat="42.918559" lon="-8.089111">
        <ele>355.867</ele>
        <time>2021-07-11T12:59:25Z</time>
      </trkpt>
      <trkpt lat="42.918554" lon="-8.089051">
        <ele>355.334</ele>
        <time>2021-07-11T12:59:26Z</time>
      </trkpt>
      <trkpt lat="42.918554" lon="-8.088992">
        <ele>355.312</ele>
        <time>2021-07-11T12:59:28Z</time>
      </trkpt>
      <trkpt lat="42.918558" lon="-8.088920">
        <ele>354.333</ele>
        <time>2021-07-11T12:59:30Z</time>
      </trkpt>
      <trkpt lat="42.918567" lon="-8.088872">
        <ele>354.323</ele>
        <time>2021-07-11T12:59:31Z</time>
      </trkpt>
      <trkpt lat="42.918571" lon="-8.088840">
        <ele>353.915</ele>
        <time>2021-07-11T12:59:32Z</time>
      </trkpt>
      <trkpt lat="42.918574" lon="-8.088798">
        <ele>353.908</ele>
        <time>2021-07-11T12:59:33Z</time>
      </trkpt>
      <trkpt lat="42.918575" lon="-8.088758">
        <ele>353.460</ele>
        <time>2021-07-11T12:59:34Z</time>
      </trkpt>
      <trkpt lat="42.918573" lon="-8.088717">
        <ele>352.932</ele>
        <time>2021-07-11T12:59:35Z</time>
      </trkpt>
      <trkpt lat="42.918551" lon="-8.088423">
        <ele>351.029</ele>
        <time>2021-07-11T12:59:41Z</time>
      </trkpt>
      <trkpt lat="42.918579" lon="-8.088145">
        <ele>349.189</ele>
        <time>2021-07-11T12:59:47Z</time>
      </trkpt>
      <trkpt lat="42.918715" lon="-8.087676">
        <ele>345.743</ele>
        <time>2021-07-11T12:59:56Z</time>
      </trkpt>
      <trkpt lat="42.918718" lon="-8.087611">
        <ele>345.241</ele>
        <time>2021-07-11T12:59:57Z</time>
      </trkpt>
      <trkpt lat="42.918712" lon="-8.087552">
        <ele>345.298</ele>
        <time>2021-07-11T12:59:58Z</time>
      </trkpt>
      <trkpt lat="42.918700" lon="-8.087482">
        <ele>344.726</ele>
        <time>2021-07-11T12:59:59Z</time>
      </trkpt>
      <trkpt lat="42.918687" lon="-8.087419">
        <ele>344.263</ele>
        <time>2021-07-11T13:00:00Z</time>
      </trkpt>
      <trkpt lat="42.918621" lon="-8.087054">
        <ele>341.844</ele>
        <time>2021-07-11T13:00:06Z</time>
      </trkpt>
      <trkpt lat="42.918578" lon="-8.086627">
        <ele>340.918</ele>
        <time>2021-07-11T13:00:13Z</time>
      </trkpt>
      <trkpt lat="42.918507" lon="-8.086140">
        <ele>340.408</ele>
        <time>2021-07-11T13:00:22Z</time>
      </trkpt>
      <trkpt lat="42.918456" lon="-8.086022">
        <ele>341.833</ele>
        <time>2021-07-11T13:00:27Z</time>
      </trkpt>
      <trkpt lat="42.918393" lon="-8.085927">
        <ele>342.355</ele>
        <time>2021-07-11T13:00:34Z</time>
      </trkpt>
      <trkpt lat="42.918385" lon="-8.085916">
        <ele>341.872</ele>
        <time>2021-07-11T13:00:35Z</time>
      </trkpt>
      <trkpt lat="42.918376" lon="-8.085900">
        <ele>341.892</ele>
        <time>2021-07-11T13:00:36Z</time>
      </trkpt>
      <trkpt lat="42.918368" lon="-8.085882">
        <ele>341.436</ele>
        <time>2021-07-11T13:00:37Z</time>
      </trkpt>
      <trkpt lat="42.918356" lon="-8.085863">
        <ele>341.434</ele>
        <time>2021-07-11T13:00:38Z</time>
      </trkpt>
      <trkpt lat="42.918344" lon="-8.085847">
        <ele>340.961</ele>
        <time>2021-07-11T13:00:39Z</time>
      </trkpt>
      <trkpt lat="42.918334" lon="-8.085831">
        <ele>340.949</ele>
        <time>2021-07-11T13:00:40Z</time>
      </trkpt>
      <trkpt lat="42.918289" lon="-8.085697">
        <ele>341.898</ele>
        <time>2021-07-11T13:00:47Z</time>
      </trkpt>
      <trkpt lat="42.918229" lon="-8.085532">
        <ele>342.815</ele>
        <time>2021-07-11T13:00:55Z</time>
      </trkpt>
      <trkpt lat="42.918179" lon="-8.085362">
        <ele>348.126</ele>
        <time>2021-07-11T13:01:04Z</time>
      </trkpt>
      <trkpt lat="42.918154" lon="-8.085223">
        <ele>350.508</ele>
        <time>2021-07-11T13:01:12Z</time>
      </trkpt>
      <trkpt lat="42.918133" lon="-8.085162">
        <ele>351.956</ele>
        <time>2021-07-11T13:01:21Z</time>
      </trkpt>
      <trkpt lat="42.918123" lon="-8.085110">
        <ele>354.318</ele>
        <time>2021-07-11T13:01:30Z</time>
      </trkpt>
      <trkpt lat="42.918125" lon="-8.085061">
        <ele>354.365</ele>
        <time>2021-07-11T13:01:31Z</time>
      </trkpt>
      <trkpt lat="42.918101" lon="-8.084844">
        <ele>355.345</ele>
        <time>2021-07-11T13:01:38Z</time>
      </trkpt>
      <trkpt lat="42.918068" lon="-8.084723">
        <ele>354.329</ele>
        <time>2021-07-11T13:01:46Z</time>
      </trkpt>
      <trkpt lat="42.918044" lon="-8.084645">
        <ele>354.857</ele>
        <time>2021-07-11T13:01:51Z</time>
      </trkpt>
      <trkpt lat="42.918031" lon="-8.084587">
        <ele>356.344</ele>
        <time>2021-07-11T13:01:54Z</time>
      </trkpt>
      <trkpt lat="42.918033" lon="-8.084433">
        <ele>359.122</ele>
        <time>2021-07-11T13:02:03Z</time>
      </trkpt>
      <trkpt lat="42.918020" lon="-8.084278">
        <ele>360.663</ele>
        <time>2021-07-11T13:02:12Z</time>
      </trkpt>
      <trkpt lat="42.918031" lon="-8.084104">
        <ele>361.544</ele>
        <time>2021-07-11T13:02:23Z</time>
      </trkpt>
      <trkpt lat="42.918073" lon="-8.083957">
        <ele>362.018</ele>
        <time>2021-07-11T13:02:32Z</time>
      </trkpt>
      <trkpt lat="42.918135" lon="-8.083788">
        <ele>362.508</ele>
        <time>2021-07-11T13:02:41Z</time>
      </trkpt>
      <trkpt lat="42.918188" lon="-8.083656">
        <ele>362.533</ele>
        <time>2021-07-11T13:02:48Z</time>
      </trkpt>
      <trkpt lat="42.918285" lon="-8.083497">
        <ele>362.025</ele>
        <time>2021-07-11T13:02:56Z</time>
      </trkpt>
      <trkpt lat="42.918381" lon="-8.083286">
        <ele>364.412</ele>
        <time>2021-07-11T13:03:05Z</time>
      </trkpt>
      <trkpt lat="42.918434" lon="-8.083053">
        <ele>366.412</ele>
        <time>2021-07-11T13:03:13Z</time>
      </trkpt>
      <trkpt lat="42.918432" lon="-8.082843">
        <ele>367.396</ele>
        <time>2021-07-11T13:03:21Z</time>
      </trkpt>
      <trkpt lat="42.918409" lon="-8.082656">
        <ele>367.874</ele>
        <time>2021-07-11T13:03:29Z</time>
      </trkpt>
      <trkpt lat="42.918381" lon="-8.082481">
        <ele>367.851</ele>
        <time>2021-07-11T13:03:37Z</time>
      </trkpt>
      <trkpt lat="42.918348" lon="-8.082287">
        <ele>369.219</ele>
        <time>2021-07-11T13:03:45Z</time>
      </trkpt>
      <trkpt lat="42.918342" lon="-8.082112">
        <ele>370.284</ele>
        <time>2021-07-11T13:03:54Z</time>
      </trkpt>
      <trkpt lat="42.918386" lon="-8.081980">
        <ele>371.607</ele>
        <time>2021-07-11T13:04:01Z</time>
      </trkpt>
      <trkpt lat="42.918450" lon="-8.081779">
        <ele>374.017</ele>
        <time>2021-07-11T13:04:10Z</time>
      </trkpt>
      <trkpt lat="42.918443" lon="-8.081763">
        <ele>374.008</ele>
        <time>2021-07-11T13:04:11Z</time>
      </trkpt>
      <trkpt lat="42.918426" lon="-8.081755">
        <ele>374.035</ele>
        <time>2021-07-11T13:04:12Z</time>
      </trkpt>
      <trkpt lat="42.918409" lon="-8.081758">
        <ele>374.017</ele>
        <time>2021-07-11T13:04:13Z</time>
      </trkpt>
      <trkpt lat="42.918397" lon="-8.081763">
        <ele>374.094</ele>
        <time>2021-07-11T13:04:14Z</time>
      </trkpt>
      <trkpt lat="42.918385" lon="-8.081768">
        <ele>374.074</ele>
        <time>2021-07-11T13:04:15Z</time>
      </trkpt>
      <trkpt lat="42.918359" lon="-8.081763">
        <ele>373.668</ele>
        <time>2021-07-11T13:04:17Z</time>
      </trkpt>
      <trkpt lat="42.918350" lon="-8.081755">
        <ele>373.676</ele>
        <time>2021-07-11T13:04:18Z</time>
      </trkpt>
      <trkpt lat="42.918341" lon="-8.081741">
        <ele>373.113</ele>
        <time>2021-07-11T13:04:19Z</time>
      </trkpt>
      <trkpt lat="42.918336" lon="-8.081725">
        <ele>373.121</ele>
        <time>2021-07-11T13:04:20Z</time>
      </trkpt>
      <trkpt lat="42.918333" lon="-8.081703">
        <ele>373.185</ele>
        <time>2021-07-11T13:04:21Z</time>
      </trkpt>
      <trkpt lat="42.918333" lon="-8.081684">
        <ele>373.189</ele>
        <time>2021-07-11T13:04:22Z</time>
      </trkpt>
      <trkpt lat="42.918334" lon="-8.081663">
        <ele>373.117</ele>
        <time>2021-07-11T13:04:23Z</time>
      </trkpt>
      <trkpt lat="42.918335" lon="-8.081635">
        <ele>373.108</ele>
        <time>2021-07-11T13:04:24Z</time>
      </trkpt>
      <trkpt lat="42.918335" lon="-8.081620">
        <ele>373.625</ele>
        <time>2021-07-11T13:04:25Z</time>
      </trkpt>
      <trkpt lat="42.918335" lon="-8.081600">
        <ele>373.677</ele>
        <time>2021-07-11T13:04:26Z</time>
      </trkpt>
      <trkpt lat="42.918334" lon="-8.081577">
        <ele>374.024</ele>
        <time>2021-07-11T13:04:27Z</time>
      </trkpt>
      <trkpt lat="42.918333" lon="-8.081558">
        <ele>374.014</ele>
        <time>2021-07-11T13:04:28Z</time>
      </trkpt>
      <trkpt lat="42.918333" lon="-8.081536">
        <ele>374.588</ele>
        <time>2021-07-11T13:04:29Z</time>
      </trkpt>
      <trkpt lat="42.918341" lon="-8.081363">
        <ele>377.986</ele>
        <time>2021-07-11T13:04:37Z</time>
      </trkpt>
      <trkpt lat="42.918331" lon="-8.081184">
        <ele>382.283</ele>
        <time>2021-07-11T13:04:45Z</time>
      </trkpt>
      <trkpt lat="42.918331" lon="-8.081158">
        <ele>382.731</ele>
        <time>2021-07-11T13:04:46Z</time>
      </trkpt>
      <trkpt lat="42.918330" lon="-8.081130">
        <ele>382.772</ele>
        <time>2021-07-11T13:04:47Z</time>
      </trkpt>
      <trkpt lat="42.918328" lon="-8.081109">
        <ele>383.213</ele>
        <time>2021-07-11T13:04:48Z</time>
      </trkpt>
      <trkpt lat="42.918325" lon="-8.081085">
        <ele>383.214</ele>
        <time>2021-07-11T13:04:49Z</time>
      </trkpt>
      <trkpt lat="42.918321" lon="-8.081063">
        <ele>383.208</ele>
        <time>2021-07-11T13:04:50Z</time>
      </trkpt>
      <trkpt lat="42.918320" lon="-8.081040">
        <ele>383.754</ele>
        <time>2021-07-11T13:04:51Z</time>
      </trkpt>
      <trkpt lat="42.918257" lon="-8.080831">
        <ele>383.766</ele>
        <time>2021-07-11T13:05:01Z</time>
      </trkpt>
      <trkpt lat="42.918215" lon="-8.080658">
        <ele>382.793</ele>
        <time>2021-07-11T13:05:09Z</time>
      </trkpt>
      <trkpt lat="42.918168" lon="-8.080459">
        <ele>382.253</ele>
        <time>2021-07-11T13:05:18Z</time>
      </trkpt>
      <trkpt lat="42.918114" lon="-8.080255">
        <ele>382.267</ele>
        <time>2021-07-11T13:05:27Z</time>
      </trkpt>
      <trkpt lat="42.918069" lon="-8.080048">
        <ele>382.745</ele>
        <time>2021-07-11T13:05:37Z</time>
      </trkpt>
      <trkpt lat="42.918034" lon="-8.079854">
        <ele>383.752</ele>
        <time>2021-07-11T13:05:46Z</time>
      </trkpt>
      <trkpt lat="42.917924" lon="-8.079482">
        <ele>385.670</ele>
        <time>2021-07-11T13:06:04Z</time>
      </trkpt>
      <trkpt lat="42.917848" lon="-8.079336">
        <ele>386.177</ele>
        <time>2021-07-11T13:06:14Z</time>
      </trkpt>
      <trkpt lat="42.917773" lon="-8.079252">
        <ele>387.061</ele>
        <time>2021-07-11T13:06:23Z</time>
      </trkpt>
      <trkpt lat="42.917711" lon="-8.079171">
        <ele>389.927</ele>
        <time>2021-07-11T13:06:32Z</time>
      </trkpt>
      <trkpt lat="42.917654" lon="-8.079110">
        <ele>392.308</ele>
        <time>2021-07-11T13:06:40Z</time>
      </trkpt>
      <trkpt lat="42.917586" lon="-8.079063">
        <ele>393.864</ele>
        <time>2021-07-11T13:06:48Z</time>
      </trkpt>
      <trkpt lat="42.917567" lon="-8.079053">
        <ele>394.266</ele>
        <time>2021-07-11T13:06:50Z</time>
      </trkpt>
      <trkpt lat="42.917489" lon="-8.079030">
        <ele>395.763</ele>
        <time>2021-07-11T13:06:58Z</time>
      </trkpt>
      <trkpt lat="42.917376" lon="-8.079023">
        <ele>397.173</ele>
        <time>2021-07-11T13:07:07Z</time>
      </trkpt>
      <trkpt lat="42.917274" lon="-8.079033">
        <ele>397.197</ele>
        <time>2021-07-11T13:07:16Z</time>
      </trkpt>
      <trkpt lat="42.917262" lon="-8.079031">
        <ele>397.175</ele>
        <time>2021-07-11T13:07:17Z</time>
      </trkpt>
      <trkpt lat="42.917239" lon="-8.079030">
        <ele>397.672</ele>
        <time>2021-07-11T13:07:19Z</time>
      </trkpt>
      <trkpt lat="42.917229" lon="-8.079027">
        <ele>397.620</ele>
        <time>2021-07-11T13:07:20Z</time>
      </trkpt>
      <trkpt lat="42.917195" lon="-8.079020">
        <ele>397.157</ele>
        <time>2021-07-11T13:07:23Z</time>
      </trkpt>
      <trkpt lat="42.917069" lon="-8.079036">
        <ele>397.600</ele>
        <time>2021-07-11T13:07:33Z</time>
      </trkpt>
      <trkpt lat="42.916958" lon="-8.079025">
        <ele>398.620</ele>
        <time>2021-07-11T13:07:43Z</time>
      </trkpt>
      <trkpt lat="42.916856" lon="-8.078973">
        <ele>398.608</ele>
        <time>2021-07-11T13:07:51Z</time>
      </trkpt>
      <trkpt lat="42.916748" lon="-8.078843">
        <ele>398.182</ele>
        <time>2021-07-11T13:08:00Z</time>
      </trkpt>
      <trkpt lat="42.916677" lon="-8.078677">
        <ele>400.014</ele>
        <time>2021-07-11T13:08:08Z</time>
      </trkpt>
      <trkpt lat="42.916610" lon="-8.078506">
        <ele>401.441</ele>
        <time>2021-07-11T13:08:17Z</time>
      </trkpt>
      <trkpt lat="42.916580" lon="-8.078410">
        <ele>402.411</ele>
        <time>2021-07-11T13:08:23Z</time>
      </trkpt>
      <trkpt lat="42.916492" lon="-8.078235">
        <ele>403.885</ele>
        <time>2021-07-11T13:08:33Z</time>
      </trkpt>
      <trkpt lat="42.916424" lon="-8.078104">
        <ele>403.863</ele>
        <time>2021-07-11T13:08:41Z</time>
      </trkpt>
      <trkpt lat="42.916398" lon="-8.078061">
        <ele>403.840</ele>
        <time>2021-07-11T13:08:44Z</time>
      </trkpt>
      <trkpt lat="42.916351" lon="-8.078025">
        <ele>403.498</ele>
        <time>2021-07-11T13:08:48Z</time>
      </trkpt>
      <trkpt lat="42.916337" lon="-8.078020">
        <ele>403.847</ele>
        <time>2021-07-11T13:08:49Z</time>
      </trkpt>
      <trkpt lat="42.916323" lon="-8.078021">
        <ele>404.329</ele>
        <time>2021-07-11T13:08:50Z</time>
      </trkpt>
      <trkpt lat="42.916309" lon="-8.078025">
        <ele>404.321</ele>
        <time>2021-07-11T13:08:51Z</time>
      </trkpt>
      <trkpt lat="42.916294" lon="-8.078026">
        <ele>404.308</ele>
        <time>2021-07-11T13:08:52Z</time>
      </trkpt>
      <trkpt lat="42.916281" lon="-8.078024">
        <ele>404.391</ele>
        <time>2021-07-11T13:08:53Z</time>
      </trkpt>
      <trkpt lat="42.916269" lon="-8.078018">
        <ele>404.323</ele>
        <time>2021-07-11T13:08:54Z</time>
      </trkpt>
      <trkpt lat="42.916257" lon="-8.078013">
        <ele>404.360</ele>
        <time>2021-07-11T13:08:55Z</time>
      </trkpt>
      <trkpt lat="42.916247" lon="-8.078005">
        <ele>404.320</ele>
        <time>2021-07-11T13:08:56Z</time>
      </trkpt>
      <trkpt lat="42.916237" lon="-8.078005">
        <ele>404.354</ele>
        <time>2021-07-11T13:09:02Z</time>
      </trkpt>
      <trkpt lat="42.916220" lon="-8.078012">
        <ele>405.332</ele>
        <time>2021-07-11T13:09:08Z</time>
      </trkpt>
      <trkpt lat="42.916218" lon="-8.077999">
        <ele>405.829</ele>
        <time>2021-07-11T13:09:18Z</time>
      </trkpt>
      <trkpt lat="42.916225" lon="-8.077987">
        <ele>407.267</ele>
        <time>2021-07-11T13:09:27Z</time>
      </trkpt>
      <trkpt lat="42.916228" lon="-8.077988">
        <ele>408.236</ele>
        <time>2021-07-11T13:09:38Z</time>
      </trkpt>
      <trkpt lat="42.916227" lon="-8.077966">
        <ele>408.717</ele>
        <time>2021-07-11T13:09:52Z</time>
      </trkpt>
      <trkpt lat="42.916220" lon="-8.077956">
        <ele>410.618</ele>
        <time>2021-07-11T13:10:01Z</time>
      </trkpt>
      <trkpt lat="42.916180" lon="-8.077961">
        <ele>411.508</ele>
        <time>2021-07-11T13:10:09Z</time>
      </trkpt>
      <trkpt lat="42.916167" lon="-8.077973">
        <ele>411.580</ele>
        <time>2021-07-11T13:10:18Z</time>
      </trkpt>
      <trkpt lat="42.916158" lon="-8.077979">
        <ele>410.132</ele>
        <time>2021-07-11T13:10:27Z</time>
      </trkpt>
      <trkpt lat="42.916132" lon="-8.077949">
        <ele>408.789</ele>
        <time>2021-07-11T13:10:36Z</time>
      </trkpt>
      <trkpt lat="42.916081" lon="-8.077889">
        <ele>407.749</ele>
        <time>2021-07-11T13:10:40Z</time>
      </trkpt>
      <trkpt lat="42.916081" lon="-8.077860">
        <ele>407.743</ele>
        <time>2021-07-11T13:10:42Z</time>
      </trkpt>
      <trkpt lat="42.916112" lon="-8.077540">
        <ele>406.791</ele>
        <time>2021-07-11T13:10:52Z</time>
      </trkpt>
      <trkpt lat="42.916122" lon="-8.077239">
        <ele>406.738</ele>
        <time>2021-07-11T13:11:02Z</time>
      </trkpt>
      <trkpt lat="42.916121" lon="-8.076992">
        <ele>406.286</ele>
        <time>2021-07-11T13:11:10Z</time>
      </trkpt>
      <trkpt lat="42.916138" lon="-8.076624">
        <ele>408.216</ele>
        <time>2021-07-11T13:11:22Z</time>
      </trkpt>
      <trkpt lat="42.916139" lon="-8.076462">
        <ele>408.776</ele>
        <time>2021-07-11T13:11:31Z</time>
      </trkpt>
      <trkpt lat="42.916141" lon="-8.076465">
        <ele>408.213</ele>
        <time>2021-07-11T13:11:40Z</time>
      </trkpt>
      <trkpt lat="42.916132" lon="-8.076475">
        <ele>406.708</ele>
        <time>2021-07-11T13:11:51Z</time>
      </trkpt>
      <trkpt lat="42.916130" lon="-8.076482">
        <ele>406.768</ele>
        <time>2021-07-11T13:12:05Z</time>
      </trkpt>
      <trkpt lat="42.916124" lon="-8.076481">
        <ele>405.370</ele>
        <time>2021-07-11T13:12:22Z</time>
      </trkpt>
      <trkpt lat="42.916117" lon="-8.076470">
        <ele>405.827</ele>
        <time>2021-07-11T13:12:37Z</time>
      </trkpt>
      <trkpt lat="42.916132" lon="-8.076458">
        <ele>405.377</ele>
        <time>2021-07-11T13:12:54Z</time>
      </trkpt>
      <trkpt lat="42.916139" lon="-8.076446">
        <ele>405.311</ele>
        <time>2021-07-11T13:13:05Z</time>
      </trkpt>
      <trkpt lat="42.916124" lon="-8.076424">
        <ele>404.849</ele>
        <time>2021-07-11T13:13:08Z</time>
      </trkpt>
      <trkpt lat="42.916107" lon="-8.076412">
        <ele>404.376</ele>
        <time>2021-07-11T13:13:10Z</time>
      </trkpt>
      <trkpt lat="42.916070" lon="-8.076325">
        <ele>404.864</ele>
        <time>2021-07-11T13:13:19Z</time>
      </trkpt>
      <trkpt lat="42.916065" lon="-8.076309">
        <ele>405.886</ele>
        <time>2021-07-11T13:13:25Z</time>
      </trkpt>
      <trkpt lat="42.916066" lon="-8.076296">
        <ele>405.860</ele>
        <time>2021-07-11T13:13:26Z</time>
      </trkpt>
      <trkpt lat="42.916056" lon="-8.076119">
        <ele>407.726</ele>
        <time>2021-07-11T13:13:34Z</time>
      </trkpt>
      <trkpt lat="42.916020" lon="-8.075941">
        <ele>409.608</ele>
        <time>2021-07-11T13:13:41Z</time>
      </trkpt>
      <trkpt lat="42.916007" lon="-8.075748">
        <ele>411.585</ele>
        <time>2021-07-11T13:13:50Z</time>
      </trkpt>
      <trkpt lat="42.915994" lon="-8.075531">
        <ele>412.587</ele>
        <time>2021-07-11T13:13:59Z</time>
      </trkpt>
      <trkpt lat="42.915996" lon="-8.075238">
        <ele>413.934</ele>
        <time>2021-07-11T13:14:10Z</time>
      </trkpt>
      <trkpt lat="42.915993" lon="-8.074955">
        <ele>414.934</ele>
        <time>2021-07-11T13:14:21Z</time>
      </trkpt>
      <trkpt lat="42.915977" lon="-8.074688">
        <ele>416.328</ele>
        <time>2021-07-11T13:14:32Z</time>
      </trkpt>
      <trkpt lat="42.915961" lon="-8.074459">
        <ele>417.866</ele>
        <time>2021-07-11T13:14:41Z</time>
      </trkpt>
      <trkpt lat="42.915894" lon="-8.074185">
        <ele>419.733</ele>
        <time>2021-07-11T13:14:52Z</time>
      </trkpt>
      <trkpt lat="42.915795" lon="-8.074032">
        <ele>419.761</ele>
        <time>2021-07-11T13:15:00Z</time>
      </trkpt>
      <trkpt lat="42.915715" lon="-8.073914">
        <ele>420.763</ele>
        <time>2021-07-11T13:15:07Z</time>
      </trkpt>
      <trkpt lat="42.915580" lon="-8.073703">
        <ele>422.144</ele>
        <time>2021-07-11T13:15:19Z</time>
      </trkpt>
      <trkpt lat="42.915520" lon="-8.073522">
        <ele>423.618</ele>
        <time>2021-07-11T13:15:27Z</time>
      </trkpt>
      <trkpt lat="42.915558" lon="-8.073348">
        <ele>425.008</ele>
        <time>2021-07-11T13:15:34Z</time>
      </trkpt>
      <trkpt lat="42.915641" lon="-8.073131">
        <ele>425.073</ele>
        <time>2021-07-11T13:15:42Z</time>
      </trkpt>
      <trkpt lat="42.915743" lon="-8.072894">
        <ele>425.515</ele>
        <time>2021-07-11T13:15:52Z</time>
      </trkpt>
      <trkpt lat="42.915863" lon="-8.072621">
        <ele>426.972</ele>
        <time>2021-07-11T13:16:03Z</time>
      </trkpt>
      <trkpt lat="42.915947" lon="-8.072239">
        <ele>427.442</ele>
        <time>2021-07-11T13:16:17Z</time>
      </trkpt>
      <trkpt lat="42.915899" lon="-8.071989">
        <ele>427.936</ele>
        <time>2021-07-11T13:16:26Z</time>
      </trkpt>
      <trkpt lat="42.915802" lon="-8.071745">
        <ele>428.894</ele>
        <time>2021-07-11T13:16:36Z</time>
      </trkpt>
      <trkpt lat="42.915770" lon="-8.071459">
        <ele>429.851</ele>
        <time>2021-07-11T13:16:46Z</time>
      </trkpt>
      <trkpt lat="42.915785" lon="-8.071207">
        <ele>430.389</ele>
        <time>2021-07-11T13:16:55Z</time>
      </trkpt>
      <trkpt lat="42.915803" lon="-8.070893">
        <ele>430.889</ele>
        <time>2021-07-11T13:17:05Z</time>
      </trkpt>
      <trkpt lat="42.915786" lon="-8.070613">
        <ele>430.806</ele>
        <time>2021-07-11T13:17:14Z</time>
      </trkpt>
      <trkpt lat="42.915741" lon="-8.070274">
        <ele>430.326</ele>
        <time>2021-07-11T13:17:23Z</time>
      </trkpt>
      <trkpt lat="42.915746" lon="-8.069987">
        <ele>429.808</ele>
        <time>2021-07-11T13:17:30Z</time>
      </trkpt>
      <trkpt lat="42.915813" lon="-8.069566">
        <ele>428.825</ele>
        <time>2021-07-11T13:17:38Z</time>
      </trkpt>
      <trkpt lat="42.915955" lon="-8.069110">
        <ele>427.977</ele>
        <time>2021-07-11T13:17:46Z</time>
      </trkpt>
      <trkpt lat="42.916095" lon="-8.068524">
        <ele>426.994</ele>
        <time>2021-07-11T13:17:55Z</time>
      </trkpt>
      <trkpt lat="42.916105" lon="-8.068461">
        <ele>426.934</ele>
        <time>2021-07-11T13:17:56Z</time>
      </trkpt>
      <trkpt lat="42.916110" lon="-8.068395">
        <ele>426.988</ele>
        <time>2021-07-11T13:17:57Z</time>
      </trkpt>
      <trkpt lat="42.916121" lon="-8.068299">
        <ele>426.966</ele>
        <time>2021-07-11T13:17:58Z</time>
      </trkpt>
      <trkpt lat="42.916132" lon="-8.068233">
        <ele>426.463</ele>
        <time>2021-07-11T13:17:59Z</time>
      </trkpt>
      <trkpt lat="42.916139" lon="-8.068186">
        <ele>426.451</ele>
        <time>2021-07-11T13:18:00Z</time>
      </trkpt>
      <trkpt lat="42.916189" lon="-8.067644">
        <ele>425.026</ele>
        <time>2021-07-11T13:18:08Z</time>
      </trkpt>
      <trkpt lat="42.916206" lon="-8.067483">
        <ele>424.047</ele>
        <time>2021-07-11T13:18:11Z</time>
      </trkpt>
      <trkpt lat="42.916270" lon="-8.067175">
        <ele>424.011</ele>
        <time>2021-07-11T13:18:17Z</time>
      </trkpt>
      <trkpt lat="42.916372" lon="-8.066847">
        <ele>423.608</ele>
        <time>2021-07-11T13:18:24Z</time>
      </trkpt>
      <trkpt lat="42.916412" lon="-8.066536">
        <ele>423.649</ele>
        <time>2021-07-11T13:18:32Z</time>
      </trkpt>
      <trkpt lat="42.916491" lon="-8.066181">
        <ele>423.681</ele>
        <time>2021-07-11T13:18:40Z</time>
      </trkpt>
      <trkpt lat="42.916587" lon="-8.065785">
        <ele>423.648</ele>
        <time>2021-07-11T13:18:48Z</time>
      </trkpt>
      <trkpt lat="42.916612" lon="-8.065669">
        <ele>423.198</ele>
        <time>2021-07-11T13:18:50Z</time>
      </trkpt>
      <trkpt lat="42.916795" lon="-8.065179">
        <ele>420.232</ele>
        <time>2021-07-11T13:18:57Z</time>
      </trkpt>
      <trkpt lat="42.916915" lon="-8.064823">
        <ele>417.880</ele>
        <time>2021-07-11T13:19:03Z</time>
      </trkpt>
      <trkpt lat="42.916940" lon="-8.064693">
        <ele>416.397</ele>
        <time>2021-07-11T13:19:09Z</time>
      </trkpt>
      <trkpt lat="42.916967" lon="-8.064535">
        <ele>415.955</ele>
        <time>2021-07-11T13:19:16Z</time>
      </trkpt>
      <trkpt lat="42.916972" lon="-8.064516">
        <ele>415.982</ele>
        <time>2021-07-11T13:19:17Z</time>
      </trkpt>
      <trkpt lat="42.916977" lon="-8.064496">
        <ele>415.943</ele>
        <time>2021-07-11T13:19:18Z</time>
      </trkpt>
      <trkpt lat="42.916976" lon="-8.064476">
        <ele>415.917</ele>
        <time>2021-07-11T13:19:19Z</time>
      </trkpt>
      <trkpt lat="42.916975" lon="-8.064454">
        <ele>415.908</ele>
        <time>2021-07-11T13:19:20Z</time>
      </trkpt>
      <trkpt lat="42.916976" lon="-8.064429">
        <ele>415.915</ele>
        <time>2021-07-11T13:19:21Z</time>
      </trkpt>
      <trkpt lat="42.916976" lon="-8.064404">
        <ele>415.937</ele>
        <time>2021-07-11T13:19:22Z</time>
      </trkpt>
      <trkpt lat="42.916979" lon="-8.064379">
        <ele>415.924</ele>
        <time>2021-07-11T13:19:23Z</time>
      </trkpt>
      <trkpt lat="42.917006" lon="-8.064237">
        <ele>416.834</ele>
        <time>2021-07-11T13:19:30Z</time>
      </trkpt>
      <trkpt lat="42.917004" lon="-8.064218">
        <ele>417.368</ele>
        <time>2021-07-11T13:19:31Z</time>
      </trkpt>
      <trkpt lat="42.916999" lon="-8.064204">
        <ele>417.396</ele>
        <time>2021-07-11T13:19:32Z</time>
      </trkpt>
      <trkpt lat="42.916963" lon="-8.064125">
        <ele>419.763</ele>
        <time>2021-07-11T13:19:39Z</time>
      </trkpt>
      <trkpt lat="42.916941" lon="-8.064094">
        <ele>421.621</ele>
        <time>2021-07-11T13:19:41Z</time>
      </trkpt>
      <trkpt lat="42.916876" lon="-8.064050">
        <ele>424.551</ele>
        <time>2021-07-11T13:19:49Z</time>
      </trkpt>
      <trkpt lat="42.916868" lon="-8.064019">
        <ele>426.901</ele>
        <time>2021-07-11T13:19:57Z</time>
      </trkpt>
      <trkpt lat="42.916845" lon="-8.064004">
        <ele>430.311</ele>
        <time>2021-07-11T13:20:06Z</time>
      </trkpt>
      <trkpt lat="42.916803" lon="-8.063976">
        <ele>434.108</ele>
        <time>2021-07-11T13:20:14Z</time>
      </trkpt>
      <trkpt lat="42.916753" lon="-8.063935">
        <ele>438.062</ele>
        <time>2021-07-11T13:20:23Z</time>
      </trkpt>
      <trkpt lat="42.916730" lon="-8.063882">
        <ele>441.864</ele>
        <time>2021-07-11T13:20:32Z</time>
      </trkpt>
      <trkpt lat="42.916680" lon="-8.063802">
        <ele>443.711</ele>
        <time>2021-07-11T13:20:44Z</time>
      </trkpt>
      <trkpt lat="42.916643" lon="-8.063734">
        <ele>445.231</ele>
        <time>2021-07-11T13:20:54Z</time>
      </trkpt>
      <trkpt lat="42.916600" lon="-8.063653">
        <ele>448.175</ele>
        <time>2021-07-11T13:21:05Z</time>
      </trkpt>
      <trkpt lat="42.916568" lon="-8.063576">
        <ele>448.163</ele>
        <time>2021-07-11T13:21:15Z</time>
      </trkpt>
      <trkpt lat="42.916541" lon="-8.063484">
        <ele>450.070</ele>
        <time>2021-07-11T13:21:25Z</time>
      </trkpt>
      <trkpt lat="42.916516" lon="-8.063397">
        <ele>450.578</ele>
        <time>2021-07-11T13:21:35Z</time>
      </trkpt>
      <trkpt lat="42.916499" lon="-8.063351">
        <ele>451.083</ele>
        <time>2021-07-11T13:21:44Z</time>
      </trkpt>
      <trkpt lat="42.916489" lon="-8.063321">
        <ele>451.425</ele>
        <time>2021-07-11T13:22:01Z</time>
      </trkpt>
      <trkpt lat="42.916472" lon="-8.063285">
        <ele>451.917</ele>
        <time>2021-07-11T13:22:04Z</time>
      </trkpt>
      <trkpt lat="42.916441" lon="-8.063196">
        <ele>453.408</ele>
        <time>2021-07-11T13:22:11Z</time>
      </trkpt>
      <trkpt lat="42.916407" lon="-8.063053">
        <ele>452.915</ele>
        <time>2021-07-11T13:22:21Z</time>
      </trkpt>
      <trkpt lat="42.916372" lon="-8.062856">
        <ele>454.827</ele>
        <time>2021-07-11T13:22:31Z</time>
      </trkpt>
      <trkpt lat="42.916345" lon="-8.062722">
        <ele>452.924</ele>
        <time>2021-07-11T13:22:38Z</time>
      </trkpt>
      <trkpt lat="42.916320" lon="-8.062615">
        <ele>454.894</ele>
        <time>2021-07-11T13:22:44Z</time>
      </trkpt>
      <trkpt lat="42.916291" lon="-8.062420">
        <ele>457.798</ele>
        <time>2021-07-11T13:22:54Z</time>
      </trkpt>
      <trkpt lat="42.916249" lon="-8.062260">
        <ele>457.716</ele>
        <time>2021-07-11T13:23:04Z</time>
      </trkpt>
      <trkpt lat="42.916237" lon="-8.062141">
        <ele>457.773</ele>
        <time>2021-07-11T13:23:11Z</time>
      </trkpt>
      <trkpt lat="42.916200" lon="-8.062026">
        <ele>459.121</ele>
        <time>2021-07-11T13:23:19Z</time>
      </trkpt>
      <trkpt lat="42.916181" lon="-8.061967">
        <ele>460.645</ele>
        <time>2021-07-11T13:23:23Z</time>
      </trkpt>
      <trkpt lat="42.916131" lon="-8.061869">
        <ele>460.647</ele>
        <time>2021-07-11T13:23:29Z</time>
      </trkpt>
      <trkpt lat="42.916079" lon="-8.061741">
        <ele>461.011</ele>
        <time>2021-07-11T13:23:37Z</time>
      </trkpt>
      <trkpt lat="42.916022" lon="-8.061610">
        <ele>459.608</ele>
        <time>2021-07-11T13:23:44Z</time>
      </trkpt>
      <trkpt lat="42.916002" lon="-8.061578">
        <ele>459.111</ele>
        <time>2021-07-11T13:23:46Z</time>
      </trkpt>
      <trkpt lat="42.915967" lon="-8.061492">
        <ele>459.153</ele>
        <time>2021-07-11T13:23:51Z</time>
      </trkpt>
      <trkpt lat="42.915890" lon="-8.061301">
        <ele>460.180</ele>
        <time>2021-07-11T13:24:01Z</time>
      </trkpt>
      <trkpt lat="42.915830" lon="-8.061111">
        <ele>461.580</ele>
        <time>2021-07-11T13:24:11Z</time>
      </trkpt>
      <trkpt lat="42.915748" lon="-8.060894">
        <ele>461.544</ele>
        <time>2021-07-11T13:24:22Z</time>
      </trkpt>
      <trkpt lat="42.915684" lon="-8.060708">
        <ele>460.682</ele>
        <time>2021-07-11T13:24:32Z</time>
      </trkpt>
      <trkpt lat="42.915626" lon="-8.060516">
        <ele>462.529</ele>
        <time>2021-07-11T13:24:42Z</time>
      </trkpt>
      <trkpt lat="42.915579" lon="-8.060355">
        <ele>462.517</ele>
        <time>2021-07-11T13:24:50Z</time>
      </trkpt>
      <trkpt lat="42.915495" lon="-8.060070">
        <ele>463.929</ele>
        <time>2021-07-11T13:25:02Z</time>
      </trkpt>
      <trkpt lat="42.915443" lon="-8.059804">
        <ele>464.900</ele>
        <time>2021-07-11T13:25:11Z</time>
      </trkpt>
      <trkpt lat="42.915414" lon="-8.059489">
        <ele>464.920</ele>
        <time>2021-07-11T13:25:20Z</time>
      </trkpt>
      <trkpt lat="42.915416" lon="-8.059207">
        <ele>465.908</ele>
        <time>2021-07-11T13:25:29Z</time>
      </trkpt>
      <trkpt lat="42.915438" lon="-8.058924">
        <ele>466.889</ele>
        <time>2021-07-11T13:25:37Z</time>
      </trkpt>
      <trkpt lat="42.915441" lon="-8.058809">
        <ele>465.971</ele>
        <time>2021-07-11T13:25:42Z</time>
      </trkpt>
      <trkpt lat="42.915436" lon="-8.058792">
        <ele>465.998</ele>
        <time>2021-07-11T13:25:43Z</time>
      </trkpt>
      <trkpt lat="42.915429" lon="-8.058768">
        <ele>466.398</ele>
        <time>2021-07-11T13:25:44Z</time>
      </trkpt>
      <trkpt lat="42.915420" lon="-8.058742">
        <ele>466.872</ele>
        <time>2021-07-11T13:25:45Z</time>
      </trkpt>
      <trkpt lat="42.915415" lon="-8.058721">
        <ele>466.890</ele>
        <time>2021-07-11T13:25:46Z</time>
      </trkpt>
      <trkpt lat="42.915414" lon="-8.058699">
        <ele>466.877</ele>
        <time>2021-07-11T13:25:47Z</time>
      </trkpt>
      <trkpt lat="42.915413" lon="-8.058676">
        <ele>466.895</ele>
        <time>2021-07-11T13:25:48Z</time>
      </trkpt>
      <trkpt lat="42.915411" lon="-8.058657">
        <ele>466.854</ele>
        <time>2021-07-11T13:25:49Z</time>
      </trkpt>
      <trkpt lat="42.915399" lon="-8.058560">
        <ele>467.356</ele>
        <time>2021-07-11T13:25:55Z</time>
      </trkpt>
      <trkpt lat="42.915399" lon="-8.058530">
        <ele>466.811</ele>
        <time>2021-07-11T13:25:56Z</time>
      </trkpt>
      <trkpt lat="42.915398" lon="-8.058510">
        <ele>466.808</ele>
        <time>2021-07-11T13:25:57Z</time>
      </trkpt>
      <trkpt lat="42.915395" lon="-8.058482">
        <ele>466.862</ele>
        <time>2021-07-11T13:25:58Z</time>
      </trkpt>
      <trkpt lat="42.915396" lon="-8.058456">
        <ele>466.894</ele>
        <time>2021-07-11T13:25:59Z</time>
      </trkpt>
      <trkpt lat="42.915396" lon="-8.058428">
        <ele>466.891</ele>
        <time>2021-07-11T13:26:00Z</time>
      </trkpt>
      <trkpt lat="42.915383" lon="-8.058247">
        <ele>465.951</ele>
        <time>2021-07-11T13:26:08Z</time>
      </trkpt>
      <trkpt lat="42.915374" lon="-8.058038">
        <ele>466.345</ele>
        <time>2021-07-11T13:26:16Z</time>
      </trkpt>
      <trkpt lat="42.915378" lon="-8.057825">
        <ele>465.463</ele>
        <time>2021-07-11T13:26:25Z</time>
      </trkpt>
      <trkpt lat="42.915371" lon="-8.057676">
        <ele>465.930</ele>
        <time>2021-07-11T13:26:33Z</time>
      </trkpt>
      <trkpt lat="42.915375" lon="-8.057652">
        <ele>466.328</ele>
        <time>2021-07-11T13:26:34Z</time>
      </trkpt>
      <trkpt lat="42.915372" lon="-8.057619">
        <ele>466.344</ele>
        <time>2021-07-11T13:26:35Z</time>
      </trkpt>
      <trkpt lat="42.915369" lon="-8.057600">
        <ele>466.305</ele>
        <time>2021-07-11T13:26:36Z</time>
      </trkpt>
      <trkpt lat="42.915367" lon="-8.057573">
        <ele>466.315</ele>
        <time>2021-07-11T13:26:37Z</time>
      </trkpt>
      <trkpt lat="42.915367" lon="-8.057552">
        <ele>466.308</ele>
        <time>2021-07-11T13:26:38Z</time>
      </trkpt>
      <trkpt lat="42.915369" lon="-8.057528">
        <ele>465.911</ele>
        <time>2021-07-11T13:26:39Z</time>
      </trkpt>
      <trkpt lat="42.915372" lon="-8.057507">
        <ele>465.913</ele>
        <time>2021-07-11T13:26:40Z</time>
      </trkpt>
      <trkpt lat="42.915375" lon="-8.057488">
        <ele>465.970</ele>
        <time>2021-07-11T13:26:41Z</time>
      </trkpt>
      <trkpt lat="42.915377" lon="-8.057465">
        <ele>465.980</ele>
        <time>2021-07-11T13:26:42Z</time>
      </trkpt>
      <trkpt lat="42.915380" lon="-8.057443">
        <ele>465.414</ele>
        <time>2021-07-11T13:26:43Z</time>
      </trkpt>
      <trkpt lat="42.915410" lon="-8.057192">
        <ele>464.912</ele>
        <time>2021-07-11T13:26:55Z</time>
      </trkpt>
      <trkpt lat="42.915440" lon="-8.057018">
        <ele>464.969</ele>
        <time>2021-07-11T13:27:02Z</time>
      </trkpt>
      <trkpt lat="42.915478" lon="-8.056811">
        <ele>464.417</ele>
        <time>2021-07-11T13:27:10Z</time>
      </trkpt>
      <trkpt lat="42.915565" lon="-8.056518">
        <ele>464.954</ele>
        <time>2021-07-11T13:27:19Z</time>
      </trkpt>
      <trkpt lat="42.915609" lon="-8.056172">
        <ele>464.956</ele>
        <time>2021-07-11T13:27:28Z</time>
      </trkpt>
      <trkpt lat="42.915642" lon="-8.055825">
        <ele>464.411</ele>
        <time>2021-07-11T13:27:35Z</time>
      </trkpt>
      <trkpt lat="42.915735" lon="-8.055383">
        <ele>463.908</ele>
        <time>2021-07-11T13:27:45Z</time>
      </trkpt>
      <trkpt lat="42.915802" lon="-8.055077">
        <ele>464.412</ele>
        <time>2021-07-11T13:27:53Z</time>
      </trkpt>
      <trkpt lat="42.915889" lon="-8.054810">
        <ele>464.444</ele>
        <time>2021-07-11T13:28:00Z</time>
      </trkpt>
      <trkpt lat="42.915970" lon="-8.054599">
        <ele>464.971</ele>
        <time>2021-07-11T13:28:07Z</time>
      </trkpt>
      <trkpt lat="42.916065" lon="-8.054346">
        <ele>466.851</ele>
        <time>2021-07-11T13:28:14Z</time>
      </trkpt>
      <trkpt lat="42.916158" lon="-8.054113">
        <ele>468.775</ele>
        <time>2021-07-11T13:28:20Z</time>
      </trkpt>
      <trkpt lat="42.916241" lon="-8.053908">
        <ele>470.783</ele>
        <time>2021-07-11T13:28:25Z</time>
      </trkpt>
      <trkpt lat="42.916380" lon="-8.053615">
        <ele>473.560</ele>
        <time>2021-07-11T13:28:32Z</time>
      </trkpt>
      <trkpt lat="42.916504" lon="-8.053401">
        <ele>475.918</ele>
        <time>2021-07-11T13:28:38Z</time>
      </trkpt>
      <trkpt lat="42.916632" lon="-8.053133">
        <ele>476.994</ele>
        <time>2021-07-11T13:28:45Z</time>
      </trkpt>
      <trkpt lat="42.916732" lon="-8.052766">
        <ele>475.557</ele>
        <time>2021-07-11T13:28:52Z</time>
      </trkpt>
      <trkpt lat="42.916824" lon="-8.052412">
        <ele>475.022</ele>
        <time>2021-07-11T13:29:00Z</time>
      </trkpt>
      <trkpt lat="42.916915" lon="-8.052220">
        <ele>474.508</ele>
        <time>2021-07-11T13:29:07Z</time>
      </trkpt>
      <trkpt lat="42.917116" lon="-8.052047">
        <ele>473.546</ele>
        <time>2021-07-11T13:29:16Z</time>
      </trkpt>
      <trkpt lat="42.917290" lon="-8.051923">
        <ele>471.658</ele>
        <time>2021-07-11T13:29:22Z</time>
      </trkpt>
      <trkpt lat="42.917572" lon="-8.051696">
        <ele>470.275</ele>
        <time>2021-07-11T13:29:31Z</time>
      </trkpt>
      <trkpt lat="42.917595" lon="-8.051486">
        <ele>467.875</ele>
        <time>2021-07-11T13:29:36Z</time>
      </trkpt>
      <trkpt lat="42.917568" lon="-8.051152">
        <ele>465.419</ele>
        <time>2021-07-11T13:29:43Z</time>
      </trkpt>
      <trkpt lat="42.917526" lon="-8.050864">
        <ele>463.457</ele>
        <time>2021-07-11T13:29:50Z</time>
      </trkpt>
      <trkpt lat="42.917480" lon="-8.050451">
        <ele>462.024</ele>
        <time>2021-07-11T13:30:00Z</time>
      </trkpt>
      <trkpt lat="42.917431" lon="-8.050100">
        <ele>461.082</ele>
        <time>2021-07-11T13:30:08Z</time>
      </trkpt>
      <trkpt lat="42.917387" lon="-8.049865">
        <ele>461.019</ele>
        <time>2021-07-11T13:30:15Z</time>
      </trkpt>
      <trkpt lat="42.917248" lon="-8.049623">
        <ele>459.109</ele>
        <time>2021-07-11T13:30:21Z</time>
      </trkpt>
      <trkpt lat="42.917042" lon="-8.049334">
        <ele>457.719</ele>
        <time>2021-07-11T13:30:28Z</time>
      </trkpt>
      <trkpt lat="42.916906" lon="-8.049169">
        <ele>458.208</ele>
        <time>2021-07-11T13:30:33Z</time>
      </trkpt>
      <trkpt lat="42.916644" lon="-8.048938">
        <ele>457.718</ele>
        <time>2021-07-11T13:30:41Z</time>
      </trkpt>
      <trkpt lat="42.916590" lon="-8.048789">
        <ele>458.220</ele>
        <time>2021-07-11T13:30:46Z</time>
      </trkpt>
      <trkpt lat="42.916607" lon="-8.048722">
        <ele>459.177</ele>
        <time>2021-07-11T13:30:48Z</time>
      </trkpt>
      <trkpt lat="42.916621" lon="-8.048682">
        <ele>459.667</ele>
        <time>2021-07-11T13:30:49Z</time>
      </trkpt>
      <trkpt lat="42.916731" lon="-8.048363">
        <ele>459.681</ele>
        <time>2021-07-11T13:30:58Z</time>
      </trkpt>
      <trkpt lat="42.916736" lon="-8.048118">
        <ele>458.679</ele>
        <time>2021-07-11T13:31:04Z</time>
      </trkpt>
      <trkpt lat="42.916729" lon="-8.048097">
        <ele>458.226</ele>
        <time>2021-07-11T13:31:09Z</time>
      </trkpt>
      <trkpt lat="42.916740" lon="-8.048092">
        <ele>457.234</ele>
        <time>2021-07-11T13:31:28Z</time>
      </trkpt>
      <trkpt lat="42.916740" lon="-8.048071">
        <ele>457.248</ele>
        <time>2021-07-11T13:31:34Z</time>
      </trkpt>
      <trkpt lat="42.916738" lon="-8.048050">
        <ele>457.261</ele>
        <time>2021-07-11T13:31:35Z</time>
      </trkpt>
      <trkpt lat="42.916737" lon="-8.048016">
        <ele>456.717</ele>
        <time>2021-07-11T13:31:36Z</time>
      </trkpt>
      <trkpt lat="42.916731" lon="-8.047966">
        <ele>456.708</ele>
        <time>2021-07-11T13:31:37Z</time>
      </trkpt>
      <trkpt lat="42.916727" lon="-8.047941">
        <ele>456.221</ele>
        <time>2021-07-11T13:31:38Z</time>
      </trkpt>
      <trkpt lat="42.916719" lon="-8.047902">
        <ele>456.263</ele>
        <time>2021-07-11T13:31:39Z</time>
      </trkpt>
      <trkpt lat="42.916709" lon="-8.047859">
        <ele>456.230</ele>
        <time>2021-07-11T13:31:40Z</time>
      </trkpt>
      <trkpt lat="42.916584" lon="-8.047516">
        <ele>454.880</ele>
        <time>2021-07-11T13:31:47Z</time>
      </trkpt>
      <trkpt lat="42.916444" lon="-8.047228">
        <ele>453.894</ele>
        <time>2021-07-11T13:31:53Z</time>
      </trkpt>
      <trkpt lat="42.916197" lon="-8.046894">
        <ele>451.052</ele>
        <time>2021-07-11T13:32:00Z</time>
      </trkpt>
      <trkpt lat="42.916136" lon="-8.046797">
        <ele>450.569</ele>
        <time>2021-07-11T13:32:02Z</time>
      </trkpt>
      <trkpt lat="42.916103" lon="-8.046736">
        <ele>450.537</ele>
        <time>2021-07-11T13:32:03Z</time>
      </trkpt>
      <trkpt lat="42.916075" lon="-8.046671">
        <ele>450.551</ele>
        <time>2021-07-11T13:32:04Z</time>
      </trkpt>
      <trkpt lat="42.916005" lon="-8.046487">
        <ele>450.001</ele>
        <time>2021-07-11T13:32:07Z</time>
      </trkpt>
      <trkpt lat="42.916014" lon="-8.046232">
        <ele>449.511</ele>
        <time>2021-07-11T13:32:12Z</time>
      </trkpt>
      <trkpt lat="42.916028" lon="-8.046192">
        <ele>449.508</ele>
        <time>2021-07-11T13:32:13Z</time>
      </trkpt>
      <trkpt lat="42.916138" lon="-8.045793">
        <ele>450.552</ele>
        <time>2021-07-11T13:32:23Z</time>
      </trkpt>
      <trkpt lat="42.916186" lon="-8.045528">
        <ele>449.544</ele>
        <time>2021-07-11T13:32:29Z</time>
      </trkpt>
      <trkpt lat="42.916218" lon="-8.045278">
        <ele>447.691</ele>
        <time>2021-07-11T13:32:36Z</time>
      </trkpt>
      <trkpt lat="42.916282" lon="-8.044952">
        <ele>444.211</ele>
        <time>2021-07-11T13:32:42Z</time>
      </trkpt>
      <trkpt lat="42.916323" lon="-8.044659">
        <ele>441.325</ele>
        <time>2021-07-11T13:32:48Z</time>
      </trkpt>
      <trkpt lat="42.916304" lon="-8.044449">
        <ele>439.993</ele>
        <time>2021-07-11T13:32:52Z</time>
      </trkpt>
      <trkpt lat="42.916289" lon="-8.044375">
        <ele>439.940</ele>
        <time>2021-07-11T13:32:53Z</time>
      </trkpt>
      <trkpt lat="42.916272" lon="-8.044228">
        <ele>439.918</ele>
        <time>2021-07-11T13:32:55Z</time>
      </trkpt>
      <trkpt lat="42.916250" lon="-8.043913">
        <ele>439.479</ele>
        <time>2021-07-11T13:33:01Z</time>
      </trkpt>
      <trkpt lat="42.916265" lon="-8.043664">
        <ele>438.905</ele>
        <time>2021-07-11T13:33:06Z</time>
      </trkpt>
      <trkpt lat="42.916254" lon="-8.043348">
        <ele>438.025</ele>
        <time>2021-07-11T13:33:13Z</time>
      </trkpt>
      <trkpt lat="42.916246" lon="-8.043274">
        <ele>438.008</ele>
        <time>2021-07-11T13:33:14Z</time>
      </trkpt>
      <trkpt lat="42.916244" lon="-8.043200">
        <ele>437.564</ele>
        <time>2021-07-11T13:33:15Z</time>
      </trkpt>
      <trkpt lat="42.916249" lon="-8.043118">
        <ele>437.516</ele>
        <time>2021-07-11T13:33:16Z</time>
      </trkpt>
      <trkpt lat="42.916258" lon="-8.043040">
        <ele>437.523</ele>
        <time>2021-07-11T13:33:17Z</time>
      </trkpt>
      <trkpt lat="42.916268" lon="-8.042976">
        <ele>437.573</ele>
        <time>2021-07-11T13:33:18Z</time>
      </trkpt>
      <trkpt lat="42.916280" lon="-8.042911">
        <ele>437.537</ele>
        <time>2021-07-11T13:33:19Z</time>
      </trkpt>
      <trkpt lat="42.916294" lon="-8.042770">
        <ele>436.595</ele>
        <time>2021-07-11T13:33:22Z</time>
      </trkpt>
      <trkpt lat="42.916283" lon="-8.042738">
        <ele>436.152</ele>
        <time>2021-07-11T13:33:23Z</time>
      </trkpt>
      <trkpt lat="42.916266" lon="-8.042712">
        <ele>436.190</ele>
        <time>2021-07-11T13:33:24Z</time>
      </trkpt>
      <trkpt lat="42.916094" lon="-8.042524">
        <ele>435.657</ele>
        <time>2021-07-11T13:33:31Z</time>
      </trkpt>
      <trkpt lat="42.915978" lon="-8.042373">
        <ele>436.500</ele>
        <time>2021-07-11T13:33:37Z</time>
      </trkpt>
      <trkpt lat="42.915833" lon="-8.042272">
        <ele>437.520</ele>
        <time>2021-07-11T13:33:44Z</time>
      </trkpt>
      <trkpt lat="42.915722" lon="-8.042190">
        <ele>436.508</ele>
        <time>2021-07-11T13:33:50Z</time>
      </trkpt>
      <trkpt lat="42.915546" lon="-8.042038">
        <ele>432.242</ele>
        <time>2021-07-11T13:33:56Z</time>
      </trkpt>
      <trkpt lat="42.915430" lon="-8.041885">
        <ele>428.814</ele>
        <time>2021-07-11T13:34:03Z</time>
      </trkpt>
      <trkpt lat="42.915416" lon="-8.041864">
        <ele>427.411</ele>
        <time>2021-07-11T13:34:09Z</time>
      </trkpt>
      <trkpt lat="42.915403" lon="-8.041852">
        <ele>427.421</ele>
        <time>2021-07-11T13:34:21Z</time>
      </trkpt>
      <trkpt lat="42.915397" lon="-8.041869">
        <ele>428.445</ele>
        <time>2021-07-11T13:34:33Z</time>
      </trkpt>
      <trkpt lat="42.915397" lon="-8.041881">
        <ele>429.843</ele>
        <time>2021-07-11T13:34:49Z</time>
      </trkpt>
      <trkpt lat="42.915392" lon="-8.041877">
        <ele>429.830</ele>
        <time>2021-07-11T13:34:57Z</time>
      </trkpt>
      <trkpt lat="42.915392" lon="-8.041876">
        <ele>429.868</ele>
        <time>2021-07-11T13:34:58Z</time>
      </trkpt>
      <trkpt lat="42.915357" lon="-8.041793">
        <ele>429.314</ele>
        <time>2021-07-11T13:35:05Z</time>
      </trkpt>
      <trkpt lat="42.915340" lon="-8.041769">
        <ele>429.354</ele>
        <time>2021-07-11T13:35:12Z</time>
      </trkpt>
      <trkpt lat="42.915312" lon="-8.041740">
        <ele>428.409</ele>
        <time>2021-07-11T13:35:20Z</time>
      </trkpt>
      <trkpt lat="42.915344" lon="-8.041729">
        <ele>428.808</ele>
        <time>2021-07-11T13:35:38Z</time>
      </trkpt>
      <trkpt lat="42.915343" lon="-8.041733">
        <ele>432.788</ele>
        <time>2021-07-11T13:35:56Z</time>
      </trkpt>
      <trkpt lat="42.915334" lon="-8.041699">
        <ele>428.850</ele>
        <time>2021-07-11T13:36:26Z</time>
      </trkpt>
      <trkpt lat="42.915327" lon="-8.041668">
        <ele>427.477</ele>
        <time>2021-07-11T13:36:50Z</time>
      </trkpt>
      <trkpt lat="42.915299" lon="-8.041672">
        <ele>427.917</ele>
        <time>2021-07-11T13:37:09Z</time>
      </trkpt>
      <trkpt lat="42.915299" lon="-8.041652">
        <ele>427.961</ele>
        <time>2021-07-11T13:37:11Z</time>
      </trkpt>
      <trkpt lat="42.915306" lon="-8.041429">
        <ele>428.429</ele>
        <time>2021-07-11T13:37:21Z</time>
      </trkpt>
      <trkpt lat="42.915250" lon="-8.041324">
        <ele>428.856</ele>
        <time>2021-07-11T13:37:28Z</time>
      </trkpt>
      <trkpt lat="42.915213" lon="-8.041244">
        <ele>429.344</ele>
        <time>2021-07-11T13:37:32Z</time>
      </trkpt>
      <trkpt lat="42.915150" lon="-8.041079">
        <ele>431.293</ele>
        <time>2021-07-11T13:37:41Z</time>
      </trkpt>
      <trkpt lat="42.915092" lon="-8.040942">
        <ele>432.765</ele>
        <time>2021-07-11T13:37:49Z</time>
      </trkpt>
      <trkpt lat="42.915033" lon="-8.040845">
        <ele>434.621</ele>
        <time>2021-07-11T13:37:56Z</time>
      </trkpt>
      <trkpt lat="42.914937" lon="-8.040719">
        <ele>437.008</ele>
        <time>2021-07-11T13:38:04Z</time>
      </trkpt>
      <trkpt lat="42.914770" lon="-8.040497">
        <ele>438.966</ele>
        <time>2021-07-11T13:38:15Z</time>
      </trkpt>
      <trkpt lat="42.914693" lon="-8.040377">
        <ele>437.548</ele>
        <time>2021-07-11T13:38:25Z</time>
      </trkpt>
      <trkpt lat="42.914667" lon="-8.040344">
        <ele>437.055</ele>
        <time>2021-07-11T13:38:44Z</time>
      </trkpt>
      <trkpt lat="42.914638" lon="-8.040335">
        <ele>438.585</ele>
        <time>2021-07-11T13:39:01Z</time>
      </trkpt>
      <trkpt lat="42.914535" lon="-8.040222">
        <ele>438.549</ele>
        <time>2021-07-11T13:39:09Z</time>
      </trkpt>
      <trkpt lat="42.914432" lon="-8.040117">
        <ele>439.417</ele>
        <time>2021-07-11T13:39:15Z</time>
      </trkpt>
      <trkpt lat="42.914301" lon="-8.039976">
        <ele>441.334</ele>
        <time>2021-07-11T13:39:22Z</time>
      </trkpt>
      <trkpt lat="42.914107" lon="-8.039769">
        <ele>442.882</ele>
        <time>2021-07-11T13:39:33Z</time>
      </trkpt>
      <trkpt lat="42.913964" lon="-8.039617">
        <ele>441.378</ele>
        <time>2021-07-11T13:39:41Z</time>
      </trkpt>
      <trkpt lat="42.913795" lon="-8.039452">
        <ele>442.333</ele>
        <time>2021-07-11T13:39:50Z</time>
      </trkpt>
      <trkpt lat="42.913619" lon="-8.039311">
        <ele>444.726</ele>
        <time>2021-07-11T13:39:58Z</time>
      </trkpt>
      <trkpt lat="42.913509" lon="-8.039170">
        <ele>446.608</ele>
        <time>2021-07-11T13:40:05Z</time>
      </trkpt>
      <trkpt lat="42.913404" lon="-8.039003">
        <ele>451.464</ele>
        <time>2021-07-11T13:40:12Z</time>
      </trkpt>
      <trkpt lat="42.913308" lon="-8.038838">
        <ele>454.326</ele>
        <time>2021-07-11T13:40:20Z</time>
      </trkpt>
      <trkpt lat="42.913226" lon="-8.038632">
        <ele>454.343</ele>
        <time>2021-07-11T13:40:26Z</time>
      </trkpt>
      <trkpt lat="42.913197" lon="-8.038520">
        <ele>453.413</ele>
        <time>2021-07-11T13:40:28Z</time>
      </trkpt>
      <trkpt lat="42.913178" lon="-8.038449">
        <ele>452.477</ele>
        <time>2021-07-11T13:40:29Z</time>
      </trkpt>
      <trkpt lat="42.912992" lon="-8.037899">
        <ele>445.225</ele>
        <time>2021-07-11T13:40:34Z</time>
      </trkpt>
      <trkpt lat="42.912791" lon="-8.037483">
        <ele>438.942</ele>
        <time>2021-07-11T13:40:39Z</time>
      </trkpt>
      <trkpt lat="42.912622" lon="-8.036958">
        <ele>434.190</ele>
        <time>2021-07-11T13:40:48Z</time>
      </trkpt>
      <trkpt lat="42.912553" lon="-8.036546">
        <ele>432.211</ele>
        <time>2021-07-11T13:40:56Z</time>
      </trkpt>
      <trkpt lat="42.912567" lon="-8.036102">
        <ele>431.721</ele>
        <time>2021-07-11T13:41:04Z</time>
      </trkpt>
      <trkpt lat="42.912500" lon="-8.035716">
        <ele>431.703</ele>
        <time>2021-07-11T13:41:12Z</time>
      </trkpt>
      <trkpt lat="42.912426" lon="-8.035419">
        <ele>429.308</ele>
        <time>2021-07-11T13:41:19Z</time>
      </trkpt>
      <trkpt lat="42.912326" lon="-8.035040">
        <ele>427.478</ele>
        <time>2021-07-11T13:41:27Z</time>
      </trkpt>
      <trkpt lat="42.912216" lon="-8.034615">
        <ele>428.480</ele>
        <time>2021-07-11T13:41:36Z</time>
      </trkpt>
      <trkpt lat="42.912107" lon="-8.034130">
        <ele>426.997</ele>
        <time>2021-07-11T13:41:45Z</time>
      </trkpt>
      <trkpt lat="42.912080" lon="-8.033934">
        <ele>426.037</ele>
        <time>2021-07-11T13:41:48Z</time>
      </trkpt>
      <trkpt lat="42.912025" lon="-8.033385">
        <ele>425.081</ele>
        <time>2021-07-11T13:41:56Z</time>
      </trkpt>
      <trkpt lat="42.912007" lon="-8.032833">
        <ele>423.139</ele>
        <time>2021-07-11T13:42:03Z</time>
      </trkpt>
      <trkpt lat="42.912015" lon="-8.032747">
        <ele>422.676</ele>
        <time>2021-07-11T13:42:04Z</time>
      </trkpt>
      <trkpt lat="42.912033" lon="-8.032153">
        <ele>420.794</ele>
        <time>2021-07-11T13:42:12Z</time>
      </trkpt>
      <trkpt lat="42.912005" lon="-8.031824">
        <ele>419.747</ele>
        <time>2021-07-11T13:42:16Z</time>
      </trkpt>
      <trkpt lat="42.912014" lon="-8.031708">
        <ele>419.729</ele>
        <time>2021-07-11T13:42:17Z</time>
      </trkpt>
      <trkpt lat="42.912024" lon="-8.031640">
        <ele>419.721</ele>
        <time>2021-07-11T13:42:18Z</time>
      </trkpt>
      <trkpt lat="42.912103" lon="-8.031249">
        <ele>419.708</ele>
        <time>2021-07-11T13:42:24Z</time>
      </trkpt>
      <trkpt lat="42.912151" lon="-8.030923">
        <ele>420.791</ele>
        <time>2021-07-11T13:42:31Z</time>
      </trkpt>
      <trkpt lat="42.912188" lon="-8.030448">
        <ele>420.793</ele>
        <time>2021-07-11T13:42:42Z</time>
      </trkpt>
      <trkpt lat="42.912186" lon="-8.029995">
        <ele>421.660</ele>
        <time>2021-07-11T13:42:52Z</time>
      </trkpt>
      <trkpt lat="42.912182" lon="-8.029530">
        <ele>422.610</ele>
        <time>2021-07-11T13:43:02Z</time>
      </trkpt>
      <trkpt lat="42.912173" lon="-8.029070">
        <ele>421.174</ele>
        <time>2021-07-11T13:43:12Z</time>
      </trkpt>
      <trkpt lat="42.912117" lon="-8.028733">
        <ele>421.172</ele>
        <time>2021-07-11T13:43:19Z</time>
      </trkpt>
      <trkpt lat="42.912076" lon="-8.028353">
        <ele>420.769</ele>
        <time>2021-07-11T13:43:26Z</time>
      </trkpt>
      <trkpt lat="42.911923" lon="-8.027064">
        <ele>417.817</ele>
        <time>2021-07-11T13:43:47Z</time>
      </trkpt>
      <trkpt lat="42.911751" lon="-8.026634">
        <ele>418.715</ele>
        <time>2021-07-11T13:43:56Z</time>
      </trkpt>
      <trkpt lat="42.911661" lon="-8.026425">
        <ele>421.665</ele>
        <time>2021-07-11T13:44:03Z</time>
      </trkpt>
      <trkpt lat="42.911660" lon="-8.026397">
        <ele>421.611</ele>
        <time>2021-07-11T13:44:04Z</time>
      </trkpt>
      <trkpt lat="42.911659" lon="-8.026371">
        <ele>422.108</ele>
        <time>2021-07-11T13:44:05Z</time>
      </trkpt>
      <trkpt lat="42.911654" lon="-8.026346">
        <ele>422.148</ele>
        <time>2021-07-11T13:44:06Z</time>
      </trkpt>
      <trkpt lat="42.911645" lon="-8.026319">
        <ele>422.150</ele>
        <time>2021-07-11T13:44:07Z</time>
      </trkpt>
      <trkpt lat="42.911635" lon="-8.026281">
        <ele>422.667</ele>
        <time>2021-07-11T13:44:09Z</time>
      </trkpt>
      <trkpt lat="42.911557" lon="-8.025940">
        <ele>426.487</ele>
        <time>2021-07-11T13:44:18Z</time>
      </trkpt>
      <trkpt lat="42.911506" lon="-8.025714">
        <ele>427.921</ele>
        <time>2021-07-11T13:44:26Z</time>
      </trkpt>
      <trkpt lat="42.911427" lon="-8.025485">
        <ele>428.419</ele>
        <time>2021-07-11T13:44:35Z</time>
      </trkpt>
      <trkpt lat="42.911371" lon="-8.025259">
        <ele>429.866</ele>
        <time>2021-07-11T13:44:44Z</time>
      </trkpt>
      <trkpt lat="42.911327" lon="-8.025086">
        <ele>429.874</ele>
        <time>2021-07-11T13:44:51Z</time>
      </trkpt>
      <trkpt lat="42.911252" lon="-8.024885">
        <ele>431.288</ele>
        <time>2021-07-11T13:45:00Z</time>
      </trkpt>
      <trkpt lat="42.911248" lon="-8.024859">
        <ele>431.224</ele>
        <time>2021-07-11T13:45:01Z</time>
      </trkpt>
      <trkpt lat="42.911250" lon="-8.024832">
        <ele>431.226</ele>
        <time>2021-07-11T13:45:02Z</time>
      </trkpt>
      <trkpt lat="42.911248" lon="-8.024806">
        <ele>431.208</ele>
        <time>2021-07-11T13:45:03Z</time>
      </trkpt>
      <trkpt lat="42.911240" lon="-8.024783">
        <ele>431.215</ele>
        <time>2021-07-11T13:45:04Z</time>
      </trkpt>
      <trkpt lat="42.911230" lon="-8.024759">
        <ele>431.277</ele>
        <time>2021-07-11T13:45:05Z</time>
      </trkpt>
      <trkpt lat="42.911222" lon="-8.024735">
        <ele>431.264</ele>
        <time>2021-07-11T13:45:06Z</time>
      </trkpt>
      <trkpt lat="42.911158" lon="-8.024487">
        <ele>432.214</ele>
        <time>2021-07-11T13:45:16Z</time>
      </trkpt>
      <trkpt lat="42.911158" lon="-8.024445">
        <ele>431.298</ele>
        <time>2021-07-11T13:45:21Z</time>
      </trkpt>
      <trkpt lat="42.911154" lon="-8.024365">
        <ele>432.216</ele>
        <time>2021-07-11T13:45:27Z</time>
      </trkpt>
      <trkpt lat="42.911238" lon="-8.024181">
        <ele>432.753</ele>
        <time>2021-07-11T13:45:34Z</time>
      </trkpt>
      <trkpt lat="42.911327" lon="-8.024034">
        <ele>432.751</ele>
        <time>2021-07-11T13:45:40Z</time>
      </trkpt>
      <trkpt lat="42.911537" lon="-8.023720">
        <ele>432.799</ele>
        <time>2021-07-11T13:45:50Z</time>
      </trkpt>
      <trkpt lat="42.911728" lon="-8.023442">
        <ele>431.707</ele>
        <time>2021-07-11T13:45:59Z</time>
      </trkpt>
      <trkpt lat="42.911932" lon="-8.023113">
        <ele>432.227</ele>
        <time>2021-07-11T13:46:09Z</time>
      </trkpt>
      <trkpt lat="42.912129" lon="-8.022813">
        <ele>433.208</ele>
        <time>2021-07-11T13:46:18Z</time>
      </trkpt>
      <trkpt lat="42.912367" lon="-8.022454">
        <ele>434.146</ele>
        <time>2021-07-11T13:46:29Z</time>
      </trkpt>
      <trkpt lat="42.912426" lon="-8.022349">
        <ele>434.628</ele>
        <time>2021-07-11T13:46:35Z</time>
      </trkpt>
      <trkpt lat="42.912430" lon="-8.022333">
        <ele>435.655</ele>
        <time>2021-07-11T13:46:47Z</time>
      </trkpt>
      <trkpt lat="42.912443" lon="-8.022246">
        <ele>436.525</ele>
        <time>2021-07-11T13:46:55Z</time>
      </trkpt>
      <trkpt lat="42.912438" lon="-8.022212">
        <ele>436.569</ele>
        <time>2021-07-11T13:46:56Z</time>
      </trkpt>
      <trkpt lat="42.912433" lon="-8.022186">
        <ele>436.577</ele>
        <time>2021-07-11T13:46:57Z</time>
      </trkpt>
      <trkpt lat="42.912428" lon="-8.022156">
        <ele>436.554</ele>
        <time>2021-07-11T13:46:58Z</time>
      </trkpt>
      <trkpt lat="42.912423" lon="-8.022125">
        <ele>436.512</ele>
        <time>2021-07-11T13:46:59Z</time>
      </trkpt>
      <trkpt lat="42.912419" lon="-8.022096">
        <ele>436.518</ele>
        <time>2021-07-11T13:47:00Z</time>
      </trkpt>
      <trkpt lat="42.912353" lon="-8.021743">
        <ele>437.598</ele>
        <time>2021-07-11T13:47:11Z</time>
      </trkpt>
      <trkpt lat="42.912280" lon="-8.021481">
        <ele>438.517</ele>
        <time>2021-07-11T13:47:19Z</time>
      </trkpt>
      <trkpt lat="42.912212" lon="-8.021217">
        <ele>440.908</ele>
        <time>2021-07-11T13:47:28Z</time>
      </trkpt>
      <trkpt lat="42.912145" lon="-8.020977">
        <ele>442.388</ele>
        <time>2021-07-11T13:47:37Z</time>
      </trkpt>
      <trkpt lat="42.912089" lon="-8.020720">
        <ele>443.720</ele>
        <time>2021-07-11T13:47:46Z</time>
      </trkpt>
      <trkpt lat="42.912064" lon="-8.020446">
        <ele>444.287</ele>
        <time>2021-07-11T13:47:55Z</time>
      </trkpt>
      <trkpt lat="42.912093" lon="-8.020217">
        <ele>445.297</ele>
        <time>2021-07-11T13:48:03Z</time>
      </trkpt>
      <trkpt lat="42.912136" lon="-8.019951">
        <ele>446.151</ele>
        <time>2021-07-11T13:48:12Z</time>
      </trkpt>
      <trkpt lat="42.912226" lon="-8.019698">
        <ele>447.159</ele>
        <time>2021-07-11T13:48:21Z</time>
      </trkpt>
      <trkpt lat="42.912327" lon="-8.019480">
        <ele>448.156</ele>
        <time>2021-07-11T13:48:29Z</time>
      </trkpt>
      <trkpt lat="42.912455" lon="-8.019269">
        <ele>448.554</ele>
        <time>2021-07-11T13:48:38Z</time>
      </trkpt>
      <trkpt lat="42.912583" lon="-8.019075">
        <ele>450.077</ele>
        <time>2021-07-11T13:48:46Z</time>
      </trkpt>
      <trkpt lat="42.912738" lon="-8.018817">
        <ele>450.561</ele>
        <time>2021-07-11T13:48:56Z</time>
      </trkpt>
      <trkpt lat="42.912879" lon="-8.018480">
        <ele>451.927</ele>
        <time>2021-07-11T13:49:07Z</time>
      </trkpt>
      <trkpt lat="42.912993" lon="-8.018093">
        <ele>451.908</ele>
        <time>2021-07-11T13:49:19Z</time>
      </trkpt>
      <trkpt lat="42.913097" lon="-8.017763">
        <ele>453.414</ele>
        <time>2021-07-11T13:49:30Z</time>
      </trkpt>
      <trkpt lat="42.913171" lon="-8.017489">
        <ele>455.396</ele>
        <time>2021-07-11T13:49:40Z</time>
      </trkpt>
      <trkpt lat="42.913248" lon="-8.017225">
        <ele>457.793</ele>
        <time>2021-07-11T13:49:49Z</time>
      </trkpt>
      <trkpt lat="42.913311" lon="-8.016986">
        <ele>456.733</ele>
        <time>2021-07-11T13:49:58Z</time>
      </trkpt>
      <trkpt lat="42.913420" lon="-8.016631">
        <ele>458.217</ele>
        <time>2021-07-11T13:50:10Z</time>
      </trkpt>
      <trkpt lat="42.913496" lon="-8.016351">
        <ele>458.695</ele>
        <time>2021-07-11T13:50:19Z</time>
      </trkpt>
      <trkpt lat="42.913603" lon="-8.015996">
        <ele>460.162</ele>
        <time>2021-07-11T13:50:31Z</time>
      </trkpt>
      <trkpt lat="42.913710" lon="-8.015639">
        <ele>462.020</ele>
        <time>2021-07-11T13:50:43Z</time>
      </trkpt>
      <trkpt lat="42.913802" lon="-8.015338">
        <ele>462.098</ele>
        <time>2021-07-11T13:50:53Z</time>
      </trkpt>
      <trkpt lat="42.913831" lon="-8.015061">
        <ele>461.015</ele>
        <time>2021-07-11T13:51:02Z</time>
      </trkpt>
      <trkpt lat="42.913833" lon="-8.014793">
        <ele>461.026</ele>
        <time>2021-07-11T13:51:08Z</time>
      </trkpt>
      <trkpt lat="42.913800" lon="-8.014429">
        <ele>459.608</ele>
        <time>2021-07-11T13:51:16Z</time>
      </trkpt>
      <trkpt lat="42.913792" lon="-8.014404">
        <ele>459.676</ele>
        <time>2021-07-11T13:51:17Z</time>
      </trkpt>
      <trkpt lat="42.913777" lon="-8.014362">
        <ele>459.678</ele>
        <time>2021-07-11T13:51:19Z</time>
      </trkpt>
      <trkpt lat="42.913769" lon="-8.014343">
        <ele>459.655</ele>
        <time>2021-07-11T13:51:20Z</time>
      </trkpt>
      <trkpt lat="42.913761" lon="-8.014323">
        <ele>459.685</ele>
        <time>2021-07-11T13:51:21Z</time>
      </trkpt>
      <trkpt lat="42.913756" lon="-8.014302">
        <ele>459.629</ele>
        <time>2021-07-11T13:51:22Z</time>
      </trkpt>
      <trkpt lat="42.913751" lon="-8.014281">
        <ele>459.637</ele>
        <time>2021-07-11T13:51:23Z</time>
      </trkpt>
      <trkpt lat="42.913748" lon="-8.014258">
        <ele>459.614</ele>
        <time>2021-07-11T13:51:28Z</time>
      </trkpt>
      <trkpt lat="42.913744" lon="-8.014274">
        <ele>458.612</ele>
        <time>2021-07-11T13:51:36Z</time>
      </trkpt>
      <trkpt lat="42.913763" lon="-8.014260">
        <ele>460.661</ele>
        <time>2021-07-11T13:51:50Z</time>
      </trkpt>
      <trkpt lat="42.913751" lon="-8.014309">
        <ele>460.121</ele>
        <time>2021-07-11T13:52:06Z</time>
      </trkpt>
      <trkpt lat="42.913760" lon="-8.014295">
        <ele>459.113</ele>
        <time>2021-07-11T13:52:20Z</time>
      </trkpt>
      <trkpt lat="42.913751" lon="-8.014306">
        <ele>460.108</ele>
        <time>2021-07-11T13:52:33Z</time>
      </trkpt>
      <trkpt lat="42.913765" lon="-8.014269">
        <ele>462.073</ele>
        <time>2021-07-11T13:52:52Z</time>
      </trkpt>
      <trkpt lat="42.913755" lon="-8.014235">
        <ele>462.015</ele>
        <time>2021-07-11T13:53:09Z</time>
      </trkpt>
      <trkpt lat="42.913738" lon="-8.014262">
        <ele>461.572</ele>
        <time>2021-07-11T13:53:24Z</time>
      </trkpt>
      <trkpt lat="42.913753" lon="-8.014265">
        <ele>460.172</ele>
        <time>2021-07-11T13:53:41Z</time>
      </trkpt>
      <trkpt lat="42.913766" lon="-8.014270">
        <ele>460.116</ele>
        <time>2021-07-11T13:53:57Z</time>
      </trkpt>
      <trkpt lat="42.913760" lon="-8.014303">
        <ele>461.544</ele>
        <time>2021-07-11T13:54:14Z</time>
      </trkpt>
      <trkpt lat="42.913783" lon="-8.014281">
        <ele>463.471</ele>
        <time>2021-07-11T13:54:34Z</time>
      </trkpt>
      <trkpt lat="42.913809" lon="-8.014278">
        <ele>465.499</ele>
        <time>2021-07-11T13:54:53Z</time>
      </trkpt>
      <trkpt lat="42.913797" lon="-8.014259">
        <ele>464.926</ele>
        <time>2021-07-11T13:55:11Z</time>
      </trkpt>
      <trkpt lat="42.913799" lon="-8.014266">
        <ele>463.947</ele>
        <time>2021-07-11T13:55:27Z</time>
      </trkpt>
      <trkpt lat="42.913791" lon="-8.014327">
        <ele>466.311</ele>
        <time>2021-07-11T13:55:45Z</time>
      </trkpt>
      <trkpt lat="42.913804" lon="-8.014316">
        <ele>469.708</ele>
        <time>2021-07-11T13:56:08Z</time>
      </trkpt>
      <trkpt lat="42.913802" lon="-8.014322">
        <ele>468.369</ele>
        <time>2021-07-11T13:56:24Z</time>
      </trkpt>
      <trkpt lat="42.913801" lon="-8.014312">
        <ele>466.331</ele>
        <time>2021-07-11T13:56:42Z</time>
      </trkpt>
      <trkpt lat="42.913786" lon="-8.014292">
        <ele>466.328</ele>
        <time>2021-07-11T13:56:56Z</time>
      </trkpt>
      <trkpt lat="42.913787" lon="-8.014305">
        <ele>466.348</ele>
        <time>2021-07-11T13:57:13Z</time>
      </trkpt>
      <trkpt lat="42.913823" lon="-8.014277">
        <ele>466.832</ele>
        <time>2021-07-11T13:57:30Z</time>
      </trkpt>
      <trkpt lat="42.913812" lon="-8.014273">
        <ele>468.730</ele>
        <time>2021-07-11T13:57:44Z</time>
      </trkpt>
      <trkpt lat="42.913765" lon="-8.014322">
        <ele>465.987</ele>
        <time>2021-07-11T13:58:04Z</time>
      </trkpt>
      <trkpt lat="42.913770" lon="-8.014298">
        <ele>463.985</ele>
        <time>2021-07-11T13:58:18Z</time>
      </trkpt>
      <trkpt lat="42.913769" lon="-8.014277">
        <ele>461.535</ele>
        <time>2021-07-11T13:58:33Z</time>
      </trkpt>
      <trkpt lat="42.913768" lon="-8.014288">
        <ele>463.486</ele>
        <time>2021-07-11T13:58:52Z</time>
      </trkpt>
      <trkpt lat="42.913763" lon="-8.014286">
        <ele>463.914</ele>
        <time>2021-07-11T13:59:07Z</time>
      </trkpt>
      <trkpt lat="42.913773" lon="-8.014279">
        <ele>463.008</ele>
        <time>2021-07-11T13:59:14Z</time>
      </trkpt>
      <trkpt lat="42.913759" lon="-8.014275">
        <ele>460.680</ele>
        <time>2021-07-11T13:59:25Z</time>
      </trkpt>
      <trkpt lat="42.913753" lon="-8.014310">
        <ele>459.152</ele>
        <time>2021-07-11T13:59:34Z</time>
      </trkpt>
      <trkpt lat="42.913711" lon="-8.014341">
        <ele>459.679</ele>
        <time>2021-07-11T13:59:39Z</time>
      </trkpt>
      <trkpt lat="42.913704" lon="-8.014356">
        <ele>459.649</ele>
        <time>2021-07-11T13:59:40Z</time>
      </trkpt>
      <trkpt lat="42.913699" lon="-8.014370">
        <ele>459.663</ele>
        <time>2021-07-11T13:59:41Z</time>
      </trkpt>
      <trkpt lat="42.913648" lon="-8.014471">
        <ele>459.641</ele>
        <time>2021-07-11T13:59:49Z</time>
      </trkpt>
      <trkpt lat="42.913624" lon="-8.014489">
        <ele>459.658</ele>
        <time>2021-07-11T13:59:56Z</time>
      </trkpt>
      <trkpt lat="42.913549" lon="-8.014525">
        <ele>458.656</ele>
        <time>2021-07-11T14:00:04Z</time>
      </trkpt>
      <trkpt lat="42.913459" lon="-8.014651">
        <ele>457.723</ele>
        <time>2021-07-11T14:00:14Z</time>
      </trkpt>
      <trkpt lat="42.913436" lon="-8.014680">
        <ele>459.183</ele>
        <time>2021-07-11T14:00:22Z</time>
      </trkpt>
      <trkpt lat="42.913425" lon="-8.014682">
        <ele>459.111</ele>
        <time>2021-07-11T14:00:23Z</time>
      </trkpt>
      <trkpt lat="42.913414" lon="-8.014685">
        <ele>458.608</ele>
        <time>2021-07-11T14:00:24Z</time>
      </trkpt>
      <trkpt lat="42.913403" lon="-8.014687">
        <ele>458.659</ele>
        <time>2021-07-11T14:00:25Z</time>
      </trkpt>
      <trkpt lat="42.913224" lon="-8.014735">
        <ele>459.121</ele>
        <time>2021-07-11T14:00:39Z</time>
      </trkpt>
      <trkpt lat="42.913111" lon="-8.014787">
        <ele>460.178</ele>
        <time>2021-07-11T14:00:49Z</time>
      </trkpt>
      <trkpt lat="42.913008" lon="-8.014810">
        <ele>462.018</ele>
        <time>2021-07-11T14:00:57Z</time>
      </trkpt>
      <trkpt lat="42.912911" lon="-8.014839">
        <ele>463.952</ele>
        <time>2021-07-11T14:01:04Z</time>
      </trkpt>
      <trkpt lat="42.912787" lon="-8.014916">
        <ele>467.360</ele>
        <time>2021-07-11T14:01:13Z</time>
      </trkpt>
      <trkpt lat="42.912777" lon="-8.014922">
        <ele>469.757</ele>
        <time>2021-07-11T14:01:20Z</time>
      </trkpt>
      <trkpt lat="42.912765" lon="-8.014889">
        <ele>478.395</ele>
        <time>2021-07-11T14:01:42Z</time>
      </trkpt>
      <trkpt lat="42.912760" lon="-8.014900">
        <ele>478.332</ele>
        <time>2021-07-11T14:01:50Z</time>
      </trkpt>
      <trkpt lat="42.912769" lon="-8.014933">
        <ele>476.492</ele>
        <time>2021-07-11T14:02:02Z</time>
      </trkpt>
      <trkpt lat="42.912796" lon="-8.014901">
        <ele>474.511</ele>
        <time>2021-07-11T14:02:17Z</time>
      </trkpt>
      <trkpt lat="42.912774" lon="-8.014850">
        <ele>498.508</ele>
        <time>2021-07-13T05:54:21Z</time>
      </trkpt>
      <trkpt lat="42.912830" lon="-8.014946">
        <ele>494.220</ele>
        <time>2021-07-13T05:54:33Z</time>
      </trkpt>
      <trkpt lat="42.912873" lon="-8.015022">
        <ele>486.562</ele>
        <time>2021-07-13T05:54:45Z</time>
      </trkpt>
      <trkpt lat="42.912879" lon="-8.015036">
        <ele>484.139</ele>
        <time>2021-07-13T05:54:56Z</time>
      </trkpt>
      <trkpt lat="42.912930" lon="-8.015048">
        <ele>483.699</ele>
        <time>2021-07-13T05:55:07Z</time>
      </trkpt>
      <trkpt lat="42.912992" lon="-8.015215">
        <ele>521.163</ele>
        <time>2021-07-13T05:55:16Z</time>
      </trkpt>
      <trkpt lat="42.912973" lon="-8.015170">
        <ele>528.871</ele>
        <time>2021-07-13T05:55:20Z</time>
      </trkpt>
      <trkpt lat="42.912997" lon="-8.015158">
        <ele>528.378</ele>
        <time>2021-07-13T05:55:21Z</time>
      </trkpt>
      <trkpt lat="42.913287" lon="-8.015128">
        <ele>526.496</ele>
        <time>2021-07-13T05:55:34Z</time>
      </trkpt>
      <trkpt lat="42.913480" lon="-8.015113">
        <ele>518.757</ele>
        <time>2021-07-13T05:55:41Z</time>
      </trkpt>
      <trkpt lat="42.913532" lon="-8.015098">
        <ele>516.800</ele>
        <time>2021-07-13T05:55:43Z</time>
      </trkpt>
      <trkpt lat="42.913549" lon="-8.014927">
        <ele>510.120</ele>
        <time>2021-07-13T05:55:48Z</time>
      </trkpt>
      <trkpt lat="42.913552" lon="-8.014772">
        <ele>508.108</ele>
        <time>2021-07-13T05:55:52Z</time>
      </trkpt>
      <trkpt lat="42.913571" lon="-8.014736">
        <ele>507.222</ele>
        <time>2021-07-13T05:55:53Z</time>
      </trkpt>
      <trkpt lat="42.913600" lon="-8.014716">
        <ele>506.264</ele>
        <time>2021-07-13T05:55:54Z</time>
      </trkpt>
      <trkpt lat="42.913614" lon="-8.014702">
        <ele>505.731</ele>
        <time>2021-07-13T05:55:55Z</time>
      </trkpt>
      <trkpt lat="42.913629" lon="-8.014680">
        <ele>505.781</ele>
        <time>2021-07-13T05:55:56Z</time>
      </trkpt>
      <trkpt lat="42.913637" lon="-8.014645">
        <ele>505.785</ele>
        <time>2021-07-13T05:55:57Z</time>
      </trkpt>
      <trkpt lat="42.913639" lon="-8.014605">
        <ele>505.793</ele>
        <time>2021-07-13T05:55:58Z</time>
      </trkpt>
      <trkpt lat="42.913638" lon="-8.014574">
        <ele>505.310</ele>
        <time>2021-07-13T05:55:59Z</time>
      </trkpt>
      <trkpt lat="42.913657" lon="-8.013932">
        <ele>481.218</ele>
        <time>2021-07-13T05:56:10Z</time>
      </trkpt>
      <trkpt lat="42.913636" lon="-8.013582">
        <ele>475.973</ele>
        <time>2021-07-13T05:56:19Z</time>
      </trkpt>
      <trkpt lat="42.913620" lon="-8.013375">
        <ele>472.685</ele>
        <time>2021-07-13T05:56:26Z</time>
      </trkpt>
      <trkpt lat="42.913598" lon="-8.013114">
        <ele>469.213</ele>
        <time>2021-07-13T05:56:36Z</time>
      </trkpt>
      <trkpt lat="42.913551" lon="-8.012768">
        <ele>467.308</ele>
        <time>2021-07-13T05:56:45Z</time>
      </trkpt>
      <trkpt lat="42.913484" lon="-8.012337">
        <ele>463.014</ele>
        <time>2021-07-13T05:56:55Z</time>
      </trkpt>
      <trkpt lat="42.913446" lon="-8.012100">
        <ele>461.056</ele>
        <time>2021-07-13T05:57:01Z</time>
      </trkpt>
      <trkpt lat="42.913434" lon="-8.012036">
        <ele>460.683</ele>
        <time>2021-07-13T05:57:03Z</time>
      </trkpt>
      <trkpt lat="42.913421" lon="-8.011997">
        <ele>460.133</ele>
        <time>2021-07-13T05:57:04Z</time>
      </trkpt>
      <trkpt lat="42.913416" lon="-8.011958">
        <ele>459.617</ele>
        <time>2021-07-13T05:57:05Z</time>
      </trkpt>
      <trkpt lat="42.913418" lon="-8.011921">
        <ele>459.695</ele>
        <time>2021-07-13T05:57:06Z</time>
      </trkpt>
      <trkpt lat="42.913417" lon="-8.011892">
        <ele>459.162</ele>
        <time>2021-07-13T05:57:07Z</time>
      </trkpt>
      <trkpt lat="42.913414" lon="-8.011864">
        <ele>459.160</ele>
        <time>2021-07-13T05:57:08Z</time>
      </trkpt>
      <trkpt lat="42.913405" lon="-8.011830">
        <ele>459.123</ele>
        <time>2021-07-13T05:57:09Z</time>
      </trkpt>
      <trkpt lat="42.913354" lon="-8.011585">
        <ele>458.283</ele>
        <time>2021-07-13T05:57:16Z</time>
      </trkpt>
      <trkpt lat="42.913346" lon="-8.011419">
        <ele>458.611</ele>
        <time>2021-07-13T05:57:22Z</time>
      </trkpt>
      <trkpt lat="42.913310" lon="-8.011217">
        <ele>459.608</ele>
        <time>2021-07-13T05:57:29Z</time>
      </trkpt>
      <trkpt lat="42.913240" lon="-8.010852">
        <ele>459.169</ele>
        <time>2021-07-13T05:57:38Z</time>
      </trkpt>
      <trkpt lat="42.913156" lon="-8.010343">
        <ele>458.291</ele>
        <time>2021-07-13T05:57:47Z</time>
      </trkpt>
      <trkpt lat="42.913055" lon="-8.009724">
        <ele>455.858</ele>
        <time>2021-07-13T05:57:56Z</time>
      </trkpt>
      <trkpt lat="42.912957" lon="-8.009192">
        <ele>453.478</ele>
        <time>2021-07-13T05:58:04Z</time>
      </trkpt>
      <trkpt lat="42.912845" lon="-8.008517">
        <ele>451.452</ele>
        <time>2021-07-13T05:58:13Z</time>
      </trkpt>
      <trkpt lat="42.912715" lon="-8.007765">
        <ele>448.590</ele>
        <time>2021-07-13T05:58:22Z</time>
      </trkpt>
      <trkpt lat="42.912555" lon="-8.006840">
        <ele>443.367</ele>
        <time>2021-07-13T05:58:32Z</time>
      </trkpt>
      <trkpt lat="42.912392" lon="-8.005853">
        <ele>439.915</ele>
        <time>2021-07-13T05:58:43Z</time>
      </trkpt>
      <trkpt lat="42.912231" lon="-8.004840">
        <ele>437.095</ele>
        <time>2021-07-13T05:58:54Z</time>
      </trkpt>
      <trkpt lat="42.912040" lon="-8.003824">
        <ele>433.649</ele>
        <time>2021-07-13T05:59:05Z</time>
      </trkpt>
      <trkpt lat="42.911841" lon="-8.002714">
        <ele>429.823</ele>
        <time>2021-07-13T05:59:17Z</time>
      </trkpt>
      <trkpt lat="42.911681" lon="-8.001722">
        <ele>426.408</ele>
        <time>2021-07-13T05:59:27Z</time>
      </trkpt>
      <trkpt lat="42.911505" lon="-8.000786">
        <ele>422.646</ele>
        <time>2021-07-13T05:59:37Z</time>
      </trkpt>
      <trkpt lat="42.911372" lon="-7.999996">
        <ele>421.198</ele>
        <time>2021-07-13T05:59:46Z</time>
      </trkpt>
      <trkpt lat="42.911225" lon="-7.999112">
        <ele>419.215</ele>
        <time>2021-07-13T05:59:57Z</time>
      </trkpt>
      <trkpt lat="42.911127" lon="-7.998527">
        <ele>419.245</ele>
        <time>2021-07-13T06:00:06Z</time>
      </trkpt>
      <trkpt lat="42.911022" lon="-7.997858">
        <ele>417.829</ele>
        <time>2021-07-13T06:00:16Z</time>
      </trkpt>
      <trkpt lat="42.911007" lon="-7.997211">
        <ele>416.317</ele>
        <time>2021-07-13T06:00:24Z</time>
      </trkpt>
      <trkpt lat="42.911079" lon="-7.996483">
        <ele>414.434</ele>
        <time>2021-07-13T06:00:32Z</time>
      </trkpt>
      <trkpt lat="42.911212" lon="-7.995533">
        <ele>413.962</ele>
        <time>2021-07-13T06:00:42Z</time>
      </trkpt>
      <trkpt lat="42.911241" lon="-7.994948">
        <ele>413.965</ele>
        <time>2021-07-13T06:00:49Z</time>
      </trkpt>
      <trkpt lat="42.911146" lon="-7.994356">
        <ele>414.468</ele>
        <time>2021-07-13T06:00:57Z</time>
      </trkpt>
      <trkpt lat="42.910924" lon="-7.993848">
        <ele>414.914</ele>
        <time>2021-07-13T06:01:05Z</time>
      </trkpt>
      <trkpt lat="42.910588" lon="-7.993438">
        <ele>414.908</ele>
        <time>2021-07-13T06:01:14Z</time>
      </trkpt>
      <trkpt lat="42.910155" lon="-7.993113">
        <ele>415.443</ele>
        <time>2021-07-13T06:01:24Z</time>
      </trkpt>
      <trkpt lat="42.909799" lon="-7.992944">
        <ele>415.465</ele>
        <time>2021-07-13T06:01:33Z</time>
      </trkpt>
      <trkpt lat="42.909373" lon="-7.992780">
        <ele>417.332</ele>
        <time>2021-07-13T06:01:44Z</time>
      </trkpt>
      <trkpt lat="42.908979" lon="-7.992608">
        <ele>417.822</ele>
        <time>2021-07-13T06:01:55Z</time>
      </trkpt>
      <trkpt lat="42.908676" lon="-7.992484">
        <ele>419.286</ele>
        <time>2021-07-13T06:02:05Z</time>
      </trkpt>
      <trkpt lat="42.908426" lon="-7.992390">
        <ele>420.214</ele>
        <time>2021-07-13T06:02:14Z</time>
      </trkpt>
      <trkpt lat="42.908192" lon="-7.992308">
        <ele>421.181</ele>
        <time>2021-07-13T06:02:23Z</time>
      </trkpt>
      <trkpt lat="42.907901" lon="-7.992197">
        <ele>423.199</ele>
        <time>2021-07-13T06:02:34Z</time>
      </trkpt>
      <trkpt lat="42.907703" lon="-7.992113">
        <ele>423.624</ele>
        <time>2021-07-13T06:02:42Z</time>
      </trkpt>
      <trkpt lat="42.907453" lon="-7.992010">
        <ele>425.504</ele>
        <time>2021-07-13T06:02:53Z</time>
      </trkpt>
      <trkpt lat="42.907209" lon="-7.991915">
        <ele>426.914</ele>
        <time>2021-07-13T06:03:03Z</time>
      </trkpt>
      <trkpt lat="42.906911" lon="-7.991810">
        <ele>427.908</ele>
        <time>2021-07-13T06:03:15Z</time>
      </trkpt>
      <trkpt lat="42.906702" lon="-7.991747">
        <ele>428.889</ele>
        <time>2021-07-13T06:03:24Z</time>
      </trkpt>
      <trkpt lat="42.906477" lon="-7.991678">
        <ele>430.871</ele>
        <time>2021-07-13T06:03:34Z</time>
      </trkpt>
      <trkpt lat="42.906212" lon="-7.991613">
        <ele>432.788</ele>
        <time>2021-07-13T06:03:46Z</time>
      </trkpt>
      <trkpt lat="42.905961" lon="-7.991557">
        <ele>433.668</ele>
        <time>2021-07-13T06:03:57Z</time>
      </trkpt>
      <trkpt lat="42.905661" lon="-7.991489">
        <ele>435.182</ele>
        <time>2021-07-13T06:04:10Z</time>
      </trkpt>
      <trkpt lat="42.905430" lon="-7.991428">
        <ele>436.550</ele>
        <time>2021-07-13T06:04:20Z</time>
      </trkpt>
      <trkpt lat="42.905209" lon="-7.991368">
        <ele>438.927</ele>
        <time>2021-07-13T06:04:30Z</time>
      </trkpt>
      <trkpt lat="42.905005" lon="-7.991316">
        <ele>440.955</ele>
        <time>2021-07-13T06:04:39Z</time>
      </trkpt>
      <trkpt lat="42.904810" lon="-7.991266">
        <ele>440.949</ele>
        <time>2021-07-13T06:04:47Z</time>
      </trkpt>
      <trkpt lat="42.904556" lon="-7.991216">
        <ele>440.902</ele>
        <time>2021-07-13T06:04:57Z</time>
      </trkpt>
      <trkpt lat="42.904291" lon="-7.991165">
        <ele>441.822</ele>
        <time>2021-07-13T06:05:08Z</time>
      </trkpt>
      <trkpt lat="42.904054" lon="-7.991109">
        <ele>442.308</ele>
        <time>2021-07-13T06:05:18Z</time>
      </trkpt>
      <trkpt lat="42.903764" lon="-7.990990">
        <ele>442.851</ele>
        <time>2021-07-13T06:05:30Z</time>
      </trkpt>
      <trkpt lat="42.903390" lon="-7.990768">
        <ele>443.733</ele>
        <time>2021-07-13T06:05:45Z</time>
      </trkpt>
      <trkpt lat="42.903122" lon="-7.990547">
        <ele>445.230</ele>
        <time>2021-07-13T06:05:56Z</time>
      </trkpt>
      <trkpt lat="42.902858" lon="-7.990244">
        <ele>447.120</ele>
        <time>2021-07-13T06:06:09Z</time>
      </trkpt>
      <trkpt lat="42.902680" lon="-7.989980">
        <ele>448.514</ele>
        <time>2021-07-13T06:06:19Z</time>
      </trkpt>
      <trkpt lat="42.902513" lon="-7.989685">
        <ele>450.072</ele>
        <time>2021-07-13T06:06:29Z</time>
      </trkpt>
      <trkpt lat="42.902388" lon="-7.989459">
        <ele>450.589</ele>
        <time>2021-07-13T06:06:37Z</time>
      </trkpt>
      <trkpt lat="42.902225" lon="-7.989137">
        <ele>451.067</ele>
        <time>2021-07-13T06:06:48Z</time>
      </trkpt>
      <trkpt lat="42.902080" lon="-7.988880">
        <ele>451.959</ele>
        <time>2021-07-13T06:06:58Z</time>
      </trkpt>
      <trkpt lat="42.901940" lon="-7.988612">
        <ele>452.403</ele>
        <time>2021-07-13T06:07:08Z</time>
      </trkpt>
      <trkpt lat="42.901743" lon="-7.988237">
        <ele>453.423</ele>
        <time>2021-07-13T06:07:21Z</time>
      </trkpt>
      <trkpt lat="42.901612" lon="-7.987981">
        <ele>454.308</ele>
        <time>2021-07-13T06:07:30Z</time>
      </trkpt>
      <trkpt lat="42.901461" lon="-7.987681">
        <ele>455.812</ele>
        <time>2021-07-13T06:07:40Z</time>
      </trkpt>
      <trkpt lat="42.901311" lon="-7.987395">
        <ele>456.274</ele>
        <time>2021-07-13T06:07:49Z</time>
      </trkpt>
      <trkpt lat="42.901125" lon="-7.987039">
        <ele>457.251</ele>
        <time>2021-07-13T06:08:01Z</time>
      </trkpt>
      <trkpt lat="42.900938" lon="-7.986683">
        <ele>457.741</ele>
        <time>2021-07-13T06:08:12Z</time>
      </trkpt>
      <trkpt lat="42.900702" lon="-7.986220">
        <ele>457.785</ele>
        <time>2021-07-13T06:08:25Z</time>
      </trkpt>
      <trkpt lat="42.900469" lon="-7.985762">
        <ele>457.273</ele>
        <time>2021-07-13T06:08:36Z</time>
      </trkpt>
      <trkpt lat="42.900267" lon="-7.985380">
        <ele>456.260</ele>
        <time>2021-07-13T06:08:44Z</time>
      </trkpt>
      <trkpt lat="42.899934" lon="-7.984774">
        <ele>456.238</ele>
        <time>2021-07-13T06:08:55Z</time>
      </trkpt>
      <trkpt lat="42.899743" lon="-7.984428">
        <ele>455.378</ele>
        <time>2021-07-13T06:09:02Z</time>
      </trkpt>
      <trkpt lat="42.899506" lon="-7.983981">
        <ele>455.333</ele>
        <time>2021-07-13T06:09:12Z</time>
      </trkpt>
      <trkpt lat="42.899282" lon="-7.983553">
        <ele>454.326</ele>
        <time>2021-07-13T06:09:21Z</time>
      </trkpt>
      <trkpt lat="42.899143" lon="-7.983249">
        <ele>453.808</ele>
        <time>2021-07-13T06:09:28Z</time>
      </trkpt>
      <trkpt lat="42.899087" lon="-7.983106">
        <ele>453.444</ele>
        <time>2021-07-13T06:09:31Z</time>
      </trkpt>
      <trkpt lat="42.899059" lon="-7.983060">
        <ele>453.476</ele>
        <time>2021-07-13T06:09:32Z</time>
      </trkpt>
      <trkpt lat="42.898784" lon="-7.982543">
        <ele>452.993</ele>
        <time>2021-07-13T06:09:43Z</time>
      </trkpt>
      <trkpt lat="42.898551" lon="-7.982125">
        <ele>452.423</ele>
        <time>2021-07-13T06:09:52Z</time>
      </trkpt>
      <trkpt lat="42.898520" lon="-7.982084">
        <ele>452.457</ele>
        <time>2021-07-13T06:09:53Z</time>
      </trkpt>
      <trkpt lat="42.898492" lon="-7.982042">
        <ele>452.415</ele>
        <time>2021-07-13T06:09:54Z</time>
      </trkpt>
      <trkpt lat="42.898254" lon="-7.981566">
        <ele>452.472</ele>
        <time>2021-07-13T06:10:04Z</time>
      </trkpt>
      <trkpt lat="42.898036" lon="-7.981137">
        <ele>452.480</ele>
        <time>2021-07-13T06:10:13Z</time>
      </trkpt>
      <trkpt lat="42.897984" lon="-7.981045">
        <ele>452.482</ele>
        <time>2021-07-13T06:10:15Z</time>
      </trkpt>
      <trkpt lat="42.897787" lon="-7.980662">
        <ele>451.943</ele>
        <time>2021-07-13T06:10:23Z</time>
      </trkpt>
      <trkpt lat="42.897566" lon="-7.980244">
        <ele>452.417</ele>
        <time>2021-07-13T06:10:32Z</time>
      </trkpt>
      <trkpt lat="42.897366" lon="-7.979872">
        <ele>452.908</ele>
        <time>2021-07-13T06:10:41Z</time>
      </trkpt>
      <trkpt lat="42.897124" lon="-7.979398">
        <ele>453.465</ele>
        <time>2021-07-13T06:10:53Z</time>
      </trkpt>
      <trkpt lat="42.896974" lon="-7.979083">
        <ele>453.887</ele>
        <time>2021-07-13T06:11:01Z</time>
      </trkpt>
      <trkpt lat="42.896768" lon="-7.978673">
        <ele>454.364</ele>
        <time>2021-07-13T06:11:12Z</time>
      </trkpt>
      <trkpt lat="42.896557" lon="-7.978270">
        <ele>455.364</ele>
        <time>2021-07-13T06:11:23Z</time>
      </trkpt>
      <trkpt lat="42.896355" lon="-7.977889">
        <ele>455.888</ele>
        <time>2021-07-13T06:11:33Z</time>
      </trkpt>
      <trkpt lat="42.896138" lon="-7.977461">
        <ele>456.756</ele>
        <time>2021-07-13T06:11:44Z</time>
      </trkpt>
      <trkpt lat="42.895854" lon="-7.976932">
        <ele>458.263</ele>
        <time>2021-07-13T06:11:58Z</time>
      </trkpt>
      <trkpt lat="42.895637" lon="-7.976518">
        <ele>459.621</ele>
        <time>2021-07-13T06:12:09Z</time>
      </trkpt>
      <trkpt lat="42.895392" lon="-7.976030">
        <ele>460.181</ele>
        <time>2021-07-13T06:12:22Z</time>
      </trkpt>
      <trkpt lat="42.895159" lon="-7.975572">
        <ele>461.561</ele>
        <time>2021-07-13T06:12:34Z</time>
      </trkpt>
      <trkpt lat="42.894960" lon="-7.975192">
        <ele>462.517</ele>
        <time>2021-07-13T06:12:44Z</time>
      </trkpt>
      <trkpt lat="42.894737" lon="-7.974771">
        <ele>463.008</ele>
        <time>2021-07-13T06:12:55Z</time>
      </trkpt>
      <trkpt lat="42.894542" lon="-7.974382">
        <ele>463.995</ele>
        <time>2021-07-13T06:13:05Z</time>
      </trkpt>
      <trkpt lat="42.894304" lon="-7.973936">
        <ele>463.977</ele>
        <time>2021-07-13T06:13:16Z</time>
      </trkpt>
      <trkpt lat="42.894055" lon="-7.973465">
        <ele>463.944</ele>
        <time>2021-07-13T06:13:27Z</time>
      </trkpt>
      <trkpt lat="42.893821" lon="-7.973016">
        <ele>463.984</ele>
        <time>2021-07-13T06:13:37Z</time>
      </trkpt>
      <trkpt lat="42.893543" lon="-7.972482">
        <ele>463.088</ele>
        <time>2021-07-13T06:13:48Z</time>
      </trkpt>
      <trkpt lat="42.893275" lon="-7.971962">
        <ele>461.586</ele>
        <time>2021-07-13T06:13:57Z</time>
      </trkpt>
      <trkpt lat="42.892966" lon="-7.971365">
        <ele>458.673</ele>
        <time>2021-07-13T06:14:05Z</time>
      </trkpt>
      <trkpt lat="42.892594" lon="-7.970653">
        <ele>455.331</ele>
        <time>2021-07-13T06:14:13Z</time>
      </trkpt>
      <trkpt lat="42.892078" lon="-7.969665">
        <ele>451.013</ele>
        <time>2021-07-13T06:14:23Z</time>
      </trkpt>
      <trkpt lat="42.891562" lon="-7.968667">
        <ele>447.643</ele>
        <time>2021-07-13T06:14:33Z</time>
      </trkpt>
      <trkpt lat="42.891007" lon="-7.967571">
        <ele>444.207</ele>
        <time>2021-07-13T06:14:44Z</time>
      </trkpt>
      <trkpt lat="42.890705" lon="-7.966892">
        <ele>444.208</ele>
        <time>2021-07-13T06:14:51Z</time>
      </trkpt>
      <trkpt lat="42.890553" lon="-7.966521">
        <ele>445.298</ele>
        <time>2021-07-13T06:14:57Z</time>
      </trkpt>
      <trkpt lat="42.890343" lon="-7.965975">
        <ele>447.670</ele>
        <time>2021-07-13T06:15:09Z</time>
      </trkpt>
      <trkpt lat="42.890225" lon="-7.965641">
        <ele>448.567</ele>
        <time>2021-07-13T06:15:19Z</time>
      </trkpt>
      <trkpt lat="42.890086" lon="-7.965257">
        <ele>451.047</ele>
        <time>2021-07-13T06:15:31Z</time>
      </trkpt>
      <trkpt lat="42.890006" lon="-7.965023">
        <ele>452.981</ele>
        <time>2021-07-13T06:15:39Z</time>
      </trkpt>
      <trkpt lat="42.889891" lon="-7.964681">
        <ele>454.859</ele>
        <time>2021-07-13T06:15:50Z</time>
      </trkpt>
      <trkpt lat="42.889790" lon="-7.964403">
        <ele>455.356</ele>
        <time>2021-07-13T06:16:00Z</time>
      </trkpt>
      <trkpt lat="42.889677" lon="-7.964133">
        <ele>456.274</ele>
        <time>2021-07-13T06:16:10Z</time>
      </trkpt>
      <trkpt lat="42.889531" lon="-7.963868">
        <ele>457.765</ele>
        <time>2021-07-13T06:16:21Z</time>
      </trkpt>
      <trkpt lat="42.889403" lon="-7.963668">
        <ele>459.168</ele>
        <time>2021-07-13T06:16:30Z</time>
      </trkpt>
      <trkpt lat="42.889219" lon="-7.963434">
        <ele>462.014</ele>
        <time>2021-07-13T06:16:41Z</time>
      </trkpt>
      <trkpt lat="42.889074" lon="-7.963292">
        <ele>463.008</ele>
        <time>2021-07-13T06:16:49Z</time>
      </trkpt>
      <trkpt lat="42.888880" lon="-7.963125">
        <ele>464.443</ele>
        <time>2021-07-13T06:16:59Z</time>
      </trkpt>
      <trkpt lat="42.888688" lon="-7.962941">
        <ele>465.985</ele>
        <time>2021-07-13T06:17:09Z</time>
      </trkpt>
      <trkpt lat="42.888467" lon="-7.962750">
        <ele>467.812</ele>
        <time>2021-07-13T06:17:21Z</time>
      </trkpt>
      <trkpt lat="42.888248" lon="-7.962558">
        <ele>468.762</ele>
        <time>2021-07-13T06:17:33Z</time>
      </trkpt>
      <trkpt lat="42.888037" lon="-7.962367">
        <ele>470.776</ele>
        <time>2021-07-13T06:17:44Z</time>
      </trkpt>
      <trkpt lat="42.887874" lon="-7.962212">
        <ele>471.174</ele>
        <time>2021-07-13T06:17:53Z</time>
      </trkpt>
      <trkpt lat="42.887681" lon="-7.962051">
        <ele>472.131</ele>
        <time>2021-07-13T06:18:03Z</time>
      </trkpt>
      <trkpt lat="42.887502" lon="-7.961883">
        <ele>473.529</ele>
        <time>2021-07-13T06:18:12Z</time>
      </trkpt>
      <trkpt lat="42.887311" lon="-7.961721">
        <ele>474.542</ele>
        <time>2021-07-13T06:18:21Z</time>
      </trkpt>
      <trkpt lat="42.887067" lon="-7.961495">
        <ele>475.922</ele>
        <time>2021-07-13T06:18:32Z</time>
      </trkpt>
      <trkpt lat="42.886750" lon="-7.961206">
        <ele>477.414</ele>
        <time>2021-07-13T06:19:04Z</time>
      </trkpt>
      <trkpt lat="42.886438" lon="-7.960936">
        <ele>479.308</ele>
        <time>2021-07-13T06:19:17Z</time>
      </trkpt>
      <trkpt lat="42.886165" lon="-7.960703">
        <ele>480.881</ele>
        <time>2021-07-13T06:19:28Z</time>
      </trkpt>
      <trkpt lat="42.885935" lon="-7.960410">
        <ele>481.283</ele>
        <time>2021-07-13T06:19:39Z</time>
      </trkpt>
      <trkpt lat="42.885724" lon="-7.960080">
        <ele>481.250</ele>
        <time>2021-07-13T06:19:50Z</time>
      </trkpt>
      <trkpt lat="42.885545" lon="-7.959758">
        <ele>482.220</ele>
        <time>2021-07-13T06:20:00Z</time>
      </trkpt>
      <trkpt lat="42.885376" lon="-7.959379">
        <ele>482.754</ele>
        <time>2021-07-13T06:20:11Z</time>
      </trkpt>
      <trkpt lat="42.885251" lon="-7.959004">
        <ele>482.752</ele>
        <time>2021-07-13T06:20:21Z</time>
      </trkpt>
      <trkpt lat="42.885148" lon="-7.958621">
        <ele>482.779</ele>
        <time>2021-07-13T06:20:30Z</time>
      </trkpt>
      <trkpt lat="42.885050" lon="-7.958220">
        <ele>482.277</ele>
        <time>2021-07-13T06:20:39Z</time>
      </trkpt>
      <trkpt lat="42.884938" lon="-7.957793">
        <ele>482.277</ele>
        <time>2021-07-13T06:20:48Z</time>
      </trkpt>
      <trkpt lat="42.884848" lon="-7.957341">
        <ele>481.261</ele>
        <time>2021-07-13T06:20:57Z</time>
      </trkpt>
      <trkpt lat="42.884775" lon="-7.956944">
        <ele>480.827</ele>
        <time>2021-07-13T06:21:04Z</time>
      </trkpt>
      <trkpt lat="42.884770" lon="-7.956882">
        <ele>480.808</ele>
        <time>2021-07-13T06:21:05Z</time>
      </trkpt>
      <trkpt lat="42.884766" lon="-7.956327">
        <ele>480.394</ele>
        <time>2021-07-13T06:21:14Z</time>
      </trkpt>
      <trkpt lat="42.884831" lon="-7.955699">
        <ele>478.856</ele>
        <time>2021-07-13T06:21:23Z</time>
      </trkpt>
      <trkpt lat="42.884906" lon="-7.955067">
        <ele>477.413</ele>
        <time>2021-07-13T06:21:31Z</time>
      </trkpt>
      <trkpt lat="42.885033" lon="-7.953912">
        <ele>475.563</ele>
        <time>2021-07-13T06:21:44Z</time>
      </trkpt>
      <trkpt lat="42.885203" lon="-7.952950">
        <ele>475.017</ele>
        <time>2021-07-13T06:21:55Z</time>
      </trkpt>
      <trkpt lat="42.885444" lon="-7.952326">
        <ele>472.185</ele>
        <time>2021-07-13T06:22:02Z</time>
      </trkpt>
      <trkpt lat="42.885770" lon="-7.951609">
        <ele>467.872</ele>
        <time>2021-07-13T06:22:09Z</time>
      </trkpt>
      <trkpt lat="42.886193" lon="-7.950757">
        <ele>462.530</ele>
        <time>2021-07-13T06:22:17Z</time>
      </trkpt>
      <trkpt lat="42.886800" lon="-7.949580">
        <ele>457.792</ele>
        <time>2021-07-13T06:22:28Z</time>
      </trkpt>
      <trkpt lat="42.887283" lon="-7.948608">
        <ele>455.373</ele>
        <time>2021-07-13T06:22:38Z</time>
      </trkpt>
      <trkpt lat="42.887522" lon="-7.948057">
        <ele>455.320</ele>
        <time>2021-07-13T06:22:45Z</time>
      </trkpt>
      <trkpt lat="42.887658" lon="-7.947684">
        <ele>456.208</ele>
        <time>2021-07-13T06:22:52Z</time>
      </trkpt>
      <trkpt lat="42.887758" lon="-7.947312">
        <ele>458.636</ele>
        <time>2021-07-13T06:23:02Z</time>
      </trkpt>
      <trkpt lat="42.887885" lon="-7.946879">
        <ele>462.558</ele>
        <time>2021-07-13T06:23:15Z</time>
      </trkpt>
      <trkpt lat="42.887972" lon="-7.946567">
        <ele>464.495</ele>
        <time>2021-07-13T06:23:25Z</time>
      </trkpt>
      <trkpt lat="42.888054" lon="-7.946285">
        <ele>465.495</ele>
        <time>2021-07-13T06:23:34Z</time>
      </trkpt>
      <trkpt lat="42.888170" lon="-7.945888">
        <ele>466.839</ele>
        <time>2021-07-13T06:23:47Z</time>
      </trkpt>
      <trkpt lat="42.888275" lon="-7.945558">
        <ele>469.217</ele>
        <time>2021-07-13T06:23:58Z</time>
      </trkpt>
      <trkpt lat="42.888337" lon="-7.945331">
        <ele>469.734</ele>
        <time>2021-07-13T06:24:06Z</time>
      </trkpt>
      <trkpt lat="42.888423" lon="-7.945056">
        <ele>470.752</ele>
        <time>2021-07-13T06:24:15Z</time>
      </trkpt>
      <trkpt lat="42.888498" lon="-7.944815">
        <ele>471.624</ele>
        <time>2021-07-13T06:24:23Z</time>
      </trkpt>
      <trkpt lat="42.888600" lon="-7.944496">
        <ele>470.704</ele>
        <time>2021-07-13T06:24:33Z</time>
      </trkpt>
      <trkpt lat="42.888691" lon="-7.944200">
        <ele>471.614</ele>
        <time>2021-07-13T06:24:42Z</time>
      </trkpt>
      <trkpt lat="42.888822" lon="-7.943912">
        <ele>471.108</ele>
        <time>2021-07-13T06:24:51Z</time>
      </trkpt>
      <trkpt lat="42.888989" lon="-7.943554">
        <ele>471.669</ele>
        <time>2021-07-13T06:25:01Z</time>
      </trkpt>
      <trkpt lat="42.889182" lon="-7.943145">
        <ele>471.671</ele>
        <time>2021-07-13T06:25:12Z</time>
      </trkpt>
      <trkpt lat="42.889396" lon="-7.942711">
        <ele>472.178</ele>
        <time>2021-07-13T06:25:24Z</time>
      </trkpt>
      <trkpt lat="42.889584" lon="-7.942308">
        <ele>472.628</ele>
        <time>2021-07-13T06:25:35Z</time>
      </trkpt>
      <trkpt lat="42.889728" lon="-7.942003">
        <ele>473.532</ele>
        <time>2021-07-13T06:25:44Z</time>
      </trkpt>
      <trkpt lat="42.889882" lon="-7.941668">
        <ele>474.510</ele>
        <time>2021-07-13T06:25:54Z</time>
      </trkpt>
      <trkpt lat="42.890081" lon="-7.941239">
        <ele>475.047</ele>
        <time>2021-07-13T06:26:06Z</time>
      </trkpt>
      <trkpt lat="42.890214" lon="-7.940918">
        <ele>475.985</ele>
        <time>2021-07-13T06:26:15Z</time>
      </trkpt>
      <trkpt lat="42.890345" lon="-7.940458">
        <ele>477.991</ele>
        <time>2021-07-13T06:26:28Z</time>
      </trkpt>
      <trkpt lat="42.890403" lon="-7.940075">
        <ele>479.881</ele>
        <time>2021-07-13T06:26:39Z</time>
      </trkpt>
      <trkpt lat="42.890429" lon="-7.939699">
        <ele>480.819</ele>
        <time>2021-07-13T06:26:50Z</time>
      </trkpt>
      <trkpt lat="42.890425" lon="-7.939304">
        <ele>482.708</ele>
        <time>2021-07-13T06:27:02Z</time>
      </trkpt>
      <trkpt lat="42.890406" lon="-7.939158">
        <ele>483.296</ele>
        <time>2021-07-13T06:27:08Z</time>
      </trkpt>
      <trkpt lat="42.890373" lon="-7.938867">
        <ele>484.628</ele>
        <time>2021-07-13T06:27:18Z</time>
      </trkpt>
      <trkpt lat="42.890329" lon="-7.938599">
        <ele>484.695</ele>
        <time>2021-07-13T06:27:27Z</time>
      </trkpt>
      <trkpt lat="42.890267" lon="-7.938286">
        <ele>485.155</ele>
        <time>2021-07-13T06:27:38Z</time>
      </trkpt>
      <trkpt lat="42.890205" lon="-7.937963">
        <ele>487.559</ele>
        <time>2021-07-13T06:27:50Z</time>
      </trkpt>
      <trkpt lat="42.890137" lon="-7.937647">
        <ele>488.067</ele>
        <time>2021-07-13T06:28:01Z</time>
      </trkpt>
      <trkpt lat="42.890082" lon="-7.937329">
        <ele>489.484</ele>
        <time>2021-07-13T06:28:12Z</time>
      </trkpt>
      <trkpt lat="42.890032" lon="-7.937105">
        <ele>490.472</ele>
        <time>2021-07-13T06:28:20Z</time>
      </trkpt>
      <trkpt lat="42.889969" lon="-7.936784">
        <ele>491.859</ele>
        <time>2021-07-13T06:28:31Z</time>
      </trkpt>
      <trkpt lat="42.889922" lon="-7.936509">
        <ele>492.303</ele>
        <time>2021-07-13T06:28:41Z</time>
      </trkpt>
      <trkpt lat="42.889885" lon="-7.936267">
        <ele>493.223</ele>
        <time>2021-07-13T06:28:50Z</time>
      </trkpt>
      <trkpt lat="42.889875" lon="-7.936200">
        <ele>493.708</ele>
        <time>2021-07-13T06:28:55Z</time>
      </trkpt>
      <trkpt lat="42.889850" lon="-7.936174">
        <ele>493.792</ele>
        <time>2021-07-13T06:29:08Z</time>
      </trkpt>
      <trkpt lat="42.889850" lon="-7.936176">
        <ele>493.734</ele>
        <time>2021-07-13T06:29:27Z</time>
      </trkpt>
      <trkpt lat="42.889839" lon="-7.936036">
        <ele>493.271</ele>
        <time>2021-07-13T06:29:34Z</time>
      </trkpt>
      <trkpt lat="42.889821" lon="-7.935797">
        <ele>494.221</ele>
        <time>2021-07-13T06:29:43Z</time>
      </trkpt>
      <trkpt lat="42.889806" lon="-7.935558">
        <ele>494.795</ele>
        <time>2021-07-13T06:29:50Z</time>
      </trkpt>
      <trkpt lat="42.889786" lon="-7.935178">
        <ele>496.653</ele>
        <time>2021-07-13T06:30:00Z</time>
      </trkpt>
      <trkpt lat="42.889772" lon="-7.934794">
        <ele>497.610</ele>
        <time>2021-07-13T06:30:10Z</time>
      </trkpt>
      <trkpt lat="42.889766" lon="-7.934463">
        <ele>498.198</ele>
        <time>2021-07-13T06:30:19Z</time>
      </trkpt>
      <trkpt lat="42.889755" lon="-7.934100">
        <ele>499.012</ele>
        <time>2021-07-13T06:30:29Z</time>
      </trkpt>
      <trkpt lat="42.889744" lon="-7.933701">
        <ele>500.532</ele>
        <time>2021-07-13T06:30:39Z</time>
      </trkpt>
      <trkpt lat="42.889761" lon="-7.933224">
        <ele>501.905</ele>
        <time>2021-07-13T06:30:51Z</time>
      </trkpt>
      <trkpt lat="42.889809" lon="-7.932843">
        <ele>500.908</ele>
        <time>2021-07-13T06:31:01Z</time>
      </trkpt>
      <trkpt lat="42.889880" lon="-7.932381">
        <ele>500.568</ele>
        <time>2021-07-13T06:31:11Z</time>
      </trkpt>
      <trkpt lat="42.889971" lon="-7.931809">
        <ele>499.050</ele>
        <time>2021-07-13T06:31:21Z</time>
      </trkpt>
      <trkpt lat="42.890077" lon="-7.931184">
        <ele>497.687</ele>
        <time>2021-07-13T06:31:11Z</time>
      </trkpt>
      <trkpt lat="42.890186" lon="-7.930538">
        <ele>495.717</ele>
        <time>2021-07-13T06:31:19Z</time>
      </trkpt>
      <trkpt lat="42.890320" lon="-7.929715">
        <ele>493.741</ele>
        <time>2021-07-13T06:31:28Z</time>
      </trkpt>
      <trkpt lat="42.890456" lon="-7.928839">
        <ele>489.959</ele>
        <time>2021-07-13T06:31:37Z</time>
      </trkpt>
      <trkpt lat="42.890480" lon="-7.928631">
        <ele>488.956</ele>
        <time>2021-07-13T06:31:39Z</time>
      </trkpt>
      <trkpt lat="42.890459" lon="-7.927935">
        <ele>485.644</ele>
        <time>2021-07-13T06:31:45Z</time>
      </trkpt>
      <trkpt lat="42.890323" lon="-7.927326">
        <ele>483.646</ele>
        <time>2021-07-13T06:31:50Z</time>
      </trkpt>
      <trkpt lat="42.889964" lon="-7.926512">
        <ele>480.888</ele>
        <time>2021-07-13T06:31:57Z</time>
      </trkpt>
      <trkpt lat="42.889600" lon="-7.925699">
        <ele>477.416</ele>
        <time>2021-07-13T06:32:04Z</time>
      </trkpt>
      <trkpt lat="42.889380" lon="-7.925032">
        <ele>474.508</ele>
        <time>2021-07-13T06:32:10Z</time>
      </trkpt>
      <trkpt lat="42.889100" lon="-7.924178">
        <ele>471.671</ele>
        <time>2021-07-13T06:32:17Z</time>
      </trkpt>
      <trkpt lat="42.888707" lon="-7.923365">
        <ele>468.753</ele>
        <time>2021-07-13T06:32:24Z</time>
      </trkpt>
      <trkpt lat="42.888092" lon="-7.922118">
        <ele>463.490</ele>
        <time>2021-07-13T06:32:35Z</time>
      </trkpt>
      <trkpt lat="42.887587" lon="-7.921046">
        <ele>457.730</ele>
        <time>2021-07-13T06:32:45Z</time>
      </trkpt>
      <trkpt lat="42.887093" lon="-7.920004">
        <ele>451.994</ele>
        <time>2021-07-13T06:32:55Z</time>
      </trkpt>
      <trkpt lat="42.886703" lon="-7.919193">
        <ele>449.062</ele>
        <time>2021-07-13T06:33:04Z</time>
      </trkpt>
      <trkpt lat="42.886445" lon="-7.918493">
        <ele>445.749</ele>
        <time>2021-07-13T06:33:12Z</time>
      </trkpt>
      <trkpt lat="42.886302" lon="-7.917754">
        <ele>442.817</ele>
        <time>2021-07-13T06:33:19Z</time>
      </trkpt>
      <trkpt lat="42.886135" lon="-7.916688">
        <ele>438.087</ele>
        <time>2021-07-13T06:33:28Z</time>
      </trkpt>
      <trkpt lat="42.885964" lon="-7.915444">
        <ele>433.642</ele>
        <time>2021-07-13T06:33:38Z</time>
      </trkpt>
      <trkpt lat="42.885966" lon="-7.914658">
        <ele>431.226</ele>
        <time>2021-07-13T06:33:44Z</time>
      </trkpt>
      <trkpt lat="42.886122" lon="-7.913822">
        <ele>428.808</ele>
        <time>2021-07-13T06:33:51Z</time>
      </trkpt>
      <trkpt lat="42.886278" lon="-7.913175">
        <ele>428.465</ele>
        <time>2021-07-13T06:33:58Z</time>
      </trkpt>
      <trkpt lat="42.886337" lon="-7.912735">
        <ele>429.857</ele>
        <time>2021-07-13T06:34:04Z</time>
      </trkpt>
      <trkpt lat="42.886344" lon="-7.912440">
        <ele>430.334</ele>
        <time>2021-07-13T06:34:10Z</time>
      </trkpt>
      <trkpt lat="42.886318" lon="-7.912020">
        <ele>430.884</ele>
        <time>2021-07-13T06:34:20Z</time>
      </trkpt>
      <trkpt lat="42.886260" lon="-7.911627">
        <ele>431.758</ele>
        <time>2021-07-13T06:34:30Z</time>
      </trkpt>
      <trkpt lat="42.886171" lon="-7.911291">
        <ele>433.626</ele>
        <time>2021-07-13T06:34:40Z</time>
      </trkpt>
      <trkpt lat="42.886114" lon="-7.911108">
        <ele>436.143</ele>
        <time>2021-07-13T06:34:47Z</time>
      </trkpt>
      <trkpt lat="42.886027" lon="-7.910864">
        <ele>438.091</ele>
        <time>2021-07-13T06:34:56Z</time>
      </trkpt>
      <trkpt lat="42.885913" lon="-7.910571">
        <ele>440.439</ele>
        <time>2021-07-13T06:35:07Z</time>
      </trkpt>
      <trkpt lat="42.885804" lon="-7.910354">
        <ele>442.801</ele>
        <time>2021-07-13T06:35:16Z</time>
      </trkpt>
      <trkpt lat="42.885686" lon="-7.910090">
        <ele>445.221</ele>
        <time>2021-07-13T06:35:27Z</time>
      </trkpt>
      <trkpt lat="42.885595" lon="-7.909874">
        <ele>447.608</ele>
        <time>2021-07-13T06:35:36Z</time>
      </trkpt>
      <trkpt lat="42.885503" lon="-7.909658">
        <ele>449.070</ele>
        <time>2021-07-13T06:35:45Z</time>
      </trkpt>
      <trkpt lat="42.885426" lon="-7.909500">
        <ele>450.552</ele>
        <time>2021-07-13T06:35:52Z</time>
      </trkpt>
      <trkpt lat="42.885335" lon="-7.909308">
        <ele>451.929</ele>
        <time>2021-07-13T06:36:00Z</time>
      </trkpt>
      <trkpt lat="42.885232" lon="-7.909128">
        <ele>453.479</ele>
        <time>2021-07-13T06:36:09Z</time>
      </trkpt>
      <trkpt lat="42.885152" lon="-7.908992">
        <ele>454.353</ele>
        <time>2021-07-13T06:36:16Z</time>
      </trkpt>
      <trkpt lat="42.885019" lon="-7.908840">
        <ele>455.841</ele>
        <time>2021-07-13T06:36:24Z</time>
      </trkpt>
      <trkpt lat="42.884809" lon="-7.908692">
        <ele>457.298</ele>
        <time>2021-07-13T06:36:35Z</time>
      </trkpt>
      <trkpt lat="42.884603" lon="-7.908597">
        <ele>457.716</ele>
        <time>2021-07-13T06:36:46Z</time>
      </trkpt>
      <trkpt lat="42.884419" lon="-7.908518">
        <ele>455.887</ele>
        <time>2021-07-13T06:36:56Z</time>
      </trkpt>
      <trkpt lat="42.884231" lon="-7.908457">
        <ele>455.842</ele>
        <time>2021-07-13T06:37:05Z</time>
      </trkpt>
      <trkpt lat="42.884016" lon="-7.908382">
        <ele>456.226</ele>
        <time>2021-07-13T06:37:16Z</time>
      </trkpt>
      <trkpt lat="42.883856" lon="-7.908328">
        <ele>457.208</ele>
        <time>2021-07-13T06:37:24Z</time>
      </trkpt>
      <trkpt lat="42.883657" lon="-7.908232">
        <ele>459.675</ele>
        <time>2021-07-13T06:37:34Z</time>
      </trkpt>
      <trkpt lat="42.883488" lon="-7.908081">
        <ele>460.657</ele>
        <time>2021-07-13T06:37:44Z</time>
      </trkpt>
      <trkpt lat="42.883330" lon="-7.907906">
        <ele>461.554</ele>
        <time>2021-07-13T06:37:53Z</time>
      </trkpt>
      <trkpt lat="42.883146" lon="-7.907725">
        <ele>461.524</ele>
        <time>2021-07-13T06:38:04Z</time>
      </trkpt>
      <trkpt lat="42.883015" lon="-7.907643">
        <ele>463.958</ele>
        <time>2021-07-13T06:38:11Z</time>
      </trkpt>
      <trkpt lat="42.882808" lon="-7.907549">
        <ele>466.386</ele>
        <time>2021-07-13T06:38:22Z</time>
      </trkpt>
      <trkpt lat="42.882633" lon="-7.907476">
        <ele>467.863</ele>
        <time>2021-07-13T06:38:31Z</time>
      </trkpt>
      <trkpt lat="42.882432" lon="-7.907376">
        <ele>469.271</ele>
        <time>2021-07-13T06:38:42Z</time>
      </trkpt>
      <trkpt lat="42.882226" lon="-7.907244">
        <ele>470.719</ele>
        <time>2021-07-13T06:38:53Z</time>
      </trkpt>
      <trkpt lat="42.882001" lon="-7.907035">
        <ele>471.109</ele>
        <time>2021-07-13T06:39:05Z</time>
      </trkpt>
      <trkpt lat="42.881833" lon="-7.906811">
        <ele>469.719</ele>
        <time>2021-07-13T06:39:16Z</time>
      </trkpt>
      <trkpt lat="42.881701" lon="-7.906641">
        <ele>469.208</ele>
        <time>2021-07-13T06:39:25Z</time>
      </trkpt>
      <trkpt lat="42.881538" lon="-7.906424">
        <ele>469.258</ele>
        <time>2021-07-13T06:39:36Z</time>
      </trkpt>
      <trkpt lat="42.881362" lon="-7.906204">
        <ele>470.290</ele>
        <time>2021-07-13T06:39:47Z</time>
      </trkpt>
      <trkpt lat="42.881191" lon="-7.905981">
        <ele>472.137</ele>
        <time>2021-07-13T06:39:58Z</time>
      </trkpt>
      <trkpt lat="42.880995" lon="-7.905730">
        <ele>473.197</ele>
        <time>2021-07-13T06:40:11Z</time>
      </trkpt>
      <trkpt lat="42.880860" lon="-7.905559">
        <ele>474.061</ele>
        <time>2021-07-13T06:40:20Z</time>
      </trkpt>
      <trkpt lat="42.880695" lon="-7.905342">
        <ele>475.079</ele>
        <time>2021-07-13T06:40:31Z</time>
      </trkpt>
      <trkpt lat="42.880557" lon="-7.905177">
        <ele>476.446</ele>
        <time>2021-07-13T06:40:40Z</time>
      </trkpt>
      <trkpt lat="42.880424" lon="-7.905005">
        <ele>478.364</ele>
        <time>2021-07-13T06:40:49Z</time>
      </trkpt>
      <trkpt lat="42.880286" lon="-7.904831">
        <ele>480.391</ele>
        <time>2021-07-13T06:40:58Z</time>
      </trkpt>
      <trkpt lat="42.880090" lon="-7.904576">
        <ele>482.281</ele>
        <time>2021-07-13T06:41:11Z</time>
      </trkpt>
      <trkpt lat="42.879920" lon="-7.904355">
        <ele>482.719</ele>
        <time>2021-07-13T06:41:22Z</time>
      </trkpt>
      <trkpt lat="42.879780" lon="-7.904175">
        <ele>483.208</ele>
        <time>2021-07-13T06:41:31Z</time>
      </trkpt>
      <trkpt lat="42.879626" lon="-7.903972">
        <ele>483.296</ele>
        <time>2021-07-13T06:41:41Z</time>
      </trkpt>
      <trkpt lat="42.879490" lon="-7.903780">
        <ele>484.148</ele>
        <time>2021-07-13T06:41:50Z</time>
      </trkpt>
      <trkpt lat="42.879363" lon="-7.903621">
        <ele>483.635</ele>
        <time>2021-07-13T06:41:58Z</time>
      </trkpt>
      <trkpt lat="42.879213" lon="-7.903428">
        <ele>485.115</ele>
        <time>2021-07-13T06:42:07Z</time>
      </trkpt>
      <trkpt lat="42.879027" lon="-7.903198">
        <ele>488.079</ele>
        <time>2021-07-13T06:42:18Z</time>
      </trkpt>
      <trkpt lat="42.878875" lon="-7.903006">
        <ele>489.957</ele>
        <time>2021-07-13T06:42:27Z</time>
      </trkpt>
      <trkpt lat="42.878733" lon="-7.902826">
        <ele>490.874</ele>
        <time>2021-07-13T06:42:35Z</time>
      </trkpt>
      <trkpt lat="42.878506" lon="-7.902480">
        <ele>491.832</ele>
        <time>2021-07-13T06:42:47Z</time>
      </trkpt>
      <trkpt lat="42.878372" lon="-7.902198">
        <ele>492.852</ele>
        <time>2021-07-13T06:42:55Z</time>
      </trkpt>
      <trkpt lat="42.878243" lon="-7.901827">
        <ele>494.253</ele>
        <time>2021-07-13T06:43:05Z</time>
      </trkpt>
      <trkpt lat="42.878134" lon="-7.901443">
        <ele>493.208</ele>
        <time>2021-07-13T06:43:15Z</time>
      </trkpt>
      <trkpt lat="42.878021" lon="-7.900943">
        <ele>493.208</ele>
        <time>2021-07-13T06:43:28Z</time>
      </trkpt>
      <trkpt lat="42.877932" lon="-7.900668">
        <ele>493.262</ele>
        <time>2021-07-13T06:43:36Z</time>
      </trkpt>
      <trkpt lat="42.877792" lon="-7.900382">
        <ele>495.224</ele>
        <time>2021-07-13T06:43:47Z</time>
      </trkpt>
      <trkpt lat="42.877648" lon="-7.900180">
        <ele>497.641</ele>
        <time>2021-07-13T06:43:57Z</time>
      </trkpt>
      <trkpt lat="42.877497" lon="-7.899993">
        <ele>498.141</ele>
        <time>2021-07-13T06:44:07Z</time>
      </trkpt>
      <trkpt lat="42.877291" lon="-7.899826">
        <ele>498.525</ele>
        <time>2021-07-13T06:44:19Z</time>
      </trkpt>
      <trkpt lat="42.877112" lon="-7.899714">
        <ele>499.583</ele>
        <time>2021-07-13T06:44:29Z</time>
      </trkpt>
      <trkpt lat="42.876960" lon="-7.899626">
        <ele>500.010</ele>
        <time>2021-07-13T06:44:38Z</time>
      </trkpt>
      <trkpt lat="42.876748" lon="-7.899478">
        <ele>500.548</ele>
        <time>2021-07-13T06:44:50Z</time>
      </trkpt>
      <trkpt lat="42.876619" lon="-7.899365">
        <ele>500.585</ele>
        <time>2021-07-13T06:44:58Z</time>
      </trkpt>
      <trkpt lat="42.876481" lon="-7.899234">
        <ele>501.989</ele>
        <time>2021-07-13T06:45:07Z</time>
      </trkpt>
      <trkpt lat="42.876358" lon="-7.899116">
        <ele>503.817</ele>
        <time>2021-07-13T06:45:15Z</time>
      </trkpt>
      <trkpt lat="42.876206" lon="-7.898929">
        <ele>505.708</ele>
        <time>2021-07-13T06:45:26Z</time>
      </trkpt>
      <trkpt lat="42.876111" lon="-7.898772">
        <ele>507.765</ele>
        <time>2021-07-13T06:45:34Z</time>
      </trkpt>
      <trkpt lat="42.876016" lon="-7.898600">
        <ele>509.177</ele>
        <time>2021-07-13T06:45:42Z</time>
      </trkpt>
      <trkpt lat="42.875906" lon="-7.898348">
        <ele>510.164</ele>
        <time>2021-07-13T06:45:52Z</time>
      </trkpt>
      <trkpt lat="42.875755" lon="-7.898142">
        <ele>512.584</ele>
        <time>2021-07-13T06:46:02Z</time>
      </trkpt>
      <trkpt lat="42.875601" lon="-7.898013">
        <ele>513.028</ele>
        <time>2021-07-13T06:46:10Z</time>
      </trkpt>
      <trkpt lat="42.875550" lon="-7.897843">
        <ele>512.036</ele>
        <time>2021-07-13T06:46:16Z</time>
      </trkpt>
      <trkpt lat="42.875597" lon="-7.897609">
        <ele>511.523</ele>
        <time>2021-07-13T06:46:23Z</time>
      </trkpt>
      <trkpt lat="42.875667" lon="-7.897317">
        <ele>511.051</ele>
        <time>2021-07-13T06:46:31Z</time>
      </trkpt>
      <trkpt lat="42.875601" lon="-7.897023">
        <ele>510.141</ele>
        <time>2021-07-13T06:46:39Z</time>
      </trkpt>
      <trkpt lat="42.875441" lon="-7.896679">
        <ele>508.681</ele>
        <time>2021-07-13T06:46:49Z</time>
      </trkpt>
      <trkpt lat="42.875326" lon="-7.896442">
        <ele>509.609</ele>
        <time>2021-07-13T06:46:57Z</time>
      </trkpt>
      <trkpt lat="42.875186" lon="-7.896198">
        <ele>511.508</ele>
        <time>2021-07-13T06:47:05Z</time>
      </trkpt>
      <trkpt lat="42.874992" lon="-7.895878">
        <ele>510.151</ele>
        <time>2021-07-13T06:47:16Z</time>
      </trkpt>
      <trkpt lat="42.874833" lon="-7.895837">
        <ele>511.523</ele>
        <time>2021-07-13T06:47:23Z</time>
      </trkpt>
      <trkpt lat="42.874647" lon="-7.895785">
        <ele>513.410</ele>
        <time>2021-07-13T06:47:31Z</time>
      </trkpt>
      <trkpt lat="42.874515" lon="-7.895577">
        <ele>513.090</ele>
        <time>2021-07-13T06:47:38Z</time>
      </trkpt>
      <trkpt lat="42.874436" lon="-7.895289">
        <ele>513.974</ele>
        <time>2021-07-13T06:47:46Z</time>
      </trkpt>
      <trkpt lat="42.874238" lon="-7.895085">
        <ele>513.972</ele>
        <time>2021-07-13T06:47:54Z</time>
      </trkpt>
      <trkpt lat="42.874096" lon="-7.894970">
        <ele>515.829</ele>
        <time>2021-07-13T06:48:03Z</time>
      </trkpt>
      <trkpt lat="42.874109" lon="-7.894974">
        <ele>516.327</ele>
        <time>2021-07-13T06:48:09Z</time>
      </trkpt>
      <trkpt lat="42.874117" lon="-7.894985">
        <ele>515.882</ele>
        <time>2021-07-13T06:48:31Z</time>
      </trkpt>
      <trkpt lat="42.874124" lon="-7.894972">
        <ele>515.443</ele>
        <time>2021-07-13T06:48:56Z</time>
      </trkpt>
      <trkpt lat="42.874122" lon="-7.894958">
        <ele>515.417</ele>
        <time>2021-07-13T06:49:21Z</time>
      </trkpt>
      <trkpt lat="42.874121" lon="-7.894957">
        <ele>514.908</ele>
        <time>2021-07-13T06:49:36Z</time>
      </trkpt>
      <trkpt lat="42.874131" lon="-7.894952">
        <ele>515.485</ele>
        <time>2021-07-13T06:49:53Z</time>
      </trkpt>
      <trkpt lat="42.874119" lon="-7.894961">
        <ele>516.867</ele>
        <time>2021-07-13T06:50:10Z</time>
      </trkpt>
      <trkpt lat="42.874122" lon="-7.894965">
        <ele>516.854</ele>
        <time>2021-07-13T06:50:26Z</time>
      </trkpt>
      <trkpt lat="42.874116" lon="-7.894962">
        <ele>516.864</ele>
        <time>2021-07-13T06:50:45Z</time>
      </trkpt>
      <trkpt lat="42.874130" lon="-7.894955">
        <ele>518.268</ele>
        <time>2021-07-13T06:51:02Z</time>
      </trkpt>
      <trkpt lat="42.874121" lon="-7.894954">
        <ele>517.826</ele>
        <time>2021-07-13T06:51:20Z</time>
      </trkpt>
      <trkpt lat="42.874113" lon="-7.894970">
        <ele>517.313</ele>
        <time>2021-07-13T06:51:36Z</time>
      </trkpt>
      <trkpt lat="42.874104" lon="-7.894961">
        <ele>517.341</ele>
        <time>2021-07-13T06:51:41Z</time>
      </trkpt>
      <trkpt lat="42.874096" lon="-7.894961">
        <ele>518.251</ele>
        <time>2021-07-13T06:51:45Z</time>
      </trkpt>
      <trkpt lat="42.874088" lon="-7.894949">
        <ele>518.201</ele>
        <time>2021-07-13T06:51:46Z</time>
      </trkpt>
      <trkpt lat="42.873972" lon="-7.894825">
        <ele>519.211</ele>
        <time>2021-07-13T06:51:53Z</time>
      </trkpt>
      <trkpt lat="42.873781" lon="-7.894583">
        <ele>520.608</ele>
        <time>2021-07-13T06:52:04Z</time>
      </trkpt>
      <trkpt lat="42.873651" lon="-7.894417">
        <ele>520.252</ele>
        <time>2021-07-13T06:52:12Z</time>
      </trkpt>
      <trkpt lat="42.873537" lon="-7.894275">
        <ele>519.744</ele>
        <time>2021-07-13T06:52:20Z</time>
      </trkpt>
      <trkpt lat="42.873466" lon="-7.894177">
        <ele>520.651</ele>
        <time>2021-07-13T06:52:28Z</time>
      </trkpt>
      <trkpt lat="42.873365" lon="-7.894018">
        <ele>520.641</ele>
        <time>2021-07-13T06:52:37Z</time>
      </trkpt>
      <trkpt lat="42.873264" lon="-7.893862">
        <ele>520.665</ele>
        <time>2021-07-13T06:52:46Z</time>
      </trkpt>
      <trkpt lat="42.873144" lon="-7.893682">
        <ele>521.673</ele>
        <time>2021-07-13T06:52:56Z</time>
      </trkpt>
      <trkpt lat="42.873059" lon="-7.893532">
        <ele>522.150</ele>
        <time>2021-07-13T06:53:04Z</time>
      </trkpt>
      <trkpt lat="42.872969" lon="-7.893382">
        <ele>523.068</ele>
        <time>2021-07-13T06:53:14Z</time>
      </trkpt>
      <trkpt lat="42.872847" lon="-7.893179">
        <ele>524.568</ele>
        <time>2021-07-13T06:53:26Z</time>
      </trkpt>
      <trkpt lat="42.872724" lon="-7.893000">
        <ele>525.042</ele>
        <time>2021-07-13T06:53:36Z</time>
      </trkpt>
      <trkpt lat="42.872566" lon="-7.892811">
        <ele>525.926</ele>
        <time>2021-07-13T06:53:47Z</time>
      </trkpt>
      <trkpt lat="42.872391" lon="-7.892645">
        <ele>526.408</ele>
        <time>2021-07-13T06:53:58Z</time>
      </trkpt>
      <trkpt lat="42.872250" lon="-7.892540">
        <ele>527.493</ele>
        <time>2021-07-13T06:54:07Z</time>
      </trkpt>
      <trkpt lat="42.872098" lon="-7.892429">
        <ele>528.835</ele>
        <time>2021-07-13T06:54:16Z</time>
      </trkpt>
      <trkpt lat="42.871931" lon="-7.892341">
        <ele>529.392</ele>
        <time>2021-07-13T06:54:25Z</time>
      </trkpt>
      <trkpt lat="42.871728" lon="-7.892247">
        <ele>528.392</ele>
        <time>2021-07-13T06:54:35Z</time>
      </trkpt>
      <trkpt lat="42.871534" lon="-7.892171">
        <ele>529.376</ele>
        <time>2021-07-13T06:54:45Z</time>
      </trkpt>
      <trkpt lat="42.871357" lon="-7.892099">
        <ele>530.354</ele>
        <time>2021-07-13T06:54:54Z</time>
      </trkpt>
      <trkpt lat="42.871052" lon="-7.891971">
        <ele>534.691</ele>
        <time>2021-07-13T06:55:08Z</time>
      </trkpt>
      <trkpt lat="42.870876" lon="-7.891853">
        <ele>535.549</ele>
        <time>2021-07-13T06:55:17Z</time>
      </trkpt>
      <trkpt lat="42.870735" lon="-7.891703">
        <ele>537.093</ele>
        <time>2021-07-13T06:55:25Z</time>
      </trkpt>
      <trkpt lat="42.870602" lon="-7.891534">
        <ele>539.465</ele>
        <time>2021-07-13T06:55:33Z</time>
      </trkpt>
      <trkpt lat="42.870433" lon="-7.891236">
        <ele>540.821</ele>
        <time>2021-07-13T06:55:44Z</time>
      </trkpt>
      <trkpt lat="42.870335" lon="-7.890964">
        <ele>540.408</ele>
        <time>2021-07-13T06:55:53Z</time>
      </trkpt>
      <trkpt lat="42.870260" lon="-7.890644">
        <ele>540.476</ele>
        <time>2021-07-13T06:56:02Z</time>
      </trkpt>
      <trkpt lat="42.870246" lon="-7.890412">
        <ele>541.828</ele>
        <time>2021-07-13T06:56:08Z</time>
      </trkpt>
      <trkpt lat="42.870247" lon="-7.890053">
        <ele>547.145</ele>
        <time>2021-07-13T06:56:17Z</time>
      </trkpt>
      <trkpt lat="42.870230" lon="-7.889648">
        <ele>546.655</ele>
        <time>2021-07-13T06:56:26Z</time>
      </trkpt>
      <trkpt lat="42.870222" lon="-7.889225">
        <ele>544.739</ele>
        <time>2021-07-13T06:56:36Z</time>
      </trkpt>
      <trkpt lat="42.870227" lon="-7.888785">
        <ele>543.767</ele>
        <time>2021-07-13T06:56:46Z</time>
      </trkpt>
      <trkpt lat="42.870239" lon="-7.888322">
        <ele>541.394</ele>
        <time>2021-07-13T06:56:53Z</time>
      </trkpt>
      <trkpt lat="42.870277" lon="-7.887626">
        <ele>538.482</ele>
        <time>2021-07-13T06:57:01Z</time>
      </trkpt>
      <trkpt lat="42.870323" lon="-7.886992">
        <ele>536.597</ele>
        <time>2021-07-13T06:57:08Z</time>
      </trkpt>
      <trkpt lat="42.870393" lon="-7.885998">
        <ele>533.123</ele>
        <time>2021-07-13T06:57:17Z</time>
      </trkpt>
      <trkpt lat="42.870494" lon="-7.885124">
        <ele>530.725</ele>
        <time>2021-07-13T06:57:25Z</time>
      </trkpt>
      <trkpt lat="42.870697" lon="-7.884455">
        <ele>527.908</ele>
        <time>2021-07-13T06:57:32Z</time>
      </trkpt>
      <trkpt lat="42.871015" lon="-7.883889">
        <ele>524.596</ele>
        <time>2021-07-13T06:57:38Z</time>
      </trkpt>
      <trkpt lat="42.871502" lon="-7.883178">
        <ele>520.298</ele>
        <time>2021-07-13T06:57:46Z</time>
      </trkpt>
      <trkpt lat="42.872183" lon="-7.882111">
        <ele>515.485</ele>
        <time>2021-07-13T06:57:56Z</time>
      </trkpt>
      <trkpt lat="42.872346" lon="-7.881724">
        <ele>515.415</ele>
        <time>2021-07-13T06:58:00Z</time>
      </trkpt>
      <trkpt lat="42.872452" lon="-7.881281">
        <ele>516.839</ele>
        <time>2021-07-13T06:58:06Z</time>
      </trkpt>
      <trkpt lat="42.872489" lon="-7.880990">
        <ele>517.317</ele>
        <time>2021-07-13T06:58:12Z</time>
      </trkpt>
      <trkpt lat="42.872515" lon="-7.880756">
        <ele>517.854</ele>
        <time>2021-07-13T06:58:20Z</time>
      </trkpt>
      <trkpt lat="42.872537" lon="-7.880462">
        <ele>519.732</ele>
        <time>2021-07-13T06:58:29Z</time>
      </trkpt>
      <trkpt lat="42.872568" lon="-7.880033">
        <ele>520.697</ele>
        <time>2021-07-13T06:58:42Z</time>
      </trkpt>
      <trkpt lat="42.872604" lon="-7.879642">
        <ele>523.523</ele>
        <time>2021-07-13T06:58:54Z</time>
      </trkpt>
      <trkpt lat="42.872649" lon="-7.879292">
        <ele>525.925</ele>
        <time>2021-07-13T06:59:05Z</time>
      </trkpt>
      <trkpt lat="42.872693" lon="-7.878962">
        <ele>528.808</ele>
        <time>2021-07-13T06:59:16Z</time>
      </trkpt>
      <trkpt lat="42.872746" lon="-7.878695">
        <ele>529.356</ele>
        <time>2021-07-13T06:59:25Z</time>
      </trkpt>
      <trkpt lat="42.872776" lon="-7.878409">
        <ele>529.848</ele>
        <time>2021-07-13T06:59:34Z</time>
      </trkpt>
      <trkpt lat="42.872850" lon="-7.878029">
        <ele>530.715</ele>
        <time>2021-07-13T06:59:47Z</time>
      </trkpt>
      <trkpt lat="42.872916" lon="-7.877708">
        <ele>530.325</ele>
        <time>2021-07-13T06:59:57Z</time>
      </trkpt>
      <trkpt lat="42.872969" lon="-7.877423">
        <ele>530.749</ele>
        <time>2021-07-13T07:00:06Z</time>
      </trkpt>
      <trkpt lat="42.873021" lon="-7.877159">
        <ele>531.727</ele>
        <time>2021-07-13T07:00:14Z</time>
      </trkpt>
      <trkpt lat="42.873090" lon="-7.876840">
        <ele>533.174</ele>
        <time>2021-07-13T07:00:23Z</time>
      </trkpt>
      <trkpt lat="42.873175" lon="-7.876469">
        <ele>535.582</ele>
        <time>2021-07-13T07:00:34Z</time>
      </trkpt>
      <trkpt lat="42.873257" lon="-7.876069">
        <ele>536.077</ele>
        <time>2021-07-13T07:00:46Z</time>
      </trkpt>
      <trkpt lat="42.873307" lon="-7.875803">
        <ele>535.161</ele>
        <time>2021-07-13T07:00:55Z</time>
      </trkpt>
      <trkpt lat="42.873365" lon="-7.875507">
        <ele>536.027</ele>
        <time>2021-07-13T07:01:05Z</time>
      </trkpt>
      <trkpt lat="42.873422" lon="-7.875236">
        <ele>537.908</ele>
        <time>2021-07-13T07:01:14Z</time>
      </trkpt>
      <trkpt lat="42.873477" lon="-7.874968">
        <ele>538.984</ele>
        <time>2021-07-13T07:01:23Z</time>
      </trkpt>
      <trkpt lat="42.873533" lon="-7.874645">
        <ele>539.966</ele>
        <time>2021-07-13T07:01:33Z</time>
      </trkpt>
      <trkpt lat="42.873594" lon="-7.874292">
        <ele>541.833</ele>
        <time>2021-07-13T07:01:44Z</time>
      </trkpt>
      <trkpt lat="42.873655" lon="-7.874003">
        <ele>546.143</ele>
        <time>2021-07-13T07:01:54Z</time>
      </trkpt>
      <trkpt lat="42.873719" lon="-7.873691">
        <ele>546.197</ele>
        <time>2021-07-13T07:02:04Z</time>
      </trkpt>
      <trkpt lat="42.873777" lon="-7.873351">
        <ele>546.615</ele>
        <time>2021-07-13T07:02:15Z</time>
      </trkpt>
      <trkpt lat="42.873851" lon="-7.872983">
        <ele>546.132</ele>
        <time>2021-07-13T07:02:28Z</time>
      </trkpt>
      <trkpt lat="42.873915" lon="-7.872639">
        <ele>546.130</ele>
        <time>2021-07-13T07:02:40Z</time>
      </trkpt>
      <trkpt lat="42.873958" lon="-7.872336">
        <ele>546.171</ele>
        <time>2021-07-13T07:02:50Z</time>
      </trkpt>
      <trkpt lat="42.873982" lon="-7.872023">
        <ele>546.641</ele>
        <time>2021-07-13T07:03:00Z</time>
      </trkpt>
      <trkpt lat="42.873979" lon="-7.871712">
        <ele>547.115</ele>
        <time>2021-07-13T07:03:10Z</time>
      </trkpt>
      <trkpt lat="42.873924" lon="-7.871345">
        <ele>546.608</ele>
        <time>2021-07-13T07:03:23Z</time>
      </trkpt>
      <trkpt lat="42.873802" lon="-7.871016">
        <ele>547.124</ele>
        <time>2021-07-13T07:03:35Z</time>
      </trkpt>
      <trkpt lat="42.873682" lon="-7.870794">
        <ele>546.686</ele>
        <time>2021-07-13T07:03:44Z</time>
      </trkpt>
      <trkpt lat="42.873549" lon="-7.870599">
        <ele>549.063</ele>
        <time>2021-07-13T07:03:53Z</time>
      </trkpt>
      <trkpt lat="42.873326" lon="-7.870372">
        <ele>550.973</ele>
        <time>2021-07-13T07:04:06Z</time>
      </trkpt>
      <trkpt lat="42.873236" lon="-7.870258">
        <ele>551.997</ele>
        <time>2021-07-13T07:04:14Z</time>
      </trkpt>
      <trkpt lat="42.873154" lon="-7.870207">
        <ele>552.475</ele>
        <time>2021-07-13T07:04:21Z</time>
      </trkpt>
      <trkpt lat="42.873149" lon="-7.870208">
        <ele>555.362</ele>
        <time>2021-07-13T07:04:36Z</time>
      </trkpt>
      <trkpt lat="42.873144" lon="-7.870196">
        <ele>555.390</ele>
        <time>2021-07-13T07:04:37Z</time>
      </trkpt>
      <trkpt lat="42.873139" lon="-7.870176">
        <ele>555.324</ele>
        <time>2021-07-13T07:04:38Z</time>
      </trkpt>
      <trkpt lat="42.873138" lon="-7.870151">
        <ele>555.704</ele>
        <time>2021-07-13T07:04:39Z</time>
      </trkpt>
      <trkpt lat="42.873198" lon="-7.870044">
        <ele>554.814</ele>
        <time>2021-07-13T07:04:44Z</time>
      </trkpt>
      <trkpt lat="42.873224" lon="-7.869910">
        <ele>554.308</ele>
        <time>2021-07-13T07:04:49Z</time>
      </trkpt>
      <trkpt lat="42.873261" lon="-7.869896">
        <ele>555.729</ele>
        <time>2021-07-13T07:04:54Z</time>
      </trkpt>
      <trkpt lat="42.873282" lon="-7.869902">
        <ele>557.211</ele>
        <time>2021-07-13T07:05:03Z</time>
      </trkpt>
      <trkpt lat="42.873288" lon="-7.869901">
        <ele>557.778</ele>
        <time>2021-07-13T07:05:10Z</time>
      </trkpt>
      <trkpt lat="42.873270" lon="-7.870036">
        <ele>559.128</ele>
        <time>2021-07-13T07:05:18Z</time>
      </trkpt>
      <trkpt lat="42.873268" lon="-7.870049">
        <ele>559.622</ele>
        <time>2021-07-13T07:05:25Z</time>
      </trkpt>
      <trkpt lat="42.873262" lon="-7.870039">
        <ele>559.650</ele>
        <time>2021-07-13T07:05:35Z</time>
      </trkpt>
      <trkpt lat="42.873264" lon="-7.870040">
        <ele>561.097</ele>
        <time>2021-07-13T07:05:50Z</time>
      </trkpt>
      <trkpt lat="42.873260" lon="-7.870002">
        <ele>562.575</ele>
        <time>2021-07-13T07:06:09Z</time>
      </trkpt>
      <trkpt lat="42.873240" lon="-7.869998">
        <ele>560.545</ele>
        <time>2021-07-13T07:06:30Z</time>
      </trkpt>
      <trkpt lat="42.873221" lon="-7.870007">
        <ele>562.547</ele>
        <time>2021-07-13T07:06:47Z</time>
      </trkpt>
      <trkpt lat="42.873247" lon="-7.870011">
        <ele>564.411</ele>
        <time>2021-07-13T07:07:03Z</time>
      </trkpt>
      <trkpt lat="42.873267" lon="-7.870013">
        <ele>566.308</ele>
        <time>2021-07-13T07:07:19Z</time>
      </trkpt>
      <trkpt lat="42.873221" lon="-7.870021">
        <ele>564.491</ele>
        <time>2021-07-13T07:07:26Z</time>
      </trkpt>
      <trkpt lat="42.873225" lon="-7.870035">
        <ele>561.573</ele>
        <time>2021-07-13T07:07:34Z</time>
      </trkpt>
      <trkpt lat="42.873225" lon="-7.870081">
        <ele>558.120</ele>
        <time>2021-07-13T07:07:53Z</time>
      </trkpt>
      <trkpt lat="42.873221" lon="-7.870081">
        <ele>558.630</ele>
        <time>2021-07-13T07:08:00Z</time>
      </trkpt>
      <trkpt lat="42.873205" lon="-7.870105">
        <ele>557.714</ele>
        <time>2021-07-13T07:08:10Z</time>
      </trkpt>
      <trkpt lat="42.873112" lon="-7.870138">
        <ele>558.152</ele>
        <time>2021-07-13T07:08:17Z</time>
      </trkpt>
      <trkpt lat="42.873070" lon="-7.870092">
        <ele>557.749</ele>
        <time>2021-07-13T07:08:20Z</time>
      </trkpt>
      <trkpt lat="42.872906" lon="-7.869940">
        <ele>557.287</ele>
        <time>2021-07-13T07:08:31Z</time>
      </trkpt>
      <trkpt lat="42.872755" lon="-7.869718">
        <ele>558.152</ele>
        <time>2021-07-13T07:08:43Z</time>
      </trkpt>
      <trkpt lat="42.872721" lon="-7.869524">
        <ele>557.753</ele>
        <time>2021-07-13T07:08:53Z</time>
      </trkpt>
      <trkpt lat="42.872720" lon="-7.869500">
        <ele>557.708</ele>
        <time>2021-07-13T07:08:54Z</time>
      </trkpt>
      <trkpt lat="42.872766" lon="-7.869309">
        <ele>558.608</ele>
        <time>2021-07-13T07:09:04Z</time>
      </trkpt>
      <trkpt lat="42.872873" lon="-7.869140">
        <ele>560.162</ele>
        <time>2021-07-13T07:09:12Z</time>
      </trkpt>
      <trkpt lat="42.873041" lon="-7.869092">
        <ele>561.054</ele>
        <time>2021-07-13T07:09:20Z</time>
      </trkpt>
      <trkpt lat="42.873208" lon="-7.869107">
        <ele>563.471</ele>
        <time>2021-07-13T07:09:28Z</time>
      </trkpt>
      <trkpt lat="42.873454" lon="-7.869159">
        <ele>565.881</ele>
        <time>2021-07-13T07:09:39Z</time>
      </trkpt>
      <trkpt lat="42.873587" lon="-7.869204">
        <ele>567.835</ele>
        <time>2021-07-13T07:09:45Z</time>
      </trkpt>
      <trkpt lat="42.873809" lon="-7.869203">
        <ele>571.653</ele>
        <time>2021-07-13T07:09:54Z</time>
      </trkpt>
      <trkpt lat="42.873954" lon="-7.869120">
        <ele>575.490</ele>
        <time>2021-07-13T07:10:01Z</time>
      </trkpt>
      <trkpt lat="42.874118" lon="-7.868913">
        <ele>580.758</ele>
        <time>2021-07-13T07:10:11Z</time>
      </trkpt>
      <trkpt lat="42.874236" lon="-7.868660">
        <ele>585.587</ele>
        <time>2021-07-13T07:10:20Z</time>
      </trkpt>
      <trkpt lat="42.874391" lon="-7.868364">
        <ele>583.642</ele>
        <time>2021-07-13T07:10:32Z</time>
      </trkpt>
      <trkpt lat="42.874502" lon="-7.868117">
        <ele>577.826</ele>
        <time>2021-07-13T07:10:42Z</time>
      </trkpt>
      <trkpt lat="42.874633" lon="-7.867870">
        <ele>578.808</ele>
        <time>2021-07-13T07:10:52Z</time>
      </trkpt>
      <trkpt lat="42.874759" lon="-7.867579">
        <ele>580.725</ele>
        <time>2021-07-13T07:11:03Z</time>
      </trkpt>
      <trkpt lat="42.874925" lon="-7.867316">
        <ele>580.217</ele>
        <time>2021-07-13T07:11:14Z</time>
      </trkpt>
      <trkpt lat="42.875075" lon="-7.867106">
        <ele>581.224</ele>
        <time>2021-07-13T07:11:24Z</time>
      </trkpt>
      <trkpt lat="42.875241" lon="-7.866872">
        <ele>583.674</ele>
        <time>2021-07-13T07:11:35Z</time>
      </trkpt>
      <trkpt lat="42.875390" lon="-7.866642">
        <ele>584.658</ele>
        <time>2021-07-13T07:11:46Z</time>
      </trkpt>
      <trkpt lat="42.875495" lon="-7.866387">
        <ele>585.196</ele>
        <time>2021-07-13T07:11:56Z</time>
      </trkpt>
      <trkpt lat="42.875548" lon="-7.866164">
        <ele>585.513</ele>
        <time>2021-07-13T07:12:04Z</time>
      </trkpt>
      <trkpt lat="42.875590" lon="-7.865881">
        <ele>586.531</ele>
        <time>2021-07-13T07:12:14Z</time>
      </trkpt>
      <trkpt lat="42.875626" lon="-7.865632">
        <ele>587.544</ele>
        <time>2021-07-13T07:12:23Z</time>
      </trkpt>
      <trkpt lat="42.875657" lon="-7.865375">
        <ele>587.005</ele>
        <time>2021-07-13T07:12:32Z</time>
      </trkpt>
      <trkpt lat="42.875687" lon="-7.865131">
        <ele>588.415</ele>
        <time>2021-07-13T07:12:40Z</time>
      </trkpt>
      <trkpt lat="42.875714" lon="-7.864912">
        <ele>587.508</ele>
        <time>2021-07-13T07:12:48Z</time>
      </trkpt>
      <trkpt lat="42.875767" lon="-7.864583">
        <ele>588.441</ele>
        <time>2021-07-13T07:13:00Z</time>
      </trkpt>
      <trkpt lat="42.875788" lon="-7.864322">
        <ele>588.483</ele>
        <time>2021-07-13T07:13:09Z</time>
      </trkpt>
      <trkpt lat="42.875823" lon="-7.864039">
        <ele>590.840</ele>
        <time>2021-07-13T07:13:19Z</time>
      </trkpt>
      <trkpt lat="42.875854" lon="-7.863742">
        <ele>591.830</ele>
        <time>2021-07-13T07:13:30Z</time>
      </trkpt>
      <trkpt lat="42.875874" lon="-7.863556">
        <ele>591.884</ele>
        <time>2021-07-13T07:13:37Z</time>
      </trkpt>
      <trkpt lat="42.875903" lon="-7.863301">
        <ele>592.782</ele>
        <time>2021-07-13T07:13:46Z</time>
      </trkpt>
      <trkpt lat="42.875943" lon="-7.862937">
        <ele>593.729</ele>
        <time>2021-07-13T07:13:59Z</time>
      </trkpt>
      <trkpt lat="42.875961" lon="-7.862640">
        <ele>593.797</ele>
        <time>2021-07-13T07:14:09Z</time>
      </trkpt>
      <trkpt lat="42.875968" lon="-7.862355">
        <ele>595.691</ele>
        <time>2021-07-13T07:14:18Z</time>
      </trkpt>
      <trkpt lat="42.875959" lon="-7.862069">
        <ele>596.681</ele>
        <time>2021-07-13T07:14:27Z</time>
      </trkpt>
      <trkpt lat="42.875926" lon="-7.861753">
        <ele>597.119</ele>
        <time>2021-07-13T07:14:37Z</time>
      </trkpt>
      <trkpt lat="42.875876" lon="-7.861387">
        <ele>597.608</ele>
        <time>2021-07-13T07:14:49Z</time>
      </trkpt>
      <trkpt lat="42.875815" lon="-7.860980">
        <ele>598.086</ele>
        <time>2021-07-13T07:15:02Z</time>
      </trkpt>
      <trkpt lat="42.875779" lon="-7.860763">
        <ele>598.578</ele>
        <time>2021-07-13T07:15:09Z</time>
      </trkpt>
      <trkpt lat="42.875729" lon="-7.860442">
        <ele>599.595</ele>
        <time>2021-07-13T07:15:20Z</time>
      </trkpt>
      <trkpt lat="42.875677" lon="-7.860074">
        <ele>600.415</ele>
        <time>2021-07-13T07:15:33Z</time>
      </trkpt>
      <trkpt lat="42.875657" lon="-7.859800">
        <ele>601.959</ele>
        <time>2021-07-13T07:15:42Z</time>
      </trkpt>
      <trkpt lat="42.875620" lon="-7.859540">
        <ele>601.987</ele>
        <time>2021-07-13T07:15:51Z</time>
      </trkpt>
      <trkpt lat="42.875558" lon="-7.859189">
        <ele>602.464</ele>
        <time>2021-07-13T07:16:02Z</time>
      </trkpt>
      <trkpt lat="42.875499" lon="-7.858863">
        <ele>602.842</ele>
        <time>2021-07-13T07:16:13Z</time>
      </trkpt>
      <trkpt lat="42.875451" lon="-7.858605">
        <ele>602.418</ele>
        <time>2021-07-13T07:16:22Z</time>
      </trkpt>
      <trkpt lat="42.875413" lon="-7.858312">
        <ele>603.398</ele>
        <time>2021-07-13T07:16:32Z</time>
      </trkpt>
      <trkpt lat="42.875367" lon="-7.858055">
        <ele>604.817</ele>
        <time>2021-07-13T07:16:41Z</time>
      </trkpt>
      <trkpt lat="42.875325" lon="-7.857741">
        <ele>607.208</ele>
        <time>2021-07-13T07:16:51Z</time>
      </trkpt>
      <trkpt lat="42.875288" lon="-7.857474">
        <ele>609.198</ele>
        <time>2021-07-13T07:17:00Z</time>
      </trkpt>
      <trkpt lat="42.875246" lon="-7.857169">
        <ele>610.570</ele>
        <time>2021-07-13T07:17:11Z</time>
      </trkpt>
      <trkpt lat="42.875209" lon="-7.856948">
        <ele>612.047</ele>
        <time>2021-07-13T07:17:19Z</time>
      </trkpt>
      <trkpt lat="42.875168" lon="-7.856696">
        <ele>613.917</ele>
        <time>2021-07-13T07:17:28Z</time>
      </trkpt>
      <trkpt lat="42.875145" lon="-7.856474">
        <ele>614.471</ele>
        <time>2021-07-13T07:17:36Z</time>
      </trkpt>
      <trkpt lat="42.875117" lon="-7.856182">
        <ele>615.879</ele>
        <time>2021-07-13T07:17:46Z</time>
      </trkpt>
      <trkpt lat="42.875111" lon="-7.855897">
        <ele>616.866</ele>
        <time>2021-07-13T07:17:56Z</time>
      </trkpt>
      <trkpt lat="42.875107" lon="-7.855812">
        <ele>617.754</ele>
        <time>2021-07-13T07:18:02Z</time>
      </trkpt>
      <trkpt lat="42.875112" lon="-7.855794">
        <ele>618.293</ele>
        <time>2021-07-13T07:18:10Z</time>
      </trkpt>
      <trkpt lat="42.875155" lon="-7.855752">
        <ele>619.265</ele>
        <time>2021-07-13T07:18:24Z</time>
      </trkpt>
      <trkpt lat="42.875159" lon="-7.855731">
        <ele>623.521</ele>
        <time>2021-07-13T07:18:42Z</time>
      </trkpt>
      <trkpt lat="42.875132" lon="-7.855765">
        <ele>623.508</ele>
        <time>2021-07-13T07:18:58Z</time>
      </trkpt>
      <trkpt lat="42.875139" lon="-7.855778">
        <ele>622.556</ele>
        <time>2021-07-13T07:19:16Z</time>
      </trkpt>
      <trkpt lat="42.875134" lon="-7.855772">
        <ele>622.558</ele>
        <time>2021-07-13T07:19:32Z</time>
      </trkpt>
      <trkpt lat="42.875156" lon="-7.855612">
        <ele>623.585</ele>
        <time>2021-07-13T07:19:39Z</time>
      </trkpt>
      <trkpt lat="42.875191" lon="-7.855352">
        <ele>624.925</ele>
        <time>2021-07-13T07:19:47Z</time>
      </trkpt>
      <trkpt lat="42.875226" lon="-7.855090">
        <ele>625.949</ele>
        <time>2021-07-13T07:19:56Z</time>
      </trkpt>
      <trkpt lat="42.875264" lon="-7.854869">
        <ele>626.977</ele>
        <time>2021-07-13T07:20:04Z</time>
      </trkpt>
      <trkpt lat="42.875325" lon="-7.854590">
        <ele>627.834</ele>
        <time>2021-07-13T07:20:14Z</time>
      </trkpt>
      <trkpt lat="42.875359" lon="-7.854405">
        <ele>628.332</ele>
        <time>2021-07-13T07:20:21Z</time>
      </trkpt>
      <trkpt lat="42.875409" lon="-7.854164">
        <ele>628.379</ele>
        <time>2021-07-13T07:20:29Z</time>
      </trkpt>
      <trkpt lat="42.875431" lon="-7.853992">
        <ele>628.805</ele>
        <time>2021-07-13T07:20:35Z</time>
      </trkpt>
      <trkpt lat="42.875457" lon="-7.853715">
        <ele>630.225</ele>
        <time>2021-07-13T07:20:44Z</time>
      </trkpt>
      <trkpt lat="42.875473" lon="-7.853474">
        <ele>630.708</ele>
        <time>2021-07-13T07:20:52Z</time>
      </trkpt>
      <trkpt lat="42.875468" lon="-7.853197">
        <ele>631.794</ele>
        <time>2021-07-13T07:21:02Z</time>
      </trkpt>
      <trkpt lat="42.875438" lon="-7.852888">
        <ele>631.756</ele>
        <time>2021-07-13T07:21:13Z</time>
      </trkpt>
      <trkpt lat="42.875395" lon="-7.852637">
        <ele>631.743</ele>
        <time>2021-07-13T07:21:22Z</time>
      </trkpt>
      <trkpt lat="42.875328" lon="-7.852335">
        <ele>631.793</ele>
        <time>2021-07-13T07:21:32Z</time>
      </trkpt>
      <trkpt lat="42.875239" lon="-7.852011">
        <ele>632.217</ele>
        <time>2021-07-13T07:21:43Z</time>
      </trkpt>
      <trkpt lat="42.875165" lon="-7.851740">
        <ele>632.635</ele>
        <time>2021-07-13T07:21:52Z</time>
      </trkpt>
      <trkpt lat="42.875080" lon="-7.851461">
        <ele>633.682</ele>
        <time>2021-07-13T07:22:01Z</time>
      </trkpt>
      <trkpt lat="42.874989" lon="-7.851160">
        <ele>634.650</ele>
        <time>2021-07-13T07:22:11Z</time>
      </trkpt>
      <trkpt lat="42.874887" lon="-7.850837">
        <ele>634.674</ele>
        <time>2021-07-13T07:22:22Z</time>
      </trkpt>
      <trkpt lat="42.874793" lon="-7.850519">
        <ele>635.056</ele>
        <time>2021-07-13T07:22:32Z</time>
      </trkpt>
      <trkpt lat="42.874709" lon="-7.850242">
        <ele>636.021</ele>
        <time>2021-07-13T07:22:41Z</time>
      </trkpt>
      <trkpt lat="42.874621" lon="-7.849939">
        <ele>637.008</ele>
        <time>2021-07-13T07:22:51Z</time>
      </trkpt>
      <trkpt lat="42.874527" lon="-7.849653">
        <ele>637.414</ele>
        <time>2021-07-13T07:23:00Z</time>
      </trkpt>
      <trkpt lat="42.874435" lon="-7.849335">
        <ele>638.496</ele>
        <time>2021-07-13T07:23:10Z</time>
      </trkpt>
      <trkpt lat="42.874350" lon="-7.848921">
        <ele>639.463</ele>
        <time>2021-07-13T07:23:22Z</time>
      </trkpt>
      <trkpt lat="42.874314" lon="-7.848563">
        <ele>640.323</ele>
        <time>2021-07-13T07:23:31Z</time>
      </trkpt>
      <trkpt lat="42.874320" lon="-7.848166">
        <ele>642.727</ele>
        <time>2021-07-13T07:23:41Z</time>
      </trkpt>
      <trkpt lat="42.874340" lon="-7.847818">
        <ele>644.255</ele>
        <time>2021-07-13T07:23:49Z</time>
      </trkpt>
      <trkpt lat="42.874350" lon="-7.847415">
        <ele>644.782</ele>
        <time>2021-07-13T07:23:58Z</time>
      </trkpt>
      <trkpt lat="42.874366" lon="-7.846888">
        <ele>643.760</ele>
        <time>2021-07-13T07:24:09Z</time>
      </trkpt>
      <trkpt lat="42.874385" lon="-7.846486">
        <ele>643.713</ele>
        <time>2021-07-13T07:24:18Z</time>
      </trkpt>
      <trkpt lat="42.874397" lon="-7.845939">
        <ele>643.743</ele>
        <time>2021-07-13T07:24:28Z</time>
      </trkpt>
      <trkpt lat="42.874421" lon="-7.845495">
        <ele>644.707</ele>
        <time>2021-07-13T07:24:36Z</time>
      </trkpt>
      <trkpt lat="42.874444" lon="-7.844930">
        <ele>644.208</ele>
        <time>2021-07-13T07:24:46Z</time>
      </trkpt>
      <trkpt lat="42.874481" lon="-7.844327">
        <ele>644.218</ele>
        <time>2021-07-13T07:24:57Z</time>
      </trkpt>
      <trkpt lat="42.874497" lon="-7.844072">
        <ele>644.780</ele>
        <time>2021-07-13T07:25:03Z</time>
      </trkpt>
      <trkpt lat="42.874493" lon="-7.844057">
        <ele>644.737</ele>
        <time>2021-07-13T07:25:04Z</time>
      </trkpt>
      <trkpt lat="42.874485" lon="-7.844047">
        <ele>644.727</ele>
        <time>2021-07-13T07:25:05Z</time>
      </trkpt>
      <trkpt lat="42.874422" lon="-7.843983">
        <ele>645.691</ele>
        <time>2021-07-13T07:25:11Z</time>
      </trkpt>
      <trkpt lat="42.874419" lon="-7.843954">
        <ele>645.629</ele>
        <time>2021-07-13T07:25:12Z</time>
      </trkpt>
      <trkpt lat="42.874419" lon="-7.843925">
        <ele>645.196</ele>
        <time>2021-07-13T07:25:13Z</time>
      </trkpt>
      <trkpt lat="42.874417" lon="-7.843901">
        <ele>645.124</ele>
        <time>2021-07-13T07:25:14Z</time>
      </trkpt>
      <trkpt lat="42.874413" lon="-7.843872">
        <ele>644.799</ele>
        <time>2021-07-13T07:25:15Z</time>
      </trkpt>
      <trkpt lat="42.874408" lon="-7.843838">
        <ele>644.707</ele>
        <time>2021-07-13T07:25:16Z</time>
      </trkpt>
      <trkpt lat="42.874404" lon="-7.843811">
        <ele>644.727</ele>
        <time>2021-07-13T07:25:17Z</time>
      </trkpt>
      <trkpt lat="42.874375" lon="-7.843614">
        <ele>645.108</ele>
        <time>2021-07-13T07:25:24Z</time>
      </trkpt>
      <trkpt lat="42.874363" lon="-7.843383">
        <ele>644.296</ele>
        <time>2021-07-13T07:25:31Z</time>
      </trkpt>
      <trkpt lat="42.874350" lon="-7.843139">
        <ele>643.238</ele>
        <time>2021-07-13T07:25:38Z</time>
      </trkpt>
      <trkpt lat="42.874344" lon="-7.843108">
        <ele>643.295</ele>
        <time>2021-07-13T07:25:39Z</time>
      </trkpt>
      <trkpt lat="42.874337" lon="-7.843077">
        <ele>643.215</ele>
        <time>2021-07-13T07:25:40Z</time>
      </trkpt>
      <trkpt lat="42.874306" lon="-7.842841">
        <ele>642.329</ele>
        <time>2021-07-13T07:25:48Z</time>
      </trkpt>
      <trkpt lat="42.874284" lon="-7.842604">
        <ele>642.797</ele>
        <time>2021-07-13T07:25:55Z</time>
      </trkpt>
      <trkpt lat="42.874272" lon="-7.842394">
        <ele>642.314</ele>
        <time>2021-07-13T07:26:01Z</time>
      </trkpt>
      <trkpt lat="42.874304" lon="-7.842030">
        <ele>641.382</ele>
        <time>2021-07-13T07:26:08Z</time>
      </trkpt>
      <trkpt lat="42.874360" lon="-7.841665">
        <ele>639.855</ele>
        <time>2021-07-13T07:26:16Z</time>
      </trkpt>
      <trkpt lat="42.874403" lon="-7.841371">
        <ele>639.807</ele>
        <time>2021-07-13T07:26:23Z</time>
      </trkpt>
      <trkpt lat="42.874416" lon="-7.841084">
        <ele>640.317</ele>
        <time>2021-07-13T07:26:30Z</time>
      </trkpt>
      <trkpt lat="42.874437" lon="-7.840757">
        <ele>640.808</ele>
        <time>2021-07-13T07:26:38Z</time>
      </trkpt>
      <trkpt lat="42.874452" lon="-7.840443">
        <ele>640.852</ele>
        <time>2021-07-13T07:26:46Z</time>
      </trkpt>
      <trkpt lat="42.874451" lon="-7.840035">
        <ele>639.854</ele>
        <time>2021-07-13T07:26:55Z</time>
      </trkpt>
      <trkpt lat="42.874465" lon="-7.839740">
        <ele>639.431</ele>
        <time>2021-07-13T07:27:03Z</time>
      </trkpt>
      <trkpt lat="42.874528" lon="-7.839529">
        <ele>639.471</ele>
        <time>2021-07-13T07:27:09Z</time>
      </trkpt>
      <trkpt lat="42.874680" lon="-7.839231">
        <ele>638.975</ele>
        <time>2021-07-13T07:27:17Z</time>
      </trkpt>
      <trkpt lat="42.874722" lon="-7.839176">
        <ele>638.473</ele>
        <time>2021-07-13T07:27:21Z</time>
      </trkpt>
      <trkpt lat="42.874801" lon="-7.838989">
        <ele>637.050</ele>
        <time>2021-07-13T07:27:28Z</time>
      </trkpt>
      <trkpt lat="42.874915" lon="-7.838730">
        <ele>636.038</ele>
        <time>2021-07-13T07:27:36Z</time>
      </trkpt>
      <trkpt lat="42.875041" lon="-7.838486">
        <ele>635.548</ele>
        <time>2021-07-13T07:27:45Z</time>
      </trkpt>
      <trkpt lat="42.875210" lon="-7.838216">
        <ele>634.161</ele>
        <time>2021-07-13T07:27:54Z</time>
      </trkpt>
      <trkpt lat="42.875248" lon="-7.838156">
        <ele>633.617</ele>
        <time>2021-07-13T07:27:59Z</time>
      </trkpt>
      <trkpt lat="42.875257" lon="-7.838155">
        <ele>632.208</ele>
        <time>2021-07-13T07:28:14Z</time>
      </trkpt>
      <trkpt lat="42.875255" lon="-7.838155">
        <ele>632.651</ele>
        <time>2021-07-13T07:28:22Z</time>
      </trkpt>
      <trkpt lat="42.875280" lon="-7.838097">
        <ele>632.643</ele>
        <time>2021-07-13T07:28:32Z</time>
      </trkpt>
      <trkpt lat="42.875364" lon="-7.837913">
        <ele>630.760</ele>
        <time>2021-07-13T07:28:37Z</time>
      </trkpt>
      <trkpt lat="42.875525" lon="-7.837604">
        <ele>630.290</ele>
        <time>2021-07-13T07:28:45Z</time>
      </trkpt>
      <trkpt lat="42.875545" lon="-7.837597">
        <ele>630.244</ele>
        <time>2021-07-13T07:28:53Z</time>
      </trkpt>
      <trkpt lat="42.875562" lon="-7.837596">
        <ele>628.812</ele>
        <time>2021-07-13T07:29:11Z</time>
      </trkpt>
      <trkpt lat="42.875581" lon="-7.837597">
        <ele>627.879</ele>
        <time>2021-07-13T07:29:31Z</time>
      </trkpt>
      <trkpt lat="42.875573" lon="-7.837594">
        <ele>629.857</ele>
        <time>2021-07-13T07:29:52Z</time>
      </trkpt>
      <trkpt lat="42.875566" lon="-7.837574">
        <ele>629.817</ele>
        <time>2021-07-13T07:30:10Z</time>
      </trkpt>
      <trkpt lat="42.875617" lon="-7.837457">
        <ele>629.887</ele>
        <time>2021-07-13T07:30:16Z</time>
      </trkpt>
      <trkpt lat="42.875645" lon="-7.837352">
        <ele>629.815</ele>
        <time>2021-07-13T07:30:23Z</time>
      </trkpt>
      <trkpt lat="42.875690" lon="-7.837193">
        <ele>629.308</ele>
        <time>2021-07-13T07:30:31Z</time>
      </trkpt>
      <trkpt lat="42.875733" lon="-7.836951">
        <ele>628.828</ele>
        <time>2021-07-13T07:30:40Z</time>
      </trkpt>
      <trkpt lat="42.875776" lon="-7.836770">
        <ele>628.850</ele>
        <time>2021-07-13T07:30:46Z</time>
      </trkpt>
      <trkpt lat="42.875803" lon="-7.836508">
        <ele>628.347</ele>
        <time>2021-07-13T07:30:52Z</time>
      </trkpt>
      <trkpt lat="42.875800" lon="-7.836215">
        <ele>628.357</ele>
        <time>2021-07-13T07:31:01Z</time>
      </trkpt>
      <trkpt lat="42.875858" lon="-7.835992">
        <ele>627.871</ele>
        <time>2021-07-13T07:31:09Z</time>
      </trkpt>
      <trkpt lat="42.875931" lon="-7.835682">
        <ele>626.989</ele>
        <time>2021-07-13T07:31:16Z</time>
      </trkpt>
      <trkpt lat="42.875967" lon="-7.835335">
        <ele>625.456</ele>
        <time>2021-07-13T07:31:24Z</time>
      </trkpt>
      <trkpt lat="42.875995" lon="-7.834994">
        <ele>625.414</ele>
        <time>2021-07-13T07:31:33Z</time>
      </trkpt>
      <trkpt lat="42.876001" lon="-7.834556">
        <ele>625.454</ele>
        <time>2021-07-13T07:31:44Z</time>
      </trkpt>
      <trkpt lat="42.875979" lon="-7.834205">
        <ele>625.456</ele>
        <time>2021-07-13T07:31:52Z</time>
      </trkpt>
      <trkpt lat="42.875944" lon="-7.833759">
        <ele>625.411</ele>
        <time>2021-07-13T07:32:02Z</time>
      </trkpt>
      <trkpt lat="42.875916" lon="-7.833320">
        <ele>624.908</ele>
        <time>2021-07-13T07:32:11Z</time>
      </trkpt>
      <trkpt lat="42.875900" lon="-7.833105">
        <ele>624.582</ele>
        <time>2021-07-13T07:32:14Z</time>
      </trkpt>
      <trkpt lat="42.875881" lon="-7.832931">
        <ele>624.034</ele>
        <time>2021-07-13T07:32:17Z</time>
      </trkpt>
      <trkpt lat="42.875769" lon="-7.832267">
        <ele>622.181</ele>
        <time>2021-07-13T07:32:26Z</time>
      </trkpt>
      <trkpt lat="42.875691" lon="-7.831732">
        <ele>621.141</ele>
        <time>2021-07-13T07:32:34Z</time>
      </trkpt>
      <trkpt lat="42.875600" lon="-7.831193">
        <ele>621.135</ele>
        <time>2021-07-13T07:32:42Z</time>
      </trkpt>
      <trkpt lat="42.875507" lon="-7.830679">
        <ele>620.643</ele>
        <time>2021-07-13T07:32:51Z</time>
      </trkpt>
      <trkpt lat="42.875352" lon="-7.830124">
        <ele>620.140</ele>
        <time>2021-07-13T07:33:00Z</time>
      </trkpt>
      <trkpt lat="42.875323" lon="-7.830009">
        <ele>620.168</ele>
        <time>2021-07-13T07:33:02Z</time>
      </trkpt>
      <trkpt lat="42.875127" lon="-7.829448">
        <ele>621.143</ele>
        <time>2021-07-13T07:33:12Z</time>
      </trkpt>
      <trkpt lat="42.874952" lon="-7.829266">
        <ele>623.064</ele>
        <time>2021-07-13T07:33:18Z</time>
      </trkpt>
      <trkpt lat="42.874701" lon="-7.828943">
        <ele>624.510</ele>
        <time>2021-07-13T07:33:28Z</time>
      </trkpt>
      <trkpt lat="42.874510" lon="-7.828497">
        <ele>625.408</ele>
        <time>2021-07-13T07:33:39Z</time>
      </trkpt>
      <trkpt lat="42.874355" lon="-7.828143">
        <ele>626.491</ele>
        <time>2021-07-13T07:33:48Z</time>
      </trkpt>
      <trkpt lat="42.874243" lon="-7.827901">
        <ele>626.973</ele>
        <time>2021-07-13T07:33:55Z</time>
      </trkpt>
      <trkpt lat="42.874139" lon="-7.827678">
        <ele>627.420</ele>
        <time>2021-07-13T07:34:01Z</time>
      </trkpt>
      <trkpt lat="42.873996" lon="-7.827386">
        <ele>628.810</ele>
        <time>2021-07-13T07:34:10Z</time>
      </trkpt>
      <trkpt lat="42.873851" lon="-7.827136">
        <ele>631.294</ele>
        <time>2021-07-13T07:34:19Z</time>
      </trkpt>
      <trkpt lat="42.873737" lon="-7.826979">
        <ele>633.172</ele>
        <time>2021-07-13T07:34:27Z</time>
      </trkpt>
      <trkpt lat="42.873652" lon="-7.826864">
        <ele>635.519</ele>
        <time>2021-07-13T07:34:34Z</time>
      </trkpt>
      <trkpt lat="42.873644" lon="-7.826848">
        <ele>635.577</ele>
        <time>2021-07-13T07:34:35Z</time>
      </trkpt>
      <trkpt lat="42.873634" lon="-7.826836">
        <ele>636.011</ele>
        <time>2021-07-13T07:34:36Z</time>
      </trkpt>
      <trkpt lat="42.873548" lon="-7.826718">
        <ele>637.421</ele>
        <time>2021-07-13T07:34:44Z</time>
      </trkpt>
      <trkpt lat="42.873487" lon="-7.826605">
        <ele>637.903</ele>
        <time>2021-07-13T07:34:50Z</time>
      </trkpt>
      <trkpt lat="42.873396" lon="-7.826424">
        <ele>638.908</ele>
        <time>2021-07-13T07:34:57Z</time>
      </trkpt>
      <trkpt lat="42.873284" lon="-7.826174">
        <ele>638.948</ele>
        <time>2021-07-13T07:35:05Z</time>
      </trkpt>
      <trkpt lat="42.873181" lon="-7.825914">
        <ele>637.910</ele>
        <time>2021-07-13T07:35:14Z</time>
      </trkpt>
      <trkpt lat="42.873131" lon="-7.825764">
        <ele>637.457</ele>
        <time>2021-07-13T07:35:20Z</time>
      </trkpt>
      <trkpt lat="42.873042" lon="-7.825463">
        <ele>637.037</ele>
        <time>2021-07-13T07:35:30Z</time>
      </trkpt>
      <trkpt lat="42.872985" lon="-7.825157">
        <ele>637.031</ele>
        <time>2021-07-13T07:35:39Z</time>
      </trkpt>
      <trkpt lat="42.872962" lon="-7.824961">
        <ele>637.469</ele>
        <time>2021-07-13T07:35:45Z</time>
      </trkpt>
      <trkpt lat="42.872932" lon="-7.824632">
        <ele>639.426</ele>
        <time>2021-07-13T07:35:56Z</time>
      </trkpt>
      <trkpt lat="42.872946" lon="-7.824366">
        <ele>640.824</ele>
        <time>2021-07-13T07:36:05Z</time>
      </trkpt>
      <trkpt lat="42.872989" lon="-7.824035">
        <ele>641.326</ele>
        <time>2021-07-13T07:36:16Z</time>
      </trkpt>
      <trkpt lat="42.873004" lon="-7.823793">
        <ele>641.347</ele>
        <time>2021-07-13T07:36:25Z</time>
      </trkpt>
      <trkpt lat="42.873004" lon="-7.823524">
        <ele>641.311</ele>
        <time>2021-07-13T07:36:34Z</time>
      </trkpt>
      <trkpt lat="42.872977" lon="-7.823319">
        <ele>641.308</ele>
        <time>2021-07-13T07:36:40Z</time>
      </trkpt>
      <trkpt lat="42.872953" lon="-7.823007">
        <ele>640.339</ele>
        <time>2021-07-13T07:36:49Z</time>
      </trkpt>
      <trkpt lat="42.872967" lon="-7.822641">
        <ele>639.871</ele>
        <time>2021-07-13T07:36:57Z</time>
      </trkpt>
      <trkpt lat="42.872982" lon="-7.822593">
        <ele>639.878</ele>
        <time>2021-07-13T07:36:58Z</time>
      </trkpt>
      <trkpt lat="42.873003" lon="-7.822542">
        <ele>639.838</ele>
        <time>2021-07-13T07:36:59Z</time>
      </trkpt>
      <trkpt lat="42.873045" lon="-7.822438">
        <ele>639.462</ele>
        <time>2021-07-13T07:37:01Z</time>
      </trkpt>
      <trkpt lat="42.873119" lon="-7.822100">
        <ele>637.070</ele>
        <time>2021-07-13T07:37:06Z</time>
      </trkpt>
      <trkpt lat="42.873127" lon="-7.821910">
        <ele>636.597</ele>
        <time>2021-07-13T07:37:08Z</time>
      </trkpt>
      <trkpt lat="42.873124" lon="-7.821832">
        <ele>636.095</ele>
        <time>2021-07-13T07:37:09Z</time>
      </trkpt>
      <trkpt lat="42.873119" lon="-7.821679">
        <ele>635.547</ele>
        <time>2021-07-13T07:37:11Z</time>
      </trkpt>
      <trkpt lat="42.873133" lon="-7.821518">
        <ele>634.629</ele>
        <time>2021-07-13T07:37:13Z</time>
      </trkpt>
      <trkpt lat="42.873151" lon="-7.821439">
        <ele>634.621</ele>
        <time>2021-07-13T07:37:14Z</time>
      </trkpt>
      <trkpt lat="42.873171" lon="-7.821371">
        <ele>634.108</ele>
        <time>2021-07-13T07:37:15Z</time>
      </trkpt>
      <trkpt lat="42.873225" lon="-7.821227">
        <ele>633.651</ele>
        <time>2021-07-13T07:37:17Z</time>
      </trkpt>
      <trkpt lat="42.873494" lon="-7.820665">
        <ele>632.263</ele>
        <time>2021-07-13T07:37:25Z</time>
      </trkpt>
      <trkpt lat="42.873729" lon="-7.819889">
        <ele>630.210</ele>
        <time>2021-07-13T07:37:33Z</time>
      </trkpt>
      <trkpt lat="42.873853" lon="-7.819314">
        <ele>630.770</ele>
        <time>2021-07-13T07:37:40Z</time>
      </trkpt>
      <trkpt lat="42.873958" lon="-7.818834">
        <ele>631.294</ele>
        <time>2021-07-13T07:37:47Z</time>
      </trkpt>
      <trkpt lat="42.873976" lon="-7.818768">
        <ele>631.262</ele>
        <time>2021-07-13T07:37:48Z</time>
      </trkpt>
      <trkpt lat="42.873995" lon="-7.818694">
        <ele>631.279</ele>
        <time>2021-07-13T07:37:49Z</time>
      </trkpt>
      <trkpt lat="42.874161" lon="-7.818160">
        <ele>627.837</ele>
        <time>2021-07-13T07:37:55Z</time>
      </trkpt>
      <trkpt lat="42.874178" lon="-7.818018">
        <ele>626.499</ele>
        <time>2021-07-13T07:37:56Z</time>
      </trkpt>
      <trkpt lat="42.874165" lon="-7.817951">
        <ele>625.907</ele>
        <time>2021-07-13T07:37:57Z</time>
      </trkpt>
      <trkpt lat="42.874112" lon="-7.817835">
        <ele>624.927</ele>
        <time>2021-07-13T07:37:58Z</time>
      </trkpt>
      <trkpt lat="42.874069" lon="-7.817775">
        <ele>624.508</ele>
        <time>2021-07-13T07:37:59Z</time>
      </trkpt>
      <trkpt lat="42.873998" lon="-7.817709">
        <ele>623.576</ele>
        <time>2021-07-13T07:38:00Z</time>
      </trkpt>
      <trkpt lat="42.873902" lon="-7.817650">
        <ele>622.588</ele>
        <time>2021-07-13T07:38:01Z</time>
      </trkpt>
      <trkpt lat="42.873821" lon="-7.817603">
        <ele>622.155</ele>
        <time>2021-07-13T07:38:02Z</time>
      </trkpt>
      <trkpt lat="42.873479" lon="-7.817363">
        <ele>620.175</ele>
        <time>2021-07-13T07:38:06Z</time>
      </trkpt>
      <trkpt lat="42.873414" lon="-7.817274">
        <ele>619.249</ele>
        <time>2021-07-13T07:38:07Z</time>
      </trkpt>
      <trkpt lat="42.873382" lon="-7.817204">
        <ele>619.257</ele>
        <time>2021-07-13T07:38:08Z</time>
      </trkpt>
      <trkpt lat="42.873350" lon="-7.817110">
        <ele>618.714</ele>
        <time>2021-07-13T07:38:09Z</time>
      </trkpt>
      <trkpt lat="42.873333" lon="-7.817001">
        <ele>618.262</ele>
        <time>2021-07-13T07:38:10Z</time>
      </trkpt>
      <trkpt lat="42.873329" lon="-7.816890">
        <ele>618.266</ele>
        <time>2021-07-13T07:38:11Z</time>
      </trkpt>
      <trkpt lat="42.873330" lon="-7.816782">
        <ele>617.729</ele>
        <time>2021-07-13T07:38:12Z</time>
      </trkpt>
      <trkpt lat="42.873315" lon="-7.816433">
        <ele>617.321</ele>
        <time>2021-07-13T07:38:16Z</time>
      </trkpt>
      <trkpt lat="42.873290" lon="-7.816312">
        <ele>616.808</ele>
        <time>2021-07-13T07:38:17Z</time>
      </trkpt>
      <trkpt lat="42.873175" lon="-7.815799">
        <ele>614.423</ele>
        <time>2021-07-13T07:38:23Z</time>
      </trkpt>
      <trkpt lat="42.872698" lon="-7.815209">
        <ele>609.615</ele>
        <time>2021-07-13T07:38:33Z</time>
      </trkpt>
      <trkpt lat="42.872607" lon="-7.814667">
        <ele>606.232</ele>
        <time>2021-07-13T07:38:40Z</time>
      </trkpt>
      <trkpt lat="42.872547" lon="-7.814575">
        <ele>604.892</ele>
        <time>2021-07-13T07:38:41Z</time>
      </trkpt>
      <trkpt lat="42.872483" lon="-7.814520">
        <ele>603.886</ele>
        <time>2021-07-13T07:38:42Z</time>
      </trkpt>
      <trkpt lat="42.872442" lon="-7.814477">
        <ele>603.334</ele>
        <time>2021-07-13T07:38:43Z</time>
      </trkpt>
      <trkpt lat="42.872394" lon="-7.814432">
        <ele>602.891</ele>
        <time>2021-07-13T07:38:44Z</time>
      </trkpt>
      <trkpt lat="42.872227" lon="-7.814277">
        <ele>600.429</ele>
        <time>2021-07-13T07:38:48Z</time>
      </trkpt>
      <trkpt lat="42.872223" lon="-7.814277">
        <ele>600.953</ele>
        <time>2021-07-13T07:38:52Z</time>
      </trkpt>
      <trkpt lat="42.872222" lon="-7.814250">
        <ele>600.404</ele>
        <time>2021-07-13T07:39:11Z</time>
      </trkpt>
      <trkpt lat="42.872216" lon="-7.814250">
        <ele>601.914</ele>
        <time>2021-07-13T07:39:30Z</time>
      </trkpt>
      <trkpt lat="42.872198" lon="-7.814199">
        <ele>601.908</ele>
        <time>2021-07-13T07:39:38Z</time>
      </trkpt>
      <trkpt lat="42.872160" lon="-7.814089">
        <ele>601.912</ele>
        <time>2021-07-13T07:39:45Z</time>
      </trkpt>
      <trkpt lat="42.872161" lon="-7.813899">
        <ele>600.914</ele>
        <time>2021-07-13T07:39:53Z</time>
      </trkpt>
      <trkpt lat="42.872198" lon="-7.813499">
        <ele>599.031</ele>
        <time>2021-07-13T07:39:59Z</time>
      </trkpt>
      <trkpt lat="42.872247" lon="-7.812942">
        <ele>597.191</ele>
        <time>2021-07-13T07:40:06Z</time>
      </trkpt>
      <trkpt lat="42.872322" lon="-7.812170">
        <ele>596.175</ele>
        <time>2021-07-13T07:40:16Z</time>
      </trkpt>
      <trkpt lat="42.872364" lon="-7.811847">
        <ele>595.623</ele>
        <time>2021-07-13T07:40:20Z</time>
      </trkpt>
      <trkpt lat="42.872386" lon="-7.811770">
        <ele>595.150</ele>
        <time>2021-07-13T07:40:21Z</time>
      </trkpt>
      <trkpt lat="42.872412" lon="-7.811695">
        <ele>595.198</ele>
        <time>2021-07-13T07:40:22Z</time>
      </trkpt>
      <trkpt lat="42.872651" lon="-7.811225">
        <ele>594.759</ele>
        <time>2021-07-13T07:40:29Z</time>
      </trkpt>
      <trkpt lat="42.872924" lon="-7.810773">
        <ele>594.703</ele>
        <time>2021-07-13T07:40:37Z</time>
      </trkpt>
      <trkpt lat="42.873122" lon="-7.810433">
        <ele>594.223</ele>
        <time>2021-07-13T07:40:43Z</time>
      </trkpt>
      <trkpt lat="42.873375" lon="-7.809815">
        <ele>592.308</ele>
        <time>2021-07-13T07:40:53Z</time>
      </trkpt>
      <trkpt lat="42.873446" lon="-7.809625">
        <ele>591.872</ele>
        <time>2021-07-13T07:40:56Z</time>
      </trkpt>
      <trkpt lat="42.873567" lon="-7.809301">
        <ele>589.944</ele>
        <time>2021-07-13T07:41:02Z</time>
      </trkpt>
      <trkpt lat="42.873588" lon="-7.809248">
        <ele>589.941</ele>
        <time>2021-07-13T07:41:03Z</time>
      </trkpt>
      <trkpt lat="42.873673" lon="-7.808984">
        <ele>588.921</ele>
        <time>2021-07-13T07:41:07Z</time>
      </trkpt>
      <trkpt lat="42.873707" lon="-7.808790">
        <ele>587.955</ele>
        <time>2021-07-13T07:41:10Z</time>
      </trkpt>
      <trkpt lat="42.873714" lon="-7.808693">
        <ele>587.513</ele>
        <time>2021-07-13T07:41:11Z</time>
      </trkpt>
      <trkpt lat="42.873722" lon="-7.808575">
        <ele>587.070</ele>
        <time>2021-07-13T07:41:12Z</time>
      </trkpt>
      <trkpt lat="42.873717" lon="-7.808476">
        <ele>586.518</ele>
        <time>2021-07-13T07:41:13Z</time>
      </trkpt>
      <trkpt lat="42.873702" lon="-7.808382">
        <ele>586.028</ele>
        <time>2021-07-13T07:41:14Z</time>
      </trkpt>
      <trkpt lat="42.873674" lon="-7.808275">
        <ele>585.589</ele>
        <time>2021-07-13T07:41:15Z</time>
      </trkpt>
      <trkpt lat="42.873630" lon="-7.808162">
        <ele>584.617</ele>
        <time>2021-07-13T07:41:16Z</time>
      </trkpt>
      <trkpt lat="42.873595" lon="-7.808073">
        <ele>584.608</ele>
        <time>2021-07-13T07:41:17Z</time>
      </trkpt>
      <trkpt lat="42.873526" lon="-7.807860">
        <ele>583.629</ele>
        <time>2021-07-13T07:41:20Z</time>
      </trkpt>
      <trkpt lat="42.873517" lon="-7.807151">
        <ele>585.141</ele>
        <time>2021-07-13T07:41:34Z</time>
      </trkpt>
      <trkpt lat="42.873533" lon="-7.807107">
        <ele>585.528</ele>
        <time>2021-07-13T07:41:35Z</time>
      </trkpt>
      <trkpt lat="42.873556" lon="-7.807053">
        <ele>586.048</ele>
        <time>2021-07-13T07:41:37Z</time>
      </trkpt>
      <trkpt lat="42.873675" lon="-7.806858">
        <ele>586.542</ele>
        <time>2021-07-13T07:41:43Z</time>
      </trkpt>
      <trkpt lat="42.873740" lon="-7.806512">
        <ele>587.960</ele>
        <time>2021-07-13T07:41:52Z</time>
      </trkpt>
      <trkpt lat="42.873784" lon="-7.806153">
        <ele>588.917</ele>
        <time>2021-07-13T07:42:01Z</time>
      </trkpt>
      <trkpt lat="42.873798" lon="-7.805939">
        <ele>590.355</ele>
        <time>2021-07-13T07:42:08Z</time>
      </trkpt>
      <trkpt lat="42.873747" lon="-7.805747">
        <ele>592.385</ele>
        <time>2021-07-13T07:42:16Z</time>
      </trkpt>
      <trkpt lat="42.873690" lon="-7.805654">
        <ele>592.789</ele>
        <time>2021-07-13T07:42:23Z</time>
      </trkpt>
      <trkpt lat="42.873681" lon="-7.805643">
        <ele>592.717</ele>
        <time>2021-07-13T07:42:24Z</time>
      </trkpt>
      <trkpt lat="42.873577" lon="-7.805515">
        <ele>594.208</ele>
        <time>2021-07-13T07:42:32Z</time>
      </trkpt>
      <trkpt lat="42.873444" lon="-7.805363">
        <ele>597.155</ele>
        <time>2021-07-13T07:42:43Z</time>
      </trkpt>
      <trkpt lat="42.873364" lon="-7.805257">
        <ele>599.597</ele>
        <time>2021-07-13T07:42:51Z</time>
      </trkpt>
      <trkpt lat="42.873267" lon="-7.805148">
        <ele>600.954</ele>
        <time>2021-07-13T07:43:01Z</time>
      </trkpt>
      <trkpt lat="42.873197" lon="-7.805061">
        <ele>601.914</ele>
        <time>2021-07-13T07:43:10Z</time>
      </trkpt>
      <trkpt lat="42.873087" lon="-7.804922">
        <ele>603.858</ele>
        <time>2021-07-13T07:43:20Z</time>
      </trkpt>
      <trkpt lat="42.872977" lon="-7.804803">
        <ele>605.296</ele>
        <time>2021-07-13T07:43:29Z</time>
      </trkpt>
      <trkpt lat="42.872848" lon="-7.804652">
        <ele>607.613</ele>
        <time>2021-07-13T07:43:40Z</time>
      </trkpt>
      <trkpt lat="42.872724" lon="-7.804508">
        <ele>610.031</ele>
        <time>2021-07-13T07:43:50Z</time>
      </trkpt>
      <trkpt lat="42.872648" lon="-7.804411">
        <ele>612.017</ele>
        <time>2021-07-13T07:43:58Z</time>
      </trkpt>
      <trkpt lat="42.872562" lon="-7.804316">
        <ele>612.987</ele>
        <time>2021-07-13T07:44:08Z</time>
      </trkpt>
      <trkpt lat="42.872477" lon="-7.804213">
        <ele>613.415</ele>
        <time>2021-07-13T07:44:17Z</time>
      </trkpt>
      <trkpt lat="42.872366" lon="-7.804078">
        <ele>614.908</ele>
        <time>2021-07-13T07:44:27Z</time>
      </trkpt>
      <trkpt lat="42.872261" lon="-7.803945">
        <ele>615.348</ele>
        <time>2021-07-13T07:44:36Z</time>
      </trkpt>
      <trkpt lat="42.872158" lon="-7.803798">
        <ele>615.890</ele>
        <time>2021-07-13T07:44:46Z</time>
      </trkpt>
      <trkpt lat="42.872072" lon="-7.803659">
        <ele>617.337</ele>
        <time>2021-07-13T07:44:55Z</time>
      </trkpt>
      <trkpt lat="42.871998" lon="-7.803514">
        <ele>618.737</ele>
        <time>2021-07-13T07:45:03Z</time>
      </trkpt>
      <trkpt lat="42.871938" lon="-7.803357">
        <ele>620.631</ele>
        <time>2021-07-13T07:45:11Z</time>
      </trkpt>
      <trkpt lat="42.871872" lon="-7.803214">
        <ele>622.179</ele>
        <time>2021-07-13T07:45:19Z</time>
      </trkpt>
      <trkpt lat="42.871803" lon="-7.803040">
        <ele>624.096</ele>
        <time>2021-07-13T07:45:28Z</time>
      </trkpt>
      <trkpt lat="42.871748" lon="-7.802913">
        <ele>624.514</ele>
        <time>2021-07-13T07:45:36Z</time>
      </trkpt>
      <trkpt lat="42.871689" lon="-7.802721">
        <ele>626.414</ele>
        <time>2021-07-13T07:45:46Z</time>
      </trkpt>
      <trkpt lat="42.871630" lon="-7.802567">
        <ele>627.854</ele>
        <time>2021-07-13T07:45:54Z</time>
      </trkpt>
      <trkpt lat="42.871576" lon="-7.802409">
        <ele>630.209</ele>
        <time>2021-07-13T07:46:02Z</time>
      </trkpt>
      <trkpt lat="42.871496" lon="-7.802212">
        <ele>632.608</ele>
        <time>2021-07-13T07:46:13Z</time>
      </trkpt>
      <trkpt lat="42.871492" lon="-7.802199">
        <ele>632.638</ele>
        <time>2021-07-13T07:46:14Z</time>
      </trkpt>
      <trkpt lat="42.871488" lon="-7.802182">
        <ele>633.150</ele>
        <time>2021-07-13T07:46:15Z</time>
      </trkpt>
      <trkpt lat="42.871445" lon="-7.802048">
        <ele>634.637</ele>
        <time>2021-07-13T07:46:23Z</time>
      </trkpt>
      <trkpt lat="42.871375" lon="-7.801892">
        <ele>636.597</ele>
        <time>2021-07-13T07:46:32Z</time>
      </trkpt>
      <trkpt lat="42.871319" lon="-7.801753">
        <ele>637.911</ele>
        <time>2021-07-13T07:46:40Z</time>
      </trkpt>
      <trkpt lat="42.871241" lon="-7.801574">
        <ele>640.319</ele>
        <time>2021-07-13T07:46:50Z</time>
      </trkpt>
      <trkpt lat="42.871177" lon="-7.801402">
        <ele>641.826</ele>
        <time>2021-07-13T07:46:59Z</time>
      </trkpt>
      <trkpt lat="42.871105" lon="-7.801253">
        <ele>642.734</ele>
        <time>2021-07-13T07:47:07Z</time>
      </trkpt>
      <trkpt lat="42.870959" lon="-7.801016">
        <ele>644.262</ele>
        <time>2021-07-13T07:47:19Z</time>
      </trkpt>
      <trkpt lat="42.870797" lon="-7.800799">
        <ele>645.683</ele>
        <time>2021-07-13T07:47:30Z</time>
      </trkpt>
      <trkpt lat="42.870608" lon="-7.800557">
        <ele>646.611</ele>
        <time>2021-07-13T07:47:42Z</time>
      </trkpt>
      <trkpt lat="42.870442" lon="-7.800348">
        <ele>646.608</ele>
        <time>2021-07-13T07:47:52Z</time>
      </trkpt>
      <trkpt lat="42.870334" lon="-7.800214">
        <ele>647.133</ele>
        <time>2021-07-13T07:47:59Z</time>
      </trkpt>
      <trkpt lat="42.870137" lon="-7.799966">
        <ele>648.545</ele>
        <time>2021-07-13T07:48:09Z</time>
      </trkpt>
      <trkpt lat="42.869868" lon="-7.799631">
        <ele>649.032</ele>
        <time>2021-07-13T07:48:21Z</time>
      </trkpt>
      <trkpt lat="42.869634" lon="-7.799332">
        <ele>649.912</ele>
        <time>2021-07-13T07:48:31Z</time>
      </trkpt>
      <trkpt lat="42.869323" lon="-7.798954">
        <ele>650.916</ele>
        <time>2021-07-13T07:48:44Z</time>
      </trkpt>
      <trkpt lat="42.869034" lon="-7.798593">
        <ele>651.914</ele>
        <time>2021-07-13T07:48:56Z</time>
      </trkpt>
      <trkpt lat="42.868796" lon="-7.798290">
        <ele>653.381</ele>
        <time>2021-07-13T07:49:06Z</time>
      </trkpt>
      <trkpt lat="42.868514" lon="-7.797973">
        <ele>654.369</ele>
        <time>2021-07-13T07:49:17Z</time>
      </trkpt>
      <trkpt lat="42.868389" lon="-7.797820">
        <ele>655.264</ele>
        <time>2021-07-13T07:49:24Z</time>
      </trkpt>
      <trkpt lat="42.868282" lon="-7.797628">
        <ele>655.206</ele>
        <time>2021-07-13T07:49:31Z</time>
      </trkpt>
      <trkpt lat="42.868272" lon="-7.797600">
        <ele>655.716</ele>
        <time>2021-07-13T07:49:38Z</time>
      </trkpt>
      <trkpt lat="42.868277" lon="-7.797607">
        <ele>655.208</ele>
        <time>2021-07-13T07:49:52Z</time>
      </trkpt>
      <trkpt lat="42.868273" lon="-7.797605">
        <ele>655.713</ele>
        <time>2021-07-13T07:50:05Z</time>
      </trkpt>
      <trkpt lat="42.868272" lon="-7.797609">
        <ele>655.245</ele>
        <time>2021-07-13T07:50:16Z</time>
      </trkpt>
      <trkpt lat="42.868275" lon="-7.797613">
        <ele>655.222</ele>
        <time>2021-07-13T07:50:30Z</time>
      </trkpt>
      <trkpt lat="42.868275" lon="-7.797620">
        <ele>656.242</ele>
        <time>2021-07-13T07:50:44Z</time>
      </trkpt>
      <trkpt lat="42.868269" lon="-7.797621">
        <ele>655.776</ele>
        <time>2021-07-13T07:50:58Z</time>
      </trkpt>
      <trkpt lat="42.868267" lon="-7.797601">
        <ele>656.234</ele>
        <time>2021-07-13T07:51:16Z</time>
      </trkpt>
      <trkpt lat="42.868256" lon="-7.797569">
        <ele>656.771</ele>
        <time>2021-07-13T07:51:24Z</time>
      </trkpt>
      <trkpt lat="42.868202" lon="-7.797436">
        <ele>656.269</ele>
        <time>2021-07-13T07:51:31Z</time>
      </trkpt>
      <trkpt lat="42.868083" lon="-7.797228">
        <ele>655.293</ele>
        <time>2021-07-13T07:51:38Z</time>
      </trkpt>
      <trkpt lat="42.867861" lon="-7.796843">
        <ele>651.465</ele>
        <time>2021-07-13T07:51:47Z</time>
      </trkpt>
      <trkpt lat="42.867757" lon="-7.796657">
        <ele>649.521</ele>
        <time>2021-07-13T07:51:53Z</time>
      </trkpt>
      <trkpt lat="42.867585" lon="-7.796350">
        <ele>648.508</ele>
        <time>2021-07-13T07:52:00Z</time>
      </trkpt>
      <trkpt lat="42.867362" lon="-7.795918">
        <ele>647.146</ele>
        <time>2021-07-13T07:52:06Z</time>
      </trkpt>
      <trkpt lat="42.867002" lon="-7.795160">
        <ele>645.158</ele>
        <time>2021-07-13T07:52:14Z</time>
      </trkpt>
      <trkpt lat="42.866604" lon="-7.794364">
        <ele>643.715</ele>
        <time>2021-07-13T07:52:23Z</time>
      </trkpt>
      <trkpt lat="42.866249" lon="-7.793614">
        <ele>642.365</ele>
        <time>2021-07-13T07:52:30Z</time>
      </trkpt>
      <trkpt lat="42.866083" lon="-7.792912">
        <ele>640.389</ele>
        <time>2021-07-13T07:52:36Z</time>
      </trkpt>
      <trkpt lat="42.866034" lon="-7.791954">
        <ele>636.097</ele>
        <time>2021-07-13T07:52:44Z</time>
      </trkpt>
      <trkpt lat="42.866025" lon="-7.791700">
        <ele>635.584</ele>
        <time>2021-07-13T07:52:46Z</time>
      </trkpt>
      <trkpt lat="42.866012" lon="-7.791593">
        <ele>635.022</ele>
        <time>2021-07-13T07:52:47Z</time>
      </trkpt>
      <trkpt lat="42.865981" lon="-7.791465">
        <ele>635.033</ele>
        <time>2021-07-13T07:52:48Z</time>
      </trkpt>
      <trkpt lat="42.865745" lon="-7.790849">
        <ele>633.623</ele>
        <time>2021-07-13T07:52:55Z</time>
      </trkpt>
      <trkpt lat="42.865623" lon="-7.790549">
        <ele>633.615</ele>
        <time>2021-07-13T07:52:59Z</time>
      </trkpt>
      <trkpt lat="42.865556" lon="-7.790224">
        <ele>634.608</ele>
        <time>2021-07-13T07:53:05Z</time>
      </trkpt>
      <trkpt lat="42.865570" lon="-7.789901">
        <ele>636.530</ele>
        <time>2021-07-13T07:53:12Z</time>
      </trkpt>
      <trkpt lat="42.865597" lon="-7.789591">
        <ele>638.432</ele>
        <time>2021-07-13T07:53:20Z</time>
      </trkpt>
      <trkpt lat="42.865631" lon="-7.789120">
        <ele>639.849</ele>
        <time>2021-07-13T07:53:30Z</time>
      </trkpt>
      <trkpt lat="42.865639" lon="-7.788923">
        <ele>640.399</ele>
        <time>2021-07-13T07:53:36Z</time>
      </trkpt>
      <trkpt lat="42.865634" lon="-7.788921">
        <ele>640.373</ele>
        <time>2021-07-13T07:53:47Z</time>
      </trkpt>
      <trkpt lat="42.865630" lon="-7.788924">
        <ele>641.881</ele>
        <time>2021-07-13T07:54:04Z</time>
      </trkpt>
      <trkpt lat="42.865638" lon="-7.788776">
        <ele>641.858</ele>
        <time>2021-07-13T07:54:09Z</time>
      </trkpt>
      <trkpt lat="42.865612" lon="-7.788269">
        <ele>641.816</ele>
        <time>2021-07-13T07:54:19Z</time>
      </trkpt>
      <trkpt lat="42.865533" lon="-7.787780">
        <ele>639.426</ele>
        <time>2021-07-13T07:54:29Z</time>
      </trkpt>
      <trkpt lat="42.865438" lon="-7.787404">
        <ele>638.947</ele>
        <time>2021-07-13T07:54:38Z</time>
      </trkpt>
      <trkpt lat="42.865370" lon="-7.787272">
        <ele>638.911</ele>
        <time>2021-07-13T07:54:43Z</time>
      </trkpt>
      <trkpt lat="42.865232" lon="-7.787126">
        <ele>638.908</ele>
        <time>2021-07-13T07:54:50Z</time>
      </trkpt>
      <trkpt lat="42.865042" lon="-7.786962">
        <ele>640.319</ele>
        <time>2021-07-13T07:54:56Z</time>
      </trkpt>
      <trkpt lat="42.864672" lon="-7.786647">
        <ele>637.991</ele>
        <time>2021-07-13T07:55:08Z</time>
      </trkpt>
      <trkpt lat="42.864582" lon="-7.786562">
        <ele>637.058</ele>
        <time>2021-07-13T07:55:10Z</time>
      </trkpt>
      <trkpt lat="42.864332" lon="-7.786337">
        <ele>633.168</ele>
        <time>2021-07-13T07:55:17Z</time>
      </trkpt>
      <trkpt lat="42.864113" lon="-7.786057">
        <ele>630.282</ele>
        <time>2021-07-13T07:55:23Z</time>
      </trkpt>
      <trkpt lat="42.863719" lon="-7.785544">
        <ele>624.940</ele>
        <time>2021-07-13T07:55:30Z</time>
      </trkpt>
      <trkpt lat="42.863521" lon="-7.785351">
        <ele>623.047</ele>
        <time>2021-07-13T07:55:33Z</time>
      </trkpt>
      <trkpt lat="42.863444" lon="-7.785298">
        <ele>622.555</ele>
        <time>2021-07-13T07:55:34Z</time>
      </trkpt>
      <trkpt lat="42.863352" lon="-7.785250">
        <ele>621.668</ele>
        <time>2021-07-13T07:55:35Z</time>
      </trkpt>
      <trkpt lat="42.863256" lon="-7.785211">
        <ele>621.142</ele>
        <time>2021-07-13T07:55:36Z</time>
      </trkpt>
      <trkpt lat="42.863189" lon="-7.785190">
        <ele>620.626</ele>
        <time>2021-07-13T07:55:37Z</time>
      </trkpt>
      <trkpt lat="42.863107" lon="-7.785167">
        <ele>620.108</ele>
        <time>2021-07-13T07:55:38Z</time>
      </trkpt>
      <trkpt lat="42.862874" lon="-7.785104">
        <ele>617.763</ele>
        <time>2021-07-13T07:55:41Z</time>
      </trkpt>
      <trkpt lat="42.862815" lon="-7.785069">
        <ele>616.885</ele>
        <time>2021-07-13T07:55:42Z</time>
      </trkpt>
      <trkpt lat="42.862752" lon="-7.785009">
        <ele>615.852</ele>
        <time>2021-07-13T07:55:43Z</time>
      </trkpt>
      <trkpt lat="42.862706" lon="-7.784946">
        <ele>614.932</ele>
        <time>2021-07-13T07:55:44Z</time>
      </trkpt>
      <trkpt lat="42.862674" lon="-7.784890">
        <ele>613.986</ele>
        <time>2021-07-13T07:55:45Z</time>
      </trkpt>
      <trkpt lat="42.862661" lon="-7.784856">
        <ele>613.424</ele>
        <time>2021-07-13T07:55:46Z</time>
      </trkpt>
      <trkpt lat="42.862660" lon="-7.784822">
        <ele>613.441</ele>
        <time>2021-07-13T07:55:47Z</time>
      </trkpt>
      <trkpt lat="42.862670" lon="-7.784787">
        <ele>612.929</ele>
        <time>2021-07-13T07:55:48Z</time>
      </trkpt>
      <trkpt lat="42.862687" lon="-7.784757">
        <ele>612.979</ele>
        <time>2021-07-13T07:55:49Z</time>
      </trkpt>
      <trkpt lat="42.862699" lon="-7.784745">
        <ele>613.405</ele>
        <time>2021-07-13T07:55:50Z</time>
      </trkpt>
      <trkpt lat="42.862710" lon="-7.784736">
        <ele>613.425</ele>
        <time>2021-07-13T07:55:51Z</time>
      </trkpt>
      <trkpt lat="42.862721" lon="-7.784727">
        <ele>614.408</ele>
        <time>2021-07-13T07:55:56Z</time>
      </trkpt>
      <trkpt lat="42.862722" lon="-7.784728">
        <ele>614.424</ele>
        <time>2021-07-13T07:56:07Z</time>
      </trkpt>
      <trkpt lat="42.862724" lon="-7.784738">
        <ele>615.316</ele>
        <time>2021-07-13T07:56:24Z</time>
      </trkpt>
      <trkpt lat="42.862715" lon="-7.784741">
        <ele>614.923</ele>
        <time>2021-07-13T07:56:45Z</time>
      </trkpt>
      <trkpt lat="42.862714" lon="-7.784730">
        <ele>616.323</ele>
        <time>2021-07-13T07:57:01Z</time>
      </trkpt>
      <trkpt lat="42.862719" lon="-7.784726">
        <ele>616.857</ele>
        <time>2021-07-13T07:57:23Z</time>
      </trkpt>
      <trkpt lat="42.862736" lon="-7.784705">
        <ele>616.315</ele>
        <time>2021-07-13T07:57:36Z</time>
      </trkpt>
      <trkpt lat="42.862746" lon="-7.784700">
        <ele>615.852</ele>
        <time>2021-07-13T07:57:37Z</time>
      </trkpt>
      <trkpt lat="42.862753" lon="-7.784692">
        <ele>615.370</ele>
        <time>2021-07-13T07:57:44Z</time>
      </trkpt>
      <trkpt lat="42.862747" lon="-7.784696">
        <ele>614.432</ele>
        <time>2021-07-13T07:58:00Z</time>
      </trkpt>
      <trkpt lat="42.862742" lon="-7.784697">
        <ele>613.492</ele>
        <time>2021-07-13T07:58:15Z</time>
      </trkpt>
      <trkpt lat="42.862736" lon="-7.784699">
        <ele>613.411</ele>
        <time>2021-07-13T07:58:29Z</time>
      </trkpt>
      <trkpt lat="42.862739" lon="-7.784702">
        <ele>614.408</ele>
        <time>2021-07-13T07:58:43Z</time>
      </trkpt>
      <trkpt lat="42.862736" lon="-7.784699">
        <ele>615.870</ele>
        <time>2021-07-13T07:58:57Z</time>
      </trkpt>
      <trkpt lat="42.862738" lon="-7.784699">
        <ele>615.862</ele>
        <time>2021-07-13T07:59:09Z</time>
      </trkpt>
      <trkpt lat="42.862740" lon="-7.784697">
        <ele>614.459</ele>
        <time>2021-07-13T07:59:22Z</time>
      </trkpt>
      <trkpt lat="42.862734" lon="-7.784690">
        <ele>613.989</ele>
        <time>2021-07-13T07:59:43Z</time>
      </trkpt>
      <trkpt lat="42.862731" lon="-7.784694">
        <ele>614.463</ele>
        <time>2021-07-13T08:00:03Z</time>
      </trkpt>
      <trkpt lat="42.862746" lon="-7.784696">
        <ele>615.351</ele>
        <time>2021-07-13T08:00:22Z</time>
      </trkpt>
      <trkpt lat="42.862758" lon="-7.784695">
        <ele>615.848</ele>
        <time>2021-07-13T08:00:39Z</time>
      </trkpt>
      <trkpt lat="42.862762" lon="-7.784680">
        <ele>616.886</ele>
        <time>2021-07-13T08:00:58Z</time>
      </trkpt>
      <trkpt lat="42.862754" lon="-7.784689">
        <ele>615.321</ele>
        <time>2021-07-13T08:01:18Z</time>
      </trkpt>
      <trkpt lat="42.862751" lon="-7.784704">
        <ele>615.341</ele>
        <time>2021-07-13T08:01:37Z</time>
      </trkpt>
      <trkpt lat="42.862748" lon="-7.784706">
        <ele>614.905</ele>
        <time>2021-07-13T08:01:53Z</time>
      </trkpt>
      <trkpt lat="42.862745" lon="-7.784697">
        <ele>614.908</ele>
        <time>2021-07-13T08:02:11Z</time>
      </trkpt>
      <trkpt lat="42.862740" lon="-7.784692">
        <ele>614.919</ele>
        <time>2021-07-13T08:02:29Z</time>
      </trkpt>
      <trkpt lat="42.862742" lon="-7.784700">
        <ele>614.491</ele>
        <time>2021-07-13T08:02:45Z</time>
      </trkpt>
      <trkpt lat="42.862746" lon="-7.784708">
        <ele>612.988</ele>
        <time>2021-07-13T08:03:00Z</time>
      </trkpt>
      <trkpt lat="42.862744" lon="-7.784687">
        <ele>613.478</ele>
        <time>2021-07-13T08:03:21Z</time>
      </trkpt>
      <trkpt lat="42.862740" lon="-7.784675">
        <ele>615.882</ele>
        <time>2021-07-13T08:03:33Z</time>
      </trkpt>
      <trkpt lat="42.862742" lon="-7.784659">
        <ele>619.740</ele>
        <time>2021-07-13T08:03:56Z</time>
      </trkpt>
      <trkpt lat="42.862750" lon="-7.784654">
        <ele>619.277</ele>
        <time>2021-07-13T08:04:12Z</time>
      </trkpt>
      <trkpt lat="42.862754" lon="-7.784671">
        <ele>617.765</ele>
        <time>2021-07-13T08:04:34Z</time>
      </trkpt>
      <trkpt lat="42.862758" lon="-7.784696">
        <ele>614.997</ele>
        <time>2021-07-13T08:04:52Z</time>
      </trkpt>
      <trkpt lat="42.862758" lon="-7.784715">
        <ele>614.423</ele>
        <time>2021-07-13T08:05:09Z</time>
      </trkpt>
      <trkpt lat="42.862751" lon="-7.784715">
        <ele>614.925</ele>
        <time>2021-07-13T08:05:23Z</time>
      </trkpt>
      <trkpt lat="42.862744" lon="-7.784709">
        <ele>614.408</ele>
        <time>2021-07-13T08:05:39Z</time>
      </trkpt>
      <trkpt lat="42.862747" lon="-7.784705">
        <ele>614.486</ele>
        <time>2021-07-13T08:05:55Z</time>
      </trkpt>
      <trkpt lat="42.862749" lon="-7.784707">
        <ele>615.378</ele>
        <time>2021-07-13T08:06:10Z</time>
      </trkpt>
      <trkpt lat="42.862761" lon="-7.784700">
        <ele>615.345</ele>
        <time>2021-07-13T08:06:32Z</time>
      </trkpt>
      <trkpt lat="42.862759" lon="-7.784692">
        <ele>615.855</ele>
        <time>2021-07-13T08:06:54Z</time>
      </trkpt>
      <trkpt lat="42.862755" lon="-7.784693">
        <ele>617.319</ele>
        <time>2021-07-13T08:07:11Z</time>
      </trkpt>
      <trkpt lat="42.862742" lon="-7.784686">
        <ele>617.737</ele>
        <time>2021-07-13T08:07:27Z</time>
      </trkpt>
      <trkpt lat="42.862744" lon="-7.784679">
        <ele>617.354</ele>
        <time>2021-07-13T08:07:42Z</time>
      </trkpt>
      <trkpt lat="42.862746" lon="-7.784674">
        <ele>615.842</ele>
        <time>2021-07-13T08:07:54Z</time>
      </trkpt>
      <trkpt lat="42.862748" lon="-7.784680">
        <ele>613.959</ele>
        <time>2021-07-13T08:08:13Z</time>
      </trkpt>
      <trkpt lat="42.862748" lon="-7.784685">
        <ele>612.903</ele>
        <time>2021-07-13T08:08:28Z</time>
      </trkpt>
      <trkpt lat="42.862744" lon="-7.784689">
        <ele>614.423</ele>
        <time>2021-07-13T08:08:51Z</time>
      </trkpt>
      <trkpt lat="42.862756" lon="-7.784699">
        <ele>616.308</ele>
        <time>2021-07-13T08:09:18Z</time>
      </trkpt>
      <trkpt lat="42.862766" lon="-7.784714">
        <ele>616.822</ele>
        <time>2021-07-13T08:09:37Z</time>
      </trkpt>
      <trkpt lat="42.862766" lon="-7.784694">
        <ele>616.814</ele>
        <time>2021-07-13T08:09:53Z</time>
      </trkpt>
      <trkpt lat="42.862761" lon="-7.784675">
        <ele>616.861</ele>
        <time>2021-07-13T08:10:13Z</time>
      </trkpt>
      <trkpt lat="42.862756" lon="-7.784686">
        <ele>617.321</ele>
        <time>2021-07-13T08:10:33Z</time>
      </trkpt>
      <trkpt lat="42.862761" lon="-7.784686">
        <ele>617.735</ele>
        <time>2021-07-13T08:10:49Z</time>
      </trkpt>
      <trkpt lat="42.862750" lon="-7.784687">
        <ele>617.343</ele>
        <time>2021-07-13T08:11:13Z</time>
      </trkpt>
      <trkpt lat="42.862745" lon="-7.784703">
        <ele>615.810</ele>
        <time>2021-07-13T08:11:27Z</time>
      </trkpt>
      <trkpt lat="42.862748" lon="-7.784705">
        <ele>615.348</ele>
        <time>2021-07-13T08:11:41Z</time>
      </trkpt>
      <trkpt lat="42.862758" lon="-7.784700">
        <ele>614.465</ele>
        <time>2021-07-13T08:12:02Z</time>
      </trkpt>
      <trkpt lat="42.862762" lon="-7.784712">
        <ele>613.968</ele>
        <time>2021-07-13T08:12:17Z</time>
      </trkpt>
      <trkpt lat="42.862754" lon="-7.784718">
        <ele>612.914</ele>
        <time>2021-07-13T08:12:36Z</time>
      </trkpt>
      <trkpt lat="42.862745" lon="-7.784710">
        <ele>612.508</ele>
        <time>2021-07-13T08:12:48Z</time>
      </trkpt>
      <trkpt lat="42.862726" lon="-7.784686">
        <ele>612.553</ele>
        <time>2021-07-13T08:13:07Z</time>
      </trkpt>
      <trkpt lat="42.862738" lon="-7.784690">
        <ele>614.435</ele>
        <time>2021-07-13T08:13:31Z</time>
      </trkpt>
      <trkpt lat="42.862761" lon="-7.784703">
        <ele>617.782</ele>
        <time>2021-07-13T08:13:56Z</time>
      </trkpt>
      <trkpt lat="42.862762" lon="-7.784720">
        <ele>617.712</ele>
        <time>2021-07-13T08:14:17Z</time>
      </trkpt>
      <trkpt lat="42.862757" lon="-7.784723">
        <ele>617.316</ele>
        <time>2021-07-13T08:14:31Z</time>
      </trkpt>
      <trkpt lat="42.862755" lon="-7.784714">
        <ele>617.344</ele>
        <time>2021-07-13T08:14:52Z</time>
      </trkpt>
      <trkpt lat="42.862770" lon="-7.784721">
        <ele>616.351</ele>
        <time>2021-07-13T08:15:12Z</time>
      </trkpt>
      <trkpt lat="42.862771" lon="-7.784718">
        <ele>616.859</ele>
        <time>2021-07-13T08:15:33Z</time>
      </trkpt>
      <trkpt lat="42.862763" lon="-7.784713">
        <ele>615.398</ele>
        <time>2021-07-13T08:15:58Z</time>
      </trkpt>
      <trkpt lat="42.862765" lon="-7.784697">
        <ele>616.315</ele>
        <time>2021-07-13T08:16:16Z</time>
      </trkpt>
      <trkpt lat="42.862752" lon="-7.784680">
        <ele>616.826</ele>
        <time>2021-07-13T08:16:40Z</time>
      </trkpt>
      <trkpt lat="42.862748" lon="-7.784689">
        <ele>616.808</ele>
        <time>2021-07-13T08:16:54Z</time>
      </trkpt>
      <trkpt lat="42.862749" lon="-7.784710">
        <ele>617.776</ele>
        <time>2021-07-13T08:17:18Z</time>
      </trkpt>
      <trkpt lat="42.862747" lon="-7.784701">
        <ele>617.358</ele>
        <time>2021-07-13T08:17:37Z</time>
      </trkpt>
      <trkpt lat="42.862756" lon="-7.784686">
        <ele>617.325</ele>
        <time>2021-07-13T08:17:58Z</time>
      </trkpt>
      <trkpt lat="42.862758" lon="-7.784686">
        <ele>615.855</ele>
        <time>2021-07-13T08:18:14Z</time>
      </trkpt>
      <trkpt lat="42.862751" lon="-7.784688">
        <ele>615.389</ele>
        <time>2021-07-13T08:18:31Z</time>
      </trkpt>
      <trkpt lat="42.862742" lon="-7.784689">
        <ele>614.917</ele>
        <time>2021-07-13T08:18:47Z</time>
      </trkpt>
      <trkpt lat="42.862746" lon="-7.784698">
        <ele>613.424</ele>
        <time>2021-07-13T08:19:16Z</time>
      </trkpt>
      <trkpt lat="42.862744" lon="-7.784693">
        <ele>616.342</ele>
        <time>2021-07-13T08:19:40Z</time>
      </trkpt>
      <trkpt lat="42.862751" lon="-7.784701">
        <ele>614.967</ele>
        <time>2021-07-13T08:20:04Z</time>
      </trkpt>
      <trkpt lat="42.862750" lon="-7.784707">
        <ele>614.981</ele>
        <time>2021-07-13T08:20:19Z</time>
      </trkpt>
      <trkpt lat="42.862757" lon="-7.784720">
        <ele>614.919</ele>
        <time>2021-07-13T08:20:37Z</time>
      </trkpt>
      <trkpt lat="42.862763" lon="-7.784718">
        <ele>613.908</ele>
        <time>2021-07-13T08:20:54Z</time>
      </trkpt>
      <trkpt lat="42.862756" lon="-7.784705">
        <ele>613.423</ele>
        <time>2021-07-13T08:21:13Z</time>
      </trkpt>
      <trkpt lat="42.862747" lon="-7.784688">
        <ele>612.965</ele>
        <time>2021-07-13T08:21:32Z</time>
      </trkpt>
      <trkpt lat="42.862738" lon="-7.784689">
        <ele>613.962</ele>
        <time>2021-07-13T08:21:54Z</time>
      </trkpt>
      <trkpt lat="42.862741" lon="-7.784680">
        <ele>614.432</ele>
        <time>2021-07-13T08:22:18Z</time>
      </trkpt>
      <trkpt lat="42.862748" lon="-7.784668">
        <ele>616.346</ele>
        <time>2021-07-13T08:22:36Z</time>
      </trkpt>
      <trkpt lat="42.862753" lon="-7.784683">
        <ele>617.334</ele>
        <time>2021-07-13T08:22:55Z</time>
      </trkpt>
      <trkpt lat="42.862751" lon="-7.784680">
        <ele>617.741</ele>
        <time>2021-07-13T08:23:17Z</time>
      </trkpt>
      <trkpt lat="42.862762" lon="-7.784683">
        <ele>617.799</ele>
        <time>2021-07-13T08:23:40Z</time>
      </trkpt>
      <trkpt lat="42.862759" lon="-7.784685">
        <ele>618.276</ele>
        <time>2021-07-13T08:23:59Z</time>
      </trkpt>
      <trkpt lat="42.862749" lon="-7.784705">
        <ele>618.290</ele>
        <time>2021-07-13T08:24:23Z</time>
      </trkpt>
      <trkpt lat="42.862762" lon="-7.784704">
        <ele>616.819</ele>
        <time>2021-07-13T08:24:45Z</time>
      </trkpt>
      <trkpt lat="42.862761" lon="-7.784702">
        <ele>616.308</ele>
        <time>2021-07-13T08:25:08Z</time>
      </trkpt>
      <trkpt lat="42.862752" lon="-7.784700">
        <ele>615.814</ele>
        <time>2021-07-13T08:25:25Z</time>
      </trkpt>
      <trkpt lat="42.862743" lon="-7.784699">
        <ele>615.376</ele>
        <time>2021-07-13T08:25:41Z</time>
      </trkpt>
      <trkpt lat="42.862744" lon="-7.784698">
        <ele>615.823</ele>
        <time>2021-07-13T08:26:04Z</time>
      </trkpt>
      <trkpt lat="42.862744" lon="-7.784702">
        <ele>613.923</ele>
        <time>2021-07-13T08:26:19Z</time>
      </trkpt>
      <trkpt lat="42.862748" lon="-7.784703">
        <ele>613.417</ele>
        <time>2021-07-13T08:26:33Z</time>
      </trkpt>
      <trkpt lat="42.862752" lon="-7.784700">
        <ele>612.915</ele>
        <time>2021-07-13T08:26:50Z</time>
      </trkpt>
      <trkpt lat="42.862754" lon="-7.784702">
        <ele>612.972</ele>
        <time>2021-07-13T08:27:10Z</time>
      </trkpt>
      <trkpt lat="42.862747" lon="-7.784683">
        <ele>615.360</ele>
        <time>2021-07-13T08:27:32Z</time>
      </trkpt>
      <trkpt lat="42.862741" lon="-7.784681">
        <ele>615.321</ele>
        <time>2021-07-13T08:27:45Z</time>
      </trkpt>
      <trkpt lat="42.862742" lon="-7.784690">
        <ele>616.841</ele>
        <time>2021-07-13T08:28:01Z</time>
      </trkpt>
      <trkpt lat="42.862743" lon="-7.784680">
        <ele>616.805</ele>
        <time>2021-07-13T08:28:24Z</time>
      </trkpt>
      <trkpt lat="42.862742" lon="-7.784674">
        <ele>615.808</ele>
        <time>2021-07-13T08:28:42Z</time>
      </trkpt>
      <trkpt lat="42.862747" lon="-7.784691">
        <ele>615.869</ele>
        <time>2021-07-13T08:29:06Z</time>
      </trkpt>
      <trkpt lat="42.862745" lon="-7.784694">
        <ele>614.951</ele>
        <time>2021-07-13T08:29:17Z</time>
      </trkpt>
      <trkpt lat="42.862742" lon="-7.784708">
        <ele>614.488</ele>
        <time>2021-07-13T08:29:40Z</time>
      </trkpt>
      <trkpt lat="42.862744" lon="-7.784718">
        <ele>613.488</ele>
        <time>2021-07-13T08:30:02Z</time>
      </trkpt>
      <trkpt lat="42.862749" lon="-7.784721">
        <ele>613.422</ele>
        <time>2021-07-13T08:30:19Z</time>
      </trkpt>
      <trkpt lat="42.862750" lon="-7.784717">
        <ele>613.930</ele>
        <time>2021-07-13T08:30:38Z</time>
      </trkpt>
      <trkpt lat="42.862756" lon="-7.784710">
        <ele>613.487</ele>
        <time>2021-07-13T08:30:55Z</time>
      </trkpt>
      <trkpt lat="42.862757" lon="-7.784699">
        <ele>614.485</ele>
        <time>2021-07-13T08:31:13Z</time>
      </trkpt>
      <trkpt lat="42.862751" lon="-7.784689">
        <ele>615.321</ele>
        <time>2021-07-13T08:31:32Z</time>
      </trkpt>
      <trkpt lat="42.862752" lon="-7.784696">
        <ele>616.341</ele>
        <time>2021-07-13T08:31:55Z</time>
      </trkpt>
      <trkpt lat="42.862752" lon="-7.784688">
        <ele>615.805</ele>
        <time>2021-07-13T08:32:13Z</time>
      </trkpt>
      <trkpt lat="42.862737" lon="-7.784680">
        <ele>614.408</ele>
        <time>2021-07-13T08:32:35Z</time>
      </trkpt>
      <trkpt lat="42.862734" lon="-7.784681">
        <ele>613.999</ele>
        <time>2021-07-13T08:32:50Z</time>
      </trkpt>
      <trkpt lat="42.862744" lon="-7.784683">
        <ele>614.431</ele>
        <time>2021-07-13T08:33:07Z</time>
      </trkpt>
      <trkpt lat="42.862751" lon="-7.784679">
        <ele>615.348</ele>
        <time>2021-07-13T08:33:26Z</time>
      </trkpt>
      <trkpt lat="42.862756" lon="-7.784686">
        <ele>615.338</ele>
        <time>2021-07-13T08:33:39Z</time>
      </trkpt>
      <trkpt lat="42.862755" lon="-7.784701">
        <ele>615.862</ele>
        <time>2021-07-13T08:33:56Z</time>
      </trkpt>
      <trkpt lat="42.862754" lon="-7.784712">
        <ele>614.950</ele>
        <time>2021-07-13T08:34:20Z</time>
      </trkpt>
      <trkpt lat="42.862761" lon="-7.784708">
        <ele>614.437</ele>
        <time>2021-07-13T08:34:45Z</time>
      </trkpt>
      <trkpt lat="42.862753" lon="-7.784697">
        <ele>614.465</ele>
        <time>2021-07-13T08:35:02Z</time>
      </trkpt>
      <trkpt lat="42.862736" lon="-7.784706">
        <ele>613.925</ele>
        <time>2021-07-13T08:35:08Z</time>
      </trkpt>
      <trkpt lat="42.862729" lon="-7.784713">
        <ele>614.426</ele>
        <time>2021-07-13T08:35:16Z</time>
      </trkpt>
      <trkpt lat="42.862731" lon="-7.784708">
        <ele>615.308</ele>
        <time>2021-07-13T08:35:32Z</time>
      </trkpt>
      <trkpt lat="42.862731" lon="-7.784716">
        <ele>614.908</ele>
        <time>2021-07-13T08:35:44Z</time>
      </trkpt>
      <trkpt lat="42.862723" lon="-7.784702">
        <ele>615.349</ele>
        <time>2021-07-13T08:36:02Z</time>
      </trkpt>
      <trkpt lat="42.862718" lon="-7.784706">
        <ele>615.341</ele>
        <time>2021-07-13T08:36:12Z</time>
      </trkpt>
      <trkpt lat="42.862699" lon="-7.784733">
        <ele>615.338</ele>
        <time>2021-07-13T08:36:20Z</time>
      </trkpt>
      <trkpt lat="42.862701" lon="-7.784741">
        <ele>615.358</ele>
        <time>2021-07-13T08:36:33Z</time>
      </trkpt>
      <trkpt lat="42.862691" lon="-7.784750">
        <ele>614.952</ele>
        <time>2021-07-13T08:36:34Z</time>
      </trkpt>
      <trkpt lat="42.862673" lon="-7.784753">
        <ele>614.920</ele>
        <time>2021-07-13T08:36:35Z</time>
      </trkpt>
      <trkpt lat="42.862656" lon="-7.784748">
        <ele>614.937</ele>
        <time>2021-07-13T08:36:36Z</time>
      </trkpt>
      <trkpt lat="42.862639" lon="-7.784734">
        <ele>614.455</ele>
        <time>2021-07-13T08:36:37Z</time>
      </trkpt>
      <trkpt lat="42.862630" lon="-7.784720">
        <ele>614.442</ele>
        <time>2021-07-13T08:36:38Z</time>
      </trkpt>
      <trkpt lat="42.862617" lon="-7.784680">
        <ele>614.422</ele>
        <time>2021-07-13T08:36:40Z</time>
      </trkpt>
      <trkpt lat="42.862604" lon="-7.784644">
        <ele>613.914</ele>
        <time>2021-07-13T08:36:41Z</time>
      </trkpt>
      <trkpt lat="42.862592" lon="-7.784611">
        <ele>613.908</ele>
        <time>2021-07-13T08:36:42Z</time>
      </trkpt>
      <trkpt lat="42.862491" lon="-7.784306">
        <ele>611.521</ele>
        <time>2021-07-13T08:36:50Z</time>
      </trkpt>
      <trkpt lat="42.862386" lon="-7.783927">
        <ele>608.113</ele>
        <time>2021-07-13T08:36:54Z</time>
      </trkpt>
      <trkpt lat="42.862239" lon="-7.783396">
        <ele>605.750</ele>
        <time>2021-07-13T08:37:00Z</time>
      </trkpt>
      <trkpt lat="42.862243" lon="-7.783315">
        <ele>605.790</ele>
        <time>2021-07-13T08:37:02Z</time>
      </trkpt>
      <trkpt lat="42.862253" lon="-7.783255">
        <ele>606.234</ele>
        <time>2021-07-13T08:37:03Z</time>
      </trkpt>
      <trkpt lat="42.862268" lon="-7.783199">
        <ele>606.772</ele>
        <time>2021-07-13T08:37:04Z</time>
      </trkpt>
      <trkpt lat="42.862281" lon="-7.783153">
        <ele>606.779</ele>
        <time>2021-07-13T08:37:06Z</time>
      </trkpt>
      <trkpt lat="42.862336" lon="-7.782950">
        <ele>609.187</ele>
        <time>2021-07-13T08:37:14Z</time>
      </trkpt>
      <trkpt lat="42.862367" lon="-7.782749">
        <ele>612.063</ele>
        <time>2021-07-13T08:37:22Z</time>
      </trkpt>
      <trkpt lat="42.862366" lon="-7.782594">
        <ele>613.944</ele>
        <time>2021-07-13T08:37:30Z</time>
      </trkpt>
      <trkpt lat="42.862358" lon="-7.782579">
        <ele>614.418</ele>
        <time>2021-07-13T08:37:31Z</time>
      </trkpt>
      <trkpt lat="42.862347" lon="-7.782568">
        <ele>614.408</ele>
        <time>2021-07-13T08:37:32Z</time>
      </trkpt>
      <trkpt lat="42.862328" lon="-7.782556">
        <ele>614.973</ele>
        <time>2021-07-13T08:37:33Z</time>
      </trkpt>
      <trkpt lat="42.862302" lon="-7.782552">
        <ele>615.385</ele>
        <time>2021-07-13T08:37:35Z</time>
      </trkpt>
      <trkpt lat="42.862270" lon="-7.782570">
        <ele>615.322</ele>
        <time>2021-07-13T08:37:37Z</time>
      </trkpt>
      <trkpt lat="42.862239" lon="-7.782590">
        <ele>615.842</ele>
        <time>2021-07-13T08:37:39Z</time>
      </trkpt>
      <trkpt lat="42.862150" lon="-7.782647">
        <ele>616.866</ele>
        <time>2021-07-13T08:37:46Z</time>
      </trkpt>
      <trkpt lat="42.862137" lon="-7.782652">
        <ele>616.844</ele>
        <time>2021-07-13T08:37:47Z</time>
      </trkpt>
      <trkpt lat="42.862122" lon="-7.782661">
        <ele>616.811</ele>
        <time>2021-07-13T08:37:48Z</time>
      </trkpt>
      <trkpt lat="42.861988" lon="-7.782721">
        <ele>616.899</ele>
        <time>2021-07-13T08:37:57Z</time>
      </trkpt>
      <trkpt lat="42.861916" lon="-7.782733">
        <ele>617.349</ele>
        <time>2021-07-13T08:38:03Z</time>
      </trkpt>
      <trkpt lat="42.861883" lon="-7.782739">
        <ele>617.702</ele>
        <time>2021-07-13T08:38:05Z</time>
      </trkpt>
      <trkpt lat="42.861729" lon="-7.782743">
        <ele>619.222</ele>
        <time>2021-07-13T08:38:14Z</time>
      </trkpt>
      <trkpt lat="42.861547" lon="-7.782683">
        <ele>619.708</ele>
        <time>2021-07-13T08:38:23Z</time>
      </trkpt>
      <trkpt lat="42.861387" lon="-7.782574">
        <ele>620.161</ele>
        <time>2021-07-13T08:38:31Z</time>
      </trkpt>
      <trkpt lat="42.861139" lon="-7.782326">
        <ele>622.183</ele>
        <time>2021-07-13T08:38:44Z</time>
      </trkpt>
      <trkpt lat="42.860988" lon="-7.782168">
        <ele>623.540</ele>
        <time>2021-07-13T08:38:52Z</time>
      </trkpt>
      <trkpt lat="42.860843" lon="-7.782023">
        <ele>624.570</ele>
        <time>2021-07-13T08:39:00Z</time>
      </trkpt>
      <trkpt lat="42.860688" lon="-7.781867">
        <ele>624.934</ele>
        <time>2021-07-13T08:39:10Z</time>
      </trkpt>
      <trkpt lat="42.860620" lon="-7.781793">
        <ele>625.912</ele>
        <time>2021-07-13T08:39:15Z</time>
      </trkpt>
      <trkpt lat="42.860606" lon="-7.781783">
        <ele>625.929</ele>
        <time>2021-07-13T08:39:16Z</time>
      </trkpt>
      <trkpt lat="42.860592" lon="-7.781767">
        <ele>625.947</ele>
        <time>2021-07-13T08:39:17Z</time>
      </trkpt>
      <trkpt lat="42.860412" lon="-7.781582">
        <ele>627.473</ele>
        <time>2021-07-13T08:39:28Z</time>
      </trkpt>
      <trkpt lat="42.860286" lon="-7.781489">
        <ele>628.885</ele>
        <time>2021-07-13T08:39:35Z</time>
      </trkpt>
      <trkpt lat="42.860114" lon="-7.781476">
        <ele>630.213</ele>
        <time>2021-07-13T08:39:44Z</time>
      </trkpt>
      <trkpt lat="42.859959" lon="-7.781395">
        <ele>631.708</ele>
        <time>2021-07-13T08:39:52Z</time>
      </trkpt>
      <trkpt lat="42.859798" lon="-7.781137">
        <ele>631.764</ele>
        <time>2021-07-13T08:40:03Z</time>
      </trkpt>
      <trkpt lat="42.859685" lon="-7.781015">
        <ele>633.626</ele>
        <time>2021-07-13T08:40:10Z</time>
      </trkpt>
      <trkpt lat="42.859649" lon="-7.780954">
        <ele>634.673</ele>
        <time>2021-07-13T08:40:18Z</time>
      </trkpt>
      <trkpt lat="42.859618" lon="-7.780888">
        <ele>634.623</ele>
        <time>2021-07-13T08:40:25Z</time>
      </trkpt>
      <trkpt lat="42.859539" lon="-7.780776">
        <ele>635.567</ele>
        <time>2021-07-13T08:40:31Z</time>
      </trkpt>
      <trkpt lat="42.859462" lon="-7.780641">
        <ele>635.085</ele>
        <time>2021-07-13T08:40:39Z</time>
      </trkpt>
      <trkpt lat="42.859310" lon="-7.780382">
        <ele>635.542</ele>
        <time>2021-07-13T08:40:50Z</time>
      </trkpt>
      <trkpt lat="42.859172" lon="-7.780219">
        <ele>635.020</ele>
        <time>2021-07-13T08:40:58Z</time>
      </trkpt>
      <trkpt lat="42.859048" lon="-7.780019">
        <ele>635.099</ele>
        <time>2021-07-13T08:41:06Z</time>
      </trkpt>
      <trkpt lat="42.858839" lon="-7.779766">
        <ele>635.007</ele>
        <time>2021-07-13T08:41:16Z</time>
      </trkpt>
      <trkpt lat="42.858646" lon="-7.779610">
        <ele>635.527</ele>
        <time>2021-07-13T08:41:24Z</time>
      </trkpt>
      <trkpt lat="42.858415" lon="-7.779406">
        <ele>635.008</ele>
        <time>2021-07-13T08:41:34Z</time>
      </trkpt>
      <trkpt lat="42.858206" lon="-7.779289">
        <ele>635.066</ele>
        <time>2021-07-13T08:41:42Z</time>
      </trkpt>
      <trkpt lat="42.857952" lon="-7.779179">
        <ele>635.078</ele>
        <time>2021-07-13T08:41:51Z</time>
      </trkpt>
      <trkpt lat="42.857687" lon="-7.779068">
        <ele>636.045</ele>
        <time>2021-07-13T08:42:01Z</time>
      </trkpt>
      <trkpt lat="42.857485" lon="-7.778894">
        <ele>636.545</ele>
        <time>2021-07-13T08:42:10Z</time>
      </trkpt>
      <trkpt lat="42.857355" lon="-7.778731">
        <ele>636.029</ele>
        <time>2021-07-13T08:42:17Z</time>
      </trkpt>
      <trkpt lat="42.857172" lon="-7.778519">
        <ele>635.567</ele>
        <time>2021-07-13T08:42:26Z</time>
      </trkpt>
      <trkpt lat="42.856961" lon="-7.778383">
        <ele>636.574</ele>
        <time>2021-07-13T08:42:35Z</time>
      </trkpt>
      <trkpt lat="42.856681" lon="-7.778150">
        <ele>636.582</ele>
        <time>2021-07-13T08:42:46Z</time>
      </trkpt>
      <trkpt lat="42.856412" lon="-7.777944">
        <ele>637.068</ele>
        <time>2021-07-13T08:42:56Z</time>
      </trkpt>
      <trkpt lat="42.856146" lon="-7.777811">
        <ele>637.042</ele>
        <time>2021-07-13T08:43:06Z</time>
      </trkpt>
      <trkpt lat="42.855877" lon="-7.777740">
        <ele>637.026</ele>
        <time>2021-07-13T08:43:14Z</time>
      </trkpt>
      <trkpt lat="42.855679" lon="-7.777643">
        <ele>637.908</ele>
        <time>2021-07-13T08:43:21Z</time>
      </trkpt>
      <trkpt lat="42.855508" lon="-7.777526">
        <ele>639.843</ele>
        <time>2021-07-13T08:43:29Z</time>
      </trkpt>
      <trkpt lat="42.855401" lon="-7.777419">
        <ele>639.895</ele>
        <time>2021-07-13T08:43:35Z</time>
      </trkpt>
      <trkpt lat="42.855283" lon="-7.777250">
        <ele>641.892</ele>
        <time>2021-07-13T08:43:44Z</time>
      </trkpt>
      <trkpt lat="42.855226" lon="-7.777142">
        <ele>643.252</ele>
        <time>2021-07-13T08:43:50Z</time>
      </trkpt>
      <trkpt lat="42.855213" lon="-7.777104">
        <ele>643.226</ele>
        <time>2021-07-13T08:43:52Z</time>
      </trkpt>
      <trkpt lat="42.855208" lon="-7.777084">
        <ele>643.254</ele>
        <time>2021-07-13T08:43:53Z</time>
      </trkpt>
      <trkpt lat="42.855206" lon="-7.777066">
        <ele>643.781</ele>
        <time>2021-07-13T08:43:54Z</time>
      </trkpt>
      <trkpt lat="42.855188" lon="-7.777017">
        <ele>645.179</ele>
        <time>2021-07-13T08:43:57Z</time>
      </trkpt>
      <trkpt lat="42.855182" lon="-7.776991">
        <ele>645.644</ele>
        <time>2021-07-13T08:43:58Z</time>
      </trkpt>
      <trkpt lat="42.855177" lon="-7.776973">
        <ele>646.105</ele>
        <time>2021-07-13T08:43:59Z</time>
      </trkpt>
      <trkpt lat="42.855170" lon="-7.776954">
        <ele>646.615</ele>
        <time>2021-07-13T08:44:00Z</time>
      </trkpt>
      <trkpt lat="42.855161" lon="-7.776937">
        <ele>647.108</ele>
        <time>2021-07-13T08:44:01Z</time>
      </trkpt>
      <trkpt lat="42.855152" lon="-7.776917">
        <ele>647.591</ele>
        <time>2021-07-13T08:44:02Z</time>
      </trkpt>
      <trkpt lat="42.855146" lon="-7.776896">
        <ele>648.083</ele>
        <time>2021-07-13T08:44:03Z</time>
      </trkpt>
      <trkpt lat="42.855086" lon="-7.776711">
        <ele>649.930</ele>
        <time>2021-07-13T08:44:10Z</time>
      </trkpt>
      <trkpt lat="42.855015" lon="-7.776502">
        <ele>650.490</ele>
        <time>2021-07-13T08:44:17Z</time>
      </trkpt>
      <trkpt lat="42.854923" lon="-7.776254">
        <ele>651.414</ele>
        <time>2021-07-13T08:44:25Z</time>
      </trkpt>
      <trkpt lat="42.854823" lon="-7.775974">
        <ele>652.382</ele>
        <time>2021-07-13T08:44:33Z</time>
      </trkpt>
      <trkpt lat="42.854712" lon="-7.775742">
        <ele>652.839</ele>
        <time>2021-07-13T08:44:41Z</time>
      </trkpt>
      <trkpt lat="42.854634" lon="-7.775580">
        <ele>655.247</ele>
        <time>2021-07-13T08:44:47Z</time>
      </trkpt>
      <trkpt lat="42.854538" lon="-7.775400">
        <ele>657.657</ele>
        <time>2021-07-13T08:44:54Z</time>
      </trkpt>
      <trkpt lat="42.854410" lon="-7.775149">
        <ele>658.100</ele>
        <time>2021-07-13T08:45:02Z</time>
      </trkpt>
      <trkpt lat="42.854211" lon="-7.774787">
        <ele>656.220</ele>
        <time>2021-07-13T08:45:12Z</time>
      </trkpt>
      <trkpt lat="42.854033" lon="-7.774454">
        <ele>654.308</ele>
        <time>2021-07-13T08:45:21Z</time>
      </trkpt>
      <trkpt lat="42.853837" lon="-7.774110">
        <ele>654.842</ele>
        <time>2021-07-13T08:45:31Z</time>
      </trkpt>
      <trkpt lat="42.853662" lon="-7.773832">
        <ele>655.794</ele>
        <time>2021-07-13T08:45:40Z</time>
      </trkpt>
      <trkpt lat="42.853467" lon="-7.773631">
        <ele>656.781</ele>
        <time>2021-07-13T08:45:49Z</time>
      </trkpt>
      <trkpt lat="42.853347" lon="-7.773498">
        <ele>657.611</ele>
        <time>2021-07-13T08:45:55Z</time>
      </trkpt>
      <trkpt lat="42.853127" lon="-7.773291">
        <ele>660.015</ele>
        <time>2021-07-13T08:46:04Z</time>
      </trkpt>
      <trkpt lat="42.852940" lon="-7.773072">
        <ele>662.093</ele>
        <time>2021-07-13T08:46:13Z</time>
      </trkpt>
      <trkpt lat="42.852784" lon="-7.772833">
        <ele>662.090</ele>
        <time>2021-07-13T08:46:21Z</time>
      </trkpt>
      <trkpt lat="42.852684" lon="-7.772632">
        <ele>662.078</ele>
        <time>2021-07-13T08:46:28Z</time>
      </trkpt>
      <trkpt lat="42.852600" lon="-7.772405">
        <ele>662.456</ele>
        <time>2021-07-13T08:46:35Z</time>
      </trkpt>
      <trkpt lat="42.852550" lon="-7.772085">
        <ele>662.959</ele>
        <time>2021-07-13T08:46:44Z</time>
      </trkpt>
      <trkpt lat="42.852535" lon="-7.771892">
        <ele>663.914</ele>
        <time>2021-07-13T08:46:51Z</time>
      </trkpt>
      <trkpt lat="42.852542" lon="-7.771508">
        <ele>665.308</ele>
        <time>2021-07-13T08:47:05Z</time>
      </trkpt>
      <trkpt lat="42.852532" lon="-7.771258">
        <ele>666.862</ele>
        <time>2021-07-13T08:47:15Z</time>
      </trkpt>
      <trkpt lat="42.852529" lon="-7.771069">
        <ele>668.224</ele>
        <time>2021-07-13T08:47:24Z</time>
      </trkpt>
      <trkpt lat="42.852539" lon="-7.770890">
        <ele>670.121</ele>
        <time>2021-07-13T08:47:32Z</time>
      </trkpt>
      <trkpt lat="42.852551" lon="-7.770672">
        <ele>672.191</ele>
        <time>2021-07-13T08:47:40Z</time>
      </trkpt>
      <trkpt lat="42.852557" lon="-7.770507">
        <ele>673.515</ele>
        <time>2021-07-13T08:47:47Z</time>
      </trkpt>
      <trkpt lat="42.852553" lon="-7.770186">
        <ele>674.033</ele>
        <time>2021-07-13T08:47:59Z</time>
      </trkpt>
      <trkpt lat="42.852502" lon="-7.769892">
        <ele>675.470</ele>
        <time>2021-07-13T08:48:11Z</time>
      </trkpt>
      <trkpt lat="42.852464" lon="-7.769746">
        <ele>676.468</ele>
        <time>2021-07-13T08:48:18Z</time>
      </trkpt>
      <trkpt lat="42.852380" lon="-7.769515">
        <ele>676.984</ele>
        <time>2021-07-13T08:48:29Z</time>
      </trkpt>
      <trkpt lat="42.852302" lon="-7.769315">
        <ele>677.807</ele>
        <time>2021-07-13T08:48:37Z</time>
      </trkpt>
      <trkpt lat="42.852195" lon="-7.769032">
        <ele>678.817</ele>
        <time>2021-07-13T08:48:48Z</time>
      </trkpt>
      <trkpt lat="42.852103" lon="-7.768752">
        <ele>680.708</ele>
        <time>2021-07-13T08:48:59Z</time>
      </trkpt>
      <trkpt lat="42.852033" lon="-7.768549">
        <ele>683.115</ele>
        <time>2021-07-13T08:49:07Z</time>
      </trkpt>
      <trkpt lat="42.851928" lon="-7.768283">
        <ele>684.187</ele>
        <time>2021-07-13T08:49:17Z</time>
      </trkpt>
      <trkpt lat="42.851837" lon="-7.768032">
        <ele>684.664</ele>
        <time>2021-07-13T08:49:27Z</time>
      </trkpt>
      <trkpt lat="42.851755" lon="-7.767816">
        <ele>687.084</ele>
        <time>2021-07-13T08:49:37Z</time>
      </trkpt>
      <trkpt lat="42.851715" lon="-7.767633">
        <ele>687.988</ele>
        <time>2021-07-13T08:49:45Z</time>
      </trkpt>
      <trkpt lat="42.851677" lon="-7.767463">
        <ele>689.496</ele>
        <time>2021-07-13T08:49:53Z</time>
      </trkpt>
      <trkpt lat="42.851634" lon="-7.767169">
        <ele>690.873</ele>
        <time>2021-07-13T08:50:05Z</time>
      </trkpt>
      <trkpt lat="42.851610" lon="-7.766971">
        <ele>692.751</ele>
        <time>2021-07-13T08:50:14Z</time>
      </trkpt>
      <trkpt lat="42.851588" lon="-7.766841">
        <ele>693.226</ele>
        <time>2021-07-13T08:50:21Z</time>
      </trkpt>
      <trkpt lat="42.851576" lon="-7.766797">
        <ele>693.747</ele>
        <time>2021-07-13T08:50:24Z</time>
      </trkpt>
      <trkpt lat="42.851569" lon="-7.766781">
        <ele>694.211</ele>
        <time>2021-07-13T08:50:25Z</time>
      </trkpt>
      <trkpt lat="42.851565" lon="-7.766764">
        <ele>694.208</ele>
        <time>2021-07-13T08:50:26Z</time>
      </trkpt>
      <trkpt lat="42.851525" lon="-7.766538">
        <ele>696.119</ele>
        <time>2021-07-13T08:50:37Z</time>
      </trkpt>
      <trkpt lat="42.851502" lon="-7.766478">
        <ele>698.051</ele>
        <time>2021-07-13T08:50:43Z</time>
      </trkpt>
      <trkpt lat="42.851491" lon="-7.766465">
        <ele>698.548</ele>
        <time>2021-07-13T08:50:47Z</time>
      </trkpt>
      <trkpt lat="42.851489" lon="-7.766450">
        <ele>699.018</ele>
        <time>2021-07-13T08:50:55Z</time>
      </trkpt>
      <trkpt lat="42.851497" lon="-7.766430">
        <ele>697.032</ele>
        <time>2021-07-13T08:51:13Z</time>
      </trkpt>
      <trkpt lat="42.851502" lon="-7.766434">
        <ele>698.550</ele>
        <time>2021-07-13T08:51:27Z</time>
      </trkpt>
      <trkpt lat="42.851495" lon="-7.766442">
        <ele>699.017</ele>
        <time>2021-07-13T08:51:40Z</time>
      </trkpt>
      <trkpt lat="42.851511" lon="-7.766429">
        <ele>697.575</ele>
        <time>2021-07-13T08:51:55Z</time>
      </trkpt>
      <trkpt lat="42.851517" lon="-7.766411">
        <ele>694.221</ele>
        <time>2021-07-13T08:52:09Z</time>
      </trkpt>
      <trkpt lat="42.851509" lon="-7.766418">
        <ele>694.241</ele>
        <time>2021-07-13T08:52:20Z</time>
      </trkpt>
      <trkpt lat="42.851486" lon="-7.766426">
        <ele>694.205</ele>
        <time>2021-07-13T08:52:34Z</time>
      </trkpt>
      <trkpt lat="42.851463" lon="-7.766450">
        <ele>699.008</ele>
        <time>2021-07-13T08:52:55Z</time>
      </trkpt>
      <trkpt lat="42.851475" lon="-7.766434">
        <ele>699.069</ele>
        <time>2021-07-13T08:53:10Z</time>
      </trkpt>
      <trkpt lat="42.851473" lon="-7.766403">
        <ele>699.541</ele>
        <time>2021-07-13T08:53:17Z</time>
      </trkpt>
      <trkpt lat="42.851461" lon="-7.766340">
        <ele>699.068</ele>
        <time>2021-07-13T08:53:25Z</time>
      </trkpt>
      <trkpt lat="42.851434" lon="-7.766258">
        <ele>698.548</ele>
        <time>2021-07-13T08:53:31Z</time>
      </trkpt>
      <trkpt lat="42.851431" lon="-7.766239">
        <ele>698.542</ele>
        <time>2021-07-13T08:53:32Z</time>
      </trkpt>
      <trkpt lat="42.851425" lon="-7.766222">
        <ele>699.050</ele>
        <time>2021-07-13T08:53:33Z</time>
      </trkpt>
      <trkpt lat="42.851366" lon="-7.766013">
        <ele>700.937</ele>
        <time>2021-07-13T08:53:43Z</time>
      </trkpt>
      <trkpt lat="42.851308" lon="-7.765836">
        <ele>701.965</ele>
        <time>2021-07-13T08:53:51Z</time>
      </trkpt>
      <trkpt lat="42.851244" lon="-7.765610">
        <ele>703.885</ele>
        <time>2021-07-13T08:54:02Z</time>
      </trkpt>
      <trkpt lat="42.851194" lon="-7.765430">
        <ele>704.389</ele>
        <time>2021-07-13T08:54:10Z</time>
      </trkpt>
      <trkpt lat="42.851145" lon="-7.765238">
        <ele>704.317</ele>
        <time>2021-07-13T08:54:19Z</time>
      </trkpt>
      <trkpt lat="42.851106" lon="-7.765039">
        <ele>704.708</ele>
        <time>2021-07-13T08:54:27Z</time>
      </trkpt>
      <trkpt lat="42.851051" lon="-7.764801">
        <ele>705.215</ele>
        <time>2021-07-13T08:54:36Z</time>
      </trkpt>
      <trkpt lat="42.851006" lon="-7.764567">
        <ele>705.767</ele>
        <time>2021-07-13T08:54:45Z</time>
      </trkpt>
      <trkpt lat="42.850954" lon="-7.764337">
        <ele>706.714</ele>
        <time>2021-07-13T08:54:54Z</time>
      </trkpt>
      <trkpt lat="42.850914" lon="-7.764144">
        <ele>708.654</ele>
        <time>2021-07-13T08:55:02Z</time>
      </trkpt>
      <trkpt lat="42.850872" lon="-7.763940">
        <ele>709.548</ele>
        <time>2021-07-13T08:55:11Z</time>
      </trkpt>
      <trkpt lat="42.850812" lon="-7.763744">
        <ele>711.076</ele>
        <time>2021-07-13T08:55:19Z</time>
      </trkpt>
      <trkpt lat="42.850755" lon="-7.763595">
        <ele>711.923</ele>
        <time>2021-07-13T08:55:26Z</time>
      </trkpt>
      <trkpt lat="42.850667" lon="-7.763365">
        <ele>712.971</ele>
        <time>2021-07-13T08:55:36Z</time>
      </trkpt>
      <trkpt lat="42.850582" lon="-7.763134">
        <ele>714.413</ele>
        <time>2021-07-13T08:55:47Z</time>
      </trkpt>
      <trkpt lat="42.850505" lon="-7.762905">
        <ele>715.843</ele>
        <time>2021-07-13T08:55:57Z</time>
      </trkpt>
      <trkpt lat="42.850419" lon="-7.762683">
        <ele>717.207</ele>
        <time>2021-07-13T08:56:06Z</time>
      </trkpt>
      <trkpt lat="42.850327" lon="-7.762452">
        <ele>718.208</ele>
        <time>2021-07-13T08:56:16Z</time>
      </trkpt>
      <trkpt lat="42.850226" lon="-7.762198">
        <ele>720.648</ele>
        <time>2021-07-13T08:56:27Z</time>
      </trkpt>
      <trkpt lat="42.850146" lon="-7.761972">
        <ele>722.020</ele>
        <time>2021-07-13T08:56:35Z</time>
      </trkpt>
      <trkpt lat="42.850051" lon="-7.761718">
        <ele>723.587</ele>
        <time>2021-07-13T08:56:45Z</time>
      </trkpt>
      <trkpt lat="42.849981" lon="-7.761504">
        <ele>724.937</ele>
        <time>2021-07-13T08:56:54Z</time>
      </trkpt>
      <trkpt lat="42.849906" lon="-7.761255">
        <ele>725.981</ele>
        <time>2021-07-13T08:57:04Z</time>
      </trkpt>
      <trkpt lat="42.849853" lon="-7.761042">
        <ele>726.839</ele>
        <time>2021-07-13T08:57:12Z</time>
      </trkpt>
      <trkpt lat="42.849801" lon="-7.760791">
        <ele>727.836</ele>
        <time>2021-07-13T08:57:21Z</time>
      </trkpt>
      <trkpt lat="42.849743" lon="-7.760570">
        <ele>727.864</ele>
        <time>2021-07-13T08:57:29Z</time>
      </trkpt>
      <trkpt lat="42.849636" lon="-7.760319">
        <ele>727.827</ele>
        <time>2021-07-13T08:57:38Z</time>
      </trkpt>
      <trkpt lat="42.849479" lon="-7.760027">
        <ele>727.868</ele>
        <time>2021-07-13T08:57:48Z</time>
      </trkpt>
      <trkpt lat="42.849315" lon="-7.759799">
        <ele>728.314</ele>
        <time>2021-07-13T08:57:57Z</time>
      </trkpt>
      <trkpt lat="42.849129" lon="-7.759563">
        <ele>727.808</ele>
        <time>2021-07-13T08:58:07Z</time>
      </trkpt>
      <trkpt lat="42.848919" lon="-7.759308">
        <ele>728.839</ele>
        <time>2021-07-13T08:58:18Z</time>
      </trkpt>
      <trkpt lat="42.848724" lon="-7.759060">
        <ele>730.281</ele>
        <time>2021-07-13T08:58:29Z</time>
      </trkpt>
      <trkpt lat="42.848560" lon="-7.758830">
        <ele>730.218</ele>
        <time>2021-07-13T08:58:38Z</time>
      </trkpt>
      <trkpt lat="42.848381" lon="-7.758585">
        <ele>729.778</ele>
        <time>2021-07-13T08:58:47Z</time>
      </trkpt>
      <trkpt lat="42.848174" lon="-7.758275">
        <ele>729.772</ele>
        <time>2021-07-13T08:58:56Z</time>
      </trkpt>
      <trkpt lat="42.848056" lon="-7.758108">
        <ele>729.310</ele>
        <time>2021-07-13T08:59:00Z</time>
      </trkpt>
      <trkpt lat="42.847715" lon="-7.757746">
        <ele>727.897</ele>
        <time>2021-07-13T08:59:08Z</time>
      </trkpt>
      <trkpt lat="42.847305" lon="-7.757422">
        <ele>726.865</ele>
        <time>2021-07-13T08:59:16Z</time>
      </trkpt>
      <trkpt lat="42.846905" lon="-7.757098">
        <ele>725.492</ele>
        <time>2021-07-13T08:59:25Z</time>
      </trkpt>
      <trkpt lat="42.846610" lon="-7.756805">
        <ele>725.473</ele>
        <time>2021-07-13T08:59:34Z</time>
      </trkpt>
      <trkpt lat="42.846361" lon="-7.756519">
        <ele>725.920</ele>
        <time>2021-07-13T08:59:43Z</time>
      </trkpt>
      <trkpt lat="42.846110" lon="-7.756182">
        <ele>726.408</ele>
        <time>2021-07-13T08:59:53Z</time>
      </trkpt>
      <trkpt lat="42.845936" lon="-7.755913">
        <ele>726.826</ele>
        <time>2021-07-13T09:00:01Z</time>
      </trkpt>
      <trkpt lat="42.845776" lon="-7.755538">
        <ele>728.888</ele>
        <time>2021-07-13T09:00:11Z</time>
      </trkpt>
      <trkpt lat="42.845692" lon="-7.755184">
        <ele>729.795</ele>
        <time>2021-07-13T09:00:19Z</time>
      </trkpt>
      <trkpt lat="42.845590" lon="-7.754744">
        <ele>730.765</ele>
        <time>2021-07-13T09:00:29Z</time>
      </trkpt>
      <trkpt lat="42.845483" lon="-7.754202">
        <ele>732.149</ele>
        <time>2021-07-13T09:00:41Z</time>
      </trkpt>
      <trkpt lat="42.845442" lon="-7.753777">
        <ele>732.187</ele>
        <time>2021-07-13T09:00:50Z</time>
      </trkpt>
      <trkpt lat="42.845432" lon="-7.753261">
        <ele>730.764</ele>
        <time>2021-07-13T09:01:01Z</time>
      </trkpt>
      <trkpt lat="42.845436" lon="-7.752909">
        <ele>729.732</ele>
        <time>2021-07-13T09:01:07Z</time>
      </trkpt>
      <trkpt lat="42.845403" lon="-7.752653">
        <ele>728.377</ele>
        <time>2021-07-13T09:01:10Z</time>
      </trkpt>
      <trkpt lat="42.845264" lon="-7.752087">
        <ele>725.461</ele>
        <time>2021-07-13T09:01:16Z</time>
      </trkpt>
      <trkpt lat="42.845227" lon="-7.751989">
        <ele>724.927</ele>
        <time>2021-07-13T09:01:17Z</time>
      </trkpt>
      <trkpt lat="42.845055" lon="-7.751395">
        <ele>721.108</ele>
        <time>2021-07-13T09:01:22Z</time>
      </trkpt>
      <trkpt lat="42.844834" lon="-7.750580">
        <ele>716.314</ele>
        <time>2021-07-13T09:01:28Z</time>
      </trkpt>
      <trkpt lat="42.844646" lon="-7.749948">
        <ele>712.956</ele>
        <time>2021-07-13T09:01:34Z</time>
      </trkpt>
      <trkpt lat="42.844519" lon="-7.749618">
        <ele>711.593</ele>
        <time>2021-07-13T09:01:38Z</time>
      </trkpt>
      <trkpt lat="42.844390" lon="-7.749330">
        <ele>710.023</ele>
        <time>2021-07-13T09:01:43Z</time>
      </trkpt>
      <trkpt lat="42.844343" lon="-7.749195">
        <ele>709.577</ele>
        <time>2021-07-13T09:01:46Z</time>
      </trkpt>
      <trkpt lat="42.844333" lon="-7.749132">
        <ele>709.565</ele>
        <time>2021-07-13T09:01:47Z</time>
      </trkpt>
      <trkpt lat="42.844313" lon="-7.749039">
        <ele>709.582</ele>
        <time>2021-07-13T09:01:49Z</time>
      </trkpt>
      <trkpt lat="42.844235" lon="-7.748661">
        <ele>710.550</ele>
        <time>2021-07-13T09:01:58Z</time>
      </trkpt>
      <trkpt lat="42.844228" lon="-7.748437">
        <ele>710.542</ele>
        <time>2021-07-13T09:02:03Z</time>
      </trkpt>
      <trkpt lat="42.844244" lon="-7.748380">
        <ele>710.522</ele>
        <time>2021-07-13T09:02:04Z</time>
      </trkpt>
      <trkpt lat="42.844256" lon="-7.748351">
        <ele>710.514</ele>
        <time>2021-07-13T09:02:05Z</time>
      </trkpt>
      <trkpt lat="42.844270" lon="-7.748320">
        <ele>710.508</ele>
        <time>2021-07-13T09:02:06Z</time>
      </trkpt>
      <trkpt lat="42.844287" lon="-7.748289">
        <ele>710.021</ele>
        <time>2021-07-13T09:02:07Z</time>
      </trkpt>
      <trkpt lat="42.844314" lon="-7.748058">
        <ele>710.513</ele>
        <time>2021-07-13T09:02:13Z</time>
      </trkpt>
      <trkpt lat="42.844311" lon="-7.748041">
        <ele>710.080</ele>
        <time>2021-07-13T09:02:14Z</time>
      </trkpt>
      <trkpt lat="42.844243" lon="-7.747877">
        <ele>710.070</ele>
        <time>2021-07-13T09:02:20Z</time>
      </trkpt>
      <trkpt lat="42.844124" lon="-7.747622">
        <ele>711.044</ele>
        <time>2021-07-13T09:02:28Z</time>
      </trkpt>
      <trkpt lat="42.843974" lon="-7.747269">
        <ele>711.552</ele>
        <time>2021-07-13T09:02:37Z</time>
      </trkpt>
      <trkpt lat="42.843831" lon="-7.746878">
        <ele>711.549</ele>
        <time>2021-07-13T09:02:47Z</time>
      </trkpt>
      <trkpt lat="42.843677" lon="-7.746454">
        <ele>711.947</ele>
        <time>2021-07-13T09:02:57Z</time>
      </trkpt>
      <trkpt lat="42.843581" lon="-7.746133">
        <ele>712.936</ele>
        <time>2021-07-13T09:03:04Z</time>
      </trkpt>
      <trkpt lat="42.843504" lon="-7.745715">
        <ele>713.917</ele>
        <time>2021-07-13T09:03:13Z</time>
      </trkpt>
      <trkpt lat="42.843446" lon="-7.745339">
        <ele>714.818</ele>
        <time>2021-07-13T09:03:21Z</time>
      </trkpt>
      <trkpt lat="42.843415" lon="-7.745032">
        <ele>714.808</ele>
        <time>2021-07-13T09:03:28Z</time>
      </trkpt>
      <trkpt lat="42.843371" lon="-7.744590">
        <ele>714.430</ele>
        <time>2021-07-13T09:03:36Z</time>
      </trkpt>
      <trkpt lat="42.843341" lon="-7.744007">
        <ele>713.452</ele>
        <time>2021-07-13T09:03:45Z</time>
      </trkpt>
      <trkpt lat="42.843339" lon="-7.743943">
        <ele>712.969</ele>
        <time>2021-07-13T09:03:46Z</time>
      </trkpt>
      <trkpt lat="42.843300" lon="-7.743287">
        <ele>711.919</ele>
        <time>2021-07-13T09:03:56Z</time>
      </trkpt>
      <trkpt lat="42.843236" lon="-7.742628">
        <ele>711.523</ele>
        <time>2021-07-13T09:04:06Z</time>
      </trkpt>
      <trkpt lat="42.843203" lon="-7.742121">
        <ele>711.011</ele>
        <time>2021-07-13T09:04:14Z</time>
      </trkpt>
      <trkpt lat="42.843075" lon="-7.741626">
        <ele>711.068</ele>
        <time>2021-07-13T09:04:22Z</time>
      </trkpt>
      <trkpt lat="42.842855" lon="-7.741077">
        <ele>711.546</ele>
        <time>2021-07-13T09:04:32Z</time>
      </trkpt>
      <trkpt lat="42.842756" lon="-7.740514">
        <ele>709.514</ele>
        <time>2021-07-13T09:04:40Z</time>
      </trkpt>
      <trkpt lat="42.842723" lon="-7.739950">
        <ele>707.154</ele>
        <time>2021-07-13T09:04:46Z</time>
      </trkpt>
      <trkpt lat="42.842682" lon="-7.739245">
        <ele>704.309</ele>
        <time>2021-07-13T09:04:52Z</time>
      </trkpt>
      <trkpt lat="42.842621" lon="-7.738600">
        <ele>701.908</ele>
        <time>2021-07-13T09:04:58Z</time>
      </trkpt>
      <trkpt lat="42.842569" lon="-7.737908">
        <ele>700.428</ele>
        <time>2021-07-13T09:05:06Z</time>
      </trkpt>
      <trkpt lat="42.842463" lon="-7.737327">
        <ele>699.520</ele>
        <time>2021-07-13T09:05:13Z</time>
      </trkpt>
      <trkpt lat="42.842425" lon="-7.737215">
        <ele>699.067</ele>
        <time>2021-07-13T09:05:14Z</time>
      </trkpt>
      <trkpt lat="42.842184" lon="-7.736444">
        <ele>697.557</ele>
        <time>2021-07-13T09:05:23Z</time>
      </trkpt>
      <trkpt lat="42.842045" lon="-7.735859">
        <ele>695.161</ele>
        <time>2021-07-13T09:05:30Z</time>
      </trkpt>
      <trkpt lat="42.841923" lon="-7.735462">
        <ele>692.249</ele>
        <time>2021-07-13T09:05:37Z</time>
      </trkpt>
      <trkpt lat="42.841911" lon="-7.735442">
        <ele>690.316</ele>
        <time>2021-07-13T09:05:42Z</time>
      </trkpt>
      <trkpt lat="42.841901" lon="-7.735435">
        <ele>689.834</ele>
        <time>2021-07-13T09:05:44Z</time>
      </trkpt>
      <trkpt lat="42.841866" lon="-7.735367">
        <ele>689.876</ele>
        <time>2021-07-13T09:05:48Z</time>
      </trkpt>
      <trkpt lat="42.841871" lon="-7.735339">
        <ele>689.890</ele>
        <time>2021-07-13T09:05:49Z</time>
      </trkpt>
      <trkpt lat="42.841963" lon="-7.735122">
        <ele>690.819</ele>
        <time>2021-07-13T09:05:56Z</time>
      </trkpt>
      <trkpt lat="42.842053" lon="-7.734867">
        <ele>692.708</ele>
        <time>2021-07-13T09:06:03Z</time>
      </trkpt>
      <trkpt lat="42.842195" lon="-7.734628">
        <ele>695.674</ele>
        <time>2021-07-13T09:06:11Z</time>
      </trkpt>
      <trkpt lat="42.842303" lon="-7.734488">
        <ele>697.526</ele>
        <time>2021-07-13T09:06:18Z</time>
      </trkpt>
      <trkpt lat="42.842356" lon="-7.734360">
        <ele>698.553</ele>
        <time>2021-07-13T09:06:23Z</time>
      </trkpt>
      <trkpt lat="42.842353" lon="-7.734326">
        <ele>698.583</ele>
        <time>2021-07-13T09:06:24Z</time>
      </trkpt>
      <trkpt lat="42.842346" lon="-7.734298">
        <ele>698.537</ele>
        <time>2021-07-13T09:06:25Z</time>
      </trkpt>
      <trkpt lat="42.842334" lon="-7.734267">
        <ele>698.595</ele>
        <time>2021-07-13T09:06:26Z</time>
      </trkpt>
      <trkpt lat="42.842318" lon="-7.734232">
        <ele>699.032</ele>
        <time>2021-07-13T09:06:27Z</time>
      </trkpt>
      <trkpt lat="42.842151" lon="-7.733926">
        <ele>698.560</ele>
        <time>2021-07-13T09:06:36Z</time>
      </trkpt>
      <trkpt lat="42.841976" lon="-7.733618">
        <ele>698.547</ele>
        <time>2021-07-13T09:06:46Z</time>
      </trkpt>
      <trkpt lat="42.841784" lon="-7.733441">
        <ele>697.529</ele>
        <time>2021-07-13T09:06:53Z</time>
      </trkpt>
      <trkpt lat="42.841543" lon="-7.733106">
        <ele>696.121</ele>
        <time>2021-07-13T09:07:01Z</time>
      </trkpt>
      <trkpt lat="42.841317" lon="-7.732833">
        <ele>695.608</ele>
        <time>2021-07-13T09:07:08Z</time>
      </trkpt>
      <trkpt lat="42.840952" lon="-7.732470">
        <ele>695.151</ele>
        <time>2021-07-13T09:07:19Z</time>
      </trkpt>
      <trkpt lat="42.840858" lon="-7.732411">
        <ele>695.143</ele>
        <time>2021-07-13T09:07:24Z</time>
      </trkpt>
      <trkpt lat="42.840849" lon="-7.732400">
        <ele>695.120</ele>
        <time>2021-07-13T09:07:29Z</time>
      </trkpt>
      <trkpt lat="42.840820" lon="-7.732375">
        <ele>695.160</ele>
        <time>2021-07-13T09:07:35Z</time>
      </trkpt>
      <trkpt lat="42.840813" lon="-7.732361">
        <ele>695.114</ele>
        <time>2021-07-13T09:07:54Z</time>
      </trkpt>
      <trkpt lat="42.840799" lon="-7.732364">
        <ele>696.162</ele>
        <time>2021-07-13T09:08:18Z</time>
      </trkpt>
      <trkpt lat="42.840807" lon="-7.732355">
        <ele>696.649</ele>
        <time>2021-07-13T09:08:35Z</time>
      </trkpt>
      <trkpt lat="42.840809" lon="-7.732356">
        <ele>697.067</ele>
        <time>2021-07-13T09:08:48Z</time>
      </trkpt>
      <trkpt lat="42.840805" lon="-7.732348">
        <ele>697.568</ele>
        <time>2021-07-13T09:08:55Z</time>
      </trkpt>
      <trkpt lat="42.840795" lon="-7.732337">
        <ele>697.542</ele>
        <time>2021-07-13T09:08:56Z</time>
      </trkpt>
      <trkpt lat="42.840684" lon="-7.732228">
        <ele>697.526</ele>
        <time>2021-07-13T09:09:03Z</time>
      </trkpt>
      <trkpt lat="42.840508" lon="-7.732085">
        <ele>697.508</ele>
        <time>2021-07-13T09:09:11Z</time>
      </trkpt>
      <trkpt lat="42.840136" lon="-7.731774">
        <ele>696.643</ele>
        <time>2021-07-13T09:09:23Z</time>
      </trkpt>
      <trkpt lat="42.839884" lon="-7.731562">
        <ele>696.165</ele>
        <time>2021-07-13T09:09:31Z</time>
      </trkpt>
      <trkpt lat="42.839623" lon="-7.731339">
        <ele>695.682</ele>
        <time>2021-07-13T09:09:39Z</time>
      </trkpt>
      <trkpt lat="42.839239" lon="-7.731008">
        <ele>696.122</ele>
        <time>2021-07-13T09:09:50Z</time>
      </trkpt>
      <trkpt lat="42.838889" lon="-7.730691">
        <ele>695.656</ele>
        <time>2021-07-13T09:10:00Z</time>
      </trkpt>
      <trkpt lat="42.838574" lon="-7.730397">
        <ele>695.694</ele>
        <time>2021-07-13T09:10:09Z</time>
      </trkpt>
      <trkpt lat="42.838235" lon="-7.729989">
        <ele>695.121</ele>
        <time>2021-07-13T09:10:19Z</time>
      </trkpt>
      <trkpt lat="42.837947" lon="-7.729498">
        <ele>693.769</ele>
        <time>2021-07-13T09:10:28Z</time>
      </trkpt>
      <trkpt lat="42.837667" lon="-7.728810">
        <ele>692.768</ele>
        <time>2021-07-13T09:10:38Z</time>
      </trkpt>
      <trkpt lat="42.837400" lon="-7.728009">
        <ele>690.842</ele>
        <time>2021-07-13T09:10:48Z</time>
      </trkpt>
      <trkpt lat="42.837262" lon="-7.727567">
        <ele>689.826</ele>
        <time>2021-07-13T09:10:54Z</time>
      </trkpt>
      <trkpt lat="42.837048" lon="-7.726935">
        <ele>688.908</ele>
        <time>2021-07-13T09:11:02Z</time>
      </trkpt>
      <trkpt lat="42.836720" lon="-7.725923">
        <ele>687.413</ele>
        <time>2021-07-13T09:11:14Z</time>
      </trkpt>
      <trkpt lat="42.836529" lon="-7.725336">
        <ele>687.425</ele>
        <time>2021-07-13T09:11:22Z</time>
      </trkpt>
      <trkpt lat="42.836339" lon="-7.724772">
        <ele>687.082</ele>
        <time>2021-07-13T09:11:31Z</time>
      </trkpt>
      <trkpt lat="42.836102" lon="-7.724044">
        <ele>686.592</ele>
        <time>2021-07-13T09:11:41Z</time>
      </trkpt>
      <trkpt lat="42.835928" lon="-7.723486">
        <ele>686.096</ele>
        <time>2021-07-13T09:11:50Z</time>
      </trkpt>
      <trkpt lat="42.835807" lon="-7.723127">
        <ele>685.584</ele>
        <time>2021-07-13T09:11:58Z</time>
      </trkpt>
      <trkpt lat="42.835671" lon="-7.722733">
        <ele>684.661</ele>
        <time>2021-07-13T09:12:04Z</time>
      </trkpt>
      <trkpt lat="42.835478" lon="-7.721980">
        <ele>683.189</ele>
        <time>2021-07-13T09:12:13Z</time>
      </trkpt>
      <trkpt lat="42.835405" lon="-7.721224">
        <ele>681.224</ele>
        <time>2021-07-13T09:12:20Z</time>
      </trkpt>
      <trkpt lat="42.835383" lon="-7.720377">
        <ele>679.304</ele>
        <time>2021-07-13T09:12:28Z</time>
      </trkpt>
      <trkpt lat="42.835374" lon="-7.719313">
        <ele>676.414</ele>
        <time>2021-07-13T09:12:38Z</time>
      </trkpt>
      <trkpt lat="42.835364" lon="-7.718350">
        <ele>672.108</ele>
        <time>2021-07-13T09:12:46Z</time>
      </trkpt>
      <trkpt lat="42.835349" lon="-7.717211">
        <ele>666.369</ele>
        <time>2021-07-13T09:12:54Z</time>
      </trkpt>
      <trkpt lat="42.835332" lon="-7.715981">
        <ele>661.091</ele>
        <time>2021-07-13T09:13:02Z</time>
      </trkpt>
      <trkpt lat="42.835321" lon="-7.715552">
        <ele>659.648</ele>
        <time>2021-07-13T09:13:06Z</time>
      </trkpt>
      <trkpt lat="42.835318" lon="-7.715206">
        <ele>659.658</ele>
        <time>2021-07-13T09:13:13Z</time>
      </trkpt>
      <trkpt lat="42.835308" lon="-7.714679">
        <ele>658.682</ele>
        <time>2021-07-13T09:13:22Z</time>
      </trkpt>
      <trkpt lat="42.835283" lon="-7.714017">
        <ele>657.610</ele>
        <time>2021-07-13T09:13:31Z</time>
      </trkpt>
      <trkpt lat="42.835225" lon="-7.713375">
        <ele>656.737</ele>
        <time>2021-07-13T09:13:40Z</time>
      </trkpt>
      <trkpt lat="42.835200" lon="-7.713208">
        <ele>656.285</ele>
        <time>2021-07-13T09:13:45Z</time>
      </trkpt>
      <trkpt lat="42.835191" lon="-7.713132">
        <ele>655.778</ele>
        <time>2021-07-13T09:13:51Z</time>
      </trkpt>
      <trkpt lat="42.835140" lon="-7.712785">
        <ele>655.233</ele>
        <time>2021-07-13T09:13:59Z</time>
      </trkpt>
      <trkpt lat="42.835078" lon="-7.712311">
        <ele>653.826</ele>
        <time>2021-07-13T09:14:06Z</time>
      </trkpt>
      <trkpt lat="42.835007" lon="-7.711709">
        <ele>651.908</ele>
        <time>2021-07-13T09:14:13Z</time>
      </trkpt>
      <trkpt lat="42.834959" lon="-7.711077">
        <ele>649.554</ele>
        <time>2021-07-13T09:14:19Z</time>
      </trkpt>
      <trkpt lat="42.834940" lon="-7.710249">
        <ele>645.146</ele>
        <time>2021-07-13T09:14:26Z</time>
      </trkpt>
      <trkpt lat="42.834910" lon="-7.709292">
        <ele>640.363</ele>
        <time>2021-07-13T09:14:33Z</time>
      </trkpt>
      <trkpt lat="42.834773" lon="-7.708575">
        <ele>636.523</ele>
        <time>2021-07-13T09:14:38Z</time>
      </trkpt>
      <trkpt lat="42.834520" lon="-7.707874">
        <ele>632.637</ele>
        <time>2021-07-13T09:14:43Z</time>
      </trkpt>
      <trkpt lat="42.834106" lon="-7.707182">
        <ele>629.395</ele>
        <time>2021-07-13T09:14:49Z</time>
      </trkpt>
      <trkpt lat="42.833664" lon="-7.706680">
        <ele>628.362</ele>
        <time>2021-07-13T09:14:55Z</time>
      </trkpt>
      <trkpt lat="42.833102" lon="-7.706123">
        <ele>624.930</ele>
        <time>2021-07-13T09:15:03Z</time>
      </trkpt>
      <trkpt lat="42.832480" lon="-7.705505">
        <ele>619.716</ele>
        <time>2021-07-13T09:15:11Z</time>
      </trkpt>
      <trkpt lat="42.831801" lon="-7.704806">
        <ele>613.976</ele>
        <time>2021-07-13T09:15:19Z</time>
      </trkpt>
      <trkpt lat="42.831529" lon="-7.704525">
        <ele>611.013</ele>
        <time>2021-07-13T09:15:23Z</time>
      </trkpt>
      <trkpt lat="42.831079" lon="-7.704069">
        <ele>607.208</ele>
        <time>2021-07-13T09:15:31Z</time>
      </trkpt>
      <trkpt lat="42.830899" lon="-7.703899">
        <ele>604.838</ele>
        <time>2021-07-13T09:15:35Z</time>
      </trkpt>
      <trkpt lat="42.830875" lon="-7.703903">
        <ele>604.350</ele>
        <time>2021-07-13T09:15:36Z</time>
      </trkpt>
      <trkpt lat="42.830855" lon="-7.703929">
        <ele>603.877</ele>
        <time>2021-07-13T09:15:37Z</time>
      </trkpt>
      <trkpt lat="42.830839" lon="-7.703966">
        <ele>603.397</ele>
        <time>2021-07-13T09:15:38Z</time>
      </trkpt>
      <trkpt lat="42.830828" lon="-7.704007">
        <ele>603.321</ele>
        <time>2021-07-13T09:15:39Z</time>
      </trkpt>
      <trkpt lat="42.830822" lon="-7.704050">
        <ele>602.859</ele>
        <time>2021-07-13T09:15:40Z</time>
      </trkpt>
      <trkpt lat="42.830819" lon="-7.704100">
        <ele>602.876</ele>
        <time>2021-07-13T09:15:41Z</time>
      </trkpt>
      <trkpt lat="42.830815" lon="-7.704538">
        <ele>603.344</ele>
        <time>2021-07-13T09:15:50Z</time>
      </trkpt>
      <trkpt lat="42.830830" lon="-7.704933">
        <ele>602.432</ele>
        <time>2021-07-13T09:15:57Z</time>
      </trkpt>
      <trkpt lat="42.830843" lon="-7.705203">
        <ele>601.492</ele>
        <time>2021-07-13T09:16:01Z</time>
      </trkpt>
      <trkpt lat="42.830877" lon="-7.705501">
        <ele>600.011</ele>
        <time>2021-07-13T09:16:07Z</time>
      </trkpt>
      <trkpt lat="42.830868" lon="-7.705512">
        <ele>600.008</ele>
        <time>2021-07-13T09:16:08Z</time>
      </trkpt>
      <trkpt lat="42.830853" lon="-7.705515">
        <ele>600.050</ele>
        <time>2021-07-13T09:16:09Z</time>
      </trkpt>
      <trkpt lat="42.830835" lon="-7.705509">
        <ele>600.062</ele>
        <time>2021-07-13T09:16:11Z</time>
      </trkpt>
      <trkpt lat="42.830822" lon="-7.705502">
        <ele>600.429</ele>
        <time>2021-07-13T09:16:12Z</time>
      </trkpt>
      <trkpt lat="42.830808" lon="-7.705490">
        <ele>600.039</ele>
        <time>2021-07-13T09:16:13Z</time>
      </trkpt>
      <trkpt lat="42.830792" lon="-7.705473">
        <ele>600.033</ele>
        <time>2021-07-13T09:16:14Z</time>
      </trkpt>
      <trkpt lat="42.830770" lon="-7.705453">
        <ele>600.031</ele>
        <time>2021-07-13T09:16:15Z</time>
      </trkpt>
      <trkpt lat="42.830745" lon="-7.705433">
        <ele>599.568</ele>
        <time>2021-07-13T09:16:16Z</time>
      </trkpt>
      <trkpt lat="42.830595" lon="-7.705206">
        <ele>598.576</ele>
        <time>2021-07-13T09:16:24Z</time>
      </trkpt>
      <trkpt lat="42.830481" lon="-7.704940">
        <ele>599.085</ele>
        <time>2021-07-13T09:16:31Z</time>
      </trkpt>
      <trkpt lat="42.830312" lon="-7.704631">
        <ele>597.689</ele>
        <time>2021-07-13T09:16:39Z</time>
      </trkpt>
      <trkpt lat="42.830173" lon="-7.704298">
        <ele>596.117</ele>
        <time>2021-07-13T09:16:47Z</time>
      </trkpt>
      <trkpt lat="42.830071" lon="-7.704016">
        <ele>595.608</ele>
        <time>2021-07-13T09:16:54Z</time>
      </trkpt>
      <trkpt lat="42.829972" lon="-7.703686">
        <ele>594.285</ele>
        <time>2021-07-13T09:17:02Z</time>
      </trkpt>
      <trkpt lat="42.829905" lon="-7.703403">
        <ele>594.717</ele>
        <time>2021-07-13T09:17:10Z</time>
      </trkpt>
      <trkpt lat="42.829873" lon="-7.703182">
        <ele>595.194</ele>
        <time>2021-07-13T09:17:16Z</time>
      </trkpt>
      <trkpt lat="42.829784" lon="-7.702938">
        <ele>594.224</ele>
        <time>2021-07-13T09:17:24Z</time>
      </trkpt>
      <trkpt lat="42.829703" lon="-7.702738">
        <ele>590.848</ele>
        <time>2021-07-13T09:17:31Z</time>
      </trkpt>
      <trkpt lat="42.829666" lon="-7.702519">
        <ele>588.466</ele>
        <time>2021-07-13T09:17:38Z</time>
      </trkpt>
      <trkpt lat="42.829668" lon="-7.702304">
        <ele>587.583</ele>
        <time>2021-07-13T09:17:45Z</time>
      </trkpt>
      <trkpt lat="42.829620" lon="-7.702165">
        <ele>586.541</ele>
        <time>2021-07-13T09:17:51Z</time>
      </trkpt>
      <trkpt lat="42.829517" lon="-7.702049">
        <ele>585.587</ele>
        <time>2021-07-13T09:17:57Z</time>
      </trkpt>
      <trkpt lat="42.829281" lon="-7.701842">
        <ele>585.142</ele>
        <time>2021-07-13T09:18:06Z</time>
      </trkpt>
      <trkpt lat="42.829168" lon="-7.701741">
        <ele>585.126</ele>
        <time>2021-07-13T09:18:12Z</time>
      </trkpt>
      <trkpt lat="42.829053" lon="-7.701626">
        <ele>584.608</ele>
        <time>2021-07-13T09:18:19Z</time>
      </trkpt>
      <trkpt lat="42.828931" lon="-7.701515">
        <ele>583.135</ele>
        <time>2021-07-13T09:18:25Z</time>
      </trkpt>
      <trkpt lat="42.828787" lon="-7.701359">
        <ele>580.777</ele>
        <time>2021-07-13T09:18:33Z</time>
      </trkpt>
      <trkpt lat="42.828721" lon="-7.701257">
        <ele>579.824</ele>
        <time>2021-07-13T09:18:37Z</time>
      </trkpt>
      <trkpt lat="42.828700" lon="-7.701238">
        <ele>579.374</ele>
        <time>2021-07-13T09:18:38Z</time>
      </trkpt>
      <trkpt lat="42.828680" lon="-7.701215">
        <ele>579.348</ele>
        <time>2021-07-13T09:18:39Z</time>
      </trkpt>
      <trkpt lat="42.828663" lon="-7.701194">
        <ele>578.826</ele>
        <time>2021-07-13T09:18:40Z</time>
      </trkpt>
      <trkpt lat="42.828640" lon="-7.701165">
        <ele>578.823</ele>
        <time>2021-07-13T09:18:41Z</time>
      </trkpt>
      <trkpt lat="42.828619" lon="-7.701139">
        <ele>578.831</ele>
        <time>2021-07-13T09:18:42Z</time>
      </trkpt>
      <trkpt lat="42.828597" lon="-7.701112">
        <ele>578.339</ele>
        <time>2021-07-13T09:18:43Z</time>
      </trkpt>
      <trkpt lat="42.828578" lon="-7.701080">
        <ele>578.301</ele>
        <time>2021-07-13T09:18:44Z</time>
      </trkpt>
      <trkpt lat="42.828453" lon="-7.700865">
        <ele>577.821</ele>
        <time>2021-07-13T09:18:51Z</time>
      </trkpt>
      <trkpt lat="42.828338" lon="-7.700658">
        <ele>580.208</ele>
        <time>2021-07-13T09:18:58Z</time>
      </trkpt>
      <trkpt lat="42.828204" lon="-7.700407">
        <ele>583.160</ele>
        <time>2021-07-13T09:19:05Z</time>
      </trkpt>
      <trkpt lat="42.828081" lon="-7.700201">
        <ele>582.792</ele>
        <time>2021-07-13T09:19:12Z</time>
      </trkpt>
      <trkpt lat="42.827893" lon="-7.699980">
        <ele>580.269</ele>
        <time>2021-07-13T09:19:19Z</time>
      </trkpt>
      <trkpt lat="42.827782" lon="-7.699851">
        <ele>579.399</ele>
        <time>2021-07-13T09:19:22Z</time>
      </trkpt>
      <trkpt lat="42.827538" lon="-7.699467">
        <ele>576.973</ele>
        <time>2021-07-13T09:19:29Z</time>
      </trkpt>
      <trkpt lat="42.827501" lon="-7.699410">
        <ele>576.481</ele>
        <time>2021-07-13T09:19:30Z</time>
      </trkpt>
      <trkpt lat="42.827340" lon="-7.699217">
        <ele>574.038</ele>
        <time>2021-07-13T09:19:34Z</time>
      </trkpt>
      <trkpt lat="42.827268" lon="-7.699139">
        <ele>573.546</ele>
        <time>2021-07-13T09:19:36Z</time>
      </trkpt>
      <trkpt lat="42.827165" lon="-7.698983">
        <ele>572.656</ele>
        <time>2021-07-13T09:19:39Z</time>
      </trkpt>
      <trkpt lat="42.827125" lon="-7.698932">
        <ele>572.159</ele>
        <time>2021-07-13T09:19:40Z</time>
      </trkpt>
      <trkpt lat="42.827093" lon="-7.698882">
        <ele>572.114</ele>
        <time>2021-07-13T09:19:41Z</time>
      </trkpt>
      <trkpt lat="42.827063" lon="-7.698825">
        <ele>571.608</ele>
        <time>2021-07-13T09:19:42Z</time>
      </trkpt>
      <trkpt lat="42.827034" lon="-7.698769">
        <ele>571.172</ele>
        <time>2021-07-13T09:19:43Z</time>
      </trkpt>
      <trkpt lat="42.827006" lon="-7.698712">
        <ele>570.694</ele>
        <time>2021-07-13T09:19:44Z</time>
      </trkpt>
      <trkpt lat="42.826863" lon="-7.698418">
        <ele>567.851</ele>
        <time>2021-07-13T09:19:50Z</time>
      </trkpt>
      <trkpt lat="42.826793" lon="-7.698290">
        <ele>566.361</ele>
        <time>2021-07-13T09:19:55Z</time>
      </trkpt>
      <trkpt lat="42.826757" lon="-7.698222">
        <ele>565.385</ele>
        <time>2021-07-13T09:20:05Z</time>
      </trkpt>
      <trkpt lat="42.826756" lon="-7.698194">
        <ele>565.363</ele>
        <time>2021-07-13T09:20:06Z</time>
      </trkpt>
      <trkpt lat="42.826763" lon="-7.698140">
        <ele>565.320</ele>
        <time>2021-07-13T09:20:08Z</time>
      </trkpt>
      <trkpt lat="42.826872" lon="-7.697820">
        <ele>564.448</ele>
        <time>2021-07-13T09:20:16Z</time>
      </trkpt>
      <trkpt lat="42.826906" lon="-7.697706">
        <ele>563.996</ele>
        <time>2021-07-13T09:20:18Z</time>
      </trkpt>
      <trkpt lat="42.826917" lon="-7.697644">
        <ele>563.931</ele>
        <time>2021-07-13T09:20:19Z</time>
      </trkpt>
      <trkpt lat="42.826950" lon="-7.697295">
        <ele>563.924</ele>
        <time>2021-07-13T09:20:26Z</time>
      </trkpt>
      <trkpt lat="42.826965" lon="-7.697088">
        <ele>564.908</ele>
        <time>2021-07-13T09:20:33Z</time>
      </trkpt>
      <trkpt lat="42.826892" lon="-7.696937">
        <ele>563.966</ele>
        <time>2021-07-13T09:20:38Z</time>
      </trkpt>
      <trkpt lat="42.826625" lon="-7.696489">
        <ele>562.528</ele>
        <time>2021-07-13T09:20:48Z</time>
      </trkpt>
      <trkpt lat="42.826340" lon="-7.695939">
        <ele>559.615</ele>
        <time>2021-07-13T09:21:00Z</time>
      </trkpt>
      <trkpt lat="42.826170" lon="-7.695456">
        <ele>558.625</ele>
        <time>2021-07-13T09:21:08Z</time>
      </trkpt>
      <trkpt lat="42.825979" lon="-7.694865">
        <ele>556.749</ele>
        <time>2021-07-13T09:21:16Z</time>
      </trkpt>
      <trkpt lat="42.825731" lon="-7.694056">
        <ele>554.387</ele>
        <time>2021-07-13T09:21:26Z</time>
      </trkpt>
      <trkpt lat="42.825531" lon="-7.693336">
        <ele>552.474</ele>
        <time>2021-07-13T09:21:35Z</time>
      </trkpt>
      <trkpt lat="42.825475" lon="-7.693112">
        <ele>552.432</ele>
        <time>2021-07-13T09:21:38Z</time>
      </trkpt>
      <trkpt lat="42.825448" lon="-7.693039">
        <ele>551.948</ele>
        <time>2021-07-13T09:21:39Z</time>
      </trkpt>
      <trkpt lat="42.825417" lon="-7.692966">
        <ele>551.961</ele>
        <time>2021-07-13T09:21:40Z</time>
      </trkpt>
      <trkpt lat="42.825229" lon="-7.692422">
        <ele>550.417</ele>
        <time>2021-07-13T09:21:47Z</time>
      </trkpt>
      <trkpt lat="42.825056" lon="-7.691854">
        <ele>549.008</ele>
        <time>2021-07-13T09:21:54Z</time>
      </trkpt>
      <trkpt lat="42.824842" lon="-7.691136">
        <ele>545.611</ele>
        <time>2021-07-13T09:22:02Z</time>
      </trkpt>
      <trkpt lat="42.824610" lon="-7.690522">
        <ele>541.863</ele>
        <time>2021-07-13T09:22:08Z</time>
      </trkpt>
      <trkpt lat="42.824231" lon="-7.689749">
        <ele>538.920</ele>
        <time>2021-07-13T09:22:16Z</time>
      </trkpt>
      <trkpt lat="42.823771" lon="-7.688929">
        <ele>536.070</ele>
        <time>2021-07-13T09:22:25Z</time>
      </trkpt>
      <trkpt lat="42.823305" lon="-7.688091">
        <ele>533.674</ele>
        <time>2021-07-13T09:22:34Z</time>
      </trkpt>
      <trkpt lat="42.822928" lon="-7.687447">
        <ele>533.652</ele>
        <time>2021-07-13T09:22:42Z</time>
      </trkpt>
      <trkpt lat="42.822756" lon="-7.687148">
        <ele>535.179</ele>
        <time>2021-07-13T09:22:48Z</time>
      </trkpt>
      <trkpt lat="42.822563" lon="-7.686825">
        <ele>537.527</ele>
        <time>2021-07-13T09:22:58Z</time>
      </trkpt>
      <trkpt lat="42.822401" lon="-7.686526">
        <ele>539.929</ele>
        <time>2021-07-13T09:23:07Z</time>
      </trkpt>
      <trkpt lat="42.822271" lon="-7.686198">
        <ele>541.300</ele>
        <time>2021-07-13T09:23:16Z</time>
      </trkpt>
      <trkpt lat="42.822172" lon="-7.685824">
        <ele>542.820</ele>
        <time>2021-07-13T09:23:26Z</time>
      </trkpt>
      <trkpt lat="42.822143" lon="-7.685684">
        <ele>543.208</ele>
        <time>2021-07-13T09:23:34Z</time>
      </trkpt>
      <trkpt lat="42.822108" lon="-7.685460">
        <ele>543.759</ele>
        <time>2021-07-13T09:23:41Z</time>
      </trkpt>
      <trkpt lat="42.822043" lon="-7.685060">
        <ele>543.791</ele>
        <time>2021-07-13T09:23:50Z</time>
      </trkpt>
      <trkpt lat="42.821979" lon="-7.684654">
        <ele>543.738</ele>
        <time>2021-07-13T09:23:59Z</time>
      </trkpt>
      <trkpt lat="42.821885" lon="-7.684061">
        <ele>542.898</ele>
        <time>2021-07-13T09:24:11Z</time>
      </trkpt>
      <trkpt lat="42.821798" lon="-7.683468">
        <ele>541.882</ele>
        <time>2021-07-13T09:24:21Z</time>
      </trkpt>
      <trkpt lat="42.821703" lon="-7.682784">
        <ele>540.880</ele>
        <time>2021-07-13T09:24:32Z</time>
      </trkpt>
      <trkpt lat="42.821639" lon="-7.682385">
        <ele>541.897</ele>
        <time>2021-07-13T09:24:40Z</time>
      </trkpt>
      <trkpt lat="42.821567" lon="-7.681957">
        <ele>543.715</ele>
        <time>2021-07-13T09:24:49Z</time>
      </trkpt>
      <trkpt lat="42.821501" lon="-7.681526">
        <ele>544.778</ele>
        <time>2021-07-13T09:24:58Z</time>
      </trkpt>
      <trkpt lat="42.821439" lon="-7.681107">
        <ele>546.133</ele>
        <time>2021-07-13T09:25:08Z</time>
      </trkpt>
      <trkpt lat="42.821371" lon="-7.680714">
        <ele>546.126</ele>
        <time>2021-07-13T09:25:18Z</time>
      </trkpt>
      <trkpt lat="42.821314" lon="-7.680337">
        <ele>547.608</ele>
        <time>2021-07-13T09:25:28Z</time>
      </trkpt>
      <trkpt lat="42.821252" lon="-7.679948">
        <ele>549.034</ele>
        <time>2021-07-13T09:25:38Z</time>
      </trkpt>
      <trkpt lat="42.821157" lon="-7.679498">
        <ele>550.026</ele>
        <time>2021-07-13T09:25:50Z</time>
      </trkpt>
      <trkpt lat="42.821051" lon="-7.679145">
        <ele>550.463</ele>
        <time>2021-07-13T09:25:59Z</time>
      </trkpt>
      <trkpt lat="42.820903" lon="-7.678818">
        <ele>550.433</ele>
        <time>2021-07-13T09:26:08Z</time>
      </trkpt>
      <trkpt lat="42.820705" lon="-7.678440">
        <ele>549.527</ele>
        <time>2021-07-13T09:26:17Z</time>
      </trkpt>
      <trkpt lat="42.820447" lon="-7.678003">
        <ele>549.055</ele>
        <time>2021-07-13T09:26:26Z</time>
      </trkpt>
      <trkpt lat="42.820207" lon="-7.677580">
        <ele>548.012</ele>
        <time>2021-07-13T09:26:34Z</time>
      </trkpt>
      <trkpt lat="42.819943" lon="-7.677083">
        <ele>548.520</ele>
        <time>2021-07-13T09:26:44Z</time>
      </trkpt>
      <trkpt lat="42.819706" lon="-7.676639">
        <ele>549.036</ele>
        <time>2021-07-13T09:26:53Z</time>
      </trkpt>
      <trkpt lat="42.819423" lon="-7.676118">
        <ele>550.017</ele>
        <time>2021-07-13T09:27:04Z</time>
      </trkpt>
      <trkpt lat="42.819162" lon="-7.675632">
        <ele>551.418</ele>
        <time>2021-07-13T09:27:14Z</time>
      </trkpt>
      <trkpt lat="42.818950" lon="-7.675242">
        <ele>552.408</ele>
        <time>2021-07-13T09:27:22Z</time>
      </trkpt>
      <trkpt lat="42.818693" lon="-7.674778">
        <ele>553.340</ele>
        <time>2021-07-13T09:27:32Z</time>
      </trkpt>
      <trkpt lat="42.818383" lon="-7.674212">
        <ele>553.882</ele>
        <time>2021-07-13T09:27:44Z</time>
      </trkpt>
      <trkpt lat="42.818146" lon="-7.673784">
        <ele>553.399</ele>
        <time>2021-07-13T09:27:53Z</time>
      </trkpt>
      <trkpt lat="42.817861" lon="-7.673280">
        <ele>552.449</ele>
        <time>2021-07-13T09:28:04Z</time>
      </trkpt>
      <trkpt lat="42.817632" lon="-7.672866">
        <ele>550.943</ele>
        <time>2021-07-13T09:28:12Z</time>
      </trkpt>
      <trkpt lat="42.817400" lon="-7.672450">
        <ele>548.571</ele>
        <time>2021-07-13T09:28:20Z</time>
      </trkpt>
      <trkpt lat="42.817151" lon="-7.672014">
        <ele>546.148</ele>
        <time>2021-07-13T09:28:27Z</time>
      </trkpt>
      <trkpt lat="42.816835" lon="-7.671446">
        <ele>543.226</ele>
        <time>2021-07-13T09:28:34Z</time>
      </trkpt>
      <trkpt lat="42.816249" lon="-7.670400">
        <ele>540.453</ele>
        <time>2021-07-13T09:28:46Z</time>
      </trkpt>
      <trkpt lat="42.815963" lon="-7.669868">
        <ele>538.404</ele>
        <time>2021-07-13T09:28:53Z</time>
      </trkpt>
      <trkpt lat="42.815583" lon="-7.669101">
        <ele>536.514</ele>
        <time>2021-07-13T09:29:03Z</time>
      </trkpt>
      <trkpt lat="42.815224" lon="-7.668334">
        <ele>534.608</ele>
        <time>2021-07-13T09:29:12Z</time>
      </trkpt>
      <trkpt lat="42.814856" lon="-7.667487">
        <ele>530.752</ele>
        <time>2021-07-13T09:29:21Z</time>
      </trkpt>
      <trkpt lat="42.814541" lon="-7.666783">
        <ele>525.924</ele>
        <time>2021-07-13T09:29:27Z</time>
      </trkpt>
      <trkpt lat="42.814059" lon="-7.665725">
        <ele>518.741</ele>
        <time>2021-07-13T09:29:35Z</time>
      </trkpt>
      <trkpt lat="42.813591" lon="-7.664682">
        <ele>511.091</ele>
        <time>2021-07-13T09:29:42Z</time>
      </trkpt>
      <trkpt lat="42.813144" lon="-7.663690">
        <ele>504.355</ele>
        <time>2021-07-13T09:29:49Z</time>
      </trkpt>
      <trkpt lat="42.812746" lon="-7.662578">
        <ele>496.633</ele>
        <time>2021-07-13T09:29:56Z</time>
      </trkpt>
      <trkpt lat="42.812550" lon="-7.661483">
        <ele>493.710</ele>
        <time>2021-07-13T09:30:03Z</time>
      </trkpt>
      <trkpt lat="42.812426" lon="-7.660709">
        <ele>493.288</ele>
        <time>2021-07-13T09:30:09Z</time>
      </trkpt>
      <trkpt lat="42.812273" lon="-7.659772">
        <ele>492.857</ele>
        <time>2021-07-13T09:30:18Z</time>
      </trkpt>
      <trkpt lat="42.812121" lon="-7.658815">
        <ele>491.300</ele>
        <time>2021-07-13T09:30:28Z</time>
      </trkpt>
      <trkpt lat="42.812020" lon="-7.658121">
        <ele>488.920</ele>
        <time>2021-07-13T09:30:35Z</time>
      </trkpt>
      <trkpt lat="42.811956" lon="-7.657252">
        <ele>484.608</ele>
        <time>2021-07-13T09:30:42Z</time>
      </trkpt>
      <trkpt lat="42.811928" lon="-7.656234">
        <ele>480.342</ele>
        <time>2021-07-13T09:30:49Z</time>
      </trkpt>
      <trkpt lat="42.811896" lon="-7.655046">
        <ele>475.574</ele>
        <time>2021-07-13T09:30:57Z</time>
      </trkpt>
      <trkpt lat="42.811858" lon="-7.653736">
        <ele>473.561</ele>
        <time>2021-07-13T09:31:07Z</time>
      </trkpt>
      <trkpt lat="42.811834" lon="-7.652971">
        <ele>473.171</ele>
        <time>2021-07-13T09:31:14Z</time>
      </trkpt>
      <trkpt lat="42.811815" lon="-7.652280">
        <ele>472.635</ele>
        <time>2021-07-13T09:31:22Z</time>
      </trkpt>
      <trkpt lat="42.811790" lon="-7.651657">
        <ele>472.193</ele>
        <time>2021-07-13T09:31:31Z</time>
      </trkpt>
      <trkpt lat="42.811777" lon="-7.651121">
        <ele>470.710</ele>
        <time>2021-07-13T09:31:38Z</time>
      </trkpt>
      <trkpt lat="42.811754" lon="-7.650445">
        <ele>468.398</ele>
        <time>2021-07-13T09:31:45Z</time>
      </trkpt>
      <trkpt lat="42.811728" lon="-7.649531">
        <ele>464.443</ele>
        <time>2021-07-13T09:31:53Z</time>
      </trkpt>
      <trkpt lat="42.811683" lon="-7.648273">
        <ele>460.664</ele>
        <time>2021-07-13T09:32:03Z</time>
      </trkpt>
      <trkpt lat="42.811651" lon="-7.647265">
        <ele>459.610</ele>
        <time>2021-07-13T09:32:12Z</time>
      </trkpt>
      <trkpt lat="42.811606" lon="-7.646302">
        <ele>458.208</ele>
        <time>2021-07-13T09:32:22Z</time>
      </trkpt>
      <trkpt lat="42.811588" lon="-7.646201">
        <ele>457.761</ele>
        <time>2021-07-13T09:32:23Z</time>
      </trkpt>
      <trkpt lat="42.811566" lon="-7.646104">
        <ele>457.733</ele>
        <time>2021-07-13T09:32:24Z</time>
      </trkpt>
      <trkpt lat="42.811535" lon="-7.645997">
        <ele>457.750</ele>
        <time>2021-07-13T09:32:25Z</time>
      </trkpt>
      <trkpt lat="42.811514" lon="-7.645937">
        <ele>457.770</ele>
        <time>2021-07-13T09:32:26Z</time>
      </trkpt>
      <trkpt lat="42.811449" lon="-7.645768">
        <ele>457.294</ele>
        <time>2021-07-13T09:32:28Z</time>
      </trkpt>
      <trkpt lat="42.811145" lon="-7.645180">
        <ele>456.762</ele>
        <time>2021-07-13T09:32:36Z</time>
      </trkpt>
      <trkpt lat="42.811009" lon="-7.644927">
        <ele>456.719</ele>
        <time>2021-07-13T09:32:41Z</time>
      </trkpt>
      <trkpt lat="42.810986" lon="-7.644891">
        <ele>456.777</ele>
        <time>2021-07-13T09:32:42Z</time>
      </trkpt>
      <trkpt lat="42.810964" lon="-7.644845">
        <ele>456.769</ele>
        <time>2021-07-13T09:32:43Z</time>
      </trkpt>
      <trkpt lat="42.810943" lon="-7.644802">
        <ele>456.704</ele>
        <time>2021-07-13T09:32:44Z</time>
      </trkpt>
      <trkpt lat="42.810921" lon="-7.644764">
        <ele>456.724</ele>
        <time>2021-07-13T09:32:45Z</time>
      </trkpt>
      <trkpt lat="42.810894" lon="-7.644724">
        <ele>456.708</ele>
        <time>2021-07-13T09:32:46Z</time>
      </trkpt>
      <trkpt lat="42.810872" lon="-7.644688">
        <ele>456.263</ele>
        <time>2021-07-13T09:32:47Z</time>
      </trkpt>
      <trkpt lat="42.810847" lon="-7.644644">
        <ele>456.745</ele>
        <time>2021-07-13T09:32:48Z</time>
      </trkpt>
      <trkpt lat="42.810632" lon="-7.644256">
        <ele>457.272</ele>
        <time>2021-07-13T09:32:58Z</time>
      </trkpt>
      <trkpt lat="42.810441" lon="-7.643941">
        <ele>457.762</ele>
        <time>2021-07-13T09:33:06Z</time>
      </trkpt>
      <trkpt lat="42.810214" lon="-7.643534">
        <ele>459.196</ele>
        <time>2021-07-13T09:33:16Z</time>
      </trkpt>
      <trkpt lat="42.810020" lon="-7.643188">
        <ele>460.644</ele>
        <time>2021-07-13T09:33:25Z</time>
      </trkpt>
      <trkpt lat="42.809801" lon="-7.642825">
        <ele>461.591</ele>
        <time>2021-07-13T09:33:34Z</time>
      </trkpt>
      <trkpt lat="42.809556" lon="-7.642405">
        <ele>461.549</ele>
        <time>2021-07-13T09:33:44Z</time>
      </trkpt>
      <trkpt lat="42.809365" lon="-7.642078">
        <ele>460.643</ele>
        <time>2021-07-13T09:33:52Z</time>
      </trkpt>
      <trkpt lat="42.809245" lon="-7.641846">
        <ele>461.564</ele>
        <time>2021-07-13T09:33:58Z</time>
      </trkpt>
      <trkpt lat="42.809152" lon="-7.641755">
        <ele>461.510</ele>
        <time>2021-07-13T09:34:05Z</time>
      </trkpt>
      <trkpt lat="42.809024" lon="-7.641542">
        <ele>460.608</ele>
        <time>2021-07-13T09:34:12Z</time>
      </trkpt>
      <trkpt lat="42.808888" lon="-7.641312">
        <ele>459.121</ele>
        <time>2021-07-13T09:34:19Z</time>
      </trkpt>
      <trkpt lat="42.808703" lon="-7.641032">
        <ele>455.833</ele>
        <time>2021-07-13T09:34:26Z</time>
      </trkpt>
      <trkpt lat="42.808529" lon="-7.640722">
        <ele>453.490</ele>
        <time>2021-07-13T09:34:32Z</time>
      </trkpt>
      <trkpt lat="42.808384" lon="-7.640448">
        <ele>451.940</ele>
        <time>2021-07-13T09:34:39Z</time>
      </trkpt>
      <trkpt lat="42.808290" lon="-7.640305">
        <ele>451.024</ele>
        <time>2021-07-13T09:34:45Z</time>
      </trkpt>
      <trkpt lat="42.808162" lon="-7.640097">
        <ele>450.012</ele>
        <time>2021-07-13T09:34:52Z</time>
      </trkpt>
      <trkpt lat="42.808014" lon="-7.639840">
        <ele>448.549</ele>
        <time>2021-07-13T09:34:59Z</time>
      </trkpt>
      <trkpt lat="42.807832" lon="-7.639601">
        <ele>447.197</ele>
        <time>2021-07-13T09:35:06Z</time>
      </trkpt>
      <trkpt lat="42.807792" lon="-7.639577">
        <ele>446.678</ele>
        <time>2021-07-13T09:35:07Z</time>
      </trkpt>
      <trkpt lat="42.807748" lon="-7.639562">
        <ele>446.133</ele>
        <time>2021-07-13T09:35:08Z</time>
      </trkpt>
      <trkpt lat="42.807701" lon="-7.639553">
        <ele>446.126</ele>
        <time>2021-07-13T09:35:09Z</time>
      </trkpt>
      <trkpt lat="42.807655" lon="-7.639547">
        <ele>445.708</ele>
        <time>2021-07-13T09:35:10Z</time>
      </trkpt>
      <trkpt lat="42.807559" lon="-7.639539">
        <ele>445.274</ele>
        <time>2021-07-13T09:35:12Z</time>
      </trkpt>
      <trkpt lat="42.807390" lon="-7.639495">
        <ele>445.226</ele>
        <time>2021-07-13T09:35:16Z</time>
      </trkpt>
      <trkpt lat="42.807211" lon="-7.639361">
        <ele>445.773</ele>
        <time>2021-07-13T09:35:22Z</time>
      </trkpt>
      <trkpt lat="42.807048" lon="-7.639102">
        <ele>446.693</ele>
        <time>2021-07-13T09:35:30Z</time>
      </trkpt>
      <trkpt lat="42.806930" lon="-7.638821">
        <ele>447.177</ele>
        <time>2021-07-13T09:35:37Z</time>
      </trkpt>
      <trkpt lat="42.806858" lon="-7.638589">
        <ele>446.635</ele>
        <time>2021-07-13T09:35:43Z</time>
      </trkpt>
      <trkpt lat="42.806780" lon="-7.638203">
        <ele>448.192</ele>
        <time>2021-07-13T09:35:50Z</time>
      </trkpt>
      <trkpt lat="42.806669" lon="-7.637809">
        <ele>448.160</ele>
        <time>2021-07-13T09:35:58Z</time>
      </trkpt>
      <trkpt lat="42.806609" lon="-7.637433">
        <ele>447.652</ele>
        <time>2021-07-13T09:36:06Z</time>
      </trkpt>
      <trkpt lat="42.806595" lon="-7.637003">
        <ele>448.153</ele>
        <time>2021-07-13T09:36:15Z</time>
      </trkpt>
      <trkpt lat="42.806656" lon="-7.636633">
        <ele>448.108</ele>
        <time>2021-07-13T09:36:23Z</time>
      </trkpt>
      <trkpt lat="42.806785" lon="-7.636304">
        <ele>449.508</ele>
        <time>2021-07-13T09:36:32Z</time>
      </trkpt>
      <trkpt lat="42.806914" lon="-7.635969">
        <ele>450.062</ele>
        <time>2021-07-13T09:36:41Z</time>
      </trkpt>
      <trkpt lat="42.807021" lon="-7.635632">
        <ele>451.474</ele>
        <time>2021-07-13T09:36:51Z</time>
      </trkpt>
      <trkpt lat="42.807116" lon="-7.635294">
        <ele>451.981</ele>
        <time>2021-07-13T09:37:01Z</time>
      </trkpt>
      <trkpt lat="42.807128" lon="-7.635265">
        <ele>451.431</ele>
        <time>2021-07-13T09:37:02Z</time>
      </trkpt>
      <trkpt lat="42.807135" lon="-7.635237">
        <ele>451.435</ele>
        <time>2021-07-13T09:37:03Z</time>
      </trkpt>
      <trkpt lat="42.807227" lon="-7.634924">
        <ele>451.033</ele>
        <time>2021-07-13T09:37:13Z</time>
      </trkpt>
      <trkpt lat="42.807341" lon="-7.634587">
        <ele>451.920</ele>
        <time>2021-07-13T09:37:22Z</time>
      </trkpt>
      <trkpt lat="42.807423" lon="-7.634422">
        <ele>452.958</ele>
        <time>2021-07-13T09:37:29Z</time>
      </trkpt>
      <trkpt lat="42.807524" lon="-7.634262">
        <ele>451.938</ele>
        <time>2021-07-13T09:37:36Z</time>
      </trkpt>
      <trkpt lat="42.807592" lon="-7.634001">
        <ele>452.470</ele>
        <time>2021-07-13T09:37:43Z</time>
      </trkpt>
      <trkpt lat="42.807569" lon="-7.633622">
        <ele>450.517</ele>
        <time>2021-07-13T09:37:51Z</time>
      </trkpt>
      <trkpt lat="42.807464" lon="-7.633285">
        <ele>447.608</ele>
        <time>2021-07-13T09:37:59Z</time>
      </trkpt>
      <trkpt lat="42.807323" lon="-7.632903">
        <ele>442.820</ele>
        <time>2021-07-13T09:38:08Z</time>
      </trkpt>
      <trkpt lat="42.807191" lon="-7.632545">
        <ele>438.532</ele>
        <time>2021-07-13T09:38:16Z</time>
      </trkpt>
      <trkpt lat="42.807101" lon="-7.632370">
        <ele>436.589</ele>
        <time>2021-07-13T09:38:22Z</time>
      </trkpt>
      <trkpt lat="42.807090" lon="-7.632369">
        <ele>436.169</ele>
        <time>2021-07-13T09:38:31Z</time>
      </trkpt>
      <trkpt lat="42.807082" lon="-7.632347">
        <ele>436.133</ele>
        <time>2021-07-13T09:38:33Z</time>
      </trkpt>
      <trkpt lat="42.807075" lon="-7.632329">
        <ele>436.141</ele>
        <time>2021-07-13T09:38:34Z</time>
      </trkpt>
      <trkpt lat="42.807064" lon="-7.632307">
        <ele>436.148</ele>
        <time>2021-07-13T09:38:35Z</time>
      </trkpt>
      <trkpt lat="42.806952" lon="-7.632136">
        <ele>433.646</ele>
        <time>2021-07-13T09:38:42Z</time>
      </trkpt>
      <trkpt lat="42.806785" lon="-7.631960">
        <ele>428.838</ele>
        <time>2021-07-13T09:38:49Z</time>
      </trkpt>
      <trkpt lat="42.806646" lon="-7.631787">
        <ele>426.470</ele>
        <time>2021-07-13T09:38:56Z</time>
      </trkpt>
      <trkpt lat="42.806537" lon="-7.631626">
        <ele>423.617</ele>
        <time>2021-07-13T09:39:02Z</time>
      </trkpt>
      <trkpt lat="42.806459" lon="-7.631461">
        <ele>423.608</ele>
        <time>2021-07-13T09:39:08Z</time>
      </trkpt>
      <trkpt lat="42.806435" lon="-7.631400">
        <ele>424.070</ele>
        <time>2021-07-13T09:39:12Z</time>
      </trkpt>
      <trkpt lat="42.806442" lon="-7.631380">
        <ele>425.542</ele>
        <time>2021-07-13T09:39:28Z</time>
      </trkpt>
      <trkpt lat="42.806410" lon="-7.631337">
        <ele>426.439</ele>
        <time>2021-07-13T09:39:47Z</time>
      </trkpt>
      <trkpt lat="42.806287" lon="-7.631140">
        <ele>423.629</ele>
        <time>2021-07-13T09:39:53Z</time>
      </trkpt>
      <trkpt lat="42.806147" lon="-7.630890">
        <ele>421.123</ele>
        <time>2021-07-13T09:40:00Z</time>
      </trkpt>
      <trkpt lat="42.806062" lon="-7.630675">
        <ele>421.161</ele>
        <time>2021-07-13T09:40:07Z</time>
      </trkpt>
      <trkpt lat="42.806028" lon="-7.630429">
        <ele>421.118</ele>
        <time>2021-07-13T09:40:13Z</time>
      </trkpt>
      <trkpt lat="42.806021" lon="-7.630129">
        <ele>421.676</ele>
        <time>2021-07-13T09:40:18Z</time>
      </trkpt>
      <trkpt lat="42.806011" lon="-7.630059">
        <ele>421.642</ele>
        <time>2021-07-13T09:40:19Z</time>
      </trkpt>
      <trkpt lat="42.805940" lon="-7.629700">
        <ele>421.622</ele>
        <time>2021-07-13T09:40:25Z</time>
      </trkpt>
      <trkpt lat="42.805915" lon="-7.629625">
        <ele>419.714</ele>
        <time>2021-07-13T09:40:32Z</time>
      </trkpt>
      <trkpt lat="42.805902" lon="-7.629538">
        <ele>422.108</ele>
        <time>2021-07-13T09:40:42Z</time>
      </trkpt>
      <trkpt lat="42.805906" lon="-7.629517">
        <ele>420.751</ele>
        <time>2021-07-13T09:41:02Z</time>
      </trkpt>
      <trkpt lat="42.805929" lon="-7.629514">
        <ele>422.663</ele>
        <time>2021-07-13T09:41:25Z</time>
      </trkpt>
      <trkpt lat="42.805887" lon="-7.629446">
        <ele>420.730</ele>
        <time>2021-07-13T09:41:33Z</time>
      </trkpt>
      <trkpt lat="42.805803" lon="-7.629281">
        <ele>418.750</ele>
        <time>2021-07-13T09:41:38Z</time>
      </trkpt>
      <trkpt lat="42.805717" lon="-7.629111">
        <ele>416.374</ele>
        <time>2021-07-13T09:41:44Z</time>
      </trkpt>
      <trkpt lat="42.805645" lon="-7.628953">
        <ele>414.492</ele>
        <time>2021-07-13T09:41:50Z</time>
      </trkpt>
      <trkpt lat="42.805549" lon="-7.628704">
        <ele>413.019</ele>
        <time>2021-07-13T09:41:56Z</time>
      </trkpt>
      <trkpt lat="42.805503" lon="-7.628506">
        <ele>412.517</ele>
        <time>2021-07-13T09:42:02Z</time>
      </trkpt>
      <trkpt lat="42.805465" lon="-7.628279">
        <ele>410.679</ele>
        <time>2021-07-13T09:42:09Z</time>
      </trkpt>
      <trkpt lat="42.805417" lon="-7.628051">
        <ele>409.105</ele>
        <time>2021-07-13T09:42:16Z</time>
      </trkpt>
      <trkpt lat="42.805371" lon="-7.627816">
        <ele>408.725</ele>
        <time>2021-07-13T09:42:22Z</time>
      </trkpt>
      <trkpt lat="42.805298" lon="-7.627616">
        <ele>407.708</ele>
        <time>2021-07-13T09:42:29Z</time>
      </trkpt>
      <trkpt lat="42.805240" lon="-7.627333">
        <ele>406.714</ele>
        <time>2021-07-13T09:42:36Z</time>
      </trkpt>
      <trkpt lat="42.805189" lon="-7.627074">
        <ele>405.326</ele>
        <time>2021-07-13T09:42:42Z</time>
      </trkpt>
      <trkpt lat="42.805136" lon="-7.626816">
        <ele>403.843</ele>
        <time>2021-07-13T09:42:47Z</time>
      </trkpt>
      <trkpt lat="42.805104" lon="-7.626515">
        <ele>400.543</ele>
        <time>2021-07-13T09:42:54Z</time>
      </trkpt>
      <trkpt lat="42.805085" lon="-7.626166">
        <ele>400.027</ele>
        <time>2021-07-13T09:43:00Z</time>
      </trkpt>
      <trkpt lat="42.805069" lon="-7.626014">
        <ele>400.015</ele>
        <time>2021-07-13T09:43:02Z</time>
      </trkpt>
      <trkpt lat="42.804981" lon="-7.625770">
        <ele>399.082</ele>
        <time>2021-07-13T09:43:07Z</time>
      </trkpt>
      <trkpt lat="42.804849" lon="-7.625550">
        <ele>394.740</ele>
        <time>2021-07-13T09:43:15Z</time>
      </trkpt>
      <trkpt lat="42.804751" lon="-7.625366">
        <ele>392.373</ele>
        <time>2021-07-13T09:43:22Z</time>
      </trkpt>
      <trkpt lat="42.804699" lon="-7.625190">
        <ele>391.385</ele>
        <time>2021-07-13T09:43:28Z</time>
      </trkpt>
      <trkpt lat="42.804693" lon="-7.625128">
        <ele>391.313</ele>
        <time>2021-07-13T09:43:30Z</time>
      </trkpt>
      <trkpt lat="42.804696" lon="-7.625099">
        <ele>391.308</ele>
        <time>2021-07-13T09:43:31Z</time>
      </trkpt>
      <trkpt lat="42.804700" lon="-7.625068">
        <ele>391.824</ele>
        <time>2021-07-13T09:43:32Z</time>
      </trkpt>
      <trkpt lat="42.804705" lon="-7.625038">
        <ele>392.386</ele>
        <time>2021-07-13T09:43:33Z</time>
      </trkpt>
      <trkpt lat="42.804708" lon="-7.625007">
        <ele>392.353</ele>
        <time>2021-07-13T09:43:34Z</time>
      </trkpt>
      <trkpt lat="42.804710" lon="-7.624975">
        <ele>393.313</ele>
        <time>2021-07-13T09:43:35Z</time>
      </trkpt>
      <trkpt lat="42.804704" lon="-7.624876">
        <ele>394.797</ele>
        <time>2021-07-13T09:43:41Z</time>
      </trkpt>
      <trkpt lat="42.804699" lon="-7.624875">
        <ele>394.295</ele>
        <time>2021-07-13T09:43:58Z</time>
      </trkpt>
      <trkpt lat="42.804694" lon="-7.624860">
        <ele>395.772</ele>
        <time>2021-07-13T09:44:16Z</time>
      </trkpt>
      <trkpt lat="42.804682" lon="-7.624886">
        <ele>394.780</ele>
        <time>2021-07-13T09:44:33Z</time>
      </trkpt>
      <trkpt lat="42.804679" lon="-7.624857">
        <ele>395.277</ele>
        <time>2021-07-13T09:44:49Z</time>
      </trkpt>
      <trkpt lat="42.804683" lon="-7.624860">
        <ele>395.761</ele>
        <time>2021-07-13T09:45:00Z</time>
      </trkpt>
      <trkpt lat="42.804705" lon="-7.624835">
        <ele>396.227</ele>
        <time>2021-07-13T09:45:14Z</time>
      </trkpt>
      <trkpt lat="42.804742" lon="-7.624710">
        <ele>395.208</ele>
        <time>2021-07-13T09:45:19Z</time>
      </trkpt>
      <trkpt lat="42.804689" lon="-7.624386">
        <ele>392.874</ele>
        <time>2021-07-13T09:45:28Z</time>
      </trkpt>
      <trkpt lat="42.804659" lon="-7.624122">
        <ele>390.946</ele>
        <time>2021-07-13T09:45:35Z</time>
      </trkpt>
      <trkpt lat="42.804649" lon="-7.623877">
        <ele>389.473</ele>
        <time>2021-07-13T09:45:43Z</time>
      </trkpt>
      <trkpt lat="42.804678" lon="-7.623730">
        <ele>387.553</ele>
        <time>2021-07-13T09:45:50Z</time>
      </trkpt>
      <trkpt lat="42.804722" lon="-7.623476">
        <ele>384.167</ele>
        <time>2021-07-13T09:45:59Z</time>
      </trkpt>
      <trkpt lat="42.804772" lon="-7.623324">
        <ele>382.755</ele>
        <time>2021-07-13T09:46:05Z</time>
      </trkpt>
      <trkpt lat="42.804897" lon="-7.623001">
        <ele>380.842</ele>
        <time>2021-07-13T09:46:12Z</time>
      </trkpt>
      <trkpt lat="42.804971" lon="-7.622757">
        <ele>378.450</ele>
        <time>2021-07-13T09:46:19Z</time>
      </trkpt>
      <trkpt lat="42.805047" lon="-7.622486">
        <ele>374.519</ele>
        <time>2021-07-13T09:46:27Z</time>
      </trkpt>
      <trkpt lat="42.805103" lon="-7.622304">
        <ele>370.709</ele>
        <time>2021-07-13T09:46:34Z</time>
      </trkpt>
      <trkpt lat="42.805211" lon="-7.622063">
        <ele>367.319</ele>
        <time>2021-07-13T09:46:42Z</time>
      </trkpt>
      <trkpt lat="42.805258" lon="-7.621900">
        <ele>365.408</ele>
        <time>2021-07-13T09:46:47Z</time>
      </trkpt>
      <trkpt lat="42.805237" lon="-7.621751">
        <ele>363.068</ele>
        <time>2021-07-13T09:46:53Z</time>
      </trkpt>
      <trkpt lat="42.805241" lon="-7.621510">
        <ele>361.140</ele>
        <time>2021-07-13T09:47:00Z</time>
      </trkpt>
      <trkpt lat="42.805264" lon="-7.621201">
        <ele>359.697</ele>
        <time>2021-07-13T09:47:07Z</time>
      </trkpt>
      <trkpt lat="42.805338" lon="-7.620976">
        <ele>358.797</ele>
        <time>2021-07-13T09:47:11Z</time>
      </trkpt>
      <trkpt lat="42.805447" lon="-7.620648">
        <ele>356.351</ele>
        <time>2021-07-13T09:47:18Z</time>
      </trkpt>
      <trkpt lat="42.805474" lon="-7.620323">
        <ele>355.399</ele>
        <time>2021-07-13T09:47:25Z</time>
      </trkpt>
      <trkpt lat="42.805395" lon="-7.620128">
        <ele>355.366</ele>
        <time>2021-07-13T09:47:32Z</time>
      </trkpt>
      <trkpt lat="42.805322" lon="-7.619918">
        <ele>355.894</ele>
        <time>2021-07-13T09:47:40Z</time>
      </trkpt>
      <trkpt lat="42.805329" lon="-7.619873">
        <ele>355.864</ele>
        <time>2021-07-13T09:47:42Z</time>
      </trkpt>
      <trkpt lat="42.805409" lon="-7.619695">
        <ele>356.306</ele>
        <time>2021-07-13T09:47:51Z</time>
      </trkpt>
      <trkpt lat="42.805511" lon="-7.619441">
        <ele>356.316</ele>
        <time>2021-07-13T09:47:59Z</time>
      </trkpt>
      <trkpt lat="42.805619" lon="-7.619182">
        <ele>356.308</ele>
        <time>2021-07-13T09:48:07Z</time>
      </trkpt>
      <trkpt lat="42.805707" lon="-7.618963">
        <ele>356.393</ele>
        <time>2021-07-13T09:48:16Z</time>
      </trkpt>
      <trkpt lat="42.805827" lon="-7.618910">
        <ele>357.255</ele>
        <time>2021-07-13T09:48:22Z</time>
      </trkpt>
      <trkpt lat="42.806065" lon="-7.619076">
        <ele>357.212</ele>
        <time>2021-07-13T09:48:31Z</time>
      </trkpt>
      <trkpt lat="42.806197" lon="-7.619317">
        <ele>357.262</ele>
        <time>2021-07-13T09:48:38Z</time>
      </trkpt>
      <trkpt lat="42.806307" lon="-7.619621">
        <ele>357.716</ele>
        <time>2021-07-13T09:48:46Z</time>
      </trkpt>
      <trkpt lat="42.806387" lon="-7.620043">
        <ele>358.744</ele>
        <time>2021-07-13T09:48:56Z</time>
      </trkpt>
      <trkpt lat="42.806397" lon="-7.620382">
        <ele>360.141</ele>
        <time>2021-07-13T09:49:05Z</time>
      </trkpt>
      <trkpt lat="42.806403" lon="-7.620541">
        <ele>360.659</ele>
        <time>2021-07-13T09:49:11Z</time>
      </trkpt>
      <trkpt lat="42.806402" lon="-7.620793">
        <ele>362.584</ele>
        <time>2021-07-13T09:49:20Z</time>
      </trkpt>
      <trkpt lat="42.806433" lon="-7.620976">
        <ele>363.507</ele>
        <time>2021-07-13T09:49:28Z</time>
      </trkpt>
      <trkpt lat="42.806451" lon="-7.620982">
        <ele>364.017</ele>
        <time>2021-07-13T09:49:29Z</time>
      </trkpt>
      <trkpt lat="42.806463" lon="-7.620973">
        <ele>364.408</ele>
        <time>2021-07-13T09:49:30Z</time>
      </trkpt>
      <trkpt lat="42.806470" lon="-7.620955">
        <ele>364.495</ele>
        <time>2021-07-13T09:49:31Z</time>
      </trkpt>
      <trkpt lat="42.806473" lon="-7.620934">
        <ele>364.437</ele>
        <time>2021-07-13T09:49:32Z</time>
      </trkpt>
      <trkpt lat="42.806475" lon="-7.620907">
        <ele>364.464</ele>
        <time>2021-07-13T09:49:33Z</time>
      </trkpt>
      <trkpt lat="42.806474" lon="-7.620880">
        <ele>364.934</ele>
        <time>2021-07-13T09:49:34Z</time>
      </trkpt>
      <trkpt lat="42.806475" lon="-7.620848">
        <ele>364.998</ele>
        <time>2021-07-13T09:49:35Z</time>
      </trkpt>
      <trkpt lat="42.806479" lon="-7.620824">
        <ele>365.496</ele>
        <time>2021-07-13T09:49:36Z</time>
      </trkpt>
      <trkpt lat="42.806480" lon="-7.620797">
        <ele>365.493</ele>
        <time>2021-07-13T09:49:37Z</time>
      </trkpt>
      <trkpt lat="42.806481" lon="-7.620768">
        <ele>365.411</ele>
        <time>2021-07-13T09:49:38Z</time>
      </trkpt>
      <trkpt lat="42.806481" lon="-7.620737">
        <ele>365.477</ele>
        <time>2021-07-13T09:49:39Z</time>
      </trkpt>
      <trkpt lat="42.806480" lon="-7.620708">
        <ele>365.961</ele>
        <time>2021-07-13T09:49:40Z</time>
      </trkpt>
      <trkpt lat="42.806479" lon="-7.620678">
        <ele>365.927</ele>
        <time>2021-07-13T09:49:41Z</time>
      </trkpt>
      <trkpt lat="42.806479" lon="-7.620647">
        <ele>365.908</ele>
        <time>2021-07-13T09:49:42Z</time>
      </trkpt>
      <trkpt lat="42.806480" lon="-7.620617">
        <ele>366.474</ele>
        <time>2021-07-13T09:49:43Z</time>
      </trkpt>
      <trkpt lat="42.806505" lon="-7.620257">
        <ele>367.346</ele>
        <time>2021-07-13T09:49:55Z</time>
      </trkpt>
      <trkpt lat="42.806534" lon="-7.619909">
        <ele>368.823</ele>
        <time>2021-07-13T09:50:07Z</time>
      </trkpt>
      <trkpt lat="42.806537" lon="-7.619658">
        <ele>369.273</ele>
        <time>2021-07-13T09:50:16Z</time>
      </trkpt>
      <trkpt lat="42.806535" lon="-7.619407">
        <ele>371.267</ele>
        <time>2021-07-13T09:50:25Z</time>
      </trkpt>
      <trkpt lat="42.806489" lon="-7.619174">
        <ele>372.695</ele>
        <time>2021-07-13T09:50:34Z</time>
      </trkpt>
      <trkpt lat="42.806428" lon="-7.618922">
        <ele>374.592</ele>
        <time>2021-07-13T09:50:44Z</time>
      </trkpt>
      <trkpt lat="42.806363" lon="-7.618713">
        <ele>376.990</ele>
        <time>2021-07-13T09:50:52Z</time>
      </trkpt>
      <trkpt lat="42.806284" lon="-7.618489">
        <ele>377.917</ele>
        <time>2021-07-13T09:51:01Z</time>
      </trkpt>
      <trkpt lat="42.806237" lon="-7.618295">
        <ele>378.987</ele>
        <time>2021-07-13T09:51:09Z</time>
      </trkpt>
      <trkpt lat="42.806176" lon="-7.618094">
        <ele>380.315</ele>
        <time>2021-07-13T09:51:18Z</time>
      </trkpt>
      <trkpt lat="42.806173" lon="-7.618057">
        <ele>380.808</ele>
        <time>2021-07-13T09:51:20Z</time>
      </trkpt>
      <trkpt lat="42.806173" lon="-7.618034">
        <ele>381.358</ele>
        <time>2021-07-13T09:51:21Z</time>
      </trkpt>
      <trkpt lat="42.806163" lon="-7.617860">
        <ele>382.290</ele>
        <time>2021-07-13T09:51:30Z</time>
      </trkpt>
      <trkpt lat="42.806163" lon="-7.617748">
        <ele>382.247</ele>
        <time>2021-07-13T09:51:35Z</time>
      </trkpt>
      <trkpt lat="42.806172" lon="-7.617725">
        <ele>382.267</ele>
        <time>2021-07-13T09:51:36Z</time>
      </trkpt>
      <trkpt lat="42.806229" lon="-7.617512">
        <ele>383.711</ele>
        <time>2021-07-13T09:51:45Z</time>
      </trkpt>
      <trkpt lat="42.806306" lon="-7.617317">
        <ele>385.689</ele>
        <time>2021-07-13T09:51:54Z</time>
      </trkpt>
      <trkpt lat="42.806373" lon="-7.617178">
        <ele>386.176</ele>
        <time>2021-07-13T09:52:02Z</time>
      </trkpt>
      <trkpt lat="42.806384" lon="-7.617163">
        <ele>386.124</ele>
        <time>2021-07-13T09:52:03Z</time>
      </trkpt>
      <trkpt lat="42.806391" lon="-7.617149">
        <ele>386.131</ele>
        <time>2021-07-13T09:52:04Z</time>
      </trkpt>
      <trkpt lat="42.806458" lon="-7.617037">
        <ele>386.561</ele>
        <time>2021-07-13T09:52:13Z</time>
      </trkpt>
      <trkpt lat="42.806467" lon="-7.616992">
        <ele>386.107</ele>
        <time>2021-07-13T09:52:17Z</time>
      </trkpt>
      <trkpt lat="42.806461" lon="-7.616978">
        <ele>386.108</ele>
        <time>2021-07-13T09:52:18Z</time>
      </trkpt>
      <trkpt lat="42.806451" lon="-7.616963">
        <ele>385.630</ele>
        <time>2021-07-13T09:52:19Z</time>
      </trkpt>
      <trkpt lat="42.806436" lon="-7.616946">
        <ele>385.142</ele>
        <time>2021-07-13T09:52:20Z</time>
      </trkpt>
      <trkpt lat="42.806421" lon="-7.616928">
        <ele>384.619</ele>
        <time>2021-07-13T09:52:21Z</time>
      </trkpt>
      <trkpt lat="42.806305" lon="-7.616779">
        <ele>381.769</ele>
        <time>2021-07-13T09:52:28Z</time>
      </trkpt>
      <trkpt lat="42.806188" lon="-7.616622">
        <ele>380.823</ele>
        <time>2021-07-13T09:52:35Z</time>
      </trkpt>
      <trkpt lat="42.806106" lon="-7.616585">
        <ele>380.351</ele>
        <time>2021-07-13T09:52:40Z</time>
      </trkpt>
      <trkpt lat="42.806091" lon="-7.616598">
        <ele>380.388</ele>
        <time>2021-07-13T09:52:41Z</time>
      </trkpt>
      <trkpt lat="42.806068" lon="-7.616635">
        <ele>379.836</ele>
        <time>2021-07-13T09:52:47Z</time>
      </trkpt>
      <trkpt lat="42.806066" lon="-7.616635">
        <ele>380.384</ele>
        <time>2021-07-13T09:53:00Z</time>
      </trkpt>
      <trkpt lat="42.806084" lon="-7.616647">
        <ele>380.307</ele>
        <time>2021-07-13T09:53:09Z</time>
      </trkpt>
      <trkpt lat="42.806135" lon="-7.616648">
        <ele>380.817</ele>
        <time>2021-07-13T09:53:17Z</time>
      </trkpt>
      <trkpt lat="42.806143" lon="-7.616639">
        <ele>381.308</ele>
        <time>2021-07-13T09:53:24Z</time>
      </trkpt>
      <trkpt lat="42.806145" lon="-7.616648">
        <ele>381.365</ele>
        <time>2021-07-13T09:53:32Z</time>
      </trkpt>
      <trkpt lat="42.806143" lon="-7.616639">
        <ele>380.377</ele>
        <time>2021-07-13T09:53:45Z</time>
      </trkpt>
      <trkpt lat="42.806140" lon="-7.616649">
        <ele>381.734</ele>
        <time>2021-07-13T09:54:03Z</time>
      </trkpt>
      <trkpt lat="42.806146" lon="-7.616654">
        <ele>381.744</ele>
        <time>2021-07-13T09:54:26Z</time>
      </trkpt>
      <trkpt lat="42.806149" lon="-7.616643">
        <ele>378.438</ele>
        <time>2021-07-13T09:54:45Z</time>
      </trkpt>
      <trkpt lat="42.806134" lon="-7.616636">
        <ele>377.976</ele>
        <time>2021-07-13T09:55:05Z</time>
      </trkpt>
      <trkpt lat="42.806132" lon="-7.616663">
        <ele>380.823</ele>
        <time>2021-07-13T09:55:26Z</time>
      </trkpt>
      <trkpt lat="42.806136" lon="-7.616663">
        <ele>381.781</ele>
        <time>2021-07-13T09:55:37Z</time>
      </trkpt>
      <trkpt lat="42.806158" lon="-7.616615">
        <ele>380.394</ele>
        <time>2021-07-13T09:55:43Z</time>
      </trkpt>
      <trkpt lat="42.806194" lon="-7.616676">
        <ele>381.757</ele>
        <time>2021-07-13T09:55:50Z</time>
      </trkpt>
      <trkpt lat="42.806205" lon="-7.616693">
        <ele>381.722</ele>
        <time>2021-07-13T09:55:52Z</time>
      </trkpt>
      <trkpt lat="42.806215" lon="-7.616701">
        <ele>381.708</ele>
        <time>2021-07-13T09:55:53Z</time>
      </trkpt>
      <trkpt lat="42.806226" lon="-7.616705">
        <ele>381.756</ele>
        <time>2021-07-13T09:55:54Z</time>
      </trkpt>
      <trkpt lat="42.806235" lon="-7.616708">
        <ele>381.728</ele>
        <time>2021-07-13T09:55:55Z</time>
      </trkpt>
      <trkpt lat="42.806245" lon="-7.616714">
        <ele>381.725</ele>
        <time>2021-07-13T09:55:56Z</time>
      </trkpt>
      <trkpt lat="42.806255" lon="-7.616721">
        <ele>381.745</ele>
        <time>2021-07-13T09:55:57Z</time>
      </trkpt>
      <trkpt lat="42.806325" lon="-7.616803">
        <ele>382.789</ele>
        <time>2021-07-13T09:56:06Z</time>
      </trkpt>
      <trkpt lat="42.806380" lon="-7.616883">
        <ele>384.147</ele>
        <time>2021-07-13T09:56:15Z</time>
      </trkpt>
      <trkpt lat="42.806433" lon="-7.616975">
        <ele>385.674</ele>
        <time>2021-07-13T09:56:24Z</time>
      </trkpt>
      <trkpt lat="42.806499" lon="-7.616993">
        <ele>387.032</ele>
        <time>2021-07-13T09:56:33Z</time>
      </trkpt>
      <trkpt lat="42.806520" lon="-7.616966">
        <ele>386.566</ele>
        <time>2021-07-13T09:56:39Z</time>
      </trkpt>
      <trkpt lat="42.806525" lon="-7.616957">
        <ele>386.529</ele>
        <time>2021-07-13T09:56:41Z</time>
      </trkpt>
      <trkpt lat="42.806540" lon="-7.616940">
        <ele>386.521</ele>
        <time>2021-07-13T09:56:43Z</time>
      </trkpt>
      <trkpt lat="42.806551" lon="-7.616932">
        <ele>387.008</ele>
        <time>2021-07-13T09:56:44Z</time>
      </trkpt>
      <trkpt lat="42.806561" lon="-7.616920">
        <ele>387.043</ele>
        <time>2021-07-13T09:56:45Z</time>
      </trkpt>
      <trkpt lat="42.806571" lon="-7.616907">
        <ele>387.035</ele>
        <time>2021-07-13T09:56:46Z</time>
      </trkpt>
      <trkpt lat="42.806582" lon="-7.616892">
        <ele>387.092</ele>
        <time>2021-07-13T09:56:47Z</time>
      </trkpt>
      <trkpt lat="42.806592" lon="-7.616877">
        <ele>387.042</ele>
        <time>2021-07-13T09:56:48Z</time>
      </trkpt>
      <trkpt lat="42.806735" lon="-7.616685">
        <ele>389.986</ele>
        <time>2021-07-13T09:57:00Z</time>
      </trkpt>
      <trkpt lat="42.806833" lon="-7.616588">
        <ele>389.464</ele>
        <time>2021-07-13T09:57:07Z</time>
      </trkpt>
      <trkpt lat="42.806924" lon="-7.616464">
        <ele>389.951</ele>
        <time>2021-07-13T09:57:16Z</time>
      </trkpt>
      <trkpt lat="42.806925" lon="-7.616448">
        <ele>393.399</ele>
        <time>2021-07-13T09:57:23Z</time>
      </trkpt>
      <trkpt lat="42.806916" lon="-7.616471">
        <ele>393.829</ele>
        <time>2021-07-13T09:57:35Z</time>
      </trkpt>
      <trkpt lat="42.806935" lon="-7.616519">
        <ele>394.200</ele>
        <time>2021-07-13T09:57:50Z</time>
      </trkpt>
      <trkpt lat="42.806924" lon="-7.616538">
        <ele>393.320</ele>
        <time>2021-07-13T09:58:09Z</time>
      </trkpt>
      <trkpt lat="42.806956" lon="-7.616520">
        <ele>395.208</ele>
        <time>2021-07-13T09:58:30Z</time>
      </trkpt>
      <trkpt lat="42.806948" lon="-7.616533">
        <ele>393.389</ele>
        <time>2021-07-13T09:58:56Z</time>
      </trkpt>
      <trkpt lat="42.806931" lon="-7.616535">
        <ele>391.831</ele>
        <time>2021-07-13T09:59:22Z</time>
      </trkpt>
      <trkpt lat="42.806967" lon="-7.616490">
        <ele>393.328</ele>
        <time>2021-07-13T09:59:46Z</time>
      </trkpt>
      <trkpt lat="42.806963" lon="-7.616502">
        <ele>393.868</ele>
        <time>2021-07-13T10:00:12Z</time>
      </trkpt>
      <trkpt lat="42.806961" lon="-7.616506">
        <ele>394.242</ele>
        <time>2021-07-13T10:00:29Z</time>
      </trkpt>
      <trkpt lat="42.806951" lon="-7.616526">
        <ele>391.820</ele>
        <time>2021-07-13T10:00:44Z</time>
      </trkpt>
      <trkpt lat="42.806952" lon="-7.616520">
        <ele>392.867</ele>
        <time>2021-07-13T10:01:10Z</time>
      </trkpt>
      <trkpt lat="42.806942" lon="-7.616484">
        <ele>396.245</ele>
        <time>2021-07-13T10:01:32Z</time>
      </trkpt>
      <trkpt lat="42.806940" lon="-7.616498">
        <ele>396.642</ele>
        <time>2021-07-13T10:01:51Z</time>
      </trkpt>
      <trkpt lat="42.806927" lon="-7.616512">
        <ele>394.722</ele>
        <time>2021-07-13T10:02:22Z</time>
      </trkpt>
      <trkpt lat="42.806939" lon="-7.616531">
        <ele>392.814</ele>
        <time>2021-07-13T10:02:48Z</time>
      </trkpt>
      <trkpt lat="42.806951" lon="-7.616524">
        <ele>390.908</ele>
        <time>2021-07-13T10:03:17Z</time>
      </trkpt>
      <trkpt lat="42.806951" lon="-7.616520">
        <ele>389.951</ele>
        <time>2021-07-13T10:03:35Z</time>
      </trkpt>
      <trkpt lat="42.806944" lon="-7.616517">
        <ele>390.473</ele>
        <time>2021-07-13T10:03:57Z</time>
      </trkpt>
      <trkpt lat="42.806943" lon="-7.616518">
        <ele>390.480</ele>
        <time>2021-07-13T10:04:11Z</time>
      </trkpt>
      <trkpt lat="42.806940" lon="-7.616521">
        <ele>392.370</ele>
        <time>2021-07-13T10:04:27Z</time>
      </trkpt>
      <trkpt lat="42.806948" lon="-7.616516">
        <ele>391.874</ele>
        <time>2021-07-13T10:04:45Z</time>
      </trkpt>
      <trkpt lat="42.806948" lon="-7.616507">
        <ele>394.282</ele>
        <time>2021-07-13T10:05:00Z</time>
      </trkpt>
      <trkpt lat="42.806937" lon="-7.616503">
        <ele>395.229</ele>
        <time>2021-07-13T10:05:09Z</time>
      </trkpt>
      <trkpt lat="42.806969" lon="-7.616470">
        <ele>395.757</ele>
        <time>2021-07-13T10:05:20Z</time>
      </trkpt>
      <trkpt lat="42.807013" lon="-7.616394">
        <ele>396.671</ele>
        <time>2021-07-13T10:05:31Z</time>
      </trkpt>
      <trkpt lat="42.807091" lon="-7.616280">
        <ele>398.141</ele>
        <time>2021-07-13T10:05:42Z</time>
      </trkpt>
      <trkpt lat="42.807278" lon="-7.616062">
        <ele>400.515</ele>
        <time>2021-07-13T10:05:55Z</time>
      </trkpt>
      <trkpt lat="42.807409" lon="-7.615868">
        <ele>399.508</ele>
        <time>2021-07-13T10:06:03Z</time>
      </trkpt>
      <trkpt lat="42.807491" lon="-7.615816">
        <ele>398.644</ele>
        <time>2021-07-13T10:06:11Z</time>
      </trkpt>
      <trkpt lat="42.807502" lon="-7.615809">
        <ele>398.636</ele>
        <time>2021-07-13T10:06:12Z</time>
      </trkpt>
      <trkpt lat="42.807527" lon="-7.615899">
        <ele>398.143</ele>
        <time>2021-07-13T10:06:19Z</time>
      </trkpt>
      <trkpt lat="42.807518" lon="-7.615924">
        <ele>397.173</ele>
        <time>2021-07-13T10:06:25Z</time>
      </trkpt>
      <trkpt lat="42.807503" lon="-7.615948">
        <ele>398.657</ele>
        <time>2021-07-13T10:06:35Z</time>
      </trkpt>
      <trkpt lat="42.807505" lon="-7.615935">
        <ele>395.245</ele>
        <time>2021-07-13T10:06:55Z</time>
      </trkpt>
      <trkpt lat="42.807522" lon="-7.615924">
        <ele>395.292</ele>
        <time>2021-07-13T10:07:14Z</time>
      </trkpt>
      <trkpt lat="42.807532" lon="-7.615914">
        <ele>396.290</ele>
        <time>2021-07-13T10:07:31Z</time>
      </trkpt>
      <trkpt lat="42.807521" lon="-7.615914">
        <ele>395.763</ele>
        <time>2021-07-13T10:07:43Z</time>
      </trkpt>
      <trkpt lat="42.807511" lon="-7.615916">
        <ele>395.744</ele>
        <time>2021-07-13T10:07:56Z</time>
      </trkpt>
      <trkpt lat="42.807518" lon="-7.615913">
        <ele>397.618</ele>
        <time>2021-07-13T10:08:12Z</time>
      </trkpt>
      <trkpt lat="42.807527" lon="-7.615895">
        <ele>398.108</ele>
        <time>2021-07-13T10:08:30Z</time>
      </trkpt>
      <trkpt lat="42.807539" lon="-7.615901">
        <ele>399.513</ele>
        <time>2021-07-13T10:08:43Z</time>
      </trkpt>
      <trkpt lat="42.807540" lon="-7.615915">
        <ele>400.035</ele>
        <time>2021-07-13T10:09:01Z</time>
      </trkpt>
      <trkpt lat="42.807547" lon="-7.615909">
        <ele>401.432</ele>
        <time>2021-07-13T10:09:13Z</time>
      </trkpt>
      <trkpt lat="42.807541" lon="-7.615913">
        <ele>404.382</ele>
        <time>2021-07-13T10:09:25Z</time>
      </trkpt>
      <trkpt lat="42.807512" lon="-7.615923">
        <ele>404.886</ele>
        <time>2021-07-13T10:09:42Z</time>
      </trkpt>
      <trkpt lat="42.807502" lon="-7.615928">
        <ele>404.374</ele>
        <time>2021-07-13T10:09:52Z</time>
      </trkpt>
      <trkpt lat="42.807509" lon="-7.615935">
        <ele>404.351</ele>
        <time>2021-07-13T10:10:04Z</time>
      </trkpt>
      <trkpt lat="42.807552" lon="-7.615941">
        <ele>403.819</ele>
        <time>2021-07-13T10:10:12Z</time>
      </trkpt>
      <trkpt lat="42.807557" lon="-7.615945">
        <ele>404.347</ele>
        <time>2021-07-13T10:10:19Z</time>
      </trkpt>
      <trkpt lat="42.807542" lon="-7.615943">
        <ele>403.429</ele>
        <time>2021-07-13T10:10:31Z</time>
      </trkpt>
      <trkpt lat="42.807540" lon="-7.615952">
        <ele>402.921</ele>
        <time>2021-07-13T10:10:45Z</time>
      </trkpt>
      <trkpt lat="42.807549" lon="-7.615950">
        <ele>401.408</ele>
        <time>2021-07-13T10:10:57Z</time>
      </trkpt>
      <trkpt lat="42.807554" lon="-7.615934">
        <ele>401.031</ele>
        <time>2021-07-13T10:11:13Z</time>
      </trkpt>
      <trkpt lat="42.807551" lon="-7.615935">
        <ele>402.433</ele>
        <time>2021-07-13T10:11:26Z</time>
      </trkpt>
      <trkpt lat="42.807542" lon="-7.615941">
        <ele>401.930</ele>
        <time>2021-07-13T10:11:40Z</time>
      </trkpt>
      <trkpt lat="42.807534" lon="-7.615949">
        <ele>400.010</ele>
        <time>2021-07-13T10:11:54Z</time>
      </trkpt>
      <trkpt lat="42.807534" lon="-7.615951">
        <ele>401.084</ele>
        <time>2021-07-13T10:12:08Z</time>
      </trkpt>
      <trkpt lat="42.807540" lon="-7.615960">
        <ele>401.072</ele>
        <time>2021-07-13T10:12:21Z</time>
      </trkpt>
      <trkpt lat="42.807549" lon="-7.615973">
        <ele>401.499</ele>
        <time>2021-07-13T10:12:39Z</time>
      </trkpt>
      <trkpt lat="42.807552" lon="-7.615980">
        <ele>401.977</ele>
        <time>2021-07-13T10:12:51Z</time>
      </trkpt>
      <trkpt lat="42.807544" lon="-7.615994">
        <ele>401.975</ele>
        <time>2021-07-13T10:13:07Z</time>
      </trkpt>
      <trkpt lat="42.807531" lon="-7.615986">
        <ele>401.928</ele>
        <time>2021-07-13T10:13:23Z</time>
      </trkpt>
      <trkpt lat="42.807529" lon="-7.615982">
        <ele>401.420</ele>
        <time>2021-07-13T10:13:35Z</time>
      </trkpt>
      <trkpt lat="42.807542" lon="-7.615973">
        <ele>400.008</ele>
        <time>2021-07-13T10:13:49Z</time>
      </trkpt>
      <trkpt lat="42.807537" lon="-7.615960">
        <ele>400.024</ele>
        <time>2021-07-13T10:14:01Z</time>
      </trkpt>
      <trkpt lat="42.807536" lon="-7.615951">
        <ele>399.036</ele>
        <time>2021-07-13T10:14:12Z</time>
      </trkpt>
      <trkpt lat="42.807540" lon="-7.615954">
        <ele>398.633</ele>
        <time>2021-07-13T10:14:31Z</time>
      </trkpt>
      <trkpt lat="42.807533" lon="-7.615951">
        <ele>399.053</ele>
        <time>2021-07-13T10:14:48Z</time>
      </trkpt>
      <trkpt lat="42.807540" lon="-7.615945">
        <ele>399.087</ele>
        <time>2021-07-13T10:14:57Z</time>
      </trkpt>
      <trkpt lat="42.807527" lon="-7.615835">
        <ele>398.695</ele>
        <time>2021-07-13T10:15:04Z</time>
      </trkpt>
      <trkpt lat="42.807544" lon="-7.615734">
        <ele>399.032</ele>
        <time>2021-07-13T10:15:09Z</time>
      </trkpt>
      <trkpt lat="42.807546" lon="-7.615685">
        <ele>398.680</ele>
        <time>2021-07-13T10:15:11Z</time>
      </trkpt>
      <trkpt lat="42.807576" lon="-7.615593">
        <ele>396.696</ele>
        <time>2021-07-13T10:15:15Z</time>
      </trkpt>
      <trkpt lat="42.807718" lon="-7.615430">
        <ele>395.231</ele>
        <time>2021-07-13T10:15:24Z</time>
      </trkpt>
      <trkpt lat="42.807834" lon="-7.615302">
        <ele>394.224</ele>
        <time>2021-07-13T10:15:34Z</time>
      </trkpt>
      <trkpt lat="42.807865" lon="-7.615193">
        <ele>395.708</ele>
        <time>2021-07-13T10:15:42Z</time>
      </trkpt>
      <trkpt lat="42.807869" lon="-7.615183">
        <ele>395.296</ele>
        <time>2021-07-13T10:15:49Z</time>
      </trkpt>
      <trkpt lat="42.807859" lon="-7.615174">
        <ele>394.218</ele>
        <time>2021-07-13T10:16:06Z</time>
      </trkpt>
      <trkpt lat="42.807866" lon="-7.615162">
        <ele>394.235</ele>
        <time>2021-07-13T10:16:23Z</time>
      </trkpt>
      <trkpt lat="42.807869" lon="-7.615174">
        <ele>394.775</ele>
        <time>2021-07-13T10:16:41Z</time>
      </trkpt>
      <trkpt lat="42.807862" lon="-7.615179">
        <ele>395.299</ele>
        <time>2021-07-13T10:17:00Z</time>
      </trkpt>
      <trkpt lat="42.807860" lon="-7.615180">
        <ele>395.297</ele>
        <time>2021-07-13T10:17:18Z</time>
      </trkpt>
      <trkpt lat="42.807881" lon="-7.615150">
        <ele>394.784</ele>
        <time>2021-07-13T10:17:25Z</time>
      </trkpt>
      <trkpt lat="42.807977" lon="-7.615014">
        <ele>392.872</ele>
        <time>2021-07-13T10:17:34Z</time>
      </trkpt>
      <trkpt lat="42.808093" lon="-7.614862">
        <ele>391.313</ele>
        <time>2021-07-13T10:17:44Z</time>
      </trkpt>
      <trkpt lat="42.808032" lon="-7.614759">
        <ele>390.443</ele>
        <time>2021-07-13T10:17:51Z</time>
      </trkpt>
      <trkpt lat="42.807890" lon="-7.614567">
        <ele>389.907</ele>
        <time>2021-07-13T10:17:59Z</time>
      </trkpt>
      <trkpt lat="42.807776" lon="-7.614382">
        <ele>389.408</ele>
        <time>2021-07-13T10:18:07Z</time>
      </trkpt>
      <trkpt lat="42.807678" lon="-7.614181">
        <ele>388.928</ele>
        <time>2021-07-13T10:18:14Z</time>
      </trkpt>
      <trkpt lat="42.807561" lon="-7.614027">
        <ele>387.550</ele>
        <time>2021-07-13T10:18:22Z</time>
      </trkpt>
      <trkpt lat="42.807466" lon="-7.614044">
        <ele>387.557</ele>
        <time>2021-07-13T10:18:25Z</time>
      </trkpt>
      <trkpt lat="42.807264" lon="-7.614121">
        <ele>385.647</ele>
        <time>2021-07-13T10:18:30Z</time>
      </trkpt>
      <trkpt lat="42.806968" lon="-7.614364">
        <ele>382.741</ele>
        <time>2021-07-13T10:18:37Z</time>
      </trkpt>
      <trkpt lat="42.806576" lon="-7.614791">
        <ele>377.949</ele>
        <time>2021-07-13T10:18:45Z</time>
      </trkpt>
      <trkpt lat="42.806382" lon="-7.615009">
        <ele>375.066</ele>
        <time>2021-07-13T10:18:50Z</time>
      </trkpt>
      <trkpt lat="42.806089" lon="-7.615328">
        <ele>370.284</ele>
        <time>2021-07-13T10:18:59Z</time>
      </trkpt>
      <trkpt lat="42.805867" lon="-7.615617">
        <ele>366.852</ele>
        <time>2021-07-13T10:19:06Z</time>
      </trkpt>
      <trkpt lat="42.805558" lon="-7.616023">
        <ele>363.053</ele>
        <time>2021-07-13T10:19:14Z</time>
      </trkpt>
      <trkpt lat="42.805362" lon="-7.616320">
        <ele>360.108</ele>
        <time>2021-07-13T10:19:21Z</time>
      </trkpt>
      <trkpt lat="42.805241" lon="-7.616643">
        <ele>358.208</ele>
        <time>2021-07-13T10:19:30Z</time>
      </trkpt>
      <trkpt lat="42.805231" lon="-7.616692">
        <ele>358.282</ele>
        <time>2021-07-13T10:19:35Z</time>
      </trkpt>
      <trkpt lat="42.805162" lon="-7.616775">
        <ele>358.224</ele>
        <time>2021-07-13T10:19:41Z</time>
      </trkpt>
      <trkpt lat="42.805130" lon="-7.616781">
        <ele>358.211</ele>
        <time>2021-07-13T10:19:42Z</time>
      </trkpt>
      <trkpt lat="42.805087" lon="-7.616773">
        <ele>358.211</ele>
        <time>2021-07-13T10:19:44Z</time>
      </trkpt>
      <trkpt lat="42.804985" lon="-7.616794">
        <ele>357.245</ele>
        <time>2021-07-13T10:19:49Z</time>
      </trkpt>
      <trkpt lat="42.804972" lon="-7.616825">
        <ele>357.243</ele>
        <time>2021-07-13T10:19:50Z</time>
      </trkpt>
      <trkpt lat="42.804968" lon="-7.616844">
        <ele>357.260</ele>
        <time>2021-07-13T10:19:51Z</time>
      </trkpt>
      <trkpt lat="42.804962" lon="-7.616862">
        <ele>356.778</ele>
        <time>2021-07-13T10:19:52Z</time>
      </trkpt>
      <trkpt lat="42.804955" lon="-7.616875">
        <ele>356.312</ele>
        <time>2021-07-13T10:19:57Z</time>
      </trkpt>
      <trkpt lat="42.804955" lon="-7.616873">
        <ele>356.732</ele>
        <time>2021-07-13T10:20:10Z</time>
      </trkpt>
      <trkpt lat="42.804955" lon="-7.616915">
        <ele>356.705</ele>
        <time>2021-07-13T10:20:24Z</time>
      </trkpt>
      <trkpt lat="42.804961" lon="-7.616929">
        <ele>356.708</ele>
        <time>2021-07-13T10:20:25Z</time>
      </trkpt>
      <trkpt lat="42.804963" lon="-7.616930">
        <ele>355.828</ele>
        <time>2021-07-13T10:20:30Z</time>
      </trkpt>
      <trkpt lat="42.804962" lon="-7.616936">
        <ele>356.320</ele>
        <time>2021-07-13T10:20:48Z</time>
      </trkpt>
      <trkpt lat="42.804969" lon="-7.616927">
        <ele>354.367</ele>
        <time>2021-07-13T10:21:11Z</time>
      </trkpt>
      <trkpt lat="42.804962" lon="-7.616925">
        <ele>353.447</ele>
        <time>2021-07-13T10:21:33Z</time>
      </trkpt>
      <trkpt lat="42.804968" lon="-7.616932">
        <ele>352.931</ele>
        <time>2021-07-13T10:21:52Z</time>
      </trkpt>
      <trkpt lat="42.804946" lon="-7.616935">
        <ele>353.499</ele>
        <time>2021-07-13T10:22:00Z</time>
      </trkpt>
      <trkpt lat="42.804933" lon="-7.616930">
        <ele>353.446</ele>
        <time>2021-07-13T10:22:01Z</time>
      </trkpt>
      <trkpt lat="42.804924" lon="-7.616925">
        <ele>353.414</ele>
        <time>2021-07-13T10:22:02Z</time>
      </trkpt>
      <trkpt lat="42.804914" lon="-7.616917">
        <ele>353.485</ele>
        <time>2021-07-13T10:22:03Z</time>
      </trkpt>
      <trkpt lat="42.804904" lon="-7.616906">
        <ele>353.989</ele>
        <time>2021-07-13T10:22:04Z</time>
      </trkpt>
      <trkpt lat="42.804893" lon="-7.616897">
        <ele>353.917</ele>
        <time>2021-07-13T10:22:05Z</time>
      </trkpt>
      <trkpt lat="42.804885" lon="-7.616885">
        <ele>353.908</ele>
        <time>2021-07-13T10:22:06Z</time>
      </trkpt>
      <trkpt lat="42.804877" lon="-7.616872">
        <ele>354.325</ele>
        <time>2021-07-13T10:22:07Z</time>
      </trkpt>
      <trkpt lat="42.804867" lon="-7.616862">
        <ele>354.397</ele>
        <time>2021-07-13T10:22:08Z</time>
      </trkpt>
      <trkpt lat="42.804851" lon="-7.616851">
        <ele>354.384</ele>
        <time>2021-07-13T10:22:15Z</time>
      </trkpt>
      <trkpt lat="42.804861" lon="-7.616849">
        <ele>354.864</ele>
        <time>2021-07-13T10:22:33Z</time>
      </trkpt>
      <trkpt lat="42.804870" lon="-7.616840">
        <ele>355.368</ele>
        <time>2021-07-13T10:22:52Z</time>
      </trkpt>
      <trkpt lat="42.804877" lon="-7.616834">
        <ele>354.846</ele>
        <time>2021-07-13T10:23:09Z</time>
      </trkpt>
      <trkpt lat="42.804886" lon="-7.616831">
        <ele>354.883</ele>
        <time>2021-07-13T10:23:17Z</time>
      </trkpt>
      <trkpt lat="42.804898" lon="-7.616834">
        <ele>354.821</ele>
        <time>2021-07-13T10:23:33Z</time>
      </trkpt>
      <trkpt lat="42.804913" lon="-7.616835">
        <ele>356.386</ele>
        <time>2021-07-13T10:23:45Z</time>
      </trkpt>
      <trkpt lat="42.804922" lon="-7.616840">
        <ele>357.260</ele>
        <time>2021-07-13T10:23:58Z</time>
      </trkpt>
      <trkpt lat="42.804906" lon="-7.616825">
        <ele>357.226</ele>
        <time>2021-07-13T10:24:06Z</time>
      </trkpt>
      <trkpt lat="42.804874" lon="-7.616800">
        <ele>356.708</ele>
        <time>2021-07-13T10:24:11Z</time>
      </trkpt>
      <trkpt lat="42.804861" lon="-7.616792">
        <ele>356.785</ele>
        <time>2021-07-13T10:24:12Z</time>
      </trkpt>
      <trkpt lat="42.804850" lon="-7.616781">
        <ele>356.787</ele>
        <time>2021-07-13T10:24:13Z</time>
      </trkpt>
      <trkpt lat="42.804838" lon="-7.616770">
        <ele>356.324</ele>
        <time>2021-07-13T10:24:14Z</time>
      </trkpt>
      <trkpt lat="42.804823" lon="-7.616757">
        <ele>356.324</ele>
        <time>2021-07-13T10:24:15Z</time>
      </trkpt>
      <trkpt lat="42.804684" lon="-7.616689">
        <ele>355.828</ele>
        <time>2021-07-13T10:24:23Z</time>
      </trkpt>
      <trkpt lat="42.804547" lon="-7.616615">
        <ele>356.786</ele>
        <time>2021-07-13T10:24:32Z</time>
      </trkpt>
      <trkpt lat="42.804414" lon="-7.616524">
        <ele>356.733</ele>
        <time>2021-07-13T10:24:43Z</time>
      </trkpt>
      <trkpt lat="42.804406" lon="-7.616514">
        <ele>356.791</ele>
        <time>2021-07-13T10:24:44Z</time>
      </trkpt>
      <trkpt lat="42.804397" lon="-7.616505">
        <ele>356.351</ele>
        <time>2021-07-13T10:24:45Z</time>
      </trkpt>
      <trkpt lat="42.804387" lon="-7.616499">
        <ele>356.301</ele>
        <time>2021-07-13T10:24:46Z</time>
      </trkpt>
      <trkpt lat="42.804377" lon="-7.616490">
        <ele>356.311</ele>
        <time>2021-07-13T10:24:47Z</time>
      </trkpt>
      <trkpt lat="42.804366" lon="-7.616482">
        <ele>356.308</ele>
        <time>2021-07-13T10:24:48Z</time>
      </trkpt>
      <trkpt lat="42.804352" lon="-7.616473">
        <ele>356.332</ele>
        <time>2021-07-13T10:24:49Z</time>
      </trkpt>
      <trkpt lat="42.804338" lon="-7.616467">
        <ele>356.374</ele>
        <time>2021-07-13T10:24:50Z</time>
      </trkpt>
      <trkpt lat="42.804323" lon="-7.616459">
        <ele>356.391</ele>
        <time>2021-07-13T10:24:51Z</time>
      </trkpt>
      <trkpt lat="42.804305" lon="-7.616458">
        <ele>357.231</ele>
        <time>2021-07-13T10:24:57Z</time>
      </trkpt>
      <trkpt lat="42.804277" lon="-7.616441">
        <ele>356.735</ele>
        <time>2021-07-13T10:25:11Z</time>
      </trkpt>
      <trkpt lat="42.804270" lon="-7.616423">
        <ele>356.723</ele>
        <time>2021-07-13T10:25:12Z</time>
      </trkpt>
      <trkpt lat="42.804261" lon="-7.616408">
        <ele>356.360</ele>
        <time>2021-07-13T10:25:13Z</time>
      </trkpt>
      <trkpt lat="42.804254" lon="-7.616392">
        <ele>356.398</ele>
        <time>2021-07-13T10:25:14Z</time>
      </trkpt>
      <trkpt lat="42.804246" lon="-7.616375">
        <ele>356.378</ele>
        <time>2021-07-13T10:25:15Z</time>
      </trkpt>
      <trkpt lat="42.804234" lon="-7.616360">
        <ele>355.833</ele>
        <time>2021-07-13T10:25:16Z</time>
      </trkpt>
      <trkpt lat="42.804219" lon="-7.616350">
        <ele>355.826</ele>
        <time>2021-07-13T10:25:17Z</time>
      </trkpt>
      <trkpt lat="42.804205" lon="-7.616341">
        <ele>355.808</ele>
        <time>2021-07-13T10:25:18Z</time>
      </trkpt>
      <trkpt lat="42.804190" lon="-7.616332">
        <ele>355.884</ele>
        <time>2021-07-13T10:25:19Z</time>
      </trkpt>
      <trkpt lat="42.804176" lon="-7.616322">
        <ele>355.846</ele>
        <time>2021-07-13T10:25:20Z</time>
      </trkpt>
      <trkpt lat="42.804140" lon="-7.616301">
        <ele>355.813</ele>
        <time>2021-07-13T10:25:23Z</time>
      </trkpt>
      <trkpt lat="42.804129" lon="-7.616292">
        <ele>355.313</ele>
        <time>2021-07-13T10:25:24Z</time>
      </trkpt>
      <trkpt lat="42.804117" lon="-7.616279">
        <ele>355.317</ele>
        <time>2021-07-13T10:25:25Z</time>
      </trkpt>
      <trkpt lat="42.804104" lon="-7.616270">
        <ele>354.845</ele>
        <time>2021-07-13T10:25:26Z</time>
      </trkpt>
      <trkpt lat="42.804093" lon="-7.616266">
        <ele>355.392</ele>
        <time>2021-07-13T10:25:31Z</time>
      </trkpt>
      <trkpt lat="42.804096" lon="-7.616268">
        <ele>356.330</ele>
        <time>2021-07-13T10:25:43Z</time>
      </trkpt>
      <trkpt lat="42.804032" lon="-7.616267">
        <ele>356.363</ele>
        <time>2021-07-13T10:25:52Z</time>
      </trkpt>
      <trkpt lat="42.804006" lon="-7.616260">
        <ele>356.344</ele>
        <time>2021-07-13T10:25:54Z</time>
      </trkpt>
      <trkpt lat="42.803995" lon="-7.616253">
        <ele>356.318</ele>
        <time>2021-07-13T10:25:55Z</time>
      </trkpt>
      <trkpt lat="42.803983" lon="-7.616248">
        <ele>356.308</ele>
        <time>2021-07-13T10:25:56Z</time>
      </trkpt>
      <trkpt lat="42.803951" lon="-7.616218">
        <ele>356.323</ele>
        <time>2021-07-13T10:26:00Z</time>
      </trkpt>
      <trkpt lat="42.803941" lon="-7.616208">
        <ele>356.365</ele>
        <time>2021-07-13T10:26:01Z</time>
      </trkpt>
      <trkpt lat="42.803930" lon="-7.616198">
        <ele>356.332</ele>
        <time>2021-07-13T10:26:02Z</time>
      </trkpt>
      <trkpt lat="42.803918" lon="-7.616192">
        <ele>356.332</ele>
        <time>2021-07-13T10:26:03Z</time>
      </trkpt>
      <trkpt lat="42.803908" lon="-7.616188">
        <ele>356.716</ele>
        <time>2021-07-13T10:26:04Z</time>
      </trkpt>
      <trkpt lat="42.803900" lon="-7.616182">
        <ele>356.324</ele>
        <time>2021-07-13T10:26:05Z</time>
      </trkpt>
      <trkpt lat="42.803890" lon="-7.616175">
        <ele>356.351</ele>
        <time>2021-07-13T10:26:06Z</time>
      </trkpt>
      <trkpt lat="42.803870" lon="-7.616166">
        <ele>356.359</ele>
        <time>2021-07-13T10:26:12Z</time>
      </trkpt>
      <trkpt lat="42.803870" lon="-7.616165">
        <ele>354.395</ele>
        <time>2021-07-13T10:26:31Z</time>
      </trkpt>
      <trkpt lat="42.803747" lon="-7.616076">
        <ele>354.349</ele>
        <time>2021-07-13T10:26:37Z</time>
      </trkpt>
      <trkpt lat="42.803557" lon="-7.615964">
        <ele>354.823</ele>
        <time>2021-07-13T10:26:44Z</time>
      </trkpt>
      <trkpt lat="42.803367" lon="-7.615852">
        <ele>355.308</ele>
        <time>2021-07-13T10:26:51Z</time>
      </trkpt>
      <trkpt lat="42.803138" lon="-7.615705">
        <ele>355.826</ele>
        <time>2021-07-13T10:26:59Z</time>
      </trkpt>
      <trkpt lat="42.802946" lon="-7.615562">
        <ele>356.378</ele>
        <time>2021-07-13T10:27:07Z</time>
      </trkpt>
      <trkpt lat="42.802919" lon="-7.615542">
        <ele>356.765</ele>
        <time>2021-07-13T10:27:13Z</time>
      </trkpt>
      <trkpt lat="42.802870" lon="-7.615515">
        <ele>357.275</ele>
        <time>2021-07-13T10:27:23Z</time>
      </trkpt>
      <trkpt lat="42.802778" lon="-7.615456">
        <ele>356.759</ele>
        <time>2021-07-13T10:27:30Z</time>
      </trkpt>
      <trkpt lat="42.802583" lon="-7.615327">
        <ele>356.737</ele>
        <time>2021-07-13T10:27:41Z</time>
      </trkpt>
      <trkpt lat="42.802324" lon="-7.615165">
        <ele>357.254</ele>
        <time>2021-07-13T10:27:53Z</time>
      </trkpt>
      <trkpt lat="42.802172" lon="-7.615093">
        <ele>357.232</ele>
        <time>2021-07-13T10:28:00Z</time>
      </trkpt>
      <trkpt lat="42.802150" lon="-7.615101">
        <ele>356.734</ele>
        <time>2021-07-13T10:28:01Z</time>
      </trkpt>
      <trkpt lat="42.802131" lon="-7.615117">
        <ele>356.755</ele>
        <time>2021-07-13T10:28:02Z</time>
      </trkpt>
      <trkpt lat="42.802110" lon="-7.615146">
        <ele>356.710</ele>
        <time>2021-07-13T10:28:03Z</time>
      </trkpt>
      <trkpt lat="42.802096" lon="-7.615173">
        <ele>356.708</ele>
        <time>2021-07-13T10:28:04Z</time>
      </trkpt>
      <trkpt lat="42.802086" lon="-7.615206">
        <ele>356.740</ele>
        <time>2021-07-13T10:28:05Z</time>
      </trkpt>
      <trkpt lat="42.802083" lon="-7.615244">
        <ele>356.332</ele>
        <time>2021-07-13T10:28:06Z</time>
      </trkpt>
      <trkpt lat="42.802090" lon="-7.615278">
        <ele>356.329</ele>
        <time>2021-07-13T10:28:07Z</time>
      </trkpt>
      <trkpt lat="42.802093" lon="-7.615315">
        <ele>356.369</ele>
        <time>2021-07-13T10:28:08Z</time>
      </trkpt>
      <trkpt lat="42.802088" lon="-7.615352">
        <ele>356.313</ele>
        <time>2021-07-13T10:28:09Z</time>
      </trkpt>
      <trkpt lat="42.802081" lon="-7.615390">
        <ele>356.371</ele>
        <time>2021-07-13T10:28:10Z</time>
      </trkpt>
      <trkpt lat="42.802056" lon="-7.615518">
        <ele>356.798</ele>
        <time>2021-07-13T10:28:14Z</time>
      </trkpt>
      <trkpt lat="42.802060" lon="-7.615536">
        <ele>356.766</ele>
        <time>2021-07-13T10:28:15Z</time>
      </trkpt>
      <trkpt lat="42.802066" lon="-7.615548">
        <ele>356.736</ele>
        <time>2021-07-13T10:28:16Z</time>
      </trkpt>
      <trkpt lat="42.802075" lon="-7.615559">
        <ele>356.317</ele>
        <time>2021-07-13T10:28:17Z</time>
      </trkpt>
      <trkpt lat="42.802084" lon="-7.615570">
        <ele>356.318</ele>
        <time>2021-07-13T10:28:18Z</time>
      </trkpt>
      <trkpt lat="42.802090" lon="-7.615585">
        <ele>355.808</ele>
        <time>2021-07-13T10:28:25Z</time>
      </trkpt>
      <trkpt lat="42.802098" lon="-7.615591">
        <ele>355.370</ele>
        <time>2021-07-13T10:28:33Z</time>
      </trkpt>
      <trkpt lat="42.802095" lon="-7.615576">
        <ele>354.362</ele>
        <time>2021-07-13T10:28:40Z</time>
      </trkpt>
      <trkpt lat="42.802083" lon="-7.615575">
        <ele>354.819</ele>
        <time>2021-07-13T10:28:47Z</time>
      </trkpt>
      <trkpt lat="42.802059" lon="-7.615518">
        <ele>355.849</ele>
        <time>2021-07-13T10:28:56Z</time>
      </trkpt>
      <trkpt lat="42.802056" lon="-7.615508">
        <ele>355.823</ele>
        <time>2021-07-13T10:28:59Z</time>
      </trkpt>
      <trkpt lat="42.802058" lon="-7.615484">
        <ele>355.321</ele>
        <time>2021-07-13T10:29:00Z</time>
      </trkpt>
      <trkpt lat="42.802064" lon="-7.615451">
        <ele>355.398</ele>
        <time>2021-07-13T10:29:01Z</time>
      </trkpt>
      <trkpt lat="42.802101" lon="-7.615230">
        <ele>355.396</ele>
        <time>2021-07-13T10:29:11Z</time>
      </trkpt>
      <trkpt lat="42.802084" lon="-7.615258">
        <ele>354.871</ele>
        <time>2021-07-13T10:29:18Z</time>
      </trkpt>
      <trkpt lat="42.802069" lon="-7.615256">
        <ele>355.341</ele>
        <time>2021-07-13T10:29:20Z</time>
      </trkpt>
      <trkpt lat="42.802057" lon="-7.615252">
        <ele>355.315</ele>
        <time>2021-07-13T10:29:21Z</time>
      </trkpt>
      <trkpt lat="42.802041" lon="-7.615245">
        <ele>355.308</ele>
        <time>2021-07-13T10:29:22Z</time>
      </trkpt>
      <trkpt lat="42.802033" lon="-7.615236">
        <ele>355.364</ele>
        <time>2021-07-13T10:29:23Z</time>
      </trkpt>
      <trkpt lat="42.802029" lon="-7.615224">
        <ele>355.356</ele>
        <time>2021-07-13T10:29:24Z</time>
      </trkpt>
      <trkpt lat="42.802027" lon="-7.615208">
        <ele>354.873</ele>
        <time>2021-07-13T10:29:25Z</time>
      </trkpt>
      <trkpt lat="42.802027" lon="-7.615193">
        <ele>354.833</ele>
        <time>2021-07-13T10:29:26Z</time>
      </trkpt>
      <trkpt lat="42.802030" lon="-7.615180">
        <ele>354.817</ele>
        <time>2021-07-13T10:29:27Z</time>
      </trkpt>
      <trkpt lat="42.802033" lon="-7.615166">
        <ele>354.845</ele>
        <time>2021-07-13T10:29:28Z</time>
      </trkpt>
      <trkpt lat="42.802036" lon="-7.615135">
        <ele>355.832</ele>
        <time>2021-07-13T10:29:35Z</time>
      </trkpt>
      <trkpt lat="42.802048" lon="-7.615049">
        <ele>355.850</ele>
        <time>2021-07-13T10:29:41Z</time>
      </trkpt>
      <trkpt lat="42.802037" lon="-7.615045">
        <ele>354.839</ele>
        <time>2021-07-13T10:29:49Z</time>
      </trkpt>
      <trkpt lat="42.802045" lon="-7.615047">
        <ele>353.901</ele>
        <time>2021-07-13T10:30:04Z</time>
      </trkpt>
      <trkpt lat="42.802048" lon="-7.615043">
        <ele>352.921</ele>
        <time>2021-07-13T10:30:23Z</time>
      </trkpt>
      <trkpt lat="42.802071" lon="-7.615042">
        <ele>351.008</ele>
        <time>2021-07-13T10:30:46Z</time>
      </trkpt>
      <trkpt lat="42.802062" lon="-7.615044">
        <ele>352.410</ele>
        <time>2021-07-13T10:31:04Z</time>
      </trkpt>
      <trkpt lat="42.802049" lon="-7.615043">
        <ele>354.382</ele>
        <time>2021-07-13T10:31:19Z</time>
      </trkpt>
      <trkpt lat="42.802048" lon="-7.615036">
        <ele>354.849</ele>
        <time>2021-07-13T10:31:26Z</time>
      </trkpt>
      <trkpt lat="42.802047" lon="-7.615012">
        <ele>354.399</ele>
        <time>2021-07-13T10:31:44Z</time>
      </trkpt>
      <trkpt lat="42.802040" lon="-7.615025">
        <ele>354.813</ele>
        <time>2021-07-13T10:32:02Z</time>
      </trkpt>
      <trkpt lat="42.802042" lon="-7.615024">
        <ele>354.351</ele>
        <time>2021-07-13T10:32:11Z</time>
      </trkpt>
      <trkpt lat="42.802041" lon="-7.615033">
        <ele>355.328</ele>
        <time>2021-07-13T10:32:25Z</time>
      </trkpt>
      <trkpt lat="42.802067" lon="-7.614955">
        <ele>355.346</ele>
        <time>2021-07-13T10:32:33Z</time>
      </trkpt>
      <trkpt lat="42.802115" lon="-7.614742">
        <ele>356.323</ele>
        <time>2021-07-13T10:32:40Z</time>
      </trkpt>
      <trkpt lat="42.802186" lon="-7.614372">
        <ele>358.283</ele>
        <time>2021-07-13T10:32:51Z</time>
      </trkpt>
      <trkpt lat="42.802247" lon="-7.614020">
        <ele>361.111</ele>
        <time>2021-07-13T10:33:01Z</time>
      </trkpt>
      <trkpt lat="42.802252" lon="-7.613622">
        <ele>363.508</ele>
        <time>2021-07-13T10:33:12Z</time>
      </trkpt>
      <trkpt lat="42.802167" lon="-7.613312">
        <ele>365.959</ele>
        <time>2021-07-13T10:33:22Z</time>
      </trkpt>
      <trkpt lat="42.801998" lon="-7.613093">
        <ele>365.961</ele>
        <time>2021-07-13T10:33:31Z</time>
      </trkpt>
      <trkpt lat="42.801763" lon="-7.612939">
        <ele>366.428</ele>
        <time>2021-07-13T10:33:40Z</time>
      </trkpt>
      <trkpt lat="42.801523" lon="-7.612793">
        <ele>365.488</ele>
        <time>2021-07-13T10:33:49Z</time>
      </trkpt>
      <trkpt lat="42.801166" lon="-7.612572">
        <ele>364.072</ele>
        <time>2021-07-13T10:33:58Z</time>
      </trkpt>
      <trkpt lat="42.801090" lon="-7.612506">
        <ele>363.590</ele>
        <time>2021-07-13T10:34:00Z</time>
      </trkpt>
      <trkpt lat="42.801040" lon="-7.612444">
        <ele>363.027</ele>
        <time>2021-07-13T10:34:02Z</time>
      </trkpt>
      <trkpt lat="42.801001" lon="-7.612353">
        <ele>363.085</ele>
        <time>2021-07-13T10:34:03Z</time>
      </trkpt>
      <trkpt lat="42.800989" lon="-7.612303">
        <ele>362.515</ele>
        <time>2021-07-13T10:34:04Z</time>
      </trkpt>
      <trkpt lat="42.800982" lon="-7.612254">
        <ele>362.565</ele>
        <time>2021-07-13T10:34:05Z</time>
      </trkpt>
      <trkpt lat="42.800979" lon="-7.612192">
        <ele>362.011</ele>
        <time>2021-07-13T10:34:06Z</time>
      </trkpt>
      <trkpt lat="42.800977" lon="-7.612137">
        <ele>361.508</ele>
        <time>2021-07-13T10:34:07Z</time>
      </trkpt>
      <trkpt lat="42.800981" lon="-7.611930">
        <ele>359.128</ele>
        <time>2021-07-13T10:34:12Z</time>
      </trkpt>
      <trkpt lat="42.800949" lon="-7.611886">
        <ele>359.170</ele>
        <time>2021-07-13T10:34:14Z</time>
      </trkpt>
      <trkpt lat="42.800928" lon="-7.611873">
        <ele>359.117</ele>
        <time>2021-07-13T10:34:16Z</time>
      </trkpt>
      <trkpt lat="42.800781" lon="-7.611829">
        <ele>360.627</ele>
        <time>2021-07-13T10:34:24Z</time>
      </trkpt>
      <trkpt lat="42.800635" lon="-7.611782">
        <ele>361.541</ele>
        <time>2021-07-13T10:34:32Z</time>
      </trkpt>
      <trkpt lat="42.800483" lon="-7.611700">
        <ele>363.039</ele>
        <time>2021-07-13T10:34:41Z</time>
      </trkpt>
      <trkpt lat="42.800479" lon="-7.611694">
        <ele>363.566</ele>
        <time>2021-07-13T10:34:46Z</time>
      </trkpt>
      <trkpt lat="42.800458" lon="-7.611608">
        <ele>364.454</ele>
        <time>2021-07-13T10:34:55Z</time>
      </trkpt>
      <trkpt lat="42.800449" lon="-7.611518">
        <ele>366.421</ele>
        <time>2021-07-13T10:35:04Z</time>
      </trkpt>
      <trkpt lat="42.800449" lon="-7.611440">
        <ele>369.741</ele>
        <time>2021-07-13T10:35:12Z</time>
      </trkpt>
      <trkpt lat="42.800443" lon="-7.611434">
        <ele>371.605</ele>
        <time>2021-07-13T10:35:20Z</time>
      </trkpt>
      <trkpt lat="42.800438" lon="-7.611336">
        <ele>371.208</ele>
        <time>2021-07-13T10:35:30Z</time>
      </trkpt>
      <trkpt lat="42.800430" lon="-7.611250">
        <ele>372.699</ele>
        <time>2021-07-13T10:35:40Z</time>
      </trkpt>
      <trkpt lat="42.800429" lon="-7.611215">
        <ele>375.551</ele>
        <time>2021-07-13T10:35:55Z</time>
      </trkpt>
      <trkpt lat="42.800417" lon="-7.611099">
        <ele>375.548</ele>
        <time>2021-07-13T10:36:06Z</time>
      </trkpt>
      <trkpt lat="42.800387" lon="-7.611029">
        <ele>376.088</ele>
        <time>2021-07-13T10:36:15Z</time>
      </trkpt>
      <trkpt lat="42.800371" lon="-7.611014">
        <ele>376.992</ele>
        <time>2021-07-13T10:36:25Z</time>
      </trkpt>
      <trkpt lat="42.800330" lon="-7.610977">
        <ele>377.490</ele>
        <time>2021-07-13T10:36:39Z</time>
      </trkpt>
      <trkpt lat="42.800258" lon="-7.610916">
        <ele>378.987</ele>
        <time>2021-07-13T10:36:49Z</time>
      </trkpt>
      <trkpt lat="42.800212" lon="-7.610891">
        <ele>380.365</ele>
        <time>2021-07-13T10:36:57Z</time>
      </trkpt>
      <trkpt lat="42.800188" lon="-7.610872">
        <ele>381.794</ele>
        <time>2021-07-13T10:37:07Z</time>
      </trkpt>
      <trkpt lat="42.800111" lon="-7.610799">
        <ele>384.157</ele>
        <time>2021-07-13T10:37:18Z</time>
      </trkpt>
      <trkpt lat="42.800079" lon="-7.610785">
        <ele>385.122</ele>
        <time>2021-07-13T10:37:26Z</time>
      </trkpt>
      <trkpt lat="42.799998" lon="-7.610743">
        <ele>386.108</ele>
        <time>2021-07-13T10:37:36Z</time>
      </trkpt>
      <trkpt lat="42.799957" lon="-7.610735">
        <ele>387.056</ele>
        <time>2021-07-13T10:37:44Z</time>
      </trkpt>
      <trkpt lat="42.799912" lon="-7.610705">
        <ele>386.588</ele>
        <time>2021-07-13T10:37:52Z</time>
      </trkpt>
      <trkpt lat="42.799784" lon="-7.610672">
        <ele>388.945</ele>
        <time>2021-07-13T10:38:05Z</time>
      </trkpt>
      <trkpt lat="42.799697" lon="-7.610625">
        <ele>390.975</ele>
        <time>2021-07-13T10:38:15Z</time>
      </trkpt>
      <trkpt lat="42.799676" lon="-7.610602">
        <ele>391.869</ele>
        <time>2021-07-13T10:38:18Z</time>
      </trkpt>
      <trkpt lat="42.799623" lon="-7.610532">
        <ele>393.897</ele>
        <time>2021-07-13T10:38:27Z</time>
      </trkpt>
      <trkpt lat="42.799617" lon="-7.610506">
        <ele>393.824</ele>
        <time>2021-07-13T10:38:40Z</time>
      </trkpt>
      <trkpt lat="42.799574" lon="-7.610394">
        <ele>394.232</ele>
        <time>2021-07-13T10:38:50Z</time>
      </trkpt>
      <trkpt lat="42.799550" lon="-7.610270">
        <ele>395.735</ele>
        <time>2021-07-13T10:38:59Z</time>
      </trkpt>
      <trkpt lat="42.799532" lon="-7.610116">
        <ele>398.186</ele>
        <time>2021-07-13T10:39:11Z</time>
      </trkpt>
      <trkpt lat="42.799512" lon="-7.609984">
        <ele>400.514</ele>
        <time>2021-07-13T10:39:22Z</time>
      </trkpt>
      <trkpt lat="42.799501" lon="-7.609923">
        <ele>401.908</ele>
        <time>2021-07-13T10:39:32Z</time>
      </trkpt>
      <trkpt lat="42.799485" lon="-7.609849">
        <ele>402.990</ele>
        <time>2021-07-13T10:39:40Z</time>
      </trkpt>
      <trkpt lat="42.799450" lon="-7.609732">
        <ele>404.372</ele>
        <time>2021-07-13T10:39:51Z</time>
      </trkpt>
      <trkpt lat="42.799443" lon="-7.609725">
        <ele>404.829</ele>
        <time>2021-07-13T10:39:59Z</time>
      </trkpt>
      <trkpt lat="42.799403" lon="-7.609609">
        <ele>406.739</ele>
        <time>2021-07-13T10:40:10Z</time>
      </trkpt>
      <trkpt lat="42.799375" lon="-7.609551">
        <ele>407.793</ele>
        <time>2021-07-13T10:40:21Z</time>
      </trkpt>
      <trkpt lat="42.799353" lon="-7.609488">
        <ele>409.111</ele>
        <time>2021-07-13T10:40:30Z</time>
      </trkpt>
      <trkpt lat="42.799323" lon="-7.609421">
        <ele>411.138</ele>
        <time>2021-07-13T10:40:40Z</time>
      </trkpt>
      <trkpt lat="42.799314" lon="-7.609386">
        <ele>413.596</ele>
        <time>2021-07-13T10:40:53Z</time>
      </trkpt>
      <trkpt lat="42.799270" lon="-7.609292">
        <ele>414.941</ele>
        <time>2021-07-13T10:41:04Z</time>
      </trkpt>
      <trkpt lat="42.799257" lon="-7.609248">
        <ele>414.981</ele>
        <time>2021-07-13T10:41:14Z</time>
      </trkpt>
      <trkpt lat="42.799253" lon="-7.609240">
        <ele>415.409</ele>
        <time>2021-07-13T10:41:15Z</time>
      </trkpt>
      <trkpt lat="42.799212" lon="-7.609147">
        <ele>416.308</ele>
        <time>2021-07-13T10:41:24Z</time>
      </trkpt>
      <trkpt lat="42.799203" lon="-7.609125">
        <ele>416.861</ele>
        <time>2021-07-13T10:41:33Z</time>
      </trkpt>
      <trkpt lat="42.799177" lon="-7.609053">
        <ele>416.373</ele>
        <time>2021-07-13T10:41:41Z</time>
      </trkpt>
      <trkpt lat="42.799136" lon="-7.608933">
        <ele>415.980</ele>
        <time>2021-07-13T10:41:52Z</time>
      </trkpt>
      <trkpt lat="42.799085" lon="-7.608806">
        <ele>414.990</ele>
        <time>2021-07-13T10:42:02Z</time>
      </trkpt>
      <trkpt lat="42.799011" lon="-7.608733">
        <ele>416.344</ele>
        <time>2021-07-13T10:42:10Z</time>
      </trkpt>
      <trkpt lat="42.798919" lon="-7.608710">
        <ele>416.832</ele>
        <time>2021-07-13T10:42:20Z</time>
      </trkpt>
      <trkpt lat="42.798933" lon="-7.608724">
        <ele>417.899</ele>
        <time>2021-07-13T10:42:35Z</time>
      </trkpt>
      <trkpt lat="42.798876" lon="-7.608717">
        <ele>418.727</ele>
        <time>2021-07-13T10:42:42Z</time>
      </trkpt>
      <trkpt lat="42.798680" lon="-7.608677">
        <ele>419.273</ele>
        <time>2021-07-13T10:42:52Z</time>
      </trkpt>
      <trkpt lat="42.798514" lon="-7.608654">
        <ele>419.785</ele>
        <time>2021-07-13T10:43:00Z</time>
      </trkpt>
      <trkpt lat="42.798346" lon="-7.608619">
        <ele>420.713</ele>
        <time>2021-07-13T10:43:08Z</time>
      </trkpt>
      <trkpt lat="42.798146" lon="-7.608505">
        <ele>422.608</ele>
        <time>2021-07-13T10:43:18Z</time>
      </trkpt>
      <trkpt lat="42.798022" lon="-7.608407">
        <ele>424.014</ele>
        <time>2021-07-13T10:43:25Z</time>
      </trkpt>
      <trkpt lat="42.797901" lon="-7.608300">
        <ele>425.016</ele>
        <time>2021-07-13T10:43:32Z</time>
      </trkpt>
      <trkpt lat="42.797739" lon="-7.608174">
        <ele>426.033</ele>
        <time>2021-07-13T10:43:42Z</time>
      </trkpt>
      <trkpt lat="42.797703" lon="-7.608146">
        <ele>426.053</ele>
        <time>2021-07-13T10:43:46Z</time>
      </trkpt>
      <trkpt lat="42.797688" lon="-7.608151">
        <ele>426.017</ele>
        <time>2021-07-13T10:43:47Z</time>
      </trkpt>
      <trkpt lat="42.797667" lon="-7.608157">
        <ele>426.055</ele>
        <time>2021-07-13T10:43:48Z</time>
      </trkpt>
      <trkpt lat="42.797647" lon="-7.608158">
        <ele>426.092</ele>
        <time>2021-07-13T10:43:49Z</time>
      </trkpt>
      <trkpt lat="42.797626" lon="-7.608160">
        <ele>426.080</ele>
        <time>2021-07-13T10:43:50Z</time>
      </trkpt>
      <trkpt lat="42.797435" lon="-7.608254">
        <ele>426.059</ele>
        <time>2021-07-13T10:43:59Z</time>
      </trkpt>
      <trkpt lat="42.797147" lon="-7.608436">
        <ele>426.903</ele>
        <time>2021-07-13T10:44:11Z</time>
      </trkpt>
      <trkpt lat="42.796889" lon="-7.608602">
        <ele>427.423</ele>
        <time>2021-07-13T10:44:21Z</time>
      </trkpt>
      <trkpt lat="42.796636" lon="-7.608835">
        <ele>428.408</ele>
        <time>2021-07-13T10:44:32Z</time>
      </trkpt>
      <trkpt lat="42.796562" lon="-7.609055">
        <ele>429.362</ele>
        <time>2021-07-13T10:44:39Z</time>
      </trkpt>
      <trkpt lat="42.796499" lon="-7.609145">
        <ele>429.884</ele>
        <time>2021-07-13T10:44:45Z</time>
      </trkpt>
      <trkpt lat="42.796394" lon="-7.609233">
        <ele>429.891</ele>
        <time>2021-07-13T10:44:51Z</time>
      </trkpt>
      <trkpt lat="42.796266" lon="-7.609310">
        <ele>429.851</ele>
        <time>2021-07-13T10:44:56Z</time>
      </trkpt>
      <trkpt lat="42.796235" lon="-7.609286">
        <ele>429.875</ele>
        <time>2021-07-13T10:44:58Z</time>
      </trkpt>
      <trkpt lat="42.796075" lon="-7.609173">
        <ele>430.373</ele>
        <time>2021-07-13T10:45:04Z</time>
      </trkpt>
      <trkpt lat="42.795993" lon="-7.608999">
        <ele>430.380</ele>
        <time>2021-07-13T10:45:09Z</time>
      </trkpt>
      <trkpt lat="42.795921" lon="-7.608566">
        <ele>429.848</ele>
        <time>2021-07-13T10:45:19Z</time>
      </trkpt>
      <trkpt lat="42.795833" lon="-7.608228">
        <ele>429.357</ele>
        <time>2021-07-13T10:45:27Z</time>
      </trkpt>
      <trkpt lat="42.795715" lon="-7.607864">
        <ele>428.800</ele>
        <time>2021-07-13T10:45:35Z</time>
      </trkpt>
      <trkpt lat="42.795670" lon="-7.607412">
        <ele>427.920</ele>
        <time>2021-07-13T10:45:44Z</time>
      </trkpt>
      <trkpt lat="42.795600" lon="-7.606821">
        <ele>426.908</ele>
        <time>2021-07-13T10:45:55Z</time>
      </trkpt>
      <trkpt lat="42.795520" lon="-7.606369">
        <ele>426.412</ele>
        <time>2021-07-13T10:46:04Z</time>
      </trkpt>
      <trkpt lat="42.795455" lon="-7.605967">
        <ele>426.074</ele>
        <time>2021-07-13T10:46:12Z</time>
      </trkpt>
      <trkpt lat="42.795336" lon="-7.605627">
        <ele>426.481</ele>
        <time>2021-07-13T10:46:20Z</time>
      </trkpt>
      <trkpt lat="42.795253" lon="-7.605357">
        <ele>427.941</ele>
        <time>2021-07-13T10:46:27Z</time>
      </trkpt>
      <trkpt lat="42.795170" lon="-7.605023">
        <ele>428.435</ele>
        <time>2021-07-13T10:46:36Z</time>
      </trkpt>
      <trkpt lat="42.795102" lon="-7.604708">
        <ele>428.843</ele>
        <time>2021-07-13T10:46:45Z</time>
      </trkpt>
      <trkpt lat="42.795075" lon="-7.604440">
        <ele>429.820</ele>
        <time>2021-07-13T10:46:53Z</time>
      </trkpt>
      <trkpt lat="42.795113" lon="-7.604122">
        <ele>430.318</ele>
        <time>2021-07-13T10:47:04Z</time>
      </trkpt>
      <trkpt lat="42.795256" lon="-7.603908">
        <ele>431.766</ele>
        <time>2021-07-13T10:47:12Z</time>
      </trkpt>
      <trkpt lat="42.795371" lon="-7.603678">
        <ele>432.229</ele>
        <time>2021-07-13T10:47:21Z</time>
      </trkpt>
      <trkpt lat="42.795401" lon="-7.603631">
        <ele>432.721</ele>
        <time>2021-07-13T10:47:23Z</time>
      </trkpt>
      <trkpt lat="42.795549" lon="-7.603539">
        <ele>431.708</ele>
        <time>2021-07-13T10:47:30Z</time>
      </trkpt>
      <trkpt lat="42.795641" lon="-7.603374">
        <ele>432.253</ele>
        <time>2021-07-13T10:47:35Z</time>
      </trkpt>
      <trkpt lat="42.795687" lon="-7.603039">
        <ele>432.275</ele>
        <time>2021-07-13T10:47:45Z</time>
      </trkpt>
      <trkpt lat="42.795449" lon="-7.601854">
        <ele>436.582</ele>
        <time>2021-07-13T10:48:22Z</time>
      </trkpt>
      <trkpt lat="42.795469" lon="-7.601667">
        <ele>436.592</ele>
        <time>2021-07-13T10:48:29Z</time>
      </trkpt>
      <trkpt lat="42.795497" lon="-7.601498">
        <ele>436.576</ele>
        <time>2021-07-13T10:48:36Z</time>
      </trkpt>
      <trkpt lat="42.795521" lon="-7.601217">
        <ele>437.034</ele>
        <time>2021-07-13T10:48:45Z</time>
      </trkpt>
      <trkpt lat="42.795547" lon="-7.601066">
        <ele>437.061</ele>
        <time>2021-07-13T10:48:52Z</time>
      </trkpt>
      <trkpt lat="42.795609" lon="-7.600849">
        <ele>436.579</ele>
        <time>2021-07-13T10:48:59Z</time>
      </trkpt>
      <trkpt lat="42.795608" lon="-7.600560">
        <ele>437.061</ele>
        <time>2021-07-13T10:49:07Z</time>
      </trkpt>
      <trkpt lat="42.795561" lon="-7.600236">
        <ele>436.521</ele>
        <time>2021-07-13T10:49:15Z</time>
      </trkpt>
      <trkpt lat="42.795530" lon="-7.599953">
        <ele>436.513</ele>
        <time>2021-07-13T10:49:22Z</time>
      </trkpt>
      <trkpt lat="42.795491" lon="-7.599418">
        <ele>437.008</ele>
        <time>2021-07-13T10:49:33Z</time>
      </trkpt>
      <trkpt lat="42.795511" lon="-7.599038">
        <ele>437.043</ele>
        <time>2021-07-13T10:49:42Z</time>
      </trkpt>
      <trkpt lat="42.795550" lon="-7.598691">
        <ele>437.045</ele>
        <time>2021-07-13T10:49:51Z</time>
      </trkpt>
      <trkpt lat="42.795541" lon="-7.598468">
        <ele>438.042</ele>
        <time>2021-07-13T10:49:58Z</time>
      </trkpt>
      <trkpt lat="42.795492" lon="-7.598229">
        <ele>439.452</ele>
        <time>2021-07-13T10:50:06Z</time>
      </trkpt>
      <trkpt lat="42.795437" lon="-7.597957">
        <ele>441.836</ele>
        <time>2021-07-13T10:50:17Z</time>
      </trkpt>
      <trkpt lat="42.795392" lon="-7.597735">
        <ele>444.254</ele>
        <time>2021-07-13T10:50:26Z</time>
      </trkpt>
      <trkpt lat="42.795338" lon="-7.597497">
        <ele>445.781</ele>
        <time>2021-07-13T10:50:36Z</time>
      </trkpt>
      <trkpt lat="42.795258" lon="-7.597232">
        <ele>448.149</ele>
        <time>2021-07-13T10:50:47Z</time>
      </trkpt>
      <trkpt lat="42.795209" lon="-7.597059">
        <ele>449.018</ele>
        <time>2021-07-13T10:50:55Z</time>
      </trkpt>
      <trkpt lat="42.795199" lon="-7.596892">
        <ele>449.598</ele>
        <time>2021-07-13T10:51:03Z</time>
      </trkpt>
      <trkpt lat="42.795217" lon="-7.596715">
        <ele>450.017</ele>
        <time>2021-07-13T10:51:11Z</time>
      </trkpt>
      <trkpt lat="42.795258" lon="-7.596510">
        <ele>453.808</ele>
        <time>2021-07-13T10:51:21Z</time>
      </trkpt>
      <trkpt lat="42.795270" lon="-7.596331">
        <ele>454.838</ele>
        <time>2021-07-13T10:51:29Z</time>
      </trkpt>
      <trkpt lat="42.795265" lon="-7.596173">
        <ele>454.890</ele>
        <time>2021-07-13T10:51:37Z</time>
      </trkpt>
      <trkpt lat="42.795229" lon="-7.596009">
        <ele>455.837</ele>
        <time>2021-07-13T10:51:45Z</time>
      </trkpt>
      <trkpt lat="42.795221" lon="-7.595843">
        <ele>457.297</ele>
        <time>2021-07-13T10:51:52Z</time>
      </trkpt>
      <trkpt lat="42.795196" lon="-7.595624">
        <ele>459.631</ele>
        <time>2021-07-13T10:52:03Z</time>
      </trkpt>
      <trkpt lat="42.795185" lon="-7.595495">
        <ele>461.099</ele>
        <time>2021-07-13T10:52:10Z</time>
      </trkpt>
      <trkpt lat="42.795174" lon="-7.595445">
        <ele>462.076</ele>
        <time>2021-07-13T10:52:13Z</time>
      </trkpt>
      <trkpt lat="42.795179" lon="-7.595425">
        <ele>462.564</ele>
        <time>2021-07-13T10:52:14Z</time>
      </trkpt>
      <trkpt lat="42.795183" lon="-7.595402">
        <ele>463.028</ele>
        <time>2021-07-13T10:52:19Z</time>
      </trkpt>
      <trkpt lat="42.795183" lon="-7.595388">
        <ele>463.089</ele>
        <time>2021-07-13T10:52:25Z</time>
      </trkpt>
      <trkpt lat="42.795155" lon="-7.595312">
        <ele>463.417</ele>
        <time>2021-07-13T10:52:33Z</time>
      </trkpt>
      <trkpt lat="42.795151" lon="-7.595297">
        <ele>463.408</ele>
        <time>2021-07-13T10:52:34Z</time>
      </trkpt>
      <trkpt lat="42.795121" lon="-7.595132">
        <ele>464.969</ele>
        <time>2021-07-13T10:52:45Z</time>
      </trkpt>
      <trkpt lat="42.795101" lon="-7.595076">
        <ele>464.951</ele>
        <time>2021-07-13T10:52:49Z</time>
      </trkpt>
      <trkpt lat="42.795059" lon="-7.594907">
        <ele>466.398</ele>
        <time>2021-07-13T10:53:00Z</time>
      </trkpt>
      <trkpt lat="42.795029" lon="-7.594776">
        <ele>468.368</ele>
        <time>2021-07-13T10:53:10Z</time>
      </trkpt>
      <trkpt lat="42.795012" lon="-7.594623">
        <ele>469.742</ele>
        <time>2021-07-13T10:53:21Z</time>
      </trkpt>
      <trkpt lat="42.794996" lon="-7.594562">
        <ele>470.290</ele>
        <time>2021-07-13T10:53:30Z</time>
      </trkpt>
      <trkpt lat="42.794971" lon="-7.594500">
        <ele>471.627</ele>
        <time>2021-07-13T10:53:35Z</time>
      </trkpt>
      <trkpt lat="42.794967" lon="-7.594487">
        <ele>471.695</ele>
        <time>2021-07-13T10:53:36Z</time>
      </trkpt>
      <trkpt lat="42.794913" lon="-7.594277">
        <ele>473.151</ele>
        <time>2021-07-13T10:53:47Z</time>
      </trkpt>
      <trkpt lat="42.794890" lon="-7.594050">
        <ele>474.001</ele>
        <time>2021-07-13T10:54:00Z</time>
      </trkpt>
      <trkpt lat="42.794881" lon="-7.593798">
        <ele>475.011</ele>
        <time>2021-07-13T10:54:13Z</time>
      </trkpt>
      <trkpt lat="42.794881" lon="-7.593750">
        <ele>475.508</ele>
        <time>2021-07-13T10:54:20Z</time>
      </trkpt>
      <trkpt lat="42.794882" lon="-7.593747">
        <ele>476.442</ele>
        <time>2021-07-13T10:54:32Z</time>
      </trkpt>
      <trkpt lat="42.794875" lon="-7.593672">
        <ele>476.444</ele>
        <time>2021-07-13T10:54:37Z</time>
      </trkpt>
      <trkpt lat="42.794845" lon="-7.593491">
        <ele>475.921</ele>
        <time>2021-07-13T10:54:44Z</time>
      </trkpt>
      <trkpt lat="42.794814" lon="-7.593318">
        <ele>475.931</ele>
        <time>2021-07-13T10:54:52Z</time>
      </trkpt>
      <trkpt lat="42.794813" lon="-7.593311">
        <ele>475.945</ele>
        <time>2021-07-13T10:54:58Z</time>
      </trkpt>
      <trkpt lat="42.794813" lon="-7.593316">
        <ele>476.423</ele>
        <time>2021-07-13T10:55:11Z</time>
      </trkpt>
      <trkpt lat="42.794810" lon="-7.593306">
        <ele>476.420</ele>
        <time>2021-07-13T10:55:25Z</time>
      </trkpt>
      <trkpt lat="42.794774" lon="-7.593146">
        <ele>476.488</ele>
        <time>2021-07-13T10:55:31Z</time>
      </trkpt>
      <trkpt lat="42.794695" lon="-7.592791">
        <ele>476.961</ele>
        <time>2021-07-13T10:55:41Z</time>
      </trkpt>
      <trkpt lat="42.794592" lon="-7.592451">
        <ele>477.421</ele>
        <time>2021-07-13T10:55:50Z</time>
      </trkpt>
      <trkpt lat="42.794483" lon="-7.592109">
        <ele>479.813</ele>
        <time>2021-07-13T10:56:00Z</time>
      </trkpt>
      <trkpt lat="42.794450" lon="-7.591967">
        <ele>480.308</ele>
        <time>2021-07-13T10:56:06Z</time>
      </trkpt>
      <trkpt lat="42.794385" lon="-7.591669">
        <ele>480.893</ele>
        <time>2021-07-13T10:56:17Z</time>
      </trkpt>
      <trkpt lat="42.794312" lon="-7.591414">
        <ele>483.265</ele>
        <time>2021-07-13T10:56:27Z</time>
      </trkpt>
      <trkpt lat="42.794280" lon="-7.591296">
        <ele>483.652</ele>
        <time>2021-07-13T10:56:32Z</time>
      </trkpt>
      <trkpt lat="42.794272" lon="-7.591294">
        <ele>484.172</ele>
        <time>2021-07-13T10:56:33Z</time>
      </trkpt>
      <trkpt lat="42.794265" lon="-7.591316">
        <ele>484.616</ele>
        <time>2021-07-13T10:56:40Z</time>
      </trkpt>
      <trkpt lat="42.794266" lon="-7.591311">
        <ele>484.154</ele>
        <time>2021-07-13T10:56:55Z</time>
      </trkpt>
      <trkpt lat="42.794257" lon="-7.591316">
        <ele>484.121</ele>
        <time>2021-07-13T10:57:06Z</time>
      </trkpt>
      <trkpt lat="42.794251" lon="-7.591311">
        <ele>484.669</ele>
        <time>2021-07-13T10:57:18Z</time>
      </trkpt>
      <trkpt lat="42.794229" lon="-7.591298">
        <ele>484.641</ele>
        <time>2021-07-13T10:57:21Z</time>
      </trkpt>
      <trkpt lat="42.794236" lon="-7.591275">
        <ele>485.181</ele>
        <time>2021-07-13T10:57:22Z</time>
      </trkpt>
      <trkpt lat="42.794251" lon="-7.591251">
        <ele>485.109</ele>
        <time>2021-07-13T10:57:23Z</time>
      </trkpt>
      <trkpt lat="42.794272" lon="-7.591211">
        <ele>484.608</ele>
        <time>2021-07-13T10:57:25Z</time>
      </trkpt>
      <trkpt lat="42.794288" lon="-7.591168">
        <ele>484.691</ele>
        <time>2021-07-13T10:57:26Z</time>
      </trkpt>
      <trkpt lat="42.794297" lon="-7.591137">
        <ele>484.183</ele>
        <time>2021-07-13T10:57:27Z</time>
      </trkpt>
      <trkpt lat="42.794341" lon="-7.590830">
        <ele>485.170</ele>
        <time>2021-07-13T10:57:36Z</time>
      </trkpt>
      <trkpt lat="42.794366" lon="-7.590396">
        <ele>486.030</ele>
        <time>2021-07-13T10:57:48Z</time>
      </trkpt>
      <trkpt lat="42.793791" lon="-7.588505">
        <ele>505.754</ele>
        <time>2021-07-13T10:58:44Z</time>
      </trkpt>
      <trkpt lat="42.793872" lon="-7.588392">
        <ele>488.962</ele>
        <time>2021-07-13T10:58:51Z</time>
      </trkpt>
      <trkpt lat="42.793889" lon="-7.588229">
        <ele>500.559</ele>
        <time>2021-07-13T10:59:01Z</time>
      </trkpt>
      <trkpt lat="42.793893" lon="-7.588191">
        <ele>503.817</ele>
        <time>2021-07-13T10:59:05Z</time>
      </trkpt>
      <trkpt lat="42.793799" lon="-7.588087">
        <ele>505.321</ele>
        <time>2021-07-13T10:59:12Z</time>
      </trkpt>
      <trkpt lat="42.793759" lon="-7.587928">
        <ele>506.741</ele>
        <time>2021-07-13T10:59:20Z</time>
      </trkpt>
      <trkpt lat="42.793732" lon="-7.587735">
        <ele>507.205</ele>
        <time>2021-07-13T10:59:29Z</time>
      </trkpt>
      <trkpt lat="42.793769" lon="-7.587540">
        <ele>509.108</ele>
        <time>2021-07-13T10:59:37Z</time>
      </trkpt>
      <trkpt lat="42.793880" lon="-7.587285">
        <ele>510.169</ele>
        <time>2021-07-13T10:59:48Z</time>
      </trkpt>
      <trkpt lat="42.793927" lon="-7.587088">
        <ele>507.281</ele>
        <time>2021-07-13T10:59:57Z</time>
      </trkpt>
      <trkpt lat="42.793996" lon="-7.586791">
        <ele>504.888</ele>
        <time>2021-07-13T11:00:08Z</time>
      </trkpt>
      <trkpt lat="42.793926" lon="-7.586640">
        <ele>505.748</ele>
        <time>2021-07-13T11:00:16Z</time>
      </trkpt>
      <trkpt lat="42.793844" lon="-7.586581">
        <ele>506.772</ele>
        <time>2021-07-13T11:00:23Z</time>
      </trkpt>
      <trkpt lat="42.793837" lon="-7.586571">
        <ele>507.240</ele>
        <time>2021-07-13T11:00:31Z</time>
      </trkpt>
      <trkpt lat="42.793830" lon="-7.586537">
        <ele>507.287</ele>
        <time>2021-07-13T11:00:41Z</time>
      </trkpt>
      <trkpt lat="42.793820" lon="-7.586516">
        <ele>507.285</ele>
        <time>2021-07-13T11:00:48Z</time>
      </trkpt>
      <trkpt lat="42.793832" lon="-7.586506">
        <ele>505.785</ele>
        <time>2021-07-13T11:01:06Z</time>
      </trkpt>
      <trkpt lat="42.793772" lon="-7.586382">
        <ele>505.789</ele>
        <time>2021-07-13T11:01:15Z</time>
      </trkpt>
      <trkpt lat="42.793708" lon="-7.586211">
        <ele>507.717</ele>
        <time>2021-07-13T11:01:24Z</time>
      </trkpt>
      <trkpt lat="42.793652" lon="-7.586072">
        <ele>509.108</ele>
        <time>2021-07-13T11:01:31Z</time>
      </trkpt>
      <trkpt lat="42.793574" lon="-7.585850">
        <ele>512.555</ele>
        <time>2021-07-13T11:01:42Z</time>
      </trkpt>
      <trkpt lat="42.793501" lon="-7.585646">
        <ele>514.967</ele>
        <time>2021-07-13T11:01:53Z</time>
      </trkpt>
      <trkpt lat="42.793466" lon="-7.585552">
        <ele>516.814</ele>
        <time>2021-07-13T11:02:00Z</time>
      </trkpt>
      <trkpt lat="42.793476" lon="-7.585561">
        <ele>517.384</ele>
        <time>2021-07-13T11:02:10Z</time>
      </trkpt>
      <trkpt lat="42.793473" lon="-7.585546">
        <ele>516.318</ele>
        <time>2021-07-13T11:02:17Z</time>
      </trkpt>
      <trkpt lat="42.793479" lon="-7.585553">
        <ele>515.456</ele>
        <time>2021-07-13T11:02:35Z</time>
      </trkpt>
      <trkpt lat="42.793481" lon="-7.585539">
        <ele>516.823</ele>
        <time>2021-07-13T11:02:49Z</time>
      </trkpt>
      <trkpt lat="42.793472" lon="-7.585543">
        <ele>516.881</ele>
        <time>2021-07-13T11:03:12Z</time>
      </trkpt>
      <trkpt lat="42.793482" lon="-7.585562">
        <ele>518.254</ele>
        <time>2021-07-13T11:03:36Z</time>
      </trkpt>
      <trkpt lat="42.793487" lon="-7.585578">
        <ele>518.756</ele>
        <time>2021-07-13T11:03:58Z</time>
      </trkpt>
      <trkpt lat="42.793507" lon="-7.585530">
        <ele>518.211</ele>
        <time>2021-07-13T11:04:23Z</time>
      </trkpt>
      <trkpt lat="42.793490" lon="-7.585574">
        <ele>520.208</ele>
        <time>2021-07-13T11:04:44Z</time>
      </trkpt>
      <trkpt lat="42.793493" lon="-7.585572">
        <ele>520.212</ele>
        <time>2021-07-13T11:05:00Z</time>
      </trkpt>
      <trkpt lat="42.793474" lon="-7.585562">
        <ele>518.294</ele>
        <time>2021-07-13T11:05:19Z</time>
      </trkpt>
      <trkpt lat="42.793470" lon="-7.585552">
        <ele>518.271</ele>
        <time>2021-07-13T11:05:35Z</time>
      </trkpt>
      <trkpt lat="42.793470" lon="-7.585538">
        <ele>515.851</ele>
        <time>2021-07-13T11:05:52Z</time>
      </trkpt>
      <trkpt lat="42.793469" lon="-7.585510">
        <ele>515.425</ele>
        <time>2021-07-13T11:06:01Z</time>
      </trkpt>
      <trkpt lat="42.793390" lon="-7.585322">
        <ele>517.393</ele>
        <time>2021-07-13T11:06:14Z</time>
      </trkpt>
      <trkpt lat="42.793334" lon="-7.585159">
        <ele>519.210</ele>
        <time>2021-07-13T11:06:26Z</time>
      </trkpt>
      <trkpt lat="42.793309" lon="-7.585082">
        <ele>519.728</ele>
        <time>2021-07-13T11:06:34Z</time>
      </trkpt>
      <trkpt lat="42.793266" lon="-7.584969">
        <ele>520.689</ele>
        <time>2021-07-13T11:06:45Z</time>
      </trkpt>
      <trkpt lat="42.793227" lon="-7.584865">
        <ele>522.606</ele>
        <time>2021-07-13T11:06:55Z</time>
      </trkpt>
      <trkpt lat="42.793189" lon="-7.584770">
        <ele>523.526</ele>
        <time>2021-07-13T11:07:05Z</time>
      </trkpt>
      <trkpt lat="42.793132" lon="-7.584683">
        <ele>524.008</ele>
        <time>2021-07-13T11:07:16Z</time>
      </trkpt>
      <trkpt lat="42.793044" lon="-7.584599">
        <ele>526.925</ele>
        <time>2021-07-13T11:07:29Z</time>
      </trkpt>
      <trkpt lat="42.793003" lon="-7.584566">
        <ele>527.487</ele>
        <time>2021-07-13T11:07:34Z</time>
      </trkpt>
      <trkpt lat="42.792864" lon="-7.584467">
        <ele>529.344</ele>
        <time>2021-07-13T11:07:48Z</time>
      </trkpt>
      <trkpt lat="42.792749" lon="-7.584385">
        <ele>531.254</ele>
        <time>2021-07-13T11:08:00Z</time>
      </trkpt>
      <trkpt lat="42.792649" lon="-7.584320">
        <ele>532.248</ele>
        <time>2021-07-13T11:08:11Z</time>
      </trkpt>
      <trkpt lat="42.792560" lon="-7.584240">
        <ele>533.116</ele>
        <time>2021-07-13T11:08:22Z</time>
      </trkpt>
      <trkpt lat="42.792482" lon="-7.584158">
        <ele>534.193</ele>
        <time>2021-07-13T11:08:32Z</time>
      </trkpt>
      <trkpt lat="42.792473" lon="-7.584155">
        <ele>534.151</ele>
        <time>2021-07-13T11:08:37Z</time>
      </trkpt>
      <trkpt lat="42.792321" lon="-7.584001">
        <ele>536.047</ele>
        <time>2021-07-13T11:08:51Z</time>
      </trkpt>
      <trkpt lat="42.792215" lon="-7.583962">
        <ele>537.029</ele>
        <time>2021-07-13T11:08:58Z</time>
      </trkpt>
      <trkpt lat="42.792040" lon="-7.583965">
        <ele>537.921</ele>
        <time>2021-07-13T11:09:07Z</time>
      </trkpt>
      <trkpt lat="42.791906" lon="-7.583873">
        <ele>538.408</ele>
        <time>2021-07-13T11:09:16Z</time>
      </trkpt>
      <trkpt lat="42.791789" lon="-7.583767">
        <ele>539.991</ele>
        <time>2021-07-13T11:09:24Z</time>
      </trkpt>
      <trkpt lat="42.791678" lon="-7.583642">
        <ele>540.853</ele>
        <time>2021-07-13T11:09:33Z</time>
      </trkpt>
      <trkpt lat="42.791561" lon="-7.583535">
        <ele>542.810</ele>
        <time>2021-07-13T11:09:42Z</time>
      </trkpt>
      <trkpt lat="42.791469" lon="-7.583375">
        <ele>545.250</ele>
        <time>2021-07-13T11:09:52Z</time>
      </trkpt>
      <trkpt lat="42.791519" lon="-7.583184">
        <ele>547.194</ele>
        <time>2021-07-13T11:10:01Z</time>
      </trkpt>
      <trkpt lat="42.791535" lon="-7.583119">
        <ele>548.022</ele>
        <time>2021-07-13T11:10:04Z</time>
      </trkpt>
      <trkpt lat="42.791527" lon="-7.583088">
        <ele>548.089</ele>
        <time>2021-07-13T11:10:05Z</time>
      </trkpt>
      <trkpt lat="42.791512" lon="-7.583064">
        <ele>548.067</ele>
        <time>2021-07-13T11:10:07Z</time>
      </trkpt>
      <trkpt lat="42.791487" lon="-7.583043">
        <ele>548.544</ele>
        <time>2021-07-13T11:10:08Z</time>
      </trkpt>
      <trkpt lat="42.791472" lon="-7.583030">
        <ele>548.505</ele>
        <time>2021-07-13T11:10:09Z</time>
      </trkpt>
      <trkpt lat="42.791376" lon="-7.582921">
        <ele>549.515</ele>
        <time>2021-07-13T11:10:16Z</time>
      </trkpt>
      <trkpt lat="42.791258" lon="-7.582731">
        <ele>551.408</ele>
        <time>2021-07-13T11:10:26Z</time>
      </trkpt>
      <trkpt lat="42.791208" lon="-7.582493">
        <ele>552.911</ele>
        <time>2021-07-13T11:10:35Z</time>
      </trkpt>
      <trkpt lat="42.791173" lon="-7.582239">
        <ele>554.863</ele>
        <time>2021-07-13T11:10:44Z</time>
      </trkpt>
      <trkpt lat="42.791124" lon="-7.581957">
        <ele>556.210</ele>
        <time>2021-07-13T11:10:54Z</time>
      </trkpt>
      <trkpt lat="42.791091" lon="-7.581697">
        <ele>557.260</ele>
        <time>2021-07-13T11:11:03Z</time>
      </trkpt>
      <trkpt lat="42.791065" lon="-7.581467">
        <ele>558.114</ele>
        <time>2021-07-13T11:11:11Z</time>
      </trkpt>
      <trkpt lat="42.791031" lon="-7.581213">
        <ele>559.642</ele>
        <time>2021-07-13T11:11:20Z</time>
      </trkpt>
      <trkpt lat="42.791003" lon="-7.580961">
        <ele>560.129</ele>
        <time>2021-07-13T11:11:29Z</time>
      </trkpt>
      <trkpt lat="42.790953" lon="-7.580604">
        <ele>561.587</ele>
        <time>2021-07-13T11:11:41Z</time>
      </trkpt>
      <trkpt lat="42.790924" lon="-7.580305">
        <ele>562.936</ele>
        <time>2021-07-13T11:11:51Z</time>
      </trkpt>
      <trkpt lat="42.790896" lon="-7.580066">
        <ele>563.917</ele>
        <time>2021-07-13T11:11:59Z</time>
      </trkpt>
      <trkpt lat="42.790852" lon="-7.579804">
        <ele>566.818</ele>
        <time>2021-07-13T11:12:07Z</time>
      </trkpt>
      <trkpt lat="42.790809" lon="-7.579408">
        <ele>565.308</ele>
        <time>2021-07-13T11:12:18Z</time>
      </trkpt>
      <trkpt lat="42.790787" lon="-7.579088">
        <ele>564.910</ele>
        <time>2021-07-13T11:12:28Z</time>
      </trkpt>
      <trkpt lat="42.790779" lon="-7.578736">
        <ele>563.982</ele>
        <time>2021-07-13T11:12:38Z</time>
      </trkpt>
      <trkpt lat="42.790789" lon="-7.578400">
        <ele>563.449</ele>
        <time>2021-07-13T11:12:47Z</time>
      </trkpt>
      <trkpt lat="42.790820" lon="-7.578055">
        <ele>562.929</ele>
        <time>2021-07-13T11:12:56Z</time>
      </trkpt>
      <trkpt lat="42.790855" lon="-7.577713">
        <ele>562.953</ele>
        <time>2021-07-13T11:13:05Z</time>
      </trkpt>
      <trkpt lat="42.790910" lon="-7.577448">
        <ele>563.411</ele>
        <time>2021-07-13T11:13:14Z</time>
      </trkpt>
      <trkpt lat="42.790963" lon="-7.577172">
        <ele>562.558</ele>
        <time>2021-07-13T11:13:22Z</time>
      </trkpt>
      <trkpt lat="42.791010" lon="-7.576852">
        <ele>564.486</ele>
        <time>2021-07-13T11:13:30Z</time>
      </trkpt>
      <trkpt lat="42.791042" lon="-7.576510">
        <ele>563.943</ele>
        <time>2021-07-13T11:13:39Z</time>
      </trkpt>
      <trkpt lat="42.791072" lon="-7.576096">
        <ele>562.964</ele>
        <time>2021-07-13T11:13:49Z</time>
      </trkpt>
      <trkpt lat="42.791072" lon="-7.575940">
        <ele>562.510</ele>
        <time>2021-07-13T11:13:52Z</time>
      </trkpt>
      <trkpt lat="42.791061" lon="-7.575814">
        <ele>561.508</ele>
        <time>2021-07-13T11:13:54Z</time>
      </trkpt>
      <trkpt lat="42.791056" lon="-7.575740">
        <ele>561.081</ele>
        <time>2021-07-13T11:13:55Z</time>
      </trkpt>
      <trkpt lat="42.790985" lon="-7.575212">
        <ele>557.763</ele>
        <time>2021-07-13T11:14:01Z</time>
      </trkpt>
      <trkpt lat="42.790933" lon="-7.574682">
        <ele>554.350</ele>
        <time>2021-07-13T11:14:07Z</time>
      </trkpt>
      <trkpt lat="42.790941" lon="-7.574533">
        <ele>553.820</ele>
        <time>2021-07-13T11:14:08Z</time>
      </trkpt>
      <trkpt lat="42.791002" lon="-7.573926">
        <ele>550.054</ele>
        <time>2021-07-13T11:14:15Z</time>
      </trkpt>
      <trkpt lat="42.790993" lon="-7.573602">
        <ele>548.022</ele>
        <time>2021-07-13T11:14:21Z</time>
      </trkpt>
      <trkpt lat="42.790968" lon="-7.573149">
        <ele>544.799</ele>
        <time>2021-07-13T11:14:26Z</time>
      </trkpt>
      <trkpt lat="42.790890" lon="-7.572451">
        <ele>541.837</ele>
        <time>2021-07-13T11:14:34Z</time>
      </trkpt>
      <trkpt lat="42.790859" lon="-7.572362">
        <ele>542.311</ele>
        <time>2021-07-13T11:14:37Z</time>
      </trkpt>
      <trkpt lat="42.790790" lon="-7.572172">
        <ele>542.321</ele>
        <time>2021-07-13T11:14:45Z</time>
      </trkpt>
      <trkpt lat="42.790672" lon="-7.572012">
        <ele>541.803</ele>
        <time>2021-07-13T11:14:52Z</time>
      </trkpt>
      <trkpt lat="42.788986" lon="-7.570150">
        <ele>529.308</ele>
        <time>2021-07-13T11:15:52Z</time>
      </trkpt>
      <trkpt lat="42.788934" lon="-7.569938">
        <ele>527.978</ele>
        <time>2021-07-13T11:16:01Z</time>
      </trkpt>
      <trkpt lat="42.788953" lon="-7.569893">
        <ele>551.430</ele>
        <time>2021-07-13T11:16:13Z</time>
      </trkpt>
      <trkpt lat="42.788992" lon="-7.569874">
        <ele>551.497</ele>
        <time>2021-07-13T11:16:20Z</time>
      </trkpt>
      <trkpt lat="42.788992" lon="-7.569832">
        <ele>548.077</ele>
        <time>2021-07-13T11:16:33Z</time>
      </trkpt>
      <trkpt lat="42.788987" lon="-7.569832">
        <ele>548.521</ele>
        <time>2021-07-13T11:16:39Z</time>
      </trkpt>
      <trkpt lat="42.789019" lon="-7.569839">
        <ele>549.029</ele>
        <time>2021-07-13T11:16:51Z</time>
      </trkpt>
      <trkpt lat="42.789089" lon="-7.569905">
        <ele>549.576</ele>
        <time>2021-07-13T11:17:10Z</time>
      </trkpt>
      <trkpt lat="42.789092" lon="-7.569937">
        <ele>544.214</ele>
        <time>2021-07-13T11:17:34Z</time>
      </trkpt>
      <trkpt lat="42.789113" lon="-7.569924">
        <ele>543.745</ele>
        <time>2021-07-13T11:17:56Z</time>
      </trkpt>
      <trkpt lat="42.789124" lon="-7.569876">
        <ele>542.347</ele>
        <time>2021-07-13T11:18:10Z</time>
      </trkpt>
      <trkpt lat="42.789113" lon="-7.569880">
        <ele>543.211</ele>
        <time>2021-07-13T11:18:24Z</time>
      </trkpt>
      <trkpt lat="42.789067" lon="-7.569881">
        <ele>541.808</ele>
        <time>2021-07-13T11:18:41Z</time>
      </trkpt>
      <trkpt lat="42.789083" lon="-7.569918">
        <ele>538.411</ele>
        <time>2021-07-13T11:19:05Z</time>
      </trkpt>
      <trkpt lat="42.789080" lon="-7.569904">
        <ele>540.873</ele>
        <time>2021-07-13T11:19:16Z</time>
      </trkpt>
      <trkpt lat="42.789065" lon="-7.569866">
        <ele>541.310</ele>
        <time>2021-07-13T11:19:36Z</time>
      </trkpt>
      <trkpt lat="42.789052" lon="-7.569877">
        <ele>539.920</ele>
        <time>2021-07-13T11:19:58Z</time>
      </trkpt>
      <trkpt lat="42.789049" lon="-7.569862">
        <ele>540.464</ele>
        <time>2021-07-13T11:20:12Z</time>
      </trkpt>
      <trkpt lat="42.788981" lon="-7.569722">
        <ele>542.312</ele>
        <time>2021-07-13T11:20:20Z</time>
      </trkpt>
      <trkpt lat="42.788880" lon="-7.569538">
        <ele>543.799</ele>
        <time>2021-07-13T11:20:28Z</time>
      </trkpt>
      <trkpt lat="42.788820" lon="-7.569346">
        <ele>544.247</ele>
        <time>2021-07-13T11:20:36Z</time>
      </trkpt>
      <trkpt lat="42.788810" lon="-7.569315">
        <ele>544.796</ele>
        <time>2021-07-13T11:20:38Z</time>
      </trkpt>
      <trkpt lat="42.788804" lon="-7.569298">
        <ele>544.731</ele>
        <time>2021-07-13T11:20:39Z</time>
      </trkpt>
      <trkpt lat="42.788787" lon="-7.569081">
        <ele>549.024</ele>
        <time>2021-07-13T11:20:48Z</time>
      </trkpt>
      <trkpt lat="42.788746" lon="-7.568940">
        <ele>551.408</ele>
        <time>2021-07-13T11:20:56Z</time>
      </trkpt>
      <trkpt lat="42.788732" lon="-7.568899">
        <ele>552.446</ele>
        <time>2021-07-13T11:21:05Z</time>
      </trkpt>
      <trkpt lat="42.788713" lon="-7.568823">
        <ele>552.448</ele>
        <time>2021-07-13T11:21:11Z</time>
      </trkpt>
      <trkpt lat="42.788695" lon="-7.568711">
        <ele>551.955</ele>
        <time>2021-07-13T11:21:18Z</time>
      </trkpt>
      <trkpt lat="42.788691" lon="-7.568656">
        <ele>552.425</ele>
        <time>2021-07-13T11:21:20Z</time>
      </trkpt>
      <trkpt lat="42.788692" lon="-7.568637">
        <ele>552.499</ele>
        <time>2021-07-13T11:21:21Z</time>
      </trkpt>
      <trkpt lat="42.788695" lon="-7.568618">
        <ele>552.477</ele>
        <time>2021-07-13T11:21:22Z</time>
      </trkpt>
      <trkpt lat="42.788697" lon="-7.568596">
        <ele>552.414</ele>
        <time>2021-07-13T11:21:23Z</time>
      </trkpt>
      <trkpt lat="42.788700" lon="-7.568573">
        <ele>552.432</ele>
        <time>2021-07-13T11:21:24Z</time>
      </trkpt>
      <trkpt lat="42.788701" lon="-7.568549">
        <ele>552.436</ele>
        <time>2021-07-13T11:21:25Z</time>
      </trkpt>
      <trkpt lat="42.788709" lon="-7.568378">
        <ele>552.917</ele>
        <time>2021-07-13T11:21:33Z</time>
      </trkpt>
      <trkpt lat="42.788725" lon="-7.568214">
        <ele>553.818</ele>
        <time>2021-07-13T11:21:41Z</time>
      </trkpt>
      <trkpt lat="42.788727" lon="-7.568024">
        <ele>554.308</ele>
        <time>2021-07-13T11:21:50Z</time>
      </trkpt>
      <trkpt lat="42.788690" lon="-7.567879">
        <ele>556.240</ele>
        <time>2021-07-13T11:21:58Z</time>
      </trkpt>
      <trkpt lat="42.788683" lon="-7.567863">
        <ele>556.762</ele>
        <time>2021-07-13T11:21:59Z</time>
      </trkpt>
      <trkpt lat="42.788668" lon="-7.567850">
        <ele>559.629</ele>
        <time>2021-07-13T11:22:05Z</time>
      </trkpt>
      <trkpt lat="42.788640" lon="-7.567830">
        <ele>562.539</ele>
        <time>2021-07-13T11:22:13Z</time>
      </trkpt>
      <trkpt lat="42.788588" lon="-7.567754">
        <ele>563.463</ele>
        <time>2021-07-13T11:22:19Z</time>
      </trkpt>
      <trkpt lat="42.788581" lon="-7.567745">
        <ele>563.921</ele>
        <time>2021-07-13T11:22:20Z</time>
      </trkpt>
      <trkpt lat="42.788569" lon="-7.567737">
        <ele>563.938</ele>
        <time>2021-07-13T11:22:21Z</time>
      </trkpt>
      <trkpt lat="42.788521" lon="-7.567659">
        <ele>564.916</ele>
        <time>2021-07-13T11:22:28Z</time>
      </trkpt>
      <trkpt lat="42.788502" lon="-7.567592">
        <ele>566.348</ele>
        <time>2021-07-13T11:22:33Z</time>
      </trkpt>
      <trkpt lat="42.788498" lon="-7.567576">
        <ele>566.361</ele>
        <time>2021-07-13T11:22:34Z</time>
      </trkpt>
      <trkpt lat="42.788495" lon="-7.567555">
        <ele>566.817</ele>
        <time>2021-07-13T11:22:35Z</time>
      </trkpt>
      <trkpt lat="42.788494" lon="-7.567537">
        <ele>566.808</ele>
        <time>2021-07-13T11:22:36Z</time>
      </trkpt>
      <trkpt lat="42.788493" lon="-7.567519">
        <ele>566.811</ele>
        <time>2021-07-13T11:22:37Z</time>
      </trkpt>
      <trkpt lat="42.788495" lon="-7.567504">
        <ele>566.843</ele>
        <time>2021-07-13T11:22:38Z</time>
      </trkpt>
      <trkpt lat="42.788497" lon="-7.567489">
        <ele>566.850</ele>
        <time>2021-07-13T11:22:39Z</time>
      </trkpt>
      <trkpt lat="42.788507" lon="-7.567408">
        <ele>566.850</ele>
        <time>2021-07-13T11:22:44Z</time>
      </trkpt>
      <trkpt lat="42.788510" lon="-7.567382">
        <ele>567.334</ele>
        <time>2021-07-13T11:22:45Z</time>
      </trkpt>
      <trkpt lat="42.788508" lon="-7.567322">
        <ele>567.892</ele>
        <time>2021-07-13T11:22:48Z</time>
      </trkpt>
      <trkpt lat="42.788508" lon="-7.567282">
        <ele>567.819</ele>
        <time>2021-07-13T11:22:49Z</time>
      </trkpt>
      <trkpt lat="42.788459" lon="-7.567005">
        <ele>568.747</ele>
        <time>2021-07-13T11:22:58Z</time>
      </trkpt>
      <trkpt lat="42.788303" lon="-7.566813">
        <ele>566.858</ele>
        <time>2021-07-13T11:23:08Z</time>
      </trkpt>
      <trkpt lat="42.788207" lon="-7.566685">
        <ele>566.852</ele>
        <time>2021-07-13T11:23:14Z</time>
      </trkpt>
      <trkpt lat="42.788102" lon="-7.566486">
        <ele>568.217</ele>
        <time>2021-07-13T11:23:22Z</time>
      </trkpt>
      <trkpt lat="42.788080" lon="-7.566373">
        <ele>568.708</ele>
        <time>2021-07-13T11:23:25Z</time>
      </trkpt>
      <trkpt lat="42.787996" lon="-7.566079">
        <ele>569.712</ele>
        <time>2021-07-13T11:23:35Z</time>
      </trkpt>
      <trkpt lat="42.787953" lon="-7.565851">
        <ele>571.154</ele>
        <time>2021-07-13T11:23:43Z</time>
      </trkpt>
      <trkpt lat="42.787887" lon="-7.565665">
        <ele>571.691</ele>
        <time>2021-07-13T11:23:50Z</time>
      </trkpt>
      <trkpt lat="42.787776" lon="-7.565502">
        <ele>571.661</ele>
        <time>2021-07-13T11:23:59Z</time>
      </trkpt>
      <trkpt lat="42.787760" lon="-7.565463">
        <ele>572.115</ele>
        <time>2021-07-13T11:24:02Z</time>
      </trkpt>
      <trkpt lat="42.787751" lon="-7.565455">
        <ele>572.113</ele>
        <time>2021-07-13T11:24:03Z</time>
      </trkpt>
      <trkpt lat="42.787737" lon="-7.565437">
        <ele>572.170</ele>
        <time>2021-07-13T11:24:05Z</time>
      </trkpt>
      <trkpt lat="42.787729" lon="-7.565416">
        <ele>572.648</ele>
        <time>2021-07-13T11:24:06Z</time>
      </trkpt>
      <trkpt lat="42.787723" lon="-7.565399">
        <ele>572.611</ele>
        <time>2021-07-13T11:24:07Z</time>
      </trkpt>
      <trkpt lat="42.787716" lon="-7.565384">
        <ele>572.621</ele>
        <time>2021-07-13T11:24:08Z</time>
      </trkpt>
      <trkpt lat="42.787712" lon="-7.565367">
        <ele>572.603</ele>
        <time>2021-07-13T11:24:09Z</time>
      </trkpt>
      <trkpt lat="42.787708" lon="-7.565351">
        <ele>572.608</ele>
        <time>2021-07-13T11:24:10Z</time>
      </trkpt>
      <trkpt lat="42.787700" lon="-7.565334">
        <ele>572.618</ele>
        <time>2021-07-13T11:24:11Z</time>
      </trkpt>
      <trkpt lat="42.787689" lon="-7.565307">
        <ele>572.650</ele>
        <time>2021-07-13T11:24:13Z</time>
      </trkpt>
      <trkpt lat="42.787456" lon="-7.563501">
        <ele>493.247</ele>
        <time>2021-07-13T11:25:18Z</time>
      </trkpt>
      <trkpt lat="42.787235" lon="-7.563597">
        <ele>517.867</ele>
        <time>2021-07-13T11:25:24Z</time>
      </trkpt>
      <trkpt lat="42.787129" lon="-7.563550">
        <ele>529.861</ele>
        <time>2021-07-13T11:25:30Z</time>
      </trkpt>
      <trkpt lat="42.787166" lon="-7.563771">
        <ele>561.549</ele>
        <time>2021-07-13T11:25:37Z</time>
      </trkpt>
      <trkpt lat="42.787059" lon="-7.563752">
        <ele>567.826</ele>
        <time>2021-07-13T11:25:48Z</time>
      </trkpt>
      <trkpt lat="42.787036" lon="-7.563766">
        <ele>572.144</ele>
        <time>2021-07-13T11:25:56Z</time>
      </trkpt>
      <trkpt lat="42.787022" lon="-7.563797">
        <ele>587.512</ele>
        <time>2021-07-13T11:26:13Z</time>
      </trkpt>
      <trkpt lat="42.787003" lon="-7.563789">
        <ele>586.032</ele>
        <time>2021-07-13T11:26:26Z</time>
      </trkpt>
      <trkpt lat="42.786880" lon="-7.563721">
        <ele>586.505</ele>
        <time>2021-07-13T11:26:37Z</time>
      </trkpt>
      <trkpt lat="42.786843" lon="-7.563696">
        <ele>586.508</ele>
        <time>2021-07-13T11:26:46Z</time>
      </trkpt>
      <trkpt lat="42.786840" lon="-7.563703">
        <ele>587.978</ele>
        <time>2021-07-13T11:26:57Z</time>
      </trkpt>
      <trkpt lat="42.786837" lon="-7.563713">
        <ele>588.940</ele>
        <time>2021-07-13T11:27:13Z</time>
      </trkpt>
      <trkpt lat="42.786828" lon="-7.563708">
        <ele>588.467</ele>
        <time>2021-07-13T11:27:26Z</time>
      </trkpt>
      <trkpt lat="42.786829" lon="-7.563704">
        <ele>587.967</ele>
        <time>2021-07-13T11:27:38Z</time>
      </trkpt>
      <trkpt lat="42.786832" lon="-7.563701">
        <ele>587.551</ele>
        <time>2021-07-13T11:27:51Z</time>
      </trkpt>
      <trkpt lat="42.786822" lon="-7.563733">
        <ele>588.989</ele>
        <time>2021-07-13T11:28:09Z</time>
      </trkpt>
      <trkpt lat="42.786839" lon="-7.563726">
        <ele>588.916</ele>
        <time>2021-07-13T11:28:20Z</time>
      </trkpt>
      <trkpt lat="42.786859" lon="-7.563703">
        <ele>590.374</ele>
        <time>2021-07-13T11:28:40Z</time>
      </trkpt>
      <trkpt lat="42.786851" lon="-7.563699">
        <ele>587.966</ele>
        <time>2021-07-13T11:29:07Z</time>
      </trkpt>
      <trkpt lat="42.786839" lon="-7.563688">
        <ele>587.929</ele>
        <time>2021-07-13T11:29:27Z</time>
      </trkpt>
      <trkpt lat="42.786924" lon="-7.563695">
        <ele>580.721</ele>
        <time>2021-07-13T12:39:42Z</time>
      </trkpt>
      <trkpt lat="42.786878" lon="-7.563706">
        <ele>588.908</ele>
        <time>2021-07-13T12:39:46Z</time>
      </trkpt>
      <trkpt lat="42.786879" lon="-7.563712">
        <ele>588.453</ele>
        <time>2021-07-13T12:39:54Z</time>
      </trkpt>
      <trkpt lat="42.786868" lon="-7.563713">
        <ele>589.955</ele>
        <time>2021-07-13T12:40:03Z</time>
      </trkpt>
      <trkpt lat="42.786893" lon="-7.563718">
        <ele>590.852</ele>
        <time>2021-07-13T12:40:11Z</time>
      </trkpt>
      <trkpt lat="42.786927" lon="-7.563731">
        <ele>590.892</ele>
        <time>2021-07-13T12:40:13Z</time>
      </trkpt>
      <trkpt lat="42.787018" lon="-7.563554">
        <ele>591.346</ele>
        <time>2021-07-13T12:40:29Z</time>
      </trkpt>
      <trkpt lat="42.786961" lon="-7.563433">
        <ele>591.824</ele>
        <time>2021-07-13T12:40:36Z</time>
      </trkpt>
      <trkpt lat="42.786958" lon="-7.563418">
        <ele>591.891</ele>
        <time>2021-07-13T12:40:37Z</time>
      </trkpt>
      <trkpt lat="42.786977" lon="-7.563278">
        <ele>590.889</ele>
        <time>2021-07-13T12:40:46Z</time>
      </trkpt>
      <trkpt lat="42.786990" lon="-7.563225">
        <ele>591.339</ele>
        <time>2021-07-13T12:40:50Z</time>
      </trkpt>
      <trkpt lat="42.787007" lon="-7.563081">
        <ele>592.701</ele>
        <time>2021-07-13T12:40:59Z</time>
      </trkpt>
      <trkpt lat="42.786984" lon="-7.563002">
        <ele>594.221</ele>
        <time>2021-07-13T12:41:03Z</time>
      </trkpt>
      <trkpt lat="42.786964" lon="-7.562880">
        <ele>597.608</ele>
        <time>2021-07-13T12:41:11Z</time>
      </trkpt>
      <trkpt lat="42.786959" lon="-7.562879">
        <ele>599.040</ele>
        <time>2021-07-13T12:41:19Z</time>
      </trkpt>
      <trkpt lat="42.786953" lon="-7.562863">
        <ele>599.512</ele>
        <time>2021-07-13T12:41:34Z</time>
      </trkpt>
      <trkpt lat="42.786936" lon="-7.562832">
        <ele>598.599</ele>
        <time>2021-07-13T12:41:40Z</time>
      </trkpt>
      <trkpt lat="42.786937" lon="-7.562850">
        <ele>598.029</ele>
        <time>2021-07-13T12:41:53Z</time>
      </trkpt>
      <trkpt lat="42.786931" lon="-7.562853">
        <ele>598.013</ele>
        <time>2021-07-13T12:41:55Z</time>
      </trkpt>
      <trkpt lat="42.786861" lon="-7.562964">
        <ele>597.661</ele>
        <time>2021-07-13T12:42:03Z</time>
      </trkpt>
      <trkpt lat="42.786837" lon="-7.563007">
        <ele>597.688</ele>
        <time>2021-07-13T12:42:07Z</time>
      </trkpt>
      <trkpt lat="42.786796" lon="-7.563052">
        <ele>597.626</ele>
        <time>2021-07-13T12:42:10Z</time>
      </trkpt>
      <trkpt lat="42.786625" lon="-7.563247">
        <ele>595.648</ele>
        <time>2021-07-13T12:42:17Z</time>
      </trkpt>
      <trkpt lat="42.786486" lon="-7.563359">
        <ele>594.261</ele>
        <time>2021-07-13T12:42:20Z</time>
      </trkpt>
      <trkpt lat="42.786096" lon="-7.563513">
        <ele>592.317</ele>
        <time>2021-07-13T12:42:28Z</time>
      </trkpt>
      <trkpt lat="42.785881" lon="-7.563534">
        <ele>592.308</ele>
        <time>2021-07-13T12:42:32Z</time>
      </trkpt>
      <trkpt lat="42.785719" lon="-7.563544">
        <ele>592.331</ele>
        <time>2021-07-13T12:42:37Z</time>
      </trkpt>
      <trkpt lat="42.785621" lon="-7.563566">
        <ele>591.843</ele>
        <time>2021-07-13T12:42:45Z</time>
      </trkpt>
      <trkpt lat="42.785620" lon="-7.563566">
        <ele>591.310</ele>
        <time>2021-07-13T12:43:00Z</time>
      </trkpt>
      <trkpt lat="42.785610" lon="-7.563575">
        <ele>592.790</ele>
        <time>2021-07-13T12:43:19Z</time>
      </trkpt>
      <trkpt lat="42.785564" lon="-7.563580">
        <ele>592.734</ele>
        <time>2021-07-13T12:43:33Z</time>
      </trkpt>
      <trkpt lat="42.785332" lon="-7.563610">
        <ele>592.332</ele>
        <time>2021-07-13T12:43:41Z</time>
      </trkpt>
      <trkpt lat="42.785003" lon="-7.563715">
        <ele>591.389</ele>
        <time>2021-07-13T12:43:50Z</time>
      </trkpt>
      <trkpt lat="42.784960" lon="-7.563715">
        <ele>590.897</ele>
        <time>2021-07-13T12:43:51Z</time>
      </trkpt>
      <trkpt lat="42.784916" lon="-7.563708">
        <ele>590.885</ele>
        <time>2021-07-13T12:43:52Z</time>
      </trkpt>
      <trkpt lat="42.784866" lon="-7.563689">
        <ele>590.889</ele>
        <time>2021-07-13T12:43:53Z</time>
      </trkpt>
      <trkpt lat="42.784819" lon="-7.563662">
        <ele>590.317</ele>
        <time>2021-07-13T12:43:54Z</time>
      </trkpt>
      <trkpt lat="42.784776" lon="-7.563628">
        <ele>590.308</ele>
        <time>2021-07-13T12:43:55Z</time>
      </trkpt>
      <trkpt lat="42.784726" lon="-7.563580">
        <ele>589.485</ele>
        <time>2021-07-13T12:43:56Z</time>
      </trkpt>
      <trkpt lat="42.784681" lon="-7.563525">
        <ele>589.477</ele>
        <time>2021-07-13T12:43:57Z</time>
      </trkpt>
      <trkpt lat="42.784637" lon="-7.563459">
        <ele>588.964</ele>
        <time>2021-07-13T12:43:58Z</time>
      </trkpt>
      <trkpt lat="42.784597" lon="-7.563390">
        <ele>588.424</ele>
        <time>2021-07-13T12:43:59Z</time>
      </trkpt>
      <trkpt lat="42.784554" lon="-7.563306">
        <ele>587.978</ele>
        <time>2021-07-13T12:44:00Z</time>
      </trkpt>
      <trkpt lat="42.784282" lon="-7.562705">
        <ele>583.126</ele>
        <time>2021-07-13T12:44:07Z</time>
      </trkpt>
      <trkpt lat="42.784046" lon="-7.562187">
        <ele>580.763</ele>
        <time>2021-07-13T12:44:13Z</time>
      </trkpt>
      <trkpt lat="42.783935" lon="-7.561933">
        <ele>580.221</ele>
        <time>2021-07-13T12:44:16Z</time>
      </trkpt>
      <trkpt lat="42.783887" lon="-7.561852">
        <ele>579.895</ele>
        <time>2021-07-13T12:44:17Z</time>
      </trkpt>
      <trkpt lat="42.783486" lon="-7.561332">
        <ele>577.849</ele>
        <time>2021-07-13T12:44:24Z</time>
      </trkpt>
      <trkpt lat="42.783116" lon="-7.560801">
        <ele>576.923</ele>
        <time>2021-07-13T12:44:31Z</time>
      </trkpt>
      <trkpt lat="42.783033" lon="-7.560685">
        <ele>576.908</ele>
        <time>2021-07-13T12:44:33Z</time>
      </trkpt>
      <trkpt lat="42.782986" lon="-7.560636">
        <ele>576.966</ele>
        <time>2021-07-13T12:44:34Z</time>
      </trkpt>
      <trkpt lat="42.782933" lon="-7.560594">
        <ele>576.428</ele>
        <time>2021-07-13T12:44:35Z</time>
      </trkpt>
      <trkpt lat="42.782878" lon="-7.560562">
        <ele>576.485</ele>
        <time>2021-07-13T12:44:36Z</time>
      </trkpt>
      <trkpt lat="42.782818" lon="-7.560540">
        <ele>576.425</ele>
        <time>2021-07-13T12:44:37Z</time>
      </trkpt>
      <trkpt lat="42.782755" lon="-7.560528">
        <ele>575.979</ele>
        <time>2021-07-13T12:44:38Z</time>
      </trkpt>
      <trkpt lat="42.782698" lon="-7.560524">
        <ele>575.917</ele>
        <time>2021-07-13T12:44:39Z</time>
      </trkpt>
      <trkpt lat="42.782643" lon="-7.560525">
        <ele>575.964</ele>
        <time>2021-07-13T12:44:40Z</time>
      </trkpt>
      <trkpt lat="42.782590" lon="-7.560531">
        <ele>575.422</ele>
        <time>2021-07-13T12:44:41Z</time>
      </trkpt>
      <trkpt lat="42.782547" lon="-7.560545">
        <ele>575.461</ele>
        <time>2021-07-13T12:44:42Z</time>
      </trkpt>
      <trkpt lat="42.782502" lon="-7.560561">
        <ele>575.021</ele>
        <time>2021-07-13T12:44:43Z</time>
      </trkpt>
      <trkpt lat="42.782447" lon="-7.560574">
        <ele>574.513</ele>
        <time>2021-07-13T12:44:44Z</time>
      </trkpt>
      <trkpt lat="42.782394" lon="-7.560586">
        <ele>574.508</ele>
        <time>2021-07-13T12:44:45Z</time>
      </trkpt>
      <trkpt lat="42.782341" lon="-7.560598">
        <ele>574.563</ele>
        <time>2021-07-13T12:44:46Z</time>
      </trkpt>
      <trkpt lat="42.782289" lon="-7.560610">
        <ele>574.565</ele>
        <time>2021-07-13T12:44:47Z</time>
      </trkpt>
      <trkpt lat="42.782234" lon="-7.560627">
        <ele>574.082</ele>
        <time>2021-07-13T12:44:48Z</time>
      </trkpt>
      <trkpt lat="42.781810" lon="-7.560836">
        <ele>572.692</ele>
        <time>2021-07-13T12:44:56Z</time>
      </trkpt>
      <trkpt lat="42.781712" lon="-7.560888">
        <ele>572.166</ele>
        <time>2021-07-13T12:44:58Z</time>
      </trkpt>
      <trkpt lat="42.781510" lon="-7.560937">
        <ele>571.164</ele>
        <time>2021-07-13T12:45:02Z</time>
      </trkpt>
      <trkpt lat="42.781246" lon="-7.560944">
        <ele>571.671</ele>
        <time>2021-07-13T12:45:09Z</time>
      </trkpt>
      <trkpt lat="42.780998" lon="-7.560929">
        <ele>573.569</ele>
        <time>2021-07-13T12:45:17Z</time>
      </trkpt>
      <trkpt lat="42.780703" lon="-7.560854">
        <ele>574.029</ele>
        <time>2021-07-13T12:45:25Z</time>
      </trkpt>
      <trkpt lat="42.780391" lon="-7.560615">
        <ele>571.600</ele>
        <time>2021-07-13T12:45:34Z</time>
      </trkpt>
      <trkpt lat="42.780212" lon="-7.560284">
        <ele>570.620</ele>
        <time>2021-07-13T12:45:42Z</time>
      </trkpt>
      <trkpt lat="42.780058" lon="-7.559812">
        <ele>570.208</ele>
        <time>2021-07-13T12:45:52Z</time>
      </trkpt>
      <trkpt lat="42.779914" lon="-7.559375">
        <ele>570.239</ele>
        <time>2021-07-13T12:46:02Z</time>
      </trkpt>
      <trkpt lat="42.779800" lon="-7.559039">
        <ele>571.691</ele>
        <time>2021-07-13T12:46:11Z</time>
      </trkpt>
      <trkpt lat="42.779692" lon="-7.558739">
        <ele>574.538</ele>
        <time>2021-07-13T12:46:20Z</time>
      </trkpt>
      <trkpt lat="42.779610" lon="-7.558474">
        <ele>575.458</ele>
        <time>2021-07-13T12:46:27Z</time>
      </trkpt>
      <trkpt lat="42.779546" lon="-7.558090">
        <ele>575.922</ele>
        <time>2021-07-13T12:46:36Z</time>
      </trkpt>
      <trkpt lat="42.779543" lon="-7.557742">
        <ele>575.070</ele>
        <time>2021-07-13T12:46:44Z</time>
      </trkpt>
      <trkpt lat="42.779534" lon="-7.557182">
        <ele>574.567</ele>
        <time>2021-07-13T12:46:55Z</time>
      </trkpt>
      <trkpt lat="42.779559" lon="-7.556798">
        <ele>575.025</ele>
        <time>2021-07-13T12:47:03Z</time>
      </trkpt>
      <trkpt lat="42.779578" lon="-7.556437">
        <ele>575.453</ele>
        <time>2021-07-13T12:47:11Z</time>
      </trkpt>
      <trkpt lat="42.779583" lon="-7.556077">
        <ele>576.904</ele>
        <time>2021-07-13T12:47:20Z</time>
      </trkpt>
      <trkpt lat="42.779553" lon="-7.555705">
        <ele>577.814</ele>
        <time>2021-07-13T12:47:30Z</time>
      </trkpt>
      <trkpt lat="42.779531" lon="-7.555508">
        <ele>578.308</ele>
        <time>2021-07-13T12:47:36Z</time>
      </trkpt>
      <trkpt lat="42.779504" lon="-7.555226">
        <ele>577.832</ele>
        <time>2021-07-13T12:47:43Z</time>
      </trkpt>
      <trkpt lat="42.779497" lon="-7.554937">
        <ele>578.824</ele>
        <time>2021-07-13T12:47:50Z</time>
      </trkpt>
      <trkpt lat="42.779562" lon="-7.554578">
        <ele>577.431</ele>
        <time>2021-07-13T12:47:59Z</time>
      </trkpt>
      <trkpt lat="42.779627" lon="-7.554317">
        <ele>577.461</ele>
        <time>2021-07-13T12:48:05Z</time>
      </trkpt>
      <trkpt lat="42.779741" lon="-7.553893">
        <ele>578.895</ele>
        <time>2021-07-13T12:48:14Z</time>
      </trkpt>
      <trkpt lat="42.779839" lon="-7.553495">
        <ele>578.833</ele>
        <time>2021-07-13T12:48:22Z</time>
      </trkpt>
      <trkpt lat="42.779927" lon="-7.553191">
        <ele>576.450</ele>
        <time>2021-07-13T12:48:29Z</time>
      </trkpt>
      <trkpt lat="42.779942" lon="-7.553167">
        <ele>576.488</ele>
        <time>2021-07-13T12:48:30Z</time>
      </trkpt>
      <trkpt lat="42.779959" lon="-7.553158">
        <ele>576.995</ele>
        <time>2021-07-13T12:48:31Z</time>
      </trkpt>
      <trkpt lat="42.779981" lon="-7.553159">
        <ele>577.849</ele>
        <time>2021-07-13T12:48:33Z</time>
      </trkpt>
      <trkpt lat="42.780000" lon="-7.553176">
        <ele>578.323</ele>
        <time>2021-07-13T12:48:34Z</time>
      </trkpt>
      <trkpt lat="42.780010" lon="-7.553192">
        <ele>578.808</ele>
        <time>2021-07-13T12:48:35Z</time>
      </trkpt>
      <trkpt lat="42.780022" lon="-7.553216">
        <ele>579.356</ele>
        <time>2021-07-13T12:48:37Z</time>
      </trkpt>
      <trkpt lat="42.780073" lon="-7.553314">
        <ele>581.278</ele>
        <time>2021-07-13T12:48:43Z</time>
      </trkpt>
      <trkpt lat="42.780078" lon="-7.553330">
        <ele>581.245</ele>
        <time>2021-07-13T12:48:44Z</time>
      </trkpt>
      <trkpt lat="42.780080" lon="-7.553349">
        <ele>581.265</ele>
        <time>2021-07-13T12:48:45Z</time>
      </trkpt>
      <trkpt lat="42.780097" lon="-7.553471">
        <ele>583.179</ele>
        <time>2021-07-13T12:48:52Z</time>
      </trkpt>
      <trkpt lat="42.780097" lon="-7.553490">
        <ele>583.637</ele>
        <time>2021-07-13T12:48:53Z</time>
      </trkpt>
      <trkpt lat="42.780100" lon="-7.553507">
        <ele>584.124</ele>
        <time>2021-07-13T12:48:54Z</time>
      </trkpt>
      <trkpt lat="42.780101" lon="-7.553522">
        <ele>584.132</ele>
        <time>2021-07-13T12:48:55Z</time>
      </trkpt>
      <trkpt lat="42.780104" lon="-7.553538">
        <ele>584.697</ele>
        <time>2021-07-13T12:48:56Z</time>
      </trkpt>
      <trkpt lat="42.780106" lon="-7.553555">
        <ele>584.623</ele>
        <time>2021-07-13T12:48:57Z</time>
      </trkpt>
      <trkpt lat="42.780107" lon="-7.553572">
        <ele>585.125</ele>
        <time>2021-07-13T12:48:58Z</time>
      </trkpt>
      <trkpt lat="42.780107" lon="-7.553591">
        <ele>585.508</ele>
        <time>2021-07-13T12:48:59Z</time>
      </trkpt>
      <trkpt lat="42.780108" lon="-7.553609">
        <ele>585.576</ele>
        <time>2021-07-13T12:49:00Z</time>
      </trkpt>
      <trkpt lat="42.780112" lon="-7.553628">
        <ele>586.048</ele>
        <time>2021-07-13T12:49:01Z</time>
      </trkpt>
      <trkpt lat="42.780116" lon="-7.553646">
        <ele>586.535</ele>
        <time>2021-07-13T12:49:02Z</time>
      </trkpt>
      <trkpt lat="42.780121" lon="-7.553663">
        <ele>587.045</ele>
        <time>2021-07-13T12:49:03Z</time>
      </trkpt>
      <trkpt lat="42.780125" lon="-7.553680">
        <ele>587.569</ele>
        <time>2021-07-13T12:49:04Z</time>
      </trkpt>
      <trkpt lat="42.780130" lon="-7.553703">
        <ele>587.937</ele>
        <time>2021-07-13T12:49:05Z</time>
      </trkpt>
      <trkpt lat="42.780134" lon="-7.553723">
        <ele>588.984</ele>
        <time>2021-07-13T12:49:06Z</time>
      </trkpt>
      <trkpt lat="42.780156" lon="-7.553863">
        <ele>593.782</ele>
        <time>2021-07-13T12:49:15Z</time>
      </trkpt>
      <trkpt lat="42.780183" lon="-7.553931">
        <ele>594.724</ele>
        <time>2021-07-13T12:49:19Z</time>
      </trkpt>
      <trkpt lat="42.780193" lon="-7.553940">
        <ele>595.104</ele>
        <time>2021-07-13T12:49:20Z</time>
      </trkpt>
      <trkpt lat="42.780203" lon="-7.553947">
        <ele>595.114</ele>
        <time>2021-07-13T12:49:21Z</time>
      </trkpt>
      <trkpt lat="42.780217" lon="-7.553954">
        <ele>595.108</ele>
        <time>2021-07-13T12:49:22Z</time>
      </trkpt>
      <trkpt lat="42.780227" lon="-7.553959">
        <ele>595.629</ele>
        <time>2021-07-13T12:49:23Z</time>
      </trkpt>
      <trkpt lat="42.780237" lon="-7.553963">
        <ele>595.671</ele>
        <time>2021-07-13T12:49:24Z</time>
      </trkpt>
      <trkpt lat="42.780269" lon="-7.553973">
        <ele>596.198</ele>
        <time>2021-07-13T12:49:27Z</time>
      </trkpt>
      <trkpt lat="42.780280" lon="-7.553970">
        <ele>596.638</ele>
        <time>2021-07-13T12:49:28Z</time>
      </trkpt>
      <trkpt lat="42.780291" lon="-7.553968">
        <ele>596.632</ele>
        <time>2021-07-13T12:49:29Z</time>
      </trkpt>
      <trkpt lat="42.780358" lon="-7.553960">
        <ele>597.640</ele>
        <time>2021-07-13T12:49:35Z</time>
      </trkpt>
      <trkpt lat="42.780366" lon="-7.553948">
        <ele>597.627</ele>
        <time>2021-07-13T12:49:36Z</time>
      </trkpt>
      <trkpt lat="42.780428" lon="-7.553905">
        <ele>598.515</ele>
        <time>2021-07-13T12:49:43Z</time>
      </trkpt>
      <trkpt lat="42.780503" lon="-7.553847">
        <ele>599.537</ele>
        <time>2021-07-13T12:49:52Z</time>
      </trkpt>
      <trkpt lat="42.780562" lon="-7.553810">
        <ele>600.049</ele>
        <time>2021-07-13T12:49:59Z</time>
      </trkpt>
      <trkpt lat="42.780609" lon="-7.553783">
        <ele>600.413</ele>
        <time>2021-07-13T12:50:04Z</time>
      </trkpt>
      <trkpt lat="42.780656" lon="-7.553748">
        <ele>601.408</ele>
        <time>2021-07-13T12:50:10Z</time>
      </trkpt>
      <trkpt lat="42.780682" lon="-7.553741">
        <ele>601.910</ele>
        <time>2021-07-13T12:50:13Z</time>
      </trkpt>
      <trkpt lat="42.780737" lon="-7.553714">
        <ele>602.852</ele>
        <time>2021-07-13T12:50:19Z</time>
      </trkpt>
      <trkpt lat="42.780801" lon="-7.553683">
        <ele>604.889</ele>
        <time>2021-07-13T12:50:27Z</time>
      </trkpt>
      <trkpt lat="42.780874" lon="-7.553683">
        <ele>606.759</ele>
        <time>2021-07-13T12:50:35Z</time>
      </trkpt>
      <trkpt lat="42.780985" lon="-7.553667">
        <ele>608.133</ele>
        <time>2021-07-13T12:50:45Z</time>
      </trkpt>
      <trkpt lat="42.780996" lon="-7.553662">
        <ele>608.681</ele>
        <time>2021-07-13T12:50:46Z</time>
      </trkpt>
      <trkpt lat="42.781007" lon="-7.553663">
        <ele>608.648</ele>
        <time>2021-07-13T12:50:47Z</time>
      </trkpt>
      <trkpt lat="42.781043" lon="-7.553667">
        <ele>609.136</ele>
        <time>2021-07-13T12:50:50Z</time>
      </trkpt>
      <trkpt lat="42.781055" lon="-7.553667">
        <ele>609.162</ele>
        <time>2021-07-13T12:50:51Z</time>
      </trkpt>
      <trkpt lat="42.781067" lon="-7.553669">
        <ele>609.183</ele>
        <time>2021-07-13T12:50:52Z</time>
      </trkpt>
      <trkpt lat="42.781080" lon="-7.553671">
        <ele>609.111</ele>
        <time>2021-07-13T12:50:53Z</time>
      </trkpt>
      <trkpt lat="42.781093" lon="-7.553674">
        <ele>609.608</ele>
        <time>2021-07-13T12:50:54Z</time>
      </trkpt>
      <trkpt lat="42.781105" lon="-7.553677">
        <ele>609.693</ele>
        <time>2021-07-13T12:50:55Z</time>
      </trkpt>
      <trkpt lat="42.781116" lon="-7.553677">
        <ele>609.625</ele>
        <time>2021-07-13T12:50:56Z</time>
      </trkpt>
      <trkpt lat="42.781127" lon="-7.553675">
        <ele>610.072</ele>
        <time>2021-07-13T12:50:57Z</time>
      </trkpt>
      <trkpt lat="42.781138" lon="-7.553676">
        <ele>610.032</ele>
        <time>2021-07-13T12:50:58Z</time>
      </trkpt>
      <trkpt lat="42.781149" lon="-7.553679">
        <ele>610.026</ele>
        <time>2021-07-13T12:50:59Z</time>
      </trkpt>
      <trkpt lat="42.781160" lon="-7.553684">
        <ele>610.034</ele>
        <time>2021-07-13T12:51:00Z</time>
      </trkpt>
      <trkpt lat="42.781207" lon="-7.553690">
        <ele>610.581</ele>
        <time>2021-07-13T12:51:04Z</time>
      </trkpt>
      <trkpt lat="42.781218" lon="-7.553695">
        <ele>610.569</ele>
        <time>2021-07-13T12:51:05Z</time>
      </trkpt>
      <trkpt lat="42.781230" lon="-7.553699">
        <ele>610.564</ele>
        <time>2021-07-13T12:51:06Z</time>
      </trkpt>
      <trkpt lat="42.781240" lon="-7.553705">
        <ele>610.506</ele>
        <time>2021-07-13T12:51:07Z</time>
      </trkpt>
      <trkpt lat="42.781251" lon="-7.553711">
        <ele>610.516</ele>
        <time>2021-07-13T12:51:08Z</time>
      </trkpt>
      <trkpt lat="42.781261" lon="-7.553715">
        <ele>610.508</ele>
        <time>2021-07-13T12:51:09Z</time>
      </trkpt>
      <trkpt lat="42.781282" lon="-7.553730">
        <ele>611.033</ele>
        <time>2021-07-13T12:51:11Z</time>
      </trkpt>
      <trkpt lat="42.781295" lon="-7.553740">
        <ele>611.045</ele>
        <time>2021-07-13T12:51:12Z</time>
      </trkpt>
      <trkpt lat="42.781330" lon="-7.553754">
        <ele>611.012</ele>
        <time>2021-07-13T12:51:15Z</time>
      </trkpt>
      <trkpt lat="42.781342" lon="-7.553754">
        <ele>611.032</ele>
        <time>2021-07-13T12:51:16Z</time>
      </trkpt>
      <trkpt lat="42.781354" lon="-7.553755">
        <ele>611.526</ele>
        <time>2021-07-13T12:51:17Z</time>
      </trkpt>
      <trkpt lat="42.781440" lon="-7.553799">
        <ele>612.584</ele>
        <time>2021-07-13T12:51:25Z</time>
      </trkpt>
      <trkpt lat="42.781450" lon="-7.553807">
        <ele>612.521</ele>
        <time>2021-07-13T12:51:26Z</time>
      </trkpt>
      <trkpt lat="42.781472" lon="-7.553825">
        <ele>612.939</ele>
        <time>2021-07-13T12:51:28Z</time>
      </trkpt>
      <trkpt lat="42.781564" lon="-7.553857">
        <ele>613.917</ele>
        <time>2021-07-13T12:51:36Z</time>
      </trkpt>
      <trkpt lat="42.781668" lon="-7.553933">
        <ele>614.487</ele>
        <time>2021-07-13T12:51:46Z</time>
      </trkpt>
      <trkpt lat="42.781679" lon="-7.553938">
        <ele>614.415</ele>
        <time>2021-07-13T12:51:47Z</time>
      </trkpt>
      <trkpt lat="42.781700" lon="-7.553945">
        <ele>614.408</ele>
        <time>2021-07-13T12:51:49Z</time>
      </trkpt>
      <trkpt lat="42.781712" lon="-7.553948">
        <ele>614.998</ele>
        <time>2021-07-13T12:51:50Z</time>
      </trkpt>
      <trkpt lat="42.781836" lon="-7.554017">
        <ele>616.320</ele>
        <time>2021-07-13T12:52:00Z</time>
      </trkpt>
      <trkpt lat="42.781954" lon="-7.554072">
        <ele>617.737</ele>
        <time>2021-07-13T12:52:09Z</time>
      </trkpt>
      <trkpt lat="42.782067" lon="-7.554087">
        <ele>619.257</ele>
        <time>2021-07-13T12:52:18Z</time>
      </trkpt>
      <trkpt lat="42.782188" lon="-7.554061">
        <ele>620.691</ele>
        <time>2021-07-13T12:52:27Z</time>
      </trkpt>
      <trkpt lat="42.782199" lon="-7.554055">
        <ele>620.699</ele>
        <time>2021-07-13T12:52:28Z</time>
      </trkpt>
      <trkpt lat="42.782209" lon="-7.554048">
        <ele>621.146</ele>
        <time>2021-07-13T12:52:29Z</time>
      </trkpt>
      <trkpt lat="42.782253" lon="-7.554021">
        <ele>622.114</ele>
        <time>2021-07-13T12:52:33Z</time>
      </trkpt>
      <trkpt lat="42.782265" lon="-7.554016">
        <ele>622.121</ele>
        <time>2021-07-13T12:52:34Z</time>
      </trkpt>
      <trkpt lat="42.782277" lon="-7.554009">
        <ele>622.141</ele>
        <time>2021-07-13T12:52:35Z</time>
      </trkpt>
      <trkpt lat="42.782357" lon="-7.553968">
        <ele>621.605</ele>
        <time>2021-07-13T12:52:42Z</time>
      </trkpt>
      <trkpt lat="42.782370" lon="-7.553962">
        <ele>621.608</ele>
        <time>2021-07-13T12:52:43Z</time>
      </trkpt>
      <trkpt lat="42.782482" lon="-7.553905">
        <ele>623.549</ele>
        <time>2021-07-13T12:52:52Z</time>
      </trkpt>
      <trkpt lat="42.782599" lon="-7.553839">
        <ele>625.431</ele>
        <time>2021-07-13T12:53:01Z</time>
      </trkpt>
      <trkpt lat="42.782720" lon="-7.553762">
        <ele>626.918</ele>
        <time>2021-07-13T12:53:10Z</time>
      </trkpt>
      <trkpt lat="42.782833" lon="-7.553638">
        <ele>627.458</ele>
        <time>2021-07-13T12:53:19Z</time>
      </trkpt>
      <trkpt lat="42.782938" lon="-7.553491">
        <ele>629.312</ele>
        <time>2021-07-13T12:53:28Z</time>
      </trkpt>
      <trkpt lat="42.783052" lon="-7.553327">
        <ele>630.220</ele>
        <time>2021-07-13T12:53:38Z</time>
      </trkpt>
      <trkpt lat="42.783164" lon="-7.553191">
        <ele>629.867</ele>
        <time>2021-07-13T12:53:47Z</time>
      </trkpt>
      <trkpt lat="42.783270" lon="-7.553045">
        <ele>630.725</ele>
        <time>2021-07-13T12:53:56Z</time>
      </trkpt>
      <trkpt lat="42.783394" lon="-7.552882">
        <ele>632.289</ele>
        <time>2021-07-13T12:54:07Z</time>
      </trkpt>
      <trkpt lat="42.783498" lon="-7.552740">
        <ele>633.606</ele>
        <time>2021-07-13T12:54:17Z</time>
      </trkpt>
      <trkpt lat="42.783608" lon="-7.552607">
        <ele>634.626</ele>
        <time>2021-07-13T12:54:26Z</time>
      </trkpt>
      <trkpt lat="42.783759" lon="-7.552418">
        <ele>637.908</ele>
        <time>2021-07-13T12:54:38Z</time>
      </trkpt>
      <trkpt lat="42.783878" lon="-7.552237">
        <ele>639.445</ele>
        <time>2021-07-13T12:54:48Z</time>
      </trkpt>
      <trkpt lat="42.783977" lon="-7.552079">
        <ele>639.817</ele>
        <time>2021-07-13T12:54:58Z</time>
      </trkpt>
      <trkpt lat="42.784085" lon="-7.551917">
        <ele>640.834</ele>
        <time>2021-07-13T12:55:09Z</time>
      </trkpt>
      <trkpt lat="42.784092" lon="-7.551904">
        <ele>640.884</ele>
        <time>2021-07-13T12:55:10Z</time>
      </trkpt>
      <trkpt lat="42.784096" lon="-7.551886">
        <ele>640.848</ele>
        <time>2021-07-13T12:55:11Z</time>
      </trkpt>
      <trkpt lat="42.784103" lon="-7.551867">
        <ele>640.836</ele>
        <time>2021-07-13T12:55:12Z</time>
      </trkpt>
      <trkpt lat="42.784109" lon="-7.551852">
        <ele>640.823</ele>
        <time>2021-07-13T12:55:13Z</time>
      </trkpt>
      <trkpt lat="42.784115" lon="-7.551838">
        <ele>640.851</ele>
        <time>2021-07-13T12:55:14Z</time>
      </trkpt>
      <trkpt lat="42.784122" lon="-7.551823">
        <ele>640.817</ele>
        <time>2021-07-13T12:55:15Z</time>
      </trkpt>
      <trkpt lat="42.784132" lon="-7.551809">
        <ele>640.887</ele>
        <time>2021-07-13T12:55:16Z</time>
      </trkpt>
      <trkpt lat="42.784141" lon="-7.551795">
        <ele>640.815</ele>
        <time>2021-07-13T12:55:17Z</time>
      </trkpt>
      <trkpt lat="42.784150" lon="-7.551779">
        <ele>640.808</ele>
        <time>2021-07-13T12:55:18Z</time>
      </trkpt>
      <trkpt lat="42.784186" lon="-7.551722">
        <ele>640.868</ele>
        <time>2021-07-13T12:55:26Z</time>
      </trkpt>
      <trkpt lat="42.784192" lon="-7.551722">
        <ele>638.470</ele>
        <time>2021-07-13T12:55:40Z</time>
      </trkpt>
      <trkpt lat="42.784192" lon="-7.551700">
        <ele>638.437</ele>
        <time>2021-07-13T12:55:42Z</time>
      </trkpt>
      <trkpt lat="42.784195" lon="-7.551679">
        <ele>638.457</ele>
        <time>2021-07-13T12:55:43Z</time>
      </trkpt>
      <trkpt lat="42.784245" lon="-7.551468">
        <ele>638.961</ele>
        <time>2021-07-13T12:55:50Z</time>
      </trkpt>
      <trkpt lat="42.784290" lon="-7.551103">
        <ele>639.839</ele>
        <time>2021-07-13T12:56:00Z</time>
      </trkpt>
      <trkpt lat="42.784191" lon="-7.550660">
        <ele>641.366</ele>
        <time>2021-07-13T12:56:12Z</time>
      </trkpt>
      <trkpt lat="42.784041" lon="-7.550258">
        <ele>642.794</ele>
        <time>2021-07-13T12:56:25Z</time>
      </trkpt>
      <trkpt lat="42.783987" lon="-7.550072">
        <ele>644.257</ele>
        <time>2021-07-13T12:56:33Z</time>
      </trkpt>
      <trkpt lat="42.783972" lon="-7.549859">
        <ele>645.600</ele>
        <time>2021-07-13T12:56:41Z</time>
      </trkpt>
      <trkpt lat="42.783978" lon="-7.549594">
        <ele>646.620</ele>
        <time>2021-07-13T12:56:49Z</time>
      </trkpt>
      <trkpt lat="42.783994" lon="-7.549297">
        <ele>648.508</ele>
        <time>2021-07-13T12:56:59Z</time>
      </trkpt>
      <trkpt lat="42.784027" lon="-7.548992">
        <ele>649.042</ele>
        <time>2021-07-13T12:57:08Z</time>
      </trkpt>
      <trkpt lat="42.784078" lon="-7.548631">
        <ele>647.584</ele>
        <time>2021-07-13T12:57:18Z</time>
      </trkpt>
      <trkpt lat="42.784168" lon="-7.548296">
        <ele>647.141</ele>
        <time>2021-07-13T12:57:27Z</time>
      </trkpt>
      <trkpt lat="42.784339" lon="-7.547981">
        <ele>648.081</ele>
        <time>2021-07-13T12:57:36Z</time>
      </trkpt>
      <trkpt lat="42.784430" lon="-7.547780">
        <ele>649.525</ele>
        <time>2021-07-13T12:57:43Z</time>
      </trkpt>
      <trkpt lat="42.784556" lon="-7.547300">
        <ele>649.083</ele>
        <time>2021-07-13T12:57:55Z</time>
      </trkpt>
      <trkpt lat="42.784722" lon="-7.547059">
        <ele>649.540</ele>
        <time>2021-07-13T12:58:03Z</time>
      </trkpt>
      <trkpt lat="42.784926" lon="-7.546852">
        <ele>649.968</ele>
        <time>2021-07-13T12:58:11Z</time>
      </trkpt>
      <trkpt lat="42.785058" lon="-7.546556">
        <ele>649.541</ele>
        <time>2021-07-13T12:58:19Z</time>
      </trkpt>
      <trkpt lat="42.785176" lon="-7.546337">
        <ele>648.081</ele>
        <time>2021-07-13T12:58:26Z</time>
      </trkpt>
      <trkpt lat="42.785304" lon="-7.546190">
        <ele>645.609</ele>
        <time>2021-07-13T12:58:32Z</time>
      </trkpt>
      <trkpt lat="42.785350" lon="-7.546159">
        <ele>645.108</ele>
        <time>2021-07-13T12:58:38Z</time>
      </trkpt>
      <trkpt lat="42.785345" lon="-7.546176">
        <ele>646.641</ele>
        <time>2021-07-13T12:58:42Z</time>
      </trkpt>
      <trkpt lat="42.785247" lon="-7.546273">
        <ele>647.533</ele>
        <time>2021-07-13T12:58:52Z</time>
      </trkpt>
      <trkpt lat="42.785234" lon="-7.546277">
        <ele>648.540</ele>
        <time>2021-07-13T12:59:00Z</time>
      </trkpt>
      <trkpt lat="42.785218" lon="-7.546286">
        <ele>649.560</ele>
        <time>2021-07-13T12:59:13Z</time>
      </trkpt>
      <trkpt lat="42.785220" lon="-7.546276">
        <ele>649.534</ele>
        <time>2021-07-13T12:59:34Z</time>
      </trkpt>
      <trkpt lat="42.785206" lon="-7.546281">
        <ele>649.942</ele>
        <time>2021-07-13T12:59:45Z</time>
      </trkpt>
      <trkpt lat="42.785201" lon="-7.546254">
        <ele>650.919</ele>
        <time>2021-07-13T12:59:52Z</time>
      </trkpt>
      <trkpt lat="42.785202" lon="-7.546240">
        <ele>650.987</ele>
        <time>2021-07-13T12:59:53Z</time>
      </trkpt>
      <trkpt lat="42.785210" lon="-7.546231">
        <ele>650.484</ele>
        <time>2021-07-13T12:59:54Z</time>
      </trkpt>
      <trkpt lat="42.785324" lon="-7.546145">
        <ele>650.907</ele>
        <time>2021-07-13T13:00:00Z</time>
      </trkpt>
      <trkpt lat="42.785546" lon="-7.545923">
        <ele>651.417</ele>
        <time>2021-07-13T13:00:10Z</time>
      </trkpt>
      <trkpt lat="42.785788" lon="-7.545669">
        <ele>652.808</ele>
        <time>2021-07-13T13:00:19Z</time>
      </trkpt>
      <trkpt lat="42.785984" lon="-7.545404">
        <ele>652.865</ele>
        <time>2021-07-13T13:00:28Z</time>
      </trkpt>
      <trkpt lat="42.786128" lon="-7.545123">
        <ele>651.977</ele>
        <time>2021-07-13T13:00:36Z</time>
      </trkpt>
      <trkpt lat="42.786209" lon="-7.544842">
        <ele>650.424</ele>
        <time>2021-07-13T13:00:42Z</time>
      </trkpt>
      <trkpt lat="42.786215" lon="-7.544781">
        <ele>650.454</ele>
        <time>2021-07-13T13:00:43Z</time>
      </trkpt>
      <trkpt lat="42.786233" lon="-7.544512">
        <ele>649.578</ele>
        <time>2021-07-13T13:00:47Z</time>
      </trkpt>
      <trkpt lat="42.786225" lon="-7.544420">
        <ele>649.536</ele>
        <time>2021-07-13T13:00:48Z</time>
      </trkpt>
      <trkpt lat="42.786215" lon="-7.544383">
        <ele>649.063</ele>
        <time>2021-07-13T13:00:49Z</time>
      </trkpt>
      <trkpt lat="42.786193" lon="-7.544318">
        <ele>649.021</ele>
        <time>2021-07-13T13:00:50Z</time>
      </trkpt>
      <trkpt lat="42.786158" lon="-7.544242">
        <ele>649.042</ele>
        <time>2021-07-13T13:00:51Z</time>
      </trkpt>
      <trkpt lat="42.785418" lon="-7.542016">
        <ele>648.522</ele>
        <time>2021-07-13T13:01:48Z</time>
      </trkpt>
      <trkpt lat="42.785354" lon="-7.541600">
        <ele>650.914</ele>
        <time>2021-07-13T13:01:59Z</time>
      </trkpt>
      <trkpt lat="42.785225" lon="-7.541296">
        <ele>651.408</ele>
        <time>2021-07-13T13:02:08Z</time>
      </trkpt>
      <trkpt lat="42.785054" lon="-7.540974">
        <ele>652.381</ele>
        <time>2021-07-13T13:02:18Z</time>
      </trkpt>
      <trkpt lat="42.784890" lon="-7.540663">
        <ele>653.823</ele>
        <time>2021-07-13T13:02:28Z</time>
      </trkpt>
      <trkpt lat="42.784648" lon="-7.540168">
        <ele>655.720</ele>
        <time>2021-07-13T13:02:42Z</time>
      </trkpt>
      <trkpt lat="42.784487" lon="-7.539823">
        <ele>657.210</ele>
        <time>2021-07-13T13:02:51Z</time>
      </trkpt>
      <trkpt lat="42.784372" lon="-7.539467">
        <ele>656.734</ele>
        <time>2021-07-13T13:02:59Z</time>
      </trkpt>
      <trkpt lat="42.784275" lon="-7.539074">
        <ele>654.332</ele>
        <time>2021-07-13T13:03:07Z</time>
      </trkpt>
      <trkpt lat="42.784227" lon="-7.538722">
        <ele>652.369</ele>
        <time>2021-07-13T13:03:11Z</time>
      </trkpt>
      <trkpt lat="42.784071" lon="-7.538107">
        <ele>648.027</ele>
        <time>2021-07-13T13:03:17Z</time>
      </trkpt>
      <trkpt lat="42.783915" lon="-7.537457">
        <ele>644.719</ele>
        <time>2021-07-13T13:03:23Z</time>
      </trkpt>
      <trkpt lat="42.783896" lon="-7.537350">
        <ele>644.209</ele>
        <time>2021-07-13T13:03:24Z</time>
      </trkpt>
      <trkpt lat="42.783885" lon="-7.537238">
        <ele>643.719</ele>
        <time>2021-07-13T13:03:25Z</time>
      </trkpt>
      <trkpt lat="42.783871" lon="-7.536864">
        <ele>642.708</ele>
        <time>2021-07-13T13:03:30Z</time>
      </trkpt>
      <trkpt lat="42.783866" lon="-7.536802">
        <ele>642.748</ele>
        <time>2021-07-13T13:03:31Z</time>
      </trkpt>
      <trkpt lat="42.783820" lon="-7.536480">
        <ele>642.730</ele>
        <time>2021-07-13T13:03:38Z</time>
      </trkpt>
      <trkpt lat="42.783789" lon="-7.536317">
        <ele>642.357</ele>
        <time>2021-07-13T13:03:46Z</time>
      </trkpt>
      <trkpt lat="42.783760" lon="-7.536176">
        <ele>641.827</ele>
        <time>2021-07-13T13:03:53Z</time>
      </trkpt>
      <trkpt lat="42.783735" lon="-7.536007">
        <ele>642.781</ele>
        <time>2021-07-13T13:04:01Z</time>
      </trkpt>
      <trkpt lat="42.783705" lon="-7.535812">
        <ele>645.199</ele>
        <time>2021-07-13T13:04:11Z</time>
      </trkpt>
      <trkpt lat="42.783671" lon="-7.535643">
        <ele>648.016</ele>
        <time>2021-07-13T13:04:19Z</time>
      </trkpt>
      <trkpt lat="42.783661" lon="-7.535613">
        <ele>649.024</ele>
        <time>2021-07-13T13:04:21Z</time>
      </trkpt>
      <trkpt lat="42.783646" lon="-7.535595">
        <ele>649.079</ele>
        <time>2021-07-13T13:04:22Z</time>
      </trkpt>
      <trkpt lat="42.783644" lon="-7.535584">
        <ele>649.505</ele>
        <time>2021-07-13T13:04:23Z</time>
      </trkpt>
      <trkpt lat="42.783643" lon="-7.535566">
        <ele>649.525</ele>
        <time>2021-07-13T13:04:24Z</time>
      </trkpt>
      <trkpt lat="42.783640" lon="-7.535551">
        <ele>649.908</ele>
        <time>2021-07-13T13:04:25Z</time>
      </trkpt>
      <trkpt lat="42.783637" lon="-7.535539">
        <ele>649.914</ele>
        <time>2021-07-13T13:04:26Z</time>
      </trkpt>
      <trkpt lat="42.783611" lon="-7.535436">
        <ele>650.436</ele>
        <time>2021-07-13T13:04:35Z</time>
      </trkpt>
      <trkpt lat="42.783612" lon="-7.535422">
        <ele>650.413</ele>
        <time>2021-07-13T13:04:36Z</time>
      </trkpt>
      <trkpt lat="42.783616" lon="-7.535399">
        <ele>650.473</ele>
        <time>2021-07-13T13:04:37Z</time>
      </trkpt>
      <trkpt lat="42.783610" lon="-7.535380">
        <ele>650.997</ele>
        <time>2021-07-13T13:04:39Z</time>
      </trkpt>
      <trkpt lat="42.783585" lon="-7.535309">
        <ele>651.465</ele>
        <time>2021-07-13T13:04:45Z</time>
      </trkpt>
      <trkpt lat="42.783580" lon="-7.535294">
        <ele>651.452</ele>
        <time>2021-07-13T13:04:46Z</time>
      </trkpt>
      <trkpt lat="42.783576" lon="-7.535279">
        <ele>651.960</ele>
        <time>2021-07-13T13:04:47Z</time>
      </trkpt>
      <trkpt lat="42.783572" lon="-7.535262">
        <ele>651.955</ele>
        <time>2021-07-13T13:04:48Z</time>
      </trkpt>
      <trkpt lat="42.783571" lon="-7.535247">
        <ele>651.907</ele>
        <time>2021-07-13T13:04:49Z</time>
      </trkpt>
      <trkpt lat="42.783567" lon="-7.535230">
        <ele>652.317</ele>
        <time>2021-07-13T13:04:50Z</time>
      </trkpt>
      <trkpt lat="42.783565" lon="-7.535214">
        <ele>652.808</ele>
        <time>2021-07-13T13:04:51Z</time>
      </trkpt>
      <trkpt lat="42.783559" lon="-7.535154">
        <ele>653.882</ele>
        <time>2021-07-13T13:04:55Z</time>
      </trkpt>
      <trkpt lat="42.783558" lon="-7.535138">
        <ele>654.384</ele>
        <time>2021-07-13T13:04:56Z</time>
      </trkpt>
      <trkpt lat="42.783544" lon="-7.535029">
        <ele>656.211</ele>
        <time>2021-07-13T13:05:04Z</time>
      </trkpt>
      <trkpt lat="42.783544" lon="-7.535013">
        <ele>656.251</ele>
        <time>2021-07-13T13:05:05Z</time>
      </trkpt>
      <trkpt lat="42.783535" lon="-7.534900">
        <ele>658.125</ele>
        <time>2021-07-13T13:05:13Z</time>
      </trkpt>
      <trkpt lat="42.783527" lon="-7.534804">
        <ele>659.173</ele>
        <time>2021-07-13T13:05:20Z</time>
      </trkpt>
      <trkpt lat="42.783518" lon="-7.534674">
        <ele>660.010</ele>
        <time>2021-07-13T13:05:29Z</time>
      </trkpt>
      <trkpt lat="42.783511" lon="-7.534550">
        <ele>661.548</ele>
        <time>2021-07-13T13:05:38Z</time>
      </trkpt>
      <trkpt lat="42.783509" lon="-7.534532">
        <ele>661.581</ele>
        <time>2021-07-13T13:05:39Z</time>
      </trkpt>
      <trkpt lat="42.783505" lon="-7.534453">
        <ele>662.461</ele>
        <time>2021-07-13T13:05:44Z</time>
      </trkpt>
      <trkpt lat="42.783503" lon="-7.534439">
        <ele>662.417</ele>
        <time>2021-07-13T13:05:45Z</time>
      </trkpt>
      <trkpt lat="42.783504" lon="-7.534425">
        <ele>662.408</ele>
        <time>2021-07-13T13:05:46Z</time>
      </trkpt>
      <trkpt lat="42.783505" lon="-7.534409">
        <ele>662.915</ele>
        <time>2021-07-13T13:05:47Z</time>
      </trkpt>
      <trkpt lat="42.783504" lon="-7.534394">
        <ele>662.497</ele>
        <time>2021-07-13T13:05:48Z</time>
      </trkpt>
      <trkpt lat="42.783500" lon="-7.534344">
        <ele>663.494</ele>
        <time>2021-07-13T13:05:51Z</time>
      </trkpt>
      <trkpt lat="42.783499" lon="-7.534328">
        <ele>663.494</ele>
        <time>2021-07-13T13:05:52Z</time>
      </trkpt>
      <trkpt lat="42.783500" lon="-7.534312">
        <ele>663.488</ele>
        <time>2021-07-13T13:05:53Z</time>
      </trkpt>
      <trkpt lat="42.783499" lon="-7.534167">
        <ele>664.896</ele>
        <time>2021-07-13T13:06:02Z</time>
      </trkpt>
      <trkpt lat="42.783505" lon="-7.534148">
        <ele>664.853</ele>
        <time>2021-07-13T13:06:03Z</time>
      </trkpt>
      <trkpt lat="42.783504" lon="-7.534133">
        <ele>664.851</ele>
        <time>2021-07-13T13:06:04Z</time>
      </trkpt>
      <trkpt lat="42.783502" lon="-7.534115">
        <ele>665.359</ele>
        <time>2021-07-13T13:06:05Z</time>
      </trkpt>
      <trkpt lat="42.783501" lon="-7.534102">
        <ele>665.303</ele>
        <time>2021-07-13T13:06:06Z</time>
      </trkpt>
      <trkpt lat="42.783505" lon="-7.534083">
        <ele>665.323</ele>
        <time>2021-07-13T13:06:07Z</time>
      </trkpt>
      <trkpt lat="42.783505" lon="-7.534064">
        <ele>665.308</ele>
        <time>2021-07-13T13:06:08Z</time>
      </trkpt>
      <trkpt lat="42.783504" lon="-7.534050">
        <ele>665.312</ele>
        <time>2021-07-13T13:06:09Z</time>
      </trkpt>
      <trkpt lat="42.783505" lon="-7.534032">
        <ele>665.364</ele>
        <time>2021-07-13T13:06:10Z</time>
      </trkpt>
      <trkpt lat="42.783502" lon="-7.534013">
        <ele>665.331</ele>
        <time>2021-07-13T13:06:11Z</time>
      </trkpt>
      <trkpt lat="42.783495" lon="-7.533992">
        <ele>665.821</ele>
        <time>2021-07-13T13:06:12Z</time>
      </trkpt>
      <trkpt lat="42.783494" lon="-7.533971">
        <ele>665.875</ele>
        <time>2021-07-13T13:06:13Z</time>
      </trkpt>
      <trkpt lat="42.783494" lon="-7.533951">
        <ele>665.853</ele>
        <time>2021-07-13T13:06:14Z</time>
      </trkpt>
      <trkpt lat="42.783491" lon="-7.533933">
        <ele>666.320</ele>
        <time>2021-07-13T13:06:15Z</time>
      </trkpt>
      <trkpt lat="42.783489" lon="-7.533919">
        <ele>666.388</ele>
        <time>2021-07-13T13:06:16Z</time>
      </trkpt>
      <trkpt lat="42.783490" lon="-7.533902">
        <ele>666.351</ele>
        <time>2021-07-13T13:06:17Z</time>
      </trkpt>
      <trkpt lat="42.783490" lon="-7.533886">
        <ele>666.301</ele>
        <time>2021-07-13T13:06:18Z</time>
      </trkpt>
      <trkpt lat="42.783489" lon="-7.533869">
        <ele>666.811</ele>
        <time>2021-07-13T13:06:19Z</time>
      </trkpt>
      <trkpt lat="42.783489" lon="-7.533778">
        <ele>666.808</ele>
        <time>2021-07-13T13:06:25Z</time>
      </trkpt>
      <trkpt lat="42.783492" lon="-7.533615">
        <ele>667.782</ele>
        <time>2021-07-13T13:06:34Z</time>
      </trkpt>
      <trkpt lat="42.783499" lon="-7.533551">
        <ele>668.234</ele>
        <time>2021-07-13T13:06:38Z</time>
      </trkpt>
      <trkpt lat="42.783499" lon="-7.533519">
        <ele>668.741</ele>
        <time>2021-07-13T13:06:40Z</time>
      </trkpt>
      <trkpt lat="42.783563" lon="-7.533410">
        <ele>669.251</ele>
        <time>2021-07-13T13:06:48Z</time>
      </trkpt>
      <trkpt lat="42.783581" lon="-7.533351">
        <ele>668.795</ele>
        <time>2021-07-13T13:06:55Z</time>
      </trkpt>
      <trkpt lat="42.783572" lon="-7.533353">
        <ele>668.743</ele>
        <time>2021-07-13T13:06:56Z</time>
      </trkpt>
      <trkpt lat="42.783554" lon="-7.533359">
        <ele>669.750</ele>
        <time>2021-07-13T13:07:03Z</time>
      </trkpt>
      <trkpt lat="42.783544" lon="-7.533370">
        <ele>668.748</ele>
        <time>2021-07-13T13:07:13Z</time>
      </trkpt>
      <trkpt lat="42.783544" lon="-7.533366">
        <ele>668.233</ele>
        <time>2021-07-13T13:07:21Z</time>
      </trkpt>
      <trkpt lat="42.783567" lon="-7.533396">
        <ele>667.223</ele>
        <time>2021-07-13T13:07:31Z</time>
      </trkpt>
      <trkpt lat="42.783578" lon="-7.533396">
        <ele>667.715</ele>
        <time>2021-07-13T13:07:32Z</time>
      </trkpt>
      <trkpt lat="42.783590" lon="-7.533392">
        <ele>667.708</ele>
        <time>2021-07-13T13:07:33Z</time>
      </trkpt>
      <trkpt lat="42.783603" lon="-7.533383">
        <ele>667.770</ele>
        <time>2021-07-13T13:07:34Z</time>
      </trkpt>
      <trkpt lat="42.783610" lon="-7.533371">
        <ele>668.252</ele>
        <time>2021-07-13T13:07:35Z</time>
      </trkpt>
      <trkpt lat="42.783615" lon="-7.533354">
        <ele>668.249</ele>
        <time>2021-07-13T13:07:36Z</time>
      </trkpt>
      <trkpt lat="42.783617" lon="-7.533340">
        <ele>668.279</ele>
        <time>2021-07-13T13:07:37Z</time>
      </trkpt>
      <trkpt lat="42.783615" lon="-7.533327">
        <ele>668.223</ele>
        <time>2021-07-13T13:07:38Z</time>
      </trkpt>
      <trkpt lat="42.783613" lon="-7.533313">
        <ele>668.281</ele>
        <time>2021-07-13T13:07:39Z</time>
      </trkpt>
      <trkpt lat="42.783614" lon="-7.533299">
        <ele>668.268</ele>
        <time>2021-07-13T13:07:40Z</time>
      </trkpt>
      <trkpt lat="42.783612" lon="-7.533285">
        <ele>668.296</ele>
        <time>2021-07-13T13:07:41Z</time>
      </trkpt>
      <trkpt lat="42.783607" lon="-7.533271">
        <ele>668.263</ele>
        <time>2021-07-13T13:07:42Z</time>
      </trkpt>
      <trkpt lat="42.783605" lon="-7.533250">
        <ele>668.244</ele>
        <time>2021-07-13T13:07:43Z</time>
      </trkpt>
      <trkpt lat="42.783603" lon="-7.533236">
        <ele>668.218</ele>
        <time>2021-07-13T13:07:44Z</time>
      </trkpt>
      <trkpt lat="42.783600" lon="-7.533222">
        <ele>668.208</ele>
        <time>2021-07-13T13:07:45Z</time>
      </trkpt>
      <trkpt lat="42.783597" lon="-7.533208">
        <ele>668.243</ele>
        <time>2021-07-13T13:07:46Z</time>
      </trkpt>
      <trkpt lat="42.783603" lon="-7.533165">
        <ele>668.285</ele>
        <time>2021-07-13T13:07:52Z</time>
      </trkpt>
      <trkpt lat="42.783585" lon="-7.533024">
        <ele>668.252</ele>
        <time>2021-07-13T13:07:59Z</time>
      </trkpt>
      <trkpt lat="42.783560" lon="-7.532809">
        <ele>668.792</ele>
        <time>2021-07-13T13:08:08Z</time>
      </trkpt>
      <trkpt lat="42.783521" lon="-7.532521">
        <ele>668.746</ele>
        <time>2021-07-13T13:08:17Z</time>
      </trkpt>
      <trkpt lat="42.783485" lon="-7.532154">
        <ele>667.774</ele>
        <time>2021-07-13T13:08:24Z</time>
      </trkpt>
      <trkpt lat="42.783462" lon="-7.531653">
        <ele>666.891</ele>
        <time>2021-07-13T13:08:32Z</time>
      </trkpt>
      <trkpt lat="42.783468" lon="-7.531551">
        <ele>666.379</ele>
        <time>2021-07-13T13:08:33Z</time>
      </trkpt>
      <trkpt lat="42.783477" lon="-7.531498">
        <ele>666.326</ele>
        <time>2021-07-13T13:08:34Z</time>
      </trkpt>
      <trkpt lat="42.783493" lon="-7.531432">
        <ele>665.847</ele>
        <time>2021-07-13T13:08:35Z</time>
      </trkpt>
      <trkpt lat="42.783533" lon="-7.531324">
        <ele>665.311</ele>
        <time>2021-07-13T13:08:36Z</time>
      </trkpt>
      <trkpt lat="42.783556" lon="-7.531278">
        <ele>665.308</ele>
        <time>2021-07-13T13:08:37Z</time>
      </trkpt>
      <trkpt lat="42.783606" lon="-7.531183">
        <ele>664.899</ele>
        <time>2021-07-13T13:08:39Z</time>
      </trkpt>
      <trkpt lat="42.783637" lon="-7.531135">
        <ele>664.821</ele>
        <time>2021-07-13T13:08:40Z</time>
      </trkpt>
      <trkpt lat="42.783815" lon="-7.530872">
        <ele>665.828</ele>
        <time>2021-07-13T13:08:46Z</time>
      </trkpt>
      <trkpt lat="42.783807" lon="-7.529718">
        <ele>654.878</ele>
        <time>2021-07-13T13:11:31Z</time>
      </trkpt>
      <trkpt lat="42.783820" lon="-7.529674">
        <ele>662.042</ele>
        <time>2021-07-13T13:11:41Z</time>
      </trkpt>
      <trkpt lat="42.783815" lon="-7.529613">
        <ele>665.890</ele>
        <time>2021-07-13T13:12:00Z</time>
      </trkpt>
      <trkpt lat="42.783817" lon="-7.529593">
        <ele>668.727</ele>
        <time>2021-07-13T13:12:15Z</time>
      </trkpt>
      <trkpt lat="42.783806" lon="-7.529600">
        <ele>670.135</ele>
        <time>2021-07-13T13:12:29Z</time>
      </trkpt>
      <trkpt lat="42.783810" lon="-7.529609">
        <ele>670.198</ele>
        <time>2021-07-13T13:12:41Z</time>
      </trkpt>
      <trkpt lat="42.783803" lon="-7.529601">
        <ele>670.615</ele>
        <time>2021-07-13T13:12:46Z</time>
      </trkpt>
      <trkpt lat="42.783806" lon="-7.529592">
        <ele>670.626</ele>
        <time>2021-07-13T13:12:47Z</time>
      </trkpt>
      <trkpt lat="42.783816" lon="-7.529350">
        <ele>668.708</ele>
        <time>2021-07-13T13:12:56Z</time>
      </trkpt>
      <trkpt lat="42.783773" lon="-7.529035">
        <ele>668.746</ele>
        <time>2021-07-13T13:13:04Z</time>
      </trkpt>
      <trkpt lat="42.783747" lon="-7.528746">
        <ele>669.798</ele>
        <time>2021-07-13T13:13:12Z</time>
      </trkpt>
      <trkpt lat="42.783720" lon="-7.528483">
        <ele>671.635</ele>
        <time>2021-07-13T13:13:19Z</time>
      </trkpt>
      <trkpt lat="42.783657" lon="-7.528211">
        <ele>670.685</ele>
        <time>2021-07-13T13:13:26Z</time>
      </trkpt>
      <trkpt lat="42.783629" lon="-7.527858">
        <ele>670.169</ele>
        <time>2021-07-13T13:13:34Z</time>
      </trkpt>
      <trkpt lat="42.783638" lon="-7.527541">
        <ele>668.767</ele>
        <time>2021-07-13T13:13:43Z</time>
      </trkpt>
      <trkpt lat="42.783695" lon="-7.527259">
        <ele>668.224</ele>
        <time>2021-07-13T13:13:49Z</time>
      </trkpt>
      <trkpt lat="42.783821" lon="-7.526911">
        <ele>667.712</ele>
        <time>2021-07-13T13:13:58Z</time>
      </trkpt>
      <trkpt lat="42.783991" lon="-7.526551">
        <ele>667.758</ele>
        <time>2021-07-13T13:14:08Z</time>
      </trkpt>
      <trkpt lat="42.784061" lon="-7.526241">
        <ele>667.252</ele>
        <time>2021-07-13T13:14:16Z</time>
      </trkpt>
      <trkpt lat="42.784036" lon="-7.525936">
        <ele>666.817</ele>
        <time>2021-07-13T13:14:24Z</time>
      </trkpt>
      <trkpt lat="42.784034" lon="-7.525659">
        <ele>666.308</ele>
        <time>2021-07-13T13:14:33Z</time>
      </trkpt>
      <trkpt lat="42.784090" lon="-7.525498">
        <ele>666.852</ele>
        <time>2021-07-13T13:14:41Z</time>
      </trkpt>
      <trkpt lat="42.784208" lon="-7.525259">
        <ele>667.274</ele>
        <time>2021-07-13T13:14:50Z</time>
      </trkpt>
      <trkpt lat="42.784285" lon="-7.525051">
        <ele>668.291</ele>
        <time>2021-07-13T13:14:57Z</time>
      </trkpt>
      <trkpt lat="42.784355" lon="-7.524797">
        <ele>669.231</ele>
        <time>2021-07-13T13:15:05Z</time>
      </trkpt>
      <trkpt lat="42.784449" lon="-7.524481">
        <ele>669.755</ele>
        <time>2021-07-13T13:15:16Z</time>
      </trkpt>
      <trkpt lat="42.784531" lon="-7.524199">
        <ele>669.743</ele>
        <time>2021-07-13T13:15:25Z</time>
      </trkpt>
      <trkpt lat="42.784586" lon="-7.523993">
        <ele>668.290</ele>
        <time>2021-07-13T13:15:32Z</time>
      </trkpt>
      <trkpt lat="42.784665" lon="-7.523816">
        <ele>667.718</ele>
        <time>2021-07-13T13:15:41Z</time>
      </trkpt>
      <trkpt lat="42.784757" lon="-7.523617">
        <ele>666.896</ele>
        <time>2021-07-13T13:15:50Z</time>
      </trkpt>
      <trkpt lat="42.784859" lon="-7.523420">
        <ele>666.831</ele>
        <time>2021-07-13T13:15:59Z</time>
      </trkpt>
      <trkpt lat="42.784891" lon="-7.523337">
        <ele>665.824</ele>
        <time>2021-07-13T13:16:08Z</time>
      </trkpt>
      <trkpt lat="42.784929" lon="-7.523260">
        <ele>665.308</ele>
        <time>2021-07-13T13:16:15Z</time>
      </trkpt>
      <trkpt lat="42.785010" lon="-7.523076">
        <ele>664.426</ele>
        <time>2021-07-13T13:16:21Z</time>
      </trkpt>
      <trkpt lat="42.785101" lon="-7.522832">
        <ele>662.948</ele>
        <time>2021-07-13T13:16:28Z</time>
      </trkpt>
      <trkpt lat="42.785158" lon="-7.522654">
        <ele>662.985</ele>
        <time>2021-07-13T13:16:35Z</time>
      </trkpt>
      <trkpt lat="42.785173" lon="-7.522646">
        <ele>663.985</ele>
        <time>2021-07-13T13:16:47Z</time>
      </trkpt>
      <trkpt lat="42.785201" lon="-7.522572">
        <ele>663.469</ele>
        <time>2021-07-13T13:16:56Z</time>
      </trkpt>
      <trkpt lat="42.785232" lon="-7.522478">
        <ele>662.477</ele>
        <time>2021-07-13T13:17:01Z</time>
      </trkpt>
      <trkpt lat="42.785236" lon="-7.522433">
        <ele>661.554</ele>
        <time>2021-07-13T13:17:09Z</time>
      </trkpt>
      <trkpt lat="42.785243" lon="-7.522428">
        <ele>661.572</ele>
        <time>2021-07-13T13:17:19Z</time>
      </trkpt>
      <trkpt lat="42.785254" lon="-7.522362">
        <ele>660.088</ele>
        <time>2021-07-13T13:17:25Z</time>
      </trkpt>
      <trkpt lat="42.785260" lon="-7.522323">
        <ele>659.624</ele>
        <time>2021-07-13T13:17:33Z</time>
      </trkpt>
      <trkpt lat="42.785267" lon="-7.522275">
        <ele>659.126</ele>
        <time>2021-07-13T13:17:41Z</time>
      </trkpt>
      <trkpt lat="42.785275" lon="-7.522199">
        <ele>659.108</ele>
        <time>2021-07-13T13:17:48Z</time>
      </trkpt>
      <trkpt lat="42.785273" lon="-7.522114">
        <ele>658.665</ele>
        <time>2021-07-13T13:17:54Z</time>
      </trkpt>
      <trkpt lat="42.785236" lon="-7.522013">
        <ele>658.127</ele>
        <time>2021-07-13T13:18:01Z</time>
      </trkpt>
      <trkpt lat="42.785231" lon="-7.521973">
        <ele>657.654</ele>
        <time>2021-07-13T13:18:08Z</time>
      </trkpt>
      <trkpt lat="42.785179" lon="-7.521900">
        <ele>658.184</ele>
        <time>2021-07-13T13:18:13Z</time>
      </trkpt>
      <trkpt lat="42.785120" lon="-7.521782">
        <ele>658.168</ele>
        <time>2021-07-13T13:18:21Z</time>
      </trkpt>
      <trkpt lat="42.785040" lon="-7.521642">
        <ele>658.126</ele>
        <time>2021-07-13T13:18:29Z</time>
      </trkpt>
      <trkpt lat="42.784949" lon="-7.521544">
        <ele>656.253</ele>
        <time>2021-07-13T13:18:37Z</time>
      </trkpt>
      <trkpt lat="42.784928" lon="-7.521511">
        <ele>655.271</ele>
        <time>2021-07-13T13:18:45Z</time>
      </trkpt>
      <trkpt lat="42.784900" lon="-7.521489">
        <ele>655.261</ele>
        <time>2021-07-13T13:18:53Z</time>
      </trkpt>
      <trkpt lat="42.784823" lon="-7.521427">
        <ele>656.221</ele>
        <time>2021-07-13T13:19:00Z</time>
      </trkpt>
      <trkpt lat="42.784746" lon="-7.521371">
        <ele>656.713</ele>
        <time>2021-07-13T13:19:07Z</time>
      </trkpt>
      <trkpt lat="42.784578" lon="-7.521286">
        <ele>655.208</ele>
        <time>2021-07-13T13:19:16Z</time>
      </trkpt>
      <trkpt lat="42.784347" lon="-7.521172">
        <ele>652.343</ele>
        <time>2021-07-13T13:19:26Z</time>
      </trkpt>
      <trkpt lat="42.784113" lon="-7.521027">
        <ele>649.055</ele>
        <time>2021-07-13T13:19:34Z</time>
      </trkpt>
      <trkpt lat="42.784024" lon="-7.521006">
        <ele>649.032</ele>
        <time>2021-07-13T13:19:37Z</time>
      </trkpt>
      <trkpt lat="42.783891" lon="-7.521107">
        <ele>648.522</ele>
        <time>2021-07-13T13:19:45Z</time>
      </trkpt>
      <trkpt lat="42.783792" lon="-7.521199">
        <ele>649.046</ele>
        <time>2021-07-13T13:19:53Z</time>
      </trkpt>
      <trkpt lat="42.783667" lon="-7.521293">
        <ele>649.544</ele>
        <time>2021-07-13T13:20:00Z</time>
      </trkpt>
      <trkpt lat="42.783531" lon="-7.521331">
        <ele>649.541</ele>
        <time>2021-07-13T13:20:06Z</time>
      </trkpt>
      <trkpt lat="42.783423" lon="-7.521268">
        <ele>650.999</ele>
        <time>2021-07-13T13:20:14Z</time>
      </trkpt>
      <trkpt lat="42.783347" lon="-7.521232">
        <ele>652.882</ele>
        <time>2021-07-13T13:20:22Z</time>
      </trkpt>
      <trkpt lat="42.783337" lon="-7.521228">
        <ele>652.843</ele>
        <time>2021-07-13T13:20:23Z</time>
      </trkpt>
      <trkpt lat="42.783231" lon="-7.521190">
        <ele>655.717</ele>
        <time>2021-07-13T13:20:32Z</time>
      </trkpt>
      <trkpt lat="42.783124" lon="-7.521168">
        <ele>657.208</ele>
        <time>2021-07-13T13:20:41Z</time>
      </trkpt>
      <trkpt lat="42.783031" lon="-7.521200">
        <ele>657.235</ele>
        <time>2021-07-13T13:20:48Z</time>
      </trkpt>
      <trkpt lat="42.782887" lon="-7.521100">
        <ele>656.237</ele>
        <time>2021-07-13T13:20:56Z</time>
      </trkpt>
      <trkpt lat="42.782821" lon="-7.521049">
        <ele>656.264</ele>
        <time>2021-07-13T13:20:59Z</time>
      </trkpt>
      <trkpt lat="42.782622" lon="-7.521057">
        <ele>656.264</ele>
        <time>2021-07-13T13:21:08Z</time>
      </trkpt>
      <trkpt lat="42.782372" lon="-7.521158">
        <ele>656.798</ele>
        <time>2021-07-13T13:21:19Z</time>
      </trkpt>
      <trkpt lat="42.782219" lon="-7.521181">
        <ele>658.686</ele>
        <time>2021-07-13T13:21:26Z</time>
      </trkpt>
      <trkpt lat="42.782091" lon="-7.521109">
        <ele>659.133</ele>
        <time>2021-07-13T13:21:33Z</time>
      </trkpt>
      <trkpt lat="42.781959" lon="-7.520857">
        <ele>660.061</ele>
        <time>2021-07-13T13:21:44Z</time>
      </trkpt>
      <trkpt lat="42.781799" lon="-7.520715">
        <ele>660.032</ele>
        <time>2021-07-13T13:21:52Z</time>
      </trkpt>
      <trkpt lat="42.781602" lon="-7.520751">
        <ele>661.592</ele>
        <time>2021-07-13T13:22:00Z</time>
      </trkpt>
      <trkpt lat="42.781432" lon="-7.520671">
        <ele>661.511</ele>
        <time>2021-07-13T13:22:07Z</time>
      </trkpt>
      <trkpt lat="42.781324" lon="-7.520417">
        <ele>661.508</ele>
        <time>2021-07-13T13:22:15Z</time>
      </trkpt>
      <trkpt lat="42.781221" lon="-7.520146">
        <ele>662.070</ele>
        <time>2021-07-13T13:22:24Z</time>
      </trkpt>
      <trkpt lat="42.781125" lon="-7.519972">
        <ele>662.972</ele>
        <time>2021-07-13T13:22:32Z</time>
      </trkpt>
      <trkpt lat="42.780980" lon="-7.519791">
        <ele>663.469</ele>
        <time>2021-07-13T13:22:41Z</time>
      </trkpt>
      <trkpt lat="42.780800" lon="-7.519595">
        <ele>663.949</ele>
        <time>2021-07-13T13:22:51Z</time>
      </trkpt>
      <trkpt lat="42.780627" lon="-7.519465">
        <ele>666.313</ele>
        <time>2021-07-13T13:23:01Z</time>
      </trkpt>
      <trkpt lat="42.780495" lon="-7.519305">
        <ele>667.781</ele>
        <time>2021-07-13T13:23:10Z</time>
      </trkpt>
      <trkpt lat="42.780417" lon="-7.519158">
        <ele>669.268</ele>
        <time>2021-07-13T13:23:17Z</time>
      </trkpt>
      <trkpt lat="42.780333" lon="-7.518864">
        <ele>670.196</ele>
        <time>2021-07-13T13:23:27Z</time>
      </trkpt>
      <trkpt lat="42.780270" lon="-7.518632">
        <ele>668.767</ele>
        <time>2021-07-13T13:23:34Z</time>
      </trkpt>
      <trkpt lat="42.780238" lon="-7.518443">
        <ele>668.781</ele>
        <time>2021-07-13T13:23:38Z</time>
      </trkpt>
      <trkpt lat="42.780130" lon="-7.517974">
        <ele>666.819</ele>
        <time>2021-07-13T13:23:45Z</time>
      </trkpt>
      <trkpt lat="42.780072" lon="-7.517705">
        <ele>665.808</ele>
        <time>2021-07-13T13:23:50Z</time>
      </trkpt>
      <trkpt lat="42.779944" lon="-7.517395">
        <ele>663.953</ele>
        <time>2021-07-13T13:23:56Z</time>
      </trkpt>
      <trkpt lat="42.779730" lon="-7.516871">
        <ele>662.485</ele>
        <time>2021-07-13T13:24:04Z</time>
      </trkpt>
      <trkpt lat="42.779711" lon="-7.516805">
        <ele>662.052</ele>
        <time>2021-07-13T13:24:05Z</time>
      </trkpt>
      <trkpt lat="42.779699" lon="-7.516735">
        <ele>662.062</ele>
        <time>2021-07-13T13:24:06Z</time>
      </trkpt>
      <trkpt lat="42.779692" lon="-7.516670">
        <ele>662.066</ele>
        <time>2021-07-13T13:24:07Z</time>
      </trkpt>
      <trkpt lat="42.779688" lon="-7.516580">
        <ele>661.584</ele>
        <time>2021-07-13T13:24:08Z</time>
      </trkpt>
      <trkpt lat="42.779688" lon="-7.516517">
        <ele>661.571</ele>
        <time>2021-07-13T13:24:09Z</time>
      </trkpt>
      <trkpt lat="42.779665" lon="-7.516214">
        <ele>662.039</ele>
        <time>2021-07-13T13:24:17Z</time>
      </trkpt>
      <trkpt lat="42.779626" lon="-7.515932">
        <ele>663.424</ele>
        <time>2021-07-13T13:24:25Z</time>
      </trkpt>
      <trkpt lat="42.779590" lon="-7.515728">
        <ele>662.904</ele>
        <time>2021-07-13T13:24:32Z</time>
      </trkpt>
      <trkpt lat="42.779042" lon="-7.513924">
        <ele>644.714</ele>
        <time>2021-07-13T13:26:02Z</time>
      </trkpt>
      <trkpt lat="42.779068" lon="-7.513880">
        <ele>654.808</ele>
        <time>2021-07-13T13:26:18Z</time>
      </trkpt>
      <trkpt lat="42.779062" lon="-7.513859">
        <ele>657.219</ele>
        <time>2021-07-13T13:26:27Z</time>
      </trkpt>
      <trkpt lat="42.779030" lon="-7.513737">
        <ele>652.371</ele>
        <time>2021-07-13T13:26:36Z</time>
      </trkpt>
      <trkpt lat="42.778951" lon="-7.513472">
        <ele>648.588</ele>
        <time>2021-07-13T13:26:48Z</time>
      </trkpt>
      <trkpt lat="42.778863" lon="-7.513232">
        <ele>646.668</ele>
        <time>2021-07-13T13:26:56Z</time>
      </trkpt>
      <trkpt lat="42.778789" lon="-7.512960">
        <ele>645.132</ele>
        <time>2021-07-13T13:27:07Z</time>
      </trkpt>
      <trkpt lat="42.778736" lon="-7.512740">
        <ele>643.710</ele>
        <time>2021-07-13T13:27:16Z</time>
      </trkpt>
      <trkpt lat="42.778697" lon="-7.512564">
        <ele>642.357</ele>
        <time>2021-07-13T13:27:24Z</time>
      </trkpt>
      <trkpt lat="42.778696" lon="-7.512461">
        <ele>641.875</ele>
        <time>2021-07-13T13:27:28Z</time>
      </trkpt>
      <trkpt lat="42.778701" lon="-7.512442">
        <ele>641.839</ele>
        <time>2021-07-13T13:27:29Z</time>
      </trkpt>
      <trkpt lat="42.778709" lon="-7.512412">
        <ele>641.301</ele>
        <time>2021-07-13T13:27:30Z</time>
      </trkpt>
      <trkpt lat="42.778773" lon="-7.511590">
        <ele>638.421</ele>
        <time>2021-07-13T13:27:43Z</time>
      </trkpt>
      <trkpt lat="42.778765" lon="-7.511375">
        <ele>637.008</ele>
        <time>2021-07-13T13:27:47Z</time>
      </trkpt>
      <trkpt lat="42.778747" lon="-7.511301">
        <ele>636.520</ele>
        <time>2021-07-13T13:27:48Z</time>
      </trkpt>
      <trkpt lat="42.778731" lon="-7.511264">
        <ele>636.082</ele>
        <time>2021-07-13T13:27:49Z</time>
      </trkpt>
      <trkpt lat="42.778712" lon="-7.511226">
        <ele>635.589</ele>
        <time>2021-07-13T13:27:50Z</time>
      </trkpt>
      <trkpt lat="42.778695" lon="-7.511193">
        <ele>635.519</ele>
        <time>2021-07-13T13:27:51Z</time>
      </trkpt>
      <trkpt lat="42.778678" lon="-7.511159">
        <ele>635.073</ele>
        <time>2021-07-13T13:27:52Z</time>
      </trkpt>
      <trkpt lat="42.778668" lon="-7.511129">
        <ele>635.081</ele>
        <time>2021-07-13T13:27:53Z</time>
      </trkpt>
      <trkpt lat="42.778664" lon="-7.511111">
        <ele>635.018</ele>
        <time>2021-07-13T13:27:54Z</time>
      </trkpt>
      <trkpt lat="42.778659" lon="-7.511091">
        <ele>634.696</ele>
        <time>2021-07-13T13:27:55Z</time>
      </trkpt>
      <trkpt lat="42.778654" lon="-7.511068">
        <ele>634.683</ele>
        <time>2021-07-13T13:27:56Z</time>
      </trkpt>
      <trkpt lat="42.778640" lon="-7.511010">
        <ele>634.125</ele>
        <time>2021-07-13T13:27:58Z</time>
      </trkpt>
      <trkpt lat="42.778569" lon="-7.510754">
        <ele>632.617</ele>
        <time>2021-07-13T13:28:03Z</time>
      </trkpt>
      <trkpt lat="42.778511" lon="-7.510526">
        <ele>630.208</ele>
        <time>2021-07-13T13:28:09Z</time>
      </trkpt>
      <trkpt lat="42.778481" lon="-7.510342">
        <ele>628.825</ele>
        <time>2021-07-13T13:28:14Z</time>
      </trkpt>
      <trkpt lat="42.778416" lon="-7.510101">
        <ele>627.857</ele>
        <time>2021-07-13T13:28:20Z</time>
      </trkpt>
      <trkpt lat="42.778392" lon="-7.509853">
        <ele>626.434</ele>
        <time>2021-07-13T13:28:26Z</time>
      </trkpt>
      <trkpt lat="42.778395" lon="-7.509675">
        <ele>625.924</ele>
        <time>2021-07-13T13:28:32Z</time>
      </trkpt>
      <trkpt lat="42.778403" lon="-7.509651">
        <ele>625.438</ele>
        <time>2021-07-13T13:28:33Z</time>
      </trkpt>
      <trkpt lat="42.778414" lon="-7.509622">
        <ele>625.446</ele>
        <time>2021-07-13T13:28:35Z</time>
      </trkpt>
      <trkpt lat="42.778425" lon="-7.509595">
        <ele>624.923</ele>
        <time>2021-07-13T13:28:36Z</time>
      </trkpt>
      <trkpt lat="42.778765" lon="-7.509291">
        <ele>617.731</ele>
        <time>2021-07-13T13:29:30Z</time>
      </trkpt>
      <trkpt lat="42.778773" lon="-7.508662">
        <ele>606.282</ele>
        <time>2021-07-13T13:29:44Z</time>
      </trkpt>
      <trkpt lat="42.778774" lon="-7.508656">
        <ele>610.543</ele>
        <time>2021-07-13T13:30:10Z</time>
      </trkpt>
      <trkpt lat="42.778770" lon="-7.508631">
        <ele>609.617</ele>
        <time>2021-07-13T13:30:26Z</time>
      </trkpt>
      <trkpt lat="42.778792" lon="-7.508599">
        <ele>610.008</ele>
        <time>2021-07-13T13:30:33Z</time>
      </trkpt>
      <trkpt lat="42.778820" lon="-7.508538">
        <ele>611.075</ele>
        <time>2021-07-13T13:30:40Z</time>
      </trkpt>
      <trkpt lat="42.778821" lon="-7.508505">
        <ele>610.527</ele>
        <time>2021-07-13T13:30:48Z</time>
      </trkpt>
      <trkpt lat="42.778803" lon="-7.508443">
        <ele>611.524</ele>
        <time>2021-07-13T13:30:58Z</time>
      </trkpt>
      <trkpt lat="42.778773" lon="-7.508377">
        <ele>612.974</ele>
        <time>2021-07-13T13:31:04Z</time>
      </trkpt>
      <trkpt lat="42.778719" lon="-7.508301">
        <ele>614.458</ele>
        <time>2021-07-13T13:31:13Z</time>
      </trkpt>
      <trkpt lat="42.778702" lon="-7.508295">
        <ele>614.926</ele>
        <time>2021-07-13T13:31:20Z</time>
      </trkpt>
      <trkpt lat="42.778693" lon="-7.508277">
        <ele>614.943</ele>
        <time>2021-07-13T13:31:23Z</time>
      </trkpt>
      <trkpt lat="42.778663" lon="-7.508258">
        <ele>614.921</ele>
        <time>2021-07-13T13:31:26Z</time>
      </trkpt>
      <trkpt lat="42.778583" lon="-7.508208">
        <ele>615.323</ele>
        <time>2021-07-13T13:31:32Z</time>
      </trkpt>
      <trkpt lat="42.778451" lon="-7.508142">
        <ele>616.883</ele>
        <time>2021-07-13T13:31:41Z</time>
      </trkpt>
      <trkpt lat="42.778371" lon="-7.508028">
        <ele>617.711</ele>
        <time>2021-07-13T13:31:49Z</time>
      </trkpt>
      <trkpt lat="42.778352" lon="-7.508003">
        <ele>618.208</ele>
        <time>2021-07-13T13:31:51Z</time>
      </trkpt>
      <trkpt lat="42.778279" lon="-7.507894">
        <ele>617.769</ele>
        <time>2021-07-13T13:31:58Z</time>
      </trkpt>
      <trkpt lat="42.778175" lon="-7.507707">
        <ele>617.321</ele>
        <time>2021-07-13T13:32:08Z</time>
      </trkpt>
      <trkpt lat="42.778074" lon="-7.507541">
        <ele>617.738</ele>
        <time>2021-07-13T13:32:17Z</time>
      </trkpt>
      <trkpt lat="42.777593" lon="-7.506805">
        <ele>598.098</ele>
        <time>2021-07-13T13:33:03Z</time>
      </trkpt>
      <trkpt lat="42.777547" lon="-7.506673">
        <ele>612.932</ele>
        <time>2021-07-13T13:33:13Z</time>
      </trkpt>
      <trkpt lat="42.777459" lon="-7.506535">
        <ele>619.740</ele>
        <time>2021-07-13T13:33:22Z</time>
      </trkpt>
      <trkpt lat="42.777434" lon="-7.506473">
        <ele>620.637</ele>
        <time>2021-07-13T13:33:26Z</time>
      </trkpt>
      <trkpt lat="42.777367" lon="-7.506306">
        <ele>622.565</ele>
        <time>2021-07-13T13:33:37Z</time>
      </trkpt>
      <trkpt lat="42.777306" lon="-7.506226">
        <ele>624.555</ele>
        <time>2021-07-13T13:33:45Z</time>
      </trkpt>
      <trkpt lat="42.777255" lon="-7.506127">
        <ele>626.907</ele>
        <time>2021-07-13T13:33:52Z</time>
      </trkpt>
      <trkpt lat="42.777234" lon="-7.506086">
        <ele>627.817</ele>
        <time>2021-07-13T13:33:55Z</time>
      </trkpt>
      <trkpt lat="42.777222" lon="-7.505898">
        <ele>630.208</ele>
        <time>2021-07-13T13:34:05Z</time>
      </trkpt>
      <trkpt lat="42.777222" lon="-7.505708">
        <ele>630.772</ele>
        <time>2021-07-13T13:34:14Z</time>
      </trkpt>
      <trkpt lat="42.777242" lon="-7.505483">
        <ele>631.724</ele>
        <time>2021-07-13T13:34:23Z</time>
      </trkpt>
      <trkpt lat="42.777271" lon="-7.505273">
        <ele>635.571</ele>
        <time>2021-07-13T13:34:32Z</time>
      </trkpt>
      <trkpt lat="42.777297" lon="-7.505074">
        <ele>639.441</ele>
        <time>2021-07-13T13:34:40Z</time>
      </trkpt>
      <trkpt lat="42.777405" lon="-7.504861">
        <ele>638.925</ele>
        <time>2021-07-13T13:34:49Z</time>
      </trkpt>
      <trkpt lat="42.777515" lon="-7.504613">
        <ele>639.443</ele>
        <time>2021-07-13T13:34:59Z</time>
      </trkpt>
      <trkpt lat="42.777526" lon="-7.504392">
        <ele>639.430</ele>
        <time>2021-07-13T13:35:07Z</time>
      </trkpt>
      <trkpt lat="42.777526" lon="-7.504163">
        <ele>640.318</ele>
        <time>2021-07-13T13:35:16Z</time>
      </trkpt>
      <trkpt lat="42.777530" lon="-7.503943">
        <ele>642.743</ele>
        <time>2021-07-13T13:35:25Z</time>
      </trkpt>
      <trkpt lat="42.777507" lon="-7.503703">
        <ele>644.764</ele>
        <time>2021-07-13T13:35:34Z</time>
      </trkpt>
      <trkpt lat="42.777389" lon="-7.503582">
        <ele>644.210</ele>
        <time>2021-07-13T13:35:41Z</time>
      </trkpt>
      <trkpt lat="42.777329" lon="-7.503549">
        <ele>643.708</ele>
        <time>2021-07-13T13:35:46Z</time>
      </trkpt>
      <trkpt lat="42.777298" lon="-7.503402">
        <ele>642.711</ele>
        <time>2021-07-13T13:35:54Z</time>
      </trkpt>
      <trkpt lat="42.777315" lon="-7.503229">
        <ele>641.383</ele>
        <time>2021-07-13T13:36:01Z</time>
      </trkpt>
      <trkpt lat="42.777308" lon="-7.502964">
        <ele>640.890</ele>
        <time>2021-07-13T13:36:09Z</time>
      </trkpt>
      <trkpt lat="42.777335" lon="-7.502750">
        <ele>640.370</ele>
        <time>2021-07-13T13:36:15Z</time>
      </trkpt>
      <trkpt lat="42.777392" lon="-7.502554">
        <ele>640.374</ele>
        <time>2021-07-13T13:36:23Z</time>
      </trkpt>
      <trkpt lat="42.777415" lon="-7.502313">
        <ele>638.492</ele>
        <time>2021-07-13T13:36:32Z</time>
      </trkpt>
      <trkpt lat="42.777421" lon="-7.502148">
        <ele>637.919</ele>
        <time>2021-07-13T13:36:39Z</time>
      </trkpt>
      <trkpt lat="42.777482" lon="-7.501952">
        <ele>638.487</ele>
        <time>2021-07-13T13:36:45Z</time>
      </trkpt>
      <trkpt lat="42.777586" lon="-7.501728">
        <ele>637.497</ele>
        <time>2021-07-13T13:36:53Z</time>
      </trkpt>
      <trkpt lat="42.777671" lon="-7.501476">
        <ele>636.523</ele>
        <time>2021-07-13T13:37:00Z</time>
      </trkpt>
      <trkpt lat="42.777760" lon="-7.501156">
        <ele>637.425</ele>
        <time>2021-07-13T13:37:08Z</time>
      </trkpt>
      <trkpt lat="42.777813" lon="-7.500810">
        <ele>637.008</ele>
        <time>2021-07-13T13:37:17Z</time>
      </trkpt>
      <trkpt lat="42.777804" lon="-7.500701">
        <ele>636.536</ele>
        <time>2021-07-13T13:37:19Z</time>
      </trkpt>
      <trkpt lat="42.777807" lon="-7.500634">
        <ele>636.018</ele>
        <time>2021-07-13T13:37:20Z</time>
      </trkpt>
      <trkpt lat="42.777820" lon="-7.500561">
        <ele>636.045</ele>
        <time>2021-07-13T13:37:21Z</time>
      </trkpt>
      <trkpt lat="42.777843" lon="-7.500488">
        <ele>635.535</ele>
        <time>2021-07-13T13:37:23Z</time>
      </trkpt>
      <trkpt lat="42.777866" lon="-7.500424">
        <ele>635.529</ele>
        <time>2021-07-13T13:37:24Z</time>
      </trkpt>
      <trkpt lat="42.777969" lon="-7.500256">
        <ele>635.577</ele>
        <time>2021-07-13T13:37:29Z</time>
      </trkpt>
      <trkpt lat="42.778133" lon="-7.500100">
        <ele>638.414</ele>
        <time>2021-07-13T13:37:37Z</time>
      </trkpt>
      <trkpt lat="42.778315" lon="-7.499895">
        <ele>637.452</ele>
        <time>2021-07-13T13:37:45Z</time>
      </trkpt>
      <trkpt lat="42.778495" lon="-7.499701">
        <ele>637.038</ele>
        <time>2021-07-13T13:37:53Z</time>
      </trkpt>
      <trkpt lat="42.778589" lon="-7.499553">
        <ele>636.070</ele>
        <time>2021-07-13T13:38:01Z</time>
      </trkpt>
      <trkpt lat="42.778601" lon="-7.499539">
        <ele>635.517</ele>
        <time>2021-07-13T13:38:02Z</time>
      </trkpt>
      <trkpt lat="42.778774" lon="-7.499458">
        <ele>636.508</ele>
        <time>2021-07-13T13:38:10Z</time>
      </trkpt>
      <trkpt lat="42.778924" lon="-7.499308">
        <ele>637.990</ele>
        <time>2021-07-13T13:38:18Z</time>
      </trkpt>
      <trkpt lat="42.779017" lon="-7.499098">
        <ele>638.932</ele>
        <time>2021-07-13T13:38:25Z</time>
      </trkpt>
      <trkpt lat="42.779086" lon="-7.498874">
        <ele>639.439</ele>
        <time>2021-07-13T13:38:32Z</time>
      </trkpt>
      <trkpt lat="42.779175" lon="-7.498609">
        <ele>641.349</ele>
        <time>2021-07-13T13:38:41Z</time>
      </trkpt>
      <trkpt lat="42.779246" lon="-7.498332">
        <ele>641.323</ele>
        <time>2021-07-13T13:38:50Z</time>
      </trkpt>
      <trkpt lat="42.779315" lon="-7.497925">
        <ele>641.811</ele>
        <time>2021-07-13T13:39:00Z</time>
      </trkpt>
      <trkpt lat="42.779359" lon="-7.497486">
        <ele>642.748</ele>
        <time>2021-07-13T13:39:11Z</time>
      </trkpt>
      <trkpt lat="42.779398" lon="-7.497146">
        <ele>643.236</ele>
        <time>2021-07-13T13:39:20Z</time>
      </trkpt>
      <trkpt lat="42.779448" lon="-7.496930">
        <ele>644.287</ele>
        <time>2021-07-13T13:39:27Z</time>
      </trkpt>
      <trkpt lat="42.779455" lon="-7.496737">
        <ele>643.742</ele>
        <time>2021-07-13T13:39:36Z</time>
      </trkpt>
      <trkpt lat="42.779462" lon="-7.496569">
        <ele>645.626</ele>
        <time>2021-07-13T13:39:43Z</time>
      </trkpt>
      <trkpt lat="42.779475" lon="-7.496391">
        <ele>646.108</ele>
        <time>2021-07-13T13:39:50Z</time>
      </trkpt>
      <trkpt lat="42.779478" lon="-7.496363">
        <ele>646.155</ele>
        <time>2021-07-13T13:39:51Z</time>
      </trkpt>
      <trkpt lat="42.779504" lon="-7.496228">
        <ele>646.637</ele>
        <time>2021-07-13T13:39:56Z</time>
      </trkpt>
      <trkpt lat="42.779642" lon="-7.496019">
        <ele>647.184</ele>
        <time>2021-07-13T13:40:05Z</time>
      </trkpt>
      <trkpt lat="42.779660" lon="-7.496007">
        <ele>647.144</ele>
        <time>2021-07-13T13:40:06Z</time>
      </trkpt>
      <trkpt lat="42.779865" lon="-7.495871">
        <ele>647.588</ele>
        <time>2021-07-13T13:40:15Z</time>
      </trkpt>
      <trkpt lat="42.780124" lon="-7.495899">
        <ele>646.696</ele>
        <time>2021-07-13T13:40:22Z</time>
      </trkpt>
      <trkpt lat="42.780406" lon="-7.495952">
        <ele>645.623</ele>
        <time>2021-07-13T13:40:29Z</time>
      </trkpt>
      <trkpt lat="42.780604" lon="-7.495938">
        <ele>646.161</ele>
        <time>2021-07-13T13:40:35Z</time>
      </trkpt>
      <trkpt lat="42.780796" lon="-7.495796">
        <ele>646.688</ele>
        <time>2021-07-13T13:40:42Z</time>
      </trkpt>
      <trkpt lat="42.780917" lon="-7.495668">
        <ele>647.124</ele>
        <time>2021-07-13T13:40:48Z</time>
      </trkpt>
      <trkpt lat="42.780926" lon="-7.495636">
        <ele>646.626</ele>
        <time>2021-07-13T13:40:49Z</time>
      </trkpt>
      <trkpt lat="42.780924" lon="-7.495597">
        <ele>646.608</ele>
        <time>2021-07-13T13:40:50Z</time>
      </trkpt>
      <trkpt lat="42.780919" lon="-7.495568">
        <ele>645.645</ele>
        <time>2021-07-13T13:40:51Z</time>
      </trkpt>
      <trkpt lat="42.780913" lon="-7.495538">
        <ele>645.147</ele>
        <time>2021-07-13T13:40:52Z</time>
      </trkpt>
      <trkpt lat="42.780901" lon="-7.495502">
        <ele>644.734</ele>
        <time>2021-07-13T13:40:53Z</time>
      </trkpt>
      <trkpt lat="42.780887" lon="-7.495464">
        <ele>644.224</ele>
        <time>2021-07-13T13:40:54Z</time>
      </trkpt>
      <trkpt lat="42.780875" lon="-7.495439">
        <ele>644.228</ele>
        <time>2021-07-13T13:40:55Z</time>
      </trkpt>
      <trkpt lat="42.780856" lon="-7.495407">
        <ele>643.776</ele>
        <time>2021-07-13T13:40:57Z</time>
      </trkpt>
      <trkpt lat="42.780781" lon="-7.495215">
        <ele>640.813</ele>
        <time>2021-07-13T13:41:05Z</time>
      </trkpt>
      <trkpt lat="42.780724" lon="-7.495095">
        <ele>639.821</ele>
        <time>2021-07-13T13:41:12Z</time>
      </trkpt>
      <trkpt lat="42.780633" lon="-7.494942">
        <ele>637.066</ele>
        <time>2021-07-13T13:41:20Z</time>
      </trkpt>
      <trkpt lat="42.780609" lon="-7.494913">
        <ele>636.029</ele>
        <time>2021-07-13T13:41:23Z</time>
      </trkpt>
      <trkpt lat="42.780542" lon="-7.494750">
        <ele>635.021</ele>
        <time>2021-07-13T13:41:31Z</time>
      </trkpt>
      <trkpt lat="42.780366" lon="-7.494552">
        <ele>634.608</ele>
        <time>2021-07-13T13:41:41Z</time>
      </trkpt>
      <trkpt lat="42.780228" lon="-7.494446">
        <ele>634.613</ele>
        <time>2021-07-13T13:41:48Z</time>
      </trkpt>
      <trkpt lat="42.780221" lon="-7.494220">
        <ele>635.075</ele>
        <time>2021-07-13T13:41:55Z</time>
      </trkpt>
      <trkpt lat="42.780270" lon="-7.493916">
        <ele>636.572</ele>
        <time>2021-07-13T13:42:03Z</time>
      </trkpt>
      <trkpt lat="42.780411" lon="-7.493595">
        <ele>636.572</ele>
        <time>2021-07-13T13:42:13Z</time>
      </trkpt>
      <trkpt lat="42.780538" lon="-7.493385">
        <ele>636.556</ele>
        <time>2021-07-13T13:42:20Z</time>
      </trkpt>
      <trkpt lat="42.780540" lon="-7.493242">
        <ele>636.534</ele>
        <time>2021-07-13T13:42:27Z</time>
      </trkpt>
      <trkpt lat="42.780554" lon="-7.493163">
        <ele>637.961</ele>
        <time>2021-07-13T13:42:34Z</time>
      </trkpt>
      <trkpt lat="42.780560" lon="-7.493129">
        <ele>638.449</ele>
        <time>2021-07-13T13:42:47Z</time>
      </trkpt>
      <trkpt lat="42.780585" lon="-7.492886">
        <ele>638.462</ele>
        <time>2021-07-13T13:42:54Z</time>
      </trkpt>
      <trkpt lat="42.780667" lon="-7.492546">
        <ele>638.983</ele>
        <time>2021-07-13T13:43:03Z</time>
      </trkpt>
      <trkpt lat="42.780789" lon="-7.492028">
        <ele>637.911</ele>
        <time>2021-07-13T13:43:16Z</time>
      </trkpt>
      <trkpt lat="42.780895" lon="-7.491632">
        <ele>636.508</ele>
        <time>2021-07-13T13:43:23Z</time>
      </trkpt>
      <trkpt lat="42.780962" lon="-7.491371">
        <ele>636.023</ele>
        <time>2021-07-13T13:43:28Z</time>
      </trkpt>
      <trkpt lat="42.781019" lon="-7.490976">
        <ele>636.085</ele>
        <time>2021-07-13T13:43:35Z</time>
      </trkpt>
      <trkpt lat="42.781021" lon="-7.490918">
        <ele>635.512</ele>
        <time>2021-07-13T13:43:36Z</time>
      </trkpt>
      <trkpt lat="42.781021" lon="-7.490241">
        <ele>635.072</ele>
        <time>2021-07-13T13:43:47Z</time>
      </trkpt>
      <trkpt lat="42.781045" lon="-7.489627">
        <ele>633.686</ele>
        <time>2021-07-13T13:43:58Z</time>
      </trkpt>
      <trkpt lat="42.781092" lon="-7.489068">
        <ele>632.264</ele>
        <time>2021-07-13T13:44:06Z</time>
      </trkpt>
      <trkpt lat="42.781100" lon="-7.488304">
        <ele>632.281</ele>
        <time>2021-07-13T13:44:17Z</time>
      </trkpt>
      <trkpt lat="42.781031" lon="-7.487763">
        <ele>632.249</ele>
        <time>2021-07-13T13:44:26Z</time>
      </trkpt>
      <trkpt lat="42.780977" lon="-7.487319">
        <ele>632.258</ele>
        <time>2021-07-13T13:44:33Z</time>
      </trkpt>
      <trkpt lat="42.780989" lon="-7.486989">
        <ele>631.752</ele>
        <time>2021-07-13T13:44:38Z</time>
      </trkpt>
      <trkpt lat="42.780982" lon="-7.486922">
        <ele>631.717</ele>
        <time>2021-07-13T13:44:39Z</time>
      </trkpt>
      <trkpt lat="42.780945" lon="-7.486272">
        <ele>632.208</ele>
        <time>2021-07-13T13:44:48Z</time>
      </trkpt>
      <trkpt lat="42.780947" lon="-7.486136">
        <ele>631.782</ele>
        <time>2021-07-13T13:44:50Z</time>
      </trkpt>
      <trkpt lat="42.781020" lon="-7.485506">
        <ele>631.264</ele>
        <time>2021-07-13T13:44:59Z</time>
      </trkpt>
      <trkpt lat="42.781096" lon="-7.484993">
        <ele>630.271</ele>
        <time>2021-07-13T13:45:08Z</time>
      </trkpt>
      <trkpt lat="42.781111" lon="-7.484868">
        <ele>630.291</ele>
        <time>2021-07-13T13:45:10Z</time>
      </trkpt>
      <trkpt lat="42.781141" lon="-7.484273">
        <ele>630.725</ele>
        <time>2021-07-13T13:45:20Z</time>
      </trkpt>
      <trkpt lat="42.781043" lon="-7.483947">
        <ele>629.883</ele>
        <time>2021-07-13T13:45:27Z</time>
      </trkpt>
      <trkpt lat="42.780892" lon="-7.483698">
        <ele>628.890</ele>
        <time>2021-07-13T13:45:33Z</time>
      </trkpt>
      <trkpt lat="42.780651" lon="-7.483423">
        <ele>627.818</ele>
        <time>2021-07-13T13:45:40Z</time>
      </trkpt>
      <trkpt lat="42.780388" lon="-7.483279">
        <ele>627.864</ele>
        <time>2021-07-13T13:45:46Z</time>
      </trkpt>
      <trkpt lat="42.780348" lon="-7.483272">
        <ele>627.806</ele>
        <time>2021-07-13T13:45:47Z</time>
      </trkpt>
      <trkpt lat="42.780113" lon="-7.483200">
        <ele>627.816</ele>
        <time>2021-07-13T13:45:54Z</time>
      </trkpt>
      <trkpt lat="42.779954" lon="-7.483123">
        <ele>626.908</ele>
        <time>2021-07-13T13:46:00Z</time>
      </trkpt>
      <trkpt lat="42.779642" lon="-7.482944">
        <ele>625.913</ele>
        <time>2021-07-13T13:46:07Z</time>
      </trkpt>
      <trkpt lat="42.779416" lon="-7.482821">
        <ele>624.055</ele>
        <time>2021-07-13T13:46:12Z</time>
      </trkpt>
      <trkpt lat="42.779029" lon="-7.482601">
        <ele>619.712</ele>
        <time>2021-07-13T13:46:19Z</time>
      </trkpt>
      <trkpt lat="42.778558" lon="-7.482263">
        <ele>616.322</ele>
        <time>2021-07-13T13:46:26Z</time>
      </trkpt>
      <trkpt lat="42.778050" lon="-7.481925">
        <ele>614.426</ele>
        <time>2021-07-13T13:46:33Z</time>
      </trkpt>
      <trkpt lat="42.777486" lon="-7.481744">
        <ele>612.524</ele>
        <time>2021-07-13T13:46:40Z</time>
      </trkpt>
      <trkpt lat="42.777244" lon="-7.481691">
        <ele>612.911</ele>
        <time>2021-07-13T13:46:44Z</time>
      </trkpt>
      <trkpt lat="42.777129" lon="-7.481674">
        <ele>612.989</ele>
        <time>2021-07-13T13:46:49Z</time>
      </trkpt>
      <trkpt lat="42.777129" lon="-7.481672">
        <ele>613.941</ele>
        <time>2021-07-13T13:46:59Z</time>
      </trkpt>
      <trkpt lat="42.777122" lon="-7.481670">
        <ele>612.981</ele>
        <time>2021-07-13T13:47:16Z</time>
      </trkpt>
      <trkpt lat="42.777124" lon="-7.481682">
        <ele>612.509</ele>
        <time>2021-07-13T13:47:38Z</time>
      </trkpt>
      <trkpt lat="42.777127" lon="-7.481684">
        <ele>613.408</ele>
        <time>2021-07-13T13:47:57Z</time>
      </trkpt>
      <trkpt lat="42.777127" lon="-7.481683">
        <ele>613.921</ele>
        <time>2021-07-13T13:48:09Z</time>
      </trkpt>
      <trkpt lat="42.777121" lon="-7.481693">
        <ele>614.433</ele>
        <time>2021-07-13T13:48:22Z</time>
      </trkpt>
      <trkpt lat="42.777124" lon="-7.481698">
        <ele>613.950</ele>
        <time>2021-07-13T13:48:38Z</time>
      </trkpt>
      <trkpt lat="42.777126" lon="-7.481697">
        <ele>613.940</ele>
        <time>2021-07-13T13:48:59Z</time>
      </trkpt>
      <trkpt lat="42.777124" lon="-7.481692">
        <ele>614.484</ele>
        <time>2021-07-13T13:49:15Z</time>
      </trkpt>
      <trkpt lat="42.777123" lon="-7.481687">
        <ele>613.912</ele>
        <time>2021-07-13T13:49:30Z</time>
      </trkpt>
      <trkpt lat="42.777117" lon="-7.481672">
        <ele>613.949</ele>
        <time>2021-07-13T13:49:39Z</time>
      </trkpt>
      <trkpt lat="42.777125" lon="-7.481668">
        <ele>613.457</ele>
        <time>2021-07-13T13:49:52Z</time>
      </trkpt>
      <trkpt lat="42.777127" lon="-7.481664">
        <ele>613.963</ele>
        <time>2021-07-13T13:50:09Z</time>
      </trkpt>
      <trkpt lat="42.777127" lon="-7.481665">
        <ele>613.444</ele>
        <time>2021-07-13T13:50:24Z</time>
      </trkpt>
      <trkpt lat="42.777108" lon="-7.481647">
        <ele>613.418</ele>
        <time>2021-07-13T13:50:39Z</time>
      </trkpt>
      <trkpt lat="42.777094" lon="-7.481629">
        <ele>613.408</ele>
        <time>2021-07-13T13:50:40Z</time>
      </trkpt>
      <trkpt lat="42.777085" lon="-7.481595">
        <ele>613.953</ele>
        <time>2021-07-13T13:50:42Z</time>
      </trkpt>
      <trkpt lat="42.777083" lon="-7.481534">
        <ele>613.945</ele>
        <time>2021-07-13T13:50:43Z</time>
      </trkpt>
      <trkpt lat="42.777089" lon="-7.481502">
        <ele>613.492</ele>
        <time>2021-07-13T13:50:44Z</time>
      </trkpt>
      <trkpt lat="42.777100" lon="-7.481460">
        <ele>613.482</ele>
        <time>2021-07-13T13:50:45Z</time>
      </trkpt>
      <trkpt lat="42.777115" lon="-7.481420">
        <ele>613.496</ele>
        <time>2021-07-13T13:50:46Z</time>
      </trkpt>
      <trkpt lat="42.777225" lon="-7.481117">
        <ele>613.944</ele>
        <time>2021-07-13T13:50:53Z</time>
      </trkpt>
      <trkpt lat="42.777385" lon="-7.480680">
        <ele>614.411</ele>
        <time>2021-07-13T13:51:03Z</time>
      </trkpt>
      <trkpt lat="42.777491" lon="-7.480409">
        <ele>615.399</ele>
        <time>2021-07-13T13:51:11Z</time>
      </trkpt>
      <trkpt lat="42.777613" lon="-7.480058">
        <ele>614.945</ele>
        <time>2021-07-13T13:51:20Z</time>
      </trkpt>
      <trkpt lat="42.777775" lon="-7.479595">
        <ele>614.447</ele>
        <time>2021-07-13T13:51:30Z</time>
      </trkpt>
      <trkpt lat="42.777975" lon="-7.479036">
        <ele>612.911</ele>
        <time>2021-07-13T13:51:39Z</time>
      </trkpt>
      <trkpt lat="42.778254" lon="-7.478269">
        <ele>611.008</ele>
        <time>2021-07-13T13:51:49Z</time>
      </trkpt>
      <trkpt lat="42.778589" lon="-7.477364">
        <ele>608.661</ele>
        <time>2021-07-13T13:51:59Z</time>
      </trkpt>
      <trkpt lat="42.778953" lon="-7.476360">
        <ele>606.793</ele>
        <time>2021-07-13T13:52:10Z</time>
      </trkpt>
      <trkpt lat="42.779100" lon="-7.475961">
        <ele>608.130</ele>
        <time>2021-07-13T13:52:16Z</time>
      </trkpt>
      <trkpt lat="42.779159" lon="-7.475810">
        <ele>608.140</ele>
        <time>2021-07-13T13:52:19Z</time>
      </trkpt>
      <trkpt lat="42.779177" lon="-7.475758">
        <ele>608.134</ele>
        <time>2021-07-13T13:52:20Z</time>
      </trkpt>
      <trkpt lat="42.779313" lon="-7.475376">
        <ele>608.162</ele>
        <time>2021-07-13T13:52:28Z</time>
      </trkpt>
      <trkpt lat="42.779431" lon="-7.475071">
        <ele>609.629</ele>
        <time>2021-07-13T13:52:36Z</time>
      </trkpt>
      <trkpt lat="42.779538" lon="-7.474766">
        <ele>611.597</ele>
        <time>2021-07-13T13:52:44Z</time>
      </trkpt>
      <trkpt lat="42.779616" lon="-7.474568">
        <ele>612.535</ele>
        <time>2021-07-13T13:52:52Z</time>
      </trkpt>
      <trkpt lat="42.779706" lon="-7.474294">
        <ele>613.986</ele>
        <time>2021-07-13T13:53:01Z</time>
      </trkpt>
      <trkpt lat="42.779826" lon="-7.473956">
        <ele>614.914</ele>
        <time>2021-07-13T13:53:12Z</time>
      </trkpt>
      <trkpt lat="42.779927" lon="-7.473684">
        <ele>614.908</ele>
        <time>2021-07-13T13:53:21Z</time>
      </trkpt>
      <trkpt lat="42.780044" lon="-7.473378">
        <ele>616.310</ele>
        <time>2021-07-13T13:53:31Z</time>
      </trkpt>
      <trkpt lat="42.780178" lon="-7.473007">
        <ele>616.382</ele>
        <time>2021-07-13T13:53:43Z</time>
      </trkpt>
      <trkpt lat="42.780284" lon="-7.472716">
        <ele>617.399</ele>
        <time>2021-07-13T13:53:53Z</time>
      </trkpt>
      <trkpt lat="42.780400" lon="-7.472408">
        <ele>618.729</ele>
        <time>2021-07-13T13:54:03Z</time>
      </trkpt>
      <trkpt lat="42.780546" lon="-7.472001">
        <ele>620.183</ele>
        <time>2021-07-13T13:54:16Z</time>
      </trkpt>
      <trkpt lat="42.780688" lon="-7.471605">
        <ele>621.141</ele>
        <time>2021-07-13T13:54:29Z</time>
      </trkpt>
      <trkpt lat="42.780834" lon="-7.471202">
        <ele>623.098</ele>
        <time>2021-07-13T13:54:42Z</time>
      </trkpt>
      <trkpt lat="42.780966" lon="-7.470833">
        <ele>624.556</ele>
        <time>2021-07-13T13:54:53Z</time>
      </trkpt>
      <trkpt lat="42.781130" lon="-7.470354">
        <ele>624.957</ele>
        <time>2021-07-13T13:55:06Z</time>
      </trkpt>
      <trkpt lat="42.781274" lon="-7.469936">
        <ele>625.400</ele>
        <time>2021-07-13T13:55:16Z</time>
      </trkpt>
      <trkpt lat="42.781430" lon="-7.469495">
        <ele>625.420</ele>
        <time>2021-07-13T13:55:26Z</time>
      </trkpt>
      <trkpt lat="42.781667" lon="-7.468815">
        <ele>624.908</ele>
        <time>2021-07-13T13:55:40Z</time>
      </trkpt>
      <trkpt lat="42.781865" lon="-7.468259">
        <ele>624.092</ele>
        <time>2021-07-13T13:55:50Z</time>
      </trkpt>
      <trkpt lat="42.782084" lon="-7.467708">
        <ele>621.694</ele>
        <time>2021-07-13T13:55:58Z</time>
      </trkpt>
      <trkpt lat="42.782374" lon="-7.467131">
        <ele>618.711</ele>
        <time>2021-07-13T13:56:05Z</time>
      </trkpt>
      <trkpt lat="42.782768" lon="-7.466338">
        <ele>614.991</ele>
        <time>2021-07-13T13:56:13Z</time>
      </trkpt>
      <trkpt lat="42.783099" lon="-7.465489">
        <ele>612.095</ele>
        <time>2021-07-13T13:56:20Z</time>
      </trkpt>
      <trkpt lat="42.783299" lon="-7.464676">
        <ele>610.583</ele>
        <time>2021-07-13T13:56:27Z</time>
      </trkpt>
      <trkpt lat="42.783479" lon="-7.463783">
        <ele>608.140</ele>
        <time>2021-07-13T13:56:36Z</time>
      </trkpt>
      <trkpt lat="42.783688" lon="-7.462662">
        <ele>603.838</ele>
        <time>2021-07-13T13:56:48Z</time>
      </trkpt>
      <trkpt lat="42.783776" lon="-7.461789">
        <ele>600.469</ele>
        <time>2021-07-13T13:56:56Z</time>
      </trkpt>
      <trkpt lat="42.783829" lon="-7.460864">
        <ele>597.604</ele>
        <time>2021-07-13T13:57:04Z</time>
      </trkpt>
      <trkpt lat="42.783819" lon="-7.460739">
        <ele>597.124</ele>
        <time>2021-07-13T13:57:05Z</time>
      </trkpt>
      <trkpt lat="42.783799" lon="-7.460604">
        <ele>596.608</ele>
        <time>2021-07-13T13:57:06Z</time>
      </trkpt>
      <trkpt lat="42.783771" lon="-7.460477">
        <ele>595.653</ele>
        <time>2021-07-13T13:57:07Z</time>
      </trkpt>
      <trkpt lat="42.783735" lon="-7.460354">
        <ele>595.655</ele>
        <time>2021-07-13T13:57:08Z</time>
      </trkpt>
      <trkpt lat="42.783693" lon="-7.460232">
        <ele>594.732</ele>
        <time>2021-07-13T13:57:09Z</time>
      </trkpt>
      <trkpt lat="42.783323" lon="-7.459621">
        <ele>591.882</ele>
        <time>2021-07-13T13:57:15Z</time>
      </trkpt>
      <trkpt lat="42.782728" lon="-7.458851">
        <ele>589.476</ele>
        <time>2021-07-13T13:57:24Z</time>
      </trkpt>
      <trkpt lat="42.782413" lon="-7.458295">
        <ele>587.544</ele>
        <time>2021-07-13T13:57:30Z</time>
      </trkpt>
      <trkpt lat="42.782377" lon="-7.458191">
        <ele>587.011</ele>
        <time>2021-07-13T13:57:31Z</time>
      </trkpt>
      <trkpt lat="42.782281" lon="-7.457791">
        <ele>586.599</ele>
        <time>2021-07-13T13:57:35Z</time>
      </trkpt>
      <trkpt lat="42.782265" lon="-7.457597">
        <ele>587.511</ele>
        <time>2021-07-13T13:57:37Z</time>
      </trkpt>
      <trkpt lat="42.782265" lon="-7.457501">
        <ele>587.521</ele>
        <time>2021-07-13T13:57:38Z</time>
      </trkpt>
      <trkpt lat="42.782271" lon="-7.457404">
        <ele>587.903</ele>
        <time>2021-07-13T13:57:39Z</time>
      </trkpt>
      <trkpt lat="42.782281" lon="-7.457315">
        <ele>587.908</ele>
        <time>2021-07-13T13:57:40Z</time>
      </trkpt>
      <trkpt lat="42.782294" lon="-7.457228">
        <ele>588.428</ele>
        <time>2021-07-13T13:57:41Z</time>
      </trkpt>
      <trkpt lat="42.782415" lon="-7.456774">
        <ele>587.560</ele>
        <time>2021-07-13T13:57:47Z</time>
      </trkpt>
      <trkpt lat="42.782671" lon="-7.456224">
        <ele>586.557</ele>
        <time>2021-07-13T13:57:56Z</time>
      </trkpt>
      <trkpt lat="42.782978" lon="-7.455617">
        <ele>584.647</ele>
        <time>2021-07-13T13:58:06Z</time>
      </trkpt>
      <trkpt lat="42.783229" lon="-7.454991">
        <ele>581.761</ele>
        <time>2021-07-13T13:58:14Z</time>
      </trkpt>
      <trkpt lat="42.783505" lon="-7.454306">
        <ele>577.489</ele>
        <time>2021-07-13T13:58:21Z</time>
      </trkpt>
      <trkpt lat="42.783838" lon="-7.453649">
        <ele>573.536</ele>
        <time>2021-07-13T13:58:27Z</time>
      </trkpt>
      <trkpt lat="42.784238" lon="-7.452920">
        <ele>568.244</ele>
        <time>2021-07-13T13:58:34Z</time>
      </trkpt>
      <trkpt lat="42.784329" lon="-7.452706">
        <ele>567.345</ele>
        <time>2021-07-13T13:58:36Z</time>
      </trkpt>
      <trkpt lat="42.784361" lon="-7.452593">
        <ele>566.347</ele>
        <time>2021-07-13T13:58:37Z</time>
      </trkpt>
      <trkpt lat="42.784385" lon="-7.452476">
        <ele>565.811</ele>
        <time>2021-07-13T13:58:38Z</time>
      </trkpt>
      <trkpt lat="42.784395" lon="-7.452351">
        <ele>565.308</ele>
        <time>2021-07-13T13:58:39Z</time>
      </trkpt>
      <trkpt lat="42.784393" lon="-7.452229">
        <ele>564.911</ele>
        <time>2021-07-13T13:58:40Z</time>
      </trkpt>
      <trkpt lat="42.784379" lon="-7.452109">
        <ele>564.423</ele>
        <time>2021-07-13T13:58:41Z</time>
      </trkpt>
      <trkpt lat="42.784353" lon="-7.451987">
        <ele>563.410</ele>
        <time>2021-07-13T13:58:42Z</time>
      </trkpt>
      <trkpt lat="42.784315" lon="-7.451867">
        <ele>562.960</ele>
        <time>2021-07-13T13:58:43Z</time>
      </trkpt>
      <trkpt lat="42.784265" lon="-7.451750">
        <ele>562.554</ele>
        <time>2021-07-13T13:58:44Z</time>
      </trkpt>
      <trkpt lat="42.784209" lon="-7.451639">
        <ele>561.512</ele>
        <time>2021-07-13T13:58:45Z</time>
      </trkpt>
      <trkpt lat="42.783787" lon="-7.450847">
        <ele>557.279</ele>
        <time>2021-07-13T13:58:52Z</time>
      </trkpt>
      <trkpt lat="42.783382" lon="-7.450061">
        <ele>553.867</ele>
        <time>2021-07-13T13:58:59Z</time>
      </trkpt>
      <trkpt lat="42.783091" lon="-7.449303">
        <ele>551.967</ele>
        <time>2021-07-13T13:59:06Z</time>
      </trkpt>
      <trkpt lat="42.782856" lon="-7.448490">
        <ele>548.581</ele>
        <time>2021-07-13T13:59:13Z</time>
      </trkpt>
      <trkpt lat="42.782691" lon="-7.448128">
        <ele>546.619</ele>
        <time>2021-07-13T13:59:16Z</time>
      </trkpt>
      <trkpt lat="42.782304" lon="-7.447555">
        <ele>541.808</ele>
        <time>2021-07-13T13:59:22Z</time>
      </trkpt>
      <trkpt lat="42.782218" lon="-7.447370">
        <ele>540.473</ele>
        <time>2021-07-13T13:59:24Z</time>
      </trkpt>
      <trkpt lat="42.782181" lon="-7.447245">
        <ele>539.445</ele>
        <time>2021-07-13T13:59:25Z</time>
      </trkpt>
      <trkpt lat="42.782162" lon="-7.447143">
        <ele>538.952</ele>
        <time>2021-07-13T13:59:26Z</time>
      </trkpt>
      <trkpt lat="42.782147" lon="-7.447019">
        <ele>537.912</ele>
        <time>2021-07-13T13:59:27Z</time>
      </trkpt>
      <trkpt lat="42.782138" lon="-7.446912">
        <ele>537.586</ele>
        <time>2021-07-13T13:59:28Z</time>
      </trkpt>
      <trkpt lat="42.782135" lon="-7.446789">
        <ele>537.084</ele>
        <time>2021-07-13T13:59:29Z</time>
      </trkpt>
      <trkpt lat="42.782137" lon="-7.446659">
        <ele>537.031</ele>
        <time>2021-07-13T13:59:30Z</time>
      </trkpt>
      <trkpt lat="42.782127" lon="-7.446050">
        <ele>535.529</ele>
        <time>2021-07-13T13:59:35Z</time>
      </trkpt>
      <trkpt lat="42.782104" lon="-7.445942">
        <ele>535.158</ele>
        <time>2021-07-13T13:59:36Z</time>
      </trkpt>
      <trkpt lat="42.782076" lon="-7.445841">
        <ele>534.652</ele>
        <time>2021-07-13T13:59:37Z</time>
      </trkpt>
      <trkpt lat="42.782039" lon="-7.445746">
        <ele>534.617</ele>
        <time>2021-07-13T13:59:38Z</time>
      </trkpt>
      <trkpt lat="42.781998" lon="-7.445664">
        <ele>534.608</ele>
        <time>2021-07-13T13:59:39Z</time>
      </trkpt>
      <trkpt lat="42.781954" lon="-7.445592">
        <ele>534.622</ele>
        <time>2021-07-13T13:59:40Z</time>
      </trkpt>
      <trkpt lat="42.781910" lon="-7.445526">
        <ele>534.664</ele>
        <time>2021-07-13T13:59:41Z</time>
      </trkpt>
      <trkpt lat="42.781650" lon="-7.445141">
        <ele>535.581</ele>
        <time>2021-07-13T13:59:48Z</time>
      </trkpt>
      <trkpt lat="42.781390" lon="-7.444663">
        <ele>536.071</ele>
        <time>2021-07-13T13:59:57Z</time>
      </trkpt>
      <trkpt lat="42.781213" lon="-7.444170">
        <ele>535.595</ele>
        <time>2021-07-13T14:00:05Z</time>
      </trkpt>
      <trkpt lat="42.781005" lon="-7.443603">
        <ele>534.673</ele>
        <time>2021-07-13T14:00:14Z</time>
      </trkpt>
      <trkpt lat="42.780746" lon="-7.442903">
        <ele>534.670</ele>
        <time>2021-07-13T14:00:26Z</time>
      </trkpt>
      <trkpt lat="42.780521" lon="-7.442331">
        <ele>533.158</ele>
        <time>2021-07-13T14:00:35Z</time>
      </trkpt>
      <trkpt lat="42.780277" lon="-7.441897">
        <ele>530.721</ele>
        <time>2021-07-13T14:00:41Z</time>
      </trkpt>
      <trkpt lat="42.779963" lon="-7.441573">
        <ele>528.841</ele>
        <time>2021-07-13T14:00:46Z</time>
      </trkpt>
      <trkpt lat="42.779217" lon="-7.441164">
        <ele>525.905</ele>
        <time>2021-07-13T14:00:56Z</time>
      </trkpt>
      <trkpt lat="42.779050" lon="-7.441112">
        <ele>525.508</ele>
        <time>2021-07-13T14:00:58Z</time>
      </trkpt>
      <trkpt lat="42.778970" lon="-7.441098">
        <ele>525.569</ele>
        <time>2021-07-13T14:00:59Z</time>
      </trkpt>
      <trkpt lat="42.778879" lon="-7.441094">
        <ele>525.031</ele>
        <time>2021-07-13T14:01:00Z</time>
      </trkpt>
      <trkpt lat="42.778795" lon="-7.441101">
        <ele>525.088</ele>
        <time>2021-07-13T14:01:01Z</time>
      </trkpt>
      <trkpt lat="42.778715" lon="-7.441116">
        <ele>524.538</ele>
        <time>2021-07-13T14:01:02Z</time>
      </trkpt>
      <trkpt lat="42.778634" lon="-7.441142">
        <ele>524.512</ele>
        <time>2021-07-13T14:01:03Z</time>
      </trkpt>
      <trkpt lat="42.778032" lon="-7.441444">
        <ele>523.030</ele>
        <time>2021-07-13T14:01:11Z</time>
      </trkpt>
      <trkpt lat="42.777591" lon="-7.441539">
        <ele>521.127</ele>
        <time>2021-07-13T14:01:17Z</time>
      </trkpt>
      <trkpt lat="42.777113" lon="-7.441453">
        <ele>517.885</ele>
        <time>2021-07-13T14:01:23Z</time>
      </trkpt>
      <trkpt lat="42.776846" lon="-7.441289">
        <ele>515.826</ele>
        <time>2021-07-13T14:01:28Z</time>
      </trkpt>
      <trkpt lat="42.776552" lon="-7.440982">
        <ele>513.447</ele>
        <time>2021-07-13T14:01:36Z</time>
      </trkpt>
      <trkpt lat="42.776313" lon="-7.440581">
        <ele>511.011</ele>
        <time>2021-07-13T14:01:42Z</time>
      </trkpt>
      <trkpt lat="42.776087" lon="-7.439970">
        <ele>508.608</ele>
        <time>2021-07-13T14:01:48Z</time>
      </trkpt>
      <trkpt lat="42.775749" lon="-7.439036">
        <ele>505.329</ele>
        <time>2021-07-13T14:01:56Z</time>
      </trkpt>
      <trkpt lat="42.775282" lon="-7.437605">
        <ele>500.051</ele>
        <time>2021-07-13T14:02:08Z</time>
      </trkpt>
      <trkpt lat="42.775037" lon="-7.436662">
        <ele>497.188</ele>
        <time>2021-07-13T14:02:16Z</time>
      </trkpt>
      <trkpt lat="42.774863" lon="-7.435890">
        <ele>496.678</ele>
        <time>2021-07-13T14:02:23Z</time>
      </trkpt>
      <trkpt lat="42.774670" lon="-7.435033">
        <ele>495.762</ele>
        <time>2021-07-13T14:02:32Z</time>
      </trkpt>
      <trkpt lat="42.774569" lon="-7.434302">
        <ele>494.230</ele>
        <time>2021-07-13T14:02:40Z</time>
      </trkpt>
      <trkpt lat="42.774571" lon="-7.434193">
        <ele>494.287</ele>
        <time>2021-07-13T14:02:41Z</time>
      </trkpt>
      <trkpt lat="42.774581" lon="-7.434110">
        <ele>493.785</ele>
        <time>2021-07-13T14:02:42Z</time>
      </trkpt>
      <trkpt lat="42.774598" lon="-7.434015">
        <ele>493.762</ele>
        <time>2021-07-13T14:02:43Z</time>
      </trkpt>
      <trkpt lat="42.774621" lon="-7.433919">
        <ele>493.283</ele>
        <time>2021-07-13T14:02:44Z</time>
      </trkpt>
      <trkpt lat="42.774651" lon="-7.433817">
        <ele>492.811</ele>
        <time>2021-07-13T14:02:45Z</time>
      </trkpt>
      <trkpt lat="42.774686" lon="-7.433720">
        <ele>492.308</ele>
        <time>2021-07-13T14:02:46Z</time>
      </trkpt>
      <trkpt lat="42.774848" lon="-7.433174">
        <ele>488.993</ele>
        <time>2021-07-13T14:02:51Z</time>
      </trkpt>
      <trkpt lat="42.774908" lon="-7.432400">
        <ele>486.075</ele>
        <time>2021-07-13T14:02:57Z</time>
      </trkpt>
      <trkpt lat="42.775010" lon="-7.431677">
        <ele>483.272</ele>
        <time>2021-07-13T14:03:03Z</time>
      </trkpt>
      <trkpt lat="42.775229" lon="-7.431042">
        <ele>479.842</ele>
        <time>2021-07-13T14:03:10Z</time>
      </trkpt>
      <trkpt lat="42.775553" lon="-7.430474">
        <ele>477.946</ele>
        <time>2021-07-13T14:03:17Z</time>
      </trkpt>
      <trkpt lat="42.776063" lon="-7.429778">
        <ele>474.054</ele>
        <time>2021-07-13T14:03:26Z</time>
      </trkpt>
      <trkpt lat="42.776466" lon="-7.429167">
        <ele>469.771</ele>
        <time>2021-07-13T14:03:32Z</time>
      </trkpt>
      <trkpt lat="42.776830" lon="-7.428454">
        <ele>465.959</ele>
        <time>2021-07-13T14:03:38Z</time>
      </trkpt>
      <trkpt lat="42.777171" lon="-7.427557">
        <ele>462.551</ele>
        <time>2021-07-13T14:03:45Z</time>
      </trkpt>
      <trkpt lat="42.777563" lon="-7.426659">
        <ele>458.601</ele>
        <time>2021-07-13T14:03:52Z</time>
      </trkpt>
      <trkpt lat="42.778044" lon="-7.425907">
        <ele>454.311</ele>
        <time>2021-07-13T14:03:59Z</time>
      </trkpt>
      <trkpt lat="42.778576" lon="-7.425216">
        <ele>450.508</ele>
        <time>2021-07-13T14:04:06Z</time>
      </trkpt>
      <trkpt lat="42.779175" lon="-7.424685">
        <ele>447.682</ele>
        <time>2021-07-13T14:04:13Z</time>
      </trkpt>
      <trkpt lat="42.779722" lon="-7.424294">
        <ele>444.724</ele>
        <time>2021-07-13T14:04:19Z</time>
      </trkpt>
      <trkpt lat="42.780352" lon="-7.424102">
        <ele>441.321</ele>
        <time>2021-07-13T14:04:25Z</time>
      </trkpt>
      <trkpt lat="42.780798" lon="-7.424102">
        <ele>440.461</ele>
        <time>2021-07-13T14:04:30Z</time>
      </trkpt>
      <trkpt lat="42.780935" lon="-7.424068">
        <ele>440.445</ele>
        <time>2021-07-13T14:04:32Z</time>
      </trkpt>
      <trkpt lat="42.780990" lon="-7.424028">
        <ele>440.443</ele>
        <time>2021-07-13T14:04:33Z</time>
      </trkpt>
      <trkpt lat="42.781032" lon="-7.423980">
        <ele>440.970</ele>
        <time>2021-07-13T14:04:34Z</time>
      </trkpt>
      <trkpt lat="42.781064" lon="-7.423933">
        <ele>440.958</ele>
        <time>2021-07-13T14:04:35Z</time>
      </trkpt>
      <trkpt lat="42.781092" lon="-7.423884">
        <ele>440.975</ele>
        <time>2021-07-13T14:04:36Z</time>
      </trkpt>
      <trkpt lat="42.781117" lon="-7.423833">
        <ele>440.928</ele>
        <time>2021-07-13T14:04:37Z</time>
      </trkpt>
      <trkpt lat="42.781137" lon="-7.423778">
        <ele>440.920</ele>
        <time>2021-07-13T14:04:38Z</time>
      </trkpt>
      <trkpt lat="42.781151" lon="-7.423719">
        <ele>440.908</ele>
        <time>2021-07-13T14:04:39Z</time>
      </trkpt>
      <trkpt lat="42.781161" lon="-7.423656">
        <ele>440.494</ele>
        <time>2021-07-13T14:04:40Z</time>
      </trkpt>
      <trkpt lat="42.781166" lon="-7.423588">
        <ele>440.466</ele>
        <time>2021-07-13T14:04:41Z</time>
      </trkpt>
      <trkpt lat="42.781214" lon="-7.423030">
        <ele>438.513</ele>
        <time>2021-07-13T14:04:50Z</time>
      </trkpt>
      <trkpt lat="42.781240" lon="-7.422608">
        <ele>436.593</ele>
        <time>2021-07-13T14:04:55Z</time>
      </trkpt>
      <trkpt lat="42.781277" lon="-7.422012">
        <ele>433.217</ele>
        <time>2021-07-13T14:05:01Z</time>
      </trkpt>
      <trkpt lat="42.781289" lon="-7.421591">
        <ele>430.315</ele>
        <time>2021-07-13T14:05:06Z</time>
      </trkpt>
      <trkpt lat="42.781275" lon="-7.421506">
        <ele>429.862</ele>
        <time>2021-07-13T14:05:07Z</time>
      </trkpt>
      <trkpt lat="42.781253" lon="-7.421427">
        <ele>429.380</ele>
        <time>2021-07-13T14:05:08Z</time>
      </trkpt>
      <trkpt lat="42.781122" lon="-7.421071">
        <ele>427.996</ele>
        <time>2021-07-13T14:05:13Z</time>
      </trkpt>
      <trkpt lat="42.781090" lon="-7.420997">
        <ele>427.931</ele>
        <time>2021-07-13T14:05:14Z</time>
      </trkpt>
      <trkpt lat="42.781045" lon="-7.420881">
        <ele>427.924</ele>
        <time>2021-07-13T14:05:16Z</time>
      </trkpt>
      <trkpt lat="42.781027" lon="-7.420813">
        <ele>428.408</ele>
        <time>2021-07-13T14:05:17Z</time>
      </trkpt>
      <trkpt lat="42.781013" lon="-7.420750">
        <ele>428.466</ele>
        <time>2021-07-13T14:05:18Z</time>
      </trkpt>
      <trkpt lat="42.781001" lon="-7.420682">
        <ele>428.478</ele>
        <time>2021-07-13T14:05:19Z</time>
      </trkpt>
      <trkpt lat="42.780992" lon="-7.420618">
        <ele>428.895</ele>
        <time>2021-07-13T14:05:20Z</time>
      </trkpt>
      <trkpt lat="42.780906" lon="-7.420119">
        <ele>430.385</ele>
        <time>2021-07-13T14:05:29Z</time>
      </trkpt>
      <trkpt lat="42.780862" lon="-7.419819">
        <ele>433.689</ele>
        <time>2021-07-13T14:05:37Z</time>
      </trkpt>
      <trkpt lat="42.780797" lon="-7.419527">
        <ele>433.637</ele>
        <time>2021-07-13T14:05:45Z</time>
      </trkpt>
      <trkpt lat="42.780788" lon="-7.419358">
        <ele>434.134</ele>
        <time>2021-07-13T14:05:50Z</time>
      </trkpt>
      <trkpt lat="42.780803" lon="-7.419327">
        <ele>433.642</ele>
        <time>2021-07-13T14:05:51Z</time>
      </trkpt>
      <trkpt lat="42.780819" lon="-7.419304">
        <ele>433.625</ele>
        <time>2021-07-13T14:05:52Z</time>
      </trkpt>
      <trkpt lat="42.780988" lon="-7.419156">
        <ele>431.226</ele>
        <time>2021-07-13T14:05:59Z</time>
      </trkpt>
      <trkpt lat="42.781025" lon="-7.419131">
        <ele>430.808</ele>
        <time>2021-07-13T14:06:00Z</time>
      </trkpt>
      <trkpt lat="42.781372" lon="-7.418858">
        <ele>427.908</ele>
        <time>2021-07-13T14:06:08Z</time>
      </trkpt>
      <trkpt lat="42.781421" lon="-7.418823">
        <ele>427.999</ele>
        <time>2021-07-13T14:06:09Z</time>
      </trkpt>
      <trkpt lat="42.781596" lon="-7.418684">
        <ele>427.431</ele>
        <time>2021-07-13T14:06:13Z</time>
      </trkpt>
      <trkpt lat="42.781757" lon="-7.418523">
        <ele>426.998</ele>
        <time>2021-07-13T14:06:19Z</time>
      </trkpt>
      <trkpt lat="42.781757" lon="-7.418514">
        <ele>427.488</ele>
        <time>2021-07-13T14:06:24Z</time>
      </trkpt>
      <trkpt lat="42.781748" lon="-7.418517">
        <ele>429.882</ele>
        <time>2021-07-13T14:06:41Z</time>
      </trkpt>
      <trkpt lat="42.781749" lon="-7.418574">
        <ele>432.720</ele>
        <time>2021-07-13T14:07:00Z</time>
      </trkpt>
      <trkpt lat="42.781756" lon="-7.418578">
        <ele>432.737</ele>
        <time>2021-07-13T14:07:12Z</time>
      </trkpt>
      <trkpt lat="42.781821" lon="-7.418510">
        <ele>432.725</ele>
        <time>2021-07-13T14:07:19Z</time>
      </trkpt>
      <trkpt lat="42.782037" lon="-7.418355">
        <ele>431.227</ele>
        <time>2021-07-13T14:07:26Z</time>
      </trkpt>
      <trkpt lat="42.782251" lon="-7.418177">
        <ele>430.368</ele>
        <time>2021-07-13T14:07:33Z</time>
      </trkpt>
      <trkpt lat="42.782447" lon="-7.418022">
        <ele>428.414</ele>
        <time>2021-07-13T14:07:39Z</time>
      </trkpt>
      <trkpt lat="42.782643" lon="-7.417868">
        <ele>426.908</ele>
        <time>2021-07-13T14:07:44Z</time>
      </trkpt>
      <trkpt lat="42.782939" lon="-7.417674">
        <ele>426.099</ele>
        <time>2021-07-13T14:07:52Z</time>
      </trkpt>
      <trkpt lat="42.783059" lon="-7.417599">
        <ele>425.541</ele>
        <time>2021-07-13T14:07:58Z</time>
      </trkpt>
      <trkpt lat="42.783069" lon="-7.417625">
        <ele>426.488</ele>
        <time>2021-07-13T14:08:10Z</time>
      </trkpt>
      <trkpt lat="42.783070" lon="-7.417640">
        <ele>426.448</ele>
        <time>2021-07-13T14:08:22Z</time>
      </trkpt>
      <trkpt lat="42.783121" lon="-7.417599">
        <ele>426.062</ele>
        <time>2021-07-13T14:08:27Z</time>
      </trkpt>
      <trkpt lat="42.783107" lon="-7.417416">
        <ele>426.420</ele>
        <time>2021-07-13T14:08:32Z</time>
      </trkpt>
      <trkpt lat="42.782922" lon="-7.417133">
        <ele>426.017</ele>
        <time>2021-07-13T14:08:41Z</time>
      </trkpt>
      <trkpt lat="42.782688" lon="-7.416756">
        <ele>426.475</ele>
        <time>2021-07-13T14:08:52Z</time>
      </trkpt>
      <trkpt lat="42.782499" lon="-7.416504">
        <ele>426.941</ele>
        <time>2021-07-13T14:09:00Z</time>
      </trkpt>
      <trkpt lat="42.782492" lon="-7.416486">
        <ele>427.981</ele>
        <time>2021-07-13T14:09:05Z</time>
      </trkpt>
      <trkpt lat="42.782505" lon="-7.416468">
        <ele>428.809</ele>
        <time>2021-07-13T14:09:14Z</time>
      </trkpt>
      <trkpt lat="42.782504" lon="-7.416462">
        <ele>428.808</ele>
        <time>2021-07-13T14:09:15Z</time>
      </trkpt>
      <trkpt lat="42.782484" lon="-7.416380">
        <ele>427.951</ele>
        <time>2021-07-13T14:09:20Z</time>
      </trkpt>
      <trkpt lat="42.782496" lon="-7.416337">
        <ele>426.923</ele>
        <time>2021-07-13T14:09:27Z</time>
      </trkpt>
      <trkpt lat="42.782480" lon="-7.416356">
        <ele>427.910</ele>
        <time>2021-07-13T14:09:37Z</time>
      </trkpt>
      <trkpt lat="42.782382" lon="-7.416698">
        <ele>505.350</ele>
        <time>2021-07-14T05:56:35Z</time>
      </trkpt>
      <trkpt lat="42.782434" lon="-7.416699">
        <ele>494.764</ele>
        <time>2021-07-14T05:56:52Z</time>
      </trkpt>
      <trkpt lat="42.782409" lon="-7.416720">
        <ele>492.882</ele>
        <time>2021-07-14T05:57:11Z</time>
      </trkpt>
      <trkpt lat="42.782391" lon="-7.416719">
        <ele>488.939</ele>
        <time>2021-07-14T05:57:20Z</time>
      </trkpt>
      <trkpt lat="42.782388" lon="-7.416689">
        <ele>483.277</ele>
        <time>2021-07-14T05:57:31Z</time>
      </trkpt>
      <trkpt lat="42.782405" lon="-7.416685">
        <ele>479.828</ele>
        <time>2021-07-14T05:57:40Z</time>
      </trkpt>
      <trkpt lat="42.782399" lon="-7.416666">
        <ele>478.389</ele>
        <time>2021-07-14T05:57:51Z</time>
      </trkpt>
      <trkpt lat="42.782405" lon="-7.416646">
        <ele>478.317</ele>
        <time>2021-07-14T05:57:54Z</time>
      </trkpt>
      <trkpt lat="42.782347" lon="-7.416565">
        <ele>478.808</ele>
        <time>2021-07-14T05:57:59Z</time>
      </trkpt>
      <trkpt lat="42.782272" lon="-7.416403">
        <ele>478.399</ele>
        <time>2021-07-14T05:58:05Z</time>
      </trkpt>
      <trkpt lat="42.782115" lon="-7.416140">
        <ele>471.631</ele>
        <time>2021-07-14T05:58:13Z</time>
      </trkpt>
      <trkpt lat="42.781926" lon="-7.415889">
        <ele>470.718</ele>
        <time>2021-07-14T05:58:21Z</time>
      </trkpt>
      <trkpt lat="42.781700" lon="-7.415565">
        <ele>470.258</ele>
        <time>2021-07-14T05:58:30Z</time>
      </trkpt>
      <trkpt lat="42.781563" lon="-7.415409">
        <ele>470.242</ele>
        <time>2021-07-14T05:58:35Z</time>
      </trkpt>
      <trkpt lat="42.781251" lon="-7.414894">
        <ele>469.710</ele>
        <time>2021-07-14T05:58:48Z</time>
      </trkpt>
      <trkpt lat="42.780992" lon="-7.414527">
        <ele>469.287</ele>
        <time>2021-07-14T05:58:58Z</time>
      </trkpt>
      <trkpt lat="42.780731" lon="-7.414236">
        <ele>468.785</ele>
        <time>2021-07-14T05:59:07Z</time>
      </trkpt>
      <trkpt lat="42.780695" lon="-7.414218">
        <ele>468.351</ele>
        <time>2021-07-14T05:59:08Z</time>
      </trkpt>
      <trkpt lat="42.780651" lon="-7.414022">
        <ele>468.301</ele>
        <time>2021-07-14T05:59:14Z</time>
      </trkpt>
      <trkpt lat="42.780680" lon="-7.413936">
        <ele>467.811</ele>
        <time>2021-07-14T05:59:20Z</time>
      </trkpt>
      <trkpt lat="42.780681" lon="-7.413977">
        <ele>470.208</ele>
        <time>2021-07-14T05:59:25Z</time>
      </trkpt>
      <trkpt lat="42.780688" lon="-7.413978">
        <ele>470.262</ele>
        <time>2021-07-14T05:59:28Z</time>
      </trkpt>
      <trkpt lat="42.780718" lon="-7.413896">
        <ele>470.724</ele>
        <time>2021-07-14T05:59:34Z</time>
      </trkpt>
      <trkpt lat="42.780662" lon="-7.413705">
        <ele>472.191</ele>
        <time>2021-07-14T05:59:39Z</time>
      </trkpt>
      <trkpt lat="42.780635" lon="-7.413634">
        <ele>473.131</ele>
        <time>2021-07-14T05:59:40Z</time>
      </trkpt>
      <trkpt lat="42.780437" lon="-7.413320">
        <ele>472.665</ele>
        <time>2021-07-14T05:59:49Z</time>
      </trkpt>
      <trkpt lat="42.780197" lon="-7.413051">
        <ele>473.523</ele>
        <time>2021-07-14T05:59:58Z</time>
      </trkpt>
      <trkpt lat="42.779963" lon="-7.412898">
        <ele>473.180</ele>
        <time>2021-07-14T06:00:05Z</time>
      </trkpt>
      <trkpt lat="42.779844" lon="-7.412826">
        <ele>472.188</ele>
        <time>2021-07-14T06:00:10Z</time>
      </trkpt>
      <trkpt lat="42.779823" lon="-7.412731">
        <ele>471.625</ele>
        <time>2021-07-14T06:00:14Z</time>
      </trkpt>
      <trkpt lat="42.779821" lon="-7.412668">
        <ele>470.726</ele>
        <time>2021-07-14T06:00:17Z</time>
      </trkpt>
      <trkpt lat="42.779667" lon="-7.412367">
        <ele>471.108</ele>
        <time>2021-07-14T06:00:26Z</time>
      </trkpt>
      <trkpt lat="42.779562" lon="-7.412282">
        <ele>470.708</ele>
        <time>2021-07-14T06:00:32Z</time>
      </trkpt>
      <trkpt lat="42.779483" lon="-7.412095">
        <ele>473.129</ele>
        <time>2021-07-14T06:00:38Z</time>
      </trkpt>
      <trkpt lat="42.779441" lon="-7.412023">
        <ele>472.651</ele>
        <time>2021-07-14T06:00:41Z</time>
      </trkpt>
      <trkpt lat="42.779291" lon="-7.411962">
        <ele>470.768</ele>
        <time>2021-07-14T06:00:46Z</time>
      </trkpt>
      <trkpt lat="42.779229" lon="-7.411693">
        <ele>472.648</ele>
        <time>2021-07-14T06:00:55Z</time>
      </trkpt>
      <trkpt lat="42.779183" lon="-7.411656">
        <ele>473.112</ele>
        <time>2021-07-14T06:01:00Z</time>
      </trkpt>
      <trkpt lat="42.779091" lon="-7.411568">
        <ele>472.630</ele>
        <time>2021-07-14T06:01:08Z</time>
      </trkpt>
      <trkpt lat="42.778867" lon="-7.411363">
        <ele>474.087</ele>
        <time>2021-07-14T06:01:15Z</time>
      </trkpt>
      <trkpt lat="42.778612" lon="-7.410960">
        <ele>475.035</ele>
        <time>2021-07-14T06:01:25Z</time>
      </trkpt>
      <trkpt lat="42.778327" lon="-7.410663">
        <ele>473.599</ele>
        <time>2021-07-14T06:01:34Z</time>
      </trkpt>
      <trkpt lat="42.778107" lon="-7.410352">
        <ele>472.607</ele>
        <time>2021-07-14T06:01:42Z</time>
      </trkpt>
      <trkpt lat="42.777808" lon="-7.409913">
        <ele>471.127</ele>
        <time>2021-07-14T06:01:53Z</time>
      </trkpt>
      <trkpt lat="42.777641" lon="-7.409616">
        <ele>470.708</ele>
        <time>2021-07-14T06:02:00Z</time>
      </trkpt>
      <trkpt lat="42.777467" lon="-7.409254">
        <ele>465.966</ele>
        <time>2021-07-14T06:02:08Z</time>
      </trkpt>
      <trkpt lat="42.777251" lon="-7.408838">
        <ele>462.058</ele>
        <time>2021-07-14T06:02:17Z</time>
      </trkpt>
      <trkpt lat="42.777113" lon="-7.408595">
        <ele>460.135</ele>
        <time>2021-07-14T06:02:22Z</time>
      </trkpt>
      <trkpt lat="42.777091" lon="-7.408541">
        <ele>460.195</ele>
        <time>2021-07-14T06:02:23Z</time>
      </trkpt>
      <trkpt lat="42.777066" lon="-7.408488">
        <ele>460.139</ele>
        <time>2021-07-14T06:02:24Z</time>
      </trkpt>
      <trkpt lat="42.777016" lon="-7.408379">
        <ele>459.157</ele>
        <time>2021-07-14T06:02:26Z</time>
      </trkpt>
      <trkpt lat="42.776861" lon="-7.408060">
        <ele>454.394</ele>
        <time>2021-07-14T06:02:32Z</time>
      </trkpt>
      <trkpt lat="42.776698" lon="-7.407830">
        <ele>454.892</ele>
        <time>2021-07-14T06:02:37Z</time>
      </trkpt>
      <trkpt lat="42.776375" lon="-7.407362">
        <ele>452.922</ele>
        <time>2021-07-14T06:02:47Z</time>
      </trkpt>
      <trkpt lat="42.776246" lon="-7.407181">
        <ele>451.962</ele>
        <time>2021-07-14T06:02:51Z</time>
      </trkpt>
      <trkpt lat="42.776224" lon="-7.407128">
        <ele>451.408</ele>
        <time>2021-07-14T06:02:52Z</time>
      </trkpt>
      <trkpt lat="42.776196" lon="-7.407078">
        <ele>451.408</ele>
        <time>2021-07-14T06:02:53Z</time>
      </trkpt>
      <trkpt lat="42.776128" lon="-7.406985">
        <ele>450.589</ele>
        <time>2021-07-14T06:02:55Z</time>
      </trkpt>
      <trkpt lat="42.775781" lon="-7.406504">
        <ele>451.051</ele>
        <time>2021-07-14T06:03:06Z</time>
      </trkpt>
      <trkpt lat="42.775529" lon="-7.406090">
        <ele>450.038</ele>
        <time>2021-07-14T06:03:15Z</time>
      </trkpt>
      <trkpt lat="42.775500" lon="-7.406053">
        <ele>450.078</ele>
        <time>2021-07-14T06:03:16Z</time>
      </trkpt>
      <trkpt lat="42.775433" lon="-7.405918">
        <ele>446.692</ele>
        <time>2021-07-14T06:03:21Z</time>
      </trkpt>
      <trkpt lat="42.775317" lon="-7.405760">
        <ele>446.120</ele>
        <time>2021-07-14T06:03:26Z</time>
      </trkpt>
      <trkpt lat="42.775117" lon="-7.405388">
        <ele>447.127</ele>
        <time>2021-07-14T06:03:35Z</time>
      </trkpt>
      <trkpt lat="42.774860" lon="-7.405034">
        <ele>443.365</ele>
        <time>2021-07-14T06:03:44Z</time>
      </trkpt>
      <trkpt lat="42.774573" lon="-7.404577">
        <ele>440.483</ele>
        <time>2021-07-14T06:03:55Z</time>
      </trkpt>
      <trkpt lat="42.774343" lon="-7.404147">
        <ele>437.025</ele>
        <time>2021-07-14T06:04:05Z</time>
      </trkpt>
      <trkpt lat="42.774174" lon="-7.403652">
        <ele>436.117</ele>
        <time>2021-07-14T06:04:17Z</time>
      </trkpt>
      <trkpt lat="42.774085" lon="-7.403327">
        <ele>435.108</ele>
        <time>2021-07-14T06:04:25Z</time>
      </trkpt>
      <trkpt lat="42.773994" lon="-7.402879">
        <ele>435.145</ele>
        <time>2021-07-14T06:04:36Z</time>
      </trkpt>
      <trkpt lat="42.773909" lon="-7.402535">
        <ele>435.687</ele>
        <time>2021-07-14T06:04:45Z</time>
      </trkpt>
      <trkpt lat="42.773830" lon="-7.402213">
        <ele>436.134</ele>
        <time>2021-07-14T06:04:54Z</time>
      </trkpt>
      <trkpt lat="42.773745" lon="-7.401838">
        <ele>436.154</ele>
        <time>2021-07-14T06:05:05Z</time>
      </trkpt>
      <trkpt lat="42.773656" lon="-7.401487">
        <ele>436.128</ele>
        <time>2021-07-14T06:05:15Z</time>
      </trkpt>
      <trkpt lat="42.773494" lon="-7.401094">
        <ele>436.516</ele>
        <time>2021-07-14T06:05:28Z</time>
      </trkpt>
      <trkpt lat="42.773312" lon="-7.400762">
        <ele>438.033</ele>
        <time>2021-07-14T06:05:40Z</time>
      </trkpt>
      <trkpt lat="42.773162" lon="-7.400519">
        <ele>438.571</ele>
        <time>2021-07-14T06:05:50Z</time>
      </trkpt>
      <trkpt lat="42.772980" lon="-7.400221">
        <ele>440.967</ele>
        <time>2021-07-14T06:06:02Z</time>
      </trkpt>
      <trkpt lat="42.772804" lon="-7.399948">
        <ele>442.881</ele>
        <time>2021-07-14T06:06:13Z</time>
      </trkpt>
      <trkpt lat="42.772677" lon="-7.399760">
        <ele>443.719</ele>
        <time>2021-07-14T06:06:21Z</time>
      </trkpt>
      <trkpt lat="42.772536" lon="-7.399552">
        <ele>444.708</ele>
        <time>2021-07-14T06:06:30Z</time>
      </trkpt>
      <trkpt lat="42.772377" lon="-7.399288">
        <ele>446.673</ele>
        <time>2021-07-14T06:06:41Z</time>
      </trkpt>
      <trkpt lat="42.772200" lon="-7.399023">
        <ele>447.145</ele>
        <time>2021-07-14T06:06:52Z</time>
      </trkpt>
      <trkpt lat="42.772031" lon="-7.398808">
        <ele>447.152</ele>
        <time>2021-07-14T06:07:01Z</time>
      </trkpt>
      <trkpt lat="42.771816" lon="-7.398587">
        <ele>449.032</ele>
        <time>2021-07-14T06:07:12Z</time>
      </trkpt>
      <trkpt lat="42.771614" lon="-7.398477">
        <ele>449.086</ele>
        <time>2021-07-14T06:07:21Z</time>
      </trkpt>
      <trkpt lat="42.771352" lon="-7.398362">
        <ele>450.544</ele>
        <time>2021-07-14T06:07:33Z</time>
      </trkpt>
      <trkpt lat="42.771137" lon="-7.398283">
        <ele>451.471</ele>
        <time>2021-07-14T06:07:43Z</time>
      </trkpt>
      <trkpt lat="42.770871" lon="-7.398192">
        <ele>452.979</ele>
        <time>2021-07-14T06:07:55Z</time>
      </trkpt>
      <trkpt lat="42.770691" lon="-7.398127">
        <ele>452.965</ele>
        <time>2021-07-14T06:08:04Z</time>
      </trkpt>
      <trkpt lat="42.770469" lon="-7.398048">
        <ele>453.868</ele>
        <time>2021-07-14T06:08:14Z</time>
      </trkpt>
      <trkpt lat="42.770264" lon="-7.397978">
        <ele>454.814</ele>
        <time>2021-07-14T06:08:23Z</time>
      </trkpt>
      <trkpt lat="42.770050" lon="-7.397901">
        <ele>455.808</ele>
        <time>2021-07-14T06:08:33Z</time>
      </trkpt>
      <trkpt lat="42.769781" lon="-7.397813">
        <ele>457.283</ele>
        <time>2021-07-14T06:08:45Z</time>
      </trkpt>
      <trkpt lat="42.769541" lon="-7.397737">
        <ele>458.655</ele>
        <time>2021-07-14T06:08:56Z</time>
      </trkpt>
      <trkpt lat="42.769301" lon="-7.397688">
        <ele>460.162</ele>
        <time>2021-07-14T06:09:06Z</time>
      </trkpt>
      <trkpt lat="42.769017" lon="-7.397681">
        <ele>461.522</ele>
        <time>2021-07-14T06:09:18Z</time>
      </trkpt>
      <trkpt lat="42.768766" lon="-7.397746">
        <ele>463.496</ele>
        <time>2021-07-14T06:09:29Z</time>
      </trkpt>
      <trkpt lat="42.768532" lon="-7.397826">
        <ele>463.944</ele>
        <time>2021-07-14T06:09:39Z</time>
      </trkpt>
      <trkpt lat="42.768302" lon="-7.397908">
        <ele>464.481</ele>
        <time>2021-07-14T06:09:49Z</time>
      </trkpt>
      <trkpt lat="42.768082" lon="-7.397989">
        <ele>465.449</ele>
        <time>2021-07-14T06:09:59Z</time>
      </trkpt>
      <trkpt lat="42.767854" lon="-7.398076">
        <ele>466.393</ele>
        <time>2021-07-14T06:10:09Z</time>
      </trkpt>
      <trkpt lat="42.767636" lon="-7.398136">
        <ele>467.365</ele>
        <time>2021-07-14T06:10:19Z</time>
      </trkpt>
      <trkpt lat="42.767391" lon="-7.398142">
        <ele>468.321</ele>
        <time>2021-07-14T06:10:30Z</time>
      </trkpt>
      <trkpt lat="42.767144" lon="-7.398084">
        <ele>470.208</ele>
        <time>2021-07-14T06:10:41Z</time>
      </trkpt>
      <trkpt lat="42.766935" lon="-7.398000">
        <ele>472.196</ele>
        <time>2021-07-14T06:10:52Z</time>
      </trkpt>
      <trkpt lat="42.766774" lon="-7.397889">
        <ele>473.528</ele>
        <time>2021-07-14T06:11:01Z</time>
      </trkpt>
      <trkpt lat="42.766614" lon="-7.397733">
        <ele>474.575</ele>
        <time>2021-07-14T06:11:11Z</time>
      </trkpt>
      <trkpt lat="42.766507" lon="-7.397592">
        <ele>475.565</ele>
        <time>2021-07-14T06:11:19Z</time>
      </trkpt>
      <trkpt lat="42.766395" lon="-7.397418">
        <ele>476.959</ele>
        <time>2021-07-14T06:11:28Z</time>
      </trkpt>
      <trkpt lat="42.766300" lon="-7.397185">
        <ele>480.357</ele>
        <time>2021-07-14T06:11:39Z</time>
      </trkpt>
      <trkpt lat="42.766237" lon="-7.397012">
        <ele>481.294</ele>
        <time>2021-07-14T06:11:47Z</time>
      </trkpt>
      <trkpt lat="42.766177" lon="-7.396801">
        <ele>480.862</ele>
        <time>2021-07-14T06:11:56Z</time>
      </trkpt>
      <trkpt lat="42.766128" lon="-7.396562">
        <ele>482.296</ele>
        <time>2021-07-14T06:12:06Z</time>
      </trkpt>
      <trkpt lat="42.766090" lon="-7.396350">
        <ele>482.731</ele>
        <time>2021-07-14T06:12:15Z</time>
      </trkpt>
      <trkpt lat="42.766056" lon="-7.396070">
        <ele>483.624</ele>
        <time>2021-07-14T06:12:26Z</time>
      </trkpt>
      <trkpt lat="42.766013" lon="-7.395832">
        <ele>485.108</ele>
        <time>2021-07-14T06:12:36Z</time>
      </trkpt>
      <trkpt lat="42.765948" lon="-7.395575">
        <ele>487.076</ele>
        <time>2021-07-14T06:12:47Z</time>
      </trkpt>
      <trkpt lat="42.765878" lon="-7.395353">
        <ele>488.058</ele>
        <time>2021-07-14T06:12:57Z</time>
      </trkpt>
      <trkpt lat="42.765801" lon="-7.395175">
        <ele>489.465</ele>
        <time>2021-07-14T06:13:06Z</time>
      </trkpt>
      <trkpt lat="42.765702" lon="-7.395021">
        <ele>491.385</ele>
        <time>2021-07-14T06:13:15Z</time>
      </trkpt>
      <trkpt lat="42.765568" lon="-7.394894">
        <ele>493.289</ele>
        <time>2021-07-14T06:13:24Z</time>
      </trkpt>
      <trkpt lat="42.765419" lon="-7.394790">
        <ele>494.217</ele>
        <time>2021-07-14T06:13:33Z</time>
      </trkpt>
      <trkpt lat="42.765236" lon="-7.394679">
        <ele>495.284</ele>
        <time>2021-07-14T06:13:43Z</time>
      </trkpt>
      <trkpt lat="42.765037" lon="-7.394571">
        <ele>495.772</ele>
        <time>2021-07-14T06:13:54Z</time>
      </trkpt>
      <trkpt lat="42.764838" lon="-7.394440">
        <ele>496.662</ele>
        <time>2021-07-14T06:14:05Z</time>
      </trkpt>
      <trkpt lat="42.764671" lon="-7.394312">
        <ele>498.183</ele>
        <time>2021-07-14T06:14:15Z</time>
      </trkpt>
      <trkpt lat="42.764494" lon="-7.394155">
        <ele>498.511</ele>
        <time>2021-07-14T06:14:25Z</time>
      </trkpt>
      <trkpt lat="42.764313" lon="-7.393910">
        <ele>499.508</ele>
        <time>2021-07-14T06:14:36Z</time>
      </trkpt>
      <trkpt lat="42.764179" lon="-7.393654">
        <ele>499.033</ele>
        <time>2021-07-14T06:14:46Z</time>
      </trkpt>
      <trkpt lat="42.764057" lon="-7.393343">
        <ele>498.155</ele>
        <time>2021-07-14T06:14:56Z</time>
      </trkpt>
      <trkpt lat="42.763931" lon="-7.392968">
        <ele>497.662</ele>
        <time>2021-07-14T06:15:05Z</time>
      </trkpt>
      <trkpt lat="42.763783" lon="-7.392498">
        <ele>496.112</ele>
        <time>2021-07-14T06:15:12Z</time>
      </trkpt>
      <trkpt lat="42.763583" lon="-7.391831">
        <ele>492.356</ele>
        <time>2021-07-14T06:15:19Z</time>
      </trkpt>
      <trkpt lat="42.763293" lon="-7.390975">
        <ele>488.094</ele>
        <time>2021-07-14T06:15:27Z</time>
      </trkpt>
      <trkpt lat="42.763105" lon="-7.390664">
        <ele>486.011</ele>
        <time>2021-07-14T06:15:30Z</time>
      </trkpt>
      <trkpt lat="42.763028" lon="-7.390581">
        <ele>485.629</ele>
        <time>2021-07-14T06:15:31Z</time>
      </trkpt>
      <trkpt lat="42.762943" lon="-7.390507">
        <ele>484.664</ele>
        <time>2021-07-14T06:15:32Z</time>
      </trkpt>
      <trkpt lat="42.762851" lon="-7.390441">
        <ele>484.106</ele>
        <time>2021-07-14T06:15:33Z</time>
      </trkpt>
      <trkpt lat="42.762751" lon="-7.390387">
        <ele>483.616</ele>
        <time>2021-07-14T06:15:34Z</time>
      </trkpt>
      <trkpt lat="42.762650" lon="-7.390349">
        <ele>482.708</ele>
        <time>2021-07-14T06:15:35Z</time>
      </trkpt>
      <trkpt lat="42.762548" lon="-7.390327">
        <ele>481.733</ele>
        <time>2021-07-14T06:15:36Z</time>
      </trkpt>
      <trkpt lat="42.762440" lon="-7.390319">
        <ele>481.215</ele>
        <time>2021-07-14T06:15:37Z</time>
      </trkpt>
      <trkpt lat="42.762330" lon="-7.390326">
        <ele>480.392</ele>
        <time>2021-07-14T06:15:38Z</time>
      </trkpt>
      <trkpt lat="42.762223" lon="-7.390351">
        <ele>479.882</ele>
        <time>2021-07-14T06:15:39Z</time>
      </trkpt>
      <trkpt lat="42.762119" lon="-7.390390">
        <ele>478.866</ele>
        <time>2021-07-14T06:15:40Z</time>
      </trkpt>
      <trkpt lat="42.762012" lon="-7.390444">
        <ele>478.324</ele>
        <time>2021-07-14T06:15:41Z</time>
      </trkpt>
      <trkpt lat="42.761904" lon="-7.390515">
        <ele>477.411</ele>
        <time>2021-07-14T06:15:42Z</time>
      </trkpt>
      <trkpt lat="42.761808" lon="-7.390594">
        <ele>476.939</ele>
        <time>2021-07-14T06:15:43Z</time>
      </trkpt>
      <trkpt lat="42.761714" lon="-7.390681">
        <ele>475.977</ele>
        <time>2021-07-14T06:15:44Z</time>
      </trkpt>
      <trkpt lat="42.761018" lon="-7.391409">
        <ele>471.661</ele>
        <time>2021-07-14T06:15:52Z</time>
      </trkpt>
      <trkpt lat="42.760673" lon="-7.391700">
        <ele>469.727</ele>
        <time>2021-07-14T06:15:56Z</time>
      </trkpt>
      <trkpt lat="42.760577" lon="-7.391749">
        <ele>469.208</ele>
        <time>2021-07-14T06:15:57Z</time>
      </trkpt>
      <trkpt lat="42.760483" lon="-7.391785">
        <ele>468.774</ele>
        <time>2021-07-14T06:15:58Z</time>
      </trkpt>
      <trkpt lat="42.760387" lon="-7.391809">
        <ele>468.376</ele>
        <time>2021-07-14T06:15:59Z</time>
      </trkpt>
      <trkpt lat="42.760291" lon="-7.391821">
        <ele>467.813</ele>
        <time>2021-07-14T06:16:00Z</time>
      </trkpt>
      <trkpt lat="42.760194" lon="-7.391822">
        <ele>467.353</ele>
        <time>2021-07-14T06:16:01Z</time>
      </trkpt>
      <trkpt lat="42.760094" lon="-7.391810">
        <ele>467.357</ele>
        <time>2021-07-14T06:16:02Z</time>
      </trkpt>
      <trkpt lat="42.760002" lon="-7.391789">
        <ele>466.875</ele>
        <time>2021-07-14T06:16:03Z</time>
      </trkpt>
      <trkpt lat="42.759911" lon="-7.391759">
        <ele>466.862</ele>
        <time>2021-07-14T06:16:04Z</time>
      </trkpt>
      <trkpt lat="42.759823" lon="-7.391718">
        <ele>466.340</ele>
        <time>2021-07-14T06:16:05Z</time>
      </trkpt>
      <trkpt lat="42.759734" lon="-7.391667">
        <ele>466.318</ele>
        <time>2021-07-14T06:16:06Z</time>
      </trkpt>
      <trkpt lat="42.759651" lon="-7.391616">
        <ele>465.998</ele>
        <time>2021-07-14T06:16:07Z</time>
      </trkpt>
      <trkpt lat="42.758695" lon="-7.390991">
        <ele>462.517</ele>
        <time>2021-07-14T06:16:19Z</time>
      </trkpt>
      <trkpt lat="42.758229" lon="-7.390592">
        <ele>461.508</ele>
        <time>2021-07-14T06:16:26Z</time>
      </trkpt>
      <trkpt lat="42.757980" lon="-7.390139">
        <ele>461.088</ele>
        <time>2021-07-14T06:16:32Z</time>
      </trkpt>
      <trkpt lat="42.757956" lon="-7.390060">
        <ele>461.090</ele>
        <time>2021-07-14T06:16:33Z</time>
      </trkpt>
      <trkpt lat="42.757888" lon="-7.389747">
        <ele>461.587</ele>
        <time>2021-07-14T06:16:37Z</time>
      </trkpt>
      <trkpt lat="42.757775" lon="-7.389036">
        <ele>461.527</ele>
        <time>2021-07-14T06:16:47Z</time>
      </trkpt>
      <trkpt lat="42.757606" lon="-7.388563">
        <ele>461.541</ele>
        <time>2021-07-14T06:16:55Z</time>
      </trkpt>
      <trkpt lat="42.757577" lon="-7.388511">
        <ele>461.579</ele>
        <time>2021-07-14T06:16:56Z</time>
      </trkpt>
      <trkpt lat="42.757547" lon="-7.388465">
        <ele>461.016</ele>
        <time>2021-07-14T06:16:57Z</time>
      </trkpt>
      <trkpt lat="42.757273" lon="-7.388144">
        <ele>461.534</ele>
        <time>2021-07-14T06:17:06Z</time>
      </trkpt>
      <trkpt lat="42.756975" lon="-7.387888">
        <ele>461.588</ele>
        <time>2021-07-14T06:17:15Z</time>
      </trkpt>
      <trkpt lat="42.756743" lon="-7.387704">
        <ele>461.024</ele>
        <time>2021-07-14T06:17:22Z</time>
      </trkpt>
      <trkpt lat="42.756242" lon="-7.387280">
        <ele>460.126</ele>
        <time>2021-07-14T06:17:37Z</time>
      </trkpt>
      <trkpt lat="42.755867" lon="-7.386958">
        <ele>459.608</ele>
        <time>2021-07-14T06:17:48Z</time>
      </trkpt>
      <trkpt lat="42.755519" lon="-7.386602">
        <ele>461.065</ele>
        <time>2021-07-14T06:17:59Z</time>
      </trkpt>
      <trkpt lat="42.755329" lon="-7.386213">
        <ele>462.527</ele>
        <time>2021-07-14T06:18:08Z</time>
      </trkpt>
      <trkpt lat="42.755247" lon="-7.385884">
        <ele>461.594</ele>
        <time>2021-07-14T06:18:15Z</time>
      </trkpt>
      <trkpt lat="42.755161" lon="-7.385414">
        <ele>460.154</ele>
        <time>2021-07-14T06:18:23Z</time>
      </trkpt>
      <trkpt lat="42.755089" lon="-7.385048">
        <ele>460.188</ele>
        <time>2021-07-14T06:18:30Z</time>
      </trkpt>
      <trkpt lat="42.755036" lon="-7.384801">
        <ele>460.646</ele>
        <time>2021-07-14T06:18:38Z</time>
      </trkpt>
      <trkpt lat="42.755017" lon="-7.384703">
        <ele>460.633</ele>
        <time>2021-07-14T06:18:43Z</time>
      </trkpt>
      <trkpt lat="42.754995" lon="-7.384615">
        <ele>461.081</ele>
        <time>2021-07-14T06:18:48Z</time>
      </trkpt>
      <trkpt lat="42.754956" lon="-7.384377">
        <ele>462.026</ele>
        <time>2021-07-14T06:19:00Z</time>
      </trkpt>
      <trkpt lat="42.754909" lon="-7.384151">
        <ele>462.047</ele>
        <time>2021-07-14T06:19:10Z</time>
      </trkpt>
      <trkpt lat="42.754864" lon="-7.383978">
        <ele>463.011</ele>
        <time>2021-07-14T06:19:18Z</time>
      </trkpt>
      <trkpt lat="42.754768" lon="-7.383749">
        <ele>463.408</ele>
        <time>2021-07-14T06:19:29Z</time>
      </trkpt>
      <trkpt lat="42.754659" lon="-7.383544">
        <ele>465.439</ele>
        <time>2021-07-14T06:19:39Z</time>
      </trkpt>
      <trkpt lat="42.754516" lon="-7.383355">
        <ele>466.371</ele>
        <time>2021-07-14T06:19:51Z</time>
      </trkpt>
      <trkpt lat="42.754386" lon="-7.383222">
        <ele>467.888</ele>
        <time>2021-07-14T06:20:01Z</time>
      </trkpt>
      <trkpt lat="42.754241" lon="-7.383115">
        <ele>468.778</ele>
        <time>2021-07-14T06:20:11Z</time>
      </trkpt>
      <trkpt lat="42.754090" lon="-7.383031">
        <ele>469.772</ele>
        <time>2021-07-14T06:20:21Z</time>
      </trkpt>
      <trkpt lat="42.753956" lon="-7.382989">
        <ele>471.190</ele>
        <time>2021-07-14T06:20:30Z</time>
      </trkpt>
      <trkpt lat="42.753802" lon="-7.382955">
        <ele>472.167</ele>
        <time>2021-07-14T06:20:40Z</time>
      </trkpt>
      <trkpt lat="42.753683" lon="-7.382959">
        <ele>473.585</ele>
        <time>2021-07-14T06:20:48Z</time>
      </trkpt>
      <trkpt lat="42.753523" lon="-7.382983">
        <ele>474.082</ele>
        <time>2021-07-14T06:20:57Z</time>
      </trkpt>
      <trkpt lat="42.753410" lon="-7.382990">
        <ele>474.543</ele>
        <time>2021-07-14T06:21:06Z</time>
      </trkpt>
      <trkpt lat="42.753334" lon="-7.383013">
        <ele>475.917</ele>
        <time>2021-07-14T06:21:13Z</time>
      </trkpt>
      <trkpt lat="42.753267" lon="-7.383050">
        <ele>477.908</ele>
        <time>2021-07-14T06:21:20Z</time>
      </trkpt>
      <trkpt lat="42.753106" lon="-7.383155">
        <ele>480.345</ele>
        <time>2021-07-14T06:21:31Z</time>
      </trkpt>
      <trkpt lat="42.752985" lon="-7.383242">
        <ele>480.837</ele>
        <time>2021-07-14T06:21:40Z</time>
      </trkpt>
      <trkpt lat="42.752907" lon="-7.383323">
        <ele>482.274</ele>
        <time>2021-07-14T06:21:47Z</time>
      </trkpt>
      <trkpt lat="42.752808" lon="-7.383439">
        <ele>484.194</ele>
        <time>2021-07-14T06:21:56Z</time>
      </trkpt>
      <trkpt lat="42.752686" lon="-7.383613">
        <ele>487.018</ele>
        <time>2021-07-14T06:22:06Z</time>
      </trkpt>
      <trkpt lat="42.752581" lon="-7.383778">
        <ele>488.086</ele>
        <time>2021-07-14T06:22:15Z</time>
      </trkpt>
      <trkpt lat="42.752470" lon="-7.383951">
        <ele>489.473</ele>
        <time>2021-07-14T06:22:26Z</time>
      </trkpt>
      <trkpt lat="42.752413" lon="-7.384034">
        <ele>489.991</ele>
        <time>2021-07-14T06:22:34Z</time>
      </trkpt>
      <trkpt lat="42.752405" lon="-7.384040">
        <ele>490.457</ele>
        <time>2021-07-14T06:22:44Z</time>
      </trkpt>
      <trkpt lat="42.752413" lon="-7.384052">
        <ele>490.400</ele>
        <time>2021-07-14T06:22:56Z</time>
      </trkpt>
      <trkpt lat="42.752397" lon="-7.384037">
        <ele>491.320</ele>
        <time>2021-07-14T06:23:14Z</time>
      </trkpt>
      <trkpt lat="42.752392" lon="-7.384038">
        <ele>492.808</ele>
        <time>2021-07-14T06:23:36Z</time>
      </trkpt>
      <trkpt lat="42.752395" lon="-7.384036">
        <ele>491.882</ele>
        <time>2021-07-14T06:23:55Z</time>
      </trkpt>
      <trkpt lat="42.752405" lon="-7.384047">
        <ele>489.954</ele>
        <time>2021-07-14T06:24:12Z</time>
      </trkpt>
      <trkpt lat="42.752415" lon="-7.384042">
        <ele>488.971</ele>
        <time>2021-07-14T06:24:25Z</time>
      </trkpt>
      <trkpt lat="42.752408" lon="-7.384038">
        <ele>488.451</ele>
        <time>2021-07-14T06:24:29Z</time>
      </trkpt>
      <trkpt lat="42.752368" lon="-7.384060">
        <ele>488.465</ele>
        <time>2021-07-14T06:24:33Z</time>
      </trkpt>
      <trkpt lat="42.752225" lon="-7.384138">
        <ele>489.463</ele>
        <time>2021-07-14T06:24:43Z</time>
      </trkpt>
      <trkpt lat="42.752212" lon="-7.384144">
        <ele>489.480</ele>
        <time>2021-07-14T06:24:44Z</time>
      </trkpt>
      <trkpt lat="42.752083" lon="-7.384149">
        <ele>489.448</ele>
        <time>2021-07-14T06:24:53Z</time>
      </trkpt>
      <trkpt lat="42.751923" lon="-7.384096">
        <ele>489.914</ele>
        <time>2021-07-14T06:25:03Z</time>
      </trkpt>
      <trkpt lat="42.751760" lon="-7.383984">
        <ele>490.854</ele>
        <time>2021-07-14T06:25:13Z</time>
      </trkpt>
      <trkpt lat="42.751624" lon="-7.383817">
        <ele>491.309</ele>
        <time>2021-07-14T06:25:23Z</time>
      </trkpt>
      <trkpt lat="42.751496" lon="-7.383669">
        <ele>492.808</ele>
        <time>2021-07-14T06:25:32Z</time>
      </trkpt>
      <trkpt lat="42.751345" lon="-7.383513">
        <ele>493.738</ele>
        <time>2021-07-14T06:25:42Z</time>
      </trkpt>
      <trkpt lat="42.751161" lon="-7.383390">
        <ele>495.740</ele>
        <time>2021-07-14T06:25:53Z</time>
      </trkpt>
      <trkpt lat="42.751034" lon="-7.383324">
        <ele>496.687</ele>
        <time>2021-07-14T06:26:01Z</time>
      </trkpt>
      <trkpt lat="42.750886" lon="-7.383261">
        <ele>498.147</ele>
        <time>2021-07-14T06:26:10Z</time>
      </trkpt>
      <trkpt lat="42.750682" lon="-7.383181">
        <ele>499.011</ele>
        <time>2021-07-14T06:26:22Z</time>
      </trkpt>
      <trkpt lat="42.750508" lon="-7.383111">
        <ele>500.099</ele>
        <time>2021-07-14T06:26:32Z</time>
      </trkpt>
      <trkpt lat="42.750324" lon="-7.383039">
        <ele>500.916</ele>
        <time>2021-07-14T06:26:43Z</time>
      </trkpt>
      <trkpt lat="42.750175" lon="-7.382971">
        <ele>501.944</ele>
        <time>2021-07-14T06:26:52Z</time>
      </trkpt>
      <trkpt lat="42.750011" lon="-7.382893">
        <ele>502.428</ele>
        <time>2021-07-14T06:27:02Z</time>
      </trkpt>
      <trkpt lat="42.749903" lon="-7.382827">
        <ele>502.989</ele>
        <time>2021-07-14T06:27:09Z</time>
      </trkpt>
      <trkpt lat="42.749776" lon="-7.382714">
        <ele>503.817</ele>
        <time>2021-07-14T06:27:18Z</time>
      </trkpt>
      <trkpt lat="42.749623" lon="-7.382528">
        <ele>505.708</ele>
        <time>2021-07-14T06:27:30Z</time>
      </trkpt>
      <trkpt lat="42.749515" lon="-7.382356">
        <ele>508.659</ele>
        <time>2021-07-14T06:27:40Z</time>
      </trkpt>
      <trkpt lat="42.749427" lon="-7.382146">
        <ele>510.671</ele>
        <time>2021-07-14T06:27:51Z</time>
      </trkpt>
      <trkpt lat="42.749370" lon="-7.381963">
        <ele>512.018</ele>
        <time>2021-07-14T06:28:00Z</time>
      </trkpt>
      <trkpt lat="42.749330" lon="-7.381799">
        <ele>514.458</ele>
        <time>2021-07-14T06:28:08Z</time>
      </trkpt>
      <trkpt lat="42.749305" lon="-7.381656">
        <ele>515.862</ele>
        <time>2021-07-14T06:28:15Z</time>
      </trkpt>
      <trkpt lat="42.749287" lon="-7.381464">
        <ele>518.220</ele>
        <time>2021-07-14T06:28:24Z</time>
      </trkpt>
      <trkpt lat="42.749272" lon="-7.381298">
        <ele>519.287</ele>
        <time>2021-07-14T06:28:32Z</time>
      </trkpt>
      <trkpt lat="42.749263" lon="-7.381104">
        <ele>520.295</ele>
        <time>2021-07-14T06:28:41Z</time>
      </trkpt>
      <trkpt lat="42.749278" lon="-7.380911">
        <ele>521.637</ele>
        <time>2021-07-14T06:28:50Z</time>
      </trkpt>
      <trkpt lat="42.749292" lon="-7.380731">
        <ele>523.049</ele>
        <time>2021-07-14T06:28:59Z</time>
      </trkpt>
      <trkpt lat="42.749334" lon="-7.380460">
        <ele>525.013</ele>
        <time>2021-07-14T06:29:11Z</time>
      </trkpt>
      <trkpt lat="42.749365" lon="-7.380293">
        <ele>526.908</ele>
        <time>2021-07-14T06:29:19Z</time>
      </trkpt>
      <trkpt lat="42.749375" lon="-7.380255">
        <ele>527.430</ele>
        <time>2021-07-14T06:29:21Z</time>
      </trkpt>
      <trkpt lat="42.749417" lon="-7.380058">
        <ele>528.812</ele>
        <time>2021-07-14T06:29:31Z</time>
      </trkpt>
      <trkpt lat="42.749456" lon="-7.379855">
        <ele>530.379</ele>
        <time>2021-07-14T06:29:41Z</time>
      </trkpt>
      <trkpt lat="42.749514" lon="-7.379653">
        <ele>531.729</ele>
        <time>2021-07-14T06:29:51Z</time>
      </trkpt>
      <trkpt lat="42.749569" lon="-7.379471">
        <ele>533.173</ele>
        <time>2021-07-14T06:30:00Z</time>
      </trkpt>
      <trkpt lat="42.749628" lon="-7.379264">
        <ele>534.641</ele>
        <time>2021-07-14T06:30:09Z</time>
      </trkpt>
      <trkpt lat="42.749688" lon="-7.379010">
        <ele>535.128</ele>
        <time>2021-07-14T06:30:19Z</time>
      </trkpt>
      <trkpt lat="42.749758" lon="-7.378736">
        <ele>536.096</ele>
        <time>2021-07-14T06:30:30Z</time>
      </trkpt>
      <trkpt lat="42.749819" lon="-7.378453">
        <ele>536.551</ele>
        <time>2021-07-14T06:30:41Z</time>
      </trkpt>
      <trkpt lat="42.749869" lon="-7.378230">
        <ele>537.501</ele>
        <time>2021-07-14T06:30:50Z</time>
      </trkpt>
      <trkpt lat="42.749927" lon="-7.377979">
        <ele>537.511</ele>
        <time>2021-07-14T06:31:00Z</time>
      </trkpt>
      <trkpt lat="42.749944" lon="-7.377872">
        <ele>537.908</ele>
        <time>2021-07-14T06:31:07Z</time>
      </trkpt>
      <trkpt lat="42.749938" lon="-7.377865">
        <ele>537.932</ele>
        <time>2021-07-14T06:31:21Z</time>
      </trkpt>
      <trkpt lat="42.749961" lon="-7.377810">
        <ele>537.564</ele>
        <time>2021-07-14T06:31:35Z</time>
      </trkpt>
      <trkpt lat="42.750036" lon="-7.377505">
        <ele>538.451</ele>
        <time>2021-07-14T06:31:46Z</time>
      </trkpt>
      <trkpt lat="42.750080" lon="-7.377184">
        <ele>538.951</ele>
        <time>2021-07-14T06:31:57Z</time>
      </trkpt>
      <trkpt lat="42.750062" lon="-7.376857">
        <ele>539.975</ele>
        <time>2021-07-14T06:32:08Z</time>
      </trkpt>
      <trkpt lat="42.750013" lon="-7.376562">
        <ele>540.453</ele>
        <time>2021-07-14T06:32:18Z</time>
      </trkpt>
      <trkpt lat="42.749897" lon="-7.376316">
        <ele>541.860</ele>
        <time>2021-07-14T06:32:29Z</time>
      </trkpt>
      <trkpt lat="42.749793" lon="-7.376140">
        <ele>543.778</ele>
        <time>2021-07-14T06:32:38Z</time>
      </trkpt>
      <trkpt lat="42.749760" lon="-7.376061">
        <ele>544.236</ele>
        <time>2021-07-14T06:32:42Z</time>
      </trkpt>
      <trkpt lat="42.749751" lon="-7.376050">
        <ele>545.217</ele>
        <time>2021-07-14T06:32:49Z</time>
      </trkpt>
      <trkpt lat="42.749740" lon="-7.376046">
        <ele>546.618</ele>
        <time>2021-07-14T06:33:05Z</time>
      </trkpt>
      <trkpt lat="42.749752" lon="-7.376060">
        <ele>545.208</ele>
        <time>2021-07-14T06:33:22Z</time>
      </trkpt>
      <trkpt lat="42.749749" lon="-7.376083">
        <ele>545.250</ele>
        <time>2021-07-14T06:33:38Z</time>
      </trkpt>
      <trkpt lat="42.749747" lon="-7.376028">
        <ele>545.242</ele>
        <time>2021-07-14T06:33:46Z</time>
      </trkpt>
      <trkpt lat="42.749748" lon="-7.376011">
        <ele>545.289</ele>
        <time>2021-07-14T06:33:47Z</time>
      </trkpt>
      <trkpt lat="42.749744" lon="-7.375998">
        <ele>545.299</ele>
        <time>2021-07-14T06:33:48Z</time>
      </trkpt>
      <trkpt lat="42.749709" lon="-7.375921">
        <ele>545.643</ele>
        <time>2021-07-14T06:33:54Z</time>
      </trkpt>
      <trkpt lat="42.749704" lon="-7.375907">
        <ele>546.191</ele>
        <time>2021-07-14T06:33:55Z</time>
      </trkpt>
      <trkpt lat="42.749695" lon="-7.375893">
        <ele>546.178</ele>
        <time>2021-07-14T06:33:56Z</time>
      </trkpt>
      <trkpt lat="42.749686" lon="-7.375881">
        <ele>546.196</ele>
        <time>2021-07-14T06:33:57Z</time>
      </trkpt>
      <trkpt lat="42.749676" lon="-7.375868">
        <ele>546.646</ele>
        <time>2021-07-14T06:33:58Z</time>
      </trkpt>
      <trkpt lat="42.749665" lon="-7.375851">
        <ele>546.688</ele>
        <time>2021-07-14T06:33:59Z</time>
      </trkpt>
      <trkpt lat="42.749580" lon="-7.375689">
        <ele>547.116</ele>
        <time>2021-07-14T06:34:08Z</time>
      </trkpt>
      <trkpt lat="42.749485" lon="-7.375501">
        <ele>549.008</ele>
        <time>2021-07-14T06:34:18Z</time>
      </trkpt>
      <trkpt lat="42.749397" lon="-7.375324">
        <ele>549.541</ele>
        <time>2021-07-14T06:34:27Z</time>
      </trkpt>
      <trkpt lat="42.749338" lon="-7.375205">
        <ele>550.453</ele>
        <time>2021-07-14T06:34:34Z</time>
      </trkpt>
      <trkpt lat="42.749273" lon="-7.375077">
        <ele>551.450</ele>
        <time>2021-07-14T06:34:41Z</time>
      </trkpt>
      <trkpt lat="42.749190" lon="-7.374905">
        <ele>552.470</ele>
        <time>2021-07-14T06:34:50Z</time>
      </trkpt>
      <trkpt lat="42.749079" lon="-7.374685">
        <ele>553.844</ele>
        <time>2021-07-14T06:35:02Z</time>
      </trkpt>
      <trkpt lat="42.748974" lon="-7.374475">
        <ele>554.842</ele>
        <time>2021-07-14T06:35:13Z</time>
      </trkpt>
      <trkpt lat="42.748889" lon="-7.374320">
        <ele>555.789</ele>
        <time>2021-07-14T06:35:22Z</time>
      </trkpt>
      <trkpt lat="42.748782" lon="-7.374120">
        <ele>556.787</ele>
        <time>2021-07-14T06:35:32Z</time>
      </trkpt>
      <trkpt lat="42.748663" lon="-7.373913">
        <ele>558.679</ele>
        <time>2021-07-14T06:35:43Z</time>
      </trkpt>
      <trkpt lat="42.748652" lon="-7.373900">
        <ele>558.605</ele>
        <time>2021-07-14T06:35:44Z</time>
      </trkpt>
      <trkpt lat="42.748641" lon="-7.373884">
        <ele>559.125</ele>
        <time>2021-07-14T06:35:45Z</time>
      </trkpt>
      <trkpt lat="42.748503" lon="-7.373672">
        <ele>560.508</ele>
        <time>2021-07-14T06:35:57Z</time>
      </trkpt>
      <trkpt lat="42.748396" lon="-7.373521">
        <ele>562.024</ele>
        <time>2021-07-14T06:36:06Z</time>
      </trkpt>
      <trkpt lat="42.748242" lon="-7.373387">
        <ele>562.996</ele>
        <time>2021-07-14T06:36:16Z</time>
      </trkpt>
      <trkpt lat="42.748092" lon="-7.373287">
        <ele>563.423</ele>
        <time>2021-07-14T06:36:26Z</time>
      </trkpt>
      <trkpt lat="42.747934" lon="-7.373238">
        <ele>564.943</ele>
        <time>2021-07-14T06:36:35Z</time>
      </trkpt>
      <trkpt lat="42.747766" lon="-7.373216">
        <ele>565.367</ele>
        <time>2021-07-14T06:36:45Z</time>
      </trkpt>
      <trkpt lat="42.747633" lon="-7.373244">
        <ele>566.865</ele>
        <time>2021-07-14T06:36:54Z</time>
      </trkpt>
      <trkpt lat="42.747522" lon="-7.373282">
        <ele>566.852</ele>
        <time>2021-07-14T06:37:02Z</time>
      </trkpt>
      <trkpt lat="42.747356" lon="-7.373339">
        <ele>567.320</ele>
        <time>2021-07-14T06:37:12Z</time>
      </trkpt>
      <trkpt lat="42.747249" lon="-7.373364">
        <ele>568.224</ele>
        <time>2021-07-14T06:37:19Z</time>
      </trkpt>
      <trkpt lat="42.747064" lon="-7.373429">
        <ele>569.704</ele>
        <time>2021-07-14T06:37:30Z</time>
      </trkpt>
      <trkpt lat="42.746916" lon="-7.373485">
        <ele>571.614</ele>
        <time>2021-07-14T06:37:39Z</time>
      </trkpt>
      <trkpt lat="42.746789" lon="-7.373528">
        <ele>571.608</ele>
        <time>2021-07-14T06:37:47Z</time>
      </trkpt>
      <trkpt lat="42.746771" lon="-7.373535">
        <ele>571.639</ele>
        <time>2021-07-14T06:37:48Z</time>
      </trkpt>
      <trkpt lat="42.746755" lon="-7.373534">
        <ele>572.131</ele>
        <time>2021-07-14T06:37:49Z</time>
      </trkpt>
      <trkpt lat="42.746737" lon="-7.373533">
        <ele>572.168</ele>
        <time>2021-07-14T06:37:50Z</time>
      </trkpt>
      <trkpt lat="42.746719" lon="-7.373533">
        <ele>572.148</ele>
        <time>2021-07-14T06:37:51Z</time>
      </trkpt>
      <trkpt lat="42.746502" lon="-7.373519">
        <ele>573.552</ele>
        <time>2021-07-14T06:38:03Z</time>
      </trkpt>
      <trkpt lat="42.746265" lon="-7.373442">
        <ele>574.520</ele>
        <time>2021-07-14T06:38:16Z</time>
      </trkpt>
      <trkpt lat="42.746066" lon="-7.373341">
        <ele>575.487</ele>
        <time>2021-07-14T06:38:27Z</time>
      </trkpt>
      <trkpt lat="42.745885" lon="-7.373247">
        <ele>576.455</ele>
        <time>2021-07-14T06:38:37Z</time>
      </trkpt>
      <trkpt lat="42.745702" lon="-7.373152">
        <ele>578.381</ele>
        <time>2021-07-14T06:38:48Z</time>
      </trkpt>
      <trkpt lat="42.745521" lon="-7.373059">
        <ele>578.861</ele>
        <time>2021-07-14T06:38:59Z</time>
      </trkpt>
      <trkpt lat="42.745359" lon="-7.372983">
        <ele>580.217</ele>
        <time>2021-07-14T06:39:09Z</time>
      </trkpt>
      <trkpt lat="42.745171" lon="-7.372890">
        <ele>582.208</ele>
        <time>2021-07-14T06:39:20Z</time>
      </trkpt>
      <trkpt lat="42.745001" lon="-7.372803">
        <ele>583.155</ele>
        <time>2021-07-14T06:39:30Z</time>
      </trkpt>
      <trkpt lat="42.744817" lon="-7.372700">
        <ele>584.187</ele>
        <time>2021-07-14T06:39:41Z</time>
      </trkpt>
      <trkpt lat="42.744639" lon="-7.372612">
        <ele>585.514</ele>
        <time>2021-07-14T06:39:52Z</time>
      </trkpt>
      <trkpt lat="42.744507" lon="-7.372555">
        <ele>586.584</ele>
        <time>2021-07-14T06:40:00Z</time>
      </trkpt>
      <trkpt lat="42.744337" lon="-7.372463">
        <ele>588.938</ele>
        <time>2021-07-14T06:40:10Z</time>
      </trkpt>
      <trkpt lat="42.744201" lon="-7.372397">
        <ele>589.976</ele>
        <time>2021-07-14T06:40:18Z</time>
      </trkpt>
      <trkpt lat="42.743994" lon="-7.372299">
        <ele>591.833</ele>
        <time>2021-07-14T06:40:30Z</time>
      </trkpt>
      <trkpt lat="42.743830" lon="-7.372208">
        <ele>593.291</ele>
        <time>2021-07-14T06:40:40Z</time>
      </trkpt>
      <trkpt lat="42.743697" lon="-7.372142">
        <ele>594.284</ele>
        <time>2021-07-14T06:40:48Z</time>
      </trkpt>
      <trkpt lat="42.743500" lon="-7.372030">
        <ele>595.607</ele>
        <time>2021-07-14T06:41:00Z</time>
      </trkpt>
      <trkpt lat="42.743350" lon="-7.371954">
        <ele>596.617</ele>
        <time>2021-07-14T06:41:09Z</time>
      </trkpt>
      <trkpt lat="42.743116" lon="-7.371831">
        <ele>598.008</ele>
        <time>2021-07-14T06:41:22Z</time>
      </trkpt>
      <trkpt lat="42.742950" lon="-7.371747">
        <ele>599.025</ele>
        <time>2021-07-14T06:41:31Z</time>
      </trkpt>
      <trkpt lat="42.742806" lon="-7.371670">
        <ele>599.047</ele>
        <time>2021-07-14T06:41:39Z</time>
      </trkpt>
      <trkpt lat="42.742604" lon="-7.371563">
        <ele>599.564</ele>
        <time>2021-07-14T06:41:50Z</time>
      </trkpt>
      <trkpt lat="42.742388" lon="-7.371453">
        <ele>599.534</ele>
        <time>2021-07-14T06:42:02Z</time>
      </trkpt>
      <trkpt lat="42.742210" lon="-7.371360">
        <ele>600.098</ele>
        <time>2021-07-14T06:42:11Z</time>
      </trkpt>
      <trkpt lat="42.741985" lon="-7.371251">
        <ele>600.076</ele>
        <time>2021-07-14T06:42:21Z</time>
      </trkpt>
      <trkpt lat="42.741740" lon="-7.371126">
        <ele>600.033</ele>
        <time>2021-07-14T06:42:31Z</time>
      </trkpt>
      <trkpt lat="42.741485" lon="-7.371001">
        <ele>599.511</ele>
        <time>2021-07-14T06:42:41Z</time>
      </trkpt>
      <trkpt lat="42.741177" lon="-7.370841">
        <ele>599.544</ele>
        <time>2021-07-14T06:42:53Z</time>
      </trkpt>
      <trkpt lat="42.740971" lon="-7.370728">
        <ele>599.505</ele>
        <time>2021-07-14T06:43:01Z</time>
      </trkpt>
      <trkpt lat="42.740673" lon="-7.370532">
        <ele>599.515</ele>
        <time>2021-07-14T06:43:12Z</time>
      </trkpt>
      <trkpt lat="42.740402" lon="-7.370274">
        <ele>598.008</ele>
        <time>2021-07-14T06:43:21Z</time>
      </trkpt>
      <trkpt lat="42.740158" lon="-7.369935">
        <ele>596.641</ele>
        <time>2021-07-14T06:43:28Z</time>
      </trkpt>
      <trkpt lat="42.739841" lon="-7.369345">
        <ele>595.143</ele>
        <time>2021-07-14T06:43:36Z</time>
      </trkpt>
      <trkpt lat="42.739391" lon="-7.368464">
        <ele>592.320</ele>
        <time>2021-07-14T06:43:46Z</time>
      </trkpt>
      <trkpt lat="42.738998" lon="-7.367942">
        <ele>591.360</ele>
        <time>2021-07-14T06:43:53Z</time>
      </trkpt>
      <trkpt lat="42.738526" lon="-7.367462">
        <ele>591.874</ele>
        <time>2021-07-14T06:44:02Z</time>
      </trkpt>
      <trkpt lat="42.738102" lon="-7.367033">
        <ele>592.332</ele>
        <time>2021-07-14T06:44:12Z</time>
      </trkpt>
      <trkpt lat="42.737809" lon="-7.366740">
        <ele>592.769</ele>
        <time>2021-07-14T06:44:21Z</time>
      </trkpt>
      <trkpt lat="42.737520" lon="-7.366446">
        <ele>593.247</ele>
        <time>2021-07-14T06:44:32Z</time>
      </trkpt>
      <trkpt lat="42.737192" lon="-7.366112">
        <ele>592.729</ele>
        <time>2021-07-14T06:44:43Z</time>
      </trkpt>
      <trkpt lat="42.736870" lon="-7.365784">
        <ele>590.800</ele>
        <time>2021-07-14T06:44:50Z</time>
      </trkpt>
      <trkpt lat="42.736462" lon="-7.365369">
        <ele>587.920</ele>
        <time>2021-07-14T06:44:57Z</time>
      </trkpt>
      <trkpt lat="42.735848" lon="-7.364721">
        <ele>585.508</ele>
        <time>2021-07-14T06:45:07Z</time>
      </trkpt>
      <trkpt lat="42.735469" lon="-7.364255">
        <ele>585.149</ele>
        <time>2021-07-14T06:45:15Z</time>
      </trkpt>
      <trkpt lat="42.735151" lon="-7.363764">
        <ele>584.171</ele>
        <time>2021-07-14T06:45:24Z</time>
      </trkpt>
      <trkpt lat="42.734869" lon="-7.363335">
        <ele>584.668</ele>
        <time>2021-07-14T06:45:33Z</time>
      </trkpt>
      <trkpt lat="42.734625" lon="-7.362947">
        <ele>584.668</ele>
        <time>2021-07-14T06:45:42Z</time>
      </trkpt>
      <trkpt lat="42.734516" lon="-7.362769">
        <ele>584.662</ele>
        <time>2021-07-14T06:45:48Z</time>
      </trkpt>
      <trkpt lat="42.734450" lon="-7.362640">
        <ele>584.630</ele>
        <time>2021-07-14T06:45:54Z</time>
      </trkpt>
      <trkpt lat="42.734452" lon="-7.362643">
        <ele>583.137</ele>
        <time>2021-07-14T06:46:11Z</time>
      </trkpt>
      <trkpt lat="42.734422" lon="-7.362541">
        <ele>582.735</ele>
        <time>2021-07-14T06:46:18Z</time>
      </trkpt>
      <trkpt lat="42.734339" lon="-7.362377">
        <ele>582.729</ele>
        <time>2021-07-14T06:46:27Z</time>
      </trkpt>
      <trkpt lat="42.734267" lon="-7.362171">
        <ele>582.200</ele>
        <time>2021-07-14T06:46:36Z</time>
      </trkpt>
      <trkpt lat="42.734203" lon="-7.361964">
        <ele>582.220</ele>
        <time>2021-07-14T06:46:46Z</time>
      </trkpt>
      <trkpt lat="42.734151" lon="-7.361713">
        <ele>581.708</ele>
        <time>2021-07-14T06:46:56Z</time>
      </trkpt>
      <trkpt lat="42.734134" lon="-7.361497">
        <ele>581.729</ele>
        <time>2021-07-14T06:47:04Z</time>
      </trkpt>
      <trkpt lat="42.734108" lon="-7.361273">
        <ele>581.741</ele>
        <time>2021-07-14T06:47:11Z</time>
      </trkpt>
      <trkpt lat="42.734109" lon="-7.360846">
        <ele>581.778</ele>
        <time>2021-07-14T06:47:20Z</time>
      </trkpt>
      <trkpt lat="42.734150" lon="-7.360390">
        <ele>581.778</ele>
        <time>2021-07-14T06:47:29Z</time>
      </trkpt>
      <trkpt lat="42.734231" lon="-7.359804">
        <ele>582.752</ele>
        <time>2021-07-14T06:47:40Z</time>
      </trkpt>
      <trkpt lat="42.734389" lon="-7.359273">
        <ele>583.660</ele>
        <time>2021-07-14T06:47:50Z</time>
      </trkpt>
      <trkpt lat="42.734660" lon="-7.358541">
        <ele>583.697</ele>
        <time>2021-07-14T06:48:04Z</time>
      </trkpt>
      <trkpt lat="42.734735" lon="-7.358065">
        <ele>583.125</ele>
        <time>2021-07-14T06:48:13Z</time>
      </trkpt>
      <trkpt lat="42.734727" lon="-7.357682">
        <ele>582.246</ele>
        <time>2021-07-14T06:48:20Z</time>
      </trkpt>
      <trkpt lat="42.734686" lon="-7.357384">
        <ele>580.788</ele>
        <time>2021-07-14T06:48:27Z</time>
      </trkpt>
      <trkpt lat="42.734674" lon="-7.357389">
        <ele>580.716</ele>
        <time>2021-07-14T06:48:36Z</time>
      </trkpt>
      <trkpt lat="42.734703" lon="-7.357383">
        <ele>579.808</ele>
        <time>2021-07-14T06:48:56Z</time>
      </trkpt>
      <trkpt lat="42.734699" lon="-7.357378">
        <ele>580.741</ele>
        <time>2021-07-14T06:49:09Z</time>
      </trkpt>
      <trkpt lat="42.734697" lon="-7.357362">
        <ele>581.243</ele>
        <time>2021-07-14T06:49:23Z</time>
      </trkpt>
      <trkpt lat="42.734698" lon="-7.357342">
        <ele>581.280</ele>
        <time>2021-07-14T06:49:24Z</time>
      </trkpt>
      <trkpt lat="42.734697" lon="-7.357324">
        <ele>581.220</ele>
        <time>2021-07-14T06:49:25Z</time>
      </trkpt>
      <trkpt lat="42.734694" lon="-7.357307">
        <ele>581.234</ele>
        <time>2021-07-14T06:49:26Z</time>
      </trkpt>
      <trkpt lat="42.734688" lon="-7.357288">
        <ele>581.292</ele>
        <time>2021-07-14T06:49:27Z</time>
      </trkpt>
      <trkpt lat="42.734681" lon="-7.357264">
        <ele>580.729</ele>
        <time>2021-07-14T06:49:28Z</time>
      </trkpt>
      <trkpt lat="42.734676" lon="-7.357237">
        <ele>580.717</ele>
        <time>2021-07-14T06:49:29Z</time>
      </trkpt>
      <trkpt lat="42.734631" lon="-7.356959">
        <ele>579.398</ele>
        <time>2021-07-14T06:49:36Z</time>
      </trkpt>
      <trkpt lat="42.734588" lon="-7.356729">
        <ele>577.415</ele>
        <time>2021-07-14T06:49:41Z</time>
      </trkpt>
      <trkpt lat="42.734502" lon="-7.356290">
        <ele>575.026</ele>
        <time>2021-07-14T06:49:47Z</time>
      </trkpt>
      <trkpt lat="42.734273" lon="-7.355743">
        <ele>571.608</ele>
        <time>2021-07-14T06:49:53Z</time>
      </trkpt>
      <trkpt lat="42.733894" lon="-7.355252">
        <ele>569.246</ele>
        <time>2021-07-14T06:49:59Z</time>
      </trkpt>
      <trkpt lat="42.733174" lon="-7.354404">
        <ele>564.468</ele>
        <time>2021-07-14T06:50:09Z</time>
      </trkpt>
      <trkpt lat="42.732841" lon="-7.353892">
        <ele>561.535</ele>
        <time>2021-07-14T06:50:14Z</time>
      </trkpt>
      <trkpt lat="42.732791" lon="-7.353764">
        <ele>560.525</ele>
        <time>2021-07-14T06:50:15Z</time>
      </trkpt>
      <trkpt lat="42.732742" lon="-7.353610">
        <ele>560.139</ele>
        <time>2021-07-14T06:50:16Z</time>
      </trkpt>
      <trkpt lat="42.732681" lon="-7.353365">
        <ele>558.657</ele>
        <time>2021-07-14T06:50:18Z</time>
      </trkpt>
      <trkpt lat="42.732662" lon="-7.353232">
        <ele>557.774</ele>
        <time>2021-07-14T06:50:19Z</time>
      </trkpt>
      <trkpt lat="42.732652" lon="-7.353090">
        <ele>556.782</ele>
        <time>2021-07-14T06:50:20Z</time>
      </trkpt>
      <trkpt lat="42.732580" lon="-7.351988">
        <ele>548.586</ele>
        <time>2021-07-14T06:50:27Z</time>
      </trkpt>
      <trkpt lat="42.732546" lon="-7.351815">
        <ele>547.160</ele>
        <time>2021-07-14T06:50:28Z</time>
      </trkpt>
      <trkpt lat="42.732502" lon="-7.351659">
        <ele>546.126</ele>
        <time>2021-07-14T06:50:29Z</time>
      </trkpt>
      <trkpt lat="42.732445" lon="-7.351504">
        <ele>545.208</ele>
        <time>2021-07-14T06:50:30Z</time>
      </trkpt>
      <trkpt lat="42.732377" lon="-7.351358">
        <ele>543.765</ele>
        <time>2021-07-14T06:50:31Z</time>
      </trkpt>
      <trkpt lat="42.732293" lon="-7.351215">
        <ele>542.817</ele>
        <time>2021-07-14T06:50:32Z</time>
      </trkpt>
      <trkpt lat="42.732209" lon="-7.351098">
        <ele>541.834</ele>
        <time>2021-07-14T06:50:33Z</time>
      </trkpt>
      <trkpt lat="42.732111" lon="-7.350988">
        <ele>540.874</ele>
        <time>2021-07-14T06:50:34Z</time>
      </trkpt>
      <trkpt lat="42.732005" lon="-7.350891">
        <ele>539.938</ele>
        <time>2021-07-14T06:50:35Z</time>
      </trkpt>
      <trkpt lat="42.731889" lon="-7.350803">
        <ele>538.426</ele>
        <time>2021-07-14T06:50:36Z</time>
      </trkpt>
      <trkpt lat="42.731765" lon="-7.350732">
        <ele>537.063</ele>
        <time>2021-07-14T06:50:37Z</time>
      </trkpt>
      <trkpt lat="42.731618" lon="-7.350661">
        <ele>535.151</ele>
        <time>2021-07-14T06:50:38Z</time>
      </trkpt>
      <trkpt lat="42.730863" lon="-7.350423">
        <ele>527.981</ele>
        <time>2021-07-14T06:50:44Z</time>
      </trkpt>
      <trkpt lat="42.729823" lon="-7.350195">
        <ele>520.661</ele>
        <time>2021-07-14T06:50:52Z</time>
      </trkpt>
      <trkpt lat="42.729707" lon="-7.350130">
        <ele>519.717</ele>
        <time>2021-07-14T06:50:53Z</time>
      </trkpt>
      <trkpt lat="42.729602" lon="-7.350049">
        <ele>519.208</ele>
        <time>2021-07-14T06:50:54Z</time>
      </trkpt>
      <trkpt lat="42.729505" lon="-7.349953">
        <ele>518.255</ele>
        <time>2021-07-14T06:50:55Z</time>
      </trkpt>
      <trkpt lat="42.729417" lon="-7.349843">
        <ele>517.827</ele>
        <time>2021-07-14T06:50:56Z</time>
      </trkpt>
      <trkpt lat="42.729333" lon="-7.349710">
        <ele>516.884</ele>
        <time>2021-07-14T06:50:57Z</time>
      </trkpt>
      <trkpt lat="42.729267" lon="-7.349583">
        <ele>516.334</ele>
        <time>2021-07-14T06:50:58Z</time>
      </trkpt>
      <trkpt lat="42.729210" lon="-7.349447">
        <ele>515.468</ele>
        <time>2021-07-14T06:50:59Z</time>
      </trkpt>
      <trkpt lat="42.729166" lon="-7.349317">
        <ele>514.996</ele>
        <time>2021-07-14T06:51:00Z</time>
      </trkpt>
      <trkpt lat="42.729122" lon="-7.349174">
        <ele>514.453</ele>
        <time>2021-07-14T06:51:01Z</time>
      </trkpt>
      <trkpt lat="42.728871" lon="-7.348393">
        <ele>512.051</ele>
        <time>2021-07-14T06:51:07Z</time>
      </trkpt>
      <trkpt lat="42.728667" lon="-7.347807">
        <ele>513.031</ele>
        <time>2021-07-14T06:51:13Z</time>
      </trkpt>
      <trkpt lat="42.728473" lon="-7.347444">
        <ele>514.461</ele>
        <time>2021-07-14T06:51:19Z</time>
      </trkpt>
      <trkpt lat="42.728285" lon="-7.347204">
        <ele>515.807</ele>
        <time>2021-07-14T06:51:27Z</time>
      </trkpt>
      <trkpt lat="42.728100" lon="-7.346997">
        <ele>516.308</ele>
        <time>2021-07-14T06:51:36Z</time>
      </trkpt>
      <trkpt lat="42.727975" lon="-7.346863">
        <ele>516.830</ele>
        <time>2021-07-14T06:51:46Z</time>
      </trkpt>
      <trkpt lat="42.727973" lon="-7.346867">
        <ele>519.782</ele>
        <time>2021-07-14T06:52:01Z</time>
      </trkpt>
      <trkpt lat="42.727913" lon="-7.346803">
        <ele>520.249</ele>
        <time>2021-07-14T06:52:06Z</time>
      </trkpt>
      <trkpt lat="42.727708" lon="-7.346572">
        <ele>521.189</ele>
        <time>2021-07-14T06:52:14Z</time>
      </trkpt>
      <trkpt lat="42.727508" lon="-7.346337">
        <ele>522.193</ele>
        <time>2021-07-14T06:52:21Z</time>
      </trkpt>
      <trkpt lat="42.727285" lon="-7.346023">
        <ele>520.231</ele>
        <time>2021-07-14T06:52:31Z</time>
      </trkpt>
      <trkpt lat="42.727115" lon="-7.345678">
        <ele>520.288</ele>
        <time>2021-07-14T06:52:40Z</time>
      </trkpt>
      <trkpt lat="42.726951" lon="-7.345266">
        <ele>520.656</ele>
        <time>2021-07-14T06:52:50Z</time>
      </trkpt>
      <trkpt lat="42.726789" lon="-7.344817">
        <ele>521.118</ele>
        <time>2021-07-14T06:53:00Z</time>
      </trkpt>
      <trkpt lat="42.726666" lon="-7.344466">
        <ele>522.198</ele>
        <time>2021-07-14T06:53:08Z</time>
      </trkpt>
      <trkpt lat="42.726458" lon="-7.343951">
        <ele>523.517</ele>
        <time>2021-07-14T06:53:21Z</time>
      </trkpt>
      <trkpt lat="42.726332" lon="-7.343638">
        <ele>526.408</ele>
        <time>2021-07-14T06:53:31Z</time>
      </trkpt>
      <trkpt lat="42.726326" lon="-7.343598">
        <ele>529.898</ele>
        <time>2021-07-14T06:53:38Z</time>
      </trkpt>
      <trkpt lat="42.726303" lon="-7.343565">
        <ele>533.160</ele>
        <time>2021-07-14T06:53:53Z</time>
      </trkpt>
      <trkpt lat="42.726289" lon="-7.343571">
        <ele>532.737</ele>
        <time>2021-07-14T06:53:54Z</time>
      </trkpt>
      <trkpt lat="42.726279" lon="-7.343575">
        <ele>532.277</ele>
        <time>2021-07-14T06:53:55Z</time>
      </trkpt>
      <trkpt lat="42.726268" lon="-7.343586">
        <ele>532.251</ele>
        <time>2021-07-14T06:53:56Z</time>
      </trkpt>
      <trkpt lat="42.726259" lon="-7.343598">
        <ele>532.289</ele>
        <time>2021-07-14T06:53:57Z</time>
      </trkpt>
      <trkpt lat="42.726249" lon="-7.343610">
        <ele>531.786</ele>
        <time>2021-07-14T06:53:58Z</time>
      </trkpt>
      <trkpt lat="42.726219" lon="-7.343628">
        <ele>531.244</ele>
        <time>2021-07-14T06:54:04Z</time>
      </trkpt>
      <trkpt lat="42.726219" lon="-7.343611">
        <ele>529.822</ele>
        <time>2021-07-14T06:54:20Z</time>
      </trkpt>
      <trkpt lat="42.726197" lon="-7.343607">
        <ele>529.362</ele>
        <time>2021-07-14T06:54:39Z</time>
      </trkpt>
      <trkpt lat="42.726171" lon="-7.343569">
        <ele>530.708</ele>
        <time>2021-07-14T06:54:59Z</time>
      </trkpt>
      <trkpt lat="42.726205" lon="-7.343558">
        <ele>530.708</ele>
        <time>2021-07-14T06:55:21Z</time>
      </trkpt>
      <trkpt lat="42.726188" lon="-7.343567">
        <ele>531.299</ele>
        <time>2021-07-14T06:55:41Z</time>
      </trkpt>
      <trkpt lat="42.726213" lon="-7.343577">
        <ele>533.181</ele>
        <time>2021-07-14T06:56:03Z</time>
      </trkpt>
      <trkpt lat="42.726208" lon="-7.343560">
        <ele>532.278</ele>
        <time>2021-07-14T06:56:20Z</time>
      </trkpt>
      <trkpt lat="42.726181" lon="-7.343506">
        <ele>534.668</ele>
        <time>2021-07-14T06:56:37Z</time>
      </trkpt>
      <trkpt lat="42.726133" lon="-7.343525">
        <ele>536.552</ele>
        <time>2021-07-14T06:56:55Z</time>
      </trkpt>
      <trkpt lat="42.726145" lon="-7.343543">
        <ele>540.480</ele>
        <time>2021-07-14T06:57:10Z</time>
      </trkpt>
      <trkpt lat="42.726163" lon="-7.343566">
        <ele>539.967</ele>
        <time>2021-07-14T06:57:21Z</time>
      </trkpt>
      <trkpt lat="42.726231" lon="-7.343508">
        <ele>539.915</ele>
        <time>2021-07-14T06:57:30Z</time>
      </trkpt>
      <trkpt lat="42.726260" lon="-7.343486">
        <ele>541.377</ele>
        <time>2021-07-14T06:57:38Z</time>
      </trkpt>
      <trkpt lat="42.726262" lon="-7.343460">
        <ele>541.861</ele>
        <time>2021-07-14T06:57:44Z</time>
      </trkpt>
      <trkpt lat="42.726249" lon="-7.343442">
        <ele>542.327</ele>
        <time>2021-07-14T06:57:46Z</time>
      </trkpt>
      <trkpt lat="42.726226" lon="-7.343397">
        <ele>542.308</ele>
        <time>2021-07-14T06:57:47Z</time>
      </trkpt>
      <trkpt lat="42.726218" lon="-7.343378">
        <ele>542.334</ele>
        <time>2021-07-14T06:57:48Z</time>
      </trkpt>
      <trkpt lat="42.726206" lon="-7.343346">
        <ele>542.836</ele>
        <time>2021-07-14T06:57:49Z</time>
      </trkpt>
      <trkpt lat="42.726191" lon="-7.343312">
        <ele>542.863</ele>
        <time>2021-07-14T06:57:50Z</time>
      </trkpt>
      <trkpt lat="42.726155" lon="-7.343235">
        <ele>543.263</ele>
        <time>2021-07-14T06:57:52Z</time>
      </trkpt>
      <trkpt lat="42.725961" lon="-7.343012">
        <ele>541.867</ele>
        <time>2021-07-14T06:57:59Z</time>
      </trkpt>
      <trkpt lat="42.725647" lon="-7.342873">
        <ele>537.045</ele>
        <time>2021-07-14T06:58:08Z</time>
      </trkpt>
      <trkpt lat="42.725367" lon="-7.342797">
        <ele>533.662</ele>
        <time>2021-07-14T06:58:18Z</time>
      </trkpt>
      <trkpt lat="42.725141" lon="-7.342763">
        <ele>532.770</ele>
        <time>2021-07-14T06:58:29Z</time>
      </trkpt>
      <trkpt lat="42.724977" lon="-7.342733">
        <ele>532.224</ele>
        <time>2021-07-14T06:58:39Z</time>
      </trkpt>
      <trkpt lat="42.724780" lon="-7.342684">
        <ele>531.704</ele>
        <time>2021-07-14T06:58:47Z</time>
      </trkpt>
      <trkpt lat="42.724598" lon="-7.342604">
        <ele>531.714</ele>
        <time>2021-07-14T06:58:55Z</time>
      </trkpt>
      <trkpt lat="42.724418" lon="-7.342469">
        <ele>531.208</ele>
        <time>2021-07-14T06:59:03Z</time>
      </trkpt>
      <trkpt lat="42.724254" lon="-7.342244">
        <ele>529.859</ele>
        <time>2021-07-14T06:59:11Z</time>
      </trkpt>
      <trkpt lat="42.724134" lon="-7.341839">
        <ele>525.061</ele>
        <time>2021-07-14T06:59:21Z</time>
      </trkpt>
      <trkpt lat="42.724109" lon="-7.341395">
        <ele>522.638</ele>
        <time>2021-07-14T06:59:33Z</time>
      </trkpt>
      <trkpt lat="42.724095" lon="-7.341396">
        <ele>522.668</ele>
        <time>2021-07-14T06:59:34Z</time>
      </trkpt>
      <trkpt lat="42.724077" lon="-7.341404">
        <ele>522.632</ele>
        <time>2021-07-14T06:59:35Z</time>
      </trkpt>
      <trkpt lat="42.724066" lon="-7.341406">
        <ele>522.170</ele>
        <time>2021-07-14T06:59:36Z</time>
      </trkpt>
      <trkpt lat="42.724046" lon="-7.341411">
        <ele>522.147</ele>
        <time>2021-07-14T06:59:37Z</time>
      </trkpt>
      <trkpt lat="42.724021" lon="-7.341416">
        <ele>522.195</ele>
        <time>2021-07-14T06:59:38Z</time>
      </trkpt>
      <trkpt lat="42.724010" lon="-7.341415">
        <ele>522.136</ele>
        <time>2021-07-14T06:59:39Z</time>
      </trkpt>
      <trkpt lat="42.723996" lon="-7.341412">
        <ele>522.117</ele>
        <time>2021-07-14T06:59:40Z</time>
      </trkpt>
      <trkpt lat="42.723981" lon="-7.341407">
        <ele>522.118</ele>
        <time>2021-07-14T06:59:41Z</time>
      </trkpt>
      <trkpt lat="42.723942" lon="-7.341394">
        <ele>521.108</ele>
        <time>2021-07-14T06:59:49Z</time>
      </trkpt>
      <trkpt lat="42.723947" lon="-7.341406">
        <ele>521.190</ele>
        <time>2021-07-14T07:00:03Z</time>
      </trkpt>
      <trkpt lat="42.723951" lon="-7.341412">
        <ele>522.632</ele>
        <time>2021-07-14T07:00:23Z</time>
      </trkpt>
      <trkpt lat="42.723951" lon="-7.341403">
        <ele>525.519</ele>
        <time>2021-07-14T07:00:37Z</time>
      </trkpt>
      <trkpt lat="42.723976" lon="-7.341422">
        <ele>524.579</ele>
        <time>2021-07-14T07:00:44Z</time>
      </trkpt>
      <trkpt lat="42.723985" lon="-7.341427">
        <ele>525.013</ele>
        <time>2021-07-14T07:00:50Z</time>
      </trkpt>
      <trkpt lat="42.723963" lon="-7.341452">
        <ele>523.531</ele>
        <time>2021-07-14T07:01:03Z</time>
      </trkpt>
      <trkpt lat="42.723946" lon="-7.341410">
        <ele>519.288</ele>
        <time>2021-07-14T07:01:20Z</time>
      </trkpt>
      <trkpt lat="42.723961" lon="-7.341415">
        <ele>521.196</ele>
        <time>2021-07-14T07:01:30Z</time>
      </trkpt>
      <trkpt lat="42.723974" lon="-7.341412">
        <ele>521.659</ele>
        <time>2021-07-14T07:01:31Z</time>
      </trkpt>
      <trkpt lat="42.724066" lon="-7.341374">
        <ele>522.603</ele>
        <time>2021-07-14T07:01:37Z</time>
      </trkpt>
      <trkpt lat="42.724118" lon="-7.341354">
        <ele>523.523</ele>
        <time>2021-07-14T07:01:41Z</time>
      </trkpt>
      <trkpt lat="42.724127" lon="-7.341333">
        <ele>523.508</ele>
        <time>2021-07-14T07:01:42Z</time>
      </trkpt>
      <trkpt lat="42.724139" lon="-7.341289">
        <ele>524.042</ele>
        <time>2021-07-14T07:01:43Z</time>
      </trkpt>
      <trkpt lat="42.724145" lon="-7.341268">
        <ele>524.014</ele>
        <time>2021-07-14T07:01:44Z</time>
      </trkpt>
      <trkpt lat="42.724151" lon="-7.341241">
        <ele>524.031</ele>
        <time>2021-07-14T07:01:45Z</time>
      </trkpt>
      <trkpt lat="42.724249" lon="-7.340980">
        <ele>525.071</ele>
        <time>2021-07-14T07:01:53Z</time>
      </trkpt>
      <trkpt lat="42.724399" lon="-7.340678">
        <ele>525.975</ele>
        <time>2021-07-14T07:02:02Z</time>
      </trkpt>
      <trkpt lat="42.724588" lon="-7.340406">
        <ele>528.343</ele>
        <time>2021-07-14T07:02:11Z</time>
      </trkpt>
      <trkpt lat="42.724737" lon="-7.340159">
        <ele>528.890</ele>
        <time>2021-07-14T07:02:20Z</time>
      </trkpt>
      <trkpt lat="42.724927" lon="-7.339829">
        <ele>529.878</ele>
        <time>2021-07-14T07:02:29Z</time>
      </trkpt>
      <trkpt lat="42.725094" lon="-7.339526">
        <ele>529.836</ele>
        <time>2021-07-14T07:02:37Z</time>
      </trkpt>
      <trkpt lat="42.725260" lon="-7.339234">
        <ele>531.717</ele>
        <time>2021-07-14T07:02:45Z</time>
      </trkpt>
      <trkpt lat="42.725492" lon="-7.338834">
        <ele>534.618</ele>
        <time>2021-07-14T07:02:56Z</time>
      </trkpt>
      <trkpt lat="42.725717" lon="-7.338333">
        <ele>534.108</ele>
        <time>2021-07-14T07:03:08Z</time>
      </trkpt>
      <trkpt lat="42.725829" lon="-7.337835">
        <ele>533.680</ele>
        <time>2021-07-14T07:03:19Z</time>
      </trkpt>
      <trkpt lat="42.725911" lon="-7.337370">
        <ele>532.742</ele>
        <time>2021-07-14T07:03:29Z</time>
      </trkpt>
      <trkpt lat="42.726007" lon="-7.336987">
        <ele>531.719</ele>
        <time>2021-07-14T07:03:38Z</time>
      </trkpt>
      <trkpt lat="42.726195" lon="-7.336579">
        <ele>532.259</ele>
        <time>2021-07-14T07:03:49Z</time>
      </trkpt>
      <trkpt lat="42.726388" lon="-7.336333">
        <ele>532.243</ele>
        <time>2021-07-14T07:03:57Z</time>
      </trkpt>
      <trkpt lat="42.726620" lon="-7.336141">
        <ele>532.751</ele>
        <time>2021-07-14T07:04:05Z</time>
      </trkpt>
      <trkpt lat="42.726879" lon="-7.335982">
        <ele>533.688</ele>
        <time>2021-07-14T07:04:13Z</time>
      </trkpt>
      <trkpt lat="42.727205" lon="-7.335784">
        <ele>533.186</ele>
        <time>2021-07-14T07:04:23Z</time>
      </trkpt>
      <trkpt lat="42.727586" lon="-7.335559">
        <ele>533.131</ele>
        <time>2021-07-14T07:04:35Z</time>
      </trkpt>
      <trkpt lat="42.727902" lon="-7.335377">
        <ele>532.261</ele>
        <time>2021-07-14T07:04:45Z</time>
      </trkpt>
      <trkpt lat="42.728193" lon="-7.335208">
        <ele>531.207</ele>
        <time>2021-07-14T07:04:54Z</time>
      </trkpt>
      <trkpt lat="42.728472" lon="-7.335050">
        <ele>531.708</ele>
        <time>2021-07-14T07:05:03Z</time>
      </trkpt>
      <trkpt lat="42.728683" lon="-7.334930">
        <ele>532.730</ele>
        <time>2021-07-14T07:05:11Z</time>
      </trkpt>
      <trkpt lat="42.728895" lon="-7.334810">
        <ele>533.152</ele>
        <time>2021-07-14T07:05:20Z</time>
      </trkpt>
      <trkpt lat="42.729202" lon="-7.334637">
        <ele>535.599</ele>
        <time>2021-07-14T07:05:33Z</time>
      </trkpt>
      <trkpt lat="42.729499" lon="-7.334463">
        <ele>537.039</ele>
        <time>2021-07-14T07:05:45Z</time>
      </trkpt>
      <trkpt lat="42.729711" lon="-7.334308">
        <ele>538.933</ele>
        <time>2021-07-14T07:05:54Z</time>
      </trkpt>
      <trkpt lat="42.729965" lon="-7.334114">
        <ele>540.821</ele>
        <time>2021-07-14T07:06:05Z</time>
      </trkpt>
      <trkpt lat="42.730215" lon="-7.333876">
        <ele>544.718</ele>
        <time>2021-07-14T07:06:17Z</time>
      </trkpt>
      <trkpt lat="42.730417" lon="-7.333661">
        <ele>547.686</ele>
        <time>2021-07-14T07:06:26Z</time>
      </trkpt>
      <trkpt lat="42.730571" lon="-7.333420">
        <ele>551.472</ele>
        <time>2021-07-14T07:06:35Z</time>
      </trkpt>
      <trkpt lat="42.730654" lon="-7.333031">
        <ele>551.913</ele>
        <time>2021-07-14T07:06:46Z</time>
      </trkpt>
      <trkpt lat="42.730636" lon="-7.332750">
        <ele>549.514</ele>
        <time>2021-07-14T07:06:53Z</time>
      </trkpt>
      <trkpt lat="42.730521" lon="-7.332366">
        <ele>546.608</ele>
        <time>2021-07-14T07:07:03Z</time>
      </trkpt>
      <trkpt lat="42.730397" lon="-7.332000">
        <ele>543.754</ele>
        <time>2021-07-14T07:07:13Z</time>
      </trkpt>
      <trkpt lat="42.730290" lon="-7.331717">
        <ele>541.336</ele>
        <time>2021-07-14T07:07:21Z</time>
      </trkpt>
      <trkpt lat="42.730123" lon="-7.331395">
        <ele>539.463</ele>
        <time>2021-07-14T07:07:31Z</time>
      </trkpt>
      <trkpt lat="42.729881" lon="-7.330994">
        <ele>539.423</ele>
        <time>2021-07-14T07:07:43Z</time>
      </trkpt>
      <trkpt lat="42.729684" lon="-7.330668">
        <ele>537.557</ele>
        <time>2021-07-14T07:07:54Z</time>
      </trkpt>
      <trkpt lat="42.729495" lon="-7.330346">
        <ele>537.035</ele>
        <time>2021-07-14T07:08:04Z</time>
      </trkpt>
      <trkpt lat="42.729311" lon="-7.330029">
        <ele>538.432</ele>
        <time>2021-07-14T07:08:14Z</time>
      </trkpt>
      <trkpt lat="42.729157" lon="-7.329744">
        <ele>537.990</ele>
        <time>2021-07-14T07:08:23Z</time>
      </trkpt>
      <trkpt lat="42.729060" lon="-7.329526">
        <ele>537.514</ele>
        <time>2021-07-14T07:08:30Z</time>
      </trkpt>
      <trkpt lat="42.729005" lon="-7.329328">
        <ele>537.554</ele>
        <time>2021-07-14T07:08:38Z</time>
      </trkpt>
      <trkpt lat="42.728981" lon="-7.329131">
        <ele>537.509</ele>
        <time>2021-07-14T07:08:48Z</time>
      </trkpt>
      <trkpt lat="42.728968" lon="-7.329084">
        <ele>537.508</ele>
        <time>2021-07-14T07:08:51Z</time>
      </trkpt>
      <trkpt lat="42.728945" lon="-7.329074">
        <ele>537.588</ele>
        <time>2021-07-14T07:08:58Z</time>
      </trkpt>
      <trkpt lat="42.728940" lon="-7.329108">
        <ele>537.920</ele>
        <time>2021-07-14T07:09:08Z</time>
      </trkpt>
      <trkpt lat="42.728937" lon="-7.329120">
        <ele>537.987</ele>
        <time>2021-07-14T07:09:09Z</time>
      </trkpt>
      <trkpt lat="42.728933" lon="-7.329130">
        <ele>538.967</ele>
        <time>2021-07-14T07:09:16Z</time>
      </trkpt>
      <trkpt lat="42.728941" lon="-7.329122">
        <ele>541.841</ele>
        <time>2021-07-14T07:09:36Z</time>
      </trkpt>
      <trkpt lat="42.728938" lon="-7.329112">
        <ele>539.999</ele>
        <time>2021-07-14T07:09:52Z</time>
      </trkpt>
      <trkpt lat="42.728924" lon="-7.329123">
        <ele>538.436</ele>
        <time>2021-07-14T07:10:05Z</time>
      </trkpt>
      <trkpt lat="42.728947" lon="-7.329116">
        <ele>538.414</ele>
        <time>2021-07-14T07:10:20Z</time>
      </trkpt>
      <trkpt lat="42.728929" lon="-7.329112">
        <ele>536.082</ele>
        <time>2021-07-14T07:10:30Z</time>
      </trkpt>
      <trkpt lat="42.728911" lon="-7.329137">
        <ele>536.543</ele>
        <time>2021-07-14T07:10:43Z</time>
      </trkpt>
      <trkpt lat="42.728928" lon="-7.329130">
        <ele>535.517</ele>
        <time>2021-07-14T07:10:55Z</time>
      </trkpt>
      <trkpt lat="42.728918" lon="-7.329153">
        <ele>534.108</ele>
        <time>2021-07-14T07:11:06Z</time>
      </trkpt>
      <trkpt lat="42.728926" lon="-7.329129">
        <ele>535.185</ele>
        <time>2021-07-14T07:11:13Z</time>
      </trkpt>
      <trkpt lat="42.728932" lon="-7.329106">
        <ele>535.527</ele>
        <time>2021-07-14T07:11:18Z</time>
      </trkpt>
      <trkpt lat="42.728979" lon="-7.328915">
        <ele>536.074</ele>
        <time>2021-07-14T07:11:25Z</time>
      </trkpt>
      <trkpt lat="42.729021" lon="-7.328529">
        <ele>536.094</ele>
        <time>2021-07-14T07:11:36Z</time>
      </trkpt>
      <trkpt lat="42.729092" lon="-7.328194">
        <ele>536.018</ele>
        <time>2021-07-14T07:11:45Z</time>
      </trkpt>
      <trkpt lat="42.729194" lon="-7.327848">
        <ele>535.136</ele>
        <time>2021-07-14T07:11:53Z</time>
      </trkpt>
      <trkpt lat="42.729370" lon="-7.327407">
        <ele>535.533</ele>
        <time>2021-07-14T07:12:04Z</time>
      </trkpt>
      <trkpt lat="42.729582" lon="-7.327074">
        <ele>536.061</ele>
        <time>2021-07-14T07:12:14Z</time>
      </trkpt>
      <trkpt lat="42.729771" lon="-7.326855">
        <ele>537.027</ele>
        <time>2021-07-14T07:12:22Z</time>
      </trkpt>
      <trkpt lat="42.730079" lon="-7.326654">
        <ele>538.468</ele>
        <time>2021-07-14T07:12:33Z</time>
      </trkpt>
      <trkpt lat="42.730352" lon="-7.326584">
        <ele>539.914</ele>
        <time>2021-07-14T07:12:43Z</time>
      </trkpt>
      <trkpt lat="42.730590" lon="-7.326605">
        <ele>540.808</ele>
        <time>2021-07-14T07:12:53Z</time>
      </trkpt>
      <trkpt lat="42.730657" lon="-7.326629">
        <ele>541.339</ele>
        <time>2021-07-14T07:12:57Z</time>
      </trkpt>
      <trkpt lat="42.730672" lon="-7.326624">
        <ele>541.331</ele>
        <time>2021-07-14T07:12:58Z</time>
      </trkpt>
      <trkpt lat="42.730781" lon="-7.326575">
        <ele>544.248</ele>
        <time>2021-07-14T07:13:06Z</time>
      </trkpt>
      <trkpt lat="42.730876" lon="-7.326553">
        <ele>546.698</ele>
        <time>2021-07-14T07:13:16Z</time>
      </trkpt>
      <trkpt lat="42.730909" lon="-7.326498">
        <ele>549.052</ele>
        <time>2021-07-14T07:13:29Z</time>
      </trkpt>
      <trkpt lat="42.730967" lon="-7.326464">
        <ele>550.450</ele>
        <time>2021-07-14T07:13:40Z</time>
      </trkpt>
      <trkpt lat="42.730987" lon="-7.326489">
        <ele>548.527</ele>
        <time>2021-07-14T07:13:54Z</time>
      </trkpt>
      <trkpt lat="42.730988" lon="-7.326532">
        <ele>545.645</ele>
        <time>2021-07-14T07:14:08Z</time>
      </trkpt>
      <trkpt lat="42.731021" lon="-7.326515">
        <ele>544.235</ele>
        <time>2021-07-14T07:14:29Z</time>
      </trkpt>
      <trkpt lat="42.731059" lon="-7.326516">
        <ele>545.686</ele>
        <time>2021-07-14T07:14:51Z</time>
      </trkpt>
      <trkpt lat="42.731078" lon="-7.326579">
        <ele>547.614</ele>
        <time>2021-07-14T07:15:10Z</time>
      </trkpt>
      <trkpt lat="42.731090" lon="-7.326593">
        <ele>547.608</ele>
        <time>2021-07-14T07:15:24Z</time>
      </trkpt>
      <trkpt lat="42.731103" lon="-7.326568">
        <ele>545.680</ele>
        <time>2021-07-14T07:15:37Z</time>
      </trkpt>
      <trkpt lat="42.731088" lon="-7.326573">
        <ele>545.262</ele>
        <time>2021-07-14T07:15:45Z</time>
      </trkpt>
      <trkpt lat="42.730982" lon="-7.326528">
        <ele>545.669</ele>
        <time>2021-07-14T07:15:53Z</time>
      </trkpt>
      <trkpt lat="42.730886" lon="-7.326536">
        <ele>544.219</ele>
        <time>2021-07-14T07:15:55Z</time>
      </trkpt>
      <trkpt lat="42.730869" lon="-7.326554">
        <ele>544.283</ele>
        <time>2021-07-14T07:15:56Z</time>
      </trkpt>
      <trkpt lat="42.730855" lon="-7.326588">
        <ele>543.771</ele>
        <time>2021-07-14T07:15:57Z</time>
      </trkpt>
      <trkpt lat="42.730856" lon="-7.326617">
        <ele>543.288</ele>
        <time>2021-07-14T07:15:58Z</time>
      </trkpt>
      <trkpt lat="42.730864" lon="-7.326639">
        <ele>543.226</ele>
        <time>2021-07-14T07:15:59Z</time>
      </trkpt>
      <trkpt lat="42.730873" lon="-7.326659">
        <ele>542.862</ele>
        <time>2021-07-14T07:16:00Z</time>
      </trkpt>
      <trkpt lat="42.730884" lon="-7.326678">
        <ele>542.883</ele>
        <time>2021-07-14T07:16:01Z</time>
      </trkpt>
      <trkpt lat="42.730895" lon="-7.326701">
        <ele>542.811</ele>
        <time>2021-07-14T07:16:02Z</time>
      </trkpt>
      <trkpt lat="42.730906" lon="-7.326725">
        <ele>542.808</ele>
        <time>2021-07-14T07:16:03Z</time>
      </trkpt>
      <trkpt lat="42.731081" lon="-7.326822">
        <ele>543.233</ele>
        <time>2021-07-14T07:16:13Z</time>
      </trkpt>
      <trkpt lat="42.731117" lon="-7.326833">
        <ele>542.325</ele>
        <time>2021-07-14T07:16:20Z</time>
      </trkpt>
      <trkpt lat="42.731131" lon="-7.326835">
        <ele>539.972</ele>
        <time>2021-07-14T07:16:29Z</time>
      </trkpt>
      <trkpt lat="42.731127" lon="-7.326823">
        <ele>538.922</ele>
        <time>2021-07-14T07:16:47Z</time>
      </trkpt>
      <trkpt lat="42.731123" lon="-7.326868">
        <ele>539.496</ele>
        <time>2021-07-14T07:17:07Z</time>
      </trkpt>
      <trkpt lat="42.731118" lon="-7.326849">
        <ele>542.824</ele>
        <time>2021-07-14T07:17:23Z</time>
      </trkpt>
      <trkpt lat="42.731127" lon="-7.326833">
        <ele>541.371</ele>
        <time>2021-07-14T07:17:38Z</time>
      </trkpt>
      <trkpt lat="42.731119" lon="-7.326856">
        <ele>538.439</ele>
        <time>2021-07-14T07:17:55Z</time>
      </trkpt>
      <trkpt lat="42.731138" lon="-7.326840">
        <ele>542.321</ele>
        <time>2021-07-14T07:18:08Z</time>
      </trkpt>
      <trkpt lat="42.731147" lon="-7.326825">
        <ele>543.241</ele>
        <time>2021-07-14T07:18:20Z</time>
      </trkpt>
      <trkpt lat="42.731148" lon="-7.326841">
        <ele>544.205</ele>
        <time>2021-07-14T07:18:28Z</time>
      </trkpt>
      <trkpt lat="42.731220" lon="-7.326863">
        <ele>544.208</ele>
        <time>2021-07-14T07:18:34Z</time>
      </trkpt>
      <trkpt lat="42.731296" lon="-7.326885">
        <ele>543.789</ele>
        <time>2021-07-14T07:18:40Z</time>
      </trkpt>
      <trkpt lat="42.731371" lon="-7.326894">
        <ele>543.211</ele>
        <time>2021-07-14T07:18:47Z</time>
      </trkpt>
      <trkpt lat="42.731558" lon="-7.326907">
        <ele>544.268</ele>
        <time>2021-07-14T07:18:56Z</time>
      </trkpt>
      <trkpt lat="42.731573" lon="-7.326904">
        <ele>544.258</ele>
        <time>2021-07-14T07:19:01Z</time>
      </trkpt>
      <trkpt lat="42.731567" lon="-7.326910">
        <ele>541.392</ele>
        <time>2021-07-14T07:19:14Z</time>
      </trkpt>
      <trkpt lat="42.731565" lon="-7.326914">
        <ele>538.940</ele>
        <time>2021-07-14T07:19:29Z</time>
      </trkpt>
      <trkpt lat="42.731592" lon="-7.326916">
        <ele>537.517</ele>
        <time>2021-07-14T07:19:43Z</time>
      </trkpt>
      <trkpt lat="42.731642" lon="-7.326933">
        <ele>536.595</ele>
        <time>2021-07-14T07:19:49Z</time>
      </trkpt>
      <trkpt lat="42.731796" lon="-7.326952">
        <ele>538.484</ele>
        <time>2021-07-14T07:20:02Z</time>
      </trkpt>
      <trkpt lat="42.731852" lon="-7.326961">
        <ele>539.407</ele>
        <time>2021-07-14T07:20:11Z</time>
      </trkpt>
      <trkpt lat="42.731875" lon="-7.326913">
        <ele>540.417</ele>
        <time>2021-07-14T07:20:18Z</time>
      </trkpt>
      <trkpt lat="42.731863" lon="-7.326916">
        <ele>540.808</ele>
        <time>2021-07-14T07:20:31Z</time>
      </trkpt>
      <trkpt lat="42.731907" lon="-7.326967">
        <ele>540.855</ele>
        <time>2021-07-14T07:20:49Z</time>
      </trkpt>
      <trkpt lat="42.731935" lon="-7.326996">
        <ele>544.757</ele>
        <time>2021-07-14T07:21:09Z</time>
      </trkpt>
      <trkpt lat="42.731926" lon="-7.326969">
        <ele>546.154</ele>
        <time>2021-07-14T07:21:28Z</time>
      </trkpt>
      <trkpt lat="42.731907" lon="-7.326979">
        <ele>546.134</ele>
        <time>2021-07-14T07:21:47Z</time>
      </trkpt>
      <trkpt lat="42.731906" lon="-7.326957">
        <ele>549.518</ele>
        <time>2021-07-14T07:22:02Z</time>
      </trkpt>
      <trkpt lat="42.731922" lon="-7.326965">
        <ele>548.076</ele>
        <time>2021-07-14T07:22:11Z</time>
      </trkpt>
      <trkpt lat="42.731935" lon="-7.326948">
        <ele>548.583</ele>
        <time>2021-07-14T07:22:18Z</time>
      </trkpt>
      <trkpt lat="42.731944" lon="-7.326945">
        <ele>548.591</ele>
        <time>2021-07-14T07:22:24Z</time>
      </trkpt>
      <trkpt lat="42.732058" lon="-7.326877">
        <ele>546.658</ele>
        <time>2021-07-14T07:22:32Z</time>
      </trkpt>
      <trkpt lat="42.732161" lon="-7.326806">
        <ele>544.752</ele>
        <time>2021-07-14T07:22:41Z</time>
      </trkpt>
      <trkpt lat="42.732159" lon="-7.326791">
        <ele>545.617</ele>
        <time>2021-07-14T07:22:51Z</time>
      </trkpt>
      <trkpt lat="42.732230" lon="-7.326751">
        <ele>544.708</ele>
        <time>2021-07-14T07:23:03Z</time>
      </trkpt>
      <trkpt lat="42.732403" lon="-7.326609">
        <ele>544.722</ele>
        <time>2021-07-14T07:23:11Z</time>
      </trkpt>
      <trkpt lat="42.732622" lon="-7.326317">
        <ele>543.784</ele>
        <time>2021-07-14T07:23:22Z</time>
      </trkpt>
      <trkpt lat="42.732796" lon="-7.325977">
        <ele>540.891</ele>
        <time>2021-07-14T07:23:32Z</time>
      </trkpt>
      <trkpt lat="42.732265" lon="-7.324703">
        <ele>542.361</ele>
        <time>2021-07-14T07:24:16Z</time>
      </trkpt>
      <trkpt lat="42.732267" lon="-7.324684">
        <ele>542.845</ele>
        <time>2021-07-14T07:24:17Z</time>
      </trkpt>
      <trkpt lat="42.732270" lon="-7.324663">
        <ele>542.833</ele>
        <time>2021-07-14T07:24:18Z</time>
      </trkpt>
      <trkpt lat="42.732273" lon="-7.324639">
        <ele>542.880</ele>
        <time>2021-07-14T07:24:19Z</time>
      </trkpt>
      <trkpt lat="42.732277" lon="-7.324616">
        <ele>543.218</ele>
        <time>2021-07-14T07:24:20Z</time>
      </trkpt>
      <trkpt lat="42.732278" lon="-7.324602">
        <ele>543.223</ele>
        <time>2021-07-14T07:24:21Z</time>
      </trkpt>
      <trkpt lat="42.732286" lon="-7.324559">
        <ele>543.783</ele>
        <time>2021-07-14T07:24:23Z</time>
      </trkpt>
      <trkpt lat="42.732289" lon="-7.324530">
        <ele>543.211</ele>
        <time>2021-07-14T07:24:24Z</time>
      </trkpt>
      <trkpt lat="42.732296" lon="-7.324507">
        <ele>543.208</ele>
        <time>2021-07-14T07:24:25Z</time>
      </trkpt>
      <trkpt lat="42.732308" lon="-7.324485">
        <ele>543.799</ele>
        <time>2021-07-14T07:24:26Z</time>
      </trkpt>
      <trkpt lat="42.732320" lon="-7.324463">
        <ele>543.721</ele>
        <time>2021-07-14T07:24:27Z</time>
      </trkpt>
      <trkpt lat="42.732331" lon="-7.324437">
        <ele>543.738</ele>
        <time>2021-07-14T07:24:28Z</time>
      </trkpt>
      <trkpt lat="42.732344" lon="-7.324415">
        <ele>544.218</ele>
        <time>2021-07-14T07:24:29Z</time>
      </trkpt>
      <trkpt lat="42.732448" lon="-7.324217">
        <ele>545.682</ele>
        <time>2021-07-14T07:24:38Z</time>
      </trkpt>
      <trkpt lat="42.732552" lon="-7.324052">
        <ele>548.530</ele>
        <time>2021-07-14T07:24:47Z</time>
      </trkpt>
      <trkpt lat="42.732630" lon="-7.323941">
        <ele>549.577</ele>
        <time>2021-07-14T07:24:54Z</time>
      </trkpt>
      <trkpt lat="42.732741" lon="-7.323831">
        <ele>551.485</ele>
        <time>2021-07-14T07:25:03Z</time>
      </trkpt>
      <trkpt lat="42.732844" lon="-7.323699">
        <ele>552.922</ele>
        <time>2021-07-14T07:25:12Z</time>
      </trkpt>
      <trkpt lat="42.732944" lon="-7.323609">
        <ele>553.362</ele>
        <time>2021-07-14T07:25:19Z</time>
      </trkpt>
      <trkpt lat="42.733069" lon="-7.323565">
        <ele>553.308</ele>
        <time>2021-07-14T07:25:27Z</time>
      </trkpt>
      <trkpt lat="42.733258" lon="-7.323616">
        <ele>554.808</ele>
        <time>2021-07-14T07:25:37Z</time>
      </trkpt>
      <trkpt lat="42.733460" lon="-7.323784">
        <ele>557.279</ele>
        <time>2021-07-14T07:25:49Z</time>
      </trkpt>
      <trkpt lat="42.733601" lon="-7.323940">
        <ele>558.121</ele>
        <time>2021-07-14T07:25:59Z</time>
      </trkpt>
      <trkpt lat="42.733725" lon="-7.324091">
        <ele>559.648</ele>
        <time>2021-07-14T07:26:09Z</time>
      </trkpt>
      <trkpt lat="42.733748" lon="-7.324097">
        <ele>559.128</ele>
        <time>2021-07-14T07:26:15Z</time>
      </trkpt>
      <trkpt lat="42.733759" lon="-7.324103">
        <ele>559.162</ele>
        <time>2021-07-14T07:26:16Z</time>
      </trkpt>
      <trkpt lat="42.733765" lon="-7.324113">
        <ele>559.620</ele>
        <time>2021-07-14T07:26:21Z</time>
      </trkpt>
      <trkpt lat="42.733751" lon="-7.324105">
        <ele>558.657</ele>
        <time>2021-07-14T07:26:33Z</time>
      </trkpt>
      <trkpt lat="42.733726" lon="-7.324147">
        <ele>561.065</ele>
        <time>2021-07-14T07:26:47Z</time>
      </trkpt>
      <trkpt lat="42.733756" lon="-7.324146">
        <ele>562.542</ele>
        <time>2021-07-14T07:27:02Z</time>
      </trkpt>
      <trkpt lat="42.733757" lon="-7.324106">
        <ele>560.522</ele>
        <time>2021-07-14T07:27:24Z</time>
      </trkpt>
      <trkpt lat="42.733788" lon="-7.324070">
        <ele>560.514</ele>
        <time>2021-07-14T07:27:41Z</time>
      </trkpt>
      <trkpt lat="42.733757" lon="-7.324070">
        <ele>563.408</ele>
        <time>2021-07-14T07:28:02Z</time>
      </trkpt>
      <trkpt lat="42.733758" lon="-7.324105">
        <ele>561.561</ele>
        <time>2021-07-14T07:28:31Z</time>
      </trkpt>
      <trkpt lat="42.733754" lon="-7.324106">
        <ele>562.053</ele>
        <time>2021-07-14T07:28:54Z</time>
      </trkpt>
      <trkpt lat="42.733728" lon="-7.324107">
        <ele>559.610</ele>
        <time>2021-07-14T07:29:05Z</time>
      </trkpt>
      <trkpt lat="42.733736" lon="-7.324117">
        <ele>562.570</ele>
        <time>2021-07-14T07:29:22Z</time>
      </trkpt>
      <trkpt lat="42.733763" lon="-7.324110">
        <ele>561.084</ele>
        <time>2021-07-14T07:29:41Z</time>
      </trkpt>
      <trkpt lat="42.733770" lon="-7.324114">
        <ele>559.622</ele>
        <time>2021-07-14T07:29:59Z</time>
      </trkpt>
      <trkpt lat="42.733784" lon="-7.324138">
        <ele>556.759</ele>
        <time>2021-07-14T07:30:10Z</time>
      </trkpt>
      <trkpt lat="42.733792" lon="-7.324171">
        <ele>557.217</ele>
        <time>2021-07-14T07:30:18Z</time>
      </trkpt>
      <trkpt lat="42.733819" lon="-7.324225">
        <ele>556.762</ele>
        <time>2021-07-14T07:30:23Z</time>
      </trkpt>
      <trkpt lat="42.733914" lon="-7.324402">
        <ele>558.183</ele>
        <time>2021-07-14T07:30:32Z</time>
      </trkpt>
      <trkpt lat="42.733985" lon="-7.324606">
        <ele>560.111</ele>
        <time>2021-07-14T07:30:41Z</time>
      </trkpt>
      <trkpt lat="42.734046" lon="-7.324840">
        <ele>561.508</ele>
        <time>2021-07-14T07:30:52Z</time>
      </trkpt>
      <trkpt lat="42.734107" lon="-7.325115">
        <ele>562.043</ele>
        <time>2021-07-14T07:31:04Z</time>
      </trkpt>
      <trkpt lat="42.734152" lon="-7.325314">
        <ele>562.595</ele>
        <time>2021-07-14T07:31:13Z</time>
      </trkpt>
      <trkpt lat="42.734226" lon="-7.325530">
        <ele>562.942</ele>
        <time>2021-07-14T07:31:23Z</time>
      </trkpt>
      <trkpt lat="42.734349" lon="-7.325692">
        <ele>564.932</ele>
        <time>2021-07-14T07:31:33Z</time>
      </trkpt>
      <trkpt lat="42.734461" lon="-7.325794">
        <ele>567.876</ele>
        <time>2021-07-14T07:31:41Z</time>
      </trkpt>
      <trkpt lat="42.734594" lon="-7.325871">
        <ele>570.254</ele>
        <time>2021-07-14T07:31:50Z</time>
      </trkpt>
      <trkpt lat="42.734741" lon="-7.325961">
        <ele>573.051</ele>
        <time>2021-07-14T07:32:00Z</time>
      </trkpt>
      <trkpt lat="42.734871" lon="-7.326015">
        <ele>575.459</ele>
        <time>2021-07-14T07:32:08Z</time>
      </trkpt>
      <trkpt lat="42.734887" lon="-7.326022">
        <ele>575.411</ele>
        <time>2021-07-14T07:32:09Z</time>
      </trkpt>
      <trkpt lat="42.734904" lon="-7.326030">
        <ele>575.921</ele>
        <time>2021-07-14T07:32:10Z</time>
      </trkpt>
      <trkpt lat="42.734921" lon="-7.326040">
        <ele>575.903</ele>
        <time>2021-07-14T07:32:11Z</time>
      </trkpt>
      <trkpt lat="42.734940" lon="-7.326047">
        <ele>576.408</ele>
        <time>2021-07-14T07:32:12Z</time>
      </trkpt>
      <trkpt lat="42.734958" lon="-7.326054">
        <ele>576.488</ele>
        <time>2021-07-14T07:32:13Z</time>
      </trkpt>
      <trkpt lat="42.734977" lon="-7.326060">
        <ele>576.950</ele>
        <time>2021-07-14T07:32:14Z</time>
      </trkpt>
      <trkpt lat="42.734994" lon="-7.326067">
        <ele>576.937</ele>
        <time>2021-07-14T07:32:15Z</time>
      </trkpt>
      <trkpt lat="42.735011" lon="-7.326075">
        <ele>577.477</ele>
        <time>2021-07-14T07:32:16Z</time>
      </trkpt>
      <trkpt lat="42.735026" lon="-7.326082">
        <ele>577.471</ele>
        <time>2021-07-14T07:32:17Z</time>
      </trkpt>
      <trkpt lat="42.735044" lon="-7.326087">
        <ele>577.839</ele>
        <time>2021-07-14T07:32:18Z</time>
      </trkpt>
      <trkpt lat="42.735217" lon="-7.326148">
        <ele>581.246</ele>
        <time>2021-07-14T07:32:28Z</time>
      </trkpt>
      <trkpt lat="42.735378" lon="-7.326221">
        <ele>584.144</ele>
        <time>2021-07-14T07:32:38Z</time>
      </trkpt>
      <trkpt lat="42.735522" lon="-7.326280">
        <ele>587.077</ele>
        <time>2021-07-14T07:32:47Z</time>
      </trkpt>
      <trkpt lat="42.735676" lon="-7.326346">
        <ele>587.561</ele>
        <time>2021-07-14T07:32:56Z</time>
      </trkpt>
      <trkpt lat="42.735828" lon="-7.326391">
        <ele>587.927</ele>
        <time>2021-07-14T07:33:05Z</time>
      </trkpt>
      <trkpt lat="42.735844" lon="-7.326397">
        <ele>587.908</ele>
        <time>2021-07-14T07:33:06Z</time>
      </trkpt>
      <trkpt lat="42.736064" lon="-7.326371">
        <ele>584.614</ele>
        <time>2021-07-14T07:33:18Z</time>
      </trkpt>
      <trkpt lat="42.736242" lon="-7.326320">
        <ele>583.136</ele>
        <time>2021-07-14T07:33:28Z</time>
      </trkpt>
      <trkpt lat="42.736379" lon="-7.326264">
        <ele>584.123</ele>
        <time>2021-07-14T07:33:37Z</time>
      </trkpt>
      <trkpt lat="42.736515" lon="-7.326174">
        <ele>584.153</ele>
        <time>2021-07-14T07:33:46Z</time>
      </trkpt>
      <trkpt lat="42.736629" lon="-7.326067">
        <ele>585.137</ele>
        <time>2021-07-14T07:33:54Z</time>
      </trkpt>
      <trkpt lat="42.736786" lon="-7.325889">
        <ele>586.565</ele>
        <time>2021-07-14T07:34:06Z</time>
      </trkpt>
      <trkpt lat="42.736885" lon="-7.325709">
        <ele>588.482</ele>
        <time>2021-07-14T07:34:16Z</time>
      </trkpt>
      <trkpt lat="42.736989" lon="-7.325504">
        <ele>590.810</ele>
        <time>2021-07-14T07:34:27Z</time>
      </trkpt>
      <trkpt lat="42.737040" lon="-7.325370">
        <ele>591.383</ele>
        <time>2021-07-14T07:34:34Z</time>
      </trkpt>
      <trkpt lat="42.737086" lon="-7.325160">
        <ele>591.825</ele>
        <time>2021-07-14T07:34:44Z</time>
      </trkpt>
      <trkpt lat="42.737116" lon="-7.324907">
        <ele>591.817</ele>
        <time>2021-07-14T07:34:55Z</time>
      </trkpt>
      <trkpt lat="42.737112" lon="-7.324671">
        <ele>592.708</ele>
        <time>2021-07-14T07:35:05Z</time>
      </trkpt>
      <trkpt lat="42.737088" lon="-7.324482">
        <ele>593.295</ele>
        <time>2021-07-14T07:35:13Z</time>
      </trkpt>
      <trkpt lat="42.737040" lon="-7.324280">
        <ele>594.217</ele>
        <time>2021-07-14T07:35:22Z</time>
      </trkpt>
      <trkpt lat="42.736969" lon="-7.324063">
        <ele>596.614</ele>
        <time>2021-07-14T07:35:32Z</time>
      </trkpt>
      <trkpt lat="42.736903" lon="-7.323909">
        <ele>598.074</ele>
        <time>2021-07-14T07:35:40Z</time>
      </trkpt>
      <trkpt lat="42.736831" lon="-7.323759">
        <ele>597.638</ele>
        <time>2021-07-14T07:35:48Z</time>
      </trkpt>
      <trkpt lat="42.736737" lon="-7.323556">
        <ele>599.526</ele>
        <time>2021-07-14T07:35:59Z</time>
      </trkpt>
      <trkpt lat="42.736694" lon="-7.323486">
        <ele>600.093</ele>
        <time>2021-07-14T07:36:07Z</time>
      </trkpt>
      <trkpt lat="42.736686" lon="-7.323486">
        <ele>600.041</ele>
        <time>2021-07-14T07:36:24Z</time>
      </trkpt>
      <trkpt lat="42.736712" lon="-7.323475">
        <ele>600.055</ele>
        <time>2021-07-14T07:36:38Z</time>
      </trkpt>
      <trkpt lat="42.736690" lon="-7.323449">
        <ele>599.507</ele>
        <time>2021-07-14T07:36:46Z</time>
      </trkpt>
      <trkpt lat="42.736694" lon="-7.323449">
        <ele>600.917</ele>
        <time>2021-07-14T07:37:01Z</time>
      </trkpt>
      <trkpt lat="42.736697" lon="-7.323448">
        <ele>600.408</ele>
        <time>2021-07-14T07:37:18Z</time>
      </trkpt>
      <trkpt lat="42.736699" lon="-7.323444">
        <ele>600.052</ele>
        <time>2021-07-14T07:37:32Z</time>
      </trkpt>
      <trkpt lat="42.736671" lon="-7.323391">
        <ele>600.474</ele>
        <time>2021-07-14T07:37:39Z</time>
      </trkpt>
      <trkpt lat="42.736667" lon="-7.323375">
        <ele>600.491</ele>
        <time>2021-07-14T07:37:40Z</time>
      </trkpt>
      <trkpt lat="42.736662" lon="-7.323361">
        <ele>600.431</ele>
        <time>2021-07-14T07:37:41Z</time>
      </trkpt>
      <trkpt lat="42.736649" lon="-7.323345">
        <ele>600.075</ele>
        <time>2021-07-14T07:37:49Z</time>
      </trkpt>
      <trkpt lat="42.736647" lon="-7.323348">
        <ele>600.063</ele>
        <time>2021-07-14T07:38:06Z</time>
      </trkpt>
      <trkpt lat="42.736639" lon="-7.323322">
        <ele>600.450</ele>
        <time>2021-07-14T07:38:12Z</time>
      </trkpt>
      <trkpt lat="42.736576" lon="-7.323180">
        <ele>600.938</ele>
        <time>2021-07-14T07:38:18Z</time>
      </trkpt>
      <trkpt lat="42.736482" lon="-7.322993">
        <ele>600.491</ele>
        <time>2021-07-14T07:38:27Z</time>
      </trkpt>
      <trkpt lat="42.736397" lon="-7.322786">
        <ele>602.481</ele>
        <time>2021-07-14T07:38:37Z</time>
      </trkpt>
      <trkpt lat="42.736346" lon="-7.322648">
        <ele>604.819</ele>
        <time>2021-07-14T07:38:44Z</time>
      </trkpt>
      <trkpt lat="42.736266" lon="-7.322436">
        <ele>606.708</ele>
        <time>2021-07-14T07:38:54Z</time>
      </trkpt>
      <trkpt lat="42.736180" lon="-7.322236">
        <ele>608.656</ele>
        <time>2021-07-14T07:39:04Z</time>
      </trkpt>
      <trkpt lat="42.736095" lon="-7.322040">
        <ele>610.098</ele>
        <time>2021-07-14T07:39:14Z</time>
      </trkpt>
      <trkpt lat="42.736002" lon="-7.321821">
        <ele>611.515</ele>
        <time>2021-07-14T07:39:25Z</time>
      </trkpt>
      <trkpt lat="42.735931" lon="-7.321655">
        <ele>612.595</ele>
        <time>2021-07-14T07:39:33Z</time>
      </trkpt>
      <trkpt lat="42.735816" lon="-7.321401">
        <ele>613.919</ele>
        <time>2021-07-14T07:39:45Z</time>
      </trkpt>
      <trkpt lat="42.735739" lon="-7.321218">
        <ele>614.437</ele>
        <time>2021-07-14T07:39:54Z</time>
      </trkpt>
      <trkpt lat="42.735657" lon="-7.321013">
        <ele>615.844</ele>
        <time>2021-07-14T07:40:03Z</time>
      </trkpt>
      <trkpt lat="42.735561" lon="-7.320721">
        <ele>616.832</ele>
        <time>2021-07-14T07:40:15Z</time>
      </trkpt>
      <trkpt lat="42.735489" lon="-7.320383">
        <ele>616.387</ele>
        <time>2021-07-14T07:40:28Z</time>
      </trkpt>
      <trkpt lat="42.735458" lon="-7.320132">
        <ele>616.842</ele>
        <time>2021-07-14T07:40:37Z</time>
      </trkpt>
      <trkpt lat="42.735443" lon="-7.319880">
        <ele>617.326</ele>
        <time>2021-07-14T07:40:46Z</time>
      </trkpt>
      <trkpt lat="42.735446" lon="-7.319685">
        <ele>616.808</ele>
        <time>2021-07-14T07:40:53Z</time>
      </trkpt>
      <trkpt lat="42.735453" lon="-7.319423">
        <ele>616.875</ele>
        <time>2021-07-14T07:41:01Z</time>
      </trkpt>
      <trkpt lat="42.735498" lon="-7.319061">
        <ele>616.897</ele>
        <time>2021-07-14T07:41:11Z</time>
      </trkpt>
      <trkpt lat="42.735556" lon="-7.318617">
        <ele>615.394</ele>
        <time>2021-07-14T07:41:20Z</time>
      </trkpt>
      <trkpt lat="42.735597" lon="-7.318102">
        <ele>613.954</ele>
        <time>2021-07-14T07:41:27Z</time>
      </trkpt>
      <trkpt lat="42.735614" lon="-7.317415">
        <ele>610.088</ele>
        <time>2021-07-14T07:41:34Z</time>
      </trkpt>
      <trkpt lat="42.735634" lon="-7.316643">
        <ele>605.726</ele>
        <time>2021-07-14T07:41:40Z</time>
      </trkpt>
      <trkpt lat="42.735753" lon="-7.315353">
        <ele>600.083</ele>
        <time>2021-07-14T07:41:49Z</time>
      </trkpt>
      <trkpt lat="42.735884" lon="-7.314533">
        <ele>598.561</ele>
        <time>2021-07-14T07:41:56Z</time>
      </trkpt>
      <trkpt lat="42.736074" lon="-7.313376">
        <ele>597.148</ele>
        <time>2021-07-14T07:42:07Z</time>
      </trkpt>
      <trkpt lat="42.736243" lon="-7.312730">
        <ele>596.661</ele>
        <time>2021-07-14T07:42:14Z</time>
      </trkpt>
      <trkpt lat="42.736434" lon="-7.312254">
        <ele>597.117</ele>
        <time>2021-07-14T07:42:21Z</time>
      </trkpt>
      <trkpt lat="42.736580" lon="-7.311976">
        <ele>597.608</ele>
        <time>2021-07-14T07:42:28Z</time>
      </trkpt>
      <trkpt lat="42.736705" lon="-7.311765">
        <ele>598.071</ele>
        <time>2021-07-14T07:42:36Z</time>
      </trkpt>
      <trkpt lat="42.736904" lon="-7.311426">
        <ele>599.083</ele>
        <time>2021-07-14T07:42:49Z</time>
      </trkpt>
      <trkpt lat="42.737019" lon="-7.311229">
        <ele>600.040</ele>
        <time>2021-07-14T07:42:57Z</time>
      </trkpt>
      <trkpt lat="42.737159" lon="-7.311008">
        <ele>600.950</ele>
        <time>2021-07-14T07:43:07Z</time>
      </trkpt>
      <trkpt lat="42.737246" lon="-7.310861">
        <ele>601.974</ele>
        <time>2021-07-14T07:43:15Z</time>
      </trkpt>
      <trkpt lat="42.737369" lon="-7.310663">
        <ele>602.832</ele>
        <time>2021-07-14T07:43:25Z</time>
      </trkpt>
      <trkpt lat="42.737506" lon="-7.310445">
        <ele>603.839</ele>
        <time>2021-07-14T07:43:36Z</time>
      </trkpt>
      <trkpt lat="42.737600" lon="-7.310274">
        <ele>604.377</ele>
        <time>2021-07-14T07:43:44Z</time>
      </trkpt>
      <trkpt lat="42.737712" lon="-7.310089">
        <ele>605.214</ele>
        <time>2021-07-14T07:43:53Z</time>
      </trkpt>
      <trkpt lat="42.737802" lon="-7.309888">
        <ele>605.754</ele>
        <time>2021-07-14T07:44:02Z</time>
      </trkpt>
      <trkpt lat="42.737883" lon="-7.309668">
        <ele>606.709</ele>
        <time>2021-07-14T07:44:12Z</time>
      </trkpt>
      <trkpt lat="42.737936" lon="-7.309510">
        <ele>608.108</ele>
        <time>2021-07-14T07:44:19Z</time>
      </trkpt>
      <trkpt lat="42.737993" lon="-7.309278">
        <ele>609.648</ele>
        <time>2021-07-14T07:44:29Z</time>
      </trkpt>
      <trkpt lat="42.738032" lon="-7.308967">
        <ele>612.590</ele>
        <time>2021-07-14T07:44:42Z</time>
      </trkpt>
      <trkpt lat="42.738044" lon="-7.308694">
        <ele>612.927</ele>
        <time>2021-07-14T07:44:53Z</time>
      </trkpt>
      <trkpt lat="42.738054" lon="-7.308436">
        <ele>612.987</ele>
        <time>2021-07-14T07:45:03Z</time>
      </trkpt>
      <trkpt lat="42.738050" lon="-7.308185">
        <ele>613.421</ele>
        <time>2021-07-14T07:45:13Z</time>
      </trkpt>
      <trkpt lat="42.738044" lon="-7.307896">
        <ele>614.969</ele>
        <time>2021-07-14T07:45:24Z</time>
      </trkpt>
      <trkpt lat="42.738052" lon="-7.307601">
        <ele>616.386</ele>
        <time>2021-07-14T07:45:35Z</time>
      </trkpt>
      <trkpt lat="42.738073" lon="-7.307337">
        <ele>617.714</ele>
        <time>2021-07-14T07:45:45Z</time>
      </trkpt>
      <trkpt lat="42.738105" lon="-7.307052">
        <ele>619.272</ele>
        <time>2021-07-14T07:45:55Z</time>
      </trkpt>
      <trkpt lat="42.738166" lon="-7.306778">
        <ele>620.113</ele>
        <time>2021-07-14T07:46:04Z</time>
      </trkpt>
      <trkpt lat="42.738275" lon="-7.306452">
        <ele>620.114</ele>
        <time>2021-07-14T07:46:15Z</time>
      </trkpt>
      <trkpt lat="42.738411" lon="-7.306130">
        <ele>620.108</ele>
        <time>2021-07-14T07:46:26Z</time>
      </trkpt>
      <trkpt lat="42.738554" lon="-7.305792">
        <ele>620.134</ele>
        <time>2021-07-14T07:46:36Z</time>
      </trkpt>
      <trkpt lat="42.738741" lon="-7.305372">
        <ele>620.196</ele>
        <time>2021-07-14T07:46:48Z</time>
      </trkpt>
      <trkpt lat="42.738857" lon="-7.305014">
        <ele>619.713</ele>
        <time>2021-07-14T07:46:58Z</time>
      </trkpt>
      <trkpt lat="42.738925" lon="-7.304650">
        <ele>619.763</ele>
        <time>2021-07-14T07:47:07Z</time>
      </trkpt>
      <trkpt lat="42.738953" lon="-7.304255">
        <ele>619.267</ele>
        <time>2021-07-14T07:47:16Z</time>
      </trkpt>
      <trkpt lat="42.738931" lon="-7.303827">
        <ele>618.275</ele>
        <time>2021-07-14T07:47:26Z</time>
      </trkpt>
      <trkpt lat="42.738847" lon="-7.303409">
        <ele>617.312</ele>
        <time>2021-07-14T07:47:35Z</time>
      </trkpt>
      <trkpt lat="42.738686" lon="-7.302911">
        <ele>616.830</ele>
        <time>2021-07-14T07:47:44Z</time>
      </trkpt>
      <trkpt lat="42.738463" lon="-7.302276">
        <ele>614.458</ele>
        <time>2021-07-14T07:47:53Z</time>
      </trkpt>
      <trkpt lat="42.738226" lon="-7.301597">
        <ele>612.052</ele>
        <time>2021-07-14T07:48:01Z</time>
      </trkpt>
      <trkpt lat="42.737940" lon="-7.300776">
        <ele>610.517</ele>
        <time>2021-07-14T07:48:10Z</time>
      </trkpt>
      <trkpt lat="42.737646" lon="-7.299914">
        <ele>610.008</ele>
        <time>2021-07-14T07:48:20Z</time>
      </trkpt>
      <trkpt lat="42.737483" lon="-7.299225">
        <ele>609.122</ele>
        <time>2021-07-14T07:48:29Z</time>
      </trkpt>
      <trkpt lat="42.737472" lon="-7.298559">
        <ele>607.664</ele>
        <time>2021-07-14T07:48:38Z</time>
      </trkpt>
      <trkpt lat="42.737573" lon="-7.297946">
        <ele>606.231</ele>
        <time>2021-07-14T07:48:47Z</time>
      </trkpt>
      <trkpt lat="42.737805" lon="-7.297339">
        <ele>605.241</ele>
        <time>2021-07-14T07:48:56Z</time>
      </trkpt>
      <trkpt lat="42.738174" lon="-7.296593">
        <ele>603.335</ele>
        <time>2021-07-14T07:49:07Z</time>
      </trkpt>
      <trkpt lat="42.738576" lon="-7.295802">
        <ele>601.913</ele>
        <time>2021-07-14T07:49:19Z</time>
      </trkpt>
      <trkpt lat="42.738743" lon="-7.295332">
        <ele>600.930</ele>
        <time>2021-07-14T07:49:26Z</time>
      </trkpt>
      <trkpt lat="42.738789" lon="-7.295072">
        <ele>600.038</ele>
        <time>2021-07-14T07:49:30Z</time>
      </trkpt>
      <trkpt lat="42.738792" lon="-7.295006">
        <ele>599.555</ele>
        <time>2021-07-14T07:49:31Z</time>
      </trkpt>
      <trkpt lat="42.738724" lon="-7.294538">
        <ele>600.007</ele>
        <time>2021-07-14T07:49:39Z</time>
      </trkpt>
      <trkpt lat="42.738579" lon="-7.294078">
        <ele>601.417</ele>
        <time>2021-07-14T07:49:49Z</time>
      </trkpt>
      <trkpt lat="42.738541" lon="-7.293703">
        <ele>601.908</ele>
        <time>2021-07-14T07:49:57Z</time>
      </trkpt>
      <trkpt lat="42.738627" lon="-7.293257">
        <ele>602.422</ele>
        <time>2021-07-14T07:50:07Z</time>
      </trkpt>
      <trkpt lat="42.738800" lon="-7.292878">
        <ele>602.484</ele>
        <time>2021-07-14T07:50:17Z</time>
      </trkpt>
      <trkpt lat="42.738986" lon="-7.292534">
        <ele>602.821</ele>
        <time>2021-07-14T07:50:27Z</time>
      </trkpt>
      <trkpt lat="42.739177" lon="-7.292174">
        <ele>603.391</ele>
        <time>2021-07-14T07:50:38Z</time>
      </trkpt>
      <trkpt lat="42.739308" lon="-7.291907">
        <ele>604.365</ele>
        <time>2021-07-14T07:50:46Z</time>
      </trkpt>
      <trkpt lat="42.739334" lon="-7.291866">
        <ele>604.893</ele>
        <time>2021-07-14T07:50:51Z</time>
      </trkpt>
      <trkpt lat="42.739345" lon="-7.291887">
        <ele>603.890</ele>
        <time>2021-07-14T07:51:05Z</time>
      </trkpt>
      <trkpt lat="42.739343" lon="-7.291891">
        <ele>602.878</ele>
        <time>2021-07-14T07:51:21Z</time>
      </trkpt>
      <trkpt lat="42.739333" lon="-7.291883">
        <ele>603.392</ele>
        <time>2021-07-14T07:51:39Z</time>
      </trkpt>
      <trkpt lat="42.739340" lon="-7.291869">
        <ele>603.373</ele>
        <time>2021-07-14T07:51:45Z</time>
      </trkpt>
      <trkpt lat="42.739349" lon="-7.291860">
        <ele>603.320</ele>
        <time>2021-07-14T07:51:46Z</time>
      </trkpt>
      <trkpt lat="42.739358" lon="-7.291847">
        <ele>603.308</ele>
        <time>2021-07-14T07:51:47Z</time>
      </trkpt>
      <trkpt lat="42.739366" lon="-7.291832">
        <ele>603.326</ele>
        <time>2021-07-14T07:51:48Z</time>
      </trkpt>
      <trkpt lat="42.739376" lon="-7.291815">
        <ele>603.318</ele>
        <time>2021-07-14T07:51:49Z</time>
      </trkpt>
      <trkpt lat="42.739386" lon="-7.291792">
        <ele>603.815</ele>
        <time>2021-07-14T07:51:50Z</time>
      </trkpt>
      <trkpt lat="42.739449" lon="-7.291623">
        <ele>603.855</ele>
        <time>2021-07-14T07:51:56Z</time>
      </trkpt>
      <trkpt lat="42.739545" lon="-7.291309">
        <ele>604.339</ele>
        <time>2021-07-14T07:52:05Z</time>
      </trkpt>
      <trkpt lat="42.739591" lon="-7.290879">
        <ele>605.227</ele>
        <time>2021-07-14T07:52:15Z</time>
      </trkpt>
      <trkpt lat="42.739619" lon="-7.290505">
        <ele>605.794</ele>
        <time>2021-07-14T07:52:23Z</time>
      </trkpt>
      <trkpt lat="42.739698" lon="-7.290062">
        <ele>606.772</ele>
        <time>2021-07-14T07:52:32Z</time>
      </trkpt>
      <trkpt lat="42.739842" lon="-7.289499">
        <ele>607.228</ele>
        <time>2021-07-14T07:52:44Z</time>
      </trkpt>
      <trkpt lat="42.739921" lon="-7.289043">
        <ele>607.289</ele>
        <time>2021-07-14T07:52:53Z</time>
      </trkpt>
      <trkpt lat="42.739927" lon="-7.288661">
        <ele>608.117</ele>
        <time>2021-07-14T07:53:02Z</time>
      </trkpt>
      <trkpt lat="42.739909" lon="-7.288390">
        <ele>609.108</ele>
        <time>2021-07-14T07:53:09Z</time>
      </trkpt>
      <trkpt lat="42.739872" lon="-7.287984">
        <ele>609.699</ele>
        <time>2021-07-14T07:53:19Z</time>
      </trkpt>
      <trkpt lat="42.739902" lon="-7.287639">
        <ele>609.691</ele>
        <time>2021-07-14T07:53:26Z</time>
      </trkpt>
      <trkpt lat="42.739964" lon="-7.287433">
        <ele>609.668</ele>
        <time>2021-07-14T07:53:31Z</time>
      </trkpt>
      <trkpt lat="42.740173" lon="-7.286962">
        <ele>608.188</ele>
        <time>2021-07-14T07:53:39Z</time>
      </trkpt>
      <trkpt lat="42.740369" lon="-7.286312">
        <ele>606.232</ele>
        <time>2021-07-14T07:53:47Z</time>
      </trkpt>
      <trkpt lat="42.740525" lon="-7.285508">
        <ele>603.870</ele>
        <time>2021-07-14T07:53:56Z</time>
      </trkpt>
      <trkpt lat="42.740649" lon="-7.284630">
        <ele>601.487</ele>
        <time>2021-07-14T07:54:06Z</time>
      </trkpt>
      <trkpt lat="42.740615" lon="-7.283963">
        <ele>600.025</ele>
        <time>2021-07-14T07:54:14Z</time>
      </trkpt>
      <trkpt lat="42.740511" lon="-7.283439">
        <ele>599.536</ele>
        <time>2021-07-14T07:54:22Z</time>
      </trkpt>
      <trkpt lat="42.740358" lon="-7.282836">
        <ele>599.017</ele>
        <time>2021-07-14T07:54:32Z</time>
      </trkpt>
      <trkpt lat="42.740201" lon="-7.282154">
        <ele>598.518</ele>
        <time>2021-07-14T07:54:43Z</time>
      </trkpt>
      <trkpt lat="42.740097" lon="-7.281702">
        <ele>598.008</ele>
        <time>2021-07-14T07:54:51Z</time>
      </trkpt>
      <trkpt lat="42.739998" lon="-7.281163">
        <ele>599.070</ele>
        <time>2021-07-14T07:55:01Z</time>
      </trkpt>
      <trkpt lat="42.739995" lon="-7.280642">
        <ele>601.922</ele>
        <time>2021-07-14T07:55:12Z</time>
      </trkpt>
      <trkpt lat="42.740017" lon="-7.280199">
        <ele>604.349</ele>
        <time>2021-07-14T07:55:24Z</time>
      </trkpt>
      <trkpt lat="42.740007" lon="-7.279864">
        <ele>607.279</ele>
        <time>2021-07-14T07:55:34Z</time>
      </trkpt>
      <trkpt lat="42.739989" lon="-7.279701">
        <ele>607.643</ele>
        <time>2021-07-14T07:55:40Z</time>
      </trkpt>
      <trkpt lat="42.739948" lon="-7.279489">
        <ele>608.691</ele>
        <time>2021-07-14T07:55:48Z</time>
      </trkpt>
      <trkpt lat="42.739895" lon="-7.279263">
        <ele>608.638</ele>
        <time>2021-07-14T07:55:56Z</time>
      </trkpt>
      <trkpt lat="42.739821" lon="-7.279052">
        <ele>608.676</ele>
        <time>2021-07-14T07:56:06Z</time>
      </trkpt>
      <trkpt lat="42.739771" lon="-7.278862">
        <ele>609.186</ele>
        <time>2021-07-14T07:56:14Z</time>
      </trkpt>
      <trkpt lat="42.739733" lon="-7.278624">
        <ele>611.060</ele>
        <time>2021-07-14T07:56:24Z</time>
      </trkpt>
      <trkpt lat="42.739706" lon="-7.278347">
        <ele>612.526</ele>
        <time>2021-07-14T07:56:34Z</time>
      </trkpt>
      <trkpt lat="42.739701" lon="-7.278125">
        <ele>614.408</ele>
        <time>2021-07-14T07:56:42Z</time>
      </trkpt>
      <trkpt lat="42.739633" lon="-7.277779">
        <ele>615.875</ele>
        <time>2021-07-14T07:56:53Z</time>
      </trkpt>
      <trkpt lat="42.739538" lon="-7.277488">
        <ele>616.347</ele>
        <time>2021-07-14T07:57:02Z</time>
      </trkpt>
      <trkpt lat="42.739442" lon="-7.277146">
        <ele>616.814</ele>
        <time>2021-07-14T07:57:12Z</time>
      </trkpt>
      <trkpt lat="42.739328" lon="-7.276677">
        <ele>617.374</ele>
        <time>2021-07-14T07:57:24Z</time>
      </trkpt>
      <trkpt lat="42.739220" lon="-7.276204">
        <ele>616.858</ele>
        <time>2021-07-14T07:57:36Z</time>
      </trkpt>
      <trkpt lat="42.739134" lon="-7.275821">
        <ele>615.896</ele>
        <time>2021-07-14T07:57:45Z</time>
      </trkpt>
      <trkpt lat="42.739020" lon="-7.275393">
        <ele>615.823</ele>
        <time>2021-07-14T07:57:55Z</time>
      </trkpt>
      <trkpt lat="42.738895" lon="-7.275029">
        <ele>615.891</ele>
        <time>2021-07-14T07:58:05Z</time>
      </trkpt>
      <trkpt lat="42.738784" lon="-7.274711">
        <ele>615.819</ele>
        <time>2021-07-14T07:58:15Z</time>
      </trkpt>
      <trkpt lat="42.738659" lon="-7.274425">
        <ele>618.209</ele>
        <time>2021-07-14T07:58:26Z</time>
      </trkpt>
      <trkpt lat="42.738593" lon="-7.274269">
        <ele>618.219</ele>
        <time>2021-07-14T07:58:33Z</time>
      </trkpt>
      <trkpt lat="42.738515" lon="-7.273929">
        <ele>619.708</ele>
        <time>2021-07-14T07:58:43Z</time>
      </trkpt>
      <trkpt lat="42.738521" lon="-7.273609">
        <ele>620.128</ele>
        <time>2021-07-14T07:58:50Z</time>
      </trkpt>
      <trkpt lat="42.738628" lon="-7.273223">
        <ele>619.710</ele>
        <time>2021-07-14T07:58:58Z</time>
      </trkpt>
      <trkpt lat="42.738807" lon="-7.272815">
        <ele>617.717</ele>
        <time>2021-07-14T07:59:07Z</time>
      </trkpt>
      <trkpt lat="42.738966" lon="-7.272506">
        <ele>616.397</ele>
        <time>2021-07-14T07:59:13Z</time>
      </trkpt>
      <trkpt lat="42.739034" lon="-7.272410">
        <ele>615.811</ele>
        <time>2021-07-14T07:59:15Z</time>
      </trkpt>
      <trkpt lat="42.739073" lon="-7.272368">
        <ele>615.379</ele>
        <time>2021-07-14T07:59:16Z</time>
      </trkpt>
      <trkpt lat="42.739117" lon="-7.272326">
        <ele>615.386</ele>
        <time>2021-07-14T07:59:17Z</time>
      </trkpt>
      <trkpt lat="42.739168" lon="-7.272285">
        <ele>614.974</ele>
        <time>2021-07-14T07:59:18Z</time>
      </trkpt>
      <trkpt lat="42.739225" lon="-7.272247">
        <ele>614.939</ele>
        <time>2021-07-14T07:59:19Z</time>
      </trkpt>
      <trkpt lat="42.739278" lon="-7.272218">
        <ele>614.401</ele>
        <time>2021-07-14T07:59:20Z</time>
      </trkpt>
      <trkpt lat="42.739788" lon="-7.271979">
        <ele>612.021</ele>
        <time>2021-07-14T07:59:28Z</time>
      </trkpt>
      <trkpt lat="42.740047" lon="-7.271855">
        <ele>610.508</ele>
        <time>2021-07-14T07:59:33Z</time>
      </trkpt>
      <trkpt lat="42.740392" lon="-7.271729">
        <ele>607.290</ele>
        <time>2021-07-14T07:59:39Z</time>
      </trkpt>
      <trkpt lat="42.740459" lon="-7.271717">
        <ele>606.752</ele>
        <time>2021-07-14T07:59:40Z</time>
      </trkpt>
      <trkpt lat="42.740587" lon="-7.271716">
        <ele>606.299</ele>
        <time>2021-07-14T07:59:42Z</time>
      </trkpt>
      <trkpt lat="42.740674" lon="-7.271737">
        <ele>605.739</ele>
        <time>2021-07-14T07:59:43Z</time>
      </trkpt>
      <trkpt lat="42.740747" lon="-7.271768">
        <ele>605.293</ele>
        <time>2021-07-14T07:59:44Z</time>
      </trkpt>
      <trkpt lat="42.740819" lon="-7.271817">
        <ele>604.871</ele>
        <time>2021-07-14T07:59:45Z</time>
      </trkpt>
      <trkpt lat="42.740918" lon="-7.271915">
        <ele>604.358</ele>
        <time>2021-07-14T07:59:47Z</time>
      </trkpt>
      <trkpt lat="42.741008" lon="-7.272057">
        <ele>603.836</ele>
        <time>2021-07-14T07:59:48Z</time>
      </trkpt>
      <trkpt lat="42.741065" lon="-7.272179">
        <ele>603.394</ele>
        <time>2021-07-14T07:59:50Z</time>
      </trkpt>
      <trkpt lat="42.741108" lon="-7.272327">
        <ele>603.357</ele>
        <time>2021-07-14T07:59:51Z</time>
      </trkpt>
      <trkpt lat="42.741239" lon="-7.272734">
        <ele>603.322</ele>
        <time>2021-07-14T07:59:56Z</time>
      </trkpt>
      <trkpt lat="42.741285" lon="-7.272822">
        <ele>603.308</ele>
        <time>2021-07-14T07:59:58Z</time>
      </trkpt>
      <trkpt lat="42.741410" lon="-7.272970">
        <ele>603.816</ele>
        <time>2021-07-14T08:00:01Z</time>
      </trkpt>
      <trkpt lat="42.741467" lon="-7.273013">
        <ele>603.898</ele>
        <time>2021-07-14T08:00:03Z</time>
      </trkpt>
      <trkpt lat="42.741697" lon="-7.273088">
        <ele>605.235</ele>
        <time>2021-07-14T08:00:09Z</time>
      </trkpt>
      <trkpt lat="42.741931" lon="-7.273030">
        <ele>607.265</ele>
        <time>2021-07-14T08:00:18Z</time>
      </trkpt>
      <trkpt lat="42.742031" lon="-7.273000">
        <ele>608.189</ele>
        <time>2021-07-14T08:00:24Z</time>
      </trkpt>
      <trkpt lat="42.742180" lon="-7.272957">
        <ele>610.597</ele>
        <time>2021-07-14T08:00:32Z</time>
      </trkpt>
      <trkpt lat="42.742362" lon="-7.272915">
        <ele>613.454</ele>
        <time>2021-07-14T08:00:42Z</time>
      </trkpt>
      <trkpt lat="42.742532" lon="-7.272878">
        <ele>616.842</ele>
        <time>2021-07-14T08:00:51Z</time>
      </trkpt>
      <trkpt lat="42.742716" lon="-7.272863">
        <ele>621.696</ele>
        <time>2021-07-14T08:01:01Z</time>
      </trkpt>
      <trkpt lat="42.742912" lon="-7.272876">
        <ele>626.931</ele>
        <time>2021-07-14T08:01:12Z</time>
      </trkpt>
      <trkpt lat="42.743066" lon="-7.272876">
        <ele>629.824</ele>
        <time>2021-07-14T08:01:21Z</time>
      </trkpt>
      <trkpt lat="42.743194" lon="-7.272862">
        <ele>630.208</ele>
        <time>2021-07-14T08:01:30Z</time>
      </trkpt>
      <trkpt lat="42.743315" lon="-7.272788">
        <ele>625.446</ele>
        <time>2021-07-14T08:01:37Z</time>
      </trkpt>
      <trkpt lat="42.743497" lon="-7.272678">
        <ele>621.698</ele>
        <time>2021-07-14T08:01:48Z</time>
      </trkpt>
      <trkpt lat="42.743633" lon="-7.272492">
        <ele>621.165</ele>
        <time>2021-07-14T08:01:58Z</time>
      </trkpt>
      <trkpt lat="42.743731" lon="-7.272275">
        <ele>622.155</ele>
        <time>2021-07-14T08:02:08Z</time>
      </trkpt>
      <trkpt lat="42.743805" lon="-7.272009">
        <ele>623.069</ele>
        <time>2021-07-14T08:02:18Z</time>
      </trkpt>
      <trkpt lat="42.743894" lon="-7.271720">
        <ele>623.037</ele>
        <time>2021-07-14T08:02:27Z</time>
      </trkpt>
      <trkpt lat="42.744093" lon="-7.271434">
        <ele>623.094</ele>
        <time>2021-07-14T08:02:37Z</time>
      </trkpt>
      <trkpt lat="42.744339" lon="-7.271235">
        <ele>624.052</ele>
        <time>2021-07-14T08:02:45Z</time>
      </trkpt>
      <trkpt lat="42.744382" lon="-7.271219">
        <ele>624.531</ele>
        <time>2021-07-14T08:02:46Z</time>
      </trkpt>
      <trkpt lat="42.744732" lon="-7.271114">
        <ele>624.061</ele>
        <time>2021-07-14T08:02:53Z</time>
      </trkpt>
      <trkpt lat="42.745153" lon="-7.270917">
        <ele>622.507</ele>
        <time>2021-07-14T08:03:00Z</time>
      </trkpt>
      <trkpt lat="42.745748" lon="-7.269423">
        <ele>616.808</ele>
        <time>2021-07-14T08:03:19Z</time>
      </trkpt>
      <trkpt lat="42.745747" lon="-7.269365">
        <ele>617.380</ele>
        <time>2021-07-14T08:03:20Z</time>
      </trkpt>
      <trkpt lat="42.745719" lon="-7.268989">
        <ele>617.782</ele>
        <time>2021-07-14T08:03:27Z</time>
      </trkpt>
      <trkpt lat="42.745684" lon="-7.268680">
        <ele>619.789</ele>
        <time>2021-07-14T08:03:36Z</time>
      </trkpt>
      <trkpt lat="42.745682" lon="-7.268407">
        <ele>622.559</ele>
        <time>2021-07-14T08:03:46Z</time>
      </trkpt>
      <trkpt lat="42.745715" lon="-7.268193">
        <ele>623.573</ele>
        <time>2021-07-14T08:03:54Z</time>
      </trkpt>
      <trkpt lat="42.745808" lon="-7.267929">
        <ele>623.081</ele>
        <time>2021-07-14T08:04:04Z</time>
      </trkpt>
      <trkpt lat="42.745949" lon="-7.267716">
        <ele>622.578</ele>
        <time>2021-07-14T08:04:14Z</time>
      </trkpt>
      <trkpt lat="42.746119" lon="-7.267540">
        <ele>623.536</ele>
        <time>2021-07-14T08:04:24Z</time>
      </trkpt>
      <trkpt lat="42.746301" lon="-7.267358">
        <ele>624.027</ele>
        <time>2021-07-14T08:04:35Z</time>
      </trkpt>
      <trkpt lat="42.746493" lon="-7.267169">
        <ele>624.068</ele>
        <time>2021-07-14T08:04:46Z</time>
      </trkpt>
      <trkpt lat="42.746688" lon="-7.266965">
        <ele>624.514</ele>
        <time>2021-07-14T08:04:57Z</time>
      </trkpt>
      <trkpt lat="42.746850" lon="-7.266784">
        <ele>625.408</ele>
        <time>2021-07-14T08:05:07Z</time>
      </trkpt>
      <trkpt lat="42.746959" lon="-7.266663">
        <ele>626.469</ele>
        <time>2021-07-14T08:05:14Z</time>
      </trkpt>
      <trkpt lat="42.747153" lon="-7.266437">
        <ele>625.481</ele>
        <time>2021-07-14T08:05:24Z</time>
      </trkpt>
      <trkpt lat="42.747342" lon="-7.266216">
        <ele>626.968</ele>
        <time>2021-07-14T08:05:34Z</time>
      </trkpt>
      <trkpt lat="42.747572" lon="-7.265973">
        <ele>626.948</ele>
        <time>2021-07-14T08:05:44Z</time>
      </trkpt>
      <trkpt lat="42.747787" lon="-7.265761">
        <ele>626.442</ele>
        <time>2021-07-14T08:05:53Z</time>
      </trkpt>
      <trkpt lat="42.748048" lon="-7.265561">
        <ele>627.460</ele>
        <time>2021-07-14T08:06:03Z</time>
      </trkpt>
      <trkpt lat="42.748289" lon="-7.265397">
        <ele>628.877</ele>
        <time>2021-07-14T08:06:13Z</time>
      </trkpt>
      <trkpt lat="42.748487" lon="-7.265251">
        <ele>629.865</ele>
        <time>2021-07-14T08:06:22Z</time>
      </trkpt>
      <trkpt lat="42.748670" lon="-7.265103">
        <ele>629.373</ele>
        <time>2021-07-14T08:06:30Z</time>
      </trkpt>
      <trkpt lat="42.748938" lon="-7.264898">
        <ele>629.385</ele>
        <time>2021-07-14T08:06:40Z</time>
      </trkpt>
      <trkpt lat="42.749154" lon="-7.264713">
        <ele>629.813</ele>
        <time>2021-07-14T08:06:49Z</time>
      </trkpt>
      <trkpt lat="42.749429" lon="-7.264372">
        <ele>629.808</ele>
        <time>2021-07-14T08:07:01Z</time>
      </trkpt>
      <trkpt lat="42.749592" lon="-7.264117">
        <ele>629.814</ele>
        <time>2021-07-14T08:07:10Z</time>
      </trkpt>
      <trkpt lat="42.749778" lon="-7.263761">
        <ele>629.336</ele>
        <time>2021-07-14T08:07:20Z</time>
      </trkpt>
      <trkpt lat="42.749899" lon="-7.263447">
        <ele>629.873</ele>
        <time>2021-07-14T08:07:29Z</time>
      </trkpt>
      <trkpt lat="42.749901" lon="-7.263422">
        <ele>629.863</ele>
        <time>2021-07-14T08:07:30Z</time>
      </trkpt>
      <trkpt lat="42.749900" lon="-7.263401">
        <ele>629.827</ele>
        <time>2021-07-14T08:07:31Z</time>
      </trkpt>
      <trkpt lat="42.749901" lon="-7.263376">
        <ele>630.765</ele>
        <time>2021-07-14T08:07:37Z</time>
      </trkpt>
      <trkpt lat="42.749922" lon="-7.263380">
        <ele>633.192</ele>
        <time>2021-07-14T08:07:53Z</time>
      </trkpt>
      <trkpt lat="42.749915" lon="-7.263416">
        <ele>633.670</ele>
        <time>2021-07-14T08:08:16Z</time>
      </trkpt>
      <trkpt lat="42.749930" lon="-7.263381">
        <ele>633.116</ele>
        <time>2021-07-14T08:08:40Z</time>
      </trkpt>
      <trkpt lat="42.749930" lon="-7.263409">
        <ele>634.676</ele>
        <time>2021-07-14T08:08:59Z</time>
      </trkpt>
      <trkpt lat="42.749898" lon="-7.263410">
        <ele>632.213</ele>
        <time>2021-07-14T08:09:20Z</time>
      </trkpt>
      <trkpt lat="42.749922" lon="-7.263411">
        <ele>631.208</ele>
        <time>2021-07-14T08:09:37Z</time>
      </trkpt>
      <trkpt lat="42.749904" lon="-7.263407">
        <ele>634.688</ele>
        <time>2021-07-14T08:10:01Z</time>
      </trkpt>
      <trkpt lat="42.749926" lon="-7.263398">
        <ele>634.180</ele>
        <time>2021-07-14T08:10:18Z</time>
      </trkpt>
      <trkpt lat="42.749922" lon="-7.263423">
        <ele>630.777</ele>
        <time>2021-07-14T08:10:38Z</time>
      </trkpt>
      <trkpt lat="42.749907" lon="-7.263411">
        <ele>634.127</ele>
        <time>2021-07-14T08:10:55Z</time>
      </trkpt>
      <trkpt lat="42.749903" lon="-7.263392">
        <ele>637.071</ele>
        <time>2021-07-14T08:11:14Z</time>
      </trkpt>
      <trkpt lat="42.749899" lon="-7.263412">
        <ele>635.529</ele>
        <time>2021-07-14T08:11:28Z</time>
      </trkpt>
      <trkpt lat="42.749884" lon="-7.263402">
        <ele>637.446</ele>
        <time>2021-07-14T08:11:52Z</time>
      </trkpt>
      <trkpt lat="42.749916" lon="-7.263431">
        <ele>637.094</ele>
        <time>2021-07-14T08:12:06Z</time>
      </trkpt>
      <trkpt lat="42.749913" lon="-7.263442">
        <ele>636.043</ele>
        <time>2021-07-14T08:12:27Z</time>
      </trkpt>
      <trkpt lat="42.749885" lon="-7.263436">
        <ele>639.864</ele>
        <time>2021-07-14T08:12:45Z</time>
      </trkpt>
      <trkpt lat="42.749889" lon="-7.263458">
        <ele>639.810</ele>
        <time>2021-07-14T08:13:03Z</time>
      </trkpt>
      <trkpt lat="42.749901" lon="-7.263439">
        <ele>639.408</ele>
        <time>2021-07-14T08:13:14Z</time>
      </trkpt>
      <trkpt lat="42.749909" lon="-7.263428">
        <ele>640.381</ele>
        <time>2021-07-14T08:13:27Z</time>
      </trkpt>
      <trkpt lat="42.749904" lon="-7.263436">
        <ele>640.373</ele>
        <time>2021-07-14T08:13:44Z</time>
      </trkpt>
      <trkpt lat="42.749907" lon="-7.263476">
        <ele>638.930</ele>
        <time>2021-07-14T08:14:03Z</time>
      </trkpt>
      <trkpt lat="42.749891" lon="-7.263442">
        <ele>637.030</ele>
        <time>2021-07-14T08:14:22Z</time>
      </trkpt>
      <trkpt lat="42.749878" lon="-7.263450">
        <ele>634.664</ele>
        <time>2021-07-14T08:14:37Z</time>
      </trkpt>
      <trkpt lat="42.749865" lon="-7.263430">
        <ele>634.112</ele>
        <time>2021-07-14T08:14:48Z</time>
      </trkpt>
      <trkpt lat="42.749921" lon="-7.263442">
        <ele>636.039</ele>
        <time>2021-07-14T08:15:05Z</time>
      </trkpt>
      <trkpt lat="42.749907" lon="-7.263430">
        <ele>634.627</ele>
        <time>2021-07-14T08:15:23Z</time>
      </trkpt>
      <trkpt lat="42.749908" lon="-7.263435">
        <ele>636.514</ele>
        <time>2021-07-14T08:15:39Z</time>
      </trkpt>
      <trkpt lat="42.749930" lon="-7.263405">
        <ele>638.954</ele>
        <time>2021-07-14T08:15:54Z</time>
      </trkpt>
      <trkpt lat="42.749940" lon="-7.263409">
        <ele>638.409</ele>
        <time>2021-07-14T08:16:05Z</time>
      </trkpt>
      <trkpt lat="42.749950" lon="-7.263423">
        <ele>635.508</ele>
        <time>2021-07-14T08:16:17Z</time>
      </trkpt>
      <trkpt lat="42.749931" lon="-7.263398">
        <ele>636.088</ele>
        <time>2021-07-14T08:16:36Z</time>
      </trkpt>
      <trkpt lat="42.749916" lon="-7.263398">
        <ele>634.610</ele>
        <time>2021-07-14T08:16:50Z</time>
      </trkpt>
      <trkpt lat="42.749908" lon="-7.263397">
        <ele>634.177</ele>
        <time>2021-07-14T08:17:07Z</time>
      </trkpt>
      <trkpt lat="42.749907" lon="-7.263412">
        <ele>632.647</ele>
        <time>2021-07-14T08:17:20Z</time>
      </trkpt>
      <trkpt lat="42.749888" lon="-7.263421">
        <ele>630.751</ele>
        <time>2021-07-14T08:17:34Z</time>
      </trkpt>
      <trkpt lat="42.749903" lon="-7.263451">
        <ele>628.369</ele>
        <time>2021-07-14T08:17:48Z</time>
      </trkpt>
      <trkpt lat="42.749930" lon="-7.263414">
        <ele>634.116</ele>
        <time>2021-07-14T08:18:09Z</time>
      </trkpt>
      <trkpt lat="42.749924" lon="-7.263401">
        <ele>635.024</ele>
        <time>2021-07-14T08:18:26Z</time>
      </trkpt>
      <trkpt lat="42.749944" lon="-7.263398">
        <ele>636.033</ele>
        <time>2021-07-14T08:18:45Z</time>
      </trkpt>
      <trkpt lat="42.749910" lon="-7.263399">
        <ele>633.123</ele>
        <time>2021-07-14T08:19:01Z</time>
      </trkpt>
      <trkpt lat="42.749911" lon="-7.263444">
        <ele>630.215</ele>
        <time>2021-07-14T08:19:18Z</time>
      </trkpt>
      <trkpt lat="42.749951" lon="-7.263422">
        <ele>632.208</ele>
        <time>2021-07-14T08:19:33Z</time>
      </trkpt>
      <trkpt lat="42.749922" lon="-7.263410">
        <ele>632.230</ele>
        <time>2021-07-14T08:19:46Z</time>
      </trkpt>
      <trkpt lat="42.749890" lon="-7.263416">
        <ele>631.792</ele>
        <time>2021-07-14T08:19:58Z</time>
      </trkpt>
      <trkpt lat="42.749905" lon="-7.263420">
        <ele>635.079</ele>
        <time>2021-07-14T08:20:10Z</time>
      </trkpt>
      <trkpt lat="42.749918" lon="-7.263430">
        <ele>636.099</ele>
        <time>2021-07-14T08:20:21Z</time>
      </trkpt>
      <trkpt lat="42.749932" lon="-7.263410">
        <ele>636.083</ele>
        <time>2021-07-14T08:20:36Z</time>
      </trkpt>
      <trkpt lat="42.749920" lon="-7.263404">
        <ele>634.131</ele>
        <time>2021-07-14T08:20:48Z</time>
      </trkpt>
      <trkpt lat="42.749902" lon="-7.263418">
        <ele>635.078</ele>
        <time>2021-07-14T08:21:00Z</time>
      </trkpt>
      <trkpt lat="42.749906" lon="-7.263410">
        <ele>637.466</ele>
        <time>2021-07-14T08:21:15Z</time>
      </trkpt>
      <trkpt lat="42.749888" lon="-7.263413">
        <ele>634.125</ele>
        <time>2021-07-14T08:21:29Z</time>
      </trkpt>
      <trkpt lat="42.749891" lon="-7.263370">
        <ele>635.026</ele>
        <time>2021-07-14T08:21:41Z</time>
      </trkpt>
      <trkpt lat="42.749910" lon="-7.263420">
        <ele>637.408</ele>
        <time>2021-07-14T08:21:57Z</time>
      </trkpt>
      <trkpt lat="42.749922" lon="-7.263434">
        <ele>637.008</ele>
        <time>2021-07-14T08:22:10Z</time>
      </trkpt>
      <trkpt lat="42.749907" lon="-7.263443">
        <ele>637.969</ele>
        <time>2021-07-14T08:22:26Z</time>
      </trkpt>
      <trkpt lat="42.749911" lon="-7.263460">
        <ele>633.631</ele>
        <time>2021-07-14T08:22:40Z</time>
      </trkpt>
      <trkpt lat="42.749902" lon="-7.263422">
        <ele>634.698</ele>
        <time>2021-07-14T08:22:56Z</time>
      </trkpt>
      <trkpt lat="42.749901" lon="-7.263401">
        <ele>636.518</ele>
        <time>2021-07-14T08:23:08Z</time>
      </trkpt>
      <trkpt lat="42.749895" lon="-7.263411">
        <ele>634.162</ele>
        <time>2021-07-14T08:23:22Z</time>
      </trkpt>
      <trkpt lat="42.749874" lon="-7.263389">
        <ele>634.170</ele>
        <time>2021-07-14T08:23:40Z</time>
      </trkpt>
      <trkpt lat="42.749887" lon="-7.263409">
        <ele>634.617</ele>
        <time>2021-07-14T08:23:53Z</time>
      </trkpt>
      <trkpt lat="42.749889" lon="-7.263405">
        <ele>634.185</ele>
        <time>2021-07-14T08:24:04Z</time>
      </trkpt>
      <trkpt lat="42.749891" lon="-7.263409">
        <ele>636.089</ele>
        <time>2021-07-14T08:24:23Z</time>
      </trkpt>
      <trkpt lat="42.749906" lon="-7.263397">
        <ele>630.206</ele>
        <time>2021-07-14T08:24:41Z</time>
      </trkpt>
      <trkpt lat="42.749894" lon="-7.263384">
        <ele>626.426</ele>
        <time>2021-07-14T08:24:58Z</time>
      </trkpt>
      <trkpt lat="42.749874" lon="-7.263372">
        <ele>624.508</ele>
        <time>2021-07-14T08:25:09Z</time>
      </trkpt>
      <trkpt lat="42.749891" lon="-7.263378">
        <ele>620.125</ele>
        <time>2021-07-14T08:25:23Z</time>
      </trkpt>
      <trkpt lat="42.749917" lon="-7.263391">
        <ele>629.377</ele>
        <time>2021-07-14T08:25:44Z</time>
      </trkpt>
      <trkpt lat="42.749891" lon="-7.263376">
        <ele>630.234</ele>
        <time>2021-07-14T08:26:01Z</time>
      </trkpt>
      <trkpt lat="42.749899" lon="-7.263389">
        <ele>630.774</ele>
        <time>2021-07-14T08:26:13Z</time>
      </trkpt>
      <trkpt lat="42.749886" lon="-7.263368">
        <ele>633.118</ele>
        <time>2021-07-14T08:26:29Z</time>
      </trkpt>
      <trkpt lat="42.749904" lon="-7.263384">
        <ele>632.236</ele>
        <time>2021-07-14T08:26:45Z</time>
      </trkpt>
      <trkpt lat="42.749927" lon="-7.263376">
        <ele>629.893</ele>
        <time>2021-07-14T08:26:58Z</time>
      </trkpt>
      <trkpt lat="42.749890" lon="-7.263372">
        <ele>631.281</ele>
        <time>2021-07-14T08:27:16Z</time>
      </trkpt>
      <trkpt lat="42.749902" lon="-7.263413">
        <ele>633.186</ele>
        <time>2021-07-14T08:27:32Z</time>
      </trkpt>
      <trkpt lat="42.749887" lon="-7.263403">
        <ele>634.160</ele>
        <time>2021-07-14T08:27:45Z</time>
      </trkpt>
      <trkpt lat="42.749925" lon="-7.263381">
        <ele>630.226</ele>
        <time>2021-07-14T08:28:03Z</time>
      </trkpt>
      <trkpt lat="42.749885" lon="-7.263379">
        <ele>629.308</ele>
        <time>2021-07-14T08:28:18Z</time>
      </trkpt>
      <trkpt lat="42.749899" lon="-7.263382">
        <ele>625.465</ele>
        <time>2021-07-14T08:28:34Z</time>
      </trkpt>
      <trkpt lat="42.749883" lon="-7.263387">
        <ele>625.417</ele>
        <time>2021-07-14T08:28:49Z</time>
      </trkpt>
      <trkpt lat="42.749856" lon="-7.263360">
        <ele>626.414</ele>
        <time>2021-07-14T08:29:04Z</time>
      </trkpt>
      <trkpt lat="42.749850" lon="-7.263368">
        <ele>628.374</ele>
        <time>2021-07-14T08:29:14Z</time>
      </trkpt>
      <trkpt lat="42.749841" lon="-7.263383">
        <ele>627.448</ele>
        <time>2021-07-14T08:29:24Z</time>
      </trkpt>
      <trkpt lat="42.749875" lon="-7.263381">
        <ele>628.386</ele>
        <time>2021-07-14T08:29:39Z</time>
      </trkpt>
      <trkpt lat="42.749884" lon="-7.263377">
        <ele>627.433</ele>
        <time>2021-07-14T08:29:50Z</time>
      </trkpt>
      <trkpt lat="42.749868" lon="-7.263366">
        <ele>625.431</ele>
        <time>2021-07-14T08:30:04Z</time>
      </trkpt>
      <trkpt lat="42.749861" lon="-7.263353">
        <ele>626.955</ele>
        <time>2021-07-14T08:30:20Z</time>
      </trkpt>
      <trkpt lat="42.749890" lon="-7.263374">
        <ele>625.907</ele>
        <time>2021-07-14T08:30:35Z</time>
      </trkpt>
      <trkpt lat="42.749893" lon="-7.263419">
        <ele>624.917</ele>
        <time>2021-07-14T08:30:51Z</time>
      </trkpt>
      <trkpt lat="42.749882" lon="-7.263411">
        <ele>626.408</ele>
        <time>2021-07-14T08:31:03Z</time>
      </trkpt>
      <trkpt lat="42.749885" lon="-7.263405">
        <ele>624.082</ele>
        <time>2021-07-14T08:31:16Z</time>
      </trkpt>
      <trkpt lat="42.749864" lon="-7.263399">
        <ele>624.514</ele>
        <time>2021-07-14T08:31:29Z</time>
      </trkpt>
      <trkpt lat="42.749869" lon="-7.263376">
        <ele>625.991</ele>
        <time>2021-07-14T08:31:42Z</time>
      </trkpt>
      <trkpt lat="42.749857" lon="-7.263355">
        <ele>623.551</ele>
        <time>2021-07-14T08:31:57Z</time>
      </trkpt>
      <trkpt lat="42.749870" lon="-7.263398">
        <ele>624.985</ele>
        <time>2021-07-14T08:32:15Z</time>
      </trkpt>
      <trkpt lat="42.749892" lon="-7.263386">
        <ele>626.443</ele>
        <time>2021-07-14T08:32:30Z</time>
      </trkpt>
      <trkpt lat="42.749901" lon="-7.263407">
        <ele>629.840</ele>
        <time>2021-07-14T08:32:43Z</time>
      </trkpt>
      <trkpt lat="42.749903" lon="-7.263403">
        <ele>626.988</ele>
        <time>2021-07-14T08:32:58Z</time>
      </trkpt>
      <trkpt lat="42.749917" lon="-7.263417">
        <ele>624.927</ele>
        <time>2021-07-14T08:33:13Z</time>
      </trkpt>
      <trkpt lat="42.749888" lon="-7.263429">
        <ele>628.368</ele>
        <time>2021-07-14T08:33:26Z</time>
      </trkpt>
      <trkpt lat="42.749875" lon="-7.263415">
        <ele>628.814</ele>
        <time>2021-07-14T08:33:42Z</time>
      </trkpt>
      <trkpt lat="42.749879" lon="-7.263407">
        <ele>630.708</ele>
        <time>2021-07-14T08:33:53Z</time>
      </trkpt>
      <trkpt lat="42.749879" lon="-7.263398">
        <ele>630.769</ele>
        <time>2021-07-14T08:34:05Z</time>
      </trkpt>
      <trkpt lat="42.749899" lon="-7.263370">
        <ele>629.821</ele>
        <time>2021-07-14T08:34:22Z</time>
      </trkpt>
      <trkpt lat="42.749909" lon="-7.263387">
        <ele>626.488</ele>
        <time>2021-07-14T08:34:36Z</time>
      </trkpt>
      <trkpt lat="42.749914" lon="-7.263398">
        <ele>626.938</ele>
        <time>2021-07-14T08:34:56Z</time>
      </trkpt>
      <trkpt lat="42.749891" lon="-7.263382">
        <ele>629.872</ele>
        <time>2021-07-14T08:35:10Z</time>
      </trkpt>
      <trkpt lat="42.749846" lon="-7.263355">
        <ele>626.950</ele>
        <time>2021-07-14T08:35:26Z</time>
      </trkpt>
      <trkpt lat="42.749878" lon="-7.263404">
        <ele>628.887</ele>
        <time>2021-07-14T08:35:41Z</time>
      </trkpt>
      <trkpt lat="42.749899" lon="-7.263407">
        <ele>628.335</ele>
        <time>2021-07-14T08:35:56Z</time>
      </trkpt>
      <trkpt lat="42.749888" lon="-7.263407">
        <ele>628.379</ele>
        <time>2021-07-14T08:36:12Z</time>
      </trkpt>
      <trkpt lat="42.749875" lon="-7.263409">
        <ele>629.805</ele>
        <time>2021-07-14T08:36:26Z</time>
      </trkpt>
      <trkpt lat="42.749879" lon="-7.263411">
        <ele>628.825</ele>
        <time>2021-07-14T08:36:41Z</time>
      </trkpt>
      <trkpt lat="42.749884" lon="-7.263411">
        <ele>629.308</ele>
        <time>2021-07-14T08:36:53Z</time>
      </trkpt>
      <trkpt lat="42.749898" lon="-7.263416">
        <ele>629.324</ele>
        <time>2021-07-14T08:37:04Z</time>
      </trkpt>
      <trkpt lat="42.749947" lon="-7.263362">
        <ele>629.896</ele>
        <time>2021-07-14T08:37:12Z</time>
      </trkpt>
      <trkpt lat="42.749957" lon="-7.263337">
        <ele>630.213</ele>
        <time>2021-07-14T08:37:19Z</time>
      </trkpt>
      <trkpt lat="42.749961" lon="-7.263322">
        <ele>630.253</ele>
        <time>2021-07-14T08:37:20Z</time>
      </trkpt>
      <trkpt lat="42.749969" lon="-7.263302">
        <ele>629.897</ele>
        <time>2021-07-14T08:37:21Z</time>
      </trkpt>
      <trkpt lat="42.749978" lon="-7.263284">
        <ele>629.835</ele>
        <time>2021-07-14T08:37:22Z</time>
      </trkpt>
      <trkpt lat="42.749988" lon="-7.263267">
        <ele>630.222</ele>
        <time>2021-07-14T08:37:23Z</time>
      </trkpt>
      <trkpt lat="42.749998" lon="-7.263243">
        <ele>629.870</ele>
        <time>2021-07-14T08:37:24Z</time>
      </trkpt>
      <trkpt lat="42.750008" lon="-7.263219">
        <ele>630.292</ele>
        <time>2021-07-14T08:37:25Z</time>
      </trkpt>
      <trkpt lat="42.750020" lon="-7.263194">
        <ele>629.873</ele>
        <time>2021-07-14T08:37:26Z</time>
      </trkpt>
      <trkpt lat="42.750085" lon="-7.263015">
        <ele>629.820</ele>
        <time>2021-07-14T08:37:32Z</time>
      </trkpt>
      <trkpt lat="42.750179" lon="-7.262760">
        <ele>630.208</ele>
        <time>2021-07-14T08:37:40Z</time>
      </trkpt>
      <trkpt lat="42.750304" lon="-7.262426">
        <ele>630.256</ele>
        <time>2021-07-14T08:37:50Z</time>
      </trkpt>
      <trkpt lat="42.750395" lon="-7.262207">
        <ele>630.788</ele>
        <time>2021-07-14T08:37:57Z</time>
      </trkpt>
      <trkpt lat="42.750546" lon="-7.261870">
        <ele>631.735</ele>
        <time>2021-07-14T08:38:06Z</time>
      </trkpt>
      <trkpt lat="42.750685" lon="-7.261602">
        <ele>632.695</ele>
        <time>2021-07-14T08:38:15Z</time>
      </trkpt>
      <trkpt lat="42.750800" lon="-7.261415">
        <ele>633.659</ele>
        <time>2021-07-14T08:38:23Z</time>
      </trkpt>
      <trkpt lat="42.750949" lon="-7.261225">
        <ele>635.527</ele>
        <time>2021-07-14T08:38:32Z</time>
      </trkpt>
      <trkpt lat="42.751102" lon="-7.261043">
        <ele>636.514</ele>
        <time>2021-07-14T08:38:41Z</time>
      </trkpt>
      <trkpt lat="42.751270" lon="-7.260835">
        <ele>638.922</ele>
        <time>2021-07-14T08:38:52Z</time>
      </trkpt>
      <trkpt lat="42.751400" lon="-7.260673">
        <ele>641.354</ele>
        <time>2021-07-14T08:39:01Z</time>
      </trkpt>
      <trkpt lat="42.751482" lon="-7.260541">
        <ele>642.356</ele>
        <time>2021-07-14T08:39:08Z</time>
      </trkpt>
      <trkpt lat="42.751567" lon="-7.260377">
        <ele>643.711</ele>
        <time>2021-07-14T08:39:16Z</time>
      </trkpt>
      <trkpt lat="42.751631" lon="-7.260172">
        <ele>645.608</ele>
        <time>2021-07-14T08:39:25Z</time>
      </trkpt>
      <trkpt lat="42.751678" lon="-7.259913">
        <ele>648.532</ele>
        <time>2021-07-14T08:39:35Z</time>
      </trkpt>
      <trkpt lat="42.751712" lon="-7.259621">
        <ele>650.444</ele>
        <time>2021-07-14T08:39:45Z</time>
      </trkpt>
      <trkpt lat="42.751739" lon="-7.259285">
        <ele>650.981</ele>
        <time>2021-07-14T08:39:57Z</time>
      </trkpt>
      <trkpt lat="42.751735" lon="-7.258965">
        <ele>651.981</ele>
        <time>2021-07-14T08:40:09Z</time>
      </trkpt>
      <trkpt lat="42.751695" lon="-7.258713">
        <ele>651.945</ele>
        <time>2021-07-14T08:40:19Z</time>
      </trkpt>
      <trkpt lat="42.751650" lon="-7.258543">
        <ele>652.353</ele>
        <time>2021-07-14T08:40:26Z</time>
      </trkpt>
      <trkpt lat="42.751578" lon="-7.258282">
        <ele>652.380</ele>
        <time>2021-07-14T08:40:37Z</time>
      </trkpt>
      <trkpt lat="42.751522" lon="-7.258078">
        <ele>653.398</ele>
        <time>2021-07-14T08:40:46Z</time>
      </trkpt>
      <trkpt lat="42.751462" lon="-7.257869">
        <ele>654.387</ele>
        <time>2021-07-14T08:40:55Z</time>
      </trkpt>
      <trkpt lat="42.751401" lon="-7.257671">
        <ele>655.742</ele>
        <time>2021-07-14T08:41:04Z</time>
      </trkpt>
      <trkpt lat="42.751336" lon="-7.257439">
        <ele>657.626</ele>
        <time>2021-07-14T08:41:14Z</time>
      </trkpt>
      <trkpt lat="42.751299" lon="-7.257258">
        <ele>659.108</ele>
        <time>2021-07-14T08:41:22Z</time>
      </trkpt>
      <trkpt lat="42.751278" lon="-7.256971">
        <ele>660.515</ele>
        <time>2021-07-14T08:41:34Z</time>
      </trkpt>
      <trkpt lat="42.751279" lon="-7.256786">
        <ele>661.067</ele>
        <time>2021-07-14T08:41:42Z</time>
      </trkpt>
      <trkpt lat="42.751305" lon="-7.256578">
        <ele>662.474</ele>
        <time>2021-07-14T08:41:52Z</time>
      </trkpt>
      <trkpt lat="42.751344" lon="-7.256385">
        <ele>663.434</ele>
        <time>2021-07-14T08:42:01Z</time>
      </trkpt>
      <trkpt lat="42.751398" lon="-7.256215">
        <ele>664.468</ele>
        <time>2021-07-14T08:42:10Z</time>
      </trkpt>
      <trkpt lat="42.751494" lon="-7.255982">
        <ele>665.896</ele>
        <time>2021-07-14T08:42:22Z</time>
      </trkpt>
      <trkpt lat="42.751563" lon="-7.255812">
        <ele>666.873</ele>
        <time>2021-07-14T08:42:32Z</time>
      </trkpt>
      <trkpt lat="42.751648" lon="-7.255645">
        <ele>667.791</ele>
        <time>2021-07-14T08:42:41Z</time>
      </trkpt>
      <trkpt lat="42.751742" lon="-7.255451">
        <ele>668.738</ele>
        <time>2021-07-14T08:42:52Z</time>
      </trkpt>
      <trkpt lat="42.751837" lon="-7.255261">
        <ele>670.170</ele>
        <time>2021-07-14T08:43:02Z</time>
      </trkpt>
      <trkpt lat="42.751916" lon="-7.255102">
        <ele>670.117</ele>
        <time>2021-07-14T08:43:10Z</time>
      </trkpt>
      <trkpt lat="42.752044" lon="-7.254884">
        <ele>670.608</ele>
        <time>2021-07-14T08:43:21Z</time>
      </trkpt>
      <trkpt lat="42.752170" lon="-7.254699">
        <ele>670.630</ele>
        <time>2021-07-14T08:43:31Z</time>
      </trkpt>
      <trkpt lat="42.752337" lon="-7.254507">
        <ele>671.182</ele>
        <time>2021-07-14T08:43:42Z</time>
      </trkpt>
      <trkpt lat="42.752532" lon="-7.254327">
        <ele>670.669</ele>
        <time>2021-07-14T08:43:53Z</time>
      </trkpt>
      <trkpt lat="42.752675" lon="-7.254210">
        <ele>670.619</ele>
        <time>2021-07-14T08:44:01Z</time>
      </trkpt>
      <trkpt lat="42.752875" lon="-7.254017">
        <ele>672.123</ele>
        <time>2021-07-14T08:44:12Z</time>
      </trkpt>
      <trkpt lat="42.753051" lon="-7.253837">
        <ele>673.041</ele>
        <time>2021-07-14T08:44:22Z</time>
      </trkpt>
      <trkpt lat="42.753237" lon="-7.253626">
        <ele>673.588</ele>
        <time>2021-07-14T08:44:33Z</time>
      </trkpt>
      <trkpt lat="42.753371" lon="-7.253432">
        <ele>674.956</ele>
        <time>2021-07-14T08:44:42Z</time>
      </trkpt>
      <trkpt lat="42.753506" lon="-7.253180">
        <ele>675.429</ele>
        <time>2021-07-14T08:44:52Z</time>
      </trkpt>
      <trkpt lat="42.753617" lon="-7.252911">
        <ele>676.400</ele>
        <time>2021-07-14T08:45:02Z</time>
      </trkpt>
      <trkpt lat="42.753704" lon="-7.252643">
        <ele>678.320</ele>
        <time>2021-07-14T08:45:12Z</time>
      </trkpt>
      <trkpt lat="42.753776" lon="-7.252350">
        <ele>680.208</ele>
        <time>2021-07-14T08:45:22Z</time>
      </trkpt>
      <trkpt lat="42.753815" lon="-7.252088">
        <ele>682.189</ele>
        <time>2021-07-14T08:45:31Z</time>
      </trkpt>
      <trkpt lat="42.753830" lon="-7.251811">
        <ele>683.151</ele>
        <time>2021-07-14T08:45:40Z</time>
      </trkpt>
      <trkpt lat="42.753821" lon="-7.251437">
        <ele>682.648</ele>
        <time>2021-07-14T08:45:52Z</time>
      </trkpt>
      <trkpt lat="42.753795" lon="-7.251103">
        <ele>680.758</ele>
        <time>2021-07-14T08:46:03Z</time>
      </trkpt>
      <trkpt lat="42.753782" lon="-7.250794">
        <ele>680.262</ele>
        <time>2021-07-14T08:46:13Z</time>
      </trkpt>
      <trkpt lat="42.753757" lon="-7.250450">
        <ele>681.770</ele>
        <time>2021-07-14T08:46:24Z</time>
      </trkpt>
      <trkpt lat="42.753720" lon="-7.250042">
        <ele>683.687</ele>
        <time>2021-07-14T08:46:37Z</time>
      </trkpt>
      <trkpt lat="42.753697" lon="-7.249705">
        <ele>683.635</ele>
        <time>2021-07-14T08:46:48Z</time>
      </trkpt>
      <trkpt lat="42.753640" lon="-7.249338">
        <ele>684.156</ele>
        <time>2021-07-14T08:47:00Z</time>
      </trkpt>
      <trkpt lat="42.753572" lon="-7.249045">
        <ele>683.659</ele>
        <time>2021-07-14T08:47:09Z</time>
      </trkpt>
      <trkpt lat="42.753486" lon="-7.248727">
        <ele>682.614</ele>
        <time>2021-07-14T08:47:19Z</time>
      </trkpt>
      <trkpt lat="42.753380" lon="-7.248440">
        <ele>683.608</ele>
        <time>2021-07-14T08:47:28Z</time>
      </trkpt>
      <trkpt lat="42.753229" lon="-7.248120">
        <ele>684.172</ele>
        <time>2021-07-14T08:47:37Z</time>
      </trkpt>
      <trkpt lat="42.753085" lon="-7.247865">
        <ele>682.644</ele>
        <time>2021-07-14T08:47:45Z</time>
      </trkpt>
      <trkpt lat="42.752965" lon="-7.247655">
        <ele>682.671</ele>
        <time>2021-07-14T08:47:54Z</time>
      </trkpt>
      <trkpt lat="42.752939" lon="-7.247587">
        <ele>682.161</ele>
        <time>2021-07-14T08:48:02Z</time>
      </trkpt>
      <trkpt lat="42.752801" lon="-7.247357">
        <ele>681.295</ele>
        <time>2021-07-14T08:48:09Z</time>
      </trkpt>
      <trkpt lat="42.752649" lon="-7.247086">
        <ele>680.713</ele>
        <time>2021-07-14T08:48:17Z</time>
      </trkpt>
      <trkpt lat="42.752493" lon="-7.246712">
        <ele>680.220</ele>
        <time>2021-07-14T08:48:25Z</time>
      </trkpt>
      <trkpt lat="42.752476" lon="-7.246658">
        <ele>679.758</ele>
        <time>2021-07-14T08:48:26Z</time>
      </trkpt>
      <trkpt lat="42.752419" lon="-7.246165">
        <ele>678.894</ele>
        <time>2021-07-14T08:48:34Z</time>
      </trkpt>
      <trkpt lat="42.752445" lon="-7.245608">
        <ele>677.357</ele>
        <time>2021-07-14T08:48:41Z</time>
      </trkpt>
      <trkpt lat="42.752491" lon="-7.244983">
        <ele>674.522</ele>
        <time>2021-07-14T08:48:49Z</time>
      </trkpt>
      <trkpt lat="42.752513" lon="-7.244821">
        <ele>673.508</ele>
        <time>2021-07-14T08:48:51Z</time>
      </trkpt>
      <trkpt lat="42.752530" lon="-7.244746">
        <ele>672.596</ele>
        <time>2021-07-14T08:48:52Z</time>
      </trkpt>
      <trkpt lat="42.752574" lon="-7.244609">
        <ele>670.678</ele>
        <time>2021-07-14T08:48:54Z</time>
      </trkpt>
      <trkpt lat="42.752604" lon="-7.244546">
        <ele>669.785</ele>
        <time>2021-07-14T08:48:55Z</time>
      </trkpt>
      <trkpt lat="42.752639" lon="-7.244480">
        <ele>669.295</ele>
        <time>2021-07-14T08:48:56Z</time>
      </trkpt>
      <trkpt lat="42.752684" lon="-7.244413">
        <ele>668.219</ele>
        <time>2021-07-14T08:48:57Z</time>
      </trkpt>
      <trkpt lat="42.752732" lon="-7.244351">
        <ele>667.777</ele>
        <time>2021-07-14T08:48:58Z</time>
      </trkpt>
      <trkpt lat="42.752785" lon="-7.244292">
        <ele>667.244</ele>
        <time>2021-07-14T08:48:59Z</time>
      </trkpt>
      <trkpt lat="42.752846" lon="-7.244240">
        <ele>666.822</ele>
        <time>2021-07-14T08:49:00Z</time>
      </trkpt>
      <trkpt lat="42.752912" lon="-7.244198">
        <ele>666.382</ele>
        <time>2021-07-14T08:49:01Z</time>
      </trkpt>
      <trkpt lat="42.752977" lon="-7.244168">
        <ele>665.843</ele>
        <time>2021-07-14T08:49:02Z</time>
      </trkpt>
      <trkpt lat="42.753042" lon="-7.244147">
        <ele>665.317</ele>
        <time>2021-07-14T08:49:03Z</time>
      </trkpt>
      <trkpt lat="42.753108" lon="-7.244132">
        <ele>664.808</ele>
        <time>2021-07-14T08:49:04Z</time>
      </trkpt>
      <trkpt lat="42.753172" lon="-7.244123">
        <ele>663.915</ele>
        <time>2021-07-14T08:49:05Z</time>
      </trkpt>
      <trkpt lat="42.753237" lon="-7.244121">
        <ele>663.427</ele>
        <time>2021-07-14T08:49:06Z</time>
      </trkpt>
      <trkpt lat="42.753304" lon="-7.244123">
        <ele>662.994</ele>
        <time>2021-07-14T08:49:07Z</time>
      </trkpt>
      <trkpt lat="42.753368" lon="-7.244132">
        <ele>662.444</ele>
        <time>2021-07-14T08:49:08Z</time>
      </trkpt>
      <trkpt lat="42.753687" lon="-7.244206">
        <ele>660.048</ele>
        <time>2021-07-14T08:49:14Z</time>
      </trkpt>
      <trkpt lat="42.753929" lon="-7.244272">
        <ele>658.136</ele>
        <time>2021-07-14T08:49:21Z</time>
      </trkpt>
      <trkpt lat="42.754014" lon="-7.244283">
        <ele>658.153</ele>
        <time>2021-07-14T08:49:24Z</time>
      </trkpt>
      <trkpt lat="42.754032" lon="-7.244267">
        <ele>657.631</ele>
        <time>2021-07-14T08:49:25Z</time>
      </trkpt>
      <trkpt lat="42.754050" lon="-7.244238">
        <ele>657.694</ele>
        <time>2021-07-14T08:49:26Z</time>
      </trkpt>
      <trkpt lat="42.754066" lon="-7.244201">
        <ele>657.657</ele>
        <time>2021-07-14T08:49:27Z</time>
      </trkpt>
      <trkpt lat="42.754081" lon="-7.244159">
        <ele>657.622</ele>
        <time>2021-07-14T08:49:28Z</time>
      </trkpt>
      <trkpt lat="42.754190" lon="-7.243830">
        <ele>657.608</ele>
        <time>2021-07-14T08:49:36Z</time>
      </trkpt>
      <trkpt lat="42.754291" lon="-7.243694">
        <ele>658.656</ele>
        <time>2021-07-14T08:49:43Z</time>
      </trkpt>
      <trkpt lat="42.754311" lon="-7.243659">
        <ele>658.618</ele>
        <time>2021-07-14T08:49:45Z</time>
      </trkpt>
      <trkpt lat="42.754314" lon="-7.243620">
        <ele>659.125</ele>
        <time>2021-07-14T08:49:51Z</time>
      </trkpt>
      <trkpt lat="42.754326" lon="-7.243625">
        <ele>659.135</ele>
        <time>2021-07-14T08:50:10Z</time>
      </trkpt>
      <trkpt lat="42.754341" lon="-7.243606">
        <ele>659.689</ele>
        <time>2021-07-14T08:50:20Z</time>
      </trkpt>
      <trkpt lat="42.754337" lon="-7.243588">
        <ele>660.567</ele>
        <time>2021-07-14T08:50:27Z</time>
      </trkpt>
      <trkpt lat="42.754347" lon="-7.243601">
        <ele>660.034</ele>
        <time>2021-07-14T08:50:43Z</time>
      </trkpt>
      <trkpt lat="42.754342" lon="-7.243593">
        <ele>660.512</ele>
        <time>2021-07-14T08:50:52Z</time>
      </trkpt>
      <trkpt lat="42.754331" lon="-7.243607">
        <ele>660.049</ele>
        <time>2021-07-14T08:51:06Z</time>
      </trkpt>
      <trkpt lat="42.754325" lon="-7.243615">
        <ele>659.602</ele>
        <time>2021-07-14T08:51:23Z</time>
      </trkpt>
      <trkpt lat="42.754330" lon="-7.243609">
        <ele>658.622</ele>
        <time>2021-07-14T08:51:41Z</time>
      </trkpt>
      <trkpt lat="42.754350" lon="-7.243596">
        <ele>659.608</ele>
        <time>2021-07-14T08:52:00Z</time>
      </trkpt>
      <trkpt lat="42.754341" lon="-7.243595">
        <ele>660.531</ele>
        <time>2021-07-14T08:52:12Z</time>
      </trkpt>
      <trkpt lat="42.754339" lon="-7.243594">
        <ele>660.043</ele>
        <time>2021-07-14T08:52:24Z</time>
      </trkpt>
      <trkpt lat="42.754337" lon="-7.243592">
        <ele>659.130</ele>
        <time>2021-07-14T08:52:33Z</time>
      </trkpt>
      <trkpt lat="42.754327" lon="-7.243587">
        <ele>658.190</ele>
        <time>2021-07-14T08:52:38Z</time>
      </trkpt>
      <trkpt lat="42.754254" lon="-7.243798">
        <ele>657.274</ele>
        <time>2021-07-14T08:52:45Z</time>
      </trkpt>
      <trkpt lat="42.754088" lon="-7.244170">
        <ele>658.192</ele>
        <time>2021-07-14T08:52:53Z</time>
      </trkpt>
      <trkpt lat="42.754078" lon="-7.244246">
        <ele>658.649</ele>
        <time>2021-07-14T08:52:55Z</time>
      </trkpt>
      <trkpt lat="42.754088" lon="-7.244281">
        <ele>659.187</ele>
        <time>2021-07-14T08:52:56Z</time>
      </trkpt>
      <trkpt lat="42.754101" lon="-7.244304">
        <ele>659.195</ele>
        <time>2021-07-14T08:52:57Z</time>
      </trkpt>
      <trkpt lat="42.754124" lon="-7.244323">
        <ele>659.149</ele>
        <time>2021-07-14T08:52:58Z</time>
      </trkpt>
      <trkpt lat="42.754151" lon="-7.244338">
        <ele>659.123</ele>
        <time>2021-07-14T08:52:59Z</time>
      </trkpt>
      <trkpt lat="42.754182" lon="-7.244349">
        <ele>659.108</ele>
        <time>2021-07-14T08:53:00Z</time>
      </trkpt>
      <trkpt lat="42.754213" lon="-7.244359">
        <ele>659.196</ele>
        <time>2021-07-14T08:53:01Z</time>
      </trkpt>
      <trkpt lat="42.754246" lon="-7.244367">
        <ele>658.628</ele>
        <time>2021-07-14T08:53:02Z</time>
      </trkpt>
      <trkpt lat="42.754530" lon="-7.244410">
        <ele>658.155</ele>
        <time>2021-07-14T08:53:10Z</time>
      </trkpt>
      <trkpt lat="42.754760" lon="-7.244396">
        <ele>659.655</ele>
        <time>2021-07-14T08:53:18Z</time>
      </trkpt>
      <trkpt lat="42.755098" lon="-7.244285">
        <ele>660.069</ele>
        <time>2021-07-14T08:53:29Z</time>
      </trkpt>
      <trkpt lat="42.755332" lon="-7.244146">
        <ele>660.037</ele>
        <time>2021-07-14T08:53:37Z</time>
      </trkpt>
      <trkpt lat="42.755578" lon="-7.243943">
        <ele>660.554</ele>
        <time>2021-07-14T08:53:47Z</time>
      </trkpt>
      <trkpt lat="42.755762" lon="-7.243721">
        <ele>661.082</ele>
        <time>2021-07-14T08:53:56Z</time>
      </trkpt>
      <trkpt lat="42.755863" lon="-7.243547">
        <ele>662.066</ele>
        <time>2021-07-14T08:54:03Z</time>
      </trkpt>
      <trkpt lat="42.755946" lon="-7.243363">
        <ele>664.429</ele>
        <time>2021-07-14T08:54:11Z</time>
      </trkpt>
      <trkpt lat="42.756019" lon="-7.243179">
        <ele>665.821</ele>
        <time>2021-07-14T08:54:19Z</time>
      </trkpt>
      <trkpt lat="42.756095" lon="-7.242915">
        <ele>666.808</ele>
        <time>2021-07-14T08:54:30Z</time>
      </trkpt>
      <trkpt lat="42.756139" lon="-7.242666">
        <ele>667.273</ele>
        <time>2021-07-14T08:54:40Z</time>
      </trkpt>
      <trkpt lat="42.756175" lon="-7.242444">
        <ele>668.715</ele>
        <time>2021-07-14T08:54:49Z</time>
      </trkpt>
      <trkpt lat="42.756209" lon="-7.242191">
        <ele>671.122</ele>
        <time>2021-07-14T08:55:00Z</time>
      </trkpt>
      <trkpt lat="42.756247" lon="-7.241948">
        <ele>672.582</ele>
        <time>2021-07-14T08:55:11Z</time>
      </trkpt>
      <trkpt lat="42.756260" lon="-7.241760">
        <ele>673.566</ele>
        <time>2021-07-14T08:55:20Z</time>
      </trkpt>
      <trkpt lat="42.756294" lon="-7.241554">
        <ele>674.534</ele>
        <time>2021-07-14T08:55:29Z</time>
      </trkpt>
      <trkpt lat="42.756320" lon="-7.241390">
        <ele>675.441</ele>
        <time>2021-07-14T08:55:37Z</time>
      </trkpt>
      <trkpt lat="42.756360" lon="-7.241220">
        <ele>675.459</ele>
        <time>2021-07-14T08:55:45Z</time>
      </trkpt>
      <trkpt lat="42.756370" lon="-7.241200">
        <ele>674.988</ele>
        <time>2021-07-14T08:55:46Z</time>
      </trkpt>
      <trkpt lat="42.756376" lon="-7.241179">
        <ele>674.924</ele>
        <time>2021-07-14T08:55:47Z</time>
      </trkpt>
      <trkpt lat="42.756383" lon="-7.241158">
        <ele>674.926</ele>
        <time>2021-07-14T08:55:48Z</time>
      </trkpt>
      <trkpt lat="42.756392" lon="-7.241138">
        <ele>674.908</ele>
        <time>2021-07-14T08:55:49Z</time>
      </trkpt>
      <trkpt lat="42.756402" lon="-7.241118">
        <ele>674.955</ele>
        <time>2021-07-14T08:55:50Z</time>
      </trkpt>
      <trkpt lat="42.756412" lon="-7.241095">
        <ele>674.957</ele>
        <time>2021-07-14T08:55:51Z</time>
      </trkpt>
      <trkpt lat="42.756438" lon="-7.241009">
        <ele>674.584</ele>
        <time>2021-07-14T08:55:55Z</time>
      </trkpt>
      <trkpt lat="42.756445" lon="-7.240990">
        <ele>674.934</ele>
        <time>2021-07-14T08:55:56Z</time>
      </trkpt>
      <trkpt lat="42.756495" lon="-7.240781">
        <ele>676.478</ele>
        <time>2021-07-14T08:56:05Z</time>
      </trkpt>
      <trkpt lat="42.756549" lon="-7.240610">
        <ele>678.396</ele>
        <time>2021-07-14T08:56:13Z</time>
      </trkpt>
      <trkpt lat="42.756580" lon="-7.240443">
        <ele>680.253</ele>
        <time>2021-07-14T08:56:20Z</time>
      </trkpt>
      <trkpt lat="42.756587" lon="-7.240419">
        <ele>680.761</ele>
        <time>2021-07-14T08:56:21Z</time>
      </trkpt>
      <trkpt lat="42.756590" lon="-7.240395">
        <ele>681.261</ele>
        <time>2021-07-14T08:56:22Z</time>
      </trkpt>
      <trkpt lat="42.756592" lon="-7.240370">
        <ele>681.221</ele>
        <time>2021-07-14T08:56:23Z</time>
      </trkpt>
      <trkpt lat="42.756595" lon="-7.240344">
        <ele>681.713</ele>
        <time>2021-07-14T08:56:24Z</time>
      </trkpt>
      <trkpt lat="42.756608" lon="-7.240093">
        <ele>683.108</ele>
        <time>2021-07-14T08:56:34Z</time>
      </trkpt>
      <trkpt lat="42.756609" lon="-7.239905">
        <ele>683.613</ele>
        <time>2021-07-14T08:56:42Z</time>
      </trkpt>
      <trkpt lat="42.756601" lon="-7.239855">
        <ele>684.115</ele>
        <time>2021-07-14T08:56:45Z</time>
      </trkpt>
      <trkpt lat="42.756589" lon="-7.239845">
        <ele>683.612</ele>
        <time>2021-07-14T08:56:52Z</time>
      </trkpt>
      <trkpt lat="42.756599" lon="-7.239809">
        <ele>683.192</ele>
        <time>2021-07-14T08:57:00Z</time>
      </trkpt>
      <trkpt lat="42.756600" lon="-7.239791">
        <ele>683.196</ele>
        <time>2021-07-14T08:57:01Z</time>
      </trkpt>
      <trkpt lat="42.756598" lon="-7.239769">
        <ele>683.134</ele>
        <time>2021-07-14T08:57:02Z</time>
      </trkpt>
      <trkpt lat="42.756595" lon="-7.239748">
        <ele>683.641</ele>
        <time>2021-07-14T08:57:03Z</time>
      </trkpt>
      <trkpt lat="42.756592" lon="-7.239728">
        <ele>683.669</ele>
        <time>2021-07-14T08:57:04Z</time>
      </trkpt>
      <trkpt lat="42.756590" lon="-7.239706">
        <ele>683.698</ele>
        <time>2021-07-14T08:57:05Z</time>
      </trkpt>
      <trkpt lat="42.756591" lon="-7.239684">
        <ele>683.615</ele>
        <time>2021-07-14T08:57:06Z</time>
      </trkpt>
      <trkpt lat="42.756594" lon="-7.239662">
        <ele>683.626</ele>
        <time>2021-07-14T08:57:07Z</time>
      </trkpt>
      <trkpt lat="42.756596" lon="-7.239642">
        <ele>684.108</ele>
        <time>2021-07-14T08:57:08Z</time>
      </trkpt>
      <trkpt lat="42.756587" lon="-7.239485">
        <ele>685.076</ele>
        <time>2021-07-14T08:57:17Z</time>
      </trkpt>
      <trkpt lat="42.756570" lon="-7.239304">
        <ele>685.538</ele>
        <time>2021-07-14T08:57:26Z</time>
      </trkpt>
      <trkpt lat="42.756564" lon="-7.239085">
        <ele>685.595</ele>
        <time>2021-07-14T08:57:36Z</time>
      </trkpt>
      <trkpt lat="42.756555" lon="-7.238873">
        <ele>685.045</ele>
        <time>2021-07-14T08:57:46Z</time>
      </trkpt>
      <trkpt lat="42.756554" lon="-7.238786">
        <ele>685.069</ele>
        <time>2021-07-14T08:57:52Z</time>
      </trkpt>
      <trkpt lat="42.756558" lon="-7.238782">
        <ele>685.037</ele>
        <time>2021-07-14T08:57:58Z</time>
      </trkpt>
      <trkpt lat="42.756557" lon="-7.238788">
        <ele>684.624</ele>
        <time>2021-07-14T08:58:10Z</time>
      </trkpt>
      <trkpt lat="42.756558" lon="-7.238795">
        <ele>683.132</ele>
        <time>2021-07-14T08:58:24Z</time>
      </trkpt>
      <trkpt lat="42.756551" lon="-7.238812">
        <ele>685.025</ele>
        <time>2021-07-14T08:58:40Z</time>
      </trkpt>
      <trkpt lat="42.756556" lon="-7.238836">
        <ele>686.526</ele>
        <time>2021-07-14T08:58:50Z</time>
      </trkpt>
      <trkpt lat="42.756552" lon="-7.238845">
        <ele>688.408</ele>
        <time>2021-07-14T08:59:06Z</time>
      </trkpt>
      <trkpt lat="42.756569" lon="-7.238829">
        <ele>689.408</ele>
        <time>2021-07-14T08:59:19Z</time>
      </trkpt>
      <trkpt lat="42.756574" lon="-7.238817">
        <ele>688.499</ele>
        <time>2021-07-14T08:59:36Z</time>
      </trkpt>
      <trkpt lat="42.756566" lon="-7.238801">
        <ele>688.421</ele>
        <time>2021-07-14T08:59:48Z</time>
      </trkpt>
      <trkpt lat="42.756577" lon="-7.238790">
        <ele>689.438</ele>
        <time>2021-07-14T09:00:03Z</time>
      </trkpt>
      <trkpt lat="42.756580" lon="-7.238797">
        <ele>688.498</ele>
        <time>2021-07-14T09:00:16Z</time>
      </trkpt>
      <trkpt lat="42.756575" lon="-7.238817">
        <ele>687.962</ele>
        <time>2021-07-14T09:00:24Z</time>
      </trkpt>
      <trkpt lat="42.756563" lon="-7.238817">
        <ele>688.950</ele>
        <time>2021-07-14T09:00:34Z</time>
      </trkpt>
      <trkpt lat="42.756558" lon="-7.238824">
        <ele>687.427</ele>
        <time>2021-07-14T09:00:48Z</time>
      </trkpt>
      <trkpt lat="42.756542" lon="-7.238836">
        <ele>687.915</ele>
        <time>2021-07-14T09:00:59Z</time>
      </trkpt>
      <trkpt lat="42.756557" lon="-7.238831">
        <ele>688.466</ele>
        <time>2021-07-14T09:01:14Z</time>
      </trkpt>
      <trkpt lat="42.756579" lon="-7.238851">
        <ele>687.029</ele>
        <time>2021-07-14T09:01:26Z</time>
      </trkpt>
      <trkpt lat="42.756580" lon="-7.238839">
        <ele>687.021</ele>
        <time>2021-07-14T09:01:38Z</time>
      </trkpt>
      <trkpt lat="42.756586" lon="-7.238842">
        <ele>686.508</ele>
        <time>2021-07-14T09:01:50Z</time>
      </trkpt>
      <trkpt lat="42.756578" lon="-7.238829">
        <ele>685.533</ele>
        <time>2021-07-14T09:02:01Z</time>
      </trkpt>
      <trkpt lat="42.756570" lon="-7.238829">
        <ele>685.065</ele>
        <time>2021-07-14T09:02:12Z</time>
      </trkpt>
      <trkpt lat="42.756587" lon="-7.238835">
        <ele>685.082</ele>
        <time>2021-07-14T09:02:22Z</time>
      </trkpt>
      <trkpt lat="42.756618" lon="-7.238848">
        <ele>684.152</ele>
        <time>2021-07-14T09:02:32Z</time>
      </trkpt>
      <trkpt lat="42.756654" lon="-7.238833">
        <ele>683.196</ele>
        <time>2021-07-14T09:02:45Z</time>
      </trkpt>
      <trkpt lat="42.756662" lon="-7.238827">
        <ele>683.134</ele>
        <time>2021-07-14T09:02:52Z</time>
      </trkpt>
      <trkpt lat="42.756651" lon="-7.238790">
        <ele>684.651</ele>
        <time>2021-07-14T09:02:55Z</time>
      </trkpt>
      <trkpt lat="42.756644" lon="-7.238772">
        <ele>685.559</ele>
        <time>2021-07-14T09:02:56Z</time>
      </trkpt>
      <trkpt lat="42.756600" lon="-7.238568">
        <ele>687.946</ele>
        <time>2021-07-14T09:03:05Z</time>
      </trkpt>
      <trkpt lat="42.756540" lon="-7.238352">
        <ele>689.488</ele>
        <time>2021-07-14T09:03:15Z</time>
      </trkpt>
      <trkpt lat="42.756530" lon="-7.238300">
        <ele>689.416</ele>
        <time>2021-07-14T09:03:18Z</time>
      </trkpt>
      <trkpt lat="42.756517" lon="-7.238296">
        <ele>687.908</ele>
        <time>2021-07-14T09:03:23Z</time>
      </trkpt>
      <trkpt lat="42.756505" lon="-7.238309">
        <ele>684.121</ele>
        <time>2021-07-14T09:03:35Z</time>
      </trkpt>
      <trkpt lat="42.756529" lon="-7.238274">
        <ele>679.743</ele>
        <time>2021-07-14T09:03:56Z</time>
      </trkpt>
      <trkpt lat="42.756538" lon="-7.238267">
        <ele>677.350</ele>
        <time>2021-07-14T09:04:13Z</time>
      </trkpt>
      <trkpt lat="42.756546" lon="-7.238274">
        <ele>677.870</ele>
        <time>2021-07-14T09:04:34Z</time>
      </trkpt>
      <trkpt lat="42.756558" lon="-7.238283">
        <ele>680.274</ele>
        <time>2021-07-14T09:04:54Z</time>
      </trkpt>
      <trkpt lat="42.756547" lon="-7.238292">
        <ele>679.762</ele>
        <time>2021-07-14T09:05:08Z</time>
      </trkpt>
      <trkpt lat="42.756520" lon="-7.238301">
        <ele>678.899</ele>
        <time>2021-07-14T09:05:23Z</time>
      </trkpt>
      <trkpt lat="42.756508" lon="-7.238286">
        <ele>678.867</ele>
        <time>2021-07-14T09:05:38Z</time>
      </trkpt>
      <trkpt lat="42.756533" lon="-7.238261">
        <ele>680.252</ele>
        <time>2021-07-14T09:05:58Z</time>
      </trkpt>
      <trkpt lat="42.756536" lon="-7.238279">
        <ele>681.753</ele>
        <time>2021-07-14T09:06:14Z</time>
      </trkpt>
      <trkpt lat="42.756532" lon="-7.238290">
        <ele>682.608</ele>
        <time>2021-07-14T09:06:27Z</time>
      </trkpt>
      <trkpt lat="42.756525" lon="-7.238281">
        <ele>681.708</ele>
        <time>2021-07-14T09:06:37Z</time>
      </trkpt>
      <trkpt lat="42.756522" lon="-7.238154">
        <ele>682.182</ele>
        <time>2021-07-14T09:06:44Z</time>
      </trkpt>
      <trkpt lat="42.756507" lon="-7.238002">
        <ele>683.674</ele>
        <time>2021-07-14T09:06:51Z</time>
      </trkpt>
      <trkpt lat="42.756502" lon="-7.237843">
        <ele>684.691</ele>
        <time>2021-07-14T09:06:58Z</time>
      </trkpt>
      <trkpt lat="42.756497" lon="-7.237646">
        <ele>686.061</ele>
        <time>2021-07-14T09:07:06Z</time>
      </trkpt>
      <trkpt lat="42.756485" lon="-7.237396">
        <ele>687.975</ele>
        <time>2021-07-14T09:07:16Z</time>
      </trkpt>
      <trkpt lat="42.756472" lon="-7.237177">
        <ele>689.813</ele>
        <time>2021-07-14T09:07:25Z</time>
      </trkpt>
      <trkpt lat="42.756478" lon="-7.236918">
        <ele>693.790</ele>
        <time>2021-07-14T09:07:36Z</time>
      </trkpt>
      <trkpt lat="42.756473" lon="-7.236711">
        <ele>695.158</ele>
        <time>2021-07-14T09:07:45Z</time>
      </trkpt>
      <trkpt lat="42.756468" lon="-7.236633">
        <ele>695.155</ele>
        <time>2021-07-14T09:07:50Z</time>
      </trkpt>
      <trkpt lat="42.756456" lon="-7.236501">
        <ele>695.107</ele>
        <time>2021-07-14T09:07:58Z</time>
      </trkpt>
      <trkpt lat="42.756460" lon="-7.236485">
        <ele>695.117</ele>
        <time>2021-07-14T09:07:59Z</time>
      </trkpt>
      <trkpt lat="42.756458" lon="-7.236468">
        <ele>695.108</ele>
        <time>2021-07-14T09:08:00Z</time>
      </trkpt>
      <trkpt lat="42.756453" lon="-7.236453">
        <ele>695.172</ele>
        <time>2021-07-14T09:08:01Z</time>
      </trkpt>
      <trkpt lat="42.756450" lon="-7.236438">
        <ele>695.114</ele>
        <time>2021-07-14T09:08:02Z</time>
      </trkpt>
      <trkpt lat="42.756451" lon="-7.236422">
        <ele>695.141</ele>
        <time>2021-07-14T09:08:03Z</time>
      </trkpt>
      <trkpt lat="42.756454" lon="-7.236404">
        <ele>695.141</ele>
        <time>2021-07-14T09:08:04Z</time>
      </trkpt>
      <trkpt lat="42.756454" lon="-7.236384">
        <ele>695.165</ele>
        <time>2021-07-14T09:08:05Z</time>
      </trkpt>
      <trkpt lat="42.756456" lon="-7.236366">
        <ele>694.673</ele>
        <time>2021-07-14T09:08:06Z</time>
      </trkpt>
      <trkpt lat="42.756455" lon="-7.236347">
        <ele>694.680</ele>
        <time>2021-07-14T09:08:07Z</time>
      </trkpt>
      <trkpt lat="42.756452" lon="-7.236326">
        <ele>695.178</ele>
        <time>2021-07-14T09:08:08Z</time>
      </trkpt>
      <trkpt lat="42.756449" lon="-7.236302">
        <ele>695.149</ele>
        <time>2021-07-14T09:08:09Z</time>
      </trkpt>
      <trkpt lat="42.756439" lon="-7.236119">
        <ele>695.102</ele>
        <time>2021-07-14T09:08:17Z</time>
      </trkpt>
      <trkpt lat="42.756417" lon="-7.235914">
        <ele>696.622</ele>
        <time>2021-07-14T09:08:26Z</time>
      </trkpt>
      <trkpt lat="42.756407" lon="-7.235697">
        <ele>698.008</ele>
        <time>2021-07-14T09:08:35Z</time>
      </trkpt>
      <trkpt lat="42.756392" lon="-7.235467">
        <ele>699.511</ele>
        <time>2021-07-14T09:08:45Z</time>
      </trkpt>
      <trkpt lat="42.756388" lon="-7.235250">
        <ele>700.953</ele>
        <time>2021-07-14T09:08:55Z</time>
      </trkpt>
      <trkpt lat="42.756370" lon="-7.235020">
        <ele>702.330</ele>
        <time>2021-07-14T09:09:05Z</time>
      </trkpt>
      <trkpt lat="42.756356" lon="-7.234784">
        <ele>702.810</ele>
        <time>2021-07-14T09:09:16Z</time>
      </trkpt>
      <trkpt lat="42.756359" lon="-7.234567">
        <ele>702.874</ele>
        <time>2021-07-14T09:09:26Z</time>
      </trkpt>
      <trkpt lat="42.756357" lon="-7.234338">
        <ele>704.332</ele>
        <time>2021-07-14T09:09:36Z</time>
      </trkpt>
      <trkpt lat="42.756353" lon="-7.234107">
        <ele>705.749</ele>
        <time>2021-07-14T09:09:46Z</time>
      </trkpt>
      <trkpt lat="42.756336" lon="-7.233921">
        <ele>707.177</ele>
        <time>2021-07-14T09:09:54Z</time>
      </trkpt>
      <trkpt lat="42.756315" lon="-7.233676">
        <ele>709.197</ele>
        <time>2021-07-14T09:10:05Z</time>
      </trkpt>
      <trkpt lat="42.756310" lon="-7.233468">
        <ele>710.523</ele>
        <time>2021-07-14T09:10:15Z</time>
      </trkpt>
      <trkpt lat="42.756308" lon="-7.233325">
        <ele>710.525</ele>
        <time>2021-07-14T09:10:23Z</time>
      </trkpt>
      <trkpt lat="42.756289" lon="-7.233162">
        <ele>711.008</ele>
        <time>2021-07-14T09:10:31Z</time>
      </trkpt>
      <trkpt lat="42.756284" lon="-7.232973">
        <ele>711.596</ele>
        <time>2021-07-14T09:10:40Z</time>
      </trkpt>
      <trkpt lat="42.756281" lon="-7.232952">
        <ele>711.578</ele>
        <time>2021-07-14T09:10:41Z</time>
      </trkpt>
      <trkpt lat="42.756276" lon="-7.232931">
        <ele>711.575</ele>
        <time>2021-07-14T09:10:42Z</time>
      </trkpt>
      <trkpt lat="42.756276" lon="-7.232912">
        <ele>711.545</ele>
        <time>2021-07-14T09:10:43Z</time>
      </trkpt>
      <trkpt lat="42.756277" lon="-7.232889">
        <ele>711.589</ele>
        <time>2021-07-14T09:10:44Z</time>
      </trkpt>
      <trkpt lat="42.756278" lon="-7.232866">
        <ele>711.927</ele>
        <time>2021-07-14T09:10:45Z</time>
      </trkpt>
      <trkpt lat="42.756282" lon="-7.232615">
        <ele>712.484</ele>
        <time>2021-07-14T09:10:56Z</time>
      </trkpt>
      <trkpt lat="42.756311" lon="-7.232330">
        <ele>715.372</ele>
        <time>2021-07-14T09:11:08Z</time>
      </trkpt>
      <trkpt lat="42.756363" lon="-7.232099">
        <ele>716.897</ele>
        <time>2021-07-14T09:11:18Z</time>
      </trkpt>
      <trkpt lat="42.756440" lon="-7.231924">
        <ele>716.823</ele>
        <time>2021-07-14T09:11:26Z</time>
      </trkpt>
      <trkpt lat="42.756560" lon="-7.231738">
        <ele>717.225</ele>
        <time>2021-07-14T09:11:35Z</time>
      </trkpt>
      <trkpt lat="42.756734" lon="-7.231526">
        <ele>717.208</ele>
        <time>2021-07-14T09:11:46Z</time>
      </trkpt>
      <trkpt lat="42.756819" lon="-7.231405">
        <ele>717.766</ele>
        <time>2021-07-14T09:11:54Z</time>
      </trkpt>
      <trkpt lat="42.756937" lon="-7.231271">
        <ele>717.718</ele>
        <time>2021-07-14T09:12:03Z</time>
      </trkpt>
      <trkpt lat="42.757050" lon="-7.231117">
        <ele>719.235</ele>
        <time>2021-07-14T09:12:11Z</time>
      </trkpt>
      <trkpt lat="42.757215" lon="-7.230920">
        <ele>720.195</ele>
        <time>2021-07-14T09:12:22Z</time>
      </trkpt>
      <trkpt lat="42.757372" lon="-7.230737">
        <ele>721.159</ele>
        <time>2021-07-14T09:12:32Z</time>
      </trkpt>
      <trkpt lat="42.757499" lon="-7.230576">
        <ele>721.637</ele>
        <time>2021-07-14T09:12:40Z</time>
      </trkpt>
      <trkpt lat="42.757665" lon="-7.230363">
        <ele>722.554</ele>
        <time>2021-07-14T09:12:50Z</time>
      </trkpt>
      <trkpt lat="42.757796" lon="-7.230189">
        <ele>723.032</ele>
        <time>2021-07-14T09:12:58Z</time>
      </trkpt>
      <trkpt lat="42.757966" lon="-7.229909">
        <ele>724.917</ele>
        <time>2021-07-14T09:13:10Z</time>
      </trkpt>
      <trkpt lat="42.758078" lon="-7.229681">
        <ele>726.487</ele>
        <time>2021-07-14T09:13:20Z</time>
      </trkpt>
      <trkpt lat="42.758185" lon="-7.229439">
        <ele>727.815</ele>
        <time>2021-07-14T09:13:31Z</time>
      </trkpt>
      <trkpt lat="42.758284" lon="-7.229164">
        <ele>730.208</ele>
        <time>2021-07-14T09:13:43Z</time>
      </trkpt>
      <trkpt lat="42.758344" lon="-7.228920">
        <ele>732.188</ele>
        <time>2021-07-14T09:13:54Z</time>
      </trkpt>
      <trkpt lat="42.758395" lon="-7.228671">
        <ele>733.640</ele>
        <time>2021-07-14T09:14:05Z</time>
      </trkpt>
      <trkpt lat="42.758439" lon="-7.228488">
        <ele>735.027</ele>
        <time>2021-07-14T09:14:13Z</time>
      </trkpt>
      <trkpt lat="42.758491" lon="-7.228196">
        <ele>738.487</ele>
        <time>2021-07-14T09:14:25Z</time>
      </trkpt>
      <trkpt lat="42.758525" lon="-7.227990">
        <ele>739.831</ele>
        <time>2021-07-14T09:14:34Z</time>
      </trkpt>
      <trkpt lat="42.758557" lon="-7.227807">
        <ele>739.399</ele>
        <time>2021-07-14T09:14:43Z</time>
      </trkpt>
      <trkpt lat="42.758566" lon="-7.227805">
        <ele>739.846</ele>
        <time>2021-07-14T09:14:51Z</time>
      </trkpt>
      <trkpt lat="42.758570" lon="-7.227812">
        <ele>737.454</ele>
        <time>2021-07-14T09:15:08Z</time>
      </trkpt>
      <trkpt lat="42.758579" lon="-7.227782">
        <ele>736.522</ele>
        <time>2021-07-14T09:15:28Z</time>
      </trkpt>
      <trkpt lat="42.758579" lon="-7.227807">
        <ele>736.062</ele>
        <time>2021-07-14T09:15:40Z</time>
      </trkpt>
      <trkpt lat="42.758580" lon="-7.227739">
        <ele>736.008</ele>
        <time>2021-07-14T09:15:47Z</time>
      </trkpt>
      <trkpt lat="42.758598" lon="-7.227483">
        <ele>737.408</ele>
        <time>2021-07-14T09:15:58Z</time>
      </trkpt>
      <trkpt lat="42.758627" lon="-7.227232">
        <ele>739.359</ele>
        <time>2021-07-14T09:16:09Z</time>
      </trkpt>
      <trkpt lat="42.758659" lon="-7.227012">
        <ele>739.871</ele>
        <time>2021-07-14T09:16:18Z</time>
      </trkpt>
      <trkpt lat="42.758709" lon="-7.226728">
        <ele>741.788</ele>
        <time>2021-07-14T09:16:30Z</time>
      </trkpt>
      <trkpt lat="42.758745" lon="-7.226486">
        <ele>743.268</ele>
        <time>2021-07-14T09:16:41Z</time>
      </trkpt>
      <trkpt lat="42.758751" lon="-7.226444">
        <ele>743.722</ele>
        <time>2021-07-14T09:16:45Z</time>
      </trkpt>
      <trkpt lat="42.758759" lon="-7.226431">
        <ele>743.720</ele>
        <time>2021-07-14T09:16:46Z</time>
      </trkpt>
      <trkpt lat="42.758765" lon="-7.226416">
        <ele>743.737</ele>
        <time>2021-07-14T09:16:47Z</time>
      </trkpt>
      <trkpt lat="42.758781" lon="-7.226333">
        <ele>744.245</ele>
        <time>2021-07-14T09:16:54Z</time>
      </trkpt>
      <trkpt lat="42.758797" lon="-7.226177">
        <ele>745.185</ele>
        <time>2021-07-14T09:17:02Z</time>
      </trkpt>
      <trkpt lat="42.758808" lon="-7.225987">
        <ele>747.089</ele>
        <time>2021-07-14T09:17:11Z</time>
      </trkpt>
      <trkpt lat="42.758782" lon="-7.225798">
        <ele>748.517</ele>
        <time>2021-07-14T09:17:20Z</time>
      </trkpt>
      <trkpt lat="42.758720" lon="-7.225615">
        <ele>749.008</ele>
        <time>2021-07-14T09:17:30Z</time>
      </trkpt>
      <trkpt lat="42.758625" lon="-7.225462">
        <ele>749.985</ele>
        <time>2021-07-14T09:17:40Z</time>
      </trkpt>
      <trkpt lat="42.758499" lon="-7.225324">
        <ele>751.837</ele>
        <time>2021-07-14T09:17:51Z</time>
      </trkpt>
      <trkpt lat="42.758384" lon="-7.225247">
        <ele>753.354</ele>
        <time>2021-07-14T09:18:00Z</time>
      </trkpt>
      <trkpt lat="42.758241" lon="-7.225179">
        <ele>754.754</ele>
        <time>2021-07-14T09:18:10Z</time>
      </trkpt>
      <trkpt lat="42.758151" lon="-7.225172">
        <ele>755.788</ele>
        <time>2021-07-14T09:18:17Z</time>
      </trkpt>
      <trkpt lat="42.758035" lon="-7.225190">
        <ele>757.166</ele>
        <time>2021-07-14T09:18:25Z</time>
      </trkpt>
      <trkpt lat="42.757930" lon="-7.225250">
        <ele>758.133</ele>
        <time>2021-07-14T09:18:33Z</time>
      </trkpt>
      <trkpt lat="42.757795" lon="-7.225350">
        <ele>760.011</ele>
        <time>2021-07-14T09:18:43Z</time>
      </trkpt>
      <trkpt lat="42.757667" lon="-7.225462">
        <ele>759.572</ele>
        <time>2021-07-14T09:18:53Z</time>
      </trkpt>
      <trkpt lat="42.757556" lon="-7.225557">
        <ele>760.513</ele>
        <time>2021-07-14T09:19:02Z</time>
      </trkpt>
      <trkpt lat="42.757401" lon="-7.225700">
        <ele>761.514</ele>
        <time>2021-07-14T09:19:14Z</time>
      </trkpt>
      <trkpt lat="42.757258" lon="-7.225825">
        <ele>763.408</ele>
        <time>2021-07-14T09:19:25Z</time>
      </trkpt>
      <trkpt lat="42.757112" lon="-7.225917">
        <ele>765.374</ele>
        <time>2021-07-14T09:19:36Z</time>
      </trkpt>
      <trkpt lat="42.756983" lon="-7.225987">
        <ele>766.766</ele>
        <time>2021-07-14T09:19:45Z</time>
      </trkpt>
      <trkpt lat="42.756838" lon="-7.226042">
        <ele>767.783</ele>
        <time>2021-07-14T09:19:55Z</time>
      </trkpt>
      <trkpt lat="42.756698" lon="-7.226086">
        <ele>769.143</ele>
        <time>2021-07-14T09:20:05Z</time>
      </trkpt>
      <trkpt lat="42.756540" lon="-7.226121">
        <ele>771.187</ele>
        <time>2021-07-14T09:20:16Z</time>
      </trkpt>
      <trkpt lat="42.756393" lon="-7.226126">
        <ele>772.555</ele>
        <time>2021-07-14T09:20:26Z</time>
      </trkpt>
      <trkpt lat="42.756271" lon="-7.226125">
        <ele>774.082</ele>
        <time>2021-07-14T09:20:35Z</time>
      </trkpt>
      <trkpt lat="42.756088" lon="-7.226093">
        <ele>775.930</ele>
        <time>2021-07-14T09:20:46Z</time>
      </trkpt>
      <trkpt lat="42.755957" lon="-7.226056">
        <ele>777.394</ele>
        <time>2021-07-14T09:20:54Z</time>
      </trkpt>
      <trkpt lat="42.755781" lon="-7.225980">
        <ele>777.857</ele>
        <time>2021-07-14T09:21:05Z</time>
      </trkpt>
      <trkpt lat="42.755699" lon="-7.225931">
        <ele>778.322</ele>
        <time>2021-07-14T09:21:12Z</time>
      </trkpt>
      <trkpt lat="42.755686" lon="-7.225923">
        <ele>778.308</ele>
        <time>2021-07-14T09:21:13Z</time>
      </trkpt>
      <trkpt lat="42.755670" lon="-7.225913">
        <ele>778.336</ele>
        <time>2021-07-14T09:21:14Z</time>
      </trkpt>
      <trkpt lat="42.755654" lon="-7.225907">
        <ele>778.868</ele>
        <time>2021-07-14T09:21:15Z</time>
      </trkpt>
      <trkpt lat="42.755638" lon="-7.225901">
        <ele>778.875</ele>
        <time>2021-07-14T09:21:16Z</time>
      </trkpt>
      <trkpt lat="42.755622" lon="-7.225894">
        <ele>778.895</ele>
        <time>2021-07-14T09:21:17Z</time>
      </trkpt>
      <trkpt lat="42.755607" lon="-7.225885">
        <ele>778.859</ele>
        <time>2021-07-14T09:21:18Z</time>
      </trkpt>
      <trkpt lat="42.755448" lon="-7.225774">
        <ele>779.797</ele>
        <time>2021-07-14T09:21:28Z</time>
      </trkpt>
      <trkpt lat="42.755288" lon="-7.225646">
        <ele>780.734</ele>
        <time>2021-07-14T09:21:39Z</time>
      </trkpt>
      <trkpt lat="42.755151" lon="-7.225525">
        <ele>782.182</ele>
        <time>2021-07-14T09:21:49Z</time>
      </trkpt>
      <trkpt lat="42.755068" lon="-7.225445">
        <ele>782.625</ele>
        <time>2021-07-14T09:21:57Z</time>
      </trkpt>
      <trkpt lat="42.754957" lon="-7.225351">
        <ele>783.626</ele>
        <time>2021-07-14T09:22:07Z</time>
      </trkpt>
      <trkpt lat="42.754818" lon="-7.225220">
        <ele>784.508</ele>
        <time>2021-07-14T09:22:18Z</time>
      </trkpt>
      <trkpt lat="42.754677" lon="-7.225084">
        <ele>785.508</ele>
        <time>2021-07-14T09:22:29Z</time>
      </trkpt>
      <trkpt lat="42.754530" lon="-7.224933">
        <ele>787.489</ele>
        <time>2021-07-14T09:22:40Z</time>
      </trkpt>
      <trkpt lat="42.754340" lon="-7.224747">
        <ele>788.441</ele>
        <time>2021-07-14T09:22:53Z</time>
      </trkpt>
      <trkpt lat="42.754190" lon="-7.224604">
        <ele>789.828</ele>
        <time>2021-07-14T09:23:03Z</time>
      </trkpt>
      <trkpt lat="42.754015" lon="-7.224457">
        <ele>791.398</ele>
        <time>2021-07-14T09:23:14Z</time>
      </trkpt>
      <trkpt lat="42.753840" lon="-7.224340">
        <ele>792.242</ele>
        <time>2021-07-14T09:23:25Z</time>
      </trkpt>
      <trkpt lat="42.753670" lon="-7.224264">
        <ele>794.670</ele>
        <time>2021-07-14T09:23:35Z</time>
      </trkpt>
      <trkpt lat="42.753512" lon="-7.224224">
        <ele>795.667</ele>
        <time>2021-07-14T09:23:44Z</time>
      </trkpt>
      <trkpt lat="42.753320" lon="-7.224199">
        <ele>797.555</ele>
        <time>2021-07-14T09:23:54Z</time>
      </trkpt>
      <trkpt lat="42.753095" lon="-7.224162">
        <ele>798.955</ele>
        <time>2021-07-14T09:24:06Z</time>
      </trkpt>
      <trkpt lat="42.752898" lon="-7.224124">
        <ele>799.407</ele>
        <time>2021-07-14T09:24:16Z</time>
      </trkpt>
      <trkpt lat="42.752673" lon="-7.224049">
        <ele>800.417</ele>
        <time>2021-07-14T09:24:27Z</time>
      </trkpt>
      <trkpt lat="42.752492" lon="-7.223919">
        <ele>800.908</ele>
        <time>2021-07-14T09:24:37Z</time>
      </trkpt>
      <trkpt lat="42.752355" lon="-7.223776">
        <ele>800.462</ele>
        <time>2021-07-14T09:24:46Z</time>
      </trkpt>
      <trkpt lat="42.752192" lon="-7.223528">
        <ele>800.934</ele>
        <time>2021-07-14T09:24:58Z</time>
      </trkpt>
      <trkpt lat="42.752103" lon="-7.223349">
        <ele>800.971</ele>
        <time>2021-07-14T09:25:07Z</time>
      </trkpt>
      <trkpt lat="42.752011" lon="-7.223121">
        <ele>801.421</ele>
        <time>2021-07-14T09:25:16Z</time>
      </trkpt>
      <trkpt lat="42.751921" lon="-7.222911">
        <ele>800.465</ele>
        <time>2021-07-14T09:25:25Z</time>
      </trkpt>
      <trkpt lat="42.751855" lon="-7.222691">
        <ele>801.473</ele>
        <time>2021-07-14T09:25:35Z</time>
      </trkpt>
      <trkpt lat="42.751736" lon="-7.222385">
        <ele>801.460</ele>
        <time>2021-07-14T09:25:48Z</time>
      </trkpt>
      <trkpt lat="42.751645" lon="-7.222110">
        <ele>801.418</ele>
        <time>2021-07-14T09:25:59Z</time>
      </trkpt>
      <trkpt lat="42.751538" lon="-7.221824">
        <ele>801.872</ele>
        <time>2021-07-14T09:26:11Z</time>
      </trkpt>
      <trkpt lat="42.751454" lon="-7.221629">
        <ele>802.813</ele>
        <time>2021-07-14T09:26:20Z</time>
      </trkpt>
      <trkpt lat="42.751355" lon="-7.221401">
        <ele>803.314</ele>
        <time>2021-07-14T09:26:30Z</time>
      </trkpt>
      <trkpt lat="42.751224" lon="-7.221161">
        <ele>804.208</ele>
        <time>2021-07-14T09:26:41Z</time>
      </trkpt>
      <trkpt lat="42.751150" lon="-7.221025">
        <ele>805.764</ele>
        <time>2021-07-14T09:26:49Z</time>
      </trkpt>
      <trkpt lat="42.751079" lon="-7.220910">
        <ele>806.216</ele>
        <time>2021-07-14T09:26:58Z</time>
      </trkpt>
      <trkpt lat="42.750985" lon="-7.220768">
        <ele>806.283</ele>
        <time>2021-07-14T09:27:06Z</time>
      </trkpt>
      <trkpt lat="42.750842" lon="-7.220548">
        <ele>807.183</ele>
        <time>2021-07-14T09:27:17Z</time>
      </trkpt>
      <trkpt lat="42.750713" lon="-7.220347">
        <ele>808.677</ele>
        <time>2021-07-14T09:27:28Z</time>
      </trkpt>
      <trkpt lat="42.750665" lon="-7.220268">
        <ele>809.535</ele>
        <time>2021-07-14T09:27:33Z</time>
      </trkpt>
      <trkpt lat="42.750566" lon="-7.220145">
        <ele>809.522</ele>
        <time>2021-07-14T09:27:42Z</time>
      </trkpt>
      <trkpt lat="42.750463" lon="-7.219998">
        <ele>810.510</ele>
        <time>2021-07-14T09:27:51Z</time>
      </trkpt>
      <trkpt lat="42.750351" lon="-7.219854">
        <ele>811.493</ele>
        <time>2021-07-14T09:28:00Z</time>
      </trkpt>
      <trkpt lat="42.750218" lon="-7.219685">
        <ele>812.965</ele>
        <time>2021-07-14T09:28:10Z</time>
      </trkpt>
      <trkpt lat="42.750094" lon="-7.219547">
        <ele>814.321</ele>
        <time>2021-07-14T09:28:20Z</time>
      </trkpt>
      <trkpt lat="42.749947" lon="-7.219415">
        <ele>815.808</ele>
        <time>2021-07-14T09:28:31Z</time>
      </trkpt>
      <trkpt lat="42.749809" lon="-7.219295">
        <ele>817.226</ele>
        <time>2021-07-14T09:28:41Z</time>
      </trkpt>
      <trkpt lat="42.749707" lon="-7.219212">
        <ele>818.778</ele>
        <time>2021-07-14T09:28:49Z</time>
      </trkpt>
      <trkpt lat="42.749690" lon="-7.219198">
        <ele>819.145</ele>
        <time>2021-07-14T09:28:51Z</time>
      </trkpt>
      <trkpt lat="42.749623" lon="-7.219148">
        <ele>820.135</ele>
        <time>2021-07-14T09:28:58Z</time>
      </trkpt>
      <trkpt lat="42.749617" lon="-7.219138">
        <ele>820.139</ele>
        <time>2021-07-14T09:28:59Z</time>
      </trkpt>
      <trkpt lat="42.749606" lon="-7.219132">
        <ele>820.197</ele>
        <time>2021-07-14T09:29:00Z</time>
      </trkpt>
      <trkpt lat="42.749595" lon="-7.219127">
        <ele>820.164</ele>
        <time>2021-07-14T09:29:01Z</time>
      </trkpt>
      <trkpt lat="42.749582" lon="-7.219120">
        <ele>820.122</ele>
        <time>2021-07-14T09:29:02Z</time>
      </trkpt>
      <trkpt lat="42.749568" lon="-7.219110">
        <ele>820.689</ele>
        <time>2021-07-14T09:29:03Z</time>
      </trkpt>
      <trkpt lat="42.749456" lon="-7.219012">
        <ele>821.506</ele>
        <time>2021-07-14T09:29:13Z</time>
      </trkpt>
      <trkpt lat="42.749277" lon="-7.218867">
        <ele>823.526</ele>
        <time>2021-07-14T09:29:27Z</time>
      </trkpt>
      <trkpt lat="42.749120" lon="-7.218751">
        <ele>824.408</ele>
        <time>2021-07-14T09:29:38Z</time>
      </trkpt>
      <trkpt lat="42.748974" lon="-7.218609">
        <ele>825.475</ele>
        <time>2021-07-14T09:29:49Z</time>
      </trkpt>
      <trkpt lat="42.748838" lon="-7.218486">
        <ele>825.987</ele>
        <time>2021-07-14T09:29:59Z</time>
      </trkpt>
      <trkpt lat="42.748693" lon="-7.218347">
        <ele>827.384</ele>
        <time>2021-07-14T09:30:09Z</time>
      </trkpt>
      <trkpt lat="42.748565" lon="-7.218257">
        <ele>828.754</ele>
        <time>2021-07-14T09:30:17Z</time>
      </trkpt>
      <trkpt lat="42.748400" lon="-7.218124">
        <ele>830.298</ele>
        <time>2021-07-14T09:30:28Z</time>
      </trkpt>
      <trkpt lat="42.748273" lon="-7.218008">
        <ele>831.616</ele>
        <time>2021-07-14T09:30:37Z</time>
      </trkpt>
      <trkpt lat="42.748154" lon="-7.217913">
        <ele>833.133</ele>
        <time>2021-07-14T09:30:47Z</time>
      </trkpt>
      <trkpt lat="42.748037" lon="-7.217816">
        <ele>835.551</ele>
        <time>2021-07-14T09:30:57Z</time>
      </trkpt>
      <trkpt lat="42.747904" lon="-7.217710">
        <ele>836.481</ele>
        <time>2021-07-14T09:31:07Z</time>
      </trkpt>
      <trkpt lat="42.747758" lon="-7.217560">
        <ele>837.961</ele>
        <time>2021-07-14T09:31:18Z</time>
      </trkpt>
      <trkpt lat="42.747639" lon="-7.217437">
        <ele>839.317</ele>
        <time>2021-07-14T09:31:27Z</time>
      </trkpt>
      <trkpt lat="42.747554" lon="-7.217291">
        <ele>840.808</ele>
        <time>2021-07-14T09:31:35Z</time>
      </trkpt>
      <trkpt lat="42.747474" lon="-7.217043">
        <ele>842.785</ele>
        <time>2021-07-14T09:31:46Z</time>
      </trkpt>
      <trkpt lat="42.747441" lon="-7.216842">
        <ele>843.687</ele>
        <time>2021-07-14T09:31:54Z</time>
      </trkpt>
      <trkpt lat="42.747420" lon="-7.216586">
        <ele>844.634</ele>
        <time>2021-07-14T09:32:04Z</time>
      </trkpt>
      <trkpt lat="42.747393" lon="-7.216308">
        <ele>846.564</ele>
        <time>2021-07-14T09:32:15Z</time>
      </trkpt>
      <trkpt lat="42.747359" lon="-7.216054">
        <ele>848.538</ele>
        <time>2021-07-14T09:32:25Z</time>
      </trkpt>
      <trkpt lat="42.747307" lon="-7.215812">
        <ele>849.916</ele>
        <time>2021-07-14T09:32:35Z</time>
      </trkpt>
      <trkpt lat="42.747255" lon="-7.215589">
        <ele>851.883</ele>
        <time>2021-07-14T09:32:45Z</time>
      </trkpt>
      <trkpt lat="42.747185" lon="-7.215366">
        <ele>853.311</ele>
        <time>2021-07-14T09:32:55Z</time>
      </trkpt>
      <trkpt lat="42.747084" lon="-7.215098">
        <ele>855.781</ele>
        <time>2021-07-14T09:33:07Z</time>
      </trkpt>
      <trkpt lat="42.747009" lon="-7.214917">
        <ele>855.761</ele>
        <time>2021-07-14T09:33:17Z</time>
      </trkpt>
      <trkpt lat="42.746953" lon="-7.214804">
        <ele>856.117</ele>
        <time>2021-07-14T09:33:25Z</time>
      </trkpt>
      <trkpt lat="42.746859" lon="-7.214581">
        <ele>858.108</ele>
        <time>2021-07-14T09:33:37Z</time>
      </trkpt>
      <trkpt lat="42.746779" lon="-7.214420">
        <ele>859.075</ele>
        <time>2021-07-14T09:33:46Z</time>
      </trkpt>
      <trkpt lat="42.746681" lon="-7.214224">
        <ele>860.577</ele>
        <time>2021-07-14T09:33:56Z</time>
      </trkpt>
      <trkpt lat="42.746596" lon="-7.214050">
        <ele>861.464</ele>
        <time>2021-07-14T09:34:05Z</time>
      </trkpt>
      <trkpt lat="42.746494" lon="-7.213834">
        <ele>862.944</ele>
        <time>2021-07-14T09:34:16Z</time>
      </trkpt>
      <trkpt lat="42.746407" lon="-7.213689">
        <ele>863.878</ele>
        <time>2021-07-14T09:34:25Z</time>
      </trkpt>
      <trkpt lat="42.746333" lon="-7.213577">
        <ele>864.826</ele>
        <time>2021-07-14T09:34:35Z</time>
      </trkpt>
      <trkpt lat="42.746260" lon="-7.213480">
        <ele>865.853</ele>
        <time>2021-07-14T09:34:43Z</time>
      </trkpt>
      <trkpt lat="42.746222" lon="-7.213436">
        <ele>866.221</ele>
        <time>2021-07-14T09:34:50Z</time>
      </trkpt>
      <trkpt lat="42.746222" lon="-7.213452">
        <ele>865.895</ele>
        <time>2021-07-14T09:35:03Z</time>
      </trkpt>
      <trkpt lat="42.746220" lon="-7.213460">
        <ele>865.849</ele>
        <time>2021-07-14T09:35:24Z</time>
      </trkpt>
      <trkpt lat="42.746223" lon="-7.213427">
        <ele>865.323</ele>
        <time>2021-07-14T09:35:41Z</time>
      </trkpt>
      <trkpt lat="42.746214" lon="-7.213418">
        <ele>865.308</ele>
        <time>2021-07-14T09:36:04Z</time>
      </trkpt>
      <trkpt lat="42.746211" lon="-7.213389">
        <ele>863.866</ele>
        <time>2021-07-14T09:36:18Z</time>
      </trkpt>
      <trkpt lat="42.746239" lon="-7.213405">
        <ele>864.348</ele>
        <time>2021-07-14T09:36:35Z</time>
      </trkpt>
      <trkpt lat="42.746240" lon="-7.213429">
        <ele>865.875</ele>
        <time>2021-07-14T09:36:56Z</time>
      </trkpt>
      <trkpt lat="42.746230" lon="-7.213442">
        <ele>865.355</ele>
        <time>2021-07-14T09:37:12Z</time>
      </trkpt>
      <trkpt lat="42.746234" lon="-7.213418">
        <ele>864.389</ele>
        <time>2021-07-14T09:37:31Z</time>
      </trkpt>
      <trkpt lat="42.746237" lon="-7.213434">
        <ele>864.887</ele>
        <time>2021-07-14T09:37:46Z</time>
      </trkpt>
      <trkpt lat="42.746233" lon="-7.213436">
        <ele>865.874</ele>
        <time>2021-07-14T09:38:12Z</time>
      </trkpt>
      <trkpt lat="42.746229" lon="-7.213418">
        <ele>866.292</ele>
        <time>2021-07-14T09:38:33Z</time>
      </trkpt>
      <trkpt lat="42.746214" lon="-7.213431">
        <ele>865.327</ele>
        <time>2021-07-14T09:38:49Z</time>
      </trkpt>
      <trkpt lat="42.746216" lon="-7.213429">
        <ele>865.368</ele>
        <time>2021-07-14T09:38:57Z</time>
      </trkpt>
      <trkpt lat="42.746193" lon="-7.213397">
        <ele>865.314</ele>
        <time>2021-07-14T09:39:06Z</time>
      </trkpt>
      <trkpt lat="42.746132" lon="-7.213340">
        <ele>866.208</ele>
        <time>2021-07-14T09:39:13Z</time>
      </trkpt>
      <trkpt lat="42.746014" lon="-7.213219">
        <ele>868.289</ele>
        <time>2021-07-14T09:39:23Z</time>
      </trkpt>
      <trkpt lat="42.745919" lon="-7.213112">
        <ele>868.621</ele>
        <time>2021-07-14T09:39:31Z</time>
      </trkpt>
      <trkpt lat="42.745816" lon="-7.212990">
        <ele>869.658</ele>
        <time>2021-07-14T09:39:40Z</time>
      </trkpt>
      <trkpt lat="42.745666" lon="-7.212841">
        <ele>871.068</ele>
        <time>2021-07-14T09:39:52Z</time>
      </trkpt>
      <trkpt lat="42.745547" lon="-7.212697">
        <ele>872.012</ele>
        <time>2021-07-14T09:40:02Z</time>
      </trkpt>
      <trkpt lat="42.745467" lon="-7.212601">
        <ele>873.060</ele>
        <time>2021-07-14T09:40:09Z</time>
      </trkpt>
      <trkpt lat="42.745392" lon="-7.212503">
        <ele>873.517</ele>
        <time>2021-07-14T09:40:17Z</time>
      </trkpt>
      <trkpt lat="42.745271" lon="-7.212320">
        <ele>874.415</ele>
        <time>2021-07-14T09:40:28Z</time>
      </trkpt>
      <trkpt lat="42.745173" lon="-7.212133">
        <ele>876.848</ele>
        <time>2021-07-14T09:40:38Z</time>
      </trkpt>
      <trkpt lat="42.745093" lon="-7.211947">
        <ele>878.361</ele>
        <time>2021-07-14T09:40:49Z</time>
      </trkpt>
      <trkpt lat="42.745019" lon="-7.211764">
        <ele>879.717</ele>
        <time>2021-07-14T09:40:59Z</time>
      </trkpt>
      <trkpt lat="42.744970" lon="-7.211592">
        <ele>880.708</ele>
        <time>2021-07-14T09:41:08Z</time>
      </trkpt>
      <trkpt lat="42.744915" lon="-7.211376">
        <ele>882.141</ele>
        <time>2021-07-14T09:41:19Z</time>
      </trkpt>
      <trkpt lat="42.744858" lon="-7.211124">
        <ele>885.083</ele>
        <time>2021-07-14T09:41:31Z</time>
      </trkpt>
      <trkpt lat="42.744817" lon="-7.210894">
        <ele>886.410</ele>
        <time>2021-07-14T09:41:41Z</time>
      </trkpt>
      <trkpt lat="42.744770" lon="-7.210644">
        <ele>888.490</ele>
        <time>2021-07-14T09:41:53Z</time>
      </trkpt>
      <trkpt lat="42.744734" lon="-7.210455">
        <ele>889.314</ele>
        <time>2021-07-14T09:42:02Z</time>
      </trkpt>
      <trkpt lat="42.744702" lon="-7.210307">
        <ele>890.882</ele>
        <time>2021-07-14T09:42:09Z</time>
      </trkpt>
      <trkpt lat="42.744649" lon="-7.210107">
        <ele>891.769</ele>
        <time>2021-07-14T09:42:19Z</time>
      </trkpt>
      <trkpt lat="42.744592" lon="-7.209900">
        <ele>893.217</ele>
        <time>2021-07-14T09:42:29Z</time>
      </trkpt>
      <trkpt lat="42.744515" lon="-7.209703">
        <ele>893.635</ele>
        <time>2021-07-14T09:42:39Z</time>
      </trkpt>
      <trkpt lat="42.744435" lon="-7.209558">
        <ele>894.686</ele>
        <time>2021-07-14T09:42:48Z</time>
      </trkpt>
      <trkpt lat="42.744388" lon="-7.209485">
        <ele>895.114</ele>
        <time>2021-07-14T09:42:53Z</time>
      </trkpt>
      <trkpt lat="42.744383" lon="-7.209468">
        <ele>895.608</ele>
        <time>2021-07-14T09:42:54Z</time>
      </trkpt>
      <trkpt lat="42.744373" lon="-7.209450">
        <ele>896.020</ele>
        <time>2021-07-14T09:42:55Z</time>
      </trkpt>
      <trkpt lat="42.744359" lon="-7.209435">
        <ele>896.522</ele>
        <time>2021-07-14T09:42:56Z</time>
      </trkpt>
      <trkpt lat="42.744345" lon="-7.209419">
        <ele>896.579</ele>
        <time>2021-07-14T09:42:57Z</time>
      </trkpt>
      <trkpt lat="42.744262" lon="-7.209287">
        <ele>896.529</ele>
        <time>2021-07-14T09:43:05Z</time>
      </trkpt>
      <trkpt lat="42.744193" lon="-7.209171">
        <ele>897.053</ele>
        <time>2021-07-14T09:43:12Z</time>
      </trkpt>
      <trkpt lat="42.744096" lon="-7.209035">
        <ele>897.031</ele>
        <time>2021-07-14T09:43:21Z</time>
      </trkpt>
      <trkpt lat="42.743998" lon="-7.208880">
        <ele>898.428</ele>
        <time>2021-07-14T09:43:31Z</time>
      </trkpt>
      <trkpt lat="42.743890" lon="-7.208718">
        <ele>899.426</ele>
        <time>2021-07-14T09:43:41Z</time>
      </trkpt>
      <trkpt lat="42.743821" lon="-7.208617">
        <ele>900.813</ele>
        <time>2021-07-14T09:43:50Z</time>
      </trkpt>
      <trkpt lat="42.743746" lon="-7.208491">
        <ele>901.343</ele>
        <time>2021-07-14T09:43:59Z</time>
      </trkpt>
      <trkpt lat="42.743725" lon="-7.208445">
        <ele>902.307</ele>
        <time>2021-07-14T09:44:02Z</time>
      </trkpt>
      <trkpt lat="42.743716" lon="-7.208431">
        <ele>902.808</ele>
        <time>2021-07-14T09:44:03Z</time>
      </trkpt>
      <trkpt lat="42.743612" lon="-7.208296">
        <ele>903.798</ele>
        <time>2021-07-14T09:44:13Z</time>
      </trkpt>
      <trkpt lat="42.743516" lon="-7.208157">
        <ele>904.230</ele>
        <time>2021-07-14T09:44:22Z</time>
      </trkpt>
      <trkpt lat="42.743350" lon="-7.207982">
        <ele>905.767</ele>
        <time>2021-07-14T09:44:35Z</time>
      </trkpt>
      <trkpt lat="42.743188" lon="-7.207893">
        <ele>907.637</ele>
        <time>2021-07-14T09:44:45Z</time>
      </trkpt>
      <trkpt lat="42.743015" lon="-7.207863">
        <ele>909.021</ele>
        <time>2021-07-14T09:44:55Z</time>
      </trkpt>
      <trkpt lat="42.742838" lon="-7.207896">
        <ele>910.569</ele>
        <time>2021-07-14T09:45:05Z</time>
      </trkpt>
      <trkpt lat="42.742681" lon="-7.207971">
        <ele>912.926</ele>
        <time>2021-07-14T09:45:15Z</time>
      </trkpt>
      <trkpt lat="42.742526" lon="-7.208066">
        <ele>916.294</ele>
        <time>2021-07-14T09:45:25Z</time>
      </trkpt>
      <trkpt lat="42.742408" lon="-7.208127">
        <ele>917.781</ele>
        <time>2021-07-14T09:45:33Z</time>
      </trkpt>
      <trkpt lat="42.742398" lon="-7.208129">
        <ele>918.261</ele>
        <time>2021-07-14T09:45:34Z</time>
      </trkpt>
      <trkpt lat="42.742387" lon="-7.208134">
        <ele>918.217</ele>
        <time>2021-07-14T09:45:35Z</time>
      </trkpt>
      <trkpt lat="42.742375" lon="-7.208141">
        <ele>918.208</ele>
        <time>2021-07-14T09:45:36Z</time>
      </trkpt>
      <trkpt lat="42.742362" lon="-7.208145">
        <ele>918.295</ele>
        <time>2021-07-14T09:45:37Z</time>
      </trkpt>
      <trkpt lat="42.742256" lon="-7.208200">
        <ele>919.157</ele>
        <time>2021-07-14T09:45:45Z</time>
      </trkpt>
      <trkpt lat="42.742124" lon="-7.208246">
        <ele>919.174</ele>
        <time>2021-07-14T09:45:54Z</time>
      </trkpt>
      <trkpt lat="42.741993" lon="-7.208288">
        <ele>920.164</ele>
        <time>2021-07-14T09:46:02Z</time>
      </trkpt>
      <trkpt lat="42.741825" lon="-7.208318">
        <ele>920.618</ele>
        <time>2021-07-14T09:46:12Z</time>
      </trkpt>
      <trkpt lat="42.741646" lon="-7.208323">
        <ele>922.016</ele>
        <time>2021-07-14T09:46:22Z</time>
      </trkpt>
      <trkpt lat="42.741486" lon="-7.208303">
        <ele>922.523</ele>
        <time>2021-07-14T09:46:31Z</time>
      </trkpt>
      <trkpt lat="42.741326" lon="-7.208257">
        <ele>923.481</ele>
        <time>2021-07-14T09:46:40Z</time>
      </trkpt>
      <trkpt lat="42.741139" lon="-7.208181">
        <ele>923.975</ele>
        <time>2021-07-14T09:46:51Z</time>
      </trkpt>
      <trkpt lat="42.740961" lon="-7.208064">
        <ele>924.928</ele>
        <time>2021-07-14T09:47:02Z</time>
      </trkpt>
      <trkpt lat="42.740825" lon="-7.207972">
        <ele>926.320</ele>
        <time>2021-07-14T09:47:11Z</time>
      </trkpt>
      <trkpt lat="42.740749" lon="-7.207928">
        <ele>927.308</ele>
        <time>2021-07-14T09:47:19Z</time>
      </trkpt>
      <trkpt lat="42.740633" lon="-7.207845">
        <ele>928.784</ele>
        <time>2021-07-14T09:47:29Z</time>
      </trkpt>
      <trkpt lat="42.740533" lon="-7.207761">
        <ele>930.246</ele>
        <time>2021-07-14T09:47:37Z</time>
      </trkpt>
      <trkpt lat="42.740439" lon="-7.207683">
        <ele>931.163</ele>
        <time>2021-07-14T09:47:44Z</time>
      </trkpt>
      <trkpt lat="42.740262" lon="-7.207545">
        <ele>933.133</ele>
        <time>2021-07-14T09:47:57Z</time>
      </trkpt>
      <trkpt lat="42.740107" lon="-7.207417">
        <ele>933.577</ele>
        <time>2021-07-14T09:48:08Z</time>
      </trkpt>
      <trkpt lat="42.739969" lon="-7.207284">
        <ele>935.585</ele>
        <time>2021-07-14T09:48:18Z</time>
      </trkpt>
      <trkpt lat="42.739834" lon="-7.207141">
        <ele>936.412</ele>
        <time>2021-07-14T09:48:28Z</time>
      </trkpt>
      <trkpt lat="42.739698" lon="-7.206982">
        <ele>938.880</ele>
        <time>2021-07-14T09:48:39Z</time>
      </trkpt>
      <trkpt lat="42.739619" lon="-7.206889">
        <ele>939.398</ele>
        <time>2021-07-14T09:48:47Z</time>
      </trkpt>
      <trkpt lat="42.739514" lon="-7.206749">
        <ele>940.315</ele>
        <time>2021-07-14T09:48:57Z</time>
      </trkpt>
      <trkpt lat="42.739406" lon="-7.206588">
        <ele>941.226</ele>
        <time>2021-07-14T09:49:07Z</time>
      </trkpt>
      <trkpt lat="42.739366" lon="-7.206510">
        <ele>942.208</ele>
        <time>2021-07-14T09:49:15Z</time>
      </trkpt>
      <trkpt lat="42.739352" lon="-7.206531">
        <ele>941.256</ele>
        <time>2021-07-14T09:49:33Z</time>
      </trkpt>
      <trkpt lat="42.739368" lon="-7.206537">
        <ele>938.868</ele>
        <time>2021-07-14T09:49:59Z</time>
      </trkpt>
      <trkpt lat="42.739369" lon="-7.206529">
        <ele>937.995</ele>
        <time>2021-07-14T09:50:22Z</time>
      </trkpt>
      <trkpt lat="42.739367" lon="-7.206517">
        <ele>939.855</ele>
        <time>2021-07-14T09:50:43Z</time>
      </trkpt>
      <trkpt lat="42.739340" lon="-7.206482">
        <ele>939.849</ele>
        <time>2021-07-14T09:50:53Z</time>
      </trkpt>
      <trkpt lat="42.739344" lon="-7.206505">
        <ele>941.257</ele>
        <time>2021-07-14T09:51:11Z</time>
      </trkpt>
      <trkpt lat="42.739344" lon="-7.206469">
        <ele>942.234</ele>
        <time>2021-07-14T09:51:26Z</time>
      </trkpt>
      <trkpt lat="42.739347" lon="-7.206478">
        <ele>943.152</ele>
        <time>2021-07-14T09:51:47Z</time>
      </trkpt>
      <trkpt lat="42.739344" lon="-7.206498">
        <ele>940.334</ele>
        <time>2021-07-14T09:52:11Z</time>
      </trkpt>
      <trkpt lat="42.739329" lon="-7.206445">
        <ele>941.255</ele>
        <time>2021-07-14T09:52:24Z</time>
      </trkpt>
      <trkpt lat="42.739263" lon="-7.206334">
        <ele>942.210</ele>
        <time>2021-07-14T09:52:32Z</time>
      </trkpt>
      <trkpt lat="42.739235" lon="-7.206278">
        <ele>943.108</ele>
        <time>2021-07-14T09:52:35Z</time>
      </trkpt>
      <trkpt lat="42.739225" lon="-7.206266">
        <ele>943.180</ele>
        <time>2021-07-14T09:52:36Z</time>
      </trkpt>
      <trkpt lat="42.739214" lon="-7.206249">
        <ele>943.622</ele>
        <time>2021-07-14T09:52:37Z</time>
      </trkpt>
      <trkpt lat="42.739128" lon="-7.206074">
        <ele>945.549</ele>
        <time>2021-07-14T09:52:47Z</time>
      </trkpt>
      <trkpt lat="42.739034" lon="-7.205868">
        <ele>947.529</ele>
        <time>2021-07-14T09:52:58Z</time>
      </trkpt>
      <trkpt lat="42.738946" lon="-7.205645">
        <ele>949.973</ele>
        <time>2021-07-14T09:53:09Z</time>
      </trkpt>
      <trkpt lat="42.738823" lon="-7.205318">
        <ele>950.861</ele>
        <time>2021-07-14T09:53:25Z</time>
      </trkpt>
      <trkpt lat="42.738738" lon="-7.205063">
        <ele>951.878</ele>
        <time>2021-07-14T09:53:37Z</time>
      </trkpt>
      <trkpt lat="42.738632" lon="-7.204699">
        <ele>953.246</ele>
        <time>2021-07-14T09:53:53Z</time>
      </trkpt>
      <trkpt lat="42.738564" lon="-7.204464">
        <ele>955.698</ele>
        <time>2021-07-14T09:54:04Z</time>
      </trkpt>
      <trkpt lat="42.738489" lon="-7.204227">
        <ele>956.615</ele>
        <time>2021-07-14T09:54:15Z</time>
      </trkpt>
      <trkpt lat="42.738416" lon="-7.203976">
        <ele>958.526</ele>
        <time>2021-07-14T09:54:26Z</time>
      </trkpt>
      <trkpt lat="42.738369" lon="-7.203803">
        <ele>960.008</ele>
        <time>2021-07-14T09:54:35Z</time>
      </trkpt>
      <trkpt lat="42.738321" lon="-7.203681">
        <ele>960.926</ele>
        <time>2021-07-14T09:54:43Z</time>
      </trkpt>
      <trkpt lat="42.738252" lon="-7.203450">
        <ele>961.968</ele>
        <time>2021-07-14T09:54:56Z</time>
      </trkpt>
      <trkpt lat="42.738174" lon="-7.203181">
        <ele>963.895</ele>
        <time>2021-07-14T09:55:09Z</time>
      </trkpt>
      <trkpt lat="42.738097" lon="-7.202959">
        <ele>965.315</ele>
        <time>2021-07-14T09:55:20Z</time>
      </trkpt>
      <trkpt lat="42.738030" lon="-7.202742">
        <ele>966.759</ele>
        <time>2021-07-14T09:55:30Z</time>
      </trkpt>
      <trkpt lat="42.737954" lon="-7.202511">
        <ele>968.197</ele>
        <time>2021-07-14T09:55:41Z</time>
      </trkpt>
      <trkpt lat="42.737874" lon="-7.202308">
        <ele>969.684</ele>
        <time>2021-07-14T09:55:52Z</time>
      </trkpt>
      <trkpt lat="42.737808" lon="-7.202157">
        <ele>971.052</ele>
        <time>2021-07-14T09:56:01Z</time>
      </trkpt>
      <trkpt lat="42.737719" lon="-7.201989">
        <ele>972.094</ele>
        <time>2021-07-14T09:56:10Z</time>
      </trkpt>
      <trkpt lat="42.737707" lon="-7.201959">
        <ele>972.557</ele>
        <time>2021-07-14T09:56:16Z</time>
      </trkpt>
      <trkpt lat="42.737704" lon="-7.201949">
        <ele>972.022</ele>
        <time>2021-07-14T09:56:29Z</time>
      </trkpt>
      <trkpt lat="42.737692" lon="-7.201918">
        <ele>972.008</ele>
        <time>2021-07-14T09:56:38Z</time>
      </trkpt>
      <trkpt lat="42.737614" lon="-7.201801">
        <ele>972.596</ele>
        <time>2021-07-14T09:56:47Z</time>
      </trkpt>
      <trkpt lat="42.737514" lon="-7.201649">
        <ele>973.978</ele>
        <time>2021-07-14T09:56:56Z</time>
      </trkpt>
      <trkpt lat="42.737404" lon="-7.201484">
        <ele>974.935</ele>
        <time>2021-07-14T09:57:06Z</time>
      </trkpt>
      <trkpt lat="42.737261" lon="-7.201273">
        <ele>977.315</ele>
        <time>2021-07-14T09:57:19Z</time>
      </trkpt>
      <trkpt lat="42.737179" lon="-7.201149">
        <ele>978.729</ele>
        <time>2021-07-14T09:57:27Z</time>
      </trkpt>
      <trkpt lat="42.737096" lon="-7.200987">
        <ele>979.287</ele>
        <time>2021-07-14T09:57:37Z</time>
      </trkpt>
      <trkpt lat="42.737049" lon="-7.200831">
        <ele>980.634</ele>
        <time>2021-07-14T09:57:45Z</time>
      </trkpt>
      <trkpt lat="42.737018" lon="-7.200699">
        <ele>981.692</ele>
        <time>2021-07-14T09:57:52Z</time>
      </trkpt>
      <trkpt lat="42.737005" lon="-7.200508">
        <ele>982.677</ele>
        <time>2021-07-14T09:58:02Z</time>
      </trkpt>
      <trkpt lat="42.737020" lon="-7.200333">
        <ele>983.061</ele>
        <time>2021-07-14T09:58:10Z</time>
      </trkpt>
      <trkpt lat="42.737057" lon="-7.200141">
        <ele>984.027</ele>
        <time>2021-07-14T09:58:19Z</time>
      </trkpt>
      <trkpt lat="42.737141" lon="-7.199926">
        <ele>985.008</ele>
        <time>2021-07-14T09:58:30Z</time>
      </trkpt>
      <trkpt lat="42.737217" lon="-7.199826">
        <ele>985.984</ele>
        <time>2021-07-14T09:58:38Z</time>
      </trkpt>
      <trkpt lat="42.737304" lon="-7.199742">
        <ele>986.916</ele>
        <time>2021-07-14T09:58:46Z</time>
      </trkpt>
      <trkpt lat="42.737430" lon="-7.199652">
        <ele>988.363</ele>
        <time>2021-07-14T09:58:55Z</time>
      </trkpt>
      <trkpt lat="42.737605" lon="-7.199587">
        <ele>989.843</ele>
        <time>2021-07-14T09:59:06Z</time>
      </trkpt>
      <trkpt lat="42.737636" lon="-7.199580">
        <ele>990.377</ele>
        <time>2021-07-14T09:59:08Z</time>
      </trkpt>
      <trkpt lat="42.737653" lon="-7.199581">
        <ele>990.325</ele>
        <time>2021-07-14T09:59:09Z</time>
      </trkpt>
      <trkpt lat="42.737815" lon="-7.199592">
        <ele>991.762</ele>
        <time>2021-07-14T09:59:19Z</time>
      </trkpt>
      <trkpt lat="42.737957" lon="-7.199658">
        <ele>993.120</ele>
        <time>2021-07-14T09:59:29Z</time>
      </trkpt>
      <trkpt lat="42.738082" lon="-7.199738">
        <ele>993.628</ele>
        <time>2021-07-14T09:59:38Z</time>
      </trkpt>
      <trkpt lat="42.738208" lon="-7.199880">
        <ele>994.689</ele>
        <time>2021-07-14T09:59:48Z</time>
      </trkpt>
      <trkpt lat="42.738283" lon="-7.200027">
        <ele>996.017</ele>
        <time>2021-07-14T09:59:56Z</time>
      </trkpt>
      <trkpt lat="42.738351" lon="-7.200175">
        <ele>996.008</ele>
        <time>2021-07-14T10:00:04Z</time>
      </trkpt>
      <trkpt lat="42.738393" lon="-7.200343">
        <ele>997.099</ele>
        <time>2021-07-14T10:00:12Z</time>
      </trkpt>
      <trkpt lat="42.738400" lon="-7.200365">
        <ele>997.081</ele>
        <time>2021-07-14T10:00:13Z</time>
      </trkpt>
      <trkpt lat="42.738406" lon="-7.200388">
        <ele>997.048</ele>
        <time>2021-07-14T10:00:14Z</time>
      </trkpt>
      <trkpt lat="42.738427" lon="-7.200468">
        <ele>997.978</ele>
        <time>2021-07-14T10:00:18Z</time>
      </trkpt>
      <trkpt lat="42.738434" lon="-7.200488">
        <ele>998.452</ele>
        <time>2021-07-14T10:00:19Z</time>
      </trkpt>
      <trkpt lat="42.738439" lon="-7.200508">
        <ele>998.490</ele>
        <time>2021-07-14T10:00:20Z</time>
      </trkpt>
      <trkpt lat="42.738490" lon="-7.200714">
        <ele>1000.397</ele>
        <time>2021-07-14T10:00:30Z</time>
      </trkpt>
      <trkpt lat="42.738534" lon="-7.200872">
        <ele>1000.875</ele>
        <time>2021-07-14T10:00:39Z</time>
      </trkpt>
      <trkpt lat="42.738540" lon="-7.200884">
        <ele>1001.332</ele>
        <time>2021-07-14T10:00:40Z</time>
      </trkpt>
      <trkpt lat="42.738547" lon="-7.200896">
        <ele>1001.392</ele>
        <time>2021-07-14T10:00:41Z</time>
      </trkpt>
      <trkpt lat="42.738629" lon="-7.201077">
        <ele>1002.711</ele>
        <time>2021-07-14T10:00:53Z</time>
      </trkpt>
      <trkpt lat="42.738710" lon="-7.201206">
        <ele>1003.708</ele>
        <time>2021-07-14T10:01:01Z</time>
      </trkpt>
      <trkpt lat="42.738770" lon="-7.201264">
        <ele>1004.710</ele>
        <time>2021-07-14T10:01:06Z</time>
      </trkpt>
      <trkpt lat="42.738784" lon="-7.201274">
        <ele>1005.272</ele>
        <time>2021-07-14T10:01:07Z</time>
      </trkpt>
      <trkpt lat="42.738799" lon="-7.201286">
        <ele>1005.249</ele>
        <time>2021-07-14T10:01:08Z</time>
      </trkpt>
      <trkpt lat="42.738979" lon="-7.201399">
        <ele>1007.189</ele>
        <time>2021-07-14T10:01:20Z</time>
      </trkpt>
      <trkpt lat="42.739131" lon="-7.201475">
        <ele>1008.553</ele>
        <time>2021-07-14T10:01:30Z</time>
      </trkpt>
      <trkpt lat="42.739284" lon="-7.201555">
        <ele>1010.051</ele>
        <time>2021-07-14T10:01:40Z</time>
      </trkpt>
      <trkpt lat="42.739462" lon="-7.201640">
        <ele>1011.928</ele>
        <time>2021-07-14T10:01:51Z</time>
      </trkpt>
      <trkpt lat="42.739540" lon="-7.201672">
        <ele>1012.886</ele>
        <time>2021-07-14T10:01:58Z</time>
      </trkpt>
      <trkpt lat="42.739644" lon="-7.201727">
        <ele>1013.888</ele>
        <time>2021-07-14T10:02:06Z</time>
      </trkpt>
      <trkpt lat="42.739787" lon="-7.201784">
        <ele>1015.724</ele>
        <time>2021-07-14T10:02:16Z</time>
      </trkpt>
      <trkpt lat="42.739941" lon="-7.201849">
        <ele>1017.626</ele>
        <time>2021-07-14T10:02:27Z</time>
      </trkpt>
      <trkpt lat="42.740070" lon="-7.201920">
        <ele>1019.108</ele>
        <time>2021-07-14T10:02:36Z</time>
      </trkpt>
      <trkpt lat="42.740226" lon="-7.201988">
        <ele>1020.145</ele>
        <time>2021-07-14T10:02:46Z</time>
      </trkpt>
      <trkpt lat="42.740355" lon="-7.202051">
        <ele>1021.027</ele>
        <time>2021-07-14T10:02:55Z</time>
      </trkpt>
      <trkpt lat="42.740361" lon="-7.202060">
        <ele>1021.074</ele>
        <time>2021-07-14T10:02:56Z</time>
      </trkpt>
      <trkpt lat="42.740370" lon="-7.202064">
        <ele>1021.074</ele>
        <time>2021-07-14T10:02:57Z</time>
      </trkpt>
      <trkpt lat="42.740382" lon="-7.202067">
        <ele>1021.048</ele>
        <time>2021-07-14T10:02:58Z</time>
      </trkpt>
      <trkpt lat="42.740395" lon="-7.202073">
        <ele>1021.016</ele>
        <time>2021-07-14T10:02:59Z</time>
      </trkpt>
      <trkpt lat="42.740424" lon="-7.202084">
        <ele>1021.593</ele>
        <time>2021-07-14T10:03:01Z</time>
      </trkpt>
      <trkpt lat="42.740596" lon="-7.202159">
        <ele>1022.991</ele>
        <time>2021-07-14T10:03:12Z</time>
      </trkpt>
      <trkpt lat="42.740776" lon="-7.202245">
        <ele>1024.955</ele>
        <time>2021-07-14T10:03:23Z</time>
      </trkpt>
      <trkpt lat="42.740907" lon="-7.202313">
        <ele>1025.307</ele>
        <time>2021-07-14T10:03:32Z</time>
      </trkpt>
      <trkpt lat="42.741037" lon="-7.202375">
        <ele>1026.317</ele>
        <time>2021-07-14T10:03:41Z</time>
      </trkpt>
      <trkpt lat="42.741214" lon="-7.202467">
        <ele>1028.208</ele>
        <time>2021-07-14T10:03:53Z</time>
      </trkpt>
      <trkpt lat="42.741392" lon="-7.202536">
        <ele>1030.132</ele>
        <time>2021-07-14T10:04:04Z</time>
      </trkpt>
      <trkpt lat="42.741570" lon="-7.202591">
        <ele>1031.674</ele>
        <time>2021-07-14T10:04:15Z</time>
      </trkpt>
      <trkpt lat="42.741740" lon="-7.202603">
        <ele>1033.521</ele>
        <time>2021-07-14T10:04:25Z</time>
      </trkpt>
      <trkpt lat="42.741891" lon="-7.202587">
        <ele>1034.581</ele>
        <time>2021-07-14T10:04:35Z</time>
      </trkpt>
      <trkpt lat="42.741990" lon="-7.202547">
        <ele>1034.535</ele>
        <time>2021-07-14T10:04:42Z</time>
      </trkpt>
      <trkpt lat="42.742124" lon="-7.202486">
        <ele>1035.913</ele>
        <time>2021-07-14T10:04:52Z</time>
      </trkpt>
      <trkpt lat="42.742243" lon="-7.202414">
        <ele>1037.460</ele>
        <time>2021-07-14T10:05:01Z</time>
      </trkpt>
      <trkpt lat="42.742386" lon="-7.202279">
        <ele>1037.868</ele>
        <time>2021-07-14T10:05:12Z</time>
      </trkpt>
      <trkpt lat="42.742511" lon="-7.202121">
        <ele>1038.872</ele>
        <time>2021-07-14T10:05:23Z</time>
      </trkpt>
      <trkpt lat="42.742612" lon="-7.201949">
        <ele>1039.313</ele>
        <time>2021-07-14T10:05:33Z</time>
      </trkpt>
      <trkpt lat="42.742712" lon="-7.201745">
        <ele>1040.714</ele>
        <time>2021-07-14T10:05:44Z</time>
      </trkpt>
      <trkpt lat="42.742790" lon="-7.201462">
        <ele>1042.608</ele>
        <time>2021-07-14T10:05:57Z</time>
      </trkpt>
      <trkpt lat="42.742827" lon="-7.201223">
        <ele>1045.034</ele>
        <time>2021-07-14T10:06:08Z</time>
      </trkpt>
      <trkpt lat="42.742834" lon="-7.201032">
        <ele>1046.566</ele>
        <time>2021-07-14T10:06:16Z</time>
      </trkpt>
      <trkpt lat="42.742828" lon="-7.200876">
        <ele>1047.993</ele>
        <time>2021-07-14T10:06:24Z</time>
      </trkpt>
      <trkpt lat="42.742824" lon="-7.200813">
        <ele>1048.413</ele>
        <time>2021-07-14T10:06:28Z</time>
      </trkpt>
      <trkpt lat="42.742821" lon="-7.200796">
        <ele>1048.447</ele>
        <time>2021-07-14T10:06:29Z</time>
      </trkpt>
      <trkpt lat="42.742818" lon="-7.200778">
        <ele>1048.455</ele>
        <time>2021-07-14T10:06:30Z</time>
      </trkpt>
      <trkpt lat="42.742815" lon="-7.200759">
        <ele>1048.462</ele>
        <time>2021-07-14T10:06:31Z</time>
      </trkpt>
      <trkpt lat="42.742813" lon="-7.200740">
        <ele>1048.460</ele>
        <time>2021-07-14T10:06:32Z</time>
      </trkpt>
      <trkpt lat="42.742811" lon="-7.200723">
        <ele>1048.443</ele>
        <time>2021-07-14T10:06:33Z</time>
      </trkpt>
      <trkpt lat="42.742808" lon="-7.200704">
        <ele>1048.464</ele>
        <time>2021-07-14T10:06:34Z</time>
      </trkpt>
      <trkpt lat="42.742805" lon="-7.200686">
        <ele>1048.910</ele>
        <time>2021-07-14T10:06:35Z</time>
      </trkpt>
      <trkpt lat="42.742801" lon="-7.200666">
        <ele>1048.908</ele>
        <time>2021-07-14T10:06:36Z</time>
      </trkpt>
      <trkpt lat="42.742772" lon="-7.200501">
        <ele>1049.411</ele>
        <time>2021-07-14T10:06:44Z</time>
      </trkpt>
      <trkpt lat="42.742680" lon="-7.200254">
        <ele>1051.333</ele>
        <time>2021-07-14T10:06:57Z</time>
      </trkpt>
      <trkpt lat="42.742566" lon="-7.200054">
        <ele>1052.370</ele>
        <time>2021-07-14T10:07:09Z</time>
      </trkpt>
      <trkpt lat="42.742480" lon="-7.199926">
        <ele>1052.730</ele>
        <time>2021-07-14T10:07:17Z</time>
      </trkpt>
      <trkpt lat="42.742359" lon="-7.199777">
        <ele>1054.794</ele>
        <time>2021-07-14T10:07:27Z</time>
      </trkpt>
      <trkpt lat="42.742179" lon="-7.199610">
        <ele>1057.192</ele>
        <time>2021-07-14T10:07:40Z</time>
      </trkpt>
      <trkpt lat="42.742013" lon="-7.199459">
        <ele>1058.539</ele>
        <time>2021-07-14T10:07:52Z</time>
      </trkpt>
      <trkpt lat="42.741911" lon="-7.199375">
        <ele>1059.957</ele>
        <time>2021-07-14T10:08:01Z</time>
      </trkpt>
      <trkpt lat="42.741796" lon="-7.199254">
        <ele>1061.424</ele>
        <time>2021-07-14T10:08:12Z</time>
      </trkpt>
      <trkpt lat="42.741710" lon="-7.199177">
        <ele>1062.304</ele>
        <time>2021-07-14T10:08:19Z</time>
      </trkpt>
      <trkpt lat="42.741571" lon="-7.199052">
        <ele>1063.814</ele>
        <time>2021-07-14T10:08:31Z</time>
      </trkpt>
      <trkpt lat="42.741432" lon="-7.198936">
        <ele>1065.208</ele>
        <time>2021-07-14T10:08:42Z</time>
      </trkpt>
      <trkpt lat="42.741334" lon="-7.198844">
        <ele>1066.769</ele>
        <time>2021-07-14T10:08:50Z</time>
      </trkpt>
      <trkpt lat="42.741192" lon="-7.198720">
        <ele>1068.631</ele>
        <time>2021-07-14T10:09:01Z</time>
      </trkpt>
      <trkpt lat="42.741038" lon="-7.198573">
        <ele>1070.028</ele>
        <time>2021-07-14T10:09:13Z</time>
      </trkpt>
      <trkpt lat="42.740920" lon="-7.198475">
        <ele>1071.588</ele>
        <time>2021-07-14T10:09:22Z</time>
      </trkpt>
      <trkpt lat="42.740903" lon="-7.198449">
        <ele>1071.582</ele>
        <time>2021-07-14T10:09:29Z</time>
      </trkpt>
      <trkpt lat="42.740887" lon="-7.198451">
        <ele>1071.540</ele>
        <time>2021-07-14T10:09:36Z</time>
      </trkpt>
      <trkpt lat="42.740879" lon="-7.198442">
        <ele>1072.927</ele>
        <time>2021-07-14T10:09:52Z</time>
      </trkpt>
      <trkpt lat="42.740887" lon="-7.198440">
        <ele>1072.955</ele>
        <time>2021-07-14T10:10:24Z</time>
      </trkpt>
      <trkpt lat="42.740886" lon="-7.198436">
        <ele>1073.965</ele>
        <time>2021-07-14T10:10:47Z</time>
      </trkpt>
      <trkpt lat="42.740893" lon="-7.198441">
        <ele>1074.868</ele>
        <time>2021-07-14T10:11:04Z</time>
      </trkpt>
      <trkpt lat="42.740868" lon="-7.198413">
        <ele>1073.914</ele>
        <time>2021-07-14T10:11:14Z</time>
      </trkpt>
      <trkpt lat="42.740852" lon="-7.198408">
        <ele>1072.908</ele>
        <time>2021-07-14T10:11:23Z</time>
      </trkpt>
      <trkpt lat="42.740854" lon="-7.198398">
        <ele>1071.583</ele>
        <time>2021-07-14T10:11:43Z</time>
      </trkpt>
      <trkpt lat="42.740759" lon="-7.198309">
        <ele>1072.475</ele>
        <time>2021-07-14T10:11:51Z</time>
      </trkpt>
      <trkpt lat="42.740721" lon="-7.198278">
        <ele>1072.952</ele>
        <time>2021-07-14T10:11:54Z</time>
      </trkpt>
      <trkpt lat="42.740706" lon="-7.198268">
        <ele>1072.912</ele>
        <time>2021-07-14T10:11:55Z</time>
      </trkpt>
      <trkpt lat="42.740692" lon="-7.198259">
        <ele>1072.996</ele>
        <time>2021-07-14T10:11:56Z</time>
      </trkpt>
      <trkpt lat="42.740677" lon="-7.198248">
        <ele>1073.494</ele>
        <time>2021-07-14T10:11:57Z</time>
      </trkpt>
      <trkpt lat="42.740664" lon="-7.198236">
        <ele>1073.441</ele>
        <time>2021-07-14T10:11:58Z</time>
      </trkpt>
      <trkpt lat="42.740652" lon="-7.198226">
        <ele>1073.459</ele>
        <time>2021-07-14T10:11:59Z</time>
      </trkpt>
      <trkpt lat="42.740513" lon="-7.198101">
        <ele>1074.891</ele>
        <time>2021-07-14T10:12:09Z</time>
      </trkpt>
      <trkpt lat="42.740368" lon="-7.197972">
        <ele>1076.381</ele>
        <time>2021-07-14T10:12:19Z</time>
      </trkpt>
      <trkpt lat="42.740185" lon="-7.197808">
        <ele>1078.219</ele>
        <time>2021-07-14T10:12:32Z</time>
      </trkpt>
      <trkpt lat="42.739999" lon="-7.197633">
        <ele>1080.608</ele>
        <time>2021-07-14T10:12:45Z</time>
      </trkpt>
      <trkpt lat="42.739855" lon="-7.197491">
        <ele>1082.596</ele>
        <time>2021-07-14T10:12:55Z</time>
      </trkpt>
      <trkpt lat="42.739710" lon="-7.197345">
        <ele>1084.068</ele>
        <time>2021-07-14T10:13:05Z</time>
      </trkpt>
      <trkpt lat="42.739557" lon="-7.197153">
        <ele>1084.925</ele>
        <time>2021-07-14T10:13:17Z</time>
      </trkpt>
      <trkpt lat="42.739519" lon="-7.197093">
        <ele>1085.485</ele>
        <time>2021-07-14T10:13:24Z</time>
      </trkpt>
      <trkpt lat="42.739436" lon="-7.196944">
        <ele>1085.449</ele>
        <time>2021-07-14T10:13:36Z</time>
      </trkpt>
      <trkpt lat="42.739408" lon="-7.196881">
        <ele>1085.967</ele>
        <time>2021-07-14T10:13:40Z</time>
      </trkpt>
      <trkpt lat="42.739399" lon="-7.196865">
        <ele>1085.954</ele>
        <time>2021-07-14T10:13:41Z</time>
      </trkpt>
      <trkpt lat="42.739391" lon="-7.196848">
        <ele>1086.452</ele>
        <time>2021-07-14T10:13:42Z</time>
      </trkpt>
      <trkpt lat="42.739315" lon="-7.196670">
        <ele>1087.368</ele>
        <time>2021-07-14T10:13:53Z</time>
      </trkpt>
      <trkpt lat="42.739276" lon="-7.196586">
        <ele>1087.842</ele>
        <time>2021-07-14T10:14:01Z</time>
      </trkpt>
      <trkpt lat="42.739265" lon="-7.196577">
        <ele>1088.326</ele>
        <time>2021-07-14T10:14:08Z</time>
      </trkpt>
      <trkpt lat="42.739268" lon="-7.196570">
        <ele>1088.308</ele>
        <time>2021-07-14T10:14:19Z</time>
      </trkpt>
      <trkpt lat="42.739269" lon="-7.196571">
        <ele>1088.353</ele>
        <time>2021-07-14T10:14:44Z</time>
      </trkpt>
      <trkpt lat="42.739257" lon="-7.196561">
        <ele>1089.385</ele>
        <time>2021-07-14T10:15:10Z</time>
      </trkpt>
      <trkpt lat="42.739251" lon="-7.196569">
        <ele>1089.352</ele>
        <time>2021-07-14T10:15:38Z</time>
      </trkpt>
      <trkpt lat="42.739254" lon="-7.196569">
        <ele>1089.732</ele>
        <time>2021-07-14T10:15:47Z</time>
      </trkpt>
      <trkpt lat="42.739235" lon="-7.196478">
        <ele>1090.296</ele>
        <time>2021-07-14T10:15:54Z</time>
      </trkpt>
      <trkpt lat="42.739167" lon="-7.196251">
        <ele>1091.294</ele>
        <time>2021-07-14T10:16:04Z</time>
      </trkpt>
      <trkpt lat="42.739075" lon="-7.195976">
        <ele>1093.131</ele>
        <time>2021-07-14T10:16:16Z</time>
      </trkpt>
      <trkpt lat="42.738997" lon="-7.195732">
        <ele>1094.629</ele>
        <time>2021-07-14T10:16:27Z</time>
      </trkpt>
      <trkpt lat="42.738908" lon="-7.195453">
        <ele>1097.049</ele>
        <time>2021-07-14T10:16:41Z</time>
      </trkpt>
      <trkpt lat="42.738860" lon="-7.195292">
        <ele>1097.402</ele>
        <time>2021-07-14T10:16:49Z</time>
      </trkpt>
      <trkpt lat="42.738795" lon="-7.195103">
        <ele>1097.922</ele>
        <time>2021-07-14T10:16:59Z</time>
      </trkpt>
      <trkpt lat="42.738756" lon="-7.194960">
        <ele>1099.408</ele>
        <time>2021-07-14T10:17:07Z</time>
      </trkpt>
      <trkpt lat="42.738702" lon="-7.194783">
        <ele>1100.371</ele>
        <time>2021-07-14T10:17:16Z</time>
      </trkpt>
      <trkpt lat="42.738631" lon="-7.194577">
        <ele>1101.843</ele>
        <time>2021-07-14T10:17:28Z</time>
      </trkpt>
      <trkpt lat="42.738582" lon="-7.194434">
        <ele>1102.760</ele>
        <time>2021-07-14T10:17:36Z</time>
      </trkpt>
      <trkpt lat="42.738541" lon="-7.194286">
        <ele>1104.280</ele>
        <time>2021-07-14T10:17:44Z</time>
      </trkpt>
      <trkpt lat="42.738487" lon="-7.194139">
        <ele>1105.684</ele>
        <time>2021-07-14T10:17:53Z</time>
      </trkpt>
      <trkpt lat="42.738418" lon="-7.193927">
        <ele>1106.672</ele>
        <time>2021-07-14T10:18:04Z</time>
      </trkpt>
      <trkpt lat="42.738348" lon="-7.193732">
        <ele>1108.099</ele>
        <time>2021-07-14T10:18:14Z</time>
      </trkpt>
      <trkpt lat="42.738280" lon="-7.193556">
        <ele>1109.587</ele>
        <time>2021-07-14T10:18:24Z</time>
      </trkpt>
      <trkpt lat="42.738203" lon="-7.193353">
        <ele>1110.496</ele>
        <time>2021-07-14T10:18:35Z</time>
      </trkpt>
      <trkpt lat="42.738130" lon="-7.193172">
        <ele>1111.431</ele>
        <time>2021-07-14T10:18:45Z</time>
      </trkpt>
      <trkpt lat="42.738086" lon="-7.193084">
        <ele>1111.924</ele>
        <time>2021-07-14T10:18:50Z</time>
      </trkpt>
      <trkpt lat="42.738076" lon="-7.193067">
        <ele>1111.908</ele>
        <time>2021-07-14T10:18:51Z</time>
      </trkpt>
      <trkpt lat="42.738067" lon="-7.193050">
        <ele>1111.986</ele>
        <time>2021-07-14T10:18:52Z</time>
      </trkpt>
      <trkpt lat="42.738034" lon="-7.192992">
        <ele>1112.378</ele>
        <time>2021-07-14T10:18:58Z</time>
      </trkpt>
      <trkpt lat="42.738026" lon="-7.192980">
        <ele>1112.345</ele>
        <time>2021-07-14T10:18:59Z</time>
      </trkpt>
      <trkpt lat="42.738021" lon="-7.192966">
        <ele>1112.895</ele>
        <time>2021-07-14T10:19:00Z</time>
      </trkpt>
      <trkpt lat="42.737973" lon="-7.192880">
        <ele>1113.849</ele>
        <time>2021-07-14T10:19:08Z</time>
      </trkpt>
      <trkpt lat="42.737950" lon="-7.192828">
        <ele>1114.317</ele>
        <time>2021-07-14T10:19:12Z</time>
      </trkpt>
      <trkpt lat="42.737943" lon="-7.192814">
        <ele>1114.724</ele>
        <time>2021-07-14T10:19:13Z</time>
      </trkpt>
      <trkpt lat="42.737862" lon="-7.192668">
        <ele>1115.762</ele>
        <time>2021-07-14T10:19:23Z</time>
      </trkpt>
      <trkpt lat="42.737774" lon="-7.192524">
        <ele>1116.764</ele>
        <time>2021-07-14T10:19:33Z</time>
      </trkpt>
      <trkpt lat="42.737678" lon="-7.192367">
        <ele>1118.606</ele>
        <time>2021-07-14T10:19:43Z</time>
      </trkpt>
      <trkpt lat="42.737557" lon="-7.192173">
        <ele>1120.516</ele>
        <time>2021-07-14T10:19:55Z</time>
      </trkpt>
      <trkpt lat="42.737438" lon="-7.191985">
        <ele>1122.008</ele>
        <time>2021-07-14T10:20:06Z</time>
      </trkpt>
      <trkpt lat="42.737310" lon="-7.191768">
        <ele>1123.973</ele>
        <time>2021-07-14T10:20:18Z</time>
      </trkpt>
      <trkpt lat="42.737192" lon="-7.191598">
        <ele>1125.385</ele>
        <time>2021-07-14T10:20:28Z</time>
      </trkpt>
      <trkpt lat="42.737088" lon="-7.191434">
        <ele>1126.362</ele>
        <time>2021-07-14T10:20:37Z</time>
      </trkpt>
      <trkpt lat="42.736967" lon="-7.191247">
        <ele>1128.232</ele>
        <time>2021-07-14T10:20:47Z</time>
      </trkpt>
      <trkpt lat="42.736819" lon="-7.191062">
        <ele>1129.636</ele>
        <time>2021-07-14T10:20:58Z</time>
      </trkpt>
      <trkpt lat="42.736674" lon="-7.190915">
        <ele>1131.124</ele>
        <time>2021-07-14T10:21:08Z</time>
      </trkpt>
      <trkpt lat="42.736539" lon="-7.190812">
        <ele>1132.531</ele>
        <time>2021-07-14T10:21:17Z</time>
      </trkpt>
      <trkpt lat="42.736471" lon="-7.190763">
        <ele>1132.519</ele>
        <time>2021-07-14T10:21:24Z</time>
      </trkpt>
      <trkpt lat="42.736411" lon="-7.190705">
        <ele>1133.512</ele>
        <time>2021-07-14T10:21:30Z</time>
      </trkpt>
      <trkpt lat="42.736398" lon="-7.190702">
        <ele>1133.532</ele>
        <time>2021-07-14T10:21:31Z</time>
      </trkpt>
      <trkpt lat="42.736384" lon="-7.190700">
        <ele>1133.505</ele>
        <time>2021-07-14T10:21:32Z</time>
      </trkpt>
      <trkpt lat="42.736371" lon="-7.190696">
        <ele>1133.508</ele>
        <time>2021-07-14T10:21:33Z</time>
      </trkpt>
      <trkpt lat="42.736358" lon="-7.190686">
        <ele>1133.578</ele>
        <time>2021-07-14T10:21:34Z</time>
      </trkpt>
      <trkpt lat="42.736345" lon="-7.190679">
        <ele>1133.540</ele>
        <time>2021-07-14T10:21:35Z</time>
      </trkpt>
      <trkpt lat="42.736332" lon="-7.190674">
        <ele>1134.097</ele>
        <time>2021-07-14T10:21:36Z</time>
      </trkpt>
      <trkpt lat="42.736320" lon="-7.190665">
        <ele>1134.087</ele>
        <time>2021-07-14T10:21:37Z</time>
      </trkpt>
      <trkpt lat="42.736306" lon="-7.190658">
        <ele>1134.011</ele>
        <time>2021-07-14T10:21:38Z</time>
      </trkpt>
      <trkpt lat="42.736292" lon="-7.190653">
        <ele>1134.059</ele>
        <time>2021-07-14T10:21:39Z</time>
      </trkpt>
      <trkpt lat="42.736279" lon="-7.190646">
        <ele>1134.466</ele>
        <time>2021-07-14T10:21:40Z</time>
      </trkpt>
      <trkpt lat="42.736134" lon="-7.190561">
        <ele>1134.994</ele>
        <time>2021-07-14T10:21:51Z</time>
      </trkpt>
      <trkpt lat="42.736003" lon="-7.190486">
        <ele>1136.466</ele>
        <time>2021-07-14T10:22:00Z</time>
      </trkpt>
      <trkpt lat="42.735848" lon="-7.190388">
        <ele>1138.329</ele>
        <time>2021-07-14T10:22:11Z</time>
      </trkpt>
      <trkpt lat="42.735720" lon="-7.190267">
        <ele>1139.721</ele>
        <time>2021-07-14T10:22:21Z</time>
      </trkpt>
      <trkpt lat="42.735646" lon="-7.190141">
        <ele>1140.208</ele>
        <time>2021-07-14T10:22:29Z</time>
      </trkpt>
      <trkpt lat="42.735579" lon="-7.189988">
        <ele>1140.223</ele>
        <time>2021-07-14T10:22:38Z</time>
      </trkpt>
      <trkpt lat="42.735542" lon="-7.189823">
        <ele>1141.245</ele>
        <time>2021-07-14T10:22:47Z</time>
      </trkpt>
      <trkpt lat="42.735528" lon="-7.189670">
        <ele>1142.152</ele>
        <time>2021-07-14T10:22:55Z</time>
      </trkpt>
      <trkpt lat="42.735525" lon="-7.189576">
        <ele>1142.612</ele>
        <time>2021-07-14T10:23:03Z</time>
      </trkpt>
      <trkpt lat="42.735525" lon="-7.189446">
        <ele>1144.136</ele>
        <time>2021-07-14T10:23:12Z</time>
      </trkpt>
      <trkpt lat="42.735557" lon="-7.189301">
        <ele>1145.534</ele>
        <time>2021-07-14T10:23:22Z</time>
      </trkpt>
      <trkpt lat="42.735595" lon="-7.189179">
        <ele>1146.581</ele>
        <time>2021-07-14T10:23:30Z</time>
      </trkpt>
      <trkpt lat="42.735603" lon="-7.189147">
        <ele>1146.999</ele>
        <time>2021-07-14T10:23:32Z</time>
      </trkpt>
      <trkpt lat="42.735621" lon="-7.189098">
        <ele>1147.451</ele>
        <time>2021-07-14T10:23:35Z</time>
      </trkpt>
      <trkpt lat="42.735630" lon="-7.189083">
        <ele>1147.401</ele>
        <time>2021-07-14T10:23:36Z</time>
      </trkpt>
      <trkpt lat="42.735635" lon="-7.189068">
        <ele>1147.411</ele>
        <time>2021-07-14T10:23:37Z</time>
      </trkpt>
      <trkpt lat="42.735642" lon="-7.189055">
        <ele>1147.908</ele>
        <time>2021-07-14T10:23:38Z</time>
      </trkpt>
      <trkpt lat="42.735650" lon="-7.189042">
        <ele>1147.972</ele>
        <time>2021-07-14T10:23:39Z</time>
      </trkpt>
      <trkpt lat="42.735658" lon="-7.189028">
        <ele>1148.454</ele>
        <time>2021-07-14T10:23:40Z</time>
      </trkpt>
      <trkpt lat="42.735664" lon="-7.189013">
        <ele>1148.431</ele>
        <time>2021-07-14T10:23:41Z</time>
      </trkpt>
      <trkpt lat="42.735673" lon="-7.189001">
        <ele>1148.431</ele>
        <time>2021-07-14T10:23:42Z</time>
      </trkpt>
      <trkpt lat="42.735685" lon="-7.188989">
        <ele>1148.455</ele>
        <time>2021-07-14T10:23:43Z</time>
      </trkpt>
      <trkpt lat="42.735696" lon="-7.188977">
        <ele>1148.473</ele>
        <time>2021-07-14T10:23:44Z</time>
      </trkpt>
      <trkpt lat="42.735799" lon="-7.188853">
        <ele>1149.310</ele>
        <time>2021-07-14T10:23:54Z</time>
      </trkpt>
      <trkpt lat="42.735859" lon="-7.188792">
        <ele>1149.898</ele>
        <time>2021-07-14T10:24:00Z</time>
      </trkpt>
      <trkpt lat="42.735874" lon="-7.188787">
        <ele>1150.319</ele>
        <time>2021-07-14T10:24:01Z</time>
      </trkpt>
      <trkpt lat="42.735887" lon="-7.188779">
        <ele>1150.309</ele>
        <time>2021-07-14T10:24:02Z</time>
      </trkpt>
      <trkpt lat="42.735901" lon="-7.188772">
        <ele>1150.819</ele>
        <time>2021-07-14T10:24:03Z</time>
      </trkpt>
      <trkpt lat="42.735916" lon="-7.188766">
        <ele>1150.808</ele>
        <time>2021-07-14T10:24:04Z</time>
      </trkpt>
      <trkpt lat="42.735928" lon="-7.188757">
        <ele>1151.398</ele>
        <time>2021-07-14T10:24:05Z</time>
      </trkpt>
      <trkpt lat="42.735972" lon="-7.188724">
        <ele>1152.230</ele>
        <time>2021-07-14T10:24:09Z</time>
      </trkpt>
      <trkpt lat="42.735981" lon="-7.188717">
        <ele>1152.717</ele>
        <time>2021-07-14T10:24:10Z</time>
      </trkpt>
      <trkpt lat="42.735991" lon="-7.188712">
        <ele>1152.747</ele>
        <time>2021-07-14T10:24:11Z</time>
      </trkpt>
      <trkpt lat="42.736001" lon="-7.188707">
        <ele>1153.291</ele>
        <time>2021-07-14T10:24:12Z</time>
      </trkpt>
      <trkpt lat="42.736014" lon="-7.188702">
        <ele>1153.719</ele>
        <time>2021-07-14T10:24:13Z</time>
      </trkpt>
      <trkpt lat="42.736028" lon="-7.188701">
        <ele>1153.776</ele>
        <time>2021-07-14T10:24:14Z</time>
      </trkpt>
      <trkpt lat="42.736043" lon="-7.188700">
        <ele>1154.284</ele>
        <time>2021-07-14T10:24:15Z</time>
      </trkpt>
      <trkpt lat="42.736056" lon="-7.188697">
        <ele>1154.255</ele>
        <time>2021-07-14T10:24:16Z</time>
      </trkpt>
      <trkpt lat="42.736069" lon="-7.188692">
        <ele>1154.607</ele>
        <time>2021-07-14T10:24:17Z</time>
      </trkpt>
      <trkpt lat="42.736182" lon="-7.188664">
        <ele>1156.617</ele>
        <time>2021-07-14T10:24:26Z</time>
      </trkpt>
      <trkpt lat="42.736311" lon="-7.188675">
        <ele>1156.608</ele>
        <time>2021-07-14T10:24:35Z</time>
      </trkpt>
      <trkpt lat="42.736426" lon="-7.188711">
        <ele>1156.612</ele>
        <time>2021-07-14T10:24:44Z</time>
      </trkpt>
      <trkpt lat="42.736555" lon="-7.188770">
        <ele>1156.694</ele>
        <time>2021-07-14T10:24:54Z</time>
      </trkpt>
      <trkpt lat="42.736675" lon="-7.188844">
        <ele>1156.681</ele>
        <time>2021-07-14T10:25:03Z</time>
      </trkpt>
      <trkpt lat="42.736790" lon="-7.188948">
        <ele>1158.021</ele>
        <time>2021-07-14T10:25:13Z</time>
      </trkpt>
      <trkpt lat="42.736912" lon="-7.189065">
        <ele>1159.955</ele>
        <time>2021-07-14T10:25:23Z</time>
      </trkpt>
      <trkpt lat="42.736978" lon="-7.189129">
        <ele>1161.423</ele>
        <time>2021-07-14T10:25:30Z</time>
      </trkpt>
      <trkpt lat="42.737086" lon="-7.189221">
        <ele>1162.810</ele>
        <time>2021-07-14T10:25:40Z</time>
      </trkpt>
      <trkpt lat="42.737193" lon="-7.189316">
        <ele>1164.268</ele>
        <time>2021-07-14T10:25:50Z</time>
      </trkpt>
      <trkpt lat="42.737330" lon="-7.189418">
        <ele>1165.284</ele>
        <time>2021-07-14T10:26:01Z</time>
      </trkpt>
      <trkpt lat="42.737442" lon="-7.189502">
        <ele>1166.207</ele>
        <time>2021-07-14T10:26:10Z</time>
      </trkpt>
      <trkpt lat="42.737563" lon="-7.189570">
        <ele>1167.117</ele>
        <time>2021-07-14T10:26:19Z</time>
      </trkpt>
      <trkpt lat="42.737695" lon="-7.189648">
        <ele>1168.108</ele>
        <time>2021-07-14T10:26:28Z</time>
      </trkpt>
      <trkpt lat="42.737855" lon="-7.189724">
        <ele>1170.095</ele>
        <time>2021-07-14T10:26:39Z</time>
      </trkpt>
      <trkpt lat="42.737963" lon="-7.189771">
        <ele>1171.547</ele>
        <time>2021-07-14T10:26:48Z</time>
      </trkpt>
      <trkpt lat="42.738101" lon="-7.189823">
        <ele>1172.494</ele>
        <time>2021-07-14T10:26:58Z</time>
      </trkpt>
      <trkpt lat="42.738258" lon="-7.189869">
        <ele>1174.384</ele>
        <time>2021-07-14T10:27:08Z</time>
      </trkpt>
      <trkpt lat="42.738430" lon="-7.189909">
        <ele>1176.728</ele>
        <time>2021-07-14T10:27:19Z</time>
      </trkpt>
      <trkpt lat="42.738600" lon="-7.189932">
        <ele>1177.256</ele>
        <time>2021-07-14T10:27:30Z</time>
      </trkpt>
      <trkpt lat="42.738799" lon="-7.189938">
        <ele>1179.193</ele>
        <time>2021-07-14T10:27:42Z</time>
      </trkpt>
      <trkpt lat="42.738999" lon="-7.189924">
        <ele>1181.151</ele>
        <time>2021-07-14T10:27:54Z</time>
      </trkpt>
      <trkpt lat="42.739222" lon="-7.189908">
        <ele>1183.026</ele>
        <time>2021-07-14T10:28:07Z</time>
      </trkpt>
      <trkpt lat="42.739430" lon="-7.189902">
        <ele>1184.947</ele>
        <time>2021-07-14T10:28:19Z</time>
      </trkpt>
      <trkpt lat="42.739437" lon="-7.189893">
        <ele>1184.911</ele>
        <time>2021-07-14T10:28:20Z</time>
      </trkpt>
      <trkpt lat="42.739447" lon="-7.189870">
        <ele>1184.408</ele>
        <time>2021-07-14T10:28:26Z</time>
      </trkpt>
      <trkpt lat="42.739465" lon="-7.189853">
        <ele>1184.419</ele>
        <time>2021-07-14T10:28:33Z</time>
      </trkpt>
      <trkpt lat="42.739465" lon="-7.189846">
        <ele>1184.051</ele>
        <time>2021-07-14T10:28:50Z</time>
      </trkpt>
      <trkpt lat="42.739476" lon="-7.189848">
        <ele>1182.528</ele>
        <time>2021-07-14T10:29:11Z</time>
      </trkpt>
      <trkpt lat="42.739472" lon="-7.189847">
        <ele>1182.078</ele>
        <time>2021-07-14T10:29:27Z</time>
      </trkpt>
      <trkpt lat="42.739464" lon="-7.189858">
        <ele>1179.642</ele>
        <time>2021-07-14T10:30:01Z</time>
      </trkpt>
      <trkpt lat="42.739462" lon="-7.189850">
        <ele>1180.150</ele>
        <time>2021-07-14T10:30:29Z</time>
      </trkpt>
      <trkpt lat="42.739466" lon="-7.189846">
        <ele>1180.677</ele>
        <time>2021-07-14T10:30:57Z</time>
      </trkpt>
      <trkpt lat="42.739468" lon="-7.189847">
        <ele>1181.165</ele>
        <time>2021-07-14T10:31:11Z</time>
      </trkpt>
      <trkpt lat="42.739472" lon="-7.189836">
        <ele>1183.014</ele>
        <time>2021-07-14T10:31:38Z</time>
      </trkpt>
      <trkpt lat="42.739467" lon="-7.189856">
        <ele>1183.554</ele>
        <time>2021-07-14T10:32:16Z</time>
      </trkpt>
      <trkpt lat="42.739470" lon="-7.189828">
        <ele>1183.009</ele>
        <time>2021-07-14T10:32:44Z</time>
      </trkpt>
      <trkpt lat="42.739483" lon="-7.189850">
        <ele>1183.008</ele>
        <time>2021-07-14T10:32:54Z</time>
      </trkpt>
      <trkpt lat="42.739513" lon="-7.189872">
        <ele>1183.098</ele>
        <time>2021-07-14T10:33:03Z</time>
      </trkpt>
      <trkpt lat="42.739525" lon="-7.189870">
        <ele>1183.070</ele>
        <time>2021-07-14T10:33:10Z</time>
      </trkpt>
      <trkpt lat="42.739545" lon="-7.189876">
        <ele>1183.567</ele>
        <time>2021-07-14T10:33:13Z</time>
      </trkpt>
      <trkpt lat="42.739685" lon="-7.189871">
        <ele>1184.447</ele>
        <time>2021-07-14T10:33:23Z</time>
      </trkpt>
      <trkpt lat="42.739841" lon="-7.189836">
        <ele>1186.451</ele>
        <time>2021-07-14T10:33:33Z</time>
      </trkpt>
      <trkpt lat="42.740038" lon="-7.189793">
        <ele>1187.859</ele>
        <time>2021-07-14T10:33:44Z</time>
      </trkpt>
      <trkpt lat="42.740256" lon="-7.189738">
        <ele>1189.736</ele>
        <time>2021-07-14T10:33:56Z</time>
      </trkpt>
      <trkpt lat="42.740453" lon="-7.189680">
        <ele>1190.244</ele>
        <time>2021-07-14T10:34:07Z</time>
      </trkpt>
      <trkpt lat="42.740654" lon="-7.189614">
        <ele>1191.693</ele>
        <time>2021-07-14T10:34:18Z</time>
      </trkpt>
      <trkpt lat="42.740846" lon="-7.189543">
        <ele>1192.665</ele>
        <time>2021-07-14T10:34:28Z</time>
      </trkpt>
      <trkpt lat="42.741026" lon="-7.189463">
        <ele>1192.621</ele>
        <time>2021-07-14T10:34:38Z</time>
      </trkpt>
      <trkpt lat="42.741219" lon="-7.189369">
        <ele>1194.008</ele>
        <time>2021-07-14T10:34:49Z</time>
      </trkpt>
      <trkpt lat="42.741401" lon="-7.189272">
        <ele>1195.066</ele>
        <time>2021-07-14T10:34:59Z</time>
      </trkpt>
      <trkpt lat="42.741588" lon="-7.189148">
        <ele>1196.038</ele>
        <time>2021-07-14T10:35:10Z</time>
      </trkpt>
      <trkpt lat="42.741751" lon="-7.189021">
        <ele>1196.925</ele>
        <time>2021-07-14T10:35:20Z</time>
      </trkpt>
      <trkpt lat="42.741930" lon="-7.188866">
        <ele>1198.435</ele>
        <time>2021-07-14T10:35:31Z</time>
      </trkpt>
      <trkpt lat="42.742099" lon="-7.188714">
        <ele>1198.939</ele>
        <time>2021-07-14T10:35:42Z</time>
      </trkpt>
      <trkpt lat="42.742244" lon="-7.188582">
        <ele>1199.337</ele>
        <time>2021-07-14T10:35:51Z</time>
      </trkpt>
      <trkpt lat="42.742421" lon="-7.188426">
        <ele>1200.364</ele>
        <time>2021-07-14T10:36:02Z</time>
      </trkpt>
      <trkpt lat="42.742581" lon="-7.188284">
        <ele>1201.782</ele>
        <time>2021-07-14T10:36:12Z</time>
      </trkpt>
      <trkpt lat="42.742774" lon="-7.188111">
        <ele>1203.298</ele>
        <time>2021-07-14T10:36:23Z</time>
      </trkpt>
      <trkpt lat="42.742872" lon="-7.188024">
        <ele>1203.215</ele>
        <time>2021-07-14T10:36:30Z</time>
      </trkpt>
      <trkpt lat="42.743072" lon="-7.187812">
        <ele>1203.726</ele>
        <time>2021-07-14T10:36:41Z</time>
      </trkpt>
      <trkpt lat="42.743224" lon="-7.187488">
        <ele>1204.108</ele>
        <time>2021-07-14T10:36:51Z</time>
      </trkpt>
      <trkpt lat="42.743269" lon="-7.187121">
        <ele>1204.666</ele>
        <time>2021-07-14T10:37:00Z</time>
      </trkpt>
      <trkpt lat="42.743247" lon="-7.186734">
        <ele>1205.158</ele>
        <time>2021-07-14T10:37:09Z</time>
      </trkpt>
      <trkpt lat="42.743191" lon="-7.186275">
        <ele>1205.665</ele>
        <time>2021-07-14T10:37:20Z</time>
      </trkpt>
      <trkpt lat="42.743144" lon="-7.185712">
        <ele>1207.095</ele>
        <time>2021-07-14T10:37:33Z</time>
      </trkpt>
      <trkpt lat="42.743171" lon="-7.185269">
        <ele>1207.539</ele>
        <time>2021-07-14T10:37:43Z</time>
      </trkpt>
      <trkpt lat="42.743191" lon="-7.184906">
        <ele>1208.517</ele>
        <time>2021-07-14T10:37:52Z</time>
      </trkpt>
      <trkpt lat="42.743165" lon="-7.184537">
        <ele>1209.434</ele>
        <time>2021-07-14T10:38:01Z</time>
      </trkpt>
      <trkpt lat="42.743057" lon="-7.184189">
        <ele>1209.992</ele>
        <time>2021-07-14T10:38:10Z</time>
      </trkpt>
      <trkpt lat="42.742842" lon="-7.183682">
        <ele>1210.966</ele>
        <time>2021-07-14T10:38:23Z</time>
      </trkpt>
      <trkpt lat="42.742728" lon="-7.183369">
        <ele>1211.429</ele>
        <time>2021-07-14T10:38:32Z</time>
      </trkpt>
      <trkpt lat="42.742643" lon="-7.183056">
        <ele>1212.321</ele>
        <time>2021-07-14T10:38:42Z</time>
      </trkpt>
      <trkpt lat="42.742601" lon="-7.182714">
        <ele>1214.208</ele>
        <time>2021-07-14T10:38:51Z</time>
      </trkpt>
      <trkpt lat="42.742620" lon="-7.182419">
        <ele>1215.213</ele>
        <time>2021-07-14T10:38:59Z</time>
      </trkpt>
      <trkpt lat="42.742729" lon="-7.181995">
        <ele>1216.295</ele>
        <time>2021-07-14T10:39:10Z</time>
      </trkpt>
      <trkpt lat="42.742886" lon="-7.181551">
        <ele>1217.622</ele>
        <time>2021-07-14T10:39:21Z</time>
      </trkpt>
      <trkpt lat="42.743085" lon="-7.180980">
        <ele>1219.012</ele>
        <time>2021-07-14T10:39:35Z</time>
      </trkpt>
      <trkpt lat="42.743170" lon="-7.180585">
        <ele>1220.076</ele>
        <time>2021-07-14T10:39:45Z</time>
      </trkpt>
      <trkpt lat="42.743162" lon="-7.180171">
        <ele>1221.984</ele>
        <time>2021-07-14T10:39:55Z</time>
      </trkpt>
      <trkpt lat="42.743066" lon="-7.179787">
        <ele>1222.991</ele>
        <time>2021-07-14T10:40:05Z</time>
      </trkpt>
      <trkpt lat="42.742900" lon="-7.179464">
        <ele>1223.939</ele>
        <time>2021-07-14T10:40:15Z</time>
      </trkpt>
      <trkpt lat="42.742628" lon="-7.179190">
        <ele>1225.326</ele>
        <time>2021-07-14T10:40:26Z</time>
      </trkpt>
      <trkpt lat="42.742291" lon="-7.178969">
        <ele>1226.747</ele>
        <time>2021-07-14T10:40:38Z</time>
      </trkpt>
      <trkpt lat="42.741982" lon="-7.178733">
        <ele>1228.711</ele>
        <time>2021-07-14T10:40:49Z</time>
      </trkpt>
      <trkpt lat="42.741775" lon="-7.178468">
        <ele>1229.608</ele>
        <time>2021-07-14T10:40:58Z</time>
      </trkpt>
      <trkpt lat="42.741574" lon="-7.178140">
        <ele>1230.639</ele>
        <time>2021-07-14T10:41:08Z</time>
      </trkpt>
      <trkpt lat="42.741346" lon="-7.177771">
        <ele>1232.021</ele>
        <time>2021-07-14T10:41:19Z</time>
      </trkpt>
      <trkpt lat="42.741135" lon="-7.177382">
        <ele>1233.998</ele>
        <time>2021-07-14T10:41:30Z</time>
      </trkpt>
      <trkpt lat="42.740933" lon="-7.177042">
        <ele>1235.438</ele>
        <time>2021-07-14T10:41:40Z</time>
      </trkpt>
      <trkpt lat="42.740796" lon="-7.176824">
        <ele>1236.322</ele>
        <time>2021-07-14T10:41:48Z</time>
      </trkpt>
      <trkpt lat="42.740634" lon="-7.176598">
        <ele>1236.340</ele>
        <time>2021-07-14T10:41:59Z</time>
      </trkpt>
      <trkpt lat="42.740399" lon="-7.176310">
        <ele>1237.827</ele>
        <time>2021-07-14T10:42:12Z</time>
      </trkpt>
      <trkpt lat="42.740190" lon="-7.176106">
        <ele>1237.845</ele>
        <time>2021-07-14T10:42:21Z</time>
      </trkpt>
      <trkpt lat="42.739938" lon="-7.175866">
        <ele>1239.214</ele>
        <time>2021-07-14T10:42:31Z</time>
      </trkpt>
      <trkpt lat="42.739691" lon="-7.175640">
        <ele>1240.254</ele>
        <time>2021-07-14T10:42:41Z</time>
      </trkpt>
      <trkpt lat="42.739429" lon="-7.175398">
        <ele>1241.209</ele>
        <time>2021-07-14T10:42:51Z</time>
      </trkpt>
      <trkpt lat="42.739261" lon="-7.175252">
        <ele>1241.608</ele>
        <time>2021-07-14T10:42:59Z</time>
      </trkpt>
      <trkpt lat="42.739109" lon="-7.175124">
        <ele>1241.298</ele>
        <time>2021-07-14T10:43:08Z</time>
      </trkpt>
      <trkpt lat="42.738882" lon="-7.174956">
        <ele>1241.690</ele>
        <time>2021-07-14T10:43:18Z</time>
      </trkpt>
      <trkpt lat="42.738613" lon="-7.174823">
        <ele>1243.177</ele>
        <time>2021-07-14T10:43:28Z</time>
      </trkpt>
      <trkpt lat="42.738298" lon="-7.174746">
        <ele>1244.597</ele>
        <time>2021-07-14T10:43:38Z</time>
      </trkpt>
      <trkpt lat="42.737977" lon="-7.174697">
        <ele>1245.081</ele>
        <time>2021-07-14T10:43:47Z</time>
      </trkpt>
      <trkpt lat="42.737619" lon="-7.174585">
        <ele>1246.919</ele>
        <time>2021-07-14T10:43:57Z</time>
      </trkpt>
      <trkpt lat="42.737305" lon="-7.174356">
        <ele>1248.446</ele>
        <time>2021-07-14T10:44:07Z</time>
      </trkpt>
      <trkpt lat="42.737157" lon="-7.174168">
        <ele>1248.414</ele>
        <time>2021-07-14T10:44:15Z</time>
      </trkpt>
      <trkpt lat="42.736993" lon="-7.173858">
        <ele>1248.896</ele>
        <time>2021-07-14T10:44:25Z</time>
      </trkpt>
      <trkpt lat="42.736887" lon="-7.173386">
        <ele>1248.831</ele>
        <time>2021-07-14T10:44:36Z</time>
      </trkpt>
      <trkpt lat="42.736854" lon="-7.172947">
        <ele>1249.324</ele>
        <time>2021-07-14T10:44:46Z</time>
      </trkpt>
      <trkpt lat="42.736828" lon="-7.172456">
        <ele>1250.308</ele>
        <time>2021-07-14T10:44:57Z</time>
      </trkpt>
      <trkpt lat="42.736810" lon="-7.172114">
        <ele>1250.866</ele>
        <time>2021-07-14T10:45:06Z</time>
      </trkpt>
      <trkpt lat="42.736802" lon="-7.171949">
        <ele>1251.238</ele>
        <time>2021-07-14T10:45:15Z</time>
      </trkpt>
      <trkpt lat="42.736819" lon="-7.171963">
        <ele>1251.725</ele>
        <time>2021-07-14T10:45:24Z</time>
      </trkpt>
      <trkpt lat="42.736827" lon="-7.171954">
        <ele>1252.745</ele>
        <time>2021-07-14T10:45:48Z</time>
      </trkpt>
      <trkpt lat="42.736836" lon="-7.171950">
        <ele>1253.239</ele>
        <time>2021-07-14T10:46:07Z</time>
      </trkpt>
      <trkpt lat="42.736834" lon="-7.171960">
        <ele>1252.757</ele>
        <time>2021-07-14T10:46:29Z</time>
      </trkpt>
      <trkpt lat="42.736832" lon="-7.171954">
        <ele>1253.774</ele>
        <time>2021-07-14T10:46:55Z</time>
      </trkpt>
      <trkpt lat="42.736819" lon="-7.171951">
        <ele>1252.262</ele>
        <time>2021-07-14T10:47:17Z</time>
      </trkpt>
      <trkpt lat="42.736811" lon="-7.171940">
        <ele>1251.792</ele>
        <time>2021-07-14T10:47:26Z</time>
      </trkpt>
      <trkpt lat="42.736818" lon="-7.171921">
        <ele>1251.273</ele>
        <time>2021-07-14T10:47:39Z</time>
      </trkpt>
      <trkpt lat="42.736818" lon="-7.171907">
        <ele>1251.220</ele>
        <time>2021-07-14T10:47:40Z</time>
      </trkpt>
      <trkpt lat="42.736810" lon="-7.171702">
        <ele>1251.708</ele>
        <time>2021-07-14T10:47:47Z</time>
      </trkpt>
      <trkpt lat="42.736789" lon="-7.171325">
        <ele>1251.286</ele>
        <time>2021-07-14T10:47:56Z</time>
      </trkpt>
      <trkpt lat="42.736747" lon="-7.170863">
        <ele>1252.298</ele>
        <time>2021-07-14T10:48:06Z</time>
      </trkpt>
      <trkpt lat="42.736664" lon="-7.170431">
        <ele>1252.785</ele>
        <time>2021-07-14T10:48:16Z</time>
      </trkpt>
      <trkpt lat="42.736563" lon="-7.170106">
        <ele>1253.795</ele>
        <time>2021-07-14T10:48:25Z</time>
      </trkpt>
      <trkpt lat="42.736452" lon="-7.169793">
        <ele>1254.619</ele>
        <time>2021-07-14T10:48:35Z</time>
      </trkpt>
      <trkpt lat="42.736334" lon="-7.169486">
        <ele>1256.137</ele>
        <time>2021-07-14T10:48:46Z</time>
      </trkpt>
      <trkpt lat="42.736239" lon="-7.169248">
        <ele>1256.584</ele>
        <time>2021-07-14T10:48:55Z</time>
      </trkpt>
      <trkpt lat="42.736179" lon="-7.169112">
        <ele>1257.532</ele>
        <time>2021-07-14T10:49:02Z</time>
      </trkpt>
      <trkpt lat="42.736081" lon="-7.168894">
        <ele>1258.599</ele>
        <time>2021-07-14T10:49:12Z</time>
      </trkpt>
      <trkpt lat="42.735983" lon="-7.168651">
        <ele>1259.407</ele>
        <time>2021-07-14T10:49:23Z</time>
      </trkpt>
      <trkpt lat="42.735870" lon="-7.168384">
        <ele>1260.927</ele>
        <time>2021-07-14T10:49:35Z</time>
      </trkpt>
      <trkpt lat="42.735770" lon="-7.168154">
        <ele>1261.808</ele>
        <time>2021-07-14T10:49:45Z</time>
      </trkpt>
      <trkpt lat="42.735688" lon="-7.167953">
        <ele>1263.366</ele>
        <time>2021-07-14T10:49:54Z</time>
      </trkpt>
      <trkpt lat="42.735621" lon="-7.167804">
        <ele>1264.248</ele>
        <time>2021-07-14T10:50:03Z</time>
      </trkpt>
      <trkpt lat="42.735562" lon="-7.167659">
        <ele>1265.215</ele>
        <time>2021-07-14T10:50:12Z</time>
      </trkpt>
      <trkpt lat="42.735471" lon="-7.167454">
        <ele>1265.275</ele>
        <time>2021-07-14T10:50:21Z</time>
      </trkpt>
      <trkpt lat="42.735372" lon="-7.167193">
        <ele>1266.639</ele>
        <time>2021-07-14T10:50:31Z</time>
      </trkpt>
      <trkpt lat="42.735249" lon="-7.166857">
        <ele>1267.627</ele>
        <time>2021-07-14T10:50:44Z</time>
      </trkpt>
      <trkpt lat="42.735137" lon="-7.166542">
        <ele>1269.024</ele>
        <time>2021-07-14T10:50:57Z</time>
      </trkpt>
      <trkpt lat="42.735030" lon="-7.166252">
        <ele>1270.542</ele>
        <time>2021-07-14T10:51:09Z</time>
      </trkpt>
      <trkpt lat="42.734927" lon="-7.165971">
        <ele>1271.074</ele>
        <time>2021-07-14T10:51:20Z</time>
      </trkpt>
      <trkpt lat="42.734807" lon="-7.165613">
        <ele>1272.456</ele>
        <time>2021-07-14T10:51:34Z</time>
      </trkpt>
      <trkpt lat="42.734736" lon="-7.165383">
        <ele>1273.421</ele>
        <time>2021-07-14T10:51:43Z</time>
      </trkpt>
      <trkpt lat="42.734627" lon="-7.165081">
        <ele>1274.308</ele>
        <time>2021-07-14T10:51:55Z</time>
      </trkpt>
      <trkpt lat="42.734562" lon="-7.164875">
        <ele>1275.344</ele>
        <time>2021-07-14T10:52:03Z</time>
      </trkpt>
      <trkpt lat="42.734449" lon="-7.164574">
        <ele>1276.766</ele>
        <time>2021-07-14T10:52:16Z</time>
      </trkpt>
      <trkpt lat="42.734362" lon="-7.164320">
        <ele>1277.763</ele>
        <time>2021-07-14T10:52:26Z</time>
      </trkpt>
      <trkpt lat="42.734279" lon="-7.164091">
        <ele>1278.233</ele>
        <time>2021-07-14T10:52:35Z</time>
      </trkpt>
      <trkpt lat="42.734157" lon="-7.163765">
        <ele>1278.627</ele>
        <time>2021-07-14T10:52:48Z</time>
      </trkpt>
      <trkpt lat="42.734043" lon="-7.163456">
        <ele>1279.185</ele>
        <time>2021-07-14T10:53:00Z</time>
      </trkpt>
      <trkpt lat="42.733940" lon="-7.163178">
        <ele>1280.692</ele>
        <time>2021-07-14T10:53:11Z</time>
      </trkpt>
      <trkpt lat="42.733840" lon="-7.162906">
        <ele>1281.040</ele>
        <time>2021-07-14T10:53:21Z</time>
      </trkpt>
      <trkpt lat="42.733687" lon="-7.162476">
        <ele>1281.565</ele>
        <time>2021-07-14T10:53:35Z</time>
      </trkpt>
      <trkpt lat="42.733539" lon="-7.162063">
        <ele>1282.068</ele>
        <time>2021-07-14T10:53:48Z</time>
      </trkpt>
      <trkpt lat="42.733386" lon="-7.161625">
        <ele>1283.014</ele>
        <time>2021-07-14T10:54:01Z</time>
      </trkpt>
      <trkpt lat="42.733241" lon="-7.161218">
        <ele>1283.508</ele>
        <time>2021-07-14T10:54:13Z</time>
      </trkpt>
      <trkpt lat="42.733099" lon="-7.160857">
        <ele>1283.913</ele>
        <time>2021-07-14T10:54:24Z</time>
      </trkpt>
      <trkpt lat="42.732967" lon="-7.160542">
        <ele>1284.495</ele>
        <time>2021-07-14T10:54:34Z</time>
      </trkpt>
      <trkpt lat="42.732777" lon="-7.160161">
        <ele>1285.962</ele>
        <time>2021-07-14T10:54:47Z</time>
      </trkpt>
      <trkpt lat="42.732612" lon="-7.159855">
        <ele>1287.332</ele>
        <time>2021-07-14T10:54:59Z</time>
      </trkpt>
      <trkpt lat="42.732455" lon="-7.159597">
        <ele>1288.316</ele>
        <time>2021-07-14T10:55:09Z</time>
      </trkpt>
      <trkpt lat="42.732238" lon="-7.159286">
        <ele>1289.714</ele>
        <time>2021-07-14T10:55:21Z</time>
      </trkpt>
      <trkpt lat="42.732033" lon="-7.158995">
        <ele>1290.261</ele>
        <time>2021-07-14T10:55:32Z</time>
      </trkpt>
      <trkpt lat="42.731862" lon="-7.158736">
        <ele>1289.279</ele>
        <time>2021-07-14T10:55:41Z</time>
      </trkpt>
      <trkpt lat="42.731679" lon="-7.158464">
        <ele>1289.257</ele>
        <time>2021-07-14T10:55:51Z</time>
      </trkpt>
      <trkpt lat="42.731448" lon="-7.158166">
        <ele>1289.200</ele>
        <time>2021-07-14T10:56:02Z</time>
      </trkpt>
      <trkpt lat="42.731273" lon="-7.157959">
        <ele>1288.320</ele>
        <time>2021-07-14T10:56:12Z</time>
      </trkpt>
      <trkpt lat="42.731028" lon="-7.157685">
        <ele>1288.308</ele>
        <time>2021-07-14T10:56:22Z</time>
      </trkpt>
      <trkpt lat="42.730876" lon="-7.157514">
        <ele>1287.312</ele>
        <time>2021-07-14T10:56:30Z</time>
      </trkpt>
      <trkpt lat="42.730803" lon="-7.157455">
        <ele>1286.344</ele>
        <time>2021-07-14T10:56:37Z</time>
      </trkpt>
      <trkpt lat="42.730798" lon="-7.157451">
        <ele>1285.451</ele>
        <time>2021-07-14T10:56:50Z</time>
      </trkpt>
      <trkpt lat="42.730775" lon="-7.157436">
        <ele>1284.991</ele>
        <time>2021-07-14T10:56:56Z</time>
      </trkpt>
      <trkpt lat="42.730763" lon="-7.157430">
        <ele>1285.425</ele>
        <time>2021-07-14T10:57:03Z</time>
      </trkpt>
      <trkpt lat="42.730750" lon="-7.157449">
        <ele>1284.413</ele>
        <time>2021-07-14T10:57:18Z</time>
      </trkpt>
      <trkpt lat="42.730760" lon="-7.157456">
        <ele>1283.050</ele>
        <time>2021-07-14T10:57:33Z</time>
      </trkpt>
      <trkpt lat="42.730768" lon="-7.157432">
        <ele>1283.998</ele>
        <time>2021-07-14T10:57:42Z</time>
      </trkpt>
      <trkpt lat="42.730762" lon="-7.157425">
        <ele>1284.495</ele>
        <time>2021-07-14T10:57:45Z</time>
      </trkpt>
      <trkpt lat="42.730754" lon="-7.157413">
        <ele>1284.449</ele>
        <time>2021-07-14T10:57:46Z</time>
      </trkpt>
      <trkpt lat="42.730747" lon="-7.157397">
        <ele>1284.423</ele>
        <time>2021-07-14T10:57:47Z</time>
      </trkpt>
      <trkpt lat="42.730730" lon="-7.157357">
        <ele>1284.408</ele>
        <time>2021-07-14T10:57:49Z</time>
      </trkpt>
      <trkpt lat="42.730570" lon="-7.157163">
        <ele>1284.446</ele>
        <time>2021-07-14T10:57:58Z</time>
      </trkpt>
      <trkpt lat="42.730342" lon="-7.156890">
        <ele>1283.918</ele>
        <time>2021-07-14T10:58:07Z</time>
      </trkpt>
      <trkpt lat="42.730086" lon="-7.156608">
        <ele>1283.035</ele>
        <time>2021-07-14T10:58:15Z</time>
      </trkpt>
      <trkpt lat="42.729776" lon="-7.156241">
        <ele>1282.095</ele>
        <time>2021-07-14T10:58:24Z</time>
      </trkpt>
      <trkpt lat="42.729427" lon="-7.155835">
        <ele>1283.019</ele>
        <time>2021-07-14T10:58:35Z</time>
      </trkpt>
      <trkpt lat="42.729189" lon="-7.155573">
        <ele>1283.547</ele>
        <time>2021-07-14T10:58:45Z</time>
      </trkpt>
      <trkpt lat="42.728957" lon="-7.155336">
        <ele>1285.484</ele>
        <time>2021-07-14T10:58:56Z</time>
      </trkpt>
      <trkpt lat="42.728741" lon="-7.155148">
        <ele>1286.362</ele>
        <time>2021-07-14T10:59:06Z</time>
      </trkpt>
      <trkpt lat="42.728436" lon="-7.154883">
        <ele>1287.821</ele>
        <time>2021-07-14T10:59:20Z</time>
      </trkpt>
      <trkpt lat="42.728241" lon="-7.154722">
        <ele>1288.341</ele>
        <time>2021-07-14T10:59:29Z</time>
      </trkpt>
      <trkpt lat="42.728016" lon="-7.154528">
        <ele>1288.705</ele>
        <time>2021-07-14T10:59:39Z</time>
      </trkpt>
      <trkpt lat="42.727753" lon="-7.154299">
        <ele>1289.708</ele>
        <time>2021-07-14T10:59:50Z</time>
      </trkpt>
      <trkpt lat="42.727452" lon="-7.154014">
        <ele>1289.779</ele>
        <time>2021-07-14T11:00:02Z</time>
      </trkpt>
      <trkpt lat="42.727216" lon="-7.153736">
        <ele>1289.751</ele>
        <time>2021-07-14T11:00:12Z</time>
      </trkpt>
      <trkpt lat="42.727002" lon="-7.153317">
        <ele>1289.218</ele>
        <time>2021-07-14T11:00:24Z</time>
      </trkpt>
      <trkpt lat="42.726876" lon="-7.152838">
        <ele>1288.728</ele>
        <time>2021-07-14T11:00:36Z</time>
      </trkpt>
      <trkpt lat="42.726764" lon="-7.152342">
        <ele>1288.372</ele>
        <time>2021-07-14T11:00:48Z</time>
      </trkpt>
      <trkpt lat="42.726649" lon="-7.151946">
        <ele>1288.760</ele>
        <time>2021-07-14T11:00:57Z</time>
      </trkpt>
      <trkpt lat="42.726433" lon="-7.151441">
        <ele>1287.827</ele>
        <time>2021-07-14T11:01:09Z</time>
      </trkpt>
      <trkpt lat="42.726225" lon="-7.151115">
        <ele>1286.825</ele>
        <time>2021-07-14T11:01:18Z</time>
      </trkpt>
      <trkpt lat="42.726028" lon="-7.150819">
        <ele>1287.867</ele>
        <time>2021-07-14T11:01:27Z</time>
      </trkpt>
      <trkpt lat="42.725768" lon="-7.150456">
        <ele>1287.881</ele>
        <time>2021-07-14T11:01:37Z</time>
      </trkpt>
      <trkpt lat="42.725507" lon="-7.150080">
        <ele>1287.819</ele>
        <time>2021-07-14T11:01:47Z</time>
      </trkpt>
      <trkpt lat="42.725267" lon="-7.149740">
        <ele>1288.308</ele>
        <time>2021-07-14T11:01:57Z</time>
      </trkpt>
      <trkpt lat="42.724987" lon="-7.149339">
        <ele>1288.393</ele>
        <time>2021-07-14T11:02:08Z</time>
      </trkpt>
      <trkpt lat="42.724779" lon="-7.149040">
        <ele>1288.755</ele>
        <time>2021-07-14T11:02:17Z</time>
      </trkpt>
      <trkpt lat="42.724575" lon="-7.148750">
        <ele>1289.782</ele>
        <time>2021-07-14T11:02:27Z</time>
      </trkpt>
      <trkpt lat="42.724408" lon="-7.148522">
        <ele>1290.232</ele>
        <time>2021-07-14T11:02:35Z</time>
      </trkpt>
      <trkpt lat="42.724157" lon="-7.148160">
        <ele>1291.196</ele>
        <time>2021-07-14T11:02:47Z</time>
      </trkpt>
      <trkpt lat="42.723996" lon="-7.147924">
        <ele>1291.654</ele>
        <time>2021-07-14T11:02:55Z</time>
      </trkpt>
      <trkpt lat="42.723825" lon="-7.147676">
        <ele>1292.691</ele>
        <time>2021-07-14T11:03:04Z</time>
      </trkpt>
      <trkpt lat="42.723679" lon="-7.147457">
        <ele>1293.129</ele>
        <time>2021-07-14T11:03:12Z</time>
      </trkpt>
      <trkpt lat="42.723495" lon="-7.147165">
        <ele>1293.134</ele>
        <time>2021-07-14T11:03:22Z</time>
      </trkpt>
      <trkpt lat="42.723318" lon="-7.146872">
        <ele>1293.555</ele>
        <time>2021-07-14T11:03:32Z</time>
      </trkpt>
      <trkpt lat="42.723149" lon="-7.146525">
        <ele>1294.010</ele>
        <time>2021-07-14T11:03:42Z</time>
      </trkpt>
      <trkpt lat="42.723038" lon="-7.146265">
        <ele>1294.008</ele>
        <time>2021-07-14T11:03:49Z</time>
      </trkpt>
      <trkpt lat="42.722875" lon="-7.145821">
        <ele>1293.190</ele>
        <time>2021-07-14T11:04:00Z</time>
      </trkpt>
      <trkpt lat="42.722719" lon="-7.145307">
        <ele>1292.122</ele>
        <time>2021-07-14T11:04:11Z</time>
      </trkpt>
      <trkpt lat="42.722598" lon="-7.144830">
        <ele>1291.149</ele>
        <time>2021-07-14T11:04:21Z</time>
      </trkpt>
      <trkpt lat="42.722454" lon="-7.144266">
        <ele>1290.739</ele>
        <time>2021-07-14T11:04:32Z</time>
      </trkpt>
      <trkpt lat="42.722305" lon="-7.143798">
        <ele>1290.253</ele>
        <time>2021-07-14T11:04:42Z</time>
      </trkpt>
      <trkpt lat="42.722116" lon="-7.143337">
        <ele>1290.781</ele>
        <time>2021-07-14T11:04:52Z</time>
      </trkpt>
      <trkpt lat="42.721867" lon="-7.142874">
        <ele>1291.198</ele>
        <time>2021-07-14T11:05:03Z</time>
      </trkpt>
      <trkpt lat="42.721615" lon="-7.142470">
        <ele>1292.166</ele>
        <time>2021-07-14T11:05:13Z</time>
      </trkpt>
      <trkpt lat="42.721396" lon="-7.142116">
        <ele>1292.131</ele>
        <time>2021-07-14T11:05:22Z</time>
      </trkpt>
      <trkpt lat="42.721149" lon="-7.141702">
        <ele>1292.661</ele>
        <time>2021-07-14T11:05:33Z</time>
      </trkpt>
      <trkpt lat="42.720969" lon="-7.141416">
        <ele>1293.107</ele>
        <time>2021-07-14T11:05:41Z</time>
      </trkpt>
      <trkpt lat="42.720691" lon="-7.141031">
        <ele>1293.108</ele>
        <time>2021-07-14T11:05:52Z</time>
      </trkpt>
      <trkpt lat="42.720426" lon="-7.140757">
        <ele>1293.560</ele>
        <time>2021-07-14T11:06:01Z</time>
      </trkpt>
      <trkpt lat="42.720100" lon="-7.140510">
        <ele>1294.562</ele>
        <time>2021-07-14T11:06:11Z</time>
      </trkpt>
      <trkpt lat="42.719738" lon="-7.140246">
        <ele>1295.049</ele>
        <time>2021-07-14T11:06:22Z</time>
      </trkpt>
      <trkpt lat="42.719388" lon="-7.139919">
        <ele>1296.439</ele>
        <time>2021-07-14T11:06:34Z</time>
      </trkpt>
      <trkpt lat="42.719126" lon="-7.139559">
        <ele>1298.433</ele>
        <time>2021-07-14T11:06:45Z</time>
      </trkpt>
      <trkpt lat="42.718938" lon="-7.139153">
        <ele>1299.371</ele>
        <time>2021-07-14T11:06:56Z</time>
      </trkpt>
      <trkpt lat="42.718871" lon="-7.138957">
        <ele>1300.318</ele>
        <time>2021-07-14T11:07:03Z</time>
      </trkpt>
      <trkpt lat="42.718862" lon="-7.138942">
        <ele>1300.866</ele>
        <time>2021-07-14T11:07:09Z</time>
      </trkpt>
      <trkpt lat="42.718871" lon="-7.138934">
        <ele>1300.854</ele>
        <time>2021-07-14T11:07:21Z</time>
      </trkpt>
      <trkpt lat="42.718873" lon="-7.138910">
        <ele>1301.256</ele>
        <time>2021-07-14T11:07:25Z</time>
      </trkpt>
      <trkpt lat="42.718832" lon="-7.138761">
        <ele>1300.311</ele>
        <time>2021-07-14T11:07:33Z</time>
      </trkpt>
      <trkpt lat="42.718786" lon="-7.138598">
        <ele>1300.808</ele>
        <time>2021-07-14T11:07:41Z</time>
      </trkpt>
      <trkpt lat="42.718724" lon="-7.138356">
        <ele>1302.212</ele>
        <time>2021-07-14T11:07:52Z</time>
      </trkpt>
      <trkpt lat="42.718672" lon="-7.138169">
        <ele>1303.244</ele>
        <time>2021-07-14T11:08:01Z</time>
      </trkpt>
      <trkpt lat="42.718619" lon="-7.137960">
        <ele>1304.671</ele>
        <time>2021-07-14T11:08:10Z</time>
      </trkpt>
      <trkpt lat="42.718571" lon="-7.137774">
        <ele>1305.671</ele>
        <time>2021-07-14T11:08:18Z</time>
      </trkpt>
      <trkpt lat="42.718536" lon="-7.137631">
        <ele>1306.045</ele>
        <time>2021-07-14T11:08:24Z</time>
      </trkpt>
      <trkpt lat="42.718532" lon="-7.137609">
        <ele>1306.053</ele>
        <time>2021-07-14T11:08:25Z</time>
      </trkpt>
      <trkpt lat="42.718518" lon="-7.137536">
        <ele>1306.060</ele>
        <time>2021-07-14T11:08:28Z</time>
      </trkpt>
      <trkpt lat="42.718510" lon="-7.137513">
        <ele>1306.058</ele>
        <time>2021-07-14T11:08:29Z</time>
      </trkpt>
      <trkpt lat="42.718503" lon="-7.137487">
        <ele>1306.048</ele>
        <time>2021-07-14T11:08:30Z</time>
      </trkpt>
      <trkpt lat="42.718496" lon="-7.137461">
        <ele>1306.061</ele>
        <time>2021-07-14T11:08:31Z</time>
      </trkpt>
      <trkpt lat="42.718490" lon="-7.137439">
        <ele>1305.617</ele>
        <time>2021-07-14T11:08:32Z</time>
      </trkpt>
      <trkpt lat="42.718483" lon="-7.137418">
        <ele>1305.608</ele>
        <time>2021-07-14T11:08:33Z</time>
      </trkpt>
      <trkpt lat="42.718475" lon="-7.137394">
        <ele>1306.071</ele>
        <time>2021-07-14T11:08:34Z</time>
      </trkpt>
      <trkpt lat="42.718422" lon="-7.137170">
        <ele>1307.083</ele>
        <time>2021-07-14T11:08:42Z</time>
      </trkpt>
      <trkpt lat="42.718354" lon="-7.136941">
        <ele>1308.480</ele>
        <time>2021-07-14T11:08:50Z</time>
      </trkpt>
      <trkpt lat="42.718296" lon="-7.136754">
        <ele>1309.960</ele>
        <time>2021-07-14T11:08:57Z</time>
      </trkpt>
      <trkpt lat="42.718223" lon="-7.136545">
        <ele>1310.994</ele>
        <time>2021-07-14T11:09:05Z</time>
      </trkpt>
      <trkpt lat="42.718133" lon="-7.136337">
        <ele>1312.872</ele>
        <time>2021-07-14T11:09:13Z</time>
      </trkpt>
      <trkpt lat="42.718063" lon="-7.136168">
        <ele>1313.329</ele>
        <time>2021-07-14T11:09:20Z</time>
      </trkpt>
      <trkpt lat="42.717956" lon="-7.135957">
        <ele>1314.757</ele>
        <time>2021-07-14T11:09:28Z</time>
      </trkpt>
      <trkpt lat="42.717802" lon="-7.135694">
        <ele>1315.751</ele>
        <time>2021-07-14T11:09:39Z</time>
      </trkpt>
      <trkpt lat="42.717685" lon="-7.135498">
        <ele>1316.601</ele>
        <time>2021-07-14T11:09:48Z</time>
      </trkpt>
      <trkpt lat="42.717550" lon="-7.135269">
        <ele>1318.111</ele>
        <time>2021-07-14T11:09:58Z</time>
      </trkpt>
      <trkpt lat="42.717406" lon="-7.135055">
        <ele>1318.508</ele>
        <time>2021-07-14T11:10:08Z</time>
      </trkpt>
      <trkpt lat="42.717267" lon="-7.134849">
        <ele>1319.062</ele>
        <time>2021-07-14T11:10:17Z</time>
      </trkpt>
      <trkpt lat="42.717117" lon="-7.134614">
        <ele>1318.574</ele>
        <time>2021-07-14T11:10:27Z</time>
      </trkpt>
      <trkpt lat="42.716999" lon="-7.134418">
        <ele>1318.161</ele>
        <time>2021-07-14T11:10:36Z</time>
      </trkpt>
      <trkpt lat="42.716880" lon="-7.134241">
        <ele>1318.581</ele>
        <time>2021-07-14T11:10:44Z</time>
      </trkpt>
      <trkpt lat="42.716768" lon="-7.134046">
        <ele>1318.185</ele>
        <time>2021-07-14T11:10:52Z</time>
      </trkpt>
      <trkpt lat="42.716653" lon="-7.133803">
        <ele>1318.563</ele>
        <time>2021-07-14T11:11:02Z</time>
      </trkpt>
      <trkpt lat="42.716539" lon="-7.133528">
        <ele>1320.050</ele>
        <time>2021-07-14T11:11:13Z</time>
      </trkpt>
      <trkpt lat="42.716467" lon="-7.133260">
        <ele>1320.918</ele>
        <time>2021-07-14T11:11:23Z</time>
      </trkpt>
      <trkpt lat="42.716415" lon="-7.132988">
        <ele>1321.969</ele>
        <time>2021-07-14T11:11:33Z</time>
      </trkpt>
      <trkpt lat="42.716363" lon="-7.132662">
        <ele>1322.404</ele>
        <time>2021-07-14T11:11:44Z</time>
      </trkpt>
      <trkpt lat="42.716313" lon="-7.132264">
        <ele>1323.824</ele>
        <time>2021-07-14T11:11:57Z</time>
      </trkpt>
      <trkpt lat="42.716275" lon="-7.131946">
        <ele>1324.308</ele>
        <time>2021-07-14T11:12:07Z</time>
      </trkpt>
      <trkpt lat="42.716237" lon="-7.131702">
        <ele>1324.873</ele>
        <time>2021-07-14T11:12:15Z</time>
      </trkpt>
      <trkpt lat="42.716162" lon="-7.131426">
        <ele>1325.875</ele>
        <time>2021-07-14T11:12:24Z</time>
      </trkpt>
      <trkpt lat="42.716020" lon="-7.131085">
        <ele>1326.722</ele>
        <time>2021-07-14T11:12:35Z</time>
      </trkpt>
      <trkpt lat="42.715830" lon="-7.130760">
        <ele>1327.732</ele>
        <time>2021-07-14T11:12:46Z</time>
      </trkpt>
      <trkpt lat="42.715641" lon="-7.130445">
        <ele>1328.646</ele>
        <time>2021-07-14T11:12:56Z</time>
      </trkpt>
      <trkpt lat="42.715443" lon="-7.130112">
        <ele>1329.184</ele>
        <time>2021-07-14T11:13:07Z</time>
      </trkpt>
      <trkpt lat="42.715182" lon="-7.129707">
        <ele>1329.691</ele>
        <time>2021-07-14T11:13:20Z</time>
      </trkpt>
      <trkpt lat="42.714928" lon="-7.129432">
        <ele>1330.629</ele>
        <time>2021-07-14T11:13:31Z</time>
      </trkpt>
      <trkpt lat="42.714685" lon="-7.129279">
        <ele>1331.072</ele>
        <time>2021-07-14T11:13:41Z</time>
      </trkpt>
      <trkpt lat="42.714480" lon="-7.129156">
        <ele>1332.013</ele>
        <time>2021-07-14T11:13:50Z</time>
      </trkpt>
      <trkpt lat="42.714260" lon="-7.128991">
        <ele>1333.014</ele>
        <time>2021-07-14T11:14:00Z</time>
      </trkpt>
      <trkpt lat="42.714195" lon="-7.128929">
        <ele>1333.008</ele>
        <time>2021-07-14T11:14:05Z</time>
      </trkpt>
      <trkpt lat="42.714185" lon="-7.128921">
        <ele>1333.414</ele>
        <time>2021-07-14T11:14:06Z</time>
      </trkpt>
      <trkpt lat="42.714059" lon="-7.128765">
        <ele>1333.976</ele>
        <time>2021-07-14T11:14:14Z</time>
      </trkpt>
      <trkpt lat="42.713870" lon="-7.128477">
        <ele>1335.813</ele>
        <time>2021-07-14T11:14:26Z</time>
      </trkpt>
      <trkpt lat="42.713669" lon="-7.128143">
        <ele>1336.833</ele>
        <time>2021-07-14T11:14:37Z</time>
      </trkpt>
      <trkpt lat="42.713478" lon="-7.127827">
        <ele>1337.367</ele>
        <time>2021-07-14T11:14:47Z</time>
      </trkpt>
      <trkpt lat="42.713285" lon="-7.127517">
        <ele>1337.835</ele>
        <time>2021-07-14T11:14:57Z</time>
      </trkpt>
      <trkpt lat="42.713056" lon="-7.127136">
        <ele>1337.382</ele>
        <time>2021-07-14T11:15:09Z</time>
      </trkpt>
      <trkpt lat="42.712905" lon="-7.126914">
        <ele>1337.320</ele>
        <time>2021-07-14T11:15:17Z</time>
      </trkpt>
      <trkpt lat="42.712750" lon="-7.126692">
        <ele>1338.268</ele>
        <time>2021-07-14T11:15:26Z</time>
      </trkpt>
      <trkpt lat="42.712653" lon="-7.126500">
        <ele>1338.742</ele>
        <time>2021-07-14T11:15:36Z</time>
      </trkpt>
      <trkpt lat="42.712653" lon="-7.126499">
        <ele>1338.226</ele>
        <time>2021-07-14T11:15:44Z</time>
      </trkpt>
      <trkpt lat="42.712667" lon="-7.126501">
        <ele>1335.808</ele>
        <time>2021-07-14T11:15:58Z</time>
      </trkpt>
      <trkpt lat="42.712667" lon="-7.126515">
        <ele>1337.363</ele>
        <time>2021-07-14T11:16:18Z</time>
      </trkpt>
      <trkpt lat="42.712668" lon="-7.126491">
        <ele>1338.255</ele>
        <time>2021-07-14T11:16:40Z</time>
      </trkpt>
      <trkpt lat="42.712666" lon="-7.126507">
        <ele>1338.782</ele>
        <time>2021-07-14T11:16:57Z</time>
      </trkpt>
      <trkpt lat="42.712659" lon="-7.126504">
        <ele>1337.872</ele>
        <time>2021-07-14T11:17:14Z</time>
      </trkpt>
      <trkpt lat="42.712611" lon="-7.126429">
        <ele>1337.896</ele>
        <time>2021-07-14T11:17:21Z</time>
      </trkpt>
      <trkpt lat="42.712492" lon="-7.126241">
        <ele>1338.274</ele>
        <time>2021-07-14T11:17:29Z</time>
      </trkpt>
      <trkpt lat="42.712326" lon="-7.125964">
        <ele>1339.781</ele>
        <time>2021-07-14T11:17:40Z</time>
      </trkpt>
      <trkpt lat="42.712256" lon="-7.125845">
        <ele>1340.239</ele>
        <time>2021-07-14T11:17:47Z</time>
      </trkpt>
      <trkpt lat="42.712155" lon="-7.125707">
        <ele>1340.292</ele>
        <time>2021-07-14T11:17:57Z</time>
      </trkpt>
      <trkpt lat="42.712149" lon="-7.125694">
        <ele>1340.273</ele>
        <time>2021-07-14T11:18:03Z</time>
      </trkpt>
      <trkpt lat="42.712147" lon="-7.125686">
        <ele>1339.720</ele>
        <time>2021-07-14T11:18:14Z</time>
      </trkpt>
      <trkpt lat="42.712148" lon="-7.125682">
        <ele>1338.708</ele>
        <time>2021-07-14T11:18:28Z</time>
      </trkpt>
      <trkpt lat="42.712164" lon="-7.125686">
        <ele>1339.216</ele>
        <time>2021-07-14T11:18:45Z</time>
      </trkpt>
      <trkpt lat="42.712181" lon="-7.125691">
        <ele>1339.788</ele>
        <time>2021-07-14T11:19:03Z</time>
      </trkpt>
      <trkpt lat="42.712186" lon="-7.125688">
        <ele>1341.195</ele>
        <time>2021-07-14T11:19:22Z</time>
      </trkpt>
      <trkpt lat="42.712177" lon="-7.125691">
        <ele>1340.275</ele>
        <time>2021-07-14T11:19:41Z</time>
      </trkpt>
      <trkpt lat="42.712172" lon="-7.125690">
        <ele>1339.789</ele>
        <time>2021-07-14T11:19:53Z</time>
      </trkpt>
      <trkpt lat="42.712157" lon="-7.125684">
        <ele>1338.247</ele>
        <time>2021-07-14T11:20:05Z</time>
      </trkpt>
      <trkpt lat="42.712158" lon="-7.125691">
        <ele>1338.254</ele>
        <time>2021-07-14T11:20:22Z</time>
      </trkpt>
      <trkpt lat="42.712157" lon="-7.125681">
        <ele>1339.292</ele>
        <time>2021-07-14T11:20:30Z</time>
      </trkpt>
      <trkpt lat="42.712151" lon="-7.125688">
        <ele>1339.294</ele>
        <time>2021-07-14T11:20:41Z</time>
      </trkpt>
      <trkpt lat="42.712118" lon="-7.125605">
        <ele>1339.257</ele>
        <time>2021-07-14T11:20:50Z</time>
      </trkpt>
      <trkpt lat="42.711988" lon="-7.125340">
        <ele>1338.222</ele>
        <time>2021-07-14T11:20:58Z</time>
      </trkpt>
      <trkpt lat="42.711835" lon="-7.124983">
        <ele>1335.808</ele>
        <time>2021-07-14T11:21:05Z</time>
      </trkpt>
      <trkpt lat="42.711591" lon="-7.124417">
        <ele>1332.086</ele>
        <time>2021-07-14T11:21:12Z</time>
      </trkpt>
      <trkpt lat="42.711274" lon="-7.123722">
        <ele>1327.768</ele>
        <time>2021-07-14T11:21:19Z</time>
      </trkpt>
      <trkpt lat="42.710915" lon="-7.122931">
        <ele>1322.485</ele>
        <time>2021-07-14T11:21:26Z</time>
      </trkpt>
      <trkpt lat="42.710854" lon="-7.122841">
        <ele>1321.445</ele>
        <time>2021-07-14T11:21:27Z</time>
      </trkpt>
      <trkpt lat="42.710786" lon="-7.122768">
        <ele>1320.959</ele>
        <time>2021-07-14T11:21:28Z</time>
      </trkpt>
      <trkpt lat="42.710710" lon="-7.122711">
        <ele>1320.917</ele>
        <time>2021-07-14T11:21:29Z</time>
      </trkpt>
      <trkpt lat="42.710627" lon="-7.122662">
        <ele>1320.524</ele>
        <time>2021-07-14T11:21:30Z</time>
      </trkpt>
      <trkpt lat="42.710545" lon="-7.122620">
        <ele>1320.012</ele>
        <time>2021-07-14T11:21:31Z</time>
      </trkpt>
      <trkpt lat="42.709891" lon="-7.122197">
        <ele>1317.156</ele>
        <time>2021-07-14T11:21:39Z</time>
      </trkpt>
      <trkpt lat="42.709759" lon="-7.122038">
        <ele>1316.659</ele>
        <time>2021-07-14T11:21:41Z</time>
      </trkpt>
      <trkpt lat="42.709700" lon="-7.121946">
        <ele>1316.114</ele>
        <time>2021-07-14T11:21:42Z</time>
      </trkpt>
      <trkpt lat="42.709097" lon="-7.120834">
        <ele>1310.408</ele>
        <time>2021-07-14T11:21:53Z</time>
      </trkpt>
      <trkpt lat="42.708665" lon="-7.120051">
        <ele>1306.082</ele>
        <time>2021-07-14T11:22:01Z</time>
      </trkpt>
      <trkpt lat="42.708528" lon="-7.119745">
        <ele>1304.684</ele>
        <time>2021-07-14T11:22:04Z</time>
      </trkpt>
      <trkpt lat="42.708506" lon="-7.119637">
        <ele>1304.151</ele>
        <time>2021-07-14T11:22:05Z</time>
      </trkpt>
      <trkpt lat="42.708496" lon="-7.119527">
        <ele>1303.641</ele>
        <time>2021-07-14T11:22:06Z</time>
      </trkpt>
      <trkpt lat="42.708497" lon="-7.119415">
        <ele>1302.755</ele>
        <time>2021-07-14T11:22:07Z</time>
      </trkpt>
      <trkpt lat="42.708505" lon="-7.119306">
        <ele>1302.213</ele>
        <time>2021-07-14T11:22:08Z</time>
      </trkpt>
      <trkpt lat="42.708522" lon="-7.119193">
        <ele>1301.250</ele>
        <time>2021-07-14T11:22:09Z</time>
      </trkpt>
      <trkpt lat="42.708542" lon="-7.119072">
        <ele>1300.868</ele>
        <time>2021-07-14T11:22:10Z</time>
      </trkpt>
      <trkpt lat="42.708634" lon="-7.118320">
        <ele>1296.956</ele>
        <time>2021-07-14T11:22:16Z</time>
      </trkpt>
      <trkpt lat="42.708623" lon="-7.118192">
        <ele>1296.459</ele>
        <time>2021-07-14T11:22:17Z</time>
      </trkpt>
      <trkpt lat="42.708600" lon="-7.118063">
        <ele>1295.514</ele>
        <time>2021-07-14T11:22:18Z</time>
      </trkpt>
      <trkpt lat="42.708565" lon="-7.117932">
        <ele>1295.008</ele>
        <time>2021-07-14T11:22:19Z</time>
      </trkpt>
      <trkpt lat="42.708525" lon="-7.117809">
        <ele>1294.082</ele>
        <time>2021-07-14T11:22:20Z</time>
      </trkpt>
      <trkpt lat="42.708367" lon="-7.117339">
        <ele>1291.644</ele>
        <time>2021-07-14T11:22:24Z</time>
      </trkpt>
      <trkpt lat="42.708344" lon="-7.117211">
        <ele>1290.721</ele>
        <time>2021-07-14T11:22:25Z</time>
      </trkpt>
      <trkpt lat="42.708334" lon="-7.117088">
        <ele>1290.281</ele>
        <time>2021-07-14T11:22:26Z</time>
      </trkpt>
      <trkpt lat="42.708337" lon="-7.116962">
        <ele>1289.295</ele>
        <time>2021-07-14T11:22:27Z</time>
      </trkpt>
      <trkpt lat="42.708353" lon="-7.116839">
        <ele>1288.343</ele>
        <time>2021-07-14T11:22:28Z</time>
      </trkpt>
      <trkpt lat="42.708379" lon="-7.116714">
        <ele>1287.380</ele>
        <time>2021-07-14T11:22:29Z</time>
      </trkpt>
      <trkpt lat="42.708421" lon="-7.116588">
        <ele>1286.398</ele>
        <time>2021-07-14T11:22:30Z</time>
      </trkpt>
      <trkpt lat="42.708477" lon="-7.116474">
        <ele>1285.435</ele>
        <time>2021-07-14T11:22:31Z</time>
      </trkpt>
      <trkpt lat="42.708554" lon="-7.116361">
        <ele>1283.986</ele>
        <time>2021-07-14T11:22:32Z</time>
      </trkpt>
      <trkpt lat="42.708640" lon="-7.116259">
        <ele>1283.014</ele>
        <time>2021-07-14T11:22:33Z</time>
      </trkpt>
      <trkpt lat="42.708730" lon="-7.116160">
        <ele>1282.008</ele>
        <time>2021-07-14T11:22:34Z</time>
      </trkpt>
      <trkpt lat="42.709272" lon="-7.115566">
        <ele>1275.850</ele>
        <time>2021-07-14T11:22:40Z</time>
      </trkpt>
      <trkpt lat="42.709553" lon="-7.115078">
        <ele>1272.472</ele>
        <time>2021-07-14T11:22:44Z</time>
      </trkpt>
      <trkpt lat="42.709602" lon="-7.114942">
        <ele>1271.479</ele>
        <time>2021-07-14T11:22:45Z</time>
      </trkpt>
      <trkpt lat="42.709639" lon="-7.114790">
        <ele>1270.539</ele>
        <time>2021-07-14T11:22:46Z</time>
      </trkpt>
      <trkpt lat="42.709660" lon="-7.114667">
        <ele>1270.033</ele>
        <time>2021-07-14T11:22:47Z</time>
      </trkpt>
      <trkpt lat="42.709694" lon="-7.113931">
        <ele>1267.691</ele>
        <time>2021-07-14T11:22:52Z</time>
      </trkpt>
      <trkpt lat="42.709635" lon="-7.113051">
        <ele>1263.398</ele>
        <time>2021-07-14T11:22:58Z</time>
      </trkpt>
      <trkpt lat="42.709543" lon="-7.112502">
        <ele>1260.476</ele>
        <time>2021-07-14T11:23:02Z</time>
      </trkpt>
      <trkpt lat="42.709479" lon="-7.112349">
        <ele>1258.977</ele>
        <time>2021-07-14T11:23:03Z</time>
      </trkpt>
      <trkpt lat="42.709437" lon="-7.112293">
        <ele>1258.561</ele>
        <time>2021-07-14T11:23:04Z</time>
      </trkpt>
      <trkpt lat="42.709374" lon="-7.112232">
        <ele>1258.027</ele>
        <time>2021-07-14T11:23:05Z</time>
      </trkpt>
      <trkpt lat="42.709289" lon="-7.112178">
        <ele>1257.008</ele>
        <time>2021-07-14T11:23:06Z</time>
      </trkpt>
      <trkpt lat="42.709201" lon="-7.112138">
        <ele>1256.574</ele>
        <time>2021-07-14T11:23:07Z</time>
      </trkpt>
      <trkpt lat="42.709103" lon="-7.112097">
        <ele>1255.646</ele>
        <time>2021-07-14T11:23:08Z</time>
      </trkpt>
      <trkpt lat="42.708368" lon="-7.111760">
        <ele>1248.433</ele>
        <time>2021-07-14T11:23:15Z</time>
      </trkpt>
      <trkpt lat="42.708260" lon="-7.111737">
        <ele>1247.923</ele>
        <time>2021-07-14T11:23:16Z</time>
      </trkpt>
      <trkpt lat="42.707950" lon="-7.111658">
        <ele>1246.427</ele>
        <time>2021-07-14T11:23:19Z</time>
      </trkpt>
      <trkpt lat="42.707860" lon="-7.111596">
        <ele>1246.045</ele>
        <time>2021-07-14T11:23:20Z</time>
      </trkpt>
      <trkpt lat="42.707779" lon="-7.111513">
        <ele>1245.562</ele>
        <time>2021-07-14T11:23:21Z</time>
      </trkpt>
      <trkpt lat="42.707706" lon="-7.111417">
        <ele>1246.070</ele>
        <time>2021-07-14T11:23:22Z</time>
      </trkpt>
      <trkpt lat="42.707643" lon="-7.111305">
        <ele>1245.566</ele>
        <time>2021-07-14T11:23:23Z</time>
      </trkpt>
      <trkpt lat="42.707597" lon="-7.111202">
        <ele>1245.529</ele>
        <time>2021-07-14T11:23:24Z</time>
      </trkpt>
      <trkpt lat="42.707548" lon="-7.111080">
        <ele>1245.021</ele>
        <time>2021-07-14T11:23:25Z</time>
      </trkpt>
      <trkpt lat="42.707506" lon="-7.110965">
        <ele>1245.008</ele>
        <time>2021-07-14T11:23:26Z</time>
      </trkpt>
      <trkpt lat="42.707410" lon="-7.110615">
        <ele>1244.033</ele>
        <time>2021-07-14T11:23:29Z</time>
      </trkpt>
      <trkpt lat="42.707393" lon="-7.110480">
        <ele>1243.685</ele>
        <time>2021-07-14T11:23:30Z</time>
      </trkpt>
      <trkpt lat="42.707393" lon="-7.110353">
        <ele>1243.162</ele>
        <time>2021-07-14T11:23:31Z</time>
      </trkpt>
      <trkpt lat="42.707412" lon="-7.110216">
        <ele>1242.672</ele>
        <time>2021-07-14T11:23:32Z</time>
      </trkpt>
      <trkpt lat="42.707452" lon="-7.110040">
        <ele>1242.626</ele>
        <time>2021-07-14T11:23:34Z</time>
      </trkpt>
      <trkpt lat="42.707510" lon="-7.109887">
        <ele>1242.674</ele>
        <time>2021-07-14T11:23:35Z</time>
      </trkpt>
      <trkpt lat="42.707698" lon="-7.109308">
        <ele>1243.641</ele>
        <time>2021-07-14T11:23:41Z</time>
      </trkpt>
      <trkpt lat="42.707714" lon="-7.109203">
        <ele>1244.059</ele>
        <time>2021-07-14T11:23:42Z</time>
      </trkpt>
      <trkpt lat="42.707719" lon="-7.109116">
        <ele>1244.026</ele>
        <time>2021-07-14T11:23:43Z</time>
      </trkpt>
      <trkpt lat="42.707717" lon="-7.109059">
        <ele>1244.047</ele>
        <time>2021-07-14T11:23:44Z</time>
      </trkpt>
      <trkpt lat="42.707709" lon="-7.108985">
        <ele>1244.011</ele>
        <time>2021-07-14T11:23:45Z</time>
      </trkpt>
      <trkpt lat="42.707696" lon="-7.108922">
        <ele>1244.008</ele>
        <time>2021-07-14T11:23:46Z</time>
      </trkpt>
      <trkpt lat="42.707671" lon="-7.108848">
        <ele>1244.039</ele>
        <time>2021-07-14T11:23:47Z</time>
      </trkpt>
      <trkpt lat="42.707656" lon="-7.108815">
        <ele>1244.041</ele>
        <time>2021-07-14T11:23:48Z</time>
      </trkpt>
      <trkpt lat="42.707509" lon="-7.108598">
        <ele>1245.068</ele>
        <time>2021-07-14T11:23:54Z</time>
      </trkpt>
      <trkpt lat="42.707336" lon="-7.108457">
        <ele>1245.558</ele>
        <time>2021-07-14T11:23:59Z</time>
      </trkpt>
      <trkpt lat="42.707239" lon="-7.108412">
        <ele>1246.072</ele>
        <time>2021-07-14T11:24:01Z</time>
      </trkpt>
      <trkpt lat="42.707130" lon="-7.108374">
        <ele>1246.430</ele>
        <time>2021-07-14T11:24:04Z</time>
      </trkpt>
      <trkpt lat="42.706736" lon="-7.108396">
        <ele>1245.557</ele>
        <time>2021-07-14T11:24:13Z</time>
      </trkpt>
      <trkpt lat="42.706425" lon="-7.108454">
        <ele>1245.075</ele>
        <time>2021-07-14T11:24:19Z</time>
      </trkpt>
      <trkpt lat="42.706321" lon="-7.108445">
        <ele>1244.556</ele>
        <time>2021-07-14T11:24:21Z</time>
      </trkpt>
      <trkpt lat="42.706173" lon="-7.108389">
        <ele>1245.059</ele>
        <time>2021-07-14T11:24:24Z</time>
      </trkpt>
      <trkpt lat="42.706101" lon="-7.108345">
        <ele>1245.014</ele>
        <time>2021-07-14T11:24:25Z</time>
      </trkpt>
      <trkpt lat="42.706060" lon="-7.108315">
        <ele>1245.008</ele>
        <time>2021-07-14T11:24:26Z</time>
      </trkpt>
      <trkpt lat="42.706017" lon="-7.108275">
        <ele>1245.062</ele>
        <time>2021-07-14T11:24:27Z</time>
      </trkpt>
      <trkpt lat="42.705975" lon="-7.108231">
        <ele>1245.064</ele>
        <time>2021-07-14T11:24:28Z</time>
      </trkpt>
      <trkpt lat="42.705905" lon="-7.108138">
        <ele>1245.581</ele>
        <time>2021-07-14T11:24:30Z</time>
      </trkpt>
      <trkpt lat="42.705874" lon="-7.108078">
        <ele>1245.571</ele>
        <time>2021-07-14T11:24:31Z</time>
      </trkpt>
      <trkpt lat="42.705713" lon="-7.107583">
        <ele>1246.485</ele>
        <time>2021-07-14T11:24:40Z</time>
      </trkpt>
      <trkpt lat="42.705621" lon="-7.107023">
        <ele>1246.993</ele>
        <time>2021-07-14T11:24:51Z</time>
      </trkpt>
      <trkpt lat="42.705488" lon="-7.106582">
        <ele>1246.470</ele>
        <time>2021-07-14T11:25:00Z</time>
      </trkpt>
      <trkpt lat="42.705437" lon="-7.106486">
        <ele>1246.438</ele>
        <time>2021-07-14T11:25:02Z</time>
      </trkpt>
      <trkpt lat="42.705138" lon="-7.105940">
        <ele>1245.051</ele>
        <time>2021-07-14T11:25:13Z</time>
      </trkpt>
      <trkpt lat="42.705106" lon="-7.105831">
        <ele>1245.001</ele>
        <time>2021-07-14T11:25:15Z</time>
      </trkpt>
      <trkpt lat="42.705090" lon="-7.105743">
        <ele>1244.511</ele>
        <time>2021-07-14T11:25:16Z</time>
      </trkpt>
      <trkpt lat="42.705074" lon="-7.105624">
        <ele>1245.008</ele>
        <time>2021-07-14T11:25:18Z</time>
      </trkpt>
      <trkpt lat="42.705067" lon="-7.105487">
        <ele>1244.512</ele>
        <time>2021-07-14T11:25:20Z</time>
      </trkpt>
      <trkpt lat="42.705071" lon="-7.105372">
        <ele>1244.554</ele>
        <time>2021-07-14T11:25:22Z</time>
      </trkpt>
      <trkpt lat="42.705124" lon="-7.105082">
        <ele>1244.541</ele>
        <time>2021-07-14T11:25:26Z</time>
      </trkpt>
      <trkpt lat="42.705338" lon="-7.104541">
        <ele>1244.551</ele>
        <time>2021-07-14T11:25:35Z</time>
      </trkpt>
      <trkpt lat="42.705355" lon="-7.104468">
        <ele>1244.575</ele>
        <time>2021-07-14T11:25:36Z</time>
      </trkpt>
      <trkpt lat="42.705390" lon="-7.104135">
        <ele>1244.513</ele>
        <time>2021-07-14T11:25:41Z</time>
      </trkpt>
      <trkpt lat="42.705380" lon="-7.103956">
        <ele>1245.010</ele>
        <time>2021-07-14T11:25:44Z</time>
      </trkpt>
      <trkpt lat="42.705360" lon="-7.103846">
        <ele>1245.538</ele>
        <time>2021-07-14T11:25:46Z</time>
      </trkpt>
      <trkpt lat="42.705227" lon="-7.103437">
        <ele>1246.953</ele>
        <time>2021-07-14T11:25:55Z</time>
      </trkpt>
      <trkpt lat="42.705160" lon="-7.103192">
        <ele>1247.404</ele>
        <time>2021-07-14T11:26:02Z</time>
      </trkpt>
      <trkpt lat="42.705164" lon="-7.103164">
        <ele>1247.414</ele>
        <time>2021-07-14T11:26:03Z</time>
      </trkpt>
      <trkpt lat="42.705167" lon="-7.103139">
        <ele>1247.408</ele>
        <time>2021-07-14T11:26:04Z</time>
      </trkpt>
      <trkpt lat="42.705169" lon="-7.103118">
        <ele>1247.942</ele>
        <time>2021-07-14T11:26:05Z</time>
      </trkpt>
      <trkpt lat="42.705172" lon="-7.103102">
        <ele>1247.924</ele>
        <time>2021-07-14T11:26:06Z</time>
      </trkpt>
      <trkpt lat="42.705176" lon="-7.103085">
        <ele>1247.921</ele>
        <time>2021-07-14T11:26:07Z</time>
      </trkpt>
      <trkpt lat="42.705177" lon="-7.103067">
        <ele>1247.931</ele>
        <time>2021-07-14T11:26:08Z</time>
      </trkpt>
      <trkpt lat="42.705173" lon="-7.103046">
        <ele>1247.985</ele>
        <time>2021-07-14T11:26:09Z</time>
      </trkpt>
      <trkpt lat="42.705169" lon="-7.103023">
        <ele>1247.973</ele>
        <time>2021-07-14T11:26:10Z</time>
      </trkpt>
      <trkpt lat="42.705109" lon="-7.102736">
        <ele>1245.540</ele>
        <time>2021-07-14T11:26:18Z</time>
      </trkpt>
      <trkpt lat="42.705087" lon="-7.102494">
        <ele>1245.588</ele>
        <time>2021-07-14T11:26:25Z</time>
      </trkpt>
      <trkpt lat="42.705098" lon="-7.102184">
        <ele>1245.546</ele>
        <time>2021-07-14T11:26:35Z</time>
      </trkpt>
      <trkpt lat="42.705096" lon="-7.102109">
        <ele>1246.088</ele>
        <time>2021-07-14T11:26:39Z</time>
      </trkpt>
      <trkpt lat="42.705100" lon="-7.102044">
        <ele>1246.016</ele>
        <time>2021-07-14T11:26:43Z</time>
      </trkpt>
      <trkpt lat="42.705072" lon="-7.101998">
        <ele>1246.408</ele>
        <time>2021-07-14T11:26:51Z</time>
      </trkpt>
      <trkpt lat="42.705073" lon="-7.101982">
        <ele>1246.971</ele>
        <time>2021-07-14T11:26:59Z</time>
      </trkpt>
      <trkpt lat="42.705082" lon="-7.102001">
        <ele>1247.923</ele>
        <time>2021-07-14T11:27:24Z</time>
      </trkpt>
      <trkpt lat="42.705101" lon="-7.102010">
        <ele>1248.830</ele>
        <time>2021-07-14T11:27:44Z</time>
      </trkpt>
      <trkpt lat="42.705093" lon="-7.102012">
        <ele>1248.840</ele>
        <time>2021-07-14T11:28:01Z</time>
      </trkpt>
      <trkpt lat="42.705087" lon="-7.102007">
        <ele>1248.484</ele>
        <time>2021-07-14T11:28:20Z</time>
      </trkpt>
      <trkpt lat="42.705098" lon="-7.101999">
        <ele>1248.492</ele>
        <time>2021-07-14T11:28:33Z</time>
      </trkpt>
      <trkpt lat="42.705101" lon="-7.101996">
        <ele>1247.959</ele>
        <time>2021-07-14T11:28:44Z</time>
      </trkpt>
      <trkpt lat="42.705099" lon="-7.101996">
        <ele>1247.427</ele>
        <time>2021-07-14T11:28:59Z</time>
      </trkpt>
      <trkpt lat="42.705090" lon="-7.102003">
        <ele>1246.968</ele>
        <time>2021-07-14T11:29:07Z</time>
      </trkpt>
      <trkpt lat="42.705078" lon="-7.102018">
        <ele>1247.442</ele>
        <time>2021-07-14T11:29:20Z</time>
      </trkpt>
      <trkpt lat="42.705072" lon="-7.102036">
        <ele>1248.826</ele>
        <time>2021-07-14T11:29:35Z</time>
      </trkpt>
      <trkpt lat="42.705081" lon="-7.102038">
        <ele>1248.808</ele>
        <time>2021-07-14T11:29:45Z</time>
      </trkpt>
      <trkpt lat="42.705077" lon="-7.102035">
        <ele>1248.853</ele>
        <time>2021-07-14T11:30:02Z</time>
      </trkpt>
      <trkpt lat="42.705084" lon="-7.102032">
        <ele>1249.835</ele>
        <time>2021-07-14T11:30:13Z</time>
      </trkpt>
      <trkpt lat="42.705095" lon="-7.102006">
        <ele>1249.842</ele>
        <time>2021-07-14T11:30:32Z</time>
      </trkpt>
      <trkpt lat="42.705090" lon="-7.102004">
        <ele>1249.882</ele>
        <time>2021-07-14T11:30:48Z</time>
      </trkpt>
      <trkpt lat="42.705093" lon="-7.102002">
        <ele>1248.446</ele>
        <time>2021-07-14T11:30:55Z</time>
      </trkpt>
      <trkpt lat="42.705087" lon="-7.101996">
        <ele>1247.914</ele>
        <time>2021-07-14T11:31:08Z</time>
      </trkpt>
      <trkpt lat="42.705077" lon="-7.102035">
        <ele>1247.411</ele>
        <time>2021-07-14T11:31:23Z</time>
      </trkpt>
      <trkpt lat="42.705072" lon="-7.102036">
        <ele>1247.949</ele>
        <time>2021-07-14T11:31:35Z</time>
      </trkpt>
      <trkpt lat="42.705063" lon="-7.102053">
        <ele>1248.852</ele>
        <time>2021-07-14T11:31:44Z</time>
      </trkpt>
      <trkpt lat="42.705099" lon="-7.102065">
        <ele>1247.953</ele>
        <time>2021-07-14T11:31:48Z</time>
      </trkpt>
      <trkpt lat="42.705123" lon="-7.102118">
        <ele>1247.408</ele>
        <time>2021-07-14T11:31:57Z</time>
      </trkpt>
      <trkpt lat="42.705125" lon="-7.102118">
        <ele>1246.008</ele>
        <time>2021-07-14T11:32:12Z</time>
      </trkpt>
      <trkpt lat="42.705127" lon="-7.102104">
        <ele>1244.092</ele>
        <time>2021-07-14T11:32:26Z</time>
      </trkpt>
      <trkpt lat="42.705121" lon="-7.102109">
        <ele>1242.614</ele>
        <time>2021-07-14T11:32:42Z</time>
      </trkpt>
      <trkpt lat="42.705126" lon="-7.102095">
        <ele>1242.161</ele>
        <time>2021-07-14T11:32:58Z</time>
      </trkpt>
      <trkpt lat="42.705122" lon="-7.102107">
        <ele>1242.141</ele>
        <time>2021-07-14T11:33:09Z</time>
      </trkpt>
      <trkpt lat="42.705125" lon="-7.102124">
        <ele>1242.155</ele>
        <time>2021-07-14T11:33:19Z</time>
      </trkpt>
      <trkpt lat="42.705123" lon="-7.102112">
        <ele>1243.633</ele>
        <time>2021-07-14T11:33:28Z</time>
      </trkpt>
      <trkpt lat="42.705116" lon="-7.102093">
        <ele>1244.020</ele>
        <time>2021-07-14T11:33:41Z</time>
      </trkpt>
      <trkpt lat="42.705126" lon="-7.102119">
        <ele>1245.098</ele>
        <time>2021-07-14T11:33:50Z</time>
      </trkpt>
      <trkpt lat="42.705132" lon="-7.102128">
        <ele>1245.094</ele>
        <time>2021-07-14T11:34:00Z</time>
      </trkpt>
      <trkpt lat="42.705119" lon="-7.102129">
        <ele>1244.557</ele>
        <time>2021-07-14T11:34:11Z</time>
      </trkpt>
      <trkpt lat="42.705125" lon="-7.102134">
        <ele>1243.622</ele>
        <time>2021-07-14T11:34:22Z</time>
      </trkpt>
      <trkpt lat="42.705127" lon="-7.102129">
        <ele>1242.608</ele>
        <time>2021-07-14T11:34:30Z</time>
      </trkpt>
      <trkpt lat="42.705116" lon="-7.102126">
        <ele>1243.636</ele>
        <time>2021-07-14T11:34:39Z</time>
      </trkpt>
      <trkpt lat="42.705117" lon="-7.102127">
        <ele>1243.688</ele>
        <time>2021-07-14T11:34:47Z</time>
      </trkpt>
      <trkpt lat="42.705128" lon="-7.102134">
        <ele>1243.175</ele>
        <time>2021-07-14T11:34:58Z</time>
      </trkpt>
      <trkpt lat="42.705125" lon="-7.102125">
        <ele>1246.425</ele>
        <time>2021-07-14T11:35:08Z</time>
      </trkpt>
      <trkpt lat="42.705113" lon="-7.102129">
        <ele>1247.429</ele>
        <time>2021-07-14T11:35:20Z</time>
      </trkpt>
      <trkpt lat="42.705115" lon="-7.102132">
        <ele>1246.917</ele>
        <time>2021-07-14T11:35:31Z</time>
      </trkpt>
      <trkpt lat="42.705109" lon="-7.102117">
        <ele>1247.914</ele>
        <time>2021-07-14T11:35:40Z</time>
      </trkpt>
      <trkpt lat="42.705105" lon="-7.102102">
        <ele>1246.092</ele>
        <time>2021-07-14T11:35:52Z</time>
      </trkpt>
      <trkpt lat="42.705100" lon="-7.102111">
        <ele>1246.958</ele>
        <time>2021-07-14T11:36:06Z</time>
      </trkpt>
      <trkpt lat="42.705095" lon="-7.102107">
        <ele>1247.952</ele>
        <time>2021-07-14T11:36:16Z</time>
      </trkpt>
      <trkpt lat="42.705103" lon="-7.102120">
        <ele>1247.417</ele>
        <time>2021-07-14T11:36:29Z</time>
      </trkpt>
      <trkpt lat="42.705106" lon="-7.102123">
        <ele>1246.408</ele>
        <time>2021-07-14T11:36:40Z</time>
      </trkpt>
      <trkpt lat="42.705104" lon="-7.102113">
        <ele>1246.432</ele>
        <time>2021-07-14T11:36:52Z</time>
      </trkpt>
      <trkpt lat="42.705117" lon="-7.102117">
        <ele>1246.454</ele>
        <time>2021-07-14T11:37:10Z</time>
      </trkpt>
      <trkpt lat="42.705105" lon="-7.102127">
        <ele>1258.521</ele>
        <time>2021-07-14T12:21:53Z</time>
      </trkpt>
      <trkpt lat="42.705097" lon="-7.102116">
        <ele>1250.321</ele>
        <time>2021-07-14T12:22:13Z</time>
      </trkpt>
      <trkpt lat="42.705095" lon="-7.102120">
        <ele>1249.355</ele>
        <time>2021-07-14T12:22:28Z</time>
      </trkpt>
      <trkpt lat="42.705087" lon="-7.102114">
        <ele>1249.333</ele>
        <time>2021-07-14T12:22:40Z</time>
      </trkpt>
      <trkpt lat="42.705091" lon="-7.102057">
        <ele>1248.820</ele>
        <time>2021-07-14T12:22:47Z</time>
      </trkpt>
      <trkpt lat="42.705108" lon="-7.101970">
        <ele>1249.318</ele>
        <time>2021-07-14T12:22:56Z</time>
      </trkpt>
      <trkpt lat="42.705119" lon="-7.101912">
        <ele>1248.884</ele>
        <time>2021-07-14T12:23:05Z</time>
      </trkpt>
      <trkpt lat="42.705117" lon="-7.101785">
        <ele>1249.307</ele>
        <time>2021-07-14T12:23:16Z</time>
      </trkpt>
      <trkpt lat="42.705117" lon="-7.101715">
        <ele>1249.317</ele>
        <time>2021-07-14T12:23:22Z</time>
      </trkpt>
      <trkpt lat="42.705114" lon="-7.101557">
        <ele>1249.308</ele>
        <time>2021-07-14T12:23:34Z</time>
      </trkpt>
      <trkpt lat="42.705118" lon="-7.101448">
        <ele>1248.885</ele>
        <time>2021-07-14T12:23:43Z</time>
      </trkpt>
      <trkpt lat="42.705123" lon="-7.101308">
        <ele>1249.867</ele>
        <time>2021-07-14T12:23:53Z</time>
      </trkpt>
      <trkpt lat="42.705115" lon="-7.101158">
        <ele>1249.824</ele>
        <time>2021-07-14T12:24:06Z</time>
      </trkpt>
      <trkpt lat="42.705107" lon="-7.101170">
        <ele>1249.374</ele>
        <time>2021-07-14T12:24:16Z</time>
      </trkpt>
      <trkpt lat="42.705097" lon="-7.101172">
        <ele>1248.868</ele>
        <time>2021-07-14T12:24:43Z</time>
      </trkpt>
      <trkpt lat="42.705104" lon="-7.101169">
        <ele>1248.436</ele>
        <time>2021-07-14T12:25:02Z</time>
      </trkpt>
      <trkpt lat="42.705114" lon="-7.101145">
        <ele>1245.063</ele>
        <time>2021-07-14T12:25:29Z</time>
      </trkpt>
      <trkpt lat="42.705122" lon="-7.101148">
        <ele>1244.511</ele>
        <time>2021-07-14T12:25:45Z</time>
      </trkpt>
      <trkpt lat="42.705124" lon="-7.101157">
        <ele>1244.524</ele>
        <time>2021-07-14T12:26:06Z</time>
      </trkpt>
      <trkpt lat="42.705114" lon="-7.101143">
        <ele>1245.004</ele>
        <time>2021-07-14T12:26:14Z</time>
      </trkpt>
      <trkpt lat="42.705108" lon="-7.101137">
        <ele>1245.014</ele>
        <time>2021-07-14T12:26:16Z</time>
      </trkpt>
      <trkpt lat="42.705097" lon="-7.101022">
        <ele>1246.008</ele>
        <time>2021-07-14T12:26:22Z</time>
      </trkpt>
      <trkpt lat="42.705089" lon="-7.100823">
        <ele>1245.519</ele>
        <time>2021-07-14T12:26:33Z</time>
      </trkpt>
      <trkpt lat="42.705092" lon="-7.100620">
        <ele>1245.581</ele>
        <time>2021-07-14T12:26:44Z</time>
      </trkpt>
      <trkpt lat="42.705079" lon="-7.100494">
        <ele>1245.068</ele>
        <time>2021-07-14T12:26:50Z</time>
      </trkpt>
      <trkpt lat="42.705015" lon="-7.100280">
        <ele>1244.038</ele>
        <time>2021-07-14T12:27:00Z</time>
      </trkpt>
      <trkpt lat="42.704942" lon="-7.100054">
        <ele>1244.082</ele>
        <time>2021-07-14T12:27:10Z</time>
      </trkpt>
      <trkpt lat="42.704905" lon="-7.099922">
        <ele>1243.120</ele>
        <time>2021-07-14T12:27:16Z</time>
      </trkpt>
      <trkpt lat="42.704838" lon="-7.099667">
        <ele>1243.667</ele>
        <time>2021-07-14T12:27:24Z</time>
      </trkpt>
      <trkpt lat="42.704751" lon="-7.099481">
        <ele>1243.615</ele>
        <time>2021-07-14T12:27:28Z</time>
      </trkpt>
      <trkpt lat="42.704460" lon="-7.099171">
        <ele>1241.275</ele>
        <time>2021-07-14T12:27:35Z</time>
      </trkpt>
      <trkpt lat="42.704331" lon="-7.099022">
        <ele>1240.728</ele>
        <time>2021-07-14T12:27:40Z</time>
      </trkpt>
      <trkpt lat="42.704247" lon="-7.098754">
        <ele>1239.220</ele>
        <time>2021-07-14T12:27:47Z</time>
      </trkpt>
      <trkpt lat="42.704169" lon="-7.098307">
        <ele>1237.308</ele>
        <time>2021-07-14T12:27:54Z</time>
      </trkpt>
      <trkpt lat="42.704068" lon="-7.097946">
        <ele>1235.414</ele>
        <time>2021-07-14T12:27:59Z</time>
      </trkpt>
      <trkpt lat="42.704034" lon="-7.097870">
        <ele>1235.476</ele>
        <time>2021-07-14T12:28:00Z</time>
      </trkpt>
      <trkpt lat="42.703995" lon="-7.097798">
        <ele>1235.453</ele>
        <time>2021-07-14T12:28:01Z</time>
      </trkpt>
      <trkpt lat="42.703631" lon="-7.097331">
        <ele>1233.583</ele>
        <time>2021-07-14T12:28:08Z</time>
      </trkpt>
      <trkpt lat="42.703121" lon="-7.096788">
        <ele>1230.647</ele>
        <time>2021-07-14T12:28:16Z</time>
      </trkpt>
      <trkpt lat="42.702558" lon="-7.096085">
        <ele>1225.815</ele>
        <time>2021-07-14T12:28:24Z</time>
      </trkpt>
      <trkpt lat="42.701935" lon="-7.095143">
        <ele>1218.192</ele>
        <time>2021-07-14T12:28:32Z</time>
      </trkpt>
      <trkpt lat="42.701414" lon="-7.094394">
        <ele>1216.290</ele>
        <time>2021-07-14T12:28:39Z</time>
      </trkpt>
      <trkpt lat="42.701073" lon="-7.093952">
        <ele>1217.146</ele>
        <time>2021-07-14T12:28:45Z</time>
      </trkpt>
      <trkpt lat="42.700885" lon="-7.093730">
        <ele>1219.088</ele>
        <time>2021-07-14T12:28:50Z</time>
      </trkpt>
      <trkpt lat="42.700780" lon="-7.093607">
        <ele>1220.016</ele>
        <time>2021-07-14T12:28:56Z</time>
      </trkpt>
      <trkpt lat="42.700681" lon="-7.093490">
        <ele>1221.008</ele>
        <time>2021-07-14T12:29:04Z</time>
      </trkpt>
      <trkpt lat="42.700536" lon="-7.093321">
        <ele>1222.971</ele>
        <time>2021-07-14T12:29:15Z</time>
      </trkpt>
      <trkpt lat="42.700526" lon="-7.093312">
        <ele>1222.923</ele>
        <time>2021-07-14T12:29:16Z</time>
      </trkpt>
      <trkpt lat="42.700488" lon="-7.093296">
        <ele>1222.950</ele>
        <time>2021-07-14T12:29:24Z</time>
      </trkpt>
      <trkpt lat="42.700467" lon="-7.093288">
        <ele>1222.950</ele>
        <time>2021-07-14T12:29:30Z</time>
      </trkpt>
      <trkpt lat="42.700464" lon="-7.093298">
        <ele>1223.474</ele>
        <time>2021-07-14T12:29:55Z</time>
      </trkpt>
      <trkpt lat="42.700463" lon="-7.093296">
        <ele>1221.972</ele>
        <time>2021-07-14T12:30:26Z</time>
      </trkpt>
      <trkpt lat="42.700454" lon="-7.093262">
        <ele>1222.489</ele>
        <time>2021-07-14T12:30:33Z</time>
      </trkpt>
      <trkpt lat="42.700445" lon="-7.093230">
        <ele>1222.497</ele>
        <time>2021-07-14T12:30:41Z</time>
      </trkpt>
      <trkpt lat="42.700434" lon="-7.093221">
        <ele>1222.964</ele>
        <time>2021-07-14T12:30:42Z</time>
      </trkpt>
      <trkpt lat="42.700421" lon="-7.093213">
        <ele>1222.906</ele>
        <time>2021-07-14T12:30:43Z</time>
      </trkpt>
      <trkpt lat="42.700409" lon="-7.093200">
        <ele>1222.916</ele>
        <time>2021-07-14T12:30:44Z</time>
      </trkpt>
      <trkpt lat="42.700395" lon="-7.093186">
        <ele>1223.408</ele>
        <time>2021-07-14T12:30:45Z</time>
      </trkpt>
      <trkpt lat="42.700240" lon="-7.092997">
        <ele>1225.353</ele>
        <time>2021-07-14T12:30:57Z</time>
      </trkpt>
      <trkpt lat="42.700075" lon="-7.092809">
        <ele>1227.235</ele>
        <time>2021-07-14T12:31:09Z</time>
      </trkpt>
      <trkpt lat="42.699913" lon="-7.092623">
        <ele>1228.232</ele>
        <time>2021-07-14T12:31:21Z</time>
      </trkpt>
      <trkpt lat="42.699752" lon="-7.092439">
        <ele>1229.652</ele>
        <time>2021-07-14T12:31:33Z</time>
      </trkpt>
      <trkpt lat="42.699608" lon="-7.092272">
        <ele>1230.696</ele>
        <time>2021-07-14T12:31:44Z</time>
      </trkpt>
      <trkpt lat="42.699449" lon="-7.092090">
        <ele>1231.584</ele>
        <time>2021-07-14T12:31:56Z</time>
      </trkpt>
      <trkpt lat="42.699278" lon="-7.091889">
        <ele>1233.071</ele>
        <time>2021-07-14T12:32:09Z</time>
      </trkpt>
      <trkpt lat="42.699150" lon="-7.091738">
        <ele>1234.429</ele>
        <time>2021-07-14T12:32:19Z</time>
      </trkpt>
      <trkpt lat="42.698960" lon="-7.091519">
        <ele>1235.992</ele>
        <time>2021-07-14T12:32:33Z</time>
      </trkpt>
      <trkpt lat="42.698804" lon="-7.091336">
        <ele>1237.373</ele>
        <time>2021-07-14T12:32:45Z</time>
      </trkpt>
      <trkpt lat="42.698650" lon="-7.091163">
        <ele>1238.820</ele>
        <time>2021-07-14T12:32:57Z</time>
      </trkpt>
      <trkpt lat="42.698561" lon="-7.091056">
        <ele>1239.708</ele>
        <time>2021-07-14T12:33:04Z</time>
      </trkpt>
      <trkpt lat="42.698408" lon="-7.090880">
        <ele>1241.296</ele>
        <time>2021-07-14T12:33:15Z</time>
      </trkpt>
      <trkpt lat="42.698249" lon="-7.090692">
        <ele>1243.118</ele>
        <time>2021-07-14T12:33:28Z</time>
      </trkpt>
      <trkpt lat="42.698129" lon="-7.090538">
        <ele>1244.525</ele>
        <time>2021-07-14T12:33:38Z</time>
      </trkpt>
      <trkpt lat="42.697996" lon="-7.090347">
        <ele>1246.475</ele>
        <time>2021-07-14T12:33:50Z</time>
      </trkpt>
      <trkpt lat="42.697911" lon="-7.090200">
        <ele>1247.429</ele>
        <time>2021-07-14T12:33:59Z</time>
      </trkpt>
      <trkpt lat="42.697852" lon="-7.090029">
        <ele>1248.487</ele>
        <time>2021-07-14T12:34:08Z</time>
      </trkpt>
      <trkpt lat="42.697827" lon="-7.089842">
        <ele>1249.364</ele>
        <time>2021-07-14T12:34:18Z</time>
      </trkpt>
      <trkpt lat="42.697825" lon="-7.089662">
        <ele>1249.372</ele>
        <time>2021-07-14T12:34:27Z</time>
      </trkpt>
      <trkpt lat="42.697854" lon="-7.089428">
        <ele>1250.383</ele>
        <time>2021-07-14T12:34:38Z</time>
      </trkpt>
      <trkpt lat="42.697930" lon="-7.089202">
        <ele>1251.225</ele>
        <time>2021-07-14T12:34:49Z</time>
      </trkpt>
      <trkpt lat="42.698044" lon="-7.089018">
        <ele>1250.817</ele>
        <time>2021-07-14T12:34:59Z</time>
      </trkpt>
      <trkpt lat="42.698209" lon="-7.088874">
        <ele>1251.208</ele>
        <time>2021-07-14T12:35:11Z</time>
      </trkpt>
      <trkpt lat="42.698359" lon="-7.088766">
        <ele>1252.735</ele>
        <time>2021-07-14T12:35:22Z</time>
      </trkpt>
      <trkpt lat="42.698498" lon="-7.088679">
        <ele>1253.737</ele>
        <time>2021-07-14T12:35:31Z</time>
      </trkpt>
      <trkpt lat="42.698662" lon="-7.088589">
        <ele>1255.644</ele>
        <time>2021-07-14T12:35:42Z</time>
      </trkpt>
      <trkpt lat="42.698817" lon="-7.088468">
        <ele>1257.024</ele>
        <time>2021-07-14T12:35:53Z</time>
      </trkpt>
      <trkpt lat="42.698908" lon="-7.088335">
        <ele>1258.538</ele>
        <time>2021-07-14T12:36:02Z</time>
      </trkpt>
      <trkpt lat="42.698986" lon="-7.088094">
        <ele>1260.486</ele>
        <time>2021-07-14T12:36:13Z</time>
      </trkpt>
      <trkpt lat="42.699025" lon="-7.087864">
        <ele>1261.353</ele>
        <time>2021-07-14T12:36:23Z</time>
      </trkpt>
      <trkpt lat="42.699029" lon="-7.087587">
        <ele>1262.351</ele>
        <time>2021-07-14T12:36:33Z</time>
      </trkpt>
      <trkpt lat="42.698982" lon="-7.087266">
        <ele>1264.235</ele>
        <time>2021-07-14T12:36:45Z</time>
      </trkpt>
      <trkpt lat="42.698928" lon="-7.086985">
        <ele>1266.686</ele>
        <time>2021-07-14T12:36:56Z</time>
      </trkpt>
      <trkpt lat="42.698854" lon="-7.086688">
        <ele>1267.614</ele>
        <time>2021-07-14T12:37:08Z</time>
      </trkpt>
      <trkpt lat="42.698780" lon="-7.086393">
        <ele>1269.008</ele>
        <time>2021-07-14T12:37:20Z</time>
      </trkpt>
      <trkpt lat="42.698726" lon="-7.086107">
        <ele>1270.570</ele>
        <time>2021-07-14T12:37:31Z</time>
      </trkpt>
      <trkpt lat="42.698682" lon="-7.085747">
        <ele>1271.942</ele>
        <time>2021-07-14T12:37:44Z</time>
      </trkpt>
      <trkpt lat="42.698671" lon="-7.085542">
        <ele>1272.479</ele>
        <time>2021-07-14T12:37:52Z</time>
      </trkpt>
      <trkpt lat="42.698651" lon="-7.085187">
        <ele>1273.449</ele>
        <time>2021-07-14T12:38:04Z</time>
      </trkpt>
      <trkpt lat="42.698634" lon="-7.084914">
        <ele>1273.823</ele>
        <time>2021-07-14T12:38:14Z</time>
      </trkpt>
      <trkpt lat="42.698608" lon="-7.084628">
        <ele>1275.341</ele>
        <time>2021-07-14T12:38:25Z</time>
      </trkpt>
      <trkpt lat="42.698569" lon="-7.084434">
        <ele>1275.898</ele>
        <time>2021-07-14T12:38:34Z</time>
      </trkpt>
      <trkpt lat="42.698561" lon="-7.084190">
        <ele>1275.846</ele>
        <time>2021-07-14T12:38:45Z</time>
      </trkpt>
      <trkpt lat="42.698561" lon="-7.084135">
        <ele>1275.331</ele>
        <time>2021-07-14T12:38:52Z</time>
      </trkpt>
      <trkpt lat="42.698559" lon="-7.084142">
        <ele>1275.361</ele>
        <time>2021-07-14T12:39:03Z</time>
      </trkpt>
      <trkpt lat="42.698556" lon="-7.084146">
        <ele>1275.807</ele>
        <time>2021-07-14T12:39:26Z</time>
      </trkpt>
      <trkpt lat="42.698561" lon="-7.084150">
        <ele>1276.708</ele>
        <time>2021-07-14T12:39:48Z</time>
      </trkpt>
      <trkpt lat="42.698568" lon="-7.084151">
        <ele>1277.220</ele>
        <time>2021-07-14T12:40:04Z</time>
      </trkpt>
      <trkpt lat="42.698561" lon="-7.084155">
        <ele>1276.252</ele>
        <time>2021-07-14T12:40:26Z</time>
      </trkpt>
      <trkpt lat="42.698559" lon="-7.084158">
        <ele>1274.389</ele>
        <time>2021-07-14T12:40:47Z</time>
      </trkpt>
      <trkpt lat="42.698566" lon="-7.084143">
        <ele>1273.859</ele>
        <time>2021-07-14T12:41:07Z</time>
      </trkpt>
      <trkpt lat="42.698560" lon="-7.084143">
        <ele>1275.863</ele>
        <time>2021-07-14T12:41:29Z</time>
      </trkpt>
      <trkpt lat="42.698569" lon="-7.084150">
        <ele>1275.311</ele>
        <time>2021-07-14T12:41:55Z</time>
      </trkpt>
      <trkpt lat="42.698570" lon="-7.084147">
        <ele>1276.268</ele>
        <time>2021-07-14T12:42:14Z</time>
      </trkpt>
      <trkpt lat="42.698559" lon="-7.084146">
        <ele>1275.376</ele>
        <time>2021-07-14T12:42:36Z</time>
      </trkpt>
      <trkpt lat="42.698561" lon="-7.084146">
        <ele>1276.251</ele>
        <time>2021-07-14T12:42:53Z</time>
      </trkpt>
      <trkpt lat="42.698564" lon="-7.084151">
        <ele>1275.801</ele>
        <time>2021-07-14T12:43:14Z</time>
      </trkpt>
      <trkpt lat="42.698557" lon="-7.084141">
        <ele>1276.211</ele>
        <time>2021-07-14T12:43:30Z</time>
      </trkpt>
      <trkpt lat="42.698552" lon="-7.084120">
        <ele>1276.208</ele>
        <time>2021-07-14T12:43:36Z</time>
      </trkpt>
      <trkpt lat="42.698558" lon="-7.084076">
        <ele>1276.222</ele>
        <time>2021-07-14T12:43:40Z</time>
      </trkpt>
      <trkpt lat="42.698562" lon="-7.084061">
        <ele>1276.274</ele>
        <time>2021-07-14T12:43:41Z</time>
      </trkpt>
      <trkpt lat="42.698565" lon="-7.084047">
        <ele>1276.291</ele>
        <time>2021-07-14T12:43:42Z</time>
      </trkpt>
      <trkpt lat="42.698564" lon="-7.084032">
        <ele>1276.231</ele>
        <time>2021-07-14T12:43:43Z</time>
      </trkpt>
      <trkpt lat="42.698561" lon="-7.084015">
        <ele>1276.285</ele>
        <time>2021-07-14T12:43:44Z</time>
      </trkpt>
      <trkpt lat="42.698562" lon="-7.083995">
        <ele>1276.273</ele>
        <time>2021-07-14T12:43:45Z</time>
      </trkpt>
      <trkpt lat="42.698569" lon="-7.083973">
        <ele>1276.220</ele>
        <time>2021-07-14T12:43:46Z</time>
      </trkpt>
      <trkpt lat="42.698580" lon="-7.083954">
        <ele>1276.718</ele>
        <time>2021-07-14T12:43:47Z</time>
      </trkpt>
      <trkpt lat="42.698591" lon="-7.083934">
        <ele>1276.789</ele>
        <time>2021-07-14T12:43:48Z</time>
      </trkpt>
      <trkpt lat="42.698600" lon="-7.083910">
        <ele>1276.706</ele>
        <time>2021-07-14T12:43:49Z</time>
      </trkpt>
      <trkpt lat="42.698611" lon="-7.083884">
        <ele>1277.226</ele>
        <time>2021-07-14T12:43:50Z</time>
      </trkpt>
      <trkpt lat="42.698623" lon="-7.083859">
        <ele>1276.708</ele>
        <time>2021-07-14T12:43:51Z</time>
      </trkpt>
      <trkpt lat="42.698631" lon="-7.083828">
        <ele>1276.215</ele>
        <time>2021-07-14T12:43:52Z</time>
      </trkpt>
      <trkpt lat="42.698635" lon="-7.083797">
        <ele>1276.237</ele>
        <time>2021-07-14T12:43:53Z</time>
      </trkpt>
      <trkpt lat="42.698638" lon="-7.083767">
        <ele>1276.244</ele>
        <time>2021-07-14T12:43:54Z</time>
      </trkpt>
      <trkpt lat="42.698656" lon="-7.083476">
        <ele>1275.344</ele>
        <time>2021-07-14T12:44:02Z</time>
      </trkpt>
      <trkpt lat="42.698682" lon="-7.083038">
        <ele>1273.448</ele>
        <time>2021-07-14T12:44:09Z</time>
      </trkpt>
      <trkpt lat="42.698689" lon="-7.082455">
        <ele>1270.076</ele>
        <time>2021-07-14T12:44:16Z</time>
      </trkpt>
      <trkpt lat="42.698727" lon="-7.081782">
        <ele>1266.663</ele>
        <time>2021-07-14T12:44:22Z</time>
      </trkpt>
      <trkpt lat="42.698730" lon="-7.081526">
        <ele>1265.271</ele>
        <time>2021-07-14T12:44:24Z</time>
      </trkpt>
      <trkpt lat="42.698719" lon="-7.081401">
        <ele>1264.237</ele>
        <time>2021-07-14T12:44:25Z</time>
      </trkpt>
      <trkpt lat="42.698696" lon="-7.081277">
        <ele>1263.749</ele>
        <time>2021-07-14T12:44:26Z</time>
      </trkpt>
      <trkpt lat="42.698658" lon="-7.081147">
        <ele>1262.813</ele>
        <time>2021-07-14T12:44:27Z</time>
      </trkpt>
      <trkpt lat="42.698610" lon="-7.081013">
        <ele>1262.308</ele>
        <time>2021-07-14T12:44:28Z</time>
      </trkpt>
      <trkpt lat="42.698566" lon="-7.080906">
        <ele>1261.820</ele>
        <time>2021-07-14T12:44:29Z</time>
      </trkpt>
      <trkpt lat="42.698349" lon="-7.080254">
        <ele>1258.992</ele>
        <time>2021-07-14T12:44:34Z</time>
      </trkpt>
      <trkpt lat="42.698343" lon="-7.080171">
        <ele>1258.559</ele>
        <time>2021-07-14T12:44:35Z</time>
      </trkpt>
      <trkpt lat="42.698342" lon="-7.080050">
        <ele>1258.019</ele>
        <time>2021-07-14T12:44:36Z</time>
      </trkpt>
      <trkpt lat="42.698354" lon="-7.079887">
        <ele>1257.573</ele>
        <time>2021-07-14T12:44:37Z</time>
      </trkpt>
      <trkpt lat="42.698384" lon="-7.079715">
        <ele>1256.541</ele>
        <time>2021-07-14T12:44:39Z</time>
      </trkpt>
      <trkpt lat="42.698451" lon="-7.079544">
        <ele>1255.628</ele>
        <time>2021-07-14T12:44:40Z</time>
      </trkpt>
      <trkpt lat="42.698509" lon="-7.079426">
        <ele>1254.676</ele>
        <time>2021-07-14T12:44:41Z</time>
      </trkpt>
      <trkpt lat="42.698576" lon="-7.079303">
        <ele>1253.726</ele>
        <time>2021-07-14T12:44:42Z</time>
      </trkpt>
      <trkpt lat="42.698632" lon="-7.079181">
        <ele>1252.747</ele>
        <time>2021-07-14T12:44:43Z</time>
      </trkpt>
      <trkpt lat="42.698679" lon="-7.079038">
        <ele>1251.211</ele>
        <time>2021-07-14T12:44:44Z</time>
      </trkpt>
      <trkpt lat="42.698704" lon="-7.078915">
        <ele>1250.308</ele>
        <time>2021-07-14T12:44:45Z</time>
      </trkpt>
      <trkpt lat="42.698721" lon="-7.078752">
        <ele>1249.379</ele>
        <time>2021-07-14T12:44:46Z</time>
      </trkpt>
      <trkpt lat="42.698718" lon="-7.078598">
        <ele>1248.461</ele>
        <time>2021-07-14T12:44:47Z</time>
      </trkpt>
      <trkpt lat="42.698702" lon="-7.078456">
        <ele>1247.498</ele>
        <time>2021-07-14T12:44:48Z</time>
      </trkpt>
      <trkpt lat="42.698680" lon="-7.078343">
        <ele>1246.468</ele>
        <time>2021-07-14T12:44:49Z</time>
      </trkpt>
      <trkpt lat="42.698638" lon="-7.078179">
        <ele>1245.562</ele>
        <time>2021-07-14T12:44:50Z</time>
      </trkpt>
      <trkpt lat="42.698596" lon="-7.078053">
        <ele>1244.520</ele>
        <time>2021-07-14T12:44:51Z</time>
      </trkpt>
      <trkpt lat="42.698537" lon="-7.077903">
        <ele>1243.617</ele>
        <time>2021-07-14T12:44:52Z</time>
      </trkpt>
      <trkpt lat="42.698482" lon="-7.077770">
        <ele>1242.655</ele>
        <time>2021-07-14T12:44:53Z</time>
      </trkpt>
      <trkpt lat="42.698317" lon="-7.077370">
        <ele>1240.238</ele>
        <time>2021-07-14T12:44:56Z</time>
      </trkpt>
      <trkpt lat="42.698284" lon="-7.077247">
        <ele>1239.770</ele>
        <time>2021-07-14T12:44:57Z</time>
      </trkpt>
      <trkpt lat="42.698258" lon="-7.077104">
        <ele>1238.817</ele>
        <time>2021-07-14T12:44:58Z</time>
      </trkpt>
      <trkpt lat="42.698094" lon="-7.076432">
        <ele>1234.908</ele>
        <time>2021-07-14T12:45:03Z</time>
      </trkpt>
      <trkpt lat="42.698034" lon="-7.076150">
        <ele>1233.580</ele>
        <time>2021-07-14T12:45:06Z</time>
      </trkpt>
      <trkpt lat="42.698028" lon="-7.076034">
        <ele>1233.052</ele>
        <time>2021-07-14T12:45:07Z</time>
      </trkpt>
      <trkpt lat="42.698041" lon="-7.075837">
        <ele>1232.089</ele>
        <time>2021-07-14T12:45:08Z</time>
      </trkpt>
      <trkpt lat="42.698072" lon="-7.075678">
        <ele>1231.549</ele>
        <time>2021-07-14T12:45:09Z</time>
      </trkpt>
      <trkpt lat="42.698105" lon="-7.075572">
        <ele>1231.593</ele>
        <time>2021-07-14T12:45:10Z</time>
      </trkpt>
      <trkpt lat="42.698139" lon="-7.075477">
        <ele>1231.541</ele>
        <time>2021-07-14T12:45:11Z</time>
      </trkpt>
      <trkpt lat="42.698183" lon="-7.075373">
        <ele>1231.128</ele>
        <time>2021-07-14T12:45:12Z</time>
      </trkpt>
      <trkpt lat="42.698224" lon="-7.075290">
        <ele>1231.146</ele>
        <time>2021-07-14T12:45:13Z</time>
      </trkpt>
      <trkpt lat="42.698270" lon="-7.075205">
        <ele>1231.178</ele>
        <time>2021-07-14T12:45:14Z</time>
      </trkpt>
      <trkpt lat="42.698317" lon="-7.075129">
        <ele>1231.133</ele>
        <time>2021-07-14T12:45:15Z</time>
      </trkpt>
      <trkpt lat="42.698369" lon="-7.075052">
        <ele>1231.126</ele>
        <time>2021-07-14T12:45:16Z</time>
      </trkpt>
      <trkpt lat="42.698615" lon="-7.074703">
        <ele>1232.508</ele>
        <time>2021-07-14T12:45:22Z</time>
      </trkpt>
      <trkpt lat="42.698771" lon="-7.074472">
        <ele>1232.574</ele>
        <time>2021-07-14T12:45:27Z</time>
      </trkpt>
      <trkpt lat="42.698826" lon="-7.074371">
        <ele>1232.546</ele>
        <time>2021-07-14T12:45:29Z</time>
      </trkpt>
      <trkpt lat="42.698877" lon="-7.074283">
        <ele>1232.033</ele>
        <time>2021-07-14T12:45:31Z</time>
      </trkpt>
      <trkpt lat="42.699019" lon="-7.074020">
        <ele>1231.583</ele>
        <time>2021-07-14T12:45:38Z</time>
      </trkpt>
      <trkpt lat="42.699275" lon="-7.073600">
        <ele>1230.187</ele>
        <time>2021-07-14T12:45:49Z</time>
      </trkpt>
      <trkpt lat="42.699573" lon="-7.073174">
        <ele>1229.195</ele>
        <time>2021-07-14T12:45:59Z</time>
      </trkpt>
      <trkpt lat="42.699889" lon="-7.072827">
        <ele>1230.132</ele>
        <time>2021-07-14T12:46:09Z</time>
      </trkpt>
      <trkpt lat="42.700162" lon="-7.072623">
        <ele>1230.610</ele>
        <time>2021-07-14T12:46:18Z</time>
      </trkpt>
      <trkpt lat="42.700444" lon="-7.072448">
        <ele>1232.087</ele>
        <time>2021-07-14T12:46:28Z</time>
      </trkpt>
      <trkpt lat="42.700682" lon="-7.072307">
        <ele>1233.542</ele>
        <time>2021-07-14T12:46:37Z</time>
      </trkpt>
      <trkpt lat="42.700914" lon="-7.072158">
        <ele>1234.426</ele>
        <time>2021-07-14T12:46:46Z</time>
      </trkpt>
      <trkpt lat="42.701113" lon="-7.072030">
        <ele>1235.408</ele>
        <time>2021-07-14T12:46:54Z</time>
      </trkpt>
      <trkpt lat="42.701390" lon="-7.071844">
        <ele>1235.995</ele>
        <time>2021-07-14T12:47:05Z</time>
      </trkpt>
      <trkpt lat="42.701656" lon="-7.071668">
        <ele>1237.357</ele>
        <time>2021-07-14T12:47:16Z</time>
      </trkpt>
      <trkpt lat="42.701896" lon="-7.071508">
        <ele>1238.834</ele>
        <time>2021-07-14T12:47:26Z</time>
      </trkpt>
      <trkpt lat="42.702138" lon="-7.071342">
        <ele>1239.724</ele>
        <time>2021-07-14T12:47:36Z</time>
      </trkpt>
      <trkpt lat="42.702433" lon="-7.071144">
        <ele>1240.218</ele>
        <time>2021-07-14T12:47:48Z</time>
      </trkpt>
      <trkpt lat="42.702679" lon="-7.070969">
        <ele>1240.756</ele>
        <time>2021-07-14T12:47:58Z</time>
      </trkpt>
      <trkpt lat="42.702995" lon="-7.070748">
        <ele>1241.213</ele>
        <time>2021-07-14T12:48:10Z</time>
      </trkpt>
      <trkpt lat="42.703234" lon="-7.070582">
        <ele>1241.631</ele>
        <time>2021-07-14T12:48:20Z</time>
      </trkpt>
      <trkpt lat="42.703520" lon="-7.070394">
        <ele>1242.176</ele>
        <time>2021-07-14T12:48:31Z</time>
      </trkpt>
      <trkpt lat="42.703834" lon="-7.070178">
        <ele>1244.090</ele>
        <time>2021-07-14T12:48:43Z</time>
      </trkpt>
      <trkpt lat="42.704075" lon="-7.069978">
        <ele>1245.019</ele>
        <time>2021-07-14T12:48:53Z</time>
      </trkpt>
      <trkpt lat="42.704349" lon="-7.069703">
        <ele>1245.508</ele>
        <time>2021-07-14T12:49:05Z</time>
      </trkpt>
      <trkpt lat="42.704560" lon="-7.069426">
        <ele>1245.554</ele>
        <time>2021-07-14T12:49:15Z</time>
      </trkpt>
      <trkpt lat="42.704720" lon="-7.069073">
        <ele>1245.596</ele>
        <time>2021-07-14T12:49:26Z</time>
      </trkpt>
      <trkpt lat="42.704821" lon="-7.068717">
        <ele>1245.583</ele>
        <time>2021-07-14T12:49:36Z</time>
      </trkpt>
      <trkpt lat="42.704857" lon="-7.068400">
        <ele>1246.023</ele>
        <time>2021-07-14T12:49:44Z</time>
      </trkpt>
      <trkpt lat="42.704850" lon="-7.068090">
        <ele>1247.437</ele>
        <time>2021-07-14T12:49:53Z</time>
      </trkpt>
      <trkpt lat="42.704816" lon="-7.067695">
        <ele>1247.455</ele>
        <time>2021-07-14T12:50:03Z</time>
      </trkpt>
      <trkpt lat="42.704729" lon="-7.067207">
        <ele>1247.932</ele>
        <time>2021-07-14T12:50:15Z</time>
      </trkpt>
      <trkpt lat="42.704558" lon="-7.066805">
        <ele>1248.810</ele>
        <time>2021-07-14T12:50:27Z</time>
      </trkpt>
      <trkpt lat="42.704386" lon="-7.066379">
        <ele>1250.319</ele>
        <time>2021-07-14T12:50:39Z</time>
      </trkpt>
      <trkpt lat="42.704304" lon="-7.066007">
        <ele>1251.209</ele>
        <time>2021-07-14T12:50:50Z</time>
      </trkpt>
      <trkpt lat="42.704330" lon="-7.065632">
        <ele>1252.219</ele>
        <time>2021-07-14T12:51:00Z</time>
      </trkpt>
      <trkpt lat="42.704409" lon="-7.065304">
        <ele>1254.108</ele>
        <time>2021-07-14T12:51:10Z</time>
      </trkpt>
      <trkpt lat="42.704468" lon="-7.065063">
        <ele>1254.648</ele>
        <time>2021-07-14T12:51:19Z</time>
      </trkpt>
      <trkpt lat="42.704514" lon="-7.064865">
        <ele>1255.190</ele>
        <time>2021-07-14T12:51:27Z</time>
      </trkpt>
      <trkpt lat="42.704595" lon="-7.064556">
        <ele>1257.017</ele>
        <time>2021-07-14T12:51:38Z</time>
      </trkpt>
      <trkpt lat="42.704661" lon="-7.064308">
        <ele>1258.597</ele>
        <time>2021-07-14T12:51:47Z</time>
      </trkpt>
      <trkpt lat="42.704723" lon="-7.064057">
        <ele>1259.481</ele>
        <time>2021-07-14T12:51:56Z</time>
      </trkpt>
      <trkpt lat="42.704794" lon="-7.063767">
        <ele>1259.419</ele>
        <time>2021-07-14T12:52:06Z</time>
      </trkpt>
      <trkpt lat="42.704852" lon="-7.063561">
        <ele>1260.926</ele>
        <time>2021-07-14T12:52:13Z</time>
      </trkpt>
      <trkpt lat="42.704912" lon="-7.063299">
        <ele>1260.934</ele>
        <time>2021-07-14T12:52:22Z</time>
      </trkpt>
      <trkpt lat="42.704979" lon="-7.063023">
        <ele>1260.949</ele>
        <time>2021-07-14T12:52:30Z</time>
      </trkpt>
      <trkpt lat="42.705060" lon="-7.062619">
        <ele>1260.902</ele>
        <time>2021-07-14T12:52:41Z</time>
      </trkpt>
      <trkpt lat="42.705063" lon="-7.062236">
        <ele>1260.422</ele>
        <time>2021-07-14T12:52:50Z</time>
      </trkpt>
      <trkpt lat="42.704974" lon="-7.061761">
        <ele>1260.408</ele>
        <time>2021-07-14T12:53:02Z</time>
      </trkpt>
      <trkpt lat="42.704827" lon="-7.061458">
        <ele>1259.961</ele>
        <time>2021-07-14T12:53:10Z</time>
      </trkpt>
      <trkpt lat="42.704604" lon="-7.061105">
        <ele>1259.463</ele>
        <time>2021-07-14T12:53:20Z</time>
      </trkpt>
      <trkpt lat="42.704412" lon="-7.060725">
        <ele>1259.450</ele>
        <time>2021-07-14T12:53:29Z</time>
      </trkpt>
      <trkpt lat="42.704232" lon="-7.060247">
        <ele>1257.030</ele>
        <time>2021-07-14T12:53:36Z</time>
      </trkpt>
      <trkpt lat="42.703993" lon="-7.059477">
        <ele>1253.764</ele>
        <time>2021-07-14T12:53:44Z</time>
      </trkpt>
      <trkpt lat="42.703682" lon="-7.058512">
        <ele>1250.852</ele>
        <time>2021-07-14T12:53:53Z</time>
      </trkpt>
      <trkpt lat="42.703445" lon="-7.057480">
        <ele>1248.849</ele>
        <time>2021-07-14T12:54:02Z</time>
      </trkpt>
      <trkpt lat="42.703442" lon="-7.056886">
        <ele>1249.857</ele>
        <time>2021-07-14T12:54:08Z</time>
      </trkpt>
      <trkpt lat="42.703473" lon="-7.056619">
        <ele>1250.856</ele>
        <time>2021-07-14T12:54:12Z</time>
      </trkpt>
      <trkpt lat="42.703511" lon="-7.056401">
        <ele>1251.759</ele>
        <time>2021-07-14T12:54:18Z</time>
      </trkpt>
      <trkpt lat="42.703580" lon="-7.056150">
        <ele>1253.214</ele>
        <time>2021-07-14T12:54:26Z</time>
      </trkpt>
      <trkpt lat="42.703667" lon="-7.055940">
        <ele>1253.708</ele>
        <time>2021-07-14T12:54:35Z</time>
      </trkpt>
      <trkpt lat="42.703787" lon="-7.055719">
        <ele>1254.682</ele>
        <time>2021-07-14T12:54:45Z</time>
      </trkpt>
      <trkpt lat="42.703960" lon="-7.055461">
        <ele>1256.144</ele>
        <time>2021-07-14T12:54:58Z</time>
      </trkpt>
      <trkpt lat="42.704099" lon="-7.055296">
        <ele>1257.531</ele>
        <time>2021-07-14T12:55:07Z</time>
      </trkpt>
      <trkpt lat="42.704225" lon="-7.055145">
        <ele>1258.581</ele>
        <time>2021-07-14T12:55:16Z</time>
      </trkpt>
      <trkpt lat="42.704377" lon="-7.054950">
        <ele>1259.425</ele>
        <time>2021-07-14T12:55:27Z</time>
      </trkpt>
      <trkpt lat="42.704539" lon="-7.054741">
        <ele>1260.413</ele>
        <time>2021-07-14T12:55:38Z</time>
      </trkpt>
      <trkpt lat="42.704674" lon="-7.054541">
        <ele>1261.350</ele>
        <time>2021-07-14T12:55:50Z</time>
      </trkpt>
      <trkpt lat="42.704681" lon="-7.054526">
        <ele>1261.378</ele>
        <time>2021-07-14T12:55:51Z</time>
      </trkpt>
      <trkpt lat="42.704690" lon="-7.054514">
        <ele>1261.373</ele>
        <time>2021-07-14T12:55:52Z</time>
      </trkpt>
      <trkpt lat="42.704700" lon="-7.054502">
        <ele>1261.385</ele>
        <time>2021-07-14T12:55:53Z</time>
      </trkpt>
      <trkpt lat="42.704804" lon="-7.054326">
        <ele>1262.313</ele>
        <time>2021-07-14T12:56:03Z</time>
      </trkpt>
      <trkpt lat="42.704941" lon="-7.054082">
        <ele>1262.808</ele>
        <time>2021-07-14T12:56:15Z</time>
      </trkpt>
      <trkpt lat="42.705048" lon="-7.053847">
        <ele>1263.764</ele>
        <time>2021-07-14T12:56:25Z</time>
      </trkpt>
      <trkpt lat="42.705135" lon="-7.053621">
        <ele>1264.756</ele>
        <time>2021-07-14T12:56:34Z</time>
      </trkpt>
      <trkpt lat="42.705216" lon="-7.053345">
        <ele>1266.193</ele>
        <time>2021-07-14T12:56:45Z</time>
      </trkpt>
      <trkpt lat="42.705267" lon="-7.053129">
        <ele>1268.193</ele>
        <time>2021-07-14T12:56:54Z</time>
      </trkpt>
      <trkpt lat="42.705325" lon="-7.052874">
        <ele>1270.077</ele>
        <time>2021-07-14T12:57:04Z</time>
      </trkpt>
      <trkpt lat="42.705386" lon="-7.052626">
        <ele>1271.485</ele>
        <time>2021-07-14T12:57:14Z</time>
      </trkpt>
      <trkpt lat="42.705451" lon="-7.052408">
        <ele>1272.412</ele>
        <time>2021-07-14T12:57:23Z</time>
      </trkpt>
      <trkpt lat="42.705527" lon="-7.052192">
        <ele>1273.470</ele>
        <time>2021-07-14T12:57:32Z</time>
      </trkpt>
      <trkpt lat="42.705647" lon="-7.051926">
        <ele>1273.889</ele>
        <time>2021-07-14T12:57:43Z</time>
      </trkpt>
      <trkpt lat="42.705804" lon="-7.051668">
        <ele>1274.806</ele>
        <time>2021-07-14T12:57:54Z</time>
      </trkpt>
      <trkpt lat="42.706002" lon="-7.051474">
        <ele>1275.826</ele>
        <time>2021-07-14T12:58:05Z</time>
      </trkpt>
      <trkpt lat="42.706202" lon="-7.051349">
        <ele>1276.208</ele>
        <time>2021-07-14T12:58:14Z</time>
      </trkpt>
      <trkpt lat="42.706392" lon="-7.051202">
        <ele>1277.255</ele>
        <time>2021-07-14T12:58:23Z</time>
      </trkpt>
      <trkpt lat="42.706607" lon="-7.050974">
        <ele>1277.787</ele>
        <time>2021-07-14T12:58:35Z</time>
      </trkpt>
      <trkpt lat="42.706769" lon="-7.050684">
        <ele>1278.214</ele>
        <time>2021-07-14T12:58:46Z</time>
      </trkpt>
      <trkpt lat="42.706894" lon="-7.050297">
        <ele>1278.664</ele>
        <time>2021-07-14T12:58:59Z</time>
      </trkpt>
      <trkpt lat="42.706962" lon="-7.049959">
        <ele>1279.178</ele>
        <time>2021-07-14T12:59:10Z</time>
      </trkpt>
      <trkpt lat="42.707014" lon="-7.049615">
        <ele>1280.176</ele>
        <time>2021-07-14T12:59:21Z</time>
      </trkpt>
      <trkpt lat="42.707100" lon="-7.049253">
        <ele>1281.083</ele>
        <time>2021-07-14T12:59:33Z</time>
      </trkpt>
      <trkpt lat="42.707220" lon="-7.048892">
        <ele>1282.061</ele>
        <time>2021-07-14T12:59:45Z</time>
      </trkpt>
      <trkpt lat="42.707324" lon="-7.048614">
        <ele>1282.563</ele>
        <time>2021-07-14T12:59:55Z</time>
      </trkpt>
      <trkpt lat="42.707444" lon="-7.048309">
        <ele>1283.044</ele>
        <time>2021-07-14T13:00:06Z</time>
      </trkpt>
      <trkpt lat="42.707522" lon="-7.048120">
        <ele>1283.518</ele>
        <time>2021-07-14T13:00:13Z</time>
      </trkpt>
      <trkpt lat="42.707628" lon="-7.047859">
        <ele>1284.908</ele>
        <time>2021-07-14T13:00:23Z</time>
      </trkpt>
      <trkpt lat="42.707736" lon="-7.047597">
        <ele>1286.323</ele>
        <time>2021-07-14T13:00:33Z</time>
      </trkpt>
      <trkpt lat="42.707840" lon="-7.047318">
        <ele>1287.395</ele>
        <time>2021-07-14T13:00:43Z</time>
      </trkpt>
      <trkpt lat="42.707895" lon="-7.047127">
        <ele>1287.842</ele>
        <time>2021-07-14T13:00:51Z</time>
      </trkpt>
      <trkpt lat="42.707963" lon="-7.046817">
        <ele>1289.282</ele>
        <time>2021-07-14T13:01:02Z</time>
      </trkpt>
      <trkpt lat="42.708000" lon="-7.046493">
        <ele>1290.266</ele>
        <time>2021-07-14T13:01:13Z</time>
      </trkpt>
      <trkpt lat="42.708023" lon="-7.046153">
        <ele>1292.144</ele>
        <time>2021-07-14T13:01:25Z</time>
      </trkpt>
      <trkpt lat="42.708017" lon="-7.045919">
        <ele>1293.161</ele>
        <time>2021-07-14T13:01:33Z</time>
      </trkpt>
      <trkpt lat="42.708011" lon="-7.045644">
        <ele>1293.529</ele>
        <time>2021-07-14T13:01:43Z</time>
      </trkpt>
      <trkpt lat="42.708008" lon="-7.045315">
        <ele>1294.068</ele>
        <time>2021-07-14T13:01:54Z</time>
      </trkpt>
      <trkpt lat="42.708020" lon="-7.045055">
        <ele>1293.142</ele>
        <time>2021-07-14T13:02:03Z</time>
      </trkpt>
      <trkpt lat="42.708049" lon="-7.044802">
        <ele>1294.026</ele>
        <time>2021-07-14T13:02:12Z</time>
      </trkpt>
      <trkpt lat="42.708117" lon="-7.044517">
        <ele>1295.008</ele>
        <time>2021-07-14T13:02:22Z</time>
      </trkpt>
      <trkpt lat="42.708176" lon="-7.044314">
        <ele>1295.943</ele>
        <time>2021-07-14T13:02:31Z</time>
      </trkpt>
      <trkpt lat="42.708233" lon="-7.044099">
        <ele>1296.415</ele>
        <time>2021-07-14T13:02:40Z</time>
      </trkpt>
      <trkpt lat="42.708237" lon="-7.044041">
        <ele>1295.952</ele>
        <time>2021-07-14T13:02:46Z</time>
      </trkpt>
      <trkpt lat="42.708252" lon="-7.044059">
        <ele>1295.912</ele>
        <time>2021-07-14T13:02:53Z</time>
      </trkpt>
      <trkpt lat="42.708213" lon="-7.044114">
        <ele>1295.996</ele>
        <time>2021-07-14T13:03:01Z</time>
      </trkpt>
      <trkpt lat="42.708204" lon="-7.044117">
        <ele>1295.534</ele>
        <time>2021-07-14T13:03:02Z</time>
      </trkpt>
      <trkpt lat="42.708157" lon="-7.044126">
        <ele>1295.551</ele>
        <time>2021-07-14T13:03:09Z</time>
      </trkpt>
      <trkpt lat="42.708086" lon="-7.044137">
        <ele>1295.979</ele>
        <time>2021-07-14T13:03:18Z</time>
      </trkpt>
      <trkpt lat="42.708011" lon="-7.044174">
        <ele>1298.826</ele>
        <time>2021-07-14T13:03:28Z</time>
      </trkpt>
      <trkpt lat="42.707901" lon="-7.044201">
        <ele>1300.347</ele>
        <time>2021-07-14T13:03:39Z</time>
      </trkpt>
      <trkpt lat="42.707816" lon="-7.044229">
        <ele>1300.811</ele>
        <time>2021-07-14T13:03:50Z</time>
      </trkpt>
      <trkpt lat="42.707805" lon="-7.044214">
        <ele>1300.808</ele>
        <time>2021-07-14T13:03:54Z</time>
      </trkpt>
      <trkpt lat="42.707813" lon="-7.044041">
        <ele>1301.759</ele>
        <time>2021-07-14T13:04:06Z</time>
      </trkpt>
      <trkpt lat="42.707831" lon="-7.043874">
        <ele>1302.261</ele>
        <time>2021-07-14T13:04:16Z</time>
      </trkpt>
      <trkpt lat="42.707850" lon="-7.043743">
        <ele>1302.268</ele>
        <time>2021-07-14T13:04:25Z</time>
      </trkpt>
      <trkpt lat="42.707874" lon="-7.043681">
        <ele>1303.278</ele>
        <time>2021-07-14T13:04:30Z</time>
      </trkpt>
      <trkpt lat="42.707877" lon="-7.043626">
        <ele>1304.632</ele>
        <time>2021-07-14T13:04:38Z</time>
      </trkpt>
      <trkpt lat="42.707879" lon="-7.043605">
        <ele>1304.110</ele>
        <time>2021-07-14T13:04:57Z</time>
      </trkpt>
      <trkpt lat="42.707877" lon="-7.043608">
        <ele>1304.677</ele>
        <time>2021-07-14T13:05:16Z</time>
      </trkpt>
      <trkpt lat="42.707875" lon="-7.043611">
        <ele>1305.695</ele>
        <time>2021-07-14T13:05:34Z</time>
      </trkpt>
      <trkpt lat="42.707878" lon="-7.043612">
        <ele>1306.016</ele>
        <time>2021-07-14T13:05:51Z</time>
      </trkpt>
      <trkpt lat="42.707886" lon="-7.043601">
        <ele>1306.576</ele>
        <time>2021-07-14T13:06:10Z</time>
      </trkpt>
      <trkpt lat="42.707898" lon="-7.043594">
        <ele>1307.013</ele>
        <time>2021-07-14T13:06:25Z</time>
      </trkpt>
      <trkpt lat="42.707900" lon="-7.043601">
        <ele>1307.008</ele>
        <time>2021-07-14T13:06:45Z</time>
      </trkpt>
      <trkpt lat="42.707895" lon="-7.043597">
        <ele>1306.028</ele>
        <time>2021-07-14T13:06:57Z</time>
      </trkpt>
      <trkpt lat="42.707903" lon="-7.043585">
        <ele>1306.010</ele>
        <time>2021-07-14T13:07:12Z</time>
      </trkpt>
      <trkpt lat="42.707909" lon="-7.043595">
        <ele>1306.077</ele>
        <time>2021-07-14T13:07:29Z</time>
      </trkpt>
      <trkpt lat="42.707904" lon="-7.043597">
        <ele>1307.587</ele>
        <time>2021-07-14T13:07:37Z</time>
      </trkpt>
      <trkpt lat="42.707900" lon="-7.043601">
        <ele>1308.991</ele>
        <time>2021-07-14T13:07:52Z</time>
      </trkpt>
      <trkpt lat="42.707893" lon="-7.043590">
        <ele>1308.959</ele>
        <time>2021-07-14T13:08:02Z</time>
      </trkpt>
      <trkpt lat="42.707904" lon="-7.043641">
        <ele>1308.036</ele>
        <time>2021-07-14T13:08:09Z</time>
      </trkpt>
      <trkpt lat="42.707903" lon="-7.043640">
        <ele>1307.564</ele>
        <time>2021-07-14T13:08:22Z</time>
      </trkpt>
      <trkpt lat="42.707891" lon="-7.043673">
        <ele>1307.014</ele>
        <time>2021-07-14T13:08:33Z</time>
      </trkpt>
      <trkpt lat="42.707870" lon="-7.043710">
        <ele>1306.054</ele>
        <time>2021-07-14T13:08:39Z</time>
      </trkpt>
      <trkpt lat="42.707858" lon="-7.043693">
        <ele>1306.009</ele>
        <time>2021-07-14T13:08:52Z</time>
      </trkpt>
      <trkpt lat="42.707848" lon="-7.043694">
        <ele>1305.608</ele>
        <time>2021-07-14T13:08:53Z</time>
      </trkpt>
      <trkpt lat="42.707727" lon="-7.043626">
        <ele>1306.028</ele>
        <time>2021-07-14T13:09:03Z</time>
      </trkpt>
      <trkpt lat="42.707638" lon="-7.043506">
        <ele>1305.120</ele>
        <time>2021-07-14T13:09:12Z</time>
      </trkpt>
      <trkpt lat="42.707527" lon="-7.043380">
        <ele>1304.687</ele>
        <time>2021-07-14T13:09:20Z</time>
      </trkpt>
      <trkpt lat="42.707522" lon="-7.043368">
        <ele>1305.197</ele>
        <time>2021-07-14T13:09:25Z</time>
      </trkpt>
      <trkpt lat="42.707506" lon="-7.043365">
        <ele>1304.641</ele>
        <time>2021-07-14T13:09:36Z</time>
      </trkpt>
      <trkpt lat="42.707498" lon="-7.043368">
        <ele>1305.199</ele>
        <time>2021-07-14T13:09:56Z</time>
      </trkpt>
      <trkpt lat="42.707497" lon="-7.043372">
        <ele>1306.036</ele>
        <time>2021-07-14T13:10:12Z</time>
      </trkpt>
      <trkpt lat="42.707450" lon="-7.043300">
        <ele>1305.674</ele>
        <time>2021-07-14T13:10:17Z</time>
      </trkpt>
      <trkpt lat="42.707446" lon="-7.043128">
        <ele>1305.666</ele>
        <time>2021-07-14T13:10:25Z</time>
      </trkpt>
      <trkpt lat="42.707477" lon="-7.042967">
        <ele>1306.029</ele>
        <time>2021-07-14T13:10:34Z</time>
      </trkpt>
      <trkpt lat="42.707532" lon="-7.042804">
        <ele>1305.121</ele>
        <time>2021-07-14T13:10:45Z</time>
      </trkpt>
      <trkpt lat="42.707594" lon="-7.042608">
        <ele>1307.008</ele>
        <time>2021-07-14T13:10:58Z</time>
      </trkpt>
      <trkpt lat="42.707657" lon="-7.042513">
        <ele>1307.033</ele>
        <time>2021-07-14T13:11:07Z</time>
      </trkpt>
      <trkpt lat="42.707729" lon="-7.042429">
        <ele>1306.525</ele>
        <time>2021-07-14T13:11:16Z</time>
      </trkpt>
      <trkpt lat="42.707824" lon="-7.042356">
        <ele>1308.432</ele>
        <time>2021-07-14T13:11:25Z</time>
      </trkpt>
      <trkpt lat="42.707855" lon="-7.042330">
        <ele>1308.912</ele>
        <time>2021-07-14T13:11:28Z</time>
      </trkpt>
      <trkpt lat="42.707867" lon="-7.042326">
        <ele>1309.426</ele>
        <time>2021-07-14T13:11:29Z</time>
      </trkpt>
      <trkpt lat="42.707879" lon="-7.042326">
        <ele>1309.444</ele>
        <time>2021-07-14T13:11:30Z</time>
      </trkpt>
      <trkpt lat="42.707893" lon="-7.042329">
        <ele>1309.421</ele>
        <time>2021-07-14T13:11:31Z</time>
      </trkpt>
      <trkpt lat="42.707906" lon="-7.042332">
        <ele>1309.969</ele>
        <time>2021-07-14T13:11:32Z</time>
      </trkpt>
      <trkpt lat="42.707922" lon="-7.042331">
        <ele>1309.961</ele>
        <time>2021-07-14T13:11:33Z</time>
      </trkpt>
      <trkpt lat="42.707937" lon="-7.042329">
        <ele>1309.921</ele>
        <time>2021-07-14T13:11:34Z</time>
      </trkpt>
      <trkpt lat="42.707953" lon="-7.042329">
        <ele>1310.413</ele>
        <time>2021-07-14T13:11:35Z</time>
      </trkpt>
      <trkpt lat="42.707968" lon="-7.042330">
        <ele>1310.408</ele>
        <time>2021-07-14T13:11:36Z</time>
      </trkpt>
      <trkpt lat="42.708099" lon="-7.042365">
        <ele>1311.813</ele>
        <time>2021-07-14T13:11:44Z</time>
      </trkpt>
      <trkpt lat="42.708109" lon="-7.042411">
        <ele>1312.315</ele>
        <time>2021-07-14T13:11:49Z</time>
      </trkpt>
      <trkpt lat="42.708107" lon="-7.042429">
        <ele>1313.352</ele>
        <time>2021-07-14T13:11:58Z</time>
      </trkpt>
      <trkpt lat="42.708123" lon="-7.042421">
        <ele>1313.742</ele>
        <time>2021-07-14T13:12:10Z</time>
      </trkpt>
      <trkpt lat="42.708133" lon="-7.042426">
        <ele>1313.736</ele>
        <time>2021-07-14T13:12:21Z</time>
      </trkpt>
      <trkpt lat="42.708145" lon="-7.042426">
        <ele>1313.384</ele>
        <time>2021-07-14T13:12:26Z</time>
      </trkpt>
      <trkpt lat="42.708213" lon="-7.042396">
        <ele>1313.771</ele>
        <time>2021-07-14T13:12:33Z</time>
      </trkpt>
      <trkpt lat="42.708336" lon="-7.042303">
        <ele>1312.899</ele>
        <time>2021-07-14T13:12:42Z</time>
      </trkpt>
      <trkpt lat="42.708461" lon="-7.042180">
        <ele>1310.973</ele>
        <time>2021-07-14T13:12:51Z</time>
      </trkpt>
      <trkpt lat="42.708592" lon="-7.042093">
        <ele>1311.385</ele>
        <time>2021-07-14T13:12:58Z</time>
      </trkpt>
      <trkpt lat="42.708775" lon="-7.041905">
        <ele>1309.413</ele>
        <time>2021-07-14T13:13:07Z</time>
      </trkpt>
      <trkpt lat="42.709010" lon="-7.041594">
        <ele>1308.008</ele>
        <time>2021-07-14T13:13:18Z</time>
      </trkpt>
      <trkpt lat="42.709185" lon="-7.041323">
        <ele>1306.574</ele>
        <time>2021-07-14T13:13:25Z</time>
      </trkpt>
      <trkpt lat="42.709228" lon="-7.041232">
        <ele>1306.526</ele>
        <time>2021-07-14T13:13:27Z</time>
      </trkpt>
      <trkpt lat="42.709334" lon="-7.040944">
        <ele>1305.653</ele>
        <time>2021-07-14T13:13:34Z</time>
      </trkpt>
      <trkpt lat="42.709386" lon="-7.040773">
        <ele>1305.173</ele>
        <time>2021-07-14T13:13:42Z</time>
      </trkpt>
      <trkpt lat="42.709385" lon="-7.040790">
        <ele>1305.127</ele>
        <time>2021-07-14T13:13:58Z</time>
      </trkpt>
      <trkpt lat="42.709384" lon="-7.040789">
        <ele>1305.625</ele>
        <time>2021-07-14T13:14:13Z</time>
      </trkpt>
      <trkpt lat="42.709384" lon="-7.040804">
        <ele>1304.122</ele>
        <time>2021-07-14T13:14:32Z</time>
      </trkpt>
      <trkpt lat="42.709374" lon="-7.040807">
        <ele>1304.640</ele>
        <time>2021-07-14T13:14:50Z</time>
      </trkpt>
      <trkpt lat="42.709380" lon="-7.040805">
        <ele>1304.164</ele>
        <time>2021-07-14T13:15:07Z</time>
      </trkpt>
      <trkpt lat="42.709393" lon="-7.040806">
        <ele>1305.106</ele>
        <time>2021-07-14T13:15:25Z</time>
      </trkpt>
      <trkpt lat="42.709392" lon="-7.040814">
        <ele>1304.616</ele>
        <time>2021-07-14T13:15:39Z</time>
      </trkpt>
      <trkpt lat="42.709391" lon="-7.040812">
        <ele>1304.608</ele>
        <time>2021-07-14T13:15:52Z</time>
      </trkpt>
      <trkpt lat="42.709386" lon="-7.040802">
        <ele>1305.643</ele>
        <time>2021-07-14T13:16:06Z</time>
      </trkpt>
      <trkpt lat="42.709392" lon="-7.040777">
        <ele>1305.635</ele>
        <time>2021-07-14T13:16:15Z</time>
      </trkpt>
      <trkpt lat="42.709407" lon="-7.040758">
        <ele>1305.662</ele>
        <time>2021-07-14T13:16:17Z</time>
      </trkpt>
      <trkpt lat="42.709411" lon="-7.040746">
        <ele>1305.682</ele>
        <time>2021-07-14T13:16:18Z</time>
      </trkpt>
      <trkpt lat="42.709414" lon="-7.040728">
        <ele>1305.126</ele>
        <time>2021-07-14T13:16:19Z</time>
      </trkpt>
      <trkpt lat="42.709440" lon="-7.040535">
        <ele>1304.124</ele>
        <time>2021-07-14T13:16:26Z</time>
      </trkpt>
      <trkpt lat="42.709442" lon="-7.040178">
        <ele>1302.771</ele>
        <time>2021-07-14T13:16:34Z</time>
      </trkpt>
      <trkpt lat="42.709434" lon="-7.040063">
        <ele>1302.799</ele>
        <time>2021-07-14T13:16:36Z</time>
      </trkpt>
      <trkpt lat="42.709450" lon="-7.039622">
        <ele>1302.263</ele>
        <time>2021-07-14T13:16:43Z</time>
      </trkpt>
      <trkpt lat="42.709551" lon="-7.039086">
        <ele>1300.844</ele>
        <time>2021-07-14T13:16:50Z</time>
      </trkpt>
      <trkpt lat="42.709690" lon="-7.038412">
        <ele>1297.918</ele>
        <time>2021-07-14T13:16:57Z</time>
      </trkpt>
      <trkpt lat="42.709892" lon="-7.037568">
        <ele>1293.508</ele>
        <time>2021-07-14T13:17:04Z</time>
      </trkpt>
      <trkpt lat="42.710316" lon="-7.036251">
        <ele>1287.333</ele>
        <time>2021-07-14T13:17:14Z</time>
      </trkpt>
      <trkpt lat="42.710672" lon="-7.035353">
        <ele>1283.095</ele>
        <time>2021-07-14T13:17:21Z</time>
      </trkpt>
      <trkpt lat="42.710962" lon="-7.034674">
        <ele>1279.682</ele>
        <time>2021-07-14T13:17:27Z</time>
      </trkpt>
      <trkpt lat="42.710994" lon="-7.034547">
        <ele>1279.182</ele>
        <time>2021-07-14T13:17:28Z</time>
      </trkpt>
      <trkpt lat="42.711021" lon="-7.034408">
        <ele>1278.256</ele>
        <time>2021-07-14T13:17:29Z</time>
      </trkpt>
      <trkpt lat="42.711040" lon="-7.034274">
        <ele>1277.784</ele>
        <time>2021-07-14T13:17:30Z</time>
      </trkpt>
      <trkpt lat="42.711056" lon="-7.034137">
        <ele>1276.731</ele>
        <time>2021-07-14T13:17:31Z</time>
      </trkpt>
      <trkpt lat="42.711121" lon="-7.033730">
        <ele>1275.879</ele>
        <time>2021-07-14T13:17:34Z</time>
      </trkpt>
      <trkpt lat="42.711160" lon="-7.033610">
        <ele>1275.817</ele>
        <time>2021-07-14T13:17:35Z</time>
      </trkpt>
      <trkpt lat="42.711207" lon="-7.033499">
        <ele>1275.387</ele>
        <time>2021-07-14T13:17:36Z</time>
      </trkpt>
      <trkpt lat="42.711266" lon="-7.033393">
        <ele>1275.315</ele>
        <time>2021-07-14T13:17:37Z</time>
      </trkpt>
      <trkpt lat="42.711332" lon="-7.033310">
        <ele>1275.308</ele>
        <time>2021-07-14T13:17:38Z</time>
      </trkpt>
      <trkpt lat="42.711401" lon="-7.033243">
        <ele>1275.368</ele>
        <time>2021-07-14T13:17:39Z</time>
      </trkpt>
      <trkpt lat="42.711477" lon="-7.033189">
        <ele>1275.340</ele>
        <time>2021-07-14T13:17:40Z</time>
      </trkpt>
      <trkpt lat="42.711550" lon="-7.033152">
        <ele>1275.317</ele>
        <time>2021-07-14T13:17:41Z</time>
      </trkpt>
      <trkpt lat="42.711626" lon="-7.033128">
        <ele>1275.387</ele>
        <time>2021-07-14T13:17:42Z</time>
      </trkpt>
      <trkpt lat="42.711696" lon="-7.033116">
        <ele>1274.841</ele>
        <time>2021-07-14T13:17:43Z</time>
      </trkpt>
      <trkpt lat="42.711765" lon="-7.033108">
        <ele>1274.829</ele>
        <time>2021-07-14T13:17:44Z</time>
      </trkpt>
      <trkpt lat="42.712259" lon="-7.033061">
        <ele>1274.876</ele>
        <time>2021-07-14T13:17:52Z</time>
      </trkpt>
      <trkpt lat="42.712824" lon="-7.032968">
        <ele>1275.314</ele>
        <time>2021-07-14T13:18:03Z</time>
      </trkpt>
      <trkpt lat="42.713018" lon="-7.032873">
        <ele>1275.811</ele>
        <time>2021-07-14T13:18:09Z</time>
      </trkpt>
      <trkpt lat="42.713196" lon="-7.032754">
        <ele>1275.321</ele>
        <time>2021-07-14T13:18:17Z</time>
      </trkpt>
      <trkpt lat="42.713356" lon="-7.032611">
        <ele>1275.303</ele>
        <time>2021-07-14T13:18:24Z</time>
      </trkpt>
      <trkpt lat="42.713584" lon="-7.032262">
        <ele>1276.708</ele>
        <time>2021-07-14T13:18:34Z</time>
      </trkpt>
      <trkpt lat="42.713709" lon="-7.031791">
        <ele>1277.258</ele>
        <time>2021-07-14T13:18:44Z</time>
      </trkpt>
      <trkpt lat="42.713859" lon="-7.031186">
        <ele>1277.770</ele>
        <time>2021-07-14T13:18:56Z</time>
      </trkpt>
      <trkpt lat="42.713968" lon="-7.030889">
        <ele>1279.177</ele>
        <time>2021-07-14T13:19:04Z</time>
      </trkpt>
      <trkpt lat="42.714108" lon="-7.030599">
        <ele>1281.097</ele>
        <time>2021-07-14T13:19:14Z</time>
      </trkpt>
      <trkpt lat="42.714227" lon="-7.030458">
        <ele>1281.591</ele>
        <time>2021-07-14T13:19:21Z</time>
      </trkpt>
      <trkpt lat="42.714459" lon="-7.030392">
        <ele>1283.039</ele>
        <time>2021-07-14T13:19:30Z</time>
      </trkpt>
      <trkpt lat="42.714740" lon="-7.030394">
        <ele>1284.476</ele>
        <time>2021-07-14T13:19:40Z</time>
      </trkpt>
      <trkpt lat="42.715028" lon="-7.030489">
        <ele>1284.414</ele>
        <time>2021-07-14T13:19:49Z</time>
      </trkpt>
      <trkpt lat="42.715352" lon="-7.030747">
        <ele>1282.581</ele>
        <time>2021-07-14T13:19:59Z</time>
      </trkpt>
      <trkpt lat="42.715724" lon="-7.031068">
        <ele>1281.561</ele>
        <time>2021-07-14T13:20:09Z</time>
      </trkpt>
      <trkpt lat="42.715839" lon="-7.031172">
        <ele>1281.017</ele>
        <time>2021-07-14T13:20:12Z</time>
      </trkpt>
      <trkpt lat="42.715970" lon="-7.031269">
        <ele>1280.608</ele>
        <time>2021-07-14T13:20:15Z</time>
      </trkpt>
      <trkpt lat="42.716019" lon="-7.031301">
        <ele>1280.185</ele>
        <time>2021-07-14T13:20:16Z</time>
      </trkpt>
      <trkpt lat="42.716063" lon="-7.031337">
        <ele>1279.647</ele>
        <time>2021-07-14T13:20:17Z</time>
      </trkpt>
      <trkpt lat="42.716106" lon="-7.031376">
        <ele>1279.144</ele>
        <time>2021-07-14T13:20:18Z</time>
      </trkpt>
      <trkpt lat="42.716153" lon="-7.031413">
        <ele>1278.684</ele>
        <time>2021-07-14T13:20:19Z</time>
      </trkpt>
      <trkpt lat="42.716542" lon="-7.031667">
        <ele>1276.758</ele>
        <time>2021-07-14T13:20:26Z</time>
      </trkpt>
      <trkpt lat="42.717022" lon="-7.031845">
        <ele>1274.866</ele>
        <time>2021-07-14T13:20:33Z</time>
      </trkpt>
      <trkpt lat="42.717417" lon="-7.031972">
        <ele>1272.483</ele>
        <time>2021-07-14T13:20:38Z</time>
      </trkpt>
      <trkpt lat="42.717498" lon="-7.032021">
        <ele>1271.971</ele>
        <time>2021-07-14T13:20:39Z</time>
      </trkpt>
      <trkpt lat="42.717575" lon="-7.032079">
        <ele>1271.432</ele>
        <time>2021-07-14T13:20:40Z</time>
      </trkpt>
      <trkpt lat="42.717648" lon="-7.032147">
        <ele>1270.592</ele>
        <time>2021-07-14T13:20:41Z</time>
      </trkpt>
      <trkpt lat="42.717719" lon="-7.032227">
        <ele>1270.011</ele>
        <time>2021-07-14T13:20:42Z</time>
      </trkpt>
      <trkpt lat="42.717787" lon="-7.032324">
        <ele>1269.008</ele>
        <time>2021-07-14T13:20:43Z</time>
      </trkpt>
      <trkpt lat="42.717848" lon="-7.032425">
        <ele>1268.140</ele>
        <time>2021-07-14T13:20:44Z</time>
      </trkpt>
      <trkpt lat="42.717905" lon="-7.032534">
        <ele>1267.622</ele>
        <time>2021-07-14T13:20:45Z</time>
      </trkpt>
      <trkpt lat="42.717959" lon="-7.032663">
        <ele>1266.669</ele>
        <time>2021-07-14T13:20:46Z</time>
      </trkpt>
      <trkpt lat="42.718004" lon="-7.032794">
        <ele>1265.739</ele>
        <time>2021-07-14T13:20:47Z</time>
      </trkpt>
      <trkpt lat="42.718047" lon="-7.032937">
        <ele>1265.253</ele>
        <time>2021-07-14T13:20:48Z</time>
      </trkpt>
      <trkpt lat="42.718241" lon="-7.033824">
        <ele>1258.591</ele>
        <time>2021-07-14T13:20:54Z</time>
      </trkpt>
      <trkpt lat="42.718468" lon="-7.034659">
        <ele>1252.728</ele>
        <time>2021-07-14T13:21:00Z</time>
      </trkpt>
      <trkpt lat="42.718854" lon="-7.035396">
        <ele>1247.976</ele>
        <time>2021-07-14T13:21:06Z</time>
      </trkpt>
      <trkpt lat="42.719348" lon="-7.035986">
        <ele>1242.649</ele>
        <time>2021-07-14T13:21:12Z</time>
      </trkpt>
      <trkpt lat="42.719920" lon="-7.036370">
        <ele>1237.302</ele>
        <time>2021-07-14T13:21:18Z</time>
      </trkpt>
      <trkpt lat="42.720524" lon="-7.036592">
        <ele>1232.022</ele>
        <time>2021-07-14T13:21:24Z</time>
      </trkpt>
      <trkpt lat="42.721422" lon="-7.036832">
        <ele>1223.408</ele>
        <time>2021-07-14T13:21:32Z</time>
      </trkpt>
      <trkpt lat="42.721962" lon="-7.036877">
        <ele>1218.681</ele>
        <time>2021-07-14T13:21:37Z</time>
      </trkpt>
      <trkpt lat="42.722065" lon="-7.036847">
        <ele>1217.663</ele>
        <time>2021-07-14T13:21:38Z</time>
      </trkpt>
      <trkpt lat="42.722173" lon="-7.036791">
        <ele>1216.630</ele>
        <time>2021-07-14T13:21:39Z</time>
      </trkpt>
      <trkpt lat="42.722255" lon="-7.036736">
        <ele>1215.720</ele>
        <time>2021-07-14T13:21:40Z</time>
      </trkpt>
      <trkpt lat="42.722348" lon="-7.036661">
        <ele>1215.264</ele>
        <time>2021-07-14T13:21:41Z</time>
      </trkpt>
      <trkpt lat="42.722433" lon="-7.036578">
        <ele>1214.272</ele>
        <time>2021-07-14T13:21:42Z</time>
      </trkpt>
      <trkpt lat="42.722514" lon="-7.036486">
        <ele>1213.359</ele>
        <time>2021-07-14T13:21:43Z</time>
      </trkpt>
      <trkpt lat="42.722594" lon="-7.036376">
        <ele>1212.827</ele>
        <time>2021-07-14T13:21:44Z</time>
      </trkpt>
      <trkpt lat="42.722659" lon="-7.036270">
        <ele>1211.893</ele>
        <time>2021-07-14T13:21:45Z</time>
      </trkpt>
      <trkpt lat="42.722722" lon="-7.036155">
        <ele>1210.965</ele>
        <time>2021-07-14T13:21:46Z</time>
      </trkpt>
      <trkpt lat="42.723284" lon="-7.035098">
        <ele>1204.621</ele>
        <time>2021-07-14T13:21:55Z</time>
      </trkpt>
      <trkpt lat="42.723381" lon="-7.034840">
        <ele>1203.208</ele>
        <time>2021-07-14T13:21:57Z</time>
      </trkpt>
      <trkpt lat="42.723412" lon="-7.034690">
        <ele>1202.246</ele>
        <time>2021-07-14T13:21:58Z</time>
      </trkpt>
      <trkpt lat="42.723425" lon="-7.034545">
        <ele>1201.318</ele>
        <time>2021-07-14T13:21:59Z</time>
      </trkpt>
      <trkpt lat="42.723428" lon="-7.034391">
        <ele>1200.855</ele>
        <time>2021-07-14T13:22:00Z</time>
      </trkpt>
      <trkpt lat="42.723423" lon="-7.034226">
        <ele>1199.865</ele>
        <time>2021-07-14T13:22:01Z</time>
      </trkpt>
      <trkpt lat="42.723411" lon="-7.034071">
        <ele>1198.999</ele>
        <time>2021-07-14T13:22:02Z</time>
      </trkpt>
      <trkpt lat="42.723386" lon="-7.033906">
        <ele>1197.497</ele>
        <time>2021-07-14T13:22:03Z</time>
      </trkpt>
      <trkpt lat="42.723352" lon="-7.033760">
        <ele>1196.564</ele>
        <time>2021-07-14T13:22:04Z</time>
      </trkpt>
      <trkpt lat="42.723305" lon="-7.033607">
        <ele>1195.032</ele>
        <time>2021-07-14T13:22:05Z</time>
      </trkpt>
      <trkpt lat="42.723247" lon="-7.033464">
        <ele>1193.643</ele>
        <time>2021-07-14T13:22:06Z</time>
      </trkpt>
      <trkpt lat="42.723176" lon="-7.033337">
        <ele>1192.164</ele>
        <time>2021-07-14T13:22:07Z</time>
      </trkpt>
      <trkpt lat="42.723094" lon="-7.033222">
        <ele>1191.210</ele>
        <time>2021-07-14T13:22:08Z</time>
      </trkpt>
      <trkpt lat="42.723008" lon="-7.033114">
        <ele>1190.208</ele>
        <time>2021-07-14T13:22:09Z</time>
      </trkpt>
      <trkpt lat="42.722929" lon="-7.033009">
        <ele>1189.241</ele>
        <time>2021-07-14T13:22:10Z</time>
      </trkpt>
      <trkpt lat="42.722865" lon="-7.032898">
        <ele>1188.383</ele>
        <time>2021-07-14T13:22:11Z</time>
      </trkpt>
      <trkpt lat="42.722819" lon="-7.032769">
        <ele>1187.390</ele>
        <time>2021-07-14T13:22:12Z</time>
      </trkpt>
      <trkpt lat="42.722793" lon="-7.032638">
        <ele>1186.490</ele>
        <time>2021-07-14T13:22:13Z</time>
      </trkpt>
      <trkpt lat="42.722775" lon="-7.032492">
        <ele>1185.454</ele>
        <time>2021-07-14T13:22:14Z</time>
      </trkpt>
      <trkpt lat="42.722758" lon="-7.032340">
        <ele>1184.422</ele>
        <time>2021-07-14T13:22:15Z</time>
      </trkpt>
      <trkpt lat="42.722718" lon="-7.032040">
        <ele>1182.589</ele>
        <time>2021-07-14T13:22:17Z</time>
      </trkpt>
      <trkpt lat="42.722672" lon="-7.031897">
        <ele>1181.637</ele>
        <time>2021-07-14T13:22:18Z</time>
      </trkpt>
      <trkpt lat="42.722615" lon="-7.031782">
        <ele>1181.159</ele>
        <time>2021-07-14T13:22:19Z</time>
      </trkpt>
      <trkpt lat="42.722543" lon="-7.031676">
        <ele>1180.103</ele>
        <time>2021-07-14T13:22:20Z</time>
      </trkpt>
      <trkpt lat="42.722460" lon="-7.031576">
        <ele>1179.623</ele>
        <time>2021-07-14T13:22:21Z</time>
      </trkpt>
      <trkpt lat="42.721829" lon="-7.030829">
        <ele>1175.808</ele>
        <time>2021-07-14T13:22:29Z</time>
      </trkpt>
      <trkpt lat="42.721765" lon="-7.030722">
        <ele>1175.352</ele>
        <time>2021-07-14T13:22:30Z</time>
      </trkpt>
      <trkpt lat="42.721712" lon="-7.030605">
        <ele>1174.894</ele>
        <time>2021-07-14T13:22:31Z</time>
      </trkpt>
      <trkpt lat="42.721673" lon="-7.030481">
        <ele>1174.311</ele>
        <time>2021-07-14T13:22:32Z</time>
      </trkpt>
      <trkpt lat="42.721649" lon="-7.030354">
        <ele>1174.351</ele>
        <time>2021-07-14T13:22:33Z</time>
      </trkpt>
      <trkpt lat="42.721644" lon="-7.030226">
        <ele>1173.965</ele>
        <time>2021-07-14T13:22:34Z</time>
      </trkpt>
      <trkpt lat="42.721655" lon="-7.030099">
        <ele>1173.413</ele>
        <time>2021-07-14T13:22:35Z</time>
      </trkpt>
      <trkpt lat="42.721681" lon="-7.029972">
        <ele>1172.930</ele>
        <time>2021-07-14T13:22:36Z</time>
      </trkpt>
      <trkpt lat="42.721720" lon="-7.029843">
        <ele>1172.488</ele>
        <time>2021-07-14T13:22:37Z</time>
      </trkpt>
      <trkpt lat="42.721783" lon="-7.029693">
        <ele>1171.535</ele>
        <time>2021-07-14T13:22:38Z</time>
      </trkpt>
      <trkpt lat="42.721838" lon="-7.029601">
        <ele>1171.086</ele>
        <time>2021-07-14T13:22:39Z</time>
      </trkpt>
      <trkpt lat="42.721925" lon="-7.029500">
        <ele>1170.514</ele>
        <time>2021-07-14T13:22:40Z</time>
      </trkpt>
      <trkpt lat="42.722018" lon="-7.029435">
        <ele>1169.508</ele>
        <time>2021-07-14T13:22:41Z</time>
      </trkpt>
      <trkpt lat="42.722115" lon="-7.029392">
        <ele>1169.130</ele>
        <time>2021-07-14T13:22:42Z</time>
      </trkpt>
      <trkpt lat="42.722225" lon="-7.029367">
        <ele>1168.182</ele>
        <time>2021-07-14T13:22:43Z</time>
      </trkpt>
      <trkpt lat="42.722340" lon="-7.029363">
        <ele>1167.699</ele>
        <time>2021-07-14T13:22:44Z</time>
      </trkpt>
      <trkpt lat="42.722461" lon="-7.029374">
        <ele>1166.719</ele>
        <time>2021-07-14T13:22:45Z</time>
      </trkpt>
      <trkpt lat="42.723200" lon="-7.029474">
        <ele>1160.963</ele>
        <time>2021-07-14T13:22:51Z</time>
      </trkpt>
      <trkpt lat="42.723318" lon="-7.029449">
        <ele>1159.921</ele>
        <time>2021-07-14T13:22:52Z</time>
      </trkpt>
      <trkpt lat="42.723421" lon="-7.029403">
        <ele>1159.038</ele>
        <time>2021-07-14T13:22:53Z</time>
      </trkpt>
      <trkpt lat="42.723517" lon="-7.029331">
        <ele>1158.086</ele>
        <time>2021-07-14T13:22:54Z</time>
      </trkpt>
      <trkpt lat="42.723602" lon="-7.029236">
        <ele>1157.068</ele>
        <time>2021-07-14T13:22:55Z</time>
      </trkpt>
      <trkpt lat="42.723673" lon="-7.029125">
        <ele>1155.642</ele>
        <time>2021-07-14T13:22:56Z</time>
      </trkpt>
      <trkpt lat="42.723740" lon="-7.028995">
        <ele>1154.626</ele>
        <time>2021-07-14T13:22:57Z</time>
      </trkpt>
      <trkpt lat="42.723791" lon="-7.028860">
        <ele>1153.708</ele>
        <time>2021-07-14T13:22:58Z</time>
      </trkpt>
      <trkpt lat="42.723827" lon="-7.028716">
        <ele>1152.763</ele>
        <time>2021-07-14T13:22:59Z</time>
      </trkpt>
      <trkpt lat="42.723844" lon="-7.028565">
        <ele>1151.835</ele>
        <time>2021-07-14T13:23:00Z</time>
      </trkpt>
      <trkpt lat="42.723845" lon="-7.028420">
        <ele>1150.832</ele>
        <time>2021-07-14T13:23:01Z</time>
      </trkpt>
      <trkpt lat="42.723833" lon="-7.028258">
        <ele>1150.322</ele>
        <time>2021-07-14T13:23:02Z</time>
      </trkpt>
      <trkpt lat="42.723817" lon="-7.028119">
        <ele>1149.386</ele>
        <time>2021-07-14T13:23:03Z</time>
      </trkpt>
      <trkpt lat="42.723803" lon="-7.027975">
        <ele>1148.914</ele>
        <time>2021-07-14T13:23:04Z</time>
      </trkpt>
      <trkpt lat="42.723804" lon="-7.027827">
        <ele>1147.971</ele>
        <time>2021-07-14T13:23:05Z</time>
      </trkpt>
      <trkpt lat="42.723815" lon="-7.027686">
        <ele>1147.439</ele>
        <time>2021-07-14T13:23:06Z</time>
      </trkpt>
      <trkpt lat="42.723835" lon="-7.027546">
        <ele>1146.974</ele>
        <time>2021-07-14T13:23:07Z</time>
      </trkpt>
      <trkpt lat="42.723863" lon="-7.027399">
        <ele>1146.056</ele>
        <time>2021-07-14T13:23:08Z</time>
      </trkpt>
      <trkpt lat="42.723894" lon="-7.027260">
        <ele>1145.521</ele>
        <time>2021-07-14T13:23:09Z</time>
      </trkpt>
      <trkpt lat="42.724160" lon="-7.026276">
        <ele>1142.608</ele>
        <time>2021-07-14T13:23:16Z</time>
      </trkpt>
      <trkpt lat="42.724487" lon="-7.025480">
        <ele>1138.834</ele>
        <time>2021-07-14T13:23:22Z</time>
      </trkpt>
      <trkpt lat="42.724523" lon="-7.025352">
        <ele>1138.326</ele>
        <time>2021-07-14T13:23:23Z</time>
      </trkpt>
      <trkpt lat="42.724547" lon="-7.025215">
        <ele>1137.363</ele>
        <time>2021-07-14T13:23:24Z</time>
      </trkpt>
      <trkpt lat="42.724555" lon="-7.025078">
        <ele>1136.973</ele>
        <time>2021-07-14T13:23:25Z</time>
      </trkpt>
      <trkpt lat="42.724547" lon="-7.024940">
        <ele>1135.977</ele>
        <time>2021-07-14T13:23:26Z</time>
      </trkpt>
      <trkpt lat="42.724521" lon="-7.024793">
        <ele>1134.935</ele>
        <time>2021-07-14T13:23:27Z</time>
      </trkpt>
      <trkpt lat="42.724484" lon="-7.024657">
        <ele>1134.022</ele>
        <time>2021-07-14T13:23:28Z</time>
      </trkpt>
      <trkpt lat="42.724443" lon="-7.024523">
        <ele>1133.530</ele>
        <time>2021-07-14T13:23:29Z</time>
      </trkpt>
      <trkpt lat="42.724336" lon="-7.024103">
        <ele>1131.177</ele>
        <time>2021-07-14T13:23:32Z</time>
      </trkpt>
      <trkpt lat="42.724320" lon="-7.023961">
        <ele>1130.161</ele>
        <time>2021-07-14T13:23:33Z</time>
      </trkpt>
      <trkpt lat="42.724321" lon="-7.023813">
        <ele>1129.227</ele>
        <time>2021-07-14T13:23:34Z</time>
      </trkpt>
      <trkpt lat="42.724338" lon="-7.023679">
        <ele>1128.208</ele>
        <time>2021-07-14T13:23:35Z</time>
      </trkpt>
      <trkpt lat="42.724370" lon="-7.023553">
        <ele>1127.274</ele>
        <time>2021-07-14T13:23:36Z</time>
      </trkpt>
      <trkpt lat="42.724420" lon="-7.023429">
        <ele>1126.846</ele>
        <time>2021-07-14T13:23:37Z</time>
      </trkpt>
      <trkpt lat="42.724482" lon="-7.023328">
        <ele>1125.833</ele>
        <time>2021-07-14T13:23:38Z</time>
      </trkpt>
      <trkpt lat="42.724555" lon="-7.023245">
        <ele>1125.333</ele>
        <time>2021-07-14T13:23:39Z</time>
      </trkpt>
      <trkpt lat="42.724635" lon="-7.023177">
        <ele>1124.437</ele>
        <time>2021-07-14T13:23:40Z</time>
      </trkpt>
      <trkpt lat="42.724722" lon="-7.023115">
        <ele>1123.955</ele>
        <time>2021-07-14T13:23:41Z</time>
      </trkpt>
      <trkpt lat="42.725292" lon="-7.022725">
        <ele>1119.572</ele>
        <time>2021-07-14T13:23:48Z</time>
      </trkpt>
      <trkpt lat="42.725351" lon="-7.022658">
        <ele>1119.590</ele>
        <time>2021-07-14T13:23:49Z</time>
      </trkpt>
      <trkpt lat="42.725407" lon="-7.022581">
        <ele>1119.121</ele>
        <time>2021-07-14T13:23:50Z</time>
      </trkpt>
      <trkpt lat="42.725454" lon="-7.022503">
        <ele>1118.641</ele>
        <time>2021-07-14T13:23:51Z</time>
      </trkpt>
      <trkpt lat="42.725493" lon="-7.022419">
        <ele>1119.105</ele>
        <time>2021-07-14T13:23:52Z</time>
      </trkpt>
      <trkpt lat="42.725529" lon="-7.022327">
        <ele>1118.608</ele>
        <time>2021-07-14T13:23:53Z</time>
      </trkpt>
      <trkpt lat="42.725558" lon="-7.022244">
        <ele>1118.689</ele>
        <time>2021-07-14T13:23:54Z</time>
      </trkpt>
      <trkpt lat="42.725579" lon="-7.022170">
        <ele>1118.621</ele>
        <time>2021-07-14T13:23:55Z</time>
      </trkpt>
      <trkpt lat="42.725660" lon="-7.021626">
        <ele>1117.168</ele>
        <time>2021-07-14T13:24:02Z</time>
      </trkpt>
      <trkpt lat="42.725701" lon="-7.020857">
        <ele>1116.228</ele>
        <time>2021-07-14T13:24:11Z</time>
      </trkpt>
      <trkpt lat="42.725748" lon="-7.020633">
        <ele>1116.292</ele>
        <time>2021-07-14T13:24:14Z</time>
      </trkpt>
      <trkpt lat="42.725762" lon="-7.020587">
        <ele>1116.220</ele>
        <time>2021-07-14T13:24:15Z</time>
      </trkpt>
      <trkpt lat="42.725818" lon="-7.020485">
        <ele>1115.717</ele>
        <time>2021-07-14T13:24:20Z</time>
      </trkpt>
      <trkpt lat="42.725927" lon="-7.020320">
        <ele>1115.255</ele>
        <time>2021-07-14T13:24:26Z</time>
      </trkpt>
      <trkpt lat="42.725978" lon="-7.020193">
        <ele>1115.267</ele>
        <time>2021-07-14T13:24:31Z</time>
      </trkpt>
      <trkpt lat="42.726004" lon="-7.020000">
        <ele>1114.381</ele>
        <time>2021-07-14T13:24:37Z</time>
      </trkpt>
      <trkpt lat="42.726017" lon="-7.019924">
        <ele>1113.819</ele>
        <time>2021-07-14T13:24:40Z</time>
      </trkpt>
      <trkpt lat="42.726025" lon="-7.019910">
        <ele>1113.808</ele>
        <time>2021-07-14T13:24:41Z</time>
      </trkpt>
      <trkpt lat="42.726029" lon="-7.019891">
        <ele>1113.863</ele>
        <time>2021-07-14T13:24:42Z</time>
      </trkpt>
      <trkpt lat="42.726032" lon="-7.019883">
        <ele>1113.395</ele>
        <time>2021-07-14T13:24:47Z</time>
      </trkpt>
      <trkpt lat="42.726008" lon="-7.019878">
        <ele>1111.972</ele>
        <time>2021-07-14T13:25:11Z</time>
      </trkpt>
      <trkpt lat="42.726010" lon="-7.019866">
        <ele>1112.832</ele>
        <time>2021-07-14T13:25:29Z</time>
      </trkpt>
      <trkpt lat="42.726027" lon="-7.019813">
        <ele>1112.886</ele>
        <time>2021-07-14T13:25:32Z</time>
      </trkpt>
      <trkpt lat="42.726024" lon="-7.019786">
        <ele>1112.854</ele>
        <time>2021-07-14T13:25:33Z</time>
      </trkpt>
      <trkpt lat="42.725989" lon="-7.019485">
        <ele>1113.821</ele>
        <time>2021-07-14T13:25:41Z</time>
      </trkpt>
      <trkpt lat="42.725932" lon="-7.019115">
        <ele>1114.359</ele>
        <time>2021-07-14T13:25:49Z</time>
      </trkpt>
      <trkpt lat="42.725822" lon="-7.018685">
        <ele>1112.837</ele>
        <time>2021-07-14T13:25:58Z</time>
      </trkpt>
      <trkpt lat="42.725656" lon="-7.018153">
        <ele>1111.949</ele>
        <time>2021-07-14T13:26:08Z</time>
      </trkpt>
      <trkpt lat="42.725430" lon="-7.017535">
        <ele>1108.513</ele>
        <time>2021-07-14T13:26:17Z</time>
      </trkpt>
      <trkpt lat="42.725358" lon="-7.017382">
        <ele>1107.108</ele>
        <time>2021-07-14T13:26:19Z</time>
      </trkpt>
      <trkpt lat="42.725321" lon="-7.017328">
        <ele>1106.190</ele>
        <time>2021-07-14T13:26:20Z</time>
      </trkpt>
      <trkpt lat="42.725282" lon="-7.017293">
        <ele>1105.662</ele>
        <time>2021-07-14T13:26:21Z</time>
      </trkpt>
      <trkpt lat="42.725230" lon="-7.017267">
        <ele>1105.689</ele>
        <time>2021-07-14T13:26:22Z</time>
      </trkpt>
      <trkpt lat="42.725174" lon="-7.017261">
        <ele>1105.139</ele>
        <time>2021-07-14T13:26:23Z</time>
      </trkpt>
      <trkpt lat="42.725136" lon="-7.017265">
        <ele>1105.143</ele>
        <time>2021-07-14T13:26:24Z</time>
      </trkpt>
      <trkpt lat="42.725087" lon="-7.017274">
        <ele>1105.111</ele>
        <time>2021-07-14T13:26:25Z</time>
      </trkpt>
      <trkpt lat="42.725023" lon="-7.017271">
        <ele>1104.658</ele>
        <time>2021-07-14T13:26:26Z</time>
      </trkpt>
      <trkpt lat="42.724979" lon="-7.017257">
        <ele>1104.246</ele>
        <time>2021-07-14T13:26:27Z</time>
      </trkpt>
      <trkpt lat="42.724940" lon="-7.017229">
        <ele>1104.245</ele>
        <time>2021-07-14T13:26:28Z</time>
      </trkpt>
      <trkpt lat="42.724904" lon="-7.017188">
        <ele>1104.247</ele>
        <time>2021-07-14T13:26:29Z</time>
      </trkpt>
      <trkpt lat="42.724872" lon="-7.017129">
        <ele>1104.211</ele>
        <time>2021-07-14T13:26:30Z</time>
      </trkpt>
      <trkpt lat="42.724855" lon="-7.017055">
        <ele>1103.708</ele>
        <time>2021-07-14T13:26:31Z</time>
      </trkpt>
      <trkpt lat="42.724854" lon="-7.016994">
        <ele>1103.721</ele>
        <time>2021-07-14T13:26:32Z</time>
      </trkpt>
      <trkpt lat="42.724861" lon="-7.016939">
        <ele>1103.713</ele>
        <time>2021-07-14T13:26:33Z</time>
      </trkpt>
      <trkpt lat="42.724872" lon="-7.016889">
        <ele>1103.710</ele>
        <time>2021-07-14T13:26:34Z</time>
      </trkpt>
      <trkpt lat="42.724890" lon="-7.016844">
        <ele>1103.770</ele>
        <time>2021-07-14T13:26:35Z</time>
      </trkpt>
      <trkpt lat="42.724908" lon="-7.016811">
        <ele>1104.234</ele>
        <time>2021-07-14T13:26:36Z</time>
      </trkpt>
      <trkpt lat="42.724931" lon="-7.016779">
        <ele>1104.252</ele>
        <time>2021-07-14T13:26:37Z</time>
      </trkpt>
      <trkpt lat="42.724968" lon="-7.016720">
        <ele>1104.269</ele>
        <time>2021-07-14T13:26:42Z</time>
      </trkpt>
      <trkpt lat="42.724973" lon="-7.016725">
        <ele>1104.257</ele>
        <time>2021-07-14T13:26:53Z</time>
      </trkpt>
      <trkpt lat="42.724969" lon="-7.016728">
        <ele>1104.658</ele>
        <time>2021-07-14T13:27:05Z</time>
      </trkpt>
      <trkpt lat="42.724972" lon="-7.016723">
        <ele>1104.652</ele>
        <time>2021-07-14T13:27:17Z</time>
      </trkpt>
      <trkpt lat="42.724973" lon="-7.016718">
        <ele>1104.217</ele>
        <time>2021-07-14T13:27:32Z</time>
      </trkpt>
      <trkpt lat="42.724973" lon="-7.016718">
        <ele>1104.608</ele>
        <time>2021-07-14T13:27:44Z</time>
      </trkpt>
      <trkpt lat="42.724969" lon="-7.016711">
        <ele>1106.182</ele>
        <time>2021-07-14T13:27:58Z</time>
      </trkpt>
      <trkpt lat="42.724968" lon="-7.016707">
        <ele>1108.014</ele>
        <time>2021-07-14T13:28:11Z</time>
      </trkpt>
      <trkpt lat="42.724969" lon="-7.016697">
        <ele>1109.081</ele>
        <time>2021-07-14T13:28:34Z</time>
      </trkpt>
      <trkpt lat="42.724960" lon="-7.016713">
        <ele>1107.571</ele>
        <time>2021-07-14T13:28:58Z</time>
      </trkpt>
      <trkpt lat="42.724955" lon="-7.016727">
        <ele>1105.695</ele>
        <time>2021-07-14T13:29:18Z</time>
      </trkpt>
      <trkpt lat="42.724955" lon="-7.016728">
        <ele>1104.243</ele>
        <time>2021-07-14T13:29:41Z</time>
      </trkpt>
      <trkpt lat="42.724963" lon="-7.016714">
        <ele>1105.610</ele>
        <time>2021-07-14T13:29:58Z</time>
      </trkpt>
      <trkpt lat="42.724967" lon="-7.016718">
        <ele>1105.158</ele>
        <time>2021-07-14T13:30:05Z</time>
      </trkpt>
      <trkpt lat="42.724975" lon="-7.016738">
        <ele>1105.626</ele>
        <time>2021-07-14T13:30:25Z</time>
      </trkpt>
      <trkpt lat="42.724982" lon="-7.016744">
        <ele>1106.647</ele>
        <time>2021-07-14T13:30:51Z</time>
      </trkpt>
      <trkpt lat="42.724990" lon="-7.016749">
        <ele>1107.111</ele>
        <time>2021-07-14T13:31:07Z</time>
      </trkpt>
      <trkpt lat="42.724983" lon="-7.016760">
        <ele>1106.608</ele>
        <time>2021-07-14T13:31:23Z</time>
      </trkpt>
      <trkpt lat="42.724978" lon="-7.016744">
        <ele>1106.129</ele>
        <time>2021-07-14T13:31:39Z</time>
      </trkpt>
      <trkpt lat="42.724972" lon="-7.016751">
        <ele>1105.121</ele>
        <time>2021-07-14T13:31:54Z</time>
      </trkpt>
      <trkpt lat="42.724968" lon="-7.016749">
        <ele>1104.648</ele>
        <time>2021-07-14T13:32:09Z</time>
      </trkpt>
      <trkpt lat="42.724966" lon="-7.016739">
        <ele>1104.248</ele>
        <time>2021-07-14T13:32:23Z</time>
      </trkpt>
      <trkpt lat="42.724967" lon="-7.016728">
        <ele>1104.222</ele>
        <time>2021-07-14T13:32:40Z</time>
      </trkpt>
      <trkpt lat="42.724966" lon="-7.016725">
        <ele>1102.750</ele>
        <time>2021-07-14T13:32:59Z</time>
      </trkpt>
      <trkpt lat="42.724962" lon="-7.016727">
        <ele>1103.787</ele>
        <time>2021-07-14T13:33:12Z</time>
      </trkpt>
      <trkpt lat="42.724948" lon="-7.016738">
        <ele>1102.795</ele>
        <time>2021-07-14T13:33:27Z</time>
      </trkpt>
      <trkpt lat="42.724953" lon="-7.016746">
        <ele>1101.852</ele>
        <time>2021-07-14T13:33:40Z</time>
      </trkpt>
      <trkpt lat="42.724957" lon="-7.016744">
        <ele>1101.853</ele>
        <time>2021-07-14T13:33:55Z</time>
      </trkpt>
      <trkpt lat="42.724957" lon="-7.016740">
        <ele>1101.308</ele>
        <time>2021-07-14T13:34:09Z</time>
      </trkpt>
      <trkpt lat="42.724954" lon="-7.016748">
        <ele>1100.808</ele>
        <time>2021-07-14T13:34:22Z</time>
      </trkpt>
      <trkpt lat="42.724956" lon="-7.016735">
        <ele>1101.842</ele>
        <time>2021-07-14T13:34:40Z</time>
      </trkpt>
      <trkpt lat="42.724955" lon="-7.016737">
        <ele>1101.884</ele>
        <time>2021-07-14T13:34:54Z</time>
      </trkpt>
      <trkpt lat="42.724961" lon="-7.016725">
        <ele>1101.861</ele>
        <time>2021-07-14T13:35:10Z</time>
      </trkpt>
      <trkpt lat="42.724979" lon="-7.016714">
        <ele>1103.761</ele>
        <time>2021-07-14T13:35:25Z</time>
      </trkpt>
      <trkpt lat="42.724973" lon="-7.016722">
        <ele>1102.295</ele>
        <time>2021-07-14T13:35:38Z</time>
      </trkpt>
      <trkpt lat="42.724961" lon="-7.016734">
        <ele>1102.233</ele>
        <time>2021-07-14T13:35:53Z</time>
      </trkpt>
      <trkpt lat="42.724971" lon="-7.016731">
        <ele>1102.770</ele>
        <time>2021-07-14T13:36:09Z</time>
      </trkpt>
      <trkpt lat="42.724969" lon="-7.016741">
        <ele>1103.298</ele>
        <time>2021-07-14T13:36:22Z</time>
      </trkpt>
      <trkpt lat="42.724964" lon="-7.016735">
        <ele>1102.277</ele>
        <time>2021-07-14T13:36:37Z</time>
      </trkpt>
      <trkpt lat="42.724970" lon="-7.016731">
        <ele>1103.261</ele>
        <time>2021-07-14T13:36:49Z</time>
      </trkpt>
      <trkpt lat="42.724976" lon="-7.016740">
        <ele>1103.727</ele>
        <time>2021-07-14T13:37:02Z</time>
      </trkpt>
      <trkpt lat="42.724960" lon="-7.016737">
        <ele>1103.708</ele>
        <time>2021-07-14T13:37:20Z</time>
      </trkpt>
      <trkpt lat="42.724965" lon="-7.016727">
        <ele>1103.784</ele>
        <time>2021-07-14T13:37:34Z</time>
      </trkpt>
      <trkpt lat="42.724961" lon="-7.016719">
        <ele>1102.786</ele>
        <time>2021-07-14T13:37:50Z</time>
      </trkpt>
      <trkpt lat="42.724957" lon="-7.016731">
        <ele>1102.783</ele>
        <time>2021-07-14T13:38:11Z</time>
      </trkpt>
      <trkpt lat="42.724963" lon="-7.016732">
        <ele>1103.273</ele>
        <time>2021-07-14T13:38:27Z</time>
      </trkpt>
      <trkpt lat="42.724966" lon="-7.016730">
        <ele>1103.747</ele>
        <time>2021-07-14T13:38:42Z</time>
      </trkpt>
      <trkpt lat="42.724963" lon="-7.016747">
        <ele>1104.265</ele>
        <time>2021-07-14T13:38:57Z</time>
      </trkpt>
      <trkpt lat="42.724962" lon="-7.016739">
        <ele>1105.172</ele>
        <time>2021-07-14T13:39:12Z</time>
      </trkpt>
      <trkpt lat="42.724960" lon="-7.016731">
        <ele>1105.640</ele>
        <time>2021-07-14T13:39:23Z</time>
      </trkpt>
      <trkpt lat="42.724973" lon="-7.016722">
        <ele>1105.196</ele>
        <time>2021-07-14T13:39:29Z</time>
      </trkpt>
      <trkpt lat="42.724990" lon="-7.016718">
        <ele>1105.131</ele>
        <time>2021-07-14T13:39:30Z</time>
      </trkpt>
      <trkpt lat="42.725005" lon="-7.016725">
        <ele>1105.124</ele>
        <time>2021-07-14T13:39:31Z</time>
      </trkpt>
      <trkpt lat="42.725028" lon="-7.016735">
        <ele>1105.108</ele>
        <time>2021-07-14T13:39:32Z</time>
      </trkpt>
      <trkpt lat="42.725053" lon="-7.016741">
        <ele>1105.136</ele>
        <time>2021-07-14T13:39:33Z</time>
      </trkpt>
      <trkpt lat="42.725077" lon="-7.016750">
        <ele>1105.158</ele>
        <time>2021-07-14T13:39:34Z</time>
      </trkpt>
      <trkpt lat="42.725097" lon="-7.016762">
        <ele>1105.135</ele>
        <time>2021-07-14T13:39:35Z</time>
      </trkpt>
      <trkpt lat="42.725119" lon="-7.016776">
        <ele>1105.125</ele>
        <time>2021-07-14T13:39:36Z</time>
      </trkpt>
      <trkpt lat="42.725272" lon="-7.016996">
        <ele>1105.159</ele>
        <time>2021-07-14T13:39:43Z</time>
      </trkpt>
      <trkpt lat="42.725442" lon="-7.017377">
        <ele>1106.187</ele>
        <time>2021-07-14T13:39:54Z</time>
      </trkpt>
      <trkpt lat="42.725544" lon="-7.017611">
        <ele>1109.054</ele>
        <time>2021-07-14T13:40:02Z</time>
      </trkpt>
      <trkpt lat="42.725637" lon="-7.017847">
        <ele>1110.452</ele>
        <time>2021-07-14T13:40:11Z</time>
      </trkpt>
      <trkpt lat="42.725751" lon="-7.018199">
        <ele>1111.989</ele>
        <time>2021-07-14T13:40:23Z</time>
      </trkpt>
      <trkpt lat="42.725843" lon="-7.018478">
        <ele>1112.306</ele>
        <time>2021-07-14T13:40:32Z</time>
      </trkpt>
      <trkpt lat="42.725949" lon="-7.018897">
        <ele>1112.826</ele>
        <time>2021-07-14T13:40:44Z</time>
      </trkpt>
      <trkpt lat="42.726034" lon="-7.019254">
        <ele>1113.808</ele>
        <time>2021-07-14T13:40:54Z</time>
      </trkpt>
      <trkpt lat="42.726124" lon="-7.019673">
        <ele>1113.845</ele>
        <time>2021-07-14T13:41:06Z</time>
      </trkpt>
      <trkpt lat="42.726198" lon="-7.019978">
        <ele>1113.857</ele>
        <time>2021-07-14T13:41:16Z</time>
      </trkpt>
      <trkpt lat="42.726280" lon="-7.020324">
        <ele>1114.324</ele>
        <time>2021-07-14T13:41:28Z</time>
      </trkpt>
      <trkpt lat="42.726291" lon="-7.020339">
        <ele>1113.834</ele>
        <time>2021-07-14T13:41:33Z</time>
      </trkpt>
      <trkpt lat="42.726284" lon="-7.020340">
        <ele>1114.358</ele>
        <time>2021-07-14T13:41:43Z</time>
      </trkpt>
      <trkpt lat="42.726268" lon="-7.020332">
        <ele>1116.766</ele>
        <time>2021-07-14T13:42:03Z</time>
      </trkpt>
      <trkpt lat="42.726276" lon="-7.020363">
        <ele>1119.553</ele>
        <time>2021-07-14T13:42:28Z</time>
      </trkpt>
      <trkpt lat="42.726277" lon="-7.020351">
        <ele>1122.071</ele>
        <time>2021-07-14T13:42:44Z</time>
      </trkpt>
      <trkpt lat="42.726267" lon="-7.020329">
        <ele>1119.137</ele>
        <time>2021-07-14T13:43:02Z</time>
      </trkpt>
      <trkpt lat="42.726257" lon="-7.020328">
        <ele>1118.649</ele>
        <time>2021-07-14T13:43:18Z</time>
      </trkpt>
      <trkpt lat="42.726245" lon="-7.020341">
        <ele>1117.613</ele>
        <time>2021-07-14T13:43:32Z</time>
      </trkpt>
      <trkpt lat="42.726257" lon="-7.020344">
        <ele>1116.708</ele>
        <time>2021-07-14T13:43:40Z</time>
      </trkpt>
      <trkpt lat="42.726259" lon="-7.020350">
        <ele>1117.110</ele>
        <time>2021-07-14T13:43:48Z</time>
      </trkpt>
      <trkpt lat="42.726261" lon="-7.020348">
        <ele>1118.672</ele>
        <time>2021-07-14T13:43:59Z</time>
      </trkpt>
      <trkpt lat="42.726250" lon="-7.020336">
        <ele>1120.529</ele>
        <time>2021-07-14T13:44:13Z</time>
      </trkpt>
      <trkpt lat="42.726241" lon="-7.020319">
        <ele>1120.069</ele>
        <time>2021-07-14T13:44:27Z</time>
      </trkpt>
      <trkpt lat="42.726230" lon="-7.020320">
        <ele>1121.013</ele>
        <time>2021-07-14T13:44:39Z</time>
      </trkpt>
      <trkpt lat="42.726218" lon="-7.020301">
        <ele>1120.021</ele>
        <time>2021-07-14T13:44:51Z</time>
      </trkpt>
      <trkpt lat="42.726223" lon="-7.020270">
        <ele>1118.638</ele>
        <time>2021-07-14T13:45:03Z</time>
      </trkpt>
      <trkpt lat="42.726238" lon="-7.020287">
        <ele>1118.676</ele>
        <time>2021-07-14T13:45:20Z</time>
      </trkpt>
      <trkpt lat="42.726235" lon="-7.020284">
        <ele>1119.157</ele>
        <time>2021-07-14T13:45:38Z</time>
      </trkpt>
      <trkpt lat="42.726219" lon="-7.020289">
        <ele>1122.000</ele>
        <time>2021-07-14T13:45:47Z</time>
      </trkpt>
      <trkpt lat="42.726219" lon="-7.020293">
        <ele>1123.920</ele>
        <time>2021-07-14T13:45:59Z</time>
      </trkpt>
      <trkpt lat="42.726224" lon="-7.020282">
        <ele>1122.908</ele>
        <time>2021-07-14T13:46:15Z</time>
      </trkpt>
      <trkpt lat="42.726229" lon="-7.020294">
        <ele>1123.472</ele>
        <time>2021-07-14T13:46:28Z</time>
      </trkpt>
      <trkpt lat="42.726233" lon="-7.020286">
        <ele>1122.044</ele>
        <time>2021-07-14T13:46:43Z</time>
      </trkpt>
      <trkpt lat="42.726227" lon="-7.020262">
        <ele>1122.441</ele>
        <time>2021-07-14T13:46:56Z</time>
      </trkpt>
      <trkpt lat="42.726230" lon="-7.020265">
        <ele>1122.481</ele>
        <time>2021-07-14T13:47:08Z</time>
      </trkpt>
      <trkpt lat="42.726223" lon="-7.020280">
        <ele>1121.085</ele>
        <time>2021-07-14T13:47:20Z</time>
      </trkpt>
      <trkpt lat="42.726220" lon="-7.020286">
        <ele>1122.463</ele>
        <time>2021-07-14T13:47:32Z</time>
      </trkpt>
      <trkpt lat="42.726221" lon="-7.020294">
        <ele>1124.470</ele>
        <time>2021-07-14T13:47:42Z</time>
      </trkpt>
      <trkpt lat="42.726226" lon="-7.020301">
        <ele>1125.818</ele>
        <time>2021-07-14T13:47:54Z</time>
      </trkpt>
      <trkpt lat="42.726230" lon="-7.020295">
        <ele>1125.834</ele>
        <time>2021-07-14T13:48:05Z</time>
      </trkpt>
      <trkpt lat="42.726209" lon="-7.020294">
        <ele>1124.855</ele>
        <time>2021-07-14T13:48:17Z</time>
      </trkpt>
      <trkpt lat="42.726198" lon="-7.020281">
        <ele>1123.410</ele>
        <time>2021-07-14T13:48:32Z</time>
      </trkpt>
      <trkpt lat="42.726200" lon="-7.020282">
        <ele>1124.808</ele>
        <time>2021-07-14T13:48:45Z</time>
      </trkpt>
      <trkpt lat="42.726205" lon="-7.020277">
        <ele>1124.470</ele>
        <time>2021-07-14T13:48:53Z</time>
      </trkpt>
      <trkpt lat="42.726209" lon="-7.020276">
        <ele>1123.472</ele>
        <time>2021-07-14T13:49:03Z</time>
      </trkpt>
      <trkpt lat="42.726211" lon="-7.020280">
        <ele>1123.499</ele>
        <time>2021-07-14T13:49:14Z</time>
      </trkpt>
      <trkpt lat="42.726214" lon="-7.020289">
        <ele>1124.819</ele>
        <time>2021-07-14T13:49:24Z</time>
      </trkpt>
      <trkpt lat="42.726217" lon="-7.020299">
        <ele>1126.333</ele>
        <time>2021-07-14T13:49:36Z</time>
      </trkpt>
      <trkpt lat="42.726207" lon="-7.020294">
        <ele>1126.371</ele>
        <time>2021-07-14T13:49:46Z</time>
      </trkpt>
      <trkpt lat="42.726206" lon="-7.020290">
        <ele>1125.888</ele>
        <time>2021-07-14T13:49:56Z</time>
      </trkpt>
      <trkpt lat="42.726226" lon="-7.020281">
        <ele>1127.286</ele>
        <time>2021-07-14T13:50:07Z</time>
      </trkpt>
      <trkpt lat="42.726209" lon="-7.020292">
        <ele>1129.228</ele>
        <time>2021-07-14T13:50:16Z</time>
      </trkpt>
      <trkpt lat="42.726199" lon="-7.020282">
        <ele>1127.789</ele>
        <time>2021-07-14T13:50:34Z</time>
      </trkpt>
      <trkpt lat="42.726199" lon="-7.020276">
        <ele>1126.317</ele>
        <time>2021-07-14T13:50:48Z</time>
      </trkpt>
      <trkpt lat="42.726188" lon="-7.020301">
        <ele>1127.208</ele>
        <time>2021-07-14T13:51:02Z</time>
      </trkpt>
      <trkpt lat="42.726173" lon="-7.020294">
        <ele>1129.619</ele>
        <time>2021-07-14T13:51:14Z</time>
      </trkpt>
      <trkpt lat="42.726176" lon="-7.020279">
        <ele>1129.691</ele>
        <time>2021-07-14T13:51:24Z</time>
      </trkpt>
      <trkpt lat="42.726176" lon="-7.020269">
        <ele>1129.268</ele>
        <time>2021-07-14T13:51:34Z</time>
      </trkpt>
      <trkpt lat="42.726183" lon="-7.020276">
        <ele>1129.658</ele>
        <time>2021-07-14T13:51:45Z</time>
      </trkpt>
      <trkpt lat="42.726171" lon="-7.020275">
        <ele>1130.162</ele>
        <time>2021-07-14T13:52:00Z</time>
      </trkpt>
      <trkpt lat="42.726178" lon="-7.020280">
        <ele>1130.680</ele>
        <time>2021-07-14T13:52:13Z</time>
      </trkpt>
      <trkpt lat="42.726185" lon="-7.020292">
        <ele>1133.597</ele>
        <time>2021-07-14T13:52:25Z</time>
      </trkpt>
      <trkpt lat="42.726176" lon="-7.020312">
        <ele>1134.015</ele>
        <time>2021-07-14T13:52:40Z</time>
      </trkpt>
      <trkpt lat="42.726163" lon="-7.020299">
        <ele>1132.533</ele>
        <time>2021-07-14T13:52:53Z</time>
      </trkpt>
      <trkpt lat="42.726152" lon="-7.020285">
        <ele>1132.523</ele>
        <time>2021-07-14T13:53:07Z</time>
      </trkpt>
      <trkpt lat="42.726156" lon="-7.020275">
        <ele>1133.515</ele>
        <time>2021-07-14T13:53:17Z</time>
      </trkpt>
      <trkpt lat="42.726166" lon="-7.020266">
        <ele>1134.008</ele>
        <time>2021-07-14T13:53:33Z</time>
      </trkpt>
      <trkpt lat="42.726173" lon="-7.020275">
        <ele>1133.530</ele>
        <time>2021-07-14T13:53:44Z</time>
      </trkpt>
      <trkpt lat="42.726178" lon="-7.020278">
        <ele>1131.682</ele>
        <time>2021-07-14T13:53:59Z</time>
      </trkpt>
      <trkpt lat="42.726178" lon="-7.020297">
        <ele>1130.689</ele>
        <time>2021-07-14T13:54:10Z</time>
      </trkpt>
      <trkpt lat="42.726185" lon="-7.020309">
        <ele>1130.199</ele>
        <time>2021-07-14T13:54:23Z</time>
      </trkpt>
      <trkpt lat="42.726188" lon="-7.020309">
        <ele>1129.213</ele>
        <time>2021-07-14T13:54:34Z</time>
      </trkpt>
      <trkpt lat="42.726188" lon="-7.020302">
        <ele>1128.281</ele>
        <time>2021-07-14T13:54:47Z</time>
      </trkpt>
      <trkpt lat="42.726181" lon="-7.020307">
        <ele>1126.828</ele>
        <time>2021-07-14T13:55:02Z</time>
      </trkpt>
      <trkpt lat="42.726193" lon="-7.020291">
        <ele>1126.876</ele>
        <time>2021-07-14T13:55:19Z</time>
      </trkpt>
      <trkpt lat="42.726206" lon="-7.020276">
        <ele>1125.821</ele>
        <time>2021-07-14T13:55:31Z</time>
      </trkpt>
      <trkpt lat="42.726215" lon="-7.020273">
        <ele>1125.341</ele>
        <time>2021-07-14T13:55:45Z</time>
      </trkpt>
      <trkpt lat="42.726207" lon="-7.020299">
        <ele>1123.405</ele>
        <time>2021-07-14T13:56:02Z</time>
      </trkpt>
      <trkpt lat="42.726199" lon="-7.020297">
        <ele>1122.408</ele>
        <time>2021-07-14T13:56:14Z</time>
      </trkpt>
      <trkpt lat="42.726192" lon="-7.020309">
        <ele>1123.479</ele>
        <time>2021-07-14T13:56:27Z</time>
      </trkpt>
      <trkpt lat="42.726194" lon="-7.020311">
        <ele>1123.981</ele>
        <time>2021-07-14T13:56:39Z</time>
      </trkpt>
      <trkpt lat="42.726196" lon="-7.020306">
        <ele>1124.888</ele>
        <time>2021-07-14T13:56:53Z</time>
      </trkpt>
      <trkpt lat="42.726191" lon="-7.020296">
        <ele>1127.288</ele>
        <time>2021-07-14T13:57:08Z</time>
      </trkpt>
      <trkpt lat="42.726194" lon="-7.020278">
        <ele>1126.372</ele>
        <time>2021-07-14T13:57:22Z</time>
      </trkpt>
      <trkpt lat="42.726182" lon="-7.020278">
        <ele>1129.210</ele>
        <time>2021-07-14T13:57:32Z</time>
      </trkpt>
      <trkpt lat="42.726198" lon="-7.020263">
        <ele>1129.637</ele>
        <time>2021-07-14T13:57:45Z</time>
      </trkpt>
      <trkpt lat="42.726207" lon="-7.020264">
        <ele>1128.295</ele>
        <time>2021-07-14T13:58:02Z</time>
      </trkpt>
      <trkpt lat="42.726216" lon="-7.020249">
        <ele>1127.269</ele>
        <time>2021-07-14T13:58:16Z</time>
      </trkpt>
      <trkpt lat="42.726239" lon="-7.020250">
        <ele>1124.804</ele>
        <time>2021-07-14T13:58:34Z</time>
      </trkpt>
      <trkpt lat="42.726248" lon="-7.020265">
        <ele>1123.924</ele>
        <time>2021-07-14T13:58:52Z</time>
      </trkpt>
      <trkpt lat="42.726253" lon="-7.020271">
        <ele>1121.508</ele>
        <time>2021-07-14T13:59:07Z</time>
      </trkpt>
      <trkpt lat="42.726258" lon="-7.020273">
        <ele>1119.133</ele>
        <time>2021-07-14T13:59:23Z</time>
      </trkpt>
      <trkpt lat="42.726274" lon="-7.020285">
        <ele>1119.195</ele>
        <time>2021-07-14T13:59:34Z</time>
      </trkpt>
      <trkpt lat="42.726281" lon="-7.020299">
        <ele>1118.642</ele>
        <time>2021-07-14T13:59:51Z</time>
      </trkpt>
      <trkpt lat="42.726277" lon="-7.020293">
        <ele>1116.772</ele>
        <time>2021-07-14T14:00:07Z</time>
      </trkpt>
      <trkpt lat="42.726283" lon="-7.020315">
        <ele>1118.626</ele>
        <time>2021-07-14T14:00:27Z</time>
      </trkpt>
      <trkpt lat="42.726274" lon="-7.020314">
        <ele>1118.654</ele>
        <time>2021-07-14T14:00:45Z</time>
      </trkpt>
      <trkpt lat="42.726261" lon="-7.020318">
        <ele>1118.131</ele>
        <time>2021-07-14T14:01:00Z</time>
      </trkpt>
      <trkpt lat="42.726271" lon="-7.020315">
        <ele>1117.689</ele>
        <time>2021-07-14T14:01:15Z</time>
      </trkpt>
      <trkpt lat="42.726295" lon="-7.020295">
        <ele>1117.194</ele>
        <time>2021-07-14T14:01:32Z</time>
      </trkpt>
      <trkpt lat="42.726302" lon="-7.020312">
        <ele>1114.757</ele>
        <time>2021-07-14T14:01:48Z</time>
      </trkpt>
      <trkpt lat="42.726283" lon="-7.020296">
        <ele>1115.222</ele>
        <time>2021-07-14T14:02:11Z</time>
      </trkpt>
      <trkpt lat="42.726287" lon="-7.020289">
        <ele>1116.708</ele>
        <time>2021-07-14T14:02:28Z</time>
      </trkpt>
      <trkpt lat="42.726299" lon="-7.020304">
        <ele>1116.276</ele>
        <time>2021-07-14T14:02:42Z</time>
      </trkpt>
      <trkpt lat="42.726292" lon="-7.020320">
        <ele>1118.678</ele>
        <time>2021-07-14T14:03:02Z</time>
      </trkpt>
      <trkpt lat="42.726258" lon="-7.020321">
        <ele>1121.525</ele>
        <time>2021-07-14T14:03:22Z</time>
      </trkpt>
      <trkpt lat="42.726258" lon="-7.020306">
        <ele>1121.575</ele>
        <time>2021-07-14T14:03:33Z</time>
      </trkpt>
      <trkpt lat="42.726259" lon="-7.020306">
        <ele>1120.089</ele>
        <time>2021-07-14T14:03:46Z</time>
      </trkpt>
      <trkpt lat="42.726257" lon="-7.020293">
        <ele>1116.787</ele>
        <time>2021-07-14T14:03:59Z</time>
      </trkpt>
      <trkpt lat="42.726267" lon="-7.020300">
        <ele>1114.324</ele>
        <time>2021-07-14T14:04:11Z</time>
      </trkpt>
      <trkpt lat="42.726276" lon="-7.020319">
        <ele>1115.222</ele>
        <time>2021-07-14T14:04:26Z</time>
      </trkpt>
      <trkpt lat="42.726275" lon="-7.020333">
        <ele>1117.132</ele>
        <time>2021-07-14T14:04:39Z</time>
      </trkpt>
      <trkpt lat="42.726294" lon="-7.020338">
        <ele>1118.192</ele>
        <time>2021-07-14T14:04:53Z</time>
      </trkpt>
      <trkpt lat="42.726293" lon="-7.020316">
        <ele>1120.511</ele>
        <time>2021-07-14T14:05:06Z</time>
      </trkpt>
      <trkpt lat="42.726278" lon="-7.020321">
        <ele>1120.008</ele>
        <time>2021-07-14T14:05:25Z</time>
      </trkpt>
      <trkpt lat="42.726275" lon="-7.020325">
        <ele>1120.070</ele>
        <time>2021-07-14T14:05:38Z</time>
      </trkpt>
      <trkpt lat="42.726285" lon="-7.020313">
        <ele>1121.532</ele>
        <time>2021-07-14T14:05:50Z</time>
      </trkpt>
      <trkpt lat="42.726279" lon="-7.020288">
        <ele>1122.069</ele>
        <time>2021-07-14T14:06:03Z</time>
      </trkpt>
      <trkpt lat="42.726276" lon="-7.020259">
        <ele>1120.579</ele>
        <time>2021-07-14T14:06:14Z</time>
      </trkpt>
      <trkpt lat="42.726286" lon="-7.020263">
        <ele>1119.513</ele>
        <time>2021-07-14T14:06:26Z</time>
      </trkpt>
      <trkpt lat="42.726302" lon="-7.020256">
        <ele>1118.621</ele>
        <time>2021-07-14T14:06:37Z</time>
      </trkpt>
      <trkpt lat="42.726316" lon="-7.020268">
        <ele>1118.198</ele>
        <time>2021-07-14T14:06:52Z</time>
      </trkpt>
      <trkpt lat="42.726323" lon="-7.020278">
        <ele>1118.626</ele>
        <time>2021-07-14T14:07:06Z</time>
      </trkpt>
      <trkpt lat="42.726321" lon="-7.020284">
        <ele>1120.049</ele>
        <time>2021-07-14T14:07:17Z</time>
      </trkpt>
      <trkpt lat="42.726324" lon="-7.020286">
        <ele>1120.002</ele>
        <time>2021-07-14T14:07:28Z</time>
      </trkpt>
      <trkpt lat="42.726321" lon="-7.020294">
        <ele>1117.622</ele>
        <time>2021-07-14T14:07:46Z</time>
      </trkpt>
      <trkpt lat="42.726322" lon="-7.020300">
        <ele>1116.208</ele>
        <time>2021-07-14T14:08:02Z</time>
      </trkpt>
      <trkpt lat="42.726286" lon="-7.020304">
        <ele>1115.751</ele>
        <time>2021-07-14T14:08:23Z</time>
      </trkpt>
      <trkpt lat="42.726297" lon="-7.020294">
        <ele>1114.773</ele>
        <time>2021-07-14T14:08:43Z</time>
      </trkpt>
      <trkpt lat="42.726313" lon="-7.020297">
        <ele>1111.920</ele>
        <time>2021-07-14T14:09:11Z</time>
      </trkpt>
      <trkpt lat="42.726330" lon="-7.020296">
        <ele>1112.390</ele>
        <time>2021-07-14T14:09:20Z</time>
      </trkpt>
      <trkpt lat="42.726341" lon="-7.020293">
        <ele>1111.934</ele>
        <time>2021-07-14T14:09:33Z</time>
      </trkpt>
      <trkpt lat="42.726342" lon="-7.020297">
        <ele>1114.742</ele>
        <time>2021-07-14T14:09:49Z</time>
      </trkpt>
      <trkpt lat="42.726331" lon="-7.020317">
        <ele>1117.179</ele>
        <time>2021-07-14T14:10:06Z</time>
      </trkpt>
      <trkpt lat="42.726324" lon="-7.020300">
        <ele>1116.237</ele>
        <time>2021-07-14T14:10:25Z</time>
      </trkpt>
      <trkpt lat="42.726297" lon="-7.020322">
        <ele>1114.731</ele>
        <time>2021-07-14T14:10:42Z</time>
      </trkpt>
      <trkpt lat="42.726286" lon="-7.020347">
        <ele>1114.361</ele>
        <time>2021-07-14T14:10:48Z</time>
      </trkpt>
      <trkpt lat="42.726281" lon="-7.020358">
        <ele>1114.307</ele>
        <time>2021-07-14T14:10:49Z</time>
      </trkpt>
      <trkpt lat="42.726274" lon="-7.020371">
        <ele>1114.308</ele>
        <time>2021-07-14T14:10:50Z</time>
      </trkpt>
      <trkpt lat="42.726265" lon="-7.020383">
        <ele>1114.370</ele>
        <time>2021-07-14T14:10:51Z</time>
      </trkpt>
      <trkpt lat="42.726257" lon="-7.020398">
        <ele>1114.342</ele>
        <time>2021-07-14T14:10:52Z</time>
      </trkpt>
      <trkpt lat="42.726247" lon="-7.020412">
        <ele>1114.339</ele>
        <time>2021-07-14T14:10:53Z</time>
      </trkpt>
      <trkpt lat="42.726140" lon="-7.020502">
        <ele>1114.389</ele>
        <time>2021-07-14T14:11:03Z</time>
      </trkpt>
      <trkpt lat="42.726129" lon="-7.020529">
        <ele>1114.723</ele>
        <time>2021-07-14T14:11:10Z</time>
      </trkpt>
      <trkpt lat="42.726135" lon="-7.020540">
        <ele>1116.761</ele>
        <time>2021-07-14T14:11:24Z</time>
      </trkpt>
      <trkpt lat="42.726136" lon="-7.020545">
        <ele>1117.198</ele>
        <time>2021-07-14T14:11:50Z</time>
      </trkpt>
      <trkpt lat="42.726126" lon="-7.020523">
        <ele>1115.266</ele>
        <time>2021-07-14T14:12:16Z</time>
      </trkpt>
      <trkpt lat="42.726137" lon="-7.020525">
        <ele>1115.268</ele>
        <time>2021-07-14T14:12:34Z</time>
      </trkpt>
      <trkpt lat="42.726120" lon="-7.020546">
        <ele>1115.242</ele>
        <time>2021-07-14T14:12:48Z</time>
      </trkpt>
      <trkpt lat="42.726115" lon="-7.020535">
        <ele>1114.726</ele>
        <time>2021-07-14T14:13:05Z</time>
      </trkpt>
      <trkpt lat="42.726124" lon="-7.020537">
        <ele>1115.208</ele>
        <time>2021-07-14T14:13:26Z</time>
      </trkpt>
      <trkpt lat="42.726106" lon="-7.020521">
        <ele>1115.273</ele>
        <time>2021-07-14T14:13:34Z</time>
      </trkpt>
      <trkpt lat="42.726101" lon="-7.020495">
        <ele>1114.765</ele>
        <time>2021-07-14T14:13:41Z</time>
      </trkpt>
      <trkpt lat="42.726107" lon="-7.020462">
        <ele>1114.712</ele>
        <time>2021-07-14T14:13:55Z</time>
      </trkpt>
      <trkpt lat="42.726118" lon="-7.020425">
        <ele>1114.752</ele>
        <time>2021-07-14T14:13:59Z</time>
      </trkpt>
      <trkpt lat="42.726142" lon="-7.020395">
        <ele>1114.736</ele>
        <time>2021-07-14T14:14:01Z</time>
      </trkpt>
      <trkpt lat="42.726148" lon="-7.020356">
        <ele>1114.394</ele>
        <time>2021-07-14T14:14:02Z</time>
      </trkpt>
      <trkpt lat="42.726138" lon="-7.020332">
        <ele>1114.331</ele>
        <time>2021-07-14T14:14:03Z</time>
      </trkpt>
      <trkpt lat="42.726051" lon="-7.020233">
        <ele>1115.289</ele>
        <time>2021-07-14T14:14:07Z</time>
      </trkpt>
      <trkpt lat="42.726033" lon="-7.020193">
        <ele>1115.215</ele>
        <time>2021-07-14T14:14:08Z</time>
      </trkpt>
      <trkpt lat="42.726024" lon="-7.020160">
        <ele>1115.265</ele>
        <time>2021-07-14T14:14:09Z</time>
      </trkpt>
      <trkpt lat="42.726017" lon="-7.020119">
        <ele>1115.211</ele>
        <time>2021-07-14T14:14:10Z</time>
      </trkpt>
      <trkpt lat="42.726014" lon="-7.020077">
        <ele>1115.208</ele>
        <time>2021-07-14T14:14:11Z</time>
      </trkpt>
      <trkpt lat="42.726015" lon="-7.020033">
        <ele>1115.268</ele>
        <time>2021-07-14T14:14:12Z</time>
      </trkpt>
      <trkpt lat="42.726020" lon="-7.019975">
        <ele>1114.740</ele>
        <time>2021-07-14T14:14:13Z</time>
      </trkpt>
      <trkpt lat="42.726023" lon="-7.019936">
        <ele>1114.737</ele>
        <time>2021-07-14T14:14:14Z</time>
      </trkpt>
      <trkpt lat="42.726015" lon="-7.019676">
        <ele>1113.847</ele>
        <time>2021-07-14T14:14:20Z</time>
      </trkpt>
      <trkpt lat="42.725956" lon="-7.019306">
        <ele>1112.841</ele>
        <time>2021-07-14T14:14:27Z</time>
      </trkpt>
      <trkpt lat="42.725780" lon="-7.018558">
        <ele>1111.419</ele>
        <time>2021-07-14T14:14:38Z</time>
      </trkpt>
      <trkpt lat="42.725571" lon="-7.017927">
        <ele>1110.426</ele>
        <time>2021-07-14T14:14:47Z</time>
      </trkpt>
      <trkpt lat="42.725343" lon="-7.017347">
        <ele>1106.684</ele>
        <time>2021-07-14T14:14:55Z</time>
      </trkpt>
      <trkpt lat="42.725315" lon="-7.017312">
        <ele>1106.115</ele>
        <time>2021-07-14T14:14:56Z</time>
      </trkpt>
      <trkpt lat="42.725278" lon="-7.017284">
        <ele>1105.665</ele>
        <time>2021-07-14T14:14:57Z</time>
      </trkpt>
      <trkpt lat="42.725238" lon="-7.017268">
        <ele>1105.611</ele>
        <time>2021-07-14T14:14:58Z</time>
      </trkpt>
      <trkpt lat="42.725196" lon="-7.017261">
        <ele>1105.108</ele>
        <time>2021-07-14T14:14:59Z</time>
      </trkpt>
      <trkpt lat="42.725165" lon="-7.017268">
        <ele>1105.118</ele>
        <time>2021-07-14T14:15:00Z</time>
      </trkpt>
      <trkpt lat="42.725124" lon="-7.017283">
        <ele>1104.690</ele>
        <time>2021-07-14T14:15:01Z</time>
      </trkpt>
      <trkpt lat="42.725042" lon="-7.017295">
        <ele>1104.627</ele>
        <time>2021-07-14T14:15:03Z</time>
      </trkpt>
      <trkpt lat="42.724992" lon="-7.017281">
        <ele>1104.657</ele>
        <time>2021-07-14T14:15:04Z</time>
      </trkpt>
      <trkpt lat="42.724964" lon="-7.017266">
        <ele>1104.621</ele>
        <time>2021-07-14T14:15:05Z</time>
      </trkpt>
      <trkpt lat="42.724923" lon="-7.017235">
        <ele>1104.649</ele>
        <time>2021-07-14T14:15:06Z</time>
      </trkpt>
      <trkpt lat="42.724892" lon="-7.017202">
        <ele>1104.656</ele>
        <time>2021-07-14T14:15:07Z</time>
      </trkpt>
      <trkpt lat="42.724860" lon="-7.017154">
        <ele>1104.284</ele>
        <time>2021-07-14T14:15:08Z</time>
      </trkpt>
      <trkpt lat="42.724834" lon="-7.017104">
        <ele>1104.246</ele>
        <time>2021-07-14T14:15:09Z</time>
      </trkpt>
      <trkpt lat="42.724629" lon="-7.016788">
        <ele>1102.788</ele>
        <time>2021-07-14T14:15:15Z</time>
      </trkpt>
      <trkpt lat="42.724570" lon="-7.016672">
        <ele>1102.216</ele>
        <time>2021-07-14T14:15:17Z</time>
      </trkpt>
      <trkpt lat="42.724546" lon="-7.016596">
        <ele>1102.208</ele>
        <time>2021-07-14T14:15:18Z</time>
      </trkpt>
      <trkpt lat="42.724526" lon="-7.016494">
        <ele>1101.311</ele>
        <time>2021-07-14T14:15:19Z</time>
      </trkpt>
      <trkpt lat="42.724519" lon="-7.016416">
        <ele>1100.833</ele>
        <time>2021-07-14T14:15:20Z</time>
      </trkpt>
      <trkpt lat="42.724515" lon="-7.016305">
        <ele>1100.340</ele>
        <time>2021-07-14T14:15:21Z</time>
      </trkpt>
      <trkpt lat="42.724520" lon="-7.016215">
        <ele>1099.450</ele>
        <time>2021-07-14T14:15:22Z</time>
      </trkpt>
      <trkpt lat="42.724528" lon="-7.016124">
        <ele>1098.994</ele>
        <time>2021-07-14T14:15:23Z</time>
      </trkpt>
      <trkpt lat="42.724526" lon="-7.015850">
        <ele>1096.592</ele>
        <time>2021-07-14T14:15:26Z</time>
      </trkpt>
      <trkpt lat="42.724507" lon="-7.015751">
        <ele>1096.089</ele>
        <time>2021-07-14T14:15:27Z</time>
      </trkpt>
      <trkpt lat="42.724477" lon="-7.015679">
        <ele>1095.037</ele>
        <time>2021-07-14T14:15:28Z</time>
      </trkpt>
      <trkpt lat="42.724429" lon="-7.015606">
        <ele>1094.165</ele>
        <time>2021-07-14T14:15:29Z</time>
      </trkpt>
      <trkpt lat="42.724367" lon="-7.015543">
        <ele>1093.668</ele>
        <time>2021-07-14T14:15:30Z</time>
      </trkpt>
      <trkpt lat="42.724304" lon="-7.015502">
        <ele>1092.614</ele>
        <time>2021-07-14T14:15:31Z</time>
      </trkpt>
      <trkpt lat="42.724229" lon="-7.015468">
        <ele>1091.708</ele>
        <time>2021-07-14T14:15:32Z</time>
      </trkpt>
      <trkpt lat="42.724160" lon="-7.015451">
        <ele>1091.233</ele>
        <time>2021-07-14T14:15:33Z</time>
      </trkpt>
      <trkpt lat="42.724081" lon="-7.015446">
        <ele>1090.775</ele>
        <time>2021-07-14T14:15:34Z</time>
      </trkpt>
      <trkpt lat="42.724009" lon="-7.015455">
        <ele>1090.262</ele>
        <time>2021-07-14T14:15:35Z</time>
      </trkpt>
      <trkpt lat="42.723943" lon="-7.015475">
        <ele>1089.732</ele>
        <time>2021-07-14T14:15:36Z</time>
      </trkpt>
      <trkpt lat="42.723886" lon="-7.015498">
        <ele>1089.716</ele>
        <time>2021-07-14T14:15:37Z</time>
      </trkpt>
      <trkpt lat="42.723664" lon="-7.015593">
        <ele>1088.884</ele>
        <time>2021-07-14T14:15:41Z</time>
      </trkpt>
      <trkpt lat="42.723222" lon="-7.015619">
        <ele>1087.321</ele>
        <time>2021-07-14T14:15:48Z</time>
      </trkpt>
      <trkpt lat="42.722968" lon="-7.015527">
        <ele>1086.489</ele>
        <time>2021-07-14T14:15:52Z</time>
      </trkpt>
      <trkpt lat="42.722775" lon="-7.015396">
        <ele>1084.936</ele>
        <time>2021-07-14T14:15:55Z</time>
      </trkpt>
      <trkpt lat="42.722388" lon="-7.014969">
        <ele>1082.117</ele>
        <time>2021-07-14T14:16:02Z</time>
      </trkpt>
      <trkpt lat="42.722299" lon="-7.014843">
        <ele>1081.118</ele>
        <time>2021-07-14T14:16:04Z</time>
      </trkpt>
      <trkpt lat="42.722213" lon="-7.014688">
        <ele>1080.608</ele>
        <time>2021-07-14T14:16:06Z</time>
      </trkpt>
      <trkpt lat="42.722156" lon="-7.014544">
        <ele>1079.730</ele>
        <time>2021-07-14T14:16:08Z</time>
      </trkpt>
      <trkpt lat="42.722146" lon="-7.014493">
        <ele>1079.282</ele>
        <time>2021-07-14T14:16:09Z</time>
      </trkpt>
      <trkpt lat="42.722135" lon="-7.014430">
        <ele>1078.739</ele>
        <time>2021-07-14T14:16:10Z</time>
      </trkpt>
      <trkpt lat="42.722094" lon="-7.014065">
        <ele>1076.859</ele>
        <time>2021-07-14T14:16:15Z</time>
      </trkpt>
      <trkpt lat="42.722078" lon="-7.014000">
        <ele>1076.393</ele>
        <time>2021-07-14T14:16:16Z</time>
      </trkpt>
      <trkpt lat="42.722053" lon="-7.013929">
        <ele>1075.891</ele>
        <time>2021-07-14T14:16:17Z</time>
      </trkpt>
      <trkpt lat="42.722020" lon="-7.013859">
        <ele>1075.378</ele>
        <time>2021-07-14T14:16:18Z</time>
      </trkpt>
      <trkpt lat="42.721979" lon="-7.013785">
        <ele>1074.896</ele>
        <time>2021-07-14T14:16:19Z</time>
      </trkpt>
      <trkpt lat="42.721928" lon="-7.013711">
        <ele>1073.913</ele>
        <time>2021-07-14T14:16:20Z</time>
      </trkpt>
      <trkpt lat="42.721882" lon="-7.013655">
        <ele>1073.443</ele>
        <time>2021-07-14T14:16:21Z</time>
      </trkpt>
      <trkpt lat="42.721815" lon="-7.013593">
        <ele>1072.907</ele>
        <time>2021-07-14T14:16:22Z</time>
      </trkpt>
      <trkpt lat="42.721767" lon="-7.013559">
        <ele>1072.408</ele>
        <time>2021-07-14T14:16:23Z</time>
      </trkpt>
      <trkpt lat="42.721730" lon="-7.013541">
        <ele>1072.088</ele>
        <time>2021-07-14T14:16:24Z</time>
      </trkpt>
      <trkpt lat="42.721709" lon="-7.013533">
        <ele>1071.530</ele>
        <time>2021-07-14T14:16:25Z</time>
      </trkpt>
      <trkpt lat="42.721695" lon="-7.013530">
        <ele>1071.067</ele>
        <time>2021-07-14T14:16:29Z</time>
      </trkpt>
      <trkpt lat="42.721619" lon="-7.013478">
        <ele>1072.077</ele>
        <time>2021-07-14T14:16:39Z</time>
      </trkpt>
      <trkpt lat="42.721389" lon="-7.013428">
        <ele>1070.041</ele>
        <time>2021-07-14T14:16:45Z</time>
      </trkpt>
      <trkpt lat="42.721201" lon="-7.013452">
        <ele>1068.669</ele>
        <time>2021-07-14T14:16:51Z</time>
      </trkpt>
      <trkpt lat="42.721056" lon="-7.013473">
        <ele>1067.666</ele>
        <time>2021-07-14T14:16:55Z</time>
      </trkpt>
      <trkpt lat="42.720827" lon="-7.013416">
        <ele>1066.254</ele>
        <time>2021-07-14T14:17:00Z</time>
      </trkpt>
      <trkpt lat="42.720601" lon="-7.013295">
        <ele>1064.818</ele>
        <time>2021-07-14T14:17:05Z</time>
      </trkpt>
      <trkpt lat="42.720355" lon="-7.013109">
        <ele>1063.398</ele>
        <time>2021-07-14T14:17:11Z</time>
      </trkpt>
      <trkpt lat="42.720097" lon="-7.012869">
        <ele>1061.917</ele>
        <time>2021-07-14T14:17:17Z</time>
      </trkpt>
      <trkpt lat="42.720054" lon="-7.012807">
        <ele>1061.408</ele>
        <time>2021-07-14T14:17:18Z</time>
      </trkpt>
      <trkpt lat="42.719984" lon="-7.012676">
        <ele>1060.968</ele>
        <time>2021-07-14T14:17:20Z</time>
      </trkpt>
      <trkpt lat="42.719963" lon="-7.012601">
        <ele>1060.490</ele>
        <time>2021-07-14T14:17:21Z</time>
      </trkpt>
      <trkpt lat="42.719953" lon="-7.012531">
        <ele>1059.967</ele>
        <time>2021-07-14T14:17:22Z</time>
      </trkpt>
      <trkpt lat="42.719946" lon="-7.012450">
        <ele>1059.557</ele>
        <time>2021-07-14T14:17:23Z</time>
      </trkpt>
      <trkpt lat="42.719942" lon="-7.012361">
        <ele>1059.081</ele>
        <time>2021-07-14T14:17:24Z</time>
      </trkpt>
      <trkpt lat="42.719931" lon="-7.011831">
        <ele>1056.629</ele>
        <time>2021-07-14T14:17:31Z</time>
      </trkpt>
      <trkpt lat="42.719905" lon="-7.011256">
        <ele>1054.296</ele>
        <time>2021-07-14T14:17:39Z</time>
      </trkpt>
      <trkpt lat="42.719963" lon="-7.010701">
        <ele>1051.854</ele>
        <time>2021-07-14T14:17:46Z</time>
      </trkpt>
      <trkpt lat="42.719972" lon="-7.010605">
        <ele>1051.373</ele>
        <time>2021-07-14T14:17:47Z</time>
      </trkpt>
      <trkpt lat="42.719976" lon="-7.010510">
        <ele>1050.885</ele>
        <time>2021-07-14T14:17:48Z</time>
      </trkpt>
      <trkpt lat="42.719938" lon="-7.009799">
        <ele>1047.913</ele>
        <time>2021-07-14T14:17:55Z</time>
      </trkpt>
      <trkpt lat="42.719883" lon="-7.009556">
        <ele>1046.508</ele>
        <time>2021-07-14T14:17:58Z</time>
      </trkpt>
      <trkpt lat="42.719852" lon="-7.009481">
        <ele>1046.094</ele>
        <time>2021-07-14T14:17:59Z</time>
      </trkpt>
      <trkpt lat="42.719815" lon="-7.009408">
        <ele>1046.056</ele>
        <time>2021-07-14T14:18:00Z</time>
      </trkpt>
      <trkpt lat="42.719520" lon="-7.008957">
        <ele>1043.693</ele>
        <time>2021-07-14T14:18:07Z</time>
      </trkpt>
      <trkpt lat="42.719468" lon="-7.008901">
        <ele>1043.193</ele>
        <time>2021-07-14T14:18:08Z</time>
      </trkpt>
      <trkpt lat="42.719362" lon="-7.008813">
        <ele>1042.227</ele>
        <time>2021-07-14T14:18:10Z</time>
      </trkpt>
      <trkpt lat="42.719298" lon="-7.008776">
        <ele>1041.755</ele>
        <time>2021-07-14T14:18:11Z</time>
      </trkpt>
      <trkpt lat="42.719247" lon="-7.008753">
        <ele>1041.242</ele>
        <time>2021-07-14T14:18:12Z</time>
      </trkpt>
      <trkpt lat="42.718857" lon="-7.008571">
        <ele>1038.830</ele>
        <time>2021-07-14T14:18:19Z</time>
      </trkpt>
      <trkpt lat="42.718808" lon="-7.008564">
        <ele>1038.875</ele>
        <time>2021-07-14T14:18:20Z</time>
      </trkpt>
      <trkpt lat="42.718761" lon="-7.008582">
        <ele>1038.328</ele>
        <time>2021-07-14T14:18:21Z</time>
      </trkpt>
      <trkpt lat="42.718726" lon="-7.008619">
        <ele>1037.820</ele>
        <time>2021-07-14T14:18:22Z</time>
      </trkpt>
      <trkpt lat="42.718699" lon="-7.008682">
        <ele>1037.408</ele>
        <time>2021-07-14T14:18:23Z</time>
      </trkpt>
      <trkpt lat="42.718687" lon="-7.008749">
        <ele>1036.924</ele>
        <time>2021-07-14T14:18:24Z</time>
      </trkpt>
      <trkpt lat="42.718687" lon="-7.008822">
        <ele>1036.996</ele>
        <time>2021-07-14T14:18:25Z</time>
      </trkpt>
      <trkpt lat="42.718698" lon="-7.008879">
        <ele>1036.453</ele>
        <time>2021-07-14T14:18:26Z</time>
      </trkpt>
      <trkpt lat="42.718724" lon="-7.008946">
        <ele>1036.473</ele>
        <time>2021-07-14T14:18:27Z</time>
      </trkpt>
      <trkpt lat="42.718757" lon="-7.009003">
        <ele>1035.917</ele>
        <time>2021-07-14T14:18:28Z</time>
      </trkpt>
      <trkpt lat="42.718795" lon="-7.009064">
        <ele>1035.965</ele>
        <time>2021-07-14T14:18:29Z</time>
      </trkpt>
      <trkpt lat="42.718976" lon="-7.009399">
        <ele>1034.512</ele>
        <time>2021-07-14T14:18:34Z</time>
      </trkpt>
      <trkpt lat="42.719000" lon="-7.009480">
        <ele>1034.510</ele>
        <time>2021-07-14T14:18:35Z</time>
      </trkpt>
      <trkpt lat="42.719014" lon="-7.009550">
        <ele>1034.574</ele>
        <time>2021-07-14T14:18:36Z</time>
      </trkpt>
      <trkpt lat="42.719023" lon="-7.009623">
        <ele>1034.556</ele>
        <time>2021-07-14T14:18:37Z</time>
      </trkpt>
      <trkpt lat="42.719022" lon="-7.009697">
        <ele>1034.521</ele>
        <time>2021-07-14T14:18:38Z</time>
      </trkpt>
      <trkpt lat="42.719016" lon="-7.009774">
        <ele>1034.008</ele>
        <time>2021-07-14T14:18:39Z</time>
      </trkpt>
      <trkpt lat="42.719009" lon="-7.009846">
        <ele>1034.084</ele>
        <time>2021-07-14T14:18:40Z</time>
      </trkpt>
      <trkpt lat="42.718998" lon="-7.009912">
        <ele>1034.066</ele>
        <time>2021-07-14T14:18:41Z</time>
      </trkpt>
      <trkpt lat="42.718851" lon="-7.010478">
        <ele>1034.013</ele>
        <time>2021-07-14T14:18:50Z</time>
      </trkpt>
      <trkpt lat="42.718826" lon="-7.010524">
        <ele>1033.533</ele>
        <time>2021-07-14T14:18:51Z</time>
      </trkpt>
      <trkpt lat="42.718796" lon="-7.010569">
        <ele>1033.577</ele>
        <time>2021-07-14T14:18:52Z</time>
      </trkpt>
      <trkpt lat="42.718730" lon="-7.010651">
        <ele>1034.095</ele>
        <time>2021-07-14T14:18:54Z</time>
      </trkpt>
      <trkpt lat="42.718503" lon="-7.010839">
        <ele>1033.582</ele>
        <time>2021-07-14T14:19:00Z</time>
      </trkpt>
      <trkpt lat="42.718374" lon="-7.010883">
        <ele>1033.580</ele>
        <time>2021-07-14T14:19:03Z</time>
      </trkpt>
      <trkpt lat="42.718330" lon="-7.010886">
        <ele>1033.549</ele>
        <time>2021-07-14T14:19:04Z</time>
      </trkpt>
      <trkpt lat="42.718281" lon="-7.010882">
        <ele>1033.502</ele>
        <time>2021-07-14T14:19:05Z</time>
      </trkpt>
      <trkpt lat="42.718196" lon="-7.010862">
        <ele>1033.022</ele>
        <time>2021-07-14T14:19:07Z</time>
      </trkpt>
      <trkpt lat="42.718163" lon="-7.010847">
        <ele>1033.008</ele>
        <time>2021-07-14T14:19:08Z</time>
      </trkpt>
      <trkpt lat="42.718140" lon="-7.010833">
        <ele>1032.541</ele>
        <time>2021-07-14T14:19:09Z</time>
      </trkpt>
      <trkpt lat="42.718133" lon="-7.010817">
        <ele>1032.573</ele>
        <time>2021-07-14T14:19:13Z</time>
      </trkpt>
      <trkpt lat="42.718133" lon="-7.010817">
        <ele>1032.540</ele>
        <time>2021-07-14T14:19:33Z</time>
      </trkpt>
      <trkpt lat="42.718133" lon="-7.010808">
        <ele>1032.530</ele>
        <time>2021-07-14T14:19:54Z</time>
      </trkpt>
      <trkpt lat="42.718122" lon="-7.010813">
        <ele>1034.074</ele>
        <time>2021-07-14T14:20:17Z</time>
      </trkpt>
      <trkpt lat="42.718127" lon="-7.010815">
        <ele>1034.512</ele>
        <time>2021-07-14T14:20:30Z</time>
      </trkpt>
      <trkpt lat="42.718124" lon="-7.010821">
        <ele>1035.029</ele>
        <time>2021-07-14T14:20:45Z</time>
      </trkpt>
      <trkpt lat="42.718114" lon="-7.010823">
        <ele>1035.427</ele>
        <time>2021-07-14T14:21:00Z</time>
      </trkpt>
      <trkpt lat="42.718112" lon="-7.010820">
        <ele>1035.017</ele>
        <time>2021-07-14T14:21:14Z</time>
      </trkpt>
      <trkpt lat="42.718115" lon="-7.010819">
        <ele>1033.587</ele>
        <time>2021-07-14T14:21:25Z</time>
      </trkpt>
      <trkpt lat="42.718120" lon="-7.010825">
        <ele>1033.015</ele>
        <time>2021-07-14T14:21:45Z</time>
      </trkpt>
      <trkpt lat="42.718133" lon="-7.010818">
        <ele>1032.508</ele>
        <time>2021-07-14T14:22:04Z</time>
      </trkpt>
      <trkpt lat="42.718130" lon="-7.010824">
        <ele>1032.128</ele>
        <time>2021-07-14T14:22:24Z</time>
      </trkpt>
      <trkpt lat="42.718120" lon="-7.010828">
        <ele>1032.580</ele>
        <time>2021-07-14T14:22:42Z</time>
      </trkpt>
      <trkpt lat="42.718118" lon="-7.010827">
        <ele>1031.637</ele>
        <time>2021-07-14T14:22:57Z</time>
      </trkpt>
      <trkpt lat="42.718121" lon="-7.010825">
        <ele>1031.677</ele>
        <time>2021-07-14T14:23:14Z</time>
      </trkpt>
      <trkpt lat="42.718113" lon="-7.010821">
        <ele>1031.661</ele>
        <time>2021-07-14T14:23:30Z</time>
      </trkpt>
      <trkpt lat="42.718113" lon="-7.010820">
        <ele>1032.149</ele>
        <time>2021-07-14T14:23:41Z</time>
      </trkpt>
      <trkpt lat="42.718110" lon="-7.010822">
        <ele>1032.556</ele>
        <time>2021-07-14T14:23:54Z</time>
      </trkpt>
      <trkpt lat="42.718108" lon="-7.010819">
        <ele>1033.014</ele>
        <time>2021-07-14T14:24:12Z</time>
      </trkpt>
      <trkpt lat="42.718105" lon="-7.010825">
        <ele>1033.071</ele>
        <time>2021-07-14T14:24:24Z</time>
      </trkpt>
      <trkpt lat="42.718100" lon="-7.010820">
        <ele>1033.541</ele>
        <time>2021-07-14T14:24:37Z</time>
      </trkpt>
      <trkpt lat="42.718104" lon="-7.010817">
        <ele>1033.015</ele>
        <time>2021-07-14T14:24:55Z</time>
      </trkpt>
      <trkpt lat="42.718107" lon="-7.010814">
        <ele>1032.508</ele>
        <time>2021-07-14T14:25:11Z</time>
      </trkpt>
      <trkpt lat="42.718110" lon="-7.010815">
        <ele>1033.044</ele>
        <time>2021-07-14T14:25:24Z</time>
      </trkpt>
      <trkpt lat="42.718110" lon="-7.010814">
        <ele>1032.516</ele>
        <time>2021-07-14T14:25:35Z</time>
      </trkpt>
      <trkpt lat="42.718121" lon="-7.010806">
        <ele>1032.533</ele>
        <time>2021-07-14T14:25:53Z</time>
      </trkpt>
      <trkpt lat="42.718119" lon="-7.010801">
        <ele>1033.023</ele>
        <time>2021-07-14T14:26:04Z</time>
      </trkpt>
      <trkpt lat="42.718093" lon="-7.010791">
        <ele>1033.087</ele>
        <time>2021-07-14T14:26:22Z</time>
      </trkpt>
      <trkpt lat="42.717967" lon="-7.010676">
        <ele>1031.655</ele>
        <time>2021-07-14T14:26:27Z</time>
      </trkpt>
      <trkpt lat="42.717786" lon="-7.010370">
        <ele>1030.642</ele>
        <time>2021-07-14T14:26:33Z</time>
      </trkpt>
      <trkpt lat="42.717527" lon="-7.010012">
        <ele>1029.270</ele>
        <time>2021-07-14T14:26:40Z</time>
      </trkpt>
      <trkpt lat="42.717479" lon="-7.009980">
        <ele>1028.766</ele>
        <time>2021-07-14T14:26:41Z</time>
      </trkpt>
      <trkpt lat="42.717428" lon="-7.009958">
        <ele>1028.729</ele>
        <time>2021-07-14T14:26:42Z</time>
      </trkpt>
      <trkpt lat="42.717374" lon="-7.009946">
        <ele>1028.721</ele>
        <time>2021-07-14T14:26:43Z</time>
      </trkpt>
      <trkpt lat="42.717318" lon="-7.009939">
        <ele>1028.208</ele>
        <time>2021-07-14T14:26:44Z</time>
      </trkpt>
      <trkpt lat="42.716945" lon="-7.009959">
        <ele>1027.333</ele>
        <time>2021-07-14T14:26:51Z</time>
      </trkpt>
      <trkpt lat="42.716357" lon="-7.009903">
        <ele>1024.445</ele>
        <time>2021-07-14T14:27:01Z</time>
      </trkpt>
      <trkpt lat="42.716155" lon="-7.009795">
        <ele>1022.952</ele>
        <time>2021-07-14T14:27:04Z</time>
      </trkpt>
      <trkpt lat="42.715710" lon="-7.009404">
        <ele>1021.082</ele>
        <time>2021-07-14T14:27:11Z</time>
      </trkpt>
      <trkpt lat="42.715424" lon="-7.009117">
        <ele>1020.196</ele>
        <time>2021-07-14T14:27:17Z</time>
      </trkpt>
      <trkpt lat="42.715397" lon="-7.009058">
        <ele>1020.174</ele>
        <time>2021-07-14T14:27:18Z</time>
      </trkpt>
      <trkpt lat="42.715381" lon="-7.008986">
        <ele>1019.621</ele>
        <time>2021-07-14T14:27:19Z</time>
      </trkpt>
      <trkpt lat="42.715377" lon="-7.008915">
        <ele>1019.649</ele>
        <time>2021-07-14T14:27:20Z</time>
      </trkpt>
      <trkpt lat="42.715383" lon="-7.008844">
        <ele>1019.689</ele>
        <time>2021-07-14T14:27:21Z</time>
      </trkpt>
      <trkpt lat="42.715395" lon="-7.008769">
        <ele>1019.606</ele>
        <time>2021-07-14T14:27:22Z</time>
      </trkpt>
      <trkpt lat="42.715409" lon="-7.008698">
        <ele>1019.626</ele>
        <time>2021-07-14T14:27:23Z</time>
      </trkpt>
      <trkpt lat="42.715419" lon="-7.008625">
        <ele>1019.608</ele>
        <time>2021-07-14T14:27:24Z</time>
      </trkpt>
      <trkpt lat="42.715420" lon="-7.008551">
        <ele>1019.665</ele>
        <time>2021-07-14T14:27:25Z</time>
      </trkpt>
      <trkpt lat="42.715410" lon="-7.008481">
        <ele>1019.657</ele>
        <time>2021-07-14T14:27:26Z</time>
      </trkpt>
      <trkpt lat="42.715391" lon="-7.008416">
        <ele>1019.674</ele>
        <time>2021-07-14T14:27:27Z</time>
      </trkpt>
      <trkpt lat="42.715369" lon="-7.008352">
        <ele>1019.654</ele>
        <time>2021-07-14T14:27:28Z</time>
      </trkpt>
      <trkpt lat="42.715344" lon="-7.008295">
        <ele>1019.638</ele>
        <time>2021-07-14T14:27:29Z</time>
      </trkpt>
      <trkpt lat="42.715318" lon="-7.008245">
        <ele>1019.656</ele>
        <time>2021-07-14T14:27:30Z</time>
      </trkpt>
      <trkpt lat="42.715290" lon="-7.008200">
        <ele>1019.613</ele>
        <time>2021-07-14T14:27:31Z</time>
      </trkpt>
      <trkpt lat="42.715260" lon="-7.008161">
        <ele>1019.631</ele>
        <time>2021-07-14T14:27:32Z</time>
      </trkpt>
      <trkpt lat="42.715225" lon="-7.008131">
        <ele>1019.697</ele>
        <time>2021-07-14T14:27:33Z</time>
      </trkpt>
      <trkpt lat="42.715183" lon="-7.008105">
        <ele>1019.623</ele>
        <time>2021-07-14T14:27:34Z</time>
      </trkpt>
      <trkpt lat="42.715139" lon="-7.008089">
        <ele>1019.625</ele>
        <time>2021-07-14T14:27:35Z</time>
      </trkpt>
      <trkpt lat="42.715093" lon="-7.008078">
        <ele>1019.108</ele>
        <time>2021-07-14T14:27:36Z</time>
      </trkpt>
      <trkpt lat="42.714638" lon="-7.007896">
        <ele>1020.186</ele>
        <time>2021-07-14T14:27:46Z</time>
      </trkpt>
      <trkpt lat="42.714421" lon="-7.007671">
        <ele>1019.628</ele>
        <time>2021-07-14T14:27:52Z</time>
      </trkpt>
      <trkpt lat="42.714392" lon="-7.007617">
        <ele>1019.685</ele>
        <time>2021-07-14T14:27:53Z</time>
      </trkpt>
      <trkpt lat="42.714135" lon="-7.007053">
        <ele>1019.125</ele>
        <time>2021-07-14T14:28:03Z</time>
      </trkpt>
      <trkpt lat="42.714104" lon="-7.007003">
        <ele>1019.159</ele>
        <time>2021-07-14T14:28:04Z</time>
      </trkpt>
      <trkpt lat="42.714068" lon="-7.006955">
        <ele>1019.157</ele>
        <time>2021-07-14T14:28:05Z</time>
      </trkpt>
      <trkpt lat="42.714032" lon="-7.006914">
        <ele>1019.154</ele>
        <time>2021-07-14T14:28:06Z</time>
      </trkpt>
      <trkpt lat="42.713990" lon="-7.006879">
        <ele>1019.112</ele>
        <time>2021-07-14T14:28:07Z</time>
      </trkpt>
      <trkpt lat="42.713939" lon="-7.006852">
        <ele>1018.616</ele>
        <time>2021-07-14T14:28:08Z</time>
      </trkpt>
      <trkpt lat="42.713892" lon="-7.006834">
        <ele>1018.676</ele>
        <time>2021-07-14T14:28:09Z</time>
      </trkpt>
      <trkpt lat="42.713841" lon="-7.006822">
        <ele>1018.613</ele>
        <time>2021-07-14T14:28:10Z</time>
      </trkpt>
      <trkpt lat="42.713788" lon="-7.006820">
        <ele>1018.108</ele>
        <time>2021-07-14T14:28:11Z</time>
      </trkpt>
      <trkpt lat="42.713736" lon="-7.006828">
        <ele>1018.128</ele>
        <time>2021-07-14T14:28:12Z</time>
      </trkpt>
      <trkpt lat="42.713689" lon="-7.006843">
        <ele>1018.120</ele>
        <time>2021-07-14T14:28:13Z</time>
      </trkpt>
      <trkpt lat="42.713641" lon="-7.006865">
        <ele>1017.617</ele>
        <time>2021-07-14T14:28:14Z</time>
      </trkpt>
      <trkpt lat="42.713596" lon="-7.006889">
        <ele>1017.637</ele>
        <time>2021-07-14T14:28:15Z</time>
      </trkpt>
      <trkpt lat="42.713193" lon="-7.007088">
        <ele>1018.141</ele>
        <time>2021-07-14T14:28:24Z</time>
      </trkpt>
      <trkpt lat="42.713147" lon="-7.007093">
        <ele>1018.159</ele>
        <time>2021-07-14T14:28:25Z</time>
      </trkpt>
      <trkpt lat="42.713098" lon="-7.007089">
        <ele>1018.196</ele>
        <time>2021-07-14T14:28:26Z</time>
      </trkpt>
      <trkpt lat="42.713055" lon="-7.007074">
        <ele>1018.144</ele>
        <time>2021-07-14T14:28:27Z</time>
      </trkpt>
      <trkpt lat="42.713019" lon="-7.007048">
        <ele>1018.188</ele>
        <time>2021-07-14T14:28:28Z</time>
      </trkpt>
      <trkpt lat="42.712988" lon="-7.006999">
        <ele>1017.624</ele>
        <time>2021-07-14T14:28:29Z</time>
      </trkpt>
      <trkpt lat="42.712971" lon="-7.006942">
        <ele>1017.626</ele>
        <time>2021-07-14T14:28:30Z</time>
      </trkpt>
      <trkpt lat="42.712970" lon="-7.006877">
        <ele>1017.608</ele>
        <time>2021-07-14T14:28:31Z</time>
      </trkpt>
      <trkpt lat="42.712980" lon="-7.006819">
        <ele>1017.265</ele>
        <time>2021-07-14T14:28:32Z</time>
      </trkpt>
      <trkpt lat="42.713006" lon="-7.006753">
        <ele>1017.267</ele>
        <time>2021-07-14T14:28:33Z</time>
      </trkpt>
      <trkpt lat="42.713035" lon="-7.006693">
        <ele>1016.744</ele>
        <time>2021-07-14T14:28:34Z</time>
      </trkpt>
      <trkpt lat="42.713208" lon="-7.006259">
        <ele>1013.834</ele>
        <time>2021-07-14T14:28:40Z</time>
      </trkpt>
      <trkpt lat="42.713219" lon="-7.006183">
        <ele>1013.378</ele>
        <time>2021-07-14T14:28:41Z</time>
      </trkpt>
      <trkpt lat="42.713222" lon="-7.006117">
        <ele>1012.886</ele>
        <time>2021-07-14T14:28:42Z</time>
      </trkpt>
      <trkpt lat="42.713213" lon="-7.006051">
        <ele>1012.493</ele>
        <time>2021-07-14T14:28:43Z</time>
      </trkpt>
      <trkpt lat="42.713193" lon="-7.005979">
        <ele>1011.951</ele>
        <time>2021-07-14T14:28:44Z</time>
      </trkpt>
      <trkpt lat="42.713165" lon="-7.005904">
        <ele>1011.957</ele>
        <time>2021-07-14T14:28:45Z</time>
      </trkpt>
      <trkpt lat="42.713123" lon="-7.005835">
        <ele>1011.400</ele>
        <time>2021-07-14T14:28:46Z</time>
      </trkpt>
      <trkpt lat="42.713066" lon="-7.005773">
        <ele>1010.920</ele>
        <time>2021-07-14T14:28:47Z</time>
      </trkpt>
      <trkpt lat="42.713010" lon="-7.005732">
        <ele>1010.408</ele>
        <time>2021-07-14T14:28:48Z</time>
      </trkpt>
      <trkpt lat="42.712951" lon="-7.005707">
        <ele>1010.092</ele>
        <time>2021-07-14T14:28:49Z</time>
      </trkpt>
      <trkpt lat="42.712893" lon="-7.005698">
        <ele>1010.034</ele>
        <time>2021-07-14T14:28:50Z</time>
      </trkpt>
      <trkpt lat="42.712839" lon="-7.005702">
        <ele>1010.061</ele>
        <time>2021-07-14T14:28:51Z</time>
      </trkpt>
      <trkpt lat="42.712790" lon="-7.005713">
        <ele>1009.551</ele>
        <time>2021-07-14T14:28:52Z</time>
      </trkpt>
      <trkpt lat="42.712747" lon="-7.005731">
        <ele>1009.515</ele>
        <time>2021-07-14T14:28:53Z</time>
      </trkpt>
      <trkpt lat="42.712706" lon="-7.005750">
        <ele>1009.013</ele>
        <time>2021-07-14T14:28:54Z</time>
      </trkpt>
      <trkpt lat="42.712607" lon="-7.005782">
        <ele>1008.090</ele>
        <time>2021-07-14T14:28:58Z</time>
      </trkpt>
      <trkpt lat="42.712600" lon="-7.005768">
        <ele>1008.568</ele>
        <time>2021-07-14T14:29:08Z</time>
      </trkpt>
      <trkpt lat="42.712575" lon="-7.005778">
        <ele>1008.055</ele>
        <time>2021-07-14T14:29:16Z</time>
      </trkpt>
      <trkpt lat="42.712490" lon="-7.005814">
        <ele>1007.607</ele>
        <time>2021-07-14T14:29:23Z</time>
      </trkpt>
      <trkpt lat="42.712456" lon="-7.005814">
        <ele>1008.017</ele>
        <time>2021-07-14T14:29:30Z</time>
      </trkpt>
      <trkpt lat="42.712455" lon="-7.005802">
        <ele>1007.108</ele>
        <time>2021-07-14T14:29:42Z</time>
      </trkpt>
      <trkpt lat="42.712463" lon="-7.005813">
        <ele>1006.622</ele>
        <time>2021-07-14T14:29:54Z</time>
      </trkpt>
      <trkpt lat="42.712447" lon="-7.005830">
        <ele>1006.114</ele>
        <time>2021-07-14T14:30:00Z</time>
      </trkpt>
      <trkpt lat="42.712436" lon="-7.005806">
        <ele>1006.141</ele>
        <time>2021-07-14T14:30:06Z</time>
      </trkpt>
      <trkpt lat="42.712409" lon="-7.005801">
        <ele>1006.121</ele>
        <time>2021-07-14T14:30:10Z</time>
      </trkpt>
      <trkpt lat="42.712240" lon="-7.005803">
        <ele>1009.045</ele>
        <time>2021-07-14T14:30:22Z</time>
      </trkpt>
      <trkpt lat="42.712221" lon="-7.005809">
        <ele>1009.043</ele>
        <time>2021-07-14T14:30:27Z</time>
      </trkpt>
      <trkpt lat="42.712205" lon="-7.005812">
        <ele>1009.050</ele>
        <time>2021-07-14T14:30:33Z</time>
      </trkpt>
      <trkpt lat="42.712146" lon="-7.005810">
        <ele>1009.548</ele>
        <time>2021-07-14T14:30:40Z</time>
      </trkpt>
      <trkpt lat="42.712018" lon="-7.005770">
        <ele>1010.942</ele>
        <time>2021-07-14T14:30:48Z</time>
      </trkpt>
      <trkpt lat="42.711855" lon="-7.005711">
        <ele>1012.422</ele>
        <time>2021-07-14T14:30:56Z</time>
      </trkpt>
      <trkpt lat="42.711675" lon="-7.005597">
        <ele>1013.314</ele>
        <time>2021-07-14T14:31:04Z</time>
      </trkpt>
      <trkpt lat="42.711458" lon="-7.005414">
        <ele>1015.208</ele>
        <time>2021-07-14T14:31:13Z</time>
      </trkpt>
      <trkpt lat="42.711305" lon="-7.005210">
        <ele>1016.231</ele>
        <time>2021-07-14T14:31:22Z</time>
      </trkpt>
      <trkpt lat="42.711307" lon="-7.005170">
        <ele>1017.243</ele>
        <time>2021-07-14T14:31:28Z</time>
      </trkpt>
      <trkpt lat="42.711341" lon="-7.005145">
        <ele>1017.670</ele>
        <time>2021-07-14T14:31:34Z</time>
      </trkpt>
      <trkpt lat="42.711323" lon="-7.005128">
        <ele>1017.690</ele>
        <time>2021-07-14T14:31:39Z</time>
      </trkpt>
      <trkpt lat="42.711309" lon="-7.005106">
        <ele>1017.264</ele>
        <time>2021-07-14T14:31:44Z</time>
      </trkpt>
      <trkpt lat="42.711196" lon="-7.005021">
        <ele>1016.262</ele>
        <time>2021-07-14T14:31:49Z</time>
      </trkpt>
      <trkpt lat="42.710906" lon="-7.004806">
        <ele>1014.359</ele>
        <time>2021-07-14T14:31:57Z</time>
      </trkpt>
      <trkpt lat="42.710583" lon="-7.004674">
        <ele>1012.827</ele>
        <time>2021-07-14T14:32:03Z</time>
      </trkpt>
      <trkpt lat="42.710262" lon="-7.004678">
        <ele>1011.413</ele>
        <time>2021-07-14T14:32:08Z</time>
      </trkpt>
      <trkpt lat="42.709959" lon="-7.004817">
        <ele>1010.043</ele>
        <time>2021-07-14T14:32:14Z</time>
      </trkpt>
      <trkpt lat="42.709910" lon="-7.004855">
        <ele>1010.007</ele>
        <time>2021-07-14T14:32:15Z</time>
      </trkpt>
      <trkpt lat="42.709577" lon="-7.005243">
        <ele>1009.008</ele>
        <time>2021-07-14T14:32:22Z</time>
      </trkpt>
      <trkpt lat="42.709191" lon="-7.005807">
        <ele>1006.698</ele>
        <time>2021-07-14T14:32:30Z</time>
      </trkpt>
      <trkpt lat="42.708880" lon="-7.006275">
        <ele>1004.770</ele>
        <time>2021-07-14T14:32:37Z</time>
      </trkpt>
      <trkpt lat="42.708759" lon="-7.006426">
        <ele>1004.277</ele>
        <time>2021-07-14T14:32:40Z</time>
      </trkpt>
      <trkpt lat="42.708553" lon="-7.006600">
        <ele>1003.217</ele>
        <time>2021-07-14T14:32:44Z</time>
      </trkpt>
      <trkpt lat="42.708132" lon="-7.006735">
        <ele>1000.841</ele>
        <time>2021-07-14T14:32:50Z</time>
      </trkpt>
      <trkpt lat="42.708049" lon="-7.006736">
        <ele>1000.319</ele>
        <time>2021-07-14T14:32:51Z</time>
      </trkpt>
      <trkpt lat="42.707963" lon="-7.006729">
        <ele>999.926</ele>
        <time>2021-07-14T14:32:52Z</time>
      </trkpt>
      <trkpt lat="42.707866" lon="-7.006711">
        <ele>999.444</ele>
        <time>2021-07-14T14:32:53Z</time>
      </trkpt>
      <trkpt lat="42.707784" lon="-7.006685">
        <ele>998.923</ele>
        <time>2021-07-14T14:32:54Z</time>
      </trkpt>
      <trkpt lat="42.707694" lon="-7.006646">
        <ele>998.483</ele>
        <time>2021-07-14T14:32:55Z</time>
      </trkpt>
      <trkpt lat="42.707607" lon="-7.006598">
        <ele>997.911</ele>
        <time>2021-07-14T14:32:56Z</time>
      </trkpt>
      <trkpt lat="42.707521" lon="-7.006543">
        <ele>997.008</ele>
        <time>2021-07-14T14:32:57Z</time>
      </trkpt>
      <trkpt lat="42.707437" lon="-7.006475">
        <ele>996.539</ele>
        <time>2021-07-14T14:32:58Z</time>
      </trkpt>
      <trkpt lat="42.707357" lon="-7.006395">
        <ele>995.561</ele>
        <time>2021-07-14T14:32:59Z</time>
      </trkpt>
      <trkpt lat="42.707277" lon="-7.006302">
        <ele>995.138</ele>
        <time>2021-07-14T14:33:00Z</time>
      </trkpt>
      <trkpt lat="42.706818" lon="-7.005672">
        <ele>990.338</ele>
        <time>2021-07-14T14:33:06Z</time>
      </trkpt>
      <trkpt lat="42.706302" lon="-7.004936">
        <ele>985.972</ele>
        <time>2021-07-14T14:33:13Z</time>
      </trkpt>
      <trkpt lat="42.705795" lon="-7.004225">
        <ele>981.650</ele>
        <time>2021-07-14T14:33:20Z</time>
      </trkpt>
      <trkpt lat="42.705269" lon="-7.003592">
        <ele>977.347</ele>
        <time>2021-07-14T14:33:27Z</time>
      </trkpt>
      <trkpt lat="42.704617" lon="-7.002987">
        <ele>972.575</ele>
        <time>2021-07-14T14:33:35Z</time>
      </trkpt>
      <trkpt lat="42.704075" lon="-7.002519">
        <ele>969.167</ele>
        <time>2021-07-14T14:33:42Z</time>
      </trkpt>
      <trkpt lat="42.703644" lon="-7.002133">
        <ele>966.281</ele>
        <time>2021-07-14T14:33:49Z</time>
      </trkpt>
      <trkpt lat="42.703406" lon="-7.001877">
        <ele>964.319</ele>
        <time>2021-07-14T14:33:55Z</time>
      </trkpt>
      <trkpt lat="42.703203" lon="-7.001635">
        <ele>963.808</ele>
        <time>2021-07-14T14:34:02Z</time>
      </trkpt>
      <trkpt lat="42.703149" lon="-7.001590">
        <ele>963.323</ele>
        <time>2021-07-14T14:34:08Z</time>
      </trkpt>
      <trkpt lat="42.703153" lon="-7.001595">
        <ele>964.855</ele>
        <time>2021-07-14T14:34:23Z</time>
      </trkpt>
      <trkpt lat="42.703158" lon="-7.001575">
        <ele>964.372</ele>
        <time>2021-07-14T14:34:27Z</time>
      </trkpt>
      <trkpt lat="42.703162" lon="-7.001554">
        <ele>964.342</ele>
        <time>2021-07-14T14:34:28Z</time>
      </trkpt>
      <trkpt lat="42.703164" lon="-7.001526">
        <ele>963.856</ele>
        <time>2021-07-14T14:34:29Z</time>
      </trkpt>
      <trkpt lat="42.703162" lon="-7.001491">
        <ele>963.844</ele>
        <time>2021-07-14T14:34:30Z</time>
      </trkpt>
      <trkpt lat="42.703156" lon="-7.001454">
        <ele>963.311</ele>
        <time>2021-07-14T14:34:31Z</time>
      </trkpt>
      <trkpt lat="42.703142" lon="-7.001419">
        <ele>962.929</ele>
        <time>2021-07-14T14:34:32Z</time>
      </trkpt>
      <trkpt lat="42.703127" lon="-7.001387">
        <ele>962.952</ele>
        <time>2021-07-14T14:34:33Z</time>
      </trkpt>
      <trkpt lat="42.703057" lon="-7.001300">
        <ele>961.953</ele>
        <time>2021-07-14T14:34:39Z</time>
      </trkpt>
      <trkpt lat="42.703056" lon="-7.001309">
        <ele>962.908</ele>
        <time>2021-07-14T14:34:55Z</time>
      </trkpt>
      <trkpt lat="42.703053" lon="-7.001303">
        <ele>963.808</ele>
        <time>2021-07-14T14:35:04Z</time>
      </trkpt>
      <trkpt lat="42.703048" lon="-7.001157">
        <ele>962.432</ele>
        <time>2021-07-14T14:35:12Z</time>
      </trkpt>
      <trkpt lat="42.703048" lon="-7.001143">
        <ele>962.474</ele>
        <time>2021-07-14T14:35:19Z</time>
      </trkpt>
      <trkpt lat="42.703049" lon="-7.001137">
        <ele>962.461</ele>
        <time>2021-07-14T14:35:35Z</time>
      </trkpt>
      <trkpt lat="42.703053" lon="-7.001135">
        <ele>961.941</ele>
        <time>2021-07-14T14:35:53Z</time>
      </trkpt>
      <trkpt lat="42.703057" lon="-7.001134">
        <ele>961.925</ele>
        <time>2021-07-14T14:36:05Z</time>
      </trkpt>
      <trkpt lat="42.703052" lon="-7.001132">
        <ele>960.473</ele>
        <time>2021-07-14T14:36:21Z</time>
      </trkpt>
      <trkpt lat="42.703050" lon="-7.001132">
        <ele>960.480</ele>
        <time>2021-07-14T14:36:36Z</time>
      </trkpt>
      <trkpt lat="42.703056" lon="-7.001134">
        <ele>961.918</ele>
        <time>2021-07-14T14:36:52Z</time>
      </trkpt>
      <trkpt lat="42.703064" lon="-7.001132">
        <ele>961.985</ele>
        <time>2021-07-14T14:37:08Z</time>
      </trkpt>
      <trkpt lat="42.703068" lon="-7.001135">
        <ele>962.989</ele>
        <time>2021-07-14T14:37:24Z</time>
      </trkpt>
      <trkpt lat="42.703061" lon="-7.001142">
        <ele>962.417</ele>
        <time>2021-07-14T14:37:39Z</time>
      </trkpt>
      <trkpt lat="42.703059" lon="-7.001145">
        <ele>961.408</ele>
        <time>2021-07-14T14:37:53Z</time>
      </trkpt>
      <trkpt lat="42.703059" lon="-7.001147">
        <ele>962.435</ele>
        <time>2021-07-14T14:38:07Z</time>
      </trkpt>
      <trkpt lat="42.703059" lon="-7.001142">
        <ele>962.467</ele>
        <time>2021-07-14T14:38:08Z</time>
      </trkpt>
      <trkpt lat="42.703020" lon="-7.001066">
        <ele>961.434</ele>
        <time>2021-07-14T14:38:16Z</time>
      </trkpt>
      <trkpt lat="42.703020" lon="-7.001068">
        <ele>960.934</ele>
        <time>2021-07-14T14:38:29Z</time>
      </trkpt>
      <trkpt lat="42.703011" lon="-7.001064">
        <ele>960.468</ele>
        <time>2021-07-14T14:38:36Z</time>
      </trkpt>
      <trkpt lat="42.702937" lon="-7.000998">
        <ele>960.456</ele>
        <time>2021-07-14T14:38:41Z</time>
      </trkpt>
      <trkpt lat="42.702760" lon="-7.000716">
        <ele>959.083</ele>
        <time>2021-07-14T14:38:47Z</time>
      </trkpt>
      <trkpt lat="42.702555" lon="-7.000323">
        <ele>957.131</ele>
        <time>2021-07-14T14:38:53Z</time>
      </trkpt>
      <trkpt lat="42.702544" lon="-7.000279">
        <ele>956.626</ele>
        <time>2021-07-14T14:38:54Z</time>
      </trkpt>
      <trkpt lat="42.702532" lon="-7.000169">
        <ele>955.647</ele>
        <time>2021-07-14T14:38:59Z</time>
      </trkpt>
      <trkpt lat="42.702537" lon="-7.000168">
        <ele>955.211</ele>
        <time>2021-07-14T14:39:07Z</time>
      </trkpt>
      <trkpt lat="42.702544" lon="-7.000166">
        <ele>954.708</ele>
        <time>2021-07-14T14:39:25Z</time>
      </trkpt>
      <trkpt lat="42.702539" lon="-7.000132">
        <ele>954.259</ele>
        <time>2021-07-14T14:39:32Z</time>
      </trkpt>
      <trkpt lat="42.702538" lon="-7.000123">
        <ele>954.261</ele>
        <time>2021-07-14T14:39:39Z</time>
      </trkpt>
      <trkpt lat="42.702533" lon="-7.000127">
        <ele>953.258</ele>
        <time>2021-07-14T14:39:53Z</time>
      </trkpt>
      <trkpt lat="42.702505" lon="-7.000140">
        <ele>953.228</ele>
        <time>2021-07-14T14:39:58Z</time>
      </trkpt>
      <trkpt lat="42.702490" lon="-7.000133">
        <ele>953.252</ele>
        <time>2021-07-14T14:39:59Z</time>
      </trkpt>
      <trkpt lat="42.702470" lon="-7.000123">
        <ele>953.260</ele>
        <time>2021-07-14T14:40:00Z</time>
      </trkpt>
      <trkpt lat="42.702448" lon="-7.000104">
        <ele>953.297</ele>
        <time>2021-07-14T14:40:01Z</time>
      </trkpt>
      <trkpt lat="42.702425" lon="-7.000082">
        <ele>953.295</ele>
        <time>2021-07-14T14:40:02Z</time>
      </trkpt>
      <trkpt lat="42.702401" lon="-7.000055">
        <ele>952.812</ele>
        <time>2021-07-14T14:40:03Z</time>
      </trkpt>
      <trkpt lat="42.702204" lon="-6.999792">
        <ele>950.832</ele>
        <time>2021-07-14T14:40:09Z</time>
      </trkpt>
      <trkpt lat="42.701902" lon="-6.999395">
        <ele>947.505</ele>
        <time>2021-07-14T14:40:15Z</time>
      </trkpt>
      <trkpt lat="42.701745" lon="-6.999265">
        <ele>946.008</ele>
        <time>2021-07-14T14:40:17Z</time>
      </trkpt>
      <trkpt lat="42.701656" lon="-6.999213">
        <ele>945.118</ele>
        <time>2021-07-14T14:40:18Z</time>
      </trkpt>
      <trkpt lat="42.701565" lon="-6.999173">
        <ele>944.140</ele>
        <time>2021-07-14T14:40:19Z</time>
      </trkpt>
      <trkpt lat="42.701463" lon="-6.999144">
        <ele>943.167</ele>
        <time>2021-07-14T14:40:20Z</time>
      </trkpt>
      <trkpt lat="42.701362" lon="-6.999129">
        <ele>942.267</ele>
        <time>2021-07-14T14:40:21Z</time>
      </trkpt>
      <trkpt lat="42.701260" lon="-6.999134">
        <ele>941.251</ele>
        <time>2021-07-14T14:40:22Z</time>
      </trkpt>
      <trkpt lat="42.701158" lon="-6.999152">
        <ele>940.399</ele>
        <time>2021-07-14T14:40:23Z</time>
      </trkpt>
      <trkpt lat="42.701051" lon="-6.999179">
        <ele>938.866</ele>
        <time>2021-07-14T14:40:24Z</time>
      </trkpt>
      <trkpt lat="42.700948" lon="-6.999217">
        <ele>937.974</ele>
        <time>2021-07-14T14:40:25Z</time>
      </trkpt>
      <trkpt lat="42.700845" lon="-6.999250">
        <ele>936.489</ele>
        <time>2021-07-14T14:40:26Z</time>
      </trkpt>
      <trkpt lat="42.700736" lon="-6.999274">
        <ele>935.006</ele>
        <time>2021-07-14T14:40:27Z</time>
      </trkpt>
      <trkpt lat="42.700616" lon="-6.999290">
        <ele>934.026</ele>
        <time>2021-07-14T14:40:28Z</time>
      </trkpt>
      <trkpt lat="42.700500" lon="-6.999289">
        <ele>933.108</ele>
        <time>2021-07-14T14:40:29Z</time>
      </trkpt>
      <trkpt lat="42.700386" lon="-6.999271">
        <ele>932.175</ele>
        <time>2021-07-14T14:40:30Z</time>
      </trkpt>
      <trkpt lat="42.700269" lon="-6.999249">
        <ele>931.157</ele>
        <time>2021-07-14T14:40:31Z</time>
      </trkpt>
      <trkpt lat="42.700152" lon="-6.999240">
        <ele>930.634</ele>
        <time>2021-07-14T14:40:32Z</time>
      </trkpt>
      <trkpt lat="42.700039" lon="-6.999249">
        <ele>929.724</ele>
        <time>2021-07-14T14:40:33Z</time>
      </trkpt>
      <trkpt lat="42.699929" lon="-6.999273">
        <ele>928.218</ele>
        <time>2021-07-14T14:40:34Z</time>
      </trkpt>
      <trkpt lat="42.699698" lon="-6.999388">
        <ele>926.326</ele>
        <time>2021-07-14T14:40:36Z</time>
      </trkpt>
      <trkpt lat="42.699492" lon="-6.999483">
        <ele>924.493</ele>
        <time>2021-07-14T14:40:38Z</time>
      </trkpt>
      <trkpt lat="42.699392" lon="-6.999501">
        <ele>923.081</ele>
        <time>2021-07-14T14:40:39Z</time>
      </trkpt>
      <trkpt lat="42.699285" lon="-6.999497">
        <ele>922.041</ele>
        <time>2021-07-14T14:40:40Z</time>
      </trkpt>
      <trkpt lat="42.699193" lon="-6.999465">
        <ele>921.081</ele>
        <time>2021-07-14T14:40:41Z</time>
      </trkpt>
      <trkpt lat="42.699109" lon="-6.999402">
        <ele>920.109</ele>
        <time>2021-07-14T14:40:42Z</time>
      </trkpt>
      <trkpt lat="42.699033" lon="-6.999308">
        <ele>919.108</ele>
        <time>2021-07-14T14:40:43Z</time>
      </trkpt>
      <trkpt lat="42.698965" lon="-6.999193">
        <ele>918.251</ele>
        <time>2021-07-14T14:40:44Z</time>
      </trkpt>
      <trkpt lat="42.698894" lon="-6.999059">
        <ele>916.723</ele>
        <time>2021-07-14T14:40:45Z</time>
      </trkpt>
      <trkpt lat="42.698827" lon="-6.998952">
        <ele>915.770</ele>
        <time>2021-07-14T14:40:46Z</time>
      </trkpt>
      <trkpt lat="42.698742" lon="-6.998839">
        <ele>914.850</ele>
        <time>2021-07-14T14:40:47Z</time>
      </trkpt>
      <trkpt lat="42.698256" lon="-6.998399">
        <ele>910.074</ele>
        <time>2021-07-14T14:40:52Z</time>
      </trkpt>
      <trkpt lat="42.697725" lon="-6.998179">
        <ele>905.722</ele>
        <time>2021-07-14T14:40:57Z</time>
      </trkpt>
      <trkpt lat="42.697016" lon="-6.997917">
        <ele>899.479</ele>
        <time>2021-07-14T14:41:03Z</time>
      </trkpt>
      <trkpt lat="42.696152" lon="-6.997549">
        <ele>890.857</ele>
        <time>2021-07-14T14:41:10Z</time>
      </trkpt>
      <trkpt lat="42.695315" lon="-6.997148">
        <ele>882.169</ele>
        <time>2021-07-14T14:41:17Z</time>
      </trkpt>
      <trkpt lat="42.695111" lon="-6.997001">
        <ele>879.704</ele>
        <time>2021-07-14T14:41:19Z</time>
      </trkpt>
      <trkpt lat="42.695018" lon="-6.996903">
        <ele>878.324</ele>
        <time>2021-07-14T14:41:20Z</time>
      </trkpt>
      <trkpt lat="42.694937" lon="-6.996799">
        <ele>877.308</ele>
        <time>2021-07-14T14:41:21Z</time>
      </trkpt>
      <trkpt lat="42.694860" lon="-6.996681">
        <ele>875.943</ele>
        <time>2021-07-14T14:41:22Z</time>
      </trkpt>
      <trkpt lat="42.694791" lon="-6.996556">
        <ele>874.415</ele>
        <time>2021-07-14T14:41:23Z</time>
      </trkpt>
      <trkpt lat="42.694732" lon="-6.996420">
        <ele>873.512</ele>
        <time>2021-07-14T14:41:24Z</time>
      </trkpt>
      <trkpt lat="42.694685" lon="-6.996287">
        <ele>872.512</ele>
        <time>2021-07-14T14:41:25Z</time>
      </trkpt>
      <trkpt lat="42.694591" lon="-6.996044">
        <ele>869.646</ele>
        <time>2021-07-14T14:41:27Z</time>
      </trkpt>
      <trkpt lat="42.694530" lon="-6.995939">
        <ele>868.684</ele>
        <time>2021-07-14T14:41:28Z</time>
      </trkpt>
      <trkpt lat="42.694455" lon="-6.995836">
        <ele>867.271</ele>
        <time>2021-07-14T14:41:29Z</time>
      </trkpt>
      <trkpt lat="42.694379" lon="-6.995748">
        <ele>866.299</ele>
        <time>2021-07-14T14:41:30Z</time>
      </trkpt>
      <trkpt lat="42.694294" lon="-6.995660">
        <ele>865.858</ele>
        <time>2021-07-14T14:41:31Z</time>
      </trkpt>
      <trkpt lat="42.694204" lon="-6.995580">
        <ele>864.852</ele>
        <time>2021-07-14T14:41:32Z</time>
      </trkpt>
      <trkpt lat="42.693675" lon="-6.995026">
        <ele>861.417</ele>
        <time>2021-07-14T14:41:38Z</time>
      </trkpt>
      <trkpt lat="42.693490" lon="-6.994839">
        <ele>860.008</ele>
        <time>2021-07-14T14:41:40Z</time>
      </trkpt>
      <trkpt lat="42.693393" lon="-6.994778">
        <ele>859.052</ele>
        <time>2021-07-14T14:41:41Z</time>
      </trkpt>
      <trkpt lat="42.693290" lon="-6.994733">
        <ele>858.594</ele>
        <time>2021-07-14T14:41:42Z</time>
      </trkpt>
      <trkpt lat="42.692469" lon="-6.994380">
        <ele>854.781</ele>
        <time>2021-07-14T14:41:50Z</time>
      </trkpt>
      <trkpt lat="42.692254" lon="-6.994299">
        <ele>853.741</ele>
        <time>2021-07-14T14:41:52Z</time>
      </trkpt>
      <trkpt lat="42.692148" lon="-6.994240">
        <ele>853.325</ele>
        <time>2021-07-14T14:41:53Z</time>
      </trkpt>
      <trkpt lat="42.692047" lon="-6.994167">
        <ele>852.853</ele>
        <time>2021-07-14T14:41:54Z</time>
      </trkpt>
      <trkpt lat="42.691950" lon="-6.994080">
        <ele>852.390</ele>
        <time>2021-07-14T14:41:55Z</time>
      </trkpt>
      <trkpt lat="42.691859" lon="-6.993980">
        <ele>851.898</ele>
        <time>2021-07-14T14:41:56Z</time>
      </trkpt>
      <trkpt lat="42.691774" lon="-6.993869">
        <ele>850.957</ele>
        <time>2021-07-14T14:41:57Z</time>
      </trkpt>
      <trkpt lat="42.691695" lon="-6.993751">
        <ele>850.400</ele>
        <time>2021-07-14T14:41:58Z</time>
      </trkpt>
      <trkpt lat="42.691523" lon="-6.993530">
        <ele>848.920</ele>
        <time>2021-07-14T14:42:00Z</time>
      </trkpt>
      <trkpt lat="42.691415" lon="-6.993450">
        <ele>848.508</ele>
        <time>2021-07-14T14:42:01Z</time>
      </trkpt>
      <trkpt lat="42.691307" lon="-6.993394">
        <ele>847.592</ele>
        <time>2021-07-14T14:42:02Z</time>
      </trkpt>
      <trkpt lat="42.690694" lon="-6.992966">
        <ele>843.244</ele>
        <time>2021-07-14T14:42:08Z</time>
      </trkpt>
      <trkpt lat="42.690439" lon="-6.992691">
        <ele>841.281</ele>
        <time>2021-07-14T14:42:11Z</time>
      </trkpt>
      <trkpt lat="42.690390" lon="-6.992586">
        <ele>840.841</ele>
        <time>2021-07-14T14:42:12Z</time>
      </trkpt>
      <trkpt lat="42.690360" lon="-6.992463">
        <ele>840.385</ele>
        <time>2021-07-14T14:42:13Z</time>
      </trkpt>
      <trkpt lat="42.690354" lon="-6.992348">
        <ele>839.893</ele>
        <time>2021-07-14T14:42:14Z</time>
      </trkpt>
      <trkpt lat="42.690364" lon="-6.992213">
        <ele>839.340</ele>
        <time>2021-07-14T14:42:15Z</time>
      </trkpt>
      <trkpt lat="42.690383" lon="-6.992095">
        <ele>838.848</ele>
        <time>2021-07-14T14:42:16Z</time>
      </trkpt>
      <trkpt lat="42.690409" lon="-6.991969">
        <ele>838.893</ele>
        <time>2021-07-14T14:42:17Z</time>
      </trkpt>
      <trkpt lat="42.690541" lon="-6.991337">
        <ele>836.965</ele>
        <time>2021-07-14T14:42:22Z</time>
      </trkpt>
      <trkpt lat="42.690591" lon="-6.991232">
        <ele>836.921</ele>
        <time>2021-07-14T14:42:23Z</time>
      </trkpt>
      <trkpt lat="42.690661" lon="-6.991135">
        <ele>836.908</ele>
        <time>2021-07-14T14:42:24Z</time>
      </trkpt>
      <trkpt lat="42.690740" lon="-6.991056">
        <ele>836.986</ele>
        <time>2021-07-14T14:42:25Z</time>
      </trkpt>
      <trkpt lat="42.690827" lon="-6.990993">
        <ele>836.918</ele>
        <time>2021-07-14T14:42:26Z</time>
      </trkpt>
      <trkpt lat="42.690927" lon="-6.990947">
        <ele>836.955</ele>
        <time>2021-07-14T14:42:27Z</time>
      </trkpt>
      <trkpt lat="42.691010" lon="-6.990923">
        <ele>836.935</ele>
        <time>2021-07-14T14:42:28Z</time>
      </trkpt>
      <trkpt lat="42.691102" lon="-6.990894">
        <ele>836.969</ele>
        <time>2021-07-14T14:42:29Z</time>
      </trkpt>
      <trkpt lat="42.691176" lon="-6.990855">
        <ele>836.457</ele>
        <time>2021-07-14T14:42:30Z</time>
      </trkpt>
      <trkpt lat="42.691248" lon="-6.990794">
        <ele>836.474</ele>
        <time>2021-07-14T14:42:31Z</time>
      </trkpt>
      <trkpt lat="42.691319" lon="-6.990709">
        <ele>836.092</ele>
        <time>2021-07-14T14:42:32Z</time>
      </trkpt>
      <trkpt lat="42.691373" lon="-6.990619">
        <ele>836.026</ele>
        <time>2021-07-14T14:42:33Z</time>
      </trkpt>
      <trkpt lat="42.691417" lon="-6.990526">
        <ele>835.547</ele>
        <time>2021-07-14T14:42:34Z</time>
      </trkpt>
      <trkpt lat="42.691449" lon="-6.990436">
        <ele>835.011</ele>
        <time>2021-07-14T14:42:35Z</time>
      </trkpt>
      <trkpt lat="42.691465" lon="-6.990328">
        <ele>834.508</ele>
        <time>2021-07-14T14:42:36Z</time>
      </trkpt>
      <trkpt lat="42.691451" lon="-6.990244">
        <ele>834.039</ele>
        <time>2021-07-14T14:42:37Z</time>
      </trkpt>
      <trkpt lat="42.691409" lon="-6.990177">
        <ele>833.661</ele>
        <time>2021-07-14T14:42:38Z</time>
      </trkpt>
      <trkpt lat="42.691335" lon="-6.990133">
        <ele>833.158</ele>
        <time>2021-07-14T14:42:39Z</time>
      </trkpt>
      <trkpt lat="42.691258" lon="-6.990127">
        <ele>833.118</ele>
        <time>2021-07-14T14:42:40Z</time>
      </trkpt>
      <trkpt lat="42.691189" lon="-6.990147">
        <ele>832.662</ele>
        <time>2021-07-14T14:42:41Z</time>
      </trkpt>
      <trkpt lat="42.691108" lon="-6.990196">
        <ele>832.620</ele>
        <time>2021-07-14T14:42:42Z</time>
      </trkpt>
      <trkpt lat="42.691041" lon="-6.990239">
        <ele>832.167</ele>
        <time>2021-07-14T14:42:43Z</time>
      </trkpt>
      <trkpt lat="42.690961" lon="-6.990278">
        <ele>831.685</ele>
        <time>2021-07-14T14:42:44Z</time>
      </trkpt>
      <trkpt lat="42.690883" lon="-6.990304">
        <ele>831.285</ele>
        <time>2021-07-14T14:42:45Z</time>
      </trkpt>
      <trkpt lat="42.690804" lon="-6.990322">
        <ele>831.289</ele>
        <time>2021-07-14T14:42:46Z</time>
      </trkpt>
      <trkpt lat="42.690287" lon="-6.990523">
        <ele>828.317</ele>
        <time>2021-07-14T14:42:53Z</time>
      </trkpt>
      <trkpt lat="42.689719" lon="-6.990995">
        <ele>824.408</ele>
        <time>2021-07-14T14:43:02Z</time>
      </trkpt>
      <trkpt lat="42.689107" lon="-6.991720">
        <ele>822.045</ele>
        <time>2021-07-14T14:43:13Z</time>
      </trkpt>
      <trkpt lat="42.689044" lon="-6.991789">
        <ele>821.597</ele>
        <time>2021-07-14T14:43:14Z</time>
      </trkpt>
      <trkpt lat="42.688851" lon="-6.991956">
        <ele>820.644</ele>
        <time>2021-07-14T14:43:17Z</time>
      </trkpt>
      <trkpt lat="42.688773" lon="-6.991996">
        <ele>820.684</ele>
        <time>2021-07-14T14:43:18Z</time>
      </trkpt>
      <trkpt lat="42.688698" lon="-6.992026">
        <ele>820.198</ele>
        <time>2021-07-14T14:43:19Z</time>
      </trkpt>
      <trkpt lat="42.688621" lon="-6.992050">
        <ele>820.196</ele>
        <time>2021-07-14T14:43:20Z</time>
      </trkpt>
      <trkpt lat="42.688543" lon="-6.992067">
        <ele>820.193</ele>
        <time>2021-07-14T14:43:21Z</time>
      </trkpt>
      <trkpt lat="42.688457" lon="-6.992081">
        <ele>819.621</ele>
        <time>2021-07-14T14:43:22Z</time>
      </trkpt>
      <trkpt lat="42.688030" lon="-6.992048">
        <ele>816.722</ele>
        <time>2021-07-14T14:43:27Z</time>
      </trkpt>
      <trkpt lat="42.687802" lon="-6.991952">
        <ele>814.362</ele>
        <time>2021-07-14T14:43:31Z</time>
      </trkpt>
      <trkpt lat="42.687646" lon="-6.991836">
        <ele>813.408</ele>
        <time>2021-07-14T14:43:37Z</time>
      </trkpt>
      <trkpt lat="42.687641" lon="-6.991830">
        <ele>812.408</ele>
        <time>2021-07-14T14:43:42Z</time>
      </trkpt>
      <trkpt lat="42.687642" lon="-6.991829">
        <ele>811.929</ele>
        <time>2021-07-14T14:44:02Z</time>
      </trkpt>
      <trkpt lat="42.687629" lon="-6.991819">
        <ele>811.451</ele>
        <time>2021-07-14T14:44:16Z</time>
      </trkpt>
      <trkpt lat="42.687546" lon="-6.991732">
        <ele>811.498</ele>
        <time>2021-07-14T14:44:21Z</time>
      </trkpt>
      <trkpt lat="42.687342" lon="-6.991503">
        <ele>810.548</ele>
        <time>2021-07-14T14:44:27Z</time>
      </trkpt>
      <trkpt lat="42.687048" lon="-6.991071">
        <ele>808.622</ele>
        <time>2021-07-14T14:44:34Z</time>
      </trkpt>
      <trkpt lat="42.687004" lon="-6.991019">
        <ele>808.190</ele>
        <time>2021-07-14T14:44:35Z</time>
      </trkpt>
      <trkpt lat="42.686945" lon="-6.990961">
        <ele>807.677</ele>
        <time>2021-07-14T14:44:36Z</time>
      </trkpt>
      <trkpt lat="42.686889" lon="-6.990916">
        <ele>807.195</ele>
        <time>2021-07-14T14:44:37Z</time>
      </trkpt>
      <trkpt lat="42.686822" lon="-6.990873">
        <ele>806.635</ele>
        <time>2021-07-14T14:44:38Z</time>
      </trkpt>
      <trkpt lat="42.686758" lon="-6.990834">
        <ele>806.286</ele>
        <time>2021-07-14T14:44:39Z</time>
      </trkpt>
      <trkpt lat="42.686213" lon="-6.990586">
        <ele>803.314</ele>
        <time>2021-07-14T14:44:46Z</time>
      </trkpt>
      <trkpt lat="42.685514" lon="-6.990286">
        <ele>799.408</ele>
        <time>2021-07-14T14:44:54Z</time>
      </trkpt>
      <trkpt lat="42.684910" lon="-6.989836">
        <ele>796.570</ele>
        <time>2021-07-14T14:45:01Z</time>
      </trkpt>
      <trkpt lat="42.684682" lon="-6.989648">
        <ele>795.172</ele>
        <time>2021-07-14T14:45:04Z</time>
      </trkpt>
      <trkpt lat="42.684599" lon="-6.989603">
        <ele>794.669</ele>
        <time>2021-07-14T14:45:05Z</time>
      </trkpt>
      <trkpt lat="42.684509" lon="-6.989570">
        <ele>794.159</ele>
        <time>2021-07-14T14:45:06Z</time>
      </trkpt>
      <trkpt lat="42.684417" lon="-6.989545">
        <ele>793.733</ele>
        <time>2021-07-14T14:45:07Z</time>
      </trkpt>
      <trkpt lat="42.684335" lon="-6.989531">
        <ele>793.221</ele>
        <time>2021-07-14T14:45:08Z</time>
      </trkpt>
      <trkpt lat="42.684243" lon="-6.989523">
        <ele>793.288</ele>
        <time>2021-07-14T14:45:09Z</time>
      </trkpt>
      <trkpt lat="42.684154" lon="-6.989519">
        <ele>792.736</ele>
        <time>2021-07-14T14:45:10Z</time>
      </trkpt>
      <trkpt lat="42.683720" lon="-6.989509">
        <ele>791.389</ele>
        <time>2021-07-14T14:45:15Z</time>
      </trkpt>
      <trkpt lat="42.683639" lon="-6.989534">
        <ele>791.306</ele>
        <time>2021-07-14T14:45:16Z</time>
      </trkpt>
      <trkpt lat="42.683423" lon="-6.989633">
        <ele>791.726</ele>
        <time>2021-07-14T14:45:19Z</time>
      </trkpt>
      <trkpt lat="42.683299" lon="-6.989720">
        <ele>791.708</ele>
        <time>2021-07-14T14:45:21Z</time>
      </trkpt>
      <trkpt lat="42.683240" lon="-6.989775">
        <ele>791.755</ele>
        <time>2021-07-14T14:45:22Z</time>
      </trkpt>
      <trkpt lat="42.683180" lon="-6.989844">
        <ele>791.747</ele>
        <time>2021-07-14T14:45:23Z</time>
      </trkpt>
      <trkpt lat="42.683005" lon="-6.990043">
        <ele>791.384</ele>
        <time>2021-07-14T14:45:26Z</time>
      </trkpt>
      <trkpt lat="42.682928" lon="-6.990077">
        <ele>790.874</ele>
        <time>2021-07-14T14:45:27Z</time>
      </trkpt>
      <trkpt lat="42.682845" lon="-6.990079">
        <ele>790.828</ele>
        <time>2021-07-14T14:45:28Z</time>
      </trkpt>
      <trkpt lat="42.682758" lon="-6.990054">
        <ele>790.356</ele>
        <time>2021-07-14T14:45:29Z</time>
      </trkpt>
      <trkpt lat="42.682670" lon="-6.990014">
        <ele>789.863</ele>
        <time>2021-07-14T14:45:30Z</time>
      </trkpt>
      <trkpt lat="42.682575" lon="-6.989970">
        <ele>789.361</ele>
        <time>2021-07-14T14:45:31Z</time>
      </trkpt>
      <trkpt lat="42.682124" lon="-6.989861">
        <ele>787.999</ele>
        <time>2021-07-14T14:45:36Z</time>
      </trkpt>
      <trkpt lat="42.682037" lon="-6.989864">
        <ele>787.407</ele>
        <time>2021-07-14T14:45:37Z</time>
      </trkpt>
      <trkpt lat="42.681950" lon="-6.989878">
        <ele>786.927</ele>
        <time>2021-07-14T14:45:38Z</time>
      </trkpt>
      <trkpt lat="42.681863" lon="-6.989905">
        <ele>786.508</ele>
        <time>2021-07-14T14:45:39Z</time>
      </trkpt>
      <trkpt lat="42.681780" lon="-6.989953">
        <ele>786.596</ele>
        <time>2021-07-14T14:45:40Z</time>
      </trkpt>
      <trkpt lat="42.681705" lon="-6.990021">
        <ele>786.088</ele>
        <time>2021-07-14T14:45:41Z</time>
      </trkpt>
      <trkpt lat="42.681639" lon="-6.990098">
        <ele>786.055</ele>
        <time>2021-07-14T14:45:42Z</time>
      </trkpt>
      <trkpt lat="42.681575" lon="-6.990179">
        <ele>785.525</ele>
        <time>2021-07-14T14:45:43Z</time>
      </trkpt>
      <trkpt lat="42.681433" lon="-6.990323">
        <ele>785.049</ele>
        <time>2021-07-14T14:45:45Z</time>
      </trkpt>
      <trkpt lat="42.681349" lon="-6.990371">
        <ele>784.567</ele>
        <time>2021-07-14T14:45:46Z</time>
      </trkpt>
      <trkpt lat="42.681260" lon="-6.990406">
        <ele>784.084</ele>
        <time>2021-07-14T14:45:47Z</time>
      </trkpt>
      <trkpt lat="42.680992" lon="-6.990460">
        <ele>783.192</ele>
        <time>2021-07-14T14:45:50Z</time>
      </trkpt>
      <trkpt lat="42.680915" lon="-6.990496">
        <ele>783.171</ele>
        <time>2021-07-14T14:45:51Z</time>
      </trkpt>
      <trkpt lat="42.680852" lon="-6.990564">
        <ele>782.641</ele>
        <time>2021-07-14T14:45:52Z</time>
      </trkpt>
      <trkpt lat="42.680812" lon="-6.990655">
        <ele>782.115</ele>
        <time>2021-07-14T14:45:53Z</time>
      </trkpt>
      <trkpt lat="42.680794" lon="-6.990761">
        <ele>781.608</ele>
        <time>2021-07-14T14:45:54Z</time>
      </trkpt>
      <trkpt lat="42.680786" lon="-6.990873">
        <ele>781.254</ele>
        <time>2021-07-14T14:45:55Z</time>
      </trkpt>
      <trkpt lat="42.680771" lon="-6.990981">
        <ele>781.236</ele>
        <time>2021-07-14T14:45:56Z</time>
      </trkpt>
      <trkpt lat="42.680746" lon="-6.991084">
        <ele>780.753</ele>
        <time>2021-07-14T14:45:57Z</time>
      </trkpt>
      <trkpt lat="42.680702" lon="-6.991185">
        <ele>780.763</ele>
        <time>2021-07-14T14:45:58Z</time>
      </trkpt>
      <trkpt lat="42.680646" lon="-6.991271">
        <ele>780.727</ele>
        <time>2021-07-14T14:45:59Z</time>
      </trkpt>
      <trkpt lat="42.680582" lon="-6.991350">
        <ele>780.235</ele>
        <time>2021-07-14T14:46:00Z</time>
      </trkpt>
      <trkpt lat="42.680510" lon="-6.991422">
        <ele>779.772</ele>
        <time>2021-07-14T14:46:01Z</time>
      </trkpt>
      <trkpt lat="42.680437" lon="-6.991498">
        <ele>779.220</ele>
        <time>2021-07-14T14:46:02Z</time>
      </trkpt>
      <trkpt lat="42.680367" lon="-6.991585">
        <ele>778.818</ele>
        <time>2021-07-14T14:46:03Z</time>
      </trkpt>
      <trkpt lat="42.680302" lon="-6.991685">
        <ele>778.398</ele>
        <time>2021-07-14T14:46:04Z</time>
      </trkpt>
      <trkpt lat="42.680245" lon="-6.991794">
        <ele>777.817</ele>
        <time>2021-07-14T14:46:05Z</time>
      </trkpt>
      <trkpt lat="42.680187" lon="-6.991917">
        <ele>777.308</ele>
        <time>2021-07-14T14:46:06Z</time>
      </trkpt>
      <trkpt lat="42.680127" lon="-6.992030">
        <ele>776.868</ele>
        <time>2021-07-14T14:46:07Z</time>
      </trkpt>
      <trkpt lat="42.680060" lon="-6.992135">
        <ele>776.480</ele>
        <time>2021-07-14T14:46:08Z</time>
      </trkpt>
      <trkpt lat="42.679983" lon="-6.992232">
        <ele>775.987</ele>
        <time>2021-07-14T14:46:09Z</time>
      </trkpt>
      <trkpt lat="42.679901" lon="-6.992322">
        <ele>774.917</ele>
        <time>2021-07-14T14:46:10Z</time>
      </trkpt>
      <trkpt lat="42.679814" lon="-6.992403">
        <ele>774.431</ele>
        <time>2021-07-14T14:46:11Z</time>
      </trkpt>
      <trkpt lat="42.679452" lon="-6.992723">
        <ele>772.079</ele>
        <time>2021-07-14T14:46:15Z</time>
      </trkpt>
      <trkpt lat="42.679354" lon="-6.992779">
        <ele>771.176</ele>
        <time>2021-07-14T14:46:16Z</time>
      </trkpt>
      <trkpt lat="42.679248" lon="-6.992817">
        <ele>770.614</ele>
        <time>2021-07-14T14:46:17Z</time>
      </trkpt>
      <trkpt lat="42.678794" lon="-6.992874">
        <ele>766.745</ele>
        <time>2021-07-14T14:46:21Z</time>
      </trkpt>
      <trkpt lat="42.678679" lon="-6.992861">
        <ele>765.847</ele>
        <time>2021-07-14T14:46:22Z</time>
      </trkpt>
      <trkpt lat="42.678558" lon="-6.992836">
        <ele>764.811</ele>
        <time>2021-07-14T14:46:23Z</time>
      </trkpt>
      <trkpt lat="42.678444" lon="-6.992804">
        <ele>763.908</ele>
        <time>2021-07-14T14:46:24Z</time>
      </trkpt>
      <trkpt lat="42.678330" lon="-6.992768">
        <ele>763.431</ele>
        <time>2021-07-14T14:46:25Z</time>
      </trkpt>
      <trkpt lat="42.677688" lon="-6.992495">
        <ele>760.043</ele>
        <time>2021-07-14T14:46:31Z</time>
      </trkpt>
      <trkpt lat="42.677112" lon="-6.992123">
        <ele>758.170</ele>
        <time>2021-07-14T14:46:37Z</time>
      </trkpt>
      <trkpt lat="42.676533" lon="-6.991588">
        <ele>756.240</ele>
        <time>2021-07-14T14:46:44Z</time>
      </trkpt>
      <trkpt lat="42.676204" lon="-6.991346">
        <ele>755.794</ele>
        <time>2021-07-14T14:46:48Z</time>
      </trkpt>
      <trkpt lat="42.676119" lon="-6.991308">
        <ele>755.792</ele>
        <time>2021-07-14T14:46:49Z</time>
      </trkpt>
      <trkpt lat="42.676034" lon="-6.991277">
        <ele>755.259</ele>
        <time>2021-07-14T14:46:50Z</time>
      </trkpt>
      <trkpt lat="42.675950" lon="-6.991256">
        <ele>755.257</ele>
        <time>2021-07-14T14:46:51Z</time>
      </trkpt>
      <trkpt lat="42.675867" lon="-6.991240">
        <ele>754.723</ele>
        <time>2021-07-14T14:46:52Z</time>
      </trkpt>
      <trkpt lat="42.675331" lon="-6.991223">
        <ele>753.883</ele>
        <time>2021-07-14T14:46:59Z</time>
      </trkpt>
      <trkpt lat="42.674877" lon="-6.991286">
        <ele>752.311</ele>
        <time>2021-07-14T14:47:06Z</time>
      </trkpt>
      <trkpt lat="42.674810" lon="-6.991267">
        <ele>752.308</ele>
        <time>2021-07-14T14:47:07Z</time>
      </trkpt>
      <trkpt lat="42.674748" lon="-6.991223">
        <ele>751.869</ele>
        <time>2021-07-14T14:47:08Z</time>
      </trkpt>
      <trkpt lat="42.674694" lon="-6.991159">
        <ele>751.451</ele>
        <time>2021-07-14T14:47:09Z</time>
      </trkpt>
      <trkpt lat="42.674653" lon="-6.991071">
        <ele>750.978</ele>
        <time>2021-07-14T14:47:10Z</time>
      </trkpt>
      <trkpt lat="42.674628" lon="-6.990978">
        <ele>750.958</ele>
        <time>2021-07-14T14:47:11Z</time>
      </trkpt>
      <trkpt lat="42.674615" lon="-6.990881">
        <ele>750.442</ele>
        <time>2021-07-14T14:47:12Z</time>
      </trkpt>
      <trkpt lat="42.674614" lon="-6.990779">
        <ele>749.910</ele>
        <time>2021-07-14T14:47:13Z</time>
      </trkpt>
      <trkpt lat="42.674619" lon="-6.990668">
        <ele>749.927</ele>
        <time>2021-07-14T14:47:14Z</time>
      </trkpt>
      <trkpt lat="42.674628" lon="-6.990561">
        <ele>749.485</ele>
        <time>2021-07-14T14:47:15Z</time>
      </trkpt>
      <trkpt lat="42.674651" lon="-6.989929">
        <ele>747.569</ele>
        <time>2021-07-14T14:47:21Z</time>
      </trkpt>
      <trkpt lat="42.674674" lon="-6.989494">
        <ele>746.104</ele>
        <time>2021-07-14T14:47:25Z</time>
      </trkpt>
      <trkpt lat="42.674664" lon="-6.989389">
        <ele>745.624</ele>
        <time>2021-07-14T14:47:26Z</time>
      </trkpt>
      <trkpt lat="42.674638" lon="-6.989277">
        <ele>744.608</ele>
        <time>2021-07-14T14:47:27Z</time>
      </trkpt>
      <trkpt lat="42.674599" lon="-6.989179">
        <ele>744.263</ele>
        <time>2021-07-14T14:47:28Z</time>
      </trkpt>
      <trkpt lat="42.674552" lon="-6.989089">
        <ele>743.725</ele>
        <time>2021-07-14T14:47:29Z</time>
      </trkpt>
      <trkpt lat="42.674412" lon="-6.988814">
        <ele>742.732</ele>
        <time>2021-07-14T14:47:32Z</time>
      </trkpt>
      <trkpt lat="42.674379" lon="-6.988716">
        <ele>742.232</ele>
        <time>2021-07-14T14:47:33Z</time>
      </trkpt>
      <trkpt lat="42.674353" lon="-6.988615">
        <ele>741.776</ele>
        <time>2021-07-14T14:47:34Z</time>
      </trkpt>
      <trkpt lat="42.674343" lon="-6.988508">
        <ele>741.354</ele>
        <time>2021-07-14T14:47:35Z</time>
      </trkpt>
      <trkpt lat="42.674350" lon="-6.988401">
        <ele>741.391</ele>
        <time>2021-07-14T14:47:36Z</time>
      </trkpt>
      <trkpt lat="42.674372" lon="-6.988298">
        <ele>740.879</ele>
        <time>2021-07-14T14:47:37Z</time>
      </trkpt>
      <trkpt lat="42.674400" lon="-6.988184">
        <ele>740.323</ele>
        <time>2021-07-14T14:47:38Z</time>
      </trkpt>
      <trkpt lat="42.674420" lon="-6.988072">
        <ele>740.383</ele>
        <time>2021-07-14T14:47:39Z</time>
      </trkpt>
      <trkpt lat="42.674432" lon="-6.987954">
        <ele>739.811</ele>
        <time>2021-07-14T14:47:40Z</time>
      </trkpt>
      <trkpt lat="42.674435" lon="-6.987826">
        <ele>739.308</ele>
        <time>2021-07-14T14:47:41Z</time>
      </trkpt>
      <trkpt lat="42.674430" lon="-6.987707">
        <ele>739.359</ele>
        <time>2021-07-14T14:47:42Z</time>
      </trkpt>
      <trkpt lat="42.674416" lon="-6.987590">
        <ele>738.911</ele>
        <time>2021-07-14T14:47:43Z</time>
      </trkpt>
      <trkpt lat="42.674399" lon="-6.987472">
        <ele>738.918</ele>
        <time>2021-07-14T14:47:44Z</time>
      </trkpt>
      <trkpt lat="42.674213" lon="-6.986700">
        <ele>735.558</ele>
        <time>2021-07-14T14:47:51Z</time>
      </trkpt>
      <trkpt lat="42.673906" lon="-6.985795">
        <ele>732.682</ele>
        <time>2021-07-14T14:48:00Z</time>
      </trkpt>
      <trkpt lat="42.673826" lon="-6.985618">
        <ele>732.170</ele>
        <time>2021-07-14T14:48:02Z</time>
      </trkpt>
      <trkpt lat="42.673776" lon="-6.985539">
        <ele>731.757</ele>
        <time>2021-07-14T14:48:03Z</time>
      </trkpt>
      <trkpt lat="42.673718" lon="-6.985462">
        <ele>731.795</ele>
        <time>2021-07-14T14:48:04Z</time>
      </trkpt>
      <trkpt lat="42.673548" lon="-6.985241">
        <ele>730.786</ele>
        <time>2021-07-14T14:48:07Z</time>
      </trkpt>
      <trkpt lat="42.673497" lon="-6.985147">
        <ele>730.260</ele>
        <time>2021-07-14T14:48:08Z</time>
      </trkpt>
      <trkpt lat="42.673454" lon="-6.985050">
        <ele>729.726</ele>
        <time>2021-07-14T14:48:09Z</time>
      </trkpt>
      <trkpt lat="42.673330" lon="-6.984751">
        <ele>728.808</ele>
        <time>2021-07-14T14:48:12Z</time>
      </trkpt>
      <trkpt lat="42.673281" lon="-6.984664">
        <ele>728.335</ele>
        <time>2021-07-14T14:48:13Z</time>
      </trkpt>
      <trkpt lat="42.673225" lon="-6.984582">
        <ele>727.847</ele>
        <time>2021-07-14T14:48:14Z</time>
      </trkpt>
      <trkpt lat="42.672611" lon="-6.983872">
        <ele>724.084</ele>
        <time>2021-07-14T14:48:23Z</time>
      </trkpt>
      <trkpt lat="42.672546" lon="-6.983776">
        <ele>723.514</ele>
        <time>2021-07-14T14:48:24Z</time>
      </trkpt>
      <trkpt lat="42.672497" lon="-6.983671">
        <ele>723.538</ele>
        <time>2021-07-14T14:48:25Z</time>
      </trkpt>
      <trkpt lat="42.672459" lon="-6.983555">
        <ele>723.056</ele>
        <time>2021-07-14T14:48:26Z</time>
      </trkpt>
      <trkpt lat="42.672428" lon="-6.983439">
        <ele>722.513</ele>
        <time>2021-07-14T14:48:27Z</time>
      </trkpt>
      <trkpt lat="42.672400" lon="-6.983304">
        <ele>722.061</ele>
        <time>2021-07-14T14:48:28Z</time>
      </trkpt>
      <trkpt lat="42.672378" lon="-6.983176">
        <ele>721.184</ele>
        <time>2021-07-14T14:48:29Z</time>
      </trkpt>
      <trkpt lat="42.672265" lon="-6.982276">
        <ele>716.807</ele>
        <time>2021-07-14T14:48:36Z</time>
      </trkpt>
      <trkpt lat="42.672116" lon="-6.980915">
        <ele>712.917</ele>
        <time>2021-07-14T14:48:46Z</time>
      </trkpt>
      <trkpt lat="42.671976" lon="-6.979893">
        <ele>709.508</ele>
        <time>2021-07-14T14:48:54Z</time>
      </trkpt>
      <trkpt lat="42.671983" lon="-6.979763">
        <ele>708.685</ele>
        <time>2021-07-14T14:48:55Z</time>
      </trkpt>
      <trkpt lat="42.672010" lon="-6.979666">
        <ele>708.157</ele>
        <time>2021-07-14T14:48:56Z</time>
      </trkpt>
      <trkpt lat="42.672061" lon="-6.979560">
        <ele>707.694</ele>
        <time>2021-07-14T14:48:57Z</time>
      </trkpt>
      <trkpt lat="42.672110" lon="-6.979469">
        <ele>707.154</ele>
        <time>2021-07-14T14:48:58Z</time>
      </trkpt>
      <trkpt lat="42.672158" lon="-6.979362">
        <ele>706.768</ele>
        <time>2021-07-14T14:48:59Z</time>
      </trkpt>
      <trkpt lat="42.672208" lon="-6.979242">
        <ele>706.286</ele>
        <time>2021-07-14T14:49:00Z</time>
      </trkpt>
      <trkpt lat="42.672255" lon="-6.979153">
        <ele>705.743</ele>
        <time>2021-07-14T14:49:01Z</time>
      </trkpt>
      <trkpt lat="42.672322" lon="-6.979075">
        <ele>705.261</ele>
        <time>2021-07-14T14:49:02Z</time>
      </trkpt>
      <trkpt lat="42.672389" lon="-6.979040">
        <ele>704.744</ele>
        <time>2021-07-14T14:49:03Z</time>
      </trkpt>
      <trkpt lat="42.672466" lon="-6.979037">
        <ele>704.305</ele>
        <time>2021-07-14T14:49:04Z</time>
      </trkpt>
      <trkpt lat="42.672545" lon="-6.979064">
        <ele>703.815</ele>
        <time>2021-07-14T14:49:05Z</time>
      </trkpt>
      <trkpt lat="42.672624" lon="-6.979106">
        <ele>703.308</ele>
        <time>2021-07-14T14:49:06Z</time>
      </trkpt>
      <trkpt lat="42.672870" lon="-6.979188">
        <ele>701.961</ele>
        <time>2021-07-14T14:49:09Z</time>
      </trkpt>
      <trkpt lat="42.672933" lon="-6.979168">
        <ele>701.433</ele>
        <time>2021-07-14T14:49:10Z</time>
      </trkpt>
      <trkpt lat="42.672992" lon="-6.979111">
        <ele>701.480</ele>
        <time>2021-07-14T14:49:11Z</time>
      </trkpt>
      <trkpt lat="42.673024" lon="-6.979035">
        <ele>700.930</ele>
        <time>2021-07-14T14:49:12Z</time>
      </trkpt>
      <trkpt lat="42.673031" lon="-6.978933">
        <ele>700.484</ele>
        <time>2021-07-14T14:49:13Z</time>
      </trkpt>
      <trkpt lat="42.673011" lon="-6.978841">
        <ele>700.442</ele>
        <time>2021-07-14T14:49:14Z</time>
      </trkpt>
      <trkpt lat="42.672966" lon="-6.978751">
        <ele>700.489</ele>
        <time>2021-07-14T14:49:15Z</time>
      </trkpt>
      <trkpt lat="42.672915" lon="-6.978680">
        <ele>699.987</ele>
        <time>2021-07-14T14:49:16Z</time>
      </trkpt>
      <trkpt lat="42.672853" lon="-6.978601">
        <ele>699.946</ele>
        <time>2021-07-14T14:49:17Z</time>
      </trkpt>
      <trkpt lat="42.672578" lon="-6.978136">
        <ele>698.088</ele>
        <time>2021-07-14T14:49:23Z</time>
      </trkpt>
      <trkpt lat="42.672540" lon="-6.978034">
        <ele>697.516</ele>
        <time>2021-07-14T14:49:24Z</time>
      </trkpt>
      <trkpt lat="42.672514" lon="-6.977948">
        <ele>697.008</ele>
        <time>2021-07-14T14:49:25Z</time>
      </trkpt>
      <trkpt lat="42.672488" lon="-6.977837">
        <ele>696.631</ele>
        <time>2021-07-14T14:49:26Z</time>
      </trkpt>
      <trkpt lat="42.672471" lon="-6.977739">
        <ele>696.623</ele>
        <time>2021-07-14T14:49:27Z</time>
      </trkpt>
      <trkpt lat="42.672459" lon="-6.977657">
        <ele>696.190</ele>
        <time>2021-07-14T14:49:28Z</time>
      </trkpt>
      <trkpt lat="42.672431" lon="-6.977463">
        <ele>695.680</ele>
        <time>2021-07-14T14:49:31Z</time>
      </trkpt>
      <trkpt lat="42.672416" lon="-6.977417">
        <ele>695.674</ele>
        <time>2021-07-14T14:49:32Z</time>
      </trkpt>
      <trkpt lat="42.672405" lon="-6.977389">
        <ele>695.172</ele>
        <time>2021-07-14T14:49:33Z</time>
      </trkpt>
      <trkpt lat="42.672399" lon="-6.977383">
        <ele>695.139</ele>
        <time>2021-07-14T14:49:37Z</time>
      </trkpt>
      <trkpt lat="42.672399" lon="-6.977390">
        <ele>696.167</ele>
        <time>2021-07-14T14:49:49Z</time>
      </trkpt>
      <trkpt lat="42.672405" lon="-6.977412">
        <ele>697.532</ele>
        <time>2021-07-14T14:50:03Z</time>
      </trkpt>
      <trkpt lat="42.672401" lon="-6.977426">
        <ele>698.592</ele>
        <time>2021-07-14T14:50:21Z</time>
      </trkpt>
      <trkpt lat="42.672409" lon="-6.977442">
        <ele>699.911</ele>
        <time>2021-07-14T14:50:36Z</time>
      </trkpt>
      <trkpt lat="42.672410" lon="-6.977451">
        <ele>701.408</ele>
        <time>2021-07-14T14:50:51Z</time>
      </trkpt>
      <trkpt lat="42.672402" lon="-6.977448">
        <ele>702.890</ele>
        <time>2021-07-14T14:51:06Z</time>
      </trkpt>
      <trkpt lat="42.672397" lon="-6.977443">
        <ele>702.852</ele>
        <time>2021-07-14T14:51:20Z</time>
      </trkpt>
      <trkpt lat="42.672395" lon="-6.977448">
        <ele>702.319</ele>
        <time>2021-07-14T14:51:33Z</time>
      </trkpt>
      <trkpt lat="42.672398" lon="-6.977441">
        <ele>701.459</ele>
        <time>2021-07-14T14:51:46Z</time>
      </trkpt>
      <trkpt lat="42.672394" lon="-6.977419">
        <ele>699.043</ele>
        <time>2021-07-14T14:52:01Z</time>
      </trkpt>
      <trkpt lat="42.672389" lon="-6.977416">
        <ele>699.591</ele>
        <time>2021-07-14T14:52:17Z</time>
      </trkpt>
      <trkpt lat="42.672386" lon="-6.977418">
        <ele>699.538</ele>
        <time>2021-07-14T14:52:28Z</time>
      </trkpt>
      <trkpt lat="42.672374" lon="-6.977424">
        <ele>699.596</ele>
        <time>2021-07-14T14:52:41Z</time>
      </trkpt>
      <trkpt lat="42.672371" lon="-6.977437">
        <ele>699.033</ele>
        <time>2021-07-14T14:52:52Z</time>
      </trkpt>
      <trkpt lat="42.672377" lon="-6.977420">
        <ele>697.523</ele>
        <time>2021-07-14T14:53:03Z</time>
      </trkpt>
      <trkpt lat="42.672381" lon="-6.977424">
        <ele>697.015</ele>
        <time>2021-07-14T14:53:16Z</time>
      </trkpt>
      <trkpt lat="42.672387" lon="-6.977415">
        <ele>698.508</ele>
        <time>2021-07-14T14:53:31Z</time>
      </trkpt>
      <trkpt lat="42.672389" lon="-6.977406">
        <ele>699.040</ele>
        <time>2021-07-14T14:53:46Z</time>
      </trkpt>
      <trkpt lat="42.672386" lon="-6.977405">
        <ele>699.942</ele>
        <time>2021-07-14T14:54:04Z</time>
      </trkpt>
      <trkpt lat="42.672394" lon="-6.977405">
        <ele>699.089</ele>
        <time>2021-07-14T14:54:17Z</time>
      </trkpt>
      <trkpt lat="42.672392" lon="-6.977406">
        <ele>699.019</ele>
        <time>2021-07-14T14:54:30Z</time>
      </trkpt>
      <trkpt lat="42.672391" lon="-6.977397">
        <ele>698.513</ele>
        <time>2021-07-14T14:54:45Z</time>
      </trkpt>
      <trkpt lat="42.672391" lon="-6.977410">
        <ele>699.541</ele>
        <time>2021-07-14T14:54:55Z</time>
      </trkpt>
      <trkpt lat="42.672392" lon="-6.977406">
        <ele>699.548</ele>
        <time>2021-07-14T14:55:04Z</time>
      </trkpt>
      <trkpt lat="42.672400" lon="-6.977404">
        <ele>699.576</ele>
        <time>2021-07-14T14:55:18Z</time>
      </trkpt>
      <trkpt lat="42.672396" lon="-6.977411">
        <ele>700.432</ele>
        <time>2021-07-14T14:55:33Z</time>
      </trkpt>
      <trkpt lat="42.672397" lon="-6.977408">
        <ele>700.992</ele>
        <time>2021-07-14T14:55:44Z</time>
      </trkpt>
      <trkpt lat="42.672406" lon="-6.977404">
        <ele>699.511</ele>
        <time>2021-07-14T14:55:55Z</time>
      </trkpt>
      <trkpt lat="42.672403" lon="-6.977400">
        <ele>699.008</ele>
        <time>2021-07-14T14:56:08Z</time>
      </trkpt>
      <trkpt lat="42.672386" lon="-6.977393">
        <ele>698.540</ele>
        <time>2021-07-14T14:56:23Z</time>
      </trkpt>
      <trkpt lat="42.672391" lon="-6.977389">
        <ele>697.042</ele>
        <time>2021-07-14T14:56:38Z</time>
      </trkpt>
      <trkpt lat="42.672379" lon="-6.977410">
        <ele>698.019</ele>
        <time>2021-07-14T14:56:55Z</time>
      </trkpt>
      <trkpt lat="42.672371" lon="-6.977419">
        <ele>698.099</ele>
        <time>2021-07-14T14:57:07Z</time>
      </trkpt>
      <trkpt lat="42.672380" lon="-6.977432">
        <ele>699.013</ele>
        <time>2021-07-14T14:57:22Z</time>
      </trkpt>
      <trkpt lat="42.672383" lon="-6.977434">
        <ele>700.971</ele>
        <time>2021-07-14T14:57:38Z</time>
      </trkpt>
      <trkpt lat="42.672389" lon="-6.977433">
        <ele>701.428</ele>
        <time>2021-07-14T14:57:58Z</time>
      </trkpt>
      <trkpt lat="42.672391" lon="-6.977428">
        <ele>699.986</ele>
        <time>2021-07-14T14:58:13Z</time>
      </trkpt>
      <trkpt lat="42.672383" lon="-6.977418">
        <ele>698.596</ele>
        <time>2021-07-14T14:58:29Z</time>
      </trkpt>
      <trkpt lat="42.672387" lon="-6.977410">
        <ele>698.031</ele>
        <time>2021-07-14T14:58:45Z</time>
      </trkpt>
      <trkpt lat="42.672372" lon="-6.977401">
        <ele>698.524</ele>
        <time>2021-07-14T14:59:09Z</time>
      </trkpt>
      <trkpt lat="42.672375" lon="-6.977394">
        <ele>697.508</ele>
        <time>2021-07-14T14:59:24Z</time>
      </trkpt>
      <trkpt lat="42.672401" lon="-6.977400">
        <ele>698.016</ele>
        <time>2021-07-14T14:59:53Z</time>
      </trkpt>
      <trkpt lat="42.672396" lon="-6.977404">
        <ele>696.668</ele>
        <time>2021-07-14T15:00:21Z</time>
      </trkpt>
      <trkpt lat="42.672384" lon="-6.977402">
        <ele>697.095</ele>
        <time>2021-07-14T15:00:41Z</time>
      </trkpt>
      <trkpt lat="42.672387" lon="-6.977409">
        <ele>697.585</ele>
        <time>2021-07-14T15:00:59Z</time>
      </trkpt>
      <trkpt lat="42.672394" lon="-6.977413">
        <ele>699.569</ele>
        <time>2021-07-14T15:01:29Z</time>
      </trkpt>
      <trkpt lat="42.672381" lon="-6.977411">
        <ele>698.597</ele>
        <time>2021-07-14T15:01:57Z</time>
      </trkpt>
      <trkpt lat="42.672374" lon="-6.977402">
        <ele>698.044</ele>
        <time>2021-07-14T15:02:13Z</time>
      </trkpt>
      <trkpt lat="42.672371" lon="-6.977424">
        <ele>696.142</ele>
        <time>2021-07-14T15:02:37Z</time>
      </trkpt>
      <trkpt lat="42.672386" lon="-6.977434">
        <ele>697.564</ele>
        <time>2021-07-14T15:03:07Z</time>
      </trkpt>
      <trkpt lat="42.672386" lon="-6.977440">
        <ele>697.506</ele>
        <time>2021-07-14T15:03:33Z</time>
      </trkpt>
      <trkpt lat="42.672374" lon="-6.977428">
        <ele>698.016</ele>
        <time>2021-07-14T15:03:51Z</time>
      </trkpt>
      <trkpt lat="42.672368" lon="-6.977431">
        <ele>696.108</ele>
        <time>2021-07-14T15:04:13Z</time>
      </trkpt>
      <trkpt lat="42.672375" lon="-6.977426">
        <ele>698.053</ele>
        <time>2021-07-14T15:04:37Z</time>
      </trkpt>
      <trkpt lat="42.672388" lon="-6.977421">
        <ele>697.065</ele>
        <time>2021-07-14T15:04:59Z</time>
      </trkpt>
      <trkpt lat="42.672397" lon="-6.977421">
        <ele>696.642</ele>
        <time>2021-07-14T15:05:23Z</time>
      </trkpt>
      <trkpt lat="42.672399" lon="-6.977415">
        <ele>695.682</ele>
        <time>2021-07-14T15:05:43Z</time>
      </trkpt>
      <trkpt lat="42.672385" lon="-6.977416">
        <ele>696.636</ele>
        <time>2021-07-14T15:06:03Z</time>
      </trkpt>
      <trkpt lat="42.672386" lon="-6.977417">
        <ele>696.684</ele>
        <time>2021-07-14T15:06:14Z</time>
      </trkpt>
      <trkpt lat="42.672396" lon="-6.977408">
        <ele>697.541</ele>
        <time>2021-07-14T15:06:31Z</time>
      </trkpt>
      <trkpt lat="42.672398" lon="-6.977408">
        <ele>697.549</ele>
        <time>2021-07-14T15:06:51Z</time>
      </trkpt>
      <trkpt lat="42.672401" lon="-6.977399">
        <ele>696.147</ele>
        <time>2021-07-14T15:07:08Z</time>
      </trkpt>
      <trkpt lat="42.672403" lon="-6.977404">
        <ele>694.629</ele>
        <time>2021-07-14T15:07:29Z</time>
      </trkpt>
      <trkpt lat="42.672398" lon="-6.977410">
        <ele>693.721</ele>
        <time>2021-07-14T15:07:51Z</time>
      </trkpt>
      <trkpt lat="42.672391" lon="-6.977406">
        <ele>692.708</ele>
        <time>2021-07-14T15:08:12Z</time>
      </trkpt>
      <trkpt lat="42.672379" lon="-6.977395">
        <ele>691.851</ele>
        <time>2021-07-14T15:08:29Z</time>
      </trkpt>
      <trkpt lat="42.672381" lon="-6.977380">
        <ele>693.253</ele>
        <time>2021-07-14T15:08:54Z</time>
      </trkpt>
      <trkpt lat="42.672399" lon="-6.977375">
        <ele>694.230</ele>
        <time>2021-07-14T15:09:19Z</time>
      </trkpt>
      <trkpt lat="42.672388" lon="-6.977388">
        <ele>694.230</ele>
        <time>2021-07-14T15:09:45Z</time>
      </trkpt>
      <trkpt lat="42.672389" lon="-6.977388">
        <ele>694.614</ele>
        <time>2021-07-14T15:10:04Z</time>
      </trkpt>
      <trkpt lat="42.672390" lon="-6.977387">
        <ele>693.262</ele>
        <time>2021-07-14T15:10:21Z</time>
      </trkpt>
      <trkpt lat="42.672390" lon="-6.977392">
        <ele>692.739</ele>
        <time>2021-07-14T15:10:37Z</time>
      </trkpt>
      <trkpt lat="42.672402" lon="-6.977397">
        <ele>692.787</ele>
        <time>2021-07-14T15:10:55Z</time>
      </trkpt>
      <trkpt lat="42.672403" lon="-6.977407">
        <ele>695.143</ele>
        <time>2021-07-14T15:11:16Z</time>
      </trkpt>
      <trkpt lat="42.672393" lon="-6.977407">
        <ele>695.664</ele>
        <time>2021-07-14T15:11:31Z</time>
      </trkpt>
      <trkpt lat="42.672385" lon="-6.977410">
        <ele>695.610</ele>
        <time>2021-07-14T15:11:50Z</time>
      </trkpt>
      <trkpt lat="42.672368" lon="-6.977411">
        <ele>696.108</ele>
        <time>2021-07-14T15:12:06Z</time>
      </trkpt>
      <trkpt lat="42.672364" lon="-6.977412">
        <ele>697.051</ele>
        <time>2021-07-14T15:12:25Z</time>
      </trkpt>
      <trkpt lat="42.672363" lon="-6.977406">
        <ele>698.513</ele>
        <time>2021-07-14T15:12:44Z</time>
      </trkpt>
      <trkpt lat="42.672363" lon="-6.977410">
        <ele>698.590</ele>
        <time>2021-07-14T15:13:03Z</time>
      </trkpt>
      <trkpt lat="42.672365" lon="-6.977408">
        <ele>697.550</ele>
        <time>2021-07-14T15:13:22Z</time>
      </trkpt>
      <trkpt lat="42.672370" lon="-6.977414">
        <ele>696.164</ele>
        <time>2021-07-14T15:13:51Z</time>
      </trkpt>
      <trkpt lat="42.672375" lon="-6.977414">
        <ele>697.082</ele>
        <time>2021-07-14T15:14:10Z</time>
      </trkpt>
      <trkpt lat="42.672378" lon="-6.977384">
        <ele>696.619</ele>
        <time>2021-07-14T15:14:34Z</time>
      </trkpt>
      <trkpt lat="42.672384" lon="-6.977391">
        <ele>695.637</ele>
        <time>2021-07-14T15:14:50Z</time>
      </trkpt>
      <trkpt lat="42.672382" lon="-6.977393">
        <ele>694.626</ele>
        <time>2021-07-14T15:15:06Z</time>
      </trkpt>
      <trkpt lat="42.672376" lon="-6.977401">
        <ele>695.147</ele>
        <time>2021-07-14T15:15:22Z</time>
      </trkpt>
      <trkpt lat="42.672376" lon="-6.977403">
        <ele>695.111</ele>
        <time>2021-07-14T15:15:47Z</time>
      </trkpt>
      <trkpt lat="42.672369" lon="-6.977410">
        <ele>696.608</ele>
        <time>2021-07-14T15:16:03Z</time>
      </trkpt>
      <trkpt lat="42.672368" lon="-6.977410">
        <ele>697.039</ele>
        <time>2021-07-14T15:16:20Z</time>
      </trkpt>
      <trkpt lat="42.672373" lon="-6.977403">
        <ele>697.521</ele>
        <time>2021-07-14T15:16:38Z</time>
      </trkpt>
      <trkpt lat="42.672379" lon="-6.977401">
        <ele>698.048</ele>
        <time>2021-07-14T15:16:54Z</time>
      </trkpt>
      <trkpt lat="42.672375" lon="-6.977400">
        <ele>698.098</ele>
        <time>2021-07-14T15:17:10Z</time>
      </trkpt>
      <trkpt lat="42.672377" lon="-6.977402">
        <ele>698.022</ele>
        <time>2021-07-14T15:17:35Z</time>
      </trkpt>
      <trkpt lat="42.672385" lon="-6.977401">
        <ele>698.520</ele>
        <time>2021-07-14T15:17:52Z</time>
      </trkpt>
      <trkpt lat="42.672382" lon="-6.977401">
        <ele>699.097</ele>
        <time>2021-07-14T15:18:10Z</time>
      </trkpt>
      <trkpt lat="42.672383" lon="-6.977415">
        <ele>699.975</ele>
        <time>2021-07-14T15:18:27Z</time>
      </trkpt>
      <trkpt lat="42.672392" lon="-6.977415">
        <ele>700.432</ele>
        <time>2021-07-14T15:18:48Z</time>
      </trkpt>
      <trkpt lat="42.672404" lon="-6.977420">
        <ele>700.492</ele>
        <time>2021-07-14T15:19:03Z</time>
      </trkpt>
      <trkpt lat="42.672403" lon="-6.977418">
        <ele>699.911</ele>
        <time>2021-07-14T15:19:12Z</time>
      </trkpt>
      <trkpt lat="42.672400" lon="-6.977401">
        <ele>699.908</ele>
        <time>2021-07-14T15:19:20Z</time>
      </trkpt>
      <trkpt lat="42.672399" lon="-6.977403">
        <ele>699.030</ele>
        <time>2021-07-14T15:19:35Z</time>
      </trkpt>
      <trkpt lat="42.672398" lon="-6.977388">
        <ele>699.522</ele>
        <time>2021-07-14T15:19:41Z</time>
      </trkpt>
      <trkpt lat="42.672395" lon="-6.977370">
        <ele>699.059</ele>
        <time>2021-07-14T15:19:42Z</time>
      </trkpt>
      <trkpt lat="42.672394" lon="-6.977192">
        <ele>699.969</ele>
        <time>2021-07-14T15:19:47Z</time>
      </trkpt>
      <trkpt lat="42.672402" lon="-6.977130">
        <ele>699.963</ele>
        <time>2021-07-14T15:19:48Z</time>
      </trkpt>
      <trkpt lat="42.672408" lon="-6.977076">
        <ele>699.511</ele>
        <time>2021-07-14T15:19:49Z</time>
      </trkpt>
      <trkpt lat="42.672473" lon="-6.976595">
        <ele>696.648</ele>
        <time>2021-07-14T15:19:55Z</time>
      </trkpt>
      <trkpt lat="42.672534" lon="-6.975746">
        <ele>693.286</ele>
        <time>2021-07-14T15:20:04Z</time>
      </trkpt>
      <trkpt lat="42.672520" lon="-6.975554">
        <ele>691.873</ele>
        <time>2021-07-14T15:20:06Z</time>
      </trkpt>
      <trkpt lat="42.672469" lon="-6.974982">
        <ele>688.985</ele>
        <time>2021-07-14T15:20:12Z</time>
      </trkpt>
      <trkpt lat="42.672448" lon="-6.974230">
        <ele>685.013</ele>
        <time>2021-07-14T15:20:19Z</time>
      </trkpt>
      <trkpt lat="42.672485" lon="-6.973535">
        <ele>680.708</ele>
        <time>2021-07-14T15:20:25Z</time>
      </trkpt>
      <trkpt lat="42.672579" lon="-6.972650">
        <ele>676.924</ele>
        <time>2021-07-14T15:20:32Z</time>
      </trkpt>
      <trkpt lat="42.672538" lon="-6.971895">
        <ele>673.556</ele>
        <time>2021-07-14T15:20:38Z</time>
      </trkpt>
      <trkpt lat="42.672637" lon="-6.970957">
        <ele>669.263</ele>
        <time>2021-07-14T15:20:45Z</time>
      </trkpt>
      <trkpt lat="42.672696" lon="-6.970675">
        <ele>667.763</ele>
        <time>2021-07-14T15:20:47Z</time>
      </trkpt>
      <trkpt lat="42.672699" lon="-6.970574">
        <ele>667.227</ele>
        <time>2021-07-14T15:20:48Z</time>
      </trkpt>
      <trkpt lat="42.672687" lon="-6.970453">
        <ele>666.815</ele>
        <time>2021-07-14T15:20:49Z</time>
      </trkpt>
      <trkpt lat="42.672657" lon="-6.970344">
        <ele>666.392</ele>
        <time>2021-07-14T15:20:50Z</time>
      </trkpt>
      <trkpt lat="42.672612" lon="-6.970258">
        <ele>665.810</ele>
        <time>2021-07-14T15:20:51Z</time>
      </trkpt>
      <trkpt lat="42.672545" lon="-6.970164">
        <ele>665.386</ele>
        <time>2021-07-14T15:20:52Z</time>
      </trkpt>
      <trkpt lat="42.672487" lon="-6.970092">
        <ele>665.360</ele>
        <time>2021-07-14T15:20:53Z</time>
      </trkpt>
      <trkpt lat="42.671996" lon="-6.969555">
        <ele>664.426</ele>
        <time>2021-07-14T15:21:02Z</time>
      </trkpt>
      <trkpt lat="42.671850" lon="-6.969411">
        <ele>664.408</ele>
        <time>2021-07-14T15:21:04Z</time>
      </trkpt>
      <trkpt lat="42.671799" lon="-6.969342">
        <ele>664.435</ele>
        <time>2021-07-14T15:21:05Z</time>
      </trkpt>
      <trkpt lat="42.671726" lon="-6.969209">
        <ele>663.957</ele>
        <time>2021-07-14T15:21:07Z</time>
      </trkpt>
      <trkpt lat="42.671701" lon="-6.969069">
        <ele>663.414</ele>
        <time>2021-07-14T15:21:08Z</time>
      </trkpt>
      <trkpt lat="42.671708" lon="-6.968966">
        <ele>663.444</ele>
        <time>2021-07-14T15:21:09Z</time>
      </trkpt>
      <trkpt lat="42.671730" lon="-6.968893">
        <ele>663.418</ele>
        <time>2021-07-14T15:21:10Z</time>
      </trkpt>
      <trkpt lat="42.671779" lon="-6.968810">
        <ele>663.426</ele>
        <time>2021-07-14T15:21:11Z</time>
      </trkpt>
      <trkpt lat="42.671840" lon="-6.968754">
        <ele>663.463</ele>
        <time>2021-07-14T15:21:12Z</time>
      </trkpt>
      <trkpt lat="42.671898" lon="-6.968708">
        <ele>662.941</ele>
        <time>2021-07-14T15:21:13Z</time>
      </trkpt>
      <trkpt lat="42.672320" lon="-6.968389">
        <ele>662.011</ele>
        <time>2021-07-14T15:21:19Z</time>
      </trkpt>
      <trkpt lat="42.672582" lon="-6.968041">
        <ele>661.521</ele>
        <time>2021-07-14T15:21:25Z</time>
      </trkpt>
      <trkpt lat="42.672815" lon="-6.966416">
        <ele>657.603</ele>
        <time>2021-07-14T15:21:48Z</time>
      </trkpt>
      <trkpt lat="42.672410" lon="-6.965690">
        <ele>655.708</ele>
        <time>2021-07-14T15:21:56Z</time>
      </trkpt>
      <trkpt lat="42.672116" lon="-6.965159">
        <ele>656.278</ele>
        <time>2021-07-14T15:22:04Z</time>
      </trkpt>
      <trkpt lat="42.672035" lon="-6.965028">
        <ele>656.280</ele>
        <time>2021-07-14T15:22:08Z</time>
      </trkpt>
      <trkpt lat="42.671890" lon="-6.964723">
        <ele>655.747</ele>
        <time>2021-07-14T15:22:17Z</time>
      </trkpt>
      <trkpt lat="42.671721" lon="-6.964338">
        <ele>655.717</ele>
        <time>2021-07-14T15:22:25Z</time>
      </trkpt>
      <trkpt lat="42.671544" lon="-6.963924">
        <ele>656.291</ele>
        <time>2021-07-14T15:22:33Z</time>
      </trkpt>
      <trkpt lat="42.671326" lon="-6.963402">
        <ele>655.759</ele>
        <time>2021-07-14T15:22:43Z</time>
      </trkpt>
      <trkpt lat="42.671148" lon="-6.962909">
        <ele>655.266</ele>
        <time>2021-07-14T15:22:52Z</time>
      </trkpt>
      <trkpt lat="42.671099" lon="-6.962754">
        <ele>654.824</ele>
        <time>2021-07-14T15:22:55Z</time>
      </trkpt>
      <trkpt lat="42.671083" lon="-6.962701">
        <ele>655.277</ele>
        <time>2021-07-14T15:22:56Z</time>
      </trkpt>
      <trkpt lat="42.671064" lon="-6.962643">
        <ele>655.261</ele>
        <time>2021-07-14T15:22:57Z</time>
      </trkpt>
      <trkpt lat="42.670903" lon="-6.962121">
        <ele>654.827</ele>
        <time>2021-07-14T15:23:06Z</time>
      </trkpt>
      <trkpt lat="42.670884" lon="-6.962058">
        <ele>654.308</ele>
        <time>2021-07-14T15:23:07Z</time>
      </trkpt>
      <trkpt lat="42.670701" lon="-6.961482">
        <ele>652.824</ele>
        <time>2021-07-14T15:23:16Z</time>
      </trkpt>
      <trkpt lat="42.670440" lon="-6.960790">
        <ele>650.446</ele>
        <time>2021-07-14T15:23:25Z</time>
      </trkpt>
      <trkpt lat="42.670122" lon="-6.960096">
        <ele>649.983</ele>
        <time>2021-07-14T15:23:34Z</time>
      </trkpt>
      <trkpt lat="42.669808" lon="-6.959486">
        <ele>649.953</ele>
        <time>2021-07-14T15:23:43Z</time>
      </trkpt>
      <trkpt lat="42.669736" lon="-6.959369">
        <ele>649.927</ele>
        <time>2021-07-14T15:23:45Z</time>
      </trkpt>
      <trkpt lat="42.669333" lon="-6.958878">
        <ele>649.085</ele>
        <time>2021-07-14T15:23:55Z</time>
      </trkpt>
      <trkpt lat="42.668911" lon="-6.958544">
        <ele>649.562</ele>
        <time>2021-07-14T15:24:05Z</time>
      </trkpt>
      <trkpt lat="42.668590" lon="-6.958274">
        <ele>649.910</ele>
        <time>2021-07-14T15:24:14Z</time>
      </trkpt>
      <trkpt lat="42.668267" lon="-6.957995">
        <ele>649.019</ele>
        <time>2021-07-14T15:24:22Z</time>
      </trkpt>
      <trkpt lat="42.667730" lon="-6.957519">
        <ele>646.109</ele>
        <time>2021-07-14T15:24:33Z</time>
      </trkpt>
      <trkpt lat="42.667227" lon="-6.957064">
        <ele>645.119</ele>
        <time>2021-07-14T15:24:42Z</time>
      </trkpt>
      <trkpt lat="42.666863" lon="-6.956744">
        <ele>643.708</ele>
        <time>2021-07-14T15:24:49Z</time>
      </trkpt>
      <trkpt lat="42.666297" lon="-6.956243">
        <ele>642.798</ele>
        <time>2021-07-14T15:25:01Z</time>
      </trkpt>
      <trkpt lat="42.665970" lon="-6.955949">
        <ele>642.780</ele>
        <time>2021-07-14T15:25:09Z</time>
      </trkpt>
      <trkpt lat="42.665611" lon="-6.955631">
        <ele>643.287</ele>
        <time>2021-07-14T15:25:18Z</time>
      </trkpt>
      <trkpt lat="42.665335" lon="-6.955408">
        <ele>643.257</ele>
        <time>2021-07-14T15:25:26Z</time>
      </trkpt>
      <trkpt lat="42.664988" lon="-6.955118">
        <ele>642.731</ele>
        <time>2021-07-14T15:25:36Z</time>
      </trkpt>
      <trkpt lat="42.664630" lon="-6.954802">
        <ele>644.729</ele>
        <time>2021-07-14T15:25:46Z</time>
      </trkpt>
      <trkpt lat="42.664418" lon="-6.954457">
        <ele>646.156</ele>
        <time>2021-07-14T15:25:54Z</time>
      </trkpt>
      <trkpt lat="42.664382" lon="-6.954233">
        <ele>647.154</ele>
        <time>2021-07-14T15:25:58Z</time>
      </trkpt>
      <trkpt lat="42.664386" lon="-6.954168">
        <ele>647.191</ele>
        <time>2021-07-14T15:25:59Z</time>
      </trkpt>
      <trkpt lat="42.664395" lon="-6.954115">
        <ele>647.581</ele>
        <time>2021-07-14T15:26:00Z</time>
      </trkpt>
      <trkpt lat="42.664471" lon="-6.953757">
        <ele>648.519</ele>
        <time>2021-07-14T15:26:06Z</time>
      </trkpt>
      <trkpt lat="42.664529" lon="-6.953179">
        <ele>647.508</ele>
        <time>2021-07-14T15:26:15Z</time>
      </trkpt>
      <trkpt lat="42.664516" lon="-6.952931">
        <ele>646.696</ele>
        <time>2021-07-14T15:26:21Z</time>
      </trkpt>
      <trkpt lat="42.664499" lon="-6.952866">
        <ele>650.428</ele>
        <time>2021-07-14T15:26:27Z</time>
      </trkpt>
      <trkpt lat="42.664515" lon="-6.952841">
        <ele>652.375</ele>
        <time>2021-07-14T15:26:39Z</time>
      </trkpt>
      <trkpt lat="42.664522" lon="-6.952844">
        <ele>652.315</ele>
        <time>2021-07-14T15:26:57Z</time>
      </trkpt>
      <trkpt lat="42.664519" lon="-6.952856">
        <ele>651.919</ele>
        <time>2021-07-14T15:27:13Z</time>
      </trkpt>
      <trkpt lat="42.664522" lon="-6.952817">
        <ele>653.817</ele>
        <time>2021-07-14T15:27:20Z</time>
      </trkpt>
      <trkpt lat="42.664551" lon="-6.952559">
        <ele>654.824</ele>
        <time>2021-07-14T15:27:27Z</time>
      </trkpt>
      <trkpt lat="42.664588" lon="-6.952270">
        <ele>653.832</ele>
        <time>2021-07-14T15:27:33Z</time>
      </trkpt>
      <trkpt lat="42.664670" lon="-6.951768">
        <ele>652.371</ele>
        <time>2021-07-14T15:27:41Z</time>
      </trkpt>
      <trkpt lat="42.664805" lon="-6.951085">
        <ele>649.541</ele>
        <time>2021-07-14T15:27:50Z</time>
      </trkpt>
      <trkpt lat="42.664862" lon="-6.950597">
        <ele>647.115</ele>
        <time>2021-07-14T15:27:57Z</time>
      </trkpt>
      <trkpt lat="42.664866" lon="-6.950538">
        <ele>646.608</ele>
        <time>2021-07-14T15:27:58Z</time>
      </trkpt>
      <trkpt lat="42.664929" lon="-6.949988">
        <ele>644.724</ele>
        <time>2021-07-14T15:28:06Z</time>
      </trkpt>
      <trkpt lat="42.665037" lon="-6.949069">
        <ele>641.816</ele>
        <time>2021-07-14T15:28:18Z</time>
      </trkpt>
      <trkpt lat="42.665098" lon="-6.948390">
        <ele>640.833</ele>
        <time>2021-07-14T15:28:26Z</time>
      </trkpt>
      <trkpt lat="42.665268" lon="-6.947631">
        <ele>639.453</ele>
        <time>2021-07-14T15:28:36Z</time>
      </trkpt>
      <trkpt lat="42.665272" lon="-6.947565">
        <ele>639.417</ele>
        <time>2021-07-14T15:28:37Z</time>
      </trkpt>
      <trkpt lat="42.665279" lon="-6.946876">
        <ele>638.955</ele>
        <time>2021-07-14T15:28:47Z</time>
      </trkpt>
      <trkpt lat="42.665289" lon="-6.946655">
        <ele>638.932</ele>
        <time>2021-07-14T15:28:52Z</time>
      </trkpt>
      <trkpt lat="42.665234" lon="-6.946345">
        <ele>638.930</ele>
        <time>2021-07-14T15:29:01Z</time>
      </trkpt>
      <trkpt lat="42.665125" lon="-6.946069">
        <ele>638.977</ele>
        <time>2021-07-14T15:29:09Z</time>
      </trkpt>
      <trkpt lat="42.665064" lon="-6.945860">
        <ele>638.461</ele>
        <time>2021-07-14T15:29:13Z</time>
      </trkpt>
      <trkpt lat="42.664933" lon="-6.945115">
        <ele>636.027</ele>
        <time>2021-07-14T15:29:25Z</time>
      </trkpt>
      <trkpt lat="42.664769" lon="-6.944695">
        <ele>635.008</ele>
        <time>2021-07-14T15:29:33Z</time>
      </trkpt>
      <trkpt lat="42.664544" lon="-6.944231">
        <ele>633.194</ele>
        <time>2021-07-14T15:29:42Z</time>
      </trkpt>
      <trkpt lat="42.664486" lon="-6.944095">
        <ele>632.226</ele>
        <time>2021-07-14T15:29:45Z</time>
      </trkpt>
      <trkpt lat="42.664352" lon="-6.943580">
        <ele>631.233</ele>
        <time>2021-07-14T15:29:54Z</time>
      </trkpt>
      <trkpt lat="42.664277" lon="-6.943105">
        <ele>631.763</ele>
        <time>2021-07-14T15:30:02Z</time>
      </trkpt>
      <trkpt lat="42.664145" lon="-6.942700">
        <ele>632.287</ele>
        <time>2021-07-14T15:30:10Z</time>
      </trkpt>
      <trkpt lat="42.664036" lon="-6.942404">
        <ele>632.695</ele>
        <time>2021-07-14T15:30:16Z</time>
      </trkpt>
      <trkpt lat="42.664022" lon="-6.942351">
        <ele>632.262</ele>
        <time>2021-07-14T15:30:17Z</time>
      </trkpt>
      <trkpt lat="42.664011" lon="-6.942297">
        <ele>632.280</ele>
        <time>2021-07-14T15:30:18Z</time>
      </trkpt>
      <trkpt lat="42.664002" lon="-6.942242">
        <ele>632.252</ele>
        <time>2021-07-14T15:30:19Z</time>
      </trkpt>
      <trkpt lat="42.663998" lon="-6.942185">
        <ele>631.753</ele>
        <time>2021-07-14T15:30:20Z</time>
      </trkpt>
      <trkpt lat="42.663995" lon="-6.942126">
        <ele>631.708</ele>
        <time>2021-07-14T15:30:21Z</time>
      </trkpt>
      <trkpt lat="42.664000" lon="-6.941625">
        <ele>630.708</ele>
        <time>2021-07-14T15:30:29Z</time>
      </trkpt>
      <trkpt lat="42.664024" lon="-6.941168">
        <ele>630.722</ele>
        <time>2021-07-14T15:30:37Z</time>
      </trkpt>
      <trkpt lat="42.664113" lon="-6.940909">
        <ele>630.774</ele>
        <time>2021-07-14T15:30:43Z</time>
      </trkpt>
      <trkpt lat="42.664189" lon="-6.940802">
        <ele>630.211</ele>
        <time>2021-07-14T15:30:46Z</time>
      </trkpt>
      <trkpt lat="42.664223" lon="-6.940768">
        <ele>630.271</ele>
        <time>2021-07-14T15:30:47Z</time>
      </trkpt>
      <trkpt lat="42.664512" lon="-6.940550">
        <ele>630.285</ele>
        <time>2021-07-14T15:30:54Z</time>
      </trkpt>
      <trkpt lat="42.664903" lon="-6.940259">
        <ele>631.263</ele>
        <time>2021-07-14T15:31:03Z</time>
      </trkpt>
      <trkpt lat="42.665132" lon="-6.940086">
        <ele>630.770</ele>
        <time>2021-07-14T15:31:08Z</time>
      </trkpt>
      <trkpt lat="42.665467" lon="-6.939680">
        <ele>630.738</ele>
        <time>2021-07-14T15:31:17Z</time>
      </trkpt>
      <trkpt lat="42.665815" lon="-6.939305">
        <ele>630.743</ele>
        <time>2021-07-14T15:31:26Z</time>
      </trkpt>
      <trkpt lat="42.666114" lon="-6.938949">
        <ele>630.264</ele>
        <time>2021-07-14T15:31:34Z</time>
      </trkpt>
      <trkpt lat="42.666149" lon="-6.938899">
        <ele>630.210</ele>
        <time>2021-07-14T15:31:35Z</time>
      </trkpt>
      <trkpt lat="42.666177" lon="-6.938844">
        <ele>630.208</ele>
        <time>2021-07-14T15:31:36Z</time>
      </trkpt>
      <trkpt lat="42.666354" lon="-6.938322">
        <ele>629.351</ele>
        <time>2021-07-14T15:31:45Z</time>
      </trkpt>
      <trkpt lat="42.666371" lon="-6.938264">
        <ele>629.333</ele>
        <time>2021-07-14T15:31:46Z</time>
      </trkpt>
      <trkpt lat="42.666415" lon="-6.938097">
        <ele>629.350</ele>
        <time>2021-07-14T15:31:49Z</time>
      </trkpt>
      <trkpt lat="42.666421" lon="-6.938041">
        <ele>628.820</ele>
        <time>2021-07-14T15:31:50Z</time>
      </trkpt>
      <trkpt lat="42.666420" lon="-6.937981">
        <ele>628.824</ele>
        <time>2021-07-14T15:31:51Z</time>
      </trkpt>
      <trkpt lat="42.666414" lon="-6.937934">
        <ele>628.872</ele>
        <time>2021-07-14T15:31:52Z</time>
      </trkpt>
      <trkpt lat="42.666403" lon="-6.937880">
        <ele>628.879</ele>
        <time>2021-07-14T15:31:53Z</time>
      </trkpt>
      <trkpt lat="42.666321" lon="-6.937539">
        <ele>626.997</ele>
        <time>2021-07-14T15:31:59Z</time>
      </trkpt>
      <trkpt lat="42.666297" lon="-6.937374">
        <ele>626.495</ele>
        <time>2021-07-14T15:32:02Z</time>
      </trkpt>
      <trkpt lat="42.666295" lon="-6.937313">
        <ele>626.449</ele>
        <time>2021-07-14T15:32:03Z</time>
      </trkpt>
      <trkpt lat="42.666298" lon="-6.937249">
        <ele>626.423</ele>
        <time>2021-07-14T15:32:04Z</time>
      </trkpt>
      <trkpt lat="42.666395" lon="-6.936699">
        <ele>626.908</ele>
        <time>2021-07-14T15:32:13Z</time>
      </trkpt>
      <trkpt lat="42.666406" lon="-6.936648">
        <ele>626.956</ele>
        <time>2021-07-14T15:32:14Z</time>
      </trkpt>
      <trkpt lat="42.666413" lon="-6.936597">
        <ele>626.438</ele>
        <time>2021-07-14T15:32:15Z</time>
      </trkpt>
      <trkpt lat="42.666427" lon="-6.936135">
        <ele>625.915</ele>
        <time>2021-07-14T15:32:24Z</time>
      </trkpt>
      <trkpt lat="42.666338" lon="-6.935610">
        <ele>624.925</ele>
        <time>2021-07-14T15:32:33Z</time>
      </trkpt>
      <trkpt lat="42.666190" lon="-6.934946">
        <ele>623.549</ele>
        <time>2021-07-14T15:32:44Z</time>
      </trkpt>
      <trkpt lat="42.666019" lon="-6.934216">
        <ele>623.517</ele>
        <time>2021-07-14T15:32:55Z</time>
      </trkpt>
      <trkpt lat="42.665920" lon="-6.933616">
        <ele>623.524</ele>
        <time>2021-07-14T15:33:03Z</time>
      </trkpt>
      <trkpt lat="42.665829" lon="-6.932899">
        <ele>625.422</ele>
        <time>2021-07-14T15:33:13Z</time>
      </trkpt>
      <trkpt lat="42.665741" lon="-6.932268">
        <ele>624.966</ele>
        <time>2021-07-14T15:33:22Z</time>
      </trkpt>
      <trkpt lat="42.665619" lon="-6.931642">
        <ele>622.529</ele>
        <time>2021-07-14T15:33:30Z</time>
      </trkpt>
      <trkpt lat="42.665389" lon="-6.930977">
        <ele>620.121</ele>
        <time>2021-07-14T15:33:38Z</time>
      </trkpt>
      <trkpt lat="42.665266" lon="-6.930645">
        <ele>619.708</ele>
        <time>2021-07-14T15:33:42Z</time>
      </trkpt>
      <trkpt lat="42.665253" lon="-6.930557">
        <ele>619.253</ele>
        <time>2021-07-14T15:33:43Z</time>
      </trkpt>
      <trkpt lat="42.665249" lon="-6.930459">
        <ele>619.295</ele>
        <time>2021-07-14T15:33:44Z</time>
      </trkpt>
      <trkpt lat="42.665260" lon="-6.930368">
        <ele>619.242</ele>
        <time>2021-07-14T15:33:46Z</time>
      </trkpt>
      <trkpt lat="42.665291" lon="-6.930266">
        <ele>618.742</ele>
        <time>2021-07-14T15:33:47Z</time>
      </trkpt>
      <trkpt lat="42.665495" lon="-6.929681">
        <ele>617.726</ele>
        <time>2021-07-14T15:33:55Z</time>
      </trkpt>
      <trkpt lat="42.665612" lon="-6.929310">
        <ele>617.374</ele>
        <time>2021-07-14T15:34:00Z</time>
      </trkpt>
      <trkpt lat="42.665750" lon="-6.928707">
        <ele>616.311</ele>
        <time>2021-07-14T15:34:08Z</time>
      </trkpt>
      <trkpt lat="42.665859" lon="-6.928122">
        <ele>616.359</ele>
        <time>2021-07-14T15:34:16Z</time>
      </trkpt>
      <trkpt lat="42.665923" lon="-6.927691">
        <ele>615.327</ele>
        <time>2021-07-14T15:34:22Z</time>
      </trkpt>
      <trkpt lat="42.665931" lon="-6.927564">
        <ele>615.368</ele>
        <time>2021-07-14T15:34:24Z</time>
      </trkpt>
      <trkpt lat="42.665929" lon="-6.927512">
        <ele>615.814</ele>
        <time>2021-07-14T15:34:25Z</time>
      </trkpt>
      <trkpt lat="42.665846" lon="-6.927221">
        <ele>616.308</ele>
        <time>2021-07-14T15:34:32Z</time>
      </trkpt>
      <trkpt lat="42.665584" lon="-6.926917">
        <ele>613.989</ele>
        <time>2021-07-14T15:34:40Z</time>
      </trkpt>
      <trkpt lat="42.665466" lon="-6.926816">
        <ele>613.471</ele>
        <time>2021-07-14T15:34:43Z</time>
      </trkpt>
      <trkpt lat="42.665093" lon="-6.926617">
        <ele>612.538</ele>
        <time>2021-07-14T15:34:53Z</time>
      </trkpt>
      <trkpt lat="42.664830" lon="-6.926623">
        <ele>612.918</ele>
        <time>2021-07-14T15:35:00Z</time>
      </trkpt>
      <trkpt lat="42.664569" lon="-6.926666">
        <ele>614.492</ele>
        <time>2021-07-14T15:35:08Z</time>
      </trkpt>
      <trkpt lat="42.664291" lon="-6.926726">
        <ele>615.860</ele>
        <time>2021-07-14T15:35:17Z</time>
      </trkpt>
      <trkpt lat="42.663970" lon="-6.926692">
        <ele>616.337</ele>
        <time>2021-07-14T15:35:25Z</time>
      </trkpt>
      <trkpt lat="42.663600" lon="-6.926690">
        <ele>616.335</ele>
        <time>2021-07-14T15:35:34Z</time>
      </trkpt>
      <trkpt lat="42.663203" lon="-6.926656">
        <ele>616.356</ele>
        <time>2021-07-14T15:35:43Z</time>
      </trkpt>
      <trkpt lat="42.662755" lon="-6.926600">
        <ele>616.359</ele>
        <time>2021-07-14T15:35:53Z</time>
      </trkpt>
      <trkpt lat="42.662381" lon="-6.926600">
        <ele>616.814</ele>
        <time>2021-07-14T15:36:02Z</time>
      </trkpt>
      <trkpt lat="42.662094" lon="-6.926552">
        <ele>616.808</ele>
        <time>2021-07-14T15:36:10Z</time>
      </trkpt>
      <trkpt lat="42.662053" lon="-6.926525">
        <ele>616.842</ele>
        <time>2021-07-14T15:36:11Z</time>
      </trkpt>
      <trkpt lat="42.662020" lon="-6.926495">
        <ele>616.884</ele>
        <time>2021-07-14T15:36:12Z</time>
      </trkpt>
      <trkpt lat="42.661915" lon="-6.926373">
        <ele>616.871</ele>
        <time>2021-07-14T15:36:15Z</time>
      </trkpt>
      <trkpt lat="42.661833" lon="-6.926237">
        <ele>616.861</ele>
        <time>2021-07-14T15:36:18Z</time>
      </trkpt>
      <trkpt lat="42.661807" lon="-6.926186">
        <ele>616.835</ele>
        <time>2021-07-14T15:36:19Z</time>
      </trkpt>
      <trkpt lat="42.661665" lon="-6.925921">
        <ele>615.823</ele>
        <time>2021-07-14T15:36:24Z</time>
      </trkpt>
      <trkpt lat="42.661422" lon="-6.925520">
        <ele>613.460</ele>
        <time>2021-07-14T15:36:31Z</time>
      </trkpt>
      <trkpt lat="42.661130" lon="-6.924967">
        <ele>612.548</ele>
        <time>2021-07-14T15:36:39Z</time>
      </trkpt>
      <trkpt lat="42.660914" lon="-6.924356">
        <ele>610.574</ele>
        <time>2021-07-14T15:36:46Z</time>
      </trkpt>
      <trkpt lat="42.660718" lon="-6.923533">
        <ele>608.656</ele>
        <time>2021-07-14T15:36:54Z</time>
      </trkpt>
      <trkpt lat="42.660550" lon="-6.922752">
        <ele>607.221</ele>
        <time>2021-07-14T15:37:02Z</time>
      </trkpt>
      <trkpt lat="42.660422" lon="-6.922098">
        <ele>607.608</ele>
        <time>2021-07-14T15:37:09Z</time>
      </trkpt>
      <trkpt lat="42.660345" lon="-6.921702">
        <ele>607.664</ele>
        <time>2021-07-14T15:37:15Z</time>
      </trkpt>
      <trkpt lat="42.660330" lon="-6.921570">
        <ele>607.616</ele>
        <time>2021-07-14T15:37:22Z</time>
      </trkpt>
      <trkpt lat="42.660331" lon="-6.921513">
        <ele>608.143</ele>
        <time>2021-07-14T15:37:32Z</time>
      </trkpt>
      <trkpt lat="42.660316" lon="-6.921203">
        <ele>608.153</ele>
        <time>2021-07-14T15:37:38Z</time>
      </trkpt>
      <trkpt lat="42.660318" lon="-6.920610">
        <ele>607.637</ele>
        <time>2021-07-14T15:37:47Z</time>
      </trkpt>
      <trkpt lat="42.660338" lon="-6.919917">
        <ele>606.295</ele>
        <time>2021-07-14T15:37:57Z</time>
      </trkpt>
      <trkpt lat="42.660365" lon="-6.919485">
        <ele>605.792</ele>
        <time>2021-07-14T15:38:04Z</time>
      </trkpt>
      <trkpt lat="42.660383" lon="-6.919078">
        <ele>606.240</ele>
        <time>2021-07-14T15:38:11Z</time>
      </trkpt>
      <trkpt lat="42.660351" lon="-6.918411">
        <ele>606.229</ele>
        <time>2021-07-14T15:38:20Z</time>
      </trkpt>
      <trkpt lat="42.660246" lon="-6.917658">
        <ele>606.200</ele>
        <time>2021-07-14T15:38:30Z</time>
      </trkpt>
      <trkpt lat="42.660079" lon="-6.916996">
        <ele>605.720</ele>
        <time>2021-07-14T15:38:39Z</time>
      </trkpt>
      <trkpt lat="42.659779" lon="-6.916204">
        <ele>604.808</ele>
        <time>2021-07-14T15:38:51Z</time>
      </trkpt>
      <trkpt lat="42.659491" lon="-6.915643">
        <ele>603.829</ele>
        <time>2021-07-14T15:39:00Z</time>
      </trkpt>
      <trkpt lat="42.659125" lon="-6.915092">
        <ele>604.341</ele>
        <time>2021-07-14T15:39:09Z</time>
      </trkpt>
      <trkpt lat="42.658701" lon="-6.914625">
        <ele>603.858</ele>
        <time>2021-07-14T15:39:18Z</time>
      </trkpt>
      <trkpt lat="42.658212" lon="-6.914182">
        <ele>604.348</ele>
        <time>2021-07-14T15:39:28Z</time>
      </trkpt>
      <trkpt lat="42.657817" lon="-6.913757">
        <ele>603.892</ele>
        <time>2021-07-14T15:39:38Z</time>
      </trkpt>
      <trkpt lat="42.657620" lon="-6.913304">
        <ele>603.830</ele>
        <time>2021-07-14T15:39:46Z</time>
      </trkpt>
      <trkpt lat="42.657570" lon="-6.913011">
        <ele>603.397</ele>
        <time>2021-07-14T15:39:50Z</time>
      </trkpt>
      <trkpt lat="42.657569" lon="-6.912943">
        <ele>603.315</ele>
        <time>2021-07-14T15:39:51Z</time>
      </trkpt>
      <trkpt lat="42.657573" lon="-6.912870">
        <ele>603.321</ele>
        <time>2021-07-14T15:39:52Z</time>
      </trkpt>
      <trkpt lat="42.657703" lon="-6.912302">
        <ele>603.341</ele>
        <time>2021-07-14T15:40:00Z</time>
      </trkpt>
      <trkpt lat="42.657803" lon="-6.912110">
        <ele>603.305</ele>
        <time>2021-07-14T15:40:03Z</time>
      </trkpt>
      <trkpt lat="42.657845" lon="-6.912052">
        <ele>603.308</ele>
        <time>2021-07-14T15:40:04Z</time>
      </trkpt>
      <trkpt lat="42.657893" lon="-6.911993">
        <ele>602.829</ele>
        <time>2021-07-14T15:40:05Z</time>
      </trkpt>
      <trkpt lat="42.658303" lon="-6.911572">
        <ele>601.981</ele>
        <time>2021-07-14T15:40:13Z</time>
      </trkpt>
      <trkpt lat="42.658608" lon="-6.911144">
        <ele>600.928</ele>
        <time>2021-07-14T15:40:19Z</time>
      </trkpt>
      <trkpt lat="42.658647" lon="-6.911054">
        <ele>600.458</ele>
        <time>2021-07-14T15:40:20Z</time>
      </trkpt>
      <trkpt lat="42.658708" lon="-6.910878">
        <ele>600.062</ele>
        <time>2021-07-14T15:40:22Z</time>
      </trkpt>
      <trkpt lat="42.658731" lon="-6.910786">
        <ele>599.530</ele>
        <time>2021-07-14T15:40:23Z</time>
      </trkpt>
      <trkpt lat="42.658751" lon="-6.910688">
        <ele>599.537</ele>
        <time>2021-07-14T15:40:24Z</time>
      </trkpt>
      <trkpt lat="42.658766" lon="-6.910592">
        <ele>599.045</ele>
        <time>2021-07-14T15:40:25Z</time>
      </trkpt>
      <trkpt lat="42.658777" lon="-6.910495">
        <ele>599.043</ele>
        <time>2021-07-14T15:40:26Z</time>
      </trkpt>
      <trkpt lat="42.658783" lon="-6.910391">
        <ele>598.564</ele>
        <time>2021-07-14T15:40:27Z</time>
      </trkpt>
      <trkpt lat="42.658783" lon="-6.910285">
        <ele>598.510</ele>
        <time>2021-07-14T15:40:28Z</time>
      </trkpt>
      <trkpt lat="42.658680" lon="-6.909695">
        <ele>597.608</ele>
        <time>2021-07-14T15:40:34Z</time>
      </trkpt>
      <trkpt lat="42.658647" lon="-6.909609">
        <ele>597.111</ele>
        <time>2021-07-14T15:40:35Z</time>
      </trkpt>
      <trkpt lat="42.658610" lon="-6.909525">
        <ele>597.133</ele>
        <time>2021-07-14T15:40:36Z</time>
      </trkpt>
      <trkpt lat="42.658301" lon="-6.909070">
        <ele>596.670</ele>
        <time>2021-07-14T15:40:43Z</time>
      </trkpt>
      <trkpt lat="42.657923" lon="-6.908792">
        <ele>597.160</ele>
        <time>2021-07-14T15:40:50Z</time>
      </trkpt>
      <trkpt lat="42.657394" lon="-6.908420">
        <ele>596.134</ele>
        <time>2021-07-14T15:41:00Z</time>
      </trkpt>
      <trkpt lat="42.657181" lon="-6.908163">
        <ele>595.162</ele>
        <time>2021-07-14T15:41:05Z</time>
      </trkpt>
      <trkpt lat="42.656933" lon="-6.907620">
        <ele>594.279</ele>
        <time>2021-07-14T15:41:13Z</time>
      </trkpt>
      <trkpt lat="42.656750" lon="-6.906876">
        <ele>593.267</ele>
        <time>2021-07-14T15:41:22Z</time>
      </trkpt>
      <trkpt lat="42.656525" lon="-6.906158">
        <ele>592.717</ele>
        <time>2021-07-14T15:41:31Z</time>
      </trkpt>
      <trkpt lat="42.656175" lon="-6.905644">
        <ele>592.387</ele>
        <time>2021-07-14T15:41:39Z</time>
      </trkpt>
      <trkpt lat="42.655845" lon="-6.905281">
        <ele>590.315</ele>
        <time>2021-07-14T15:41:46Z</time>
      </trkpt>
      <trkpt lat="42.655600" lon="-6.904919">
        <ele>589.908</ele>
        <time>2021-07-14T15:41:52Z</time>
      </trkpt>
      <trkpt lat="42.655566" lon="-6.904847">
        <ele>589.928</ele>
        <time>2021-07-14T15:41:53Z</time>
      </trkpt>
      <trkpt lat="42.655459" lon="-6.904576">
        <ele>589.960</ele>
        <time>2021-07-14T15:41:57Z</time>
      </trkpt>
      <trkpt lat="42.655431" lon="-6.904512">
        <ele>589.967</ele>
        <time>2021-07-14T15:41:58Z</time>
      </trkpt>
      <trkpt lat="42.655409" lon="-6.904449">
        <ele>589.947</ele>
        <time>2021-07-14T15:41:59Z</time>
      </trkpt>
      <trkpt lat="42.655392" lon="-6.904387">
        <ele>589.991</ele>
        <time>2021-07-14T15:42:00Z</time>
      </trkpt>
      <trkpt lat="42.655375" lon="-6.904320">
        <ele>589.989</ele>
        <time>2021-07-14T15:42:01Z</time>
      </trkpt>
      <trkpt lat="42.655218" lon="-6.903599">
        <ele>589.456</ele>
        <time>2021-07-14T15:42:12Z</time>
      </trkpt>
      <trkpt lat="42.655177" lon="-6.903458">
        <ele>589.484</ele>
        <time>2021-07-14T15:42:19Z</time>
      </trkpt>
      <trkpt lat="42.655175" lon="-6.903421">
        <ele>589.964</ele>
        <time>2021-07-14T15:42:27Z</time>
      </trkpt>
      <trkpt lat="42.655139" lon="-6.903225">
        <ele>589.906</ele>
        <time>2021-07-14T15:42:33Z</time>
      </trkpt>
      <trkpt lat="42.655048" lon="-6.902824">
        <ele>589.916</ele>
        <time>2021-07-14T15:42:41Z</time>
      </trkpt>
      <trkpt lat="42.654914" lon="-6.902243">
        <ele>589.908</ele>
        <time>2021-07-14T15:42:51Z</time>
      </trkpt>
      <trkpt lat="42.654854" lon="-6.902032">
        <ele>589.493</ele>
        <time>2021-07-14T15:42:55Z</time>
      </trkpt>
      <trkpt lat="42.654845" lon="-6.901977">
        <ele>589.455</ele>
        <time>2021-07-14T15:42:56Z</time>
      </trkpt>
      <trkpt lat="42.654765" lon="-6.901576">
        <ele>588.922</ele>
        <time>2021-07-14T15:43:04Z</time>
      </trkpt>
      <trkpt lat="42.654692" lon="-6.901239">
        <ele>588.432</ele>
        <time>2021-07-14T15:43:11Z</time>
      </trkpt>
      <trkpt lat="42.654582" lon="-6.900714">
        <ele>588.986</ele>
        <time>2021-07-14T15:43:20Z</time>
      </trkpt>
      <trkpt lat="42.654474" lon="-6.899984">
        <ele>588.964</ele>
        <time>2021-07-14T15:43:31Z</time>
      </trkpt>
      <trkpt lat="42.654458" lon="-6.899397">
        <ele>588.941</ele>
        <time>2021-07-14T15:43:40Z</time>
      </trkpt>
      <trkpt lat="42.654490" lon="-6.898951">
        <ele>589.439</ele>
        <time>2021-07-14T15:43:48Z</time>
      </trkpt>
      <trkpt lat="42.654561" lon="-6.898508">
        <ele>588.991</ele>
        <time>2021-07-14T15:43:56Z</time>
      </trkpt>
      <trkpt lat="42.654661" lon="-6.898139">
        <ele>587.981</ele>
        <time>2021-07-14T15:44:02Z</time>
      </trkpt>
      <trkpt lat="42.654849" lon="-6.897546">
        <ele>587.019</ele>
        <time>2021-07-14T15:44:10Z</time>
      </trkpt>
      <trkpt lat="42.654924" lon="-6.897330">
        <ele>586.508</ele>
        <time>2021-07-14T15:44:13Z</time>
      </trkpt>
      <trkpt lat="42.654986" lon="-6.897202">
        <ele>586.586</ele>
        <time>2021-07-14T15:44:15Z</time>
      </trkpt>
      <trkpt lat="42.655186" lon="-6.896531">
        <ele>585.568</ele>
        <time>2021-07-14T15:44:23Z</time>
      </trkpt>
      <trkpt lat="42.655378" lon="-6.895610">
        <ele>584.135</ele>
        <time>2021-07-14T15:44:33Z</time>
      </trkpt>
      <trkpt lat="42.655393" lon="-6.895517">
        <ele>584.115</ele>
        <time>2021-07-14T15:44:36Z</time>
      </trkpt>
      <trkpt lat="42.655410" lon="-6.895506">
        <ele>583.679</ele>
        <time>2021-07-14T15:44:37Z</time>
      </trkpt>
      <trkpt lat="42.655430" lon="-6.895518">
        <ele>583.657</ele>
        <time>2021-07-14T15:44:38Z</time>
      </trkpt>
      <trkpt lat="42.655433" lon="-6.895545">
        <ele>584.184</ele>
        <time>2021-07-14T15:44:39Z</time>
      </trkpt>
      <trkpt lat="42.655430" lon="-6.895572">
        <ele>584.112</ele>
        <time>2021-07-14T15:44:40Z</time>
      </trkpt>
      <trkpt lat="42.655428" lon="-6.895600">
        <ele>584.176</ele>
        <time>2021-07-14T15:44:41Z</time>
      </trkpt>
      <trkpt lat="42.655434" lon="-6.895647">
        <ele>585.190</ele>
        <time>2021-07-14T15:44:43Z</time>
      </trkpt>
      <trkpt lat="42.655450" lon="-6.895661">
        <ele>585.119</ele>
        <time>2021-07-14T15:44:44Z</time>
      </trkpt>
      <trkpt lat="42.655468" lon="-6.895665">
        <ele>585.108</ele>
        <time>2021-07-14T15:44:45Z</time>
      </trkpt>
      <trkpt lat="42.655490" lon="-6.895662">
        <ele>585.564</ele>
        <time>2021-07-14T15:44:46Z</time>
      </trkpt>
      <trkpt lat="42.655508" lon="-6.895656">
        <ele>585.576</ele>
        <time>2021-07-14T15:44:47Z</time>
      </trkpt>
      <trkpt lat="42.655530" lon="-6.895648">
        <ele>586.053</ele>
        <time>2021-07-14T15:44:48Z</time>
      </trkpt>
      <trkpt lat="42.655548" lon="-6.895639">
        <ele>587.073</ele>
        <time>2021-07-14T15:44:53Z</time>
      </trkpt>
      <trkpt lat="42.655546" lon="-6.895632">
        <ele>588.967</ele>
        <time>2021-07-14T15:45:10Z</time>
      </trkpt>
      <trkpt lat="42.655511" lon="-6.895660">
        <ele>589.425</ele>
        <time>2021-07-14T15:45:18Z</time>
      </trkpt>
      <trkpt lat="42.655474" lon="-6.895675">
        <ele>589.952</ele>
        <time>2021-07-14T15:45:24Z</time>
      </trkpt>
      <trkpt lat="42.655455" lon="-6.895681">
        <ele>590.360</ele>
        <time>2021-07-14T15:45:26Z</time>
      </trkpt>
      <trkpt lat="42.655420" lon="-6.895660">
        <ele>590.363</ele>
        <time>2021-07-14T15:45:28Z</time>
      </trkpt>
      <trkpt lat="42.655401" lon="-6.895637">
        <ele>590.344</ele>
        <time>2021-07-14T15:45:29Z</time>
      </trkpt>
      <trkpt lat="42.655386" lon="-6.895613">
        <ele>590.318</ele>
        <time>2021-07-14T15:45:30Z</time>
      </trkpt>
      <trkpt lat="42.655370" lon="-6.895573">
        <ele>590.308</ele>
        <time>2021-07-14T15:45:31Z</time>
      </trkpt>
      <trkpt lat="42.655363" lon="-6.895524">
        <ele>589.963</ele>
        <time>2021-07-14T15:45:32Z</time>
      </trkpt>
      <trkpt lat="42.655364" lon="-6.895469">
        <ele>589.425</ele>
        <time>2021-07-14T15:45:33Z</time>
      </trkpt>
      <trkpt lat="42.655368" lon="-6.895411">
        <ele>589.432</ele>
        <time>2021-07-14T15:45:34Z</time>
      </trkpt>
      <trkpt lat="42.655405" lon="-6.895021">
        <ele>587.982</ele>
        <time>2021-07-14T15:45:40Z</time>
      </trkpt>
      <trkpt lat="42.655402" lon="-6.894954">
        <ele>587.936</ele>
        <time>2021-07-14T15:45:41Z</time>
      </trkpt>
      <trkpt lat="42.655400" lon="-6.894686">
        <ele>587.994</ele>
        <time>2021-07-14T15:45:45Z</time>
      </trkpt>
      <trkpt lat="42.655381" lon="-6.893995">
        <ele>586.591</ele>
        <time>2021-07-14T15:45:54Z</time>
      </trkpt>
      <trkpt lat="42.655273" lon="-6.893245">
        <ele>582.219</ele>
        <time>2021-07-14T15:46:03Z</time>
      </trkpt>
      <trkpt lat="42.655114" lon="-6.892590">
        <ele>579.311</ele>
        <time>2021-07-14T15:46:11Z</time>
      </trkpt>
      <trkpt lat="42.654838" lon="-6.891892">
        <ele>577.421</ele>
        <time>2021-07-14T15:46:20Z</time>
      </trkpt>
      <trkpt lat="42.654494" lon="-6.891282">
        <ele>576.903</ele>
        <time>2021-07-14T15:46:29Z</time>
      </trkpt>
      <trkpt lat="42.654084" lon="-6.890755">
        <ele>575.408</ele>
        <time>2021-07-14T15:46:38Z</time>
      </trkpt>
      <trkpt lat="42.653577" lon="-6.890285">
        <ele>574.548</ele>
        <time>2021-07-14T15:46:47Z</time>
      </trkpt>
      <trkpt lat="42.652912" lon="-6.889856">
        <ele>574.010</ele>
        <time>2021-07-14T15:46:58Z</time>
      </trkpt>
      <trkpt lat="42.652304" lon="-6.889569">
        <ele>572.137</ele>
        <time>2021-07-14T15:47:08Z</time>
      </trkpt>
      <trkpt lat="42.651805" lon="-6.889342">
        <ele>571.117</ele>
        <time>2021-07-14T15:47:16Z</time>
      </trkpt>
      <trkpt lat="42.651129" lon="-6.888990">
        <ele>570.651</ele>
        <time>2021-07-14T15:47:27Z</time>
      </trkpt>
      <trkpt lat="42.650452" lon="-6.888518">
        <ele>570.239</ele>
        <time>2021-07-14T15:47:39Z</time>
      </trkpt>
      <trkpt lat="42.650041" lon="-6.888062">
        <ele>569.286</ele>
        <time>2021-07-14T15:47:48Z</time>
      </trkpt>
      <trkpt lat="42.649684" lon="-6.887560">
        <ele>569.274</ele>
        <time>2021-07-14T15:47:57Z</time>
      </trkpt>
      <trkpt lat="42.649348" lon="-6.886841">
        <ele>569.266</ele>
        <time>2021-07-14T15:48:07Z</time>
      </trkpt>
      <trkpt lat="42.649084" lon="-6.885905">
        <ele>567.829</ele>
        <time>2021-07-14T15:48:18Z</time>
      </trkpt>
      <trkpt lat="42.648936" lon="-6.884895">
        <ele>566.821</ele>
        <time>2021-07-14T15:48:29Z</time>
      </trkpt>
      <trkpt lat="42.648852" lon="-6.883945">
        <ele>565.808</ele>
        <time>2021-07-14T15:48:39Z</time>
      </trkpt>
      <trkpt lat="42.648791" lon="-6.883213">
        <ele>565.393</ele>
        <time>2021-07-14T15:48:47Z</time>
      </trkpt>
      <trkpt lat="42.648680" lon="-6.882145">
        <ele>564.445</ele>
        <time>2021-07-14T15:48:59Z</time>
      </trkpt>
      <trkpt lat="42.648529" lon="-6.881209">
        <ele>564.482</ele>
        <time>2021-07-14T15:49:10Z</time>
      </trkpt>
      <trkpt lat="42.648312" lon="-6.880212">
        <ele>563.412</ele>
        <time>2021-07-14T15:49:22Z</time>
      </trkpt>
      <trkpt lat="42.648121" lon="-6.879479">
        <ele>562.976</ele>
        <time>2021-07-14T15:49:31Z</time>
      </trkpt>
      <trkpt lat="42.647910" lon="-6.878789">
        <ele>562.924</ele>
        <time>2021-07-14T15:49:40Z</time>
      </trkpt>
      <trkpt lat="42.647591" lon="-6.877896">
        <ele>562.551</ele>
        <time>2021-07-14T15:49:51Z</time>
      </trkpt>
      <trkpt lat="42.647237" lon="-6.877066">
        <ele>562.999</ele>
        <time>2021-07-14T15:50:02Z</time>
      </trkpt>
      <trkpt lat="42.646820" lon="-6.876234">
        <ele>563.446</ele>
        <time>2021-07-14T15:50:14Z</time>
      </trkpt>
      <trkpt lat="42.646547" lon="-6.875783">
        <ele>563.488</ele>
        <time>2021-07-14T15:50:22Z</time>
      </trkpt>
      <trkpt lat="42.646511" lon="-6.875752">
        <ele>563.416</ele>
        <time>2021-07-14T15:50:23Z</time>
      </trkpt>
      <trkpt lat="42.646473" lon="-6.875728">
        <ele>563.408</ele>
        <time>2021-07-14T15:50:24Z</time>
      </trkpt>
      <trkpt lat="42.646438" lon="-6.875714">
        <ele>563.471</ele>
        <time>2021-07-14T15:50:25Z</time>
      </trkpt>
      <trkpt lat="42.646406" lon="-6.875706">
        <ele>563.413</ele>
        <time>2021-07-14T15:50:26Z</time>
      </trkpt>
      <trkpt lat="42.646379" lon="-6.875706">
        <ele>563.480</ele>
        <time>2021-07-14T15:50:27Z</time>
      </trkpt>
      <trkpt lat="42.646351" lon="-6.875706">
        <ele>563.460</ele>
        <time>2021-07-14T15:50:28Z</time>
      </trkpt>
      <trkpt lat="42.646252" lon="-6.875682">
        <ele>563.444</ele>
        <time>2021-07-14T15:50:31Z</time>
      </trkpt>
      <trkpt lat="42.646116" lon="-6.875406">
        <ele>562.952</ele>
        <time>2021-07-14T15:50:37Z</time>
      </trkpt>
      <trkpt lat="42.646115" lon="-6.875340">
        <ele>563.489</ele>
        <time>2021-07-14T15:50:38Z</time>
      </trkpt>
      <trkpt lat="42.646117" lon="-6.875125">
        <ele>563.477</ele>
        <time>2021-07-14T15:50:41Z</time>
      </trkpt>
      <trkpt lat="42.646105" lon="-6.875067">
        <ele>563.486</ele>
        <time>2021-07-14T15:50:42Z</time>
      </trkpt>
      <trkpt lat="42.646080" lon="-6.875007">
        <ele>563.460</ele>
        <time>2021-07-14T15:50:43Z</time>
      </trkpt>
      <trkpt lat="42.646046" lon="-6.874952">
        <ele>563.426</ele>
        <time>2021-07-14T15:50:44Z</time>
      </trkpt>
      <trkpt lat="42.646009" lon="-6.874903">
        <ele>563.408</ele>
        <time>2021-07-14T15:50:45Z</time>
      </trkpt>
      <trkpt lat="42.645617" lon="-6.874347">
        <ele>563.915</ele>
        <time>2021-07-14T15:50:55Z</time>
      </trkpt>
      <trkpt lat="42.645192" lon="-6.873805">
        <ele>564.477</ele>
        <time>2021-07-14T15:51:05Z</time>
      </trkpt>
      <trkpt lat="42.644783" lon="-6.873337">
        <ele>564.484</ele>
        <time>2021-07-14T15:51:14Z</time>
      </trkpt>
      <trkpt lat="42.644285" lon="-6.872834">
        <ele>563.914</ele>
        <time>2021-07-14T15:51:24Z</time>
      </trkpt>
      <trkpt lat="42.643729" lon="-6.872310">
        <ele>562.918</ele>
        <time>2021-07-14T15:51:35Z</time>
      </trkpt>
      <trkpt lat="42.643162" lon="-6.871775">
        <ele>561.576</ele>
        <time>2021-07-14T15:51:46Z</time>
      </trkpt>
      <trkpt lat="42.642573" lon="-6.871168">
        <ele>559.693</ele>
        <time>2021-07-14T15:51:57Z</time>
      </trkpt>
      <trkpt lat="42.641939" lon="-6.870424">
        <ele>556.711</ele>
        <time>2021-07-14T15:52:09Z</time>
      </trkpt>
      <trkpt lat="42.641424" lon="-6.869727">
        <ele>555.328</ele>
        <time>2021-07-14T15:52:20Z</time>
      </trkpt>
      <trkpt lat="42.640907" lon="-6.868933">
        <ele>553.889</ele>
        <time>2021-07-14T15:52:31Z</time>
      </trkpt>
      <trkpt lat="42.640424" lon="-6.868062">
        <ele>552.417</ele>
        <time>2021-07-14T15:52:42Z</time>
      </trkpt>
      <trkpt lat="42.640106" lon="-6.867371">
        <ele>551.408</ele>
        <time>2021-07-14T15:52:50Z</time>
      </trkpt>
      <trkpt lat="42.639772" lon="-6.866617">
        <ele>550.979</ele>
        <time>2021-07-14T15:52:59Z</time>
      </trkpt>
      <trkpt lat="42.639476" lon="-6.865993">
        <ele>549.531</ele>
        <time>2021-07-14T15:53:07Z</time>
      </trkpt>
      <trkpt lat="42.639098" lon="-6.865208">
        <ele>550.958</ele>
        <time>2021-07-14T15:53:18Z</time>
      </trkpt>
      <trkpt lat="42.638785" lon="-6.864602">
        <ele>552.928</ele>
        <time>2021-07-14T15:53:28Z</time>
      </trkpt>
      <trkpt lat="42.638409" lon="-6.863935">
        <ele>555.722</ele>
        <time>2021-07-14T15:53:42Z</time>
      </trkpt>
      <trkpt lat="42.638076" lon="-6.863333">
        <ele>556.750</ele>
        <time>2021-07-14T15:53:54Z</time>
      </trkpt>
      <trkpt lat="42.637926" lon="-6.862771">
        <ele>557.247</ele>
        <time>2021-07-14T15:54:03Z</time>
      </trkpt>
      <trkpt lat="42.637918" lon="-6.862622">
        <ele>557.255</ele>
        <time>2021-07-14T15:54:05Z</time>
      </trkpt>
      <trkpt lat="42.637985" lon="-6.862109">
        <ele>557.797</ele>
        <time>2021-07-14T15:54:12Z</time>
      </trkpt>
      <trkpt lat="42.638213" lon="-6.861633">
        <ele>556.723</ele>
        <time>2021-07-14T15:54:19Z</time>
      </trkpt>
      <trkpt lat="42.638637" lon="-6.861062">
        <ele>554.825</ele>
        <time>2021-07-14T15:54:28Z</time>
      </trkpt>
      <trkpt lat="42.638828" lon="-6.860655">
        <ele>553.808</ele>
        <time>2021-07-14T15:54:33Z</time>
      </trkpt>
      <trkpt lat="42.638904" lon="-6.860183">
        <ele>553.346</ele>
        <time>2021-07-14T15:54:38Z</time>
      </trkpt>
      <trkpt lat="42.638901" lon="-6.860083">
        <ele>553.368</ele>
        <time>2021-07-14T15:54:39Z</time>
      </trkpt>
      <trkpt lat="42.638893" lon="-6.859991">
        <ele>553.825</ele>
        <time>2021-07-14T15:54:40Z</time>
      </trkpt>
      <trkpt lat="42.638794" lon="-6.859171">
        <ele>552.985</ele>
        <time>2021-07-14T15:54:50Z</time>
      </trkpt>
      <trkpt lat="42.638672" lon="-6.858163">
        <ele>550.459</ele>
        <time>2021-07-14T15:55:02Z</time>
      </trkpt>
      <trkpt lat="42.638535" lon="-6.857200">
        <ele>550.077</ele>
        <time>2021-07-14T15:55:13Z</time>
      </trkpt>
      <trkpt lat="42.638291" lon="-6.856550">
        <ele>549.594</ele>
        <time>2021-07-14T15:55:21Z</time>
      </trkpt>
      <trkpt lat="42.637875" lon="-6.855854">
        <ele>548.532</ele>
        <time>2021-07-14T15:55:31Z</time>
      </trkpt>
      <trkpt lat="42.637349" lon="-6.855058">
        <ele>547.629</ele>
        <time>2021-07-14T15:55:42Z</time>
      </trkpt>
      <trkpt lat="42.636872" lon="-6.854522">
        <ele>548.500</ele>
        <time>2021-07-14T15:55:51Z</time>
      </trkpt>
      <trkpt lat="42.636294" lon="-6.854031">
        <ele>548.020</ele>
        <time>2021-07-14T15:56:01Z</time>
      </trkpt>
      <trkpt lat="42.635762" lon="-6.853573">
        <ele>547.108</ele>
        <time>2021-07-14T15:56:11Z</time>
      </trkpt>
      <trkpt lat="42.635063" lon="-6.853032">
        <ele>545.239</ele>
        <time>2021-07-14T15:56:23Z</time>
      </trkpt>
      <trkpt lat="42.634524" lon="-6.852744">
        <ele>545.611</ele>
        <time>2021-07-14T15:56:32Z</time>
      </trkpt>
      <trkpt lat="42.633756" lon="-6.852461">
        <ele>546.668</ele>
        <time>2021-07-14T15:56:44Z</time>
      </trkpt>
      <trkpt lat="42.633395" lon="-6.852171">
        <ele>546.128</ele>
        <time>2021-07-14T15:56:50Z</time>
      </trkpt>
      <trkpt lat="42.633240" lon="-6.851989">
        <ele>545.622</ele>
        <time>2021-07-14T15:56:53Z</time>
      </trkpt>
      <trkpt lat="42.633192" lon="-6.851931">
        <ele>545.660</ele>
        <time>2021-07-14T15:56:54Z</time>
      </trkpt>
      <trkpt lat="42.632821" lon="-6.851435">
        <ele>544.767</ele>
        <time>2021-07-14T15:57:02Z</time>
      </trkpt>
      <trkpt lat="42.632266" lon="-6.850674">
        <ele>543.215</ele>
        <time>2021-07-14T15:57:13Z</time>
      </trkpt>
      <trkpt lat="42.631747" lon="-6.849993">
        <ele>542.824</ele>
        <time>2021-07-14T15:57:24Z</time>
      </trkpt>
      <trkpt lat="42.631130" lon="-6.849245">
        <ele>544.204</ele>
        <time>2021-07-14T15:57:37Z</time>
      </trkpt>
      <trkpt lat="42.630570" lon="-6.848583">
        <ele>543.214</ele>
        <time>2021-07-14T15:57:48Z</time>
      </trkpt>
      <trkpt lat="42.629848" lon="-6.847765">
        <ele>541.308</ele>
        <time>2021-07-14T15:58:02Z</time>
      </trkpt>
      <trkpt lat="42.629245" lon="-6.847210">
        <ele>540.459</ele>
        <time>2021-07-14T15:58:13Z</time>
      </trkpt>
      <trkpt lat="42.628708" lon="-6.846872">
        <ele>539.431</ele>
        <time>2021-07-14T15:58:22Z</time>
      </trkpt>
      <trkpt lat="42.627989" lon="-6.846591">
        <ele>538.448</ele>
        <time>2021-07-14T15:58:33Z</time>
      </trkpt>
      <trkpt lat="42.627157" lon="-6.846384">
        <ele>537.578</ele>
        <time>2021-07-14T15:58:45Z</time>
      </trkpt>
      <trkpt lat="42.626624" lon="-6.846136">
        <ele>538.952</ele>
        <time>2021-07-14T15:58:54Z</time>
      </trkpt>
      <trkpt lat="42.626183" lon="-6.845809">
        <ele>538.970</ele>
        <time>2021-07-14T15:59:03Z</time>
      </trkpt>
      <trkpt lat="42.625846" lon="-6.845398">
        <ele>538.497</ele>
        <time>2021-07-14T15:59:12Z</time>
      </trkpt>
      <trkpt lat="42.625744" lon="-6.845257">
        <ele>537.995</ele>
        <time>2021-07-14T15:59:15Z</time>
      </trkpt>
      <trkpt lat="42.625415" lon="-6.844666">
        <ele>537.968</ele>
        <time>2021-07-14T15:59:26Z</time>
      </trkpt>
      <trkpt lat="42.625151" lon="-6.844083">
        <ele>537.942</ele>
        <time>2021-07-14T15:59:35Z</time>
      </trkpt>
      <trkpt lat="42.624728" lon="-6.843102">
        <ele>537.026</ele>
        <time>2021-07-14T15:59:49Z</time>
      </trkpt>
      <trkpt lat="42.624356" lon="-6.842223">
        <ele>535.508</ele>
        <time>2021-07-14T16:00:01Z</time>
      </trkpt>
      <trkpt lat="42.624023" lon="-6.841458">
        <ele>533.633</ele>
        <time>2021-07-14T16:00:12Z</time>
      </trkpt>
      <trkpt lat="42.623674" lon="-6.840685">
        <ele>533.125</ele>
        <time>2021-07-14T16:00:23Z</time>
      </trkpt>
      <trkpt lat="42.623323" lon="-6.839905">
        <ele>532.252</ele>
        <time>2021-07-14T16:00:34Z</time>
      </trkpt>
      <trkpt lat="42.622997" lon="-6.839192">
        <ele>531.752</ele>
        <time>2021-07-14T16:00:44Z</time>
      </trkpt>
      <trkpt lat="42.622623" lon="-6.838409">
        <ele>530.766</ele>
        <time>2021-07-14T16:00:56Z</time>
      </trkpt>
      <trkpt lat="42.622561" lon="-6.838289">
        <ele>530.784</ele>
        <time>2021-07-14T16:00:58Z</time>
      </trkpt>
      <trkpt lat="42.622525" lon="-6.838231">
        <ele>530.711</ele>
        <time>2021-07-14T16:00:59Z</time>
      </trkpt>
      <trkpt lat="42.622487" lon="-6.838170">
        <ele>530.799</ele>
        <time>2021-07-14T16:01:00Z</time>
      </trkpt>
      <trkpt lat="42.622233" lon="-6.837857">
        <ele>530.721</ele>
        <time>2021-07-14T16:01:07Z</time>
      </trkpt>
      <trkpt lat="42.622022" lon="-6.837693">
        <ele>529.341</ele>
        <time>2021-07-14T16:01:13Z</time>
      </trkpt>
      <trkpt lat="42.621929" lon="-6.837619">
        <ele>529.305</ele>
        <time>2021-07-14T16:01:18Z</time>
      </trkpt>
      <trkpt lat="42.621908" lon="-6.837616">
        <ele>530.308</ele>
        <time>2021-07-14T16:01:23Z</time>
      </trkpt>
      <trkpt lat="42.621861" lon="-6.837579">
        <ele>531.269</ele>
        <time>2021-07-14T16:01:29Z</time>
      </trkpt>
      <trkpt lat="42.621764" lon="-6.837527">
        <ele>530.741</ele>
        <time>2021-07-14T16:01:38Z</time>
      </trkpt>
      <trkpt lat="42.621753" lon="-6.837526">
        <ele>534.188</ele>
        <time>2021-07-14T16:01:54Z</time>
      </trkpt>
      <trkpt lat="42.621750" lon="-6.837518">
        <ele>536.098</ele>
        <time>2021-07-14T16:02:06Z</time>
      </trkpt>
      <trkpt lat="42.621744" lon="-6.837517">
        <ele>536.552</ele>
        <time>2021-07-14T16:02:24Z</time>
      </trkpt>
      <trkpt lat="42.621673" lon="-6.837463">
        <ele>535.530</ele>
        <time>2021-07-14T16:02:30Z</time>
      </trkpt>
      <trkpt lat="42.621575" lon="-6.837401">
        <ele>535.527</ele>
        <time>2021-07-14T16:02:37Z</time>
      </trkpt>
      <trkpt lat="42.621537" lon="-6.837372">
        <ele>535.185</ele>
        <time>2021-07-14T16:02:44Z</time>
      </trkpt>
      <trkpt lat="42.621376" lon="-6.837233">
        <ele>534.158</ele>
        <time>2021-07-14T16:02:51Z</time>
      </trkpt>
      <trkpt lat="42.621131" lon="-6.836917">
        <ele>532.752</ele>
        <time>2021-07-14T16:03:00Z</time>
      </trkpt>
      <trkpt lat="42.621043" lon="-6.836705">
        <ele>532.717</ele>
        <time>2021-07-14T16:03:04Z</time>
      </trkpt>
      <trkpt lat="42.621029" lon="-6.836647">
        <ele>532.208</ele>
        <time>2021-07-14T16:03:05Z</time>
      </trkpt>
      <trkpt lat="42.621018" lon="-6.836586">
        <ele>532.222</ele>
        <time>2021-07-14T16:03:06Z</time>
      </trkpt>
      <trkpt lat="42.620994" lon="-6.836037">
        <ele>532.274</ele>
        <time>2021-07-14T16:03:14Z</time>
      </trkpt>
      <trkpt lat="42.621135" lon="-6.835499">
        <ele>530.721</ele>
        <time>2021-07-14T16:03:22Z</time>
      </trkpt>
      <trkpt lat="42.621411" lon="-6.835106">
        <ele>529.841</ele>
        <time>2021-07-14T16:03:29Z</time>
      </trkpt>
      <trkpt lat="42.621829" lon="-6.834682">
        <ele>527.955</ele>
        <time>2021-07-14T16:03:37Z</time>
      </trkpt>
      <trkpt lat="42.622412" lon="-6.834027">
        <ele>525.083</ele>
        <time>2021-07-14T16:03:48Z</time>
      </trkpt>
      <trkpt lat="42.622806" lon="-6.833435">
        <ele>523.550</ele>
        <time>2021-07-14T16:03:57Z</time>
      </trkpt>
      <trkpt lat="42.623063" lon="-6.832803">
        <ele>522.678</ele>
        <time>2021-07-14T16:04:06Z</time>
      </trkpt>
      <trkpt lat="42.623213" lon="-6.832191">
        <ele>524.065</ele>
        <time>2021-07-14T16:04:14Z</time>
      </trkpt>
      <trkpt lat="42.623328" lon="-6.831425">
        <ele>524.568</ele>
        <time>2021-07-14T16:04:24Z</time>
      </trkpt>
      <trkpt lat="42.623352" lon="-6.830773">
        <ele>525.514</ele>
        <time>2021-07-14T16:04:33Z</time>
      </trkpt>
      <trkpt lat="42.623266" lon="-6.830366">
        <ele>525.508</ele>
        <time>2021-07-14T16:04:39Z</time>
      </trkpt>
      <trkpt lat="42.623116" lon="-6.830087">
        <ele>525.533</ele>
        <time>2021-07-14T16:04:44Z</time>
      </trkpt>
      <trkpt lat="42.622740" lon="-6.829716">
        <ele>525.975</ele>
        <time>2021-07-14T16:04:53Z</time>
      </trkpt>
      <trkpt lat="42.622535" lon="-6.829646">
        <ele>525.012</ele>
        <time>2021-07-14T16:04:57Z</time>
      </trkpt>
      <trkpt lat="42.622138" lon="-6.829685">
        <ele>523.072</ele>
        <time>2021-07-14T16:05:04Z</time>
      </trkpt>
      <trkpt lat="42.621660" lon="-6.829963">
        <ele>522.126</ele>
        <time>2021-07-14T16:05:13Z</time>
      </trkpt>
      <trkpt lat="42.621247" lon="-6.830272">
        <ele>523.564</ele>
        <time>2021-07-14T16:05:22Z</time>
      </trkpt>
      <trkpt lat="42.620770" lon="-6.830542">
        <ele>524.011</ele>
        <time>2021-07-14T16:05:32Z</time>
      </trkpt>
      <trkpt lat="42.620721" lon="-6.830551">
        <ele>524.579</ele>
        <time>2021-07-14T16:05:33Z</time>
      </trkpt>
      <trkpt lat="42.620671" lon="-6.830555">
        <ele>524.526</ele>
        <time>2021-07-14T16:05:34Z</time>
      </trkpt>
      <trkpt lat="42.620289" lon="-6.830502">
        <ele>526.947</ele>
        <time>2021-07-14T16:05:42Z</time>
      </trkpt>
      <trkpt lat="42.619787" lon="-6.830263">
        <ele>530.711</ele>
        <time>2021-07-14T16:05:53Z</time>
      </trkpt>
      <trkpt lat="42.619359" lon="-6.830055">
        <ele>532.708</ele>
        <time>2021-07-14T16:06:02Z</time>
      </trkpt>
      <trkpt lat="42.618947" lon="-6.829847">
        <ele>533.649</ele>
        <time>2021-07-14T16:06:11Z</time>
      </trkpt>
      <trkpt lat="42.618467" lon="-6.829547">
        <ele>534.171</ele>
        <time>2021-07-14T16:06:22Z</time>
      </trkpt>
      <trkpt lat="42.618149" lon="-6.829206">
        <ele>533.138</ele>
        <time>2021-07-14T16:06:30Z</time>
      </trkpt>
      <trkpt lat="42.618115" lon="-6.829148">
        <ele>533.198</ele>
        <time>2021-07-14T16:06:31Z</time>
      </trkpt>
      <trkpt lat="42.617882" lon="-6.828605">
        <ele>532.292</ele>
        <time>2021-07-14T16:06:39Z</time>
      </trkpt>
      <trkpt lat="42.617611" lon="-6.827820">
        <ele>529.360</ele>
        <time>2021-07-14T16:06:50Z</time>
      </trkpt>
      <trkpt lat="42.617348" lon="-6.827107">
        <ele>525.957</ele>
        <time>2021-07-14T16:06:59Z</time>
      </trkpt>
      <trkpt lat="42.616962" lon="-6.826414">
        <ele>523.585</ele>
        <time>2021-07-14T16:07:07Z</time>
      </trkpt>
      <trkpt lat="42.616415" lon="-6.825732">
        <ele>521.114</ele>
        <time>2021-07-14T16:07:16Z</time>
      </trkpt>
      <trkpt lat="42.615945" lon="-6.825302">
        <ele>521.154</ele>
        <time>2021-07-14T16:07:23Z</time>
      </trkpt>
      <trkpt lat="42.615271" lon="-6.824754">
        <ele>520.209</ele>
        <time>2021-07-14T16:07:33Z</time>
      </trkpt>
      <trkpt lat="42.614990" lon="-6.824258">
        <ele>519.708</ele>
        <time>2021-07-14T16:07:39Z</time>
      </trkpt>
      <trkpt lat="42.614879" lon="-6.823760">
        <ele>518.728</ele>
        <time>2021-07-14T16:07:44Z</time>
      </trkpt>
      <trkpt lat="42.614882" lon="-6.823337">
        <ele>517.390</ele>
        <time>2021-07-14T16:07:48Z</time>
      </trkpt>
      <trkpt lat="42.615030" lon="-6.822494">
        <ele>514.977</ele>
        <time>2021-07-14T16:07:56Z</time>
      </trkpt>
      <trkpt lat="42.615050" lon="-6.821982">
        <ele>514.427</ele>
        <time>2021-07-14T16:08:01Z</time>
      </trkpt>
      <trkpt lat="42.615040" lon="-6.821885">
        <ele>514.451</ele>
        <time>2021-07-14T16:08:02Z</time>
      </trkpt>
      <trkpt lat="42.615023" lon="-6.821791">
        <ele>514.429</ele>
        <time>2021-07-14T16:08:03Z</time>
      </trkpt>
      <trkpt lat="42.615001" lon="-6.821702">
        <ele>514.416</ele>
        <time>2021-07-14T16:08:04Z</time>
      </trkpt>
      <trkpt lat="42.614971" lon="-6.821618">
        <ele>514.464</ele>
        <time>2021-07-14T16:08:05Z</time>
      </trkpt>
      <trkpt lat="42.614937" lon="-6.821540">
        <ele>514.485</ele>
        <time>2021-07-14T16:08:06Z</time>
      </trkpt>
      <trkpt lat="42.614854" lon="-6.821390">
        <ele>513.989</ele>
        <time>2021-07-14T16:08:08Z</time>
      </trkpt>
      <trkpt lat="42.614802" lon="-6.821321">
        <ele>513.917</ele>
        <time>2021-07-14T16:08:09Z</time>
      </trkpt>
      <trkpt lat="42.614753" lon="-6.821265">
        <ele>513.908</ele>
        <time>2021-07-14T16:08:10Z</time>
      </trkpt>
      <trkpt lat="42.614698" lon="-6.821211">
        <ele>513.945</ele>
        <time>2021-07-14T16:08:11Z</time>
      </trkpt>
      <trkpt lat="42.614640" lon="-6.821164">
        <ele>513.917</ele>
        <time>2021-07-14T16:08:12Z</time>
      </trkpt>
      <trkpt lat="42.614574" lon="-6.821125">
        <ele>513.964</ele>
        <time>2021-07-14T16:08:13Z</time>
      </trkpt>
      <trkpt lat="42.614516" lon="-6.821095">
        <ele>514.444</ele>
        <time>2021-07-14T16:08:14Z</time>
      </trkpt>
      <trkpt lat="42.614452" lon="-6.821069">
        <ele>514.468</ele>
        <time>2021-07-14T16:08:15Z</time>
      </trkpt>
      <trkpt lat="42.614384" lon="-6.821057">
        <ele>514.946</ele>
        <time>2021-07-14T16:08:16Z</time>
      </trkpt>
      <trkpt lat="42.614314" lon="-6.821047">
        <ele>514.933</ele>
        <time>2021-07-14T16:08:17Z</time>
      </trkpt>
      <trkpt lat="42.614256" lon="-6.821045">
        <ele>514.931</ele>
        <time>2021-07-14T16:08:18Z</time>
      </trkpt>
      <trkpt lat="42.614198" lon="-6.821049">
        <ele>514.413</ele>
        <time>2021-07-14T16:08:19Z</time>
      </trkpt>
      <trkpt lat="42.613961" lon="-6.821113">
        <ele>514.943</ele>
        <time>2021-07-14T16:08:24Z</time>
      </trkpt>
      <trkpt lat="42.613711" lon="-6.821237">
        <ele>514.407</ele>
        <time>2021-07-14T16:08:32Z</time>
      </trkpt>
      <trkpt lat="42.613275" lon="-6.821382">
        <ele>514.908</ele>
        <time>2021-07-14T16:08:43Z</time>
      </trkpt>
      <trkpt lat="42.612908" lon="-6.821293">
        <ele>516.358</ele>
        <time>2021-07-14T16:08:51Z</time>
      </trkpt>
      <trkpt lat="42.612558" lon="-6.821106">
        <ele>516.370</ele>
        <time>2021-07-14T16:09:00Z</time>
      </trkpt>
      <trkpt lat="42.612194" lon="-6.820887">
        <ele>517.327</ele>
        <time>2021-07-14T16:09:09Z</time>
      </trkpt>
      <trkpt lat="42.611835" lon="-6.820646">
        <ele>516.837</ele>
        <time>2021-07-14T16:09:18Z</time>
      </trkpt>
      <trkpt lat="42.611597" lon="-6.820454">
        <ele>516.811</ele>
        <time>2021-07-14T16:09:25Z</time>
      </trkpt>
      <trkpt lat="42.611577" lon="-6.820404">
        <ele>516.819</ele>
        <time>2021-07-14T16:09:26Z</time>
      </trkpt>
      <trkpt lat="42.611567" lon="-6.820359">
        <ele>516.326</ele>
        <time>2021-07-14T16:09:27Z</time>
      </trkpt>
      <trkpt lat="42.611570" lon="-6.820296">
        <ele>516.384</ele>
        <time>2021-07-14T16:09:28Z</time>
      </trkpt>
      <trkpt lat="42.611581" lon="-6.820248">
        <ele>515.845</ele>
        <time>2021-07-14T16:09:29Z</time>
      </trkpt>
      <trkpt lat="42.611605" lon="-6.820192">
        <ele>515.847</ele>
        <time>2021-07-14T16:09:30Z</time>
      </trkpt>
      <trkpt lat="42.611644" lon="-6.820137">
        <ele>515.411</ele>
        <time>2021-07-14T16:09:31Z</time>
      </trkpt>
      <trkpt lat="42.611678" lon="-6.820082">
        <ele>514.908</ele>
        <time>2021-07-14T16:09:32Z</time>
      </trkpt>
      <trkpt lat="42.611700" lon="-6.820050">
        <ele>514.981</ele>
        <time>2021-07-14T16:09:33Z</time>
      </trkpt>
      <trkpt lat="42.611735" lon="-6.819996">
        <ele>514.993</ele>
        <time>2021-07-14T16:09:34Z</time>
      </trkpt>
      <trkpt lat="42.611764" lon="-6.819948">
        <ele>514.970</ele>
        <time>2021-07-14T16:09:35Z</time>
      </trkpt>
      <trkpt lat="42.611792" lon="-6.819908">
        <ele>514.910</ele>
        <time>2021-07-14T16:09:36Z</time>
      </trkpt>
      <trkpt lat="42.611899" lon="-6.819779">
        <ele>514.484</ele>
        <time>2021-07-14T16:09:39Z</time>
      </trkpt>
      <trkpt lat="42.611947" lon="-6.819739">
        <ele>514.412</ele>
        <time>2021-07-14T16:09:40Z</time>
      </trkpt>
      <trkpt lat="42.612111" lon="-6.819649">
        <ele>513.479</ele>
        <time>2021-07-14T16:09:43Z</time>
      </trkpt>
      <trkpt lat="42.612231" lon="-6.819606">
        <ele>513.087</ele>
        <time>2021-07-14T16:09:45Z</time>
      </trkpt>
      <trkpt lat="42.612560" lon="-6.819366">
        <ele>511.068</ele>
        <time>2021-07-14T16:09:50Z</time>
      </trkpt>
      <trkpt lat="42.612616" lon="-6.819295">
        <ele>511.042</ele>
        <time>2021-07-14T16:09:51Z</time>
      </trkpt>
      <trkpt lat="42.612666" lon="-6.819215">
        <ele>511.026</ele>
        <time>2021-07-14T16:09:52Z</time>
      </trkpt>
      <trkpt lat="42.612716" lon="-6.819136">
        <ele>510.608</ele>
        <time>2021-07-14T16:09:53Z</time>
      </trkpt>
      <trkpt lat="42.612769" lon="-6.819066">
        <ele>510.653</ele>
        <time>2021-07-14T16:09:54Z</time>
      </trkpt>
      <trkpt lat="42.612833" lon="-6.819005">
        <ele>510.135</ele>
        <time>2021-07-14T16:09:55Z</time>
      </trkpt>
      <trkpt lat="42.612898" lon="-6.818963">
        <ele>510.182</ele>
        <time>2021-07-14T16:09:56Z</time>
      </trkpt>
      <trkpt lat="42.612964" lon="-6.818935">
        <ele>510.132</ele>
        <time>2021-07-14T16:09:57Z</time>
      </trkpt>
      <trkpt lat="42.613029" lon="-6.818921">
        <ele>510.686</ele>
        <time>2021-07-14T16:09:58Z</time>
      </trkpt>
      <trkpt lat="42.613090" lon="-6.818916">
        <ele>510.694</ele>
        <time>2021-07-14T16:09:59Z</time>
      </trkpt>
      <trkpt lat="42.613150" lon="-6.818921">
        <ele>510.651</ele>
        <time>2021-07-14T16:10:00Z</time>
      </trkpt>
      <trkpt lat="42.613205" lon="-6.818925">
        <ele>510.629</ele>
        <time>2021-07-14T16:10:01Z</time>
      </trkpt>
      <trkpt lat="42.613258" lon="-6.818928">
        <ele>510.626</ele>
        <time>2021-07-14T16:10:02Z</time>
      </trkpt>
      <trkpt lat="42.613701" lon="-6.818953">
        <ele>512.547</ele>
        <time>2021-07-14T16:10:11Z</time>
      </trkpt>
      <trkpt lat="42.614005" lon="-6.818945">
        <ele>513.911</ele>
        <time>2021-07-14T16:10:18Z</time>
      </trkpt>
      <trkpt lat="42.614241" lon="-6.818878">
        <ele>514.908</ele>
        <time>2021-07-14T16:10:25Z</time>
      </trkpt>
      <trkpt lat="42.614519" lon="-6.818760">
        <ele>515.499</ele>
        <time>2021-07-14T16:10:34Z</time>
      </trkpt>
      <trkpt lat="42.614733" lon="-6.818546">
        <ele>515.891</ele>
        <time>2021-07-14T16:10:42Z</time>
      </trkpt>
      <trkpt lat="42.614898" lon="-6.818216">
        <ele>517.388</ele>
        <time>2021-07-14T16:10:51Z</time>
      </trkpt>
      <trkpt lat="42.614992" lon="-6.817875">
        <ele>518.258</ele>
        <time>2021-07-14T16:10:59Z</time>
      </trkpt>
      <trkpt lat="42.615100" lon="-6.817461">
        <ele>519.292</ele>
        <time>2021-07-14T16:11:09Z</time>
      </trkpt>
      <trkpt lat="42.615200" lon="-6.817058">
        <ele>521.150</ele>
        <time>2021-07-14T16:11:19Z</time>
      </trkpt>
      <trkpt lat="42.615237" lon="-6.816885">
        <ele>522.177</ele>
        <time>2021-07-14T16:11:25Z</time>
      </trkpt>
      <trkpt lat="42.615261" lon="-6.816699">
        <ele>523.095</ele>
        <time>2021-07-14T16:11:31Z</time>
      </trkpt>
      <trkpt lat="42.615271" lon="-6.816644">
        <ele>523.035</ele>
        <time>2021-07-14T16:11:33Z</time>
      </trkpt>
      <trkpt lat="42.615275" lon="-6.816624">
        <ele>523.086</ele>
        <time>2021-07-14T16:11:34Z</time>
      </trkpt>
      <trkpt lat="42.615270" lon="-6.816582">
        <ele>523.014</ele>
        <time>2021-07-14T16:11:38Z</time>
      </trkpt>
      <trkpt lat="42.615266" lon="-6.816566">
        <ele>523.008</ele>
        <time>2021-07-14T16:11:39Z</time>
      </trkpt>
      <trkpt lat="42.615236" lon="-6.816379">
        <ele>522.160</ele>
        <time>2021-07-14T16:11:49Z</time>
      </trkpt>
      <trkpt lat="42.615193" lon="-6.816180">
        <ele>521.662</ele>
        <time>2021-07-14T16:11:57Z</time>
      </trkpt>
      <trkpt lat="42.615169" lon="-6.815980">
        <ele>521.199</ele>
        <time>2021-07-14T16:12:07Z</time>
      </trkpt>
      <trkpt lat="42.615101" lon="-6.815845">
        <ele>521.129</ele>
        <time>2021-07-14T16:12:15Z</time>
      </trkpt>
      <trkpt lat="42.614983" lon="-6.815658">
        <ele>520.253</ele>
        <time>2021-07-14T16:12:23Z</time>
      </trkpt>
      <trkpt lat="42.614767" lon="-6.815422">
        <ele>519.791</ele>
        <time>2021-07-14T16:12:30Z</time>
      </trkpt>
      <trkpt lat="42.614730" lon="-6.815385">
        <ele>519.768</ele>
        <time>2021-07-14T16:12:31Z</time>
      </trkpt>
      <trkpt lat="42.614532" lon="-6.815168">
        <ele>518.246</ele>
        <time>2021-07-14T16:12:36Z</time>
      </trkpt>
      <trkpt lat="42.614482" lon="-6.815131">
        <ele>517.881</ele>
        <time>2021-07-14T16:12:37Z</time>
      </trkpt>
      <trkpt lat="42.614310" lon="-6.815045">
        <ele>516.861</ele>
        <time>2021-07-14T16:12:40Z</time>
      </trkpt>
      <trkpt lat="42.614248" lon="-6.815030">
        <ele>516.817</ele>
        <time>2021-07-14T16:12:41Z</time>
      </trkpt>
      <trkpt lat="42.613857" lon="-6.814908">
        <ele>514.908</ele>
        <time>2021-07-14T16:12:47Z</time>
      </trkpt>
      <trkpt lat="42.613789" lon="-6.814909">
        <ele>514.465</ele>
        <time>2021-07-14T16:12:48Z</time>
      </trkpt>
      <trkpt lat="42.613721" lon="-6.814925">
        <ele>514.447</ele>
        <time>2021-07-14T16:12:49Z</time>
      </trkpt>
      <trkpt lat="42.613652" lon="-6.814953">
        <ele>513.944</ele>
        <time>2021-07-14T16:12:50Z</time>
      </trkpt>
      <trkpt lat="42.613590" lon="-6.814985">
        <ele>513.424</ele>
        <time>2021-07-14T16:12:51Z</time>
      </trkpt>
      <trkpt lat="42.613354" lon="-6.815082">
        <ele>512.558</ele>
        <time>2021-07-14T16:12:55Z</time>
      </trkpt>
      <trkpt lat="42.612835" lon="-6.815168">
        <ele>510.646</ele>
        <time>2021-07-14T16:13:04Z</time>
      </trkpt>
      <trkpt lat="42.612524" lon="-6.815094">
        <ele>509.673</ele>
        <time>2021-07-14T16:13:10Z</time>
      </trkpt>
      <trkpt lat="42.612200" lon="-6.814925">
        <ele>508.671</ele>
        <time>2021-07-14T16:13:17Z</time>
      </trkpt>
      <trkpt lat="42.612044" lon="-6.814810">
        <ele>507.715</ele>
        <time>2021-07-14T16:13:22Z</time>
      </trkpt>
      <trkpt lat="42.611992" lon="-6.814794">
        <ele>508.165</ele>
        <time>2021-07-14T16:13:26Z</time>
      </trkpt>
      <trkpt lat="42.612000" lon="-6.814801">
        <ele>507.711</ele>
        <time>2021-07-14T16:13:36Z</time>
      </trkpt>
      <trkpt lat="42.612006" lon="-6.814792">
        <ele>507.708</ele>
        <time>2021-07-14T16:13:54Z</time>
      </trkpt>
      <trkpt lat="42.612012" lon="-6.814807">
        <ele>507.768</ele>
        <time>2021-07-14T16:14:08Z</time>
      </trkpt>
      <trkpt lat="42.612014" lon="-6.814813">
        <ele>508.110</ele>
        <time>2021-07-14T16:14:18Z</time>
      </trkpt>
      <trkpt lat="42.612024" lon="-6.814804">
        <ele>506.277</ele>
        <time>2021-07-14T16:14:29Z</time>
      </trkpt>
      <trkpt lat="42.612020" lon="-6.814796">
        <ele>505.327</ele>
        <time>2021-07-14T16:14:42Z</time>
      </trkpt>
      <trkpt lat="42.612013" lon="-6.814794">
        <ele>507.221</ele>
        <time>2021-07-14T16:14:55Z</time>
      </trkpt>
      <trkpt lat="42.612006" lon="-6.814787">
        <ele>507.299</ele>
        <time>2021-07-14T16:15:04Z</time>
      </trkpt>
      <trkpt lat="42.611993" lon="-6.814773">
        <ele>507.766</ele>
        <time>2021-07-14T16:15:05Z</time>
      </trkpt>
      <trkpt lat="42.611839" lon="-6.814631">
        <ele>507.214</ele>
        <time>2021-07-14T16:15:11Z</time>
      </trkpt>
      <trkpt lat="42.611503" lon="-6.814375">
        <ele>506.228</ele>
        <time>2021-07-14T16:15:20Z</time>
      </trkpt>
      <trkpt lat="42.611055" lon="-6.814044">
        <ele>504.389</ele>
        <time>2021-07-14T16:15:31Z</time>
      </trkpt>
      <trkpt lat="42.610839" lon="-6.813910">
        <ele>503.317</ele>
        <time>2021-07-14T16:15:37Z</time>
      </trkpt>
      <trkpt lat="42.610508" lon="-6.813766">
        <ele>503.308</ele>
        <time>2021-07-14T16:15:46Z</time>
      </trkpt>
      <trkpt lat="42.610130" lon="-6.813637">
        <ele>505.389</ele>
        <time>2021-07-14T16:15:56Z</time>
      </trkpt>
      <trkpt lat="42.609932" lon="-6.813569">
        <ele>507.231</ele>
        <time>2021-07-14T16:16:04Z</time>
      </trkpt>
      <trkpt lat="42.609924" lon="-6.813577">
        <ele>507.218</ele>
        <time>2021-07-14T16:16:09Z</time>
      </trkpt>
      <trkpt lat="42.609908" lon="-6.813569">
        <ele>508.128</ele>
        <time>2021-07-14T16:16:12Z</time>
      </trkpt>
      <trkpt lat="42.609898" lon="-6.813565">
        <ele>508.652</ele>
        <time>2021-07-14T16:16:13Z</time>
      </trkpt>
      <trkpt lat="42.609890" lon="-6.813558">
        <ele>509.150</ele>
        <time>2021-07-14T16:16:14Z</time>
      </trkpt>
      <trkpt lat="42.609878" lon="-6.813550">
        <ele>509.677</ele>
        <time>2021-07-14T16:16:15Z</time>
      </trkpt>
      <trkpt lat="42.609866" lon="-6.813546">
        <ele>510.155</ele>
        <time>2021-07-14T16:16:16Z</time>
      </trkpt>
      <trkpt lat="42.609854" lon="-6.813546">
        <ele>510.198</ele>
        <time>2021-07-14T16:16:17Z</time>
      </trkpt>
      <trkpt lat="42.609835" lon="-6.813551">
        <ele>510.115</ele>
        <time>2021-07-14T16:16:24Z</time>
      </trkpt>
      <trkpt lat="42.609851" lon="-6.813557">
        <ele>510.126</ele>
        <time>2021-07-14T16:16:29Z</time>
      </trkpt>
      <trkpt lat="42.609861" lon="-6.813557">
        <ele>509.108</ele>
        <time>2021-07-14T16:16:35Z</time>
      </trkpt>
      <trkpt lat="42.609863" lon="-6.813546">
        <ele>508.636</ele>
        <time>2021-07-14T16:16:47Z</time>
      </trkpt>
      <trkpt lat="42.609851" lon="-6.813215">
        <ele>499.598</ele>
        <time>2021-07-16T06:23:17Z</time>
      </trkpt>
      <trkpt lat="42.609867" lon="-6.813166">
        <ele>503.845</ele>
        <time>2021-07-16T06:23:27Z</time>
      </trkpt>
      <trkpt lat="42.609854" lon="-6.813294">
        <ele>534.625</ele>
        <time>2021-07-16T06:23:38Z</time>
      </trkpt>
      <trkpt lat="42.609802" lon="-6.813353">
        <ele>541.839</ele>
        <time>2021-07-16T06:23:48Z</time>
      </trkpt>
      <trkpt lat="42.609773" lon="-6.813353">
        <ele>542.887</ele>
        <time>2021-07-16T06:23:54Z</time>
      </trkpt>
      <trkpt lat="42.609663" lon="-6.813292">
        <ele>542.844</ele>
        <time>2021-07-16T06:24:01Z</time>
      </trkpt>
      <trkpt lat="42.609623" lon="-6.813235">
        <ele>542.342</ele>
        <time>2021-07-16T06:24:04Z</time>
      </trkpt>
      <trkpt lat="42.609582" lon="-6.813161">
        <ele>543.295</ele>
        <time>2021-07-16T06:24:07Z</time>
      </trkpt>
      <trkpt lat="42.609462" lon="-6.812900">
        <ele>544.249</ele>
        <time>2021-07-16T06:24:17Z</time>
      </trkpt>
      <trkpt lat="42.609356" lon="-6.812573">
        <ele>544.723</ele>
        <time>2021-07-16T06:24:27Z</time>
      </trkpt>
      <trkpt lat="42.609305" lon="-6.812357">
        <ele>543.708</ele>
        <time>2021-07-16T06:24:36Z</time>
      </trkpt>
      <trkpt lat="42.609257" lon="-6.812067">
        <ele>540.466</ele>
        <time>2021-07-16T06:24:47Z</time>
      </trkpt>
      <trkpt lat="42.609255" lon="-6.812063">
        <ele>539.428</ele>
        <time>2021-07-16T06:24:54Z</time>
      </trkpt>
      <trkpt lat="42.609263" lon="-6.812061">
        <ele>538.965</ele>
        <time>2021-07-16T06:25:07Z</time>
      </trkpt>
      <trkpt lat="42.609272" lon="-6.812061">
        <ele>535.575</ele>
        <time>2021-07-16T06:25:19Z</time>
      </trkpt>
      <trkpt lat="42.609284" lon="-6.811991">
        <ele>530.359</ele>
        <time>2021-07-16T06:25:25Z</time>
      </trkpt>
      <trkpt lat="42.609302" lon="-6.811889">
        <ele>523.077</ele>
        <time>2021-07-16T06:25:29Z</time>
      </trkpt>
      <trkpt lat="42.609286" lon="-6.811873">
        <ele>523.094</ele>
        <time>2021-07-16T06:25:30Z</time>
      </trkpt>
      <trkpt lat="42.609263" lon="-6.811857">
        <ele>523.562</ele>
        <time>2021-07-16T06:25:31Z</time>
      </trkpt>
      <trkpt lat="42.609248" lon="-6.811844">
        <ele>523.578</ele>
        <time>2021-07-16T06:25:32Z</time>
      </trkpt>
      <trkpt lat="42.609238" lon="-6.811832">
        <ele>524.033</ele>
        <time>2021-07-16T06:25:33Z</time>
      </trkpt>
      <trkpt lat="42.609229" lon="-6.811817">
        <ele>524.026</ele>
        <time>2021-07-16T06:25:34Z</time>
      </trkpt>
      <trkpt lat="42.609221" lon="-6.811803">
        <ele>524.008</ele>
        <time>2021-07-16T06:25:35Z</time>
      </trkpt>
      <trkpt lat="42.609178" lon="-6.811710">
        <ele>523.594</ele>
        <time>2021-07-16T06:25:41Z</time>
      </trkpt>
      <trkpt lat="42.609071" lon="-6.811530">
        <ele>523.546</ele>
        <time>2021-07-16T06:25:50Z</time>
      </trkpt>
      <trkpt lat="42.609059" lon="-6.811518">
        <ele>523.533</ele>
        <time>2021-07-16T06:25:51Z</time>
      </trkpt>
      <trkpt lat="42.609059" lon="-6.811527">
        <ele>521.633</ele>
        <time>2021-07-16T06:25:56Z</time>
      </trkpt>
      <trkpt lat="42.609052" lon="-6.811536">
        <ele>518.237</ele>
        <time>2021-07-16T06:26:07Z</time>
      </trkpt>
      <trkpt lat="42.609057" lon="-6.811527">
        <ele>513.935</ele>
        <time>2021-07-16T06:26:17Z</time>
      </trkpt>
      <trkpt lat="42.609070" lon="-6.811533">
        <ele>512.552</ele>
        <time>2021-07-16T06:26:27Z</time>
      </trkpt>
      <trkpt lat="42.609083" lon="-6.811513">
        <ele>510.190</ele>
        <time>2021-07-16T06:26:39Z</time>
      </trkpt>
      <trkpt lat="42.609084" lon="-6.811531">
        <ele>509.134</ele>
        <time>2021-07-16T06:26:58Z</time>
      </trkpt>
      <trkpt lat="42.609091" lon="-6.811534">
        <ele>508.655</ele>
        <time>2021-07-16T06:27:08Z</time>
      </trkpt>
      <trkpt lat="42.609098" lon="-6.811512">
        <ele>508.610</ele>
        <time>2021-07-16T06:27:14Z</time>
      </trkpt>
      <trkpt lat="42.609095" lon="-6.811495">
        <ele>508.108</ele>
        <time>2021-07-16T06:27:15Z</time>
      </trkpt>
      <trkpt lat="42.609084" lon="-6.811476">
        <ele>508.150</ele>
        <time>2021-07-16T06:27:16Z</time>
      </trkpt>
      <trkpt lat="42.608990" lon="-6.811297">
        <ele>508.612</ele>
        <time>2021-07-16T06:27:22Z</time>
      </trkpt>
      <trkpt lat="42.609029" lon="-6.811093">
        <ele>508.629</ele>
        <time>2021-07-16T06:27:28Z</time>
      </trkpt>
      <trkpt lat="42.609280" lon="-6.810838">
        <ele>508.699</ele>
        <time>2021-07-16T06:27:37Z</time>
      </trkpt>
      <trkpt lat="42.609588" lon="-6.810519">
        <ele>508.183</ele>
        <time>2021-07-16T06:27:46Z</time>
      </trkpt>
      <trkpt lat="42.609624" lon="-6.810475">
        <ele>508.111</ele>
        <time>2021-07-16T06:27:47Z</time>
      </trkpt>
      <trkpt lat="42.609657" lon="-6.810426">
        <ele>508.158</ele>
        <time>2021-07-16T06:27:48Z</time>
      </trkpt>
      <trkpt lat="42.609686" lon="-6.810371">
        <ele>508.156</ele>
        <time>2021-07-16T06:27:49Z</time>
      </trkpt>
      <trkpt lat="42.609710" lon="-6.810312">
        <ele>508.146</ele>
        <time>2021-07-16T06:27:50Z</time>
      </trkpt>
      <trkpt lat="42.609728" lon="-6.810251">
        <ele>508.188</ele>
        <time>2021-07-16T06:27:51Z</time>
      </trkpt>
      <trkpt lat="42.609742" lon="-6.810190">
        <ele>508.116</ele>
        <time>2021-07-16T06:27:52Z</time>
      </trkpt>
      <trkpt lat="42.609753" lon="-6.810129">
        <ele>508.108</ele>
        <time>2021-07-16T06:27:53Z</time>
      </trkpt>
      <trkpt lat="42.609761" lon="-6.810070">
        <ele>507.731</ele>
        <time>2021-07-16T06:27:54Z</time>
      </trkpt>
      <trkpt lat="42.609798" lon="-6.809688">
        <ele>508.663</ele>
        <time>2021-07-16T06:28:02Z</time>
      </trkpt>
      <trkpt lat="42.609800" lon="-6.809250">
        <ele>509.110</ele>
        <time>2021-07-16T06:28:13Z</time>
      </trkpt>
      <trkpt lat="42.609800" lon="-6.808948">
        <ele>511.010</ele>
        <time>2021-07-16T06:28:21Z</time>
      </trkpt>
      <trkpt lat="42.609747" lon="-6.808654">
        <ele>513.034</ele>
        <time>2021-07-16T06:28:30Z</time>
      </trkpt>
      <trkpt lat="42.609588" lon="-6.808560">
        <ele>513.972</ele>
        <time>2021-07-16T06:28:37Z</time>
      </trkpt>
      <trkpt lat="42.609384" lon="-6.808569">
        <ele>513.929</ele>
        <time>2021-07-16T06:28:44Z</time>
      </trkpt>
      <trkpt lat="42.609064" lon="-6.808593">
        <ele>513.977</ele>
        <time>2021-07-16T06:28:54Z</time>
      </trkpt>
      <trkpt lat="42.608759" lon="-6.808617">
        <ele>514.935</ele>
        <time>2021-07-16T06:29:04Z</time>
      </trkpt>
      <trkpt lat="42.608423" lon="-6.808631">
        <ele>514.986</ele>
        <time>2021-07-16T06:29:15Z</time>
      </trkpt>
      <trkpt lat="42.608110" lon="-6.808649">
        <ele>516.314</ele>
        <time>2021-07-16T06:29:25Z</time>
      </trkpt>
      <trkpt lat="42.607784" lon="-6.808653">
        <ele>516.308</ele>
        <time>2021-07-16T06:29:35Z</time>
      </trkpt>
      <trkpt lat="42.607507" lon="-6.808656">
        <ele>516.840</ele>
        <time>2021-07-16T06:29:44Z</time>
      </trkpt>
      <trkpt lat="42.607394" lon="-6.808657">
        <ele>518.252</ele>
        <time>2021-07-16T06:29:51Z</time>
      </trkpt>
      <trkpt lat="42.607176" lon="-6.808700">
        <ele>519.249</ele>
        <time>2021-07-16T06:29:59Z</time>
      </trkpt>
      <trkpt lat="42.607067" lon="-6.808738">
        <ele>520.239</ele>
        <time>2021-07-16T06:30:06Z</time>
      </trkpt>
      <trkpt lat="42.606940" lon="-6.808866">
        <ele>520.693</ele>
        <time>2021-07-16T06:30:12Z</time>
      </trkpt>
      <trkpt lat="42.606751" lon="-6.809055">
        <ele>523.071</ele>
        <time>2021-07-16T06:30:21Z</time>
      </trkpt>
      <trkpt lat="42.606593" lon="-6.809223">
        <ele>524.578</ele>
        <time>2021-07-16T06:30:28Z</time>
      </trkpt>
      <trkpt lat="42.606459" lon="-6.809388">
        <ele>524.546</ele>
        <time>2021-07-16T06:30:34Z</time>
      </trkpt>
      <trkpt lat="42.606312" lon="-6.809527">
        <ele>525.015</ele>
        <time>2021-07-16T06:30:41Z</time>
      </trkpt>
      <trkpt lat="42.606297" lon="-6.809557">
        <ele>525.565</ele>
        <time>2021-07-16T06:30:42Z</time>
      </trkpt>
      <trkpt lat="42.606171" lon="-6.809741">
        <ele>525.511</ele>
        <time>2021-07-16T06:30:48Z</time>
      </trkpt>
      <trkpt lat="42.606088" lon="-6.809866">
        <ele>525.508</ele>
        <time>2021-07-16T06:30:51Z</time>
      </trkpt>
      <trkpt lat="42.606062" lon="-6.809913">
        <ele>525.568</ele>
        <time>2021-07-16T06:30:52Z</time>
      </trkpt>
      <trkpt lat="42.605885" lon="-6.810090">
        <ele>524.570</ele>
        <time>2021-07-16T06:30:57Z</time>
      </trkpt>
      <trkpt lat="42.605752" lon="-6.810116">
        <ele>524.017</ele>
        <time>2021-07-16T06:31:00Z</time>
      </trkpt>
      <trkpt lat="42.605598" lon="-6.810208">
        <ele>523.047</ele>
        <time>2021-07-16T06:31:04Z</time>
      </trkpt>
      <trkpt lat="42.605463" lon="-6.810353">
        <ele>524.031</ele>
        <time>2021-07-16T06:31:10Z</time>
      </trkpt>
      <trkpt lat="42.605452" lon="-6.810348">
        <ele>526.989</ele>
        <time>2021-07-16T06:31:21Z</time>
      </trkpt>
      <trkpt lat="42.605435" lon="-6.810366">
        <ele>526.456</ele>
        <time>2021-07-16T06:31:25Z</time>
      </trkpt>
      <trkpt lat="42.605486" lon="-6.810469">
        <ele>524.544</ele>
        <time>2021-07-16T06:31:31Z</time>
      </trkpt>
      <trkpt lat="42.605530" lon="-6.810536">
        <ele>524.518</ele>
        <time>2021-07-16T06:31:35Z</time>
      </trkpt>
      <trkpt lat="42.605558" lon="-6.810590">
        <ele>524.598</ele>
        <time>2021-07-16T06:31:39Z</time>
      </trkpt>
      <trkpt lat="42.605499" lon="-6.810753">
        <ele>526.917</ele>
        <time>2021-07-16T06:31:47Z</time>
      </trkpt>
      <trkpt lat="42.605460" lon="-6.810842">
        <ele>526.908</ele>
        <time>2021-07-16T06:31:51Z</time>
      </trkpt>
      <trkpt lat="42.605361" lon="-6.811042">
        <ele>526.478</ele>
        <time>2021-07-16T06:32:00Z</time>
      </trkpt>
      <trkpt lat="42.605236" lon="-6.811246">
        <ele>524.550</ele>
        <time>2021-07-16T06:32:10Z</time>
      </trkpt>
      <trkpt lat="42.605106" lon="-6.811283">
        <ele>524.097</ele>
        <time>2021-07-16T06:32:17Z</time>
      </trkpt>
      <trkpt lat="42.604971" lon="-6.811253">
        <ele>519.727</ele>
        <time>2021-07-16T06:32:25Z</time>
      </trkpt>
      <trkpt lat="42.604832" lon="-6.811210">
        <ele>516.371</ele>
        <time>2021-07-16T06:32:33Z</time>
      </trkpt>
      <trkpt lat="42.604615" lon="-6.811120">
        <ele>517.399</ele>
        <time>2021-07-16T06:32:45Z</time>
      </trkpt>
      <trkpt lat="42.604458" lon="-6.811032">
        <ele>519.736</ele>
        <time>2021-07-16T06:32:55Z</time>
      </trkpt>
      <trkpt lat="42.604428" lon="-6.811001">
        <ele>521.194</ele>
        <time>2021-07-16T06:32:58Z</time>
      </trkpt>
      <trkpt lat="42.604303" lon="-6.810920">
        <ele>523.552</ele>
        <time>2021-07-16T06:33:06Z</time>
      </trkpt>
      <trkpt lat="42.604243" lon="-6.810739">
        <ele>526.453</ele>
        <time>2021-07-16T06:33:14Z</time>
      </trkpt>
      <trkpt lat="42.604300" lon="-6.810534">
        <ele>527.408</ele>
        <time>2021-07-16T06:33:23Z</time>
      </trkpt>
      <trkpt lat="42.604337" lon="-6.810379">
        <ele>528.308</ele>
        <time>2021-07-16T06:33:32Z</time>
      </trkpt>
      <trkpt lat="42.604398" lon="-6.810113">
        <ele>528.812</ele>
        <time>2021-07-16T06:33:44Z</time>
      </trkpt>
      <trkpt lat="42.604449" lon="-6.809914">
        <ele>528.854</ele>
        <time>2021-07-16T06:33:52Z</time>
      </trkpt>
      <trkpt lat="42.604399" lon="-6.809758">
        <ele>530.361</ele>
        <time>2021-07-16T06:33:59Z</time>
      </trkpt>
      <trkpt lat="42.604314" lon="-6.809612">
        <ele>532.751</ele>
        <time>2021-07-16T06:34:07Z</time>
      </trkpt>
      <trkpt lat="42.604168" lon="-6.809451">
        <ele>537.565</ele>
        <time>2021-07-16T06:34:18Z</time>
      </trkpt>
      <trkpt lat="42.604144" lon="-6.809435">
        <ele>536.593</ele>
        <time>2021-07-16T06:34:25Z</time>
      </trkpt>
      <trkpt lat="42.604151" lon="-6.809454">
        <ele>532.280</ele>
        <time>2021-07-16T06:34:42Z</time>
      </trkpt>
      <trkpt lat="42.604141" lon="-6.809442">
        <ele>531.748</ele>
        <time>2021-07-16T06:34:45Z</time>
      </trkpt>
      <trkpt lat="42.604131" lon="-6.809428">
        <ele>531.728</ele>
        <time>2021-07-16T06:34:46Z</time>
      </trkpt>
      <trkpt lat="42.604117" lon="-6.809411">
        <ele>531.789</ele>
        <time>2021-07-16T06:34:47Z</time>
      </trkpt>
      <trkpt lat="42.604101" lon="-6.809393">
        <ele>531.217</ele>
        <time>2021-07-16T06:34:48Z</time>
      </trkpt>
      <trkpt lat="42.604084" lon="-6.809376">
        <ele>531.208</ele>
        <time>2021-07-16T06:34:49Z</time>
      </trkpt>
      <trkpt lat="42.603945" lon="-6.809257">
        <ele>532.769</ele>
        <time>2021-07-16T06:34:56Z</time>
      </trkpt>
      <trkpt lat="42.603791" lon="-6.809164">
        <ele>533.151</ele>
        <time>2021-07-16T06:35:03Z</time>
      </trkpt>
      <trkpt lat="42.603653" lon="-6.809079">
        <ele>532.238</ele>
        <time>2021-07-16T06:35:09Z</time>
      </trkpt>
      <trkpt lat="42.603416" lon="-6.808921">
        <ele>533.148</ele>
        <time>2021-07-16T06:35:18Z</time>
      </trkpt>
      <trkpt lat="42.603136" lon="-6.808747">
        <ele>534.112</ele>
        <time>2021-07-16T06:35:28Z</time>
      </trkpt>
      <trkpt lat="42.602918" lon="-6.808626">
        <ele>534.130</ele>
        <time>2021-07-16T06:35:36Z</time>
      </trkpt>
      <trkpt lat="42.602583" lon="-6.808428">
        <ele>534.627</ele>
        <time>2021-07-16T06:35:47Z</time>
      </trkpt>
      <trkpt lat="42.602266" lon="-6.808233">
        <ele>535.165</ele>
        <time>2021-07-16T06:35:57Z</time>
      </trkpt>
      <trkpt lat="42.601885" lon="-6.808012">
        <ele>536.087</ele>
        <time>2021-07-16T06:36:09Z</time>
      </trkpt>
      <trkpt lat="42.601536" lon="-6.807807">
        <ele>537.042</ele>
        <time>2021-07-16T06:36:20Z</time>
      </trkpt>
      <trkpt lat="42.601124" lon="-6.807518">
        <ele>537.026</ele>
        <time>2021-07-16T06:36:33Z</time>
      </trkpt>
      <trkpt lat="42.600925" lon="-6.807258">
        <ele>537.008</ele>
        <time>2021-07-16T06:36:41Z</time>
      </trkpt>
      <trkpt lat="42.600800" lon="-6.806937">
        <ele>538.445</ele>
        <time>2021-07-16T06:36:50Z</time>
      </trkpt>
      <trkpt lat="42.600674" lon="-6.806582">
        <ele>539.947</ele>
        <time>2021-07-16T06:37:00Z</time>
      </trkpt>
      <trkpt lat="42.600560" lon="-6.806258">
        <ele>540.484</ele>
        <time>2021-07-16T06:37:10Z</time>
      </trkpt>
      <trkpt lat="42.600463" lon="-6.805939">
        <ele>541.814</ele>
        <time>2021-07-16T06:37:20Z</time>
      </trkpt>
      <trkpt lat="42.600385" lon="-6.805738">
        <ele>542.878</ele>
        <time>2021-07-16T06:37:28Z</time>
      </trkpt>
      <trkpt lat="42.600329" lon="-6.805568">
        <ele>544.236</ele>
        <time>2021-07-16T06:37:35Z</time>
      </trkpt>
      <trkpt lat="42.600243" lon="-6.805257">
        <ele>545.633</ele>
        <time>2021-07-16T06:37:45Z</time>
      </trkpt>
      <trkpt lat="42.600118" lon="-6.804859">
        <ele>548.021</ele>
        <time>2021-07-16T06:37:57Z</time>
      </trkpt>
      <trkpt lat="42.600060" lon="-6.804506">
        <ele>548.081</ele>
        <time>2021-07-16T06:38:06Z</time>
      </trkpt>
      <trkpt lat="42.600039" lon="-6.804086">
        <ele>548.061</ele>
        <time>2021-07-16T06:38:15Z</time>
      </trkpt>
      <trkpt lat="42.600031" lon="-6.803594">
        <ele>548.517</ele>
        <time>2021-07-16T06:38:25Z</time>
      </trkpt>
      <trkpt lat="42.600027" lon="-6.803235">
        <ele>549.008</ele>
        <time>2021-07-16T06:38:33Z</time>
      </trkpt>
      <trkpt lat="42.600015" lon="-6.802817">
        <ele>549.575</ele>
        <time>2021-07-16T06:38:42Z</time>
      </trkpt>
      <trkpt lat="42.600006" lon="-6.802427">
        <ele>549.517</ele>
        <time>2021-07-16T06:38:51Z</time>
      </trkpt>
      <trkpt lat="42.599988" lon="-6.801916">
        <ele>550.074</ele>
        <time>2021-07-16T06:39:02Z</time>
      </trkpt>
      <trkpt lat="42.599974" lon="-6.801404">
        <ele>548.024</ele>
        <time>2021-07-16T06:39:11Z</time>
      </trkpt>
      <trkpt lat="42.599956" lon="-6.800693">
        <ele>546.158</ele>
        <time>2021-07-16T06:39:21Z</time>
      </trkpt>
      <trkpt lat="42.599933" lon="-6.799976">
        <ele>545.236</ele>
        <time>2021-07-16T06:39:30Z</time>
      </trkpt>
      <trkpt lat="42.599921" lon="-6.799504">
        <ele>543.763</ele>
        <time>2021-07-16T06:39:36Z</time>
      </trkpt>
      <trkpt lat="42.599907" lon="-6.798645">
        <ele>541.391</ele>
        <time>2021-07-16T06:39:46Z</time>
      </trkpt>
      <trkpt lat="42.599891" lon="-6.797971">
        <ele>539.941</ele>
        <time>2021-07-16T06:39:54Z</time>
      </trkpt>
      <trkpt lat="42.599890" lon="-6.797741">
        <ele>538.981</ele>
        <time>2021-07-16T06:39:59Z</time>
      </trkpt>
      <trkpt lat="42.599896" lon="-6.797303">
        <ele>536.509</ele>
        <time>2021-07-16T06:40:05Z</time>
      </trkpt>
      <trkpt lat="42.599857" lon="-6.797134">
        <ele>535.108</ele>
        <time>2021-07-16T06:40:09Z</time>
      </trkpt>
      <trkpt lat="42.599845" lon="-6.797022">
        <ele>534.651</ele>
        <time>2021-07-16T06:40:11Z</time>
      </trkpt>
      <trkpt lat="42.599846" lon="-6.796964">
        <ele>534.663</ele>
        <time>2021-07-16T06:40:12Z</time>
      </trkpt>
      <trkpt lat="42.599851" lon="-6.796901">
        <ele>534.610</ele>
        <time>2021-07-16T06:40:13Z</time>
      </trkpt>
      <trkpt lat="42.599880" lon="-6.796354">
        <ele>534.670</ele>
        <time>2021-07-16T06:40:22Z</time>
      </trkpt>
      <trkpt lat="42.599874" lon="-6.795733">
        <ele>535.164</ele>
        <time>2021-07-16T06:40:33Z</time>
      </trkpt>
      <trkpt lat="42.599865" lon="-6.795119">
        <ele>535.152</ele>
        <time>2021-07-16T06:40:44Z</time>
      </trkpt>
      <trkpt lat="42.599857" lon="-6.794504">
        <ele>534.669</ele>
        <time>2021-07-16T06:40:55Z</time>
      </trkpt>
      <trkpt lat="42.599845" lon="-6.793837">
        <ele>534.667</ele>
        <time>2021-07-16T06:41:06Z</time>
      </trkpt>
      <trkpt lat="42.599843" lon="-6.793201">
        <ele>534.126</ele>
        <time>2021-07-16T06:41:16Z</time>
      </trkpt>
      <trkpt lat="42.599825" lon="-6.792577">
        <ele>535.147</ele>
        <time>2021-07-16T06:41:27Z</time>
      </trkpt>
      <trkpt lat="42.599818" lon="-6.792183">
        <ele>537.011</ele>
        <time>2021-07-16T06:41:36Z</time>
      </trkpt>
      <trkpt lat="42.599811" lon="-6.791618">
        <ele>538.408</ele>
        <time>2021-07-16T06:41:50Z</time>
      </trkpt>
      <trkpt lat="42.599801" lon="-6.791219">
        <ele>539.959</ele>
        <time>2021-07-16T06:42:00Z</time>
      </trkpt>
      <trkpt lat="42.599798" lon="-6.790898">
        <ele>539.491</ele>
        <time>2021-07-16T06:42:08Z</time>
      </trkpt>
      <trkpt lat="42.599795" lon="-6.790498">
        <ele>539.948</ele>
        <time>2021-07-16T06:42:17Z</time>
      </trkpt>
      <trkpt lat="42.599789" lon="-6.790014">
        <ele>539.438</ele>
        <time>2021-07-16T06:42:27Z</time>
      </trkpt>
      <trkpt lat="42.599785" lon="-6.789533">
        <ele>538.412</ele>
        <time>2021-07-16T06:42:36Z</time>
      </trkpt>
      <trkpt lat="42.599771" lon="-6.789060">
        <ele>538.940</ele>
        <time>2021-07-16T06:42:45Z</time>
      </trkpt>
      <trkpt lat="42.599760" lon="-6.788643">
        <ele>539.457</ele>
        <time>2021-07-16T06:42:54Z</time>
      </trkpt>
      <trkpt lat="42.599751" lon="-6.788146">
        <ele>540.845</ele>
        <time>2021-07-16T06:43:05Z</time>
      </trkpt>
      <trkpt lat="42.599738" lon="-6.787636">
        <ele>540.472</ele>
        <time>2021-07-16T06:43:15Z</time>
      </trkpt>
      <trkpt lat="42.599729" lon="-6.786921">
        <ele>539.413</ele>
        <time>2021-07-16T06:43:28Z</time>
      </trkpt>
      <trkpt lat="42.599716" lon="-6.786239">
        <ele>537.514</ele>
        <time>2021-07-16T06:43:38Z</time>
      </trkpt>
      <trkpt lat="42.599706" lon="-6.785547">
        <ele>534.608</ele>
        <time>2021-07-16T06:43:45Z</time>
      </trkpt>
      <trkpt lat="42.599692" lon="-6.784709">
        <ele>531.264</ele>
        <time>2021-07-16T06:43:52Z</time>
      </trkpt>
      <trkpt lat="42.599674" lon="-6.783612">
        <ele>529.396</ele>
        <time>2021-07-16T06:44:02Z</time>
      </trkpt>
      <trkpt lat="42.599666" lon="-6.783287">
        <ele>531.233</ele>
        <time>2021-07-16T06:44:07Z</time>
      </trkpt>
      <trkpt lat="42.599651" lon="-6.782818">
        <ele>533.693</ele>
        <time>2021-07-16T06:44:16Z</time>
      </trkpt>
      <trkpt lat="42.599645" lon="-6.782389">
        <ele>535.517</ele>
        <time>2021-07-16T06:44:25Z</time>
      </trkpt>
      <trkpt lat="42.599635" lon="-6.781887">
        <ele>537.525</ele>
        <time>2021-07-16T06:44:36Z</time>
      </trkpt>
      <trkpt lat="42.599623" lon="-6.781477">
        <ele>538.942</ele>
        <time>2021-07-16T06:44:45Z</time>
      </trkpt>
      <trkpt lat="42.599614" lon="-6.781129">
        <ele>539.980</ele>
        <time>2021-07-16T06:44:53Z</time>
      </trkpt>
      <trkpt lat="42.599605" lon="-6.780705">
        <ele>541.338</ele>
        <time>2021-07-16T06:45:03Z</time>
      </trkpt>
      <trkpt lat="42.599596" lon="-6.780368">
        <ele>543.770</ele>
        <time>2021-07-16T06:45:11Z</time>
      </trkpt>
      <trkpt lat="42.599594" lon="-6.779973">
        <ele>543.217</ele>
        <time>2021-07-16T06:45:21Z</time>
      </trkpt>
      <trkpt lat="42.599638" lon="-6.779643">
        <ele>543.208</ele>
        <time>2021-07-16T06:45:29Z</time>
      </trkpt>
      <trkpt lat="42.599688" lon="-6.779463">
        <ele>542.810</ele>
        <time>2021-07-16T06:45:33Z</time>
      </trkpt>
      <trkpt lat="42.599859" lon="-6.779098">
        <ele>540.482</ele>
        <time>2021-07-16T06:45:39Z</time>
      </trkpt>
      <trkpt lat="42.600114" lon="-6.778572">
        <ele>537.099</ele>
        <time>2021-07-16T06:45:45Z</time>
      </trkpt>
      <trkpt lat="42.600495" lon="-6.777775">
        <ele>531.739</ele>
        <time>2021-07-16T06:45:52Z</time>
      </trkpt>
      <trkpt lat="42.600963" lon="-6.776791">
        <ele>526.483</ele>
        <time>2021-07-16T06:46:00Z</time>
      </trkpt>
      <trkpt lat="42.601283" lon="-6.776115">
        <ele>525.591</ele>
        <time>2021-07-16T06:46:06Z</time>
      </trkpt>
      <trkpt lat="42.601534" lon="-6.775533">
        <ele>525.958</ele>
        <time>2021-07-16T06:46:13Z</time>
      </trkpt>
      <trkpt lat="42.601661" lon="-6.775066">
        <ele>526.926</ele>
        <time>2021-07-16T06:46:20Z</time>
      </trkpt>
      <trkpt lat="42.601703" lon="-6.774739">
        <ele>527.493</ele>
        <time>2021-07-16T06:46:27Z</time>
      </trkpt>
      <trkpt lat="42.601709" lon="-6.774404">
        <ele>527.965</ele>
        <time>2021-07-16T06:46:35Z</time>
      </trkpt>
      <trkpt lat="42.601680" lon="-6.774048">
        <ele>528.321</ele>
        <time>2021-07-16T06:46:44Z</time>
      </trkpt>
      <trkpt lat="42.601623" lon="-6.773650">
        <ele>530.308</ele>
        <time>2021-07-16T06:46:55Z</time>
      </trkpt>
      <trkpt lat="42.601573" lon="-6.773379">
        <ele>531.716</ele>
        <time>2021-07-16T06:47:03Z</time>
      </trkpt>
      <trkpt lat="42.601507" lon="-6.773016">
        <ele>534.118</ele>
        <time>2021-07-16T06:47:14Z</time>
      </trkpt>
      <trkpt lat="42.601461" lon="-6.772720">
        <ele>536.045</ele>
        <time>2021-07-16T06:47:23Z</time>
      </trkpt>
      <trkpt lat="42.601425" lon="-6.772414">
        <ele>537.585</ele>
        <time>2021-07-16T06:47:32Z</time>
      </trkpt>
      <trkpt lat="42.601395" lon="-6.772091">
        <ele>537.949</ele>
        <time>2021-07-16T06:47:41Z</time>
      </trkpt>
      <trkpt lat="42.601360" lon="-6.771644">
        <ele>538.937</ele>
        <time>2021-07-16T06:47:53Z</time>
      </trkpt>
      <trkpt lat="42.601328" lon="-6.771236">
        <ele>539.964</ele>
        <time>2021-07-16T06:48:04Z</time>
      </trkpt>
      <trkpt lat="42.601306" lon="-6.770850">
        <ele>539.462</ele>
        <time>2021-07-16T06:48:14Z</time>
      </trkpt>
      <trkpt lat="42.601308" lon="-6.770479">
        <ele>538.491</ele>
        <time>2021-07-16T06:48:23Z</time>
      </trkpt>
      <trkpt lat="42.601398" lon="-6.770057">
        <ele>538.481</ele>
        <time>2021-07-16T06:48:32Z</time>
      </trkpt>
      <trkpt lat="42.601488" lon="-6.769888">
        <ele>537.519</ele>
        <time>2021-07-16T06:48:35Z</time>
      </trkpt>
      <trkpt lat="42.601530" lon="-6.769829">
        <ele>537.008</ele>
        <time>2021-07-16T06:48:36Z</time>
      </trkpt>
      <trkpt lat="42.601869" lon="-6.769407">
        <ele>533.166</ele>
        <time>2021-07-16T06:48:42Z</time>
      </trkpt>
      <trkpt lat="42.602358" lon="-6.768802">
        <ele>528.378</ele>
        <time>2021-07-16T06:48:49Z</time>
      </trkpt>
      <trkpt lat="42.602937" lon="-6.768032">
        <ele>523.065</ele>
        <time>2021-07-16T06:48:57Z</time>
      </trkpt>
      <trkpt lat="42.603343" lon="-6.767308">
        <ele>523.515</ele>
        <time>2021-07-16T06:49:04Z</time>
      </trkpt>
      <trkpt lat="42.603659" lon="-6.766740">
        <ele>525.059</ele>
        <time>2021-07-16T06:49:11Z</time>
      </trkpt>
      <trkpt lat="42.603924" lon="-6.766250">
        <ele>525.957</ele>
        <time>2021-07-16T06:49:19Z</time>
      </trkpt>
      <trkpt lat="42.604113" lon="-6.765832">
        <ele>527.454</ele>
        <time>2021-07-16T06:49:28Z</time>
      </trkpt>
      <trkpt lat="42.604249" lon="-6.765348">
        <ele>528.332</ele>
        <time>2021-07-16T06:49:39Z</time>
      </trkpt>
      <trkpt lat="42.604316" lon="-6.764997">
        <ele>529.343</ele>
        <time>2021-07-16T06:49:48Z</time>
      </trkpt>
      <trkpt lat="42.604353" lon="-6.764665">
        <ele>529.864</ele>
        <time>2021-07-16T06:49:57Z</time>
      </trkpt>
      <trkpt lat="42.604376" lon="-6.764251">
        <ele>529.810</ele>
        <time>2021-07-16T06:50:08Z</time>
      </trkpt>
      <trkpt lat="42.604376" lon="-6.763927">
        <ele>529.308</ele>
        <time>2021-07-16T06:50:18Z</time>
      </trkpt>
      <trkpt lat="42.604368" lon="-6.763679">
        <ele>528.851</ele>
        <time>2021-07-16T06:50:27Z</time>
      </trkpt>
      <trkpt lat="42.604359" lon="-6.763375">
        <ele>531.723</ele>
        <time>2021-07-16T06:50:38Z</time>
      </trkpt>
      <trkpt lat="42.604349" lon="-6.763081">
        <ele>534.660</ele>
        <time>2021-07-16T06:50:49Z</time>
      </trkpt>
      <trkpt lat="42.604347" lon="-6.762880">
        <ele>536.050</ele>
        <time>2021-07-16T06:50:58Z</time>
      </trkpt>
      <trkpt lat="42.604352" lon="-6.762659">
        <ele>537.044</ele>
        <time>2021-07-16T06:51:07Z</time>
      </trkpt>
      <trkpt lat="42.604367" lon="-6.762422">
        <ele>538.922</ele>
        <time>2021-07-16T06:51:16Z</time>
      </trkpt>
      <trkpt lat="42.604418" lon="-6.762152">
        <ele>541.879</ele>
        <time>2021-07-16T06:51:26Z</time>
      </trkpt>
      <trkpt lat="42.604509" lon="-6.761845">
        <ele>544.277</ele>
        <time>2021-07-16T06:51:38Z</time>
      </trkpt>
      <trkpt lat="42.604574" lon="-6.761650">
        <ele>546.643</ele>
        <time>2021-07-16T06:51:47Z</time>
      </trkpt>
      <trkpt lat="42.604644" lon="-6.761441">
        <ele>548.064</ele>
        <time>2021-07-16T06:51:57Z</time>
      </trkpt>
      <trkpt lat="42.604732" lon="-6.761178">
        <ele>550.410</ele>
        <time>2021-07-16T06:52:09Z</time>
      </trkpt>
      <trkpt lat="42.604778" lon="-6.761018">
        <ele>551.408</ele>
        <time>2021-07-16T06:52:17Z</time>
      </trkpt>
      <trkpt lat="42.604779" lon="-6.761020">
        <ele>552.481</ele>
        <time>2021-07-16T06:52:27Z</time>
      </trkpt>
      <trkpt lat="42.604766" lon="-6.761029">
        <ele>553.863</ele>
        <time>2021-07-16T06:52:48Z</time>
      </trkpt>
      <trkpt lat="42.604768" lon="-6.761027">
        <ele>552.480</ele>
        <time>2021-07-16T06:53:00Z</time>
      </trkpt>
      <trkpt lat="42.604801" lon="-6.760961">
        <ele>552.470</ele>
        <time>2021-07-16T06:53:06Z</time>
      </trkpt>
      <trkpt lat="42.604865" lon="-6.760781">
        <ele>552.964</ele>
        <time>2021-07-16T06:53:14Z</time>
      </trkpt>
      <trkpt lat="42.604944" lon="-6.760540">
        <ele>554.322</ele>
        <time>2021-07-16T06:53:24Z</time>
      </trkpt>
      <trkpt lat="42.605021" lon="-6.760312">
        <ele>554.359</ele>
        <time>2021-07-16T06:53:34Z</time>
      </trkpt>
      <trkpt lat="42.605062" lon="-6.760120">
        <ele>554.387</ele>
        <time>2021-07-16T06:53:42Z</time>
      </trkpt>
      <trkpt lat="42.605129" lon="-6.759862">
        <ele>554.824</ele>
        <time>2021-07-16T06:53:52Z</time>
      </trkpt>
      <trkpt lat="42.605185" lon="-6.759597">
        <ele>555.704</ele>
        <time>2021-07-16T06:54:02Z</time>
      </trkpt>
      <trkpt lat="42.605244" lon="-6.759340">
        <ele>557.214</ele>
        <time>2021-07-16T06:54:12Z</time>
      </trkpt>
      <trkpt lat="42.605296" lon="-6.759127">
        <ele>558.608</ele>
        <time>2021-07-16T06:54:21Z</time>
      </trkpt>
      <trkpt lat="42.605343" lon="-6.758898">
        <ele>560.169</ele>
        <time>2021-07-16T06:54:30Z</time>
      </trkpt>
      <trkpt lat="42.605405" lon="-6.758639">
        <ele>562.021</ele>
        <time>2021-07-16T06:54:40Z</time>
      </trkpt>
      <trkpt lat="42.605446" lon="-6.758451">
        <ele>562.938</ele>
        <time>2021-07-16T06:54:48Z</time>
      </trkpt>
      <trkpt lat="42.605510" lon="-6.758166">
        <ele>564.418</ele>
        <time>2021-07-16T06:54:59Z</time>
      </trkpt>
      <trkpt lat="42.605559" lon="-6.757939">
        <ele>565.842</ele>
        <time>2021-07-16T06:55:08Z</time>
      </trkpt>
      <trkpt lat="42.605615" lon="-6.757687">
        <ele>567.880</ele>
        <time>2021-07-16T06:55:18Z</time>
      </trkpt>
      <trkpt lat="42.605668" lon="-6.757450">
        <ele>568.777</ele>
        <time>2021-07-16T06:55:27Z</time>
      </trkpt>
      <trkpt lat="42.605740" lon="-6.757140">
        <ele>570.225</ele>
        <time>2021-07-16T06:55:39Z</time>
      </trkpt>
      <trkpt lat="42.605819" lon="-6.756794">
        <ele>572.612</ele>
        <time>2021-07-16T06:55:52Z</time>
      </trkpt>
      <trkpt lat="42.605883" lon="-6.756529">
        <ele>573.532</ele>
        <time>2021-07-16T06:56:02Z</time>
      </trkpt>
      <trkpt lat="42.605965" lon="-6.756162">
        <ele>572.605</ele>
        <time>2021-07-16T06:56:15Z</time>
      </trkpt>
      <trkpt lat="42.606043" lon="-6.755819">
        <ele>572.108</ele>
        <time>2021-07-16T06:56:25Z</time>
      </trkpt>
      <trkpt lat="42.606108" lon="-6.755533">
        <ele>570.298</ele>
        <time>2021-07-16T06:56:31Z</time>
      </trkpt>
      <trkpt lat="42.606157" lon="-6.755063">
        <ele>567.870</ele>
        <time>2021-07-16T06:56:37Z</time>
      </trkpt>
      <trkpt lat="42.606152" lon="-6.754447">
        <ele>564.497</ele>
        <time>2021-07-16T06:56:43Z</time>
      </trkpt>
      <trkpt lat="42.606092" lon="-6.753528">
        <ele>558.627</ele>
        <time>2021-07-16T06:56:51Z</time>
      </trkpt>
      <trkpt lat="42.606013" lon="-6.752482">
        <ele>553.331</ele>
        <time>2021-07-16T06:56:59Z</time>
      </trkpt>
      <trkpt lat="42.605901" lon="-6.751238">
        <ele>547.639</ele>
        <time>2021-07-16T06:57:08Z</time>
      </trkpt>
      <trkpt lat="42.605739" lon="-6.750189">
        <ele>543.286</ele>
        <time>2021-07-16T06:57:17Z</time>
      </trkpt>
      <trkpt lat="42.605667" lon="-6.749785">
        <ele>540.894</ele>
        <time>2021-07-16T06:57:22Z</time>
      </trkpt>
      <trkpt lat="42.605555" lon="-6.749075">
        <ele>537.051</ele>
        <time>2021-07-16T06:57:30Z</time>
      </trkpt>
      <trkpt lat="42.605408" lon="-6.748176">
        <ele>533.601</ele>
        <time>2021-07-16T06:57:39Z</time>
      </trkpt>
      <trkpt lat="42.605317" lon="-6.747568">
        <ele>530.311</ele>
        <time>2021-07-16T06:57:45Z</time>
      </trkpt>
      <trkpt lat="42.605294" lon="-6.747500">
        <ele>529.308</ele>
        <time>2021-07-16T06:57:48Z</time>
      </trkpt>
      <trkpt lat="42.605295" lon="-6.747503">
        <ele>529.852</ele>
        <time>2021-07-16T06:57:58Z</time>
      </trkpt>
      <trkpt lat="42.605289" lon="-6.747502">
        <ele>530.734</ele>
        <time>2021-07-16T06:58:07Z</time>
      </trkpt>
      <trkpt lat="42.605293" lon="-6.747504">
        <ele>532.271</ele>
        <time>2021-07-16T06:58:23Z</time>
      </trkpt>
      <trkpt lat="42.605293" lon="-6.747497">
        <ele>532.251</ele>
        <time>2021-07-16T06:58:25Z</time>
      </trkpt>
      <trkpt lat="42.605290" lon="-6.747477">
        <ele>532.235</ele>
        <time>2021-07-16T06:58:26Z</time>
      </trkpt>
      <trkpt lat="42.605285" lon="-6.747450">
        <ele>532.223</ele>
        <time>2021-07-16T06:58:27Z</time>
      </trkpt>
      <trkpt lat="42.605246" lon="-6.747194">
        <ele>531.740</ele>
        <time>2021-07-16T06:58:32Z</time>
      </trkpt>
      <trkpt lat="42.605175" lon="-6.746713">
        <ele>528.318</ele>
        <time>2021-07-16T06:58:38Z</time>
      </trkpt>
      <trkpt lat="42.605057" lon="-6.745947">
        <ele>523.554</ele>
        <time>2021-07-16T06:58:46Z</time>
      </trkpt>
      <trkpt lat="42.604872" lon="-6.744764">
        <ele>518.256</ele>
        <time>2021-07-16T06:58:56Z</time>
      </trkpt>
      <trkpt lat="42.604740" lon="-6.743910">
        <ele>514.411</ele>
        <time>2021-07-16T06:59:03Z</time>
      </trkpt>
      <trkpt lat="42.604552" lon="-6.742996">
        <ele>508.608</ele>
        <time>2021-07-16T06:59:10Z</time>
      </trkpt>
      <trkpt lat="42.604276" lon="-6.742331">
        <ele>503.872</ele>
        <time>2021-07-16T06:59:15Z</time>
      </trkpt>
      <trkpt lat="42.603778" lon="-6.741365">
        <ele>496.664</ele>
        <time>2021-07-16T06:59:22Z</time>
      </trkpt>
      <trkpt lat="42.603213" lon="-6.740260">
        <ele>489.441</ele>
        <time>2021-07-16T06:59:30Z</time>
      </trkpt>
      <trkpt lat="42.602751" lon="-6.739392">
        <ele>483.651</ele>
        <time>2021-07-16T06:59:37Z</time>
      </trkpt>
      <trkpt lat="42.602318" lon="-6.738585">
        <ele>478.315</ele>
        <time>2021-07-16T06:59:44Z</time>
      </trkpt>
      <trkpt lat="42.601909" lon="-6.737807">
        <ele>477.423</ele>
        <time>2021-07-16T06:59:52Z</time>
      </trkpt>
      <trkpt lat="42.601656" lon="-6.737249">
        <ele>478.350</ele>
        <time>2021-07-16T06:59:59Z</time>
      </trkpt>
      <trkpt lat="42.601433" lon="-6.736535">
        <ele>477.998</ele>
        <time>2021-07-16T07:00:09Z</time>
      </trkpt>
      <trkpt lat="42.601232" lon="-6.735881">
        <ele>476.934</ele>
        <time>2021-07-16T07:00:19Z</time>
      </trkpt>
      <trkpt lat="42.601081" lon="-6.735350">
        <ele>475.955</ele>
        <time>2021-07-16T07:00:28Z</time>
      </trkpt>
      <trkpt lat="42.600939" lon="-6.734828">
        <ele>475.510</ele>
        <time>2021-07-16T07:00:37Z</time>
      </trkpt>
      <trkpt lat="42.600790" lon="-6.734279">
        <ele>475.508</ele>
        <time>2021-07-16T07:00:46Z</time>
      </trkpt>
      <trkpt lat="42.600655" lon="-6.733727">
        <ele>475.910</ele>
        <time>2021-07-16T07:00:56Z</time>
      </trkpt>
      <trkpt lat="42.600499" lon="-6.733102">
        <ele>475.912</ele>
        <time>2021-07-16T07:01:07Z</time>
      </trkpt>
      <trkpt lat="42.600376" lon="-6.732584">
        <ele>475.989</ele>
        <time>2021-07-16T07:01:16Z</time>
      </trkpt>
      <trkpt lat="42.600305" lon="-6.732263">
        <ele>475.939</ele>
        <time>2021-07-16T07:01:22Z</time>
      </trkpt>
      <trkpt lat="42.600291" lon="-6.732204">
        <ele>475.553</ele>
        <time>2021-07-16T07:01:23Z</time>
      </trkpt>
      <trkpt lat="42.600191" lon="-6.731851">
        <ele>475.081</ele>
        <time>2021-07-16T07:01:31Z</time>
      </trkpt>
      <trkpt lat="42.600087" lon="-6.731496">
        <ele>475.068</ele>
        <time>2021-07-16T07:01:40Z</time>
      </trkpt>
      <trkpt lat="42.600052" lon="-6.731324">
        <ele>475.016</ele>
        <time>2021-07-16T07:01:47Z</time>
      </trkpt>
      <trkpt lat="42.600050" lon="-6.731299">
        <ele>476.464</ele>
        <time>2021-07-16T07:01:52Z</time>
      </trkpt>
      <trkpt lat="42.600035" lon="-6.731291">
        <ele>479.306</ele>
        <time>2021-07-16T07:02:18Z</time>
      </trkpt>
      <trkpt lat="42.600031" lon="-6.731287">
        <ele>479.816</ele>
        <time>2021-07-16T07:02:26Z</time>
      </trkpt>
      <trkpt lat="42.600027" lon="-6.731184">
        <ele>480.308</ele>
        <time>2021-07-16T07:02:35Z</time>
      </trkpt>
      <trkpt lat="42.600022" lon="-6.731018">
        <ele>482.213</ele>
        <time>2021-07-16T07:02:45Z</time>
      </trkpt>
      <trkpt lat="42.600040" lon="-6.730899">
        <ele>483.285</ele>
        <time>2021-07-16T07:02:54Z</time>
      </trkpt>
      <trkpt lat="42.600033" lon="-6.730871">
        <ele>483.632</ele>
        <time>2021-07-16T07:03:01Z</time>
      </trkpt>
      <trkpt lat="42.600027" lon="-6.730815">
        <ele>483.642</ele>
        <time>2021-07-16T07:03:09Z</time>
      </trkpt>
      <trkpt lat="42.600020" lon="-6.730827">
        <ele>479.826</ele>
        <time>2021-07-16T07:03:23Z</time>
      </trkpt>
      <trkpt lat="42.600035" lon="-6.730808">
        <ele>478.894</ele>
        <time>2021-07-16T07:03:42Z</time>
      </trkpt>
      <trkpt lat="42.600048" lon="-6.730750">
        <ele>478.831</ele>
        <time>2021-07-16T07:03:50Z</time>
      </trkpt>
      <trkpt lat="42.600034" lon="-6.730673">
        <ele>479.889</ele>
        <time>2021-07-16T07:03:59Z</time>
      </trkpt>
      <trkpt lat="42.600034" lon="-6.730674">
        <ele>479.345</ele>
        <time>2021-07-16T07:04:11Z</time>
      </trkpt>
      <trkpt lat="42.600050" lon="-6.730672">
        <ele>478.347</ele>
        <time>2021-07-16T07:04:42Z</time>
      </trkpt>
      <trkpt lat="42.600057" lon="-6.730671">
        <ele>479.311</ele>
        <time>2021-07-16T07:05:01Z</time>
      </trkpt>
      <trkpt lat="42.600058" lon="-6.730652">
        <ele>479.808</ele>
        <time>2021-07-16T07:05:17Z</time>
      </trkpt>
      <trkpt lat="42.600052" lon="-6.730635">
        <ele>480.351</ele>
        <time>2021-07-16T07:05:21Z</time>
      </trkpt>
      <trkpt lat="42.600051" lon="-6.730618">
        <ele>480.863</ele>
        <time>2021-07-16T07:05:22Z</time>
      </trkpt>
      <trkpt lat="42.600026" lon="-6.730510">
        <ele>480.870</ele>
        <time>2021-07-16T07:05:31Z</time>
      </trkpt>
      <trkpt lat="42.600040" lon="-6.730434">
        <ele>479.390</ele>
        <time>2021-07-16T07:05:37Z</time>
      </trkpt>
      <trkpt lat="42.600031" lon="-6.730178">
        <ele>478.364</ele>
        <time>2021-07-16T07:05:44Z</time>
      </trkpt>
      <trkpt lat="42.600007" lon="-6.729818">
        <ele>477.972</ele>
        <time>2021-07-16T07:05:53Z</time>
      </trkpt>
      <trkpt lat="42.599983" lon="-6.729454">
        <ele>477.449</ele>
        <time>2021-07-16T07:06:02Z</time>
      </trkpt>
      <trkpt lat="42.599984" lon="-6.729293">
        <ele>478.867</ele>
        <time>2021-07-16T07:06:06Z</time>
      </trkpt>
      <trkpt lat="42.599976" lon="-6.729260">
        <ele>478.898</ele>
        <time>2021-07-16T07:06:07Z</time>
      </trkpt>
      <trkpt lat="42.599969" lon="-6.729223">
        <ele>479.315</ele>
        <time>2021-07-16T07:06:08Z</time>
      </trkpt>
      <trkpt lat="42.599967" lon="-6.729190">
        <ele>479.326</ele>
        <time>2021-07-16T07:06:09Z</time>
      </trkpt>
      <trkpt lat="42.599968" lon="-6.729156">
        <ele>479.808</ele>
        <time>2021-07-16T07:06:10Z</time>
      </trkpt>
      <trkpt lat="42.599970" lon="-6.729117">
        <ele>479.866</ele>
        <time>2021-07-16T07:06:11Z</time>
      </trkpt>
      <trkpt lat="42.599980" lon="-6.728775">
        <ele>481.298</ele>
        <time>2021-07-16T07:06:20Z</time>
      </trkpt>
      <trkpt lat="42.599973" lon="-6.728496">
        <ele>482.215</ele>
        <time>2021-07-16T07:06:29Z</time>
      </trkpt>
      <trkpt lat="42.599968" lon="-6.728492">
        <ele>482.755</ele>
        <time>2021-07-16T07:06:36Z</time>
      </trkpt>
      <trkpt lat="42.599963" lon="-6.728487">
        <ele>484.669</ele>
        <time>2021-07-16T07:06:46Z</time>
      </trkpt>
      <trkpt lat="42.599960" lon="-6.728472">
        <ele>484.697</ele>
        <time>2021-07-16T07:06:54Z</time>
      </trkpt>
      <trkpt lat="42.599974" lon="-6.728445">
        <ele>483.694</ele>
        <time>2021-07-16T07:06:58Z</time>
      </trkpt>
      <trkpt lat="42.599978" lon="-6.728422">
        <ele>483.652</ele>
        <time>2021-07-16T07:06:59Z</time>
      </trkpt>
      <trkpt lat="42.599979" lon="-6.728394">
        <ele>483.641</ele>
        <time>2021-07-16T07:07:00Z</time>
      </trkpt>
      <trkpt lat="42.599982" lon="-6.728088">
        <ele>481.281</ele>
        <time>2021-07-16T07:07:08Z</time>
      </trkpt>
      <trkpt lat="42.599973" lon="-6.728014">
        <ele>480.809</ele>
        <time>2021-07-16T07:07:11Z</time>
      </trkpt>
      <trkpt lat="42.599962" lon="-6.727996">
        <ele>480.808</ele>
        <time>2021-07-16T07:07:12Z</time>
      </trkpt>
      <trkpt lat="42.599953" lon="-6.727977">
        <ele>480.841</ele>
        <time>2021-07-16T07:07:13Z</time>
      </trkpt>
      <trkpt lat="42.599942" lon="-6.727952">
        <ele>480.843</ele>
        <time>2021-07-16T07:07:14Z</time>
      </trkpt>
      <trkpt lat="42.599927" lon="-6.727926">
        <ele>480.830</ele>
        <time>2021-07-16T07:07:15Z</time>
      </trkpt>
      <trkpt lat="42.599786" lon="-6.727708">
        <ele>482.230</ele>
        <time>2021-07-16T07:07:24Z</time>
      </trkpt>
      <trkpt lat="42.599675" lon="-6.727554">
        <ele>481.264</ele>
        <time>2021-07-16T07:07:33Z</time>
      </trkpt>
      <trkpt lat="42.599676" lon="-6.727527">
        <ele>481.262</ele>
        <time>2021-07-16T07:07:39Z</time>
      </trkpt>
      <trkpt lat="42.599702" lon="-6.727491">
        <ele>479.839</ele>
        <time>2021-07-16T07:07:46Z</time>
      </trkpt>
      <trkpt lat="42.599719" lon="-6.727491">
        <ele>479.847</ele>
        <time>2021-07-16T07:07:47Z</time>
      </trkpt>
      <trkpt lat="42.599735" lon="-6.727497">
        <ele>480.324</ele>
        <time>2021-07-16T07:07:48Z</time>
      </trkpt>
      <trkpt lat="42.599748" lon="-6.727508">
        <ele>480.304</ele>
        <time>2021-07-16T07:07:49Z</time>
      </trkpt>
      <trkpt lat="42.599764" lon="-6.727529">
        <ele>480.814</ele>
        <time>2021-07-16T07:07:50Z</time>
      </trkpt>
      <trkpt lat="42.599787" lon="-6.727560">
        <ele>481.208</ele>
        <time>2021-07-16T07:07:51Z</time>
      </trkpt>
      <trkpt lat="42.599810" lon="-6.727590">
        <ele>481.799</ele>
        <time>2021-07-16T07:07:52Z</time>
      </trkpt>
      <trkpt lat="42.599937" lon="-6.727716">
        <ele>482.781</ele>
        <time>2021-07-16T07:07:58Z</time>
      </trkpt>
      <trkpt lat="42.600055" lon="-6.727697">
        <ele>482.278</ele>
        <time>2021-07-16T07:08:04Z</time>
      </trkpt>
      <trkpt lat="42.600044" lon="-6.727737">
        <ele>482.718</ele>
        <time>2021-07-16T07:08:14Z</time>
      </trkpt>
      <trkpt lat="42.600009" lon="-6.727740">
        <ele>484.112</ele>
        <time>2021-07-16T07:08:20Z</time>
      </trkpt>
      <trkpt lat="42.599997" lon="-6.727708">
        <ele>484.120</ele>
        <time>2021-07-16T07:08:22Z</time>
      </trkpt>
      <trkpt lat="42.599992" lon="-6.727686">
        <ele>484.177</ele>
        <time>2021-07-16T07:08:23Z</time>
      </trkpt>
      <trkpt lat="42.599987" lon="-6.727673">
        <ele>484.115</ele>
        <time>2021-07-16T07:08:24Z</time>
      </trkpt>
      <trkpt lat="42.599986" lon="-6.727652">
        <ele>484.185</ele>
        <time>2021-07-16T07:08:25Z</time>
      </trkpt>
      <trkpt lat="42.599983" lon="-6.727633">
        <ele>484.189</ele>
        <time>2021-07-16T07:08:26Z</time>
      </trkpt>
      <trkpt lat="42.599979" lon="-6.727610">
        <ele>484.617</ele>
        <time>2021-07-16T07:08:27Z</time>
      </trkpt>
      <trkpt lat="42.599976" lon="-6.727590">
        <ele>484.608</ele>
        <time>2021-07-16T07:08:28Z</time>
      </trkpt>
      <trkpt lat="42.599973" lon="-6.727567">
        <ele>484.645</ele>
        <time>2021-07-16T07:08:29Z</time>
      </trkpt>
      <trkpt lat="42.599944" lon="-6.727304">
        <ele>485.117</ele>
        <time>2021-07-16T07:08:37Z</time>
      </trkpt>
      <trkpt lat="42.599884" lon="-6.727074">
        <ele>484.634</ele>
        <time>2021-07-16T07:08:44Z</time>
      </trkpt>
      <trkpt lat="42.599785" lon="-6.726822">
        <ele>485.664</ele>
        <time>2021-07-16T07:08:51Z</time>
      </trkpt>
      <trkpt lat="42.599674" lon="-6.726524">
        <ele>485.138</ele>
        <time>2021-07-16T07:09:00Z</time>
      </trkpt>
      <trkpt lat="42.599602" lon="-6.726233">
        <ele>484.656</ele>
        <time>2021-07-16T07:09:09Z</time>
      </trkpt>
      <trkpt lat="42.599597" lon="-6.726049">
        <ele>485.173</ele>
        <time>2021-07-16T07:09:17Z</time>
      </trkpt>
      <trkpt lat="42.599592" lon="-6.725955">
        <ele>484.681</ele>
        <time>2021-07-16T07:09:23Z</time>
      </trkpt>
      <trkpt lat="42.599592" lon="-6.725956">
        <ele>486.023</ele>
        <time>2021-07-16T07:09:40Z</time>
      </trkpt>
      <trkpt lat="42.599597" lon="-6.725939">
        <ele>487.083</ele>
        <time>2021-07-16T07:09:52Z</time>
      </trkpt>
      <trkpt lat="42.599599" lon="-6.725923">
        <ele>487.011</ele>
        <time>2021-07-16T07:09:53Z</time>
      </trkpt>
      <trkpt lat="42.599605" lon="-6.725791">
        <ele>487.008</ele>
        <time>2021-07-16T07:09:59Z</time>
      </trkpt>
      <trkpt lat="42.599658" lon="-6.725669">
        <ele>488.469</ele>
        <time>2021-07-16T07:10:05Z</time>
      </trkpt>
      <trkpt lat="42.599746" lon="-6.725514">
        <ele>488.041</ele>
        <time>2021-07-16T07:10:13Z</time>
      </trkpt>
      <trkpt lat="42.599780" lon="-6.725454">
        <ele>487.018</ele>
        <time>2021-07-16T07:10:17Z</time>
      </trkpt>
      <trkpt lat="42.599795" lon="-6.725434">
        <ele>487.538</ele>
        <time>2021-07-16T07:10:19Z</time>
      </trkpt>
      <trkpt lat="42.599817" lon="-6.725341">
        <ele>488.912</ele>
        <time>2021-07-16T07:10:24Z</time>
      </trkpt>
      <trkpt lat="42.599865" lon="-6.725101">
        <ele>489.480</ele>
        <time>2021-07-16T07:10:32Z</time>
      </trkpt>
      <trkpt lat="42.599856" lon="-6.724875">
        <ele>488.457</ele>
        <time>2021-07-16T07:10:39Z</time>
      </trkpt>
      <trkpt lat="42.599854" lon="-6.724668">
        <ele>489.445</ele>
        <time>2021-07-16T07:10:46Z</time>
      </trkpt>
      <trkpt lat="42.599890" lon="-6.724360">
        <ele>490.894</ele>
        <time>2021-07-16T07:10:57Z</time>
      </trkpt>
      <trkpt lat="42.599871" lon="-6.724297">
        <ele>490.857</ele>
        <time>2021-07-16T07:11:00Z</time>
      </trkpt>
      <trkpt lat="42.599859" lon="-6.724119">
        <ele>491.322</ele>
        <time>2021-07-16T07:11:07Z</time>
      </trkpt>
      <trkpt lat="42.599869" lon="-6.723938">
        <ele>492.808</ele>
        <time>2021-07-16T07:11:13Z</time>
      </trkpt>
      <trkpt lat="42.599879" lon="-6.723911">
        <ele>492.896</ele>
        <time>2021-07-16T07:11:14Z</time>
      </trkpt>
      <trkpt lat="42.599885" lon="-6.723868">
        <ele>493.218</ele>
        <time>2021-07-16T07:11:15Z</time>
      </trkpt>
      <trkpt lat="42.599822" lon="-6.723401">
        <ele>490.845</ele>
        <time>2021-07-16T07:11:28Z</time>
      </trkpt>
      <trkpt lat="42.599789" lon="-6.723246">
        <ele>488.925</ele>
        <time>2021-07-16T07:11:33Z</time>
      </trkpt>
      <trkpt lat="42.599790" lon="-6.723216">
        <ele>488.499</ele>
        <time>2021-07-16T07:11:34Z</time>
      </trkpt>
      <trkpt lat="42.599750" lon="-6.722999">
        <ele>487.067</ele>
        <time>2021-07-16T07:11:42Z</time>
      </trkpt>
      <trkpt lat="42.599730" lon="-6.722793">
        <ele>486.514</ele>
        <time>2021-07-16T07:11:48Z</time>
      </trkpt>
      <trkpt lat="42.599734" lon="-6.722503">
        <ele>485.662</ele>
        <time>2021-07-16T07:11:56Z</time>
      </trkpt>
      <trkpt lat="42.599720" lon="-6.722254">
        <ele>486.081</ele>
        <time>2021-07-16T07:12:05Z</time>
      </trkpt>
      <trkpt lat="42.599727" lon="-6.722187">
        <ele>486.561</ele>
        <time>2021-07-16T07:12:08Z</time>
      </trkpt>
      <trkpt lat="42.599736" lon="-6.722160">
        <ele>487.017</ele>
        <time>2021-07-16T07:12:09Z</time>
      </trkpt>
      <trkpt lat="42.599753" lon="-6.721915">
        <ele>485.608</ele>
        <time>2021-07-16T07:12:17Z</time>
      </trkpt>
      <trkpt lat="42.599727" lon="-6.721565">
        <ele>485.115</ele>
        <time>2021-07-16T07:12:25Z</time>
      </trkpt>
      <trkpt lat="42.599701" lon="-6.721179">
        <ele>485.627</ele>
        <time>2021-07-16T07:12:34Z</time>
      </trkpt>
      <trkpt lat="42.599692" lon="-6.720859">
        <ele>486.544</ele>
        <time>2021-07-16T07:12:42Z</time>
      </trkpt>
      <trkpt lat="42.599685" lon="-6.720425">
        <ele>487.544</ele>
        <time>2021-07-16T07:12:51Z</time>
      </trkpt>
      <trkpt lat="42.599673" lon="-6.719983">
        <ele>488.078</ele>
        <time>2021-07-16T07:13:00Z</time>
      </trkpt>
      <trkpt lat="42.599656" lon="-6.719545">
        <ele>487.056</ele>
        <time>2021-07-16T07:13:09Z</time>
      </trkpt>
      <trkpt lat="42.599655" lon="-6.719493">
        <ele>487.543</ele>
        <time>2021-07-16T07:13:10Z</time>
      </trkpt>
      <trkpt lat="42.599655" lon="-6.719439">
        <ele>487.531</ele>
        <time>2021-07-16T07:13:11Z</time>
      </trkpt>
      <trkpt lat="42.599654" lon="-6.718987">
        <ele>487.082</ele>
        <time>2021-07-16T07:13:20Z</time>
      </trkpt>
      <trkpt lat="42.599641" lon="-6.718533">
        <ele>487.543</ele>
        <time>2021-07-16T07:13:29Z</time>
      </trkpt>
      <trkpt lat="42.599614" lon="-6.718131">
        <ele>488.917</ele>
        <time>2021-07-16T07:13:37Z</time>
      </trkpt>
      <trkpt lat="42.599612" lon="-6.717829">
        <ele>487.508</ele>
        <time>2021-07-16T07:13:44Z</time>
      </trkpt>
      <trkpt lat="42.599597" lon="-6.717497">
        <ele>488.025</ele>
        <time>2021-07-16T07:13:52Z</time>
      </trkpt>
      <trkpt lat="42.599587" lon="-6.717227">
        <ele>488.427</ele>
        <time>2021-07-16T07:13:59Z</time>
      </trkpt>
      <trkpt lat="42.599568" lon="-6.716910">
        <ele>488.444</ele>
        <time>2021-07-16T07:14:06Z</time>
      </trkpt>
      <trkpt lat="42.599530" lon="-6.716554">
        <ele>488.414</ele>
        <time>2021-07-16T07:14:14Z</time>
      </trkpt>
      <trkpt lat="42.599427" lon="-6.716064">
        <ele>488.078</ele>
        <time>2021-07-16T07:14:25Z</time>
      </trkpt>
      <trkpt lat="42.599313" lon="-6.715786">
        <ele>489.916</ele>
        <time>2021-07-16T07:14:33Z</time>
      </trkpt>
      <trkpt lat="42.599301" lon="-6.715768">
        <ele>489.913</ele>
        <time>2021-07-16T07:14:34Z</time>
      </trkpt>
      <trkpt lat="42.599287" lon="-6.715751">
        <ele>490.451</ele>
        <time>2021-07-16T07:14:35Z</time>
      </trkpt>
      <trkpt lat="42.599276" lon="-6.715728">
        <ele>490.447</ele>
        <time>2021-07-16T07:14:36Z</time>
      </trkpt>
      <trkpt lat="42.599264" lon="-6.715706">
        <ele>490.829</ele>
        <time>2021-07-16T07:14:37Z</time>
      </trkpt>
      <trkpt lat="42.599251" lon="-6.715684">
        <ele>491.321</ele>
        <time>2021-07-16T07:14:38Z</time>
      </trkpt>
      <trkpt lat="42.599125" lon="-6.715526">
        <ele>494.208</ele>
        <time>2021-07-16T07:14:47Z</time>
      </trkpt>
      <trkpt lat="42.599033" lon="-6.715413">
        <ele>496.111</ele>
        <time>2021-07-16T07:14:54Z</time>
      </trkpt>
      <trkpt lat="42.598931" lon="-6.715293">
        <ele>498.143</ele>
        <time>2021-07-16T07:15:02Z</time>
      </trkpt>
      <trkpt lat="42.598802" lon="-6.715122">
        <ele>499.560</ele>
        <time>2021-07-16T07:15:13Z</time>
      </trkpt>
      <trkpt lat="42.598735" lon="-6.714947">
        <ele>500.940</ele>
        <time>2021-07-16T07:15:23Z</time>
      </trkpt>
      <trkpt lat="42.598659" lon="-6.714760">
        <ele>501.924</ele>
        <time>2021-07-16T07:15:34Z</time>
      </trkpt>
      <trkpt lat="42.598654" lon="-6.714742">
        <ele>501.952</ele>
        <time>2021-07-16T07:15:35Z</time>
      </trkpt>
      <trkpt lat="42.598646" lon="-6.714726">
        <ele>501.949</ele>
        <time>2021-07-16T07:15:36Z</time>
      </trkpt>
      <trkpt lat="42.598572" lon="-6.714597">
        <ele>503.397</ele>
        <time>2021-07-16T07:15:44Z</time>
      </trkpt>
      <trkpt lat="42.598457" lon="-6.714439">
        <ele>505.375</ele>
        <time>2021-07-16T07:15:54Z</time>
      </trkpt>
      <trkpt lat="42.598367" lon="-6.714340">
        <ele>507.228</ele>
        <time>2021-07-16T07:16:01Z</time>
      </trkpt>
      <trkpt lat="42.598261" lon="-6.714233">
        <ele>508.120</ele>
        <time>2021-07-16T07:16:09Z</time>
      </trkpt>
      <trkpt lat="42.598138" lon="-6.714098">
        <ele>508.608</ele>
        <time>2021-07-16T07:16:18Z</time>
      </trkpt>
      <trkpt lat="42.598010" lon="-6.713944">
        <ele>510.164</ele>
        <time>2021-07-16T07:16:27Z</time>
      </trkpt>
      <trkpt lat="42.597832" lon="-6.713810">
        <ele>511.046</ele>
        <time>2021-07-16T07:16:36Z</time>
      </trkpt>
      <trkpt lat="42.597664" lon="-6.713700">
        <ele>511.043</ele>
        <time>2021-07-16T07:16:44Z</time>
      </trkpt>
      <trkpt lat="42.597568" lon="-6.713549">
        <ele>510.673</ele>
        <time>2021-07-16T07:16:50Z</time>
      </trkpt>
      <trkpt lat="42.597462" lon="-6.713319">
        <ele>510.157</ele>
        <time>2021-07-16T07:17:00Z</time>
      </trkpt>
      <trkpt lat="42.597346" lon="-6.713096">
        <ele>510.655</ele>
        <time>2021-07-16T07:17:07Z</time>
      </trkpt>
      <trkpt lat="42.597205" lon="-6.712738">
        <ele>510.172</ele>
        <time>2021-07-16T07:17:17Z</time>
      </trkpt>
      <trkpt lat="42.597058" lon="-6.712369">
        <ele>510.140</ele>
        <time>2021-07-16T07:17:27Z</time>
      </trkpt>
      <trkpt lat="42.596925" lon="-6.712016">
        <ele>509.184</ele>
        <time>2021-07-16T07:17:36Z</time>
      </trkpt>
      <trkpt lat="42.596796" lon="-6.711686">
        <ele>508.607</ele>
        <time>2021-07-16T07:17:46Z</time>
      </trkpt>
      <trkpt lat="42.596673" lon="-6.711361">
        <ele>509.117</ele>
        <time>2021-07-16T07:17:56Z</time>
      </trkpt>
      <trkpt lat="42.596549" lon="-6.711017">
        <ele>508.608</ele>
        <time>2021-07-16T07:18:05Z</time>
      </trkpt>
      <trkpt lat="42.596403" lon="-6.710648">
        <ele>509.155</ele>
        <time>2021-07-16T07:18:14Z</time>
      </trkpt>
      <trkpt lat="42.596246" lon="-6.710242">
        <ele>509.157</ele>
        <time>2021-07-16T07:18:24Z</time>
      </trkpt>
      <trkpt lat="42.596060" lon="-6.709762">
        <ele>509.654</ele>
        <time>2021-07-16T07:18:36Z</time>
      </trkpt>
      <trkpt lat="42.595953" lon="-6.709477">
        <ele>509.694</ele>
        <time>2021-07-16T07:18:43Z</time>
      </trkpt>
      <trkpt lat="42.595778" lon="-6.709025">
        <ele>510.688</ele>
        <time>2021-07-16T07:18:54Z</time>
      </trkpt>
      <trkpt lat="42.595658" lon="-6.708725">
        <ele>511.596</ele>
        <time>2021-07-16T07:19:02Z</time>
      </trkpt>
      <trkpt lat="42.595505" lon="-6.708331">
        <ele>513.073</ele>
        <time>2021-07-16T07:19:13Z</time>
      </trkpt>
      <trkpt lat="42.595379" lon="-6.708061">
        <ele>514.451</ele>
        <time>2021-07-16T07:19:22Z</time>
      </trkpt>
      <trkpt lat="42.595269" lon="-6.707763">
        <ele>515.484</ele>
        <time>2021-07-16T07:19:31Z</time>
      </trkpt>
      <trkpt lat="42.595178" lon="-6.707540">
        <ele>516.807</ele>
        <time>2021-07-16T07:19:39Z</time>
      </trkpt>
      <trkpt lat="42.595040" lon="-6.707190">
        <ele>518.217</ele>
        <time>2021-07-16T07:19:50Z</time>
      </trkpt>
      <trkpt lat="42.594934" lon="-6.706956">
        <ele>519.208</ele>
        <time>2021-07-16T07:19:58Z</time>
      </trkpt>
      <trkpt lat="42.594831" lon="-6.706716">
        <ele>519.235</ele>
        <time>2021-07-16T07:20:05Z</time>
      </trkpt>
      <trkpt lat="42.594725" lon="-6.706464">
        <ele>518.727</ele>
        <time>2021-07-16T07:20:13Z</time>
      </trkpt>
      <trkpt lat="42.594611" lon="-6.706215">
        <ele>518.724</ele>
        <time>2021-07-16T07:20:21Z</time>
      </trkpt>
      <trkpt lat="42.594499" lon="-6.705898">
        <ele>517.884</ele>
        <time>2021-07-16T07:20:29Z</time>
      </trkpt>
      <trkpt lat="42.594415" lon="-6.705641">
        <ele>516.828</ele>
        <time>2021-07-16T07:20:35Z</time>
      </trkpt>
      <trkpt lat="42.594208" lon="-6.705067">
        <ele>515.446</ele>
        <time>2021-07-16T07:20:46Z</time>
      </trkpt>
      <trkpt lat="42.594142" lon="-6.704895">
        <ele>515.893</ele>
        <time>2021-07-16T07:20:51Z</time>
      </trkpt>
      <trkpt lat="42.594141" lon="-6.704902">
        <ele>515.831</ele>
        <time>2021-07-16T07:20:57Z</time>
      </trkpt>
      <trkpt lat="42.594137" lon="-6.704904">
        <ele>515.471</ele>
        <time>2021-07-16T07:21:03Z</time>
      </trkpt>
      <trkpt lat="42.594136" lon="-6.704907">
        <ele>515.841</ele>
        <time>2021-07-16T07:21:24Z</time>
      </trkpt>
      <trkpt lat="42.594134" lon="-6.704915">
        <ele>516.815</ele>
        <time>2021-07-16T07:21:41Z</time>
      </trkpt>
      <trkpt lat="42.594137" lon="-6.704919">
        <ele>516.308</ele>
        <time>2021-07-16T07:21:54Z</time>
      </trkpt>
      <trkpt lat="42.594137" lon="-6.704924">
        <ele>514.484</ele>
        <time>2021-07-16T07:22:09Z</time>
      </trkpt>
      <trkpt lat="42.594124" lon="-6.704926">
        <ele>514.926</ele>
        <time>2021-07-16T07:22:23Z</time>
      </trkpt>
      <trkpt lat="42.594126" lon="-6.704922">
        <ele>514.473</ele>
        <time>2021-07-16T07:22:37Z</time>
      </trkpt>
      <trkpt lat="42.594130" lon="-6.704909">
        <ele>514.473</ele>
        <time>2021-07-16T07:22:53Z</time>
      </trkpt>
      <trkpt lat="42.594117" lon="-6.704889">
        <ele>514.497</ele>
        <time>2021-07-16T07:23:00Z</time>
      </trkpt>
      <trkpt lat="42.594117" lon="-6.704894">
        <ele>514.475</ele>
        <time>2021-07-16T07:23:10Z</time>
      </trkpt>
      <trkpt lat="42.594102" lon="-6.704877">
        <ele>514.452</ele>
        <time>2021-07-16T07:23:19Z</time>
      </trkpt>
      <trkpt lat="42.594061" lon="-6.704820">
        <ele>515.440</ele>
        <time>2021-07-16T07:23:23Z</time>
      </trkpt>
      <trkpt lat="42.594023" lon="-6.704616">
        <ele>514.977</ele>
        <time>2021-07-16T07:23:29Z</time>
      </trkpt>
      <trkpt lat="42.594040" lon="-6.704266">
        <ele>513.961</ele>
        <time>2021-07-16T07:23:37Z</time>
      </trkpt>
      <trkpt lat="42.594063" lon="-6.703780">
        <ele>513.427</ele>
        <time>2021-07-16T07:23:46Z</time>
      </trkpt>
      <trkpt lat="42.594067" lon="-6.703724">
        <ele>513.408</ele>
        <time>2021-07-16T07:23:47Z</time>
      </trkpt>
      <trkpt lat="42.594070" lon="-6.703666">
        <ele>513.464</ele>
        <time>2021-07-16T07:23:48Z</time>
      </trkpt>
      <trkpt lat="42.594097" lon="-6.703107">
        <ele>513.966</ele>
        <time>2021-07-16T07:23:58Z</time>
      </trkpt>
      <trkpt lat="42.594127" lon="-6.702544">
        <ele>513.423</ele>
        <time>2021-07-16T07:24:08Z</time>
      </trkpt>
      <trkpt lat="42.594156" lon="-6.701926">
        <ele>513.423</ele>
        <time>2021-07-16T07:24:19Z</time>
      </trkpt>
      <trkpt lat="42.594190" lon="-6.701330">
        <ele>513.937</ele>
        <time>2021-07-16T07:24:29Z</time>
      </trkpt>
      <trkpt lat="42.594240" lon="-6.700585">
        <ele>513.425</ele>
        <time>2021-07-16T07:24:41Z</time>
      </trkpt>
      <trkpt lat="42.594287" lon="-6.700051">
        <ele>513.482</ele>
        <time>2021-07-16T07:24:50Z</time>
      </trkpt>
      <trkpt lat="42.594356" lon="-6.699483">
        <ele>511.590</ele>
        <time>2021-07-16T07:24:58Z</time>
      </trkpt>
      <trkpt lat="42.594467" lon="-6.698810">
        <ele>509.137</ele>
        <time>2021-07-16T07:25:06Z</time>
      </trkpt>
      <trkpt lat="42.594576" lon="-6.698148">
        <ele>507.249</ele>
        <time>2021-07-16T07:25:13Z</time>
      </trkpt>
      <trkpt lat="42.594729" lon="-6.697233">
        <ele>504.813</ele>
        <time>2021-07-16T07:25:22Z</time>
      </trkpt>
      <trkpt lat="42.594853" lon="-6.696320">
        <ele>502.908</ele>
        <time>2021-07-16T07:25:31Z</time>
      </trkpt>
      <trkpt lat="42.594822" lon="-6.695604">
        <ele>502.470</ele>
        <time>2021-07-16T07:25:39Z</time>
      </trkpt>
      <trkpt lat="42.594708" lon="-6.694922">
        <ele>501.982</ele>
        <time>2021-07-16T07:25:48Z</time>
      </trkpt>
      <trkpt lat="42.594582" lon="-6.694193">
        <ele>500.989</ele>
        <time>2021-07-16T07:25:59Z</time>
      </trkpt>
      <trkpt lat="42.594458" lon="-6.693513">
        <ele>500.979</ele>
        <time>2021-07-16T07:26:10Z</time>
      </trkpt>
      <trkpt lat="42.594334" lon="-6.692795">
        <ele>500.563</ele>
        <time>2021-07-16T07:26:22Z</time>
      </trkpt>
      <trkpt lat="42.594232" lon="-6.692199">
        <ele>500.091</ele>
        <time>2021-07-16T07:26:32Z</time>
      </trkpt>
      <trkpt lat="42.594111" lon="-6.691487">
        <ele>500.068</ele>
        <time>2021-07-16T07:26:44Z</time>
      </trkpt>
      <trkpt lat="42.593990" lon="-6.690810">
        <ele>500.076</ele>
        <time>2021-07-16T07:26:55Z</time>
      </trkpt>
      <trkpt lat="42.593873" lon="-6.690169">
        <ele>500.953</ele>
        <time>2021-07-16T07:27:06Z</time>
      </trkpt>
      <trkpt lat="42.593723" lon="-6.689299">
        <ele>501.404</ele>
        <time>2021-07-16T07:27:20Z</time>
      </trkpt>
      <trkpt lat="42.593572" lon="-6.688403">
        <ele>501.914</ele>
        <time>2021-07-16T07:27:34Z</time>
      </trkpt>
      <trkpt lat="42.593466" lon="-6.687797">
        <ele>502.408</ele>
        <time>2021-07-16T07:27:44Z</time>
      </trkpt>
      <trkpt lat="42.593342" lon="-6.687111">
        <ele>501.972</ele>
        <time>2021-07-16T07:27:55Z</time>
      </trkpt>
      <trkpt lat="42.593226" lon="-6.686476">
        <ele>501.474</ele>
        <time>2021-07-16T07:28:05Z</time>
      </trkpt>
      <trkpt lat="42.593098" lon="-6.685776">
        <ele>500.931</ele>
        <time>2021-07-16T07:28:16Z</time>
      </trkpt>
      <trkpt lat="42.593053" lon="-6.685459">
        <ele>501.441</ele>
        <time>2021-07-16T07:28:21Z</time>
      </trkpt>
      <trkpt lat="42.592967" lon="-6.684900">
        <ele>501.995</ele>
        <time>2021-07-16T07:28:30Z</time>
      </trkpt>
      <trkpt lat="42.592882" lon="-6.684397">
        <ele>502.463</ele>
        <time>2021-07-16T07:28:38Z</time>
      </trkpt>
      <trkpt lat="42.592783" lon="-6.683804">
        <ele>503.380</ele>
        <time>2021-07-16T07:28:48Z</time>
      </trkpt>
      <trkpt lat="42.592669" lon="-6.683132">
        <ele>502.928</ele>
        <time>2021-07-16T07:28:59Z</time>
      </trkpt>
      <trkpt lat="42.592554" lon="-6.682475">
        <ele>503.387</ele>
        <time>2021-07-16T07:29:10Z</time>
      </trkpt>
      <trkpt lat="42.592470" lon="-6.682004">
        <ele>503.342</ele>
        <time>2021-07-16T07:29:18Z</time>
      </trkpt>
      <trkpt lat="42.592386" lon="-6.681493">
        <ele>503.826</ele>
        <time>2021-07-16T07:29:27Z</time>
      </trkpt>
      <trkpt lat="42.592297" lon="-6.680969">
        <ele>504.808</ele>
        <time>2021-07-16T07:29:36Z</time>
      </trkpt>
      <trkpt lat="42.592172" lon="-6.680268">
        <ele>506.285</ele>
        <time>2021-07-16T07:29:49Z</time>
      </trkpt>
      <trkpt lat="42.592074" lon="-6.679871">
        <ele>507.737</ele>
        <time>2021-07-16T07:29:58Z</time>
      </trkpt>
      <trkpt lat="42.591970" lon="-6.679569">
        <ele>509.114</ele>
        <time>2021-07-16T07:30:07Z</time>
      </trkpt>
      <trkpt lat="42.591827" lon="-6.679225">
        <ele>511.054</ele>
        <time>2021-07-16T07:30:18Z</time>
      </trkpt>
      <trkpt lat="42.591699" lon="-6.678993">
        <ele>513.058</ele>
        <time>2021-07-16T07:30:26Z</time>
      </trkpt>
      <trkpt lat="42.591555" lon="-6.678742">
        <ele>514.986</ele>
        <time>2021-07-16T07:30:35Z</time>
      </trkpt>
      <trkpt lat="42.591368" lon="-6.678465">
        <ele>516.323</ele>
        <time>2021-07-16T07:30:45Z</time>
      </trkpt>
      <trkpt lat="42.591135" lon="-6.678182">
        <ele>517.361</ele>
        <time>2021-07-16T07:30:55Z</time>
      </trkpt>
      <trkpt lat="42.590911" lon="-6.677958">
        <ele>517.851</ele>
        <time>2021-07-16T07:31:03Z</time>
      </trkpt>
      <trkpt lat="42.590557" lon="-6.677693">
        <ele>517.801</ele>
        <time>2021-07-16T07:31:14Z</time>
      </trkpt>
      <trkpt lat="42.590135" lon="-6.677470">
        <ele>518.711</ele>
        <time>2021-07-16T07:31:26Z</time>
      </trkpt>
      <trkpt lat="42.589706" lon="-6.677309">
        <ele>517.308</ele>
        <time>2021-07-16T07:31:36Z</time>
      </trkpt>
      <trkpt lat="42.589169" lon="-6.677125">
        <ele>515.812</ele>
        <time>2021-07-16T07:31:46Z</time>
      </trkpt>
      <trkpt lat="42.588704" lon="-6.676968">
        <ele>514.434</ele>
        <time>2021-07-16T07:31:54Z</time>
      </trkpt>
      <trkpt lat="42.588297" lon="-6.676871">
        <ele>512.031</ele>
        <time>2021-07-16T07:32:02Z</time>
      </trkpt>
      <trkpt lat="42.588235" lon="-6.676885">
        <ele>512.071</ele>
        <time>2021-07-16T07:32:03Z</time>
      </trkpt>
      <trkpt lat="42.588198" lon="-6.676901">
        <ele>511.515</ele>
        <time>2021-07-16T07:32:04Z</time>
      </trkpt>
      <trkpt lat="42.588036" lon="-6.676978">
        <ele>511.583</ele>
        <time>2021-07-16T07:32:07Z</time>
      </trkpt>
      <trkpt lat="42.587979" lon="-6.676986">
        <ele>511.560</ele>
        <time>2021-07-16T07:32:08Z</time>
      </trkpt>
      <trkpt lat="42.587921" lon="-6.676981">
        <ele>511.568</ele>
        <time>2021-07-16T07:32:09Z</time>
      </trkpt>
      <trkpt lat="42.587860" lon="-6.676957">
        <ele>511.031</ele>
        <time>2021-07-16T07:32:10Z</time>
      </trkpt>
      <trkpt lat="42.587792" lon="-6.676900">
        <ele>511.061</ele>
        <time>2021-07-16T07:32:11Z</time>
      </trkpt>
      <trkpt lat="42.587751" lon="-6.676841">
        <ele>511.007</ele>
        <time>2021-07-16T07:32:12Z</time>
      </trkpt>
      <trkpt lat="42.587729" lon="-6.676802">
        <ele>510.608</ele>
        <time>2021-07-16T07:32:13Z</time>
      </trkpt>
      <trkpt lat="42.587694" lon="-6.676741">
        <ele>510.680</ele>
        <time>2021-07-16T07:32:14Z</time>
      </trkpt>
      <trkpt lat="42.587612" lon="-6.676627">
        <ele>509.682</ele>
        <time>2021-07-16T07:32:16Z</time>
      </trkpt>
      <trkpt lat="42.587555" lon="-6.676583">
        <ele>509.119</ele>
        <time>2021-07-16T07:32:17Z</time>
      </trkpt>
      <trkpt lat="42.587490" lon="-6.676550">
        <ele>509.179</ele>
        <time>2021-07-16T07:32:18Z</time>
      </trkpt>
      <trkpt lat="42.587017" lon="-6.676384">
        <ele>508.683</ele>
        <time>2021-07-16T07:32:26Z</time>
      </trkpt>
      <trkpt lat="42.586958" lon="-6.676379">
        <ele>508.171</ele>
        <time>2021-07-16T07:32:27Z</time>
      </trkpt>
      <trkpt lat="42.586903" lon="-6.676390">
        <ele>508.168</ele>
        <time>2021-07-16T07:32:28Z</time>
      </trkpt>
      <trkpt lat="42.586845" lon="-6.676417">
        <ele>508.116</ele>
        <time>2021-07-16T07:32:29Z</time>
      </trkpt>
      <trkpt lat="42.586692" lon="-6.676500">
        <ele>508.138</ele>
        <time>2021-07-16T07:32:32Z</time>
      </trkpt>
      <trkpt lat="42.586638" lon="-6.676514">
        <ele>507.770</ele>
        <time>2021-07-16T07:32:33Z</time>
      </trkpt>
      <trkpt lat="42.586573" lon="-6.676513">
        <ele>507.717</ele>
        <time>2021-07-16T07:32:34Z</time>
      </trkpt>
      <trkpt lat="42.586514" lon="-6.676486">
        <ele>507.708</ele>
        <time>2021-07-16T07:32:35Z</time>
      </trkpt>
      <trkpt lat="42.586476" lon="-6.676453">
        <ele>507.220</ele>
        <time>2021-07-16T07:32:36Z</time>
      </trkpt>
      <trkpt lat="42.586432" lon="-6.676406">
        <ele>507.232</ele>
        <time>2021-07-16T07:32:37Z</time>
      </trkpt>
      <trkpt lat="42.586388" lon="-6.676353">
        <ele>507.249</ele>
        <time>2021-07-16T07:32:38Z</time>
      </trkpt>
      <trkpt lat="42.586349" lon="-6.676296">
        <ele>506.789</ele>
        <time>2021-07-16T07:32:39Z</time>
      </trkpt>
      <trkpt lat="42.586311" lon="-6.676236">
        <ele>506.713</ele>
        <time>2021-07-16T07:32:40Z</time>
      </trkpt>
      <trkpt lat="42.586269" lon="-6.676180">
        <ele>506.231</ele>
        <time>2021-07-16T07:32:41Z</time>
      </trkpt>
      <trkpt lat="42.586217" lon="-6.676131">
        <ele>506.228</ele>
        <time>2021-07-16T07:32:42Z</time>
      </trkpt>
      <trkpt lat="42.586156" lon="-6.676092">
        <ele>505.736</ele>
        <time>2021-07-16T07:32:43Z</time>
      </trkpt>
      <trkpt lat="42.586039" lon="-6.676038">
        <ele>505.341</ele>
        <time>2021-07-16T07:32:45Z</time>
      </trkpt>
      <trkpt lat="42.585512" lon="-6.675844">
        <ele>503.881</ele>
        <time>2021-07-16T07:32:54Z</time>
      </trkpt>
      <trkpt lat="42.584906" lon="-6.675629">
        <ele>501.909</ele>
        <time>2021-07-16T07:33:05Z</time>
      </trkpt>
      <trkpt lat="42.584243" lon="-6.675381">
        <ele>500.508</ele>
        <time>2021-07-16T07:33:16Z</time>
      </trkpt>
      <trkpt lat="42.584121" lon="-6.675331">
        <ele>500.581</ele>
        <time>2021-07-16T07:33:18Z</time>
      </trkpt>
      <trkpt lat="42.583966" lon="-6.675252">
        <ele>500.513</ele>
        <time>2021-07-16T07:33:22Z</time>
      </trkpt>
      <trkpt lat="42.583954" lon="-6.675246">
        <ele>500.560</ele>
        <time>2021-07-16T07:33:27Z</time>
      </trkpt>
      <trkpt lat="42.583952" lon="-6.675247">
        <ele>501.960</ele>
        <time>2021-07-16T07:33:37Z</time>
      </trkpt>
      <trkpt lat="42.583954" lon="-6.675245">
        <ele>501.934</ele>
        <time>2021-07-16T07:33:49Z</time>
      </trkpt>
      <trkpt lat="42.583955" lon="-6.675255">
        <ele>503.852</ele>
        <time>2021-07-16T07:34:06Z</time>
      </trkpt>
      <trkpt lat="42.583956" lon="-6.675248">
        <ele>504.399</ele>
        <time>2021-07-16T07:34:17Z</time>
      </trkpt>
      <trkpt lat="42.583959" lon="-6.675240">
        <ele>504.877</ele>
        <time>2021-07-16T07:34:30Z</time>
      </trkpt>
      <trkpt lat="42.583959" lon="-6.675237">
        <ele>503.898</ele>
        <time>2021-07-16T07:34:43Z</time>
      </trkpt>
      <trkpt lat="42.583955" lon="-6.675229">
        <ele>503.815</ele>
        <time>2021-07-16T07:34:44Z</time>
      </trkpt>
      <trkpt lat="42.583943" lon="-6.675217">
        <ele>503.826</ele>
        <time>2021-07-16T07:34:45Z</time>
      </trkpt>
      <trkpt lat="42.583796" lon="-6.675074">
        <ele>502.408</ele>
        <time>2021-07-16T07:34:52Z</time>
      </trkpt>
      <trkpt lat="42.583690" lon="-6.674988">
        <ele>501.976</ele>
        <time>2021-07-16T07:34:58Z</time>
      </trkpt>
      <trkpt lat="42.583491" lon="-6.674921">
        <ele>500.948</ele>
        <time>2021-07-16T07:35:04Z</time>
      </trkpt>
      <trkpt lat="42.583451" lon="-6.674904">
        <ele>500.995</ele>
        <time>2021-07-16T07:35:05Z</time>
      </trkpt>
      <trkpt lat="42.583412" lon="-6.674872">
        <ele>500.965</ele>
        <time>2021-07-16T07:35:06Z</time>
      </trkpt>
      <trkpt lat="42.583379" lon="-6.674826">
        <ele>500.569</ele>
        <time>2021-07-16T07:35:07Z</time>
      </trkpt>
      <trkpt lat="42.583356" lon="-6.674770">
        <ele>500.517</ele>
        <time>2021-07-16T07:35:08Z</time>
      </trkpt>
      <trkpt lat="42.583343" lon="-6.674718">
        <ele>500.514</ele>
        <time>2021-07-16T07:35:09Z</time>
      </trkpt>
      <trkpt lat="42.583300" lon="-6.674592">
        <ele>500.062</ele>
        <time>2021-07-16T07:35:13Z</time>
      </trkpt>
      <trkpt lat="42.583215" lon="-6.674470">
        <ele>499.559</ele>
        <time>2021-07-16T07:35:20Z</time>
      </trkpt>
      <trkpt lat="42.582966" lon="-6.674206">
        <ele>498.503</ele>
        <time>2021-07-16T07:35:28Z</time>
      </trkpt>
      <trkpt lat="42.582607" lon="-6.673817">
        <ele>496.623</ele>
        <time>2021-07-16T07:35:39Z</time>
      </trkpt>
      <trkpt lat="42.582178" lon="-6.673359">
        <ele>497.608</ele>
        <time>2021-07-16T07:35:51Z</time>
      </trkpt>
      <trkpt lat="42.581749" lon="-6.672893">
        <ele>496.672</ele>
        <time>2021-07-16T07:36:03Z</time>
      </trkpt>
      <trkpt lat="42.581404" lon="-6.672533">
        <ele>495.754</ele>
        <time>2021-07-16T07:36:13Z</time>
      </trkpt>
      <trkpt lat="42.581155" lon="-6.672252">
        <ele>495.241</ele>
        <time>2021-07-16T07:36:22Z</time>
      </trkpt>
      <trkpt lat="42.580957" lon="-6.671924">
        <ele>494.261</ele>
        <time>2021-07-16T07:36:30Z</time>
      </trkpt>
      <trkpt lat="42.580768" lon="-6.671497">
        <ele>493.775</ele>
        <time>2021-07-16T07:36:39Z</time>
      </trkpt>
      <trkpt lat="42.580635" lon="-6.671195">
        <ele>492.873</ele>
        <time>2021-07-16T07:36:46Z</time>
      </trkpt>
      <trkpt lat="42.580435" lon="-6.670742">
        <ele>494.260</ele>
        <time>2021-07-16T07:36:55Z</time>
      </trkpt>
      <trkpt lat="42.580246" lon="-6.670317">
        <ele>494.248</ele>
        <time>2021-07-16T07:37:03Z</time>
      </trkpt>
      <trkpt lat="42.580051" lon="-6.669880">
        <ele>494.727</ele>
        <time>2021-07-16T07:37:12Z</time>
      </trkpt>
      <trkpt lat="42.579784" lon="-6.669274">
        <ele>493.768</ele>
        <time>2021-07-16T07:37:24Z</time>
      </trkpt>
      <trkpt lat="42.579563" lon="-6.668772">
        <ele>493.714</ele>
        <time>2021-07-16T07:37:34Z</time>
      </trkpt>
      <trkpt lat="42.579329" lon="-6.668258">
        <ele>494.208</ele>
        <time>2021-07-16T07:37:45Z</time>
      </trkpt>
      <trkpt lat="42.579051" lon="-6.667684">
        <ele>493.779</ele>
        <time>2021-07-16T07:37:57Z</time>
      </trkpt>
      <trkpt lat="42.578915" lon="-6.667500">
        <ele>494.231</ele>
        <time>2021-07-16T07:38:04Z</time>
      </trkpt>
      <trkpt lat="42.578788" lon="-6.667507">
        <ele>495.228</ele>
        <time>2021-07-16T07:38:10Z</time>
      </trkpt>
      <trkpt lat="42.578634" lon="-6.667387">
        <ele>495.288</ele>
        <time>2021-07-16T07:38:15Z</time>
      </trkpt>
      <trkpt lat="42.578614" lon="-6.667303">
        <ele>494.732</ele>
        <time>2021-07-16T07:38:17Z</time>
      </trkpt>
      <trkpt lat="42.578610" lon="-6.667248">
        <ele>494.760</ele>
        <time>2021-07-16T07:38:18Z</time>
      </trkpt>
      <trkpt lat="42.578609" lon="-6.667186">
        <ele>494.787</ele>
        <time>2021-07-16T07:38:19Z</time>
      </trkpt>
      <trkpt lat="42.578557" lon="-6.666952">
        <ele>494.715</ele>
        <time>2021-07-16T07:38:24Z</time>
      </trkpt>
      <trkpt lat="42.578271" lon="-6.666542">
        <ele>494.771</ele>
        <time>2021-07-16T07:38:34Z</time>
      </trkpt>
      <trkpt lat="42.578132" lon="-6.666327">
        <ele>495.241</ele>
        <time>2021-07-16T07:38:39Z</time>
      </trkpt>
      <trkpt lat="42.578101" lon="-6.666290">
        <ele>495.215</ele>
        <time>2021-07-16T07:38:40Z</time>
      </trkpt>
      <trkpt lat="42.578022" lon="-6.666163">
        <ele>494.708</ele>
        <time>2021-07-16T07:38:43Z</time>
      </trkpt>
      <trkpt lat="42.578001" lon="-6.666114">
        <ele>494.744</ele>
        <time>2021-07-16T07:38:44Z</time>
      </trkpt>
      <trkpt lat="42.577978" lon="-6.666062">
        <ele>495.276</ele>
        <time>2021-07-16T07:38:45Z</time>
      </trkpt>
      <trkpt lat="42.577922" lon="-6.665916">
        <ele>495.213</ele>
        <time>2021-07-16T07:38:48Z</time>
      </trkpt>
      <trkpt lat="42.577829" lon="-6.665655">
        <ele>494.763</ele>
        <time>2021-07-16T07:38:53Z</time>
      </trkpt>
      <trkpt lat="42.577812" lon="-6.665607">
        <ele>494.797</ele>
        <time>2021-07-16T07:38:54Z</time>
      </trkpt>
      <trkpt lat="42.577792" lon="-6.665551">
        <ele>494.755</ele>
        <time>2021-07-16T07:38:55Z</time>
      </trkpt>
      <trkpt lat="42.577666" lon="-6.665203">
        <ele>494.752</ele>
        <time>2021-07-16T07:39:02Z</time>
      </trkpt>
      <trkpt lat="42.577461" lon="-6.664609">
        <ele>494.710</ele>
        <time>2021-07-16T07:39:14Z</time>
      </trkpt>
      <trkpt lat="42.577245" lon="-6.664011">
        <ele>494.752</ele>
        <time>2021-07-16T07:39:26Z</time>
      </trkpt>
      <trkpt lat="42.577060" lon="-6.663488">
        <ele>495.253</ele>
        <time>2021-07-16T07:39:36Z</time>
      </trkpt>
      <trkpt lat="42.576860" lon="-6.662935">
        <ele>495.708</ele>
        <time>2021-07-16T07:39:47Z</time>
      </trkpt>
      <trkpt lat="42.576803" lon="-6.662781">
        <ele>496.108</ele>
        <time>2021-07-16T07:39:50Z</time>
      </trkpt>
      <trkpt lat="42.576634" lon="-6.662333">
        <ele>496.162</ele>
        <time>2021-07-16T07:39:59Z</time>
      </trkpt>
      <trkpt lat="42.576382" lon="-6.661753">
        <ele>496.664</ele>
        <time>2021-07-16T07:40:11Z</time>
      </trkpt>
      <trkpt lat="42.576139" lon="-6.661188">
        <ele>497.671</ele>
        <time>2021-07-16T07:40:23Z</time>
      </trkpt>
      <trkpt lat="42.576004" lon="-6.660892">
        <ele>498.111</ele>
        <time>2021-07-16T07:40:32Z</time>
      </trkpt>
      <trkpt lat="42.575998" lon="-6.660869">
        <ele>498.165</ele>
        <time>2021-07-16T07:40:37Z</time>
      </trkpt>
      <trkpt lat="42.575997" lon="-6.660852">
        <ele>498.593</ele>
        <time>2021-07-16T07:40:51Z</time>
      </trkpt>
      <trkpt lat="42.575995" lon="-6.660829">
        <ele>498.560</ele>
        <time>2021-07-16T07:40:53Z</time>
      </trkpt>
      <trkpt lat="42.576002" lon="-6.660814">
        <ele>498.568</ele>
        <time>2021-07-16T07:40:54Z</time>
      </trkpt>
      <trkpt lat="42.576013" lon="-6.660807">
        <ele>498.531</ele>
        <time>2021-07-16T07:40:55Z</time>
      </trkpt>
      <trkpt lat="42.576031" lon="-6.660800">
        <ele>498.561</ele>
        <time>2021-07-16T07:40:56Z</time>
      </trkpt>
      <trkpt lat="42.576050" lon="-6.660786">
        <ele>498.507</ele>
        <time>2021-07-16T07:40:57Z</time>
      </trkpt>
      <trkpt lat="42.576064" lon="-6.660756">
        <ele>498.108</ele>
        <time>2021-07-16T07:40:58Z</time>
      </trkpt>
      <trkpt lat="42.576076" lon="-6.660717">
        <ele>498.140</ele>
        <time>2021-07-16T07:40:59Z</time>
      </trkpt>
      <trkpt lat="42.576084" lon="-6.660673">
        <ele>498.152</ele>
        <time>2021-07-16T07:41:00Z</time>
      </trkpt>
      <trkpt lat="42.576086" lon="-6.660634">
        <ele>498.169</ele>
        <time>2021-07-16T07:41:01Z</time>
      </trkpt>
      <trkpt lat="42.576095" lon="-6.660477">
        <ele>497.669</ele>
        <time>2021-07-16T07:41:05Z</time>
      </trkpt>
      <trkpt lat="42.576129" lon="-6.660046">
        <ele>500.543</ele>
        <time>2021-07-16T07:41:14Z</time>
      </trkpt>
      <trkpt lat="42.576192" lon="-6.659505">
        <ele>500.951</ele>
        <time>2021-07-16T07:41:25Z</time>
      </trkpt>
      <trkpt lat="42.576277" lon="-6.659015">
        <ele>500.948</ele>
        <time>2021-07-16T07:41:34Z</time>
      </trkpt>
      <trkpt lat="42.576351" lon="-6.658535">
        <ele>501.486</ele>
        <time>2021-07-16T07:41:43Z</time>
      </trkpt>
      <trkpt lat="42.576409" lon="-6.658276">
        <ele>501.436</ele>
        <time>2021-07-16T07:41:48Z</time>
      </trkpt>
      <trkpt lat="42.576562" lon="-6.657888">
        <ele>501.417</ele>
        <time>2021-07-16T07:41:56Z</time>
      </trkpt>
      <trkpt lat="42.576818" lon="-6.657356">
        <ele>501.418</ele>
        <time>2021-07-16T07:42:07Z</time>
      </trkpt>
      <trkpt lat="42.576936" lon="-6.656869">
        <ele>500.008</ele>
        <time>2021-07-16T07:42:16Z</time>
      </trkpt>
      <trkpt lat="42.576983" lon="-6.656229">
        <ele>499.540</ele>
        <time>2021-07-16T07:42:27Z</time>
      </trkpt>
      <trkpt lat="42.576954" lon="-6.655589">
        <ele>499.592</ele>
        <time>2021-07-16T07:42:38Z</time>
      </trkpt>
      <trkpt lat="42.576948" lon="-6.655529">
        <ele>499.559</ele>
        <time>2021-07-16T07:42:39Z</time>
      </trkpt>
      <trkpt lat="42.576902" lon="-6.655145">
        <ele>500.079</ele>
        <time>2021-07-16T07:42:46Z</time>
      </trkpt>
      <trkpt lat="42.576912" lon="-6.654606">
        <ele>500.943</ele>
        <time>2021-07-16T07:42:56Z</time>
      </trkpt>
      <trkpt lat="42.577021" lon="-6.654089">
        <ele>501.441</ele>
        <time>2021-07-16T07:43:06Z</time>
      </trkpt>
      <trkpt lat="42.577111" lon="-6.653583">
        <ele>501.428</ele>
        <time>2021-07-16T07:43:16Z</time>
      </trkpt>
      <trkpt lat="42.577078" lon="-6.653001">
        <ele>502.966</ele>
        <time>2021-07-16T07:43:27Z</time>
      </trkpt>
      <trkpt lat="42.577041" lon="-6.652681">
        <ele>503.384</ele>
        <time>2021-07-16T07:43:33Z</time>
      </trkpt>
      <trkpt lat="42.577033" lon="-6.652622">
        <ele>503.307</ele>
        <time>2021-07-16T07:43:34Z</time>
      </trkpt>
      <trkpt lat="42.576975" lon="-6.651984">
        <ele>503.817</ele>
        <time>2021-07-16T07:43:46Z</time>
      </trkpt>
      <trkpt lat="42.576959" lon="-6.651773">
        <ele>503.808</ele>
        <time>2021-07-16T07:43:50Z</time>
      </trkpt>
      <trkpt lat="42.576927" lon="-6.651279">
        <ele>504.335</ele>
        <time>2021-07-16T07:43:59Z</time>
      </trkpt>
      <trkpt lat="42.576919" lon="-6.650604">
        <ele>504.867</ele>
        <time>2021-07-16T07:44:11Z</time>
      </trkpt>
      <trkpt lat="42.576939" lon="-6.649994">
        <ele>504.814</ele>
        <time>2021-07-16T07:44:22Z</time>
      </trkpt>
      <trkpt lat="42.576982" lon="-6.649427">
        <ele>505.374</ele>
        <time>2021-07-16T07:44:32Z</time>
      </trkpt>
      <trkpt lat="42.577023" lon="-6.648953">
        <ele>505.728</ele>
        <time>2021-07-16T07:44:40Z</time>
      </trkpt>
      <trkpt lat="42.577080" lon="-6.648322">
        <ele>506.266</ele>
        <time>2021-07-16T07:44:51Z</time>
      </trkpt>
      <trkpt lat="42.577132" lon="-6.647708">
        <ele>506.253</ele>
        <time>2021-07-16T07:45:03Z</time>
      </trkpt>
      <trkpt lat="42.577182" lon="-6.647003">
        <ele>506.721</ele>
        <time>2021-07-16T07:45:17Z</time>
      </trkpt>
      <trkpt lat="42.577242" lon="-6.646525">
        <ele>507.277</ele>
        <time>2021-07-16T07:45:27Z</time>
      </trkpt>
      <trkpt lat="42.577309" lon="-6.646101">
        <ele>507.761</ele>
        <time>2021-07-16T07:45:37Z</time>
      </trkpt>
      <trkpt lat="42.577340" lon="-6.645695">
        <ele>508.127</ele>
        <time>2021-07-16T07:45:46Z</time>
      </trkpt>
      <trkpt lat="42.577368" lon="-6.645267">
        <ele>508.608</ele>
        <time>2021-07-16T07:45:56Z</time>
      </trkpt>
      <trkpt lat="42.577379" lon="-6.645002">
        <ele>508.614</ele>
        <time>2021-07-16T07:46:03Z</time>
      </trkpt>
      <trkpt lat="42.577391" lon="-6.644831">
        <ele>508.126</ele>
        <time>2021-07-16T07:46:10Z</time>
      </trkpt>
      <trkpt lat="42.577366" lon="-6.644534">
        <ele>508.113</ele>
        <time>2021-07-16T07:46:18Z</time>
      </trkpt>
      <trkpt lat="42.577359" lon="-6.644500">
        <ele>508.173</ele>
        <time>2021-07-16T07:46:19Z</time>
      </trkpt>
      <trkpt lat="42.577361" lon="-6.644120">
        <ele>508.697</ele>
        <time>2021-07-16T07:46:28Z</time>
      </trkpt>
      <trkpt lat="42.577355" lon="-6.643747">
        <ele>509.145</ele>
        <time>2021-07-16T07:46:36Z</time>
      </trkpt>
      <trkpt lat="42.577351" lon="-6.643417">
        <ele>509.632</ele>
        <time>2021-07-16T07:46:43Z</time>
      </trkpt>
      <trkpt lat="42.577375" lon="-6.642897">
        <ele>510.170</ele>
        <time>2021-07-16T07:46:54Z</time>
      </trkpt>
      <trkpt lat="42.577353" lon="-6.642561">
        <ele>509.617</ele>
        <time>2021-07-16T07:47:01Z</time>
      </trkpt>
      <trkpt lat="42.577356" lon="-6.642202">
        <ele>510.687</ele>
        <time>2021-07-16T07:47:09Z</time>
      </trkpt>
      <trkpt lat="42.577351" lon="-6.641789">
        <ele>511.015</ele>
        <time>2021-07-16T07:47:18Z</time>
      </trkpt>
      <trkpt lat="42.577348" lon="-6.641329">
        <ele>511.508</ele>
        <time>2021-07-16T07:47:28Z</time>
      </trkpt>
      <trkpt lat="42.577289" lon="-6.640903">
        <ele>511.528</ele>
        <time>2021-07-16T07:47:38Z</time>
      </trkpt>
      <trkpt lat="42.577192" lon="-6.640663">
        <ele>512.030</ele>
        <time>2021-07-16T07:47:45Z</time>
      </trkpt>
      <trkpt lat="42.577055" lon="-6.640265">
        <ele>511.037</ele>
        <time>2021-07-16T07:47:55Z</time>
      </trkpt>
      <trkpt lat="42.576932" lon="-6.639869">
        <ele>510.647</ele>
        <time>2021-07-16T07:48:04Z</time>
      </trkpt>
      <trkpt lat="42.576810" lon="-6.639466">
        <ele>510.651</ele>
        <time>2021-07-16T07:48:13Z</time>
      </trkpt>
      <trkpt lat="42.576781" lon="-6.639206">
        <ele>510.629</ele>
        <time>2021-07-16T07:48:20Z</time>
      </trkpt>
      <trkpt lat="42.576770" lon="-6.638867">
        <ele>510.146</ele>
        <time>2021-07-16T07:48:29Z</time>
      </trkpt>
      <trkpt lat="42.576771" lon="-6.638823">
        <ele>510.664</ele>
        <time>2021-07-16T07:48:33Z</time>
      </trkpt>
      <trkpt lat="42.576770" lon="-6.638817">
        <ele>510.633</ele>
        <time>2021-07-16T07:48:45Z</time>
      </trkpt>
      <trkpt lat="42.576762" lon="-6.638801">
        <ele>510.623</ele>
        <time>2021-07-16T07:49:09Z</time>
      </trkpt>
      <trkpt lat="42.576790" lon="-6.638814">
        <ele>511.515</ele>
        <time>2021-07-16T07:49:37Z</time>
      </trkpt>
      <trkpt lat="42.576794" lon="-6.638816">
        <ele>511.508</ele>
        <time>2021-07-16T07:50:05Z</time>
      </trkpt>
      <trkpt lat="42.576777" lon="-6.638810">
        <ele>512.540</ele>
        <time>2021-07-16T07:50:22Z</time>
      </trkpt>
      <trkpt lat="42.576775" lon="-6.638810">
        <ele>512.562</ele>
        <time>2021-07-16T07:50:23Z</time>
      </trkpt>
      <trkpt lat="42.576731" lon="-6.638794">
        <ele>512.029</ele>
        <time>2021-07-16T07:50:27Z</time>
      </trkpt>
      <trkpt lat="42.576707" lon="-6.638734">
        <ele>511.539</ele>
        <time>2021-07-16T07:50:30Z</time>
      </trkpt>
      <trkpt lat="42.576792" lon="-6.638586">
        <ele>511.513</ele>
        <time>2021-07-16T07:50:38Z</time>
      </trkpt>
      <trkpt lat="42.576826" lon="-6.638556">
        <ele>511.021</ele>
        <time>2021-07-16T07:50:40Z</time>
      </trkpt>
      <trkpt lat="42.576836" lon="-6.638523">
        <ele>511.088</ele>
        <time>2021-07-16T07:50:41Z</time>
      </trkpt>
      <trkpt lat="42.576837" lon="-6.638510">
        <ele>511.016</ele>
        <time>2021-07-16T07:50:42Z</time>
      </trkpt>
      <trkpt lat="42.576838" lon="-6.638489">
        <ele>511.526</ele>
        <time>2021-07-16T07:50:48Z</time>
      </trkpt>
      <trkpt lat="42.576841" lon="-6.638360">
        <ele>511.047</ele>
        <time>2021-07-16T07:50:53Z</time>
      </trkpt>
      <trkpt lat="42.576859" lon="-6.637990">
        <ele>512.511</ele>
        <time>2021-07-16T07:51:02Z</time>
      </trkpt>
      <trkpt lat="42.576919" lon="-6.637678">
        <ele>513.008</ele>
        <time>2021-07-16T07:51:10Z</time>
      </trkpt>
      <trkpt lat="42.576994" lon="-6.637296">
        <ele>513.029</ele>
        <time>2021-07-16T07:51:19Z</time>
      </trkpt>
      <trkpt lat="42.577054" lon="-6.636861">
        <ele>513.031</ele>
        <time>2021-07-16T07:51:28Z</time>
      </trkpt>
      <trkpt lat="42.577062" lon="-6.636490">
        <ele>513.098</ele>
        <time>2021-07-16T07:51:37Z</time>
      </trkpt>
      <trkpt lat="42.577064" lon="-6.636204">
        <ele>513.028</ele>
        <time>2021-07-16T07:51:46Z</time>
      </trkpt>
      <trkpt lat="42.577084" lon="-6.636082">
        <ele>512.592</ele>
        <time>2021-07-16T07:51:52Z</time>
      </trkpt>
      <trkpt lat="42.577091" lon="-6.636065">
        <ele>513.040</ele>
        <time>2021-07-16T07:51:58Z</time>
      </trkpt>
      <trkpt lat="42.577086" lon="-6.636054">
        <ele>513.467</ele>
        <time>2021-07-16T07:52:15Z</time>
      </trkpt>
      <trkpt lat="42.577087" lon="-6.636038">
        <ele>510.615</ele>
        <time>2021-07-16T07:52:44Z</time>
      </trkpt>
      <trkpt lat="42.577074" lon="-6.636060">
        <ele>510.643</ele>
        <time>2021-07-16T07:52:50Z</time>
      </trkpt>
      <trkpt lat="42.577084" lon="-6.636069">
        <ele>511.564</ele>
        <time>2021-07-16T07:53:09Z</time>
      </trkpt>
      <trkpt lat="42.577076" lon="-6.636058">
        <ele>511.510</ele>
        <time>2021-07-16T07:53:30Z</time>
      </trkpt>
      <trkpt lat="42.577072" lon="-6.636078">
        <ele>512.008</ele>
        <time>2021-07-16T07:53:59Z</time>
      </trkpt>
      <trkpt lat="42.577071" lon="-6.636094">
        <ele>513.941</ele>
        <time>2021-07-16T07:54:31Z</time>
      </trkpt>
      <trkpt lat="42.577085" lon="-6.636080">
        <ele>512.583</ele>
        <time>2021-07-16T07:55:00Z</time>
      </trkpt>
      <trkpt lat="42.577082" lon="-6.636058">
        <ele>511.520</ele>
        <time>2021-07-16T07:55:27Z</time>
      </trkpt>
      <trkpt lat="42.577066" lon="-6.636084">
        <ele>510.140</ele>
        <time>2021-07-16T07:55:48Z</time>
      </trkpt>
      <trkpt lat="42.577077" lon="-6.636085">
        <ele>510.614</ele>
        <time>2021-07-16T07:56:07Z</time>
      </trkpt>
      <trkpt lat="42.577073" lon="-6.636074">
        <ele>511.042</ele>
        <time>2021-07-16T07:56:38Z</time>
      </trkpt>
      <trkpt lat="42.577088" lon="-6.636069">
        <ele>509.619</ele>
        <time>2021-07-16T07:57:05Z</time>
      </trkpt>
      <trkpt lat="42.577087" lon="-6.636077">
        <ele>509.687</ele>
        <time>2021-07-16T07:57:25Z</time>
      </trkpt>
      <trkpt lat="42.577077" lon="-6.636074">
        <ele>510.676</ele>
        <time>2021-07-16T07:57:47Z</time>
      </trkpt>
      <trkpt lat="42.577076" lon="-6.636052">
        <ele>509.190</ele>
        <time>2021-07-16T07:58:16Z</time>
      </trkpt>
      <trkpt lat="42.577090" lon="-6.636058">
        <ele>510.619</ele>
        <time>2021-07-16T07:58:40Z</time>
      </trkpt>
      <trkpt lat="42.577099" lon="-6.636075">
        <ele>512.008</ele>
        <time>2021-07-16T07:59:02Z</time>
      </trkpt>
      <trkpt lat="42.577089" lon="-6.636108">
        <ele>513.414</ele>
        <time>2021-07-16T07:59:20Z</time>
      </trkpt>
      <trkpt lat="42.577089" lon="-6.636104">
        <ele>515.826</ele>
        <time>2021-07-16T07:59:41Z</time>
      </trkpt>
      <trkpt lat="42.577074" lon="-6.636093">
        <ele>513.043</ele>
        <time>2021-07-16T08:00:10Z</time>
      </trkpt>
      <trkpt lat="42.577078" lon="-6.636081">
        <ele>513.023</ele>
        <time>2021-07-16T08:00:29Z</time>
      </trkpt>
      <trkpt lat="42.577090" lon="-6.636088">
        <ele>513.947</ele>
        <time>2021-07-16T08:00:47Z</time>
      </trkpt>
      <trkpt lat="42.577088" lon="-6.636080">
        <ele>513.085</ele>
        <time>2021-07-16T08:01:09Z</time>
      </trkpt>
      <trkpt lat="42.577084" lon="-6.636094">
        <ele>512.082</ele>
        <time>2021-07-16T08:01:35Z</time>
      </trkpt>
      <trkpt lat="42.577087" lon="-6.636101">
        <ele>512.510</ele>
        <time>2021-07-16T08:01:56Z</time>
      </trkpt>
      <trkpt lat="42.577080" lon="-6.636080">
        <ele>513.974</ele>
        <time>2021-07-16T08:02:15Z</time>
      </trkpt>
      <trkpt lat="42.577070" lon="-6.636076">
        <ele>513.056</ele>
        <time>2021-07-16T08:02:31Z</time>
      </trkpt>
      <trkpt lat="42.577093" lon="-6.636092">
        <ele>512.021</ele>
        <time>2021-07-16T08:02:51Z</time>
      </trkpt>
      <trkpt lat="42.577073" lon="-6.636085">
        <ele>514.408</ele>
        <time>2021-07-16T08:03:19Z</time>
      </trkpt>
      <trkpt lat="42.577079" lon="-6.636079">
        <ele>513.414</ele>
        <time>2021-07-16T08:03:38Z</time>
      </trkpt>
      <trkpt lat="42.577082" lon="-6.636088">
        <ele>514.456</ele>
        <time>2021-07-16T08:04:01Z</time>
      </trkpt>
      <trkpt lat="42.577080" lon="-6.636085">
        <ele>513.983</ele>
        <time>2021-07-16T08:04:18Z</time>
      </trkpt>
      <trkpt lat="42.577084" lon="-6.636078">
        <ele>513.053</ele>
        <time>2021-07-16T08:04:35Z</time>
      </trkpt>
      <trkpt lat="42.577073" lon="-6.636085">
        <ele>514.497</ele>
        <time>2021-07-16T08:04:55Z</time>
      </trkpt>
      <trkpt lat="42.577074" lon="-6.636102">
        <ele>513.915</ele>
        <time>2021-07-16T08:05:10Z</time>
      </trkpt>
      <trkpt lat="42.577064" lon="-6.636108">
        <ele>514.962</ele>
        <time>2021-07-16T08:05:21Z</time>
      </trkpt>
      <trkpt lat="42.577072" lon="-6.636104">
        <ele>513.950</ele>
        <time>2021-07-16T08:05:35Z</time>
      </trkpt>
      <trkpt lat="42.577116" lon="-6.636038">
        <ele>513.979</ele>
        <time>2021-07-16T08:05:42Z</time>
      </trkpt>
      <trkpt lat="42.577129" lon="-6.635978">
        <ele>514.405</ele>
        <time>2021-07-16T08:05:46Z</time>
      </trkpt>
      <trkpt lat="42.577136" lon="-6.635962">
        <ele>514.925</ele>
        <time>2021-07-16T08:05:47Z</time>
      </trkpt>
      <trkpt lat="42.577180" lon="-6.635768">
        <ele>514.408</ele>
        <time>2021-07-16T08:05:55Z</time>
      </trkpt>
      <trkpt lat="42.577231" lon="-6.635520">
        <ele>514.484</ele>
        <time>2021-07-16T08:06:04Z</time>
      </trkpt>
      <trkpt lat="42.577299" lon="-6.635300">
        <ele>514.486</ele>
        <time>2021-07-16T08:06:12Z</time>
      </trkpt>
      <trkpt lat="42.577322" lon="-6.635243">
        <ele>513.933</ele>
        <time>2021-07-16T08:06:18Z</time>
      </trkpt>
      <trkpt lat="42.577319" lon="-6.635233">
        <ele>513.963</ele>
        <time>2021-07-16T08:06:25Z</time>
      </trkpt>
      <trkpt lat="42.577310" lon="-6.635246">
        <ele>513.067</ele>
        <time>2021-07-16T08:06:38Z</time>
      </trkpt>
      <trkpt lat="42.577301" lon="-6.635260">
        <ele>513.445</ele>
        <time>2021-07-16T08:07:01Z</time>
      </trkpt>
      <trkpt lat="42.577311" lon="-6.635262">
        <ele>513.432</ele>
        <time>2021-07-16T08:07:19Z</time>
      </trkpt>
      <trkpt lat="42.577314" lon="-6.635249">
        <ele>513.970</ele>
        <time>2021-07-16T08:07:34Z</time>
      </trkpt>
      <trkpt lat="42.577317" lon="-6.635232">
        <ele>513.914</ele>
        <time>2021-07-16T08:07:40Z</time>
      </trkpt>
      <trkpt lat="42.577354" lon="-6.635182">
        <ele>513.454</ele>
        <time>2021-07-16T08:07:49Z</time>
      </trkpt>
      <trkpt lat="42.577429" lon="-6.634972">
        <ele>513.409</ele>
        <time>2021-07-16T08:07:56Z</time>
      </trkpt>
      <trkpt lat="42.577543" lon="-6.634653">
        <ele>513.408</ele>
        <time>2021-07-16T08:08:04Z</time>
      </trkpt>
      <trkpt lat="42.577704" lon="-6.634237">
        <ele>513.478</ele>
        <time>2021-07-16T08:08:14Z</time>
      </trkpt>
      <trkpt lat="42.577786" lon="-6.633945">
        <ele>513.480</ele>
        <time>2021-07-16T08:08:20Z</time>
      </trkpt>
      <trkpt lat="42.577793" lon="-6.633891">
        <ele>513.447</ele>
        <time>2021-07-16T08:08:21Z</time>
      </trkpt>
      <trkpt lat="42.577815" lon="-6.633732">
        <ele>513.437</ele>
        <time>2021-07-16T08:08:24Z</time>
      </trkpt>
      <trkpt lat="42.577956" lon="-6.633104">
        <ele>513.021</ele>
        <time>2021-07-16T08:08:36Z</time>
      </trkpt>
      <trkpt lat="42.578032" lon="-6.632704">
        <ele>512.589</ele>
        <time>2021-07-16T08:08:44Z</time>
      </trkpt>
      <trkpt lat="42.578071" lon="-6.632462">
        <ele>512.566</ele>
        <time>2021-07-16T08:08:51Z</time>
      </trkpt>
      <trkpt lat="42.578095" lon="-6.632217">
        <ele>513.474</ele>
        <time>2021-07-16T08:09:00Z</time>
      </trkpt>
      <trkpt lat="42.578035" lon="-6.632029">
        <ele>513.991</ele>
        <time>2021-07-16T08:09:06Z</time>
      </trkpt>
      <trkpt lat="42.577961" lon="-6.631778">
        <ele>514.981</ele>
        <time>2021-07-16T08:09:16Z</time>
      </trkpt>
      <trkpt lat="42.577909" lon="-6.631582">
        <ele>514.919</ele>
        <time>2021-07-16T08:09:25Z</time>
      </trkpt>
      <trkpt lat="42.577840" lon="-6.631361">
        <ele>514.908</ele>
        <time>2021-07-16T08:09:32Z</time>
      </trkpt>
      <trkpt lat="42.577719" lon="-6.631065">
        <ele>514.926</ele>
        <time>2021-07-16T08:09:41Z</time>
      </trkpt>
      <trkpt lat="42.577494" lon="-6.630605">
        <ele>514.918</ele>
        <time>2021-07-16T08:09:54Z</time>
      </trkpt>
      <trkpt lat="42.577327" lon="-6.630343">
        <ele>514.415</ele>
        <time>2021-07-16T08:10:02Z</time>
      </trkpt>
      <trkpt lat="42.577124" lon="-6.630035">
        <ele>514.925</ele>
        <time>2021-07-16T08:10:11Z</time>
      </trkpt>
      <trkpt lat="42.576844" lon="-6.629635">
        <ele>516.329</ele>
        <time>2021-07-16T08:10:22Z</time>
      </trkpt>
      <trkpt lat="42.576618" lon="-6.629239">
        <ele>517.327</ele>
        <time>2021-07-16T08:10:32Z</time>
      </trkpt>
      <trkpt lat="42.576426" lon="-6.628759">
        <ele>517.344</ele>
        <time>2021-07-16T08:10:43Z</time>
      </trkpt>
      <trkpt lat="42.576245" lon="-6.628302">
        <ele>516.832</ele>
        <time>2021-07-16T08:10:53Z</time>
      </trkpt>
      <trkpt lat="42.576107" lon="-6.627937">
        <ele>516.884</ele>
        <time>2021-07-16T08:11:01Z</time>
      </trkpt>
      <trkpt lat="42.575978" lon="-6.627478">
        <ele>516.307</ele>
        <time>2021-07-16T08:11:10Z</time>
      </trkpt>
      <trkpt lat="42.575967" lon="-6.627425">
        <ele>516.317</ele>
        <time>2021-07-16T08:11:11Z</time>
      </trkpt>
      <trkpt lat="42.575898" lon="-6.626878">
        <ele>516.308</ele>
        <time>2021-07-16T08:11:21Z</time>
      </trkpt>
      <trkpt lat="42.575863" lon="-6.626426">
        <ele>516.325</ele>
        <time>2021-07-16T08:11:30Z</time>
      </trkpt>
      <trkpt lat="42.575824" lon="-6.626093">
        <ele>516.837</ele>
        <time>2021-07-16T08:11:37Z</time>
      </trkpt>
      <trkpt lat="42.575773" lon="-6.625705">
        <ele>516.894</ele>
        <time>2021-07-16T08:11:44Z</time>
      </trkpt>
      <trkpt lat="42.575712" lon="-6.625328">
        <ele>516.844</ele>
        <time>2021-07-16T08:11:51Z</time>
      </trkpt>
      <trkpt lat="42.575703" lon="-6.625273">
        <ele>516.868</ele>
        <time>2021-07-16T08:11:52Z</time>
      </trkpt>
      <trkpt lat="42.575695" lon="-6.625218">
        <ele>516.896</ele>
        <time>2021-07-16T08:11:53Z</time>
      </trkpt>
      <trkpt lat="42.575682" lon="-6.625162">
        <ele>516.883</ele>
        <time>2021-07-16T08:11:54Z</time>
      </trkpt>
      <trkpt lat="42.575667" lon="-6.625108">
        <ele>516.341</ele>
        <time>2021-07-16T08:11:55Z</time>
      </trkpt>
      <trkpt lat="42.575628" lon="-6.624943">
        <ele>516.343</ele>
        <time>2021-07-16T08:11:58Z</time>
      </trkpt>
      <trkpt lat="42.575567" lon="-6.624368">
        <ele>516.864</ele>
        <time>2021-07-16T08:12:08Z</time>
      </trkpt>
      <trkpt lat="42.575537" lon="-6.623848">
        <ele>517.310</ele>
        <time>2021-07-16T08:12:17Z</time>
      </trkpt>
      <trkpt lat="42.575517" lon="-6.623680">
        <ele>517.308</ele>
        <time>2021-07-16T08:12:20Z</time>
      </trkpt>
      <trkpt lat="42.575485" lon="-6.623156">
        <ele>517.381</ele>
        <time>2021-07-16T08:12:29Z</time>
      </trkpt>
      <trkpt lat="42.575463" lon="-6.622698">
        <ele>517.893</ele>
        <time>2021-07-16T08:12:37Z</time>
      </trkpt>
      <trkpt lat="42.575421" lon="-6.622130">
        <ele>517.890</ele>
        <time>2021-07-16T08:12:47Z</time>
      </trkpt>
      <trkpt lat="42.575390" lon="-6.621676">
        <ele>517.880</ele>
        <time>2021-07-16T08:12:55Z</time>
      </trkpt>
      <trkpt lat="42.575383" lon="-6.621622">
        <ele>517.814</ele>
        <time>2021-07-16T08:12:56Z</time>
      </trkpt>
      <trkpt lat="42.575353" lon="-6.621450">
        <ele>518.262</ele>
        <time>2021-07-16T08:12:59Z</time>
      </trkpt>
      <trkpt lat="42.575330" lon="-6.620898">
        <ele>518.759</ele>
        <time>2021-07-16T08:13:09Z</time>
      </trkpt>
      <trkpt lat="42.575338" lon="-6.620769">
        <ele>518.717</ele>
        <time>2021-07-16T08:13:11Z</time>
      </trkpt>
      <trkpt lat="42.575335" lon="-6.620717">
        <ele>518.729</ele>
        <time>2021-07-16T08:13:12Z</time>
      </trkpt>
      <trkpt lat="42.575315" lon="-6.620251">
        <ele>518.700</ele>
        <time>2021-07-16T08:13:20Z</time>
      </trkpt>
      <trkpt lat="42.575312" lon="-6.620189">
        <ele>519.220</ele>
        <time>2021-07-16T08:13:21Z</time>
      </trkpt>
      <trkpt lat="42.575264" lon="-6.619616">
        <ele>520.208</ele>
        <time>2021-07-16T08:13:31Z</time>
      </trkpt>
      <trkpt lat="42.575201" lon="-6.619060">
        <ele>520.639</ele>
        <time>2021-07-16T08:13:41Z</time>
      </trkpt>
      <trkpt lat="42.575139" lon="-6.618464">
        <ele>520.691</ele>
        <time>2021-07-16T08:13:52Z</time>
      </trkpt>
      <trkpt lat="42.575065" lon="-6.617888">
        <ele>521.618</ele>
        <time>2021-07-16T08:14:02Z</time>
      </trkpt>
      <trkpt lat="42.575018" lon="-6.617530">
        <ele>521.698</ele>
        <time>2021-07-16T08:14:10Z</time>
      </trkpt>
      <trkpt lat="42.574951" lon="-6.617143">
        <ele>521.642</ele>
        <time>2021-07-16T08:14:18Z</time>
      </trkpt>
      <trkpt lat="42.574897" lon="-6.616821">
        <ele>522.130</ele>
        <time>2021-07-16T08:14:26Z</time>
      </trkpt>
      <trkpt lat="42.574844" lon="-6.616526">
        <ele>522.687</ele>
        <time>2021-07-16T08:14:34Z</time>
      </trkpt>
      <trkpt lat="42.574804" lon="-6.616121">
        <ele>523.015</ele>
        <time>2021-07-16T08:14:43Z</time>
      </trkpt>
      <trkpt lat="42.574751" lon="-6.615661">
        <ele>524.099</ele>
        <time>2021-07-16T08:14:52Z</time>
      </trkpt>
      <trkpt lat="42.574713" lon="-6.615343">
        <ele>523.507</ele>
        <time>2021-07-16T08:14:58Z</time>
      </trkpt>
      <trkpt lat="42.574706" lon="-6.615285">
        <ele>524.027</ele>
        <time>2021-07-16T08:14:59Z</time>
      </trkpt>
      <trkpt lat="42.574667" lon="-6.614652">
        <ele>524.008</ele>
        <time>2021-07-16T08:15:10Z</time>
      </trkpt>
      <trkpt lat="42.574623" lon="-6.614161">
        <ele>524.566</ele>
        <time>2021-07-16T08:15:19Z</time>
      </trkpt>
      <trkpt lat="42.574597" lon="-6.613897">
        <ele>524.038</ele>
        <time>2021-07-16T08:15:24Z</time>
      </trkpt>
      <trkpt lat="42.574569" lon="-6.613342">
        <ele>524.575</ele>
        <time>2021-07-16T08:15:34Z</time>
      </trkpt>
      <trkpt lat="42.574541" lon="-6.612843">
        <ele>524.575</ele>
        <time>2021-07-16T08:15:43Z</time>
      </trkpt>
      <trkpt lat="42.574504" lon="-6.612452">
        <ele>524.579</ele>
        <time>2021-07-16T08:15:51Z</time>
      </trkpt>
      <trkpt lat="42.574395" lon="-6.612227">
        <ele>525.917</ele>
        <time>2021-07-16T08:15:57Z</time>
      </trkpt>
      <trkpt lat="42.574245" lon="-6.612008">
        <ele>526.414</ele>
        <time>2021-07-16T08:16:05Z</time>
      </trkpt>
      <trkpt lat="42.574149" lon="-6.611898">
        <ele>526.412</ele>
        <time>2021-07-16T08:16:10Z</time>
      </trkpt>
      <trkpt lat="42.574134" lon="-6.611892">
        <ele>526.946</ele>
        <time>2021-07-16T08:16:11Z</time>
      </trkpt>
      <trkpt lat="42.574122" lon="-6.611894">
        <ele>526.988</ele>
        <time>2021-07-16T08:16:12Z</time>
      </trkpt>
      <trkpt lat="42.574132" lon="-6.611939">
        <ele>525.916</ele>
        <time>2021-07-16T08:16:17Z</time>
      </trkpt>
      <trkpt lat="42.574143" lon="-6.611945">
        <ele>525.908</ele>
        <time>2021-07-16T08:16:18Z</time>
      </trkpt>
      <trkpt lat="42.574171" lon="-6.611961">
        <ele>525.531</ele>
        <time>2021-07-16T08:16:20Z</time>
      </trkpt>
      <trkpt lat="42.574184" lon="-6.611974">
        <ele>525.533</ele>
        <time>2021-07-16T08:16:21Z</time>
      </trkpt>
      <trkpt lat="42.574199" lon="-6.611985">
        <ele>525.560</ele>
        <time>2021-07-16T08:16:22Z</time>
      </trkpt>
      <trkpt lat="42.574219" lon="-6.611994">
        <ele>525.970</ele>
        <time>2021-07-16T08:16:23Z</time>
      </trkpt>
      <trkpt lat="42.574238" lon="-6.612000">
        <ele>526.424</ele>
        <time>2021-07-16T08:16:24Z</time>
      </trkpt>
      <trkpt lat="42.574255" lon="-6.612007">
        <ele>526.982</ele>
        <time>2021-07-16T08:16:25Z</time>
      </trkpt>
      <trkpt lat="42.574339" lon="-6.612046">
        <ele>527.939</ele>
        <time>2021-07-16T08:16:32Z</time>
      </trkpt>
      <trkpt lat="42.574346" lon="-6.612057">
        <ele>527.977</ele>
        <time>2021-07-16T08:16:33Z</time>
      </trkpt>
      <trkpt lat="42.574371" lon="-6.612070">
        <ele>527.435</ele>
        <time>2021-07-16T08:16:36Z</time>
      </trkpt>
      <trkpt lat="42.574375" lon="-6.612056">
        <ele>527.486</ele>
        <time>2021-07-16T08:16:37Z</time>
      </trkpt>
      <trkpt lat="42.574371" lon="-6.612043">
        <ele>527.414</ele>
        <time>2021-07-16T08:16:38Z</time>
      </trkpt>
      <trkpt lat="42.574306" lon="-6.612019">
        <ele>527.408</ele>
        <time>2021-07-16T08:16:43Z</time>
      </trkpt>
      <trkpt lat="42.574197" lon="-6.611996">
        <ele>528.320</ele>
        <time>2021-07-16T08:16:50Z</time>
      </trkpt>
      <trkpt lat="42.574121" lon="-6.611915">
        <ele>528.332</ele>
        <time>2021-07-16T08:16:58Z</time>
      </trkpt>
      <trkpt lat="42.574096" lon="-6.611879">
        <ele>528.339</ele>
        <time>2021-07-16T08:17:00Z</time>
      </trkpt>
      <trkpt lat="42.574080" lon="-6.611859">
        <ele>528.389</ele>
        <time>2021-07-16T08:17:01Z</time>
      </trkpt>
      <trkpt lat="42.574069" lon="-6.611852">
        <ele>528.333</ele>
        <time>2021-07-16T08:17:02Z</time>
      </trkpt>
      <trkpt lat="42.574053" lon="-6.611842">
        <ele>528.341</ele>
        <time>2021-07-16T08:17:03Z</time>
      </trkpt>
      <trkpt lat="42.574037" lon="-6.611830">
        <ele>527.928</ele>
        <time>2021-07-16T08:17:04Z</time>
      </trkpt>
      <trkpt lat="42.574019" lon="-6.611820">
        <ele>527.916</ele>
        <time>2021-07-16T08:17:05Z</time>
      </trkpt>
      <trkpt lat="42.573814" lon="-6.611632">
        <ele>528.388</ele>
        <time>2021-07-16T08:17:16Z</time>
      </trkpt>
      <trkpt lat="42.573560" lon="-6.611404">
        <ele>528.824</ele>
        <time>2021-07-16T08:17:26Z</time>
      </trkpt>
      <trkpt lat="42.573379" lon="-6.611190">
        <ele>529.326</ele>
        <time>2021-07-16T08:17:32Z</time>
      </trkpt>
      <trkpt lat="42.573355" lon="-6.611143">
        <ele>529.308</ele>
        <time>2021-07-16T08:17:33Z</time>
      </trkpt>
      <trkpt lat="42.573337" lon="-6.611089">
        <ele>529.345</ele>
        <time>2021-07-16T08:17:34Z</time>
      </trkpt>
      <trkpt lat="42.573316" lon="-6.610992">
        <ele>529.857</ele>
        <time>2021-07-16T08:17:36Z</time>
      </trkpt>
      <trkpt lat="42.573237" lon="-6.610769">
        <ele>529.344</ele>
        <time>2021-07-16T08:17:41Z</time>
      </trkpt>
      <trkpt lat="42.573093" lon="-6.610455">
        <ele>529.874</ele>
        <time>2021-07-16T08:17:51Z</time>
      </trkpt>
      <trkpt lat="42.572972" lon="-6.610175">
        <ele>530.358</ele>
        <time>2021-07-16T08:17:59Z</time>
      </trkpt>
      <trkpt lat="42.572844" lon="-6.609788">
        <ele>532.266</ele>
        <time>2021-07-16T08:18:09Z</time>
      </trkpt>
      <trkpt lat="42.572706" lon="-6.609302">
        <ele>533.663</ele>
        <time>2021-07-16T08:18:20Z</time>
      </trkpt>
      <trkpt lat="42.572588" lon="-6.608973">
        <ele>534.611</ele>
        <time>2021-07-16T08:18:28Z</time>
      </trkpt>
      <trkpt lat="42.572533" lon="-6.608742">
        <ele>535.594</ele>
        <time>2021-07-16T08:18:36Z</time>
      </trkpt>
      <trkpt lat="42.572531" lon="-6.608724">
        <ele>535.557</ele>
        <time>2021-07-16T08:18:43Z</time>
      </trkpt>
      <trkpt lat="42.572528" lon="-6.608727">
        <ele>535.122</ele>
        <time>2021-07-16T08:18:56Z</time>
      </trkpt>
      <trkpt lat="42.572530" lon="-6.608727">
        <ele>534.108</ele>
        <time>2021-07-16T08:19:08Z</time>
      </trkpt>
      <trkpt lat="42.572530" lon="-6.608734">
        <ele>533.146</ele>
        <time>2021-07-16T08:19:19Z</time>
      </trkpt>
      <trkpt lat="42.572532" lon="-6.608731">
        <ele>533.168</ele>
        <time>2021-07-16T08:19:31Z</time>
      </trkpt>
      <trkpt lat="42.572536" lon="-6.608729">
        <ele>533.135</ele>
        <time>2021-07-16T08:19:42Z</time>
      </trkpt>
      <trkpt lat="42.572529" lon="-6.608725">
        <ele>533.125</ele>
        <time>2021-07-16T08:19:47Z</time>
      </trkpt>
      <trkpt lat="42.572573" lon="-6.608560">
        <ele>534.199</ele>
        <time>2021-07-16T08:19:55Z</time>
      </trkpt>
      <trkpt lat="42.572592" lon="-6.608460">
        <ele>534.127</ele>
        <time>2021-07-16T08:19:59Z</time>
      </trkpt>
      <trkpt lat="42.572588" lon="-6.608443">
        <ele>534.694</ele>
        <time>2021-07-16T08:20:00Z</time>
      </trkpt>
      <trkpt lat="42.572584" lon="-6.608420">
        <ele>534.682</ele>
        <time>2021-07-16T08:20:01Z</time>
      </trkpt>
      <trkpt lat="42.572582" lon="-6.608399">
        <ele>534.669</ele>
        <time>2021-07-16T08:20:02Z</time>
      </trkpt>
      <trkpt lat="42.572578" lon="-6.608377">
        <ele>535.104</ele>
        <time>2021-07-16T08:20:03Z</time>
      </trkpt>
      <trkpt lat="42.572570" lon="-6.608348">
        <ele>535.524</ele>
        <time>2021-07-16T08:20:04Z</time>
      </trkpt>
      <trkpt lat="42.572564" lon="-6.608327">
        <ele>535.508</ele>
        <time>2021-07-16T08:20:05Z</time>
      </trkpt>
      <trkpt lat="42.572501" lon="-6.608153">
        <ele>537.063</ele>
        <time>2021-07-16T08:20:12Z</time>
      </trkpt>
      <trkpt lat="42.572423" lon="-6.607985">
        <ele>538.975</ele>
        <time>2021-07-16T08:20:19Z</time>
      </trkpt>
      <trkpt lat="42.572358" lon="-6.607756">
        <ele>539.962</ele>
        <time>2021-07-16T08:20:28Z</time>
      </trkpt>
      <trkpt lat="42.572347" lon="-6.607496">
        <ele>539.472</ele>
        <time>2021-07-16T08:20:36Z</time>
      </trkpt>
      <trkpt lat="42.572339" lon="-6.607213">
        <ele>540.816</ele>
        <time>2021-07-16T08:20:46Z</time>
      </trkpt>
      <trkpt lat="42.572324" lon="-6.606979">
        <ele>542.334</ele>
        <time>2021-07-16T08:20:54Z</time>
      </trkpt>
      <trkpt lat="42.572309" lon="-6.606699">
        <ele>543.711</ele>
        <time>2021-07-16T08:21:03Z</time>
      </trkpt>
      <trkpt lat="42.572296" lon="-6.606403">
        <ele>543.739</ele>
        <time>2021-07-16T08:21:12Z</time>
      </trkpt>
      <trkpt lat="42.572266" lon="-6.606073">
        <ele>545.289</ele>
        <time>2021-07-16T08:21:23Z</time>
      </trkpt>
      <trkpt lat="42.572231" lon="-6.605709">
        <ele>549.006</ele>
        <time>2021-07-16T08:21:36Z</time>
      </trkpt>
      <trkpt lat="42.572224" lon="-6.605660">
        <ele>549.526</ele>
        <time>2021-07-16T08:21:38Z</time>
      </trkpt>
      <trkpt lat="42.572216" lon="-6.605633">
        <ele>549.508</ele>
        <time>2021-07-16T08:21:39Z</time>
      </trkpt>
      <trkpt lat="42.572211" lon="-6.605608">
        <ele>549.545</ele>
        <time>2021-07-16T08:21:40Z</time>
      </trkpt>
      <trkpt lat="42.572208" lon="-6.605581">
        <ele>549.537</ele>
        <time>2021-07-16T08:21:41Z</time>
      </trkpt>
      <trkpt lat="42.572203" lon="-6.605553">
        <ele>549.594</ele>
        <time>2021-07-16T08:21:42Z</time>
      </trkpt>
      <trkpt lat="42.572201" lon="-6.605523">
        <ele>549.514</ele>
        <time>2021-07-16T08:21:43Z</time>
      </trkpt>
      <trkpt lat="42.572197" lon="-6.605495">
        <ele>549.558</ele>
        <time>2021-07-16T08:21:44Z</time>
      </trkpt>
      <trkpt lat="42.572191" lon="-6.605467">
        <ele>550.096</ele>
        <time>2021-07-16T08:21:45Z</time>
      </trkpt>
      <trkpt lat="42.572185" lon="-6.605439">
        <ele>550.083</ele>
        <time>2021-07-16T08:21:46Z</time>
      </trkpt>
      <trkpt lat="42.572180" lon="-6.605415">
        <ele>550.091</ele>
        <time>2021-07-16T08:21:47Z</time>
      </trkpt>
      <trkpt lat="42.572167" lon="-6.605160">
        <ele>550.098</ele>
        <time>2021-07-16T08:21:56Z</time>
      </trkpt>
      <trkpt lat="42.572126" lon="-6.605010">
        <ele>550.015</ele>
        <time>2021-07-16T08:22:02Z</time>
      </trkpt>
      <trkpt lat="42.572055" lon="-6.604781">
        <ele>550.426</ele>
        <time>2021-07-16T08:22:09Z</time>
      </trkpt>
      <trkpt lat="42.571961" lon="-6.604467">
        <ele>550.408</ele>
        <time>2021-07-16T08:22:18Z</time>
      </trkpt>
      <trkpt lat="42.571883" lon="-6.604195">
        <ele>550.466</ele>
        <time>2021-07-16T08:22:25Z</time>
      </trkpt>
      <trkpt lat="42.571826" lon="-6.604078">
        <ele>550.458</ele>
        <time>2021-07-16T08:22:29Z</time>
      </trkpt>
      <trkpt lat="42.571657" lon="-6.604018">
        <ele>550.425</ele>
        <time>2021-07-16T08:22:36Z</time>
      </trkpt>
      <trkpt lat="42.571510" lon="-6.603916">
        <ele>550.485</ele>
        <time>2021-07-16T08:22:42Z</time>
      </trkpt>
      <trkpt lat="42.571380" lon="-6.603772">
        <ele>550.469</ele>
        <time>2021-07-16T08:22:49Z</time>
      </trkpt>
      <trkpt lat="42.571212" lon="-6.603563">
        <ele>549.087</ele>
        <time>2021-07-16T08:22:57Z</time>
      </trkpt>
      <trkpt lat="42.571063" lon="-6.603350">
        <ele>547.144</ele>
        <time>2021-07-16T08:23:04Z</time>
      </trkpt>
      <trkpt lat="42.570914" lon="-6.603044">
        <ele>544.782</ele>
        <time>2021-07-16T08:23:09Z</time>
      </trkpt>
      <trkpt lat="42.570741" lon="-6.602451">
        <ele>543.217</ele>
        <time>2021-07-16T08:23:16Z</time>
      </trkpt>
      <trkpt lat="42.570691" lon="-6.602224">
        <ele>543.287</ele>
        <time>2021-07-16T08:23:19Z</time>
      </trkpt>
      <trkpt lat="42.570670" lon="-6.602165">
        <ele>543.215</ele>
        <time>2021-07-16T08:23:20Z</time>
      </trkpt>
      <trkpt lat="42.570639" lon="-6.602114">
        <ele>543.708</ele>
        <time>2021-07-16T08:23:21Z</time>
      </trkpt>
      <trkpt lat="42.570604" lon="-6.602080">
        <ele>543.778</ele>
        <time>2021-07-16T08:23:22Z</time>
      </trkpt>
      <trkpt lat="42.570569" lon="-6.602055">
        <ele>543.740</ele>
        <time>2021-07-16T08:23:23Z</time>
      </trkpt>
      <trkpt lat="42.570531" lon="-6.602033">
        <ele>544.217</ele>
        <time>2021-07-16T08:23:24Z</time>
      </trkpt>
      <trkpt lat="42.570263" lon="-6.601910">
        <ele>545.247</ele>
        <time>2021-07-16T08:23:32Z</time>
      </trkpt>
      <trkpt lat="42.569962" lon="-6.601749">
        <ele>546.121</ele>
        <time>2021-07-16T08:23:41Z</time>
      </trkpt>
      <trkpt lat="42.569817" lon="-6.601620">
        <ele>547.689</ele>
        <time>2021-07-16T08:23:48Z</time>
      </trkpt>
      <trkpt lat="42.569642" lon="-6.601514">
        <ele>546.646</ele>
        <time>2021-07-16T08:23:54Z</time>
      </trkpt>
      <trkpt lat="42.569538" lon="-6.601473">
        <ele>545.654</ele>
        <time>2021-07-16T08:23:57Z</time>
      </trkpt>
      <trkpt lat="42.569518" lon="-6.601479">
        <ele>546.152</ele>
        <time>2021-07-16T08:23:58Z</time>
      </trkpt>
      <trkpt lat="42.569497" lon="-6.601482">
        <ele>546.153</ele>
        <time>2021-07-16T08:23:59Z</time>
      </trkpt>
      <trkpt lat="42.569478" lon="-6.601485">
        <ele>546.108</ele>
        <time>2021-07-16T08:24:00Z</time>
      </trkpt>
      <trkpt lat="42.569457" lon="-6.601484">
        <ele>546.108</ele>
        <time>2021-07-16T08:24:01Z</time>
      </trkpt>
      <trkpt lat="42.569435" lon="-6.601481">
        <ele>546.112</ele>
        <time>2021-07-16T08:24:02Z</time>
      </trkpt>
      <trkpt lat="42.569200" lon="-6.601404">
        <ele>548.084</ele>
        <time>2021-07-16T08:24:11Z</time>
      </trkpt>
      <trkpt lat="42.569019" lon="-6.601319">
        <ele>549.581</ele>
        <time>2021-07-16T08:24:18Z</time>
      </trkpt>
      <trkpt lat="42.568732" lon="-6.601125">
        <ele>548.051</ele>
        <time>2021-07-16T08:24:24Z</time>
      </trkpt>
      <trkpt lat="42.568365" lon="-6.600796">
        <ele>547.125</ele>
        <time>2021-07-16T08:24:32Z</time>
      </trkpt>
      <trkpt lat="42.568038" lon="-6.600478">
        <ele>545.293</ele>
        <time>2021-07-16T08:24:40Z</time>
      </trkpt>
      <trkpt lat="42.567898" lon="-6.600372">
        <ele>544.210</ele>
        <time>2021-07-16T08:24:43Z</time>
      </trkpt>
      <trkpt lat="42.567548" lon="-6.599964">
        <ele>543.258</ele>
        <time>2021-07-16T08:24:51Z</time>
      </trkpt>
      <trkpt lat="42.567164" lon="-6.599538">
        <ele>541.369</ele>
        <time>2021-07-16T08:25:00Z</time>
      </trkpt>
      <trkpt lat="42.566764" lon="-6.599058">
        <ele>540.404</ele>
        <time>2021-07-16T08:25:09Z</time>
      </trkpt>
      <trkpt lat="42.566680" lon="-6.598959">
        <ele>540.424</ele>
        <time>2021-07-16T08:25:11Z</time>
      </trkpt>
      <trkpt lat="42.566533" lon="-6.598805">
        <ele>540.408</ele>
        <time>2021-07-16T08:25:17Z</time>
      </trkpt>
      <trkpt lat="42.566359" lon="-6.598658">
        <ele>539.933</ele>
        <time>2021-07-16T08:25:23Z</time>
      </trkpt>
      <trkpt lat="42.565969" lon="-6.598318">
        <ele>539.445</ele>
        <time>2021-07-16T08:25:35Z</time>
      </trkpt>
      <trkpt lat="42.565658" lon="-6.598126">
        <ele>539.482</ele>
        <time>2021-07-16T08:25:44Z</time>
      </trkpt>
      <trkpt lat="42.565613" lon="-6.598114">
        <ele>539.472</ele>
        <time>2021-07-16T08:25:48Z</time>
      </trkpt>
      <trkpt lat="42.565619" lon="-6.598108">
        <ele>539.456</ele>
        <time>2021-07-16T08:25:49Z</time>
      </trkpt>
      <trkpt lat="42.565719" lon="-6.598095">
        <ele>539.494</ele>
        <time>2021-07-16T08:25:56Z</time>
      </trkpt>
      <trkpt lat="42.565655" lon="-6.598009">
        <ele>539.981</ele>
        <time>2021-07-16T08:26:00Z</time>
      </trkpt>
      <trkpt lat="42.565630" lon="-6.597986">
        <ele>539.919</ele>
        <time>2021-07-16T08:26:01Z</time>
      </trkpt>
      <trkpt lat="42.565393" lon="-6.597734">
        <ele>539.483</ele>
        <time>2021-07-16T08:26:10Z</time>
      </trkpt>
      <trkpt lat="42.565221" lon="-6.597556">
        <ele>538.925</ele>
        <time>2021-07-16T08:26:17Z</time>
      </trkpt>
      <trkpt lat="42.565024" lon="-6.597303">
        <ele>538.917</ele>
        <time>2021-07-16T08:26:24Z</time>
      </trkpt>
      <trkpt lat="42.564800" lon="-6.597006">
        <ele>538.908</ele>
        <time>2021-07-16T08:26:32Z</time>
      </trkpt>
      <trkpt lat="42.564571" lon="-6.596691">
        <ele>537.975</ele>
        <time>2021-07-16T08:26:41Z</time>
      </trkpt>
      <trkpt lat="42.564385" lon="-6.596437">
        <ele>538.467</ele>
        <time>2021-07-16T08:26:50Z</time>
      </trkpt>
      <trkpt lat="42.564210" lon="-6.596201">
        <ele>538.964</ele>
        <time>2021-07-16T08:26:58Z</time>
      </trkpt>
      <trkpt lat="42.563950" lon="-6.595886">
        <ele>539.954</ele>
        <time>2021-07-16T08:27:09Z</time>
      </trkpt>
      <trkpt lat="42.563821" lon="-6.595706">
        <ele>540.878</ele>
        <time>2021-07-16T08:27:15Z</time>
      </trkpt>
      <trkpt lat="42.563692" lon="-6.595521">
        <ele>540.486</ele>
        <time>2021-07-16T08:27:21Z</time>
      </trkpt>
      <trkpt lat="42.563634" lon="-6.595421">
        <ele>539.973</ele>
        <time>2021-07-16T08:27:24Z</time>
      </trkpt>
      <trkpt lat="42.563642" lon="-6.595288">
        <ele>540.481</ele>
        <time>2021-07-16T08:27:28Z</time>
      </trkpt>
      <trkpt lat="42.563705" lon="-6.595153">
        <ele>540.472</ele>
        <time>2021-07-16T08:27:32Z</time>
      </trkpt>
      <trkpt lat="42.563623" lon="-6.594953">
        <ele>541.313</ele>
        <time>2021-07-16T08:27:38Z</time>
      </trkpt>
      <trkpt lat="42.563461" lon="-6.594739">
        <ele>544.214</ele>
        <time>2021-07-16T08:27:46Z</time>
      </trkpt>
      <trkpt lat="42.563305" lon="-6.594540">
        <ele>546.608</ele>
        <time>2021-07-16T08:27:55Z</time>
      </trkpt>
      <trkpt lat="42.563195" lon="-6.594415">
        <ele>546.164</ele>
        <time>2021-07-16T08:28:04Z</time>
      </trkpt>
      <trkpt lat="42.563056" lon="-6.594302">
        <ele>546.626</ele>
        <time>2021-07-16T08:28:13Z</time>
      </trkpt>
      <trkpt lat="42.562909" lon="-6.594119">
        <ele>545.693</ele>
        <time>2021-07-16T08:28:22Z</time>
      </trkpt>
      <trkpt lat="42.562907" lon="-6.593988">
        <ele>545.283</ele>
        <time>2021-07-16T08:28:28Z</time>
      </trkpt>
      <trkpt lat="42.562900" lon="-6.593966">
        <ele>545.267</ele>
        <time>2021-07-16T08:28:29Z</time>
      </trkpt>
      <trkpt lat="42.562841" lon="-6.593818">
        <ele>544.715</ele>
        <time>2021-07-16T08:28:36Z</time>
      </trkpt>
      <trkpt lat="42.562847" lon="-6.593775">
        <ele>544.242</ele>
        <time>2021-07-16T08:28:39Z</time>
      </trkpt>
      <trkpt lat="42.562856" lon="-6.593704">
        <ele>544.790</ele>
        <time>2021-07-16T08:28:43Z</time>
      </trkpt>
      <trkpt lat="42.562857" lon="-6.593579">
        <ele>545.259</ele>
        <time>2021-07-16T08:28:48Z</time>
      </trkpt>
      <trkpt lat="42.562694" lon="-6.593368">
        <ele>545.203</ele>
        <time>2021-07-16T08:28:59Z</time>
      </trkpt>
      <trkpt lat="42.562562" lon="-6.593187">
        <ele>545.223</ele>
        <time>2021-07-16T08:29:07Z</time>
      </trkpt>
      <trkpt lat="42.562524" lon="-6.593143">
        <ele>545.608</ele>
        <time>2021-07-16T08:29:11Z</time>
      </trkpt>
      <trkpt lat="42.562478" lon="-6.593057">
        <ele>545.662</ele>
        <time>2021-07-16T08:29:18Z</time>
      </trkpt>
      <trkpt lat="42.562374" lon="-6.592892">
        <ele>546.164</ele>
        <time>2021-07-16T08:29:25Z</time>
      </trkpt>
      <trkpt lat="42.562260" lon="-6.592776">
        <ele>546.141</ele>
        <time>2021-07-16T08:29:32Z</time>
      </trkpt>
      <trkpt lat="42.562138" lon="-6.592844">
        <ele>546.161</ele>
        <time>2021-07-16T08:29:37Z</time>
      </trkpt>
      <trkpt lat="42.562013" lon="-6.592751">
        <ele>546.625</ele>
        <time>2021-07-16T08:29:42Z</time>
      </trkpt>
      <trkpt lat="42.561815" lon="-6.592455">
        <ele>547.623</ele>
        <time>2021-07-16T08:29:50Z</time>
      </trkpt>
      <trkpt lat="42.561563" lon="-6.592136">
        <ele>546.680</ele>
        <time>2021-07-16T08:29:59Z</time>
      </trkpt>
      <trkpt lat="42.561379" lon="-6.591876">
        <ele>546.638</ele>
        <time>2021-07-16T08:30:07Z</time>
      </trkpt>
      <trkpt lat="42.561165" lon="-6.591595">
        <ele>545.289</ele>
        <time>2021-07-16T08:30:16Z</time>
      </trkpt>
      <trkpt lat="42.560969" lon="-6.591345">
        <ele>543.206</ele>
        <time>2021-07-16T08:30:23Z</time>
      </trkpt>
      <trkpt lat="42.560697" lon="-6.590968">
        <ele>542.326</ele>
        <time>2021-07-16T08:30:31Z</time>
      </trkpt>
      <trkpt lat="42.560464" lon="-6.590640">
        <ele>542.308</ele>
        <time>2021-07-16T08:30:39Z</time>
      </trkpt>
      <trkpt lat="42.560265" lon="-6.590392">
        <ele>542.815</ele>
        <time>2021-07-16T08:30:47Z</time>
      </trkpt>
      <trkpt lat="42.560174" lon="-6.590286">
        <ele>542.857</ele>
        <time>2021-07-16T08:30:50Z</time>
      </trkpt>
      <trkpt lat="42.559913" lon="-6.589932">
        <ele>544.214</ele>
        <time>2021-07-16T08:30:59Z</time>
      </trkpt>
      <trkpt lat="42.559613" lon="-6.589538">
        <ele>545.234</ele>
        <time>2021-07-16T08:31:09Z</time>
      </trkpt>
      <trkpt lat="42.559284" lon="-6.589105">
        <ele>545.288</ele>
        <time>2021-07-16T08:31:20Z</time>
      </trkpt>
      <trkpt lat="42.558993" lon="-6.588741">
        <ele>544.726</ele>
        <time>2021-07-16T08:31:30Z</time>
      </trkpt>
      <trkpt lat="42.558777" lon="-6.588643">
        <ele>542.893</ele>
        <time>2021-07-16T08:31:36Z</time>
      </trkpt>
      <trkpt lat="42.558615" lon="-6.588756">
        <ele>541.311</ele>
        <time>2021-07-16T08:31:40Z</time>
      </trkpt>
      <trkpt lat="42.558551" lon="-6.588933">
        <ele>539.996</ele>
        <time>2021-07-16T08:31:42Z</time>
      </trkpt>
      <trkpt lat="42.558533" lon="-6.589016">
        <ele>539.931</ele>
        <time>2021-07-16T08:31:43Z</time>
      </trkpt>
      <trkpt lat="42.558517" lon="-6.589102">
        <ele>539.424</ele>
        <time>2021-07-16T08:31:44Z</time>
      </trkpt>
      <trkpt lat="42.558409" lon="-6.589644">
        <ele>537.908</ele>
        <time>2021-07-16T08:31:50Z</time>
      </trkpt>
      <trkpt lat="42.558216" lon="-6.590633">
        <ele>535.156</ele>
        <time>2021-07-16T08:32:02Z</time>
      </trkpt>
      <trkpt lat="42.558119" lon="-6.591115">
        <ele>535.578</ele>
        <time>2021-07-16T08:32:09Z</time>
      </trkpt>
      <trkpt lat="42.557977" lon="-6.591684">
        <ele>535.195</ele>
        <time>2021-07-16T08:32:18Z</time>
      </trkpt>
      <trkpt lat="42.557953" lon="-6.591740">
        <ele>535.125</ele>
        <time>2021-07-16T08:32:19Z</time>
      </trkpt>
      <trkpt lat="42.557923" lon="-6.591793">
        <ele>534.689</ele>
        <time>2021-07-16T08:32:20Z</time>
      </trkpt>
      <trkpt lat="42.557888" lon="-6.591840">
        <ele>534.637</ele>
        <time>2021-07-16T08:32:21Z</time>
      </trkpt>
      <trkpt lat="42.557847" lon="-6.591888">
        <ele>534.134</ele>
        <time>2021-07-16T08:32:22Z</time>
      </trkpt>
      <trkpt lat="42.557806" lon="-6.591928">
        <ele>534.122</ele>
        <time>2021-07-16T08:32:23Z</time>
      </trkpt>
      <trkpt lat="42.557765" lon="-6.591969">
        <ele>534.157</ele>
        <time>2021-07-16T08:32:24Z</time>
      </trkpt>
      <trkpt lat="42.557692" lon="-6.592059">
        <ele>533.600</ele>
        <time>2021-07-16T08:32:26Z</time>
      </trkpt>
      <trkpt lat="42.557670" lon="-6.592111">
        <ele>533.620</ele>
        <time>2021-07-16T08:32:27Z</time>
      </trkpt>
      <trkpt lat="42.557653" lon="-6.592169">
        <ele>533.108</ele>
        <time>2021-07-16T08:32:28Z</time>
      </trkpt>
      <trkpt lat="42.557638" lon="-6.592227">
        <ele>533.682</ele>
        <time>2021-07-16T08:32:29Z</time>
      </trkpt>
      <trkpt lat="42.557618" lon="-6.592288">
        <ele>533.684</ele>
        <time>2021-07-16T08:32:30Z</time>
      </trkpt>
      <trkpt lat="42.557594" lon="-6.592341">
        <ele>533.611</ele>
        <time>2021-07-16T08:32:31Z</time>
      </trkpt>
      <trkpt lat="42.557563" lon="-6.592388">
        <ele>533.621</ele>
        <time>2021-07-16T08:32:32Z</time>
      </trkpt>
      <trkpt lat="42.557525" lon="-6.592430">
        <ele>533.665</ele>
        <time>2021-07-16T08:32:33Z</time>
      </trkpt>
      <trkpt lat="42.557483" lon="-6.592459">
        <ele>533.663</ele>
        <time>2021-07-16T08:32:34Z</time>
      </trkpt>
      <trkpt lat="42.557436" lon="-6.592481">
        <ele>533.120</ele>
        <time>2021-07-16T08:32:35Z</time>
      </trkpt>
      <trkpt lat="42.557390" lon="-6.592497">
        <ele>533.148</ele>
        <time>2021-07-16T08:32:36Z</time>
      </trkpt>
      <trkpt lat="42.557286" lon="-6.592530">
        <ele>532.747</ele>
        <time>2021-07-16T08:32:38Z</time>
      </trkpt>
      <trkpt lat="42.557237" lon="-6.592554">
        <ele>532.229</ele>
        <time>2021-07-16T08:32:39Z</time>
      </trkpt>
      <trkpt lat="42.557192" lon="-6.592582">
        <ele>532.221</ele>
        <time>2021-07-16T08:32:40Z</time>
      </trkpt>
      <trkpt lat="42.557145" lon="-6.592623">
        <ele>532.208</ele>
        <time>2021-07-16T08:32:41Z</time>
      </trkpt>
      <trkpt lat="42.557105" lon="-6.592667">
        <ele>532.261</ele>
        <time>2021-07-16T08:32:42Z</time>
      </trkpt>
      <trkpt lat="42.557068" lon="-6.592719">
        <ele>532.293</ele>
        <time>2021-07-16T08:32:43Z</time>
      </trkpt>
      <trkpt lat="42.557036" lon="-6.592771">
        <ele>532.210</ele>
        <time>2021-07-16T08:32:44Z</time>
      </trkpt>
      <trkpt lat="42.556775" lon="-6.593201">
        <ele>532.780</ele>
        <time>2021-07-16T08:32:53Z</time>
      </trkpt>
      <trkpt lat="42.556491" lon="-6.593646">
        <ele>532.724</ele>
        <time>2021-07-16T08:33:02Z</time>
      </trkpt>
      <trkpt lat="42.556415" lon="-6.593789">
        <ele>533.132</ele>
        <time>2021-07-16T08:33:05Z</time>
      </trkpt>
      <trkpt lat="42.556387" lon="-6.593829">
        <ele>533.199</ele>
        <time>2021-07-16T08:33:06Z</time>
      </trkpt>
      <trkpt lat="42.556356" lon="-6.593874">
        <ele>533.127</ele>
        <time>2021-07-16T08:33:07Z</time>
      </trkpt>
      <trkpt lat="42.556043" lon="-6.594377">
        <ele>532.771</ele>
        <time>2021-07-16T08:33:17Z</time>
      </trkpt>
      <trkpt lat="42.555867" lon="-6.594678">
        <ele>532.241</ele>
        <time>2021-07-16T08:33:24Z</time>
      </trkpt>
      <trkpt lat="42.555745" lon="-6.594911">
        <ele>531.715</ele>
        <time>2021-07-16T08:33:31Z</time>
      </trkpt>
      <trkpt lat="42.555694" lon="-6.595094">
        <ele>530.308</ele>
        <time>2021-07-16T08:33:38Z</time>
      </trkpt>
      <trkpt lat="42.555681" lon="-6.595140">
        <ele>530.394</ele>
        <time>2021-07-16T08:33:39Z</time>
      </trkpt>
      <trkpt lat="42.555549" lon="-6.595262">
        <ele>530.386</ele>
        <time>2021-07-16T08:33:43Z</time>
      </trkpt>
      <trkpt lat="42.555374" lon="-6.595457">
        <ele>529.893</ele>
        <time>2021-07-16T08:33:48Z</time>
      </trkpt>
      <trkpt lat="42.555183" lon="-6.595777">
        <ele>528.833</ele>
        <time>2021-07-16T08:33:56Z</time>
      </trkpt>
      <trkpt lat="42.555006" lon="-6.596057">
        <ele>529.897</ele>
        <time>2021-07-16T08:34:02Z</time>
      </trkpt>
      <trkpt lat="42.554774" lon="-6.596455">
        <ele>530.315</ele>
        <time>2021-07-16T08:34:10Z</time>
      </trkpt>
      <trkpt lat="42.554675" lon="-6.596669">
        <ele>530.772</ele>
        <time>2021-07-16T08:34:14Z</time>
      </trkpt>
      <trkpt lat="42.554363" lon="-6.597162">
        <ele>531.770</ele>
        <time>2021-07-16T08:34:24Z</time>
      </trkpt>
      <trkpt lat="42.554069" lon="-6.597649">
        <ele>530.729</ele>
        <time>2021-07-16T08:34:34Z</time>
      </trkpt>
      <trkpt lat="42.553729" lon="-6.598200">
        <ele>530.300</ele>
        <time>2021-07-16T08:34:45Z</time>
      </trkpt>
      <trkpt lat="42.553493" lon="-6.598583">
        <ele>530.320</ele>
        <time>2021-07-16T08:34:53Z</time>
      </trkpt>
      <trkpt lat="42.553189" lon="-6.599101">
        <ele>530.308</ele>
        <time>2021-07-16T08:35:03Z</time>
      </trkpt>
      <trkpt lat="42.552880" lon="-6.599630">
        <ele>531.279</ele>
        <time>2021-07-16T08:35:14Z</time>
      </trkpt>
      <trkpt lat="42.552811" lon="-6.599862">
        <ele>529.881</ele>
        <time>2021-07-16T08:35:20Z</time>
      </trkpt>
      <trkpt lat="42.552798" lon="-6.599911">
        <ele>529.348</ele>
        <time>2021-07-16T08:35:25Z</time>
      </trkpt>
      <trkpt lat="42.552783" lon="-6.600084">
        <ele>528.878</ele>
        <time>2021-07-16T08:35:30Z</time>
      </trkpt>
      <trkpt lat="42.552655" lon="-6.600254">
        <ele>528.872</ele>
        <time>2021-07-16T08:35:35Z</time>
      </trkpt>
      <trkpt lat="42.552549" lon="-6.600339">
        <ele>528.870</ele>
        <time>2021-07-16T08:35:40Z</time>
      </trkpt>
      <trkpt lat="42.552455" lon="-6.600468">
        <ele>528.397</ele>
        <time>2021-07-16T08:35:46Z</time>
      </trkpt>
      <trkpt lat="42.552222" lon="-6.600828">
        <ele>528.325</ele>
        <time>2021-07-16T08:35:55Z</time>
      </trkpt>
      <trkpt lat="42.551969" lon="-6.601237">
        <ele>527.917</ele>
        <time>2021-07-16T08:36:03Z</time>
      </trkpt>
      <trkpt lat="42.551676" lon="-6.601699">
        <ele>527.487</ele>
        <time>2021-07-16T08:36:12Z</time>
      </trkpt>
      <trkpt lat="42.551418" lon="-6.602111">
        <ele>526.415</ele>
        <time>2021-07-16T08:36:20Z</time>
      </trkpt>
      <trkpt lat="42.551147" lon="-6.602553">
        <ele>524.508</ele>
        <time>2021-07-16T08:36:29Z</time>
      </trkpt>
      <trkpt lat="42.550815" lon="-6.603096">
        <ele>524.028</ele>
        <time>2021-07-16T08:36:39Z</time>
      </trkpt>
      <trkpt lat="42.550508" lon="-6.603602">
        <ele>523.530</ele>
        <time>2021-07-16T08:36:48Z</time>
      </trkpt>
      <trkpt lat="42.550403" lon="-6.603914">
        <ele>523.037</ele>
        <time>2021-07-16T08:36:55Z</time>
      </trkpt>
      <trkpt lat="42.550380" lon="-6.603951">
        <ele>523.067</ele>
        <time>2021-07-16T08:36:56Z</time>
      </trkpt>
      <trkpt lat="42.550178" lon="-6.604139">
        <ele>523.091</ele>
        <time>2021-07-16T08:37:03Z</time>
      </trkpt>
      <trkpt lat="42.549990" lon="-6.604454">
        <ele>523.029</ele>
        <time>2021-07-16T08:37:10Z</time>
      </trkpt>
      <trkpt lat="42.549701" lon="-6.604924">
        <ele>523.586</ele>
        <time>2021-07-16T08:37:19Z</time>
      </trkpt>
      <trkpt lat="42.549365" lon="-6.605444">
        <ele>522.184</ele>
        <time>2021-07-16T08:37:29Z</time>
      </trkpt>
      <trkpt lat="42.549097" lon="-6.605917">
        <ele>521.697</ele>
        <time>2021-07-16T08:37:38Z</time>
      </trkpt>
      <trkpt lat="42.549017" lon="-6.606081">
        <ele>520.623</ele>
        <time>2021-07-16T08:37:41Z</time>
      </trkpt>
      <trkpt lat="42.548972" lon="-6.606413">
        <ele>520.225</ele>
        <time>2021-07-16T08:37:46Z</time>
      </trkpt>
      <trkpt lat="42.549082" lon="-6.606690">
        <ele>520.208</ele>
        <time>2021-07-16T08:37:50Z</time>
      </trkpt>
      <trkpt lat="42.549429" lon="-6.607344">
        <ele>521.126</ele>
        <time>2021-07-16T08:38:01Z</time>
      </trkpt>
      <trkpt lat="42.549628" lon="-6.607695">
        <ele>521.138</ele>
        <time>2021-07-16T08:38:08Z</time>
      </trkpt>
      <trkpt lat="42.549707" lon="-6.607821">
        <ele>521.135</ele>
        <time>2021-07-16T08:38:13Z</time>
      </trkpt>
      <trkpt lat="42.549707" lon="-6.607820">
        <ele>521.145</ele>
        <time>2021-07-16T08:38:14Z</time>
      </trkpt>
      <trkpt lat="42.549642" lon="-6.607910">
        <ele>522.199</ele>
        <time>2021-07-16T08:38:21Z</time>
      </trkpt>
      <trkpt lat="42.549589" lon="-6.607963">
        <ele>523.017</ele>
        <time>2021-07-16T08:38:25Z</time>
      </trkpt>
      <trkpt lat="42.549453" lon="-6.608032">
        <ele>523.584</ele>
        <time>2021-07-16T08:38:35Z</time>
      </trkpt>
      <trkpt lat="42.549373" lon="-6.608109">
        <ele>523.572</ele>
        <time>2021-07-16T08:38:42Z</time>
      </trkpt>
      <trkpt lat="42.549395" lon="-6.608187">
        <ele>522.673</ele>
        <time>2021-07-16T08:38:47Z</time>
      </trkpt>
      <trkpt lat="42.549426" lon="-6.608227">
        <ele>522.685</ele>
        <time>2021-07-16T08:38:50Z</time>
      </trkpt>
      <trkpt lat="42.549462" lon="-6.608224">
        <ele>523.513</ele>
        <time>2021-07-16T08:38:56Z</time>
      </trkpt>
      <trkpt lat="42.549460" lon="-6.608207">
        <ele>524.508</ele>
        <time>2021-07-16T08:39:06Z</time>
      </trkpt>
      <trkpt lat="42.549456" lon="-6.608211">
        <ele>524.574</ele>
        <time>2021-07-16T08:39:19Z</time>
      </trkpt>
      <trkpt lat="42.549448" lon="-6.608221">
        <ele>524.556</ele>
        <time>2021-07-16T08:39:29Z</time>
      </trkpt>
      <trkpt lat="42.549446" lon="-6.608236">
        <ele>523.563</ele>
        <time>2021-07-16T08:39:42Z</time>
      </trkpt>
      <trkpt lat="42.549443" lon="-6.608242">
        <ele>523.023</ele>
        <time>2021-07-16T08:39:51Z</time>
      </trkpt>
      <trkpt lat="42.549453" lon="-6.608248">
        <ele>522.137</ele>
        <time>2021-07-16T08:40:03Z</time>
      </trkpt>
      <trkpt lat="42.549458" lon="-6.608252">
        <ele>523.055</ele>
        <time>2021-07-16T08:40:18Z</time>
      </trkpt>
      <trkpt lat="42.549445" lon="-6.608261">
        <ele>521.662</ele>
        <time>2021-07-16T08:40:34Z</time>
      </trkpt>
      <trkpt lat="42.549442" lon="-6.608269">
        <ele>521.610</ele>
        <time>2021-07-16T08:40:47Z</time>
      </trkpt>
      <trkpt lat="42.549443" lon="-6.608265">
        <ele>521.177</ele>
        <time>2021-07-16T08:40:57Z</time>
      </trkpt>
      <trkpt lat="42.549448" lon="-6.608267">
        <ele>521.161</ele>
        <time>2021-07-16T08:41:07Z</time>
      </trkpt>
      <trkpt lat="42.549464" lon="-6.608261">
        <ele>524.527</ele>
        <time>2021-07-16T08:41:23Z</time>
      </trkpt>
      <trkpt lat="42.549479" lon="-6.608250">
        <ele>526.408</ele>
        <time>2021-07-16T08:41:36Z</time>
      </trkpt>
      <trkpt lat="42.549492" lon="-6.608248">
        <ele>527.414</ele>
        <time>2021-07-16T08:41:46Z</time>
      </trkpt>
      <trkpt lat="42.549502" lon="-6.608254">
        <ele>529.886</ele>
        <time>2021-07-16T08:42:01Z</time>
      </trkpt>
      <trkpt lat="42.549509" lon="-6.608260">
        <ele>529.863</ele>
        <time>2021-07-16T08:42:10Z</time>
      </trkpt>
      <trkpt lat="42.549509" lon="-6.608268">
        <ele>529.853</ele>
        <time>2021-07-16T08:42:20Z</time>
      </trkpt>
      <trkpt lat="42.549511" lon="-6.608281">
        <ele>529.867</ele>
        <time>2021-07-16T08:42:33Z</time>
      </trkpt>
      <trkpt lat="42.549511" lon="-6.608279">
        <ele>528.815</ele>
        <time>2021-07-16T08:42:43Z</time>
      </trkpt>
      <trkpt lat="42.549507" lon="-6.608277">
        <ele>527.942</ele>
        <time>2021-07-16T08:42:52Z</time>
      </trkpt>
      <trkpt lat="42.549510" lon="-6.608280">
        <ele>528.340</ele>
        <time>2021-07-16T08:43:06Z</time>
      </trkpt>
      <trkpt lat="42.549511" lon="-6.608271">
        <ele>527.967</ele>
        <time>2021-07-16T08:43:15Z</time>
      </trkpt>
      <trkpt lat="42.549503" lon="-6.608265">
        <ele>527.981</ele>
        <time>2021-07-16T08:43:28Z</time>
      </trkpt>
      <trkpt lat="42.549496" lon="-6.608259">
        <ele>526.419</ele>
        <time>2021-07-16T08:43:40Z</time>
      </trkpt>
      <trkpt lat="42.549487" lon="-6.608250">
        <ele>525.908</ele>
        <time>2021-07-16T08:43:53Z</time>
      </trkpt>
      <trkpt lat="42.549488" lon="-6.608241">
        <ele>525.533</ele>
        <time>2021-07-16T08:44:04Z</time>
      </trkpt>
      <trkpt lat="42.549489" lon="-6.608246">
        <ele>525.965</ele>
        <time>2021-07-16T08:44:16Z</time>
      </trkpt>
      <trkpt lat="42.549494" lon="-6.608254">
        <ele>526.912</ele>
        <time>2021-07-16T08:44:26Z</time>
      </trkpt>
      <trkpt lat="42.549495" lon="-6.608248">
        <ele>527.452</ele>
        <time>2021-07-16T08:44:43Z</time>
      </trkpt>
      <trkpt lat="42.549498" lon="-6.608241">
        <ele>527.926</ele>
        <time>2021-07-16T08:44:59Z</time>
      </trkpt>
      <trkpt lat="42.549507" lon="-6.608239">
        <ele>528.814</ele>
        <time>2021-07-16T08:45:16Z</time>
      </trkpt>
      <trkpt lat="42.549507" lon="-6.608243">
        <ele>528.891</ele>
        <time>2021-07-16T08:45:27Z</time>
      </trkpt>
      <trkpt lat="42.549498" lon="-6.608248">
        <ele>528.869</ele>
        <time>2021-07-16T08:45:38Z</time>
      </trkpt>
      <trkpt lat="42.549492" lon="-6.608244">
        <ele>529.843</ele>
        <time>2021-07-16T08:45:50Z</time>
      </trkpt>
      <trkpt lat="42.549486" lon="-6.608235">
        <ele>529.864</ele>
        <time>2021-07-16T08:46:05Z</time>
      </trkpt>
      <trkpt lat="42.549481" lon="-6.608246">
        <ele>529.310</ele>
        <time>2021-07-16T08:46:20Z</time>
      </trkpt>
      <trkpt lat="42.549487" lon="-6.608245">
        <ele>528.308</ele>
        <time>2021-07-16T08:46:36Z</time>
      </trkpt>
      <trkpt lat="42.549486" lon="-6.608247">
        <ele>528.321</ele>
        <time>2021-07-16T08:46:50Z</time>
      </trkpt>
      <trkpt lat="42.549484" lon="-6.608224">
        <ele>527.953</ele>
        <time>2021-07-16T08:47:08Z</time>
      </trkpt>
      <trkpt lat="42.549489" lon="-6.608205">
        <ele>530.390</ele>
        <time>2021-07-16T08:47:21Z</time>
      </trkpt>
      <trkpt lat="42.549493" lon="-6.608195">
        <ele>531.290</ele>
        <time>2021-07-16T08:47:37Z</time>
      </trkpt>
      <trkpt lat="42.549491" lon="-6.608199">
        <ele>531.794</ele>
        <time>2021-07-16T08:47:50Z</time>
      </trkpt>
      <trkpt lat="42.549470" lon="-6.608205">
        <ele>533.162</ele>
        <time>2021-07-16T08:48:05Z</time>
      </trkpt>
      <trkpt lat="42.549458" lon="-6.608211">
        <ele>533.649</ele>
        <time>2021-07-16T08:48:22Z</time>
      </trkpt>
      <trkpt lat="42.549467" lon="-6.608206">
        <ele>536.047</ele>
        <time>2021-07-16T08:48:34Z</time>
      </trkpt>
      <trkpt lat="42.549473" lon="-6.608215">
        <ele>535.575</ele>
        <time>2021-07-16T08:48:48Z</time>
      </trkpt>
      <trkpt lat="42.549478" lon="-6.608226">
        <ele>535.128</ele>
        <time>2021-07-16T08:49:03Z</time>
      </trkpt>
      <trkpt lat="42.549469" lon="-6.608225">
        <ele>533.620</ele>
        <time>2021-07-16T08:49:15Z</time>
      </trkpt>
      <trkpt lat="42.549467" lon="-6.608230">
        <ele>532.708</ele>
        <time>2021-07-16T08:49:27Z</time>
      </trkpt>
      <trkpt lat="42.549472" lon="-6.608247">
        <ele>533.654</ele>
        <time>2021-07-16T08:49:43Z</time>
      </trkpt>
      <trkpt lat="42.549477" lon="-6.608248">
        <ele>534.666</ele>
        <time>2021-07-16T08:50:01Z</time>
      </trkpt>
      <trkpt lat="42.549472" lon="-6.608245">
        <ele>534.653</ele>
        <time>2021-07-16T08:50:24Z</time>
      </trkpt>
      <trkpt lat="42.549462" lon="-6.608236">
        <ele>534.143</ele>
        <time>2021-07-16T08:50:38Z</time>
      </trkpt>
      <trkpt lat="42.549459" lon="-6.608231">
        <ele>534.637</ele>
        <time>2021-07-16T08:50:53Z</time>
      </trkpt>
      <trkpt lat="42.549507" lon="-6.608174">
        <ele>534.655</ele>
        <time>2021-07-16T08:50:59Z</time>
      </trkpt>
      <trkpt lat="42.549492" lon="-6.608050">
        <ele>534.142</ele>
        <time>2021-07-16T08:51:05Z</time>
      </trkpt>
      <trkpt lat="42.549470" lon="-6.607949">
        <ele>534.660</ele>
        <time>2021-07-16T08:51:10Z</time>
      </trkpt>
      <trkpt lat="42.549482" lon="-6.607883">
        <ele>534.183</ele>
        <time>2021-07-16T08:51:16Z</time>
      </trkpt>
      <trkpt lat="42.549432" lon="-6.607739">
        <ele>533.125</ele>
        <time>2021-07-16T08:51:22Z</time>
      </trkpt>
      <trkpt lat="42.549294" lon="-6.607452">
        <ele>531.717</ele>
        <time>2021-07-16T08:51:30Z</time>
      </trkpt>
      <trkpt lat="42.549129" lon="-6.607078">
        <ele>531.708</ele>
        <time>2021-07-16T08:51:37Z</time>
      </trkpt>
      <trkpt lat="42.548858" lon="-6.606480">
        <ele>528.825</ele>
        <time>2021-07-16T08:51:47Z</time>
      </trkpt>
      <trkpt lat="42.548757" lon="-6.606212">
        <ele>526.917</ele>
        <time>2021-07-16T08:51:52Z</time>
      </trkpt>
      <trkpt lat="42.548650" lon="-6.605880">
        <ele>526.484</ele>
        <time>2021-07-16T08:51:58Z</time>
      </trkpt>
      <trkpt lat="42.548768" lon="-6.605675">
        <ele>525.964</ele>
        <time>2021-07-16T08:52:02Z</time>
      </trkpt>
      <trkpt lat="42.548994" lon="-6.605571">
        <ele>525.568</ele>
        <time>2021-07-16T08:52:07Z</time>
      </trkpt>
      <trkpt lat="42.549203" lon="-6.605412">
        <ele>525.566</ele>
        <time>2021-07-16T08:52:12Z</time>
      </trkpt>
      <trkpt lat="42.549235" lon="-6.605362">
        <ele>525.533</ele>
        <time>2021-07-16T08:52:13Z</time>
      </trkpt>
      <trkpt lat="42.549625" lon="-6.604745">
        <ele>526.461</ele>
        <time>2021-07-16T08:52:26Z</time>
      </trkpt>
      <trkpt lat="42.549894" lon="-6.604329">
        <ele>525.938</ele>
        <time>2021-07-16T08:52:35Z</time>
      </trkpt>
      <trkpt lat="42.550133" lon="-6.603931">
        <ele>526.470</ele>
        <time>2021-07-16T08:52:44Z</time>
      </trkpt>
      <trkpt lat="42.550199" lon="-6.603777">
        <ele>524.517</ele>
        <time>2021-07-16T08:52:47Z</time>
      </trkpt>
      <trkpt lat="42.550218" lon="-6.603749">
        <ele>524.008</ele>
        <time>2021-07-16T08:52:48Z</time>
      </trkpt>
      <trkpt lat="42.550253" lon="-6.603707">
        <ele>524.010</ele>
        <time>2021-07-16T08:52:49Z</time>
      </trkpt>
      <trkpt lat="42.550541" lon="-6.603298">
        <ele>525.072</ele>
        <time>2021-07-16T08:52:58Z</time>
      </trkpt>
      <trkpt lat="42.550784" lon="-6.602895">
        <ele>526.439</ele>
        <time>2021-07-16T08:53:08Z</time>
      </trkpt>
      <trkpt lat="42.550860" lon="-6.602745">
        <ele>527.499</ele>
        <time>2021-07-16T08:53:14Z</time>
      </trkpt>
      <trkpt lat="42.550912" lon="-6.602632">
        <ele>528.333</ele>
        <time>2021-07-16T08:53:18Z</time>
      </trkpt>
      <trkpt lat="42.550912" lon="-6.602548">
        <ele>529.361</ele>
        <time>2021-07-16T08:53:24Z</time>
      </trkpt>
      <trkpt lat="42.550891" lon="-6.602507">
        <ele>532.778</ele>
        <time>2021-07-16T08:53:39Z</time>
      </trkpt>
      <trkpt lat="42.550890" lon="-6.602535">
        <ele>533.656</ele>
        <time>2021-07-16T08:53:56Z</time>
      </trkpt>
      <trkpt lat="42.550909" lon="-6.602516">
        <ele>534.189</ele>
        <time>2021-07-16T08:54:10Z</time>
      </trkpt>
      <trkpt lat="42.550884" lon="-6.602517">
        <ele>537.506</ele>
        <time>2021-07-16T08:54:31Z</time>
      </trkpt>
      <trkpt lat="42.550882" lon="-6.602448">
        <ele>534.626</ele>
        <time>2021-07-16T08:54:40Z</time>
      </trkpt>
      <trkpt lat="42.550964" lon="-6.602391">
        <ele>533.608</ele>
        <time>2021-07-16T08:54:45Z</time>
      </trkpt>
      <trkpt lat="42.551097" lon="-6.602323">
        <ele>533.195</ele>
        <time>2021-07-16T08:54:50Z</time>
      </trkpt>
      <trkpt lat="42.551316" lon="-6.601988">
        <ele>532.737</ele>
        <time>2021-07-16T08:54:59Z</time>
      </trkpt>
      <trkpt lat="42.551338" lon="-6.601947">
        <ele>532.774</ele>
        <time>2021-07-16T08:55:00Z</time>
      </trkpt>
      <trkpt lat="42.551623" lon="-6.601505">
        <ele>533.114</ele>
        <time>2021-07-16T08:55:10Z</time>
      </trkpt>
      <trkpt lat="42.551937" lon="-6.601012">
        <ele>533.618</ele>
        <time>2021-07-16T08:55:21Z</time>
      </trkpt>
      <trkpt lat="42.552285" lon="-6.600457">
        <ele>533.156</ele>
        <time>2021-07-16T08:55:34Z</time>
      </trkpt>
      <trkpt lat="42.552402" lon="-6.600205">
        <ele>533.663</ele>
        <time>2021-07-16T08:55:41Z</time>
      </trkpt>
      <trkpt lat="42.552434" lon="-6.600028">
        <ele>534.611</ele>
        <time>2021-07-16T08:55:47Z</time>
      </trkpt>
      <trkpt lat="42.552450" lon="-6.599987">
        <ele>534.662</ele>
        <time>2021-07-16T08:55:48Z</time>
      </trkpt>
      <trkpt lat="42.552698" lon="-6.599554">
        <ele>534.183</ele>
        <time>2021-07-16T08:55:57Z</time>
      </trkpt>
      <trkpt lat="42.553027" lon="-6.599053">
        <ele>534.611</ele>
        <time>2021-07-16T08:56:08Z</time>
      </trkpt>
      <trkpt lat="42.553298" lon="-6.598603">
        <ele>535.508</ele>
        <time>2021-07-16T08:56:18Z</time>
      </trkpt>
      <trkpt lat="42.553299" lon="-6.598410">
        <ele>535.533</ele>
        <time>2021-07-16T08:56:22Z</time>
      </trkpt>
      <trkpt lat="42.552978" lon="-6.597994">
        <ele>535.195</ele>
        <time>2021-07-16T08:56:32Z</time>
      </trkpt>
      <trkpt lat="42.552684" lon="-6.597683">
        <ele>533.152</ele>
        <time>2021-07-16T08:56:40Z</time>
      </trkpt>
      <trkpt lat="42.552441" lon="-6.597423">
        <ele>534.122</ele>
        <time>2021-07-16T08:56:47Z</time>
      </trkpt>
      <trkpt lat="42.552288" lon="-6.597395">
        <ele>533.636</ele>
        <time>2021-07-16T08:56:51Z</time>
      </trkpt>
      <trkpt lat="42.552134" lon="-6.597470">
        <ele>532.784</ele>
        <time>2021-07-16T08:56:57Z</time>
      </trkpt>
      <trkpt lat="42.551874" lon="-6.597555">
        <ele>533.171</ele>
        <time>2021-07-16T08:57:04Z</time>
      </trkpt>
      <trkpt lat="42.551605" lon="-6.597641">
        <ele>532.759</ele>
        <time>2021-07-16T08:57:14Z</time>
      </trkpt>
      <trkpt lat="42.551600" lon="-6.597587">
        <ele>534.138</ele>
        <time>2021-07-16T08:57:25Z</time>
      </trkpt>
      <trkpt lat="42.551543" lon="-6.597541">
        <ele>535.170</ele>
        <time>2021-07-16T08:57:37Z</time>
      </trkpt>
      <trkpt lat="42.551371" lon="-6.597556">
        <ele>535.117</ele>
        <time>2021-07-16T08:57:45Z</time>
      </trkpt>
      <trkpt lat="42.551164" lon="-6.597645">
        <ele>534.108</ele>
        <time>2021-07-16T08:57:52Z</time>
      </trkpt>
      <trkpt lat="42.550810" lon="-6.597717">
        <ele>530.780</ele>
        <time>2021-07-16T08:58:02Z</time>
      </trkpt>
      <trkpt lat="42.550632" lon="-6.597788">
        <ele>530.772</ele>
        <time>2021-07-16T08:58:09Z</time>
      </trkpt>
      <trkpt lat="42.550535" lon="-6.597913">
        <ele>532.719</ele>
        <time>2021-07-16T08:58:16Z</time>
      </trkpt>
      <trkpt lat="42.550408" lon="-6.597909">
        <ele>529.819</ele>
        <time>2021-07-16T08:58:23Z</time>
      </trkpt>
      <trkpt lat="42.550252" lon="-6.597936">
        <ele>530.753</ele>
        <time>2021-07-16T08:58:32Z</time>
      </trkpt>
      <trkpt lat="42.550091" lon="-6.597977">
        <ele>531.751</ele>
        <time>2021-07-16T08:58:40Z</time>
      </trkpt>
      <trkpt lat="42.549974" lon="-6.597947">
        <ele>535.168</ele>
        <time>2021-07-16T08:58:48Z</time>
      </trkpt>
      <trkpt lat="42.549860" lon="-6.598085">
        <ele>537.946</ele>
        <time>2021-07-16T08:58:57Z</time>
      </trkpt>
      <trkpt lat="42.549768" lon="-6.598082">
        <ele>540.413</ele>
        <time>2021-07-16T08:59:03Z</time>
      </trkpt>
      <trkpt lat="42.549736" lon="-6.598125">
        <ele>544.243</ele>
        <time>2021-07-16T08:59:11Z</time>
      </trkpt>
      <trkpt lat="42.549739" lon="-6.598162">
        <ele>546.107</ele>
        <time>2021-07-16T08:59:16Z</time>
      </trkpt>
      <trkpt lat="42.549687" lon="-6.598187">
        <ele>547.608</ele>
        <time>2021-07-16T08:59:20Z</time>
      </trkpt>
      <trkpt lat="42.549633" lon="-6.598210">
        <ele>548.038</ele>
        <time>2021-07-16T08:59:23Z</time>
      </trkpt>
      <trkpt lat="42.549558" lon="-6.598185">
        <ele>547.120</ele>
        <time>2021-07-16T08:59:27Z</time>
      </trkpt>
      <trkpt lat="42.549376" lon="-6.598199">
        <ele>542.837</ele>
        <time>2021-07-16T08:59:36Z</time>
      </trkpt>
      <trkpt lat="42.549190" lon="-6.598179">
        <ele>539.927</ele>
        <time>2021-07-16T08:59:45Z</time>
      </trkpt>
      <trkpt lat="42.549016" lon="-6.598175">
        <ele>538.421</ele>
        <time>2021-07-16T08:59:54Z</time>
      </trkpt>
      <trkpt lat="42.548930" lon="-6.598329">
        <ele>540.489</ele>
        <time>2021-07-16T09:00:01Z</time>
      </trkpt>
      <trkpt lat="42.548970" lon="-6.598404">
        <ele>540.836</ele>
        <time>2021-07-16T09:00:09Z</time>
      </trkpt>
      <trkpt lat="42.548958" lon="-6.598397">
        <ele>540.874</ele>
        <time>2021-07-16T09:00:22Z</time>
      </trkpt>
      <trkpt lat="42.548954" lon="-6.598419">
        <ele>539.915</ele>
        <time>2021-07-16T09:00:31Z</time>
      </trkpt>
      <trkpt lat="42.548873" lon="-6.598423">
        <ele>541.365</ele>
        <time>2021-07-16T09:00:39Z</time>
      </trkpt>
      <trkpt lat="42.548821" lon="-6.598409">
        <ele>541.311</ele>
        <time>2021-07-16T09:00:46Z</time>
      </trkpt>
      <trkpt lat="42.548742" lon="-6.598401">
        <ele>541.308</ele>
        <time>2021-07-16T09:00:54Z</time>
      </trkpt>
      <trkpt lat="42.548683" lon="-6.598381">
        <ele>539.468</ele>
        <time>2021-07-16T09:01:00Z</time>
      </trkpt>
      <trkpt lat="42.548579" lon="-6.598360">
        <ele>537.940</ele>
        <time>2021-07-16T09:01:07Z</time>
      </trkpt>
      <trkpt lat="42.548514" lon="-6.598354">
        <ele>537.037</ele>
        <time>2021-07-16T09:01:11Z</time>
      </trkpt>
      <trkpt lat="42.548401" lon="-6.598334">
        <ele>534.687</ele>
        <time>2021-07-16T09:01:19Z</time>
      </trkpt>
      <trkpt lat="42.548294" lon="-6.598325">
        <ele>531.241</ele>
        <time>2021-07-16T09:01:26Z</time>
      </trkpt>
      <trkpt lat="42.548205" lon="-6.598274">
        <ele>527.449</ele>
        <time>2021-07-16T09:01:33Z</time>
      </trkpt>
      <trkpt lat="42.548198" lon="-6.598293">
        <ele>529.836</ele>
        <time>2021-07-16T09:01:41Z</time>
      </trkpt>
      <trkpt lat="42.548087" lon="-6.598352">
        <ele>534.664</ele>
        <time>2021-07-16T09:01:47Z</time>
      </trkpt>
      <trkpt lat="42.547951" lon="-6.598292">
        <ele>538.442</ele>
        <time>2021-07-16T09:01:51Z</time>
      </trkpt>
      <trkpt lat="42.547920" lon="-6.598254">
        <ele>539.422</ele>
        <time>2021-07-16T09:01:52Z</time>
      </trkpt>
      <trkpt lat="42.547729" lon="-6.598079">
        <ele>542.814</ele>
        <time>2021-07-16T09:01:58Z</time>
      </trkpt>
      <trkpt lat="42.547543" lon="-6.598000">
        <ele>543.708</ele>
        <time>2021-07-16T09:02:03Z</time>
      </trkpt>
      <trkpt lat="42.547454" lon="-6.597978">
        <ele>543.781</ele>
        <time>2021-07-16T09:02:05Z</time>
      </trkpt>
      <trkpt lat="42.547306" lon="-6.597934">
        <ele>543.793</ele>
        <time>2021-07-16T09:02:09Z</time>
      </trkpt>
      <trkpt lat="42.547037" lon="-6.597814">
        <ele>543.220</ele>
        <time>2021-07-16T09:02:17Z</time>
      </trkpt>
      <trkpt lat="42.546732" lon="-6.597670">
        <ele>543.710</ele>
        <time>2021-07-16T09:02:25Z</time>
      </trkpt>
      <trkpt lat="42.546266" lon="-6.597464">
        <ele>544.714</ele>
        <time>2021-07-16T09:02:36Z</time>
      </trkpt>
      <trkpt lat="42.545935" lon="-6.597319">
        <ele>544.272</ele>
        <time>2021-07-16T09:02:43Z</time>
      </trkpt>
      <trkpt lat="42.545683" lon="-6.597213">
        <ele>543.799</ele>
        <time>2021-07-16T09:02:49Z</time>
      </trkpt>
      <trkpt lat="42.545331" lon="-6.597060">
        <ele>542.397</ele>
        <time>2021-07-16T09:02:57Z</time>
      </trkpt>
      <trkpt lat="42.545129" lon="-6.596970">
        <ele>541.332</ele>
        <time>2021-07-16T09:03:03Z</time>
      </trkpt>
      <trkpt lat="42.545105" lon="-6.596967">
        <ele>540.892</ele>
        <time>2021-07-16T09:03:04Z</time>
      </trkpt>
      <trkpt lat="42.544917" lon="-6.597080">
        <ele>539.411</ele>
        <time>2021-07-16T09:03:10Z</time>
      </trkpt>
      <trkpt lat="42.544726" lon="-6.596986">
        <ele>539.408</ele>
        <time>2021-07-16T09:03:15Z</time>
      </trkpt>
      <trkpt lat="42.544687" lon="-6.596746">
        <ele>539.950</ele>
        <time>2021-07-16T09:03:19Z</time>
      </trkpt>
      <trkpt lat="42.544596" lon="-6.596476">
        <ele>539.982</ele>
        <time>2021-07-16T09:03:24Z</time>
      </trkpt>
      <trkpt lat="42.544317" lon="-6.596090">
        <ele>539.999</ele>
        <time>2021-07-16T09:03:33Z</time>
      </trkpt>
      <trkpt lat="42.544176" lon="-6.595930">
        <ele>537.569</ele>
        <time>2021-07-16T09:03:39Z</time>
      </trkpt>
      <trkpt lat="42.544031" lon="-6.595799">
        <ele>537.583</ele>
        <time>2021-07-16T09:03:47Z</time>
      </trkpt>
      <trkpt lat="42.543998" lon="-6.595743">
        <ele>536.541</ele>
        <time>2021-07-16T09:03:50Z</time>
      </trkpt>
      <trkpt lat="42.543944" lon="-6.595644">
        <ele>533.158</ele>
        <time>2021-07-16T09:03:58Z</time>
      </trkpt>
      <trkpt lat="42.543903" lon="-6.595615">
        <ele>532.296</ele>
        <time>2021-07-16T09:04:04Z</time>
      </trkpt>
      <trkpt lat="42.543883" lon="-6.595610">
        <ele>531.255</ele>
        <time>2021-07-16T09:04:09Z</time>
      </trkpt>
      <trkpt lat="42.543846" lon="-6.595563">
        <ele>528.807</ele>
        <time>2021-07-16T09:04:17Z</time>
      </trkpt>
      <trkpt lat="42.543845" lon="-6.595557">
        <ele>527.417</ele>
        <time>2021-07-16T09:04:32Z</time>
      </trkpt>
      <trkpt lat="42.543846" lon="-6.595572">
        <ele>526.408</ele>
        <time>2021-07-16T09:04:46Z</time>
      </trkpt>
      <trkpt lat="42.543896" lon="-6.595579">
        <ele>526.922</ele>
        <time>2021-07-16T09:05:01Z</time>
      </trkpt>
      <trkpt lat="42.543877" lon="-6.595585">
        <ele>527.474</ele>
        <time>2021-07-16T09:05:13Z</time>
      </trkpt>
      <trkpt lat="42.543845" lon="-6.595552">
        <ele>526.931</ele>
        <time>2021-07-16T09:05:23Z</time>
      </trkpt>
      <trkpt lat="42.543787" lon="-6.595474">
        <ele>525.921</ele>
        <time>2021-07-16T09:05:31Z</time>
      </trkpt>
      <trkpt lat="42.543669" lon="-6.595323">
        <ele>526.425</ele>
        <time>2021-07-16T09:05:43Z</time>
      </trkpt>
      <trkpt lat="42.543557" lon="-6.595173">
        <ele>526.963</ele>
        <time>2021-07-16T09:05:55Z</time>
      </trkpt>
      <trkpt lat="42.543466" lon="-6.595035">
        <ele>527.490</ele>
        <time>2021-07-16T09:06:06Z</time>
      </trkpt>
      <trkpt lat="42.543416" lon="-6.594942">
        <ele>528.338</ele>
        <time>2021-07-16T09:06:13Z</time>
      </trkpt>
      <trkpt lat="42.543433" lon="-6.594863">
        <ele>528.812</ele>
        <time>2021-07-16T09:06:18Z</time>
      </trkpt>
      <trkpt lat="42.543461" lon="-6.594818">
        <ele>528.832</ele>
        <time>2021-07-16T09:06:21Z</time>
      </trkpt>
      <trkpt lat="42.543447" lon="-6.594753">
        <ele>529.305</ele>
        <time>2021-07-16T09:06:29Z</time>
      </trkpt>
      <trkpt lat="42.543464" lon="-6.594739">
        <ele>529.808</ele>
        <time>2021-07-16T09:06:35Z</time>
      </trkpt>
      <trkpt lat="42.543471" lon="-6.594722">
        <ele>529.338</ele>
        <time>2021-07-16T09:06:46Z</time>
      </trkpt>
      <trkpt lat="42.543464" lon="-6.594718">
        <ele>529.390</ele>
        <time>2021-07-16T09:07:00Z</time>
      </trkpt>
      <trkpt lat="42.543456" lon="-6.594707">
        <ele>530.777</ele>
        <time>2021-07-16T09:07:13Z</time>
      </trkpt>
      <trkpt lat="42.543434" lon="-6.594716">
        <ele>529.347</ele>
        <time>2021-07-16T09:07:28Z</time>
      </trkpt>
      <trkpt lat="42.543441" lon="-6.594704">
        <ele>529.811</ele>
        <time>2021-07-16T09:07:37Z</time>
      </trkpt>
      <trkpt lat="42.543440" lon="-6.594715">
        <ele>529.369</ele>
        <time>2021-07-16T09:07:46Z</time>
      </trkpt>
      <trkpt lat="42.543445" lon="-6.594730">
        <ele>529.376</ele>
        <time>2021-07-16T09:08:00Z</time>
      </trkpt>
      <trkpt lat="42.543430" lon="-6.594720">
        <ele>529.364</ele>
        <time>2021-07-16T09:08:11Z</time>
      </trkpt>
      <trkpt lat="42.543423" lon="-6.594693">
        <ele>531.267</ele>
        <time>2021-07-16T09:08:23Z</time>
      </trkpt>
      <trkpt lat="42.543431" lon="-6.594687">
        <ele>530.381</ele>
        <time>2021-07-16T09:08:33Z</time>
      </trkpt>
      <trkpt lat="42.543446" lon="-6.594703">
        <ele>528.819</ele>
        <time>2021-07-16T09:08:46Z</time>
      </trkpt>
      <trkpt lat="42.543431" lon="-6.594720">
        <ele>527.908</ele>
        <time>2021-07-16T09:08:56Z</time>
      </trkpt>
      <trkpt lat="42.543430" lon="-6.594725">
        <ele>528.343</ele>
        <time>2021-07-16T09:09:08Z</time>
      </trkpt>
      <trkpt lat="42.543453" lon="-6.594719">
        <ele>528.365</ele>
        <time>2021-07-16T09:09:24Z</time>
      </trkpt>
      <trkpt lat="42.543449" lon="-6.594729">
        <ele>528.312</ele>
        <time>2021-07-16T09:09:39Z</time>
      </trkpt>
      <trkpt lat="42.543438" lon="-6.594719">
        <ele>528.372</ele>
        <time>2021-07-16T09:09:52Z</time>
      </trkpt>
      <trkpt lat="42.543451" lon="-6.594723">
        <ele>527.986</ele>
        <time>2021-07-16T09:10:03Z</time>
      </trkpt>
      <trkpt lat="42.543457" lon="-6.594736">
        <ele>528.324</ele>
        <time>2021-07-16T09:10:08Z</time>
      </trkpt>
      <trkpt lat="42.543441" lon="-6.594730">
        <ele>528.331</ele>
        <time>2021-07-16T09:10:10Z</time>
      </trkpt>
      <trkpt lat="42.543363" lon="-6.594622">
        <ele>529.339</ele>
        <time>2021-07-16T09:10:20Z</time>
      </trkpt>
      <trkpt lat="42.543254" lon="-6.594496">
        <ele>530.714</ele>
        <time>2021-07-16T09:10:31Z</time>
      </trkpt>
      <trkpt lat="42.543180" lon="-6.594393">
        <ele>533.154</ele>
        <time>2021-07-16T09:10:39Z</time>
      </trkpt>
      <trkpt lat="42.543093" lon="-6.594246">
        <ele>535.509</ele>
        <time>2021-07-16T09:10:50Z</time>
      </trkpt>
      <trkpt lat="42.543069" lon="-6.594219">
        <ele>536.008</ele>
        <time>2021-07-16T09:10:58Z</time>
      </trkpt>
      <trkpt lat="42.543071" lon="-6.594195">
        <ele>537.078</ele>
        <time>2021-07-16T09:11:10Z</time>
      </trkpt>
      <trkpt lat="42.543052" lon="-6.594208">
        <ele>537.560</ele>
        <time>2021-07-16T09:11:31Z</time>
      </trkpt>
      <trkpt lat="42.543052" lon="-6.594202">
        <ele>537.037</ele>
        <time>2021-07-16T09:11:32Z</time>
      </trkpt>
      <trkpt lat="42.543018" lon="-6.594048">
        <ele>537.047</ele>
        <time>2021-07-16T09:11:42Z</time>
      </trkpt>
      <trkpt lat="42.543007" lon="-6.593909">
        <ele>538.481</ele>
        <time>2021-07-16T09:11:51Z</time>
      </trkpt>
      <trkpt lat="42.543013" lon="-6.593797">
        <ele>539.489</ele>
        <time>2021-07-16T09:12:01Z</time>
      </trkpt>
      <trkpt lat="42.543009" lon="-6.593792">
        <ele>539.426</ele>
        <time>2021-07-16T09:12:17Z</time>
      </trkpt>
      <trkpt lat="42.543007" lon="-6.593804">
        <ele>537.914</ele>
        <time>2021-07-16T09:12:30Z</time>
      </trkpt>
      <trkpt lat="42.543010" lon="-6.593794">
        <ele>537.534</ele>
        <time>2021-07-16T09:12:46Z</time>
      </trkpt>
      <trkpt lat="42.543001" lon="-6.593799">
        <ele>535.555</ele>
        <time>2021-07-16T09:13:02Z</time>
      </trkpt>
      <trkpt lat="42.543011" lon="-6.593707">
        <ele>536.010</ele>
        <time>2021-07-16T09:13:09Z</time>
      </trkpt>
      <trkpt lat="42.543019" lon="-6.593523">
        <ele>537.008</ele>
        <time>2021-07-16T09:13:19Z</time>
      </trkpt>
      <trkpt lat="42.543005" lon="-6.593539">
        <ele>537.950</ele>
        <time>2021-07-16T09:13:28Z</time>
      </trkpt>
      <trkpt lat="42.543008" lon="-6.593546">
        <ele>539.422</ele>
        <time>2021-07-16T09:13:49Z</time>
      </trkpt>
      <trkpt lat="42.543002" lon="-6.593524">
        <ele>539.489</ele>
        <time>2021-07-16T09:14:08Z</time>
      </trkpt>
      <trkpt lat="42.543022" lon="-6.593487">
        <ele>540.449</ele>
        <time>2021-07-16T09:14:15Z</time>
      </trkpt>
      <trkpt lat="42.543061" lon="-6.593449">
        <ele>540.843</ele>
        <time>2021-07-16T09:14:21Z</time>
      </trkpt>
      <trkpt lat="42.543085" lon="-6.593399">
        <ele>540.461</ele>
        <time>2021-07-16T09:14:25Z</time>
      </trkpt>
      <trkpt lat="42.543147" lon="-6.593287">
        <ele>539.418</ele>
        <time>2021-07-16T09:14:34Z</time>
      </trkpt>
      <trkpt lat="42.543214" lon="-6.593207">
        <ele>540.846</ele>
        <time>2021-07-16T09:14:43Z</time>
      </trkpt>
      <trkpt lat="42.543232" lon="-6.593219">
        <ele>540.893</ele>
        <time>2021-07-16T09:14:56Z</time>
      </trkpt>
      <trkpt lat="42.543219" lon="-6.593217">
        <ele>542.365</ele>
        <time>2021-07-16T09:15:18Z</time>
      </trkpt>
      <trkpt lat="42.543205" lon="-6.593221">
        <ele>543.221</ele>
        <time>2021-07-16T09:15:46Z</time>
      </trkpt>
      <trkpt lat="42.543231" lon="-6.593229">
        <ele>544.708</ele>
        <time>2021-07-16T09:16:10Z</time>
      </trkpt>
      <trkpt lat="42.543241" lon="-6.593225">
        <ele>545.696</ele>
        <time>2021-07-16T09:16:29Z</time>
      </trkpt>
      <trkpt lat="42.543233" lon="-6.593194">
        <ele>545.298</ele>
        <time>2021-07-16T09:16:49Z</time>
      </trkpt>
      <trkpt lat="42.543222" lon="-6.593213">
        <ele>543.775</ele>
        <time>2021-07-16T09:17:05Z</time>
      </trkpt>
      <trkpt lat="42.543234" lon="-6.593214">
        <ele>542.395</ele>
        <time>2021-07-16T09:17:26Z</time>
      </trkpt>
      <trkpt lat="42.543232" lon="-6.593228">
        <ele>542.849</ele>
        <time>2021-07-16T09:17:39Z</time>
      </trkpt>
      <trkpt lat="42.543219" lon="-6.593206">
        <ele>541.837</ele>
        <time>2021-07-16T09:17:53Z</time>
      </trkpt>
      <trkpt lat="42.543219" lon="-6.593194">
        <ele>541.374</ele>
        <time>2021-07-16T09:18:09Z</time>
      </trkpt>
      <trkpt lat="42.543219" lon="-6.593201">
        <ele>540.492</ele>
        <time>2021-07-16T09:18:31Z</time>
      </trkpt>
      <trkpt lat="42.543221" lon="-6.593203">
        <ele>539.981</ele>
        <time>2021-07-16T09:18:56Z</time>
      </trkpt>
      <trkpt lat="42.543225" lon="-6.593218">
        <ele>537.961</ele>
        <time>2021-07-16T09:19:11Z</time>
      </trkpt>
      <trkpt lat="42.543230" lon="-6.593195">
        <ele>537.917</ele>
        <time>2021-07-16T09:19:29Z</time>
      </trkpt>
      <trkpt lat="42.543219" lon="-6.593201">
        <ele>539.408</ele>
        <time>2021-07-16T09:19:40Z</time>
      </trkpt>
      <trkpt lat="42.543224" lon="-6.593202">
        <ele>539.485</ele>
        <time>2021-07-16T09:19:48Z</time>
      </trkpt>
      <trkpt lat="42.543221" lon="-6.593212">
        <ele>539.457</ele>
        <time>2021-07-16T09:19:54Z</time>
      </trkpt>
      <trkpt lat="42.543220" lon="-6.593215">
        <ele>539.464</ele>
        <time>2021-07-16T09:19:55Z</time>
      </trkpt>
      <trkpt lat="42.543182" lon="-6.593267">
        <ele>539.494</ele>
        <time>2021-07-16T09:20:00Z</time>
      </trkpt>
      <trkpt lat="42.543081" lon="-6.593310">
        <ele>539.428</ele>
        <time>2021-07-16T09:20:09Z</time>
      </trkpt>
      <trkpt lat="42.543043" lon="-6.593253">
        <ele>540.466</ele>
        <time>2021-07-16T09:20:15Z</time>
      </trkpt>
      <trkpt lat="42.543046" lon="-6.593277">
        <ele>540.893</ele>
        <time>2021-07-16T09:20:25Z</time>
      </trkpt>
      <trkpt lat="42.543038" lon="-6.593304">
        <ele>542.811</ele>
        <time>2021-07-16T09:20:42Z</time>
      </trkpt>
      <trkpt lat="42.543001" lon="-6.593319">
        <ele>542.394</ele>
        <time>2021-07-16T09:21:00Z</time>
      </trkpt>
      <trkpt lat="42.542974" lon="-6.593287">
        <ele>542.857</ele>
        <time>2021-07-16T09:21:12Z</time>
      </trkpt>
      <trkpt lat="42.542970" lon="-6.593248">
        <ele>542.322</ele>
        <time>2021-07-16T09:21:15Z</time>
      </trkpt>
      <trkpt lat="42.542976" lon="-6.593196">
        <ele>542.808</ele>
        <time>2021-07-16T09:21:18Z</time>
      </trkpt>
      <trkpt lat="42.543002" lon="-6.593084">
        <ele>542.846</ele>
        <time>2021-07-16T09:21:25Z</time>
      </trkpt>
      <trkpt lat="42.542952" lon="-6.592979">
        <ele>543.768</ele>
        <time>2021-07-16T09:21:33Z</time>
      </trkpt>
      <trkpt lat="42.542940" lon="-6.592932">
        <ele>543.245</ele>
        <time>2021-07-16T09:21:37Z</time>
      </trkpt>
      <trkpt lat="42.542891" lon="-6.592943">
        <ele>544.275</ele>
        <time>2021-07-16T09:21:45Z</time>
      </trkpt>
      <trkpt lat="42.542881" lon="-6.592938">
        <ele>545.259</ele>
        <time>2021-07-16T09:21:53Z</time>
      </trkpt>
      <trkpt lat="42.542809" lon="-6.592942">
        <ele>545.237</ele>
        <time>2021-07-16T09:21:59Z</time>
      </trkpt>
      <trkpt lat="42.542660" lon="-6.592929">
        <ele>545.244</ele>
        <time>2021-07-16T09:22:06Z</time>
      </trkpt>
      <trkpt lat="42.542429" lon="-6.592886">
        <ele>543.242</ele>
        <time>2021-07-16T09:22:14Z</time>
      </trkpt>
      <trkpt lat="42.542148" lon="-6.592884">
        <ele>542.336</ele>
        <time>2021-07-16T09:22:22Z</time>
      </trkpt>
      <trkpt lat="42.541839" lon="-6.592889">
        <ele>543.717</ele>
        <time>2021-07-16T09:22:31Z</time>
      </trkpt>
      <trkpt lat="42.541529" lon="-6.592870">
        <ele>547.118</ele>
        <time>2021-07-16T09:22:41Z</time>
      </trkpt>
      <trkpt lat="42.541333" lon="-6.592869">
        <ele>549.008</ele>
        <time>2021-07-16T09:22:49Z</time>
      </trkpt>
      <trkpt lat="42.541302" lon="-6.592867">
        <ele>548.510</ele>
        <time>2021-07-16T09:22:54Z</time>
      </trkpt>
      <trkpt lat="42.541294" lon="-6.592867">
        <ele>548.092</ele>
        <time>2021-07-16T09:22:57Z</time>
      </trkpt>
      <trkpt lat="42.541245" lon="-6.592761">
        <ele>545.629</ele>
        <time>2021-07-16T09:23:04Z</time>
      </trkpt>
      <trkpt lat="42.541163" lon="-6.592523">
        <ele>542.839</ele>
        <time>2021-07-16T09:23:11Z</time>
      </trkpt>
      <trkpt lat="42.541091" lon="-6.592391">
        <ele>540.823</ele>
        <time>2021-07-16T09:23:14Z</time>
      </trkpt>
      <trkpt lat="42.541011" lon="-6.592273">
        <ele>538.931</ele>
        <time>2021-07-16T09:23:16Z</time>
      </trkpt>
      <trkpt lat="42.540865" lon="-6.592078">
        <ele>535.558</ele>
        <time>2021-07-16T09:23:20Z</time>
      </trkpt>
      <trkpt lat="42.540790" lon="-6.591980">
        <ele>533.656</ele>
        <time>2021-07-16T09:23:22Z</time>
      </trkpt>
      <trkpt lat="42.540752" lon="-6.591912">
        <ele>532.247</ele>
        <time>2021-07-16T09:23:23Z</time>
      </trkpt>
      <trkpt lat="42.540720" lon="-6.591842">
        <ele>531.229</ele>
        <time>2021-07-16T09:23:24Z</time>
      </trkpt>
      <trkpt lat="42.540644" lon="-6.591707">
        <ele>528.321</ele>
        <time>2021-07-16T09:23:27Z</time>
      </trkpt>
      <trkpt lat="42.540611" lon="-6.591691">
        <ele>527.908</ele>
        <time>2021-07-16T09:23:28Z</time>
      </trkpt>
      <trkpt lat="42.540579" lon="-6.591680">
        <ele>526.951</ele>
        <time>2021-07-16T09:23:29Z</time>
      </trkpt>
      <trkpt lat="42.540546" lon="-6.591674">
        <ele>525.983</ele>
        <time>2021-07-16T09:23:30Z</time>
      </trkpt>
      <trkpt lat="42.540517" lon="-6.591663">
        <ele>525.510</ele>
        <time>2021-07-16T09:23:31Z</time>
      </trkpt>
      <trkpt lat="42.540494" lon="-6.591649">
        <ele>524.550</ele>
        <time>2021-07-16T09:23:32Z</time>
      </trkpt>
      <trkpt lat="42.540474" lon="-6.591631">
        <ele>524.094</ele>
        <time>2021-07-16T09:23:33Z</time>
      </trkpt>
      <trkpt lat="42.540453" lon="-6.591615">
        <ele>523.542</ele>
        <time>2021-07-16T09:23:34Z</time>
      </trkpt>
      <trkpt lat="42.540314" lon="-6.591437">
        <ele>520.669</ele>
        <time>2021-07-16T09:23:41Z</time>
      </trkpt>
      <trkpt lat="42.540176" lon="-6.591279">
        <ele>518.257</ele>
        <time>2021-07-16T09:23:48Z</time>
      </trkpt>
      <trkpt lat="42.540106" lon="-6.591200">
        <ele>517.845</ele>
        <time>2021-07-16T09:23:54Z</time>
      </trkpt>
      <trkpt lat="42.540102" lon="-6.591206">
        <ele>518.247</ele>
        <time>2021-07-16T09:24:08Z</time>
      </trkpt>
      <trkpt lat="42.540087" lon="-6.591192">
        <ele>517.311</ele>
        <time>2021-07-16T09:24:16Z</time>
      </trkpt>
      <trkpt lat="42.540077" lon="-6.591177">
        <ele>517.308</ele>
        <time>2021-07-16T09:24:17Z</time>
      </trkpt>
      <trkpt lat="42.540065" lon="-6.591156">
        <ele>517.381</ele>
        <time>2021-07-16T09:24:18Z</time>
      </trkpt>
      <trkpt lat="42.540050" lon="-6.591136">
        <ele>517.343</ele>
        <time>2021-07-16T09:24:19Z</time>
      </trkpt>
      <trkpt lat="42.540033" lon="-6.591114">
        <ele>517.820</ele>
        <time>2021-07-16T09:24:20Z</time>
      </trkpt>
      <trkpt lat="42.540013" lon="-6.591087">
        <ele>517.880</ele>
        <time>2021-07-16T09:24:21Z</time>
      </trkpt>
      <trkpt lat="42.539842" lon="-6.590890">
        <ele>516.364</ele>
        <time>2021-07-16T09:24:28Z</time>
      </trkpt>
      <trkpt lat="42.539747" lon="-6.590782">
        <ele>515.882</ele>
        <time>2021-07-16T09:24:31Z</time>
      </trkpt>
      <trkpt lat="42.539717" lon="-6.590738">
        <ele>515.479</ele>
        <time>2021-07-16T09:24:32Z</time>
      </trkpt>
      <trkpt lat="42.539688" lon="-6.590693">
        <ele>515.417</ele>
        <time>2021-07-16T09:24:33Z</time>
      </trkpt>
      <trkpt lat="42.539652" lon="-6.590627">
        <ele>514.918</ele>
        <time>2021-07-16T09:24:34Z</time>
      </trkpt>
      <trkpt lat="42.539622" lon="-6.590558">
        <ele>514.498</ele>
        <time>2021-07-16T09:24:35Z</time>
      </trkpt>
      <trkpt lat="42.539591" lon="-6.590470">
        <ele>513.917</ele>
        <time>2021-07-16T09:24:36Z</time>
      </trkpt>
      <trkpt lat="42.539563" lon="-6.590388">
        <ele>513.408</ele>
        <time>2021-07-16T09:24:37Z</time>
      </trkpt>
      <trkpt lat="42.539538" lon="-6.590297">
        <ele>513.448</ele>
        <time>2021-07-16T09:24:38Z</time>
      </trkpt>
      <trkpt lat="42.539514" lon="-6.590200">
        <ele>513.450</ele>
        <time>2021-07-16T09:24:39Z</time>
      </trkpt>
      <trkpt lat="42.539368" lon="-6.589666">
        <ele>514.447</ele>
        <time>2021-07-16T09:24:46Z</time>
      </trkpt>
      <trkpt lat="42.539287" lon="-6.589389">
        <ele>515.497</ele>
        <time>2021-07-16T09:24:51Z</time>
      </trkpt>
      <trkpt lat="42.539269" lon="-6.589361">
        <ele>515.841</ele>
        <time>2021-07-16T09:24:52Z</time>
      </trkpt>
      <trkpt lat="42.539148" lon="-6.589185">
        <ele>516.899</ele>
        <time>2021-07-16T09:25:00Z</time>
      </trkpt>
      <trkpt lat="42.538978" lon="-6.589204">
        <ele>517.326</ele>
        <time>2021-07-16T09:25:07Z</time>
      </trkpt>
      <trkpt lat="42.538812" lon="-6.589306">
        <ele>519.274</ele>
        <time>2021-07-16T09:25:14Z</time>
      </trkpt>
      <trkpt lat="42.538625" lon="-6.589435">
        <ele>521.176</ele>
        <time>2021-07-16T09:25:24Z</time>
      </trkpt>
      <trkpt lat="42.538458" lon="-6.589559">
        <ele>520.690</ele>
        <time>2021-07-16T09:25:32Z</time>
      </trkpt>
      <trkpt lat="42.538282" lon="-6.589645">
        <ele>519.719</ele>
        <time>2021-07-16T09:25:39Z</time>
      </trkpt>
      <trkpt lat="42.538161" lon="-6.589648">
        <ele>520.208</ele>
        <time>2021-07-16T09:25:46Z</time>
      </trkpt>
      <trkpt lat="42.538040" lon="-6.589588">
        <ele>521.144</ele>
        <time>2021-07-16T09:25:51Z</time>
      </trkpt>
      <trkpt lat="42.537932" lon="-6.589490">
        <ele>521.196</ele>
        <time>2021-07-16T09:25:57Z</time>
      </trkpt>
      <trkpt lat="42.537726" lon="-6.589239">
        <ele>520.683</ele>
        <time>2021-07-16T09:26:06Z</time>
      </trkpt>
      <trkpt lat="42.537439" lon="-6.588935">
        <ele>521.143</ele>
        <time>2021-07-16T09:26:17Z</time>
      </trkpt>
      <trkpt lat="42.537142" lon="-6.588535">
        <ele>523.087</ele>
        <time>2021-07-16T09:26:30Z</time>
      </trkpt>
      <trkpt lat="42.536947" lon="-6.588289">
        <ele>524.545</ele>
        <time>2021-07-16T09:26:39Z</time>
      </trkpt>
      <trkpt lat="42.536815" lon="-6.588128">
        <ele>525.082</ele>
        <time>2021-07-16T09:26:46Z</time>
      </trkpt>
      <trkpt lat="42.536604" lon="-6.587887">
        <ele>525.950</ele>
        <time>2021-07-16T09:26:54Z</time>
      </trkpt>
      <trkpt lat="42.536498" lon="-6.587659">
        <ele>525.515</ele>
        <time>2021-07-16T09:27:00Z</time>
      </trkpt>
      <trkpt lat="42.536490" lon="-6.587605">
        <ele>525.065</ele>
        <time>2021-07-16T09:27:03Z</time>
      </trkpt>
      <trkpt lat="42.536492" lon="-6.587546">
        <ele>525.011</ele>
        <time>2021-07-16T09:27:05Z</time>
      </trkpt>
      <trkpt lat="42.536481" lon="-6.587512">
        <ele>524.508</ele>
        <time>2021-07-16T09:27:06Z</time>
      </trkpt>
      <trkpt lat="42.536463" lon="-6.587475">
        <ele>525.048</ele>
        <time>2021-07-16T09:27:07Z</time>
      </trkpt>
      <trkpt lat="42.536233" lon="-6.587137">
        <ele>524.510</ele>
        <time>2021-07-16T09:27:16Z</time>
      </trkpt>
      <trkpt lat="42.535999" lon="-6.586787">
        <ele>523.597</ele>
        <time>2021-07-16T09:27:25Z</time>
      </trkpt>
      <trkpt lat="42.535783" lon="-6.586469">
        <ele>525.067</ele>
        <time>2021-07-16T09:27:33Z</time>
      </trkpt>
      <trkpt lat="42.535501" lon="-6.586142">
        <ele>525.041</ele>
        <time>2021-07-16T09:27:43Z</time>
      </trkpt>
      <trkpt lat="42.535310" lon="-6.585862">
        <ele>525.599</ele>
        <time>2021-07-16T09:27:50Z</time>
      </trkpt>
      <trkpt lat="42.535160" lon="-6.585519">
        <ele>525.566</ele>
        <time>2021-07-16T09:27:57Z</time>
      </trkpt>
      <trkpt lat="42.535037" lon="-6.585043">
        <ele>524.584</ele>
        <time>2021-07-16T09:28:06Z</time>
      </trkpt>
      <trkpt lat="42.534970" lon="-6.584600">
        <ele>524.071</ele>
        <time>2021-07-16T09:28:14Z</time>
      </trkpt>
      <trkpt lat="42.534896" lon="-6.584181">
        <ele>524.541</ele>
        <time>2021-07-16T09:28:22Z</time>
      </trkpt>
      <trkpt lat="42.534774" lon="-6.583840">
        <ele>522.615</ele>
        <time>2021-07-16T09:28:28Z</time>
      </trkpt>
      <trkpt lat="42.534624" lon="-6.583555">
        <ele>521.108</ele>
        <time>2021-07-16T09:28:32Z</time>
      </trkpt>
      <trkpt lat="42.534595" lon="-6.583462">
        <ele>520.624</ele>
        <time>2021-07-16T09:28:33Z</time>
      </trkpt>
      <trkpt lat="42.534576" lon="-6.583350">
        <ele>520.676</ele>
        <time>2021-07-16T09:28:34Z</time>
      </trkpt>
      <trkpt lat="42.534573" lon="-6.583254">
        <ele>519.743</ele>
        <time>2021-07-16T09:28:35Z</time>
      </trkpt>
      <trkpt lat="42.534584" lon="-6.583140">
        <ele>519.273</ele>
        <time>2021-07-16T09:28:36Z</time>
      </trkpt>
      <trkpt lat="42.534603" lon="-6.583037">
        <ele>519.277</ele>
        <time>2021-07-16T09:28:37Z</time>
      </trkpt>
      <trkpt lat="42.534629" lon="-6.582941">
        <ele>518.735</ele>
        <time>2021-07-16T09:28:38Z</time>
      </trkpt>
      <trkpt lat="42.534663" lon="-6.582843">
        <ele>518.752</ele>
        <time>2021-07-16T09:28:39Z</time>
      </trkpt>
      <trkpt lat="42.534745" lon="-6.582574">
        <ele>518.260</ele>
        <time>2021-07-16T09:28:42Z</time>
      </trkpt>
      <trkpt lat="42.534766" lon="-6.582478">
        <ele>518.275</ele>
        <time>2021-07-16T09:28:43Z</time>
      </trkpt>
      <trkpt lat="42.534808" lon="-6.582309">
        <ele>518.728</ele>
        <time>2021-07-16T09:28:45Z</time>
      </trkpt>
      <trkpt lat="42.534841" lon="-6.582235">
        <ele>518.720</ele>
        <time>2021-07-16T09:28:46Z</time>
      </trkpt>
      <trkpt lat="42.534875" lon="-6.582161">
        <ele>519.208</ele>
        <time>2021-07-16T09:28:47Z</time>
      </trkpt>
      <trkpt lat="42.534914" lon="-6.582096">
        <ele>519.234</ele>
        <time>2021-07-16T09:28:48Z</time>
      </trkpt>
      <trkpt lat="42.534946" lon="-6.582044">
        <ele>519.716</ele>
        <time>2021-07-16T09:28:49Z</time>
      </trkpt>
      <trkpt lat="42.534979" lon="-6.581995">
        <ele>520.213</ele>
        <time>2021-07-16T09:28:50Z</time>
      </trkpt>
      <trkpt lat="42.535177" lon="-6.581732">
        <ele>521.643</ele>
        <time>2021-07-16T09:28:57Z</time>
      </trkpt>
      <trkpt lat="42.535395" lon="-6.581407">
        <ele>522.647</ele>
        <time>2021-07-16T09:29:06Z</time>
      </trkpt>
      <trkpt lat="42.535439" lon="-6.581332">
        <ele>522.675</ele>
        <time>2021-07-16T09:29:08Z</time>
      </trkpt>
      <trkpt lat="42.535458" lon="-6.581321">
        <ele>522.652</ele>
        <time>2021-07-16T09:29:09Z</time>
      </trkpt>
      <trkpt lat="42.535472" lon="-6.581320">
        <ele>522.690</ele>
        <time>2021-07-16T09:29:10Z</time>
      </trkpt>
      <trkpt lat="42.535494" lon="-6.581327">
        <ele>523.023</ele>
        <time>2021-07-16T09:29:11Z</time>
      </trkpt>
      <trkpt lat="42.535519" lon="-6.581339">
        <ele>523.083</ele>
        <time>2021-07-16T09:29:12Z</time>
      </trkpt>
      <trkpt lat="42.535645" lon="-6.581308">
        <ele>524.511</ele>
        <time>2021-07-16T09:29:17Z</time>
      </trkpt>
      <trkpt lat="42.535822" lon="-6.581160">
        <ele>525.908</ele>
        <time>2021-07-16T09:29:25Z</time>
      </trkpt>
      <trkpt lat="42.535980" lon="-6.580837">
        <ele>526.969</ele>
        <time>2021-07-16T09:29:34Z</time>
      </trkpt>
      <trkpt lat="42.536084" lon="-6.580601">
        <ele>527.931</ele>
        <time>2021-07-16T09:29:41Z</time>
      </trkpt>
      <trkpt lat="42.536188" lon="-6.580280">
        <ele>528.348</ele>
        <time>2021-07-16T09:29:50Z</time>
      </trkpt>
      <trkpt lat="42.536183" lon="-6.580158">
        <ele>528.348</ele>
        <time>2021-07-16T09:29:54Z</time>
      </trkpt>
      <trkpt lat="42.536203" lon="-6.580148">
        <ele>528.852</ele>
        <time>2021-07-16T09:29:55Z</time>
      </trkpt>
      <trkpt lat="42.536241" lon="-6.580149">
        <ele>528.310</ele>
        <time>2021-07-16T09:30:01Z</time>
      </trkpt>
      <trkpt lat="42.536235" lon="-6.580147">
        <ele>529.877</ele>
        <time>2021-07-16T09:30:10Z</time>
      </trkpt>
      <trkpt lat="42.536234" lon="-6.580156">
        <ele>528.345</ele>
        <time>2021-07-16T09:30:24Z</time>
      </trkpt>
      <trkpt lat="42.536227" lon="-6.580156">
        <ele>528.346</ele>
        <time>2021-07-16T09:30:48Z</time>
      </trkpt>
      <trkpt lat="42.536237" lon="-6.580138">
        <ele>526.488</ele>
        <time>2021-07-16T09:31:13Z</time>
      </trkpt>
      <trkpt lat="42.536237" lon="-6.580140">
        <ele>526.916</ele>
        <time>2021-07-16T09:31:37Z</time>
      </trkpt>
      <trkpt lat="42.536228" lon="-6.580138">
        <ele>527.908</ele>
        <time>2021-07-16T09:31:52Z</time>
      </trkpt>
      <trkpt lat="42.536248" lon="-6.580131">
        <ele>527.991</ele>
        <time>2021-07-16T09:32:10Z</time>
      </trkpt>
      <trkpt lat="42.536243" lon="-6.580130">
        <ele>528.383</ele>
        <time>2021-07-16T09:32:30Z</time>
      </trkpt>
      <trkpt lat="42.536222" lon="-6.580165">
        <ele>529.890</ele>
        <time>2021-07-16T09:32:51Z</time>
      </trkpt>
      <trkpt lat="42.536230" lon="-6.580149">
        <ele>527.990</ele>
        <time>2021-07-16T09:33:14Z</time>
      </trkpt>
      <trkpt lat="42.536212" lon="-6.580150">
        <ele>528.314</ele>
        <time>2021-07-16T09:33:36Z</time>
      </trkpt>
      <trkpt lat="42.536216" lon="-6.580158">
        <ele>527.932</ele>
        <time>2021-07-16T09:33:54Z</time>
      </trkpt>
      <trkpt lat="42.536233" lon="-6.580159">
        <ele>527.459</ele>
        <time>2021-07-16T09:34:17Z</time>
      </trkpt>
      <trkpt lat="42.536223" lon="-6.580142">
        <ele>524.017</ele>
        <time>2021-07-16T09:34:34Z</time>
      </trkpt>
      <trkpt lat="42.536219" lon="-6.580166">
        <ele>524.553</ele>
        <time>2021-07-16T09:35:00Z</time>
      </trkpt>
      <trkpt lat="42.536237" lon="-6.580156">
        <ele>525.504</ele>
        <time>2021-07-16T09:35:15Z</time>
      </trkpt>
      <trkpt lat="42.536218" lon="-6.580168">
        <ele>526.914</ele>
        <time>2021-07-16T09:35:33Z</time>
      </trkpt>
      <trkpt lat="42.536225" lon="-6.580166">
        <ele>525.908</ele>
        <time>2021-07-16T09:36:01Z</time>
      </trkpt>
      <trkpt lat="42.536221" lon="-6.580169">
        <ele>527.452</ele>
        <time>2021-07-16T09:36:15Z</time>
      </trkpt>
      <trkpt lat="42.536241" lon="-6.580158">
        <ele>528.364</ele>
        <time>2021-07-16T09:36:37Z</time>
      </trkpt>
      <trkpt lat="42.536249" lon="-6.580141">
        <ele>529.311</ele>
        <time>2021-07-16T09:36:50Z</time>
      </trkpt>
      <trkpt lat="42.536262" lon="-6.580156">
        <ele>526.451</ele>
        <time>2021-07-16T09:37:08Z</time>
      </trkpt>
      <trkpt lat="42.536274" lon="-6.580148">
        <ele>525.595</ele>
        <time>2021-07-16T09:37:22Z</time>
      </trkpt>
      <trkpt lat="42.536263" lon="-6.580156">
        <ele>526.433</ele>
        <time>2021-07-16T09:37:37Z</time>
      </trkpt>
      <trkpt lat="42.536263" lon="-6.580148">
        <ele>526.450</ele>
        <time>2021-07-16T09:37:55Z</time>
      </trkpt>
      <trkpt lat="42.536264" lon="-6.580158">
        <ele>526.948</ele>
        <time>2021-07-16T09:38:09Z</time>
      </trkpt>
      <trkpt lat="42.536242" lon="-6.580126">
        <ele>528.895</ele>
        <time>2021-07-16T09:38:32Z</time>
      </trkpt>
      <trkpt lat="42.536245" lon="-6.580147">
        <ele>531.249</ele>
        <time>2021-07-16T09:38:57Z</time>
      </trkpt>
      <trkpt lat="42.536248" lon="-6.580139">
        <ele>531.723</ele>
        <time>2021-07-16T09:39:09Z</time>
      </trkpt>
      <trkpt lat="42.536242" lon="-6.580134">
        <ele>531.708</ele>
        <time>2021-07-16T09:39:27Z</time>
      </trkpt>
      <trkpt lat="42.536239" lon="-6.580128">
        <ele>531.786</ele>
        <time>2021-07-16T09:39:43Z</time>
      </trkpt>
      <trkpt lat="42.536252" lon="-6.580104">
        <ele>532.778</ele>
        <time>2021-07-16T09:40:02Z</time>
      </trkpt>
      <trkpt lat="42.536246" lon="-6.580135">
        <ele>532.245</ele>
        <time>2021-07-16T09:40:25Z</time>
      </trkpt>
      <trkpt lat="42.536255" lon="-6.580130">
        <ele>531.245</ele>
        <time>2021-07-16T09:40:48Z</time>
      </trkpt>
      <trkpt lat="42.536245" lon="-6.580146">
        <ele>530.399</ele>
        <time>2021-07-16T09:41:10Z</time>
      </trkpt>
      <trkpt lat="42.536259" lon="-6.580138">
        <ele>528.847</ele>
        <time>2021-07-16T09:41:25Z</time>
      </trkpt>
      <trkpt lat="42.536243" lon="-6.580164">
        <ele>531.274</ele>
        <time>2021-07-16T09:41:39Z</time>
      </trkpt>
      <trkpt lat="42.536231" lon="-6.580187">
        <ele>531.282</ele>
        <time>2021-07-16T09:41:57Z</time>
      </trkpt>
      <trkpt lat="42.536266" lon="-6.580154">
        <ele>531.793</ele>
        <time>2021-07-16T09:42:19Z</time>
      </trkpt>
      <trkpt lat="42.536260" lon="-6.580157">
        <ele>531.265</ele>
        <time>2021-07-16T09:42:25Z</time>
      </trkpt>
      <trkpt lat="42.536267" lon="-6.580181">
        <ele>530.721</ele>
        <time>2021-07-16T09:42:30Z</time>
      </trkpt>
      <trkpt lat="42.536255" lon="-6.580192">
        <ele>530.708</ele>
        <time>2021-07-16T09:42:31Z</time>
      </trkpt>
      <trkpt lat="42.536244" lon="-6.580196">
        <ele>531.226</ele>
        <time>2021-07-16T09:42:32Z</time>
      </trkpt>
      <trkpt lat="42.536232" lon="-6.580194">
        <ele>531.288</ele>
        <time>2021-07-16T09:42:33Z</time>
      </trkpt>
      <trkpt lat="42.536218" lon="-6.580182">
        <ele>531.215</ele>
        <time>2021-07-16T09:42:34Z</time>
      </trkpt>
      <trkpt lat="42.536204" lon="-6.580162">
        <ele>531.255</ele>
        <time>2021-07-16T09:42:35Z</time>
      </trkpt>
      <trkpt lat="42.536198" lon="-6.580145">
        <ele>530.739</ele>
        <time>2021-07-16T09:42:36Z</time>
      </trkpt>
      <trkpt lat="42.536194" lon="-6.580121">
        <ele>530.797</ele>
        <time>2021-07-16T09:42:37Z</time>
      </trkpt>
      <trkpt lat="42.536189" lon="-6.580096">
        <ele>530.394</ele>
        <time>2021-07-16T09:42:38Z</time>
      </trkpt>
      <trkpt lat="42.536185" lon="-6.580065">
        <ele>530.312</ele>
        <time>2021-07-16T09:42:39Z</time>
      </trkpt>
      <trkpt lat="42.536183" lon="-6.580031">
        <ele>529.888</ele>
        <time>2021-07-16T09:42:40Z</time>
      </trkpt>
      <trkpt lat="42.536181" lon="-6.579999">
        <ele>529.824</ele>
        <time>2021-07-16T09:42:41Z</time>
      </trkpt>
      <trkpt lat="42.536179" lon="-6.579958">
        <ele>529.826</ele>
        <time>2021-07-16T09:42:42Z</time>
      </trkpt>
      <trkpt lat="42.536177" lon="-6.579927">
        <ele>529.808</ele>
        <time>2021-07-16T09:42:43Z</time>
      </trkpt>
      <trkpt lat="42.536150" lon="-6.579675">
        <ele>529.855</ele>
        <time>2021-07-16T09:42:50Z</time>
      </trkpt>
      <trkpt lat="42.536045" lon="-6.579305">
        <ele>529.827</ele>
        <time>2021-07-16T09:42:59Z</time>
      </trkpt>
      <trkpt lat="42.535976" lon="-6.578954">
        <ele>529.314</ele>
        <time>2021-07-16T09:43:07Z</time>
      </trkpt>
      <trkpt lat="42.535983" lon="-6.578585">
        <ele>529.884</ele>
        <time>2021-07-16T09:43:15Z</time>
      </trkpt>
      <trkpt lat="42.536064" lon="-6.578148">
        <ele>529.878</ele>
        <time>2021-07-16T09:43:24Z</time>
      </trkpt>
      <trkpt lat="42.536194" lon="-6.577789">
        <ele>529.366</ele>
        <time>2021-07-16T09:43:32Z</time>
      </trkpt>
      <trkpt lat="42.536442" lon="-6.577361">
        <ele>528.353</ele>
        <time>2021-07-16T09:43:43Z</time>
      </trkpt>
      <trkpt lat="42.536759" lon="-6.576959">
        <ele>527.921</ele>
        <time>2021-07-16T09:43:55Z</time>
      </trkpt>
      <trkpt lat="42.536962" lon="-6.576647">
        <ele>528.347</ele>
        <time>2021-07-16T09:44:03Z</time>
      </trkpt>
      <trkpt lat="42.537150" lon="-6.576320">
        <ele>528.329</ele>
        <time>2021-07-16T09:44:11Z</time>
      </trkpt>
      <trkpt lat="42.537379" lon="-6.575973">
        <ele>527.921</ele>
        <time>2021-07-16T09:44:20Z</time>
      </trkpt>
      <trkpt lat="42.537462" lon="-6.575867">
        <ele>527.908</ele>
        <time>2021-07-16T09:44:23Z</time>
      </trkpt>
      <trkpt lat="42.537492" lon="-6.575832">
        <ele>527.921</ele>
        <time>2021-07-16T09:44:24Z</time>
      </trkpt>
      <trkpt lat="42.537669" lon="-6.575561">
        <ele>527.913</ele>
        <time>2021-07-16T09:44:31Z</time>
      </trkpt>
      <trkpt lat="42.537829" lon="-6.575106">
        <ele>528.330</ele>
        <time>2021-07-16T09:44:40Z</time>
      </trkpt>
      <trkpt lat="42.537913" lon="-6.574632">
        <ele>528.860</ele>
        <time>2021-07-16T09:44:49Z</time>
      </trkpt>
      <trkpt lat="42.537962" lon="-6.574145">
        <ele>529.374</ele>
        <time>2021-07-16T09:44:58Z</time>
      </trkpt>
      <trkpt lat="42.538019" lon="-6.573613">
        <ele>529.842</ele>
        <time>2021-07-16T09:45:08Z</time>
      </trkpt>
      <trkpt lat="42.538063" lon="-6.573213">
        <ele>530.739</ele>
        <time>2021-07-16T09:45:16Z</time>
      </trkpt>
      <trkpt lat="42.538116" lon="-6.572754">
        <ele>531.277</ele>
        <time>2021-07-16T09:45:25Z</time>
      </trkpt>
      <trkpt lat="42.538186" lon="-6.572090">
        <ele>531.279</ele>
        <time>2021-07-16T09:45:38Z</time>
      </trkpt>
      <trkpt lat="42.538239" lon="-6.571564">
        <ele>531.705</ele>
        <time>2021-07-16T09:45:48Z</time>
      </trkpt>
      <trkpt lat="42.538301" lon="-6.570990">
        <ele>532.725</ele>
        <time>2021-07-16T09:45:59Z</time>
      </trkpt>
      <trkpt lat="42.538346" lon="-6.570534">
        <ele>533.108</ele>
        <time>2021-07-16T09:46:09Z</time>
      </trkpt>
      <trkpt lat="42.538370" lon="-6.570269">
        <ele>533.134</ele>
        <time>2021-07-16T09:46:16Z</time>
      </trkpt>
      <trkpt lat="42.538390" lon="-6.570004">
        <ele>533.166</ele>
        <time>2021-07-16T09:46:23Z</time>
      </trkpt>
      <trkpt lat="42.538429" lon="-6.569666">
        <ele>532.223</ele>
        <time>2021-07-16T09:46:31Z</time>
      </trkpt>
      <trkpt lat="42.538517" lon="-6.569258">
        <ele>531.273</ele>
        <time>2021-07-16T09:46:39Z</time>
      </trkpt>
      <trkpt lat="42.538678" lon="-6.568713">
        <ele>531.787</ele>
        <time>2021-07-16T09:46:48Z</time>
      </trkpt>
      <trkpt lat="42.538767" lon="-6.568407">
        <ele>532.215</ele>
        <time>2021-07-16T09:46:53Z</time>
      </trkpt>
      <trkpt lat="42.538839" lon="-6.568197">
        <ele>532.712</ele>
        <time>2021-07-16T09:46:57Z</time>
      </trkpt>
      <trkpt lat="42.538921" lon="-6.567826">
        <ele>534.130</ele>
        <time>2021-07-16T09:47:05Z</time>
      </trkpt>
      <trkpt lat="42.538888" lon="-6.567458">
        <ele>534.694</ele>
        <time>2021-07-16T09:47:12Z</time>
      </trkpt>
      <trkpt lat="42.538813" lon="-6.567006">
        <ele>535.157</ele>
        <time>2021-07-16T09:47:21Z</time>
      </trkpt>
      <trkpt lat="42.538761" lon="-6.566659">
        <ele>535.522</ele>
        <time>2021-07-16T09:47:28Z</time>
      </trkpt>
      <trkpt lat="42.538715" lon="-6.566300">
        <ele>536.508</ele>
        <time>2021-07-16T09:47:36Z</time>
      </trkpt>
      <trkpt lat="42.538654" lon="-6.565872">
        <ele>536.536</ele>
        <time>2021-07-16T09:47:45Z</time>
      </trkpt>
      <trkpt lat="42.538605" lon="-6.565494">
        <ele>537.548</ele>
        <time>2021-07-16T09:47:53Z</time>
      </trkpt>
      <trkpt lat="42.538586" lon="-6.565091">
        <ele>538.475</ele>
        <time>2021-07-16T09:48:02Z</time>
      </trkpt>
      <trkpt lat="42.538555" lon="-6.564737">
        <ele>538.925</ele>
        <time>2021-07-16T09:48:11Z</time>
      </trkpt>
      <trkpt lat="42.538543" lon="-6.564443">
        <ele>539.969</ele>
        <time>2021-07-16T09:48:20Z</time>
      </trkpt>
      <trkpt lat="42.538535" lon="-6.564176">
        <ele>541.387</ele>
        <time>2021-07-16T09:48:27Z</time>
      </trkpt>
      <trkpt lat="42.538549" lon="-6.564024">
        <ele>542.354</ele>
        <time>2021-07-16T09:48:33Z</time>
      </trkpt>
      <trkpt lat="42.538588" lon="-6.563862">
        <ele>542.382</ele>
        <time>2021-07-16T09:48:40Z</time>
      </trkpt>
      <trkpt lat="42.538633" lon="-6.563603">
        <ele>543.744</ele>
        <time>2021-07-16T09:48:50Z</time>
      </trkpt>
      <trkpt lat="42.538680" lon="-6.563398">
        <ele>546.105</ele>
        <time>2021-07-16T09:49:00Z</time>
      </trkpt>
      <trkpt lat="42.538711" lon="-6.563299">
        <ele>546.615</ele>
        <time>2021-07-16T09:49:05Z</time>
      </trkpt>
      <trkpt lat="42.538751" lon="-6.563048">
        <ele>547.608</ele>
        <time>2021-07-16T09:49:16Z</time>
      </trkpt>
      <trkpt lat="42.538773" lon="-6.562861">
        <ele>549.511</ele>
        <time>2021-07-16T09:49:24Z</time>
      </trkpt>
      <trkpt lat="42.538801" lon="-6.562689">
        <ele>551.433</ele>
        <time>2021-07-16T09:49:33Z</time>
      </trkpt>
      <trkpt lat="42.538833" lon="-6.562599">
        <ele>552.960</ele>
        <time>2021-07-16T09:49:40Z</time>
      </trkpt>
      <trkpt lat="42.538848" lon="-6.562534">
        <ele>553.810</ele>
        <time>2021-07-16T09:49:45Z</time>
      </trkpt>
      <trkpt lat="42.538894" lon="-6.562445">
        <ele>553.894</ele>
        <time>2021-07-16T09:49:54Z</time>
      </trkpt>
      <trkpt lat="42.538931" lon="-6.562372">
        <ele>553.852</ele>
        <time>2021-07-16T09:50:00Z</time>
      </trkpt>
      <trkpt lat="42.538969" lon="-6.562224">
        <ele>555.329</ele>
        <time>2021-07-16T09:50:10Z</time>
      </trkpt>
      <trkpt lat="42.539052" lon="-6.562097">
        <ele>557.297</ele>
        <time>2021-07-16T09:50:19Z</time>
      </trkpt>
      <trkpt lat="42.539095" lon="-6.562040">
        <ele>558.145</ele>
        <time>2021-07-16T09:50:24Z</time>
      </trkpt>
      <trkpt lat="42.539187" lon="-6.561987">
        <ele>560.147</ele>
        <time>2021-07-16T09:50:35Z</time>
      </trkpt>
      <trkpt lat="42.539240" lon="-6.561913">
        <ele>560.511</ele>
        <time>2021-07-16T09:50:43Z</time>
      </trkpt>
      <trkpt lat="42.539246" lon="-6.561900">
        <ele>560.508</ele>
        <time>2021-07-16T09:50:44Z</time>
      </trkpt>
      <trkpt lat="42.539269" lon="-6.561819">
        <ele>562.071</ele>
        <time>2021-07-16T09:50:50Z</time>
      </trkpt>
      <trkpt lat="42.539371" lon="-6.561684">
        <ele>563.923</ele>
        <time>2021-07-16T09:50:59Z</time>
      </trkpt>
      <trkpt lat="42.539503" lon="-6.561581">
        <ele>567.360</ele>
        <time>2021-07-16T09:51:08Z</time>
      </trkpt>
      <trkpt lat="42.539652" lon="-6.561497">
        <ele>569.260</ele>
        <time>2021-07-16T09:51:17Z</time>
      </trkpt>
      <trkpt lat="42.539810" lon="-6.561380">
        <ele>571.154</ele>
        <time>2021-07-16T09:51:27Z</time>
      </trkpt>
      <trkpt lat="42.539930" lon="-6.561239">
        <ele>572.142</ele>
        <time>2021-07-16T09:51:36Z</time>
      </trkpt>
      <trkpt lat="42.540073" lon="-6.561089">
        <ele>572.659</ele>
        <time>2021-07-16T09:51:46Z</time>
      </trkpt>
      <trkpt lat="42.540238" lon="-6.560943">
        <ele>573.057</ele>
        <time>2021-07-16T09:51:56Z</time>
      </trkpt>
      <trkpt lat="42.540406" lon="-6.560816">
        <ele>574.049</ele>
        <time>2021-07-16T09:52:05Z</time>
      </trkpt>
      <trkpt lat="42.540625" lon="-6.560628">
        <ele>575.002</ele>
        <time>2021-07-16T09:52:17Z</time>
      </trkpt>
      <trkpt lat="42.540757" lon="-6.560459">
        <ele>576.422</ele>
        <time>2021-07-16T09:52:26Z</time>
      </trkpt>
      <trkpt lat="42.540888" lon="-6.560265">
        <ele>577.808</ele>
        <time>2021-07-16T09:52:36Z</time>
      </trkpt>
      <trkpt lat="42.541001" lon="-6.560119">
        <ele>579.841</ele>
        <time>2021-07-16T09:52:44Z</time>
      </trkpt>
      <trkpt lat="42.541126" lon="-6.559955">
        <ele>581.763</ele>
        <time>2021-07-16T09:52:53Z</time>
      </trkpt>
      <trkpt lat="42.541216" lon="-6.559838">
        <ele>582.790</ele>
        <time>2021-07-16T09:53:00Z</time>
      </trkpt>
      <trkpt lat="42.541298" lon="-6.559641">
        <ele>584.130</ele>
        <time>2021-07-16T09:53:09Z</time>
      </trkpt>
      <trkpt lat="42.541351" lon="-6.559437">
        <ele>585.184</ele>
        <time>2021-07-16T09:53:18Z</time>
      </trkpt>
      <trkpt lat="42.541408" lon="-6.559273">
        <ele>584.672</ele>
        <time>2021-07-16T09:53:25Z</time>
      </trkpt>
      <trkpt lat="42.541524" lon="-6.558989">
        <ele>584.199</ele>
        <time>2021-07-16T09:53:33Z</time>
      </trkpt>
      <trkpt lat="42.541670" lon="-6.558717">
        <ele>582.747</ele>
        <time>2021-07-16T09:53:40Z</time>
      </trkpt>
      <trkpt lat="42.541823" lon="-6.558432">
        <ele>580.229</ele>
        <time>2021-07-16T09:53:48Z</time>
      </trkpt>
      <trkpt lat="42.541923" lon="-6.558172">
        <ele>577.800</ele>
        <time>2021-07-16T09:53:55Z</time>
      </trkpt>
      <trkpt lat="42.542091" lon="-6.557923">
        <ele>575.920</ele>
        <time>2021-07-16T09:54:01Z</time>
      </trkpt>
      <trkpt lat="42.542367" lon="-6.557578">
        <ele>572.108</ele>
        <time>2021-07-16T09:54:07Z</time>
      </trkpt>
      <trkpt lat="42.542781" lon="-6.557065">
        <ele>568.289</ele>
        <time>2021-07-16T09:54:14Z</time>
      </trkpt>
      <trkpt lat="42.543295" lon="-6.556425">
        <ele>562.581</ele>
        <time>2021-07-16T09:54:22Z</time>
      </trkpt>
      <trkpt lat="42.543696" lon="-6.556022">
        <ele>561.558</ele>
        <time>2021-07-16T09:54:28Z</time>
      </trkpt>
      <trkpt lat="42.543885" lon="-6.555845">
        <ele>562.958</ele>
        <time>2021-07-16T09:54:32Z</time>
      </trkpt>
      <trkpt lat="42.543912" lon="-6.555802">
        <ele>563.482</ele>
        <time>2021-07-16T09:54:33Z</time>
      </trkpt>
      <trkpt lat="42.543928" lon="-6.555757">
        <ele>563.490</ele>
        <time>2021-07-16T09:54:34Z</time>
      </trkpt>
      <trkpt lat="42.543940" lon="-6.555721">
        <ele>563.457</ele>
        <time>2021-07-16T09:54:35Z</time>
      </trkpt>
      <trkpt lat="42.543946" lon="-6.555689">
        <ele>563.985</ele>
        <time>2021-07-16T09:54:36Z</time>
      </trkpt>
      <trkpt lat="42.543952" lon="-6.555660">
        <ele>564.475</ele>
        <time>2021-07-16T09:54:37Z</time>
      </trkpt>
      <trkpt lat="42.543951" lon="-6.555415">
        <ele>566.828</ele>
        <time>2021-07-16T09:54:45Z</time>
      </trkpt>
      <trkpt lat="42.543956" lon="-6.555149">
        <ele>570.220</ele>
        <time>2021-07-16T09:54:55Z</time>
      </trkpt>
      <trkpt lat="42.543975" lon="-6.554932">
        <ele>572.608</ele>
        <time>2021-07-16T09:55:04Z</time>
      </trkpt>
      <trkpt lat="42.544016" lon="-6.554736">
        <ele>575.094</ele>
        <time>2021-07-16T09:55:14Z</time>
      </trkpt>
      <trkpt lat="42.544036" lon="-6.554595">
        <ele>576.496</ele>
        <time>2021-07-16T09:55:22Z</time>
      </trkpt>
      <trkpt lat="42.544063" lon="-6.554379">
        <ele>579.343</ele>
        <time>2021-07-16T09:55:33Z</time>
      </trkpt>
      <trkpt lat="42.544078" lon="-6.554301">
        <ele>580.243</ele>
        <time>2021-07-16T09:55:38Z</time>
      </trkpt>
      <trkpt lat="42.544080" lon="-6.554286">
        <ele>580.277</ele>
        <time>2021-07-16T09:55:39Z</time>
      </trkpt>
      <trkpt lat="42.544083" lon="-6.554268">
        <ele>580.725</ele>
        <time>2021-07-16T09:55:40Z</time>
      </trkpt>
      <trkpt lat="42.544087" lon="-6.554253">
        <ele>580.772</ele>
        <time>2021-07-16T09:55:41Z</time>
      </trkpt>
      <trkpt lat="42.544092" lon="-6.554238">
        <ele>580.730</ele>
        <time>2021-07-16T09:55:42Z</time>
      </trkpt>
      <trkpt lat="42.544128" lon="-6.554104">
        <ele>581.234</ele>
        <time>2021-07-16T09:55:51Z</time>
      </trkpt>
      <trkpt lat="42.544163" lon="-6.553951">
        <ele>582.755</ele>
        <time>2021-07-16T09:56:01Z</time>
      </trkpt>
      <trkpt lat="42.544206" lon="-6.553851">
        <ele>583.610</ele>
        <time>2021-07-16T09:56:09Z</time>
      </trkpt>
      <trkpt lat="42.544211" lon="-6.553839">
        <ele>583.608</ele>
        <time>2021-07-16T09:56:10Z</time>
      </trkpt>
      <trkpt lat="42.544216" lon="-6.553825">
        <ele>584.160</ele>
        <time>2021-07-16T09:56:11Z</time>
      </trkpt>
      <trkpt lat="42.544265" lon="-6.553675">
        <ele>586.092</ele>
        <time>2021-07-16T09:56:21Z</time>
      </trkpt>
      <trkpt lat="42.544307" lon="-6.553558">
        <ele>586.589</ele>
        <time>2021-07-16T09:56:29Z</time>
      </trkpt>
      <trkpt lat="42.544359" lon="-6.553438">
        <ele>587.599</ele>
        <time>2021-07-16T09:56:37Z</time>
      </trkpt>
      <trkpt lat="42.544403" lon="-6.553324">
        <ele>588.913</ele>
        <time>2021-07-16T09:56:44Z</time>
      </trkpt>
      <trkpt lat="42.544458" lon="-6.553203">
        <ele>590.371</ele>
        <time>2021-07-16T09:56:52Z</time>
      </trkpt>
      <trkpt lat="42.544519" lon="-6.553048">
        <ele>590.868</ele>
        <time>2021-07-16T09:57:01Z</time>
      </trkpt>
      <trkpt lat="42.544561" lon="-6.552835">
        <ele>592.776</ele>
        <time>2021-07-16T09:57:11Z</time>
      </trkpt>
      <trkpt lat="42.544579" lon="-6.552640">
        <ele>595.141</ele>
        <time>2021-07-16T09:57:20Z</time>
      </trkpt>
      <trkpt lat="42.544618" lon="-6.552409">
        <ele>597.681</ele>
        <time>2021-07-16T09:57:31Z</time>
      </trkpt>
      <trkpt lat="42.544655" lon="-6.552220">
        <ele>598.509</ele>
        <time>2021-07-16T09:57:40Z</time>
      </trkpt>
      <trkpt lat="42.544687" lon="-6.552011">
        <ele>601.408</ele>
        <time>2021-07-16T09:57:50Z</time>
      </trkpt>
      <trkpt lat="42.544725" lon="-6.551793">
        <ele>604.311</ele>
        <time>2021-07-16T09:58:01Z</time>
      </trkpt>
      <trkpt lat="42.544779" lon="-6.551573">
        <ele>605.733</ele>
        <time>2021-07-16T09:58:12Z</time>
      </trkpt>
      <trkpt lat="42.544832" lon="-6.551349">
        <ele>607.210</ele>
        <time>2021-07-16T09:58:23Z</time>
      </trkpt>
      <trkpt lat="42.544912" lon="-6.551149">
        <ele>607.630</ele>
        <time>2021-07-16T09:58:33Z</time>
      </trkpt>
      <trkpt lat="42.544966" lon="-6.550948">
        <ele>609.694</ele>
        <time>2021-07-16T09:58:43Z</time>
      </trkpt>
      <trkpt lat="42.545005" lon="-6.550797">
        <ele>610.522</ele>
        <time>2021-07-16T09:58:50Z</time>
      </trkpt>
      <trkpt lat="42.545051" lon="-6.550615">
        <ele>612.049</ele>
        <time>2021-07-16T09:58:58Z</time>
      </trkpt>
      <trkpt lat="42.545117" lon="-6.550422">
        <ele>613.417</ele>
        <time>2021-07-16T09:59:08Z</time>
      </trkpt>
      <trkpt lat="42.545127" lon="-6.550382">
        <ele>613.921</ele>
        <time>2021-07-16T09:59:10Z</time>
      </trkpt>
      <trkpt lat="42.545137" lon="-6.550367">
        <ele>613.941</ele>
        <time>2021-07-16T09:59:11Z</time>
      </trkpt>
      <trkpt lat="42.545149" lon="-6.550352">
        <ele>613.905</ele>
        <time>2021-07-16T09:59:12Z</time>
      </trkpt>
      <trkpt lat="42.545160" lon="-6.550339">
        <ele>614.408</ele>
        <time>2021-07-16T09:59:13Z</time>
      </trkpt>
      <trkpt lat="42.545171" lon="-6.550324">
        <ele>614.429</ele>
        <time>2021-07-16T09:59:14Z</time>
      </trkpt>
      <trkpt lat="42.545177" lon="-6.550307">
        <ele>614.931</ele>
        <time>2021-07-16T09:59:15Z</time>
      </trkpt>
      <trkpt lat="42.545182" lon="-6.550286">
        <ele>614.938</ele>
        <time>2021-07-16T09:59:16Z</time>
      </trkpt>
      <trkpt lat="42.545208" lon="-6.550137">
        <ele>615.338</ele>
        <time>2021-07-16T09:59:24Z</time>
      </trkpt>
      <trkpt lat="42.545214" lon="-6.550125">
        <ele>615.352</ele>
        <time>2021-07-16T09:59:25Z</time>
      </trkpt>
      <trkpt lat="42.545221" lon="-6.550085">
        <ele>615.390</ele>
        <time>2021-07-16T09:59:28Z</time>
      </trkpt>
      <trkpt lat="42.545223" lon="-6.550069">
        <ele>615.377</ele>
        <time>2021-07-16T09:59:29Z</time>
      </trkpt>
      <trkpt lat="42.545224" lon="-6.550050">
        <ele>615.855</ele>
        <time>2021-07-16T09:59:30Z</time>
      </trkpt>
      <trkpt lat="42.545223" lon="-6.550036">
        <ele>615.817</ele>
        <time>2021-07-16T09:59:31Z</time>
      </trkpt>
      <trkpt lat="42.545223" lon="-6.550018">
        <ele>615.887</ele>
        <time>2021-07-16T09:59:32Z</time>
      </trkpt>
      <trkpt lat="42.545224" lon="-6.549999">
        <ele>615.815</ele>
        <time>2021-07-16T09:59:33Z</time>
      </trkpt>
      <trkpt lat="42.545225" lon="-6.549980">
        <ele>615.808</ele>
        <time>2021-07-16T09:59:34Z</time>
      </trkpt>
      <trkpt lat="42.545226" lon="-6.549960">
        <ele>616.338</ele>
        <time>2021-07-16T09:59:35Z</time>
      </trkpt>
      <trkpt lat="42.545261" lon="-6.549755">
        <ele>616.820</ele>
        <time>2021-07-16T09:59:45Z</time>
      </trkpt>
      <trkpt lat="42.545303" lon="-6.549563">
        <ele>618.217</ele>
        <time>2021-07-16T09:59:54Z</time>
      </trkpt>
      <trkpt lat="42.545370" lon="-6.549297">
        <ele>619.297</ele>
        <time>2021-07-16T10:00:05Z</time>
      </trkpt>
      <trkpt lat="42.545389" lon="-6.549269">
        <ele>619.731</ele>
        <time>2021-07-16T10:00:10Z</time>
      </trkpt>
      <trkpt lat="42.545388" lon="-6.549278">
        <ele>619.749</ele>
        <time>2021-07-16T10:00:17Z</time>
      </trkpt>
      <trkpt lat="42.545383" lon="-6.549283">
        <ele>618.246</ele>
        <time>2021-07-16T10:00:44Z</time>
      </trkpt>
      <trkpt lat="42.545386" lon="-6.549274">
        <ele>617.364</ele>
        <time>2021-07-16T10:01:11Z</time>
      </trkpt>
      <trkpt lat="42.545384" lon="-6.549284">
        <ele>616.841</ele>
        <time>2021-07-16T10:01:33Z</time>
      </trkpt>
      <trkpt lat="42.545384" lon="-6.549296">
        <ele>617.781</ele>
        <time>2021-07-16T10:01:55Z</time>
      </trkpt>
      <trkpt lat="42.545383" lon="-6.549281">
        <ele>618.209</ele>
        <time>2021-07-16T10:02:21Z</time>
      </trkpt>
      <trkpt lat="42.545375" lon="-6.549284">
        <ele>617.308</ele>
        <time>2021-07-16T10:02:51Z</time>
      </trkpt>
      <trkpt lat="42.545389" lon="-6.549276">
        <ele>616.851</ele>
        <time>2021-07-16T10:03:18Z</time>
      </trkpt>
      <trkpt lat="42.545392" lon="-6.549265">
        <ele>618.243</ele>
        <time>2021-07-16T10:03:39Z</time>
      </trkpt>
      <trkpt lat="42.545394" lon="-6.549267">
        <ele>618.240</ele>
        <time>2021-07-16T10:03:58Z</time>
      </trkpt>
      <trkpt lat="42.545410" lon="-6.549249">
        <ele>618.230</ele>
        <time>2021-07-16T10:04:11Z</time>
      </trkpt>
      <trkpt lat="42.545415" lon="-6.549227">
        <ele>618.264</ele>
        <time>2021-07-16T10:04:18Z</time>
      </trkpt>
      <trkpt lat="42.545447" lon="-6.549166">
        <ele>618.282</ele>
        <time>2021-07-16T10:04:23Z</time>
      </trkpt>
      <trkpt lat="42.545453" lon="-6.549150">
        <ele>618.299</ele>
        <time>2021-07-16T10:04:24Z</time>
      </trkpt>
      <trkpt lat="42.545457" lon="-6.549134">
        <ele>618.247</ele>
        <time>2021-07-16T10:04:25Z</time>
      </trkpt>
      <trkpt lat="42.545459" lon="-6.549122">
        <ele>618.255</ele>
        <time>2021-07-16T10:04:31Z</time>
      </trkpt>
      <trkpt lat="42.545460" lon="-6.549119">
        <ele>619.207</ele>
        <time>2021-07-16T10:04:47Z</time>
      </trkpt>
      <trkpt lat="42.545502" lon="-6.549048">
        <ele>618.217</ele>
        <time>2021-07-16T10:04:53Z</time>
      </trkpt>
      <trkpt lat="42.545619" lon="-6.548814">
        <ele>617.308</ele>
        <time>2021-07-16T10:05:01Z</time>
      </trkpt>
      <trkpt lat="42.545725" lon="-6.548543">
        <ele>616.332</ele>
        <time>2021-07-16T10:05:07Z</time>
      </trkpt>
      <trkpt lat="42.545803" lon="-6.548060">
        <ele>614.474</ele>
        <time>2021-07-16T10:05:15Z</time>
      </trkpt>
      <trkpt lat="42.545839" lon="-6.547591">
        <ele>613.421</ele>
        <time>2021-07-16T10:05:22Z</time>
      </trkpt>
      <trkpt lat="42.545873" lon="-6.547184">
        <ele>612.581</ele>
        <time>2021-07-16T10:05:28Z</time>
      </trkpt>
      <trkpt lat="42.545907" lon="-6.546955">
        <ele>612.075</ele>
        <time>2021-07-16T10:05:33Z</time>
      </trkpt>
      <trkpt lat="42.545946" lon="-6.546492">
        <ele>610.043</ele>
        <time>2021-07-16T10:05:40Z</time>
      </trkpt>
      <trkpt lat="42.546013" lon="-6.545725">
        <ele>608.140</ele>
        <time>2021-07-16T10:05:49Z</time>
      </trkpt>
      <trkpt lat="42.546088" lon="-6.544856">
        <ele>605.278</ele>
        <time>2021-07-16T10:05:58Z</time>
      </trkpt>
      <trkpt lat="42.546184" lon="-6.543799">
        <ele>601.928</ele>
        <time>2021-07-16T10:06:07Z</time>
      </trkpt>
      <trkpt lat="42.546310" lon="-6.542326">
        <ele>596.689</ele>
        <time>2021-07-16T10:06:18Z</time>
      </trkpt>
      <trkpt lat="42.546294" lon="-6.541335">
        <ele>593.717</ele>
        <time>2021-07-16T10:06:25Z</time>
      </trkpt>
      <trkpt lat="42.546225" lon="-6.539979">
        <ele>591.308</ele>
        <time>2021-07-16T10:06:35Z</time>
      </trkpt>
      <trkpt lat="42.546176" lon="-6.539358">
        <ele>590.869</ele>
        <time>2021-07-16T10:06:40Z</time>
      </trkpt>
      <trkpt lat="42.546149" lon="-6.539237">
        <ele>590.311</ele>
        <time>2021-07-16T10:06:41Z</time>
      </trkpt>
      <trkpt lat="42.546114" lon="-6.539127">
        <ele>590.348</ele>
        <time>2021-07-16T10:06:42Z</time>
      </trkpt>
      <trkpt lat="42.546073" lon="-6.539016">
        <ele>590.378</ele>
        <time>2021-07-16T10:06:43Z</time>
      </trkpt>
      <trkpt lat="42.546031" lon="-6.538915">
        <ele>590.332</ele>
        <time>2021-07-16T10:06:44Z</time>
      </trkpt>
      <trkpt lat="42.545704" lon="-6.538272">
        <ele>589.490</ele>
        <time>2021-07-16T10:06:51Z</time>
      </trkpt>
      <trkpt lat="42.545672" lon="-6.538176">
        <ele>589.487</ele>
        <time>2021-07-16T10:06:52Z</time>
      </trkpt>
      <trkpt lat="42.545533" lon="-6.537395">
        <ele>587.575</ele>
        <time>2021-07-16T10:06:59Z</time>
      </trkpt>
      <trkpt lat="42.545546" lon="-6.536711">
        <ele>584.635</ele>
        <time>2021-07-16T10:07:04Z</time>
      </trkpt>
      <trkpt lat="42.545585" lon="-6.536159">
        <ele>581.786</ele>
        <time>2021-07-16T10:07:08Z</time>
      </trkpt>
      <trkpt lat="42.545574" lon="-6.536015">
        <ele>581.214</ele>
        <time>2021-07-16T10:07:09Z</time>
      </trkpt>
      <trkpt lat="42.545544" lon="-6.535861">
        <ele>580.708</ele>
        <time>2021-07-16T10:07:10Z</time>
      </trkpt>
      <trkpt lat="42.545506" lon="-6.535733">
        <ele>579.860</ele>
        <time>2021-07-16T10:07:11Z</time>
      </trkpt>
      <trkpt lat="42.545453" lon="-6.535606">
        <ele>579.352</ele>
        <time>2021-07-16T10:07:12Z</time>
      </trkpt>
      <trkpt lat="42.545383" lon="-6.535456">
        <ele>578.859</ele>
        <time>2021-07-16T10:07:13Z</time>
      </trkpt>
      <trkpt lat="42.545057" lon="-6.534759">
        <ele>575.989</ele>
        <time>2021-07-16T10:07:19Z</time>
      </trkpt>
      <trkpt lat="42.544872" lon="-6.534357">
        <ele>575.943</ele>
        <time>2021-07-16T10:07:24Z</time>
      </trkpt>
      <trkpt lat="42.544673" lon="-6.533885">
        <ele>575.421</ele>
        <time>2021-07-16T10:07:32Z</time>
      </trkpt>
      <trkpt lat="42.544641" lon="-6.533827">
        <ele>575.918</ele>
        <time>2021-07-16T10:07:33Z</time>
      </trkpt>
      <trkpt lat="42.544379" lon="-6.533308">
        <ele>576.496</ele>
        <time>2021-07-16T10:07:42Z</time>
      </trkpt>
      <trkpt lat="42.543999" lon="-6.532506">
        <ele>576.971</ele>
        <time>2021-07-16T10:07:55Z</time>
      </trkpt>
      <trkpt lat="42.543985" lon="-6.532482">
        <ele>576.941</ele>
        <time>2021-07-16T10:07:58Z</time>
      </trkpt>
      <trkpt lat="42.543992" lon="-6.532503">
        <ele>576.415</ele>
        <time>2021-07-16T10:08:16Z</time>
      </trkpt>
      <trkpt lat="42.543992" lon="-6.532502">
        <ele>576.908</ele>
        <time>2021-07-16T10:08:27Z</time>
      </trkpt>
      <trkpt lat="42.543985" lon="-6.532484">
        <ele>577.434</ele>
        <time>2021-07-16T10:08:40Z</time>
      </trkpt>
      <trkpt lat="42.543977" lon="-6.532465">
        <ele>577.416</ele>
        <time>2021-07-16T10:08:44Z</time>
      </trkpt>
      <trkpt lat="42.543972" lon="-6.532450">
        <ele>577.433</ele>
        <time>2021-07-16T10:08:45Z</time>
      </trkpt>
      <trkpt lat="42.543963" lon="-6.532432">
        <ele>577.453</ele>
        <time>2021-07-16T10:08:46Z</time>
      </trkpt>
      <trkpt lat="42.543952" lon="-6.532410">
        <ele>577.437</ele>
        <time>2021-07-16T10:08:47Z</time>
      </trkpt>
      <trkpt lat="42.543940" lon="-6.532384">
        <ele>577.455</ele>
        <time>2021-07-16T10:08:48Z</time>
      </trkpt>
      <trkpt lat="42.543821" lon="-6.532122">
        <ele>576.932</ele>
        <time>2021-07-16T10:08:56Z</time>
      </trkpt>
      <trkpt lat="42.543666" lon="-6.531786">
        <ele>577.460</ele>
        <time>2021-07-16T10:09:06Z</time>
      </trkpt>
      <trkpt lat="42.543523" lon="-6.531480">
        <ele>577.842</ele>
        <time>2021-07-16T10:09:14Z</time>
      </trkpt>
      <trkpt lat="42.543319" lon="-6.531054">
        <ele>578.822</ele>
        <time>2021-07-16T10:09:24Z</time>
      </trkpt>
      <trkpt lat="42.543031" lon="-6.530417">
        <ele>580.214</ele>
        <time>2021-07-16T10:09:38Z</time>
      </trkpt>
      <trkpt lat="42.542847" lon="-6.530023">
        <ele>580.208</ele>
        <time>2021-07-16T10:09:47Z</time>
      </trkpt>
      <trkpt lat="42.542613" lon="-6.529540">
        <ele>581.231</ele>
        <time>2021-07-16T10:09:58Z</time>
      </trkpt>
      <trkpt lat="42.542391" lon="-6.529051">
        <ele>581.243</ele>
        <time>2021-07-16T10:10:09Z</time>
      </trkpt>
      <trkpt lat="42.542281" lon="-6.528826">
        <ele>581.270</ele>
        <time>2021-07-16T10:10:16Z</time>
      </trkpt>
      <trkpt lat="42.542132" lon="-6.528497">
        <ele>581.730</ele>
        <time>2021-07-16T10:10:24Z</time>
      </trkpt>
      <trkpt lat="42.541974" lon="-6.528159">
        <ele>582.734</ele>
        <time>2021-07-16T10:10:33Z</time>
      </trkpt>
      <trkpt lat="42.541763" lon="-6.527789">
        <ele>582.722</ele>
        <time>2021-07-16T10:10:43Z</time>
      </trkpt>
      <trkpt lat="42.541466" lon="-6.527357">
        <ele>582.759</ele>
        <time>2021-07-16T10:10:55Z</time>
      </trkpt>
      <trkpt lat="42.541114" lon="-6.526849">
        <ele>583.177</ele>
        <time>2021-07-16T10:11:08Z</time>
      </trkpt>
      <trkpt lat="42.540807" lon="-6.526414">
        <ele>584.129</ele>
        <time>2021-07-16T10:11:20Z</time>
      </trkpt>
      <trkpt lat="42.540600" lon="-6.526119">
        <ele>585.500</ele>
        <time>2021-07-16T10:11:30Z</time>
      </trkpt>
      <trkpt lat="42.540412" lon="-6.525763">
        <ele>585.520</ele>
        <time>2021-07-16T10:11:41Z</time>
      </trkpt>
      <trkpt lat="42.540221" lon="-6.525377">
        <ele>585.508</ele>
        <time>2021-07-16T10:11:51Z</time>
      </trkpt>
      <trkpt lat="42.540028" lon="-6.524988">
        <ele>585.599</ele>
        <time>2021-07-16T10:12:00Z</time>
      </trkpt>
      <trkpt lat="42.539831" lon="-6.524605">
        <ele>585.521</ele>
        <time>2021-07-16T10:12:09Z</time>
      </trkpt>
      <trkpt lat="42.539591" lon="-6.524086">
        <ele>586.018</ele>
        <time>2021-07-16T10:12:21Z</time>
      </trkpt>
      <trkpt lat="42.539426" lon="-6.523718">
        <ele>587.578</ele>
        <time>2021-07-16T10:12:30Z</time>
      </trkpt>
      <trkpt lat="42.539283" lon="-6.523407">
        <ele>587.942</ele>
        <time>2021-07-16T10:12:38Z</time>
      </trkpt>
      <trkpt lat="42.539141" lon="-6.523069">
        <ele>589.440</ele>
        <time>2021-07-16T10:12:48Z</time>
      </trkpt>
      <trkpt lat="42.539054" lon="-6.522817">
        <ele>589.937</ele>
        <time>2021-07-16T10:12:58Z</time>
      </trkpt>
      <trkpt lat="42.538966" lon="-6.522686">
        <ele>589.915</ele>
        <time>2021-07-16T10:13:08Z</time>
      </trkpt>
      <trkpt lat="42.538958" lon="-6.522684">
        <ele>587.983</ele>
        <time>2021-07-16T10:13:15Z</time>
      </trkpt>
      <trkpt lat="42.538954" lon="-6.522673">
        <ele>587.025</ele>
        <time>2021-07-16T10:13:29Z</time>
      </trkpt>
      <trkpt lat="42.538957" lon="-6.522667">
        <ele>588.417</ele>
        <time>2021-07-16T10:13:42Z</time>
      </trkpt>
      <trkpt lat="42.538961" lon="-6.522665">
        <ele>589.408</ele>
        <time>2021-07-16T10:13:55Z</time>
      </trkpt>
      <trkpt lat="42.538991" lon="-6.522688">
        <ele>589.445</ele>
        <time>2021-07-16T10:14:13Z</time>
      </trkpt>
      <trkpt lat="42.538969" lon="-6.522673">
        <ele>589.437</ele>
        <time>2021-07-16T10:14:24Z</time>
      </trkpt>
      <trkpt lat="42.538920" lon="-6.522620">
        <ele>589.434</ele>
        <time>2021-07-16T10:14:28Z</time>
      </trkpt>
      <trkpt lat="42.538802" lon="-6.522520">
        <ele>587.944</ele>
        <time>2021-07-16T10:14:37Z</time>
      </trkpt>
      <trkpt lat="42.538695" lon="-6.522371">
        <ele>587.538</ele>
        <time>2021-07-16T10:14:46Z</time>
      </trkpt>
      <trkpt lat="42.538646" lon="-6.522284">
        <ele>587.986</ele>
        <time>2021-07-16T10:14:54Z</time>
      </trkpt>
      <trkpt lat="42.538558" lon="-6.522122">
        <ele>587.513</ele>
        <time>2021-07-16T10:15:02Z</time>
      </trkpt>
      <trkpt lat="42.538480" lon="-6.521907">
        <ele>587.031</ele>
        <time>2021-07-16T10:15:10Z</time>
      </trkpt>
      <trkpt lat="42.538413" lon="-6.521747">
        <ele>587.051</ele>
        <time>2021-07-16T10:15:18Z</time>
      </trkpt>
      <trkpt lat="42.538387" lon="-6.521684">
        <ele>587.501</ele>
        <time>2021-07-16T10:15:25Z</time>
      </trkpt>
      <trkpt lat="42.538402" lon="-6.521652">
        <ele>587.511</ele>
        <time>2021-07-16T10:15:40Z</time>
      </trkpt>
      <trkpt lat="42.538343" lon="-6.521496">
        <ele>587.908</ele>
        <time>2021-07-16T10:15:46Z</time>
      </trkpt>
      <trkpt lat="42.538246" lon="-6.521195">
        <ele>587.032</ele>
        <time>2021-07-16T10:15:56Z</time>
      </trkpt>
      <trkpt lat="42.538184" lon="-6.520993">
        <ele>586.024</ele>
        <time>2021-07-16T10:16:04Z</time>
      </trkpt>
      <trkpt lat="42.538138" lon="-6.520879">
        <ele>586.591</ele>
        <time>2021-07-16T10:16:08Z</time>
      </trkpt>
      <trkpt lat="42.538122" lon="-6.520855">
        <ele>586.591</ele>
        <time>2021-07-16T10:16:09Z</time>
      </trkpt>
      <trkpt lat="42.538109" lon="-6.520831">
        <ele>586.515</ele>
        <time>2021-07-16T10:16:10Z</time>
      </trkpt>
      <trkpt lat="42.538043" lon="-6.520614">
        <ele>586.063</ele>
        <time>2021-07-16T10:16:19Z</time>
      </trkpt>
      <trkpt lat="42.537965" lon="-6.520334">
        <ele>586.520</ele>
        <time>2021-07-16T10:16:28Z</time>
      </trkpt>
      <trkpt lat="42.537891" lon="-6.520075">
        <ele>585.198</ele>
        <time>2021-07-16T10:16:37Z</time>
      </trkpt>
      <trkpt lat="42.537817" lon="-6.519849">
        <ele>584.162</ele>
        <time>2021-07-16T10:16:45Z</time>
      </trkpt>
      <trkpt lat="42.537767" lon="-6.519637">
        <ele>585.183</ele>
        <time>2021-07-16T10:16:54Z</time>
      </trkpt>
      <trkpt lat="42.537755" lon="-6.519613">
        <ele>585.511</ele>
        <time>2021-07-16T10:16:55Z</time>
      </trkpt>
      <trkpt lat="42.537738" lon="-6.519558">
        <ele>585.108</ele>
        <time>2021-07-16T10:16:57Z</time>
      </trkpt>
      <trkpt lat="42.537694" lon="-6.519372">
        <ele>584.673</ele>
        <time>2021-07-16T10:17:05Z</time>
      </trkpt>
      <trkpt lat="42.537667" lon="-6.519278">
        <ele>584.695</ele>
        <time>2021-07-16T10:17:12Z</time>
      </trkpt>
      <trkpt lat="42.537641" lon="-6.519229">
        <ele>584.672</ele>
        <time>2021-07-16T10:17:19Z</time>
      </trkpt>
      <trkpt lat="42.537626" lon="-6.519199">
        <ele>585.522</ele>
        <time>2021-07-16T10:17:28Z</time>
      </trkpt>
      <trkpt lat="42.537614" lon="-6.519205">
        <ele>586.546</ele>
        <time>2021-07-16T10:17:44Z</time>
      </trkpt>
      <trkpt lat="42.537608" lon="-6.519212">
        <ele>587.064</ele>
        <time>2021-07-16T10:17:45Z</time>
      </trkpt>
      <trkpt lat="42.537558" lon="-6.519249">
        <ele>587.511</ele>
        <time>2021-07-16T10:17:50Z</time>
      </trkpt>
      <trkpt lat="42.537405" lon="-6.519330">
        <ele>589.489</ele>
        <time>2021-07-16T10:18:03Z</time>
      </trkpt>
      <trkpt lat="42.537302" lon="-6.519411">
        <ele>591.364</ele>
        <time>2021-07-16T10:18:14Z</time>
      </trkpt>
      <trkpt lat="42.537241" lon="-6.519528">
        <ele>593.706</ele>
        <time>2021-07-16T10:18:23Z</time>
      </trkpt>
      <trkpt lat="42.537232" lon="-6.519544">
        <ele>593.716</ele>
        <time>2021-07-16T10:18:29Z</time>
      </trkpt>
      <trkpt lat="42.537228" lon="-6.519592">
        <ele>590.308</ele>
        <time>2021-07-16T10:18:59Z</time>
      </trkpt>
      <trkpt lat="42.537230" lon="-6.519597">
        <ele>588.963</ele>
        <time>2021-07-16T10:19:12Z</time>
      </trkpt>
      <trkpt lat="42.537249" lon="-6.519604">
        <ele>588.975</ele>
        <time>2021-07-16T10:19:25Z</time>
      </trkpt>
      <trkpt lat="42.537241" lon="-6.519583">
        <ele>590.372</ele>
        <time>2021-07-16T10:19:36Z</time>
      </trkpt>
      <trkpt lat="42.537242" lon="-6.519574">
        <ele>591.852</ele>
        <time>2021-07-16T10:19:49Z</time>
      </trkpt>
      <trkpt lat="42.537237" lon="-6.519561">
        <ele>593.246</ele>
        <time>2021-07-16T10:20:02Z</time>
      </trkpt>
      <trkpt lat="42.537229" lon="-6.519565">
        <ele>594.274</ele>
        <time>2021-07-16T10:20:14Z</time>
      </trkpt>
      <trkpt lat="42.537231" lon="-6.519563">
        <ele>595.681</ele>
        <time>2021-07-16T10:20:26Z</time>
      </trkpt>
      <trkpt lat="42.537223" lon="-6.519545">
        <ele>595.699</ele>
        <time>2021-07-16T10:20:37Z</time>
      </trkpt>
      <trkpt lat="42.537217" lon="-6.519541">
        <ele>596.152</ele>
        <time>2021-07-16T10:20:48Z</time>
      </trkpt>
      <trkpt lat="42.537219" lon="-6.519557">
        <ele>597.653</ele>
        <time>2021-07-16T10:21:02Z</time>
      </trkpt>
      <trkpt lat="42.537219" lon="-6.519569">
        <ele>596.108</ele>
        <time>2021-07-16T10:21:17Z</time>
      </trkpt>
      <trkpt lat="42.537224" lon="-6.519574">
        <ele>596.108</ele>
        <time>2021-07-16T10:21:29Z</time>
      </trkpt>
      <trkpt lat="42.537216" lon="-6.519564">
        <ele>594.732</ele>
        <time>2021-07-16T10:21:42Z</time>
      </trkpt>
      <trkpt lat="42.537211" lon="-6.519558">
        <ele>595.694</ele>
        <time>2021-07-16T10:21:53Z</time>
      </trkpt>
      <trkpt lat="42.537209" lon="-6.519559">
        <ele>596.681</ele>
        <time>2021-07-16T10:22:05Z</time>
      </trkpt>
      <trkpt lat="42.537211" lon="-6.519556">
        <ele>596.681</ele>
        <time>2021-07-16T10:22:16Z</time>
      </trkpt>
      <trkpt lat="42.537210" lon="-6.519575">
        <ele>597.695</ele>
        <time>2021-07-16T10:22:27Z</time>
      </trkpt>
      <trkpt lat="42.537208" lon="-6.519585">
        <ele>597.613</ele>
        <time>2021-07-16T10:22:39Z</time>
      </trkpt>
      <trkpt lat="42.537213" lon="-6.519596">
        <ele>597.630</ele>
        <time>2021-07-16T10:22:49Z</time>
      </trkpt>
      <trkpt lat="42.537201" lon="-6.519582">
        <ele>597.628</ele>
        <time>2021-07-16T10:23:07Z</time>
      </trkpt>
      <trkpt lat="42.537209" lon="-6.519583">
        <ele>595.193</ele>
        <time>2021-07-16T10:23:21Z</time>
      </trkpt>
      <trkpt lat="42.537211" lon="-6.519588">
        <ele>593.765</ele>
        <time>2021-07-16T10:23:37Z</time>
      </trkpt>
      <trkpt lat="42.537201" lon="-6.519562">
        <ele>593.221</ele>
        <time>2021-07-16T10:23:53Z</time>
      </trkpt>
      <trkpt lat="42.537208" lon="-6.519549">
        <ele>595.608</ele>
        <time>2021-07-16T10:24:14Z</time>
      </trkpt>
      <trkpt lat="42.537212" lon="-6.519554">
        <ele>595.116</ele>
        <time>2021-07-16T10:24:29Z</time>
      </trkpt>
      <trkpt lat="42.537213" lon="-6.519554">
        <ele>594.738</ele>
        <time>2021-07-16T10:24:46Z</time>
      </trkpt>
      <trkpt lat="42.537202" lon="-6.519545">
        <ele>595.155</ele>
        <time>2021-07-16T10:25:04Z</time>
      </trkpt>
      <trkpt lat="42.537201" lon="-6.519570">
        <ele>594.245</ele>
        <time>2021-07-16T10:25:17Z</time>
      </trkpt>
      <trkpt lat="42.537199" lon="-6.519559">
        <ele>593.739</ele>
        <time>2021-07-16T10:25:29Z</time>
      </trkpt>
      <trkpt lat="42.537195" lon="-6.519546">
        <ele>594.777</ele>
        <time>2021-07-16T10:25:45Z</time>
      </trkpt>
      <trkpt lat="42.537196" lon="-6.519569">
        <ele>595.114</ele>
        <time>2021-07-16T10:26:02Z</time>
      </trkpt>
      <trkpt lat="42.537193" lon="-6.519557">
        <ele>596.652</ele>
        <time>2021-07-16T10:26:21Z</time>
      </trkpt>
      <trkpt lat="42.537192" lon="-6.519556">
        <ele>595.613</ele>
        <time>2021-07-16T10:26:45Z</time>
      </trkpt>
      <trkpt lat="42.537187" lon="-6.519560">
        <ele>596.143</ele>
        <time>2021-07-16T10:27:03Z</time>
      </trkpt>
      <trkpt lat="42.537188" lon="-6.519562">
        <ele>595.607</ele>
        <time>2021-07-16T10:27:18Z</time>
      </trkpt>
      <trkpt lat="42.537196" lon="-6.519571">
        <ele>595.108</ele>
        <time>2021-07-16T10:27:36Z</time>
      </trkpt>
      <trkpt lat="42.537215" lon="-6.519585">
        <ele>595.178</ele>
        <time>2021-07-16T10:27:55Z</time>
      </trkpt>
      <trkpt lat="42.537239" lon="-6.519596">
        <ele>595.610</ele>
        <time>2021-07-16T10:28:17Z</time>
      </trkpt>
      <trkpt lat="42.537233" lon="-6.519595">
        <ele>597.147</ele>
        <time>2021-07-16T10:28:37Z</time>
      </trkpt>
      <trkpt lat="42.537217" lon="-6.519588">
        <ele>596.647</ele>
        <time>2021-07-16T10:28:57Z</time>
      </trkpt>
      <trkpt lat="42.537208" lon="-6.519567">
        <ele>596.161</ele>
        <time>2021-07-16T10:29:01Z</time>
      </trkpt>
      <trkpt lat="42.537226" lon="-6.519518">
        <ele>595.699</ele>
        <time>2021-07-16T10:29:05Z</time>
      </trkpt>
      <trkpt lat="42.537321" lon="-6.519425">
        <ele>594.746</ele>
        <time>2021-07-16T10:29:15Z</time>
      </trkpt>
      <trkpt lat="42.537389" lon="-6.519367">
        <ele>594.784</ele>
        <time>2021-07-16T10:29:22Z</time>
      </trkpt>
      <trkpt lat="42.537412" lon="-6.519333">
        <ele>595.154</ele>
        <time>2021-07-16T10:29:25Z</time>
      </trkpt>
      <trkpt lat="42.537438" lon="-6.519293">
        <ele>595.156</ele>
        <time>2021-07-16T10:29:29Z</time>
      </trkpt>
      <trkpt lat="42.537557" lon="-6.519226">
        <ele>595.611</ele>
        <time>2021-07-16T10:29:37Z</time>
      </trkpt>
      <trkpt lat="42.537597" lon="-6.519170">
        <ele>595.108</ele>
        <time>2021-07-16T10:29:41Z</time>
      </trkpt>
      <trkpt lat="42.537587" lon="-6.519081">
        <ele>595.692</ele>
        <time>2021-07-16T10:29:46Z</time>
      </trkpt>
      <trkpt lat="42.537613" lon="-6.519033">
        <ele>594.764</ele>
        <time>2021-07-16T10:29:54Z</time>
      </trkpt>
      <trkpt lat="42.537628" lon="-6.519026">
        <ele>593.781</ele>
        <time>2021-07-16T10:30:02Z</time>
      </trkpt>
      <trkpt lat="42.537632" lon="-6.519050">
        <ele>593.211</ele>
        <time>2021-07-16T10:30:05Z</time>
      </trkpt>
      <trkpt lat="42.537646" lon="-6.519166">
        <ele>592.785</ele>
        <time>2021-07-16T10:30:15Z</time>
      </trkpt>
      <trkpt lat="42.537632" lon="-6.519156">
        <ele>589.913</ele>
        <time>2021-07-16T10:30:22Z</time>
      </trkpt>
      <trkpt lat="42.537608" lon="-6.519071">
        <ele>590.370</ele>
        <time>2021-07-16T10:30:31Z</time>
      </trkpt>
      <trkpt lat="42.537598" lon="-6.519023">
        <ele>591.328</ele>
        <time>2021-07-16T10:30:35Z</time>
      </trkpt>
      <trkpt lat="42.537581" lon="-6.518845">
        <ele>594.284</ele>
        <time>2021-07-16T10:30:47Z</time>
      </trkpt>
      <trkpt lat="42.537558" lon="-6.518646">
        <ele>595.107</ele>
        <time>2021-07-16T10:31:00Z</time>
      </trkpt>
      <trkpt lat="42.537560" lon="-6.518575">
        <ele>595.617</ele>
        <time>2021-07-16T10:31:08Z</time>
      </trkpt>
      <trkpt lat="42.537571" lon="-6.518590">
        <ele>595.108</ele>
        <time>2021-07-16T10:31:25Z</time>
      </trkpt>
      <trkpt lat="42.537567" lon="-6.518552">
        <ele>596.125</ele>
        <time>2021-07-16T10:31:59Z</time>
      </trkpt>
      <trkpt lat="42.537598" lon="-6.518595">
        <ele>592.767</ele>
        <time>2021-07-16T10:32:24Z</time>
      </trkpt>
      <trkpt lat="42.537587" lon="-6.518590">
        <ele>595.614</ele>
        <time>2021-07-16T10:32:52Z</time>
      </trkpt>
      <trkpt lat="42.537557" lon="-6.518587">
        <ele>596.184</ele>
        <time>2021-07-16T10:33:24Z</time>
      </trkpt>
      <trkpt lat="42.537556" lon="-6.518517">
        <ele>596.618</ele>
        <time>2021-07-16T10:33:34Z</time>
      </trkpt>
      <trkpt lat="42.537555" lon="-6.518314">
        <ele>597.646</ele>
        <time>2021-07-16T10:33:47Z</time>
      </trkpt>
      <trkpt lat="42.537552" lon="-6.518151">
        <ele>596.123</ele>
        <time>2021-07-16T10:33:58Z</time>
      </trkpt>
      <trkpt lat="42.537530" lon="-6.518128">
        <ele>595.121</ele>
        <time>2021-07-16T10:34:06Z</time>
      </trkpt>
      <trkpt lat="42.537521" lon="-6.518109">
        <ele>595.114</ele>
        <time>2021-07-16T10:34:14Z</time>
      </trkpt>
      <trkpt lat="42.537528" lon="-6.518092">
        <ele>593.254</ele>
        <time>2021-07-16T10:34:24Z</time>
      </trkpt>
      <trkpt lat="42.537486" lon="-6.518087">
        <ele>592.709</ele>
        <time>2021-07-16T10:34:32Z</time>
      </trkpt>
      <trkpt lat="42.537488" lon="-6.518087">
        <ele>590.808</ele>
        <time>2021-07-16T10:34:48Z</time>
      </trkpt>
      <trkpt lat="42.537501" lon="-6.518088">
        <ele>591.848</ele>
        <time>2021-07-16T10:35:08Z</time>
      </trkpt>
      <trkpt lat="42.537472" lon="-6.518066">
        <ele>592.740</ele>
        <time>2021-07-16T10:35:18Z</time>
      </trkpt>
      <trkpt lat="42.537440" lon="-6.518023">
        <ele>592.797</ele>
        <time>2021-07-16T10:35:25Z</time>
      </trkpt>
      <trkpt lat="42.537432" lon="-6.518019">
        <ele>592.797</ele>
        <time>2021-07-16T10:35:26Z</time>
      </trkpt>
      <trkpt lat="42.537350" lon="-6.518092">
        <ele>591.821</ele>
        <time>2021-07-16T10:35:36Z</time>
      </trkpt>
      <trkpt lat="42.537276" lon="-6.518207">
        <ele>589.969</ele>
        <time>2021-07-16T10:35:46Z</time>
      </trkpt>
      <trkpt lat="42.537261" lon="-6.518225">
        <ele>589.496</ele>
        <time>2021-07-16T10:35:54Z</time>
      </trkpt>
      <trkpt lat="42.537268" lon="-6.518225">
        <ele>590.874</ele>
        <time>2021-07-16T10:36:09Z</time>
      </trkpt>
      <trkpt lat="42.537278" lon="-6.518192">
        <ele>589.419</ele>
        <time>2021-07-16T10:36:27Z</time>
      </trkpt>
      <trkpt lat="42.537282" lon="-6.518231">
        <ele>591.309</ele>
        <time>2021-07-16T10:36:41Z</time>
      </trkpt>
      <trkpt lat="42.537241" lon="-6.518239">
        <ele>590.819</ele>
        <time>2021-07-16T10:36:48Z</time>
      </trkpt>
      <trkpt lat="42.537248" lon="-6.518256">
        <ele>590.308</ele>
        <time>2021-07-16T10:37:00Z</time>
      </trkpt>
      <trkpt lat="42.537239" lon="-6.518255">
        <ele>591.378</ele>
        <time>2021-07-16T10:37:17Z</time>
      </trkpt>
      <trkpt lat="42.537229" lon="-6.518270">
        <ele>591.840</ele>
        <time>2021-07-16T10:37:38Z</time>
      </trkpt>
      <trkpt lat="42.537217" lon="-6.518258">
        <ele>592.717</ele>
        <time>2021-07-16T10:38:00Z</time>
      </trkpt>
      <trkpt lat="42.537242" lon="-6.518280">
        <ele>595.177</ele>
        <time>2021-07-16T10:38:37Z</time>
      </trkpt>
      <trkpt lat="42.537236" lon="-6.518255">
        <ele>595.681</ele>
        <time>2021-07-16T10:39:06Z</time>
      </trkpt>
      <trkpt lat="42.537224" lon="-6.518230">
        <ele>593.749</ele>
        <time>2021-07-16T10:39:23Z</time>
      </trkpt>
      <trkpt lat="42.537230" lon="-6.518296">
        <ele>593.276</ele>
        <time>2021-07-16T11:58:49Z</time>
      </trkpt>
      <trkpt lat="42.537234" lon="-6.518247">
        <ele>593.714</ele>
        <time>2021-07-16T11:58:59Z</time>
      </trkpt>
      <trkpt lat="42.537262" lon="-6.518233">
        <ele>592.755</ele>
        <time>2021-07-16T11:59:10Z</time>
      </trkpt>
      <trkpt lat="42.537271" lon="-6.518186">
        <ele>593.707</ele>
        <time>2021-07-16T11:59:20Z</time>
      </trkpt>
      <trkpt lat="42.537326" lon="-6.518144">
        <ele>592.717</ele>
        <time>2021-07-16T11:59:29Z</time>
      </trkpt>
      <trkpt lat="42.537358" lon="-6.518065">
        <ele>594.708</ele>
        <time>2021-07-16T11:59:38Z</time>
      </trkpt>
      <trkpt lat="42.537425" lon="-6.518017">
        <ele>597.192</ele>
        <time>2021-07-16T11:59:49Z</time>
      </trkpt>
      <trkpt lat="42.537426" lon="-6.517995">
        <ele>597.194</ele>
        <time>2021-07-16T11:59:51Z</time>
      </trkpt>
      <trkpt lat="42.537364" lon="-6.517881">
        <ele>597.641</ele>
        <time>2021-07-16T12:00:02Z</time>
      </trkpt>
      <trkpt lat="42.537251" lon="-6.517753">
        <ele>598.041</ele>
        <time>2021-07-16T12:00:14Z</time>
      </trkpt>
      <trkpt lat="42.537194" lon="-6.517707">
        <ele>598.585</ele>
        <time>2021-07-16T12:00:19Z</time>
      </trkpt>
      <trkpt lat="42.537095" lon="-6.517672">
        <ele>599.013</ele>
        <time>2021-07-16T12:00:28Z</time>
      </trkpt>
      <trkpt lat="42.536985" lon="-6.517600">
        <ele>600.950</ele>
        <time>2021-07-16T12:00:37Z</time>
      </trkpt>
      <trkpt lat="42.536848" lon="-6.517518">
        <ele>601.428</ele>
        <time>2021-07-16T12:00:49Z</time>
      </trkpt>
      <trkpt lat="42.536705" lon="-6.517488">
        <ele>601.936</ele>
        <time>2021-07-16T12:01:01Z</time>
      </trkpt>
      <trkpt lat="42.536639" lon="-6.517486">
        <ele>602.417</ele>
        <time>2021-07-16T12:01:08Z</time>
      </trkpt>
      <trkpt lat="42.536504" lon="-6.517465">
        <ele>603.318</ele>
        <time>2021-07-16T12:01:20Z</time>
      </trkpt>
      <trkpt lat="42.536438" lon="-6.517387">
        <ele>603.308</ele>
        <time>2021-07-16T12:01:29Z</time>
      </trkpt>
      <trkpt lat="42.536366" lon="-6.517272">
        <ele>604.390</ele>
        <time>2021-07-16T12:01:38Z</time>
      </trkpt>
      <trkpt lat="42.536366" lon="-6.517264">
        <ele>605.212</ele>
        <time>2021-07-16T12:01:44Z</time>
      </trkpt>
      <trkpt lat="42.536387" lon="-6.517279">
        <ele>608.659</ele>
        <time>2021-07-16T12:02:00Z</time>
      </trkpt>
      <trkpt lat="42.536384" lon="-6.517270">
        <ele>608.149</ele>
        <time>2021-07-16T12:02:17Z</time>
      </trkpt>
      <trkpt lat="42.536379" lon="-6.517267">
        <ele>606.753</ele>
        <time>2021-07-16T12:02:43Z</time>
      </trkpt>
      <trkpt lat="42.536380" lon="-6.517278">
        <ele>605.771</ele>
        <time>2021-07-16T12:03:01Z</time>
      </trkpt>
      <trkpt lat="42.536375" lon="-6.517263">
        <ele>606.268</ele>
        <time>2021-07-16T12:03:24Z</time>
      </trkpt>
      <trkpt lat="42.536380" lon="-6.517258">
        <ele>604.326</ele>
        <time>2021-07-16T12:03:46Z</time>
      </trkpt>
      <trkpt lat="42.536368" lon="-6.517243">
        <ele>604.332</ele>
        <time>2021-07-16T12:04:03Z</time>
      </trkpt>
      <trkpt lat="42.536359" lon="-6.517268">
        <ele>604.892</ele>
        <time>2021-07-16T12:04:17Z</time>
      </trkpt>
      <trkpt lat="42.536349" lon="-6.517259">
        <ele>604.811</ele>
        <time>2021-07-16T12:04:38Z</time>
      </trkpt>
      <trkpt lat="42.536337" lon="-6.517262">
        <ele>606.208</ele>
        <time>2021-07-16T12:04:55Z</time>
      </trkpt>
      <trkpt lat="42.536348" lon="-6.517274">
        <ele>607.660</ele>
        <time>2021-07-16T12:05:13Z</time>
      </trkpt>
      <trkpt lat="42.536354" lon="-6.517262">
        <ele>607.692</ele>
        <time>2021-07-16T12:05:32Z</time>
      </trkpt>
      <trkpt lat="42.536351" lon="-6.517263">
        <ele>607.229</ele>
        <time>2021-07-16T12:05:54Z</time>
      </trkpt>
      <trkpt lat="42.536343" lon="-6.517256">
        <ele>606.729</ele>
        <time>2021-07-16T12:06:04Z</time>
      </trkpt>
      <trkpt lat="42.536322" lon="-6.517286">
        <ele>606.783</ele>
        <time>2021-07-16T12:06:10Z</time>
      </trkpt>
      <trkpt lat="42.536309" lon="-6.517298">
        <ele>606.721</ele>
        <time>2021-07-16T12:06:14Z</time>
      </trkpt>
      <trkpt lat="42.536201" lon="-6.517299">
        <ele>606.748</ele>
        <time>2021-07-16T12:06:21Z</time>
      </trkpt>
      <trkpt lat="42.536180" lon="-6.517288">
        <ele>606.786</ele>
        <time>2021-07-16T12:06:22Z</time>
      </trkpt>
      <trkpt lat="42.536008" lon="-6.517205">
        <ele>607.672</ele>
        <time>2021-07-16T12:06:31Z</time>
      </trkpt>
      <trkpt lat="42.535842" lon="-6.517116">
        <ele>608.613</ele>
        <time>2021-07-16T12:06:40Z</time>
      </trkpt>
      <trkpt lat="42.535758" lon="-6.517071">
        <ele>610.014</ele>
        <time>2021-07-16T12:06:46Z</time>
      </trkpt>
      <trkpt lat="42.535622" lon="-6.517004">
        <ele>611.508</ele>
        <time>2021-07-16T12:06:54Z</time>
      </trkpt>
      <trkpt lat="42.535455" lon="-6.516910">
        <ele>612.574</ele>
        <time>2021-07-16T12:07:04Z</time>
      </trkpt>
      <trkpt lat="42.535350" lon="-6.516848">
        <ele>613.446</ele>
        <time>2021-07-16T12:07:11Z</time>
      </trkpt>
      <trkpt lat="42.535293" lon="-6.516838">
        <ele>614.473</ele>
        <time>2021-07-16T12:07:19Z</time>
      </trkpt>
      <trkpt lat="42.535296" lon="-6.516835">
        <ele>615.323</ele>
        <time>2021-07-16T12:07:28Z</time>
      </trkpt>
      <trkpt lat="42.535298" lon="-6.516822">
        <ele>613.997</ele>
        <time>2021-07-16T12:07:50Z</time>
      </trkpt>
      <trkpt lat="42.535304" lon="-6.516829">
        <ele>615.885</ele>
        <time>2021-07-16T12:08:04Z</time>
      </trkpt>
      <trkpt lat="42.535304" lon="-6.516835">
        <ele>617.392</ele>
        <time>2021-07-16T12:08:24Z</time>
      </trkpt>
      <trkpt lat="42.535283" lon="-6.516815">
        <ele>617.350</ele>
        <time>2021-07-16T12:08:28Z</time>
      </trkpt>
      <trkpt lat="42.535272" lon="-6.516808">
        <ele>617.374</ele>
        <time>2021-07-16T12:08:29Z</time>
      </trkpt>
      <trkpt lat="42.535260" lon="-6.516798">
        <ele>617.356</ele>
        <time>2021-07-16T12:08:30Z</time>
      </trkpt>
      <trkpt lat="42.535246" lon="-6.516788">
        <ele>617.321</ele>
        <time>2021-07-16T12:08:31Z</time>
      </trkpt>
      <trkpt lat="42.535231" lon="-6.516775">
        <ele>616.808</ele>
        <time>2021-07-16T12:08:32Z</time>
      </trkpt>
      <trkpt lat="42.535112" lon="-6.516628">
        <ele>616.884</ele>
        <time>2021-07-16T12:08:41Z</time>
      </trkpt>
      <trkpt lat="42.534984" lon="-6.516538">
        <ele>616.326</ele>
        <time>2021-07-16T12:08:50Z</time>
      </trkpt>
      <trkpt lat="42.534864" lon="-6.516376">
        <ele>617.763</ele>
        <time>2021-07-16T12:09:00Z</time>
      </trkpt>
      <trkpt lat="42.534792" lon="-6.516142">
        <ele>618.233</ele>
        <time>2021-07-16T12:09:11Z</time>
      </trkpt>
      <trkpt lat="42.534769" lon="-6.515978">
        <ele>618.797</ele>
        <time>2021-07-16T12:09:19Z</time>
      </trkpt>
      <trkpt lat="42.534732" lon="-6.515789">
        <ele>619.785</ele>
        <time>2021-07-16T12:09:28Z</time>
      </trkpt>
      <trkpt lat="42.534718" lon="-6.515721">
        <ele>620.182</ele>
        <time>2021-07-16T12:09:31Z</time>
      </trkpt>
      <trkpt lat="42.534670" lon="-6.515561">
        <ele>621.190</ele>
        <time>2021-07-16T12:09:40Z</time>
      </trkpt>
      <trkpt lat="42.534604" lon="-6.515415">
        <ele>622.519</ele>
        <time>2021-07-16T12:09:48Z</time>
      </trkpt>
      <trkpt lat="42.534516" lon="-6.515213">
        <ele>624.509</ele>
        <time>2021-07-16T12:09:57Z</time>
      </trkpt>
      <trkpt lat="42.534450" lon="-6.514985">
        <ele>625.919</ele>
        <time>2021-07-16T12:10:07Z</time>
      </trkpt>
      <trkpt lat="42.534394" lon="-6.514774">
        <ele>626.408</ele>
        <time>2021-07-16T12:10:15Z</time>
      </trkpt>
      <trkpt lat="42.534277" lon="-6.514527">
        <ele>627.488</ele>
        <time>2021-07-16T12:10:25Z</time>
      </trkpt>
      <trkpt lat="42.534145" lon="-6.514363">
        <ele>628.320</ele>
        <time>2021-07-16T12:10:34Z</time>
      </trkpt>
      <trkpt lat="42.534035" lon="-6.514228">
        <ele>628.897</ele>
        <time>2021-07-16T12:10:42Z</time>
      </trkpt>
      <trkpt lat="42.533902" lon="-6.514051">
        <ele>630.287</ele>
        <time>2021-07-16T12:10:52Z</time>
      </trkpt>
      <trkpt lat="42.533853" lon="-6.513984">
        <ele>631.231</ele>
        <time>2021-07-16T12:10:56Z</time>
      </trkpt>
      <trkpt lat="42.533807" lon="-6.513765">
        <ele>632.299</ele>
        <time>2021-07-16T12:11:05Z</time>
      </trkpt>
      <trkpt lat="42.533838" lon="-6.513513">
        <ele>633.646</ele>
        <time>2021-07-16T12:11:15Z</time>
      </trkpt>
      <trkpt lat="42.533893" lon="-6.513238">
        <ele>634.624</ele>
        <time>2021-07-16T12:11:26Z</time>
      </trkpt>
      <trkpt lat="42.533937" lon="-6.512971">
        <ele>636.017</ele>
        <time>2021-07-16T12:11:37Z</time>
      </trkpt>
      <trkpt lat="42.534002" lon="-6.512757">
        <ele>637.487</ele>
        <time>2021-07-16T12:11:46Z</time>
      </trkpt>
      <trkpt lat="42.534125" lon="-6.512557">
        <ele>638.415</ele>
        <time>2021-07-16T12:11:56Z</time>
      </trkpt>
      <trkpt lat="42.534247" lon="-6.512377">
        <ele>639.808</ele>
        <time>2021-07-16T12:12:06Z</time>
      </trkpt>
      <trkpt lat="42.534363" lon="-6.512189">
        <ele>640.868</ele>
        <time>2021-07-16T12:12:16Z</time>
      </trkpt>
      <trkpt lat="42.534381" lon="-6.511992">
        <ele>642.310</ele>
        <time>2021-07-16T12:12:24Z</time>
      </trkpt>
      <trkpt lat="42.534268" lon="-6.511894">
        <ele>642.777</ele>
        <time>2021-07-16T12:12:31Z</time>
      </trkpt>
      <trkpt lat="42.534225" lon="-6.511894">
        <ele>643.267</ele>
        <time>2021-07-16T12:12:33Z</time>
      </trkpt>
      <trkpt lat="42.534202" lon="-6.511903">
        <ele>643.231</ele>
        <time>2021-07-16T12:12:34Z</time>
      </trkpt>
      <trkpt lat="42.534188" lon="-6.511909">
        <ele>643.739</ele>
        <time>2021-07-16T12:12:35Z</time>
      </trkpt>
      <trkpt lat="42.534170" lon="-6.511920">
        <ele>643.756</ele>
        <time>2021-07-16T12:12:36Z</time>
      </trkpt>
      <trkpt lat="42.534152" lon="-6.511931">
        <ele>644.234</ele>
        <time>2021-07-16T12:12:37Z</time>
      </trkpt>
      <trkpt lat="42.534133" lon="-6.511943">
        <ele>644.255</ele>
        <time>2021-07-16T12:12:38Z</time>
      </trkpt>
      <trkpt lat="42.534114" lon="-6.511957">
        <ele>644.207</ele>
        <time>2021-07-16T12:12:39Z</time>
      </trkpt>
      <trkpt lat="42.534094" lon="-6.511970">
        <ele>644.217</ele>
        <time>2021-07-16T12:12:40Z</time>
      </trkpt>
      <trkpt lat="42.533900" lon="-6.512122">
        <ele>644.208</ele>
        <time>2021-07-16T12:12:50Z</time>
      </trkpt>
      <trkpt lat="42.533770" lon="-6.512252">
        <ele>644.252</ele>
        <time>2021-07-16T12:12:58Z</time>
      </trkpt>
      <trkpt lat="42.533610" lon="-6.512463">
        <ele>644.754</ele>
        <time>2021-07-16T12:13:08Z</time>
      </trkpt>
      <trkpt lat="42.533427" lon="-6.512616">
        <ele>646.121</ele>
        <time>2021-07-16T12:13:18Z</time>
      </trkpt>
      <trkpt lat="42.533282" lon="-6.512694">
        <ele>647.191</ele>
        <time>2021-07-16T12:13:25Z</time>
      </trkpt>
      <trkpt lat="42.533099" lon="-6.512787">
        <ele>648.025</ele>
        <time>2021-07-16T12:13:34Z</time>
      </trkpt>
      <trkpt lat="42.532968" lon="-6.512858">
        <ele>649.523</ele>
        <time>2021-07-16T12:13:41Z</time>
      </trkpt>
      <trkpt lat="42.532838" lon="-6.512940">
        <ele>650.460</ele>
        <time>2021-07-16T12:13:48Z</time>
      </trkpt>
      <trkpt lat="42.532690" lon="-6.512999">
        <ele>651.428</ele>
        <time>2021-07-16T12:13:56Z</time>
      </trkpt>
      <trkpt lat="42.532491" lon="-6.512975">
        <ele>652.847</ele>
        <time>2021-07-16T12:14:06Z</time>
      </trkpt>
      <trkpt lat="42.532307" lon="-6.512831">
        <ele>654.829</ele>
        <time>2021-07-16T12:14:16Z</time>
      </trkpt>
      <trkpt lat="42.532167" lon="-6.512633">
        <ele>655.721</ele>
        <time>2021-07-16T12:14:26Z</time>
      </trkpt>
      <trkpt lat="42.532072" lon="-6.512527">
        <ele>656.708</ele>
        <time>2021-07-16T12:14:34Z</time>
      </trkpt>
      <trkpt lat="42.531939" lon="-6.512537">
        <ele>657.661</ele>
        <time>2021-07-16T12:14:42Z</time>
      </trkpt>
      <trkpt lat="42.531839" lon="-6.512660">
        <ele>659.623</ele>
        <time>2021-07-16T12:14:51Z</time>
      </trkpt>
      <trkpt lat="42.531852" lon="-6.512677">
        <ele>657.630</ele>
        <time>2021-07-16T12:15:08Z</time>
      </trkpt>
      <trkpt lat="42.531857" lon="-6.512664">
        <ele>657.210</ele>
        <time>2021-07-16T12:15:26Z</time>
      </trkpt>
      <trkpt lat="42.531832" lon="-6.512672">
        <ele>658.134</ele>
        <time>2021-07-16T12:15:32Z</time>
      </trkpt>
      <trkpt lat="42.531821" lon="-6.512683">
        <ele>658.112</ele>
        <time>2021-07-16T12:15:33Z</time>
      </trkpt>
      <trkpt lat="42.531810" lon="-6.512695">
        <ele>658.149</ele>
        <time>2021-07-16T12:15:34Z</time>
      </trkpt>
      <trkpt lat="42.531798" lon="-6.512709">
        <ele>658.617</ele>
        <time>2021-07-16T12:15:35Z</time>
      </trkpt>
      <trkpt lat="42.531786" lon="-6.512720">
        <ele>658.657</ele>
        <time>2021-07-16T12:15:36Z</time>
      </trkpt>
      <trkpt lat="42.531772" lon="-6.512732">
        <ele>659.100</ele>
        <time>2021-07-16T12:15:37Z</time>
      </trkpt>
      <trkpt lat="42.531757" lon="-6.512747">
        <ele>659.120</ele>
        <time>2021-07-16T12:15:38Z</time>
      </trkpt>
      <trkpt lat="42.531740" lon="-6.512760">
        <ele>659.608</ele>
        <time>2021-07-16T12:15:39Z</time>
      </trkpt>
      <trkpt lat="42.531724" lon="-6.512770">
        <ele>659.652</ele>
        <time>2021-07-16T12:15:40Z</time>
      </trkpt>
      <trkpt lat="42.531570" lon="-6.512812">
        <ele>661.034</ele>
        <time>2021-07-16T12:15:48Z</time>
      </trkpt>
      <trkpt lat="42.531398" lon="-6.512746">
        <ele>662.911</ele>
        <time>2021-07-16T12:15:57Z</time>
      </trkpt>
      <trkpt lat="42.531274" lon="-6.512608">
        <ele>663.451</ele>
        <time>2021-07-16T12:16:05Z</time>
      </trkpt>
      <trkpt lat="42.531163" lon="-6.512492">
        <ele>664.445</ele>
        <time>2021-07-16T12:16:13Z</time>
      </trkpt>
      <trkpt lat="42.530947" lon="-6.512311">
        <ele>665.843</ele>
        <time>2021-07-16T12:16:25Z</time>
      </trkpt>
      <trkpt lat="42.530782" lon="-6.512109">
        <ele>666.820</ele>
        <time>2021-07-16T12:16:36Z</time>
      </trkpt>
      <trkpt lat="42.530624" lon="-6.511875">
        <ele>668.778</ele>
        <time>2021-07-16T12:16:48Z</time>
      </trkpt>
      <trkpt lat="42.530554" lon="-6.511690">
        <ele>669.794</ele>
        <time>2021-07-16T12:16:56Z</time>
      </trkpt>
      <trkpt lat="42.530493" lon="-6.511520">
        <ele>670.657</ele>
        <time>2021-07-16T12:17:04Z</time>
      </trkpt>
      <trkpt lat="42.530387" lon="-6.511260">
        <ele>672.122</ele>
        <time>2021-07-16T12:17:15Z</time>
      </trkpt>
      <trkpt lat="42.530303" lon="-6.510971">
        <ele>673.508</ele>
        <time>2021-07-16T12:17:26Z</time>
      </trkpt>
      <trkpt lat="42.530238" lon="-6.510780">
        <ele>674.036</ele>
        <time>2021-07-16T12:17:34Z</time>
      </trkpt>
      <trkpt lat="42.530132" lon="-6.510681">
        <ele>674.998</ele>
        <time>2021-07-16T12:17:41Z</time>
      </trkpt>
      <trkpt lat="42.530019" lon="-6.510733">
        <ele>676.415</ele>
        <time>2021-07-16T12:17:47Z</time>
      </trkpt>
      <trkpt lat="42.529863" lon="-6.510885">
        <ele>678.395</ele>
        <time>2021-07-16T12:17:57Z</time>
      </trkpt>
      <trkpt lat="42.529762" lon="-6.510987">
        <ele>679.729</ele>
        <time>2021-07-16T12:18:05Z</time>
      </trkpt>
      <trkpt lat="42.529606" lon="-6.511070">
        <ele>681.277</ele>
        <time>2021-07-16T12:18:15Z</time>
      </trkpt>
      <trkpt lat="42.529426" lon="-6.511092">
        <ele>682.614</ele>
        <time>2021-07-16T12:18:25Z</time>
      </trkpt>
      <trkpt lat="42.529382" lon="-6.511085">
        <ele>683.122</ele>
        <time>2021-07-16T12:18:29Z</time>
      </trkpt>
      <trkpt lat="42.529357" lon="-6.511107">
        <ele>683.198</ele>
        <time>2021-07-16T12:18:37Z</time>
      </trkpt>
      <trkpt lat="42.529358" lon="-6.511116">
        <ele>685.515</ele>
        <time>2021-07-16T12:18:57Z</time>
      </trkpt>
      <trkpt lat="42.529341" lon="-6.511115">
        <ele>686.026</ele>
        <time>2021-07-16T12:19:17Z</time>
      </trkpt>
      <trkpt lat="42.529340" lon="-6.511102">
        <ele>684.608</ele>
        <time>2021-07-16T12:19:36Z</time>
      </trkpt>
      <trkpt lat="42.529154" lon="-6.511138">
        <ele>686.036</ele>
        <time>2021-07-16T12:19:45Z</time>
      </trkpt>
      <trkpt lat="42.528931" lon="-6.511172">
        <ele>687.418</ele>
        <time>2021-07-16T12:19:56Z</time>
      </trkpt>
      <trkpt lat="42.528755" lon="-6.511231">
        <ele>688.965</ele>
        <time>2021-07-16T12:20:05Z</time>
      </trkpt>
      <trkpt lat="42.528611" lon="-6.511260">
        <ele>690.375</ele>
        <time>2021-07-16T12:20:13Z</time>
      </trkpt>
      <trkpt lat="42.528451" lon="-6.511283">
        <ele>691.399</ele>
        <time>2021-07-16T12:20:22Z</time>
      </trkpt>
      <trkpt lat="42.528280" lon="-6.511302">
        <ele>692.767</ele>
        <time>2021-07-16T12:20:32Z</time>
      </trkpt>
      <trkpt lat="42.528082" lon="-6.511325">
        <ele>694.614</ele>
        <time>2021-07-16T12:20:43Z</time>
      </trkpt>
      <trkpt lat="42.527937" lon="-6.511314">
        <ele>696.172</ele>
        <time>2021-07-16T12:20:51Z</time>
      </trkpt>
      <trkpt lat="42.527696" lon="-6.511299">
        <ele>698.082</ele>
        <time>2021-07-16T12:21:04Z</time>
      </trkpt>
      <trkpt lat="42.527479" lon="-6.511318">
        <ele>699.543</ele>
        <time>2021-07-16T12:21:16Z</time>
      </trkpt>
      <trkpt lat="42.527279" lon="-6.511275">
        <ele>701.917</ele>
        <time>2021-07-16T12:21:27Z</time>
      </trkpt>
      <trkpt lat="42.527099" lon="-6.511174">
        <ele>702.308</ele>
        <time>2021-07-16T12:21:37Z</time>
      </trkpt>
      <trkpt lat="42.526965" lon="-6.511094">
        <ele>703.825</ele>
        <time>2021-07-16T12:21:45Z</time>
      </trkpt>
      <trkpt lat="42.526812" lon="-6.510977">
        <ele>705.227</ele>
        <time>2021-07-16T12:21:55Z</time>
      </trkpt>
      <trkpt lat="42.526713" lon="-6.510888">
        <ele>706.224</ele>
        <time>2021-07-16T12:22:02Z</time>
      </trkpt>
      <trkpt lat="42.526651" lon="-6.510727">
        <ele>706.784</ele>
        <time>2021-07-16T12:22:10Z</time>
      </trkpt>
      <trkpt lat="42.526664" lon="-6.510498">
        <ele>707.648</ele>
        <time>2021-07-16T12:22:19Z</time>
      </trkpt>
      <trkpt lat="42.526708" lon="-6.510301">
        <ele>708.136</ele>
        <time>2021-07-16T12:22:27Z</time>
      </trkpt>
      <trkpt lat="42.526750" lon="-6.510038">
        <ele>708.113</ele>
        <time>2021-07-16T12:22:36Z</time>
      </trkpt>
      <trkpt lat="42.526721" lon="-6.509835">
        <ele>708.121</ele>
        <time>2021-07-16T12:22:44Z</time>
      </trkpt>
      <trkpt lat="42.526657" lon="-6.509597">
        <ele>708.658</ele>
        <time>2021-07-16T12:22:54Z</time>
      </trkpt>
      <trkpt lat="42.526632" lon="-6.509519">
        <ele>709.152</ele>
        <time>2021-07-16T12:22:58Z</time>
      </trkpt>
      <trkpt lat="42.526623" lon="-6.509500">
        <ele>709.117</ele>
        <time>2021-07-16T12:22:59Z</time>
      </trkpt>
      <trkpt lat="42.526612" lon="-6.509481">
        <ele>709.108</ele>
        <time>2021-07-16T12:23:00Z</time>
      </trkpt>
      <trkpt lat="42.526600" lon="-6.509463">
        <ele>709.582</ele>
        <time>2021-07-16T12:23:01Z</time>
      </trkpt>
      <trkpt lat="42.526587" lon="-6.509444">
        <ele>709.534</ele>
        <time>2021-07-16T12:23:02Z</time>
      </trkpt>
      <trkpt lat="42.526576" lon="-6.509424">
        <ele>709.581</ele>
        <time>2021-07-16T12:23:03Z</time>
      </trkpt>
      <trkpt lat="42.526563" lon="-6.509404">
        <ele>709.541</ele>
        <time>2021-07-16T12:23:04Z</time>
      </trkpt>
      <trkpt lat="42.526548" lon="-6.509387">
        <ele>709.585</ele>
        <time>2021-07-16T12:23:05Z</time>
      </trkpt>
      <trkpt lat="42.526410" lon="-6.509233">
        <ele>711.063</ele>
        <time>2021-07-16T12:23:14Z</time>
      </trkpt>
      <trkpt lat="42.526292" lon="-6.509093">
        <ele>712.990</ele>
        <time>2021-07-16T12:23:23Z</time>
      </trkpt>
      <trkpt lat="42.526202" lon="-6.508992">
        <ele>714.488</ele>
        <time>2021-07-16T12:23:30Z</time>
      </trkpt>
      <trkpt lat="42.526100" lon="-6.508844">
        <ele>716.359</ele>
        <time>2021-07-16T12:23:39Z</time>
      </trkpt>
      <trkpt lat="42.526017" lon="-6.508643">
        <ele>717.703</ele>
        <time>2021-07-16T12:23:49Z</time>
      </trkpt>
      <trkpt lat="42.525947" lon="-6.508552">
        <ele>718.723</ele>
        <time>2021-07-16T12:23:57Z</time>
      </trkpt>
      <trkpt lat="42.525832" lon="-6.508582">
        <ele>720.108</ele>
        <time>2021-07-16T12:24:05Z</time>
      </trkpt>
      <trkpt lat="42.525766" lon="-6.508753">
        <ele>721.632</ele>
        <time>2021-07-16T12:24:13Z</time>
      </trkpt>
      <trkpt lat="42.525679" lon="-6.508880">
        <ele>723.064</ele>
        <time>2021-07-16T12:24:20Z</time>
      </trkpt>
      <trkpt lat="42.525660" lon="-6.508889">
        <ele>723.511</ele>
        <time>2021-07-16T12:24:21Z</time>
      </trkpt>
      <trkpt lat="42.525499" lon="-6.508910">
        <ele>724.411</ele>
        <time>2021-07-16T12:24:29Z</time>
      </trkpt>
      <trkpt lat="42.525253" lon="-6.508868">
        <ele>726.415</ele>
        <time>2021-07-16T12:24:42Z</time>
      </trkpt>
      <trkpt lat="42.525052" lon="-6.508829">
        <ele>727.383</ele>
        <time>2021-07-16T12:24:52Z</time>
      </trkpt>
      <trkpt lat="42.524883" lon="-6.508805">
        <ele>728.380</ele>
        <time>2021-07-16T12:25:00Z</time>
      </trkpt>
      <trkpt lat="42.524664" lon="-6.508785">
        <ele>729.778</ele>
        <time>2021-07-16T12:25:11Z</time>
      </trkpt>
      <trkpt lat="42.524523" lon="-6.508780">
        <ele>730.792</ele>
        <time>2021-07-16T12:25:18Z</time>
      </trkpt>
      <trkpt lat="42.524346" lon="-6.508761">
        <ele>732.173</ele>
        <time>2021-07-16T12:25:27Z</time>
      </trkpt>
      <trkpt lat="42.524211" lon="-6.508739">
        <ele>733.120</ele>
        <time>2021-07-16T12:25:35Z</time>
      </trkpt>
      <trkpt lat="42.524102" lon="-6.508706">
        <ele>733.608</ele>
        <time>2021-07-16T12:25:44Z</time>
      </trkpt>
      <trkpt lat="42.524002" lon="-6.508642">
        <ele>735.066</ele>
        <time>2021-07-16T12:25:51Z</time>
      </trkpt>
      <trkpt lat="42.523918" lon="-6.508526">
        <ele>736.018</ele>
        <time>2021-07-16T12:25:59Z</time>
      </trkpt>
      <trkpt lat="42.523850" lon="-6.508339">
        <ele>736.575</ele>
        <time>2021-07-16T12:26:08Z</time>
      </trkpt>
      <trkpt lat="42.523812" lon="-6.508152">
        <ele>736.955</ele>
        <time>2021-07-16T12:26:16Z</time>
      </trkpt>
      <trkpt lat="42.523813" lon="-6.507880">
        <ele>737.449</ele>
        <time>2021-07-16T12:26:27Z</time>
      </trkpt>
      <trkpt lat="42.523838" lon="-6.507624">
        <ele>737.957</ele>
        <time>2021-07-16T12:26:37Z</time>
      </trkpt>
      <trkpt lat="42.523855" lon="-6.507383">
        <ele>739.334</ele>
        <time>2021-07-16T12:26:47Z</time>
      </trkpt>
      <trkpt lat="42.523854" lon="-6.507373">
        <ele>740.892</ele>
        <time>2021-07-16T12:26:54Z</time>
      </trkpt>
      <trkpt lat="42.523860" lon="-6.507382">
        <ele>740.894</ele>
        <time>2021-07-16T12:27:08Z</time>
      </trkpt>
      <trkpt lat="42.523860" lon="-6.507379">
        <ele>739.857</ele>
        <time>2021-07-16T12:27:26Z</time>
      </trkpt>
      <trkpt lat="42.523852" lon="-6.507320">
        <ele>738.922</ele>
        <time>2021-07-16T12:27:42Z</time>
      </trkpt>
      <trkpt lat="42.523819" lon="-6.507089">
        <ele>740.308</ele>
        <time>2021-07-16T12:27:52Z</time>
      </trkpt>
      <trkpt lat="42.523773" lon="-6.506878">
        <ele>741.786</ele>
        <time>2021-07-16T12:28:01Z</time>
      </trkpt>
      <trkpt lat="42.523735" lon="-6.506710">
        <ele>743.278</ele>
        <time>2021-07-16T12:28:08Z</time>
      </trkpt>
      <trkpt lat="42.523681" lon="-6.506445">
        <ele>745.115</ele>
        <time>2021-07-16T12:28:19Z</time>
      </trkpt>
      <trkpt lat="42.523651" lon="-6.506282">
        <ele>746.135</ele>
        <time>2021-07-16T12:28:26Z</time>
      </trkpt>
      <trkpt lat="42.523627" lon="-6.506098">
        <ele>747.079</ele>
        <time>2021-07-16T12:28:34Z</time>
      </trkpt>
      <trkpt lat="42.523626" lon="-6.506077">
        <ele>747.087</ele>
        <time>2021-07-16T12:28:35Z</time>
      </trkpt>
      <trkpt lat="42.523620" lon="-6.506058">
        <ele>747.094</ele>
        <time>2021-07-16T12:28:36Z</time>
      </trkpt>
      <trkpt lat="42.523617" lon="-6.506037">
        <ele>747.552</ele>
        <time>2021-07-16T12:28:37Z</time>
      </trkpt>
      <trkpt lat="42.523614" lon="-6.506015">
        <ele>747.517</ele>
        <time>2021-07-16T12:28:38Z</time>
      </trkpt>
      <trkpt lat="42.523609" lon="-6.505995">
        <ele>747.587</ele>
        <time>2021-07-16T12:28:39Z</time>
      </trkpt>
      <trkpt lat="42.523608" lon="-6.505971">
        <ele>747.515</ele>
        <time>2021-07-16T12:28:40Z</time>
      </trkpt>
      <trkpt lat="42.523607" lon="-6.505950">
        <ele>747.508</ele>
        <time>2021-07-16T12:28:41Z</time>
      </trkpt>
      <trkpt lat="42.523606" lon="-6.505926">
        <ele>747.568</ele>
        <time>2021-07-16T12:28:42Z</time>
      </trkpt>
      <trkpt lat="42.523606" lon="-6.505903">
        <ele>747.540</ele>
        <time>2021-07-16T12:28:43Z</time>
      </trkpt>
      <trkpt lat="42.523595" lon="-6.505611">
        <ele>749.057</ele>
        <time>2021-07-16T12:28:55Z</time>
      </trkpt>
      <trkpt lat="42.523610" lon="-6.505421">
        <ele>749.037</ele>
        <time>2021-07-16T12:29:03Z</time>
      </trkpt>
      <trkpt lat="42.523636" lon="-6.505183">
        <ele>750.431</ele>
        <time>2021-07-16T12:29:13Z</time>
      </trkpt>
      <trkpt lat="42.523673" lon="-6.504971">
        <ele>751.819</ele>
        <time>2021-07-16T12:29:22Z</time>
      </trkpt>
      <trkpt lat="42.523737" lon="-6.504765">
        <ele>753.346</ele>
        <time>2021-07-16T12:29:31Z</time>
      </trkpt>
      <trkpt lat="42.523786" lon="-6.504572">
        <ele>755.784</ele>
        <time>2021-07-16T12:29:39Z</time>
      </trkpt>
      <trkpt lat="42.523849" lon="-6.504310">
        <ele>757.671</ele>
        <time>2021-07-16T12:29:50Z</time>
      </trkpt>
      <trkpt lat="42.523855" lon="-6.504247">
        <ele>758.641</ele>
        <time>2021-07-16T12:29:54Z</time>
      </trkpt>
      <trkpt lat="42.523855" lon="-6.504229">
        <ele>758.615</ele>
        <time>2021-07-16T12:29:55Z</time>
      </trkpt>
      <trkpt lat="42.523858" lon="-6.504206">
        <ele>758.608</ele>
        <time>2021-07-16T12:29:56Z</time>
      </trkpt>
      <trkpt lat="42.523861" lon="-6.504183">
        <ele>758.644</ele>
        <time>2021-07-16T12:29:57Z</time>
      </trkpt>
      <trkpt lat="42.523864" lon="-6.504159">
        <ele>758.656</ele>
        <time>2021-07-16T12:29:58Z</time>
      </trkpt>
      <trkpt lat="42.523882" lon="-6.503872">
        <ele>759.523</ele>
        <time>2021-07-16T12:30:10Z</time>
      </trkpt>
      <trkpt lat="42.523881" lon="-6.503611">
        <ele>760.023</ele>
        <time>2021-07-16T12:30:21Z</time>
      </trkpt>
      <trkpt lat="42.523870" lon="-6.503491">
        <ele>761.067</ele>
        <time>2021-07-16T12:30:26Z</time>
      </trkpt>
      <trkpt lat="42.523868" lon="-6.503473">
        <ele>761.015</ele>
        <time>2021-07-16T12:30:27Z</time>
      </trkpt>
      <trkpt lat="42.523869" lon="-6.503455">
        <ele>761.572</ele>
        <time>2021-07-16T12:30:28Z</time>
      </trkpt>
      <trkpt lat="42.523866" lon="-6.503436">
        <ele>761.570</ele>
        <time>2021-07-16T12:30:29Z</time>
      </trkpt>
      <trkpt lat="42.523861" lon="-6.503418">
        <ele>761.549</ele>
        <time>2021-07-16T12:30:30Z</time>
      </trkpt>
      <trkpt lat="42.523810" lon="-6.503239">
        <ele>762.902</ele>
        <time>2021-07-16T12:30:39Z</time>
      </trkpt>
      <trkpt lat="42.523773" lon="-6.503033">
        <ele>763.922</ele>
        <time>2021-07-16T12:30:49Z</time>
      </trkpt>
      <trkpt lat="42.523701" lon="-6.502909">
        <ele>766.308</ele>
        <time>2021-07-16T12:30:58Z</time>
      </trkpt>
      <trkpt lat="42.523686" lon="-6.502902">
        <ele>766.791</ele>
        <time>2021-07-16T12:30:59Z</time>
      </trkpt>
      <trkpt lat="42.523628" lon="-6.502903">
        <ele>767.783</ele>
        <time>2021-07-16T12:31:03Z</time>
      </trkpt>
      <trkpt lat="42.523616" lon="-6.502914">
        <ele>768.230</ele>
        <time>2021-07-16T12:31:04Z</time>
      </trkpt>
      <trkpt lat="42.523552" lon="-6.503066">
        <ele>770.670</ele>
        <time>2021-07-16T12:31:13Z</time>
      </trkpt>
      <trkpt lat="42.523510" lon="-6.503250">
        <ele>772.074</ele>
        <time>2021-07-16T12:31:22Z</time>
      </trkpt>
      <trkpt lat="42.523472" lon="-6.503436">
        <ele>773.032</ele>
        <time>2021-07-16T12:31:31Z</time>
      </trkpt>
      <trkpt lat="42.523403" lon="-6.503617">
        <ele>774.029</ele>
        <time>2021-07-16T12:31:40Z</time>
      </trkpt>
      <trkpt lat="42.523293" lon="-6.503832">
        <ele>777.327</ele>
        <time>2021-07-16T12:31:51Z</time>
      </trkpt>
      <trkpt lat="42.523219" lon="-6.503948">
        <ele>779.268</ele>
        <time>2021-07-16T12:31:59Z</time>
      </trkpt>
      <trkpt lat="42.523194" lon="-6.503966">
        <ele>779.242</ele>
        <time>2021-07-16T12:32:02Z</time>
      </trkpt>
      <trkpt lat="42.523181" lon="-6.503970">
        <ele>779.226</ele>
        <time>2021-07-16T12:32:03Z</time>
      </trkpt>
      <trkpt lat="42.523169" lon="-6.503971">
        <ele>779.208</ele>
        <time>2021-07-16T12:32:04Z</time>
      </trkpt>
      <trkpt lat="42.523165" lon="-6.503983">
        <ele>780.793</ele>
        <time>2021-07-16T12:32:10Z</time>
      </trkpt>
      <trkpt lat="42.523165" lon="-6.503952">
        <ele>780.775</ele>
        <time>2021-07-16T12:32:16Z</time>
      </trkpt>
      <trkpt lat="42.523164" lon="-6.503938">
        <ele>780.252</ele>
        <time>2021-07-16T12:32:23Z</time>
      </trkpt>
      <trkpt lat="42.523159" lon="-6.503944">
        <ele>779.242</ele>
        <time>2021-07-16T12:32:33Z</time>
      </trkpt>
      <trkpt lat="42.523162" lon="-6.503937">
        <ele>778.316</ele>
        <time>2021-07-16T12:32:49Z</time>
      </trkpt>
      <trkpt lat="42.523162" lon="-6.503969">
        <ele>778.844</ele>
        <time>2021-07-16T12:32:55Z</time>
      </trkpt>
      <trkpt lat="42.523122" lon="-6.504005">
        <ele>780.291</ele>
        <time>2021-07-16T12:33:01Z</time>
      </trkpt>
      <trkpt lat="42.523115" lon="-6.504013">
        <ele>780.789</ele>
        <time>2021-07-16T12:33:02Z</time>
      </trkpt>
      <trkpt lat="42.523044" lon="-6.504133">
        <ele>784.095</ele>
        <time>2021-07-16T12:33:13Z</time>
      </trkpt>
      <trkpt lat="42.522980" lon="-6.504224">
        <ele>785.549</ele>
        <time>2021-07-16T12:33:24Z</time>
      </trkpt>
      <trkpt lat="42.522970" lon="-6.504248">
        <ele>786.023</ele>
        <time>2021-07-16T12:33:33Z</time>
      </trkpt>
      <trkpt lat="42.522977" lon="-6.504265">
        <ele>786.908</ele>
        <time>2021-07-16T12:33:40Z</time>
      </trkpt>
      <trkpt lat="42.522974" lon="-6.504316">
        <ele>786.526</ele>
        <time>2021-07-16T12:33:44Z</time>
      </trkpt>
      <trkpt lat="42.522971" lon="-6.504332">
        <ele>786.558</ele>
        <time>2021-07-16T12:33:45Z</time>
      </trkpt>
      <trkpt lat="42.522965" lon="-6.504349">
        <ele>786.575</ele>
        <time>2021-07-16T12:33:46Z</time>
      </trkpt>
      <trkpt lat="42.522958" lon="-6.504362">
        <ele>786.575</ele>
        <time>2021-07-16T12:33:47Z</time>
      </trkpt>
      <trkpt lat="42.522950" lon="-6.504374">
        <ele>786.569</ele>
        <time>2021-07-16T12:33:48Z</time>
      </trkpt>
      <trkpt lat="42.522942" lon="-6.504386">
        <ele>786.567</ele>
        <time>2021-07-16T12:33:49Z</time>
      </trkpt>
      <trkpt lat="42.522935" lon="-6.504401">
        <ele>786.034</ele>
        <time>2021-07-16T12:33:50Z</time>
      </trkpt>
      <trkpt lat="42.522929" lon="-6.504417">
        <ele>786.022</ele>
        <time>2021-07-16T12:33:51Z</time>
      </trkpt>
      <trkpt lat="42.522855" lon="-6.504588">
        <ele>785.554</ele>
        <time>2021-07-16T12:34:02Z</time>
      </trkpt>
      <trkpt lat="42.522737" lon="-6.504687">
        <ele>786.056</ele>
        <time>2021-07-16T12:34:14Z</time>
      </trkpt>
      <trkpt lat="42.522678" lon="-6.504733">
        <ele>786.911</ele>
        <time>2021-07-16T12:34:24Z</time>
      </trkpt>
      <trkpt lat="42.522679" lon="-6.504732">
        <ele>786.908</ele>
        <time>2021-07-16T12:34:37Z</time>
      </trkpt>
      <trkpt lat="42.522686" lon="-6.504725">
        <ele>787.462</ele>
        <time>2021-07-16T12:35:03Z</time>
      </trkpt>
      <trkpt lat="42.522679" lon="-6.504718">
        <ele>785.584</ele>
        <time>2021-07-16T12:35:24Z</time>
      </trkpt>
      <trkpt lat="42.522685" lon="-6.504710">
        <ele>784.561</ele>
        <time>2021-07-16T12:35:41Z</time>
      </trkpt>
      <trkpt lat="42.522655" lon="-6.504719">
        <ele>786.091</ele>
        <time>2021-07-16T12:36:03Z</time>
      </trkpt>
      <trkpt lat="42.522649" lon="-6.504715">
        <ele>784.055</ele>
        <time>2021-07-16T12:36:25Z</time>
      </trkpt>
      <trkpt lat="42.522659" lon="-6.504719">
        <ele>785.053</ele>
        <time>2021-07-16T12:36:42Z</time>
      </trkpt>
      <trkpt lat="42.522665" lon="-6.504733">
        <ele>785.030</ele>
        <time>2021-07-16T12:36:57Z</time>
      </trkpt>
      <trkpt lat="42.522679" lon="-6.504709">
        <ele>787.488</ele>
        <time>2021-07-16T12:37:13Z</time>
      </trkpt>
      <trkpt lat="42.522694" lon="-6.504720">
        <ele>789.813</ele>
        <time>2021-07-16T12:37:40Z</time>
      </trkpt>
      <trkpt lat="42.522669" lon="-6.504726">
        <ele>788.443</ele>
        <time>2021-07-16T12:37:59Z</time>
      </trkpt>
      <trkpt lat="42.522664" lon="-6.504747">
        <ele>787.907</ele>
        <time>2021-07-16T12:38:20Z</time>
      </trkpt>
      <trkpt lat="42.522663" lon="-6.504740">
        <ele>787.408</ele>
        <time>2021-07-16T12:38:38Z</time>
      </trkpt>
      <trkpt lat="42.522684" lon="-6.504695">
        <ele>786.098</ele>
        <time>2021-07-16T12:39:02Z</time>
      </trkpt>
      <trkpt lat="42.522673" lon="-6.504707">
        <ele>787.910</ele>
        <time>2021-07-16T12:39:24Z</time>
      </trkpt>
      <trkpt lat="42.522675" lon="-6.504707">
        <ele>787.437</ele>
        <time>2021-07-16T12:39:40Z</time>
      </trkpt>
      <trkpt lat="42.522685" lon="-6.504725">
        <ele>785.097</ele>
        <time>2021-07-16T12:40:10Z</time>
      </trkpt>
      <trkpt lat="42.522678" lon="-6.504711">
        <ele>784.591</ele>
        <time>2021-07-16T12:40:31Z</time>
      </trkpt>
      <trkpt lat="42.522677" lon="-6.504704">
        <ele>786.969</ele>
        <time>2021-07-16T12:40:53Z</time>
      </trkpt>
      <trkpt lat="42.522657" lon="-6.504705">
        <ele>784.076</ele>
        <time>2021-07-16T12:41:24Z</time>
      </trkpt>
      <trkpt lat="42.522667" lon="-6.504729">
        <ele>782.664</ele>
        <time>2021-07-16T12:41:53Z</time>
      </trkpt>
      <trkpt lat="42.522671" lon="-6.504732">
        <ele>783.199</ele>
        <time>2021-07-16T12:42:16Z</time>
      </trkpt>
      <trkpt lat="42.522669" lon="-6.504729">
        <ele>784.007</ele>
        <time>2021-07-16T12:42:36Z</time>
      </trkpt>
      <trkpt lat="42.522671" lon="-6.504727">
        <ele>784.027</ele>
        <time>2021-07-16T12:42:43Z</time>
      </trkpt>
      <trkpt lat="42.522651" lon="-6.504650">
        <ele>785.008</ele>
        <time>2021-07-16T12:42:51Z</time>
      </trkpt>
      <trkpt lat="42.522598" lon="-6.504533">
        <ele>786.916</ele>
        <time>2021-07-16T12:43:03Z</time>
      </trkpt>
      <trkpt lat="42.522596" lon="-6.504535">
        <ele>786.928</ele>
        <time>2021-07-16T12:43:10Z</time>
      </trkpt>
      <trkpt lat="42.522597" lon="-6.504504">
        <ele>786.935</ele>
        <time>2021-07-16T12:43:15Z</time>
      </trkpt>
      <trkpt lat="42.522599" lon="-6.504489">
        <ele>787.465</ele>
        <time>2021-07-16T12:43:16Z</time>
      </trkpt>
      <trkpt lat="42.522601" lon="-6.504473">
        <ele>787.479</ele>
        <time>2021-07-16T12:43:17Z</time>
      </trkpt>
      <trkpt lat="42.522606" lon="-6.504454">
        <ele>787.467</ele>
        <time>2021-07-16T12:43:18Z</time>
      </trkpt>
      <trkpt lat="42.522608" lon="-6.504433">
        <ele>787.424</ele>
        <time>2021-07-16T12:43:19Z</time>
      </trkpt>
      <trkpt lat="42.522610" lon="-6.504416">
        <ele>787.462</ele>
        <time>2021-07-16T12:43:20Z</time>
      </trkpt>
      <trkpt lat="42.522614" lon="-6.504397">
        <ele>787.494</ele>
        <time>2021-07-16T12:43:21Z</time>
      </trkpt>
      <trkpt lat="42.522621" lon="-6.504381">
        <ele>787.457</ele>
        <time>2021-07-16T12:43:22Z</time>
      </trkpt>
      <trkpt lat="42.522628" lon="-6.504364">
        <ele>787.922</ele>
        <time>2021-07-16T12:43:23Z</time>
      </trkpt>
      <trkpt lat="42.522635" lon="-6.504346">
        <ele>787.908</ele>
        <time>2021-07-16T12:43:24Z</time>
      </trkpt>
      <trkpt lat="42.522643" lon="-6.504329">
        <ele>787.956</ele>
        <time>2021-07-16T12:43:25Z</time>
      </trkpt>
      <trkpt lat="42.522653" lon="-6.504307">
        <ele>787.998</ele>
        <time>2021-07-16T12:43:26Z</time>
      </trkpt>
      <trkpt lat="42.522663" lon="-6.504290">
        <ele>787.945</ele>
        <time>2021-07-16T12:43:27Z</time>
      </trkpt>
      <trkpt lat="42.522672" lon="-6.504272">
        <ele>787.965</ele>
        <time>2021-07-16T12:43:28Z</time>
      </trkpt>
      <trkpt lat="42.522683" lon="-6.504251">
        <ele>787.999</ele>
        <time>2021-07-16T12:43:29Z</time>
      </trkpt>
      <trkpt lat="42.522769" lon="-6.504097">
        <ele>788.937</ele>
        <time>2021-07-16T12:43:37Z</time>
      </trkpt>
      <trkpt lat="42.522920" lon="-6.503861">
        <ele>788.974</ele>
        <time>2021-07-16T12:43:49Z</time>
      </trkpt>
      <trkpt lat="42.523052" lon="-6.503632">
        <ele>789.362</ele>
        <time>2021-07-16T12:44:00Z</time>
      </trkpt>
      <trkpt lat="42.523176" lon="-6.503328">
        <ele>789.858</ele>
        <time>2021-07-16T12:44:12Z</time>
      </trkpt>
      <trkpt lat="42.523248" lon="-6.503051">
        <ele>790.352</ele>
        <time>2021-07-16T12:44:22Z</time>
      </trkpt>
      <trkpt lat="42.523279" lon="-6.502763">
        <ele>790.317</ele>
        <time>2021-07-16T12:44:32Z</time>
      </trkpt>
      <trkpt lat="42.523362" lon="-6.502509">
        <ele>791.708</ele>
        <time>2021-07-16T12:44:41Z</time>
      </trkpt>
      <trkpt lat="42.523500" lon="-6.502216">
        <ele>793.212</ele>
        <time>2021-07-16T12:44:52Z</time>
      </trkpt>
      <trkpt lat="42.523612" lon="-6.501988">
        <ele>793.784</ele>
        <time>2021-07-16T12:45:01Z</time>
      </trkpt>
      <trkpt lat="42.523685" lon="-6.501706">
        <ele>793.721</ele>
        <time>2021-07-16T12:45:11Z</time>
      </trkpt>
      <trkpt lat="42.523663" lon="-6.501441">
        <ele>794.111</ele>
        <time>2021-07-16T12:45:20Z</time>
      </trkpt>
      <trkpt lat="42.523607" lon="-6.501182">
        <ele>795.675</ele>
        <time>2021-07-16T12:45:29Z</time>
      </trkpt>
      <trkpt lat="42.523572" lon="-6.500874">
        <ele>796.553</ele>
        <time>2021-07-16T12:45:40Z</time>
      </trkpt>
      <trkpt lat="42.523607" lon="-6.500562">
        <ele>797.510</ele>
        <time>2021-07-16T12:45:50Z</time>
      </trkpt>
      <trkpt lat="42.523668" lon="-6.500244">
        <ele>798.078</ele>
        <time>2021-07-16T12:46:01Z</time>
      </trkpt>
      <trkpt lat="42.523701" lon="-6.499968">
        <ele>799.474</ele>
        <time>2021-07-16T12:46:10Z</time>
      </trkpt>
      <trkpt lat="42.523763" lon="-6.499677">
        <ele>799.956</ele>
        <time>2021-07-16T12:46:20Z</time>
      </trkpt>
      <trkpt lat="42.523930" lon="-6.499414">
        <ele>800.921</ele>
        <time>2021-07-16T12:46:31Z</time>
      </trkpt>
      <trkpt lat="42.524062" lon="-6.499241">
        <ele>801.408</ele>
        <time>2021-07-16T12:46:39Z</time>
      </trkpt>
      <trkpt lat="42.524226" lon="-6.499092">
        <ele>801.854</ele>
        <time>2021-07-16T12:46:48Z</time>
      </trkpt>
      <trkpt lat="42.524319" lon="-6.498947">
        <ele>801.896</ele>
        <time>2021-07-16T12:46:55Z</time>
      </trkpt>
      <trkpt lat="42.524392" lon="-6.498658">
        <ele>802.843</ele>
        <time>2021-07-16T12:47:05Z</time>
      </trkpt>
      <trkpt lat="42.524499" lon="-6.498457">
        <ele>803.873</ele>
        <time>2021-07-16T12:47:13Z</time>
      </trkpt>
      <trkpt lat="42.524649" lon="-6.498398">
        <ele>804.277</ele>
        <time>2021-07-16T12:47:20Z</time>
      </trkpt>
      <trkpt lat="42.524820" lon="-6.498396">
        <ele>806.235</ele>
        <time>2021-07-16T12:47:28Z</time>
      </trkpt>
      <trkpt lat="42.524880" lon="-6.498417">
        <ele>806.622</ele>
        <time>2021-07-16T12:47:31Z</time>
      </trkpt>
      <trkpt lat="42.525014" lon="-6.498569">
        <ele>808.680</ele>
        <time>2021-07-16T12:47:39Z</time>
      </trkpt>
      <trkpt lat="42.525140" lon="-6.498711">
        <ele>809.567</ele>
        <time>2021-07-16T12:47:47Z</time>
      </trkpt>
      <trkpt lat="42.525300" lon="-6.498729">
        <ele>811.081</ele>
        <time>2021-07-16T12:47:56Z</time>
      </trkpt>
      <trkpt lat="42.525341" lon="-6.498708">
        <ele>811.019</ele>
        <time>2021-07-16T12:47:59Z</time>
      </trkpt>
      <trkpt lat="42.525351" lon="-6.498701">
        <ele>811.008</ele>
        <time>2021-07-16T12:48:00Z</time>
      </trkpt>
      <trkpt lat="42.525362" lon="-6.498696">
        <ele>811.073</ele>
        <time>2021-07-16T12:48:01Z</time>
      </trkpt>
      <trkpt lat="42.525468" lon="-6.498628">
        <ele>811.425</ele>
        <time>2021-07-16T12:48:09Z</time>
      </trkpt>
      <trkpt lat="42.525589" lon="-6.498536">
        <ele>811.972</ele>
        <time>2021-07-16T12:48:18Z</time>
      </trkpt>
      <trkpt lat="42.525699" lon="-6.498426">
        <ele>812.492</ele>
        <time>2021-07-16T12:48:27Z</time>
      </trkpt>
      <trkpt lat="42.525789" lon="-6.498191">
        <ele>814.386</ele>
        <time>2021-07-16T12:48:39Z</time>
      </trkpt>
      <trkpt lat="42.525826" lon="-6.497940">
        <ele>816.374</ele>
        <time>2021-07-16T12:48:50Z</time>
      </trkpt>
      <trkpt lat="42.525849" lon="-6.497835">
        <ele>816.711</ele>
        <time>2021-07-16T12:48:55Z</time>
      </trkpt>
      <trkpt lat="42.525855" lon="-6.497817">
        <ele>817.229</ele>
        <time>2021-07-16T12:48:56Z</time>
      </trkpt>
      <trkpt lat="42.525865" lon="-6.497797">
        <ele>817.223</ele>
        <time>2021-07-16T12:48:57Z</time>
      </trkpt>
      <trkpt lat="42.525875" lon="-6.497775">
        <ele>817.283</ele>
        <time>2021-07-16T12:48:58Z</time>
      </trkpt>
      <trkpt lat="42.525887" lon="-6.497755">
        <ele>817.211</ele>
        <time>2021-07-16T12:48:59Z</time>
      </trkpt>
      <trkpt lat="42.525979" lon="-6.497637">
        <ele>817.708</ele>
        <time>2021-07-16T12:49:06Z</time>
      </trkpt>
      <trkpt lat="42.526152" lon="-6.497536">
        <ele>819.679</ele>
        <time>2021-07-16T12:49:17Z</time>
      </trkpt>
      <trkpt lat="42.526281" lon="-6.497443">
        <ele>820.631</ele>
        <time>2021-07-16T12:49:27Z</time>
      </trkpt>
      <trkpt lat="42.526289" lon="-6.497434">
        <ele>821.158</ele>
        <time>2021-07-16T12:49:34Z</time>
      </trkpt>
      <trkpt lat="42.526296" lon="-6.497430">
        <ele>817.738</ele>
        <time>2021-07-16T12:49:53Z</time>
      </trkpt>
      <trkpt lat="42.526304" lon="-6.497402">
        <ele>818.782</ele>
        <time>2021-07-16T12:50:05Z</time>
      </trkpt>
      <trkpt lat="42.526341" lon="-6.497386">
        <ele>819.610</ele>
        <time>2021-07-16T12:50:11Z</time>
      </trkpt>
      <trkpt lat="42.526399" lon="-6.497330">
        <ele>820.127</ele>
        <time>2021-07-16T12:50:16Z</time>
      </trkpt>
      <trkpt lat="42.526409" lon="-6.497316">
        <ele>820.665</ele>
        <time>2021-07-16T12:50:17Z</time>
      </trkpt>
      <trkpt lat="42.526522" lon="-6.497182">
        <ele>822.049</ele>
        <time>2021-07-16T12:50:27Z</time>
      </trkpt>
      <trkpt lat="42.526626" lon="-6.497022">
        <ele>823.902</ele>
        <time>2021-07-16T12:50:37Z</time>
      </trkpt>
      <trkpt lat="42.526715" lon="-6.496854">
        <ele>825.422</ele>
        <time>2021-07-16T12:50:46Z</time>
      </trkpt>
      <trkpt lat="42.526817" lon="-6.496648">
        <ele>826.808</ele>
        <time>2021-07-16T12:50:56Z</time>
      </trkpt>
      <trkpt lat="42.526892" lon="-6.496439">
        <ele>827.341</ele>
        <time>2021-07-16T12:51:05Z</time>
      </trkpt>
      <trkpt lat="42.526999" lon="-6.496226">
        <ele>828.733</ele>
        <time>2021-07-16T12:51:15Z</time>
      </trkpt>
      <trkpt lat="42.527123" lon="-6.496105">
        <ele>829.210</ele>
        <time>2021-07-16T12:51:23Z</time>
      </trkpt>
      <trkpt lat="42.527266" lon="-6.496046">
        <ele>830.240</ele>
        <time>2021-07-16T12:51:31Z</time>
      </trkpt>
      <trkpt lat="42.527458" lon="-6.496040">
        <ele>832.674</ele>
        <time>2021-07-16T12:51:41Z</time>
      </trkpt>
      <trkpt lat="42.527644" lon="-6.496136">
        <ele>834.022</ele>
        <time>2021-07-16T12:51:51Z</time>
      </trkpt>
      <trkpt lat="42.527789" lon="-6.496221">
        <ele>835.589</ele>
        <time>2021-07-16T12:51:59Z</time>
      </trkpt>
      <trkpt lat="42.527921" lon="-6.496290">
        <ele>836.067</ele>
        <time>2021-07-16T12:52:07Z</time>
      </trkpt>
      <trkpt lat="42.527932" lon="-6.496291">
        <ele>836.455</ele>
        <time>2021-07-16T12:52:08Z</time>
      </trkpt>
      <trkpt lat="42.527943" lon="-6.496292">
        <ele>836.407</ele>
        <time>2021-07-16T12:52:09Z</time>
      </trkpt>
      <trkpt lat="42.527954" lon="-6.496292">
        <ele>836.417</ele>
        <time>2021-07-16T12:52:10Z</time>
      </trkpt>
      <trkpt lat="42.527967" lon="-6.496292">
        <ele>836.408</ele>
        <time>2021-07-16T12:52:11Z</time>
      </trkpt>
      <trkpt lat="42.527980" lon="-6.496294">
        <ele>836.952</ele>
        <time>2021-07-16T12:52:12Z</time>
      </trkpt>
      <trkpt lat="42.527992" lon="-6.496293">
        <ele>836.984</ele>
        <time>2021-07-16T12:52:13Z</time>
      </trkpt>
      <trkpt lat="42.528005" lon="-6.496291">
        <ele>836.911</ele>
        <time>2021-07-16T12:52:14Z</time>
      </trkpt>
      <trkpt lat="42.528058" lon="-6.496275">
        <ele>836.911</ele>
        <time>2021-07-16T12:52:18Z</time>
      </trkpt>
      <trkpt lat="42.528152" lon="-6.496168">
        <ele>837.975</ele>
        <time>2021-07-16T12:52:27Z</time>
      </trkpt>
      <trkpt lat="42.528200" lon="-6.496016">
        <ele>838.823</ele>
        <time>2021-07-16T12:52:35Z</time>
      </trkpt>
      <trkpt lat="42.528204" lon="-6.495994">
        <ele>838.850</ele>
        <time>2021-07-16T12:52:36Z</time>
      </trkpt>
      <trkpt lat="42.528204" lon="-6.495974">
        <ele>838.888</ele>
        <time>2021-07-16T12:52:37Z</time>
      </trkpt>
      <trkpt lat="42.528206" lon="-6.495955">
        <ele>838.858</ele>
        <time>2021-07-16T12:52:38Z</time>
      </trkpt>
      <trkpt lat="42.528208" lon="-6.495931">
        <ele>838.852</ele>
        <time>2021-07-16T12:52:39Z</time>
      </trkpt>
      <trkpt lat="42.528211" lon="-6.495909">
        <ele>838.817</ele>
        <time>2021-07-16T12:52:40Z</time>
      </trkpt>
      <trkpt lat="42.528215" lon="-6.495887">
        <ele>839.308</ele>
        <time>2021-07-16T12:52:41Z</time>
      </trkpt>
      <trkpt lat="42.528238" lon="-6.495699">
        <ele>840.372</ele>
        <time>2021-07-16T12:52:50Z</time>
      </trkpt>
      <trkpt lat="42.528253" lon="-6.495504">
        <ele>840.824</ele>
        <time>2021-07-16T12:52:59Z</time>
      </trkpt>
      <trkpt lat="42.528281" lon="-6.495220">
        <ele>841.771</ele>
        <time>2021-07-16T12:53:11Z</time>
      </trkpt>
      <trkpt lat="42.528313" lon="-6.494958">
        <ele>842.781</ele>
        <time>2021-07-16T12:53:21Z</time>
      </trkpt>
      <trkpt lat="42.528340" lon="-6.494644">
        <ele>844.125</ele>
        <time>2021-07-16T12:53:33Z</time>
      </trkpt>
      <trkpt lat="42.528327" lon="-6.494427">
        <ele>845.143</ele>
        <time>2021-07-16T12:53:41Z</time>
      </trkpt>
      <trkpt lat="42.528300" lon="-6.494252">
        <ele>846.590</ele>
        <time>2021-07-16T12:53:48Z</time>
      </trkpt>
      <trkpt lat="42.528312" lon="-6.494242">
        <ele>846.598</ele>
        <time>2021-07-16T12:53:49Z</time>
      </trkpt>
      <trkpt lat="42.528335" lon="-6.494235">
        <ele>848.552</ele>
        <time>2021-07-16T12:53:56Z</time>
      </trkpt>
      <trkpt lat="42.528336" lon="-6.494233">
        <ele>847.553</ele>
        <time>2021-07-16T12:54:06Z</time>
      </trkpt>
      <trkpt lat="42.528336" lon="-6.494218">
        <ele>847.508</ele>
        <time>2021-07-16T12:54:17Z</time>
      </trkpt>
      <trkpt lat="42.528322" lon="-6.494211">
        <ele>849.408</ele>
        <time>2021-07-16T12:54:31Z</time>
      </trkpt>
      <trkpt lat="42.528342" lon="-6.494229">
        <ele>848.052</ele>
        <time>2021-07-16T12:54:52Z</time>
      </trkpt>
      <trkpt lat="42.528325" lon="-6.494251">
        <ele>849.434</ele>
        <time>2021-07-16T12:55:24Z</time>
      </trkpt>
      <trkpt lat="42.528328" lon="-6.494254">
        <ele>848.551</ele>
        <time>2021-07-16T12:55:55Z</time>
      </trkpt>
      <trkpt lat="42.528314" lon="-6.494267">
        <ele>849.471</ele>
        <time>2021-07-16T12:56:19Z</time>
      </trkpt>
      <trkpt lat="42.528321" lon="-6.494245">
        <ele>846.565</ele>
        <time>2021-07-16T12:56:39Z</time>
      </trkpt>
      <trkpt lat="42.528326" lon="-6.494255">
        <ele>847.013</ele>
        <time>2021-07-16T12:56:56Z</time>
      </trkpt>
      <trkpt lat="42.528337" lon="-6.494221">
        <ele>847.010</ele>
        <time>2021-07-16T12:57:23Z</time>
      </trkpt>
      <trkpt lat="42.528345" lon="-6.494228">
        <ele>846.588</ele>
        <time>2021-07-16T12:57:47Z</time>
      </trkpt>
      <trkpt lat="42.528334" lon="-6.494228">
        <ele>847.591</ele>
        <time>2021-07-16T12:58:10Z</time>
      </trkpt>
      <trkpt lat="42.528343" lon="-6.494227">
        <ele>844.681</ele>
        <time>2021-07-16T12:58:42Z</time>
      </trkpt>
      <trkpt lat="42.528341" lon="-6.494223">
        <ele>843.619</ele>
        <time>2021-07-16T12:59:07Z</time>
      </trkpt>
      <trkpt lat="42.528332" lon="-6.494240">
        <ele>842.208</ele>
        <time>2021-07-16T12:59:30Z</time>
      </trkpt>
      <trkpt lat="42.528337" lon="-6.494245">
        <ele>844.196</ele>
        <time>2021-07-16T12:59:58Z</time>
      </trkpt>
      <trkpt lat="42.528340" lon="-6.494243">
        <ele>844.178</ele>
        <time>2021-07-16T13:00:26Z</time>
      </trkpt>
      <trkpt lat="42.528326" lon="-6.494244">
        <ele>843.285</ele>
        <time>2021-07-16T13:00:46Z</time>
      </trkpt>
      <trkpt lat="42.528331" lon="-6.494221">
        <ele>845.665</ele>
        <time>2021-07-16T13:01:03Z</time>
      </trkpt>
      <trkpt lat="42.528312" lon="-6.494231">
        <ele>846.129</ele>
        <time>2021-07-16T13:01:10Z</time>
      </trkpt>
      <trkpt lat="42.528293" lon="-6.494232">
        <ele>846.157</ele>
        <time>2021-07-16T13:01:16Z</time>
      </trkpt>
      <trkpt lat="42.528279" lon="-6.494224">
        <ele>846.134</ele>
        <time>2021-07-16T13:01:17Z</time>
      </trkpt>
      <trkpt lat="42.528268" lon="-6.494213">
        <ele>846.122</ele>
        <time>2021-07-16T13:01:18Z</time>
      </trkpt>
      <trkpt lat="42.528257" lon="-6.494197">
        <ele>846.168</ele>
        <time>2021-07-16T13:01:19Z</time>
      </trkpt>
      <trkpt lat="42.528244" lon="-6.494183">
        <ele>846.142</ele>
        <time>2021-07-16T13:01:20Z</time>
      </trkpt>
      <trkpt lat="42.528230" lon="-6.494167">
        <ele>846.126</ele>
        <time>2021-07-16T13:01:21Z</time>
      </trkpt>
      <trkpt lat="42.528216" lon="-6.494149">
        <ele>846.108</ele>
        <time>2021-07-16T13:01:22Z</time>
      </trkpt>
      <trkpt lat="42.528105" lon="-6.493968">
        <ele>847.013</ele>
        <time>2021-07-16T13:01:31Z</time>
      </trkpt>
      <trkpt lat="42.527971" lon="-6.493833">
        <ele>848.545</ele>
        <time>2021-07-16T13:01:39Z</time>
      </trkpt>
      <trkpt lat="42.527808" lon="-6.493743">
        <ele>850.462</ele>
        <time>2021-07-16T13:01:48Z</time>
      </trkpt>
      <trkpt lat="42.527638" lon="-6.493663">
        <ele>851.352</ele>
        <time>2021-07-16T13:01:57Z</time>
      </trkpt>
      <trkpt lat="42.527484" lon="-6.493614">
        <ele>851.856</ele>
        <time>2021-07-16T13:02:05Z</time>
      </trkpt>
      <trkpt lat="42.527269" lon="-6.493570">
        <ele>854.264</ele>
        <time>2021-07-16T13:02:16Z</time>
      </trkpt>
      <trkpt lat="42.527116" lon="-6.493524">
        <ele>855.231</ele>
        <time>2021-07-16T13:02:24Z</time>
      </trkpt>
      <trkpt lat="42.526971" lon="-6.493441">
        <ele>856.649</ele>
        <time>2021-07-16T13:02:32Z</time>
      </trkpt>
      <trkpt lat="42.526890" lon="-6.493386">
        <ele>857.137</ele>
        <time>2021-07-16T13:02:39Z</time>
      </trkpt>
      <trkpt lat="42.526770" lon="-6.493293">
        <ele>859.049</ele>
        <time>2021-07-16T13:02:48Z</time>
      </trkpt>
      <trkpt lat="42.526641" lon="-6.493171">
        <ele>860.513</ele>
        <time>2021-07-16T13:02:57Z</time>
      </trkpt>
      <trkpt lat="42.526538" lon="-6.492977">
        <ele>862.408</ele>
        <time>2021-07-16T13:03:07Z</time>
      </trkpt>
      <trkpt lat="42.526453" lon="-6.492798">
        <ele>862.480</ele>
        <time>2021-07-16T13:03:16Z</time>
      </trkpt>
      <trkpt lat="42.526380" lon="-6.492600">
        <ele>863.492</ele>
        <time>2021-07-16T13:03:25Z</time>
      </trkpt>
      <trkpt lat="42.526358" lon="-6.492388">
        <ele>864.339</ele>
        <time>2021-07-16T13:03:34Z</time>
      </trkpt>
      <trkpt lat="42.526388" lon="-6.492222">
        <ele>864.399</ele>
        <time>2021-07-16T13:03:41Z</time>
      </trkpt>
      <trkpt lat="42.526426" lon="-6.492050">
        <ele>864.313</ele>
        <time>2021-07-16T13:03:48Z</time>
      </trkpt>
      <trkpt lat="42.526480" lon="-6.491848">
        <ele>864.851</ele>
        <time>2021-07-16T13:03:56Z</time>
      </trkpt>
      <trkpt lat="42.526480" lon="-6.491581">
        <ele>866.288</ele>
        <time>2021-07-16T13:04:06Z</time>
      </trkpt>
      <trkpt lat="42.526448" lon="-6.491266">
        <ele>867.746</ele>
        <time>2021-07-16T13:04:17Z</time>
      </trkpt>
      <trkpt lat="42.526419" lon="-6.490935">
        <ele>869.155</ele>
        <time>2021-07-16T13:04:29Z</time>
      </trkpt>
      <trkpt lat="42.526389" lon="-6.490684">
        <ele>870.607</ele>
        <time>2021-07-16T13:04:38Z</time>
      </trkpt>
      <trkpt lat="42.526348" lon="-6.490415">
        <ele>871.017</ele>
        <time>2021-07-16T13:04:48Z</time>
      </trkpt>
      <trkpt lat="42.526328" lon="-6.490206">
        <ele>872.008</ele>
        <time>2021-07-16T13:04:56Z</time>
      </trkpt>
      <trkpt lat="42.526313" lon="-6.490114">
        <ele>873.592</ele>
        <time>2021-07-16T13:05:03Z</time>
      </trkpt>
      <trkpt lat="42.526322" lon="-6.490110">
        <ele>873.544</ele>
        <time>2021-07-16T13:05:12Z</time>
      </trkpt>
      <trkpt lat="42.526317" lon="-6.490077">
        <ele>873.971</ele>
        <time>2021-07-16T13:05:26Z</time>
      </trkpt>
      <trkpt lat="42.526319" lon="-6.490062">
        <ele>873.941</ele>
        <time>2021-07-16T13:05:27Z</time>
      </trkpt>
      <trkpt lat="42.526322" lon="-6.490045">
        <ele>873.965</ele>
        <time>2021-07-16T13:05:28Z</time>
      </trkpt>
      <trkpt lat="42.526325" lon="-6.490028">
        <ele>873.983</ele>
        <time>2021-07-16T13:05:29Z</time>
      </trkpt>
      <trkpt lat="42.526326" lon="-6.490010">
        <ele>873.970</ele>
        <time>2021-07-16T13:05:30Z</time>
      </trkpt>
      <trkpt lat="42.526328" lon="-6.489992">
        <ele>873.958</ele>
        <time>2021-07-16T13:05:31Z</time>
      </trkpt>
      <trkpt lat="42.526330" lon="-6.489977">
        <ele>873.994</ele>
        <time>2021-07-16T13:05:32Z</time>
      </trkpt>
      <trkpt lat="42.526333" lon="-6.489961">
        <ele>873.957</ele>
        <time>2021-07-16T13:05:33Z</time>
      </trkpt>
      <trkpt lat="42.526334" lon="-6.489943">
        <ele>873.922</ele>
        <time>2021-07-16T13:05:34Z</time>
      </trkpt>
      <trkpt lat="42.526334" lon="-6.489925">
        <ele>873.908</ele>
        <time>2021-07-16T13:05:35Z</time>
      </trkpt>
      <trkpt lat="42.526339" lon="-6.489904">
        <ele>873.936</ele>
        <time>2021-07-16T13:05:36Z</time>
      </trkpt>
      <trkpt lat="42.526343" lon="-6.489883">
        <ele>873.918</ele>
        <time>2021-07-16T13:05:37Z</time>
      </trkpt>
      <trkpt lat="42.526345" lon="-6.489861">
        <ele>873.995</ele>
        <time>2021-07-16T13:05:38Z</time>
      </trkpt>
      <trkpt lat="42.526349" lon="-6.489820">
        <ele>874.915</ele>
        <time>2021-07-16T13:05:40Z</time>
      </trkpt>
      <trkpt lat="42.526353" lon="-6.489799">
        <ele>874.929</ele>
        <time>2021-07-16T13:05:41Z</time>
      </trkpt>
      <trkpt lat="42.526355" lon="-6.489779">
        <ele>874.967</ele>
        <time>2021-07-16T13:05:42Z</time>
      </trkpt>
      <trkpt lat="42.526361" lon="-6.489760">
        <ele>875.484</ele>
        <time>2021-07-16T13:05:43Z</time>
      </trkpt>
      <trkpt lat="42.526365" lon="-6.489738">
        <ele>875.462</ele>
        <time>2021-07-16T13:05:44Z</time>
      </trkpt>
      <trkpt lat="42.526387" lon="-6.489590">
        <ele>875.424</ele>
        <time>2021-07-16T13:05:51Z</time>
      </trkpt>
      <trkpt lat="42.526389" lon="-6.489566">
        <ele>875.404</ele>
        <time>2021-07-16T13:05:52Z</time>
      </trkpt>
      <trkpt lat="42.526393" lon="-6.489545">
        <ele>875.414</ele>
        <time>2021-07-16T13:05:53Z</time>
      </trkpt>
      <trkpt lat="42.526397" lon="-6.489521">
        <ele>875.408</ele>
        <time>2021-07-16T13:05:54Z</time>
      </trkpt>
      <trkpt lat="42.526400" lon="-6.489497">
        <ele>875.949</ele>
        <time>2021-07-16T13:05:55Z</time>
      </trkpt>
      <trkpt lat="42.526402" lon="-6.489473">
        <ele>875.911</ele>
        <time>2021-07-16T13:05:56Z</time>
      </trkpt>
      <trkpt lat="42.526388" lon="-6.489218">
        <ele>876.838</ele>
        <time>2021-07-16T13:06:06Z</time>
      </trkpt>
      <trkpt lat="42.526367" lon="-6.489016">
        <ele>878.788</ele>
        <time>2021-07-16T13:06:14Z</time>
      </trkpt>
      <trkpt lat="42.526349" lon="-6.488812">
        <ele>879.762</ele>
        <time>2021-07-16T13:06:22Z</time>
      </trkpt>
      <trkpt lat="42.526314" lon="-6.488482">
        <ele>880.750</ele>
        <time>2021-07-16T13:06:34Z</time>
      </trkpt>
      <trkpt lat="42.526296" lon="-6.488244">
        <ele>882.197</ele>
        <time>2021-07-16T13:06:43Z</time>
      </trkpt>
      <trkpt lat="42.526296" lon="-6.488104">
        <ele>883.165</ele>
        <time>2021-07-16T13:06:48Z</time>
      </trkpt>
      <trkpt lat="42.526316" lon="-6.487891">
        <ele>883.588</ele>
        <time>2021-07-16T13:06:56Z</time>
      </trkpt>
      <trkpt lat="42.526346" lon="-6.487689">
        <ele>884.524</ele>
        <time>2021-07-16T13:07:04Z</time>
      </trkpt>
      <trkpt lat="42.526396" lon="-6.487389">
        <ele>885.926</ele>
        <time>2021-07-16T13:07:15Z</time>
      </trkpt>
      <trkpt lat="42.526430" lon="-6.487138">
        <ele>886.408</ele>
        <time>2021-07-16T13:07:24Z</time>
      </trkpt>
      <trkpt lat="42.526503" lon="-6.486932">
        <ele>887.435</ele>
        <time>2021-07-16T13:07:32Z</time>
      </trkpt>
      <trkpt lat="42.526628" lon="-6.486682">
        <ele>889.867</ele>
        <time>2021-07-16T13:07:42Z</time>
      </trkpt>
      <trkpt lat="42.526769" lon="-6.486467">
        <ele>891.714</ele>
        <time>2021-07-16T13:07:52Z</time>
      </trkpt>
      <trkpt lat="42.526880" lon="-6.486307">
        <ele>893.264</ele>
        <time>2021-07-16T13:08:00Z</time>
      </trkpt>
      <trkpt lat="42.526971" lon="-6.486171">
        <ele>894.168</ele>
        <time>2021-07-16T13:08:08Z</time>
      </trkpt>
      <trkpt lat="42.526986" lon="-6.486141">
        <ele>894.126</ele>
        <time>2021-07-16T13:08:10Z</time>
      </trkpt>
      <trkpt lat="42.527001" lon="-6.486124">
        <ele>894.633</ele>
        <time>2021-07-16T13:08:11Z</time>
      </trkpt>
      <trkpt lat="42.527015" lon="-6.486105">
        <ele>894.621</ele>
        <time>2021-07-16T13:08:12Z</time>
      </trkpt>
      <trkpt lat="42.527146" lon="-6.485937">
        <ele>894.633</ele>
        <time>2021-07-16T13:08:21Z</time>
      </trkpt>
      <trkpt lat="42.527253" lon="-6.485775">
        <ele>895.623</ele>
        <time>2021-07-16T13:08:29Z</time>
      </trkpt>
      <trkpt lat="42.527308" lon="-6.485542">
        <ele>896.015</ele>
        <time>2021-07-16T13:08:38Z</time>
      </trkpt>
      <trkpt lat="42.527303" lon="-6.485326">
        <ele>898.008</ele>
        <time>2021-07-16T13:08:48Z</time>
      </trkpt>
      <trkpt lat="42.527266" lon="-6.485171">
        <ele>898.980</ele>
        <time>2021-07-16T13:08:56Z</time>
      </trkpt>
      <trkpt lat="42.527217" lon="-6.485014">
        <ele>898.492</ele>
        <time>2021-07-16T13:09:03Z</time>
      </trkpt>
      <trkpt lat="42.527065" lon="-6.484752">
        <ele>899.999</ele>
        <time>2021-07-16T13:09:14Z</time>
      </trkpt>
      <trkpt lat="42.526898" lon="-6.484662">
        <ele>900.839</ele>
        <time>2021-07-16T13:09:22Z</time>
      </trkpt>
      <trkpt lat="42.526737" lon="-6.484805">
        <ele>901.813</ele>
        <time>2021-07-16T13:09:31Z</time>
      </trkpt>
      <trkpt lat="42.526544" lon="-6.485018">
        <ele>903.721</ele>
        <time>2021-07-16T13:09:42Z</time>
      </trkpt>
      <trkpt lat="42.526356" lon="-6.485034">
        <ele>903.768</ele>
        <time>2021-07-16T13:09:50Z</time>
      </trkpt>
      <trkpt lat="42.526252" lon="-6.484931">
        <ele>903.336</ele>
        <time>2021-07-16T13:09:56Z</time>
      </trkpt>
      <trkpt lat="42.526124" lon="-6.484705">
        <ele>903.717</ele>
        <time>2021-07-16T13:10:06Z</time>
      </trkpt>
      <trkpt lat="42.526031" lon="-6.484439">
        <ele>905.787</ele>
        <time>2021-07-16T13:10:16Z</time>
      </trkpt>
      <trkpt lat="42.525941" lon="-6.484237">
        <ele>906.615</ele>
        <time>2021-07-16T13:10:24Z</time>
      </trkpt>
      <trkpt lat="42.525886" lon="-6.484110">
        <ele>907.108</ele>
        <time>2021-07-16T13:10:32Z</time>
      </trkpt>
      <trkpt lat="42.525846" lon="-6.484063">
        <ele>908.198</ele>
        <time>2021-07-16T13:10:39Z</time>
      </trkpt>
      <trkpt lat="42.525854" lon="-6.484059">
        <ele>907.170</ele>
        <time>2021-07-16T13:10:54Z</time>
      </trkpt>
      <trkpt lat="42.525857" lon="-6.484057">
        <ele>907.197</ele>
        <time>2021-07-16T13:11:09Z</time>
      </trkpt>
      <trkpt lat="42.525849" lon="-6.484029">
        <ele>907.637</ele>
        <time>2021-07-16T13:11:19Z</time>
      </trkpt>
      <trkpt lat="42.525840" lon="-6.484019">
        <ele>907.681</ele>
        <time>2021-07-16T13:11:20Z</time>
      </trkpt>
      <trkpt lat="42.525825" lon="-6.484013">
        <ele>907.669</ele>
        <time>2021-07-16T13:11:26Z</time>
      </trkpt>
      <trkpt lat="42.525818" lon="-6.484002">
        <ele>907.626</ele>
        <time>2021-07-16T13:11:27Z</time>
      </trkpt>
      <trkpt lat="42.525808" lon="-6.483985">
        <ele>907.644</ele>
        <time>2021-07-16T13:11:28Z</time>
      </trkpt>
      <trkpt lat="42.525794" lon="-6.483966">
        <ele>907.633</ele>
        <time>2021-07-16T13:11:29Z</time>
      </trkpt>
      <trkpt lat="42.525782" lon="-6.483950">
        <ele>907.623</ele>
        <time>2021-07-16T13:11:30Z</time>
      </trkpt>
      <trkpt lat="42.525772" lon="-6.483937">
        <ele>907.615</ele>
        <time>2021-07-16T13:11:31Z</time>
      </trkpt>
      <trkpt lat="42.525766" lon="-6.483949">
        <ele>908.108</ele>
        <time>2021-07-16T13:11:37Z</time>
      </trkpt>
      <trkpt lat="42.525732" lon="-6.483878">
        <ele>908.550</ele>
        <time>2021-07-16T13:11:47Z</time>
      </trkpt>
      <trkpt lat="42.525627" lon="-6.483707">
        <ele>909.562</ele>
        <time>2021-07-16T13:11:56Z</time>
      </trkpt>
      <trkpt lat="42.525493" lon="-6.483513">
        <ele>910.589</ele>
        <time>2021-07-16T13:12:06Z</time>
      </trkpt>
      <trkpt lat="42.525363" lon="-6.483312">
        <ele>911.989</ele>
        <time>2021-07-16T13:12:16Z</time>
      </trkpt>
      <trkpt lat="42.525256" lon="-6.483113">
        <ele>913.323</ele>
        <time>2021-07-16T13:12:25Z</time>
      </trkpt>
      <trkpt lat="42.525173" lon="-6.482935">
        <ele>915.311</ele>
        <time>2021-07-16T13:12:34Z</time>
      </trkpt>
      <trkpt lat="42.525099" lon="-6.482787">
        <ele>916.238</ele>
        <time>2021-07-16T13:12:43Z</time>
      </trkpt>
      <trkpt lat="42.524974" lon="-6.482553">
        <ele>918.236</ele>
        <time>2021-07-16T13:12:55Z</time>
      </trkpt>
      <trkpt lat="42.524887" lon="-6.482389">
        <ele>919.122</ele>
        <time>2021-07-16T13:13:04Z</time>
      </trkpt>
      <trkpt lat="42.524815" lon="-6.482224">
        <ele>920.162</ele>
        <time>2021-07-16T13:13:12Z</time>
      </trkpt>
      <trkpt lat="42.524760" lon="-6.482116">
        <ele>921.008</ele>
        <time>2021-07-16T13:13:20Z</time>
      </trkpt>
      <trkpt lat="42.524673" lon="-6.481959">
        <ele>922.508</ele>
        <time>2021-07-16T13:13:29Z</time>
      </trkpt>
      <trkpt lat="42.524607" lon="-6.481835">
        <ele>923.469</ele>
        <time>2021-07-16T13:13:36Z</time>
      </trkpt>
      <trkpt lat="42.524501" lon="-6.481629">
        <ele>924.921</ele>
        <time>2021-07-16T13:13:46Z</time>
      </trkpt>
      <trkpt lat="42.524387" lon="-6.481396">
        <ele>926.388</ele>
        <time>2021-07-16T13:13:57Z</time>
      </trkpt>
      <trkpt lat="42.524281" lon="-6.481148">
        <ele>927.358</ele>
        <time>2021-07-16T13:14:08Z</time>
      </trkpt>
      <trkpt lat="42.524204" lon="-6.480941">
        <ele>928.792</ele>
        <time>2021-07-16T13:14:17Z</time>
      </trkpt>
      <trkpt lat="42.524112" lon="-6.480681">
        <ele>931.120</ele>
        <time>2021-07-16T13:14:28Z</time>
      </trkpt>
      <trkpt lat="42.523996" lon="-6.480352">
        <ele>933.197</ele>
        <time>2021-07-16T13:14:41Z</time>
      </trkpt>
      <trkpt lat="42.523911" lon="-6.480096">
        <ele>934.035</ele>
        <time>2021-07-16T13:14:51Z</time>
      </trkpt>
      <trkpt lat="42.523822" lon="-6.479824">
        <ele>934.524</ele>
        <time>2021-07-16T13:15:02Z</time>
      </trkpt>
      <trkpt lat="42.523798" lon="-6.479551">
        <ele>934.504</ele>
        <time>2021-07-16T13:15:12Z</time>
      </trkpt>
      <trkpt lat="42.523846" lon="-6.479260">
        <ele>935.514</ele>
        <time>2021-07-16T13:15:22Z</time>
      </trkpt>
      <trkpt lat="42.523925" lon="-6.478939">
        <ele>937.408</ele>
        <time>2021-07-16T13:15:34Z</time>
      </trkpt>
      <trkpt lat="42.523863" lon="-6.478769">
        <ele>937.479</ele>
        <time>2021-07-16T13:15:41Z</time>
      </trkpt>
      <trkpt lat="42.523701" lon="-6.478657">
        <ele>937.991</ele>
        <time>2021-07-16T13:15:49Z</time>
      </trkpt>
      <trkpt lat="42.523505" lon="-6.478573">
        <ele>940.738</ele>
        <time>2021-07-16T13:15:58Z</time>
      </trkpt>
      <trkpt lat="42.523288" lon="-6.478491">
        <ele>941.788</ele>
        <time>2021-07-16T13:16:08Z</time>
      </trkpt>
      <trkpt lat="42.523123" lon="-6.478538">
        <ele>942.222</ele>
        <time>2021-07-16T13:16:15Z</time>
      </trkpt>
      <trkpt lat="42.523048" lon="-6.478709">
        <ele>943.640</ele>
        <time>2021-07-16T13:16:22Z</time>
      </trkpt>
      <trkpt lat="42.522961" lon="-6.478929">
        <ele>944.667</ele>
        <time>2021-07-16T13:16:31Z</time>
      </trkpt>
      <trkpt lat="42.522915" lon="-6.478981">
        <ele>945.545</ele>
        <time>2021-07-16T13:16:35Z</time>
      </trkpt>
      <trkpt lat="42.522904" lon="-6.479011">
        <ele>944.182</ele>
        <time>2021-07-16T13:16:42Z</time>
      </trkpt>
      <trkpt lat="42.522917" lon="-6.479007">
        <ele>944.643</ele>
        <time>2021-07-16T13:17:03Z</time>
      </trkpt>
      <trkpt lat="42.522913" lon="-6.479000">
        <ele>943.617</ele>
        <time>2021-07-16T13:17:17Z</time>
      </trkpt>
      <trkpt lat="42.522902" lon="-6.479000">
        <ele>943.608</ele>
        <time>2021-07-16T13:17:18Z</time>
      </trkpt>
      <trkpt lat="42.522803" lon="-6.479074">
        <ele>945.135</ele>
        <time>2021-07-16T13:17:25Z</time>
      </trkpt>
      <trkpt lat="42.522653" lon="-6.479109">
        <ele>945.597</ele>
        <time>2021-07-16T13:17:33Z</time>
      </trkpt>
      <trkpt lat="42.522481" lon="-6.479055">
        <ele>946.024</ele>
        <time>2021-07-16T13:17:41Z</time>
      </trkpt>
      <trkpt lat="42.522287" lon="-6.478959">
        <ele>947.094</ele>
        <time>2021-07-16T13:17:51Z</time>
      </trkpt>
      <trkpt lat="42.522080" lon="-6.478869">
        <ele>947.048</ele>
        <time>2021-07-16T13:18:01Z</time>
      </trkpt>
      <trkpt lat="42.521914" lon="-6.478769">
        <ele>948.066</ele>
        <time>2021-07-16T13:18:10Z</time>
      </trkpt>
      <trkpt lat="42.521792" lon="-6.478662">
        <ele>948.493</ele>
        <time>2021-07-16T13:18:18Z</time>
      </trkpt>
      <trkpt lat="42.521720" lon="-6.478546">
        <ele>948.911</ele>
        <time>2021-07-16T13:18:26Z</time>
      </trkpt>
      <trkpt lat="42.521730" lon="-6.478526">
        <ele>948.441</ele>
        <time>2021-07-16T13:18:28Z</time>
      </trkpt>
      <trkpt lat="42.521745" lon="-6.478518">
        <ele>948.481</ele>
        <time>2021-07-16T13:18:29Z</time>
      </trkpt>
      <trkpt lat="42.521768" lon="-6.478518">
        <ele>948.409</ele>
        <time>2021-07-16T13:18:30Z</time>
      </trkpt>
      <trkpt lat="42.521782" lon="-6.478519">
        <ele>948.408</ele>
        <time>2021-07-16T13:18:31Z</time>
      </trkpt>
      <trkpt lat="42.521804" lon="-6.478526">
        <ele>948.431</ele>
        <time>2021-07-16T13:18:32Z</time>
      </trkpt>
      <trkpt lat="42.521826" lon="-6.478537">
        <ele>948.473</ele>
        <time>2021-07-16T13:18:33Z</time>
      </trkpt>
      <trkpt lat="42.521848" lon="-6.478551">
        <ele>948.920</ele>
        <time>2021-07-16T13:18:34Z</time>
      </trkpt>
      <trkpt lat="42.522075" lon="-6.478651">
        <ele>951.360</ele>
        <time>2021-07-16T13:18:45Z</time>
      </trkpt>
      <trkpt lat="42.522125" lon="-6.478654">
        <ele>952.344</ele>
        <time>2021-07-16T13:18:51Z</time>
      </trkpt>
      <trkpt lat="42.522139" lon="-6.478655">
        <ele>952.832</ele>
        <time>2021-07-16T13:18:57Z</time>
      </trkpt>
      <trkpt lat="42.522253" lon="-6.478650">
        <ele>954.269</ele>
        <time>2021-07-16T13:19:07Z</time>
      </trkpt>
      <trkpt lat="42.522364" lon="-6.478574">
        <ele>953.787</ele>
        <time>2021-07-16T13:19:18Z</time>
      </trkpt>
      <trkpt lat="42.522392" lon="-6.478504">
        <ele>954.264</ele>
        <time>2021-07-16T13:19:22Z</time>
      </trkpt>
      <trkpt lat="42.522396" lon="-6.478439">
        <ele>954.706</ele>
        <time>2021-07-16T13:19:26Z</time>
      </trkpt>
      <trkpt lat="42.522346" lon="-6.478391">
        <ele>953.216</ele>
        <time>2021-07-16T13:19:35Z</time>
      </trkpt>
      <trkpt lat="42.522343" lon="-6.478416">
        <ele>953.208</ele>
        <time>2021-07-16T13:19:42Z</time>
      </trkpt>
      <trkpt lat="42.522345" lon="-6.478417">
        <ele>954.713</ele>
        <time>2021-07-16T13:19:54Z</time>
      </trkpt>
      <trkpt lat="42.522100" lon="-6.478498">
        <ele>936.955</ele>
        <time>2021-07-17T06:20:40Z</time>
      </trkpt>
      <trkpt lat="42.522176" lon="-6.478547">
        <ele>960.412</ele>
        <time>2021-07-17T06:20:53Z</time>
      </trkpt>
      <trkpt lat="42.522186" lon="-6.478572">
        <ele>964.392</ele>
        <time>2021-07-17T06:21:07Z</time>
      </trkpt>
      <trkpt lat="42.522197" lon="-6.478590">
        <ele>963.326</ele>
        <time>2021-07-17T06:21:17Z</time>
      </trkpt>
      <trkpt lat="42.522185" lon="-6.478567">
        <ele>961.444</ele>
        <time>2021-07-17T06:21:36Z</time>
      </trkpt>
      <trkpt lat="42.522189" lon="-6.478582">
        <ele>960.931</ele>
        <time>2021-07-17T06:21:50Z</time>
      </trkpt>
      <trkpt lat="42.522197" lon="-6.478591">
        <ele>960.429</ele>
        <time>2021-07-17T06:22:06Z</time>
      </trkpt>
      <trkpt lat="42.522211" lon="-6.478590">
        <ele>958.037</ele>
        <time>2021-07-17T06:22:20Z</time>
      </trkpt>
      <trkpt lat="42.522216" lon="-6.478594">
        <ele>956.649</ele>
        <time>2021-07-17T06:22:31Z</time>
      </trkpt>
      <trkpt lat="42.522221" lon="-6.478605">
        <ele>955.213</ele>
        <time>2021-07-17T06:22:50Z</time>
      </trkpt>
      <trkpt lat="42.522221" lon="-6.478590">
        <ele>954.708</ele>
        <time>2021-07-17T06:23:01Z</time>
      </trkpt>
      <trkpt lat="42.522215" lon="-6.478568">
        <ele>953.710</ele>
        <time>2021-07-17T06:23:12Z</time>
      </trkpt>
      <trkpt lat="42.522258" lon="-6.478577">
        <ele>953.232</ele>
        <time>2021-07-17T06:23:19Z</time>
      </trkpt>
      <trkpt lat="42.522337" lon="-6.478586">
        <ele>952.849</ele>
        <time>2021-07-17T06:23:27Z</time>
      </trkpt>
      <trkpt lat="42.522307" lon="-6.478695">
        <ele>951.899</ele>
        <time>2021-07-17T06:23:35Z</time>
      </trkpt>
      <trkpt lat="42.522175" lon="-6.478689">
        <ele>949.963</ele>
        <time>2021-07-17T06:23:43Z</time>
      </trkpt>
      <trkpt lat="42.522082" lon="-6.478684">
        <ele>947.581</ele>
        <time>2021-07-17T06:23:51Z</time>
      </trkpt>
      <trkpt lat="42.522068" lon="-6.478701">
        <ele>948.928</ele>
        <time>2021-07-17T06:24:01Z</time>
      </trkpt>
      <trkpt lat="42.522041" lon="-6.478685">
        <ele>949.416</ele>
        <time>2021-07-17T06:24:05Z</time>
      </trkpt>
      <trkpt lat="42.522032" lon="-6.478674">
        <ele>949.464</ele>
        <time>2021-07-17T06:24:06Z</time>
      </trkpt>
      <trkpt lat="42.522017" lon="-6.478664">
        <ele>949.406</ele>
        <time>2021-07-17T06:24:07Z</time>
      </trkpt>
      <trkpt lat="42.522002" lon="-6.478654">
        <ele>948.916</ele>
        <time>2021-07-17T06:24:08Z</time>
      </trkpt>
      <trkpt lat="42.521984" lon="-6.478643">
        <ele>948.908</ele>
        <time>2021-07-17T06:24:09Z</time>
      </trkpt>
      <trkpt lat="42.521962" lon="-6.478632">
        <ele>948.963</ele>
        <time>2021-07-17T06:24:10Z</time>
      </trkpt>
      <trkpt lat="42.521785" lon="-6.478558">
        <ele>946.095</ele>
        <time>2021-07-17T06:24:19Z</time>
      </trkpt>
      <trkpt lat="42.521711" lon="-6.478565">
        <ele>945.162</ele>
        <time>2021-07-17T06:24:24Z</time>
      </trkpt>
      <trkpt lat="42.521597" lon="-6.478446">
        <ele>946.052</ele>
        <time>2021-07-17T06:24:33Z</time>
      </trkpt>
      <trkpt lat="42.521523" lon="-6.478371">
        <ele>947.056</ele>
        <time>2021-07-17T06:24:42Z</time>
      </trkpt>
      <trkpt lat="42.521526" lon="-6.478374">
        <ele>947.534</ele>
        <time>2021-07-17T06:24:54Z</time>
      </trkpt>
      <trkpt lat="42.521524" lon="-6.478365">
        <ele>948.451</ele>
        <time>2021-07-17T06:25:11Z</time>
      </trkpt>
      <trkpt lat="42.521493" lon="-6.478328">
        <ele>948.479</ele>
        <time>2021-07-17T06:25:16Z</time>
      </trkpt>
      <trkpt lat="42.521413" lon="-6.478227">
        <ele>950.465</ele>
        <time>2021-07-17T06:25:25Z</time>
      </trkpt>
      <trkpt lat="42.521305" lon="-6.478145">
        <ele>951.368</ele>
        <time>2021-07-17T06:25:33Z</time>
      </trkpt>
      <trkpt lat="42.521120" lon="-6.478058">
        <ele>951.814</ele>
        <time>2021-07-17T06:25:43Z</time>
      </trkpt>
      <trkpt lat="42.520935" lon="-6.477999">
        <ele>952.308</ele>
        <time>2021-07-17T06:25:53Z</time>
      </trkpt>
      <trkpt lat="42.520761" lon="-6.477934">
        <ele>954.763</ele>
        <time>2021-07-17T06:26:03Z</time>
      </trkpt>
      <trkpt lat="42.520621" lon="-6.477868">
        <ele>955.235</ele>
        <time>2021-07-17T06:26:11Z</time>
      </trkpt>
      <trkpt lat="42.520434" lon="-6.477758">
        <ele>955.672</ele>
        <time>2021-07-17T06:26:22Z</time>
      </trkpt>
      <trkpt lat="42.520265" lon="-6.477639">
        <ele>956.112</ele>
        <time>2021-07-17T06:26:32Z</time>
      </trkpt>
      <trkpt lat="42.520076" lon="-6.477508">
        <ele>956.116</ele>
        <time>2021-07-17T06:26:43Z</time>
      </trkpt>
      <trkpt lat="42.519876" lon="-6.477362">
        <ele>956.694</ele>
        <time>2021-07-17T06:26:55Z</time>
      </trkpt>
      <trkpt lat="42.519683" lon="-6.477220">
        <ele>957.681</ele>
        <time>2021-07-17T06:27:07Z</time>
      </trkpt>
      <trkpt lat="42.519533" lon="-6.477038">
        <ele>959.019</ele>
        <time>2021-07-17T06:27:17Z</time>
      </trkpt>
      <trkpt lat="42.519405" lon="-6.476796">
        <ele>960.025</ele>
        <time>2021-07-17T06:27:27Z</time>
      </trkpt>
      <trkpt lat="42.519256" lon="-6.476468">
        <ele>960.926</ele>
        <time>2021-07-17T06:27:39Z</time>
      </trkpt>
      <trkpt lat="42.519085" lon="-6.476111">
        <ele>962.408</ele>
        <time>2021-07-17T06:27:52Z</time>
      </trkpt>
      <trkpt lat="42.518951" lon="-6.475822">
        <ele>962.408</ele>
        <time>2021-07-17T06:28:03Z</time>
      </trkpt>
      <trkpt lat="42.518792" lon="-6.475512">
        <ele>963.379</ele>
        <time>2021-07-17T06:28:15Z</time>
      </trkpt>
      <trkpt lat="42.518649" lon="-6.475225">
        <ele>964.371</ele>
        <time>2021-07-17T06:28:26Z</time>
      </trkpt>
      <trkpt lat="42.518537" lon="-6.474981">
        <ele>964.388</ele>
        <time>2021-07-17T06:28:37Z</time>
      </trkpt>
      <trkpt lat="42.518384" lon="-6.474691">
        <ele>965.388</ele>
        <time>2021-07-17T06:28:49Z</time>
      </trkpt>
      <trkpt lat="42.518274" lon="-6.474469">
        <ele>965.762</ele>
        <time>2021-07-17T06:28:58Z</time>
      </trkpt>
      <trkpt lat="42.518168" lon="-6.474252">
        <ele>965.760</ele>
        <time>2021-07-17T06:29:07Z</time>
      </trkpt>
      <trkpt lat="42.518029" lon="-6.473972">
        <ele>966.757</ele>
        <time>2021-07-17T06:29:18Z</time>
      </trkpt>
      <trkpt lat="42.517878" lon="-6.473678">
        <ele>968.695</ele>
        <time>2021-07-17T06:29:30Z</time>
      </trkpt>
      <trkpt lat="42.517779" lon="-6.473479">
        <ele>969.665</ele>
        <time>2021-07-17T06:29:39Z</time>
      </trkpt>
      <trkpt lat="42.517729" lon="-6.473378">
        <ele>970.168</ele>
        <time>2021-07-17T06:29:45Z</time>
      </trkpt>
      <trkpt lat="42.517568" lon="-6.473063">
        <ele>971.014</ele>
        <time>2021-07-17T06:29:56Z</time>
      </trkpt>
      <trkpt lat="42.517450" lon="-6.472839">
        <ele>972.008</ele>
        <time>2021-07-17T06:30:05Z</time>
      </trkpt>
      <trkpt lat="42.517332" lon="-6.472612">
        <ele>973.483</ele>
        <time>2021-07-17T06:30:14Z</time>
      </trkpt>
      <trkpt lat="42.517205" lon="-6.472345">
        <ele>973.965</ele>
        <time>2021-07-17T06:30:24Z</time>
      </trkpt>
      <trkpt lat="42.517076" lon="-6.472082">
        <ele>974.422</ele>
        <time>2021-07-17T06:30:34Z</time>
      </trkpt>
      <trkpt lat="42.516939" lon="-6.471797">
        <ele>974.982</ele>
        <time>2021-07-17T06:30:45Z</time>
      </trkpt>
      <trkpt lat="42.516792" lon="-6.471492">
        <ele>975.836</ele>
        <time>2021-07-17T06:30:57Z</time>
      </trkpt>
      <trkpt lat="42.516668" lon="-6.471234">
        <ele>977.324</ele>
        <time>2021-07-17T06:31:07Z</time>
      </trkpt>
      <trkpt lat="42.516535" lon="-6.470970">
        <ele>978.761</ele>
        <time>2021-07-17T06:31:18Z</time>
      </trkpt>
      <trkpt lat="42.516454" lon="-6.470811">
        <ele>980.629</ele>
        <time>2021-07-17T06:31:27Z</time>
      </trkpt>
      <trkpt lat="42.516344" lon="-6.470658">
        <ele>982.171</ele>
        <time>2021-07-17T06:31:35Z</time>
      </trkpt>
      <trkpt lat="42.516208" lon="-6.470568">
        <ele>982.641</ele>
        <time>2021-07-17T06:31:42Z</time>
      </trkpt>
      <trkpt lat="42.516030" lon="-6.470545">
        <ele>981.615</ele>
        <time>2021-07-17T06:31:51Z</time>
      </trkpt>
      <trkpt lat="42.515873" lon="-6.470586">
        <ele>982.608</ele>
        <time>2021-07-17T06:32:00Z</time>
      </trkpt>
      <trkpt lat="42.515759" lon="-6.470658">
        <ele>984.054</ele>
        <time>2021-07-17T06:32:08Z</time>
      </trkpt>
      <trkpt lat="42.515669" lon="-6.470740">
        <ele>985.096</ele>
        <time>2021-07-17T06:32:15Z</time>
      </trkpt>
      <trkpt lat="42.515585" lon="-6.470798">
        <ele>985.483</ele>
        <time>2021-07-17T06:32:21Z</time>
      </trkpt>
      <trkpt lat="42.515430" lon="-6.470866">
        <ele>985.473</ele>
        <time>2021-07-17T06:32:30Z</time>
      </trkpt>
      <trkpt lat="42.515303" lon="-6.470906">
        <ele>986.487</ele>
        <time>2021-07-17T06:32:37Z</time>
      </trkpt>
      <trkpt lat="42.515147" lon="-6.471002">
        <ele>986.935</ele>
        <time>2021-07-17T06:32:46Z</time>
      </trkpt>
      <trkpt lat="42.515007" lon="-6.471148">
        <ele>988.892</ele>
        <time>2021-07-17T06:32:56Z</time>
      </trkpt>
      <trkpt lat="42.514906" lon="-6.471348">
        <ele>990.330</ele>
        <time>2021-07-17T06:33:06Z</time>
      </trkpt>
      <trkpt lat="42.514810" lon="-6.471553">
        <ele>992.219</ele>
        <time>2021-07-17T06:33:16Z</time>
      </trkpt>
      <trkpt lat="42.514692" lon="-6.471731">
        <ele>993.109</ele>
        <time>2021-07-17T06:33:25Z</time>
      </trkpt>
      <trkpt lat="42.514522" lon="-6.471800">
        <ele>993.119</ele>
        <time>2021-07-17T06:33:33Z</time>
      </trkpt>
      <trkpt lat="42.514343" lon="-6.471818">
        <ele>992.708</ele>
        <time>2021-07-17T06:33:42Z</time>
      </trkpt>
      <trkpt lat="42.514082" lon="-6.471831">
        <ele>994.178</ele>
        <time>2021-07-17T06:33:54Z</time>
      </trkpt>
      <trkpt lat="42.513938" lon="-6.471842">
        <ele>995.170</ele>
        <time>2021-07-17T06:34:02Z</time>
      </trkpt>
      <trkpt lat="42.513803" lon="-6.471876">
        <ele>996.027</ele>
        <time>2021-07-17T06:34:10Z</time>
      </trkpt>
      <trkpt lat="42.513619" lon="-6.471940">
        <ele>997.567</ele>
        <time>2021-07-17T06:34:21Z</time>
      </trkpt>
      <trkpt lat="42.513455" lon="-6.472002">
        <ele>998.961</ele>
        <time>2021-07-17T06:34:31Z</time>
      </trkpt>
      <trkpt lat="42.513355" lon="-6.472038">
        <ele>999.949</ele>
        <time>2021-07-17T06:34:38Z</time>
      </trkpt>
      <trkpt lat="42.513212" lon="-6.472075">
        <ele>1001.326</ele>
        <time>2021-07-17T06:34:48Z</time>
      </trkpt>
      <trkpt lat="42.513115" lon="-6.472050">
        <ele>1002.324</ele>
        <time>2021-07-17T06:34:56Z</time>
      </trkpt>
      <trkpt lat="42.513025" lon="-6.471982">
        <ele>1003.733</ele>
        <time>2021-07-17T06:35:05Z</time>
      </trkpt>
      <trkpt lat="42.513013" lon="-6.471975">
        <ele>1004.223</ele>
        <time>2021-07-17T06:35:06Z</time>
      </trkpt>
      <trkpt lat="42.513003" lon="-6.471967">
        <ele>1004.215</ele>
        <time>2021-07-17T06:35:07Z</time>
      </trkpt>
      <trkpt lat="42.512992" lon="-6.471959">
        <ele>1004.208</ele>
        <time>2021-07-17T06:35:08Z</time>
      </trkpt>
      <trkpt lat="42.512968" lon="-6.471933">
        <ele>1004.790</ele>
        <time>2021-07-17T06:35:11Z</time>
      </trkpt>
      <trkpt lat="42.512961" lon="-6.471922">
        <ele>1004.722</ele>
        <time>2021-07-17T06:35:12Z</time>
      </trkpt>
      <trkpt lat="42.512950" lon="-6.471916">
        <ele>1005.289</ele>
        <time>2021-07-17T06:35:13Z</time>
      </trkpt>
      <trkpt lat="42.512941" lon="-6.471908">
        <ele>1005.259</ele>
        <time>2021-07-17T06:35:14Z</time>
      </trkpt>
      <trkpt lat="42.512933" lon="-6.471898">
        <ele>1005.263</ele>
        <time>2021-07-17T06:35:15Z</time>
      </trkpt>
      <trkpt lat="42.512853" lon="-6.471785">
        <ele>1006.631</ele>
        <time>2021-07-17T06:35:25Z</time>
      </trkpt>
      <trkpt lat="42.512842" lon="-6.471779">
        <ele>1006.678</ele>
        <time>2021-07-17T06:35:26Z</time>
      </trkpt>
      <trkpt lat="42.512833" lon="-6.471769">
        <ele>1007.126</ele>
        <time>2021-07-17T06:35:27Z</time>
      </trkpt>
      <trkpt lat="42.512823" lon="-6.471756">
        <ele>1007.123</ele>
        <time>2021-07-17T06:35:28Z</time>
      </trkpt>
      <trkpt lat="42.512814" lon="-6.471742">
        <ele>1007.683</ele>
        <time>2021-07-17T06:35:29Z</time>
      </trkpt>
      <trkpt lat="42.512806" lon="-6.471729">
        <ele>1007.611</ele>
        <time>2021-07-17T06:35:30Z</time>
      </trkpt>
      <trkpt lat="42.512797" lon="-6.471717">
        <ele>1007.608</ele>
        <time>2021-07-17T06:35:31Z</time>
      </trkpt>
      <trkpt lat="42.512787" lon="-6.471706">
        <ele>1008.099</ele>
        <time>2021-07-17T06:35:32Z</time>
      </trkpt>
      <trkpt lat="42.512775" lon="-6.471695">
        <ele>1008.051</ele>
        <time>2021-07-17T06:35:33Z</time>
      </trkpt>
      <trkpt lat="42.512766" lon="-6.471684">
        <ele>1008.078</ele>
        <time>2021-07-17T06:35:34Z</time>
      </trkpt>
      <trkpt lat="42.512757" lon="-6.471673">
        <ele>1008.568</ele>
        <time>2021-07-17T06:35:35Z</time>
      </trkpt>
      <trkpt lat="42.512748" lon="-6.471660">
        <ele>1008.572</ele>
        <time>2021-07-17T06:35:36Z</time>
      </trkpt>
      <trkpt lat="42.512672" lon="-6.471561">
        <ele>1010.010</ele>
        <time>2021-07-17T06:35:44Z</time>
      </trkpt>
      <trkpt lat="42.512602" lon="-6.471474">
        <ele>1011.487</ele>
        <time>2021-07-17T06:35:51Z</time>
      </trkpt>
      <trkpt lat="42.512514" lon="-6.471341">
        <ele>1012.875</ele>
        <time>2021-07-17T06:36:01Z</time>
      </trkpt>
      <trkpt lat="42.512395" lon="-6.471188">
        <ele>1014.899</ele>
        <time>2021-07-17T06:36:13Z</time>
      </trkpt>
      <trkpt lat="42.512285" lon="-6.471045">
        <ele>1016.207</ele>
        <time>2021-07-17T06:36:24Z</time>
      </trkpt>
      <trkpt lat="42.512194" lon="-6.470921">
        <ele>1017.627</ele>
        <time>2021-07-17T06:36:33Z</time>
      </trkpt>
      <trkpt lat="42.512101" lon="-6.470792">
        <ele>1018.608</ele>
        <time>2021-07-17T06:36:43Z</time>
      </trkpt>
      <trkpt lat="42.512013" lon="-6.470701">
        <ele>1019.626</ele>
        <time>2021-07-17T06:36:51Z</time>
      </trkpt>
      <trkpt lat="42.511958" lon="-6.470637">
        <ele>1021.098</ele>
        <time>2021-07-17T06:36:58Z</time>
      </trkpt>
      <trkpt lat="42.511861" lon="-6.470530">
        <ele>1022.035</ele>
        <time>2021-07-17T06:37:08Z</time>
      </trkpt>
      <trkpt lat="42.511755" lon="-6.470415">
        <ele>1022.995</ele>
        <time>2021-07-17T06:37:18Z</time>
      </trkpt>
      <trkpt lat="42.511649" lon="-6.470311">
        <ele>1024.939</ele>
        <time>2021-07-17T06:37:27Z</time>
      </trkpt>
      <trkpt lat="42.511554" lon="-6.470207">
        <ele>1026.367</ele>
        <time>2021-07-17T06:37:35Z</time>
      </trkpt>
      <trkpt lat="42.511446" lon="-6.470082">
        <ele>1027.764</ele>
        <time>2021-07-17T06:37:44Z</time>
      </trkpt>
      <trkpt lat="42.511296" lon="-6.469926">
        <ele>1029.762</ele>
        <time>2021-07-17T06:37:55Z</time>
      </trkpt>
      <trkpt lat="42.511154" lon="-6.469778">
        <ele>1030.133</ele>
        <time>2021-07-17T06:38:06Z</time>
      </trkpt>
      <trkpt lat="42.511007" lon="-6.469612">
        <ele>1031.623</ele>
        <time>2021-07-17T06:38:17Z</time>
      </trkpt>
      <trkpt lat="42.510862" lon="-6.469438">
        <ele>1033.015</ele>
        <time>2021-07-17T06:38:28Z</time>
      </trkpt>
      <trkpt lat="42.510727" lon="-6.469281">
        <ele>1033.008</ele>
        <time>2021-07-17T06:38:38Z</time>
      </trkpt>
      <trkpt lat="42.510573" lon="-6.469100">
        <ele>1033.520</ele>
        <time>2021-07-17T06:38:49Z</time>
      </trkpt>
      <trkpt lat="42.510396" lon="-6.468872">
        <ele>1034.582</ele>
        <time>2021-07-17T06:39:02Z</time>
      </trkpt>
      <trkpt lat="42.510260" lon="-6.468724">
        <ele>1034.569</ele>
        <time>2021-07-17T06:39:11Z</time>
      </trkpt>
      <trkpt lat="42.510112" lon="-6.468542">
        <ele>1035.039</ele>
        <time>2021-07-17T06:39:21Z</time>
      </trkpt>
      <trkpt lat="42.509968" lon="-6.468384">
        <ele>1035.943</ele>
        <time>2021-07-17T06:39:30Z</time>
      </trkpt>
      <trkpt lat="42.509930" lon="-6.468367">
        <ele>1035.421</ele>
        <time>2021-07-17T06:39:36Z</time>
      </trkpt>
      <trkpt lat="42.509930" lon="-6.468368">
        <ele>1034.068</ele>
        <time>2021-07-17T06:39:49Z</time>
      </trkpt>
      <trkpt lat="42.509923" lon="-6.468362">
        <ele>1032.166</ele>
        <time>2021-07-17T06:40:02Z</time>
      </trkpt>
      <trkpt lat="42.509924" lon="-6.468347">
        <ele>1032.583</ele>
        <time>2021-07-17T06:40:23Z</time>
      </trkpt>
      <trkpt lat="42.509940" lon="-6.468353">
        <ele>1032.525</ele>
        <time>2021-07-17T06:40:41Z</time>
      </trkpt>
      <trkpt lat="42.509940" lon="-6.468356">
        <ele>1033.017</ele>
        <time>2021-07-17T06:40:52Z</time>
      </trkpt>
      <trkpt lat="42.509922" lon="-6.468345">
        <ele>1031.608</ele>
        <time>2021-07-17T06:41:07Z</time>
      </trkpt>
      <trkpt lat="42.509920" lon="-6.468352">
        <ele>1030.125</ele>
        <time>2021-07-17T06:41:25Z</time>
      </trkpt>
      <trkpt lat="42.509915" lon="-6.468343">
        <ele>1030.687</ele>
        <time>2021-07-17T06:41:41Z</time>
      </trkpt>
      <trkpt lat="42.509930" lon="-6.468344">
        <ele>1029.724</ele>
        <time>2021-07-17T06:41:56Z</time>
      </trkpt>
      <trkpt lat="42.509924" lon="-6.468356">
        <ele>1030.684</ele>
        <time>2021-07-17T06:42:08Z</time>
      </trkpt>
      <trkpt lat="42.509910" lon="-6.468347">
        <ele>1030.648</ele>
        <time>2021-07-17T06:42:25Z</time>
      </trkpt>
      <trkpt lat="42.509916" lon="-6.468351">
        <ele>1030.656</ele>
        <time>2021-07-17T06:42:39Z</time>
      </trkpt>
      <trkpt lat="42.509931" lon="-6.468349">
        <ele>1030.613</ele>
        <time>2021-07-17T06:42:51Z</time>
      </trkpt>
      <trkpt lat="42.509938" lon="-6.468352">
        <ele>1031.651</ele>
        <time>2021-07-17T06:43:07Z</time>
      </trkpt>
      <trkpt lat="42.509927" lon="-6.468361">
        <ele>1031.681</ele>
        <time>2021-07-17T06:43:20Z</time>
      </trkpt>
      <trkpt lat="42.509923" lon="-6.468360">
        <ele>1032.161</ele>
        <time>2021-07-17T06:43:36Z</time>
      </trkpt>
      <trkpt lat="42.509927" lon="-6.468364">
        <ele>1032.117</ele>
        <time>2021-07-17T06:43:48Z</time>
      </trkpt>
      <trkpt lat="42.509923" lon="-6.468361">
        <ele>1032.108</ele>
        <time>2021-07-17T06:44:00Z</time>
      </trkpt>
      <trkpt lat="42.509920" lon="-6.468355">
        <ele>1031.195</ele>
        <time>2021-07-17T06:44:15Z</time>
      </trkpt>
      <trkpt lat="42.509922" lon="-6.468359">
        <ele>1031.167</ele>
        <time>2021-07-17T06:44:31Z</time>
      </trkpt>
      <trkpt lat="42.509924" lon="-6.468353">
        <ele>1031.114</ele>
        <time>2021-07-17T06:44:48Z</time>
      </trkpt>
      <trkpt lat="42.509930" lon="-6.468351">
        <ele>1032.124</ele>
        <time>2021-07-17T06:45:04Z</time>
      </trkpt>
      <trkpt lat="42.509940" lon="-6.468360">
        <ele>1033.588</ele>
        <time>2021-07-17T06:45:22Z</time>
      </trkpt>
      <trkpt lat="42.509935" lon="-6.468355">
        <ele>1032.576</ele>
        <time>2021-07-17T06:45:38Z</time>
      </trkpt>
      <trkpt lat="42.509923" lon="-6.468357">
        <ele>1033.023</ele>
        <time>2021-07-17T06:45:56Z</time>
      </trkpt>
      <trkpt lat="42.509921" lon="-6.468359">
        <ele>1033.511</ele>
        <time>2021-07-17T06:46:09Z</time>
      </trkpt>
      <trkpt lat="42.509920" lon="-6.468369">
        <ele>1033.578</ele>
        <time>2021-07-17T06:46:22Z</time>
      </trkpt>
      <trkpt lat="42.509923" lon="-6.468360">
        <ele>1033.033</ele>
        <time>2021-07-17T06:46:36Z</time>
      </trkpt>
      <trkpt lat="42.509933" lon="-6.468366">
        <ele>1034.026</ele>
        <time>2021-07-17T06:46:50Z</time>
      </trkpt>
      <trkpt lat="42.509922" lon="-6.468341">
        <ele>1034.008</ele>
        <time>2021-07-17T06:46:59Z</time>
      </trkpt>
      <trkpt lat="42.509905" lon="-6.468313">
        <ele>1035.064</ele>
        <time>2021-07-17T06:47:06Z</time>
      </trkpt>
      <trkpt lat="42.509899" lon="-6.468308">
        <ele>1035.496</ele>
        <time>2021-07-17T06:47:08Z</time>
      </trkpt>
      <trkpt lat="42.509816" lon="-6.468226">
        <ele>1036.433</ele>
        <time>2021-07-17T06:47:15Z</time>
      </trkpt>
      <trkpt lat="42.509636" lon="-6.468083">
        <ele>1038.393</ele>
        <time>2021-07-17T06:47:26Z</time>
      </trkpt>
      <trkpt lat="42.509514" lon="-6.467997">
        <ele>1038.857</ele>
        <time>2021-07-17T06:47:33Z</time>
      </trkpt>
      <trkpt lat="42.509267" lon="-6.467896">
        <ele>1040.775</ele>
        <time>2021-07-17T06:47:46Z</time>
      </trkpt>
      <trkpt lat="42.509021" lon="-6.467837">
        <ele>1042.692</ele>
        <time>2021-07-17T06:47:59Z</time>
      </trkpt>
      <trkpt lat="42.508809" lon="-6.467802">
        <ele>1045.060</ele>
        <time>2021-07-17T06:48:11Z</time>
      </trkpt>
      <trkpt lat="42.508699" lon="-6.467780">
        <ele>1047.033</ele>
        <time>2021-07-17T06:48:20Z</time>
      </trkpt>
      <trkpt lat="42.508600" lon="-6.467772">
        <ele>1049.423</ele>
        <time>2021-07-17T06:48:29Z</time>
      </trkpt>
      <trkpt lat="42.508575" lon="-6.467784">
        <ele>1049.415</ele>
        <time>2021-07-17T06:48:32Z</time>
      </trkpt>
      <trkpt lat="42.508502" lon="-6.467776">
        <ele>1050.308</ele>
        <time>2021-07-17T06:48:39Z</time>
      </trkpt>
      <trkpt lat="42.508491" lon="-6.467776">
        <ele>1050.380</ele>
        <time>2021-07-17T06:48:40Z</time>
      </trkpt>
      <trkpt lat="42.508386" lon="-6.467791">
        <ele>1051.322</ele>
        <time>2021-07-17T06:48:50Z</time>
      </trkpt>
      <trkpt lat="42.508300" lon="-6.467813">
        <ele>1052.339</ele>
        <time>2021-07-17T06:48:58Z</time>
      </trkpt>
      <trkpt lat="42.508288" lon="-6.467814">
        <ele>1052.379</ele>
        <time>2021-07-17T06:48:59Z</time>
      </trkpt>
      <trkpt lat="42.508266" lon="-6.467815">
        <ele>1052.793</ele>
        <time>2021-07-17T06:49:01Z</time>
      </trkpt>
      <trkpt lat="42.508255" lon="-6.467824">
        <ele>1052.751</ele>
        <time>2021-07-17T06:49:02Z</time>
      </trkpt>
      <trkpt lat="42.508245" lon="-6.467833">
        <ele>1053.238</ele>
        <time>2021-07-17T06:49:03Z</time>
      </trkpt>
      <trkpt lat="42.508214" lon="-6.467850">
        <ele>1053.796</ele>
        <time>2021-07-17T06:49:06Z</time>
      </trkpt>
      <trkpt lat="42.508203" lon="-6.467860">
        <ele>1053.727</ele>
        <time>2021-07-17T06:49:07Z</time>
      </trkpt>
      <trkpt lat="42.508135" lon="-6.467914">
        <ele>1054.768</ele>
        <time>2021-07-17T06:49:14Z</time>
      </trkpt>
      <trkpt lat="42.508049" lon="-6.467980">
        <ele>1055.614</ele>
        <time>2021-07-17T06:49:21Z</time>
      </trkpt>
      <trkpt lat="42.507939" lon="-6.468024">
        <ele>1057.108</ele>
        <time>2021-07-17T06:49:29Z</time>
      </trkpt>
      <trkpt lat="42.507842" lon="-6.468026">
        <ele>1058.059</ele>
        <time>2021-07-17T06:49:37Z</time>
      </trkpt>
      <trkpt lat="42.507830" lon="-6.468022">
        <ele>1058.531</ele>
        <time>2021-07-17T06:49:38Z</time>
      </trkpt>
      <trkpt lat="42.507818" lon="-6.468017">
        <ele>1058.558</ele>
        <time>2021-07-17T06:49:39Z</time>
      </trkpt>
      <trkpt lat="42.507808" lon="-6.468013">
        <ele>1059.028</ele>
        <time>2021-07-17T06:49:40Z</time>
      </trkpt>
      <trkpt lat="42.507711" lon="-6.467972">
        <ele>1060.422</ele>
        <time>2021-07-17T06:49:49Z</time>
      </trkpt>
      <trkpt lat="42.507624" lon="-6.467939">
        <ele>1061.450</ele>
        <time>2021-07-17T06:49:57Z</time>
      </trkpt>
      <trkpt lat="42.507541" lon="-6.467869">
        <ele>1062.897</ele>
        <time>2021-07-17T06:50:05Z</time>
      </trkpt>
      <trkpt lat="42.507437" lon="-6.467773">
        <ele>1065.225</ele>
        <time>2021-07-17T06:50:15Z</time>
      </trkpt>
      <trkpt lat="42.507354" lon="-6.467688">
        <ele>1067.216</ele>
        <time>2021-07-17T06:50:24Z</time>
      </trkpt>
      <trkpt lat="42.507345" lon="-6.467678">
        <ele>1067.276</ele>
        <time>2021-07-17T06:50:25Z</time>
      </trkpt>
      <trkpt lat="42.507318" lon="-6.467640">
        <ele>1067.613</ele>
        <time>2021-07-17T06:50:28Z</time>
      </trkpt>
      <trkpt lat="42.507305" lon="-6.467633">
        <ele>1068.108</ele>
        <time>2021-07-17T06:50:29Z</time>
      </trkpt>
      <trkpt lat="42.507295" lon="-6.467627">
        <ele>1068.148</ele>
        <time>2021-07-17T06:50:30Z</time>
      </trkpt>
      <trkpt lat="42.507283" lon="-6.467619">
        <ele>1068.660</ele>
        <time>2021-07-17T06:50:31Z</time>
      </trkpt>
      <trkpt lat="42.507273" lon="-6.467609">
        <ele>1068.697</ele>
        <time>2021-07-17T06:50:32Z</time>
      </trkpt>
      <trkpt lat="42.507261" lon="-6.467600">
        <ele>1068.647</ele>
        <time>2021-07-17T06:50:33Z</time>
      </trkpt>
      <trkpt lat="42.507251" lon="-6.467589">
        <ele>1069.181</ele>
        <time>2021-07-17T06:50:34Z</time>
      </trkpt>
      <trkpt lat="42.507240" lon="-6.467578">
        <ele>1069.149</ele>
        <time>2021-07-17T06:50:35Z</time>
      </trkpt>
      <trkpt lat="42.507229" lon="-6.467570">
        <ele>1069.636</ele>
        <time>2021-07-17T06:50:36Z</time>
      </trkpt>
      <trkpt lat="42.507220" lon="-6.467560">
        <ele>1069.674</ele>
        <time>2021-07-17T06:50:37Z</time>
      </trkpt>
      <trkpt lat="42.507210" lon="-6.467551">
        <ele>1070.028</ele>
        <time>2021-07-17T06:50:38Z</time>
      </trkpt>
      <trkpt lat="42.507200" lon="-6.467542">
        <ele>1070.089</ele>
        <time>2021-07-17T06:50:39Z</time>
      </trkpt>
      <trkpt lat="42.507190" lon="-6.467528">
        <ele>1070.017</ele>
        <time>2021-07-17T06:50:40Z</time>
      </trkpt>
      <trkpt lat="42.507080" lon="-6.467404">
        <ele>1072.008</ele>
        <time>2021-07-17T06:50:51Z</time>
      </trkpt>
      <trkpt lat="42.506986" lon="-6.467248">
        <ele>1073.999</ele>
        <time>2021-07-17T06:51:02Z</time>
      </trkpt>
      <trkpt lat="42.506895" lon="-6.467108">
        <ele>1075.871</ele>
        <time>2021-07-17T06:51:12Z</time>
      </trkpt>
      <trkpt lat="42.506815" lon="-6.466963">
        <ele>1077.248</ele>
        <time>2021-07-17T06:51:22Z</time>
      </trkpt>
      <trkpt lat="42.506734" lon="-6.466804">
        <ele>1078.258</ele>
        <time>2021-07-17T06:51:32Z</time>
      </trkpt>
      <trkpt lat="42.506660" lon="-6.466660">
        <ele>1078.752</ele>
        <time>2021-07-17T06:51:41Z</time>
      </trkpt>
      <trkpt lat="42.506600" lon="-6.466542">
        <ele>1079.250</ele>
        <time>2021-07-17T06:51:49Z</time>
      </trkpt>
      <trkpt lat="42.506494" lon="-6.466363">
        <ele>1080.137</ele>
        <time>2021-07-17T06:52:00Z</time>
      </trkpt>
      <trkpt lat="42.506401" lon="-6.466202">
        <ele>1080.645</ele>
        <time>2021-07-17T06:52:09Z</time>
      </trkpt>
      <trkpt lat="42.506306" lon="-6.466018">
        <ele>1082.551</ele>
        <time>2021-07-17T06:52:19Z</time>
      </trkpt>
      <trkpt lat="42.506190" lon="-6.465803">
        <ele>1084.001</ele>
        <time>2021-07-17T06:52:31Z</time>
      </trkpt>
      <trkpt lat="42.506092" lon="-6.465616">
        <ele>1085.911</ele>
        <time>2021-07-17T06:52:41Z</time>
      </trkpt>
      <trkpt lat="42.505975" lon="-6.465381">
        <ele>1087.308</ele>
        <time>2021-07-17T06:52:53Z</time>
      </trkpt>
      <trkpt lat="42.505889" lon="-6.465214">
        <ele>1088.862</ele>
        <time>2021-07-17T06:53:02Z</time>
      </trkpt>
      <trkpt lat="42.505786" lon="-6.465005">
        <ele>1090.744</ele>
        <time>2021-07-17T06:53:13Z</time>
      </trkpt>
      <trkpt lat="42.505677" lon="-6.464799">
        <ele>1092.221</ele>
        <time>2021-07-17T06:53:24Z</time>
      </trkpt>
      <trkpt lat="42.505573" lon="-6.464620">
        <ele>1093.171</ele>
        <time>2021-07-17T06:53:33Z</time>
      </trkpt>
      <trkpt lat="42.505518" lon="-6.464525">
        <ele>1094.185</ele>
        <time>2021-07-17T06:53:40Z</time>
      </trkpt>
      <trkpt lat="42.505401" lon="-6.464327">
        <ele>1095.063</ele>
        <time>2021-07-17T06:53:52Z</time>
      </trkpt>
      <trkpt lat="42.505268" lon="-6.464065">
        <ele>1096.070</ele>
        <time>2021-07-17T06:54:05Z</time>
      </trkpt>
      <trkpt lat="42.505149" lon="-6.463813">
        <ele>1095.548</ele>
        <time>2021-07-17T06:54:18Z</time>
      </trkpt>
      <trkpt lat="42.505046" lon="-6.463567">
        <ele>1096.025</ele>
        <time>2021-07-17T06:54:29Z</time>
      </trkpt>
      <trkpt lat="42.504943" lon="-6.463338">
        <ele>1096.526</ele>
        <time>2021-07-17T06:54:39Z</time>
      </trkpt>
      <trkpt lat="42.504797" lon="-6.463075">
        <ele>1097.908</ele>
        <time>2021-07-17T06:54:51Z</time>
      </trkpt>
      <trkpt lat="42.504668" lon="-6.462876">
        <ele>1099.808</ele>
        <time>2021-07-17T06:55:01Z</time>
      </trkpt>
      <trkpt lat="42.504498" lon="-6.462649">
        <ele>1101.899</ele>
        <time>2021-07-17T06:55:13Z</time>
      </trkpt>
      <trkpt lat="42.504331" lon="-6.462480">
        <ele>1103.761</ele>
        <time>2021-07-17T06:55:23Z</time>
      </trkpt>
      <trkpt lat="42.504242" lon="-6.462393">
        <ele>1103.788</ele>
        <time>2021-07-17T06:55:31Z</time>
      </trkpt>
      <trkpt lat="42.504158" lon="-6.462292">
        <ele>1103.728</ele>
        <time>2021-07-17T06:55:40Z</time>
      </trkpt>
      <trkpt lat="42.504147" lon="-6.462284">
        <ele>1103.712</ele>
        <time>2021-07-17T06:55:41Z</time>
      </trkpt>
      <trkpt lat="42.504135" lon="-6.462277">
        <ele>1103.760</ele>
        <time>2021-07-17T06:55:42Z</time>
      </trkpt>
      <trkpt lat="42.504123" lon="-6.462268">
        <ele>1104.227</ele>
        <time>2021-07-17T06:55:43Z</time>
      </trkpt>
      <trkpt lat="42.504112" lon="-6.462256">
        <ele>1104.285</ele>
        <time>2021-07-17T06:55:44Z</time>
      </trkpt>
      <trkpt lat="42.503969" lon="-6.462116">
        <ele>1104.683</ele>
        <time>2021-07-17T06:55:55Z</time>
      </trkpt>
      <trkpt lat="42.503857" lon="-6.461991">
        <ele>1105.625</ele>
        <time>2021-07-17T06:56:04Z</time>
      </trkpt>
      <trkpt lat="42.503808" lon="-6.461930">
        <ele>1106.117</ele>
        <time>2021-07-17T06:56:08Z</time>
      </trkpt>
      <trkpt lat="42.503794" lon="-6.461920">
        <ele>1106.608</ele>
        <time>2021-07-17T06:56:09Z</time>
      </trkpt>
      <trkpt lat="42.503783" lon="-6.461909">
        <ele>1106.655</ele>
        <time>2021-07-17T06:56:10Z</time>
      </trkpt>
      <trkpt lat="42.503772" lon="-6.461896">
        <ele>1107.157</ele>
        <time>2021-07-17T06:56:16Z</time>
      </trkpt>
      <trkpt lat="42.503768" lon="-6.461907">
        <ele>1108.054</ele>
        <time>2021-07-17T06:56:42Z</time>
      </trkpt>
      <trkpt lat="42.503738" lon="-6.461850">
        <ele>1107.564</ele>
        <time>2021-07-17T06:56:55Z</time>
      </trkpt>
      <trkpt lat="42.503603" lon="-6.461708">
        <ele>1108.568</ele>
        <time>2021-07-17T06:57:04Z</time>
      </trkpt>
      <trkpt lat="42.503398" lon="-6.461468">
        <ele>1110.456</ele>
        <time>2021-07-17T06:57:18Z</time>
      </trkpt>
      <trkpt lat="42.503267" lon="-6.461297">
        <ele>1111.423</ele>
        <time>2021-07-17T06:57:28Z</time>
      </trkpt>
      <trkpt lat="42.503166" lon="-6.461128">
        <ele>1112.381</ele>
        <time>2021-07-17T06:57:37Z</time>
      </trkpt>
      <trkpt lat="42.503063" lon="-6.460982">
        <ele>1113.378</ele>
        <time>2021-07-17T06:57:45Z</time>
      </trkpt>
      <trkpt lat="42.502915" lon="-6.460810">
        <ele>1116.233</ele>
        <time>2021-07-17T06:57:55Z</time>
      </trkpt>
      <trkpt lat="42.502728" lon="-6.460650">
        <ele>1117.126</ele>
        <time>2021-07-17T06:58:06Z</time>
      </trkpt>
      <trkpt lat="42.502518" lon="-6.460466">
        <ele>1118.108</ele>
        <time>2021-07-17T06:58:18Z</time>
      </trkpt>
      <trkpt lat="42.502334" lon="-6.460303">
        <ele>1119.514</ele>
        <time>2021-07-17T06:58:28Z</time>
      </trkpt>
      <trkpt lat="42.502169" lon="-6.460137">
        <ele>1120.536</ele>
        <time>2021-07-17T06:58:38Z</time>
      </trkpt>
      <trkpt lat="42.502007" lon="-6.459958">
        <ele>1122.093</ele>
        <time>2021-07-17T06:58:49Z</time>
      </trkpt>
      <trkpt lat="42.501841" lon="-6.459783">
        <ele>1123.993</ele>
        <time>2021-07-17T06:59:01Z</time>
      </trkpt>
      <trkpt lat="42.501648" lon="-6.459588">
        <ele>1124.897</ele>
        <time>2021-07-17T06:59:14Z</time>
      </trkpt>
      <trkpt lat="42.501520" lon="-6.459487">
        <ele>1126.335</ele>
        <time>2021-07-17T06:59:22Z</time>
      </trkpt>
      <trkpt lat="42.501363" lon="-6.459372">
        <ele>1127.712</ele>
        <time>2021-07-17T06:59:32Z</time>
      </trkpt>
      <trkpt lat="42.501236" lon="-6.459283">
        <ele>1129.680</ele>
        <time>2021-07-17T06:59:41Z</time>
      </trkpt>
      <trkpt lat="42.501125" lon="-6.459212">
        <ele>1131.668</ele>
        <time>2021-07-17T06:59:50Z</time>
      </trkpt>
      <trkpt lat="42.501013" lon="-6.459094">
        <ele>1132.542</ele>
        <time>2021-07-17T06:59:59Z</time>
      </trkpt>
      <trkpt lat="42.500918" lon="-6.458976">
        <ele>1134.026</ele>
        <time>2021-07-17T07:00:07Z</time>
      </trkpt>
      <trkpt lat="42.500816" lon="-6.458868">
        <ele>1134.008</ele>
        <time>2021-07-17T07:00:15Z</time>
      </trkpt>
      <trkpt lat="42.500719" lon="-6.458773">
        <ele>1134.423</ele>
        <time>2021-07-17T07:00:22Z</time>
      </trkpt>
      <trkpt lat="42.500590" lon="-6.458659">
        <ele>1135.415</ele>
        <time>2021-07-17T07:00:31Z</time>
      </trkpt>
      <trkpt lat="42.500433" lon="-6.458545">
        <ele>1135.412</ele>
        <time>2021-07-17T07:00:42Z</time>
      </trkpt>
      <trkpt lat="42.500304" lon="-6.458487">
        <ele>1136.982</ele>
        <time>2021-07-17T07:00:51Z</time>
      </trkpt>
      <trkpt lat="42.500185" lon="-6.458454">
        <ele>1138.316</ele>
        <time>2021-07-17T07:00:59Z</time>
      </trkpt>
      <trkpt lat="42.499992" lon="-6.458422">
        <ele>1142.174</ele>
        <time>2021-07-17T07:01:11Z</time>
      </trkpt>
      <trkpt lat="42.499853" lon="-6.458407">
        <ele>1143.181</ele>
        <time>2021-07-17T07:01:20Z</time>
      </trkpt>
      <trkpt lat="42.499714" lon="-6.458357">
        <ele>1144.579</ele>
        <time>2021-07-17T07:01:29Z</time>
      </trkpt>
      <trkpt lat="42.499601" lon="-6.458310">
        <ele>1145.536</ele>
        <time>2021-07-17T07:01:36Z</time>
      </trkpt>
      <trkpt lat="42.499587" lon="-6.458300">
        <ele>1146.017</ele>
        <time>2021-07-17T07:01:37Z</time>
      </trkpt>
      <trkpt lat="42.499572" lon="-6.458288">
        <ele>1146.018</ele>
        <time>2021-07-17T07:01:38Z</time>
      </trkpt>
      <trkpt lat="42.499558" lon="-6.458276">
        <ele>1146.008</ele>
        <time>2021-07-17T07:01:39Z</time>
      </trkpt>
      <trkpt lat="42.499542" lon="-6.458266">
        <ele>1146.550</ele>
        <time>2021-07-17T07:01:40Z</time>
      </trkpt>
      <trkpt lat="42.499439" lon="-6.458162">
        <ele>1148.922</ele>
        <time>2021-07-17T07:01:48Z</time>
      </trkpt>
      <trkpt lat="42.499356" lon="-6.458045">
        <ele>1149.329</ele>
        <time>2021-07-17T07:01:55Z</time>
      </trkpt>
      <trkpt lat="42.499276" lon="-6.457908">
        <ele>1149.319</ele>
        <time>2021-07-17T07:02:03Z</time>
      </trkpt>
      <trkpt lat="42.499205" lon="-6.457742">
        <ele>1150.353</ele>
        <time>2021-07-17T07:02:12Z</time>
      </trkpt>
      <trkpt lat="42.499147" lon="-6.457551">
        <ele>1151.851</ele>
        <time>2021-07-17T07:02:23Z</time>
      </trkpt>
      <trkpt lat="42.499076" lon="-6.457367">
        <ele>1153.218</ele>
        <time>2021-07-17T07:02:32Z</time>
      </trkpt>
      <trkpt lat="42.498970" lon="-6.457203">
        <ele>1154.616</ele>
        <time>2021-07-17T07:02:42Z</time>
      </trkpt>
      <trkpt lat="42.498893" lon="-6.457092">
        <ele>1155.193</ele>
        <time>2021-07-17T07:02:51Z</time>
      </trkpt>
      <trkpt lat="42.498802" lon="-6.456961">
        <ele>1155.665</ele>
        <time>2021-07-17T07:03:01Z</time>
      </trkpt>
      <trkpt lat="42.498708" lon="-6.456859">
        <ele>1157.021</ele>
        <time>2021-07-17T07:03:10Z</time>
      </trkpt>
      <trkpt lat="42.498609" lon="-6.456735">
        <ele>1158.008</ele>
        <time>2021-07-17T07:03:20Z</time>
      </trkpt>
      <trkpt lat="42.498513" lon="-6.456596">
        <ele>1159.446</ele>
        <time>2021-07-17T07:03:30Z</time>
      </trkpt>
      <trkpt lat="42.498423" lon="-6.456461">
        <ele>1159.918</ele>
        <time>2021-07-17T07:03:40Z</time>
      </trkpt>
      <trkpt lat="42.498360" lon="-6.456382">
        <ele>1160.465</ele>
        <time>2021-07-17T07:03:47Z</time>
      </trkpt>
      <trkpt lat="42.498245" lon="-6.456237">
        <ele>1161.435</ele>
        <time>2021-07-17T07:03:59Z</time>
      </trkpt>
      <trkpt lat="42.498117" lon="-6.456117">
        <ele>1163.329</ele>
        <time>2021-07-17T07:04:10Z</time>
      </trkpt>
      <trkpt lat="42.497966" lon="-6.456062">
        <ele>1165.237</ele>
        <time>2021-07-17T07:04:20Z</time>
      </trkpt>
      <trkpt lat="42.497870" lon="-6.456040">
        <ele>1167.664</ele>
        <time>2021-07-17T07:04:28Z</time>
      </trkpt>
      <trkpt lat="42.497778" lon="-6.455987">
        <ele>1169.552</ele>
        <time>2021-07-17T07:04:37Z</time>
      </trkpt>
      <trkpt lat="42.497700" lon="-6.455950">
        <ele>1171.075</ele>
        <time>2021-07-17T07:04:44Z</time>
      </trkpt>
      <trkpt lat="42.497694" lon="-6.455937">
        <ele>1171.028</ele>
        <time>2021-07-17T07:04:45Z</time>
      </trkpt>
      <trkpt lat="42.497689" lon="-6.455921">
        <ele>1171.020</ele>
        <time>2021-07-17T07:04:46Z</time>
      </trkpt>
      <trkpt lat="42.497691" lon="-6.455905">
        <ele>1171.008</ele>
        <time>2021-07-17T07:04:47Z</time>
      </trkpt>
      <trkpt lat="42.497695" lon="-6.455886">
        <ele>1171.054</ele>
        <time>2021-07-17T07:04:48Z</time>
      </trkpt>
      <trkpt lat="42.497700" lon="-6.455869">
        <ele>1171.096</ele>
        <time>2021-07-17T07:04:49Z</time>
      </trkpt>
      <trkpt lat="42.497706" lon="-6.455850">
        <ele>1171.043</ele>
        <time>2021-07-17T07:04:50Z</time>
      </trkpt>
      <trkpt lat="42.497768" lon="-6.455748">
        <ele>1171.563</ele>
        <time>2021-07-17T07:04:57Z</time>
      </trkpt>
      <trkpt lat="42.497781" lon="-6.455740">
        <ele>1171.047</ele>
        <time>2021-07-17T07:04:58Z</time>
      </trkpt>
      <trkpt lat="42.497793" lon="-6.455733">
        <ele>1171.045</ele>
        <time>2021-07-17T07:04:59Z</time>
      </trkpt>
      <trkpt lat="42.497805" lon="-6.455727">
        <ele>1171.022</ele>
        <time>2021-07-17T07:05:00Z</time>
      </trkpt>
      <trkpt lat="42.497816" lon="-6.455721">
        <ele>1171.020</ele>
        <time>2021-07-17T07:05:01Z</time>
      </trkpt>
      <trkpt lat="42.497827" lon="-6.455717">
        <ele>1170.537</ele>
        <time>2021-07-17T07:05:02Z</time>
      </trkpt>
      <trkpt lat="42.497838" lon="-6.455714">
        <ele>1170.549</ele>
        <time>2021-07-17T07:05:03Z</time>
      </trkpt>
      <trkpt lat="42.497848" lon="-6.455709">
        <ele>1170.513</ele>
        <time>2021-07-17T07:05:04Z</time>
      </trkpt>
      <trkpt lat="42.497859" lon="-6.455704">
        <ele>1170.508</ele>
        <time>2021-07-17T07:05:05Z</time>
      </trkpt>
      <trkpt lat="42.497871" lon="-6.455699">
        <ele>1170.060</ele>
        <time>2021-07-17T07:05:06Z</time>
      </trkpt>
      <trkpt lat="42.497882" lon="-6.455696">
        <ele>1170.072</ele>
        <time>2021-07-17T07:05:07Z</time>
      </trkpt>
      <trkpt lat="42.497894" lon="-6.455694">
        <ele>1170.019</ele>
        <time>2021-07-17T07:05:08Z</time>
      </trkpt>
      <trkpt lat="42.497905" lon="-6.455691">
        <ele>1170.069</ele>
        <time>2021-07-17T07:05:09Z</time>
      </trkpt>
      <trkpt lat="42.497915" lon="-6.455685">
        <ele>1170.083</ele>
        <time>2021-07-17T07:05:10Z</time>
      </trkpt>
      <trkpt lat="42.497981" lon="-6.455630">
        <ele>1169.511</ele>
        <time>2021-07-17T07:05:18Z</time>
      </trkpt>
      <trkpt lat="42.498058" lon="-6.455555">
        <ele>1170.548</ele>
        <time>2021-07-17T07:05:28Z</time>
      </trkpt>
      <trkpt lat="42.498111" lon="-6.455487">
        <ele>1171.036</ele>
        <time>2021-07-17T07:05:35Z</time>
      </trkpt>
      <trkpt lat="42.498182" lon="-6.455361">
        <ele>1171.565</ele>
        <time>2021-07-17T07:05:46Z</time>
      </trkpt>
      <trkpt lat="42.498226" lon="-6.455270">
        <ele>1172.968</ele>
        <time>2021-07-17T07:05:53Z</time>
      </trkpt>
      <trkpt lat="42.498230" lon="-6.455256">
        <ele>1172.914</ele>
        <time>2021-07-17T07:05:54Z</time>
      </trkpt>
      <trkpt lat="42.498275" lon="-6.455138">
        <ele>1174.308</ele>
        <time>2021-07-17T07:06:02Z</time>
      </trkpt>
      <trkpt lat="42.498306" lon="-6.455027">
        <ele>1175.853</ele>
        <time>2021-07-17T07:06:09Z</time>
      </trkpt>
      <trkpt lat="42.498309" lon="-6.455012">
        <ele>1175.875</ele>
        <time>2021-07-17T07:06:10Z</time>
      </trkpt>
      <trkpt lat="42.498350" lon="-6.454848">
        <ele>1177.762</ele>
        <time>2021-07-17T07:06:20Z</time>
      </trkpt>
      <trkpt lat="42.498377" lon="-6.454713">
        <ele>1178.722</ele>
        <time>2021-07-17T07:06:28Z</time>
      </trkpt>
      <trkpt lat="42.498413" lon="-6.454552">
        <ele>1180.626</ele>
        <time>2021-07-17T07:06:37Z</time>
      </trkpt>
      <trkpt lat="42.498474" lon="-6.454397">
        <ele>1183.034</ele>
        <time>2021-07-17T07:06:47Z</time>
      </trkpt>
      <trkpt lat="42.498545" lon="-6.454262">
        <ele>1185.411</ele>
        <time>2021-07-17T07:06:57Z</time>
      </trkpt>
      <trkpt lat="42.498559" lon="-6.454236">
        <ele>1185.919</ele>
        <time>2021-07-17T07:06:59Z</time>
      </trkpt>
      <trkpt lat="42.498566" lon="-6.454211">
        <ele>1185.993</ele>
        <time>2021-07-17T07:07:01Z</time>
      </trkpt>
      <trkpt lat="42.498574" lon="-6.454201">
        <ele>1186.465</ele>
        <time>2021-07-17T07:07:02Z</time>
      </trkpt>
      <trkpt lat="42.498662" lon="-6.454085">
        <ele>1186.821</ele>
        <time>2021-07-17T07:07:12Z</time>
      </trkpt>
      <trkpt lat="42.498743" lon="-6.454001">
        <ele>1187.308</ele>
        <time>2021-07-17T07:07:20Z</time>
      </trkpt>
      <trkpt lat="42.498828" lon="-6.453932">
        <ele>1188.856</ele>
        <time>2021-07-17T07:07:28Z</time>
      </trkpt>
      <trkpt lat="42.498936" lon="-6.453813">
        <ele>1189.758</ele>
        <time>2021-07-17T07:07:39Z</time>
      </trkpt>
      <trkpt lat="42.499035" lon="-6.453689">
        <ele>1190.795</ele>
        <time>2021-07-17T07:07:50Z</time>
      </trkpt>
      <trkpt lat="42.499131" lon="-6.453543">
        <ele>1192.155</ele>
        <time>2021-07-17T07:08:01Z</time>
      </trkpt>
      <trkpt lat="42.499190" lon="-6.453383">
        <ele>1193.679</ele>
        <time>2021-07-17T07:08:11Z</time>
      </trkpt>
      <trkpt lat="42.499216" lon="-6.453224">
        <ele>1195.587</ele>
        <time>2021-07-17T07:08:20Z</time>
      </trkpt>
      <trkpt lat="42.499237" lon="-6.453078">
        <ele>1196.994</ele>
        <time>2021-07-17T07:08:28Z</time>
      </trkpt>
      <trkpt lat="42.499240" lon="-6.452900">
        <ele>1198.992</ele>
        <time>2021-07-17T07:08:38Z</time>
      </trkpt>
      <trkpt lat="42.499239" lon="-6.452747">
        <ele>1199.815</ele>
        <time>2021-07-17T07:08:48Z</time>
      </trkpt>
      <trkpt lat="42.499239" lon="-6.452597">
        <ele>1200.365</ele>
        <time>2021-07-17T07:08:58Z</time>
      </trkpt>
      <trkpt lat="42.499234" lon="-6.452445">
        <ele>1201.311</ele>
        <time>2021-07-17T07:09:08Z</time>
      </trkpt>
      <trkpt lat="42.499217" lon="-6.452344">
        <ele>1202.208</ele>
        <time>2021-07-17T07:09:15Z</time>
      </trkpt>
      <trkpt lat="42.499214" lon="-6.452329">
        <ele>1202.248</ele>
        <time>2021-07-17T07:09:16Z</time>
      </trkpt>
      <trkpt lat="42.499211" lon="-6.452312">
        <ele>1202.210</ele>
        <time>2021-07-17T07:09:17Z</time>
      </trkpt>
      <trkpt lat="42.499205" lon="-6.452232">
        <ele>1202.747</ele>
        <time>2021-07-17T07:09:22Z</time>
      </trkpt>
      <trkpt lat="42.499156" lon="-6.452048">
        <ele>1204.197</ele>
        <time>2021-07-17T07:09:33Z</time>
      </trkpt>
      <trkpt lat="42.499124" lon="-6.451865">
        <ele>1204.641</ele>
        <time>2021-07-17T07:09:43Z</time>
      </trkpt>
      <trkpt lat="42.499092" lon="-6.451693">
        <ele>1205.149</ele>
        <time>2021-07-17T07:09:52Z</time>
      </trkpt>
      <trkpt lat="42.499055" lon="-6.451542">
        <ele>1205.136</ele>
        <time>2021-07-17T07:10:00Z</time>
      </trkpt>
      <trkpt lat="42.499030" lon="-6.451299">
        <ele>1206.584</ele>
        <time>2021-07-17T07:10:12Z</time>
      </trkpt>
      <trkpt lat="42.499005" lon="-6.451051">
        <ele>1209.451</ele>
        <time>2021-07-17T07:10:24Z</time>
      </trkpt>
      <trkpt lat="42.498983" lon="-6.450865">
        <ele>1211.401</ele>
        <time>2021-07-17T07:10:33Z</time>
      </trkpt>
      <trkpt lat="42.498945" lon="-6.450644">
        <ele>1213.811</ele>
        <time>2021-07-17T07:10:44Z</time>
      </trkpt>
      <trkpt lat="42.498904" lon="-6.450471">
        <ele>1215.708</ele>
        <time>2021-07-17T07:10:53Z</time>
      </trkpt>
      <trkpt lat="42.498874" lon="-6.450361">
        <ele>1216.622</ele>
        <time>2021-07-17T07:11:01Z</time>
      </trkpt>
      <trkpt lat="42.498829" lon="-6.450231">
        <ele>1217.634</ele>
        <time>2021-07-17T07:11:10Z</time>
      </trkpt>
      <trkpt lat="42.498779" lon="-6.450112">
        <ele>1218.111</ele>
        <time>2021-07-17T07:11:17Z</time>
      </trkpt>
      <trkpt lat="42.498769" lon="-6.450097">
        <ele>1218.191</ele>
        <time>2021-07-17T07:11:18Z</time>
      </trkpt>
      <trkpt lat="42.498677" lon="-6.449960">
        <ele>1219.075</ele>
        <time>2021-07-17T07:11:27Z</time>
      </trkpt>
      <trkpt lat="42.498599" lon="-6.449847">
        <ele>1219.093</ele>
        <time>2021-07-17T07:11:35Z</time>
      </trkpt>
      <trkpt lat="42.498584" lon="-6.449819">
        <ele>1219.010</ele>
        <time>2021-07-17T07:11:37Z</time>
      </trkpt>
      <trkpt lat="42.498575" lon="-6.449805">
        <ele>1219.068</ele>
        <time>2021-07-17T07:11:38Z</time>
      </trkpt>
      <trkpt lat="42.498483" lon="-6.449617">
        <ele>1220.528</ele>
        <time>2021-07-17T07:11:49Z</time>
      </trkpt>
      <trkpt lat="42.498414" lon="-6.449441">
        <ele>1220.089</ele>
        <time>2021-07-17T07:11:59Z</time>
      </trkpt>
      <trkpt lat="42.498351" lon="-6.449255">
        <ele>1220.517</ele>
        <time>2021-07-17T07:12:09Z</time>
      </trkpt>
      <trkpt lat="42.498311" lon="-6.449053">
        <ele>1220.508</ele>
        <time>2021-07-17T07:12:18Z</time>
      </trkpt>
      <trkpt lat="42.498285" lon="-6.448809">
        <ele>1221.979</ele>
        <time>2021-07-17T07:12:29Z</time>
      </trkpt>
      <trkpt lat="42.498280" lon="-6.448570">
        <ele>1223.971</ele>
        <time>2021-07-17T07:12:40Z</time>
      </trkpt>
      <trkpt lat="42.498307" lon="-6.448309">
        <ele>1226.348</ele>
        <time>2021-07-17T07:12:52Z</time>
      </trkpt>
      <trkpt lat="42.498307" lon="-6.448272">
        <ele>1226.758</ele>
        <time>2021-07-17T07:12:58Z</time>
      </trkpt>
      <trkpt lat="42.498312" lon="-6.448272">
        <ele>1227.232</ele>
        <time>2021-07-17T07:13:05Z</time>
      </trkpt>
      <trkpt lat="42.498328" lon="-6.448165">
        <ele>1228.730</ele>
        <time>2021-07-17T07:13:14Z</time>
      </trkpt>
      <trkpt lat="42.498330" lon="-6.448118">
        <ele>1230.117</ele>
        <time>2021-07-17T07:13:21Z</time>
      </trkpt>
      <trkpt lat="42.498330" lon="-6.448121">
        <ele>1231.555</ele>
        <time>2021-07-17T07:13:38Z</time>
      </trkpt>
      <trkpt lat="42.498318" lon="-6.448131">
        <ele>1230.693</ele>
        <time>2021-07-17T07:13:53Z</time>
      </trkpt>
      <trkpt lat="42.498317" lon="-6.448123">
        <ele>1229.165</ele>
        <time>2021-07-17T07:14:11Z</time>
      </trkpt>
      <trkpt lat="42.498328" lon="-6.448076">
        <ele>1229.121</ele>
        <time>2021-07-17T07:14:22Z</time>
      </trkpt>
      <trkpt lat="42.498339" lon="-6.447920">
        <ele>1231.108</ele>
        <time>2021-07-17T07:14:33Z</time>
      </trkpt>
      <trkpt lat="42.498338" lon="-6.447909">
        <ele>1231.126</ele>
        <time>2021-07-17T07:14:40Z</time>
      </trkpt>
      <trkpt lat="42.498351" lon="-6.447879">
        <ele>1232.028</ele>
        <time>2021-07-17T07:14:54Z</time>
      </trkpt>
      <trkpt lat="42.498362" lon="-6.447772">
        <ele>1232.525</ele>
        <time>2021-07-17T07:15:03Z</time>
      </trkpt>
      <trkpt lat="42.498382" lon="-6.447650">
        <ele>1233.085</ele>
        <time>2021-07-17T07:15:13Z</time>
      </trkpt>
      <trkpt lat="42.498388" lon="-6.447588">
        <ele>1233.049</ele>
        <time>2021-07-17T07:15:18Z</time>
      </trkpt>
      <trkpt lat="42.498402" lon="-6.447510">
        <ele>1233.977</ele>
        <time>2021-07-17T07:15:25Z</time>
      </trkpt>
      <trkpt lat="42.498408" lon="-6.447458">
        <ele>1234.994</ele>
        <time>2021-07-17T07:15:33Z</time>
      </trkpt>
      <trkpt lat="42.498413" lon="-6.447432">
        <ele>1235.452</ele>
        <time>2021-07-17T07:15:46Z</time>
      </trkpt>
      <trkpt lat="42.498443" lon="-6.447313">
        <ele>1236.387</ele>
        <time>2021-07-17T07:15:56Z</time>
      </trkpt>
      <trkpt lat="42.498474" lon="-6.447144">
        <ele>1238.342</ele>
        <time>2021-07-17T07:16:09Z</time>
      </trkpt>
      <trkpt lat="42.498495" lon="-6.447007">
        <ele>1239.726</ele>
        <time>2021-07-17T07:16:20Z</time>
      </trkpt>
      <trkpt lat="42.498503" lon="-6.446942">
        <ele>1239.708</ele>
        <time>2021-07-17T07:16:31Z</time>
      </trkpt>
      <trkpt lat="42.498511" lon="-6.446888">
        <ele>1240.225</ele>
        <time>2021-07-17T07:16:42Z</time>
      </trkpt>
      <trkpt lat="42.498534" lon="-6.446785">
        <ele>1241.627</ele>
        <time>2021-07-17T07:16:51Z</time>
      </trkpt>
      <trkpt lat="42.498553" lon="-6.446656">
        <ele>1243.164</ele>
        <time>2021-07-17T07:17:02Z</time>
      </trkpt>
      <trkpt lat="42.498583" lon="-6.446500">
        <ele>1245.094</ele>
        <time>2021-07-17T07:17:16Z</time>
      </trkpt>
      <trkpt lat="42.498591" lon="-6.446474">
        <ele>1245.528</ele>
        <time>2021-07-17T07:17:28Z</time>
      </trkpt>
      <trkpt lat="42.498605" lon="-6.446324">
        <ele>1247.466</ele>
        <time>2021-07-17T07:17:40Z</time>
      </trkpt>
      <trkpt lat="42.498608" lon="-6.446284">
        <ele>1247.973</ele>
        <time>2021-07-17T07:17:43Z</time>
      </trkpt>
      <trkpt lat="42.498599" lon="-6.446186">
        <ele>1249.821</ele>
        <time>2021-07-17T07:17:54Z</time>
      </trkpt>
      <trkpt lat="42.498602" lon="-6.446157">
        <ele>1250.839</ele>
        <time>2021-07-17T07:18:08Z</time>
      </trkpt>
      <trkpt lat="42.498579" lon="-6.446017">
        <ele>1252.201</ele>
        <time>2021-07-17T07:18:19Z</time>
      </trkpt>
      <trkpt lat="42.498559" lon="-6.445909">
        <ele>1253.721</ele>
        <time>2021-07-17T07:18:28Z</time>
      </trkpt>
      <trkpt lat="42.498533" lon="-6.445773">
        <ele>1256.108</ele>
        <time>2021-07-17T07:18:39Z</time>
      </trkpt>
      <trkpt lat="42.498502" lon="-6.445617">
        <ele>1258.560</ele>
        <time>2021-07-17T07:18:51Z</time>
      </trkpt>
      <trkpt lat="42.498460" lon="-6.445439">
        <ele>1260.432</ele>
        <time>2021-07-17T07:19:04Z</time>
      </trkpt>
      <trkpt lat="42.498447" lon="-6.445435">
        <ele>1259.429</ele>
        <time>2021-07-17T07:19:17Z</time>
      </trkpt>
      <trkpt lat="42.498423" lon="-6.445332">
        <ele>1259.479</ele>
        <time>2021-07-17T07:19:28Z</time>
      </trkpt>
      <trkpt lat="42.498388" lon="-6.445213">
        <ele>1261.893</ele>
        <time>2021-07-17T07:19:38Z</time>
      </trkpt>
      <trkpt lat="42.498354" lon="-6.445099">
        <ele>1263.351</ele>
        <time>2021-07-17T07:19:48Z</time>
      </trkpt>
      <trkpt lat="42.498320" lon="-6.445022">
        <ele>1264.248</ele>
        <time>2021-07-17T07:19:55Z</time>
      </trkpt>
      <trkpt lat="42.498279" lon="-6.444909">
        <ele>1265.756</ele>
        <time>2021-07-17T07:20:05Z</time>
      </trkpt>
      <trkpt lat="42.498224" lon="-6.444800">
        <ele>1266.676</ele>
        <time>2021-07-17T07:20:15Z</time>
      </trkpt>
      <trkpt lat="42.498192" lon="-6.444739">
        <ele>1267.690</ele>
        <time>2021-07-17T07:20:23Z</time>
      </trkpt>
      <trkpt lat="42.498176" lon="-6.444706">
        <ele>1267.119</ele>
        <time>2021-07-17T07:20:34Z</time>
      </trkpt>
      <trkpt lat="42.498104" lon="-6.444574">
        <ele>1268.608</ele>
        <time>2021-07-17T07:20:46Z</time>
      </trkpt>
      <trkpt lat="42.498095" lon="-6.444565">
        <ele>1268.664</ele>
        <time>2021-07-17T07:20:47Z</time>
      </trkpt>
      <trkpt lat="42.498087" lon="-6.444556">
        <ele>1268.696</ele>
        <time>2021-07-17T07:20:48Z</time>
      </trkpt>
      <trkpt lat="42.498080" lon="-6.444544">
        <ele>1268.643</ele>
        <time>2021-07-17T07:20:49Z</time>
      </trkpt>
      <trkpt lat="42.497992" lon="-6.444412">
        <ele>1271.033</ele>
        <time>2021-07-17T07:21:01Z</time>
      </trkpt>
      <trkpt lat="42.497964" lon="-6.444377">
        <ele>1271.437</ele>
        <time>2021-07-17T07:21:10Z</time>
      </trkpt>
      <trkpt lat="42.497933" lon="-6.444348">
        <ele>1271.945</ele>
        <time>2021-07-17T07:21:21Z</time>
      </trkpt>
      <trkpt lat="42.497925" lon="-6.444340">
        <ele>1271.922</ele>
        <time>2021-07-17T07:21:22Z</time>
      </trkpt>
      <trkpt lat="42.497857" lon="-6.444270">
        <ele>1273.880</ele>
        <time>2021-07-17T07:21:31Z</time>
      </trkpt>
      <trkpt lat="42.497783" lon="-6.444220">
        <ele>1274.816</ele>
        <time>2021-07-17T07:21:40Z</time>
      </trkpt>
      <trkpt lat="42.497659" lon="-6.444226">
        <ele>1275.876</ele>
        <time>2021-07-17T07:21:53Z</time>
      </trkpt>
      <trkpt lat="42.497615" lon="-6.444255">
        <ele>1276.713</ele>
        <time>2021-07-17T07:22:02Z</time>
      </trkpt>
      <trkpt lat="42.497592" lon="-6.444287">
        <ele>1276.708</ele>
        <time>2021-07-17T07:22:09Z</time>
      </trkpt>
      <trkpt lat="42.497541" lon="-6.444397">
        <ele>1277.788</ele>
        <time>2021-07-17T07:22:19Z</time>
      </trkpt>
      <trkpt lat="42.497536" lon="-6.444423">
        <ele>1278.270</ele>
        <time>2021-07-17T07:22:21Z</time>
      </trkpt>
      <trkpt lat="42.497494" lon="-6.444521">
        <ele>1279.637</ele>
        <time>2021-07-17T07:22:30Z</time>
      </trkpt>
      <trkpt lat="42.497442" lon="-6.444647">
        <ele>1282.037</ele>
        <time>2021-07-17T07:22:41Z</time>
      </trkpt>
      <trkpt lat="42.497377" lon="-6.444770">
        <ele>1283.971</ele>
        <time>2021-07-17T07:22:51Z</time>
      </trkpt>
      <trkpt lat="42.497322" lon="-6.444847">
        <ele>1284.989</ele>
        <time>2021-07-17T07:23:01Z</time>
      </trkpt>
      <trkpt lat="42.497272" lon="-6.444911">
        <ele>1285.486</ele>
        <time>2021-07-17T07:23:08Z</time>
      </trkpt>
      <trkpt lat="42.497181" lon="-6.445041">
        <ele>1285.434</ele>
        <time>2021-07-17T07:23:19Z</time>
      </trkpt>
      <trkpt lat="42.497070" lon="-6.445192">
        <ele>1286.369</ele>
        <time>2021-07-17T07:23:31Z</time>
      </trkpt>
      <trkpt lat="42.496947" lon="-6.445354">
        <ele>1287.804</ele>
        <time>2021-07-17T07:23:44Z</time>
      </trkpt>
      <trkpt lat="42.496830" lon="-6.445470">
        <ele>1288.724</ele>
        <time>2021-07-17T07:23:55Z</time>
      </trkpt>
      <trkpt lat="42.496832" lon="-6.445488">
        <ele>1289.208</ele>
        <time>2021-07-17T07:24:02Z</time>
      </trkpt>
      <trkpt lat="42.496834" lon="-6.445490">
        <ele>1289.733</ele>
        <time>2021-07-17T07:24:23Z</time>
      </trkpt>
      <trkpt lat="42.496834" lon="-6.445487">
        <ele>1289.225</ele>
        <time>2021-07-17T07:24:38Z</time>
      </trkpt>
      <trkpt lat="42.496831" lon="-6.445486">
        <ele>1288.392</ele>
        <time>2021-07-17T07:24:57Z</time>
      </trkpt>
      <trkpt lat="42.496827" lon="-6.445482">
        <ele>1288.752</ele>
        <time>2021-07-17T07:25:10Z</time>
      </trkpt>
      <trkpt lat="42.496824" lon="-6.445485">
        <ele>1288.766</ele>
        <time>2021-07-17T07:25:26Z</time>
      </trkpt>
      <trkpt lat="42.496834" lon="-6.445481">
        <ele>1288.714</ele>
        <time>2021-07-17T07:25:40Z</time>
      </trkpt>
      <trkpt lat="42.496835" lon="-6.445487">
        <ele>1289.291</ele>
        <time>2021-07-17T07:25:53Z</time>
      </trkpt>
      <trkpt lat="42.496835" lon="-6.445484">
        <ele>1289.249</ele>
        <time>2021-07-17T07:26:04Z</time>
      </trkpt>
      <trkpt lat="42.496827" lon="-6.445490">
        <ele>1289.227</ele>
        <time>2021-07-17T07:26:11Z</time>
      </trkpt>
      <trkpt lat="42.496827" lon="-6.445503">
        <ele>1289.268</ele>
        <time>2021-07-17T07:26:25Z</time>
      </trkpt>
      <trkpt lat="42.496830" lon="-6.445493">
        <ele>1289.714</ele>
        <time>2021-07-17T07:26:39Z</time>
      </trkpt>
      <trkpt lat="42.496791" lon="-6.445489">
        <ele>1290.208</ele>
        <time>2021-07-17T07:26:53Z</time>
      </trkpt>
      <trkpt lat="42.496781" lon="-6.445492">
        <ele>1290.299</ele>
        <time>2021-07-17T07:26:54Z</time>
      </trkpt>
      <trkpt lat="42.496769" lon="-6.445495">
        <ele>1290.261</ele>
        <time>2021-07-17T07:26:55Z</time>
      </trkpt>
      <trkpt lat="42.496758" lon="-6.445499">
        <ele>1290.268</ele>
        <time>2021-07-17T07:26:56Z</time>
      </trkpt>
      <trkpt lat="42.496622" lon="-6.445515">
        <ele>1290.728</ele>
        <time>2021-07-17T07:27:07Z</time>
      </trkpt>
      <trkpt lat="42.496509" lon="-6.445483">
        <ele>1291.672</ele>
        <time>2021-07-17T07:27:17Z</time>
      </trkpt>
      <trkpt lat="42.496462" lon="-6.445463">
        <ele>1292.620</ele>
        <time>2021-07-17T07:27:25Z</time>
      </trkpt>
      <trkpt lat="42.496374" lon="-6.445419">
        <ele>1293.157</ele>
        <time>2021-07-17T07:27:33Z</time>
      </trkpt>
      <trkpt lat="42.496247" lon="-6.445335">
        <ele>1295.035</ele>
        <time>2021-07-17T07:27:44Z</time>
      </trkpt>
      <trkpt lat="42.496140" lon="-6.445235">
        <ele>1296.429</ele>
        <time>2021-07-17T07:27:55Z</time>
      </trkpt>
      <trkpt lat="42.496126" lon="-6.445225">
        <ele>1296.400</ele>
        <time>2021-07-17T07:28:03Z</time>
      </trkpt>
      <trkpt lat="42.496122" lon="-6.445213">
        <ele>1295.920</ele>
        <time>2021-07-17T07:28:14Z</time>
      </trkpt>
      <trkpt lat="42.496044" lon="-6.445105">
        <ele>1296.908</ele>
        <time>2021-07-17T07:28:24Z</time>
      </trkpt>
      <trkpt lat="42.495937" lon="-6.444916">
        <ele>1299.859</ele>
        <time>2021-07-17T07:28:40Z</time>
      </trkpt>
      <trkpt lat="42.495893" lon="-6.444811">
        <ele>1301.251</ele>
        <time>2021-07-17T07:28:49Z</time>
      </trkpt>
      <trkpt lat="42.495889" lon="-6.444810">
        <ele>1301.758</ele>
        <time>2021-07-17T07:28:56Z</time>
      </trkpt>
      <trkpt lat="42.495869" lon="-6.444753">
        <ele>1302.228</ele>
        <time>2021-07-17T07:29:04Z</time>
      </trkpt>
      <trkpt lat="42.495812" lon="-6.444630">
        <ele>1304.162</ele>
        <time>2021-07-17T07:29:15Z</time>
      </trkpt>
      <trkpt lat="42.495758" lon="-6.444486">
        <ele>1305.140</ele>
        <time>2021-07-17T07:29:27Z</time>
      </trkpt>
      <trkpt lat="42.495719" lon="-6.444396">
        <ele>1306.527</ele>
        <time>2021-07-17T07:29:35Z</time>
      </trkpt>
      <trkpt lat="42.495712" lon="-6.444364">
        <ele>1307.525</ele>
        <time>2021-07-17T07:29:42Z</time>
      </trkpt>
      <trkpt lat="42.495688" lon="-6.444303">
        <ele>1308.999</ele>
        <time>2021-07-17T07:29:50Z</time>
      </trkpt>
      <trkpt lat="42.495679" lon="-6.444276">
        <ele>1309.407</ele>
        <time>2021-07-17T07:29:57Z</time>
      </trkpt>
      <trkpt lat="42.495638" lon="-6.444155">
        <ele>1310.927</ele>
        <time>2021-07-17T07:30:06Z</time>
      </trkpt>
      <trkpt lat="42.495605" lon="-6.444045">
        <ele>1312.308</ele>
        <time>2021-07-17T07:30:15Z</time>
      </trkpt>
      <trkpt lat="42.495562" lon="-6.443932">
        <ele>1313.386</ele>
        <time>2021-07-17T07:30:24Z</time>
      </trkpt>
      <trkpt lat="42.495556" lon="-6.443921">
        <ele>1313.398</ele>
        <time>2021-07-17T07:30:25Z</time>
      </trkpt>
      <trkpt lat="42.495544" lon="-6.443898">
        <ele>1313.795</ele>
        <time>2021-07-17T07:30:27Z</time>
      </trkpt>
      <trkpt lat="42.495530" lon="-6.443833">
        <ele>1314.225</ele>
        <time>2021-07-17T07:30:32Z</time>
      </trkpt>
      <trkpt lat="42.495522" lon="-6.443821">
        <ele>1314.799</ele>
        <time>2021-07-17T07:30:33Z</time>
      </trkpt>
      <trkpt lat="42.495514" lon="-6.443809">
        <ele>1314.797</ele>
        <time>2021-07-17T07:30:34Z</time>
      </trkpt>
      <trkpt lat="42.495508" lon="-6.443798">
        <ele>1314.774</ele>
        <time>2021-07-17T07:30:35Z</time>
      </trkpt>
      <trkpt lat="42.495502" lon="-6.443773">
        <ele>1314.792</ele>
        <time>2021-07-17T07:30:37Z</time>
      </trkpt>
      <trkpt lat="42.495501" lon="-6.443759">
        <ele>1314.798</ele>
        <time>2021-07-17T07:30:38Z</time>
      </trkpt>
      <trkpt lat="42.495466" lon="-6.443660">
        <ele>1316.615</ele>
        <time>2021-07-17T07:30:46Z</time>
      </trkpt>
      <trkpt lat="42.495458" lon="-6.443650">
        <ele>1316.626</ele>
        <time>2021-07-17T07:30:47Z</time>
      </trkpt>
      <trkpt lat="42.495408" lon="-6.443525">
        <ele>1318.108</ele>
        <time>2021-07-17T07:30:57Z</time>
      </trkpt>
      <trkpt lat="42.495371" lon="-6.443414">
        <ele>1319.556</ele>
        <time>2021-07-17T07:31:04Z</time>
      </trkpt>
      <trkpt lat="42.495331" lon="-6.443295">
        <ele>1320.048</ele>
        <time>2021-07-17T07:31:11Z</time>
      </trkpt>
      <trkpt lat="42.495322" lon="-6.443281">
        <ele>1320.045</ele>
        <time>2021-07-17T07:31:12Z</time>
      </trkpt>
      <trkpt lat="42.495313" lon="-6.443265">
        <ele>1320.515</ele>
        <time>2021-07-17T07:31:13Z</time>
      </trkpt>
      <trkpt lat="42.495306" lon="-6.443248">
        <ele>1320.599</ele>
        <time>2021-07-17T07:31:14Z</time>
      </trkpt>
      <trkpt lat="42.495299" lon="-6.443231">
        <ele>1320.957</ele>
        <time>2021-07-17T07:31:15Z</time>
      </trkpt>
      <trkpt lat="42.495270" lon="-6.443147">
        <ele>1321.414</ele>
        <time>2021-07-17T07:31:20Z</time>
      </trkpt>
      <trkpt lat="42.495266" lon="-6.443130">
        <ele>1321.472</ele>
        <time>2021-07-17T07:31:21Z</time>
      </trkpt>
      <trkpt lat="42.495259" lon="-6.443114">
        <ele>1321.966</ele>
        <time>2021-07-17T07:31:22Z</time>
      </trkpt>
      <trkpt lat="42.495252" lon="-6.443098">
        <ele>1321.929</ele>
        <time>2021-07-17T07:31:23Z</time>
      </trkpt>
      <trkpt lat="42.495244" lon="-6.443081">
        <ele>1321.921</ele>
        <time>2021-07-17T07:31:24Z</time>
      </trkpt>
      <trkpt lat="42.495237" lon="-6.443064">
        <ele>1322.408</ele>
        <time>2021-07-17T07:31:25Z</time>
      </trkpt>
      <trkpt lat="42.495228" lon="-6.443045">
        <ele>1322.423</ele>
        <time>2021-07-17T07:31:26Z</time>
      </trkpt>
      <trkpt lat="42.495116" lon="-6.442878">
        <ele>1323.355</ele>
        <time>2021-07-17T07:31:36Z</time>
      </trkpt>
      <trkpt lat="42.494988" lon="-6.442777">
        <ele>1324.872</ele>
        <time>2021-07-17T07:31:45Z</time>
      </trkpt>
      <trkpt lat="42.494893" lon="-6.442731">
        <ele>1326.212</ele>
        <time>2021-07-17T07:31:53Z</time>
      </trkpt>
      <trkpt lat="42.494881" lon="-6.442727">
        <ele>1326.286</ele>
        <time>2021-07-17T07:31:54Z</time>
      </trkpt>
      <trkpt lat="42.494870" lon="-6.442725">
        <ele>1326.244</ele>
        <time>2021-07-17T07:31:55Z</time>
      </trkpt>
      <trkpt lat="42.494859" lon="-6.442722">
        <ele>1326.731</ele>
        <time>2021-07-17T07:31:56Z</time>
      </trkpt>
      <trkpt lat="42.494847" lon="-6.442718">
        <ele>1326.759</ele>
        <time>2021-07-17T07:31:57Z</time>
      </trkpt>
      <trkpt lat="42.494835" lon="-6.442713">
        <ele>1326.761</ele>
        <time>2021-07-17T07:31:58Z</time>
      </trkpt>
      <trkpt lat="42.494762" lon="-6.442673">
        <ele>1327.721</ele>
        <time>2021-07-17T07:32:05Z</time>
      </trkpt>
      <trkpt lat="42.494751" lon="-6.442670">
        <ele>1327.713</ele>
        <time>2021-07-17T07:32:06Z</time>
      </trkpt>
      <trkpt lat="42.494643" lon="-6.442625">
        <ele>1328.608</ele>
        <time>2021-07-17T07:32:17Z</time>
      </trkpt>
      <trkpt lat="42.494595" lon="-6.442607">
        <ele>1329.633</ele>
        <time>2021-07-17T07:32:22Z</time>
      </trkpt>
      <trkpt lat="42.494574" lon="-6.442600">
        <ele>1330.145</ele>
        <time>2021-07-17T07:32:24Z</time>
      </trkpt>
      <trkpt lat="42.494562" lon="-6.442599">
        <ele>1330.122</ele>
        <time>2021-07-17T07:32:25Z</time>
      </trkpt>
      <trkpt lat="42.494511" lon="-6.442570">
        <ele>1330.692</ele>
        <time>2021-07-17T07:32:32Z</time>
      </trkpt>
      <trkpt lat="42.494464" lon="-6.442555">
        <ele>1331.516</ele>
        <time>2021-07-17T07:32:45Z</time>
      </trkpt>
      <trkpt lat="42.494374" lon="-6.442539">
        <ele>1332.544</ele>
        <time>2021-07-17T07:32:55Z</time>
      </trkpt>
      <trkpt lat="42.494284" lon="-6.442509">
        <ele>1333.461</ele>
        <time>2021-07-17T07:33:06Z</time>
      </trkpt>
      <trkpt lat="42.494285" lon="-6.442504">
        <ele>1333.999</ele>
        <time>2021-07-17T07:33:20Z</time>
      </trkpt>
      <trkpt lat="42.494229" lon="-6.442507">
        <ele>1334.422</ele>
        <time>2021-07-17T07:33:28Z</time>
      </trkpt>
      <trkpt lat="42.494116" lon="-6.442481">
        <ele>1336.362</ele>
        <time>2021-07-17T07:33:39Z</time>
      </trkpt>
      <trkpt lat="42.494016" lon="-6.442459">
        <ele>1337.808</ele>
        <time>2021-07-17T07:33:49Z</time>
      </trkpt>
      <trkpt lat="42.493942" lon="-6.442441">
        <ele>1339.208</ele>
        <time>2021-07-17T07:33:57Z</time>
      </trkpt>
      <trkpt lat="42.493927" lon="-6.442449">
        <ele>1339.249</ele>
        <time>2021-07-17T07:34:05Z</time>
      </trkpt>
      <trkpt lat="42.493890" lon="-6.442419">
        <ele>1339.241</ele>
        <time>2021-07-17T07:34:16Z</time>
      </trkpt>
      <trkpt lat="42.493821" lon="-6.442392">
        <ele>1340.238</ele>
        <time>2021-07-17T07:34:25Z</time>
      </trkpt>
      <trkpt lat="42.493796" lon="-6.442396">
        <ele>1340.728</ele>
        <time>2021-07-17T07:34:28Z</time>
      </trkpt>
      <trkpt lat="42.493709" lon="-6.442375">
        <ele>1342.182</ele>
        <time>2021-07-17T07:34:38Z</time>
      </trkpt>
      <trkpt lat="42.493646" lon="-6.442355">
        <ele>1343.580</ele>
        <time>2021-07-17T07:34:45Z</time>
      </trkpt>
      <trkpt lat="42.493618" lon="-6.442345">
        <ele>1344.047</ele>
        <time>2021-07-17T07:34:48Z</time>
      </trkpt>
      <trkpt lat="42.493597" lon="-6.442342">
        <ele>1345.075</ele>
        <time>2021-07-17T07:34:56Z</time>
      </trkpt>
      <trkpt lat="42.493598" lon="-6.442340">
        <ele>1344.557</ele>
        <time>2021-07-17T07:35:15Z</time>
      </trkpt>
      <trkpt lat="42.493570" lon="-6.442326">
        <ele>1344.500</ele>
        <time>2021-07-17T07:35:26Z</time>
      </trkpt>
      <trkpt lat="42.493460" lon="-6.442283">
        <ele>1346.420</ele>
        <time>2021-07-17T07:35:36Z</time>
      </trkpt>
      <trkpt lat="42.493350" lon="-6.442237">
        <ele>1348.308</ele>
        <time>2021-07-17T07:35:46Z</time>
      </trkpt>
      <trkpt lat="42.493244" lon="-6.442170">
        <ele>1349.822</ele>
        <time>2021-07-17T07:35:57Z</time>
      </trkpt>
      <trkpt lat="42.493212" lon="-6.442144">
        <ele>1350.344</ele>
        <time>2021-07-17T07:36:05Z</time>
      </trkpt>
      <trkpt lat="42.493136" lon="-6.442086">
        <ele>1351.271</ele>
        <time>2021-07-17T07:36:14Z</time>
      </trkpt>
      <trkpt lat="42.493085" lon="-6.442051">
        <ele>1352.271</ele>
        <time>2021-07-17T07:36:24Z</time>
      </trkpt>
      <trkpt lat="42.493077" lon="-6.442035">
        <ele>1352.745</ele>
        <time>2021-07-17T07:36:39Z</time>
      </trkpt>
      <trkpt lat="42.492993" lon="-6.441971">
        <ele>1353.653</ele>
        <time>2021-07-17T07:36:48Z</time>
      </trkpt>
      <trkpt lat="42.492919" lon="-6.441912">
        <ele>1355.130</ele>
        <time>2021-07-17T07:36:58Z</time>
      </trkpt>
      <trkpt lat="42.492825" lon="-6.441841">
        <ele>1356.038</ele>
        <time>2021-07-17T07:37:09Z</time>
      </trkpt>
      <trkpt lat="42.492802" lon="-6.441832">
        <ele>1356.013</ele>
        <time>2021-07-17T07:37:16Z</time>
      </trkpt>
      <trkpt lat="42.492746" lon="-6.441798">
        <ele>1357.043</ele>
        <time>2021-07-17T07:37:22Z</time>
      </trkpt>
      <trkpt lat="42.492696" lon="-6.441766">
        <ele>1357.507</ele>
        <time>2021-07-17T07:37:26Z</time>
      </trkpt>
      <trkpt lat="42.492682" lon="-6.441762">
        <ele>1357.508</ele>
        <time>2021-07-17T07:37:27Z</time>
      </trkpt>
      <trkpt lat="42.492669" lon="-6.441755">
        <ele>1358.018</ele>
        <time>2021-07-17T07:37:28Z</time>
      </trkpt>
      <trkpt lat="42.492654" lon="-6.441749">
        <ele>1358.460</ele>
        <time>2021-07-17T07:37:29Z</time>
      </trkpt>
      <trkpt lat="42.492640" lon="-6.441744">
        <ele>1358.447</ele>
        <time>2021-07-17T07:37:30Z</time>
      </trkpt>
      <trkpt lat="42.492625" lon="-6.441741">
        <ele>1358.437</ele>
        <time>2021-07-17T07:37:31Z</time>
      </trkpt>
      <trkpt lat="42.492610" lon="-6.441742">
        <ele>1358.421</ele>
        <time>2021-07-17T07:37:32Z</time>
      </trkpt>
      <trkpt lat="42.492594" lon="-6.441744">
        <ele>1358.489</ele>
        <time>2021-07-17T07:37:33Z</time>
      </trkpt>
      <trkpt lat="42.492579" lon="-6.441747">
        <ele>1358.956</ele>
        <time>2021-07-17T07:37:34Z</time>
      </trkpt>
      <trkpt lat="42.492561" lon="-6.441750">
        <ele>1358.944</ele>
        <time>2021-07-17T07:37:35Z</time>
      </trkpt>
      <trkpt lat="42.492543" lon="-6.441753">
        <ele>1358.987</ele>
        <time>2021-07-17T07:37:36Z</time>
      </trkpt>
      <trkpt lat="42.492396" lon="-6.441859">
        <ele>1358.942</ele>
        <time>2021-07-17T07:37:45Z</time>
      </trkpt>
      <trkpt lat="42.492261" lon="-6.442084">
        <ele>1359.926</ele>
        <time>2021-07-17T07:37:55Z</time>
      </trkpt>
      <trkpt lat="42.492175" lon="-6.442244">
        <ele>1361.308</ele>
        <time>2021-07-17T07:38:02Z</time>
      </trkpt>
      <trkpt lat="42.492077" lon="-6.442410">
        <ele>1362.395</ele>
        <time>2021-07-17T07:38:10Z</time>
      </trkpt>
      <trkpt lat="42.491896" lon="-6.442687">
        <ele>1363.727</ele>
        <time>2021-07-17T07:38:23Z</time>
      </trkpt>
      <trkpt lat="42.491724" lon="-6.442827">
        <ele>1364.734</ele>
        <time>2021-07-17T07:38:34Z</time>
      </trkpt>
      <trkpt lat="42.491555" lon="-6.442813">
        <ele>1365.674</ele>
        <time>2021-07-17T07:38:44Z</time>
      </trkpt>
      <trkpt lat="42.491396" lon="-6.442762">
        <ele>1367.128</ele>
        <time>2021-07-17T07:38:54Z</time>
      </trkpt>
      <trkpt lat="42.491291" lon="-6.442696">
        <ele>1368.036</ele>
        <time>2021-07-17T07:39:03Z</time>
      </trkpt>
      <trkpt lat="42.491191" lon="-6.442650">
        <ele>1369.073</ele>
        <time>2021-07-17T07:39:12Z</time>
      </trkpt>
      <trkpt lat="42.491106" lon="-6.442602">
        <ele>1370.521</ele>
        <time>2021-07-17T07:39:19Z</time>
      </trkpt>
      <trkpt lat="42.491019" lon="-6.442558">
        <ele>1371.986</ele>
        <time>2021-07-17T07:39:26Z</time>
      </trkpt>
      <trkpt lat="42.490914" lon="-6.442504">
        <ele>1372.960</ele>
        <time>2021-07-17T07:39:34Z</time>
      </trkpt>
      <trkpt lat="42.490902" lon="-6.442499">
        <ele>1372.926</ele>
        <time>2021-07-17T07:39:35Z</time>
      </trkpt>
      <trkpt lat="42.490890" lon="-6.442494">
        <ele>1372.908</ele>
        <time>2021-07-17T07:39:36Z</time>
      </trkpt>
      <trkpt lat="42.490878" lon="-6.442489">
        <ele>1373.345</ele>
        <time>2021-07-17T07:39:37Z</time>
      </trkpt>
      <trkpt lat="42.490751" lon="-6.442422">
        <ele>1373.857</ele>
        <time>2021-07-17T07:39:46Z</time>
      </trkpt>
      <trkpt lat="42.490697" lon="-6.442401">
        <ele>1374.364</ele>
        <time>2021-07-17T07:39:54Z</time>
      </trkpt>
      <trkpt lat="42.490693" lon="-6.442404">
        <ele>1372.924</ele>
        <time>2021-07-17T07:40:12Z</time>
      </trkpt>
      <trkpt lat="42.490694" lon="-6.442402">
        <ele>1371.988</ele>
        <time>2021-07-17T07:40:24Z</time>
      </trkpt>
      <trkpt lat="42.490641" lon="-6.442374">
        <ele>1372.946</ele>
        <time>2021-07-17T07:40:33Z</time>
      </trkpt>
      <trkpt lat="42.490525" lon="-6.442305">
        <ele>1373.873</ele>
        <time>2021-07-17T07:40:41Z</time>
      </trkpt>
      <trkpt lat="42.490436" lon="-6.442277">
        <ele>1374.321</ele>
        <time>2021-07-17T07:40:49Z</time>
      </trkpt>
      <trkpt lat="42.490330" lon="-6.442231">
        <ele>1375.356</ele>
        <time>2021-07-17T07:40:57Z</time>
      </trkpt>
      <trkpt lat="42.490226" lon="-6.442170">
        <ele>1375.759</ele>
        <time>2021-07-17T07:41:05Z</time>
      </trkpt>
      <trkpt lat="42.490213" lon="-6.442166">
        <ele>1375.714</ele>
        <time>2021-07-17T07:41:06Z</time>
      </trkpt>
      <trkpt lat="42.490198" lon="-6.442160">
        <ele>1375.708</ele>
        <time>2021-07-17T07:41:07Z</time>
      </trkpt>
      <trkpt lat="42.490076" lon="-6.442096">
        <ele>1377.232</ele>
        <time>2021-07-17T07:41:16Z</time>
      </trkpt>
      <trkpt lat="42.489911" lon="-6.441989">
        <ele>1378.194</ele>
        <time>2021-07-17T07:41:27Z</time>
      </trkpt>
      <trkpt lat="42.489797" lon="-6.441899">
        <ele>1379.111</ele>
        <time>2021-07-17T07:41:35Z</time>
      </trkpt>
      <trkpt lat="42.489726" lon="-6.441855">
        <ele>1379.131</ele>
        <time>2021-07-17T07:41:42Z</time>
      </trkpt>
      <trkpt lat="42.489713" lon="-6.441839">
        <ele>1378.665</ele>
        <time>2021-07-17T07:41:49Z</time>
      </trkpt>
      <trkpt lat="42.489674" lon="-6.441809">
        <ele>1379.193</ele>
        <time>2021-07-17T07:41:52Z</time>
      </trkpt>
      <trkpt lat="42.489549" lon="-6.441676">
        <ele>1380.130</ele>
        <time>2021-07-17T07:42:01Z</time>
      </trkpt>
      <trkpt lat="42.489426" lon="-6.441544">
        <ele>1380.128</ele>
        <time>2021-07-17T07:42:10Z</time>
      </trkpt>
      <trkpt lat="42.489299" lon="-6.441400">
        <ele>1379.657</ele>
        <time>2021-07-17T07:42:19Z</time>
      </trkpt>
      <trkpt lat="42.489172" lon="-6.441229">
        <ele>1378.100</ele>
        <time>2021-07-17T07:42:27Z</time>
      </trkpt>
      <trkpt lat="42.489142" lon="-6.441091">
        <ele>1377.720</ele>
        <time>2021-07-17T07:42:30Z</time>
      </trkpt>
      <trkpt lat="42.489150" lon="-6.441035">
        <ele>1377.208</ele>
        <time>2021-07-17T07:42:31Z</time>
      </trkpt>
      <trkpt lat="42.489169" lon="-6.440973">
        <ele>1376.752</ele>
        <time>2021-07-17T07:42:32Z</time>
      </trkpt>
      <trkpt lat="42.489199" lon="-6.440907">
        <ele>1376.234</ele>
        <time>2021-07-17T07:42:33Z</time>
      </trkpt>
      <trkpt lat="42.489238" lon="-6.440844">
        <ele>1375.771</ele>
        <time>2021-07-17T07:42:34Z</time>
      </trkpt>
      <trkpt lat="42.489280" lon="-6.440781">
        <ele>1375.381</ele>
        <time>2021-07-17T07:42:35Z</time>
      </trkpt>
      <trkpt lat="42.489567" lon="-6.440436">
        <ele>1373.395</ele>
        <time>2021-07-17T07:42:40Z</time>
      </trkpt>
      <trkpt lat="42.489637" lon="-6.440378">
        <ele>1372.913</ele>
        <time>2021-07-17T07:42:41Z</time>
      </trkpt>
      <trkpt lat="42.489710" lon="-6.440330">
        <ele>1372.930</ele>
        <time>2021-07-17T07:42:42Z</time>
      </trkpt>
      <trkpt lat="42.490076" lon="-6.440118">
        <ele>1374.848</ele>
        <time>2021-07-17T07:42:48Z</time>
      </trkpt>
      <trkpt lat="42.490219" lon="-6.440009">
        <ele>1376.777</ele>
        <time>2021-07-17T07:42:53Z</time>
      </trkpt>
      <trkpt lat="42.490400" lon="-6.439802">
        <ele>1378.161</ele>
        <time>2021-07-17T07:43:03Z</time>
      </trkpt>
      <trkpt lat="42.490499" lon="-6.439586">
        <ele>1379.127</ele>
        <time>2021-07-17T07:43:12Z</time>
      </trkpt>
      <trkpt lat="42.490528" lon="-6.439332">
        <ele>1380.508</ele>
        <time>2021-07-17T07:43:22Z</time>
      </trkpt>
      <trkpt lat="42.490525" lon="-6.439157">
        <ele>1381.064</ele>
        <time>2021-07-17T07:43:29Z</time>
      </trkpt>
      <trkpt lat="42.490515" lon="-6.438963">
        <ele>1382.076</ele>
        <time>2021-07-17T07:43:37Z</time>
      </trkpt>
      <trkpt lat="42.490514" lon="-6.438735">
        <ele>1383.453</ele>
        <time>2021-07-17T07:43:46Z</time>
      </trkpt>
      <trkpt lat="42.490520" lon="-6.438519">
        <ele>1383.993</ele>
        <time>2021-07-17T07:43:55Z</time>
      </trkpt>
      <trkpt lat="42.490539" lon="-6.438335">
        <ele>1384.987</ele>
        <time>2021-07-17T07:44:03Z</time>
      </trkpt>
      <trkpt lat="42.490573" lon="-6.438078">
        <ele>1385.485</ele>
        <time>2021-07-17T07:44:13Z</time>
      </trkpt>
      <trkpt lat="42.490616" lon="-6.437860">
        <ele>1386.342</ele>
        <time>2021-07-17T07:44:22Z</time>
      </trkpt>
      <trkpt lat="42.490644" lon="-6.437653">
        <ele>1387.830</ele>
        <time>2021-07-17T07:44:31Z</time>
      </trkpt>
      <trkpt lat="42.490660" lon="-6.437469">
        <ele>1389.222</ele>
        <time>2021-07-17T07:44:39Z</time>
      </trkpt>
      <trkpt lat="42.490682" lon="-6.437248">
        <ele>1390.662</ele>
        <time>2021-07-17T07:44:48Z</time>
      </trkpt>
      <trkpt lat="42.490701" lon="-6.437073">
        <ele>1391.108</ele>
        <time>2021-07-17T07:44:55Z</time>
      </trkpt>
      <trkpt lat="42.490710" lon="-6.436874">
        <ele>1392.108</ele>
        <time>2021-07-17T07:45:04Z</time>
      </trkpt>
      <trkpt lat="42.490737" lon="-6.436699">
        <ele>1393.599</ele>
        <time>2021-07-17T07:45:12Z</time>
      </trkpt>
      <trkpt lat="42.490743" lon="-6.436489">
        <ele>1395.031</ele>
        <time>2021-07-17T07:45:22Z</time>
      </trkpt>
      <trkpt lat="42.490751" lon="-6.436387">
        <ele>1395.498</ele>
        <time>2021-07-17T07:45:27Z</time>
      </trkpt>
      <trkpt lat="42.490755" lon="-6.436365">
        <ele>1395.948</ele>
        <time>2021-07-17T07:45:28Z</time>
      </trkpt>
      <trkpt lat="42.490760" lon="-6.436344">
        <ele>1395.922</ele>
        <time>2021-07-17T07:45:29Z</time>
      </trkpt>
      <trkpt lat="42.490762" lon="-6.436323">
        <ele>1395.940</ele>
        <time>2021-07-17T07:45:30Z</time>
      </trkpt>
      <trkpt lat="42.490761" lon="-6.436299">
        <ele>1395.957</ele>
        <time>2021-07-17T07:45:31Z</time>
      </trkpt>
      <trkpt lat="42.490760" lon="-6.436277">
        <ele>1395.945</ele>
        <time>2021-07-17T07:45:32Z</time>
      </trkpt>
      <trkpt lat="42.490772" lon="-6.436072">
        <ele>1397.442</ele>
        <time>2021-07-17T07:45:41Z</time>
      </trkpt>
      <trkpt lat="42.490789" lon="-6.435881">
        <ele>1398.822</ele>
        <time>2021-07-17T07:45:52Z</time>
      </trkpt>
      <trkpt lat="42.490805" lon="-6.435805">
        <ele>1398.814</ele>
        <time>2021-07-17T07:46:01Z</time>
      </trkpt>
      <trkpt lat="42.490812" lon="-6.435807">
        <ele>1398.308</ele>
        <time>2021-07-17T07:46:20Z</time>
      </trkpt>
      <trkpt lat="42.490841" lon="-6.435730">
        <ele>1398.361</ele>
        <time>2021-07-17T07:46:28Z</time>
      </trkpt>
      <trkpt lat="42.490887" lon="-6.435593">
        <ele>1399.373</ele>
        <time>2021-07-17T07:46:36Z</time>
      </trkpt>
      <trkpt lat="42.490932" lon="-6.435435">
        <ele>1400.350</ele>
        <time>2021-07-17T07:46:46Z</time>
      </trkpt>
      <trkpt lat="42.490973" lon="-6.435281">
        <ele>1401.270</ele>
        <time>2021-07-17T07:46:55Z</time>
      </trkpt>
      <trkpt lat="42.491031" lon="-6.435091">
        <ele>1402.224</ele>
        <time>2021-07-17T07:47:04Z</time>
      </trkpt>
      <trkpt lat="42.491074" lon="-6.434894">
        <ele>1403.692</ele>
        <time>2021-07-17T07:47:12Z</time>
      </trkpt>
      <trkpt lat="42.491108" lon="-6.434668">
        <ele>1404.659</ele>
        <time>2021-07-17T07:47:21Z</time>
      </trkpt>
      <trkpt lat="42.491118" lon="-6.434567">
        <ele>1405.117</ele>
        <time>2021-07-17T07:47:28Z</time>
      </trkpt>
      <trkpt lat="42.491175" lon="-6.434264">
        <ele>1407.085</ele>
        <time>2021-07-17T07:47:40Z</time>
      </trkpt>
      <trkpt lat="42.491238" lon="-6.434021">
        <ele>1407.989</ele>
        <time>2021-07-17T07:47:50Z</time>
      </trkpt>
      <trkpt lat="42.491327" lon="-6.433762">
        <ele>1408.917</ele>
        <time>2021-07-17T07:48:00Z</time>
      </trkpt>
      <trkpt lat="42.491405" lon="-6.433535">
        <ele>1409.408</ele>
        <time>2021-07-17T07:48:09Z</time>
      </trkpt>
      <trkpt lat="42.491478" lon="-6.433263">
        <ele>1410.375</ele>
        <time>2021-07-17T07:48:19Z</time>
      </trkpt>
      <trkpt lat="42.491561" lon="-6.432873">
        <ele>1411.357</ele>
        <time>2021-07-17T07:48:32Z</time>
      </trkpt>
      <trkpt lat="42.491625" lon="-6.432587">
        <ele>1412.394</ele>
        <time>2021-07-17T07:48:42Z</time>
      </trkpt>
      <trkpt lat="42.491678" lon="-6.432254">
        <ele>1413.754</ele>
        <time>2021-07-17T07:48:54Z</time>
      </trkpt>
      <trkpt lat="42.491690" lon="-6.432026">
        <ele>1415.248</ele>
        <time>2021-07-17T07:49:03Z</time>
      </trkpt>
      <trkpt lat="42.491683" lon="-6.431776">
        <ele>1416.676</ele>
        <time>2021-07-17T07:49:13Z</time>
      </trkpt>
      <trkpt lat="42.491666" lon="-6.431606">
        <ele>1417.183</ele>
        <time>2021-07-17T07:49:22Z</time>
      </trkpt>
      <trkpt lat="42.491620" lon="-6.431401">
        <ele>1418.591</ele>
        <time>2021-07-17T07:49:31Z</time>
      </trkpt>
      <trkpt lat="42.491575" lon="-6.431214">
        <ele>1420.045</ele>
        <time>2021-07-17T07:49:40Z</time>
      </trkpt>
      <trkpt lat="42.491569" lon="-6.431158">
        <ele>1420.447</ele>
        <time>2021-07-17T07:49:44Z</time>
      </trkpt>
      <trkpt lat="42.491565" lon="-6.431144">
        <ele>1420.411</ele>
        <time>2021-07-17T07:49:45Z</time>
      </trkpt>
      <trkpt lat="42.491563" lon="-6.431130">
        <ele>1420.408</ele>
        <time>2021-07-17T07:49:46Z</time>
      </trkpt>
      <trkpt lat="42.491549" lon="-6.431062">
        <ele>1420.961</ele>
        <time>2021-07-17T07:49:51Z</time>
      </trkpt>
      <trkpt lat="42.491542" lon="-6.431040">
        <ele>1421.493</ele>
        <time>2021-07-17T07:49:53Z</time>
      </trkpt>
      <trkpt lat="42.491540" lon="-6.431026">
        <ele>1421.430</ele>
        <time>2021-07-17T07:49:54Z</time>
      </trkpt>
      <trkpt lat="42.491536" lon="-6.431011">
        <ele>1421.450</ele>
        <time>2021-07-17T07:49:55Z</time>
      </trkpt>
      <trkpt lat="42.491532" lon="-6.430995">
        <ele>1421.954</ele>
        <time>2021-07-17T07:49:56Z</time>
      </trkpt>
      <trkpt lat="42.491528" lon="-6.430981">
        <ele>1421.922</ele>
        <time>2021-07-17T07:49:57Z</time>
      </trkpt>
      <trkpt lat="42.491519" lon="-6.430954">
        <ele>1422.439</ele>
        <time>2021-07-17T07:49:59Z</time>
      </trkpt>
      <trkpt lat="42.491518" lon="-6.430939">
        <ele>1422.427</ele>
        <time>2021-07-17T07:50:00Z</time>
      </trkpt>
      <trkpt lat="42.491516" lon="-6.430923">
        <ele>1422.828</ele>
        <time>2021-07-17T07:50:01Z</time>
      </trkpt>
      <trkpt lat="42.491513" lon="-6.430908">
        <ele>1422.889</ele>
        <time>2021-07-17T07:50:02Z</time>
      </trkpt>
      <trkpt lat="42.491508" lon="-6.430894">
        <ele>1422.817</ele>
        <time>2021-07-17T07:50:03Z</time>
      </trkpt>
      <trkpt lat="42.491502" lon="-6.430879">
        <ele>1423.308</ele>
        <time>2021-07-17T07:50:04Z</time>
      </trkpt>
      <trkpt lat="42.491497" lon="-6.430864">
        <ele>1423.329</ele>
        <time>2021-07-17T07:50:05Z</time>
      </trkpt>
      <trkpt lat="42.491492" lon="-6.430850">
        <ele>1423.811</ele>
        <time>2021-07-17T07:50:06Z</time>
      </trkpt>
      <trkpt lat="42.491487" lon="-6.430835">
        <ele>1423.848</ele>
        <time>2021-07-17T07:50:07Z</time>
      </trkpt>
      <trkpt lat="42.491482" lon="-6.430820">
        <ele>1423.848</ele>
        <time>2021-07-17T07:50:08Z</time>
      </trkpt>
      <trkpt lat="42.491475" lon="-6.430803">
        <ele>1423.842</ele>
        <time>2021-07-17T07:50:09Z</time>
      </trkpt>
      <trkpt lat="42.491471" lon="-6.430787">
        <ele>1424.330</ele>
        <time>2021-07-17T07:50:10Z</time>
      </trkpt>
      <trkpt lat="42.491469" lon="-6.430772">
        <ele>1424.367</ele>
        <time>2021-07-17T07:50:11Z</time>
      </trkpt>
      <trkpt lat="42.491466" lon="-6.430756">
        <ele>1424.395</ele>
        <time>2021-07-17T07:50:12Z</time>
      </trkpt>
      <trkpt lat="42.491461" lon="-6.430740">
        <ele>1424.351</ele>
        <time>2021-07-17T07:50:13Z</time>
      </trkpt>
      <trkpt lat="42.491455" lon="-6.430724">
        <ele>1424.801</ele>
        <time>2021-07-17T07:50:14Z</time>
      </trkpt>
      <trkpt lat="42.491450" lon="-6.430709">
        <ele>1424.811</ele>
        <time>2021-07-17T07:50:15Z</time>
      </trkpt>
      <trkpt lat="42.491411" lon="-6.430549">
        <ele>1426.708</ele>
        <time>2021-07-17T07:50:25Z</time>
      </trkpt>
      <trkpt lat="42.491383" lon="-6.430431">
        <ele>1427.242</ele>
        <time>2021-07-17T07:50:32Z</time>
      </trkpt>
      <trkpt lat="42.491379" lon="-6.430414">
        <ele>1427.734</ele>
        <time>2021-07-17T07:50:33Z</time>
      </trkpt>
      <trkpt lat="42.491377" lon="-6.430395">
        <ele>1427.731</ele>
        <time>2021-07-17T07:50:34Z</time>
      </trkpt>
      <trkpt lat="42.491334" lon="-6.430261">
        <ele>1428.651</ele>
        <time>2021-07-17T07:50:42Z</time>
      </trkpt>
      <trkpt lat="42.491327" lon="-6.430225">
        <ele>1428.635</ele>
        <time>2021-07-17T07:50:44Z</time>
      </trkpt>
      <trkpt lat="42.491321" lon="-6.430210">
        <ele>1429.153</ele>
        <time>2021-07-17T07:50:45Z</time>
      </trkpt>
      <trkpt lat="42.491317" lon="-6.430193">
        <ele>1429.160</ele>
        <time>2021-07-17T07:50:46Z</time>
      </trkpt>
      <trkpt lat="42.491271" lon="-6.430020">
        <ele>1430.548</ele>
        <time>2021-07-17T07:50:56Z</time>
      </trkpt>
      <trkpt lat="42.491228" lon="-6.429866">
        <ele>1432.028</ele>
        <time>2021-07-17T07:51:05Z</time>
      </trkpt>
      <trkpt lat="42.491185" lon="-6.429679">
        <ele>1432.989</ele>
        <time>2021-07-17T07:51:16Z</time>
      </trkpt>
      <trkpt lat="42.491145" lon="-6.429519">
        <ele>1434.417</ele>
        <time>2021-07-17T07:51:25Z</time>
      </trkpt>
      <trkpt lat="42.491115" lon="-6.429387">
        <ele>1435.308</ele>
        <time>2021-07-17T07:51:33Z</time>
      </trkpt>
      <trkpt lat="42.491074" lon="-6.429239">
        <ele>1436.869</ele>
        <time>2021-07-17T07:51:43Z</time>
      </trkpt>
      <trkpt lat="42.491034" lon="-6.429075">
        <ele>1438.791</ele>
        <time>2021-07-17T07:51:53Z</time>
      </trkpt>
      <trkpt lat="42.491003" lon="-6.428920">
        <ele>1440.138</ele>
        <time>2021-07-17T07:52:02Z</time>
      </trkpt>
      <trkpt lat="42.490951" lon="-6.428762">
        <ele>1441.658</ele>
        <time>2021-07-17T07:52:12Z</time>
      </trkpt>
      <trkpt lat="42.490942" lon="-6.428733">
        <ele>1441.612</ele>
        <time>2021-07-17T07:52:19Z</time>
      </trkpt>
      <trkpt lat="42.490920" lon="-6.428668">
        <ele>1442.670</ele>
        <time>2021-07-17T07:52:26Z</time>
      </trkpt>
      <trkpt lat="42.490847" lon="-6.428535">
        <ele>1442.177</ele>
        <time>2021-07-17T07:52:38Z</time>
      </trkpt>
      <trkpt lat="42.490745" lon="-6.428407">
        <ele>1444.055</ele>
        <time>2021-07-17T07:52:51Z</time>
      </trkpt>
      <trkpt lat="42.490707" lon="-6.428366">
        <ele>1444.522</ele>
        <time>2021-07-17T07:53:00Z</time>
      </trkpt>
      <trkpt lat="42.490710" lon="-6.428360">
        <ele>1444.062</ele>
        <time>2021-07-17T07:53:16Z</time>
      </trkpt>
      <trkpt lat="42.490708" lon="-6.428365">
        <ele>1444.508</ele>
        <time>2021-07-17T07:53:27Z</time>
      </trkpt>
      <trkpt lat="42.490727" lon="-6.428362">
        <ele>1445.008</ele>
        <time>2021-07-17T07:53:44Z</time>
      </trkpt>
      <trkpt lat="42.490688" lon="-6.428316">
        <ele>1445.049</ele>
        <time>2021-07-17T07:53:51Z</time>
      </trkpt>
      <trkpt lat="42.490611" lon="-6.428232">
        <ele>1445.981</ele>
        <time>2021-07-17T07:54:02Z</time>
      </trkpt>
      <trkpt lat="42.490544" lon="-6.428157">
        <ele>1447.438</ele>
        <time>2021-07-17T07:54:12Z</time>
      </trkpt>
      <trkpt lat="42.490482" lon="-6.428080">
        <ele>1448.398</ele>
        <time>2021-07-17T07:54:22Z</time>
      </trkpt>
      <trkpt lat="42.490420" lon="-6.428006">
        <ele>1449.342</ele>
        <time>2021-07-17T07:54:31Z</time>
      </trkpt>
      <trkpt lat="42.490393" lon="-6.427982">
        <ele>1449.880</ele>
        <time>2021-07-17T07:54:39Z</time>
      </trkpt>
      <trkpt lat="42.490387" lon="-6.427969">
        <ele>1449.317</ele>
        <time>2021-07-17T07:54:50Z</time>
      </trkpt>
      <trkpt lat="42.490334" lon="-6.427898">
        <ele>1450.225</ele>
        <time>2021-07-17T07:54:59Z</time>
      </trkpt>
      <trkpt lat="42.490243" lon="-6.427794">
        <ele>1452.226</ele>
        <time>2021-07-17T07:55:12Z</time>
      </trkpt>
      <trkpt lat="42.490196" lon="-6.427744">
        <ele>1453.647</ele>
        <time>2021-07-17T07:55:21Z</time>
      </trkpt>
      <trkpt lat="42.490173" lon="-6.427709">
        <ele>1453.111</ele>
        <time>2021-07-17T07:55:34Z</time>
      </trkpt>
      <trkpt lat="42.490159" lon="-6.427698">
        <ele>1453.608</ele>
        <time>2021-07-17T07:55:43Z</time>
      </trkpt>
      <trkpt lat="42.490101" lon="-6.427627">
        <ele>1454.659</ele>
        <time>2021-07-17T07:55:52Z</time>
      </trkpt>
      <trkpt lat="42.490029" lon="-6.427549">
        <ele>1456.571</ele>
        <time>2021-07-17T07:56:02Z</time>
      </trkpt>
      <trkpt lat="42.490016" lon="-6.427534">
        <ele>1457.048</ele>
        <time>2021-07-17T07:56:10Z</time>
      </trkpt>
      <trkpt lat="42.489973" lon="-6.427478">
        <ele>1457.588</ele>
        <time>2021-07-17T07:56:17Z</time>
      </trkpt>
      <trkpt lat="42.489896" lon="-6.427387">
        <ele>1459.462</ele>
        <time>2021-07-17T07:56:28Z</time>
      </trkpt>
      <trkpt lat="42.489858" lon="-6.427341">
        <ele>1460.360</ele>
        <time>2021-07-17T07:56:36Z</time>
      </trkpt>
      <trkpt lat="42.489848" lon="-6.427333">
        <ele>1460.377</ele>
        <time>2021-07-17T07:56:45Z</time>
      </trkpt>
      <trkpt lat="42.489853" lon="-6.427329">
        <ele>1459.945</ele>
        <time>2021-07-17T07:56:55Z</time>
      </trkpt>
      <trkpt lat="42.489822" lon="-6.427297">
        <ele>1460.861</ele>
        <time>2021-07-17T07:57:04Z</time>
      </trkpt>
      <trkpt lat="42.489776" lon="-6.427259">
        <ele>1461.821</ele>
        <time>2021-07-17T07:57:13Z</time>
      </trkpt>
      <trkpt lat="42.489752" lon="-6.427224">
        <ele>1461.813</ele>
        <time>2021-07-17T07:57:21Z</time>
      </trkpt>
      <trkpt lat="42.489705" lon="-6.427150">
        <ele>1463.208</ele>
        <time>2021-07-17T07:57:31Z</time>
      </trkpt>
      <trkpt lat="42.489654" lon="-6.427101">
        <ele>1464.233</ele>
        <time>2021-07-17T07:57:41Z</time>
      </trkpt>
      <trkpt lat="42.489642" lon="-6.427064">
        <ele>1464.785</ele>
        <time>2021-07-17T07:57:52Z</time>
      </trkpt>
      <trkpt lat="42.489594" lon="-6.426999">
        <ele>1466.132</ele>
        <time>2021-07-17T07:58:01Z</time>
      </trkpt>
      <trkpt lat="42.489544" lon="-6.426908">
        <ele>1467.572</ele>
        <time>2021-07-17T07:58:12Z</time>
      </trkpt>
      <trkpt lat="42.489536" lon="-6.426903">
        <ele>1468.066</ele>
        <time>2021-07-17T07:58:20Z</time>
      </trkpt>
      <trkpt lat="42.489524" lon="-6.426891">
        <ele>1468.094</ele>
        <time>2021-07-17T07:58:34Z</time>
      </trkpt>
      <trkpt lat="42.489492" lon="-6.426814">
        <ele>1469.571</ele>
        <time>2021-07-17T07:58:43Z</time>
      </trkpt>
      <trkpt lat="42.489437" lon="-6.426678">
        <ele>1472.479</ele>
        <time>2021-07-17T07:58:56Z</time>
      </trkpt>
      <trkpt lat="42.489428" lon="-6.426645">
        <ele>1473.315</ele>
        <time>2021-07-17T07:59:04Z</time>
      </trkpt>
      <trkpt lat="42.489408" lon="-6.426566">
        <ele>1474.365</ele>
        <time>2021-07-17T07:59:13Z</time>
      </trkpt>
      <trkpt lat="42.489390" lon="-6.426494">
        <ele>1475.211</ele>
        <time>2021-07-17T07:59:24Z</time>
      </trkpt>
      <trkpt lat="42.489389" lon="-6.426467">
        <ele>1475.208</ele>
        <time>2021-07-17T07:59:31Z</time>
      </trkpt>
      <trkpt lat="42.489339" lon="-6.426328">
        <ele>1477.698</ele>
        <time>2021-07-17T07:59:42Z</time>
      </trkpt>
      <trkpt lat="42.489304" lon="-6.426193">
        <ele>1479.630</ele>
        <time>2021-07-17T07:59:51Z</time>
      </trkpt>
      <trkpt lat="42.489273" lon="-6.426123">
        <ele>1481.077</ele>
        <time>2021-07-17T08:00:00Z</time>
      </trkpt>
      <trkpt lat="42.489268" lon="-6.426092">
        <ele>1480.567</ele>
        <time>2021-07-17T08:00:09Z</time>
      </trkpt>
      <trkpt lat="42.489265" lon="-6.426079">
        <ele>1481.081</ele>
        <time>2021-07-17T08:00:10Z</time>
      </trkpt>
      <trkpt lat="42.489220" lon="-6.425946">
        <ele>1482.099</ele>
        <time>2021-07-17T08:00:20Z</time>
      </trkpt>
      <trkpt lat="42.489173" lon="-6.425798">
        <ele>1483.426</ele>
        <time>2021-07-17T08:00:30Z</time>
      </trkpt>
      <trkpt lat="42.489121" lon="-6.425630">
        <ele>1485.834</ele>
        <time>2021-07-17T08:00:41Z</time>
      </trkpt>
      <trkpt lat="42.489057" lon="-6.425397">
        <ele>1487.785</ele>
        <time>2021-07-17T08:00:55Z</time>
      </trkpt>
      <trkpt lat="42.489038" lon="-6.425174">
        <ele>1488.789</ele>
        <time>2021-07-17T08:01:07Z</time>
      </trkpt>
      <trkpt lat="42.489034" lon="-6.425146">
        <ele>1489.717</ele>
        <time>2021-07-17T08:01:13Z</time>
      </trkpt>
      <trkpt lat="42.489038" lon="-6.425150">
        <ele>1490.108</ele>
        <time>2021-07-17T08:01:36Z</time>
      </trkpt>
      <trkpt lat="42.489047" lon="-6.425143">
        <ele>1491.675</ele>
        <time>2021-07-17T08:01:59Z</time>
      </trkpt>
      <trkpt lat="42.489027" lon="-6.425168">
        <ele>1489.247</ele>
        <time>2021-07-17T08:02:18Z</time>
      </trkpt>
      <trkpt lat="42.489029" lon="-6.425170">
        <ele>1486.364</ele>
        <time>2021-07-17T08:02:37Z</time>
      </trkpt>
      <trkpt lat="42.489042" lon="-6.425157">
        <ele>1486.864</ele>
        <time>2021-07-17T08:02:59Z</time>
      </trkpt>
      <trkpt lat="42.489028" lon="-6.425163">
        <ele>1487.338</ele>
        <time>2021-07-17T08:03:18Z</time>
      </trkpt>
      <trkpt lat="42.489014" lon="-6.425163">
        <ele>1488.246</ele>
        <time>2021-07-17T08:03:34Z</time>
      </trkpt>
      <trkpt lat="42.489035" lon="-6.425153">
        <ele>1489.223</ele>
        <time>2021-07-17T08:03:48Z</time>
      </trkpt>
      <trkpt lat="42.489027" lon="-6.425153">
        <ele>1489.711</ele>
        <time>2021-07-17T08:04:08Z</time>
      </trkpt>
      <trkpt lat="42.489013" lon="-6.425152">
        <ele>1489.261</ele>
        <time>2021-07-17T08:04:26Z</time>
      </trkpt>
      <trkpt lat="42.489028" lon="-6.425152">
        <ele>1489.221</ele>
        <time>2021-07-17T08:04:42Z</time>
      </trkpt>
      <trkpt lat="42.489024" lon="-6.425166">
        <ele>1489.713</ele>
        <time>2021-07-17T08:05:00Z</time>
      </trkpt>
      <trkpt lat="42.489032" lon="-6.425132">
        <ele>1490.608</ele>
        <time>2021-07-17T08:05:23Z</time>
      </trkpt>
      <trkpt lat="42.489030" lon="-6.425134">
        <ele>1491.133</ele>
        <time>2021-07-17T08:05:42Z</time>
      </trkpt>
      <trkpt lat="42.489023" lon="-6.425128">
        <ele>1491.185</ele>
        <time>2021-07-17T08:05:51Z</time>
      </trkpt>
      <trkpt lat="42.489001" lon="-6.425132">
        <ele>1491.652</ele>
        <time>2021-07-17T08:05:57Z</time>
      </trkpt>
      <trkpt lat="42.488959" lon="-6.425065">
        <ele>1491.672</ele>
        <time>2021-07-17T08:06:04Z</time>
      </trkpt>
      <trkpt lat="42.488904" lon="-6.424906">
        <ele>1492.546</ele>
        <time>2021-07-17T08:06:12Z</time>
      </trkpt>
      <trkpt lat="42.488903" lon="-6.424899">
        <ele>1493.074</ele>
        <time>2021-07-17T08:06:23Z</time>
      </trkpt>
      <trkpt lat="42.488883" lon="-6.424857">
        <ele>1492.111</ele>
        <time>2021-07-17T08:06:34Z</time>
      </trkpt>
      <trkpt lat="42.488816" lon="-6.424643">
        <ele>1493.079</ele>
        <time>2021-07-17T08:06:40Z</time>
      </trkpt>
      <trkpt lat="42.488716" lon="-6.424276">
        <ele>1493.595</ele>
        <time>2021-07-17T08:06:50Z</time>
      </trkpt>
      <trkpt lat="42.488710" lon="-6.424049">
        <ele>1493.549</ele>
        <time>2021-07-17T08:06:59Z</time>
      </trkpt>
      <trkpt lat="42.488715" lon="-6.423970">
        <ele>1493.523</ele>
        <time>2021-07-17T08:07:04Z</time>
      </trkpt>
      <trkpt lat="42.488720" lon="-6.423954">
        <ele>1493.508</ele>
        <time>2021-07-17T08:07:05Z</time>
      </trkpt>
      <trkpt lat="42.488721" lon="-6.423935">
        <ele>1493.536</ele>
        <time>2021-07-17T08:07:06Z</time>
      </trkpt>
      <trkpt lat="42.488722" lon="-6.423917">
        <ele>1493.568</ele>
        <time>2021-07-17T08:07:07Z</time>
      </trkpt>
      <trkpt lat="42.488724" lon="-6.423899">
        <ele>1494.065</ele>
        <time>2021-07-17T08:07:08Z</time>
      </trkpt>
      <trkpt lat="42.488725" lon="-6.423882">
        <ele>1494.035</ele>
        <time>2021-07-17T08:07:09Z</time>
      </trkpt>
      <trkpt lat="42.488726" lon="-6.423866">
        <ele>1494.099</ele>
        <time>2021-07-17T08:07:10Z</time>
      </trkpt>
      <trkpt lat="42.488729" lon="-6.423849">
        <ele>1494.017</ele>
        <time>2021-07-17T08:07:11Z</time>
      </trkpt>
      <trkpt lat="42.488756" lon="-6.423704">
        <ele>1494.934</ele>
        <time>2021-07-17T08:07:19Z</time>
      </trkpt>
      <trkpt lat="42.488761" lon="-6.423686">
        <ele>1494.912</ele>
        <time>2021-07-17T08:07:20Z</time>
      </trkpt>
      <trkpt lat="42.488764" lon="-6.423667">
        <ele>1494.949</ele>
        <time>2021-07-17T08:07:21Z</time>
      </trkpt>
      <trkpt lat="42.488766" lon="-6.423650">
        <ele>1494.902</ele>
        <time>2021-07-17T08:07:22Z</time>
      </trkpt>
      <trkpt lat="42.488770" lon="-6.423632">
        <ele>1494.922</ele>
        <time>2021-07-17T08:07:23Z</time>
      </trkpt>
      <trkpt lat="42.488774" lon="-6.423614">
        <ele>1494.908</ele>
        <time>2021-07-17T08:07:24Z</time>
      </trkpt>
      <trkpt lat="42.488807" lon="-6.423407">
        <ele>1496.991</ele>
        <time>2021-07-17T08:07:35Z</time>
      </trkpt>
      <trkpt lat="42.488822" lon="-6.423218">
        <ele>1498.323</ele>
        <time>2021-07-17T08:07:44Z</time>
      </trkpt>
      <trkpt lat="42.488799" lon="-6.422991">
        <ele>1499.730</ele>
        <time>2021-07-17T08:07:54Z</time>
      </trkpt>
      <trkpt lat="42.488744" lon="-6.422760">
        <ele>1500.270</ele>
        <time>2021-07-17T08:08:04Z</time>
      </trkpt>
      <trkpt lat="42.488660" lon="-6.422518">
        <ele>1501.244</ele>
        <time>2021-07-17T08:08:15Z</time>
      </trkpt>
      <trkpt lat="42.488569" lon="-6.422288">
        <ele>1501.782</ele>
        <time>2021-07-17T08:08:25Z</time>
      </trkpt>
      <trkpt lat="42.488487" lon="-6.422088">
        <ele>1503.189</ele>
        <time>2021-07-17T08:08:34Z</time>
      </trkpt>
      <trkpt lat="42.488405" lon="-6.421875">
        <ele>1504.167</ele>
        <time>2021-07-17T08:08:43Z</time>
      </trkpt>
      <trkpt lat="42.488380" lon="-6.421799">
        <ele>1504.112</ele>
        <time>2021-07-17T08:08:49Z</time>
      </trkpt>
      <trkpt lat="42.488374" lon="-6.421789">
        <ele>1504.132</ele>
        <time>2021-07-17T08:08:50Z</time>
      </trkpt>
      <trkpt lat="42.488370" lon="-6.421775">
        <ele>1504.105</ele>
        <time>2021-07-17T08:08:51Z</time>
      </trkpt>
      <trkpt lat="42.488366" lon="-6.421761">
        <ele>1504.608</ele>
        <time>2021-07-17T08:08:52Z</time>
      </trkpt>
      <trkpt lat="42.488323" lon="-6.421652">
        <ele>1505.528</ele>
        <time>2021-07-17T08:09:00Z</time>
      </trkpt>
      <trkpt lat="42.488317" lon="-6.421638">
        <ele>1505.550</ele>
        <time>2021-07-17T08:09:01Z</time>
      </trkpt>
      <trkpt lat="42.488312" lon="-6.421622">
        <ele>1505.537</ele>
        <time>2021-07-17T08:09:02Z</time>
      </trkpt>
      <trkpt lat="42.488306" lon="-6.421608">
        <ele>1505.527</ele>
        <time>2021-07-17T08:09:03Z</time>
      </trkpt>
      <trkpt lat="42.488300" lon="-6.421592">
        <ele>1505.511</ele>
        <time>2021-07-17T08:09:04Z</time>
      </trkpt>
      <trkpt lat="42.488296" lon="-6.421576">
        <ele>1505.539</ele>
        <time>2021-07-17T08:09:05Z</time>
      </trkpt>
      <trkpt lat="42.488293" lon="-6.421560">
        <ele>1506.076</ele>
        <time>2021-07-17T08:09:06Z</time>
      </trkpt>
      <trkpt lat="42.488289" lon="-6.421545">
        <ele>1506.024</ele>
        <time>2021-07-17T08:09:07Z</time>
      </trkpt>
      <trkpt lat="42.488284" lon="-6.421530">
        <ele>1506.031</ele>
        <time>2021-07-17T08:09:08Z</time>
      </trkpt>
      <trkpt lat="42.488240" lon="-6.421400">
        <ele>1506.561</ele>
        <time>2021-07-17T08:09:16Z</time>
      </trkpt>
      <trkpt lat="42.488184" lon="-6.421264">
        <ele>1507.407</ele>
        <time>2021-07-17T08:09:24Z</time>
      </trkpt>
      <trkpt lat="42.488110" lon="-6.421046">
        <ele>1507.408</ele>
        <time>2021-07-17T08:09:36Z</time>
      </trkpt>
      <trkpt lat="42.488034" lon="-6.420829">
        <ele>1508.970</ele>
        <time>2021-07-17T08:09:47Z</time>
      </trkpt>
      <trkpt lat="42.487970" lon="-6.420609">
        <ele>1509.472</ele>
        <time>2021-07-17T08:09:57Z</time>
      </trkpt>
      <trkpt lat="42.487956" lon="-6.420541">
        <ele>1509.489</ele>
        <time>2021-07-17T08:10:01Z</time>
      </trkpt>
      <trkpt lat="42.487952" lon="-6.420523">
        <ele>1509.499</ele>
        <time>2021-07-17T08:10:02Z</time>
      </trkpt>
      <trkpt lat="42.487923" lon="-6.420316">
        <ele>1509.423</ele>
        <time>2021-07-17T08:10:11Z</time>
      </trkpt>
      <trkpt lat="42.487924" lon="-6.420139">
        <ele>1509.891</ele>
        <time>2021-07-17T08:10:21Z</time>
      </trkpt>
      <trkpt lat="42.487921" lon="-6.420137">
        <ele>1510.368</ele>
        <time>2021-07-17T08:10:35Z</time>
      </trkpt>
      <trkpt lat="42.487918" lon="-6.420134">
        <ele>1510.886</ele>
        <time>2021-07-17T08:10:52Z</time>
      </trkpt>
      <trkpt lat="42.487927" lon="-6.420124">
        <ele>1511.355</ele>
        <time>2021-07-17T08:11:08Z</time>
      </trkpt>
      <trkpt lat="42.487964" lon="-6.419966">
        <ele>1511.307</ele>
        <time>2021-07-17T08:11:14Z</time>
      </trkpt>
      <trkpt lat="42.488026" lon="-6.419708">
        <ele>1511.317</ele>
        <time>2021-07-17T08:11:21Z</time>
      </trkpt>
      <trkpt lat="42.488128" lon="-6.419443">
        <ele>1510.808</ele>
        <time>2021-07-17T08:11:28Z</time>
      </trkpt>
      <trkpt lat="42.488270" lon="-6.419193">
        <ele>1510.882</ele>
        <time>2021-07-17T08:11:35Z</time>
      </trkpt>
      <trkpt lat="42.488432" lon="-6.418977">
        <ele>1510.384</ele>
        <time>2021-07-17T08:11:42Z</time>
      </trkpt>
      <trkpt lat="42.488638" lon="-6.418728">
        <ele>1510.861</ele>
        <time>2021-07-17T08:11:51Z</time>
      </trkpt>
      <trkpt lat="42.488874" lon="-6.418508">
        <ele>1511.321</ele>
        <time>2021-07-17T08:12:01Z</time>
      </trkpt>
      <trkpt lat="42.489118" lon="-6.418351">
        <ele>1510.315</ele>
        <time>2021-07-17T08:12:08Z</time>
      </trkpt>
      <trkpt lat="42.489162" lon="-6.418313">
        <ele>1509.873</ele>
        <time>2021-07-17T08:12:09Z</time>
      </trkpt>
      <trkpt lat="42.489206" lon="-6.418263">
        <ele>1509.490</ele>
        <time>2021-07-17T08:12:10Z</time>
      </trkpt>
      <trkpt lat="42.489246" lon="-6.418205">
        <ele>1509.498</ele>
        <time>2021-07-17T08:12:11Z</time>
      </trkpt>
      <trkpt lat="42.489281" lon="-6.418136">
        <ele>1508.987</ele>
        <time>2021-07-17T08:12:12Z</time>
      </trkpt>
      <trkpt lat="42.489310" lon="-6.418055">
        <ele>1508.442</ele>
        <time>2021-07-17T08:12:13Z</time>
      </trkpt>
      <trkpt lat="42.489330" lon="-6.417969">
        <ele>1508.426</ele>
        <time>2021-07-17T08:12:14Z</time>
      </trkpt>
      <trkpt lat="42.489346" lon="-6.417884">
        <ele>1507.908</ele>
        <time>2021-07-17T08:12:15Z</time>
      </trkpt>
      <trkpt lat="42.489398" lon="-6.417253">
        <ele>1507.485</ele>
        <time>2021-07-17T08:12:22Z</time>
      </trkpt>
      <trkpt lat="42.489394" lon="-6.416485">
        <ele>1506.587</ele>
        <time>2021-07-17T08:12:31Z</time>
      </trkpt>
      <trkpt lat="42.489368" lon="-6.415801">
        <ele>1506.524</ele>
        <time>2021-07-17T08:12:41Z</time>
      </trkpt>
      <trkpt lat="42.489382" lon="-6.415481">
        <ele>1507.034</ele>
        <time>2021-07-17T08:12:48Z</time>
      </trkpt>
      <trkpt lat="42.489400" lon="-6.415150">
        <ele>1507.068</ele>
        <time>2021-07-17T08:12:56Z</time>
      </trkpt>
      <trkpt lat="42.489421" lon="-6.414810">
        <ele>1507.446</ele>
        <time>2021-07-17T08:13:04Z</time>
      </trkpt>
      <trkpt lat="42.489425" lon="-6.414335">
        <ele>1507.063</ele>
        <time>2021-07-17T08:13:14Z</time>
      </trkpt>
      <trkpt lat="42.489418" lon="-6.413819">
        <ele>1506.031</ele>
        <time>2021-07-17T08:13:23Z</time>
      </trkpt>
      <trkpt lat="42.489454" lon="-6.413192">
        <ele>1504.154</ele>
        <time>2021-07-17T08:13:32Z</time>
      </trkpt>
      <trkpt lat="42.489485" lon="-6.413024">
        <ele>1503.656</ele>
        <time>2021-07-17T08:13:34Z</time>
      </trkpt>
      <trkpt lat="42.489509" lon="-6.412943">
        <ele>1503.111</ele>
        <time>2021-07-17T08:13:35Z</time>
      </trkpt>
      <trkpt lat="42.489543" lon="-6.412855">
        <ele>1502.608</ele>
        <time>2021-07-17T08:13:36Z</time>
      </trkpt>
      <trkpt lat="42.489581" lon="-6.412771">
        <ele>1502.282</ele>
        <time>2021-07-17T08:13:37Z</time>
      </trkpt>
      <trkpt lat="42.489630" lon="-6.412686">
        <ele>1502.224</ele>
        <time>2021-07-17T08:13:38Z</time>
      </trkpt>
      <trkpt lat="42.489686" lon="-6.412614">
        <ele>1501.731</ele>
        <time>2021-07-17T08:13:39Z</time>
      </trkpt>
      <trkpt lat="42.489747" lon="-6.412549">
        <ele>1501.291</ele>
        <time>2021-07-17T08:13:40Z</time>
      </trkpt>
      <trkpt lat="42.489937" lon="-6.412322">
        <ele>1499.795</ele>
        <time>2021-07-17T08:13:43Z</time>
      </trkpt>
      <trkpt lat="42.489992" lon="-6.412226">
        <ele>1499.393</ele>
        <time>2021-07-17T08:13:44Z</time>
      </trkpt>
      <trkpt lat="42.490037" lon="-6.412127">
        <ele>1499.390</ele>
        <time>2021-07-17T08:13:45Z</time>
      </trkpt>
      <trkpt lat="42.490299" lon="-6.411401">
        <ele>1498.398</ele>
        <time>2021-07-17T08:13:52Z</time>
      </trkpt>
      <trkpt lat="42.490398" lon="-6.410872">
        <ele>1498.859</ele>
        <time>2021-07-17T08:13:58Z</time>
      </trkpt>
      <trkpt lat="42.490394" lon="-6.410527">
        <ele>1500.203</ele>
        <time>2021-07-17T08:14:04Z</time>
      </trkpt>
      <trkpt lat="42.490344" lon="-6.410060">
        <ele>1500.723</ele>
        <time>2021-07-17T08:14:14Z</time>
      </trkpt>
      <trkpt lat="42.490241" lon="-6.409579">
        <ele>1500.708</ele>
        <time>2021-07-17T08:14:24Z</time>
      </trkpt>
      <trkpt lat="42.490176" lon="-6.409284">
        <ele>1500.262</ele>
        <time>2021-07-17T08:14:30Z</time>
      </trkpt>
      <trkpt lat="42.490050" lon="-6.408856">
        <ele>1500.744</ele>
        <time>2021-07-17T08:14:39Z</time>
      </trkpt>
      <trkpt lat="42.489917" lon="-6.408475">
        <ele>1500.721</ele>
        <time>2021-07-17T08:14:47Z</time>
      </trkpt>
      <trkpt lat="42.489760" lon="-6.408045">
        <ele>1500.231</ele>
        <time>2021-07-17T08:14:57Z</time>
      </trkpt>
      <trkpt lat="42.489630" lon="-6.407596">
        <ele>1500.295</ele>
        <time>2021-07-17T08:15:07Z</time>
      </trkpt>
      <trkpt lat="42.489493" lon="-6.407230">
        <ele>1499.723</ele>
        <time>2021-07-17T08:15:16Z</time>
      </trkpt>
      <trkpt lat="42.489411" lon="-6.406944">
        <ele>1499.310</ele>
        <time>2021-07-17T08:15:23Z</time>
      </trkpt>
      <trkpt lat="42.489408" lon="-6.406891">
        <ele>1499.318</ele>
        <time>2021-07-17T08:15:24Z</time>
      </trkpt>
      <trkpt lat="42.489411" lon="-6.406836">
        <ele>1498.841</ele>
        <time>2021-07-17T08:15:25Z</time>
      </trkpt>
      <trkpt lat="42.489421" lon="-6.406776">
        <ele>1498.381</ele>
        <time>2021-07-17T08:15:26Z</time>
      </trkpt>
      <trkpt lat="42.489440" lon="-6.406715">
        <ele>1497.809</ele>
        <time>2021-07-17T08:15:27Z</time>
      </trkpt>
      <trkpt lat="42.489469" lon="-6.406656">
        <ele>1497.308</ele>
        <time>2021-07-17T08:15:28Z</time>
      </trkpt>
      <trkpt lat="42.489509" lon="-6.406597">
        <ele>1496.931</ele>
        <time>2021-07-17T08:15:29Z</time>
      </trkpt>
      <trkpt lat="42.489560" lon="-6.406538">
        <ele>1495.913</ele>
        <time>2021-07-17T08:15:30Z</time>
      </trkpt>
      <trkpt lat="42.489623" lon="-6.406478">
        <ele>1494.960</ele>
        <time>2021-07-17T08:15:31Z</time>
      </trkpt>
      <trkpt lat="42.489697" lon="-6.406414">
        <ele>1494.040</ele>
        <time>2021-07-17T08:15:32Z</time>
      </trkpt>
      <trkpt lat="42.489786" lon="-6.406349">
        <ele>1492.594</ele>
        <time>2021-07-17T08:15:33Z</time>
      </trkpt>
      <trkpt lat="42.489877" lon="-6.406296">
        <ele>1491.692</ele>
        <time>2021-07-17T08:15:34Z</time>
      </trkpt>
      <trkpt lat="42.489970" lon="-6.406255">
        <ele>1490.139</ele>
        <time>2021-07-17T08:15:35Z</time>
      </trkpt>
      <trkpt lat="42.490069" lon="-6.406223">
        <ele>1488.787</ele>
        <time>2021-07-17T08:15:36Z</time>
      </trkpt>
      <trkpt lat="42.490166" lon="-6.406200">
        <ele>1487.744</ele>
        <time>2021-07-17T08:15:37Z</time>
      </trkpt>
      <trkpt lat="42.490440" lon="-6.406121">
        <ele>1484.405</ele>
        <time>2021-07-17T08:15:40Z</time>
      </trkpt>
      <trkpt lat="42.490526" lon="-6.406071">
        <ele>1483.415</ele>
        <time>2021-07-17T08:15:41Z</time>
      </trkpt>
      <trkpt lat="42.490608" lon="-6.406001">
        <ele>1482.008</ele>
        <time>2021-07-17T08:15:42Z</time>
      </trkpt>
      <trkpt lat="42.490767" lon="-6.405844">
        <ele>1480.511</ele>
        <time>2021-07-17T08:15:44Z</time>
      </trkpt>
      <trkpt lat="42.490849" lon="-6.405785">
        <ele>1479.633</ele>
        <time>2021-07-17T08:15:45Z</time>
      </trkpt>
      <trkpt lat="42.490932" lon="-6.405747">
        <ele>1479.150</ele>
        <time>2021-07-17T08:15:46Z</time>
      </trkpt>
      <trkpt lat="42.491014" lon="-6.405724">
        <ele>1478.650</ele>
        <time>2021-07-17T08:15:47Z</time>
      </trkpt>
      <trkpt lat="42.491099" lon="-6.405710">
        <ele>1477.624</ele>
        <time>2021-07-17T08:15:48Z</time>
      </trkpt>
      <trkpt lat="42.491177" lon="-6.405703">
        <ele>1477.232</ele>
        <time>2021-07-17T08:15:49Z</time>
      </trkpt>
      <trkpt lat="42.491549" lon="-6.405665">
        <ele>1475.229</ele>
        <time>2021-07-17T08:15:55Z</time>
      </trkpt>
      <trkpt lat="42.491570" lon="-6.405658">
        <ele>1474.837</ele>
        <time>2021-07-17T08:15:59Z</time>
      </trkpt>
      <trkpt lat="42.491553" lon="-6.405664">
        <ele>1477.682</ele>
        <time>2021-07-17T08:16:15Z</time>
      </trkpt>
      <trkpt lat="42.491560" lon="-6.405678">
        <ele>1478.643</ele>
        <time>2021-07-17T08:16:22Z</time>
      </trkpt>
      <trkpt lat="42.491575" lon="-6.405678">
        <ele>1478.117</ele>
        <time>2021-07-17T08:16:23Z</time>
      </trkpt>
      <trkpt lat="42.491589" lon="-6.405674">
        <ele>1478.108</ele>
        <time>2021-07-17T08:16:24Z</time>
      </trkpt>
      <trkpt lat="42.491604" lon="-6.405666">
        <ele>1478.185</ele>
        <time>2021-07-17T08:16:25Z</time>
      </trkpt>
      <trkpt lat="42.491622" lon="-6.405660">
        <ele>1478.177</ele>
        <time>2021-07-17T08:16:26Z</time>
      </trkpt>
      <trkpt lat="42.491683" lon="-6.405657">
        <ele>1478.684</ele>
        <time>2021-07-17T08:16:31Z</time>
      </trkpt>
      <trkpt lat="42.491703" lon="-6.405651">
        <ele>1479.184</ele>
        <time>2021-07-17T08:16:43Z</time>
      </trkpt>
      <trkpt lat="42.491862" lon="-6.405608">
        <ele>1480.098</ele>
        <time>2021-07-17T08:16:49Z</time>
      </trkpt>
      <trkpt lat="42.492094" lon="-6.405457">
        <ele>1481.076</ele>
        <time>2021-07-17T08:16:57Z</time>
      </trkpt>
      <trkpt lat="42.492239" lon="-6.405255">
        <ele>1480.563</ele>
        <time>2021-07-17T08:17:03Z</time>
      </trkpt>
      <trkpt lat="42.492261" lon="-6.405200">
        <ele>1480.091</ele>
        <time>2021-07-17T08:17:04Z</time>
      </trkpt>
      <trkpt lat="42.492306" lon="-6.405086">
        <ele>1479.123</ele>
        <time>2021-07-17T08:17:06Z</time>
      </trkpt>
      <trkpt lat="42.492433" lon="-6.404588">
        <ele>1475.783</ele>
        <time>2021-07-17T08:17:13Z</time>
      </trkpt>
      <trkpt lat="42.492589" lon="-6.403769">
        <ele>1473.311</ele>
        <time>2021-07-17T08:17:23Z</time>
      </trkpt>
      <trkpt lat="42.492692" lon="-6.403129">
        <ele>1472.408</ele>
        <time>2021-07-17T08:17:32Z</time>
      </trkpt>
      <trkpt lat="42.492729" lon="-6.402694">
        <ele>1472.819</ele>
        <time>2021-07-17T08:17:39Z</time>
      </trkpt>
      <trkpt lat="42.492704" lon="-6.402185">
        <ele>1473.811</ele>
        <time>2021-07-17T08:17:49Z</time>
      </trkpt>
      <trkpt lat="42.492650" lon="-6.401836">
        <ele>1474.848</ele>
        <time>2021-07-17T08:17:57Z</time>
      </trkpt>
      <trkpt lat="42.492588" lon="-6.401441">
        <ele>1475.278</ele>
        <time>2021-07-17T08:18:07Z</time>
      </trkpt>
      <trkpt lat="42.492537" lon="-6.401067">
        <ele>1474.872</ele>
        <time>2021-07-17T08:18:16Z</time>
      </trkpt>
      <trkpt lat="42.492502" lon="-6.400871">
        <ele>1474.330</ele>
        <time>2021-07-17T08:18:23Z</time>
      </trkpt>
      <trkpt lat="42.492449" lon="-6.400616">
        <ele>1472.837</ele>
        <time>2021-07-17T08:18:31Z</time>
      </trkpt>
      <trkpt lat="42.492360" lon="-6.400278">
        <ele>1470.915</ele>
        <time>2021-07-17T08:18:39Z</time>
      </trkpt>
      <trkpt lat="42.492260" lon="-6.399877">
        <ele>1469.083</ele>
        <time>2021-07-17T08:18:45Z</time>
      </trkpt>
      <trkpt lat="42.492190" lon="-6.399391">
        <ele>1465.625</ele>
        <time>2021-07-17T08:18:50Z</time>
      </trkpt>
      <trkpt lat="42.492198" lon="-6.399271">
        <ele>1465.117</ele>
        <time>2021-07-17T08:18:51Z</time>
      </trkpt>
      <trkpt lat="42.492218" lon="-6.399141">
        <ele>1464.208</ele>
        <time>2021-07-17T08:18:52Z</time>
      </trkpt>
      <trkpt lat="42.492249" lon="-6.399016">
        <ele>1463.725</ele>
        <time>2021-07-17T08:18:53Z</time>
      </trkpt>
      <trkpt lat="42.492290" lon="-6.398892">
        <ele>1462.757</ele>
        <time>2021-07-17T08:18:54Z</time>
      </trkpt>
      <trkpt lat="42.492337" lon="-6.398770">
        <ele>1462.314</ele>
        <time>2021-07-17T08:18:55Z</time>
      </trkpt>
      <trkpt lat="42.492575" lon="-6.398182">
        <ele>1460.864</ele>
        <time>2021-07-17T08:19:00Z</time>
      </trkpt>
      <trkpt lat="42.492587" lon="-6.398064">
        <ele>1460.828</ele>
        <time>2021-07-17T08:19:01Z</time>
      </trkpt>
      <trkpt lat="42.492575" lon="-6.397954">
        <ele>1460.816</ele>
        <time>2021-07-17T08:19:02Z</time>
      </trkpt>
      <trkpt lat="42.492545" lon="-6.397856">
        <ele>1460.863</ele>
        <time>2021-07-17T08:19:03Z</time>
      </trkpt>
      <trkpt lat="42.492499" lon="-6.397767">
        <ele>1460.861</ele>
        <time>2021-07-17T08:19:04Z</time>
      </trkpt>
      <trkpt lat="42.492451" lon="-6.397694">
        <ele>1460.836</ele>
        <time>2021-07-17T08:19:05Z</time>
      </trkpt>
      <trkpt lat="42.492195" lon="-6.397246">
        <ele>1462.317</ele>
        <time>2021-07-17T08:19:12Z</time>
      </trkpt>
      <trkpt lat="42.492043" lon="-6.396947">
        <ele>1464.218</ele>
        <time>2021-07-17T08:19:19Z</time>
      </trkpt>
      <trkpt lat="42.491918" lon="-6.396698">
        <ele>1464.208</ele>
        <time>2021-07-17T08:19:27Z</time>
      </trkpt>
      <trkpt lat="42.491765" lon="-6.396339">
        <ele>1463.770</ele>
        <time>2021-07-17T08:19:37Z</time>
      </trkpt>
      <trkpt lat="42.491674" lon="-6.396073">
        <ele>1462.732</ele>
        <time>2021-07-17T08:19:45Z</time>
      </trkpt>
      <trkpt lat="42.491538" lon="-6.395659">
        <ele>1462.749</ele>
        <time>2021-07-17T08:19:54Z</time>
      </trkpt>
      <trkpt lat="42.491387" lon="-6.395181">
        <ele>1461.889</ele>
        <time>2021-07-17T08:20:02Z</time>
      </trkpt>
      <trkpt lat="42.491292" lon="-6.394555">
        <ele>1459.933</ele>
        <time>2021-07-17T08:20:10Z</time>
      </trkpt>
      <trkpt lat="42.491285" lon="-6.394211">
        <ele>1458.911</ele>
        <time>2021-07-17T08:20:14Z</time>
      </trkpt>
      <trkpt lat="42.491294" lon="-6.394134">
        <ele>1458.948</ele>
        <time>2021-07-17T08:20:15Z</time>
      </trkpt>
      <trkpt lat="42.491310" lon="-6.394052">
        <ele>1458.476</ele>
        <time>2021-07-17T08:20:16Z</time>
      </trkpt>
      <trkpt lat="42.491336" lon="-6.393970">
        <ele>1458.428</ele>
        <time>2021-07-17T08:20:17Z</time>
      </trkpt>
      <trkpt lat="42.491374" lon="-6.393896">
        <ele>1457.989</ele>
        <time>2021-07-17T08:20:18Z</time>
      </trkpt>
      <trkpt lat="42.491421" lon="-6.393824">
        <ele>1457.517</ele>
        <time>2021-07-17T08:20:19Z</time>
      </trkpt>
      <trkpt lat="42.491481" lon="-6.393746">
        <ele>1456.508</ele>
        <time>2021-07-17T08:20:20Z</time>
      </trkpt>
      <trkpt lat="42.491535" lon="-6.393663">
        <ele>1456.059</ele>
        <time>2021-07-17T08:20:21Z</time>
      </trkpt>
      <trkpt lat="42.491582" lon="-6.393570">
        <ele>1455.041</ele>
        <time>2021-07-17T08:20:22Z</time>
      </trkpt>
      <trkpt lat="42.491612" lon="-6.393452">
        <ele>1454.688</ele>
        <time>2021-07-17T08:20:23Z</time>
      </trkpt>
      <trkpt lat="42.491617" lon="-6.393334">
        <ele>1453.668</ele>
        <time>2021-07-17T08:20:24Z</time>
      </trkpt>
      <trkpt lat="42.491597" lon="-6.393213">
        <ele>1453.182</ele>
        <time>2021-07-17T08:20:25Z</time>
      </trkpt>
      <trkpt lat="42.491562" lon="-6.393105">
        <ele>1453.110</ele>
        <time>2021-07-17T08:20:26Z</time>
      </trkpt>
      <trkpt lat="42.491517" lon="-6.393004">
        <ele>1452.677</ele>
        <time>2021-07-17T08:20:27Z</time>
      </trkpt>
      <trkpt lat="42.491207" lon="-6.392485">
        <ele>1453.165</ele>
        <time>2021-07-17T08:20:33Z</time>
      </trkpt>
      <trkpt lat="42.490838" lon="-6.392047">
        <ele>1453.634</ele>
        <time>2021-07-17T08:20:40Z</time>
      </trkpt>
      <trkpt lat="42.490447" lon="-6.391544">
        <ele>1452.655</ele>
        <time>2021-07-17T08:20:49Z</time>
      </trkpt>
      <trkpt lat="42.490343" lon="-6.391381">
        <ele>1452.210</ele>
        <time>2021-07-17T08:20:52Z</time>
      </trkpt>
      <trkpt lat="42.490316" lon="-6.391310">
        <ele>1451.708</ele>
        <time>2021-07-17T08:20:53Z</time>
      </trkpt>
      <trkpt lat="42.490293" lon="-6.391236">
        <ele>1451.770</ele>
        <time>2021-07-17T08:20:54Z</time>
      </trkpt>
      <trkpt lat="42.490212" lon="-6.390738">
        <ele>1447.832</ele>
        <time>2021-07-17T08:20:59Z</time>
      </trkpt>
      <trkpt lat="42.490137" lon="-6.389930">
        <ele>1441.629</ele>
        <time>2021-07-17T08:21:05Z</time>
      </trkpt>
      <trkpt lat="42.490119" lon="-6.389634">
        <ele>1439.229</ele>
        <time>2021-07-17T08:21:07Z</time>
      </trkpt>
      <trkpt lat="42.490126" lon="-6.389493">
        <ele>1437.773</ele>
        <time>2021-07-17T08:21:08Z</time>
      </trkpt>
      <trkpt lat="42.490153" lon="-6.389341">
        <ele>1436.881</ele>
        <time>2021-07-17T08:21:09Z</time>
      </trkpt>
      <trkpt lat="42.490190" lon="-6.389205">
        <ele>1435.828</ele>
        <time>2021-07-17T08:21:10Z</time>
      </trkpt>
      <trkpt lat="42.490242" lon="-6.389070">
        <ele>1435.356</ele>
        <time>2021-07-17T08:21:11Z</time>
      </trkpt>
      <trkpt lat="42.490293" lon="-6.388955">
        <ele>1434.954</ele>
        <time>2021-07-17T08:21:12Z</time>
      </trkpt>
      <trkpt lat="42.490346" lon="-6.388821">
        <ele>1434.456</ele>
        <time>2021-07-17T08:21:13Z</time>
      </trkpt>
      <trkpt lat="42.490385" lon="-6.388691">
        <ele>1433.911</ele>
        <time>2021-07-17T08:21:14Z</time>
      </trkpt>
      <trkpt lat="42.490508" lon="-6.388074">
        <ele>1434.408</ele>
        <time>2021-07-17T08:21:19Z</time>
      </trkpt>
      <trkpt lat="42.490551" lon="-6.387790">
        <ele>1435.362</ele>
        <time>2021-07-17T08:21:22Z</time>
      </trkpt>
      <trkpt lat="42.490549" lon="-6.387712">
        <ele>1435.814</ele>
        <time>2021-07-17T08:21:23Z</time>
      </trkpt>
      <trkpt lat="42.490539" lon="-6.387640">
        <ele>1436.371</ele>
        <time>2021-07-17T08:21:24Z</time>
      </trkpt>
      <trkpt lat="42.490523" lon="-6.387572">
        <ele>1436.321</ele>
        <time>2021-07-17T08:21:25Z</time>
      </trkpt>
      <trkpt lat="42.490504" lon="-6.387514">
        <ele>1436.855</ele>
        <time>2021-07-17T08:21:26Z</time>
      </trkpt>
      <trkpt lat="42.490485" lon="-6.387466">
        <ele>1437.313</ele>
        <time>2021-07-17T08:21:27Z</time>
      </trkpt>
      <trkpt lat="42.490399" lon="-6.387244">
        <ele>1439.230</ele>
        <time>2021-07-17T08:21:33Z</time>
      </trkpt>
      <trkpt lat="42.490353" lon="-6.387000">
        <ele>1439.738</ele>
        <time>2021-07-17T08:21:40Z</time>
      </trkpt>
      <trkpt lat="42.490274" lon="-6.386741">
        <ele>1441.662</ele>
        <time>2021-07-17T08:21:49Z</time>
      </trkpt>
      <trkpt lat="42.490157" lon="-6.386605">
        <ele>1444.083</ele>
        <time>2021-07-17T08:21:56Z</time>
      </trkpt>
      <trkpt lat="42.489992" lon="-6.386438">
        <ele>1446.411</ele>
        <time>2021-07-17T08:22:05Z</time>
      </trkpt>
      <trkpt lat="42.489844" lon="-6.386255">
        <ele>1448.308</ele>
        <time>2021-07-17T08:22:14Z</time>
      </trkpt>
      <trkpt lat="42.489742" lon="-6.386097">
        <ele>1447.843</ele>
        <time>2021-07-17T08:22:22Z</time>
      </trkpt>
      <trkpt lat="42.489624" lon="-6.385857">
        <ele>1446.965</ele>
        <time>2021-07-17T08:22:31Z</time>
      </trkpt>
      <trkpt lat="42.489502" lon="-6.385622">
        <ele>1446.942</ele>
        <time>2021-07-17T08:22:40Z</time>
      </trkpt>
      <trkpt lat="42.489393" lon="-6.385392">
        <ele>1446.932</ele>
        <time>2021-07-17T08:22:49Z</time>
      </trkpt>
      <trkpt lat="42.489283" lon="-6.385181">
        <ele>1447.456</ele>
        <time>2021-07-17T08:22:58Z</time>
      </trkpt>
      <trkpt lat="42.489151" lon="-6.385037">
        <ele>1448.364</ele>
        <time>2021-07-17T08:23:06Z</time>
      </trkpt>
      <trkpt lat="42.488963" lon="-6.384941">
        <ele>1449.831</ele>
        <time>2021-07-17T08:23:15Z</time>
      </trkpt>
      <trkpt lat="42.488812" lon="-6.384873">
        <ele>1451.299</ele>
        <time>2021-07-17T08:23:22Z</time>
      </trkpt>
      <trkpt lat="42.488592" lon="-6.384784">
        <ele>1452.292</ele>
        <time>2021-07-17T08:23:32Z</time>
      </trkpt>
      <trkpt lat="42.488396" lon="-6.384690">
        <ele>1454.173</ele>
        <time>2021-07-17T08:23:41Z</time>
      </trkpt>
      <trkpt lat="42.488240" lon="-6.384559">
        <ele>1455.520</ele>
        <time>2021-07-17T08:23:50Z</time>
      </trkpt>
      <trkpt lat="42.488127" lon="-6.384384">
        <ele>1456.008</ele>
        <time>2021-07-17T08:23:59Z</time>
      </trkpt>
      <trkpt lat="42.488058" lon="-6.384213">
        <ele>1456.046</ele>
        <time>2021-07-17T08:24:07Z</time>
      </trkpt>
      <trkpt lat="42.487965" lon="-6.383907">
        <ele>1455.058</ele>
        <time>2021-07-17T08:24:17Z</time>
      </trkpt>
      <trkpt lat="42.487905" lon="-6.383684">
        <ele>1455.055</ele>
        <time>2021-07-17T08:24:25Z</time>
      </trkpt>
      <trkpt lat="42.487829" lon="-6.383394">
        <ele>1455.555</ele>
        <time>2021-07-17T08:24:35Z</time>
      </trkpt>
      <trkpt lat="42.487774" lon="-6.383106">
        <ele>1455.549</ele>
        <time>2021-07-17T08:24:44Z</time>
      </trkpt>
      <trkpt lat="42.487752" lon="-6.382845">
        <ele>1456.017</ele>
        <time>2021-07-17T08:24:53Z</time>
      </trkpt>
      <trkpt lat="42.487717" lon="-6.382603">
        <ele>1457.014</ele>
        <time>2021-07-17T08:25:01Z</time>
      </trkpt>
      <trkpt lat="42.487668" lon="-6.382372">
        <ele>1457.032</ele>
        <time>2021-07-17T08:25:09Z</time>
      </trkpt>
      <trkpt lat="42.487590" lon="-6.382086">
        <ele>1458.936</ele>
        <time>2021-07-17T08:25:20Z</time>
      </trkpt>
      <trkpt lat="42.487584" lon="-6.382065">
        <ele>1459.417</ele>
        <time>2021-07-17T08:25:21Z</time>
      </trkpt>
      <trkpt lat="42.487574" lon="-6.382044">
        <ele>1459.418</ele>
        <time>2021-07-17T08:25:22Z</time>
      </trkpt>
      <trkpt lat="42.487566" lon="-6.382020">
        <ele>1459.908</ele>
        <time>2021-07-17T08:25:23Z</time>
      </trkpt>
      <trkpt lat="42.487558" lon="-6.381997">
        <ele>1459.960</ele>
        <time>2021-07-17T08:25:24Z</time>
      </trkpt>
      <trkpt lat="42.487549" lon="-6.381973">
        <ele>1460.372</ele>
        <time>2021-07-17T08:25:25Z</time>
      </trkpt>
      <trkpt lat="42.487544" lon="-6.381948">
        <ele>1460.319</ele>
        <time>2021-07-17T08:25:26Z</time>
      </trkpt>
      <trkpt lat="42.487539" lon="-6.381922">
        <ele>1460.869</ele>
        <time>2021-07-17T08:25:27Z</time>
      </trkpt>
      <trkpt lat="42.487531" lon="-6.381896">
        <ele>1460.833</ele>
        <time>2021-07-17T08:25:28Z</time>
      </trkpt>
      <trkpt lat="42.487525" lon="-6.381871">
        <ele>1461.311</ele>
        <time>2021-07-17T08:25:29Z</time>
      </trkpt>
      <trkpt lat="42.487520" lon="-6.381845">
        <ele>1461.318</ele>
        <time>2021-07-17T08:25:30Z</time>
      </trkpt>
      <trkpt lat="42.487514" lon="-6.381819">
        <ele>1461.866</ele>
        <time>2021-07-17T08:25:31Z</time>
      </trkpt>
      <trkpt lat="42.487506" lon="-6.381797">
        <ele>1462.378</ele>
        <time>2021-07-17T08:25:32Z</time>
      </trkpt>
      <trkpt lat="42.487499" lon="-6.381775">
        <ele>1462.333</ele>
        <time>2021-07-17T08:25:33Z</time>
      </trkpt>
      <trkpt lat="42.487495" lon="-6.381752">
        <ele>1462.326</ele>
        <time>2021-07-17T08:25:34Z</time>
      </trkpt>
      <trkpt lat="42.487480" lon="-6.381562">
        <ele>1463.708</ele>
        <time>2021-07-17T08:25:42Z</time>
      </trkpt>
      <trkpt lat="42.487495" lon="-6.381366">
        <ele>1465.164</ele>
        <time>2021-07-17T08:25:50Z</time>
      </trkpt>
      <trkpt lat="42.487497" lon="-6.381319">
        <ele>1465.666</ele>
        <time>2021-07-17T08:25:52Z</time>
      </trkpt>
      <trkpt lat="42.487501" lon="-6.381295">
        <ele>1465.633</ele>
        <time>2021-07-17T08:25:53Z</time>
      </trkpt>
      <trkpt lat="42.487502" lon="-6.381268">
        <ele>1466.143</ele>
        <time>2021-07-17T08:25:54Z</time>
      </trkpt>
      <trkpt lat="42.487500" lon="-6.381242">
        <ele>1466.187</ele>
        <time>2021-07-17T08:25:55Z</time>
      </trkpt>
      <trkpt lat="42.487497" lon="-6.381215">
        <ele>1466.125</ele>
        <time>2021-07-17T08:25:56Z</time>
      </trkpt>
      <trkpt lat="42.487445" lon="-6.380895">
        <ele>1466.642</ele>
        <time>2021-07-17T08:26:08Z</time>
      </trkpt>
      <trkpt lat="42.487396" lon="-6.380704">
        <ele>1467.140</ele>
        <time>2021-07-17T08:26:15Z</time>
      </trkpt>
      <trkpt lat="42.487364" lon="-6.380419">
        <ele>1468.044</ele>
        <time>2021-07-17T08:26:24Z</time>
      </trkpt>
      <trkpt lat="42.487421" lon="-6.380217">
        <ele>1468.505</ele>
        <time>2021-07-17T08:26:30Z</time>
      </trkpt>
      <trkpt lat="42.487529" lon="-6.379963">
        <ele>1469.015</ele>
        <time>2021-07-17T08:26:39Z</time>
      </trkpt>
      <trkpt lat="42.487592" lon="-6.379721">
        <ele>1469.508</ele>
        <time>2021-07-17T08:26:47Z</time>
      </trkpt>
      <trkpt lat="42.487629" lon="-6.379399">
        <ele>1469.071</ele>
        <time>2021-07-17T08:26:56Z</time>
      </trkpt>
      <trkpt lat="42.487782" lon="-6.379080">
        <ele>1468.543</ele>
        <time>2021-07-17T08:27:04Z</time>
      </trkpt>
      <trkpt lat="42.487995" lon="-6.378851">
        <ele>1468.510</ele>
        <time>2021-07-17T08:27:13Z</time>
      </trkpt>
      <trkpt lat="42.488204" lon="-6.378653">
        <ele>1469.010</ele>
        <time>2021-07-17T08:27:22Z</time>
      </trkpt>
      <trkpt lat="42.488323" lon="-6.378400">
        <ele>1469.044</ele>
        <time>2021-07-17T08:27:30Z</time>
      </trkpt>
      <trkpt lat="42.488387" lon="-6.378027">
        <ele>1470.472</ele>
        <time>2021-07-17T08:27:40Z</time>
      </trkpt>
      <trkpt lat="42.488422" lon="-6.377733">
        <ele>1471.439</ele>
        <time>2021-07-17T08:27:48Z</time>
      </trkpt>
      <trkpt lat="42.488421" lon="-6.377415">
        <ele>1472.837</ele>
        <time>2021-07-17T08:27:57Z</time>
      </trkpt>
      <trkpt lat="42.488402" lon="-6.377098">
        <ele>1472.811</ele>
        <time>2021-07-17T08:28:06Z</time>
      </trkpt>
      <trkpt lat="42.488386" lon="-6.376815">
        <ele>1474.321</ele>
        <time>2021-07-17T08:28:14Z</time>
      </trkpt>
      <trkpt lat="42.488359" lon="-6.376505">
        <ele>1476.203</ele>
        <time>2021-07-17T08:28:23Z</time>
      </trkpt>
      <trkpt lat="42.488323" lon="-6.376257">
        <ele>1477.608</ele>
        <time>2021-07-17T08:28:31Z</time>
      </trkpt>
      <trkpt lat="42.488282" lon="-6.375872">
        <ele>1480.018</ele>
        <time>2021-07-17T08:28:44Z</time>
      </trkpt>
      <trkpt lat="42.488309" lon="-6.375651">
        <ele>1481.560</ele>
        <time>2021-07-17T08:28:52Z</time>
      </trkpt>
      <trkpt lat="42.488377" lon="-6.375429">
        <ele>1481.077</ele>
        <time>2021-07-17T08:29:00Z</time>
      </trkpt>
      <trkpt lat="42.488446" lon="-6.375214">
        <ele>1481.557</ele>
        <time>2021-07-17T08:29:09Z</time>
      </trkpt>
      <trkpt lat="42.488545" lon="-6.374923">
        <ele>1482.471</ele>
        <time>2021-07-17T08:29:20Z</time>
      </trkpt>
      <trkpt lat="42.488637" lon="-6.374676">
        <ele>1483.989</ele>
        <time>2021-07-17T08:29:30Z</time>
      </trkpt>
      <trkpt lat="42.488792" lon="-6.374396">
        <ele>1484.876</ele>
        <time>2021-07-17T08:29:42Z</time>
      </trkpt>
      <trkpt lat="42.488931" lon="-6.374174">
        <ele>1483.974</ele>
        <time>2021-07-17T08:29:51Z</time>
      </trkpt>
      <trkpt lat="42.489056" lon="-6.374002">
        <ele>1482.911</ele>
        <time>2021-07-17T08:29:59Z</time>
      </trkpt>
      <trkpt lat="42.489180" lon="-6.373845">
        <ele>1483.921</ele>
        <time>2021-07-17T08:30:07Z</time>
      </trkpt>
      <trkpt lat="42.489335" lon="-6.373688">
        <ele>1484.803</ele>
        <time>2021-07-17T08:30:16Z</time>
      </trkpt>
      <trkpt lat="42.489509" lon="-6.373554">
        <ele>1485.308</ele>
        <time>2021-07-17T08:30:24Z</time>
      </trkpt>
      <trkpt lat="42.489709" lon="-6.373402">
        <ele>1486.838</ele>
        <time>2021-07-17T08:30:32Z</time>
      </trkpt>
      <trkpt lat="42.489849" lon="-6.373208">
        <ele>1487.310</ele>
        <time>2021-07-17T08:30:41Z</time>
      </trkpt>
      <trkpt lat="42.489916" lon="-6.372951">
        <ele>1485.897</ele>
        <time>2021-07-17T08:30:47Z</time>
      </trkpt>
      <trkpt lat="42.489945" lon="-6.372739">
        <ele>1484.827</ele>
        <time>2021-07-17T08:30:50Z</time>
      </trkpt>
      <trkpt lat="42.489944" lon="-6.372661">
        <ele>1484.841</ele>
        <time>2021-07-17T08:30:51Z</time>
      </trkpt>
      <trkpt lat="42.489934" lon="-6.372583">
        <ele>1484.489</ele>
        <time>2021-07-17T08:30:52Z</time>
      </trkpt>
      <trkpt lat="42.489916" lon="-6.372506">
        <ele>1484.476</ele>
        <time>2021-07-17T08:30:53Z</time>
      </trkpt>
      <trkpt lat="42.489893" lon="-6.372429">
        <ele>1483.994</ele>
        <time>2021-07-17T08:30:54Z</time>
      </trkpt>
      <trkpt lat="42.489865" lon="-6.372354">
        <ele>1483.922</ele>
        <time>2021-07-17T08:30:55Z</time>
      </trkpt>
      <trkpt lat="42.489666" lon="-6.371879">
        <ele>1483.462</ele>
        <time>2021-07-17T08:31:02Z</time>
      </trkpt>
      <trkpt lat="42.489469" lon="-6.371418">
        <ele>1483.908</ele>
        <time>2021-07-17T08:31:11Z</time>
      </trkpt>
      <trkpt lat="42.489313" lon="-6.370935">
        <ele>1482.908</ele>
        <time>2021-07-17T08:31:20Z</time>
      </trkpt>
      <trkpt lat="42.489281" lon="-6.370828">
        <ele>1482.989</ele>
        <time>2021-07-17T08:31:22Z</time>
      </trkpt>
      <trkpt lat="42.489140" lon="-6.370327">
        <ele>1481.531</ele>
        <time>2021-07-17T08:31:30Z</time>
      </trkpt>
      <trkpt lat="42.489051" lon="-6.369838">
        <ele>1481.018</ele>
        <time>2021-07-17T08:31:37Z</time>
      </trkpt>
      <trkpt lat="42.489040" lon="-6.369306">
        <ele>1481.018</ele>
        <time>2021-07-17T08:31:45Z</time>
      </trkpt>
      <trkpt lat="42.489032" lon="-6.368878">
        <ele>1481.052</ele>
        <time>2021-07-17T08:31:53Z</time>
      </trkpt>
      <trkpt lat="42.489009" lon="-6.368347">
        <ele>1480.580</ele>
        <time>2021-07-17T08:32:03Z</time>
      </trkpt>
      <trkpt lat="42.489010" lon="-6.367933">
        <ele>1481.577</ele>
        <time>2021-07-17T08:32:11Z</time>
      </trkpt>
      <trkpt lat="42.489060" lon="-6.367522">
        <ele>1482.015</ele>
        <time>2021-07-17T08:32:19Z</time>
      </trkpt>
      <trkpt lat="42.489137" lon="-6.367073">
        <ele>1482.448</ele>
        <time>2021-07-17T08:32:28Z</time>
      </trkpt>
      <trkpt lat="42.489196" lon="-6.366722">
        <ele>1483.461</ele>
        <time>2021-07-17T08:32:36Z</time>
      </trkpt>
      <trkpt lat="42.489198" lon="-6.366318">
        <ele>1484.417</ele>
        <time>2021-07-17T08:32:46Z</time>
      </trkpt>
      <trkpt lat="42.489169" lon="-6.366017">
        <ele>1486.308</ele>
        <time>2021-07-17T08:32:55Z</time>
      </trkpt>
      <trkpt lat="42.489133" lon="-6.365668">
        <ele>1487.321</ele>
        <time>2021-07-17T08:33:05Z</time>
      </trkpt>
      <trkpt lat="42.489083" lon="-6.365425">
        <ele>1488.283</ele>
        <time>2021-07-17T08:33:13Z</time>
      </trkpt>
      <trkpt lat="42.489009" lon="-6.365172">
        <ele>1489.210</ele>
        <time>2021-07-17T08:33:21Z</time>
      </trkpt>
      <trkpt lat="42.488933" lon="-6.364942">
        <ele>1490.670</ele>
        <time>2021-07-17T08:33:29Z</time>
      </trkpt>
      <trkpt lat="42.488856" lon="-6.364679">
        <ele>1491.694</ele>
        <time>2021-07-17T08:33:38Z</time>
      </trkpt>
      <trkpt lat="42.488770" lon="-6.364377">
        <ele>1493.512</ele>
        <time>2021-07-17T08:33:48Z</time>
      </trkpt>
      <trkpt lat="42.488710" lon="-6.364171">
        <ele>1494.529</ele>
        <time>2021-07-17T08:33:56Z</time>
      </trkpt>
      <trkpt lat="42.488650" lon="-6.363947">
        <ele>1495.457</ele>
        <time>2021-07-17T08:34:05Z</time>
      </trkpt>
      <trkpt lat="42.488592" lon="-6.363683">
        <ele>1496.959</ele>
        <time>2021-07-17T08:34:16Z</time>
      </trkpt>
      <trkpt lat="42.488542" lon="-6.363383">
        <ele>1499.303</ele>
        <time>2021-07-17T08:34:28Z</time>
      </trkpt>
      <trkpt lat="42.488507" lon="-6.363103">
        <ele>1501.223</ele>
        <time>2021-07-17T08:34:39Z</time>
      </trkpt>
      <trkpt lat="42.488492" lon="-6.362864">
        <ele>1502.608</ele>
        <time>2021-07-17T08:34:49Z</time>
      </trkpt>
      <trkpt lat="42.488484" lon="-6.362684">
        <ele>1503.132</ele>
        <time>2021-07-17T08:34:57Z</time>
      </trkpt>
      <trkpt lat="42.488489" lon="-6.362484">
        <ele>1504.694</ele>
        <time>2021-07-17T08:35:06Z</time>
      </trkpt>
      <trkpt lat="42.488507" lon="-6.362204">
        <ele>1505.071</ele>
        <time>2021-07-17T08:35:17Z</time>
      </trkpt>
      <trkpt lat="42.488547" lon="-6.361929">
        <ele>1505.091</ele>
        <time>2021-07-17T08:35:29Z</time>
      </trkpt>
      <trkpt lat="42.488592" lon="-6.361789">
        <ele>1505.025</ele>
        <time>2021-07-17T08:35:37Z</time>
      </trkpt>
      <trkpt lat="42.488608" lon="-6.361773">
        <ele>1505.023</ele>
        <time>2021-07-17T08:35:38Z</time>
      </trkpt>
      <trkpt lat="42.488626" lon="-6.361758">
        <ele>1504.690</ele>
        <time>2021-07-17T08:35:39Z</time>
      </trkpt>
      <trkpt lat="42.488648" lon="-6.361742">
        <ele>1504.688</ele>
        <time>2021-07-17T08:35:40Z</time>
      </trkpt>
      <trkpt lat="42.488675" lon="-6.361725">
        <ele>1504.168</ele>
        <time>2021-07-17T08:35:41Z</time>
      </trkpt>
      <trkpt lat="42.488702" lon="-6.361711">
        <ele>1503.642</ele>
        <time>2021-07-17T08:35:42Z</time>
      </trkpt>
      <trkpt lat="42.488727" lon="-6.361700">
        <ele>1503.626</ele>
        <time>2021-07-17T08:35:43Z</time>
      </trkpt>
      <trkpt lat="42.488819" lon="-6.361693">
        <ele>1503.608</ele>
        <time>2021-07-17T08:35:49Z</time>
      </trkpt>
      <trkpt lat="42.488818" lon="-6.361692">
        <ele>1503.143</ele>
        <time>2021-07-17T08:35:59Z</time>
      </trkpt>
      <trkpt lat="42.488817" lon="-6.361684">
        <ele>1504.665</ele>
        <time>2021-07-17T08:36:17Z</time>
      </trkpt>
      <trkpt lat="42.488801" lon="-6.361700">
        <ele>1504.652</ele>
        <time>2021-07-17T08:36:40Z</time>
      </trkpt>
      <trkpt lat="42.488796" lon="-6.361695">
        <ele>1505.572</ele>
        <time>2021-07-17T08:36:54Z</time>
      </trkpt>
      <trkpt lat="42.488796" lon="-6.361701">
        <ele>1506.036</ele>
        <time>2021-07-17T08:37:09Z</time>
      </trkpt>
      <trkpt lat="42.488812" lon="-6.361724">
        <ele>1504.694</ele>
        <time>2021-07-17T08:37:27Z</time>
      </trkpt>
      <trkpt lat="42.488800" lon="-6.361706">
        <ele>1504.181</ele>
        <time>2021-07-17T08:37:45Z</time>
      </trkpt>
      <trkpt lat="42.488805" lon="-6.361702">
        <ele>1505.539</ele>
        <time>2021-07-17T08:38:05Z</time>
      </trkpt>
      <trkpt lat="42.488816" lon="-6.361709">
        <ele>1504.139</ele>
        <time>2021-07-17T08:38:18Z</time>
      </trkpt>
      <trkpt lat="42.488821" lon="-6.361687">
        <ele>1502.201</ele>
        <time>2021-07-17T08:38:33Z</time>
      </trkpt>
      <trkpt lat="42.488825" lon="-6.361692">
        <ele>1503.621</ele>
        <time>2021-07-17T08:38:47Z</time>
      </trkpt>
      <trkpt lat="42.488822" lon="-6.361690">
        <ele>1502.608</ele>
        <time>2021-07-17T08:39:03Z</time>
      </trkpt>
      <trkpt lat="42.488823" lon="-6.361703">
        <ele>1502.240</ele>
        <time>2021-07-17T08:39:10Z</time>
      </trkpt>
      <trkpt lat="42.488814" lon="-6.361840">
        <ele>1501.712</ele>
        <time>2021-07-17T08:39:21Z</time>
      </trkpt>
      <trkpt lat="42.488828" lon="-6.361837">
        <ele>1501.729</ele>
        <time>2021-07-17T08:39:23Z</time>
      </trkpt>
      <trkpt lat="42.488866" lon="-6.361811">
        <ele>1502.239</ele>
        <time>2021-07-17T08:39:27Z</time>
      </trkpt>
      <trkpt lat="42.488982" lon="-6.361704">
        <ele>1503.673</ele>
        <time>2021-07-17T08:39:38Z</time>
      </trkpt>
      <trkpt lat="42.489092" lon="-6.361616">
        <ele>1504.671</ele>
        <time>2021-07-17T08:39:49Z</time>
      </trkpt>
      <trkpt lat="42.489093" lon="-6.361621">
        <ele>1504.168</ele>
        <time>2021-07-17T08:39:56Z</time>
      </trkpt>
      <trkpt lat="42.489110" lon="-6.361623">
        <ele>1505.026</ele>
        <time>2021-07-17T08:40:11Z</time>
      </trkpt>
      <trkpt lat="42.489112" lon="-6.361628">
        <ele>1505.053</ele>
        <time>2021-07-17T08:40:24Z</time>
      </trkpt>
      <trkpt lat="42.489113" lon="-6.361620">
        <ele>1504.104</ele>
        <time>2021-07-17T08:40:41Z</time>
      </trkpt>
      <trkpt lat="42.489111" lon="-6.361614">
        <ele>1501.714</ele>
        <time>2021-07-17T08:40:55Z</time>
      </trkpt>
      <trkpt lat="42.489109" lon="-6.361594">
        <ele>1502.208</ele>
        <time>2021-07-17T08:41:09Z</time>
      </trkpt>
      <trkpt lat="42.489174" lon="-6.361526">
        <ele>1503.632</ele>
        <time>2021-07-17T08:41:18Z</time>
      </trkpt>
      <trkpt lat="42.489197" lon="-6.361489">
        <ele>1505.084</ele>
        <time>2021-07-17T08:41:25Z</time>
      </trkpt>
      <trkpt lat="42.489197" lon="-6.361487">
        <ele>1506.571</ele>
        <time>2021-07-17T08:41:37Z</time>
      </trkpt>
      <trkpt lat="42.489205" lon="-6.361482">
        <ele>1507.451</ele>
        <time>2021-07-17T08:41:55Z</time>
      </trkpt>
      <trkpt lat="42.489204" lon="-6.361502">
        <ele>1507.025</ele>
        <time>2021-07-17T08:42:08Z</time>
      </trkpt>
      <trkpt lat="42.489194" lon="-6.361479">
        <ele>1505.563</ele>
        <time>2021-07-17T08:42:30Z</time>
      </trkpt>
      <trkpt lat="42.489191" lon="-6.361473">
        <ele>1510.840</ele>
        <time>2021-07-17T08:42:50Z</time>
      </trkpt>
      <trkpt lat="42.489165" lon="-6.361489">
        <ele>1514.638</ele>
        <time>2021-07-17T08:43:12Z</time>
      </trkpt>
      <trkpt lat="42.489164" lon="-6.361505">
        <ele>1516.666</ele>
        <time>2021-07-17T08:43:31Z</time>
      </trkpt>
      <trkpt lat="42.489176" lon="-6.361498">
        <ele>1515.629</ele>
        <time>2021-07-17T08:43:47Z</time>
      </trkpt>
      <trkpt lat="42.489183" lon="-6.361500">
        <ele>1515.121</ele>
        <time>2021-07-17T08:44:00Z</time>
      </trkpt>
      <trkpt lat="42.489172" lon="-6.361506">
        <ele>1514.208</ele>
        <time>2021-07-17T08:44:14Z</time>
      </trkpt>
      <trkpt lat="42.489153" lon="-6.361529">
        <ele>1517.573</ele>
        <time>2021-07-17T08:44:31Z</time>
      </trkpt>
      <trkpt lat="42.489162" lon="-6.361537">
        <ele>1513.785</ele>
        <time>2021-07-17T08:44:50Z</time>
      </trkpt>
      <trkpt lat="42.489134" lon="-6.361520">
        <ele>1516.172</ele>
        <time>2021-07-17T08:45:19Z</time>
      </trkpt>
      <trkpt lat="42.489147" lon="-6.361500">
        <ele>1515.132</ele>
        <time>2021-07-17T08:45:39Z</time>
      </trkpt>
      <trkpt lat="42.489167" lon="-6.361507">
        <ele>1512.216</ele>
        <time>2021-07-17T08:46:00Z</time>
      </trkpt>
      <trkpt lat="42.489157" lon="-6.361502">
        <ele>1513.234</ele>
        <time>2021-07-17T08:46:20Z</time>
      </trkpt>
      <trkpt lat="42.489176" lon="-6.361511">
        <ele>1511.371</ele>
        <time>2021-07-17T08:46:45Z</time>
      </trkpt>
      <trkpt lat="42.489182" lon="-6.361494">
        <ele>1514.699</ele>
        <time>2021-07-17T08:47:10Z</time>
      </trkpt>
      <trkpt lat="42.489170" lon="-6.361484">
        <ele>1516.657</ele>
        <time>2021-07-17T08:47:39Z</time>
      </trkpt>
      <trkpt lat="42.489174" lon="-6.361487">
        <ele>1517.500</ele>
        <time>2021-07-17T08:48:08Z</time>
      </trkpt>
      <trkpt lat="42.489160" lon="-6.361549">
        <ele>1519.520</ele>
        <time>2021-07-17T08:48:38Z</time>
      </trkpt>
      <trkpt lat="42.489154" lon="-6.361540">
        <ele>1513.708</ele>
        <time>2021-07-17T08:49:04Z</time>
      </trkpt>
      <trkpt lat="42.489136" lon="-6.361556">
        <ele>1512.292</ele>
        <time>2021-07-17T08:49:30Z</time>
      </trkpt>
      <trkpt lat="42.489145" lon="-6.361560">
        <ele>1514.214</ele>
        <time>2021-07-17T08:49:54Z</time>
      </trkpt>
      <trkpt lat="42.489161" lon="-6.361535">
        <ele>1512.231</ele>
        <time>2021-07-17T08:50:16Z</time>
      </trkpt>
      <trkpt lat="42.489155" lon="-6.361539">
        <ele>1510.821</ele>
        <time>2021-07-17T08:50:37Z</time>
      </trkpt>
      <trkpt lat="42.489153" lon="-6.361547">
        <ele>1513.225</ele>
        <time>2021-07-17T08:50:59Z</time>
      </trkpt>
      <trkpt lat="42.489134" lon="-6.361553">
        <ele>1511.313</ele>
        <time>2021-07-17T08:51:21Z</time>
      </trkpt>
      <trkpt lat="42.489121" lon="-6.361559">
        <ele>1514.660</ele>
        <time>2021-07-17T08:51:45Z</time>
      </trkpt>
      <trkpt lat="42.489132" lon="-6.361565">
        <ele>1513.218</ele>
        <time>2021-07-17T08:52:08Z</time>
      </trkpt>
      <trkpt lat="42.489137" lon="-6.361538">
        <ele>1514.256</ele>
        <time>2021-07-17T08:52:33Z</time>
      </trkpt>
      <trkpt lat="42.489149" lon="-6.361523">
        <ele>1511.859</ele>
        <time>2021-07-17T08:53:02Z</time>
      </trkpt>
      <trkpt lat="42.489137" lon="-6.361552">
        <ele>1511.814</ele>
        <time>2021-07-17T08:53:21Z</time>
      </trkpt>
      <trkpt lat="42.489134" lon="-6.361583">
        <ele>1512.708</ele>
        <time>2021-07-17T08:53:35Z</time>
      </trkpt>
      <trkpt lat="42.489125" lon="-6.361568">
        <ele>1513.752</ele>
        <time>2021-07-17T08:53:52Z</time>
      </trkpt>
      <trkpt lat="42.489145" lon="-6.361527">
        <ele>1513.244</ele>
        <time>2021-07-17T08:54:15Z</time>
      </trkpt>
      <trkpt lat="42.489166" lon="-6.361533">
        <ele>1513.291</ele>
        <time>2021-07-17T08:54:42Z</time>
      </trkpt>
      <trkpt lat="42.489164" lon="-6.361538">
        <ele>1510.341</ele>
        <time>2021-07-17T08:55:09Z</time>
      </trkpt>
      <trkpt lat="42.489159" lon="-6.361522">
        <ele>1508.425</ele>
        <time>2021-07-17T08:55:35Z</time>
      </trkpt>
      <trkpt lat="42.489153" lon="-6.361540">
        <ele>1506.543</ele>
        <time>2021-07-17T08:55:52Z</time>
      </trkpt>
      <trkpt lat="42.489174" lon="-6.361514">
        <ele>1511.840</ele>
        <time>2021-07-17T08:56:21Z</time>
      </trkpt>
      <trkpt lat="42.489169" lon="-6.361531">
        <ele>1510.398</ele>
        <time>2021-07-17T08:56:39Z</time>
      </trkpt>
      <trkpt lat="42.489157" lon="-6.361559">
        <ele>1509.844</ele>
        <time>2021-07-17T08:57:08Z</time>
      </trkpt>
      <trkpt lat="42.489154" lon="-6.361556">
        <ele>1509.805</ele>
        <time>2021-07-17T08:57:39Z</time>
      </trkpt>
      <trkpt lat="42.489144" lon="-6.361560">
        <ele>1510.315</ele>
        <time>2021-07-17T08:57:57Z</time>
      </trkpt>
      <trkpt lat="42.489170" lon="-6.361511">
        <ele>1509.408</ele>
        <time>2021-07-17T08:58:26Z</time>
      </trkpt>
      <trkpt lat="42.489123" lon="-6.361577">
        <ele>1507.961</ele>
        <time>2021-07-17T08:58:52Z</time>
      </trkpt>
      <trkpt lat="42.489118" lon="-6.361559">
        <ele>1508.443</ele>
        <time>2021-07-17T08:59:18Z</time>
      </trkpt>
      <trkpt lat="42.489142" lon="-6.361538">
        <ele>1510.380</ele>
        <time>2021-07-17T08:59:39Z</time>
      </trkpt>
      <trkpt lat="42.489146" lon="-6.361543">
        <ele>1508.440</ele>
        <time>2021-07-17T09:00:03Z</time>
      </trkpt>
      <trkpt lat="42.489139" lon="-6.361540">
        <ele>1509.424</ele>
        <time>2021-07-17T09:00:31Z</time>
      </trkpt>
      <trkpt lat="42.489144" lon="-6.361523">
        <ele>1514.252</ele>
        <time>2021-07-17T09:01:01Z</time>
      </trkpt>
      <trkpt lat="42.489172" lon="-6.361519">
        <ele>1513.779</ele>
        <time>2021-07-17T09:01:23Z</time>
      </trkpt>
      <trkpt lat="42.489182" lon="-6.361508">
        <ele>1509.447</ele>
        <time>2021-07-17T09:01:49Z</time>
      </trkpt>
      <trkpt lat="42.489175" lon="-6.361523">
        <ele>1510.882</ele>
        <time>2021-07-17T09:02:16Z</time>
      </trkpt>
      <trkpt lat="42.489171" lon="-6.361533">
        <ele>1507.443</ele>
        <time>2021-07-17T09:02:43Z</time>
      </trkpt>
      <trkpt lat="42.489173" lon="-6.361525">
        <ele>1505.017</ele>
        <time>2021-07-17T09:03:03Z</time>
      </trkpt>
      <trkpt lat="42.489194" lon="-6.361518">
        <ele>1504.108</ele>
        <time>2021-07-17T09:03:22Z</time>
      </trkpt>
      <trkpt lat="42.489199" lon="-6.361507">
        <ele>1504.165</ele>
        <time>2021-07-17T09:03:40Z</time>
      </trkpt>
      <trkpt lat="42.489196" lon="-6.361490">
        <ele>1506.567</ele>
        <time>2021-07-17T09:03:56Z</time>
      </trkpt>
      <trkpt lat="42.489191" lon="-6.361493">
        <ele>1507.424</ele>
        <time>2021-07-17T09:04:17Z</time>
      </trkpt>
      <trkpt lat="42.489183" lon="-6.361526">
        <ele>1506.074</ele>
        <time>2021-07-17T09:04:38Z</time>
      </trkpt>
      <trkpt lat="42.489175" lon="-6.361517">
        <ele>1505.598</ele>
        <time>2021-07-17T09:04:56Z</time>
      </trkpt>
      <trkpt lat="42.489166" lon="-6.361531">
        <ele>1505.576</ele>
        <time>2021-07-17T09:05:19Z</time>
      </trkpt>
      <trkpt lat="42.489156" lon="-6.361574">
        <ele>1507.933</ele>
        <time>2021-07-17T09:05:40Z</time>
      </trkpt>
      <trkpt lat="42.489147" lon="-6.361532">
        <ele>1507.011</ele>
        <time>2021-07-17T09:06:02Z</time>
      </trkpt>
      <trkpt lat="42.489158" lon="-6.361497">
        <ele>1507.446</ele>
        <time>2021-07-17T09:06:25Z</time>
      </trkpt>
      <trkpt lat="42.489151" lon="-6.361518">
        <ele>1507.988</ele>
        <time>2021-07-17T09:06:45Z</time>
      </trkpt>
      <trkpt lat="42.489147" lon="-6.361538">
        <ele>1507.416</ele>
        <time>2021-07-17T09:07:14Z</time>
      </trkpt>
      <trkpt lat="42.489188" lon="-6.361535">
        <ele>1505.508</ele>
        <time>2021-07-17T09:07:38Z</time>
      </trkpt>
      <trkpt lat="42.489168" lon="-6.361528">
        <ele>1509.431</ele>
        <time>2021-07-17T09:08:05Z</time>
      </trkpt>
      <trkpt lat="42.489168" lon="-6.361548">
        <ele>1509.813</ele>
        <time>2021-07-17T09:08:28Z</time>
      </trkpt>
      <trkpt lat="42.489148" lon="-6.361555">
        <ele>1509.860</ele>
        <time>2021-07-17T09:08:56Z</time>
      </trkpt>
      <trkpt lat="42.489141" lon="-6.361538">
        <ele>1510.350</ele>
        <time>2021-07-17T09:09:11Z</time>
      </trkpt>
      <trkpt lat="42.489126" lon="-6.361527">
        <ele>1509.474</ele>
        <time>2021-07-17T09:09:18Z</time>
      </trkpt>
      <trkpt lat="42.489053" lon="-6.361611">
        <ele>1509.822</ele>
        <time>2021-07-17T09:09:29Z</time>
      </trkpt>
      <trkpt lat="42.488982" lon="-6.361676">
        <ele>1508.939</ele>
        <time>2021-07-17T09:09:37Z</time>
      </trkpt>
      <trkpt lat="42.488916" lon="-6.361774">
        <ele>1507.977</ele>
        <time>2021-07-17T09:09:46Z</time>
      </trkpt>
      <trkpt lat="42.488818" lon="-6.361842">
        <ele>1507.026</ele>
        <time>2021-07-17T09:09:54Z</time>
      </trkpt>
      <trkpt lat="42.488794" lon="-6.361853">
        <ele>1507.047</ele>
        <time>2021-07-17T09:09:56Z</time>
      </trkpt>
      <trkpt lat="42.488755" lon="-6.361808">
        <ele>1506.511</ele>
        <time>2021-07-17T09:10:00Z</time>
      </trkpt>
      <trkpt lat="42.488682" lon="-6.361639">
        <ele>1505.508</ele>
        <time>2021-07-17T09:10:11Z</time>
      </trkpt>
      <trkpt lat="42.488643" lon="-6.361563">
        <ele>1505.579</ele>
        <time>2021-07-17T09:10:17Z</time>
      </trkpt>
      <trkpt lat="42.488633" lon="-6.361532">
        <ele>1505.511</ele>
        <time>2021-07-17T09:10:24Z</time>
      </trkpt>
      <trkpt lat="42.488627" lon="-6.361530">
        <ele>1506.098</ele>
        <time>2021-07-17T09:10:33Z</time>
      </trkpt>
      <trkpt lat="42.488625" lon="-6.361546">
        <ele>1507.038</ele>
        <time>2021-07-17T09:10:45Z</time>
      </trkpt>
      <trkpt lat="42.488628" lon="-6.361536">
        <ele>1507.042</ele>
        <time>2021-07-17T09:10:49Z</time>
      </trkpt>
      <trkpt lat="42.488639" lon="-6.361523">
        <ele>1505.060</ele>
        <time>2021-07-17T09:10:55Z</time>
      </trkpt>
      <trkpt lat="42.488637" lon="-6.361534">
        <ele>1505.037</ele>
        <time>2021-07-17T09:11:04Z</time>
      </trkpt>
      <trkpt lat="42.488633" lon="-6.361531">
        <ele>1504.685</ele>
        <time>2021-07-17T09:11:16Z</time>
      </trkpt>
      <trkpt lat="42.488632" lon="-6.361537">
        <ele>1506.081</ele>
        <time>2021-07-17T09:11:27Z</time>
      </trkpt>
      <trkpt lat="42.488628" lon="-6.361539">
        <ele>1506.561</ele>
        <time>2021-07-17T09:11:38Z</time>
      </trkpt>
      <trkpt lat="42.488628" lon="-6.361548">
        <ele>1506.517</ele>
        <time>2021-07-17T09:11:54Z</time>
      </trkpt>
      <trkpt lat="42.488640" lon="-6.361542">
        <ele>1506.508</ele>
        <time>2021-07-17T09:12:06Z</time>
      </trkpt>
      <trkpt lat="42.488632" lon="-6.361538">
        <ele>1506.535</ele>
        <time>2021-07-17T09:12:20Z</time>
      </trkpt>
      <trkpt lat="42.488633" lon="-6.361528">
        <ele>1505.557</ele>
        <time>2021-07-17T09:12:32Z</time>
      </trkpt>
      <trkpt lat="42.488639" lon="-6.361539">
        <ele>1505.024</ele>
        <time>2021-07-17T09:12:46Z</time>
      </trkpt>
      <trkpt lat="42.488640" lon="-6.361531">
        <ele>1504.654</ele>
        <time>2021-07-17T09:13:00Z</time>
      </trkpt>
      <trkpt lat="42.488664" lon="-6.361482">
        <ele>1504.198</ele>
        <time>2021-07-17T09:13:07Z</time>
      </trkpt>
      <trkpt lat="42.488758" lon="-6.361286">
        <ele>1504.696</ele>
        <time>2021-07-17T09:13:14Z</time>
      </trkpt>
      <trkpt lat="42.488952" lon="-6.360985">
        <ele>1504.193</ele>
        <time>2021-07-17T09:13:22Z</time>
      </trkpt>
      <trkpt lat="42.489299" lon="-6.360467">
        <ele>1503.181</ele>
        <time>2021-07-17T09:13:34Z</time>
      </trkpt>
      <trkpt lat="42.489327" lon="-6.360424">
        <ele>1503.199</ele>
        <time>2021-07-17T09:13:35Z</time>
      </trkpt>
      <trkpt lat="42.489655" lon="-6.359986">
        <ele>1502.207</ele>
        <time>2021-07-17T09:13:44Z</time>
      </trkpt>
      <trkpt lat="42.489899" lon="-6.359576">
        <ele>1502.227</ele>
        <time>2021-07-17T09:13:51Z</time>
      </trkpt>
      <trkpt lat="42.490048" lon="-6.359245">
        <ele>1501.708</ele>
        <time>2021-07-17T09:13:57Z</time>
      </trkpt>
      <trkpt lat="42.490102" lon="-6.359068">
        <ele>1501.236</ele>
        <time>2021-07-17T09:14:00Z</time>
      </trkpt>
      <trkpt lat="42.490123" lon="-6.359011">
        <ele>1501.228</ele>
        <time>2021-07-17T09:14:01Z</time>
      </trkpt>
      <trkpt lat="42.490143" lon="-6.358955">
        <ele>1501.295</ele>
        <time>2021-07-17T09:14:02Z</time>
      </trkpt>
      <trkpt lat="42.490163" lon="-6.358899">
        <ele>1501.215</ele>
        <time>2021-07-17T09:14:03Z</time>
      </trkpt>
      <trkpt lat="42.490182" lon="-6.358841">
        <ele>1501.269</ele>
        <time>2021-07-17T09:14:04Z</time>
      </trkpt>
      <trkpt lat="42.490331" lon="-6.358453">
        <ele>1500.217</ele>
        <time>2021-07-17T09:14:12Z</time>
      </trkpt>
      <trkpt lat="42.490499" lon="-6.358015">
        <ele>1500.214</ele>
        <time>2021-07-17T09:14:21Z</time>
      </trkpt>
      <trkpt lat="42.490567" lon="-6.357592">
        <ele>1500.262</ele>
        <time>2021-07-17T09:14:29Z</time>
      </trkpt>
      <trkpt lat="42.490603" lon="-6.357014">
        <ele>1499.399</ele>
        <time>2021-07-17T09:14:40Z</time>
      </trkpt>
      <trkpt lat="42.490622" lon="-6.356496">
        <ele>1498.307</ele>
        <time>2021-07-17T09:14:50Z</time>
      </trkpt>
      <trkpt lat="42.490656" lon="-6.355955">
        <ele>1496.427</ele>
        <time>2021-07-17T09:14:59Z</time>
      </trkpt>
      <trkpt lat="42.490675" lon="-6.355804">
        <ele>1495.908</ele>
        <time>2021-07-17T09:15:01Z</time>
      </trkpt>
      <trkpt lat="42.490693" lon="-6.355727">
        <ele>1495.946</ele>
        <time>2021-07-17T09:15:02Z</time>
      </trkpt>
      <trkpt lat="42.490722" lon="-6.355651">
        <ele>1495.488</ele>
        <time>2021-07-17T09:15:03Z</time>
      </trkpt>
      <trkpt lat="42.490762" lon="-6.355578">
        <ele>1494.915</ele>
        <time>2021-07-17T09:15:04Z</time>
      </trkpt>
      <trkpt lat="42.490813" lon="-6.355506">
        <ele>1494.565</ele>
        <time>2021-07-17T09:15:05Z</time>
      </trkpt>
      <trkpt lat="42.490865" lon="-6.355444">
        <ele>1494.079</ele>
        <time>2021-07-17T09:15:06Z</time>
      </trkpt>
      <trkpt lat="42.491306" lon="-6.354958">
        <ele>1492.117</ele>
        <time>2021-07-17T09:15:13Z</time>
      </trkpt>
      <trkpt lat="42.491522" lon="-6.354734">
        <ele>1491.124</ele>
        <time>2021-07-17T09:15:16Z</time>
      </trkpt>
      <trkpt lat="42.491576" lon="-6.354642">
        <ele>1491.152</ele>
        <time>2021-07-17T09:15:17Z</time>
      </trkpt>
      <trkpt lat="42.491615" lon="-6.354537">
        <ele>1491.645</ele>
        <time>2021-07-17T09:15:18Z</time>
      </trkpt>
      <trkpt lat="42.491635" lon="-6.354445">
        <ele>1492.147</ele>
        <time>2021-07-17T09:15:19Z</time>
      </trkpt>
      <trkpt lat="42.491650" lon="-6.354348">
        <ele>1492.511</ele>
        <time>2021-07-17T09:15:20Z</time>
      </trkpt>
      <trkpt lat="42.491678" lon="-6.354033">
        <ele>1495.408</ele>
        <time>2021-07-17T09:15:25Z</time>
      </trkpt>
      <trkpt lat="42.491695" lon="-6.353809">
        <ele>1496.931</ele>
        <time>2021-07-17T09:15:31Z</time>
      </trkpt>
      <trkpt lat="42.491727" lon="-6.353585">
        <ele>1498.333</ele>
        <time>2021-07-17T09:15:39Z</time>
      </trkpt>
      <trkpt lat="42.491797" lon="-6.353358">
        <ele>1499.710</ele>
        <time>2021-07-17T09:15:47Z</time>
      </trkpt>
      <trkpt lat="42.491895" lon="-6.353139">
        <ele>1500.780</ele>
        <time>2021-07-17T09:15:55Z</time>
      </trkpt>
      <trkpt lat="42.492029" lon="-6.352861">
        <ele>1502.294</ele>
        <time>2021-07-17T09:16:05Z</time>
      </trkpt>
      <trkpt lat="42.492207" lon="-6.352505">
        <ele>1503.122</ele>
        <time>2021-07-17T09:16:16Z</time>
      </trkpt>
      <trkpt lat="42.492402" lon="-6.352133">
        <ele>1504.619</ele>
        <time>2021-07-17T09:16:28Z</time>
      </trkpt>
      <trkpt lat="42.492543" lon="-6.351865">
        <ele>1504.657</ele>
        <time>2021-07-17T09:16:36Z</time>
      </trkpt>
      <trkpt lat="42.492725" lon="-6.351595">
        <ele>1505.076</ele>
        <time>2021-07-17T09:16:45Z</time>
      </trkpt>
      <trkpt lat="42.492956" lon="-6.351272">
        <ele>1506.590</ele>
        <time>2021-07-17T09:16:56Z</time>
      </trkpt>
      <trkpt lat="42.493165" lon="-6.351011">
        <ele>1507.419</ele>
        <time>2021-07-17T09:17:06Z</time>
      </trkpt>
      <trkpt lat="42.493352" lon="-6.350777">
        <ele>1507.908</ele>
        <time>2021-07-17T09:17:15Z</time>
      </trkpt>
      <trkpt lat="42.493532" lon="-6.350572">
        <ele>1507.954</ele>
        <time>2021-07-17T09:17:23Z</time>
      </trkpt>
      <trkpt lat="42.493756" lon="-6.350364">
        <ele>1507.926</ele>
        <time>2021-07-17T09:17:33Z</time>
      </trkpt>
      <trkpt lat="42.494035" lon="-6.350200">
        <ele>1507.053</ele>
        <time>2021-07-17T09:17:43Z</time>
      </trkpt>
      <trkpt lat="42.494333" lon="-6.350075">
        <ele>1505.063</ele>
        <time>2021-07-17T09:17:50Z</time>
      </trkpt>
      <trkpt lat="42.494394" lon="-6.350044">
        <ele>1504.687</ele>
        <time>2021-07-17T09:17:51Z</time>
      </trkpt>
      <trkpt lat="42.494445" lon="-6.350007">
        <ele>1504.155</ele>
        <time>2021-07-17T09:17:52Z</time>
      </trkpt>
      <trkpt lat="42.494504" lon="-6.349950">
        <ele>1503.612</ele>
        <time>2021-07-17T09:17:53Z</time>
      </trkpt>
      <trkpt lat="42.494551" lon="-6.349880">
        <ele>1503.690</ele>
        <time>2021-07-17T09:17:54Z</time>
      </trkpt>
      <trkpt lat="42.494586" lon="-6.349793">
        <ele>1503.113</ele>
        <time>2021-07-17T09:17:55Z</time>
      </trkpt>
      <trkpt lat="42.494608" lon="-6.349695">
        <ele>1503.143</ele>
        <time>2021-07-17T09:17:56Z</time>
      </trkpt>
      <trkpt lat="42.494623" lon="-6.349602">
        <ele>1502.607</ele>
        <time>2021-07-17T09:17:57Z</time>
      </trkpt>
      <trkpt lat="42.494713" lon="-6.348949">
        <ele>1499.708</ele>
        <time>2021-07-17T09:18:04Z</time>
      </trkpt>
      <trkpt lat="42.494816" lon="-6.348272">
        <ele>1495.948</ele>
        <time>2021-07-17T09:18:10Z</time>
      </trkpt>
      <trkpt lat="42.494904" lon="-6.347645">
        <ele>1493.010</ele>
        <time>2021-07-17T09:18:16Z</time>
      </trkpt>
      <trkpt lat="42.495043" lon="-6.346858">
        <ele>1488.297</ele>
        <time>2021-07-17T09:18:22Z</time>
      </trkpt>
      <trkpt lat="42.495289" lon="-6.345690">
        <ele>1480.527</ele>
        <time>2021-07-17T09:18:30Z</time>
      </trkpt>
      <trkpt lat="42.495479" lon="-6.344724">
        <ele>1472.851</ele>
        <time>2021-07-17T09:18:36Z</time>
      </trkpt>
      <trkpt lat="42.495536" lon="-6.344274">
        <ele>1469.029</ele>
        <time>2021-07-17T09:18:39Z</time>
      </trkpt>
      <trkpt lat="42.495533" lon="-6.344132">
        <ele>1467.556</ele>
        <time>2021-07-17T09:18:40Z</time>
      </trkpt>
      <trkpt lat="42.495518" lon="-6.344000">
        <ele>1466.634</ele>
        <time>2021-07-17T09:18:41Z</time>
      </trkpt>
      <trkpt lat="42.495494" lon="-6.343880">
        <ele>1465.686</ele>
        <time>2021-07-17T09:18:42Z</time>
      </trkpt>
      <trkpt lat="42.495466" lon="-6.343766">
        <ele>1464.760</ele>
        <time>2021-07-17T09:18:43Z</time>
      </trkpt>
      <trkpt lat="42.495435" lon="-6.343655">
        <ele>1463.726</ele>
        <time>2021-07-17T09:18:44Z</time>
      </trkpt>
      <trkpt lat="42.495162" lon="-6.342797">
        <ele>1457.008</ele>
        <time>2021-07-17T09:18:51Z</time>
      </trkpt>
      <trkpt lat="42.494876" lon="-6.342187">
        <ele>1451.775</ele>
        <time>2021-07-17T09:18:56Z</time>
      </trkpt>
      <trkpt lat="42.494689" lon="-6.341889">
        <ele>1448.887</ele>
        <time>2021-07-17T09:18:59Z</time>
      </trkpt>
      <trkpt lat="42.494619" lon="-6.341826">
        <ele>1447.844</ele>
        <time>2021-07-17T09:19:00Z</time>
      </trkpt>
      <trkpt lat="42.494544" lon="-6.341785">
        <ele>1447.464</ele>
        <time>2021-07-17T09:19:01Z</time>
      </trkpt>
      <trkpt lat="42.494057" lon="-6.341604">
        <ele>1445.418</ele>
        <time>2021-07-17T09:19:07Z</time>
      </trkpt>
      <trkpt lat="42.493971" lon="-6.341602">
        <ele>1445.026</ele>
        <time>2021-07-17T09:19:08Z</time>
      </trkpt>
      <trkpt lat="42.493885" lon="-6.341616">
        <ele>1444.563</ele>
        <time>2021-07-17T09:19:09Z</time>
      </trkpt>
      <trkpt lat="42.493803" lon="-6.341648">
        <ele>1444.581</ele>
        <time>2021-07-17T09:19:10Z</time>
      </trkpt>
      <trkpt lat="42.493722" lon="-6.341688">
        <ele>1444.058</ele>
        <time>2021-07-17T09:19:11Z</time>
      </trkpt>
      <trkpt lat="42.493147" lon="-6.341986">
        <ele>1440.652</ele>
        <time>2021-07-17T09:19:18Z</time>
      </trkpt>
      <trkpt lat="42.493057" lon="-6.342002">
        <ele>1440.117</ele>
        <time>2021-07-17T09:19:19Z</time>
      </trkpt>
      <trkpt lat="42.492969" lon="-6.342006">
        <ele>1439.208</ele>
        <time>2021-07-17T09:19:20Z</time>
      </trkpt>
      <trkpt lat="42.492318" lon="-6.341951">
        <ele>1434.482</ele>
        <time>2021-07-17T09:19:27Z</time>
      </trkpt>
      <trkpt lat="42.491715" lon="-6.341892">
        <ele>1430.134</ele>
        <time>2021-07-17T09:19:33Z</time>
      </trkpt>
      <trkpt lat="42.491639" lon="-6.341870">
        <ele>1429.141</ele>
        <time>2021-07-17T09:19:34Z</time>
      </trkpt>
      <trkpt lat="42.491566" lon="-6.341826">
        <ele>1428.671</ele>
        <time>2021-07-17T09:19:35Z</time>
      </trkpt>
      <trkpt lat="42.491489" lon="-6.341737">
        <ele>1427.735</ele>
        <time>2021-07-17T09:19:36Z</time>
      </trkpt>
      <trkpt lat="42.491450" lon="-6.341661">
        <ele>1426.723</ele>
        <time>2021-07-17T09:19:37Z</time>
      </trkpt>
      <trkpt lat="42.491408" lon="-6.341552">
        <ele>1426.290</ele>
        <time>2021-07-17T09:19:38Z</time>
      </trkpt>
      <trkpt lat="42.491374" lon="-6.341432">
        <ele>1425.258</ele>
        <time>2021-07-17T09:19:39Z</time>
      </trkpt>
      <trkpt lat="42.491345" lon="-6.341311">
        <ele>1424.876</ele>
        <time>2021-07-17T09:19:40Z</time>
      </trkpt>
      <trkpt lat="42.491203" lon="-6.340680">
        <ele>1421.490</ele>
        <time>2021-07-17T09:19:46Z</time>
      </trkpt>
      <trkpt lat="42.490990" lon="-6.339755">
        <ele>1418.019</ele>
        <time>2021-07-17T09:19:55Z</time>
      </trkpt>
      <trkpt lat="42.490753" lon="-6.338753">
        <ele>1413.708</ele>
        <time>2021-07-17T09:20:04Z</time>
      </trkpt>
      <trkpt lat="42.490615" lon="-6.338089">
        <ele>1410.814</ele>
        <time>2021-07-17T09:20:10Z</time>
      </trkpt>
      <trkpt lat="42.490544" lon="-6.337226">
        <ele>1406.586</ele>
        <time>2021-07-17T09:20:17Z</time>
      </trkpt>
      <trkpt lat="42.490581" lon="-6.336523">
        <ele>1402.773</ele>
        <time>2021-07-17T09:20:22Z</time>
      </trkpt>
      <trkpt lat="42.490807" lon="-6.335656">
        <ele>1399.843</ele>
        <time>2021-07-17T09:20:28Z</time>
      </trkpt>
      <trkpt lat="42.490864" lon="-6.335534">
        <ele>1399.347</ele>
        <time>2021-07-17T09:20:29Z</time>
      </trkpt>
      <trkpt lat="42.490932" lon="-6.335409">
        <ele>1398.835</ele>
        <time>2021-07-17T09:20:30Z</time>
      </trkpt>
      <trkpt lat="42.491276" lon="-6.334844">
        <ele>1396.412</ele>
        <time>2021-07-17T09:20:35Z</time>
      </trkpt>
      <trkpt lat="42.491318" lon="-6.334729">
        <ele>1395.970</ele>
        <time>2021-07-17T09:20:36Z</time>
      </trkpt>
      <trkpt lat="42.491342" lon="-6.334609">
        <ele>1395.482</ele>
        <time>2021-07-17T09:20:37Z</time>
      </trkpt>
      <trkpt lat="42.491343" lon="-6.334478">
        <ele>1395.043</ele>
        <time>2021-07-17T09:20:38Z</time>
      </trkpt>
      <trkpt lat="42.491320" lon="-6.334357">
        <ele>1394.517</ele>
        <time>2021-07-17T09:20:39Z</time>
      </trkpt>
      <trkpt lat="42.491282" lon="-6.334241">
        <ele>1394.008</ele>
        <time>2021-07-17T09:20:40Z</time>
      </trkpt>
      <trkpt lat="42.491230" lon="-6.334127">
        <ele>1393.525</ele>
        <time>2021-07-17T09:20:41Z</time>
      </trkpt>
      <trkpt lat="42.491173" lon="-6.334024">
        <ele>1393.077</ele>
        <time>2021-07-17T09:20:42Z</time>
      </trkpt>
      <trkpt lat="42.491101" lon="-6.333928">
        <ele>1392.614</ele>
        <time>2021-07-17T09:20:43Z</time>
      </trkpt>
      <trkpt lat="42.491022" lon="-6.333853">
        <ele>1392.134</ele>
        <time>2021-07-17T09:20:44Z</time>
      </trkpt>
      <trkpt lat="42.490936" lon="-6.333787">
        <ele>1391.638</ele>
        <time>2021-07-17T09:20:45Z</time>
      </trkpt>
      <trkpt lat="42.490409" lon="-6.333396">
        <ele>1388.266</ele>
        <time>2021-07-17T09:20:51Z</time>
      </trkpt>
      <trkpt lat="42.490332" lon="-6.333323">
        <ele>1387.813</ele>
        <time>2021-07-17T09:20:52Z</time>
      </trkpt>
      <trkpt lat="42.490257" lon="-6.333239">
        <ele>1387.371</ele>
        <time>2021-07-17T09:20:53Z</time>
      </trkpt>
      <trkpt lat="42.489798" lon="-6.332564">
        <ele>1382.986</ele>
        <time>2021-07-17T09:21:00Z</time>
      </trkpt>
      <trkpt lat="42.489280" lon="-6.331742">
        <ele>1377.760</ele>
        <time>2021-07-17T09:21:08Z</time>
      </trkpt>
      <trkpt lat="42.489091" lon="-6.331258">
        <ele>1375.326</ele>
        <time>2021-07-17T09:21:12Z</time>
      </trkpt>
      <trkpt lat="42.489061" lon="-6.331124">
        <ele>1374.308</ele>
        <time>2021-07-17T09:21:13Z</time>
      </trkpt>
      <trkpt lat="42.489040" lon="-6.330983">
        <ele>1373.845</ele>
        <time>2021-07-17T09:21:14Z</time>
      </trkpt>
      <trkpt lat="42.489028" lon="-6.330836">
        <ele>1372.987</ele>
        <time>2021-07-17T09:21:15Z</time>
      </trkpt>
      <trkpt lat="42.489022" lon="-6.330697">
        <ele>1371.954</ele>
        <time>2021-07-17T09:21:16Z</time>
      </trkpt>
      <trkpt lat="42.489049" lon="-6.329673">
        <ele>1367.644</ele>
        <time>2021-07-17T09:21:23Z</time>
      </trkpt>
      <trkpt lat="42.489075" lon="-6.329235">
        <ele>1365.638</ele>
        <time>2021-07-17T09:21:26Z</time>
      </trkpt>
      <trkpt lat="42.489101" lon="-6.329095">
        <ele>1365.236</ele>
        <time>2021-07-17T09:21:27Z</time>
      </trkpt>
      <trkpt lat="42.489142" lon="-6.328955">
        <ele>1364.243</ele>
        <time>2021-07-17T09:21:28Z</time>
      </trkpt>
      <trkpt lat="42.489192" lon="-6.328824">
        <ele>1363.721</ele>
        <time>2021-07-17T09:21:29Z</time>
      </trkpt>
      <trkpt lat="42.489253" lon="-6.328693">
        <ele>1362.814</ele>
        <time>2021-07-17T09:21:30Z</time>
      </trkpt>
      <trkpt lat="42.489327" lon="-6.328562">
        <ele>1361.854</ele>
        <time>2021-07-17T09:21:31Z</time>
      </trkpt>
      <trkpt lat="42.489403" lon="-6.328442">
        <ele>1360.809</ele>
        <time>2021-07-17T09:21:32Z</time>
      </trkpt>
      <trkpt lat="42.489708" lon="-6.327973">
        <ele>1357.508</ele>
        <time>2021-07-17T09:21:36Z</time>
      </trkpt>
      <trkpt lat="42.489791" lon="-6.327891">
        <ele>1356.598</ele>
        <time>2021-07-17T09:21:37Z</time>
      </trkpt>
      <trkpt lat="42.489887" lon="-6.327821">
        <ele>1355.680</ele>
        <time>2021-07-17T09:21:38Z</time>
      </trkpt>
      <trkpt lat="42.490625" lon="-6.327344">
        <ele>1350.377</ele>
        <time>2021-07-17T09:21:45Z</time>
      </trkpt>
      <trkpt lat="42.491032" lon="-6.327046">
        <ele>1348.827</ele>
        <time>2021-07-17T09:21:49Z</time>
      </trkpt>
      <trkpt lat="42.491113" lon="-6.326952">
        <ele>1348.371</ele>
        <time>2021-07-17T09:21:50Z</time>
      </trkpt>
      <trkpt lat="42.491181" lon="-6.326843">
        <ele>1348.349</ele>
        <time>2021-07-17T09:21:51Z</time>
      </trkpt>
      <trkpt lat="42.491235" lon="-6.326719">
        <ele>1348.356</ele>
        <time>2021-07-17T09:21:52Z</time>
      </trkpt>
      <trkpt lat="42.491270" lon="-6.326597">
        <ele>1347.944</ele>
        <time>2021-07-17T09:21:53Z</time>
      </trkpt>
      <trkpt lat="42.491284" lon="-6.326458">
        <ele>1347.459</ele>
        <time>2021-07-17T09:21:54Z</time>
      </trkpt>
      <trkpt lat="42.491276" lon="-6.326328">
        <ele>1346.903</ele>
        <time>2021-07-17T09:21:55Z</time>
      </trkpt>
      <trkpt lat="42.491252" lon="-6.326196">
        <ele>1346.423</ele>
        <time>2021-07-17T09:21:56Z</time>
      </trkpt>
      <trkpt lat="42.491223" lon="-6.326065">
        <ele>1345.908</ele>
        <time>2021-07-17T09:21:57Z</time>
      </trkpt>
      <trkpt lat="42.490921" lon="-6.324791">
        <ele>1342.632</ele>
        <time>2021-07-17T09:22:07Z</time>
      </trkpt>
      <trkpt lat="42.490639" lon="-6.323708">
        <ele>1340.784</ele>
        <time>2021-07-17T09:22:16Z</time>
      </trkpt>
      <trkpt lat="42.490589" lon="-6.323613">
        <ele>1340.281</ele>
        <time>2021-07-17T09:22:17Z</time>
      </trkpt>
      <trkpt lat="42.490530" lon="-6.323519">
        <ele>1340.291</ele>
        <time>2021-07-17T09:22:18Z</time>
      </trkpt>
      <trkpt lat="42.490467" lon="-6.323432">
        <ele>1339.715</ele>
        <time>2021-07-17T09:22:19Z</time>
      </trkpt>
      <trkpt lat="42.490404" lon="-6.323352">
        <ele>1339.273</ele>
        <time>2021-07-17T09:22:20Z</time>
      </trkpt>
      <trkpt lat="42.489967" lon="-6.322770">
        <ele>1335.480</ele>
        <time>2021-07-17T09:22:27Z</time>
      </trkpt>
      <trkpt lat="42.489713" lon="-6.322403">
        <ele>1333.048</ele>
        <time>2021-07-17T09:22:31Z</time>
      </trkpt>
      <trkpt lat="42.489662" lon="-6.322298">
        <ele>1332.543</ele>
        <time>2021-07-17T09:22:32Z</time>
      </trkpt>
      <trkpt lat="42.489617" lon="-6.322184">
        <ele>1332.064</ele>
        <time>2021-07-17T09:22:33Z</time>
      </trkpt>
      <trkpt lat="42.489578" lon="-6.322065">
        <ele>1331.010</ele>
        <time>2021-07-17T09:22:34Z</time>
      </trkpt>
      <trkpt lat="42.489543" lon="-6.321941">
        <ele>1330.608</ele>
        <time>2021-07-17T09:22:35Z</time>
      </trkpt>
      <trkpt lat="42.489455" lon="-6.321551">
        <ele>1328.651</ele>
        <time>2021-07-17T09:22:38Z</time>
      </trkpt>
      <trkpt lat="42.489443" lon="-6.321412">
        <ele>1328.283</ele>
        <time>2021-07-17T09:22:39Z</time>
      </trkpt>
      <trkpt lat="42.489440" lon="-6.321269">
        <ele>1327.210</ele>
        <time>2021-07-17T09:22:40Z</time>
      </trkpt>
      <trkpt lat="42.489504" lon="-6.320446">
        <ele>1323.890</ele>
        <time>2021-07-17T09:22:46Z</time>
      </trkpt>
      <trkpt lat="42.489536" lon="-6.320313">
        <ele>1323.374</ele>
        <time>2021-07-17T09:22:47Z</time>
      </trkpt>
      <trkpt lat="42.489787" lon="-6.319577">
        <ele>1319.012</ele>
        <time>2021-07-17T09:22:53Z</time>
      </trkpt>
      <trkpt lat="42.489810" lon="-6.319450">
        <ele>1318.149</ele>
        <time>2021-07-17T09:22:54Z</time>
      </trkpt>
      <trkpt lat="42.489810" lon="-6.319337">
        <ele>1317.657</ele>
        <time>2021-07-17T09:22:55Z</time>
      </trkpt>
      <trkpt lat="42.489785" lon="-6.319232">
        <ele>1317.159</ele>
        <time>2021-07-17T09:22:56Z</time>
      </trkpt>
      <trkpt lat="42.489736" lon="-6.319139">
        <ele>1316.603</ele>
        <time>2021-07-17T09:22:57Z</time>
      </trkpt>
      <trkpt lat="42.489672" lon="-6.319056">
        <ele>1316.123</ele>
        <time>2021-07-17T09:22:58Z</time>
      </trkpt>
      <trkpt lat="42.489599" lon="-6.318978">
        <ele>1315.708</ele>
        <time>2021-07-17T09:22:59Z</time>
      </trkpt>
      <trkpt lat="42.489520" lon="-6.318904">
        <ele>1314.712</ele>
        <time>2021-07-17T09:23:00Z</time>
      </trkpt>
      <trkpt lat="42.489021" lon="-6.318378">
        <ele>1309.464</ele>
        <time>2021-07-17T09:23:06Z</time>
      </trkpt>
      <trkpt lat="42.488429" lon="-6.317494">
        <ele>1303.621</ele>
        <time>2021-07-17T09:23:14Z</time>
      </trkpt>
      <trkpt lat="42.488368" lon="-6.317379">
        <ele>1302.771</ele>
        <time>2021-07-17T09:23:15Z</time>
      </trkpt>
      <trkpt lat="42.488314" lon="-6.317256">
        <ele>1302.225</ele>
        <time>2021-07-17T09:23:16Z</time>
      </trkpt>
      <trkpt lat="42.488267" lon="-6.317123">
        <ele>1301.713</ele>
        <time>2021-07-17T09:23:17Z</time>
      </trkpt>
      <trkpt lat="42.488230" lon="-6.316985">
        <ele>1301.280</ele>
        <time>2021-07-17T09:23:18Z</time>
      </trkpt>
      <trkpt lat="42.488197" lon="-6.316842">
        <ele>1300.848</ele>
        <time>2021-07-17T09:23:19Z</time>
      </trkpt>
      <trkpt lat="42.487963" lon="-6.315814">
        <ele>1296.911</ele>
        <time>2021-07-17T09:23:26Z</time>
      </trkpt>
      <trkpt lat="42.487911" lon="-6.315549">
        <ele>1295.921</ele>
        <time>2021-07-17T09:23:28Z</time>
      </trkpt>
      <trkpt lat="42.487902" lon="-6.315413">
        <ele>1295.503</ele>
        <time>2021-07-17T09:23:29Z</time>
      </trkpt>
      <trkpt lat="42.487910" lon="-6.315272">
        <ele>1295.008</ele>
        <time>2021-07-17T09:23:30Z</time>
      </trkpt>
      <trkpt lat="42.487929" lon="-6.315135">
        <ele>1294.088</ele>
        <time>2021-07-17T09:23:31Z</time>
      </trkpt>
      <trkpt lat="42.487957" lon="-6.314998">
        <ele>1293.550</ele>
        <time>2021-07-17T09:23:32Z</time>
      </trkpt>
      <trkpt lat="42.487997" lon="-6.314871">
        <ele>1292.627</ele>
        <time>2021-07-17T09:23:33Z</time>
      </trkpt>
      <trkpt lat="42.488050" lon="-6.314752">
        <ele>1292.137</ele>
        <time>2021-07-17T09:23:34Z</time>
      </trkpt>
      <trkpt lat="42.488106" lon="-6.314643">
        <ele>1291.671</ele>
        <time>2021-07-17T09:23:35Z</time>
      </trkpt>
      <trkpt lat="42.488156" lon="-6.314543">
        <ele>1290.789</ele>
        <time>2021-07-17T09:23:36Z</time>
      </trkpt>
      <trkpt lat="42.488190" lon="-6.314437">
        <ele>1290.266</ele>
        <time>2021-07-17T09:23:37Z</time>
      </trkpt>
      <trkpt lat="42.488200" lon="-6.314328">
        <ele>1289.744</ele>
        <time>2021-07-17T09:23:38Z</time>
      </trkpt>
      <trkpt lat="42.488186" lon="-6.314219">
        <ele>1288.753</ele>
        <time>2021-07-17T09:23:39Z</time>
      </trkpt>
      <trkpt lat="42.488145" lon="-6.314112">
        <ele>1288.304</ele>
        <time>2021-07-17T09:23:40Z</time>
      </trkpt>
      <trkpt lat="42.488094" lon="-6.314019">
        <ele>1287.814</ele>
        <time>2021-07-17T09:23:41Z</time>
      </trkpt>
      <trkpt lat="42.488035" lon="-6.313930">
        <ele>1287.308</ele>
        <time>2021-07-17T09:23:42Z</time>
      </trkpt>
      <trkpt lat="42.487968" lon="-6.313843">
        <ele>1286.862</ele>
        <time>2021-07-17T09:23:43Z</time>
      </trkpt>
      <trkpt lat="42.487892" lon="-6.313761">
        <ele>1286.314</ele>
        <time>2021-07-17T09:23:44Z</time>
      </trkpt>
      <trkpt lat="42.487814" lon="-6.313687">
        <ele>1285.931</ele>
        <time>2021-07-17T09:23:45Z</time>
      </trkpt>
      <trkpt lat="42.487214" lon="-6.313167">
        <ele>1282.061</ele>
        <time>2021-07-17T09:23:52Z</time>
      </trkpt>
      <trkpt lat="42.486739" lon="-6.312545">
        <ele>1278.285</ele>
        <time>2021-07-17T09:23:58Z</time>
      </trkpt>
      <trkpt lat="42.486241" lon="-6.311752">
        <ele>1273.483</ele>
        <time>2021-07-17T09:24:05Z</time>
      </trkpt>
      <trkpt lat="42.486193" lon="-6.311620">
        <ele>1272.950</ele>
        <time>2021-07-17T09:24:06Z</time>
      </trkpt>
      <trkpt lat="42.486151" lon="-6.311473">
        <ele>1271.978</ele>
        <time>2021-07-17T09:24:07Z</time>
      </trkpt>
      <trkpt lat="42.485995" lon="-6.310746">
        <ele>1268.632</ele>
        <time>2021-07-17T09:24:12Z</time>
      </trkpt>
      <trkpt lat="42.485983" lon="-6.310595">
        <ele>1268.192</ele>
        <time>2021-07-17T09:24:13Z</time>
      </trkpt>
      <trkpt lat="42.485982" lon="-6.310447">
        <ele>1267.611</ele>
        <time>2021-07-17T09:24:14Z</time>
      </trkpt>
      <trkpt lat="42.486047" lon="-6.309585">
        <ele>1263.308</ele>
        <time>2021-07-17T09:24:20Z</time>
      </trkpt>
      <trkpt lat="42.486069" lon="-6.309464">
        <ele>1262.880</ele>
        <time>2021-07-17T09:24:21Z</time>
      </trkpt>
      <trkpt lat="42.486101" lon="-6.309355">
        <ele>1262.352</ele>
        <time>2021-07-17T09:24:22Z</time>
      </trkpt>
      <trkpt lat="42.486146" lon="-6.309251">
        <ele>1261.859</ele>
        <time>2021-07-17T09:24:23Z</time>
      </trkpt>
      <trkpt lat="42.486206" lon="-6.309150">
        <ele>1261.349</ele>
        <time>2021-07-17T09:24:24Z</time>
      </trkpt>
      <trkpt lat="42.486271" lon="-6.309067">
        <ele>1260.993</ele>
        <time>2021-07-17T09:24:25Z</time>
      </trkpt>
      <trkpt lat="42.486342" lon="-6.308986">
        <ele>1260.921</ele>
        <time>2021-07-17T09:24:26Z</time>
      </trkpt>
      <trkpt lat="42.486750" lon="-6.308707">
        <ele>1258.948</ele>
        <time>2021-07-17T09:24:31Z</time>
      </trkpt>
      <trkpt lat="42.487188" lon="-6.308505">
        <ele>1256.116</ele>
        <time>2021-07-17T09:24:36Z</time>
      </trkpt>
      <trkpt lat="42.487256" lon="-6.308440">
        <ele>1255.628</ele>
        <time>2021-07-17T09:24:37Z</time>
      </trkpt>
      <trkpt lat="42.487311" lon="-6.308352">
        <ele>1255.189</ele>
        <time>2021-07-17T09:24:38Z</time>
      </trkpt>
      <trkpt lat="42.487352" lon="-6.308247">
        <ele>1255.117</ele>
        <time>2021-07-17T09:24:39Z</time>
      </trkpt>
      <trkpt lat="42.487383" lon="-6.308136">
        <ele>1254.108</ele>
        <time>2021-07-17T09:24:40Z</time>
      </trkpt>
      <trkpt lat="42.487409" lon="-6.308020">
        <ele>1253.729</ele>
        <time>2021-07-17T09:24:41Z</time>
      </trkpt>
      <trkpt lat="42.487520" lon="-6.307431">
        <ele>1251.221</ele>
        <time>2021-07-17T09:24:46Z</time>
      </trkpt>
      <trkpt lat="42.487520" lon="-6.307317">
        <ele>1250.838</ele>
        <time>2021-07-17T09:24:47Z</time>
      </trkpt>
      <trkpt lat="42.487510" lon="-6.307203">
        <ele>1250.388</ele>
        <time>2021-07-17T09:24:48Z</time>
      </trkpt>
      <trkpt lat="42.487492" lon="-6.307087">
        <ele>1249.842</ele>
        <time>2021-07-17T09:24:49Z</time>
      </trkpt>
      <trkpt lat="42.487472" lon="-6.306968">
        <ele>1248.870</ele>
        <time>2021-07-17T09:24:50Z</time>
      </trkpt>
      <trkpt lat="42.487309" lon="-6.306256">
        <ele>1246.427</ele>
        <time>2021-07-17T09:24:56Z</time>
      </trkpt>
      <trkpt lat="42.487262" lon="-6.306148">
        <ele>1246.025</ele>
        <time>2021-07-17T09:24:57Z</time>
      </trkpt>
      <trkpt lat="42.487204" lon="-6.306044">
        <ele>1245.584</ele>
        <time>2021-07-17T09:24:58Z</time>
      </trkpt>
      <trkpt lat="42.486607" lon="-6.305136">
        <ele>1240.707</ele>
        <time>2021-07-17T09:25:07Z</time>
      </trkpt>
      <trkpt lat="42.486489" lon="-6.304924">
        <ele>1239.717</ele>
        <time>2021-07-17T09:25:09Z</time>
      </trkpt>
      <trkpt lat="42.486437" lon="-6.304796">
        <ele>1239.208</ele>
        <time>2021-07-17T09:25:10Z</time>
      </trkpt>
      <trkpt lat="42.486087" lon="-6.303796">
        <ele>1234.495</ele>
        <time>2021-07-17T09:25:18Z</time>
      </trkpt>
      <trkpt lat="42.485670" lon="-6.302659">
        <ele>1226.757</ele>
        <time>2021-07-17T09:25:26Z</time>
      </trkpt>
      <trkpt lat="42.485287" lon="-6.301615">
        <ele>1220.094</ele>
        <time>2021-07-17T09:25:33Z</time>
      </trkpt>
      <trkpt lat="42.484913" lon="-6.300930">
        <ele>1215.724</ele>
        <time>2021-07-17T09:25:38Z</time>
      </trkpt>
      <trkpt lat="42.484289" lon="-6.299957">
        <ele>1209.458</ele>
        <time>2021-07-17T09:25:46Z</time>
      </trkpt>
      <trkpt lat="42.483596" lon="-6.298840">
        <ele>1203.256</ele>
        <time>2021-07-17T09:25:56Z</time>
      </trkpt>
      <trkpt lat="42.483110" lon="-6.298001">
        <ele>1198.463</ele>
        <time>2021-07-17T09:26:03Z</time>
      </trkpt>
      <trkpt lat="42.482668" lon="-6.296972">
        <ele>1192.611</ele>
        <time>2021-07-17T09:26:11Z</time>
      </trkpt>
      <trkpt lat="42.482312" lon="-6.296134">
        <ele>1187.325</ele>
        <time>2021-07-17T09:26:17Z</time>
      </trkpt>
      <trkpt lat="42.481697" lon="-6.294967">
        <ele>1180.626</ele>
        <time>2021-07-17T09:26:26Z</time>
      </trkpt>
      <trkpt lat="42.481276" lon="-6.294155">
        <ele>1177.708</ele>
        <time>2021-07-17T09:26:33Z</time>
      </trkpt>
      <trkpt lat="42.480772" lon="-6.293202">
        <ele>1174.808</ele>
        <time>2021-07-17T09:26:42Z</time>
      </trkpt>
      <trkpt lat="42.480562" lon="-6.292551">
        <ele>1172.999</ele>
        <time>2021-07-17T09:26:48Z</time>
      </trkpt>
      <trkpt lat="42.480460" lon="-6.292079">
        <ele>1171.031</ele>
        <time>2021-07-17T09:26:52Z</time>
      </trkpt>
      <trkpt lat="42.480451" lon="-6.291446">
        <ele>1168.188</ele>
        <time>2021-07-17T09:26:57Z</time>
      </trkpt>
      <trkpt lat="42.480577" lon="-6.290237">
        <ele>1163.318</ele>
        <time>2021-07-17T09:27:06Z</time>
      </trkpt>
      <trkpt lat="42.480686" lon="-6.289126">
        <ele>1159.062</ele>
        <time>2021-07-17T09:27:14Z</time>
      </trkpt>
      <trkpt lat="42.480799" lon="-6.288003">
        <ele>1156.640</ele>
        <time>2021-07-17T09:27:23Z</time>
      </trkpt>
      <trkpt lat="42.480912" lon="-6.287002">
        <ele>1155.657</ele>
        <time>2021-07-17T09:27:32Z</time>
      </trkpt>
      <trkpt lat="42.480974" lon="-6.286370">
        <ele>1155.135</ele>
        <time>2021-07-17T09:27:39Z</time>
      </trkpt>
      <trkpt lat="42.481043" lon="-6.285730">
        <ele>1155.168</ele>
        <time>2021-07-17T09:27:48Z</time>
      </trkpt>
      <trkpt lat="42.481088" lon="-6.285358">
        <ele>1154.242</ele>
        <time>2021-07-17T09:27:54Z</time>
      </trkpt>
      <trkpt lat="42.481105" lon="-6.285154">
        <ele>1154.226</ele>
        <time>2021-07-17T09:27:58Z</time>
      </trkpt>
      <trkpt lat="42.481099" lon="-6.285093">
        <ele>1153.708</ele>
        <time>2021-07-17T09:27:59Z</time>
      </trkpt>
      <trkpt lat="42.481087" lon="-6.285030">
        <ele>1153.713</ele>
        <time>2021-07-17T09:28:00Z</time>
      </trkpt>
      <trkpt lat="42.481053" lon="-6.284904">
        <ele>1153.225</ele>
        <time>2021-07-17T09:28:02Z</time>
      </trkpt>
      <trkpt lat="42.480962" lon="-6.284556">
        <ele>1151.392</ele>
        <time>2021-07-17T09:28:08Z</time>
      </trkpt>
      <trkpt lat="42.480886" lon="-6.284283">
        <ele>1150.322</ele>
        <time>2021-07-17T09:28:14Z</time>
      </trkpt>
      <trkpt lat="42.480860" lon="-6.284218">
        <ele>1149.836</ele>
        <time>2021-07-17T09:28:18Z</time>
      </trkpt>
      <trkpt lat="42.480857" lon="-6.284215">
        <ele>1151.384</ele>
        <time>2021-07-17T09:28:27Z</time>
      </trkpt>
      <trkpt lat="42.480855" lon="-6.284192">
        <ele>1151.321</ele>
        <time>2021-07-17T09:28:28Z</time>
      </trkpt>
      <trkpt lat="42.480813" lon="-6.283949">
        <ele>1150.399</ele>
        <time>2021-07-17T09:28:34Z</time>
      </trkpt>
      <trkpt lat="42.480735" lon="-6.283566">
        <ele>1147.967</ele>
        <time>2021-07-17T09:28:41Z</time>
      </trkpt>
      <trkpt lat="42.480657" lon="-6.283101">
        <ele>1145.581</ele>
        <time>2021-07-17T09:28:48Z</time>
      </trkpt>
      <trkpt lat="42.480569" lon="-6.282460">
        <ele>1143.119</ele>
        <time>2021-07-17T09:28:55Z</time>
      </trkpt>
      <trkpt lat="42.480497" lon="-6.281657">
        <ele>1138.808</ele>
        <time>2021-07-17T09:29:02Z</time>
      </trkpt>
      <trkpt lat="42.480456" lon="-6.280614">
        <ele>1134.013</ele>
        <time>2021-07-17T09:29:10Z</time>
      </trkpt>
      <trkpt lat="42.480438" lon="-6.279583">
        <ele>1129.265</ele>
        <time>2021-07-17T09:29:17Z</time>
      </trkpt>
      <trkpt lat="42.480419" lon="-6.279292">
        <ele>1128.212</ele>
        <time>2021-07-17T09:29:19Z</time>
      </trkpt>
      <trkpt lat="42.480397" lon="-6.279174">
        <ele>1127.762</ele>
        <time>2021-07-17T09:29:20Z</time>
      </trkpt>
      <trkpt lat="42.480366" lon="-6.279079">
        <ele>1127.726</ele>
        <time>2021-07-17T09:29:21Z</time>
      </trkpt>
      <trkpt lat="42.480333" lon="-6.279010">
        <ele>1127.714</ele>
        <time>2021-07-17T09:29:22Z</time>
      </trkpt>
      <trkpt lat="42.480300" lon="-6.278960">
        <ele>1127.791</ele>
        <time>2021-07-17T09:29:23Z</time>
      </trkpt>
      <trkpt lat="42.480278" lon="-6.278928">
        <ele>1127.759</ele>
        <time>2021-07-17T09:29:24Z</time>
      </trkpt>
      <trkpt lat="42.480259" lon="-6.278895">
        <ele>1127.759</ele>
        <time>2021-07-17T09:29:25Z</time>
      </trkpt>
      <trkpt lat="42.480229" lon="-6.278701">
        <ele>1128.203</ele>
        <time>2021-07-17T09:29:31Z</time>
      </trkpt>
      <trkpt lat="42.480206" lon="-6.278530">
        <ele>1128.723</ele>
        <time>2021-07-17T09:29:38Z</time>
      </trkpt>
      <trkpt lat="42.480159" lon="-6.278329">
        <ele>1129.208</ele>
        <time>2021-07-17T09:29:44Z</time>
      </trkpt>
      <trkpt lat="42.480081" lon="-6.277938">
        <ele>1129.222</ele>
        <time>2021-07-17T09:29:52Z</time>
      </trkpt>
      <trkpt lat="42.479996" lon="-6.277524">
        <ele>1128.744</ele>
        <time>2021-07-17T09:30:02Z</time>
      </trkpt>
      <trkpt lat="42.479919" lon="-6.277106">
        <ele>1128.261</ele>
        <time>2021-07-17T09:30:12Z</time>
      </trkpt>
      <trkpt lat="42.479836" lon="-6.276718">
        <ele>1127.781</ele>
        <time>2021-07-17T09:30:20Z</time>
      </trkpt>
      <trkpt lat="42.479774" lon="-6.276446">
        <ele>1127.795</ele>
        <time>2021-07-17T09:30:27Z</time>
      </trkpt>
      <trkpt lat="42.479713" lon="-6.276105">
        <ele>1126.883</ele>
        <time>2021-07-17T09:30:36Z</time>
      </trkpt>
      <trkpt lat="42.479661" lon="-6.275848">
        <ele>1126.340</ele>
        <time>2021-07-17T09:30:43Z</time>
      </trkpt>
      <trkpt lat="42.479547" lon="-6.275298">
        <ele>1124.888</ele>
        <time>2021-07-17T09:30:52Z</time>
      </trkpt>
      <trkpt lat="42.479434" lon="-6.274781">
        <ele>1122.076</ele>
        <time>2021-07-17T09:30:58Z</time>
      </trkpt>
      <trkpt lat="42.479206" lon="-6.273947">
        <ele>1118.190</ele>
        <time>2021-07-17T09:31:06Z</time>
      </trkpt>
      <trkpt lat="42.478948" lon="-6.273126">
        <ele>1114.319</ele>
        <time>2021-07-17T09:31:13Z</time>
      </trkpt>
      <trkpt lat="42.478870" lon="-6.272757">
        <ele>1113.308</ele>
        <time>2021-07-17T09:31:16Z</time>
      </trkpt>
      <trkpt lat="42.478862" lon="-6.272643">
        <ele>1112.874</ele>
        <time>2021-07-17T09:31:17Z</time>
      </trkpt>
      <trkpt lat="42.478863" lon="-6.272524">
        <ele>1112.386</ele>
        <time>2021-07-17T09:31:18Z</time>
      </trkpt>
      <trkpt lat="42.478872" lon="-6.272406">
        <ele>1112.323</ele>
        <time>2021-07-17T09:31:19Z</time>
      </trkpt>
      <trkpt lat="42.478888" lon="-6.272288">
        <ele>1111.993</ele>
        <time>2021-07-17T09:31:20Z</time>
      </trkpt>
      <trkpt lat="42.479023" lon="-6.271308">
        <ele>1109.987</ele>
        <time>2021-07-17T09:31:29Z</time>
      </trkpt>
      <trkpt lat="42.479048" lon="-6.270556">
        <ele>1108.565</ele>
        <time>2021-07-17T09:31:36Z</time>
      </trkpt>
      <trkpt lat="42.478948" lon="-6.269734">
        <ele>1107.182</ele>
        <time>2021-07-17T09:31:44Z</time>
      </trkpt>
      <trkpt lat="42.478843" lon="-6.268961">
        <ele>1106.190</ele>
        <time>2021-07-17T09:31:53Z</time>
      </trkpt>
      <trkpt lat="42.478756" lon="-6.268269">
        <ele>1105.124</ele>
        <time>2021-07-17T09:32:02Z</time>
      </trkpt>
      <trkpt lat="42.478681" lon="-6.267773">
        <ele>1105.104</ele>
        <time>2021-07-17T09:32:10Z</time>
      </trkpt>
      <trkpt lat="42.478596" lon="-6.267168">
        <ele>1105.114</ele>
        <time>2021-07-17T09:32:20Z</time>
      </trkpt>
      <trkpt lat="42.478543" lon="-6.266801">
        <ele>1105.108</ele>
        <time>2021-07-17T09:32:26Z</time>
      </trkpt>
      <trkpt lat="42.478532" lon="-6.266742">
        <ele>1105.149</ele>
        <time>2021-07-17T09:32:27Z</time>
      </trkpt>
      <trkpt lat="42.478451" lon="-6.266162">
        <ele>1105.671</ele>
        <time>2021-07-17T09:32:37Z</time>
      </trkpt>
      <trkpt lat="42.478358" lon="-6.265510">
        <ele>1106.158</ele>
        <time>2021-07-17T09:32:48Z</time>
      </trkpt>
      <trkpt lat="42.478282" lon="-6.264901">
        <ele>1107.178</ele>
        <time>2021-07-17T09:32:59Z</time>
      </trkpt>
      <trkpt lat="42.478206" lon="-6.264283">
        <ele>1109.032</ele>
        <time>2021-07-17T09:33:11Z</time>
      </trkpt>
      <trkpt lat="42.478145" lon="-6.263849">
        <ele>1109.530</ele>
        <time>2021-07-17T09:33:20Z</time>
      </trkpt>
      <trkpt lat="42.478076" lon="-6.263315">
        <ele>1109.927</ele>
        <time>2021-07-17T09:33:31Z</time>
      </trkpt>
      <trkpt lat="42.477997" lon="-6.262756">
        <ele>1109.925</ele>
        <time>2021-07-17T09:33:43Z</time>
      </trkpt>
      <trkpt lat="42.477936" lon="-6.262242">
        <ele>1109.923</ele>
        <time>2021-07-17T09:33:54Z</time>
      </trkpt>
      <trkpt lat="42.477876" lon="-6.261814">
        <ele>1110.483</ele>
        <time>2021-07-17T09:34:03Z</time>
      </trkpt>
      <trkpt lat="42.477775" lon="-6.261288">
        <ele>1110.911</ele>
        <time>2021-07-17T09:34:14Z</time>
      </trkpt>
      <trkpt lat="42.477599" lon="-6.260925">
        <ele>1111.908</ele>
        <time>2021-07-17T09:34:22Z</time>
      </trkpt>
      <trkpt lat="42.477570" lon="-6.260885">
        <ele>1111.469</ele>
        <time>2021-07-17T09:34:23Z</time>
      </trkpt>
      <trkpt lat="42.477296" lon="-6.260562">
        <ele>1110.921</ele>
        <time>2021-07-17T09:34:33Z</time>
      </trkpt>
      <trkpt lat="42.476927" lon="-6.260154">
        <ele>1109.578</ele>
        <time>2021-07-17T09:34:46Z</time>
      </trkpt>
      <trkpt lat="42.476898" lon="-6.260113">
        <ele>1109.538</ele>
        <time>2021-07-17T09:34:47Z</time>
      </trkpt>
      <trkpt lat="42.476641" lon="-6.259750">
        <ele>1106.622</ele>
        <time>2021-07-17T09:34:54Z</time>
      </trkpt>
      <trkpt lat="42.476322" lon="-6.259222">
        <ele>1103.730</ele>
        <time>2021-07-17T09:35:01Z</time>
      </trkpt>
      <trkpt lat="42.475902" lon="-6.258509">
        <ele>1099.447</ele>
        <time>2021-07-17T09:35:09Z</time>
      </trkpt>
      <trkpt lat="42.475397" lon="-6.257654">
        <ele>1095.535</ele>
        <time>2021-07-17T09:35:18Z</time>
      </trkpt>
      <trkpt lat="42.474917" lon="-6.256852">
        <ele>1089.348</ele>
        <time>2021-07-17T09:35:26Z</time>
      </trkpt>
      <trkpt lat="42.474318" lon="-6.255845">
        <ele>1078.761</ele>
        <time>2021-07-17T09:35:36Z</time>
      </trkpt>
      <trkpt lat="42.474180" lon="-6.255574">
        <ele>1076.817</ele>
        <time>2021-07-17T09:35:39Z</time>
      </trkpt>
      <trkpt lat="42.474148" lon="-6.255477">
        <ele>1076.308</ele>
        <time>2021-07-17T09:35:40Z</time>
      </trkpt>
      <trkpt lat="42.474126" lon="-6.255372">
        <ele>1075.821</ele>
        <time>2021-07-17T09:35:41Z</time>
      </trkpt>
      <trkpt lat="42.474114" lon="-6.255256">
        <ele>1075.833</ele>
        <time>2021-07-17T09:35:42Z</time>
      </trkpt>
      <trkpt lat="42.474107" lon="-6.255136">
        <ele>1075.340</ele>
        <time>2021-07-17T09:35:43Z</time>
      </trkpt>
      <trkpt lat="42.474102" lon="-6.254344">
        <ele>1071.090</ele>
        <time>2021-07-17T09:35:49Z</time>
      </trkpt>
      <trkpt lat="42.474105" lon="-6.253750">
        <ele>1069.644</ele>
        <time>2021-07-17T09:35:54Z</time>
      </trkpt>
      <trkpt lat="42.474097" lon="-6.253120">
        <ele>1069.692</ele>
        <time>2021-07-17T09:36:01Z</time>
      </trkpt>
      <trkpt lat="42.474098" lon="-6.252985">
        <ele>1069.689</ele>
        <time>2021-07-17T09:36:03Z</time>
      </trkpt>
      <trkpt lat="42.474071" lon="-6.252735">
        <ele>1069.147</ele>
        <time>2021-07-17T09:36:07Z</time>
      </trkpt>
      <trkpt lat="42.474024" lon="-6.252555">
        <ele>1069.165</ele>
        <time>2021-07-17T09:36:10Z</time>
      </trkpt>
      <trkpt lat="42.474005" lon="-6.252507">
        <ele>1069.168</ele>
        <time>2021-07-17T09:36:11Z</time>
      </trkpt>
      <trkpt lat="42.473982" lon="-6.252458">
        <ele>1069.114</ele>
        <time>2021-07-17T09:36:12Z</time>
      </trkpt>
      <trkpt lat="42.473730" lon="-6.251921">
        <ele>1070.008</ele>
        <time>2021-07-17T09:36:22Z</time>
      </trkpt>
      <trkpt lat="42.473550" lon="-6.251551">
        <ele>1071.023</ele>
        <time>2021-07-17T09:36:30Z</time>
      </trkpt>
      <trkpt lat="42.473333" lon="-6.251138">
        <ele>1072.485</ele>
        <time>2021-07-17T09:36:40Z</time>
      </trkpt>
      <trkpt lat="42.473167" lon="-6.250753">
        <ele>1072.932</ele>
        <time>2021-07-17T09:36:48Z</time>
      </trkpt>
      <trkpt lat="42.473004" lon="-6.250214">
        <ele>1071.572</ele>
        <time>2021-07-17T09:36:58Z</time>
      </trkpt>
      <trkpt lat="42.472870" lon="-6.249689">
        <ele>1071.056</ele>
        <time>2021-07-17T09:37:08Z</time>
      </trkpt>
      <trkpt lat="42.472723" lon="-6.249097">
        <ele>1071.074</ele>
        <time>2021-07-17T09:37:19Z</time>
      </trkpt>
      <trkpt lat="42.472568" lon="-6.248502">
        <ele>1070.041</ele>
        <time>2021-07-17T09:37:30Z</time>
      </trkpt>
      <trkpt lat="42.472450" lon="-6.248026">
        <ele>1070.069</ele>
        <time>2021-07-17T09:37:39Z</time>
      </trkpt>
      <trkpt lat="42.472313" lon="-6.247504">
        <ele>1069.673</ele>
        <time>2021-07-17T09:37:49Z</time>
      </trkpt>
      <trkpt lat="42.472179" lon="-6.246928">
        <ele>1069.685</ele>
        <time>2021-07-17T09:38:00Z</time>
      </trkpt>
      <trkpt lat="42.472016" lon="-6.246280">
        <ele>1070.013</ele>
        <time>2021-07-17T09:38:13Z</time>
      </trkpt>
      <trkpt lat="42.471915" lon="-6.245895">
        <ele>1070.508</ele>
        <time>2021-07-17T09:38:21Z</time>
      </trkpt>
      <trkpt lat="42.471772" lon="-6.245372">
        <ele>1072.064</ele>
        <time>2021-07-17T09:38:32Z</time>
      </trkpt>
      <trkpt lat="42.471601" lon="-6.244877">
        <ele>1072.076</ele>
        <time>2021-07-17T09:38:42Z</time>
      </trkpt>
      <trkpt lat="42.471395" lon="-6.244331">
        <ele>1072.043</ele>
        <time>2021-07-17T09:38:53Z</time>
      </trkpt>
      <trkpt lat="42.471183" lon="-6.243796">
        <ele>1071.563</ele>
        <time>2021-07-17T09:39:04Z</time>
      </trkpt>
      <trkpt lat="42.470967" lon="-6.243253">
        <ele>1070.577</ele>
        <time>2021-07-17T09:39:14Z</time>
      </trkpt>
      <trkpt lat="42.470847" lon="-6.242917">
        <ele>1070.085</ele>
        <time>2021-07-17T09:39:20Z</time>
      </trkpt>
      <trkpt lat="42.470827" lon="-6.242862">
        <ele>1070.082</ele>
        <time>2021-07-17T09:39:21Z</time>
      </trkpt>
      <trkpt lat="42.470619" lon="-6.242338">
        <ele>1069.190</ele>
        <time>2021-07-17T09:39:31Z</time>
      </trkpt>
      <trkpt lat="42.470397" lon="-6.241774">
        <ele>1068.147</ele>
        <time>2021-07-17T09:39:41Z</time>
      </trkpt>
      <trkpt lat="42.470198" lon="-6.241258">
        <ele>1068.129</ele>
        <time>2021-07-17T09:39:50Z</time>
      </trkpt>
      <trkpt lat="42.469959" lon="-6.240644">
        <ele>1067.621</ele>
        <time>2021-07-17T09:40:01Z</time>
      </trkpt>
      <trkpt lat="42.469753" lon="-6.240145">
        <ele>1067.208</ele>
        <time>2021-07-17T09:40:10Z</time>
      </trkpt>
      <trkpt lat="42.469464" lon="-6.239393">
        <ele>1065.751</ele>
        <time>2021-07-17T09:40:23Z</time>
      </trkpt>
      <trkpt lat="42.469282" lon="-6.238936">
        <ele>1065.773</ele>
        <time>2021-07-17T09:40:31Z</time>
      </trkpt>
      <trkpt lat="42.469075" lon="-6.238419">
        <ele>1066.260</ele>
        <time>2021-07-17T09:40:40Z</time>
      </trkpt>
      <trkpt lat="42.468839" lon="-6.237830">
        <ele>1065.710</ele>
        <time>2021-07-17T09:40:50Z</time>
      </trkpt>
      <trkpt lat="42.468665" lon="-6.237374">
        <ele>1065.264</ele>
        <time>2021-07-17T09:40:58Z</time>
      </trkpt>
      <trkpt lat="42.468487" lon="-6.236920">
        <ele>1065.242</ele>
        <time>2021-07-17T09:41:06Z</time>
      </trkpt>
      <trkpt lat="42.468298" lon="-6.236390">
        <ele>1063.869</ele>
        <time>2021-07-17T09:41:14Z</time>
      </trkpt>
      <trkpt lat="42.468103" lon="-6.235836">
        <ele>1062.357</ele>
        <time>2021-07-17T09:41:22Z</time>
      </trkpt>
      <trkpt lat="42.467884" lon="-6.235224">
        <ele>1059.516</ele>
        <time>2021-07-17T09:41:29Z</time>
      </trkpt>
      <trkpt lat="42.467558" lon="-6.234311">
        <ele>1057.176</ele>
        <time>2021-07-17T09:41:38Z</time>
      </trkpt>
      <trkpt lat="42.467276" lon="-6.233518">
        <ele>1057.113</ele>
        <time>2021-07-17T09:41:47Z</time>
      </trkpt>
      <trkpt lat="42.467090" lon="-6.232997">
        <ele>1056.108</ele>
        <time>2021-07-17T09:41:54Z</time>
      </trkpt>
      <trkpt lat="42.466840" lon="-6.232276">
        <ele>1052.788</ele>
        <time>2021-07-17T09:42:02Z</time>
      </trkpt>
      <trkpt lat="42.466652" lon="-6.231737">
        <ele>1050.360</ele>
        <time>2021-07-17T09:42:08Z</time>
      </trkpt>
      <trkpt lat="42.466263" lon="-6.230688">
        <ele>1048.997</ele>
        <time>2021-07-17T09:42:20Z</time>
      </trkpt>
      <trkpt lat="42.465981" lon="-6.229936">
        <ele>1046.537</ele>
        <time>2021-07-17T09:42:29Z</time>
      </trkpt>
      <trkpt lat="42.465627" lon="-6.228953">
        <ele>1042.691</ele>
        <time>2021-07-17T09:42:39Z</time>
      </trkpt>
      <trkpt lat="42.465294" lon="-6.228047">
        <ele>1040.759</ele>
        <time>2021-07-17T09:42:48Z</time>
      </trkpt>
      <trkpt lat="42.465068" lon="-6.227431">
        <ele>1041.266</ele>
        <time>2021-07-17T09:42:56Z</time>
      </trkpt>
      <trkpt lat="42.464872" lon="-6.226907">
        <ele>1041.754</ele>
        <time>2021-07-17T09:43:04Z</time>
      </trkpt>
      <trkpt lat="42.464598" lon="-6.226171">
        <ele>1040.228</ele>
        <time>2021-07-17T09:43:15Z</time>
      </trkpt>
      <trkpt lat="42.464360" lon="-6.225510">
        <ele>1038.389</ele>
        <time>2021-07-17T09:43:24Z</time>
      </trkpt>
      <trkpt lat="42.464092" lon="-6.224710">
        <ele>1034.517</ele>
        <time>2021-07-17T09:43:34Z</time>
      </trkpt>
      <trkpt lat="42.464010" lon="-6.224154">
        <ele>1033.508</ele>
        <time>2021-07-17T09:43:40Z</time>
      </trkpt>
      <trkpt lat="42.463963" lon="-6.223507">
        <ele>1033.029</ele>
        <time>2021-07-17T09:43:48Z</time>
      </trkpt>
      <trkpt lat="42.463929" lon="-6.223005">
        <ele>1032.571</ele>
        <time>2021-07-17T09:43:56Z</time>
      </trkpt>
      <trkpt lat="42.463918" lon="-6.222458">
        <ele>1031.658</ele>
        <time>2021-07-17T09:44:06Z</time>
      </trkpt>
      <trkpt lat="42.463916" lon="-6.221830">
        <ele>1030.138</ele>
        <time>2021-07-17T09:44:15Z</time>
      </trkpt>
      <trkpt lat="42.463921" lon="-6.221752">
        <ele>1030.182</ele>
        <time>2021-07-17T09:44:16Z</time>
      </trkpt>
      <trkpt lat="42.464001" lon="-6.221109">
        <ele>1028.260</ele>
        <time>2021-07-17T09:44:24Z</time>
      </trkpt>
      <trkpt lat="42.464136" lon="-6.220287">
        <ele>1025.897</ele>
        <time>2021-07-17T09:44:33Z</time>
      </trkpt>
      <trkpt lat="42.464311" lon="-6.219277">
        <ele>1022.025</ele>
        <time>2021-07-17T09:44:43Z</time>
      </trkpt>
      <trkpt lat="42.464403" lon="-6.218757">
        <ele>1021.058</ele>
        <time>2021-07-17T09:44:48Z</time>
      </trkpt>
      <trkpt lat="42.464404" lon="-6.218659">
        <ele>1020.552</ele>
        <time>2021-07-17T09:44:49Z</time>
      </trkpt>
      <trkpt lat="42.464387" lon="-6.218558">
        <ele>1020.517</ele>
        <time>2021-07-17T09:44:50Z</time>
      </trkpt>
      <trkpt lat="42.464362" lon="-6.218473">
        <ele>1020.508</ele>
        <time>2021-07-17T09:44:51Z</time>
      </trkpt>
      <trkpt lat="42.464325" lon="-6.218394">
        <ele>1020.512</ele>
        <time>2021-07-17T09:44:52Z</time>
      </trkpt>
      <trkpt lat="42.464280" lon="-6.218332">
        <ele>1020.144</ele>
        <time>2021-07-17T09:44:53Z</time>
      </trkpt>
      <trkpt lat="42.464231" lon="-6.218280">
        <ele>1020.131</ele>
        <time>2021-07-17T09:44:54Z</time>
      </trkpt>
      <trkpt lat="42.464182" lon="-6.218234">
        <ele>1020.141</ele>
        <time>2021-07-17T09:44:55Z</time>
      </trkpt>
      <trkpt lat="42.463910" lon="-6.217930">
        <ele>1020.555</ele>
        <time>2021-07-17T09:45:02Z</time>
      </trkpt>
      <trkpt lat="42.463692" lon="-6.217676">
        <ele>1020.523</ele>
        <time>2021-07-17T09:45:08Z</time>
      </trkpt>
      <trkpt lat="42.463553" lon="-6.217447">
        <ele>1020.170</ele>
        <time>2021-07-17T09:45:13Z</time>
      </trkpt>
      <trkpt lat="42.463533" lon="-6.217397">
        <ele>1020.198</ele>
        <time>2021-07-17T09:45:14Z</time>
      </trkpt>
      <trkpt lat="42.463424" lon="-6.217033">
        <ele>1020.546</ele>
        <time>2021-07-17T09:45:21Z</time>
      </trkpt>
      <trkpt lat="42.463289" lon="-6.216404">
        <ele>1021.088</ele>
        <time>2021-07-17T09:45:33Z</time>
      </trkpt>
      <trkpt lat="42.463153" lon="-6.215800">
        <ele>1020.116</ele>
        <time>2021-07-17T09:45:44Z</time>
      </trkpt>
      <trkpt lat="42.463041" lon="-6.215207">
        <ele>1018.608</ele>
        <time>2021-07-17T09:45:53Z</time>
      </trkpt>
      <trkpt lat="42.462997" lon="-6.214565">
        <ele>1017.691</ele>
        <time>2021-07-17T09:46:02Z</time>
      </trkpt>
      <trkpt lat="42.462969" lon="-6.214006">
        <ele>1017.263</ele>
        <time>2021-07-17T09:46:10Z</time>
      </trkpt>
      <trkpt lat="42.462962" lon="-6.213817">
        <ele>1017.270</ele>
        <time>2021-07-17T09:46:13Z</time>
      </trkpt>
      <trkpt lat="42.462921" lon="-6.213222">
        <ele>1018.120</ele>
        <time>2021-07-17T09:46:23Z</time>
      </trkpt>
      <trkpt lat="42.462884" lon="-6.212752">
        <ele>1018.694</ele>
        <time>2021-07-17T09:46:32Z</time>
      </trkpt>
      <trkpt lat="42.462855" lon="-6.212154">
        <ele>1020.162</ele>
        <time>2021-07-17T09:46:44Z</time>
      </trkpt>
      <trkpt lat="42.462822" lon="-6.211760">
        <ele>1020.189</ele>
        <time>2021-07-17T09:46:53Z</time>
      </trkpt>
      <trkpt lat="42.462814" lon="-6.211474">
        <ele>1021.037</ele>
        <time>2021-07-17T09:47:01Z</time>
      </trkpt>
      <trkpt lat="42.462799" lon="-6.211095">
        <ele>1020.568</ele>
        <time>2021-07-17T09:47:11Z</time>
      </trkpt>
      <trkpt lat="42.462790" lon="-6.210771">
        <ele>1022.042</ele>
        <time>2021-07-17T09:47:20Z</time>
      </trkpt>
      <trkpt lat="42.462767" lon="-6.210510">
        <ele>1021.526</ele>
        <time>2021-07-17T09:47:30Z</time>
      </trkpt>
      <trkpt lat="42.462754" lon="-6.210276">
        <ele>1021.508</ele>
        <time>2021-07-17T09:47:40Z</time>
      </trkpt>
      <trkpt lat="42.462737" lon="-6.210058">
        <ele>1021.043</ele>
        <time>2021-07-17T09:47:49Z</time>
      </trkpt>
      <trkpt lat="42.462719" lon="-6.209742">
        <ele>1022.555</ele>
        <time>2021-07-17T09:48:00Z</time>
      </trkpt>
      <trkpt lat="42.462697" lon="-6.209438">
        <ele>1022.932</ele>
        <time>2021-07-17T09:48:09Z</time>
      </trkpt>
      <trkpt lat="42.462650" lon="-6.209163">
        <ele>1023.492</ele>
        <time>2021-07-17T09:48:18Z</time>
      </trkpt>
      <trkpt lat="42.462641" lon="-6.209128">
        <ele>1022.916</ele>
        <time>2021-07-17T09:48:24Z</time>
      </trkpt>
      <trkpt lat="42.462648" lon="-6.209106">
        <ele>1023.484</ele>
        <time>2021-07-17T09:48:32Z</time>
      </trkpt>
      <trkpt lat="42.462624" lon="-6.208867">
        <ele>1023.991</ele>
        <time>2021-07-17T09:48:39Z</time>
      </trkpt>
      <trkpt lat="42.462571" lon="-6.208428">
        <ele>1023.969</ele>
        <time>2021-07-17T09:48:49Z</time>
      </trkpt>
      <trkpt lat="42.462557" lon="-6.208176">
        <ele>1023.984</ele>
        <time>2021-07-17T09:48:56Z</time>
      </trkpt>
      <trkpt lat="42.462560" lon="-6.208167">
        <ele>1023.407</ele>
        <time>2021-07-17T09:48:57Z</time>
      </trkpt>
      <trkpt lat="42.462568" lon="-6.208172">
        <ele>1023.417</ele>
        <time>2021-07-17T09:48:58Z</time>
      </trkpt>
      <trkpt lat="42.462573" lon="-6.208192">
        <ele>1023.408</ele>
        <time>2021-07-17T09:48:59Z</time>
      </trkpt>
      <trkpt lat="42.462573" lon="-6.208220">
        <ele>1023.415</ele>
        <time>2021-07-17T09:49:00Z</time>
      </trkpt>
      <trkpt lat="42.462575" lon="-6.208239">
        <ele>1023.497</ele>
        <time>2021-07-17T09:49:01Z</time>
      </trkpt>
      <trkpt lat="42.462579" lon="-6.208268">
        <ele>1023.494</ele>
        <time>2021-07-17T09:49:02Z</time>
      </trkpt>
      <trkpt lat="42.462588" lon="-6.208296">
        <ele>1023.484</ele>
        <time>2021-07-17T09:49:03Z</time>
      </trkpt>
      <trkpt lat="42.462597" lon="-6.208322">
        <ele>1023.498</ele>
        <time>2021-07-17T09:49:04Z</time>
      </trkpt>
      <trkpt lat="42.462607" lon="-6.208349">
        <ele>1022.996</ele>
        <time>2021-07-17T09:49:05Z</time>
      </trkpt>
      <trkpt lat="42.462620" lon="-6.208371">
        <ele>1022.953</ele>
        <time>2021-07-17T09:49:06Z</time>
      </trkpt>
      <trkpt lat="42.462649" lon="-6.208413">
        <ele>1022.991</ele>
        <time>2021-07-17T09:49:12Z</time>
      </trkpt>
      <trkpt lat="42.462651" lon="-6.208417">
        <ele>1022.548</ele>
        <time>2021-07-17T09:49:23Z</time>
      </trkpt>
      <trkpt lat="42.462649" lon="-6.208427">
        <ele>1022.961</ele>
        <time>2021-07-17T09:49:41Z</time>
      </trkpt>
      <trkpt lat="42.462655" lon="-6.208447">
        <ele>1022.017</ele>
        <time>2021-07-17T09:49:54Z</time>
      </trkpt>
      <trkpt lat="42.462653" lon="-6.208446">
        <ele>1021.508</ele>
        <time>2021-07-17T09:50:06Z</time>
      </trkpt>
      <trkpt lat="42.462662" lon="-6.208456">
        <ele>1020.161</ele>
        <time>2021-07-17T09:50:16Z</time>
      </trkpt>
      <trkpt lat="42.462663" lon="-6.208450">
        <ele>1020.193</ele>
        <time>2021-07-17T09:50:26Z</time>
      </trkpt>
      <trkpt lat="42.462660" lon="-6.208446">
        <ele>1020.160</ele>
        <time>2021-07-17T09:50:37Z</time>
      </trkpt>
      <trkpt lat="42.462657" lon="-6.208444">
        <ele>1022.010</ele>
        <time>2021-07-17T09:50:55Z</time>
      </trkpt>
      <trkpt lat="42.462650" lon="-6.208443">
        <ele>1020.154</ele>
        <time>2021-07-17T09:51:11Z</time>
      </trkpt>
      <trkpt lat="42.462658" lon="-6.208440">
        <ele>1020.142</ele>
        <time>2021-07-17T09:51:24Z</time>
      </trkpt>
      <trkpt lat="42.462663" lon="-6.208451">
        <ele>1020.559</ele>
        <time>2021-07-17T09:51:32Z</time>
      </trkpt>
      <trkpt lat="42.462668" lon="-6.208454">
        <ele>1019.697</ele>
        <time>2021-07-17T09:51:40Z</time>
      </trkpt>
      <trkpt lat="42.462671" lon="-6.208463">
        <ele>1017.635</ele>
        <time>2021-07-17T09:51:51Z</time>
      </trkpt>
      <trkpt lat="42.462650" lon="-6.208443">
        <ele>1017.686</ele>
        <time>2021-07-17T09:52:00Z</time>
      </trkpt>
      <trkpt lat="42.462609" lon="-6.208431">
        <ele>1018.114</ele>
        <time>2021-07-17T09:52:05Z</time>
      </trkpt>
      <trkpt lat="42.462601" lon="-6.208438">
        <ele>1018.608</ele>
        <time>2021-07-17T09:52:06Z</time>
      </trkpt>
      <trkpt lat="42.462595" lon="-6.208447">
        <ele>1018.630</ele>
        <time>2021-07-17T09:52:07Z</time>
      </trkpt>
      <trkpt lat="42.462591" lon="-6.208458">
        <ele>1019.112</ele>
        <time>2021-07-17T09:52:08Z</time>
      </trkpt>
      <trkpt lat="42.462588" lon="-6.208472">
        <ele>1019.149</ele>
        <time>2021-07-17T09:52:09Z</time>
      </trkpt>
      <trkpt lat="42.462585" lon="-6.208485">
        <ele>1019.139</ele>
        <time>2021-07-17T09:52:10Z</time>
      </trkpt>
      <trkpt lat="42.462577" lon="-6.208495">
        <ele>1019.133</ele>
        <time>2021-07-17T09:52:11Z</time>
      </trkpt>
      <trkpt lat="42.462563" lon="-6.208516">
        <ele>1019.191</ele>
        <time>2021-07-17T09:52:18Z</time>
      </trkpt>
      <trkpt lat="42.462578" lon="-6.208511">
        <ele>1020.158</ele>
        <time>2021-07-17T09:52:33Z</time>
      </trkpt>
      <trkpt lat="42.462587" lon="-6.208510">
        <ele>1020.146</ele>
        <time>2021-07-17T09:52:47Z</time>
      </trkpt>
      <trkpt lat="42.462591" lon="-6.208512">
        <ele>1021.525</ele>
        <time>2021-07-17T09:53:00Z</time>
      </trkpt>
      <trkpt lat="42.462594" lon="-6.208500">
        <ele>1022.926</ele>
        <time>2021-07-17T09:53:13Z</time>
      </trkpt>
      <trkpt lat="42.462592" lon="-6.208498">
        <ele>1023.908</ele>
        <time>2021-07-17T09:53:27Z</time>
      </trkpt>
      <trkpt lat="42.462580" lon="-6.208499">
        <ele>1023.408</ele>
        <time>2021-07-17T09:53:37Z</time>
      </trkpt>
      <trkpt lat="42.462573" lon="-6.208490">
        <ele>1023.439</ele>
        <time>2021-07-17T09:53:54Z</time>
      </trkpt>
      <trkpt lat="42.462571" lon="-6.208502">
        <ele>1022.561</ele>
        <time>2021-07-17T09:54:12Z</time>
      </trkpt>
      <trkpt lat="42.462571" lon="-6.208497">
        <ele>1022.528</ele>
        <time>2021-07-17T09:54:28Z</time>
      </trkpt>
      <trkpt lat="42.462568" lon="-6.208503">
        <ele>1022.958</ele>
        <time>2021-07-17T09:54:46Z</time>
      </trkpt>
      <trkpt lat="42.462572" lon="-6.208502">
        <ele>1022.082</ele>
        <time>2021-07-17T09:55:05Z</time>
      </trkpt>
      <trkpt lat="42.462583" lon="-6.208506">
        <ele>1022.590</ele>
        <time>2021-07-17T09:55:23Z</time>
      </trkpt>
      <trkpt lat="42.462587" lon="-6.208496">
        <ele>1021.527</ele>
        <time>2021-07-17T09:55:37Z</time>
      </trkpt>
      <trkpt lat="42.462575" lon="-6.208496">
        <ele>1020.175</ele>
        <time>2021-07-17T09:55:52Z</time>
      </trkpt>
      <trkpt lat="42.462565" lon="-6.208507">
        <ele>1020.533</ele>
        <time>2021-07-17T09:56:07Z</time>
      </trkpt>
      <trkpt lat="42.462569" lon="-6.208485">
        <ele>1021.023</ele>
        <time>2021-07-17T09:56:14Z</time>
      </trkpt>
      <trkpt lat="42.462563" lon="-6.208472">
        <ele>1021.015</ele>
        <time>2021-07-17T09:56:24Z</time>
      </trkpt>
      <trkpt lat="42.462552" lon="-6.208458">
        <ele>1021.008</ele>
        <time>2021-07-17T09:56:37Z</time>
      </trkpt>
      <trkpt lat="42.462559" lon="-6.208456">
        <ele>1021.530</ele>
        <time>2021-07-17T09:56:51Z</time>
      </trkpt>
      <trkpt lat="42.462559" lon="-6.208442">
        <ele>1021.512</ele>
        <time>2021-07-17T09:56:52Z</time>
      </trkpt>
      <trkpt lat="42.462559" lon="-6.208421">
        <ele>1021.559</ele>
        <time>2021-07-17T09:56:53Z</time>
      </trkpt>
      <trkpt lat="42.462558" lon="-6.208181">
        <ele>1022.549</ele>
        <time>2021-07-17T09:57:01Z</time>
      </trkpt>
      <trkpt lat="42.462533" lon="-6.207897">
        <ele>1022.533</ele>
        <time>2021-07-17T09:57:09Z</time>
      </trkpt>
      <trkpt lat="42.462494" lon="-6.207585">
        <ele>1023.481</ele>
        <time>2021-07-17T09:57:17Z</time>
      </trkpt>
      <trkpt lat="42.462438" lon="-6.207184">
        <ele>1024.438</ele>
        <time>2021-07-17T09:57:27Z</time>
      </trkpt>
      <trkpt lat="42.462376" lon="-6.206735">
        <ele>1024.966</ele>
        <time>2021-07-17T09:57:38Z</time>
      </trkpt>
      <trkpt lat="42.462341" lon="-6.206286">
        <ele>1025.865</ele>
        <time>2021-07-17T09:57:49Z</time>
      </trkpt>
      <trkpt lat="42.462273" lon="-6.205871">
        <ele>1025.868</ele>
        <time>2021-07-17T09:57:58Z</time>
      </trkpt>
      <trkpt lat="42.462181" lon="-6.205443">
        <ele>1024.914</ele>
        <time>2021-07-17T09:58:08Z</time>
      </trkpt>
      <trkpt lat="42.462076" lon="-6.204992">
        <ele>1023.408</ele>
        <time>2021-07-17T09:58:18Z</time>
      </trkpt>
      <trkpt lat="42.461993" lon="-6.204542">
        <ele>1023.453</ele>
        <time>2021-07-17T09:58:28Z</time>
      </trkpt>
      <trkpt lat="42.461884" lon="-6.204111">
        <ele>1022.565</ele>
        <time>2021-07-17T09:58:38Z</time>
      </trkpt>
      <trkpt lat="42.461791" lon="-6.203705">
        <ele>1022.532</ele>
        <time>2021-07-17T09:58:47Z</time>
      </trkpt>
      <trkpt lat="42.461694" lon="-6.203246">
        <ele>1022.512</ele>
        <time>2021-07-17T09:58:57Z</time>
      </trkpt>
      <trkpt lat="42.461571" lon="-6.202651">
        <ele>1022.556</ele>
        <time>2021-07-17T09:59:10Z</time>
      </trkpt>
      <trkpt lat="42.461474" lon="-6.202198">
        <ele>1022.534</ele>
        <time>2021-07-17T09:59:20Z</time>
      </trkpt>
      <trkpt lat="42.461394" lon="-6.201841">
        <ele>1022.981</ele>
        <time>2021-07-17T09:59:28Z</time>
      </trkpt>
      <trkpt lat="42.461312" lon="-6.201281">
        <ele>1022.949</ele>
        <time>2021-07-17T09:59:40Z</time>
      </trkpt>
      <trkpt lat="42.461308" lon="-6.200697">
        <ele>1023.917</ele>
        <time>2021-07-17T09:59:52Z</time>
      </trkpt>
      <trkpt lat="42.461269" lon="-6.200272">
        <ele>1023.987</ele>
        <time>2021-07-17T10:00:01Z</time>
      </trkpt>
      <trkpt lat="42.461186" lon="-6.199883">
        <ele>1024.415</ele>
        <time>2021-07-17T10:00:10Z</time>
      </trkpt>
      <trkpt lat="42.461070" lon="-6.199380">
        <ele>1023.908</ele>
        <time>2021-07-17T10:00:21Z</time>
      </trkpt>
      <trkpt lat="42.460979" lon="-6.198981">
        <ele>1023.428</ele>
        <time>2021-07-17T10:00:31Z</time>
      </trkpt>
      <trkpt lat="42.460973" lon="-6.198967">
        <ele>1023.960</ele>
        <time>2021-07-17T10:00:35Z</time>
      </trkpt>
      <trkpt lat="42.460966" lon="-6.198953">
        <ele>1023.937</ele>
        <time>2021-07-17T10:00:52Z</time>
      </trkpt>
      <trkpt lat="42.460973" lon="-6.198950">
        <ele>1024.447</ele>
        <time>2021-07-17T10:01:08Z</time>
      </trkpt>
      <trkpt lat="42.460975" lon="-6.198960">
        <ele>1023.991</ele>
        <time>2021-07-17T10:01:22Z</time>
      </trkpt>
      <trkpt lat="42.460977" lon="-6.198893">
        <ele>1024.459</ele>
        <time>2021-07-17T10:01:30Z</time>
      </trkpt>
      <trkpt lat="42.460943" lon="-6.198596">
        <ele>1024.986</ele>
        <time>2021-07-17T10:01:37Z</time>
      </trkpt>
      <trkpt lat="42.460935" lon="-6.198204">
        <ele>1024.914</ele>
        <time>2021-07-17T10:01:45Z</time>
      </trkpt>
      <trkpt lat="42.460944" lon="-6.197793">
        <ele>1023.961</ele>
        <time>2021-07-17T10:01:53Z</time>
      </trkpt>
      <trkpt lat="42.460952" lon="-6.197078">
        <ele>1022.921</ele>
        <time>2021-07-17T10:02:05Z</time>
      </trkpt>
      <trkpt lat="42.460960" lon="-6.196396">
        <ele>1022.513</ele>
        <time>2021-07-17T10:02:15Z</time>
      </trkpt>
      <trkpt lat="42.460958" lon="-6.196184">
        <ele>1022.008</ele>
        <time>2021-07-17T10:02:18Z</time>
      </trkpt>
      <trkpt lat="42.460960" lon="-6.196111">
        <ele>1022.043</ele>
        <time>2021-07-17T10:02:19Z</time>
      </trkpt>
      <trkpt lat="42.460961" lon="-6.196044">
        <ele>1022.085</ele>
        <time>2021-07-17T10:02:20Z</time>
      </trkpt>
      <trkpt lat="42.460970" lon="-6.195420">
        <ele>1021.062</ele>
        <time>2021-07-17T10:02:29Z</time>
      </trkpt>
      <trkpt lat="42.460978" lon="-6.194716">
        <ele>1019.652</ele>
        <time>2021-07-17T10:02:40Z</time>
      </trkpt>
      <trkpt lat="42.460985" lon="-6.194099">
        <ele>1019.126</ele>
        <time>2021-07-17T10:02:50Z</time>
      </trkpt>
      <trkpt lat="42.460991" lon="-6.193460">
        <ele>1018.154</ele>
        <time>2021-07-17T10:03:01Z</time>
      </trkpt>
      <trkpt lat="42.460993" lon="-6.193343">
        <ele>1018.191</ele>
        <time>2021-07-17T10:03:03Z</time>
      </trkpt>
      <trkpt lat="42.460985" lon="-6.192631">
        <ele>1018.619</ele>
        <time>2021-07-17T10:03:15Z</time>
      </trkpt>
      <trkpt lat="42.460922" lon="-6.192042">
        <ele>1017.662</ele>
        <time>2021-07-17T10:03:25Z</time>
      </trkpt>
      <trkpt lat="42.460830" lon="-6.191420">
        <ele>1017.283</ele>
        <time>2021-07-17T10:03:35Z</time>
      </trkpt>
      <trkpt lat="42.460727" lon="-6.190779">
        <ele>1016.211</ele>
        <time>2021-07-17T10:03:46Z</time>
      </trkpt>
      <trkpt lat="42.460638" lon="-6.190138">
        <ele>1015.208</ele>
        <time>2021-07-17T10:03:57Z</time>
      </trkpt>
      <trkpt lat="42.460552" lon="-6.189557">
        <ele>1013.833</ele>
        <time>2021-07-17T10:04:07Z</time>
      </trkpt>
      <trkpt lat="42.460455" lon="-6.188913">
        <ele>1013.335</ele>
        <time>2021-07-17T10:04:17Z</time>
      </trkpt>
      <trkpt lat="42.460362" lon="-6.188288">
        <ele>1012.452</ele>
        <time>2021-07-17T10:04:26Z</time>
      </trkpt>
      <trkpt lat="42.460259" lon="-6.187564">
        <ele>1010.982</ele>
        <time>2021-07-17T10:04:36Z</time>
      </trkpt>
      <trkpt lat="42.460159" lon="-6.186867">
        <ele>1009.536</ele>
        <time>2021-07-17T10:04:45Z</time>
      </trkpt>
      <trkpt lat="42.460053" lon="-6.186110">
        <ele>1007.654</ele>
        <time>2021-07-17T10:04:54Z</time>
      </trkpt>
      <trkpt lat="42.459888" lon="-6.185057">
        <ele>1005.651</ele>
        <time>2021-07-17T10:05:06Z</time>
      </trkpt>
      <trkpt lat="42.459719" lon="-6.184506">
        <ele>1005.679</ele>
        <time>2021-07-17T10:05:14Z</time>
      </trkpt>
      <trkpt lat="42.459421" lon="-6.183685">
        <ele>1006.156</ele>
        <time>2021-07-17T10:05:27Z</time>
      </trkpt>
      <trkpt lat="42.459243" lon="-6.182962">
        <ele>1006.659</ele>
        <time>2021-07-17T10:05:38Z</time>
      </trkpt>
      <trkpt lat="42.459098" lon="-6.182037">
        <ele>1006.114</ele>
        <time>2021-07-17T10:05:52Z</time>
      </trkpt>
      <trkpt lat="42.458981" lon="-6.181244">
        <ele>1005.608</ele>
        <time>2021-07-17T10:06:05Z</time>
      </trkpt>
      <trkpt lat="42.458860" lon="-6.180469">
        <ele>1005.632</ele>
        <time>2021-07-17T10:06:17Z</time>
      </trkpt>
      <trkpt lat="42.458777" lon="-6.179938">
        <ele>1005.284</ele>
        <time>2021-07-17T10:06:26Z</time>
      </trkpt>
      <trkpt lat="42.458678" lon="-6.179323">
        <ele>1005.251</ele>
        <time>2021-07-17T10:06:37Z</time>
      </trkpt>
      <trkpt lat="42.458604" lon="-6.178835">
        <ele>1004.791</ele>
        <time>2021-07-17T10:06:48Z</time>
      </trkpt>
      <trkpt lat="42.458549" lon="-6.178481">
        <ele>1004.285</ele>
        <time>2021-07-17T10:06:57Z</time>
      </trkpt>
      <trkpt lat="42.458468" lon="-6.177971">
        <ele>1003.733</ele>
        <time>2021-07-17T10:07:07Z</time>
      </trkpt>
      <trkpt lat="42.458338" lon="-6.177159">
        <ele>1003.750</ele>
        <time>2021-07-17T10:07:21Z</time>
      </trkpt>
      <trkpt lat="42.458207" lon="-6.176336">
        <ele>1003.798</ele>
        <time>2021-07-17T10:07:35Z</time>
      </trkpt>
      <trkpt lat="42.458085" lon="-6.175701">
        <ele>1003.719</ele>
        <time>2021-07-17T10:07:46Z</time>
      </trkpt>
      <trkpt lat="42.457970" lon="-6.175078">
        <ele>1001.809</ele>
        <time>2021-07-17T10:07:56Z</time>
      </trkpt>
      <trkpt lat="42.457852" lon="-6.174450">
        <ele>999.919</ele>
        <time>2021-07-17T10:08:04Z</time>
      </trkpt>
      <trkpt lat="42.457677" lon="-6.173602">
        <ele>997.508</ele>
        <time>2021-07-17T10:08:13Z</time>
      </trkpt>
      <trkpt lat="42.457547" lon="-6.172926">
        <ele>995.538</ele>
        <time>2021-07-17T10:08:20Z</time>
      </trkpt>
      <trkpt lat="42.457377" lon="-6.172050">
        <ele>994.170</ele>
        <time>2021-07-17T10:08:30Z</time>
      </trkpt>
      <trkpt lat="42.457253" lon="-6.171412">
        <ele>993.617</ele>
        <time>2021-07-17T10:08:39Z</time>
      </trkpt>
      <trkpt lat="42.457127" lon="-6.170721">
        <ele>993.177</ele>
        <time>2021-07-17T10:08:50Z</time>
      </trkpt>
      <trkpt lat="42.456998" lon="-6.170039">
        <ele>993.151</ele>
        <time>2021-07-17T10:09:01Z</time>
      </trkpt>
      <trkpt lat="42.456837" lon="-6.169192">
        <ele>993.129</ele>
        <time>2021-07-17T10:09:15Z</time>
      </trkpt>
      <trkpt lat="42.456720" lon="-6.168603">
        <ele>993.146</ele>
        <time>2021-07-17T10:09:25Z</time>
      </trkpt>
      <trkpt lat="42.456632" lon="-6.168134">
        <ele>993.174</ele>
        <time>2021-07-17T10:09:34Z</time>
      </trkpt>
      <trkpt lat="42.456570" lon="-6.167820">
        <ele>993.195</ele>
        <time>2021-07-17T10:09:42Z</time>
      </trkpt>
      <trkpt lat="42.456478" lon="-6.167348">
        <ele>993.149</ele>
        <time>2021-07-17T10:09:52Z</time>
      </trkpt>
      <trkpt lat="42.456373" lon="-6.166808">
        <ele>992.723</ele>
        <time>2021-07-17T10:10:03Z</time>
      </trkpt>
      <trkpt lat="42.456247" lon="-6.166136">
        <ele>991.708</ele>
        <time>2021-07-17T10:10:14Z</time>
      </trkpt>
      <trkpt lat="42.456138" lon="-6.165578">
        <ele>990.326</ele>
        <time>2021-07-17T10:10:23Z</time>
      </trkpt>
      <trkpt lat="42.456015" lon="-6.164920">
        <ele>989.348</ele>
        <time>2021-07-17T10:10:34Z</time>
      </trkpt>
      <trkpt lat="42.455944" lon="-6.164555">
        <ele>988.325</ele>
        <time>2021-07-17T10:10:40Z</time>
      </trkpt>
      <trkpt lat="42.455933" lon="-6.164492">
        <ele>988.385</ele>
        <time>2021-07-17T10:10:41Z</time>
      </trkpt>
      <trkpt lat="42.455832" lon="-6.163999">
        <ele>987.819</ele>
        <time>2021-07-17T10:10:49Z</time>
      </trkpt>
      <trkpt lat="42.455738" lon="-6.163537">
        <ele>986.427</ele>
        <time>2021-07-17T10:10:58Z</time>
      </trkpt>
      <trkpt lat="42.455685" lon="-6.163233">
        <ele>986.444</ele>
        <time>2021-07-17T10:11:05Z</time>
      </trkpt>
      <trkpt lat="42.455581" lon="-6.162667">
        <ele>986.922</ele>
        <time>2021-07-17T10:11:15Z</time>
      </trkpt>
      <trkpt lat="42.455518" lon="-6.162266">
        <ele>987.432</ele>
        <time>2021-07-17T10:11:23Z</time>
      </trkpt>
      <trkpt lat="42.455565" lon="-6.162026">
        <ele>987.892</ele>
        <time>2021-07-17T10:11:29Z</time>
      </trkpt>
      <trkpt lat="42.455566" lon="-6.161781">
        <ele>988.311</ele>
        <time>2021-07-17T10:11:35Z</time>
      </trkpt>
      <trkpt lat="42.455553" lon="-6.161342">
        <ele>988.808</ele>
        <time>2021-07-17T10:11:44Z</time>
      </trkpt>
      <trkpt lat="42.455497" lon="-6.160825">
        <ele>988.870</ele>
        <time>2021-07-17T10:11:55Z</time>
      </trkpt>
      <trkpt lat="42.455443" lon="-6.160286">
        <ele>988.862</ele>
        <time>2021-07-17T10:12:07Z</time>
      </trkpt>
      <trkpt lat="42.455417" lon="-6.159969">
        <ele>989.339</ele>
        <time>2021-07-17T10:12:15Z</time>
      </trkpt>
      <trkpt lat="42.455354" lon="-6.159476">
        <ele>988.839</ele>
        <time>2021-07-17T10:12:26Z</time>
      </trkpt>
      <trkpt lat="42.455323" lon="-6.159222">
        <ele>988.363</ele>
        <time>2021-07-17T10:12:33Z</time>
      </trkpt>
      <trkpt lat="42.455264" lon="-6.158857">
        <ele>986.971</ele>
        <time>2021-07-17T10:12:43Z</time>
      </trkpt>
      <trkpt lat="42.455202" lon="-6.158504">
        <ele>987.418</ele>
        <time>2021-07-17T10:12:52Z</time>
      </trkpt>
      <trkpt lat="42.455164" lon="-6.158160">
        <ele>986.916</ele>
        <time>2021-07-17T10:13:00Z</time>
      </trkpt>
      <trkpt lat="42.455121" lon="-6.157951">
        <ele>986.967</ele>
        <time>2021-07-17T10:13:07Z</time>
      </trkpt>
      <trkpt lat="42.455096" lon="-6.157671">
        <ele>985.981</ele>
        <time>2021-07-17T10:13:14Z</time>
      </trkpt>
      <trkpt lat="42.455069" lon="-6.157130">
        <ele>985.919</ele>
        <time>2021-07-17T10:13:24Z</time>
      </trkpt>
      <trkpt lat="42.455050" lon="-6.156629">
        <ele>985.408</ele>
        <time>2021-07-17T10:13:33Z</time>
      </trkpt>
      <trkpt lat="42.455051" lon="-6.156277">
        <ele>985.043</ele>
        <time>2021-07-17T10:13:42Z</time>
      </trkpt>
      <trkpt lat="42.455041" lon="-6.156142">
        <ele>984.085</ele>
        <time>2021-07-17T10:13:50Z</time>
      </trkpt>
      <trkpt lat="42.455038" lon="-6.156148">
        <ele>984.082</ele>
        <time>2021-07-17T10:13:54Z</time>
      </trkpt>
      <trkpt lat="42.455042" lon="-6.156159">
        <ele>984.072</ele>
        <time>2021-07-17T10:14:03Z</time>
      </trkpt>
      <trkpt lat="42.455058" lon="-6.156151">
        <ele>983.526</ele>
        <time>2021-07-17T10:14:08Z</time>
      </trkpt>
      <trkpt lat="42.455060" lon="-6.156150">
        <ele>983.584</ele>
        <time>2021-07-17T10:14:16Z</time>
      </trkpt>
      <trkpt lat="42.455063" lon="-6.156163">
        <ele>983.081</ele>
        <time>2021-07-17T10:14:30Z</time>
      </trkpt>
      <trkpt lat="42.455069" lon="-6.156158">
        <ele>983.019</ele>
        <time>2021-07-17T10:14:50Z</time>
      </trkpt>
      <trkpt lat="42.455066" lon="-6.156166">
        <ele>981.627</ele>
        <time>2021-07-17T10:15:12Z</time>
      </trkpt>
      <trkpt lat="42.455063" lon="-6.156152">
        <ele>982.668</ele>
        <time>2021-07-17T10:15:28Z</time>
      </trkpt>
      <trkpt lat="42.455056" lon="-6.156143">
        <ele>983.014</ele>
        <time>2021-07-17T10:15:41Z</time>
      </trkpt>
      <trkpt lat="42.455063" lon="-6.156130">
        <ele>983.508</ele>
        <time>2021-07-17T10:15:43Z</time>
      </trkpt>
      <trkpt lat="42.455042" lon="-6.156069">
        <ele>983.539</ele>
        <time>2021-07-17T10:15:48Z</time>
      </trkpt>
      <trkpt lat="42.455013" lon="-6.155988">
        <ele>984.051</ele>
        <time>2021-07-17T10:15:52Z</time>
      </trkpt>
      <trkpt lat="42.455005" lon="-6.155955">
        <ele>984.038</ele>
        <time>2021-07-17T10:15:53Z</time>
      </trkpt>
      <trkpt lat="42.455003" lon="-6.155928">
        <ele>984.078</ele>
        <time>2021-07-17T10:15:54Z</time>
      </trkpt>
      <trkpt lat="42.455004" lon="-6.155895">
        <ele>984.072</ele>
        <time>2021-07-17T10:15:55Z</time>
      </trkpt>
      <trkpt lat="42.455009" lon="-6.155857">
        <ele>984.060</ele>
        <time>2021-07-17T10:15:56Z</time>
      </trkpt>
      <trkpt lat="42.455017" lon="-6.155817">
        <ele>984.077</ele>
        <time>2021-07-17T10:15:57Z</time>
      </trkpt>
      <trkpt lat="42.455026" lon="-6.155783">
        <ele>983.545</ele>
        <time>2021-07-17T10:15:58Z</time>
      </trkpt>
      <trkpt lat="42.455036" lon="-6.155748">
        <ele>983.515</ele>
        <time>2021-07-17T10:15:59Z</time>
      </trkpt>
      <trkpt lat="42.455079" lon="-6.155470">
        <ele>983.565</ele>
        <time>2021-07-17T10:16:06Z</time>
      </trkpt>
      <trkpt lat="42.455123" lon="-6.154835">
        <ele>983.011</ele>
        <time>2021-07-17T10:16:17Z</time>
      </trkpt>
      <trkpt lat="42.455144" lon="-6.154339">
        <ele>983.008</ele>
        <time>2021-07-17T10:16:26Z</time>
      </trkpt>
      <trkpt lat="42.455158" lon="-6.153777">
        <ele>982.198</ele>
        <time>2021-07-17T10:16:36Z</time>
      </trkpt>
      <trkpt lat="42.455173" lon="-6.153248">
        <ele>980.620</ele>
        <time>2021-07-17T10:16:44Z</time>
      </trkpt>
      <trkpt lat="42.455183" lon="-6.152546">
        <ele>979.297</ele>
        <time>2021-07-17T10:16:53Z</time>
      </trkpt>
      <trkpt lat="42.455191" lon="-6.151770">
        <ele>977.827</ele>
        <time>2021-07-17T10:17:02Z</time>
      </trkpt>
      <trkpt lat="42.455219" lon="-6.150729">
        <ele>975.851</ele>
        <time>2021-07-17T10:17:14Z</time>
      </trkpt>
      <trkpt lat="42.455278" lon="-6.149959">
        <ele>975.339</ele>
        <time>2021-07-17T10:17:24Z</time>
      </trkpt>
      <trkpt lat="42.455309" lon="-6.149434">
        <ele>975.366</ele>
        <time>2021-07-17T10:17:32Z</time>
      </trkpt>
      <trkpt lat="42.455295" lon="-6.148865">
        <ele>975.364</ele>
        <time>2021-07-17T10:17:41Z</time>
      </trkpt>
      <trkpt lat="42.455258" lon="-6.148364">
        <ele>974.411</ele>
        <time>2021-07-17T10:17:50Z</time>
      </trkpt>
      <trkpt lat="42.455216" lon="-6.147868">
        <ele>973.421</ele>
        <time>2021-07-17T10:17:58Z</time>
      </trkpt>
      <trkpt lat="42.455133" lon="-6.147319">
        <ele>972.003</ele>
        <time>2021-07-17T10:18:06Z</time>
      </trkpt>
      <trkpt lat="42.454954" lon="-6.146423">
        <ele>970.108</ele>
        <time>2021-07-17T10:18:19Z</time>
      </trkpt>
      <trkpt lat="42.454788" lon="-6.145631">
        <ele>967.798</ele>
        <time>2021-07-17T10:18:28Z</time>
      </trkpt>
      <trkpt lat="42.454724" lon="-6.145095">
        <ele>966.240</ele>
        <time>2021-07-17T10:18:34Z</time>
      </trkpt>
      <trkpt lat="42.454752" lon="-6.144296">
        <ele>963.867</ele>
        <time>2021-07-17T10:18:42Z</time>
      </trkpt>
      <trkpt lat="42.454831" lon="-6.143217">
        <ele>962.437</ele>
        <time>2021-07-17T10:18:53Z</time>
      </trkpt>
      <trkpt lat="42.454882" lon="-6.142402">
        <ele>960.961</ele>
        <time>2021-07-17T10:19:02Z</time>
      </trkpt>
      <trkpt lat="42.454888" lon="-6.141536">
        <ele>958.519</ele>
        <time>2021-07-17T10:19:11Z</time>
      </trkpt>
      <trkpt lat="42.454870" lon="-6.140498">
        <ele>955.686</ele>
        <time>2021-07-17T10:19:21Z</time>
      </trkpt>
      <trkpt lat="42.454858" lon="-6.139104">
        <ele>951.864</ele>
        <time>2021-07-17T10:19:34Z</time>
      </trkpt>
      <trkpt lat="42.454851" lon="-6.137997">
        <ele>949.957</ele>
        <time>2021-07-17T10:19:45Z</time>
      </trkpt>
      <trkpt lat="42.454846" lon="-6.136917">
        <ele>947.000</ele>
        <time>2021-07-17T10:19:56Z</time>
      </trkpt>
      <trkpt lat="42.454838" lon="-6.136165">
        <ele>943.120</ele>
        <time>2021-07-17T10:20:04Z</time>
      </trkpt>
      <trkpt lat="42.454821" lon="-6.135563">
        <ele>940.308</ele>
        <time>2021-07-17T10:20:11Z</time>
      </trkpt>
      <trkpt lat="42.454792" lon="-6.135430">
        <ele>940.322</ele>
        <time>2021-07-17T10:20:16Z</time>
      </trkpt>
      <trkpt lat="42.454795" lon="-6.135439">
        <ele>941.744</ele>
        <time>2021-07-17T10:20:32Z</time>
      </trkpt>
      <trkpt lat="42.454792" lon="-6.135438">
        <ele>942.731</ele>
        <time>2021-07-17T10:20:46Z</time>
      </trkpt>
      <trkpt lat="42.454774" lon="-6.135400">
        <ele>943.161</ele>
        <time>2021-07-17T10:20:50Z</time>
      </trkpt>
      <trkpt lat="42.454768" lon="-6.135379">
        <ele>943.165</ele>
        <time>2021-07-17T10:20:51Z</time>
      </trkpt>
      <trkpt lat="42.454763" lon="-6.135354">
        <ele>943.143</ele>
        <time>2021-07-17T10:20:52Z</time>
      </trkpt>
      <trkpt lat="42.454767" lon="-6.135328">
        <ele>943.160</ele>
        <time>2021-07-17T10:20:53Z</time>
      </trkpt>
      <trkpt lat="42.454778" lon="-6.135296">
        <ele>943.178</ele>
        <time>2021-07-17T10:20:54Z</time>
      </trkpt>
      <trkpt lat="42.454795" lon="-6.135259">
        <ele>943.175</ele>
        <time>2021-07-17T10:20:55Z</time>
      </trkpt>
      <trkpt lat="42.454812" lon="-6.135224">
        <ele>943.128</ele>
        <time>2021-07-17T10:20:56Z</time>
      </trkpt>
      <trkpt lat="42.454880" lon="-6.135123">
        <ele>942.720</ele>
        <time>2021-07-17T10:21:01Z</time>
      </trkpt>
      <trkpt lat="42.454894" lon="-6.135129">
        <ele>942.708</ele>
        <time>2021-07-17T10:21:02Z</time>
      </trkpt>
      <trkpt lat="42.454899" lon="-6.135147">
        <ele>942.274</ele>
        <time>2021-07-17T10:21:03Z</time>
      </trkpt>
      <trkpt lat="42.454902" lon="-6.135196">
        <ele>942.286</ele>
        <time>2021-07-17T10:21:07Z</time>
      </trkpt>
      <trkpt lat="42.454907" lon="-6.135216">
        <ele>942.213</ele>
        <time>2021-07-17T10:21:08Z</time>
      </trkpt>
      <trkpt lat="42.454917" lon="-6.135296">
        <ele>941.763</ele>
        <time>2021-07-17T10:21:15Z</time>
      </trkpt>
      <trkpt lat="42.454913" lon="-6.135305">
        <ele>942.267</ele>
        <time>2021-07-17T10:21:23Z</time>
      </trkpt>
      <trkpt lat="42.454904" lon="-6.135297">
        <ele>942.245</ele>
        <time>2021-07-17T10:21:49Z</time>
      </trkpt>
      <trkpt lat="42.454907" lon="-6.135301">
        <ele>942.252</ele>
        <time>2021-07-17T10:22:02Z</time>
      </trkpt>
      <trkpt lat="42.454915" lon="-6.135303">
        <ele>942.260</ele>
        <time>2021-07-17T10:22:13Z</time>
      </trkpt>
      <trkpt lat="42.454921" lon="-6.135288">
        <ele>942.711</ele>
        <time>2021-07-17T10:22:21Z</time>
      </trkpt>
      <trkpt lat="42.454901" lon="-6.135209">
        <ele>942.721</ele>
        <time>2021-07-17T10:22:29Z</time>
      </trkpt>
      <trkpt lat="42.454883" lon="-6.135165">
        <ele>943.103</ele>
        <time>2021-07-17T10:22:33Z</time>
      </trkpt>
      <trkpt lat="42.454865" lon="-6.135118">
        <ele>943.608</ele>
        <time>2021-07-17T10:22:40Z</time>
      </trkpt>
      <trkpt lat="42.454869" lon="-6.135111">
        <ele>943.618</ele>
        <time>2021-07-17T10:22:43Z</time>
      </trkpt>
      <trkpt lat="42.454880" lon="-6.135093">
        <ele>943.170</ele>
        <time>2021-07-17T10:22:44Z</time>
      </trkpt>
      <trkpt lat="42.455007" lon="-6.134882">
        <ele>942.227</ele>
        <time>2021-07-17T10:22:51Z</time>
      </trkpt>
      <trkpt lat="42.455054" lon="-6.134792">
        <ele>941.777</ele>
        <time>2021-07-17T10:22:53Z</time>
      </trkpt>
      <trkpt lat="42.455272" lon="-6.134420">
        <ele>940.341</ele>
        <time>2021-07-17T10:23:00Z</time>
      </trkpt>
      <trkpt lat="42.455595" lon="-6.133868">
        <ele>938.869</ele>
        <time>2021-07-17T10:23:09Z</time>
      </trkpt>
      <trkpt lat="42.456040" lon="-6.133113">
        <ele>936.946</ele>
        <time>2021-07-17T10:23:20Z</time>
      </trkpt>
      <trkpt lat="42.456412" lon="-6.132467">
        <ele>935.064</ele>
        <time>2021-07-17T10:23:29Z</time>
      </trkpt>
      <trkpt lat="42.456791" lon="-6.131816">
        <ele>933.182</ele>
        <time>2021-07-17T10:23:38Z</time>
      </trkpt>
      <trkpt lat="42.457223" lon="-6.131073">
        <ele>930.243</ele>
        <time>2021-07-17T10:23:47Z</time>
      </trkpt>
      <trkpt lat="42.457760" lon="-6.130140">
        <ele>926.817</ele>
        <time>2021-07-17T10:23:57Z</time>
      </trkpt>
      <trkpt lat="42.458282" lon="-6.129239">
        <ele>924.908</ele>
        <time>2021-07-17T10:24:07Z</time>
      </trkpt>
      <trkpt lat="42.458710" lon="-6.128575">
        <ele>923.425</ele>
        <time>2021-07-17T10:24:16Z</time>
      </trkpt>
      <trkpt lat="42.458764" lon="-6.128514">
        <ele>923.437</ele>
        <time>2021-07-17T10:24:17Z</time>
      </trkpt>
      <trkpt lat="42.458935" lon="-6.128348">
        <ele>923.094</ele>
        <time>2021-07-17T10:24:20Z</time>
      </trkpt>
      <trkpt lat="42.459538" lon="-6.127956">
        <ele>920.114</ele>
        <time>2021-07-17T10:24:29Z</time>
      </trkpt>
      <trkpt lat="42.460089" lon="-6.127625">
        <ele>916.768</ele>
        <time>2021-07-17T10:24:36Z</time>
      </trkpt>
      <trkpt lat="42.460984" lon="-6.127083">
        <ele>911.426</ele>
        <time>2021-07-17T10:24:46Z</time>
      </trkpt>
      <trkpt lat="42.461715" lon="-6.126626">
        <ele>906.623</ele>
        <time>2021-07-17T10:24:54Z</time>
      </trkpt>
      <trkpt lat="42.462538" lon="-6.126117">
        <ele>902.851</ele>
        <time>2021-07-17T10:25:03Z</time>
      </trkpt>
      <trkpt lat="42.463232" lon="-6.125638">
        <ele>902.315</ele>
        <time>2021-07-17T10:25:11Z</time>
      </trkpt>
      <trkpt lat="42.463520" lon="-6.125341">
        <ele>902.365</ele>
        <time>2021-07-17T10:25:15Z</time>
      </trkpt>
      <trkpt lat="42.463571" lon="-6.125256">
        <ele>901.811</ele>
        <time>2021-07-17T10:25:16Z</time>
      </trkpt>
      <trkpt lat="42.463619" lon="-6.125156">
        <ele>901.808</ele>
        <time>2021-07-17T10:25:17Z</time>
      </trkpt>
      <trkpt lat="42.463658" lon="-6.125051">
        <ele>901.868</ele>
        <time>2021-07-17T10:25:18Z</time>
      </trkpt>
      <trkpt lat="42.463689" lon="-6.124943">
        <ele>901.820</ele>
        <time>2021-07-17T10:25:19Z</time>
      </trkpt>
      <trkpt lat="42.463712" lon="-6.124831">
        <ele>901.857</ele>
        <time>2021-07-17T10:25:20Z</time>
      </trkpt>
      <trkpt lat="42.463725" lon="-6.124717">
        <ele>901.887</ele>
        <time>2021-07-17T10:25:21Z</time>
      </trkpt>
      <trkpt lat="42.463727" lon="-6.124595">
        <ele>901.891</ele>
        <time>2021-07-17T10:25:22Z</time>
      </trkpt>
      <trkpt lat="42.463723" lon="-6.124489">
        <ele>901.859</ele>
        <time>2021-07-17T10:25:23Z</time>
      </trkpt>
      <trkpt lat="42.463715" lon="-6.124400">
        <ele>901.886</ele>
        <time>2021-07-17T10:25:24Z</time>
      </trkpt>
      <trkpt lat="42.463701" lon="-6.124304">
        <ele>901.384</ele>
        <time>2021-07-17T10:25:25Z</time>
      </trkpt>
      <trkpt lat="42.463577" lon="-6.123550">
        <ele>901.373</ele>
        <time>2021-07-17T10:25:34Z</time>
      </trkpt>
      <trkpt lat="42.463455" lon="-6.122836">
        <ele>900.485</ele>
        <time>2021-07-17T10:25:43Z</time>
      </trkpt>
      <trkpt lat="42.463330" lon="-6.122189">
        <ele>899.413</ele>
        <time>2021-07-17T10:25:52Z</time>
      </trkpt>
      <trkpt lat="42.463222" lon="-6.121595">
        <ele>898.908</ele>
        <time>2021-07-17T10:26:00Z</time>
      </trkpt>
      <trkpt lat="42.463080" lon="-6.120849">
        <ele>898.064</ele>
        <time>2021-07-17T10:26:10Z</time>
      </trkpt>
      <trkpt lat="42.462906" lon="-6.119910">
        <ele>897.016</ele>
        <time>2021-07-17T10:26:23Z</time>
      </trkpt>
      <trkpt lat="42.462757" lon="-6.119114">
        <ele>896.513</ele>
        <time>2021-07-17T10:26:34Z</time>
      </trkpt>
      <trkpt lat="42.462627" lon="-6.118451">
        <ele>896.083</ele>
        <time>2021-07-17T10:26:43Z</time>
      </trkpt>
      <trkpt lat="42.462480" lon="-6.117697">
        <ele>895.157</ele>
        <time>2021-07-17T10:26:53Z</time>
      </trkpt>
      <trkpt lat="42.462331" lon="-6.116892">
        <ele>894.665</ele>
        <time>2021-07-17T10:27:03Z</time>
      </trkpt>
      <trkpt lat="42.462166" lon="-6.116005">
        <ele>894.192</ele>
        <time>2021-07-17T10:27:14Z</time>
      </trkpt>
      <trkpt lat="42.462045" lon="-6.115391">
        <ele>893.650</ele>
        <time>2021-07-17T10:27:22Z</time>
      </trkpt>
      <trkpt lat="42.461901" lon="-6.114643">
        <ele>892.744</ele>
        <time>2021-07-17T10:27:32Z</time>
      </trkpt>
      <trkpt lat="42.461715" lon="-6.113655">
        <ele>892.205</ele>
        <time>2021-07-17T10:27:45Z</time>
      </trkpt>
      <trkpt lat="42.461567" lon="-6.112885">
        <ele>892.215</ele>
        <time>2021-07-17T10:27:55Z</time>
      </trkpt>
      <trkpt lat="42.461449" lon="-6.112225">
        <ele>892.208</ele>
        <time>2021-07-17T10:28:04Z</time>
      </trkpt>
      <trkpt lat="42.461334" lon="-6.111574">
        <ele>891.721</ele>
        <time>2021-07-17T10:28:13Z</time>
      </trkpt>
      <trkpt lat="42.461206" lon="-6.110882">
        <ele>892.273</ele>
        <time>2021-07-17T10:28:23Z</time>
      </trkpt>
      <trkpt lat="42.461018" lon="-6.109910">
        <ele>892.750</ele>
        <time>2021-07-17T10:28:37Z</time>
      </trkpt>
      <trkpt lat="42.460884" lon="-6.109232">
        <ele>892.710</ele>
        <time>2021-07-17T10:28:47Z</time>
      </trkpt>
      <trkpt lat="42.460751" lon="-6.108571">
        <ele>892.724</ele>
        <time>2021-07-17T10:28:57Z</time>
      </trkpt>
      <trkpt lat="42.460604" lon="-6.107747">
        <ele>892.262</ele>
        <time>2021-07-17T10:29:11Z</time>
      </trkpt>
      <trkpt lat="42.460602" lon="-6.107555">
        <ele>892.289</ele>
        <time>2021-07-17T10:29:16Z</time>
      </trkpt>
      <trkpt lat="42.460633" lon="-6.107460">
        <ele>891.777</ele>
        <time>2021-07-17T10:29:22Z</time>
      </trkpt>
      <trkpt lat="42.460632" lon="-6.107439">
        <ele>892.757</ele>
        <time>2021-07-17T10:29:33Z</time>
      </trkpt>
      <trkpt lat="42.460612" lon="-6.107300">
        <ele>892.200</ele>
        <time>2021-07-17T10:29:43Z</time>
      </trkpt>
      <trkpt lat="42.460605" lon="-6.107292">
        <ele>892.220</ele>
        <time>2021-07-17T10:29:50Z</time>
      </trkpt>
      <trkpt lat="42.460603" lon="-6.107278">
        <ele>892.208</ele>
        <time>2021-07-17T10:30:09Z</time>
      </trkpt>
      <trkpt lat="42.460586" lon="-6.107206">
        <ele>892.252</ele>
        <time>2021-07-17T10:30:17Z</time>
      </trkpt>
      <trkpt lat="42.460582" lon="-6.107075">
        <ele>893.224</ele>
        <time>2021-07-17T10:30:22Z</time>
      </trkpt>
      <trkpt lat="42.460593" lon="-6.107058">
        <ele>893.221</ele>
        <time>2021-07-17T10:30:23Z</time>
      </trkpt>
      <trkpt lat="42.460610" lon="-6.107049">
        <ele>893.241</ele>
        <time>2021-07-17T10:30:24Z</time>
      </trkpt>
      <trkpt lat="42.460757" lon="-6.107023">
        <ele>893.635</ele>
        <time>2021-07-17T10:30:33Z</time>
      </trkpt>
      <trkpt lat="42.460928" lon="-6.107016">
        <ele>893.293</ele>
        <time>2021-07-17T10:30:43Z</time>
      </trkpt>
      <trkpt lat="42.460945" lon="-6.107016">
        <ele>892.760</ele>
        <time>2021-07-17T10:30:50Z</time>
      </trkpt>
      <trkpt lat="42.460943" lon="-6.107003">
        <ele>893.298</ele>
        <time>2021-07-17T10:31:03Z</time>
      </trkpt>
      <trkpt lat="42.460952" lon="-6.107026">
        <ele>892.767</ele>
        <time>2021-07-17T10:31:10Z</time>
      </trkpt>
      <trkpt lat="42.460961" lon="-6.107036">
        <ele>892.781</ele>
        <time>2021-07-17T10:31:11Z</time>
      </trkpt>
      <trkpt lat="42.461020" lon="-6.107145">
        <ele>893.219</ele>
        <time>2021-07-17T10:31:20Z</time>
      </trkpt>
      <trkpt lat="42.461029" lon="-6.107180">
        <ele>893.608</ele>
        <time>2021-07-17T10:31:27Z</time>
      </trkpt>
      <trkpt lat="42.461027" lon="-6.107221">
        <ele>893.623</ele>
        <time>2021-07-17T10:31:34Z</time>
      </trkpt>
      <trkpt lat="42.460962" lon="-6.107226">
        <ele>893.235</ele>
        <time>2021-07-17T10:31:42Z</time>
      </trkpt>
      <trkpt lat="42.460965" lon="-6.107231">
        <ele>893.252</ele>
        <time>2021-07-17T10:31:52Z</time>
      </trkpt>
      <trkpt lat="42.460981" lon="-6.107224">
        <ele>893.292</ele>
        <time>2021-07-17T10:31:59Z</time>
      </trkpt>
      <trkpt lat="42.460989" lon="-6.107239">
        <ele>893.246</ele>
        <time>2021-07-17T10:32:07Z</time>
      </trkpt>
      <trkpt lat="42.461014" lon="-6.107265">
        <ele>893.264</ele>
        <time>2021-07-17T10:32:15Z</time>
      </trkpt>
      <trkpt lat="42.461025" lon="-6.107286">
        <ele>893.231</ele>
        <time>2021-07-17T10:32:22Z</time>
      </trkpt>
      <trkpt lat="42.461024" lon="-6.107309">
        <ele>892.729</ele>
        <time>2021-07-17T10:32:31Z</time>
      </trkpt>
      <trkpt lat="42.461031" lon="-6.107300">
        <ele>893.654</ele>
        <time>2021-07-17T10:32:40Z</time>
      </trkpt>
      <trkpt lat="42.460982" lon="-6.107186">
        <ele>902.856</ele>
        <time>2021-07-18T05:08:05Z</time>
      </trkpt>
      <trkpt lat="42.460992" lon="-6.107177">
        <ele>901.311</ele>
        <time>2021-07-18T05:08:21Z</time>
      </trkpt>
      <trkpt lat="42.460970" lon="-6.107164">
        <ele>897.008</ele>
        <time>2021-07-18T05:08:35Z</time>
      </trkpt>
      <trkpt lat="42.460982" lon="-6.107172">
        <ele>894.112</ele>
        <time>2021-07-18T05:08:51Z</time>
      </trkpt>
      <trkpt lat="42.460978" lon="-6.107213">
        <ele>887.974</ele>
        <time>2021-07-18T05:09:01Z</time>
      </trkpt>
      <trkpt lat="42.460958" lon="-6.107232">
        <ele>884.091</ele>
        <time>2021-07-18T05:09:12Z</time>
      </trkpt>
      <trkpt lat="42.460972" lon="-6.107266">
        <ele>884.091</ele>
        <time>2021-07-18T05:09:25Z</time>
      </trkpt>
      <trkpt lat="42.460965" lon="-6.107261">
        <ele>886.965</ele>
        <time>2021-07-18T05:09:33Z</time>
      </trkpt>
      <trkpt lat="42.460980" lon="-6.107259">
        <ele>888.863</ele>
        <time>2021-07-18T05:09:44Z</time>
      </trkpt>
      <trkpt lat="42.460984" lon="-6.107254">
        <ele>890.340</ele>
        <time>2021-07-18T05:10:00Z</time>
      </trkpt>
      <trkpt lat="42.460964" lon="-6.107249">
        <ele>893.258</ele>
        <time>2021-07-18T05:10:11Z</time>
      </trkpt>
      <trkpt lat="42.460945" lon="-6.107263">
        <ele>894.149</ele>
        <time>2021-07-18T05:10:38Z</time>
      </trkpt>
      <trkpt lat="42.460976" lon="-6.107272">
        <ele>895.602</ele>
        <time>2021-07-18T05:10:45Z</time>
      </trkpt>
      <trkpt lat="42.460987" lon="-6.107230">
        <ele>892.722</ele>
        <time>2021-07-18T05:10:53Z</time>
      </trkpt>
      <trkpt lat="42.460999" lon="-6.107187">
        <ele>893.208</ele>
        <time>2021-07-18T05:11:01Z</time>
      </trkpt>
      <trkpt lat="42.460993" lon="-6.107155">
        <ele>893.241</ele>
        <time>2021-07-18T05:11:06Z</time>
      </trkpt>
      <trkpt lat="42.460969" lon="-6.107102">
        <ele>892.793</ele>
        <time>2021-07-18T05:11:10Z</time>
      </trkpt>
      <trkpt lat="42.460893" lon="-6.107022">
        <ele>891.750</ele>
        <time>2021-07-18T05:11:21Z</time>
      </trkpt>
      <trkpt lat="42.460899" lon="-6.107017">
        <ele>890.380</ele>
        <time>2021-07-18T05:11:36Z</time>
      </trkpt>
      <trkpt lat="42.460906" lon="-6.107005">
        <ele>889.344</ele>
        <time>2021-07-18T05:11:53Z</time>
      </trkpt>
      <trkpt lat="42.460900" lon="-6.107007">
        <ele>889.392</ele>
        <time>2021-07-18T05:12:08Z</time>
      </trkpt>
      <trkpt lat="42.460882" lon="-6.107019">
        <ele>887.959</ele>
        <time>2021-07-18T05:12:39Z</time>
      </trkpt>
      <trkpt lat="42.460894" lon="-6.107025">
        <ele>888.877</ele>
        <time>2021-07-18T05:12:52Z</time>
      </trkpt>
      <trkpt lat="42.460896" lon="-6.107011">
        <ele>889.319</ele>
        <time>2021-07-18T05:13:09Z</time>
      </trkpt>
      <trkpt lat="42.460882" lon="-6.107012">
        <ele>889.809</ele>
        <time>2021-07-18T05:13:19Z</time>
      </trkpt>
      <trkpt lat="42.460863" lon="-6.107005">
        <ele>889.819</ele>
        <time>2021-07-18T05:13:21Z</time>
      </trkpt>
      <trkpt lat="42.460815" lon="-6.107039">
        <ele>889.808</ele>
        <time>2021-07-18T05:13:30Z</time>
      </trkpt>
      <trkpt lat="42.460816" lon="-6.107043">
        <ele>889.898</ele>
        <time>2021-07-18T05:13:42Z</time>
      </trkpt>
      <trkpt lat="42.460810" lon="-6.107037">
        <ele>889.340</ele>
        <time>2021-07-18T05:13:58Z</time>
      </trkpt>
      <trkpt lat="42.460811" lon="-6.107036">
        <ele>888.467</ele>
        <time>2021-07-18T05:14:06Z</time>
      </trkpt>
      <trkpt lat="42.460748" lon="-6.107041">
        <ele>888.437</ele>
        <time>2021-07-18T05:14:11Z</time>
      </trkpt>
      <trkpt lat="42.460524" lon="-6.107083">
        <ele>889.861</ele>
        <time>2021-07-18T05:14:24Z</time>
      </trkpt>
      <trkpt lat="42.460484" lon="-6.107069">
        <ele>890.329</ele>
        <time>2021-07-18T05:14:26Z</time>
      </trkpt>
      <trkpt lat="42.460429" lon="-6.106891">
        <ele>890.836</ele>
        <time>2021-07-18T05:14:35Z</time>
      </trkpt>
      <trkpt lat="42.460370" lon="-6.106563">
        <ele>890.844</ele>
        <time>2021-07-18T05:14:44Z</time>
      </trkpt>
      <trkpt lat="42.460326" lon="-6.106039">
        <ele>889.872</ele>
        <time>2021-07-18T05:14:56Z</time>
      </trkpt>
      <trkpt lat="42.460308" lon="-6.105456">
        <ele>889.313</ele>
        <time>2021-07-18T05:15:07Z</time>
      </trkpt>
      <trkpt lat="42.460318" lon="-6.105067">
        <ele>888.414</ele>
        <time>2021-07-18T05:15:15Z</time>
      </trkpt>
      <trkpt lat="42.460443" lon="-6.105010">
        <ele>886.908</ele>
        <time>2021-07-18T05:15:21Z</time>
      </trkpt>
      <trkpt lat="42.460622" lon="-6.105114">
        <ele>885.964</ele>
        <time>2021-07-18T05:15:29Z</time>
      </trkpt>
      <trkpt lat="42.460744" lon="-6.105196">
        <ele>885.946</ele>
        <time>2021-07-18T05:15:37Z</time>
      </trkpt>
      <trkpt lat="42.460828" lon="-6.105351">
        <ele>886.483</ele>
        <time>2021-07-18T05:15:45Z</time>
      </trkpt>
      <trkpt lat="42.460844" lon="-6.105387">
        <ele>886.443</ele>
        <time>2021-07-18T05:15:47Z</time>
      </trkpt>
      <trkpt lat="42.460875" lon="-6.105342">
        <ele>887.457</ele>
        <time>2021-07-18T05:15:52Z</time>
      </trkpt>
      <trkpt lat="42.460854" lon="-6.105315">
        <ele>887.985</ele>
        <time>2021-07-18T05:15:54Z</time>
      </trkpt>
      <trkpt lat="42.460751" lon="-6.105195">
        <ele>888.482</ele>
        <time>2021-07-18T05:16:04Z</time>
      </trkpt>
      <trkpt lat="42.460639" lon="-6.105127">
        <ele>888.810</ele>
        <time>2021-07-18T05:16:12Z</time>
      </trkpt>
      <trkpt lat="42.460496" lon="-6.105014">
        <ele>890.884</ele>
        <time>2021-07-18T05:16:20Z</time>
      </trkpt>
      <trkpt lat="42.460428" lon="-6.104975">
        <ele>892.207</ele>
        <time>2021-07-18T05:16:24Z</time>
      </trkpt>
      <trkpt lat="42.460325" lon="-6.104964">
        <ele>892.717</ele>
        <time>2021-07-18T05:16:31Z</time>
      </trkpt>
      <trkpt lat="42.460314" lon="-6.104931">
        <ele>892.208</ele>
        <time>2021-07-18T05:16:33Z</time>
      </trkpt>
      <trkpt lat="42.460309" lon="-6.104738">
        <ele>890.355</ele>
        <time>2021-07-18T05:16:42Z</time>
      </trkpt>
      <trkpt lat="42.460301" lon="-6.104452">
        <ele>889.317</ele>
        <time>2021-07-18T05:16:51Z</time>
      </trkpt>
      <trkpt lat="42.460288" lon="-6.104030">
        <ele>888.834</ele>
        <time>2021-07-18T05:17:01Z</time>
      </trkpt>
      <trkpt lat="42.460279" lon="-6.103619">
        <ele>887.464</ele>
        <time>2021-07-18T05:17:09Z</time>
      </trkpt>
      <trkpt lat="42.460288" lon="-6.103119">
        <ele>885.028</ele>
        <time>2021-07-18T05:17:18Z</time>
      </trkpt>
      <trkpt lat="42.460317" lon="-6.102511">
        <ele>882.696</ele>
        <time>2021-07-18T05:17:26Z</time>
      </trkpt>
      <trkpt lat="42.460358" lon="-6.101697">
        <ele>879.773</ele>
        <time>2021-07-18T05:17:35Z</time>
      </trkpt>
      <trkpt lat="42.460405" lon="-6.100735">
        <ele>877.871</ele>
        <time>2021-07-18T05:17:45Z</time>
      </trkpt>
      <trkpt lat="42.460443" lon="-6.099746">
        <ele>876.828</ele>
        <time>2021-07-18T05:17:56Z</time>
      </trkpt>
      <trkpt lat="42.460481" lon="-6.098972">
        <ele>876.889</ele>
        <time>2021-07-18T05:18:06Z</time>
      </trkpt>
      <trkpt lat="42.460500" lon="-6.098820">
        <ele>876.317</ele>
        <time>2021-07-18T05:18:08Z</time>
      </trkpt>
      <trkpt lat="42.460549" lon="-6.098601">
        <ele>875.908</ele>
        <time>2021-07-18T05:18:11Z</time>
      </trkpt>
      <trkpt lat="42.460777" lon="-6.098012">
        <ele>875.429</ele>
        <time>2021-07-18T05:18:20Z</time>
      </trkpt>
      <trkpt lat="42.461149" lon="-6.097244">
        <ele>875.431</ele>
        <time>2021-07-18T05:18:33Z</time>
      </trkpt>
      <trkpt lat="42.461445" lon="-6.096606">
        <ele>873.958</ele>
        <time>2021-07-18T05:18:44Z</time>
      </trkpt>
      <trkpt lat="42.461606" lon="-6.096058">
        <ele>873.588</ele>
        <time>2021-07-18T05:18:52Z</time>
      </trkpt>
      <trkpt lat="42.461620" lon="-6.095432">
        <ele>873.582</ele>
        <time>2021-07-18T05:19:01Z</time>
      </trkpt>
      <trkpt lat="42.461617" lon="-6.095211">
        <ele>873.540</ele>
        <time>2021-07-18T05:19:04Z</time>
      </trkpt>
      <trkpt lat="42.461587" lon="-6.094629">
        <ele>873.087</ele>
        <time>2021-07-18T05:19:12Z</time>
      </trkpt>
      <trkpt lat="42.461556" lon="-6.093858">
        <ele>872.545</ele>
        <time>2021-07-18T05:19:23Z</time>
      </trkpt>
      <trkpt lat="42.461517" lon="-6.092912">
        <ele>872.548</ele>
        <time>2021-07-18T05:19:37Z</time>
      </trkpt>
      <trkpt lat="42.461474" lon="-6.092110">
        <ele>872.061</ele>
        <time>2021-07-18T05:19:49Z</time>
      </trkpt>
      <trkpt lat="42.461380" lon="-6.091307">
        <ele>871.517</ele>
        <time>2021-07-18T05:20:01Z</time>
      </trkpt>
      <trkpt lat="42.461223" lon="-6.090534">
        <ele>871.008</ele>
        <time>2021-07-18T05:20:12Z</time>
      </trkpt>
      <trkpt lat="42.461018" lon="-6.089580">
        <ele>871.091</ele>
        <time>2021-07-18T05:20:26Z</time>
      </trkpt>
      <trkpt lat="42.460833" lon="-6.088717">
        <ele>871.013</ele>
        <time>2021-07-18T05:20:38Z</time>
      </trkpt>
      <trkpt lat="42.460627" lon="-6.087722">
        <ele>870.160</ele>
        <time>2021-07-18T05:20:52Z</time>
      </trkpt>
      <trkpt lat="42.460426" lon="-6.086787">
        <ele>869.680</ele>
        <time>2021-07-18T05:21:05Z</time>
      </trkpt>
      <trkpt lat="42.460253" lon="-6.085978">
        <ele>870.644</ele>
        <time>2021-07-18T05:21:17Z</time>
      </trkpt>
      <trkpt lat="42.460157" lon="-6.085516">
        <ele>872.582</ele>
        <time>2021-07-18T05:21:27Z</time>
      </trkpt>
      <trkpt lat="42.460051" lon="-6.085006">
        <ele>874.949</ele>
        <time>2021-07-18T05:21:39Z</time>
      </trkpt>
      <trkpt lat="42.459953" lon="-6.084525">
        <ele>875.467</ele>
        <time>2021-07-18T05:21:50Z</time>
      </trkpt>
      <trkpt lat="42.459842" lon="-6.083965">
        <ele>874.995</ele>
        <time>2021-07-18T05:22:01Z</time>
      </trkpt>
      <trkpt lat="42.459727" lon="-6.083424">
        <ele>872.549</ele>
        <time>2021-07-18T05:22:09Z</time>
      </trkpt>
      <trkpt lat="42.459600" lon="-6.082799">
        <ele>868.623</ele>
        <time>2021-07-18T05:22:16Z</time>
      </trkpt>
      <trkpt lat="42.459441" lon="-6.082047">
        <ele>865.308</ele>
        <time>2021-07-18T05:22:23Z</time>
      </trkpt>
      <trkpt lat="42.459287" lon="-6.081314">
        <ele>864.876</ele>
        <time>2021-07-18T05:22:31Z</time>
      </trkpt>
      <trkpt lat="42.459235" lon="-6.081004">
        <ele>865.348</ele>
        <time>2021-07-18T05:22:36Z</time>
      </trkpt>
      <trkpt lat="42.459204" lon="-6.080973">
        <ele>865.385</ele>
        <time>2021-07-18T05:22:38Z</time>
      </trkpt>
      <trkpt lat="42.459200" lon="-6.080981">
        <ele>864.885</ele>
        <time>2021-07-18T05:22:43Z</time>
      </trkpt>
      <trkpt lat="42.459195" lon="-6.080982">
        <ele>864.869</ele>
        <time>2021-07-18T05:23:01Z</time>
      </trkpt>
      <trkpt lat="42.459205" lon="-6.080984">
        <ele>867.277</ele>
        <time>2021-07-18T05:23:32Z</time>
      </trkpt>
      <trkpt lat="42.459195" lon="-6.080984">
        <ele>867.764</ele>
        <time>2021-07-18T05:23:57Z</time>
      </trkpt>
      <trkpt lat="42.459197" lon="-6.080976">
        <ele>867.212</ele>
        <time>2021-07-18T05:24:19Z</time>
      </trkpt>
      <trkpt lat="42.459198" lon="-6.080978">
        <ele>867.238</ele>
        <time>2021-07-18T05:24:44Z</time>
      </trkpt>
      <trkpt lat="42.459196" lon="-6.080982">
        <ele>866.770</ele>
        <time>2021-07-18T05:25:00Z</time>
      </trkpt>
      <trkpt lat="42.459186" lon="-6.080978">
        <ele>866.217</ele>
        <time>2021-07-18T05:25:01Z</time>
      </trkpt>
      <trkpt lat="42.459176" lon="-6.080968">
        <ele>866.208</ele>
        <time>2021-07-18T05:25:02Z</time>
      </trkpt>
      <trkpt lat="42.459169" lon="-6.080949">
        <ele>866.280</ele>
        <time>2021-07-18T05:25:03Z</time>
      </trkpt>
      <trkpt lat="42.459171" lon="-6.080930">
        <ele>866.292</ele>
        <time>2021-07-18T05:25:04Z</time>
      </trkpt>
      <trkpt lat="42.459176" lon="-6.080919">
        <ele>866.229</ele>
        <time>2021-07-18T05:25:05Z</time>
      </trkpt>
      <trkpt lat="42.459187" lon="-6.080906">
        <ele>866.289</ele>
        <time>2021-07-18T05:25:06Z</time>
      </trkpt>
      <trkpt lat="42.459197" lon="-6.080893">
        <ele>866.263</ele>
        <time>2021-07-18T05:25:07Z</time>
      </trkpt>
      <trkpt lat="42.459208" lon="-6.080872">
        <ele>866.241</ele>
        <time>2021-07-18T05:25:08Z</time>
      </trkpt>
      <trkpt lat="42.459211" lon="-6.080837">
        <ele>866.218</ele>
        <time>2021-07-18T05:25:09Z</time>
      </trkpt>
      <trkpt lat="42.459211" lon="-6.080814">
        <ele>866.266</ele>
        <time>2021-07-18T05:25:10Z</time>
      </trkpt>
      <trkpt lat="42.459198" lon="-6.080451">
        <ele>866.295</ele>
        <time>2021-07-18T05:25:18Z</time>
      </trkpt>
      <trkpt lat="42.459180" lon="-6.079967">
        <ele>865.349</ele>
        <time>2021-07-18T05:25:27Z</time>
      </trkpt>
      <trkpt lat="42.459165" lon="-6.079309">
        <ele>864.323</ele>
        <time>2021-07-18T05:25:38Z</time>
      </trkpt>
      <trkpt lat="42.459150" lon="-6.078598">
        <ele>864.308</ele>
        <time>2021-07-18T05:25:50Z</time>
      </trkpt>
      <trkpt lat="42.459131" lon="-6.078031">
        <ele>863.846</ele>
        <time>2021-07-18T05:25:59Z</time>
      </trkpt>
      <trkpt lat="42.459107" lon="-6.077359">
        <ele>863.478</ele>
        <time>2021-07-18T05:26:10Z</time>
      </trkpt>
      <trkpt lat="42.459103" lon="-6.076883">
        <ele>863.495</ele>
        <time>2021-07-18T05:26:18Z</time>
      </trkpt>
      <trkpt lat="42.459114" lon="-6.076208">
        <ele>863.455</ele>
        <time>2021-07-18T05:26:29Z</time>
      </trkpt>
      <trkpt lat="42.459151" lon="-6.075688">
        <ele>863.889</ele>
        <time>2021-07-18T05:26:38Z</time>
      </trkpt>
      <trkpt lat="42.459204" lon="-6.075143">
        <ele>863.457</ele>
        <time>2021-07-18T05:26:47Z</time>
      </trkpt>
      <trkpt lat="42.459252" lon="-6.074614">
        <ele>863.494</ele>
        <time>2021-07-18T05:26:56Z</time>
      </trkpt>
      <trkpt lat="42.459301" lon="-6.074029">
        <ele>863.442</ele>
        <time>2021-07-18T05:27:06Z</time>
      </trkpt>
      <trkpt lat="42.459323" lon="-6.073377">
        <ele>863.469</ele>
        <time>2021-07-18T05:27:17Z</time>
      </trkpt>
      <trkpt lat="42.459247" lon="-6.072733">
        <ele>863.404</ele>
        <time>2021-07-18T05:27:28Z</time>
      </trkpt>
      <trkpt lat="42.459104" lon="-6.071963">
        <ele>863.824</ele>
        <time>2021-07-18T05:27:41Z</time>
      </trkpt>
      <trkpt lat="42.458998" lon="-6.071347">
        <ele>864.308</ele>
        <time>2021-07-18T05:27:52Z</time>
      </trkpt>
      <trkpt lat="42.458921" lon="-6.070785">
        <ele>864.863</ele>
        <time>2021-07-18T05:28:02Z</time>
      </trkpt>
      <trkpt lat="42.458857" lon="-6.070236">
        <ele>865.355</ele>
        <time>2021-07-18T05:28:12Z</time>
      </trkpt>
      <trkpt lat="42.458812" lon="-6.069840">
        <ele>865.822</ele>
        <time>2021-07-18T05:28:20Z</time>
      </trkpt>
      <trkpt lat="42.458749" lon="-6.069312">
        <ele>866.732</ele>
        <time>2021-07-18T05:28:30Z</time>
      </trkpt>
      <trkpt lat="42.458707" lon="-6.068937">
        <ele>867.286</ele>
        <time>2021-07-18T05:28:38Z</time>
      </trkpt>
      <trkpt lat="42.458703" lon="-6.068855">
        <ele>867.754</ele>
        <time>2021-07-18T05:28:41Z</time>
      </trkpt>
      <trkpt lat="42.458701" lon="-6.068838">
        <ele>867.781</ele>
        <time>2021-07-18T05:28:42Z</time>
      </trkpt>
      <trkpt lat="42.458695" lon="-6.068822">
        <ele>867.749</ele>
        <time>2021-07-18T05:28:43Z</time>
      </trkpt>
      <trkpt lat="42.458692" lon="-6.068797">
        <ele>867.795</ele>
        <time>2021-07-18T05:28:44Z</time>
      </trkpt>
      <trkpt lat="42.458689" lon="-6.068762">
        <ele>867.749</ele>
        <time>2021-07-18T05:28:45Z</time>
      </trkpt>
      <trkpt lat="42.458686" lon="-6.068721">
        <ele>867.723</ele>
        <time>2021-07-18T05:28:46Z</time>
      </trkpt>
      <trkpt lat="42.458683" lon="-6.068672">
        <ele>867.708</ele>
        <time>2021-07-18T05:28:47Z</time>
      </trkpt>
      <trkpt lat="42.458679" lon="-6.068628">
        <ele>867.766</ele>
        <time>2021-07-18T05:28:48Z</time>
      </trkpt>
      <trkpt lat="42.458620" lon="-6.068064">
        <ele>869.148</ele>
        <time>2021-07-18T05:29:00Z</time>
      </trkpt>
      <trkpt lat="42.458598" lon="-6.067632">
        <ele>870.635</ele>
        <time>2021-07-18T05:29:10Z</time>
      </trkpt>
      <trkpt lat="42.458587" lon="-6.067135">
        <ele>871.585</ele>
        <time>2021-07-18T05:29:21Z</time>
      </trkpt>
      <trkpt lat="42.458584" lon="-6.066711">
        <ele>872.059</ele>
        <time>2021-07-18T05:29:31Z</time>
      </trkpt>
      <trkpt lat="42.458574" lon="-6.066325">
        <ele>873.067</ele>
        <time>2021-07-18T05:29:40Z</time>
      </trkpt>
      <trkpt lat="42.458566" lon="-6.065959">
        <ele>873.964</ele>
        <time>2021-07-18T05:29:49Z</time>
      </trkpt>
      <trkpt lat="42.458558" lon="-6.065625">
        <ele>876.352</ele>
        <time>2021-07-18T05:29:58Z</time>
      </trkpt>
      <trkpt lat="42.458558" lon="-6.065344">
        <ele>877.328</ele>
        <time>2021-07-18T05:30:06Z</time>
      </trkpt>
      <trkpt lat="42.458560" lon="-6.065123">
        <ele>878.389</ele>
        <time>2021-07-18T05:30:13Z</time>
      </trkpt>
      <trkpt lat="42.458560" lon="-6.065093">
        <ele>878.717</ele>
        <time>2021-07-18T05:30:14Z</time>
      </trkpt>
      <trkpt lat="42.458563" lon="-6.065062">
        <ele>878.708</ele>
        <time>2021-07-18T05:30:15Z</time>
      </trkpt>
      <trkpt lat="42.458588" lon="-6.064784">
        <ele>880.279</ele>
        <time>2021-07-18T05:30:24Z</time>
      </trkpt>
      <trkpt lat="42.458645" lon="-6.064479">
        <ele>881.661</ele>
        <time>2021-07-18T05:30:34Z</time>
      </trkpt>
      <trkpt lat="42.458711" lon="-6.064170">
        <ele>882.148</ele>
        <time>2021-07-18T05:30:43Z</time>
      </trkpt>
      <trkpt lat="42.458767" lon="-6.063927">
        <ele>882.648</ele>
        <time>2021-07-18T05:30:51Z</time>
      </trkpt>
      <trkpt lat="42.458813" lon="-6.063671">
        <ele>884.022</ele>
        <time>2021-07-18T05:31:01Z</time>
      </trkpt>
      <trkpt lat="42.458834" lon="-6.063645">
        <ele>886.460</ele>
        <time>2021-07-18T05:31:08Z</time>
      </trkpt>
      <trkpt lat="42.458849" lon="-6.063660">
        <ele>887.937</ele>
        <time>2021-07-18T05:31:23Z</time>
      </trkpt>
      <trkpt lat="42.458892" lon="-6.063620">
        <ele>888.885</ele>
        <time>2021-07-18T05:31:39Z</time>
      </trkpt>
      <trkpt lat="42.458872" lon="-6.063586">
        <ele>890.363</ele>
        <time>2021-07-18T05:31:53Z</time>
      </trkpt>
      <trkpt lat="42.458881" lon="-6.063573">
        <ele>890.344</ele>
        <time>2021-07-18T05:31:54Z</time>
      </trkpt>
      <trkpt lat="42.458891" lon="-6.063558">
        <ele>890.818</ele>
        <time>2021-07-18T05:31:55Z</time>
      </trkpt>
      <trkpt lat="42.458901" lon="-6.063532">
        <ele>890.808</ele>
        <time>2021-07-18T05:31:56Z</time>
      </trkpt>
      <trkpt lat="42.458964" lon="-6.063224">
        <ele>888.893</ele>
        <time>2021-07-18T05:32:04Z</time>
      </trkpt>
      <trkpt lat="42.458866" lon="-6.063024">
        <ele>884.595</ele>
        <time>2021-07-18T05:32:10Z</time>
      </trkpt>
      <trkpt lat="42.458644" lon="-6.062646">
        <ele>883.552</ele>
        <time>2021-07-18T05:32:18Z</time>
      </trkpt>
      <trkpt lat="42.458532" lon="-6.062427">
        <ele>887.442</ele>
        <time>2021-07-18T05:32:22Z</time>
      </trkpt>
      <trkpt lat="42.458408" lon="-6.062187">
        <ele>892.726</ele>
        <time>2021-07-18T05:32:26Z</time>
      </trkpt>
      <trkpt lat="42.458007" lon="-6.061607">
        <ele>891.774</ele>
        <time>2021-07-18T05:32:37Z</time>
      </trkpt>
      <trkpt lat="42.457797" lon="-6.061270">
        <ele>891.771</ele>
        <time>2021-07-18T05:32:45Z</time>
      </trkpt>
      <trkpt lat="42.457559" lon="-6.060871">
        <ele>892.279</ele>
        <time>2021-07-18T05:32:54Z</time>
      </trkpt>
      <trkpt lat="42.457367" lon="-6.060510">
        <ele>893.271</ele>
        <time>2021-07-18T05:33:03Z</time>
      </trkpt>
      <trkpt lat="42.457191" lon="-6.060101">
        <ele>892.741</ele>
        <time>2021-07-18T05:33:12Z</time>
      </trkpt>
      <trkpt lat="42.457083" lon="-6.059790">
        <ele>891.215</ele>
        <time>2021-07-18T05:33:19Z</time>
      </trkpt>
      <trkpt lat="42.457039" lon="-6.059665">
        <ele>891.708</ele>
        <time>2021-07-18T05:33:22Z</time>
      </trkpt>
      <trkpt lat="42.457043" lon="-6.059515">
        <ele>888.864</ele>
        <time>2021-07-18T05:33:26Z</time>
      </trkpt>
      <trkpt lat="42.457054" lon="-6.059432">
        <ele>888.856</ele>
        <time>2021-07-18T05:33:28Z</time>
      </trkpt>
      <trkpt lat="42.456968" lon="-6.059199">
        <ele>889.813</ele>
        <time>2021-07-18T05:33:34Z</time>
      </trkpt>
      <trkpt lat="42.456876" lon="-6.059023">
        <ele>888.493</ele>
        <time>2021-07-18T05:33:39Z</time>
      </trkpt>
      <trkpt lat="42.456916" lon="-6.058834">
        <ele>886.437</ele>
        <time>2021-07-18T05:33:44Z</time>
      </trkpt>
      <trkpt lat="42.457045" lon="-6.058539">
        <ele>884.595</ele>
        <time>2021-07-18T05:33:53Z</time>
      </trkpt>
      <trkpt lat="42.457193" lon="-6.058216">
        <ele>883.522</ele>
        <time>2021-07-18T05:34:03Z</time>
      </trkpt>
      <trkpt lat="42.457293" lon="-6.057987">
        <ele>882.630</ele>
        <time>2021-07-18T05:34:12Z</time>
      </trkpt>
      <trkpt lat="42.457371" lon="-6.057820">
        <ele>881.661</ele>
        <time>2021-07-18T05:34:20Z</time>
      </trkpt>
      <trkpt lat="42.457486" lon="-6.057589">
        <ele>879.721</ele>
        <time>2021-07-18T05:34:30Z</time>
      </trkpt>
      <trkpt lat="42.457532" lon="-6.057491">
        <ele>879.213</ele>
        <time>2021-07-18T05:34:37Z</time>
      </trkpt>
      <trkpt lat="42.457574" lon="-6.057467">
        <ele>881.608</ele>
        <time>2021-07-18T05:34:53Z</time>
      </trkpt>
      <trkpt lat="42.457587" lon="-6.057458">
        <ele>883.163</ele>
        <time>2021-07-18T05:34:59Z</time>
      </trkpt>
      <trkpt lat="42.457523" lon="-6.057247">
        <ele>883.195</ele>
        <time>2021-07-18T05:35:08Z</time>
      </trkpt>
      <trkpt lat="42.457463" lon="-6.057004">
        <ele>883.512</ele>
        <time>2021-07-18T05:35:18Z</time>
      </trkpt>
      <trkpt lat="42.457522" lon="-6.056870">
        <ele>883.512</ele>
        <time>2021-07-18T05:35:25Z</time>
      </trkpt>
      <trkpt lat="42.457526" lon="-6.056737">
        <ele>882.166</ele>
        <time>2021-07-18T05:35:31Z</time>
      </trkpt>
      <trkpt lat="42.457445" lon="-6.056512">
        <ele>880.214</ele>
        <time>2021-07-18T05:35:39Z</time>
      </trkpt>
      <trkpt lat="42.457409" lon="-6.056192">
        <ele>878.771</ele>
        <time>2021-07-18T05:35:48Z</time>
      </trkpt>
      <trkpt lat="42.457358" lon="-6.055969">
        <ele>878.389</ele>
        <time>2021-07-18T05:35:54Z</time>
      </trkpt>
      <trkpt lat="42.457340" lon="-6.055861">
        <ele>877.893</ele>
        <time>2021-07-18T05:35:57Z</time>
      </trkpt>
      <trkpt lat="42.457401" lon="-6.055751">
        <ele>878.365</ele>
        <time>2021-07-18T05:36:04Z</time>
      </trkpt>
      <trkpt lat="42.457417" lon="-6.055751">
        <ele>880.221</ele>
        <time>2021-07-18T05:36:14Z</time>
      </trkpt>
      <trkpt lat="42.457409" lon="-6.055753">
        <ele>881.608</ele>
        <time>2021-07-18T05:36:28Z</time>
      </trkpt>
      <trkpt lat="42.457452" lon="-6.055740">
        <ele>884.526</ele>
        <time>2021-07-18T05:36:43Z</time>
      </trkpt>
      <trkpt lat="42.457480" lon="-6.055742">
        <ele>886.438</ele>
        <time>2021-07-18T05:36:52Z</time>
      </trkpt>
      <trkpt lat="42.457496" lon="-6.055768">
        <ele>887.995</ele>
        <time>2021-07-18T05:36:59Z</time>
      </trkpt>
      <trkpt lat="42.457505" lon="-6.055764">
        <ele>886.455</ele>
        <time>2021-07-18T05:37:09Z</time>
      </trkpt>
      <trkpt lat="42.457493" lon="-6.055767">
        <ele>886.949</ele>
        <time>2021-07-18T05:37:24Z</time>
      </trkpt>
      <trkpt lat="42.457475" lon="-6.055771">
        <ele>887.477</ele>
        <time>2021-07-18T05:37:36Z</time>
      </trkpt>
      <trkpt lat="42.457492" lon="-6.055744">
        <ele>886.944</ele>
        <time>2021-07-18T05:37:45Z</time>
      </trkpt>
      <trkpt lat="42.457497" lon="-6.055731">
        <ele>887.452</ele>
        <time>2021-07-18T05:37:52Z</time>
      </trkpt>
      <trkpt lat="42.457499" lon="-6.055725">
        <ele>887.467</ele>
        <time>2021-07-18T05:37:56Z</time>
      </trkpt>
      <trkpt lat="42.457468" lon="-6.055624">
        <ele>887.981</ele>
        <time>2021-07-18T05:38:02Z</time>
      </trkpt>
      <trkpt lat="42.457445" lon="-6.055559">
        <ele>888.819</ele>
        <time>2021-07-18T05:38:06Z</time>
      </trkpt>
      <trkpt lat="42.457378" lon="-6.055330">
        <ele>885.508</ele>
        <time>2021-07-18T05:38:15Z</time>
      </trkpt>
      <trkpt lat="42.457264" lon="-6.055032">
        <ele>884.043</ele>
        <time>2021-07-18T05:38:24Z</time>
      </trkpt>
      <trkpt lat="42.457131" lon="-6.054638">
        <ele>885.925</ele>
        <time>2021-07-18T05:38:36Z</time>
      </trkpt>
      <trkpt lat="42.457023" lon="-6.054329">
        <ele>886.452</ele>
        <time>2021-07-18T05:38:46Z</time>
      </trkpt>
      <trkpt lat="42.456873" lon="-6.054107">
        <ele>887.972</ele>
        <time>2021-07-18T05:38:54Z</time>
      </trkpt>
      <trkpt lat="42.456738" lon="-6.053873">
        <ele>893.626</ele>
        <time>2021-07-18T05:39:01Z</time>
      </trkpt>
      <trkpt lat="42.456583" lon="-6.053608">
        <ele>896.584</ele>
        <time>2021-07-18T05:39:10Z</time>
      </trkpt>
      <trkpt lat="42.456406" lon="-6.053434">
        <ele>897.051</ele>
        <time>2021-07-18T05:39:20Z</time>
      </trkpt>
      <trkpt lat="42.456210" lon="-6.053300">
        <ele>895.669</ele>
        <time>2021-07-18T05:39:29Z</time>
      </trkpt>
      <trkpt lat="42.456049" lon="-6.053141">
        <ele>896.083</ele>
        <time>2021-07-18T05:39:37Z</time>
      </trkpt>
      <trkpt lat="42.456011" lon="-6.053108">
        <ele>896.025</ele>
        <time>2021-07-18T05:39:39Z</time>
      </trkpt>
      <trkpt lat="42.455858" lon="-6.053029">
        <ele>898.417</ele>
        <time>2021-07-18T05:39:44Z</time>
      </trkpt>
      <trkpt lat="42.455802" lon="-6.053045">
        <ele>901.308</ele>
        <time>2021-07-18T05:39:46Z</time>
      </trkpt>
      <trkpt lat="42.455584" lon="-6.052924">
        <ele>912.445</ele>
        <time>2021-07-18T05:39:55Z</time>
      </trkpt>
      <trkpt lat="42.455509" lon="-6.052797">
        <ele>915.777</ele>
        <time>2021-07-18T05:40:01Z</time>
      </trkpt>
      <trkpt lat="42.455350" lon="-6.052864">
        <ele>916.234</ele>
        <time>2021-07-18T05:40:07Z</time>
      </trkpt>
      <trkpt lat="42.455227" lon="-6.052907">
        <ele>913.334</ele>
        <time>2021-07-18T05:40:11Z</time>
      </trkpt>
      <trkpt lat="42.455056" lon="-6.052888">
        <ele>912.448</ele>
        <time>2021-07-18T05:40:16Z</time>
      </trkpt>
      <trkpt lat="42.454876" lon="-6.053001">
        <ele>910.046</ele>
        <time>2021-07-18T05:40:23Z</time>
      </trkpt>
      <trkpt lat="42.454742" lon="-6.052995">
        <ele>909.093</ele>
        <time>2021-07-18T05:40:32Z</time>
      </trkpt>
      <trkpt lat="42.454712" lon="-6.052978">
        <ele>909.541</ele>
        <time>2021-07-18T05:40:34Z</time>
      </trkpt>
      <trkpt lat="42.454760" lon="-6.052914">
        <ele>909.589</ele>
        <time>2021-07-18T05:40:39Z</time>
      </trkpt>
      <trkpt lat="42.454811" lon="-6.052939">
        <ele>910.506</ele>
        <time>2021-07-18T05:40:41Z</time>
      </trkpt>
      <trkpt lat="42.454879" lon="-6.052997">
        <ele>910.526</ele>
        <time>2021-07-18T05:40:45Z</time>
      </trkpt>
      <trkpt lat="42.454842" lon="-6.053061">
        <ele>905.708</ele>
        <time>2021-07-18T05:40:50Z</time>
      </trkpt>
      <trkpt lat="42.454819" lon="-6.053057">
        <ele>904.795</ele>
        <time>2021-07-18T05:40:51Z</time>
      </trkpt>
      <trkpt lat="42.454778" lon="-6.053031">
        <ele>902.837</ele>
        <time>2021-07-18T05:40:54Z</time>
      </trkpt>
      <trkpt lat="42.454612" lon="-6.052973">
        <ele>901.884</ele>
        <time>2021-07-18T05:41:04Z</time>
      </trkpt>
      <trkpt lat="42.454499" lon="-6.052862">
        <ele>897.574</ele>
        <time>2021-07-18T05:41:13Z</time>
      </trkpt>
      <trkpt lat="42.454399" lon="-6.052772">
        <ele>893.228</ele>
        <time>2021-07-18T05:41:20Z</time>
      </trkpt>
      <trkpt lat="42.454239" lon="-6.052697">
        <ele>891.246</ele>
        <time>2021-07-18T05:41:29Z</time>
      </trkpt>
      <trkpt lat="42.454174" lon="-6.052544">
        <ele>894.173</ele>
        <time>2021-07-18T05:41:37Z</time>
      </trkpt>
      <trkpt lat="42.454165" lon="-6.052468">
        <ele>894.681</ele>
        <time>2021-07-18T05:41:40Z</time>
      </trkpt>
      <trkpt lat="42.454121" lon="-6.052368">
        <ele>894.661</ele>
        <time>2021-07-18T05:41:44Z</time>
      </trkpt>
      <trkpt lat="42.453949" lon="-6.052149">
        <ele>893.621</ele>
        <time>2021-07-18T05:41:53Z</time>
      </trkpt>
      <trkpt lat="42.453784" lon="-6.051936">
        <ele>891.713</ele>
        <time>2021-07-18T05:42:01Z</time>
      </trkpt>
      <trkpt lat="42.453599" lon="-6.051755">
        <ele>891.208</ele>
        <time>2021-07-18T05:42:10Z</time>
      </trkpt>
      <trkpt lat="42.453430" lon="-6.051602">
        <ele>889.883</ele>
        <time>2021-07-18T05:42:18Z</time>
      </trkpt>
      <trkpt lat="42.453172" lon="-6.051481">
        <ele>882.145</ele>
        <time>2021-07-18T05:42:26Z</time>
      </trkpt>
      <trkpt lat="42.453056" lon="-6.051370">
        <ele>877.842</ele>
        <time>2021-07-18T05:42:31Z</time>
      </trkpt>
      <trkpt lat="42.453050" lon="-6.051336">
        <ele>877.332</ele>
        <time>2021-07-18T05:42:32Z</time>
      </trkpt>
      <trkpt lat="42.453110" lon="-6.051131">
        <ele>874.966</ele>
        <time>2021-07-18T05:42:37Z</time>
      </trkpt>
      <trkpt lat="42.453182" lon="-6.050877">
        <ele>873.084</ele>
        <time>2021-07-18T05:42:41Z</time>
      </trkpt>
      <trkpt lat="42.453178" lon="-6.050633">
        <ele>868.691</ele>
        <time>2021-07-18T05:42:46Z</time>
      </trkpt>
      <trkpt lat="42.452997" lon="-6.050406">
        <ele>864.849</ele>
        <time>2021-07-18T05:42:53Z</time>
      </trkpt>
      <trkpt lat="42.452795" lon="-6.050330">
        <ele>859.574</ele>
        <time>2021-07-18T05:42:59Z</time>
      </trkpt>
      <trkpt lat="42.452785" lon="-6.050237">
        <ele>857.656</ele>
        <time>2021-07-18T05:43:03Z</time>
      </trkpt>
      <trkpt lat="42.452834" lon="-6.050226">
        <ele>857.621</ele>
        <time>2021-07-18T05:43:05Z</time>
      </trkpt>
      <trkpt lat="42.453113" lon="-6.050236">
        <ele>857.608</ele>
        <time>2021-07-18T05:43:14Z</time>
      </trkpt>
      <trkpt lat="42.453376" lon="-6.050316">
        <ele>859.094</ele>
        <time>2021-07-18T05:43:22Z</time>
      </trkpt>
      <trkpt lat="42.453455" lon="-6.050349">
        <ele>861.426</ele>
        <time>2021-07-18T05:43:25Z</time>
      </trkpt>
      <trkpt lat="42.453529" lon="-6.050247">
        <ele>860.563</ele>
        <time>2021-07-18T05:43:29Z</time>
      </trkpt>
      <trkpt lat="42.453628" lon="-6.049824">
        <ele>855.713</ele>
        <time>2021-07-18T05:43:34Z</time>
      </trkpt>
      <trkpt lat="42.453818" lon="-6.049123">
        <ele>851.847</ele>
        <time>2021-07-18T05:43:41Z</time>
      </trkpt>
      <trkpt lat="42.453961" lon="-6.048814">
        <ele>850.995</ele>
        <time>2021-07-18T05:43:45Z</time>
      </trkpt>
      <trkpt lat="42.454229" lon="-6.048439">
        <ele>851.342</ele>
        <time>2021-07-18T05:43:53Z</time>
      </trkpt>
      <trkpt lat="42.454362" lon="-6.048131">
        <ele>851.350</ele>
        <time>2021-07-18T05:44:01Z</time>
      </trkpt>
      <trkpt lat="42.454442" lon="-6.047985">
        <ele>850.979</ele>
        <time>2021-07-18T05:44:07Z</time>
      </trkpt>
      <trkpt lat="42.454579" lon="-6.047936">
        <ele>850.905</ele>
        <time>2021-07-18T05:44:14Z</time>
      </trkpt>
      <trkpt lat="42.454679" lon="-6.048091">
        <ele>850.925</ele>
        <time>2021-07-18T05:44:20Z</time>
      </trkpt>
      <trkpt lat="42.454610" lon="-6.048300">
        <ele>850.908</ele>
        <time>2021-07-18T05:44:26Z</time>
      </trkpt>
      <trkpt lat="42.454513" lon="-6.048329">
        <ele>850.954</ele>
        <time>2021-07-18T05:44:29Z</time>
      </trkpt>
      <trkpt lat="42.454378" lon="-6.048135">
        <ele>849.956</ele>
        <time>2021-07-18T05:44:34Z</time>
      </trkpt>
      <trkpt lat="42.454309" lon="-6.047740">
        <ele>848.983</ele>
        <time>2021-07-18T05:44:42Z</time>
      </trkpt>
      <trkpt lat="42.454132" lon="-6.047330">
        <ele>848.513</ele>
        <time>2021-07-18T05:44:50Z</time>
      </trkpt>
      <trkpt lat="42.453970" lon="-6.046998">
        <ele>847.587</ele>
        <time>2021-07-18T05:44:58Z</time>
      </trkpt>
      <trkpt lat="42.453736" lon="-6.046586">
        <ele>847.525</ele>
        <time>2021-07-18T05:45:08Z</time>
      </trkpt>
      <trkpt lat="42.453685" lon="-6.046501">
        <ele>847.512</ele>
        <time>2021-07-18T05:45:10Z</time>
      </trkpt>
      <trkpt lat="42.453466" lon="-6.046088">
        <ele>848.030</ele>
        <time>2021-07-18T05:45:19Z</time>
      </trkpt>
      <trkpt lat="42.453347" lon="-6.045862">
        <ele>848.515</ele>
        <time>2021-07-18T05:45:24Z</time>
      </trkpt>
      <trkpt lat="42.453049" lon="-6.045319">
        <ele>848.565</ele>
        <time>2021-07-18T05:45:36Z</time>
      </trkpt>
      <trkpt lat="42.452793" lon="-6.044852">
        <ele>848.911</ele>
        <time>2021-07-18T05:45:46Z</time>
      </trkpt>
      <trkpt lat="42.452576" lon="-6.044433">
        <ele>849.908</ele>
        <time>2021-07-18T05:45:56Z</time>
      </trkpt>
      <trkpt lat="42.452381" lon="-6.044000">
        <ele>850.988</ele>
        <time>2021-07-18T05:46:07Z</time>
      </trkpt>
      <trkpt lat="42.452243" lon="-6.043560">
        <ele>852.370</ele>
        <time>2021-07-18T05:46:18Z</time>
      </trkpt>
      <trkpt lat="42.452175" lon="-6.043270">
        <ele>853.337</ele>
        <time>2021-07-18T05:46:26Z</time>
      </trkpt>
      <trkpt lat="42.452118" lon="-6.042834">
        <ele>854.297</ele>
        <time>2021-07-18T05:46:37Z</time>
      </trkpt>
      <trkpt lat="42.452111" lon="-6.042357">
        <ele>855.241</ele>
        <time>2021-07-18T05:46:48Z</time>
      </trkpt>
      <trkpt lat="42.452156" lon="-6.041923">
        <ele>856.129</ele>
        <time>2021-07-18T05:46:58Z</time>
      </trkpt>
      <trkpt lat="42.452266" lon="-6.041438">
        <ele>855.286</ele>
        <time>2021-07-18T05:47:08Z</time>
      </trkpt>
      <trkpt lat="42.452427" lon="-6.040985">
        <ele>854.294</ele>
        <time>2021-07-18T05:47:16Z</time>
      </trkpt>
      <trkpt lat="42.452686" lon="-6.040515">
        <ele>852.317</ele>
        <time>2021-07-18T05:47:23Z</time>
      </trkpt>
      <trkpt lat="42.453078" lon="-6.040034">
        <ele>849.987</ele>
        <time>2021-07-18T05:47:30Z</time>
      </trkpt>
      <trkpt lat="42.453577" lon="-6.039681">
        <ele>848.915</ele>
        <time>2021-07-18T05:47:38Z</time>
      </trkpt>
      <trkpt lat="42.454009" lon="-6.039515">
        <ele>848.508</ele>
        <time>2021-07-18T05:47:46Z</time>
      </trkpt>
      <trkpt lat="42.454096" lon="-6.039483">
        <ele>848.568</ele>
        <time>2021-07-18T05:47:48Z</time>
      </trkpt>
      <trkpt lat="42.454324" lon="-6.039315">
        <ele>848.520</ele>
        <time>2021-07-18T05:47:55Z</time>
      </trkpt>
      <trkpt lat="42.454368" lon="-6.039145">
        <ele>848.527</ele>
        <time>2021-07-18T05:48:01Z</time>
      </trkpt>
      <trkpt lat="42.454376" lon="-6.038744">
        <ele>847.557</ele>
        <time>2021-07-18T05:48:11Z</time>
      </trkpt>
      <trkpt lat="42.454357" lon="-6.038228">
        <ele>847.031</ele>
        <time>2021-07-18T05:48:22Z</time>
      </trkpt>
      <trkpt lat="42.454339" lon="-6.037716">
        <ele>847.059</ele>
        <time>2021-07-18T05:48:31Z</time>
      </trkpt>
      <trkpt lat="42.454317" lon="-6.037091">
        <ele>846.536</ele>
        <time>2021-07-18T05:48:42Z</time>
      </trkpt>
      <trkpt lat="42.454293" lon="-6.036546">
        <ele>846.124</ele>
        <time>2021-07-18T05:48:52Z</time>
      </trkpt>
      <trkpt lat="42.454281" lon="-6.035914">
        <ele>846.183</ele>
        <time>2021-07-18T05:49:04Z</time>
      </trkpt>
      <trkpt lat="42.454263" lon="-6.035348">
        <ele>846.525</ele>
        <time>2021-07-18T05:49:14Z</time>
      </trkpt>
      <trkpt lat="42.454244" lon="-6.034826">
        <ele>847.017</ele>
        <time>2021-07-18T05:49:24Z</time>
      </trkpt>
      <trkpt lat="42.454215" lon="-6.034214">
        <ele>846.508</ele>
        <time>2021-07-18T05:49:35Z</time>
      </trkpt>
      <trkpt lat="42.454188" lon="-6.033507">
        <ele>846.595</ele>
        <time>2021-07-18T05:49:47Z</time>
      </trkpt>
      <trkpt lat="42.454151" lon="-6.032824">
        <ele>846.597</ele>
        <time>2021-07-18T05:49:59Z</time>
      </trkpt>
      <trkpt lat="42.454104" lon="-6.032243">
        <ele>847.514</ele>
        <time>2021-07-18T05:50:10Z</time>
      </trkpt>
      <trkpt lat="42.454079" lon="-6.031689">
        <ele>846.594</ele>
        <time>2021-07-18T05:50:20Z</time>
      </trkpt>
      <trkpt lat="42.454060" lon="-6.031239">
        <ele>846.518</ele>
        <time>2021-07-18T05:50:28Z</time>
      </trkpt>
      <trkpt lat="42.454056" lon="-6.031182">
        <ele>846.536</ele>
        <time>2021-07-18T05:50:29Z</time>
      </trkpt>
      <trkpt lat="42.454019" lon="-6.030402">
        <ele>846.183</ele>
        <time>2021-07-18T05:50:42Z</time>
      </trkpt>
      <trkpt lat="42.454001" lon="-6.029798">
        <ele>846.171</ele>
        <time>2021-07-18T05:50:53Z</time>
      </trkpt>
      <trkpt lat="42.453997" lon="-6.029739">
        <ele>846.156</ele>
        <time>2021-07-18T05:50:54Z</time>
      </trkpt>
      <trkpt lat="42.453971" lon="-6.029157">
        <ele>846.159</ele>
        <time>2021-07-18T05:51:04Z</time>
      </trkpt>
      <trkpt lat="42.453946" lon="-6.028520">
        <ele>846.114</ele>
        <time>2021-07-18T05:51:15Z</time>
      </trkpt>
      <trkpt lat="42.453919" lon="-6.027810">
        <ele>846.108</ele>
        <time>2021-07-18T05:51:27Z</time>
      </trkpt>
      <trkpt lat="42.453895" lon="-6.027201">
        <ele>846.132</ele>
        <time>2021-07-18T05:51:38Z</time>
      </trkpt>
      <trkpt lat="42.453875" lon="-6.026774">
        <ele>846.124</ele>
        <time>2021-07-18T05:51:46Z</time>
      </trkpt>
      <trkpt lat="42.453848" lon="-6.026159">
        <ele>846.551</ele>
        <time>2021-07-18T05:51:57Z</time>
      </trkpt>
      <trkpt lat="42.453824" lon="-6.025555">
        <ele>846.591</ele>
        <time>2021-07-18T05:52:08Z</time>
      </trkpt>
      <trkpt lat="42.453819" lon="-6.025432">
        <ele>846.515</ele>
        <time>2021-07-18T05:52:10Z</time>
      </trkpt>
      <trkpt lat="42.453790" lon="-6.024845">
        <ele>847.023</ele>
        <time>2021-07-18T05:52:21Z</time>
      </trkpt>
      <trkpt lat="42.453767" lon="-6.024320">
        <ele>847.510</ele>
        <time>2021-07-18T05:52:31Z</time>
      </trkpt>
      <trkpt lat="42.453761" lon="-6.023833">
        <ele>848.518</ele>
        <time>2021-07-18T05:52:40Z</time>
      </trkpt>
      <trkpt lat="42.453868" lon="-6.023450">
        <ele>848.913</ele>
        <time>2021-07-18T05:52:48Z</time>
      </trkpt>
      <trkpt lat="42.454091" lon="-6.023184">
        <ele>849.443</ele>
        <time>2021-07-18T05:52:56Z</time>
      </trkpt>
      <trkpt lat="42.454304" lon="-6.022954">
        <ele>849.907</ele>
        <time>2021-07-18T05:53:05Z</time>
      </trkpt>
      <trkpt lat="42.454504" lon="-6.022698">
        <ele>849.408</ele>
        <time>2021-07-18T05:53:12Z</time>
      </trkpt>
      <trkpt lat="42.454528" lon="-6.022643">
        <ele>848.978</ele>
        <time>2021-07-18T05:53:13Z</time>
      </trkpt>
      <trkpt lat="42.454543" lon="-6.022584">
        <ele>848.960</ele>
        <time>2021-07-18T05:53:14Z</time>
      </trkpt>
      <trkpt lat="42.454563" lon="-6.022463">
        <ele>848.567</ele>
        <time>2021-07-18T05:53:16Z</time>
      </trkpt>
      <trkpt lat="42.454561" lon="-6.021948">
        <ele>847.557</ele>
        <time>2021-07-18T05:53:24Z</time>
      </trkpt>
      <trkpt lat="42.454510" lon="-6.021114">
        <ele>846.171</ele>
        <time>2021-07-18T05:53:37Z</time>
      </trkpt>
      <trkpt lat="42.454474" lon="-6.020482">
        <ele>845.679</ele>
        <time>2021-07-18T05:53:48Z</time>
      </trkpt>
      <trkpt lat="42.454446" lon="-6.019825">
        <ele>845.656</ele>
        <time>2021-07-18T05:53:59Z</time>
      </trkpt>
      <trkpt lat="42.454425" lon="-6.019139">
        <ele>846.134</ele>
        <time>2021-07-18T05:54:10Z</time>
      </trkpt>
      <trkpt lat="42.454396" lon="-6.018549">
        <ele>847.558</ele>
        <time>2021-07-18T05:54:21Z</time>
      </trkpt>
      <trkpt lat="42.454367" lon="-6.018170">
        <ele>849.452</ele>
        <time>2021-07-18T05:54:30Z</time>
      </trkpt>
      <trkpt lat="42.454346" lon="-6.017821">
        <ele>851.317</ele>
        <time>2021-07-18T05:54:39Z</time>
      </trkpt>
      <trkpt lat="42.454338" lon="-6.017514">
        <ele>852.808</ele>
        <time>2021-07-18T05:54:48Z</time>
      </trkpt>
      <trkpt lat="42.454330" lon="-6.017236">
        <ele>853.752</ele>
        <time>2021-07-18T05:54:56Z</time>
      </trkpt>
      <trkpt lat="42.454351" lon="-6.016886">
        <ele>855.284</ele>
        <time>2021-07-18T05:55:05Z</time>
      </trkpt>
      <trkpt lat="42.454358" lon="-6.016512">
        <ele>855.291</ele>
        <time>2021-07-18T05:55:14Z</time>
      </trkpt>
      <trkpt lat="42.454362" lon="-6.016108">
        <ele>856.111</ele>
        <time>2021-07-18T05:55:23Z</time>
      </trkpt>
      <trkpt lat="42.454319" lon="-6.015770">
        <ele>857.185</ele>
        <time>2021-07-18T05:55:31Z</time>
      </trkpt>
      <trkpt lat="42.454289" lon="-6.015505">
        <ele>857.623</ele>
        <time>2021-07-18T05:55:37Z</time>
      </trkpt>
      <trkpt lat="42.454239" lon="-6.015111">
        <ele>858.180</ele>
        <time>2021-07-18T05:55:46Z</time>
      </trkpt>
      <trkpt lat="42.454201" lon="-6.014704">
        <ele>858.518</ele>
        <time>2021-07-18T05:55:56Z</time>
      </trkpt>
      <trkpt lat="42.454203" lon="-6.014279">
        <ele>859.557</ele>
        <time>2021-07-18T05:56:06Z</time>
      </trkpt>
      <trkpt lat="42.454223" lon="-6.013918">
        <ele>860.000</ele>
        <time>2021-07-18T05:56:14Z</time>
      </trkpt>
      <trkpt lat="42.454237" lon="-6.013613">
        <ele>860.520</ele>
        <time>2021-07-18T05:56:21Z</time>
      </trkpt>
      <trkpt lat="42.454226" lon="-6.013178">
        <ele>860.508</ele>
        <time>2021-07-18T05:56:31Z</time>
      </trkpt>
      <trkpt lat="42.454244" lon="-6.012942">
        <ele>861.042</ele>
        <time>2021-07-18T05:56:39Z</time>
      </trkpt>
      <trkpt lat="42.454231" lon="-6.012892">
        <ele>861.484</ele>
        <time>2021-07-18T05:56:45Z</time>
      </trkpt>
      <trkpt lat="42.454230" lon="-6.012897">
        <ele>861.441</ele>
        <time>2021-07-18T05:56:56Z</time>
      </trkpt>
      <trkpt lat="42.454260" lon="-6.012893">
        <ele>864.381</ele>
        <time>2021-07-18T05:57:10Z</time>
      </trkpt>
      <trkpt lat="42.454266" lon="-6.012881">
        <ele>867.265</ele>
        <time>2021-07-18T05:57:24Z</time>
      </trkpt>
      <trkpt lat="42.454259" lon="-6.012885">
        <ele>868.273</ele>
        <time>2021-07-18T05:57:36Z</time>
      </trkpt>
      <trkpt lat="42.454266" lon="-6.012898">
        <ele>867.740</ele>
        <time>2021-07-18T05:57:48Z</time>
      </trkpt>
      <trkpt lat="42.454256" lon="-6.012915">
        <ele>866.788</ele>
        <time>2021-07-18T05:58:01Z</time>
      </trkpt>
      <trkpt lat="42.454262" lon="-6.012914">
        <ele>866.212</ele>
        <time>2021-07-18T05:58:13Z</time>
      </trkpt>
      <trkpt lat="42.454255" lon="-6.012906">
        <ele>865.832</ele>
        <time>2021-07-18T05:58:26Z</time>
      </trkpt>
      <trkpt lat="42.454243" lon="-6.012911">
        <ele>865.305</ele>
        <time>2021-07-18T05:58:37Z</time>
      </trkpt>
      <trkpt lat="42.454261" lon="-6.012769">
        <ele>864.308</ele>
        <time>2021-07-18T05:58:43Z</time>
      </trkpt>
      <trkpt lat="42.454265" lon="-6.012385">
        <ele>864.398</ele>
        <time>2021-07-18T05:58:52Z</time>
      </trkpt>
      <trkpt lat="42.454236" lon="-6.012053">
        <ele>862.950</ele>
        <time>2021-07-18T05:59:00Z</time>
      </trkpt>
      <trkpt lat="42.454231" lon="-6.011540">
        <ele>862.477</ele>
        <time>2021-07-18T05:59:11Z</time>
      </trkpt>
      <trkpt lat="42.454227" lon="-6.011175">
        <ele>862.947</ele>
        <time>2021-07-18T05:59:19Z</time>
      </trkpt>
      <trkpt lat="42.454227" lon="-6.010569">
        <ele>863.891</ele>
        <time>2021-07-18T05:59:32Z</time>
      </trkpt>
      <trkpt lat="42.454238" lon="-6.010092">
        <ele>863.449</ele>
        <time>2021-07-18T05:59:42Z</time>
      </trkpt>
      <trkpt lat="42.454252" lon="-6.009572">
        <ele>863.446</ele>
        <time>2021-07-18T05:59:53Z</time>
      </trkpt>
      <trkpt lat="42.454273" lon="-6.009008">
        <ele>863.834</ele>
        <time>2021-07-18T06:00:05Z</time>
      </trkpt>
      <trkpt lat="42.454275" lon="-6.008541">
        <ele>865.349</ele>
        <time>2021-07-18T06:00:15Z</time>
      </trkpt>
      <trkpt lat="42.454279" lon="-6.008055">
        <ele>866.702</ele>
        <time>2021-07-18T06:00:26Z</time>
      </trkpt>
      <trkpt lat="42.454290" lon="-6.007684">
        <ele>868.222</ele>
        <time>2021-07-18T06:00:35Z</time>
      </trkpt>
      <trkpt lat="42.454337" lon="-6.007352">
        <ele>869.608</ele>
        <time>2021-07-18T06:00:45Z</time>
      </trkpt>
      <trkpt lat="42.454328" lon="-6.007093">
        <ele>870.161</ele>
        <time>2021-07-18T06:00:53Z</time>
      </trkpt>
      <trkpt lat="42.454319" lon="-6.006750">
        <ele>871.593</ele>
        <time>2021-07-18T06:01:03Z</time>
      </trkpt>
      <trkpt lat="42.454318" lon="-6.006539">
        <ele>872.590</ele>
        <time>2021-07-18T06:01:11Z</time>
      </trkpt>
      <trkpt lat="42.454297" lon="-6.006216">
        <ele>873.980</ele>
        <time>2021-07-18T06:01:23Z</time>
      </trkpt>
      <trkpt lat="42.454315" lon="-6.006122">
        <ele>874.454</ele>
        <time>2021-07-18T06:01:28Z</time>
      </trkpt>
      <trkpt lat="42.454311" lon="-6.006106">
        <ele>874.472</ele>
        <time>2021-07-18T06:01:29Z</time>
      </trkpt>
      <trkpt lat="42.454280" lon="-6.005977">
        <ele>874.489</ele>
        <time>2021-07-18T06:01:36Z</time>
      </trkpt>
      <trkpt lat="42.454292" lon="-6.005763">
        <ele>874.917</ele>
        <time>2021-07-18T06:01:45Z</time>
      </trkpt>
      <trkpt lat="42.454310" lon="-6.005529">
        <ele>875.945</ele>
        <time>2021-07-18T06:01:54Z</time>
      </trkpt>
      <trkpt lat="42.454356" lon="-6.005206">
        <ele>877.347</ele>
        <time>2021-07-18T06:02:06Z</time>
      </trkpt>
      <trkpt lat="42.454393" lon="-6.004939">
        <ele>878.711</ele>
        <time>2021-07-18T06:02:16Z</time>
      </trkpt>
      <trkpt lat="42.454419" lon="-6.004739">
        <ele>880.208</ele>
        <time>2021-07-18T06:02:24Z</time>
      </trkpt>
      <trkpt lat="42.454459" lon="-6.004467">
        <ele>881.121</ele>
        <time>2021-07-18T06:02:35Z</time>
      </trkpt>
      <trkpt lat="42.454476" lon="-6.004204">
        <ele>882.643</ele>
        <time>2021-07-18T06:02:45Z</time>
      </trkpt>
      <trkpt lat="42.454490" lon="-6.003948">
        <ele>884.510</ele>
        <time>2021-07-18T06:02:56Z</time>
      </trkpt>
      <trkpt lat="42.454507" lon="-6.003716">
        <ele>886.450</ele>
        <time>2021-07-18T06:03:06Z</time>
      </trkpt>
      <trkpt lat="42.454516" lon="-6.003525">
        <ele>887.924</ele>
        <time>2021-07-18T06:03:15Z</time>
      </trkpt>
      <trkpt lat="42.454534" lon="-6.003332">
        <ele>889.352</ele>
        <time>2021-07-18T06:03:25Z</time>
      </trkpt>
      <trkpt lat="42.454527" lon="-6.003163">
        <ele>890.379</ele>
        <time>2021-07-18T06:03:34Z</time>
      </trkpt>
      <trkpt lat="42.454501" lon="-6.003036">
        <ele>891.267</ele>
        <time>2021-07-18T06:03:41Z</time>
      </trkpt>
      <trkpt lat="42.454476" lon="-6.002921">
        <ele>892.213</ele>
        <time>2021-07-18T06:03:51Z</time>
      </trkpt>
      <trkpt lat="42.454468" lon="-6.002894">
        <ele>892.743</ele>
        <time>2021-07-18T06:03:57Z</time>
      </trkpt>
      <trkpt lat="42.454452" lon="-6.002774">
        <ele>894.607</ele>
        <time>2021-07-18T06:04:07Z</time>
      </trkpt>
      <trkpt lat="42.454430" lon="-6.002675">
        <ele>895.608</ele>
        <time>2021-07-18T06:04:15Z</time>
      </trkpt>
      <trkpt lat="42.454407" lon="-6.002554">
        <ele>897.098</ele>
        <time>2021-07-18T06:04:25Z</time>
      </trkpt>
      <trkpt lat="42.454364" lon="-6.002389">
        <ele>899.450</ele>
        <time>2021-07-18T06:04:39Z</time>
      </trkpt>
      <trkpt lat="42.454348" lon="-6.002314">
        <ele>899.977</ele>
        <time>2021-07-18T06:04:45Z</time>
      </trkpt>
      <trkpt lat="42.454332" lon="-6.002205">
        <ele>901.337</ele>
        <time>2021-07-18T06:04:54Z</time>
      </trkpt>
      <trkpt lat="42.454311" lon="-6.002086">
        <ele>902.361</ele>
        <time>2021-07-18T06:05:03Z</time>
      </trkpt>
      <trkpt lat="42.454281" lon="-6.001922">
        <ele>905.219</ele>
        <time>2021-07-18T06:05:15Z</time>
      </trkpt>
      <trkpt lat="42.454277" lon="-6.001804">
        <ele>907.196</ele>
        <time>2021-07-18T06:05:24Z</time>
      </trkpt>
      <trkpt lat="42.454265" lon="-6.001672">
        <ele>909.034</ele>
        <time>2021-07-18T06:05:35Z</time>
      </trkpt>
      <trkpt lat="42.454265" lon="-6.001657">
        <ele>909.577</ele>
        <time>2021-07-18T06:05:44Z</time>
      </trkpt>
      <trkpt lat="42.454262" lon="-6.001623">
        <ele>909.561</ele>
        <time>2021-07-18T06:05:52Z</time>
      </trkpt>
      <trkpt lat="42.454245" lon="-6.001536">
        <ele>910.027</ele>
        <time>2021-07-18T06:05:59Z</time>
      </trkpt>
      <trkpt lat="42.454209" lon="-6.001415">
        <ele>911.908</ele>
        <time>2021-07-18T06:06:08Z</time>
      </trkpt>
      <trkpt lat="42.454163" lon="-6.001294">
        <ele>913.374</ele>
        <time>2021-07-18T06:06:18Z</time>
      </trkpt>
      <trkpt lat="42.454119" lon="-6.001159">
        <ele>915.346</ele>
        <time>2021-07-18T06:06:29Z</time>
      </trkpt>
      <trkpt lat="42.454117" lon="-6.001138">
        <ele>915.793</ele>
        <time>2021-07-18T06:06:37Z</time>
      </trkpt>
      <trkpt lat="42.454095" lon="-6.001056">
        <ele>916.233</ele>
        <time>2021-07-18T06:06:47Z</time>
      </trkpt>
      <trkpt lat="42.454050" lon="-6.000925">
        <ele>917.777</ele>
        <time>2021-07-18T06:06:57Z</time>
      </trkpt>
      <trkpt lat="42.454007" lon="-6.000767">
        <ele>918.635</ele>
        <time>2021-07-18T06:07:08Z</time>
      </trkpt>
      <trkpt lat="42.453959" lon="-6.000604">
        <ele>920.672</ele>
        <time>2021-07-18T06:07:19Z</time>
      </trkpt>
      <trkpt lat="42.453949" lon="-6.000565">
        <ele>920.140</ele>
        <time>2021-07-18T06:07:26Z</time>
      </trkpt>
      <trkpt lat="42.453943" lon="-6.000548">
        <ele>919.641</ele>
        <time>2021-07-18T06:07:40Z</time>
      </trkpt>
      <trkpt lat="42.453938" lon="-6.000505">
        <ele>919.681</ele>
        <time>2021-07-18T06:07:43Z</time>
      </trkpt>
      <trkpt lat="42.453937" lon="-6.000359">
        <ele>920.609</ele>
        <time>2021-07-18T06:07:51Z</time>
      </trkpt>
      <trkpt lat="42.453894" lon="-6.000147">
        <ele>921.008</ele>
        <time>2021-07-18T06:08:02Z</time>
      </trkpt>
      <trkpt lat="42.453888" lon="-6.000126">
        <ele>921.091</ele>
        <time>2021-07-18T06:08:03Z</time>
      </trkpt>
      <trkpt lat="42.453884" lon="-6.000102">
        <ele>921.083</ele>
        <time>2021-07-18T06:08:04Z</time>
      </trkpt>
      <trkpt lat="42.453866" lon="-5.999857">
        <ele>921.570</ele>
        <time>2021-07-18T06:08:14Z</time>
      </trkpt>
      <trkpt lat="42.453872" lon="-5.999574">
        <ele>922.550</ele>
        <time>2021-07-18T06:08:25Z</time>
      </trkpt>
      <trkpt lat="42.453920" lon="-5.999403">
        <ele>922.564</ele>
        <time>2021-07-18T06:08:32Z</time>
      </trkpt>
      <trkpt lat="42.453962" lon="-5.999129">
        <ele>922.542</ele>
        <time>2021-07-18T06:08:41Z</time>
      </trkpt>
      <trkpt lat="42.454111" lon="-5.998802">
        <ele>923.029</ele>
        <time>2021-07-18T06:08:51Z</time>
      </trkpt>
      <trkpt lat="42.454309" lon="-5.998473">
        <ele>923.017</ele>
        <time>2021-07-18T06:09:02Z</time>
      </trkpt>
      <trkpt lat="42.454472" lon="-5.998200">
        <ele>923.013</ele>
        <time>2021-07-18T06:09:10Z</time>
      </trkpt>
      <trkpt lat="42.454663" lon="-5.997878">
        <ele>923.043</ele>
        <time>2021-07-18T06:09:19Z</time>
      </trkpt>
      <trkpt lat="42.454838" lon="-5.997569">
        <ele>922.507</ele>
        <time>2021-07-18T06:09:28Z</time>
      </trkpt>
      <trkpt lat="42.455001" lon="-5.997330">
        <ele>922.508</ele>
        <time>2021-07-18T06:09:35Z</time>
      </trkpt>
      <trkpt lat="42.455206" lon="-5.996993">
        <ele>922.578</ele>
        <time>2021-07-18T06:09:44Z</time>
      </trkpt>
      <trkpt lat="42.455415" lon="-5.996642">
        <ele>922.040</ele>
        <time>2021-07-18T06:09:53Z</time>
      </trkpt>
      <trkpt lat="42.455686" lon="-5.996209">
        <ele>922.517</ele>
        <time>2021-07-18T06:10:04Z</time>
      </trkpt>
      <trkpt lat="42.455896" lon="-5.995887">
        <ele>922.527</ele>
        <time>2021-07-18T06:10:13Z</time>
      </trkpt>
      <trkpt lat="42.456162" lon="-5.995476">
        <ele>923.081</ele>
        <time>2021-07-18T06:10:24Z</time>
      </trkpt>
      <trkpt lat="42.456434" lon="-5.995065">
        <ele>923.079</ele>
        <time>2021-07-18T06:10:35Z</time>
      </trkpt>
      <trkpt lat="42.456663" lon="-5.994759">
        <ele>923.436</ele>
        <time>2021-07-18T06:10:44Z</time>
      </trkpt>
      <trkpt lat="42.456974" lon="-5.994367">
        <ele>923.924</ele>
        <time>2021-07-18T06:10:56Z</time>
      </trkpt>
      <trkpt lat="42.457260" lon="-5.993995">
        <ele>924.445</ele>
        <time>2021-07-18T06:11:07Z</time>
      </trkpt>
      <trkpt lat="42.457449" lon="-5.993762">
        <ele>923.947</ele>
        <time>2021-07-18T06:11:16Z</time>
      </trkpt>
      <trkpt lat="42.457651" lon="-5.993508">
        <ele>924.911</ele>
        <time>2021-07-18T06:11:25Z</time>
      </trkpt>
      <trkpt lat="42.457977" lon="-5.993100">
        <ele>925.408</ele>
        <time>2021-07-18T06:11:38Z</time>
      </trkpt>
      <trkpt lat="42.458212" lon="-5.992806">
        <ele>925.411</ele>
        <time>2021-07-18T06:11:47Z</time>
      </trkpt>
      <trkpt lat="42.458523" lon="-5.992424">
        <ele>925.423</ele>
        <time>2021-07-18T06:11:58Z</time>
      </trkpt>
      <trkpt lat="42.458793" lon="-5.992047">
        <ele>924.940</ele>
        <time>2021-07-18T06:12:09Z</time>
      </trkpt>
      <trkpt lat="42.458889" lon="-5.991765">
        <ele>925.490</ele>
        <time>2021-07-18T06:12:17Z</time>
      </trkpt>
      <trkpt lat="42.458937" lon="-5.991393">
        <ele>925.484</ele>
        <time>2021-07-18T06:12:26Z</time>
      </trkpt>
      <trkpt lat="42.459016" lon="-5.990838">
        <ele>926.392</ele>
        <time>2021-07-18T06:12:37Z</time>
      </trkpt>
      <trkpt lat="42.459059" lon="-5.990627">
        <ele>926.349</ele>
        <time>2021-07-18T06:12:41Z</time>
      </trkpt>
      <trkpt lat="42.459165" lon="-5.989963">
        <ele>925.887</ele>
        <time>2021-07-18T06:12:53Z</time>
      </trkpt>
      <trkpt lat="42.459248" lon="-5.989437">
        <ele>925.433</ele>
        <time>2021-07-18T06:13:02Z</time>
      </trkpt>
      <trkpt lat="42.459250" lon="-5.989434">
        <ele>925.423</ele>
        <time>2021-07-18T06:13:06Z</time>
      </trkpt>
      <trkpt lat="42.459264" lon="-5.989418">
        <ele>925.415</ele>
        <time>2021-07-18T06:13:15Z</time>
      </trkpt>
      <trkpt lat="42.459269" lon="-5.989401">
        <ele>925.408</ele>
        <time>2021-07-18T06:13:16Z</time>
      </trkpt>
      <trkpt lat="42.459272" lon="-5.989375">
        <ele>925.480</ele>
        <time>2021-07-18T06:13:17Z</time>
      </trkpt>
      <trkpt lat="42.459308" lon="-5.989090">
        <ele>924.912</ele>
        <time>2021-07-18T06:13:24Z</time>
      </trkpt>
      <trkpt lat="42.459384" lon="-5.988612">
        <ele>924.989</ele>
        <time>2021-07-18T06:13:32Z</time>
      </trkpt>
      <trkpt lat="42.459474" lon="-5.988043">
        <ele>925.479</ele>
        <time>2021-07-18T06:13:41Z</time>
      </trkpt>
      <trkpt lat="42.459559" lon="-5.987494">
        <ele>925.843</ele>
        <time>2021-07-18T06:13:50Z</time>
      </trkpt>
      <trkpt lat="42.459665" lon="-5.986903">
        <ele>926.351</ele>
        <time>2021-07-18T06:14:01Z</time>
      </trkpt>
      <trkpt lat="42.459744" lon="-5.986432">
        <ele>926.338</ele>
        <time>2021-07-18T06:14:11Z</time>
      </trkpt>
      <trkpt lat="42.459841" lon="-5.985929">
        <ele>925.886</ele>
        <time>2021-07-18T06:14:22Z</time>
      </trkpt>
      <trkpt lat="42.459917" lon="-5.985607">
        <ele>925.857</ele>
        <time>2021-07-18T06:14:31Z</time>
      </trkpt>
      <trkpt lat="42.459939" lon="-5.985478">
        <ele>926.300</ele>
        <time>2021-07-18T06:14:37Z</time>
      </trkpt>
      <trkpt lat="42.459940" lon="-5.985460">
        <ele>926.820</ele>
        <time>2021-07-18T06:14:38Z</time>
      </trkpt>
      <trkpt lat="42.459949" lon="-5.985440">
        <ele>926.808</ele>
        <time>2021-07-18T06:14:39Z</time>
      </trkpt>
      <trkpt lat="42.459995" lon="-5.985275">
        <ele>926.822</ele>
        <time>2021-07-18T06:14:46Z</time>
      </trkpt>
      <trkpt lat="42.460080" lon="-5.984944">
        <ele>925.834</ele>
        <time>2021-07-18T06:14:54Z</time>
      </trkpt>
      <trkpt lat="42.460189" lon="-5.984510">
        <ele>925.891</ele>
        <time>2021-07-18T06:15:04Z</time>
      </trkpt>
      <trkpt lat="42.460274" lon="-5.984069">
        <ele>925.841</ele>
        <time>2021-07-18T06:15:14Z</time>
      </trkpt>
      <trkpt lat="42.460338" lon="-5.983701">
        <ele>926.315</ele>
        <time>2021-07-18T06:15:23Z</time>
      </trkpt>
      <trkpt lat="42.460424" lon="-5.983401">
        <ele>926.343</ele>
        <time>2021-07-18T06:15:33Z</time>
      </trkpt>
      <trkpt lat="42.460483" lon="-5.983166">
        <ele>926.320</ele>
        <time>2021-07-18T06:15:40Z</time>
      </trkpt>
      <trkpt lat="42.460594" lon="-5.982726">
        <ele>925.868</ele>
        <time>2021-07-18T06:15:51Z</time>
      </trkpt>
      <trkpt lat="42.460696" lon="-5.982298">
        <ele>925.474</ele>
        <time>2021-07-18T06:16:01Z</time>
      </trkpt>
      <trkpt lat="42.460779" lon="-5.981942">
        <ele>924.956</ele>
        <time>2021-07-18T06:16:11Z</time>
      </trkpt>
      <trkpt lat="42.460835" lon="-5.981665">
        <ele>923.421</ele>
        <time>2021-07-18T06:16:20Z</time>
      </trkpt>
      <trkpt lat="42.460917" lon="-5.981423">
        <ele>921.008</ele>
        <time>2021-07-18T06:16:29Z</time>
      </trkpt>
      <trkpt lat="42.461017" lon="-5.981204">
        <ele>919.654</ele>
        <time>2021-07-18T06:16:38Z</time>
      </trkpt>
      <trkpt lat="42.461157" lon="-5.980955">
        <ele>917.226</ele>
        <time>2021-07-18T06:16:47Z</time>
      </trkpt>
      <trkpt lat="42.461273" lon="-5.980764">
        <ele>914.813</ele>
        <time>2021-07-18T06:16:55Z</time>
      </trkpt>
      <trkpt lat="42.461388" lon="-5.980557">
        <ele>912.973</ele>
        <time>2021-07-18T06:17:06Z</time>
      </trkpt>
      <trkpt lat="42.461480" lon="-5.980410">
        <ele>911.467</ele>
        <time>2021-07-18T06:17:13Z</time>
      </trkpt>
      <trkpt lat="42.461654" lon="-5.980130">
        <ele>910.565</ele>
        <time>2021-07-18T06:17:23Z</time>
      </trkpt>
      <trkpt lat="42.461760" lon="-5.979975">
        <ele>909.072</ele>
        <time>2021-07-18T06:17:30Z</time>
      </trkpt>
      <trkpt lat="42.461892" lon="-5.979786">
        <ele>906.660</ele>
        <time>2021-07-18T06:17:38Z</time>
      </trkpt>
      <trkpt lat="42.462045" lon="-5.979528">
        <ele>906.166</ele>
        <time>2021-07-18T06:17:47Z</time>
      </trkpt>
      <trkpt lat="42.462211" lon="-5.979229">
        <ele>904.229</ele>
        <time>2021-07-18T06:17:54Z</time>
      </trkpt>
      <trkpt lat="42.462449" lon="-5.978827">
        <ele>900.821</ele>
        <time>2021-07-18T06:18:03Z</time>
      </trkpt>
      <trkpt lat="42.462627" lon="-5.978506">
        <ele>899.408</ele>
        <time>2021-07-18T06:18:10Z</time>
      </trkpt>
      <trkpt lat="42.462780" lon="-5.978157">
        <ele>897.083</ele>
        <time>2021-07-18T06:18:17Z</time>
      </trkpt>
      <trkpt lat="42.462907" lon="-5.977873">
        <ele>895.675</ele>
        <time>2021-07-18T06:18:24Z</time>
      </trkpt>
      <trkpt lat="42.462940" lon="-5.977735">
        <ele>895.172</ele>
        <time>2021-07-18T06:18:30Z</time>
      </trkpt>
      <trkpt lat="42.462993" lon="-5.977527">
        <ele>894.632</ele>
        <time>2021-07-18T06:18:37Z</time>
      </trkpt>
      <trkpt lat="42.463090" lon="-5.977229">
        <ele>894.676</ele>
        <time>2021-07-18T06:18:45Z</time>
      </trkpt>
      <trkpt lat="42.463157" lon="-5.977021">
        <ele>895.664</ele>
        <time>2021-07-18T06:18:53Z</time>
      </trkpt>
      <trkpt lat="42.463256" lon="-5.976723">
        <ele>898.061</ele>
        <time>2021-07-18T06:19:03Z</time>
      </trkpt>
      <trkpt lat="42.463332" lon="-5.976460">
        <ele>900.439</ele>
        <time>2021-07-18T06:19:12Z</time>
      </trkpt>
      <trkpt lat="42.463427" lon="-5.976195">
        <ele>901.824</ele>
        <time>2021-07-18T06:19:22Z</time>
      </trkpt>
      <trkpt lat="42.463553" lon="-5.975994">
        <ele>902.804</ele>
        <time>2021-07-18T06:19:32Z</time>
      </trkpt>
      <trkpt lat="42.463640" lon="-5.975874">
        <ele>904.214</ele>
        <time>2021-07-18T06:19:40Z</time>
      </trkpt>
      <trkpt lat="42.463768" lon="-5.975740">
        <ele>905.208</ele>
        <time>2021-07-18T06:19:50Z</time>
      </trkpt>
      <trkpt lat="42.463890" lon="-5.975653">
        <ele>905.789</ele>
        <time>2021-07-18T06:19:59Z</time>
      </trkpt>
      <trkpt lat="42.463993" lon="-5.975571">
        <ele>906.141</ele>
        <time>2021-07-18T06:20:08Z</time>
      </trkpt>
      <trkpt lat="42.464117" lon="-5.975471">
        <ele>907.628</ele>
        <time>2021-07-18T06:20:19Z</time>
      </trkpt>
      <trkpt lat="42.464210" lon="-5.975397">
        <ele>908.598</ele>
        <time>2021-07-18T06:20:27Z</time>
      </trkpt>
      <trkpt lat="42.464325" lon="-5.975307">
        <ele>909.582</ele>
        <time>2021-07-18T06:20:37Z</time>
      </trkpt>
      <trkpt lat="42.464426" lon="-5.975227">
        <ele>910.970</ele>
        <time>2021-07-18T06:20:46Z</time>
      </trkpt>
      <trkpt lat="42.464533" lon="-5.975133">
        <ele>912.957</ele>
        <time>2021-07-18T06:20:55Z</time>
      </trkpt>
      <trkpt lat="42.464626" lon="-5.975018">
        <ele>914.835</ele>
        <time>2021-07-18T06:21:04Z</time>
      </trkpt>
      <trkpt lat="42.464766" lon="-5.974834">
        <ele>916.793</ele>
        <time>2021-07-18T06:21:17Z</time>
      </trkpt>
      <trkpt lat="42.464854" lon="-5.974682">
        <ele>918.665</ele>
        <time>2021-07-18T06:21:27Z</time>
      </trkpt>
      <trkpt lat="42.464959" lon="-5.974512">
        <ele>922.021</ele>
        <time>2021-07-18T06:21:38Z</time>
      </trkpt>
      <trkpt lat="42.465060" lon="-5.974327">
        <ele>923.908</ele>
        <time>2021-07-18T06:21:50Z</time>
      </trkpt>
      <trkpt lat="42.465174" lon="-5.974172">
        <ele>925.876</ele>
        <time>2021-07-18T06:22:01Z</time>
      </trkpt>
      <trkpt lat="42.465257" lon="-5.974017">
        <ele>927.328</ele>
        <time>2021-07-18T06:22:10Z</time>
      </trkpt>
      <trkpt lat="42.465344" lon="-5.973851">
        <ele>927.875</ele>
        <time>2021-07-18T06:22:18Z</time>
      </trkpt>
      <trkpt lat="42.465461" lon="-5.973598">
        <ele>928.715</ele>
        <time>2021-07-18T06:22:29Z</time>
      </trkpt>
      <trkpt lat="42.465544" lon="-5.973434">
        <ele>929.289</ele>
        <time>2021-07-18T06:22:39Z</time>
      </trkpt>
      <trkpt lat="42.465636" lon="-5.973263">
        <ele>929.237</ele>
        <time>2021-07-18T06:22:50Z</time>
      </trkpt>
      <trkpt lat="42.465715" lon="-5.973087">
        <ele>929.264</ele>
        <time>2021-07-18T06:23:00Z</time>
      </trkpt>
      <trkpt lat="42.465782" lon="-5.972944">
        <ele>929.232</ele>
        <time>2021-07-18T06:23:08Z</time>
      </trkpt>
      <trkpt lat="42.465860" lon="-5.972793">
        <ele>929.264</ele>
        <time>2021-07-18T06:23:19Z</time>
      </trkpt>
      <trkpt lat="42.465944" lon="-5.972639">
        <ele>929.206</ele>
        <time>2021-07-18T06:23:30Z</time>
      </trkpt>
      <trkpt lat="42.465975" lon="-5.972567">
        <ele>929.216</ele>
        <time>2021-07-18T06:23:39Z</time>
      </trkpt>
      <trkpt lat="42.465970" lon="-5.972568">
        <ele>928.208</ele>
        <time>2021-07-18T06:23:54Z</time>
      </trkpt>
      <trkpt lat="42.465964" lon="-5.972566">
        <ele>929.283</ele>
        <time>2021-07-18T06:24:09Z</time>
      </trkpt>
      <trkpt lat="42.465984" lon="-5.972536">
        <ele>929.755</ele>
        <time>2021-07-18T06:24:20Z</time>
      </trkpt>
      <trkpt lat="42.466058" lon="-5.972394">
        <ele>929.262</ele>
        <time>2021-07-18T06:24:26Z</time>
      </trkpt>
      <trkpt lat="42.466121" lon="-5.972214">
        <ele>929.272</ele>
        <time>2021-07-18T06:24:33Z</time>
      </trkpt>
      <trkpt lat="42.466195" lon="-5.972019">
        <ele>929.246</ele>
        <time>2021-07-18T06:24:41Z</time>
      </trkpt>
      <trkpt lat="42.466283" lon="-5.971788">
        <ele>928.724</ele>
        <time>2021-07-18T06:24:50Z</time>
      </trkpt>
      <trkpt lat="42.466392" lon="-5.971652">
        <ele>928.781</ele>
        <time>2021-07-18T06:24:57Z</time>
      </trkpt>
      <trkpt lat="42.466545" lon="-5.971503">
        <ele>927.889</ele>
        <time>2021-07-18T06:25:06Z</time>
      </trkpt>
      <trkpt lat="42.466660" lon="-5.971305">
        <ele>925.882</ele>
        <time>2021-07-18T06:25:15Z</time>
      </trkpt>
      <trkpt lat="42.466704" lon="-5.971183">
        <ele>924.443</ele>
        <time>2021-07-18T06:25:21Z</time>
      </trkpt>
      <trkpt lat="42.466712" lon="-5.971168">
        <ele>924.417</ele>
        <time>2021-07-18T06:25:22Z</time>
      </trkpt>
      <trkpt lat="42.466719" lon="-5.971150">
        <ele>923.908</ele>
        <time>2021-07-18T06:25:23Z</time>
      </trkpt>
      <trkpt lat="42.466728" lon="-5.971128">
        <ele>923.435</ele>
        <time>2021-07-18T06:25:24Z</time>
      </trkpt>
      <trkpt lat="42.466737" lon="-5.971104">
        <ele>923.077</ele>
        <time>2021-07-18T06:25:25Z</time>
      </trkpt>
      <trkpt lat="42.466845" lon="-5.970837">
        <ele>920.134</ele>
        <time>2021-07-18T06:25:35Z</time>
      </trkpt>
      <trkpt lat="42.466952" lon="-5.970619">
        <ele>918.234</ele>
        <time>2021-07-18T06:25:44Z</time>
      </trkpt>
      <trkpt lat="42.467025" lon="-5.970338">
        <ele>915.788</ele>
        <time>2021-07-18T06:25:52Z</time>
      </trkpt>
      <trkpt lat="42.467073" lon="-5.969925">
        <ele>915.326</ele>
        <time>2021-07-18T06:26:00Z</time>
      </trkpt>
      <trkpt lat="42.467103" lon="-5.969612">
        <ele>915.773</ele>
        <time>2021-07-18T06:26:08Z</time>
      </trkpt>
      <trkpt lat="42.467139" lon="-5.969363">
        <ele>916.721</ele>
        <time>2021-07-18T06:26:18Z</time>
      </trkpt>
      <trkpt lat="42.467197" lon="-5.969169">
        <ele>918.691</ele>
        <time>2021-07-18T06:26:26Z</time>
      </trkpt>
      <trkpt lat="42.467246" lon="-5.968915">
        <ele>922.581</ele>
        <time>2021-07-18T06:26:36Z</time>
      </trkpt>
      <trkpt lat="42.467278" lon="-5.968705">
        <ele>924.919</ele>
        <time>2021-07-18T06:26:45Z</time>
      </trkpt>
      <trkpt lat="42.467304" lon="-5.968514">
        <ele>926.308</ele>
        <time>2021-07-18T06:26:53Z</time>
      </trkpt>
      <trkpt lat="42.467332" lon="-5.968288">
        <ele>927.316</ele>
        <time>2021-07-18T06:27:04Z</time>
      </trkpt>
      <trkpt lat="42.467345" lon="-5.968096">
        <ele>927.888</ele>
        <time>2021-07-18T06:27:13Z</time>
      </trkpt>
      <trkpt lat="42.467370" lon="-5.967898">
        <ele>927.365</ele>
        <time>2021-07-18T06:27:22Z</time>
      </trkpt>
      <trkpt lat="42.467404" lon="-5.967632">
        <ele>927.885</ele>
        <time>2021-07-18T06:27:32Z</time>
      </trkpt>
      <trkpt lat="42.467424" lon="-5.967439">
        <ele>928.279</ele>
        <time>2021-07-18T06:27:40Z</time>
      </trkpt>
      <trkpt lat="42.467458" lon="-5.967264">
        <ele>928.747</ele>
        <time>2021-07-18T06:27:49Z</time>
      </trkpt>
      <trkpt lat="42.467482" lon="-5.967001">
        <ele>927.374</ele>
        <time>2021-07-18T06:27:59Z</time>
      </trkpt>
      <trkpt lat="42.467458" lon="-5.966629">
        <ele>923.932</ele>
        <time>2021-07-18T06:28:08Z</time>
      </trkpt>
      <trkpt lat="42.467362" lon="-5.966235">
        <ele>922.019</ele>
        <time>2021-07-18T06:28:16Z</time>
      </trkpt>
      <trkpt lat="42.467299" lon="-5.965875">
        <ele>920.609</ele>
        <time>2021-07-18T06:28:22Z</time>
      </trkpt>
      <trkpt lat="42.467252" lon="-5.965431">
        <ele>918.619</ele>
        <time>2021-07-18T06:28:30Z</time>
      </trkpt>
      <trkpt lat="42.467243" lon="-5.965321">
        <ele>917.208</ele>
        <time>2021-07-18T06:28:35Z</time>
      </trkpt>
      <trkpt lat="42.467236" lon="-5.965212">
        <ele>916.788</ele>
        <time>2021-07-18T06:28:41Z</time>
      </trkpt>
      <trkpt lat="42.467230" lon="-5.964930">
        <ele>915.740</ele>
        <time>2021-07-18T06:28:47Z</time>
      </trkpt>
      <trkpt lat="42.467263" lon="-5.964506">
        <ele>913.887</ele>
        <time>2021-07-18T06:28:53Z</time>
      </trkpt>
      <trkpt lat="42.467310" lon="-5.964096">
        <ele>912.477</ele>
        <time>2021-07-18T06:28:58Z</time>
      </trkpt>
      <trkpt lat="42.467309" lon="-5.964008">
        <ele>911.961</ele>
        <time>2021-07-18T06:28:59Z</time>
      </trkpt>
      <trkpt lat="42.467298" lon="-5.963913">
        <ele>911.479</ele>
        <time>2021-07-18T06:29:00Z</time>
      </trkpt>
      <trkpt lat="42.467215" lon="-5.963290">
        <ele>909.016</ele>
        <time>2021-07-18T06:29:07Z</time>
      </trkpt>
      <trkpt lat="42.467217" lon="-5.963113">
        <ele>908.164</ele>
        <time>2021-07-18T06:29:11Z</time>
      </trkpt>
      <trkpt lat="42.467207" lon="-5.963076">
        <ele>907.622</ele>
        <time>2021-07-18T06:29:15Z</time>
      </trkpt>
      <trkpt lat="42.467208" lon="-5.963081">
        <ele>906.662</ele>
        <time>2021-07-18T06:29:27Z</time>
      </trkpt>
      <trkpt lat="42.467209" lon="-5.963078">
        <ele>906.608</ele>
        <time>2021-07-18T06:29:44Z</time>
      </trkpt>
      <trkpt lat="42.467203" lon="-5.963042">
        <ele>906.108</ele>
        <time>2021-07-18T06:29:58Z</time>
      </trkpt>
      <trkpt lat="42.467197" lon="-5.963019">
        <ele>906.119</ele>
        <time>2021-07-18T06:29:59Z</time>
      </trkpt>
      <trkpt lat="42.467191" lon="-5.962993">
        <ele>906.151</ele>
        <time>2021-07-18T06:30:00Z</time>
      </trkpt>
      <trkpt lat="42.467119" lon="-5.962750">
        <ele>905.278</ele>
        <time>2021-07-18T06:30:09Z</time>
      </trkpt>
      <trkpt lat="42.467083" lon="-5.962569">
        <ele>904.778</ele>
        <time>2021-07-18T06:30:17Z</time>
      </trkpt>
      <trkpt lat="42.467025" lon="-5.962441">
        <ele>905.232</ele>
        <time>2021-07-18T06:30:24Z</time>
      </trkpt>
      <trkpt lat="42.466960" lon="-5.962313">
        <ele>904.240</ele>
        <time>2021-07-18T06:30:31Z</time>
      </trkpt>
      <trkpt lat="42.466889" lon="-5.962125">
        <ele>903.757</ele>
        <time>2021-07-18T06:30:38Z</time>
      </trkpt>
      <trkpt lat="42.466813" lon="-5.961841">
        <ele>902.325</ele>
        <time>2021-07-18T06:30:46Z</time>
      </trkpt>
      <trkpt lat="42.466751" lon="-5.961431">
        <ele>901.374</ele>
        <time>2021-07-18T06:30:55Z</time>
      </trkpt>
      <trkpt lat="42.466717" lon="-5.961165">
        <ele>900.856</ele>
        <time>2021-07-18T06:31:00Z</time>
      </trkpt>
      <trkpt lat="42.466712" lon="-5.961109">
        <ele>900.821</ele>
        <time>2021-07-18T06:31:01Z</time>
      </trkpt>
      <trkpt lat="42.466630" lon="-5.960471">
        <ele>899.908</ele>
        <time>2021-07-18T06:31:12Z</time>
      </trkpt>
      <trkpt lat="42.466563" lon="-5.959944">
        <ele>898.434</ele>
        <time>2021-07-18T06:31:21Z</time>
      </trkpt>
      <trkpt lat="42.466531" lon="-5.959707">
        <ele>898.036</ele>
        <time>2021-07-18T06:31:25Z</time>
      </trkpt>
      <trkpt lat="42.466489" lon="-5.959361">
        <ele>897.023</ele>
        <time>2021-07-18T06:31:32Z</time>
      </trkpt>
      <trkpt lat="42.466406" lon="-5.959135">
        <ele>896.043</ele>
        <time>2021-07-18T06:31:38Z</time>
      </trkpt>
      <trkpt lat="42.466295" lon="-5.958822">
        <ele>895.127</ele>
        <time>2021-07-18T06:31:45Z</time>
      </trkpt>
      <trkpt lat="42.466148" lon="-5.958365">
        <ele>894.175</ele>
        <time>2021-07-18T06:31:54Z</time>
      </trkpt>
      <trkpt lat="42.466068" lon="-5.958000">
        <ele>892.742</ele>
        <time>2021-07-18T06:32:01Z</time>
      </trkpt>
      <trkpt lat="42.465981" lon="-5.957493">
        <ele>891.750</ele>
        <time>2021-07-18T06:32:10Z</time>
      </trkpt>
      <trkpt lat="42.465913" lon="-5.957093">
        <ele>890.834</ele>
        <time>2021-07-18T06:32:18Z</time>
      </trkpt>
      <trkpt lat="42.465824" lon="-5.956581">
        <ele>889.355</ele>
        <time>2021-07-18T06:32:28Z</time>
      </trkpt>
      <trkpt lat="42.465757" lon="-5.956246">
        <ele>888.410</ele>
        <time>2021-07-18T06:32:35Z</time>
      </trkpt>
      <trkpt lat="42.465703" lon="-5.955959">
        <ele>887.908</ele>
        <time>2021-07-18T06:32:42Z</time>
      </trkpt>
      <trkpt lat="42.465635" lon="-5.955670">
        <ele>886.940</ele>
        <time>2021-07-18T06:32:51Z</time>
      </trkpt>
      <trkpt lat="42.465555" lon="-5.955261">
        <ele>885.982</ele>
        <time>2021-07-18T06:32:59Z</time>
      </trkpt>
      <trkpt lat="42.465472" lon="-5.954935">
        <ele>885.979</ele>
        <time>2021-07-18T06:33:06Z</time>
      </trkpt>
      <trkpt lat="42.465350" lon="-5.954469">
        <ele>885.039</ele>
        <time>2021-07-18T06:33:16Z</time>
      </trkpt>
      <trkpt lat="42.465282" lon="-5.954276">
        <ele>884.513</ele>
        <time>2021-07-18T06:33:20Z</time>
      </trkpt>
      <trkpt lat="42.465165" lon="-5.953769">
        <ele>883.551</ele>
        <time>2021-07-18T06:33:29Z</time>
      </trkpt>
      <trkpt lat="42.465135" lon="-5.953464">
        <ele>882.638</ele>
        <time>2021-07-18T06:33:35Z</time>
      </trkpt>
      <trkpt lat="42.465135" lon="-5.952885">
        <ele>881.656</ele>
        <time>2021-07-18T06:33:44Z</time>
      </trkpt>
      <trkpt lat="42.465143" lon="-5.952182">
        <ele>879.217</ele>
        <time>2021-07-18T06:33:54Z</time>
      </trkpt>
      <trkpt lat="42.465153" lon="-5.951298">
        <ele>876.887</ele>
        <time>2021-07-18T06:34:05Z</time>
      </trkpt>
      <trkpt lat="42.465234" lon="-5.950533">
        <ele>875.915</ele>
        <time>2021-07-18T06:34:14Z</time>
      </trkpt>
      <trkpt lat="42.465335" lon="-5.949915">
        <ele>876.308</ele>
        <time>2021-07-18T06:34:23Z</time>
      </trkpt>
      <trkpt lat="42.465425" lon="-5.949285">
        <ele>876.858</ele>
        <time>2021-07-18T06:34:35Z</time>
      </trkpt>
      <trkpt lat="42.465504" lon="-5.948765">
        <ele>877.390</ele>
        <time>2021-07-18T06:34:45Z</time>
      </trkpt>
      <trkpt lat="42.465579" lon="-5.948232">
        <ele>878.357</ele>
        <time>2021-07-18T06:34:57Z</time>
      </trkpt>
      <trkpt lat="42.465625" lon="-5.947852">
        <ele>878.797</ele>
        <time>2021-07-18T06:35:07Z</time>
      </trkpt>
      <trkpt lat="42.465686" lon="-5.947354">
        <ele>880.291</ele>
        <time>2021-07-18T06:35:21Z</time>
      </trkpt>
      <trkpt lat="42.465752" lon="-5.946822">
        <ele>881.619</ele>
        <time>2021-07-18T06:35:35Z</time>
      </trkpt>
      <trkpt lat="42.465806" lon="-5.946418">
        <ele>883.596</ele>
        <time>2021-07-18T06:35:46Z</time>
      </trkpt>
      <trkpt lat="42.465842" lon="-5.946221">
        <ele>884.014</ele>
        <time>2021-07-18T06:35:54Z</time>
      </trkpt>
      <trkpt lat="42.465841" lon="-5.946227">
        <ele>883.171</ele>
        <time>2021-07-18T06:36:11Z</time>
      </trkpt>
      <trkpt lat="42.465843" lon="-5.946225">
        <ele>882.141</ele>
        <time>2021-07-18T06:36:24Z</time>
      </trkpt>
      <trkpt lat="42.465836" lon="-5.946234">
        <ele>882.115</ele>
        <time>2021-07-18T06:36:34Z</time>
      </trkpt>
      <trkpt lat="42.465831" lon="-5.946232">
        <ele>881.108</ele>
        <time>2021-07-18T06:36:53Z</time>
      </trkpt>
      <trkpt lat="42.465842" lon="-5.946226">
        <ele>881.634</ele>
        <time>2021-07-18T06:37:10Z</time>
      </trkpt>
      <trkpt lat="42.465864" lon="-5.946098">
        <ele>881.696</ele>
        <time>2021-07-18T06:37:16Z</time>
      </trkpt>
      <trkpt lat="42.465907" lon="-5.945668">
        <ele>883.573</ele>
        <time>2021-07-18T06:37:29Z</time>
      </trkpt>
      <trkpt lat="42.465902" lon="-5.945350">
        <ele>885.013</ele>
        <time>2021-07-18T06:37:38Z</time>
      </trkpt>
      <trkpt lat="42.465890" lon="-5.945111">
        <ele>886.957</ele>
        <time>2021-07-18T06:37:47Z</time>
      </trkpt>
      <trkpt lat="42.465877" lon="-5.944958">
        <ele>888.425</ele>
        <time>2021-07-18T06:37:55Z</time>
      </trkpt>
      <trkpt lat="42.465838" lon="-5.944757">
        <ele>889.352</ele>
        <time>2021-07-18T06:38:05Z</time>
      </trkpt>
      <trkpt lat="42.465813" lon="-5.944680">
        <ele>889.810</ele>
        <time>2021-07-18T06:38:12Z</time>
      </trkpt>
      <trkpt lat="42.465804" lon="-5.944687">
        <ele>889.356</ele>
        <time>2021-07-18T06:38:29Z</time>
      </trkpt>
      <trkpt lat="42.465779" lon="-5.944586">
        <ele>890.359</ele>
        <time>2021-07-18T06:38:34Z</time>
      </trkpt>
      <trkpt lat="42.465702" lon="-5.944281">
        <ele>891.214</ele>
        <time>2021-07-18T06:38:44Z</time>
      </trkpt>
      <trkpt lat="42.465586" lon="-5.943920">
        <ele>892.208</ele>
        <time>2021-07-18T06:38:56Z</time>
      </trkpt>
      <trkpt lat="42.465500" lon="-5.943643">
        <ele>893.212</ele>
        <time>2021-07-18T06:39:05Z</time>
      </trkpt>
      <trkpt lat="42.465399" lon="-5.943351">
        <ele>894.174</ele>
        <time>2021-07-18T06:39:15Z</time>
      </trkpt>
      <trkpt lat="42.465339" lon="-5.943169">
        <ele>894.651</ele>
        <time>2021-07-18T06:39:23Z</time>
      </trkpt>
      <trkpt lat="42.465364" lon="-5.943024">
        <ele>894.691</ele>
        <time>2021-07-18T06:39:31Z</time>
      </trkpt>
      <trkpt lat="42.465407" lon="-5.943012">
        <ele>894.615</ele>
        <time>2021-07-18T06:39:35Z</time>
      </trkpt>
      <trkpt lat="42.465416" lon="-5.943017">
        <ele>894.643</ele>
        <time>2021-07-18T06:39:36Z</time>
      </trkpt>
      <trkpt lat="42.465424" lon="-5.943027">
        <ele>894.620</ele>
        <time>2021-07-18T06:39:37Z</time>
      </trkpt>
      <trkpt lat="42.465432" lon="-5.943049">
        <ele>895.118</ele>
        <time>2021-07-18T06:39:44Z</time>
      </trkpt>
      <trkpt lat="42.465411" lon="-5.943051">
        <ele>895.654</ele>
        <time>2021-07-18T06:39:51Z</time>
      </trkpt>
      <trkpt lat="42.465396" lon="-5.943045">
        <ele>895.656</ele>
        <time>2021-07-18T06:39:52Z</time>
      </trkpt>
      <trkpt lat="42.465382" lon="-5.943034">
        <ele>895.611</ele>
        <time>2021-07-18T06:39:53Z</time>
      </trkpt>
      <trkpt lat="42.465371" lon="-5.943024">
        <ele>895.608</ele>
        <time>2021-07-18T06:39:54Z</time>
      </trkpt>
      <trkpt lat="42.465349" lon="-5.943014">
        <ele>895.692</ele>
        <time>2021-07-18T06:39:55Z</time>
      </trkpt>
      <trkpt lat="42.465324" lon="-5.943007">
        <ele>895.664</ele>
        <time>2021-07-18T06:39:56Z</time>
      </trkpt>
      <trkpt lat="42.465308" lon="-5.943003">
        <ele>895.621</ele>
        <time>2021-07-18T06:39:57Z</time>
      </trkpt>
      <trkpt lat="42.465167" lon="-5.942887">
        <ele>894.121</ele>
        <time>2021-07-18T06:40:04Z</time>
      </trkpt>
      <trkpt lat="42.465062" lon="-5.942717">
        <ele>893.665</ele>
        <time>2021-07-18T06:40:10Z</time>
      </trkpt>
      <trkpt lat="42.464903" lon="-5.942438">
        <ele>891.713</ele>
        <time>2021-07-18T06:40:18Z</time>
      </trkpt>
      <trkpt lat="42.464725" lon="-5.942166">
        <ele>890.390</ele>
        <time>2021-07-18T06:40:26Z</time>
      </trkpt>
      <trkpt lat="42.464568" lon="-5.941850">
        <ele>889.858</ele>
        <time>2021-07-18T06:40:34Z</time>
      </trkpt>
      <trkpt lat="42.464488" lon="-5.941473">
        <ele>889.847</ele>
        <time>2021-07-18T06:40:43Z</time>
      </trkpt>
      <trkpt lat="42.464408" lon="-5.941099">
        <ele>889.329</ele>
        <time>2021-07-18T06:40:52Z</time>
      </trkpt>
      <trkpt lat="42.464232" lon="-5.940665">
        <ele>888.421</ele>
        <time>2021-07-18T06:41:02Z</time>
      </trkpt>
      <trkpt lat="42.464062" lon="-5.940302">
        <ele>887.908</ele>
        <time>2021-07-18T06:41:11Z</time>
      </trkpt>
      <trkpt lat="42.463930" lon="-5.940069">
        <ele>887.951</ele>
        <time>2021-07-18T06:41:19Z</time>
      </trkpt>
      <trkpt lat="42.463780" lon="-5.939835">
        <ele>888.443</ele>
        <time>2021-07-18T06:41:28Z</time>
      </trkpt>
      <trkpt lat="42.463667" lon="-5.939607">
        <ele>888.810</ele>
        <time>2021-07-18T06:41:37Z</time>
      </trkpt>
      <trkpt lat="42.463494" lon="-5.939402">
        <ele>888.420</ele>
        <time>2021-07-18T06:41:47Z</time>
      </trkpt>
      <trkpt lat="42.463375" lon="-5.939279">
        <ele>887.424</ele>
        <time>2021-07-18T06:41:54Z</time>
      </trkpt>
      <trkpt lat="42.463210" lon="-5.939109">
        <ele>885.042</ele>
        <time>2021-07-18T06:42:02Z</time>
      </trkpt>
      <trkpt lat="42.463070" lon="-5.938986">
        <ele>883.539</ele>
        <time>2021-07-18T06:42:09Z</time>
      </trkpt>
      <trkpt lat="42.462963" lon="-5.938884">
        <ele>881.677</ele>
        <time>2021-07-18T06:42:15Z</time>
      </trkpt>
      <trkpt lat="42.462771" lon="-5.938711">
        <ele>879.797</ele>
        <time>2021-07-18T06:42:24Z</time>
      </trkpt>
      <trkpt lat="42.462578" lon="-5.938528">
        <ele>878.723</ele>
        <time>2021-07-18T06:42:33Z</time>
      </trkpt>
      <trkpt lat="42.462463" lon="-5.938404">
        <ele>878.725</ele>
        <time>2021-07-18T06:42:40Z</time>
      </trkpt>
      <trkpt lat="42.462321" lon="-5.938254">
        <ele>878.308</ele>
        <time>2021-07-18T06:42:48Z</time>
      </trkpt>
      <trkpt lat="42.462167" lon="-5.938031">
        <ele>877.896</ele>
        <time>2021-07-18T06:42:56Z</time>
      </trkpt>
      <trkpt lat="42.462051" lon="-5.937834">
        <ele>877.348</ele>
        <time>2021-07-18T06:43:04Z</time>
      </trkpt>
      <trkpt lat="42.461917" lon="-5.937658">
        <ele>876.885</ele>
        <time>2021-07-18T06:43:13Z</time>
      </trkpt>
      <trkpt lat="42.461828" lon="-5.937432">
        <ele>876.315</ele>
        <time>2021-07-18T06:43:21Z</time>
      </trkpt>
      <trkpt lat="42.461743" lon="-5.937195">
        <ele>875.429</ele>
        <time>2021-07-18T06:43:28Z</time>
      </trkpt>
      <trkpt lat="42.461671" lon="-5.936900">
        <ele>874.467</ele>
        <time>2021-07-18T06:43:35Z</time>
      </trkpt>
      <trkpt lat="42.461601" lon="-5.936678">
        <ele>873.994</ele>
        <time>2021-07-18T06:43:41Z</time>
      </trkpt>
      <trkpt lat="42.461503" lon="-5.936473">
        <ele>873.542</ele>
        <time>2021-07-18T06:43:49Z</time>
      </trkpt>
      <trkpt lat="42.461382" lon="-5.936273">
        <ele>872.547</ele>
        <time>2021-07-18T06:43:57Z</time>
      </trkpt>
      <trkpt lat="42.461266" lon="-5.936089">
        <ele>871.529</ele>
        <time>2021-07-18T06:44:05Z</time>
      </trkpt>
      <trkpt lat="42.461158" lon="-5.935937">
        <ele>871.021</ele>
        <time>2021-07-18T06:44:12Z</time>
      </trkpt>
      <trkpt lat="42.461048" lon="-5.935705">
        <ele>870.108</ele>
        <time>2021-07-18T06:44:21Z</time>
      </trkpt>
      <trkpt lat="42.460950" lon="-5.935546">
        <ele>870.111</ele>
        <time>2021-07-18T06:44:27Z</time>
      </trkpt>
      <trkpt lat="42.460812" lon="-5.935319">
        <ele>869.693</ele>
        <time>2021-07-18T06:44:34Z</time>
      </trkpt>
      <trkpt lat="42.460645" lon="-5.935097">
        <ele>868.680</ele>
        <time>2021-07-18T06:44:41Z</time>
      </trkpt>
      <trkpt lat="42.460452" lon="-5.934882">
        <ele>869.640</ele>
        <time>2021-07-18T06:44:50Z</time>
      </trkpt>
      <trkpt lat="42.460302" lon="-5.934673">
        <ele>870.124</ele>
        <time>2021-07-18T06:44:58Z</time>
      </trkpt>
      <trkpt lat="42.460170" lon="-5.934395">
        <ele>870.612</ele>
        <time>2021-07-18T06:45:07Z</time>
      </trkpt>
      <trkpt lat="42.460058" lon="-5.934099">
        <ele>870.199</ele>
        <time>2021-07-18T06:45:16Z</time>
      </trkpt>
      <trkpt lat="42.459953" lon="-5.933828">
        <ele>869.677</ele>
        <time>2021-07-18T06:45:25Z</time>
      </trkpt>
      <trkpt lat="42.459885" lon="-5.933648">
        <ele>868.657</ele>
        <time>2021-07-18T06:45:32Z</time>
      </trkpt>
      <trkpt lat="42.459797" lon="-5.933468">
        <ele>868.600</ele>
        <time>2021-07-18T06:45:40Z</time>
      </trkpt>
      <trkpt lat="42.459693" lon="-5.933267">
        <ele>869.120</ele>
        <time>2021-07-18T06:45:49Z</time>
      </trkpt>
      <trkpt lat="42.459588" lon="-5.933103">
        <ele>868.208</ele>
        <time>2021-07-18T06:45:55Z</time>
      </trkpt>
      <trkpt lat="42.459448" lon="-5.932858">
        <ele>867.282</ele>
        <time>2021-07-18T06:46:04Z</time>
      </trkpt>
      <trkpt lat="42.459279" lon="-5.932591">
        <ele>866.244</ele>
        <time>2021-07-18T06:46:14Z</time>
      </trkpt>
      <trkpt lat="42.459214" lon="-5.932490">
        <ele>866.221</ele>
        <time>2021-07-18T06:46:20Z</time>
      </trkpt>
      <trkpt lat="42.459119" lon="-5.932333">
        <ele>865.821</ele>
        <time>2021-07-18T06:46:27Z</time>
      </trkpt>
      <trkpt lat="42.458995" lon="-5.932110">
        <ele>864.815</ele>
        <time>2021-07-18T06:46:33Z</time>
      </trkpt>
      <trkpt lat="42.458893" lon="-5.931849">
        <ele>862.963</ele>
        <time>2021-07-18T06:46:39Z</time>
      </trkpt>
      <trkpt lat="42.458754" lon="-5.931514">
        <ele>861.090</ele>
        <time>2021-07-18T06:46:46Z</time>
      </trkpt>
      <trkpt lat="42.458666" lon="-5.931284">
        <ele>860.058</ele>
        <time>2021-07-18T06:46:50Z</time>
      </trkpt>
      <trkpt lat="42.458610" lon="-5.931165">
        <ele>859.089</ele>
        <time>2021-07-18T06:46:52Z</time>
      </trkpt>
      <trkpt lat="42.458445" lon="-5.930858">
        <ele>858.106</ele>
        <time>2021-07-18T06:47:00Z</time>
      </trkpt>
      <trkpt lat="42.458421" lon="-5.930667">
        <ele>856.626</ele>
        <time>2021-07-18T06:47:06Z</time>
      </trkpt>
      <trkpt lat="42.458408" lon="-5.930410">
        <ele>855.208</ele>
        <time>2021-07-18T06:47:12Z</time>
      </trkpt>
      <trkpt lat="42.458412" lon="-5.930387">
        <ele>855.285</ele>
        <time>2021-07-18T06:47:13Z</time>
      </trkpt>
      <trkpt lat="42.458399" lon="-5.930296">
        <ele>854.227</ele>
        <time>2021-07-18T06:47:19Z</time>
      </trkpt>
      <trkpt lat="42.458375" lon="-5.930302">
        <ele>854.274</ele>
        <time>2021-07-18T06:47:20Z</time>
      </trkpt>
      <trkpt lat="42.458201" lon="-5.930313">
        <ele>855.264</ele>
        <time>2021-07-18T06:47:28Z</time>
      </trkpt>
      <trkpt lat="42.458152" lon="-5.930312">
        <ele>857.128</ele>
        <time>2021-07-18T06:47:33Z</time>
      </trkpt>
      <trkpt lat="42.458151" lon="-5.930323">
        <ele>859.546</ele>
        <time>2021-07-18T06:47:42Z</time>
      </trkpt>
      <trkpt lat="42.458150" lon="-5.930319">
        <ele>862.433</ele>
        <time>2021-07-18T06:47:52Z</time>
      </trkpt>
      <trkpt lat="42.458148" lon="-5.930211">
        <ele>863.431</ele>
        <time>2021-07-18T06:47:59Z</time>
      </trkpt>
      <trkpt lat="42.458153" lon="-5.930222">
        <ele>864.359</ele>
        <time>2021-07-18T06:48:06Z</time>
      </trkpt>
      <trkpt lat="42.458159" lon="-5.930227">
        <ele>864.803</ele>
        <time>2021-07-18T06:48:08Z</time>
      </trkpt>
      <trkpt lat="42.458220" lon="-5.930287">
        <ele>865.323</ele>
        <time>2021-07-18T06:48:13Z</time>
      </trkpt>
      <trkpt lat="42.458236" lon="-5.930304">
        <ele>865.308</ele>
        <time>2021-07-18T06:48:14Z</time>
      </trkpt>
      <trkpt lat="42.458251" lon="-5.930308">
        <ele>864.852</ele>
        <time>2021-07-18T06:48:15Z</time>
      </trkpt>
      <trkpt lat="42.458271" lon="-5.930312">
        <ele>864.894</ele>
        <time>2021-07-18T06:48:16Z</time>
      </trkpt>
      <trkpt lat="42.458291" lon="-5.930316">
        <ele>865.351</ele>
        <time>2021-07-18T06:48:17Z</time>
      </trkpt>
      <trkpt lat="42.458310" lon="-5.930320">
        <ele>865.811</ele>
        <time>2021-07-18T06:48:18Z</time>
      </trkpt>
      <trkpt lat="42.458437" lon="-5.930310">
        <ele>866.795</ele>
        <time>2021-07-18T06:48:24Z</time>
      </trkpt>
      <trkpt lat="42.458702" lon="-5.930272">
        <ele>867.293</ele>
        <time>2021-07-18T06:48:33Z</time>
      </trkpt>
      <trkpt lat="42.458861" lon="-5.930211">
        <ele>866.780</ele>
        <time>2021-07-18T06:48:39Z</time>
      </trkpt>
      <trkpt lat="42.459169" lon="-5.930204">
        <ele>870.128</ele>
        <time>2021-07-18T06:48:48Z</time>
      </trkpt>
      <trkpt lat="42.459478" lon="-5.930156">
        <ele>870.654</ele>
        <time>2021-07-18T06:48:57Z</time>
      </trkpt>
      <trkpt lat="42.459675" lon="-5.930071">
        <ele>871.556</ele>
        <time>2021-07-18T06:49:03Z</time>
      </trkpt>
      <trkpt lat="42.459890" lon="-5.929872">
        <ele>872.011</ele>
        <time>2021-07-18T06:49:11Z</time>
      </trkpt>
      <trkpt lat="42.460128" lon="-5.929680">
        <ele>872.508</ele>
        <time>2021-07-18T06:49:20Z</time>
      </trkpt>
      <trkpt lat="42.460413" lon="-5.929408">
        <ele>870.652</ele>
        <time>2021-07-18T06:49:31Z</time>
      </trkpt>
      <trkpt lat="42.460604" lon="-5.929124">
        <ele>865.374</ele>
        <time>2021-07-18T06:49:39Z</time>
      </trkpt>
      <trkpt lat="42.460826" lon="-5.929019">
        <ele>862.471</ele>
        <time>2021-07-18T06:49:45Z</time>
      </trkpt>
      <trkpt lat="42.461184" lon="-5.928915">
        <ele>860.521</ele>
        <time>2021-07-18T06:49:55Z</time>
      </trkpt>
      <trkpt lat="42.461500" lon="-5.928829">
        <ele>860.585</ele>
        <time>2021-07-18T06:50:04Z</time>
      </trkpt>
      <trkpt lat="42.461823" lon="-5.928743">
        <ele>859.543</ele>
        <time>2021-07-18T06:50:14Z</time>
      </trkpt>
      <trkpt lat="42.462106" lon="-5.928707">
        <ele>858.560</ele>
        <time>2021-07-18T06:50:23Z</time>
      </trkpt>
      <trkpt lat="42.462363" lon="-5.928650">
        <ele>858.598</ele>
        <time>2021-07-18T06:50:31Z</time>
      </trkpt>
      <trkpt lat="42.462582" lon="-5.928442">
        <ele>858.589</ele>
        <time>2021-07-18T06:50:39Z</time>
      </trkpt>
      <trkpt lat="42.462773" lon="-5.928108">
        <ele>860.006</ele>
        <time>2021-07-18T06:50:49Z</time>
      </trkpt>
      <trkpt lat="42.462920" lon="-5.927828">
        <ele>861.426</ele>
        <time>2021-07-18T06:50:58Z</time>
      </trkpt>
      <trkpt lat="42.463053" lon="-5.927582">
        <ele>862.908</ele>
        <time>2021-07-18T06:51:06Z</time>
      </trkpt>
      <trkpt lat="42.463180" lon="-5.927330">
        <ele>863.415</ele>
        <time>2021-07-18T06:51:15Z</time>
      </trkpt>
      <trkpt lat="42.463312" lon="-5.927063">
        <ele>864.357</ele>
        <time>2021-07-18T06:51:25Z</time>
      </trkpt>
      <trkpt lat="42.463456" lon="-5.926775">
        <ele>865.874</ele>
        <time>2021-07-18T06:51:36Z</time>
      </trkpt>
      <trkpt lat="42.463552" lon="-5.926578">
        <ele>867.254</ele>
        <time>2021-07-18T06:51:44Z</time>
      </trkpt>
      <trkpt lat="42.463643" lon="-5.926397">
        <ele>868.288</ele>
        <time>2021-07-18T06:51:52Z</time>
      </trkpt>
      <trkpt lat="42.463750" lon="-5.926163">
        <ele>869.696</ele>
        <time>2021-07-18T06:52:02Z</time>
      </trkpt>
      <trkpt lat="42.463848" lon="-5.925942">
        <ele>871.043</ele>
        <time>2021-07-18T06:52:12Z</time>
      </trkpt>
      <trkpt lat="42.463944" lon="-5.925702">
        <ele>872.591</ele>
        <time>2021-07-18T06:52:23Z</time>
      </trkpt>
      <trkpt lat="42.464040" lon="-5.925458">
        <ele>873.558</ele>
        <time>2021-07-18T06:52:34Z</time>
      </trkpt>
      <trkpt lat="42.464101" lon="-5.925275">
        <ele>874.452</ele>
        <time>2021-07-18T06:52:42Z</time>
      </trkpt>
      <trkpt lat="42.464156" lon="-5.925074">
        <ele>875.417</ele>
        <time>2021-07-18T06:52:51Z</time>
      </trkpt>
      <trkpt lat="42.464209" lon="-5.924866">
        <ele>876.308</ele>
        <time>2021-07-18T06:53:00Z</time>
      </trkpt>
      <trkpt lat="42.464285" lon="-5.924627">
        <ele>877.352</ele>
        <time>2021-07-18T06:53:10Z</time>
      </trkpt>
      <trkpt lat="42.464366" lon="-5.924410">
        <ele>878.794</ele>
        <time>2021-07-18T06:53:19Z</time>
      </trkpt>
      <trkpt lat="42.464468" lon="-5.924160">
        <ele>881.171</ele>
        <time>2021-07-18T06:53:29Z</time>
      </trkpt>
      <trkpt lat="42.464526" lon="-5.923997">
        <ele>881.611</ele>
        <time>2021-07-18T06:53:36Z</time>
      </trkpt>
      <trkpt lat="42.464563" lon="-5.923775">
        <ele>881.195</ele>
        <time>2021-07-18T06:53:43Z</time>
      </trkpt>
      <trkpt lat="42.464581" lon="-5.923373">
        <ele>878.363</ele>
        <time>2021-07-18T06:53:51Z</time>
      </trkpt>
      <trkpt lat="42.464580" lon="-5.923158">
        <ele>875.960</ele>
        <time>2021-07-18T06:53:58Z</time>
      </trkpt>
      <trkpt lat="42.464582" lon="-5.923132">
        <ele>875.448</ele>
        <time>2021-07-18T06:54:03Z</time>
      </trkpt>
      <trkpt lat="42.464579" lon="-5.923117">
        <ele>875.444</ele>
        <time>2021-07-18T06:54:18Z</time>
      </trkpt>
      <trkpt lat="42.464560" lon="-5.922934">
        <ele>873.905</ele>
        <time>2021-07-18T06:54:23Z</time>
      </trkpt>
      <trkpt lat="42.464452" lon="-5.922552">
        <ele>871.015</ele>
        <time>2021-07-18T06:54:30Z</time>
      </trkpt>
      <trkpt lat="42.464294" lon="-5.922078">
        <ele>867.708</ele>
        <time>2021-07-18T06:54:38Z</time>
      </trkpt>
      <trkpt lat="42.464179" lon="-5.921708">
        <ele>864.861</ele>
        <time>2021-07-18T06:54:45Z</time>
      </trkpt>
      <trkpt lat="42.464066" lon="-5.921368">
        <ele>861.923</ele>
        <time>2021-07-18T06:54:50Z</time>
      </trkpt>
      <trkpt lat="42.463914" lon="-5.920891">
        <ele>857.610</ele>
        <time>2021-07-18T06:54:55Z</time>
      </trkpt>
      <trkpt lat="42.463788" lon="-5.920442">
        <ele>854.250</ele>
        <time>2021-07-18T06:54:59Z</time>
      </trkpt>
      <trkpt lat="42.463772" lon="-5.920317">
        <ele>853.394</ele>
        <time>2021-07-18T06:55:00Z</time>
      </trkpt>
      <trkpt lat="42.463704" lon="-5.919536">
        <ele>847.532</ele>
        <time>2021-07-18T06:55:06Z</time>
      </trkpt>
      <trkpt lat="42.463693" lon="-5.918882">
        <ele>844.689</ele>
        <time>2021-07-18T06:55:12Z</time>
      </trkpt>
      <trkpt lat="42.463698" lon="-5.918014">
        <ele>840.377</ele>
        <time>2021-07-18T06:55:20Z</time>
      </trkpt>
      <trkpt lat="42.463691" lon="-5.917471">
        <ele>837.921</ele>
        <time>2021-07-18T06:55:25Z</time>
      </trkpt>
      <trkpt lat="42.463673" lon="-5.917262">
        <ele>836.941</ele>
        <time>2021-07-18T06:55:29Z</time>
      </trkpt>
      <trkpt lat="42.463707" lon="-5.917135">
        <ele>836.905</ele>
        <time>2021-07-18T06:55:34Z</time>
      </trkpt>
      <trkpt lat="42.463735" lon="-5.917121">
        <ele>836.908</ele>
        <time>2021-07-18T06:55:35Z</time>
      </trkpt>
      <trkpt lat="42.463764" lon="-5.917112">
        <ele>837.449</ele>
        <time>2021-07-18T06:55:36Z</time>
      </trkpt>
      <trkpt lat="42.464020" lon="-5.917023">
        <ele>837.921</ele>
        <time>2021-07-18T06:55:43Z</time>
      </trkpt>
      <trkpt lat="42.464343" lon="-5.916877">
        <ele>837.938</ele>
        <time>2021-07-18T06:55:51Z</time>
      </trkpt>
      <trkpt lat="42.464767" lon="-5.916715">
        <ele>838.498</ele>
        <time>2021-07-18T06:56:01Z</time>
      </trkpt>
      <trkpt lat="42.465009" lon="-5.916624">
        <ele>838.482</ele>
        <time>2021-07-18T06:56:07Z</time>
      </trkpt>
      <trkpt lat="42.465049" lon="-5.916607">
        <ele>838.420</ele>
        <time>2021-07-18T06:56:08Z</time>
      </trkpt>
      <trkpt lat="42.465092" lon="-5.916592">
        <ele>838.497</ele>
        <time>2021-07-18T06:56:09Z</time>
      </trkpt>
      <trkpt lat="42.465133" lon="-5.916578">
        <ele>838.475</ele>
        <time>2021-07-18T06:56:10Z</time>
      </trkpt>
      <trkpt lat="42.465174" lon="-5.916560">
        <ele>838.483</ele>
        <time>2021-07-18T06:56:11Z</time>
      </trkpt>
      <trkpt lat="42.465592" lon="-5.916393">
        <ele>838.825</ele>
        <time>2021-07-18T06:56:21Z</time>
      </trkpt>
      <trkpt lat="42.465718" lon="-5.916343">
        <ele>838.817</ele>
        <time>2021-07-18T06:56:24Z</time>
      </trkpt>
      <trkpt lat="42.465808" lon="-5.916316">
        <ele>838.808</ele>
        <time>2021-07-18T06:56:26Z</time>
      </trkpt>
      <trkpt lat="42.466236" lon="-5.916131">
        <ele>838.895</ele>
        <time>2021-07-18T06:56:36Z</time>
      </trkpt>
      <trkpt lat="42.466684" lon="-5.915955">
        <ele>838.817</ele>
        <time>2021-07-18T06:56:46Z</time>
      </trkpt>
      <trkpt lat="42.467199" lon="-5.915734">
        <ele>838.894</ele>
        <time>2021-07-18T06:56:58Z</time>
      </trkpt>
      <trkpt lat="42.467622" lon="-5.915564">
        <ele>839.354</ele>
        <time>2021-07-18T06:57:09Z</time>
      </trkpt>
      <trkpt lat="42.467950" lon="-5.915422">
        <ele>838.838</ele>
        <time>2021-07-18T06:57:17Z</time>
      </trkpt>
      <trkpt lat="42.468372" lon="-5.915163">
        <ele>839.376</ele>
        <time>2021-07-18T06:57:27Z</time>
      </trkpt>
      <trkpt lat="42.468814" lon="-5.914847">
        <ele>839.363</ele>
        <time>2021-07-18T06:57:38Z</time>
      </trkpt>
      <trkpt lat="42.469178" lon="-5.914588">
        <ele>839.841</ele>
        <time>2021-07-18T06:57:47Z</time>
      </trkpt>
      <trkpt lat="42.469584" lon="-5.914290">
        <ele>839.851</ele>
        <time>2021-07-18T06:57:57Z</time>
      </trkpt>
      <trkpt lat="42.469984" lon="-5.914002">
        <ele>840.301</ele>
        <time>2021-07-18T06:58:07Z</time>
      </trkpt>
      <trkpt lat="42.470339" lon="-5.913753">
        <ele>840.311</ele>
        <time>2021-07-18T06:58:16Z</time>
      </trkpt>
      <trkpt lat="42.470748" lon="-5.913459">
        <ele>841.208</ele>
        <time>2021-07-18T06:58:27Z</time>
      </trkpt>
      <trkpt lat="42.471029" lon="-5.913262">
        <ele>841.712</ele>
        <time>2021-07-18T06:58:35Z</time>
      </trkpt>
      <trkpt lat="42.471105" lon="-5.913176">
        <ele>842.244</ele>
        <time>2021-07-18T06:58:38Z</time>
      </trkpt>
      <trkpt lat="42.471106" lon="-5.913133">
        <ele>841.711</ele>
        <time>2021-07-18T06:58:39Z</time>
      </trkpt>
      <trkpt lat="42.471100" lon="-5.913091">
        <ele>841.721</ele>
        <time>2021-07-18T06:58:40Z</time>
      </trkpt>
      <trkpt lat="42.471012" lon="-5.912812">
        <ele>841.285</ele>
        <time>2021-07-18T06:58:46Z</time>
      </trkpt>
      <trkpt lat="42.470849" lon="-5.912290">
        <ele>838.883</ele>
        <time>2021-07-18T06:58:55Z</time>
      </trkpt>
      <trkpt lat="42.470719" lon="-5.911747">
        <ele>837.440</ele>
        <time>2021-07-18T06:59:04Z</time>
      </trkpt>
      <trkpt lat="42.470587" lon="-5.911584">
        <ele>836.428</ele>
        <time>2021-07-18T06:59:09Z</time>
      </trkpt>
      <trkpt lat="42.470340" lon="-5.911553">
        <ele>837.436</ele>
        <time>2021-07-18T06:59:17Z</time>
      </trkpt>
      <trkpt lat="42.470139" lon="-5.911415">
        <ele>837.417</ele>
        <time>2021-07-18T06:59:24Z</time>
      </trkpt>
      <trkpt lat="42.470010" lon="-5.911221">
        <ele>835.518</ele>
        <time>2021-07-18T06:59:30Z</time>
      </trkpt>
      <trkpt lat="42.469885" lon="-5.910918">
        <ele>835.008</ele>
        <time>2021-07-18T06:59:38Z</time>
      </trkpt>
      <trkpt lat="42.469822" lon="-5.910719">
        <ele>834.540</ele>
        <time>2021-07-18T06:59:44Z</time>
      </trkpt>
      <trkpt lat="42.469660" lon="-5.910573">
        <ele>835.092</ele>
        <time>2021-07-18T06:59:51Z</time>
      </trkpt>
      <trkpt lat="42.469533" lon="-5.910462">
        <ele>836.439</ele>
        <time>2021-07-18T06:59:58Z</time>
      </trkpt>
      <trkpt lat="42.469417" lon="-5.910437">
        <ele>837.979</ele>
        <time>2021-07-18T07:00:04Z</time>
      </trkpt>
      <trkpt lat="42.469245" lon="-5.910434">
        <ele>837.963</ele>
        <time>2021-07-18T07:00:11Z</time>
      </trkpt>
      <trkpt lat="42.469092" lon="-5.910320">
        <ele>835.571</ele>
        <time>2021-07-18T07:00:18Z</time>
      </trkpt>
      <trkpt lat="42.468897" lon="-5.910147">
        <ele>835.518</ele>
        <time>2021-07-18T07:00:26Z</time>
      </trkpt>
      <trkpt lat="42.468782" lon="-5.909900">
        <ele>836.076</ele>
        <time>2021-07-18T07:00:33Z</time>
      </trkpt>
      <trkpt lat="42.468740" lon="-5.909666">
        <ele>836.029</ele>
        <time>2021-07-18T07:00:39Z</time>
      </trkpt>
      <trkpt lat="42.468646" lon="-5.909385">
        <ele>835.500</ele>
        <time>2021-07-18T07:00:46Z</time>
      </trkpt>
      <trkpt lat="42.468509" lon="-5.908900">
        <ele>835.020</ele>
        <time>2021-07-18T07:00:56Z</time>
      </trkpt>
      <trkpt lat="42.468404" lon="-5.908439">
        <ele>833.108</ele>
        <time>2021-07-18T07:01:05Z</time>
      </trkpt>
      <trkpt lat="42.468398" lon="-5.908115">
        <ele>833.169</ele>
        <time>2021-07-18T07:01:12Z</time>
      </trkpt>
      <trkpt lat="42.468406" lon="-5.907866">
        <ele>833.121</ele>
        <time>2021-07-18T07:01:19Z</time>
      </trkpt>
      <trkpt lat="42.468367" lon="-5.907576">
        <ele>831.638</ele>
        <time>2021-07-18T07:01:27Z</time>
      </trkpt>
      <trkpt lat="42.468337" lon="-5.907183">
        <ele>831.248</ele>
        <time>2021-07-18T07:01:34Z</time>
      </trkpt>
      <trkpt lat="42.468311" lon="-5.906826">
        <ele>831.622</ele>
        <time>2021-07-18T07:01:40Z</time>
      </trkpt>
      <trkpt lat="42.468244" lon="-5.906156">
        <ele>831.270</ele>
        <time>2021-07-18T07:01:51Z</time>
      </trkpt>
      <trkpt lat="42.468197" lon="-5.905673">
        <ele>831.257</ele>
        <time>2021-07-18T07:01:59Z</time>
      </trkpt>
      <trkpt lat="42.468153" lon="-5.905106">
        <ele>830.245</ele>
        <time>2021-07-18T07:02:08Z</time>
      </trkpt>
      <trkpt lat="42.468093" lon="-5.904439">
        <ele>829.233</ele>
        <time>2021-07-18T07:02:18Z</time>
      </trkpt>
      <trkpt lat="42.468043" lon="-5.903788">
        <ele>828.723</ele>
        <time>2021-07-18T07:02:28Z</time>
      </trkpt>
      <trkpt lat="42.467982" lon="-5.903268">
        <ele>829.215</ele>
        <time>2021-07-18T07:02:37Z</time>
      </trkpt>
      <trkpt lat="42.467961" lon="-5.903090">
        <ele>829.208</ele>
        <time>2021-07-18T07:02:40Z</time>
      </trkpt>
      <trkpt lat="42.467944" lon="-5.902970">
        <ele>829.220</ele>
        <time>2021-07-18T07:02:42Z</time>
      </trkpt>
      <trkpt lat="42.467903" lon="-5.902611">
        <ele>828.792</ele>
        <time>2021-07-18T07:02:48Z</time>
      </trkpt>
      <trkpt lat="42.467813" lon="-5.901832">
        <ele>829.249</ele>
        <time>2021-07-18T07:03:01Z</time>
      </trkpt>
      <trkpt lat="42.467734" lon="-5.901176">
        <ele>828.769</ele>
        <time>2021-07-18T07:03:12Z</time>
      </trkpt>
      <trkpt lat="42.467672" lon="-5.900662">
        <ele>828.743</ele>
        <time>2021-07-18T07:03:21Z</time>
      </trkpt>
      <trkpt lat="42.467620" lon="-5.900217">
        <ele>828.751</ele>
        <time>2021-07-18T07:03:30Z</time>
      </trkpt>
      <trkpt lat="42.467565" lon="-5.899777">
        <ele>828.748</ele>
        <time>2021-07-18T07:03:39Z</time>
      </trkpt>
      <trkpt lat="42.467497" lon="-5.899155">
        <ele>828.716</ele>
        <time>2021-07-18T07:03:50Z</time>
      </trkpt>
      <trkpt lat="42.467435" lon="-5.898649">
        <ele>828.325</ele>
        <time>2021-07-18T07:03:59Z</time>
      </trkpt>
      <trkpt lat="42.467380" lon="-5.898151">
        <ele>828.326</ele>
        <time>2021-07-18T07:04:08Z</time>
      </trkpt>
      <trkpt lat="42.467330" lon="-5.897723">
        <ele>828.708</ele>
        <time>2021-07-18T07:04:16Z</time>
      </trkpt>
      <trkpt lat="42.467257" lon="-5.897138">
        <ele>828.708</ele>
        <time>2021-07-18T07:04:27Z</time>
      </trkpt>
      <trkpt lat="42.467192" lon="-5.896535">
        <ele>829.289</ele>
        <time>2021-07-18T07:04:38Z</time>
      </trkpt>
      <trkpt lat="42.467128" lon="-5.895947">
        <ele>829.211</ele>
        <time>2021-07-18T07:04:49Z</time>
      </trkpt>
      <trkpt lat="42.467132" lon="-5.895732">
        <ele>829.228</ele>
        <time>2021-07-18T07:04:53Z</time>
      </trkpt>
      <trkpt lat="42.467198" lon="-5.895154">
        <ele>828.768</ele>
        <time>2021-07-18T07:05:03Z</time>
      </trkpt>
      <trkpt lat="42.467215" lon="-5.894916">
        <ele>828.332</ele>
        <time>2021-07-18T07:05:07Z</time>
      </trkpt>
      <trkpt lat="42.467221" lon="-5.894854">
        <ele>828.320</ele>
        <time>2021-07-18T07:05:08Z</time>
      </trkpt>
      <trkpt lat="42.467198" lon="-5.894497">
        <ele>828.347</ele>
        <time>2021-07-18T07:05:14Z</time>
      </trkpt>
      <trkpt lat="42.467186" lon="-5.894443">
        <ele>828.315</ele>
        <time>2021-07-18T07:05:15Z</time>
      </trkpt>
      <trkpt lat="42.467169" lon="-5.894391">
        <ele>828.392</ele>
        <time>2021-07-18T07:05:16Z</time>
      </trkpt>
      <trkpt lat="42.467147" lon="-5.894341">
        <ele>828.373</ele>
        <time>2021-07-18T07:05:17Z</time>
      </trkpt>
      <trkpt lat="42.467121" lon="-5.894291">
        <ele>828.320</ele>
        <time>2021-07-18T07:05:18Z</time>
      </trkpt>
      <trkpt lat="42.466883" lon="-5.893826">
        <ele>827.808</ele>
        <time>2021-07-18T07:05:27Z</time>
      </trkpt>
      <trkpt lat="42.466634" lon="-5.893323">
        <ele>827.866</ele>
        <time>2021-07-18T07:05:37Z</time>
      </trkpt>
      <trkpt lat="42.466369" lon="-5.892821">
        <ele>827.838</ele>
        <time>2021-07-18T07:05:47Z</time>
      </trkpt>
      <trkpt lat="42.466079" lon="-5.892281">
        <ele>828.315</ele>
        <time>2021-07-18T07:05:58Z</time>
      </trkpt>
      <trkpt lat="42.465801" lon="-5.891807">
        <ele>827.875</ele>
        <time>2021-07-18T07:06:08Z</time>
      </trkpt>
      <trkpt lat="42.465510" lon="-5.891313">
        <ele>827.859</ele>
        <time>2021-07-18T07:06:18Z</time>
      </trkpt>
      <trkpt lat="42.465159" lon="-5.890713">
        <ele>827.877</ele>
        <time>2021-07-18T07:06:30Z</time>
      </trkpt>
      <trkpt lat="42.464901" lon="-5.890260">
        <ele>827.394</ele>
        <time>2021-07-18T07:06:39Z</time>
      </trkpt>
      <trkpt lat="42.464572" lon="-5.889689">
        <ele>827.382</ele>
        <time>2021-07-18T07:06:50Z</time>
      </trkpt>
      <trkpt lat="42.464303" lon="-5.889224">
        <ele>826.835</ele>
        <time>2021-07-18T07:07:00Z</time>
      </trkpt>
      <trkpt lat="42.464016" lon="-5.888727">
        <ele>827.386</ele>
        <time>2021-07-18T07:07:11Z</time>
      </trkpt>
      <trkpt lat="42.463924" lon="-5.888602">
        <ele>827.314</ele>
        <time>2021-07-18T07:07:14Z</time>
      </trkpt>
      <trkpt lat="42.463891" lon="-5.888567">
        <ele>827.308</ele>
        <time>2021-07-18T07:07:15Z</time>
      </trkpt>
      <trkpt lat="42.463781" lon="-5.888478">
        <ele>827.880</ele>
        <time>2021-07-18T07:07:18Z</time>
      </trkpt>
      <trkpt lat="42.463423" lon="-5.888290">
        <ele>828.342</ele>
        <time>2021-07-18T07:07:27Z</time>
      </trkpt>
      <trkpt lat="42.463164" lon="-5.888147">
        <ele>829.799</ele>
        <time>2021-07-18T07:07:35Z</time>
      </trkpt>
      <trkpt lat="42.463089" lon="-5.888076">
        <ele>829.769</ele>
        <time>2021-07-18T07:07:39Z</time>
      </trkpt>
      <trkpt lat="42.463081" lon="-5.888046">
        <ele>829.213</ele>
        <time>2021-07-18T07:07:46Z</time>
      </trkpt>
      <trkpt lat="42.463070" lon="-5.888049">
        <ele>828.721</ele>
        <time>2021-07-18T07:08:02Z</time>
      </trkpt>
      <trkpt lat="42.463057" lon="-5.888057">
        <ele>828.728</ele>
        <time>2021-07-18T07:08:13Z</time>
      </trkpt>
      <trkpt lat="42.463033" lon="-5.888044">
        <ele>829.296</ele>
        <time>2021-07-18T07:08:17Z</time>
      </trkpt>
      <trkpt lat="42.463028" lon="-5.887911">
        <ele>829.234</ele>
        <time>2021-07-18T07:08:22Z</time>
      </trkpt>
      <trkpt lat="42.463089" lon="-5.887687">
        <ele>828.755</ele>
        <time>2021-07-18T07:08:28Z</time>
      </trkpt>
      <trkpt lat="42.463187" lon="-5.887328">
        <ele>829.210</ele>
        <time>2021-07-18T07:08:37Z</time>
      </trkpt>
      <trkpt lat="42.463262" lon="-5.886923">
        <ele>828.708</ele>
        <time>2021-07-18T07:08:47Z</time>
      </trkpt>
      <trkpt lat="42.463304" lon="-5.886491">
        <ele>828.750</ele>
        <time>2021-07-18T07:08:56Z</time>
      </trkpt>
      <trkpt lat="42.463309" lon="-5.886151">
        <ele>829.252</ele>
        <time>2021-07-18T07:09:03Z</time>
      </trkpt>
      <trkpt lat="42.463319" lon="-5.885745">
        <ele>828.399</ele>
        <time>2021-07-18T07:09:11Z</time>
      </trkpt>
      <trkpt lat="42.463372" lon="-5.885360">
        <ele>825.919</ele>
        <time>2021-07-18T07:09:20Z</time>
      </trkpt>
      <trkpt lat="42.463383" lon="-5.885356">
        <ele>826.363</ele>
        <time>2021-07-18T07:09:25Z</time>
      </trkpt>
      <trkpt lat="42.463404" lon="-5.885378">
        <ele>827.331</ele>
        <time>2021-07-18T07:09:32Z</time>
      </trkpt>
      <trkpt lat="42.463420" lon="-5.885373">
        <ele>829.728</ele>
        <time>2021-07-18T07:09:52Z</time>
      </trkpt>
      <trkpt lat="42.463420" lon="-5.885371">
        <ele>829.296</ele>
        <time>2021-07-18T07:10:05Z</time>
      </trkpt>
      <trkpt lat="42.463423" lon="-5.885377">
        <ele>831.296</ele>
        <time>2021-07-18T07:10:15Z</time>
      </trkpt>
      <trkpt lat="42.463415" lon="-5.885379">
        <ele>831.231</ele>
        <time>2021-07-18T07:10:28Z</time>
      </trkpt>
      <trkpt lat="42.463401" lon="-5.885369">
        <ele>830.224</ele>
        <time>2021-07-18T07:10:43Z</time>
      </trkpt>
      <trkpt lat="42.463400" lon="-5.885370">
        <ele>829.208</ele>
        <time>2021-07-18T07:10:55Z</time>
      </trkpt>
      <trkpt lat="42.463405" lon="-5.885367">
        <ele>829.766</ele>
        <time>2021-07-18T07:10:58Z</time>
      </trkpt>
      <trkpt lat="42.463421" lon="-5.885240">
        <ele>830.298</ele>
        <time>2021-07-18T07:11:04Z</time>
      </trkpt>
      <trkpt lat="42.463428" lon="-5.885042">
        <ele>829.795</ele>
        <time>2021-07-18T07:11:10Z</time>
      </trkpt>
      <trkpt lat="42.463428" lon="-5.884832">
        <ele>829.265</ele>
        <time>2021-07-18T07:11:17Z</time>
      </trkpt>
      <trkpt lat="42.463432" lon="-5.884768">
        <ele>829.249</ele>
        <time>2021-07-18T07:11:19Z</time>
      </trkpt>
      <trkpt lat="42.463421" lon="-5.884564">
        <ele>827.857</ele>
        <time>2021-07-18T07:11:27Z</time>
      </trkpt>
      <trkpt lat="42.463426" lon="-5.884374">
        <ele>828.764</ele>
        <time>2021-07-18T07:11:34Z</time>
      </trkpt>
      <trkpt lat="42.463456" lon="-5.884043">
        <ele>829.242</ele>
        <time>2021-07-18T07:11:43Z</time>
      </trkpt>
      <trkpt lat="42.463480" lon="-5.883804">
        <ele>828.717</ele>
        <time>2021-07-18T07:11:50Z</time>
      </trkpt>
      <trkpt lat="42.463497" lon="-5.883446">
        <ele>827.887</ele>
        <time>2021-07-18T07:12:00Z</time>
      </trkpt>
      <trkpt lat="42.463503" lon="-5.883205">
        <ele>827.815</ele>
        <time>2021-07-18T07:12:07Z</time>
      </trkpt>
      <trkpt lat="42.463514" lon="-5.882965">
        <ele>830.208</ele>
        <time>2021-07-18T07:12:15Z</time>
      </trkpt>
      <trkpt lat="42.463525" lon="-5.882682">
        <ele>832.128</ele>
        <time>2021-07-18T07:12:23Z</time>
      </trkpt>
      <trkpt lat="42.463506" lon="-5.882562">
        <ele>833.670</ele>
        <time>2021-07-18T07:12:27Z</time>
      </trkpt>
      <trkpt lat="42.463488" lon="-5.882541">
        <ele>833.187</ele>
        <time>2021-07-18T07:12:33Z</time>
      </trkpt>
      <trkpt lat="42.463488" lon="-5.882543">
        <ele>834.017</ele>
        <time>2021-07-18T07:12:45Z</time>
      </trkpt>
      <trkpt lat="42.463499" lon="-5.882522">
        <ele>834.061</ele>
        <time>2021-07-18T07:13:10Z</time>
      </trkpt>
      <trkpt lat="42.463501" lon="-5.882544">
        <ele>832.139</ele>
        <time>2021-07-18T07:13:32Z</time>
      </trkpt>
      <trkpt lat="42.463491" lon="-5.882545">
        <ele>834.536</ele>
        <time>2021-07-18T07:13:50Z</time>
      </trkpt>
      <trkpt lat="42.463470" lon="-5.882557">
        <ele>835.054</ele>
        <time>2021-07-18T07:14:18Z</time>
      </trkpt>
      <trkpt lat="42.463486" lon="-5.882525">
        <ele>836.472</ele>
        <time>2021-07-18T07:14:39Z</time>
      </trkpt>
      <trkpt lat="42.463489" lon="-5.882504">
        <ele>833.613</ele>
        <time>2021-07-18T07:14:59Z</time>
      </trkpt>
      <trkpt lat="42.463487" lon="-5.882508">
        <ele>834.014</ele>
        <time>2021-07-18T07:15:24Z</time>
      </trkpt>
      <trkpt lat="42.463477" lon="-5.882570">
        <ele>834.008</ele>
        <time>2021-07-18T07:15:51Z</time>
      </trkpt>
      <trkpt lat="42.463489" lon="-5.882575">
        <ele>834.054</ele>
        <time>2021-07-18T07:16:08Z</time>
      </trkpt>
      <trkpt lat="42.463477" lon="-5.882553">
        <ele>834.516</ele>
        <time>2021-07-18T07:16:18Z</time>
      </trkpt>
      <trkpt lat="42.463481" lon="-5.882544">
        <ele>834.073</ele>
        <time>2021-07-18T07:16:20Z</time>
      </trkpt>
      <trkpt lat="42.463509" lon="-5.882462">
        <ele>834.513</ele>
        <time>2021-07-18T07:16:24Z</time>
      </trkpt>
      <trkpt lat="42.463550" lon="-5.882192">
        <ele>833.187</ele>
        <time>2021-07-18T07:16:33Z</time>
      </trkpt>
      <trkpt lat="42.463574" lon="-5.881979">
        <ele>832.195</ele>
        <time>2021-07-18T07:16:40Z</time>
      </trkpt>
      <trkpt lat="42.463611" lon="-5.881759">
        <ele>831.642</ele>
        <time>2021-07-18T07:16:48Z</time>
      </trkpt>
      <trkpt lat="42.463650" lon="-5.881564">
        <ele>832.620</ele>
        <time>2021-07-18T07:16:56Z</time>
      </trkpt>
      <trkpt lat="42.463692" lon="-5.881335">
        <ele>832.168</ele>
        <time>2021-07-18T07:17:04Z</time>
      </trkpt>
      <trkpt lat="42.463697" lon="-5.881307">
        <ele>831.642</ele>
        <time>2021-07-18T07:17:09Z</time>
      </trkpt>
      <trkpt lat="42.463733" lon="-5.881165">
        <ele>831.226</ele>
        <time>2021-07-18T07:17:18Z</time>
      </trkpt>
      <trkpt lat="42.463741" lon="-5.881117">
        <ele>830.708</ele>
        <time>2021-07-18T07:17:21Z</time>
      </trkpt>
      <trkpt lat="42.463735" lon="-5.881051">
        <ele>832.183</ele>
        <time>2021-07-18T07:17:29Z</time>
      </trkpt>
      <trkpt lat="42.463748" lon="-5.881049">
        <ele>832.165</ele>
        <time>2021-07-18T07:17:43Z</time>
      </trkpt>
      <trkpt lat="42.463753" lon="-5.881045">
        <ele>832.692</ele>
        <time>2021-07-18T07:18:07Z</time>
      </trkpt>
      <trkpt lat="42.463749" lon="-5.881034">
        <ele>831.612</ele>
        <time>2021-07-18T07:18:27Z</time>
      </trkpt>
      <trkpt lat="42.463739" lon="-5.881034">
        <ele>832.696</ele>
        <time>2021-07-18T07:18:38Z</time>
      </trkpt>
      <trkpt lat="42.463738" lon="-5.881034">
        <ele>832.654</ele>
        <time>2021-07-18T07:18:55Z</time>
      </trkpt>
      <trkpt lat="42.463737" lon="-5.881040">
        <ele>832.161</ele>
        <time>2021-07-18T07:19:09Z</time>
      </trkpt>
      <trkpt lat="42.463721" lon="-5.881035">
        <ele>830.219</ele>
        <time>2021-07-18T07:19:27Z</time>
      </trkpt>
      <trkpt lat="42.463729" lon="-5.881082">
        <ele>831.619</ele>
        <time>2021-07-18T07:19:47Z</time>
      </trkpt>
      <trkpt lat="42.463737" lon="-5.881071">
        <ele>831.209</ele>
        <time>2021-07-18T07:20:06Z</time>
      </trkpt>
      <trkpt lat="42.463747" lon="-5.881053">
        <ele>832.119</ele>
        <time>2021-07-18T07:20:22Z</time>
      </trkpt>
      <trkpt lat="42.463743" lon="-5.881055">
        <ele>832.108</ele>
        <time>2021-07-18T07:20:39Z</time>
      </trkpt>
      <trkpt lat="42.463745" lon="-5.881046">
        <ele>832.148</ele>
        <time>2021-07-18T07:20:54Z</time>
      </trkpt>
      <trkpt lat="42.463737" lon="-5.881042">
        <ele>831.690</ele>
        <time>2021-07-18T07:21:06Z</time>
      </trkpt>
      <trkpt lat="42.463736" lon="-5.881055">
        <ele>830.737</ele>
        <time>2021-07-18T07:21:19Z</time>
      </trkpt>
      <trkpt lat="42.463737" lon="-5.881063">
        <ele>831.217</ele>
        <time>2021-07-18T07:21:30Z</time>
      </trkpt>
      <trkpt lat="42.463731" lon="-5.881068">
        <ele>829.711</ele>
        <time>2021-07-18T07:21:46Z</time>
      </trkpt>
      <trkpt lat="42.463724" lon="-5.881074">
        <ele>828.759</ele>
        <time>2021-07-18T07:22:01Z</time>
      </trkpt>
      <trkpt lat="42.463729" lon="-5.881073">
        <ele>829.736</ele>
        <time>2021-07-18T07:22:14Z</time>
      </trkpt>
      <trkpt lat="42.463731" lon="-5.881078">
        <ele>830.274</ele>
        <time>2021-07-18T07:22:28Z</time>
      </trkpt>
      <trkpt lat="42.463721" lon="-5.881069">
        <ele>830.747</ele>
        <time>2021-07-18T07:22:40Z</time>
      </trkpt>
      <trkpt lat="42.463710" lon="-5.881079">
        <ele>829.229</ele>
        <time>2021-07-18T07:22:55Z</time>
      </trkpt>
      <trkpt lat="42.463704" lon="-5.881090">
        <ele>829.221</ele>
        <time>2021-07-18T07:23:08Z</time>
      </trkpt>
      <trkpt lat="42.463705" lon="-5.881086">
        <ele>828.308</ele>
        <time>2021-07-18T07:23:21Z</time>
      </trkpt>
      <trkpt lat="42.463718" lon="-5.881070">
        <ele>827.871</ele>
        <time>2021-07-18T07:23:32Z</time>
      </trkpt>
      <trkpt lat="42.463724" lon="-5.881056">
        <ele>826.843</ele>
        <time>2021-07-18T07:23:53Z</time>
      </trkpt>
      <trkpt lat="42.463732" lon="-5.881071">
        <ele>826.840</ele>
        <time>2021-07-18T07:24:08Z</time>
      </trkpt>
      <trkpt lat="42.463730" lon="-5.881060">
        <ele>827.340</ele>
        <time>2021-07-18T07:24:23Z</time>
      </trkpt>
      <trkpt lat="42.463734" lon="-5.881062">
        <ele>828.324</ele>
        <time>2021-07-18T07:24:38Z</time>
      </trkpt>
      <trkpt lat="42.463733" lon="-5.881067">
        <ele>828.392</ele>
        <time>2021-07-18T07:24:53Z</time>
      </trkpt>
      <trkpt lat="42.463716" lon="-5.881054">
        <ele>829.279</ele>
        <time>2021-07-18T07:25:11Z</time>
      </trkpt>
      <trkpt lat="42.463724" lon="-5.881044">
        <ele>830.247</ele>
        <time>2021-07-18T07:25:23Z</time>
      </trkpt>
      <trkpt lat="42.463728" lon="-5.881038">
        <ele>830.769</ele>
        <time>2021-07-18T07:25:36Z</time>
      </trkpt>
      <trkpt lat="42.463726" lon="-5.881041">
        <ele>828.704</ele>
        <time>2021-07-18T07:25:51Z</time>
      </trkpt>
      <trkpt lat="42.463735" lon="-5.881055">
        <ele>828.324</ele>
        <time>2021-07-18T07:26:02Z</time>
      </trkpt>
      <trkpt lat="42.463731" lon="-5.881064">
        <ele>829.208</ele>
        <time>2021-07-18T07:26:14Z</time>
      </trkpt>
      <trkpt lat="42.463739" lon="-5.881066">
        <ele>829.713</ele>
        <time>2021-07-18T07:26:30Z</time>
      </trkpt>
      <trkpt lat="42.463723" lon="-5.881068">
        <ele>829.285</ele>
        <time>2021-07-18T07:26:45Z</time>
      </trkpt>
      <trkpt lat="42.463724" lon="-5.881064">
        <ele>829.712</ele>
        <time>2021-07-18T07:26:58Z</time>
      </trkpt>
      <trkpt lat="42.463724" lon="-5.881074">
        <ele>828.782</ele>
        <time>2021-07-18T07:27:09Z</time>
      </trkpt>
      <trkpt lat="42.463710" lon="-5.881101">
        <ele>827.886</ele>
        <time>2021-07-18T07:27:21Z</time>
      </trkpt>
      <trkpt lat="42.463731" lon="-5.881095">
        <ele>828.734</ele>
        <time>2021-07-18T07:27:37Z</time>
      </trkpt>
      <trkpt lat="42.463733" lon="-5.881075">
        <ele>830.751</ele>
        <time>2021-07-18T07:27:51Z</time>
      </trkpt>
      <trkpt lat="42.463734" lon="-5.881070">
        <ele>830.739</ele>
        <time>2021-07-18T07:28:04Z</time>
      </trkpt>
      <trkpt lat="42.463746" lon="-5.881064">
        <ele>831.211</ele>
        <time>2021-07-18T07:28:21Z</time>
      </trkpt>
      <trkpt lat="42.463738" lon="-5.881053">
        <ele>831.621</ele>
        <time>2021-07-18T07:28:37Z</time>
      </trkpt>
      <trkpt lat="42.463735" lon="-5.881046">
        <ele>832.603</ele>
        <time>2021-07-18T07:28:52Z</time>
      </trkpt>
      <trkpt lat="42.463741" lon="-5.881041">
        <ele>833.608</ele>
        <time>2021-07-18T07:29:08Z</time>
      </trkpt>
      <trkpt lat="42.463746" lon="-5.881032">
        <ele>832.668</ele>
        <time>2021-07-18T07:29:19Z</time>
      </trkpt>
      <trkpt lat="42.463745" lon="-5.881043">
        <ele>833.190</ele>
        <time>2021-07-18T07:29:39Z</time>
      </trkpt>
      <trkpt lat="42.463736" lon="-5.881063">
        <ele>834.057</ele>
        <time>2021-07-18T07:29:55Z</time>
      </trkpt>
      <trkpt lat="42.463735" lon="-5.881070">
        <ele>833.667</ele>
        <time>2021-07-18T07:30:10Z</time>
      </trkpt>
      <trkpt lat="42.463717" lon="-5.881077">
        <ele>834.081</ele>
        <time>2021-07-18T07:30:25Z</time>
      </trkpt>
      <trkpt lat="42.463727" lon="-5.881079">
        <ele>835.079</ele>
        <time>2021-07-18T07:30:39Z</time>
      </trkpt>
      <trkpt lat="42.463721" lon="-5.881077">
        <ele>835.056</ele>
        <time>2021-07-18T07:31:02Z</time>
      </trkpt>
      <trkpt lat="42.463720" lon="-5.881082">
        <ele>834.574</ele>
        <time>2021-07-18T07:31:21Z</time>
      </trkpt>
      <trkpt lat="42.463723" lon="-5.881084">
        <ele>834.031</ele>
        <time>2021-07-18T07:31:37Z</time>
      </trkpt>
      <trkpt lat="42.463741" lon="-5.881078">
        <ele>833.661</ele>
        <time>2021-07-18T07:31:53Z</time>
      </trkpt>
      <trkpt lat="42.463731" lon="-5.881073">
        <ele>833.107</ele>
        <time>2021-07-18T07:32:07Z</time>
      </trkpt>
      <trkpt lat="42.463726" lon="-5.881061">
        <ele>832.608</ele>
        <time>2021-07-18T07:32:21Z</time>
      </trkpt>
      <trkpt lat="42.463727" lon="-5.881063">
        <ele>832.130</ele>
        <time>2021-07-18T07:32:44Z</time>
      </trkpt>
      <trkpt lat="42.463726" lon="-5.881062">
        <ele>832.682</ele>
        <time>2021-07-18T07:33:03Z</time>
      </trkpt>
      <trkpt lat="42.463721" lon="-5.881060">
        <ele>831.299</ele>
        <time>2021-07-18T07:33:16Z</time>
      </trkpt>
      <trkpt lat="42.463746" lon="-5.881065">
        <ele>830.729</ele>
        <time>2021-07-18T07:33:31Z</time>
      </trkpt>
      <trkpt lat="42.463746" lon="-5.881062">
        <ele>830.293</ele>
        <time>2021-07-18T07:33:41Z</time>
      </trkpt>
      <trkpt lat="42.463740" lon="-5.881052">
        <ele>829.751</ele>
        <time>2021-07-18T07:33:57Z</time>
      </trkpt>
      <trkpt lat="42.463741" lon="-5.881067">
        <ele>830.288</ele>
        <time>2021-07-18T07:34:15Z</time>
      </trkpt>
      <trkpt lat="42.463745" lon="-5.881074">
        <ele>831.696</ele>
        <time>2021-07-18T07:34:31Z</time>
      </trkpt>
      <trkpt lat="42.463740" lon="-5.881074">
        <ele>832.198</ele>
        <time>2021-07-18T07:34:43Z</time>
      </trkpt>
      <trkpt lat="42.463737" lon="-5.881076">
        <ele>832.615</ele>
        <time>2021-07-18T07:35:04Z</time>
      </trkpt>
      <trkpt lat="42.463727" lon="-5.881076">
        <ele>831.626</ele>
        <time>2021-07-18T07:35:21Z</time>
      </trkpt>
      <trkpt lat="42.463736" lon="-5.881064">
        <ele>831.608</ele>
        <time>2021-07-18T07:35:37Z</time>
      </trkpt>
      <trkpt lat="42.463728" lon="-5.881053">
        <ele>832.156</ele>
        <time>2021-07-18T07:35:52Z</time>
      </trkpt>
      <trkpt lat="42.463736" lon="-5.881057">
        <ele>831.228</ele>
        <time>2021-07-18T07:36:07Z</time>
      </trkpt>
      <trkpt lat="42.463737" lon="-5.881048">
        <ele>831.235</ele>
        <time>2021-07-18T07:36:15Z</time>
      </trkpt>
      <trkpt lat="42.463736" lon="-5.881038">
        <ele>830.775</ele>
        <time>2021-07-18T07:36:28Z</time>
      </trkpt>
      <trkpt lat="42.463731" lon="-5.881040">
        <ele>830.259</ele>
        <time>2021-07-18T07:36:43Z</time>
      </trkpt>
      <trkpt lat="42.463728" lon="-5.881036">
        <ele>830.777</ele>
        <time>2021-07-18T07:36:58Z</time>
      </trkpt>
      <trkpt lat="42.463741" lon="-5.881000">
        <ele>832.124</ele>
        <time>2021-07-18T07:37:09Z</time>
      </trkpt>
      <trkpt lat="42.463775" lon="-5.880849">
        <ele>832.192</ele>
        <time>2021-07-18T07:37:18Z</time>
      </trkpt>
      <trkpt lat="42.463798" lon="-5.880723">
        <ele>832.161</ele>
        <time>2021-07-18T07:37:25Z</time>
      </trkpt>
      <trkpt lat="42.463803" lon="-5.880705">
        <ele>832.121</ele>
        <time>2021-07-18T07:37:26Z</time>
      </trkpt>
      <trkpt lat="42.463849" lon="-5.880519">
        <ele>831.613</ele>
        <time>2021-07-18T07:37:35Z</time>
      </trkpt>
      <trkpt lat="42.463867" lon="-5.880434">
        <ele>830.708</ele>
        <time>2021-07-18T07:37:43Z</time>
      </trkpt>
      <trkpt lat="42.463867" lon="-5.880415">
        <ele>830.253</ele>
        <time>2021-07-18T07:37:52Z</time>
      </trkpt>
      <trkpt lat="42.463887" lon="-5.880292">
        <ele>830.275</ele>
        <time>2021-07-18T07:37:58Z</time>
      </trkpt>
      <trkpt lat="42.463926" lon="-5.880026">
        <ele>829.242</ele>
        <time>2021-07-18T07:38:08Z</time>
      </trkpt>
      <trkpt lat="42.463975" lon="-5.879701">
        <ele>830.212</ele>
        <time>2021-07-18T07:38:20Z</time>
      </trkpt>
      <trkpt lat="42.464028" lon="-5.879354">
        <ele>830.276</ele>
        <time>2021-07-18T07:38:32Z</time>
      </trkpt>
      <trkpt lat="42.464042" lon="-5.879015">
        <ele>831.694</ele>
        <time>2021-07-18T07:38:44Z</time>
      </trkpt>
      <trkpt lat="42.464040" lon="-5.878799">
        <ele>833.151</ele>
        <time>2021-07-18T07:38:53Z</time>
      </trkpt>
      <trkpt lat="42.464027" lon="-5.878597">
        <ele>834.079</ele>
        <time>2021-07-18T07:39:03Z</time>
      </trkpt>
      <trkpt lat="42.464020" lon="-5.878583">
        <ele>834.596</ele>
        <time>2021-07-18T07:39:09Z</time>
      </trkpt>
      <trkpt lat="42.464013" lon="-5.878577">
        <ele>834.531</ele>
        <time>2021-07-18T07:39:23Z</time>
      </trkpt>
      <trkpt lat="42.463987" lon="-5.878570">
        <ele>834.024</ele>
        <time>2021-07-18T07:39:30Z</time>
      </trkpt>
      <trkpt lat="42.463972" lon="-5.878543">
        <ele>834.508</ele>
        <time>2021-07-18T07:39:46Z</time>
      </trkpt>
      <trkpt lat="42.463985" lon="-5.878548">
        <ele>835.056</ele>
        <time>2021-07-18T07:40:03Z</time>
      </trkpt>
      <trkpt lat="42.463988" lon="-5.878552">
        <ele>833.668</ele>
        <time>2021-07-18T07:40:20Z</time>
      </trkpt>
      <trkpt lat="42.463997" lon="-5.878563">
        <ele>834.085</ele>
        <time>2021-07-18T07:40:31Z</time>
      </trkpt>
      <trkpt lat="42.464003" lon="-5.878559">
        <ele>833.665</ele>
        <time>2021-07-18T07:40:39Z</time>
      </trkpt>
      <trkpt lat="42.464006" lon="-5.878545">
        <ele>834.029</ele>
        <time>2021-07-18T07:40:47Z</time>
      </trkpt>
      <trkpt lat="42.463985" lon="-5.878387">
        <ele>833.677</ele>
        <time>2021-07-18T07:40:57Z</time>
      </trkpt>
      <trkpt lat="42.463981" lon="-5.878257">
        <ele>833.634</ele>
        <time>2021-07-18T07:41:05Z</time>
      </trkpt>
      <trkpt lat="42.463987" lon="-5.878204">
        <ele>833.172</ele>
        <time>2021-07-18T07:41:13Z</time>
      </trkpt>
      <trkpt lat="42.463966" lon="-5.877966">
        <ele>833.123</ele>
        <time>2021-07-18T07:41:21Z</time>
      </trkpt>
      <trkpt lat="42.463944" lon="-5.877652">
        <ele>833.183</ele>
        <time>2021-07-18T07:41:32Z</time>
      </trkpt>
      <trkpt lat="42.463919" lon="-5.877427">
        <ele>833.611</ele>
        <time>2021-07-18T07:41:40Z</time>
      </trkpt>
      <trkpt lat="42.463909" lon="-5.877131">
        <ele>835.008</ele>
        <time>2021-07-18T07:41:51Z</time>
      </trkpt>
      <trkpt lat="42.463895" lon="-5.876932">
        <ele>836.479</ele>
        <time>2021-07-18T07:42:00Z</time>
      </trkpt>
      <trkpt lat="42.463888" lon="-5.876682">
        <ele>837.441</ele>
        <time>2021-07-18T07:42:07Z</time>
      </trkpt>
      <trkpt lat="42.463895" lon="-5.876323">
        <ele>839.338</ele>
        <time>2021-07-18T07:42:17Z</time>
      </trkpt>
      <trkpt lat="42.463889" lon="-5.875948">
        <ele>839.358</ele>
        <time>2021-07-18T07:42:25Z</time>
      </trkpt>
      <trkpt lat="42.463881" lon="-5.875785">
        <ele>838.832</ele>
        <time>2021-07-18T07:42:28Z</time>
      </trkpt>
      <trkpt lat="42.463883" lon="-5.875299">
        <ele>837.450</ele>
        <time>2021-07-18T07:42:37Z</time>
      </trkpt>
      <trkpt lat="42.463891" lon="-5.874721">
        <ele>836.937</ele>
        <time>2021-07-18T07:42:48Z</time>
      </trkpt>
      <trkpt lat="42.463895" lon="-5.874276">
        <ele>836.425</ele>
        <time>2021-07-18T07:42:57Z</time>
      </trkpt>
      <trkpt lat="42.463892" lon="-5.873776">
        <ele>836.478</ele>
        <time>2021-07-18T07:43:07Z</time>
      </trkpt>
      <trkpt lat="42.463924" lon="-5.873341">
        <ele>836.433</ele>
        <time>2021-07-18T07:43:16Z</time>
      </trkpt>
      <trkpt lat="42.463965" lon="-5.872939">
        <ele>836.926</ele>
        <time>2021-07-18T07:43:26Z</time>
      </trkpt>
      <trkpt lat="42.464000" lon="-5.872695">
        <ele>837.408</ele>
        <time>2021-07-18T07:43:34Z</time>
      </trkpt>
      <trkpt lat="42.463998" lon="-5.872505">
        <ele>837.494</ele>
        <time>2021-07-18T07:43:42Z</time>
      </trkpt>
      <trkpt lat="42.463976" lon="-5.872349">
        <ele>837.476</ele>
        <time>2021-07-18T07:43:50Z</time>
      </trkpt>
      <trkpt lat="42.463977" lon="-5.872321">
        <ele>837.463</ele>
        <time>2021-07-18T07:43:56Z</time>
      </trkpt>
      <trkpt lat="42.463969" lon="-5.872322">
        <ele>839.373</ele>
        <time>2021-07-18T07:44:11Z</time>
      </trkpt>
      <trkpt lat="42.463967" lon="-5.872320">
        <ele>838.837</ele>
        <time>2021-07-18T07:44:29Z</time>
      </trkpt>
      <trkpt lat="42.463975" lon="-5.872334">
        <ele>836.945</ele>
        <time>2021-07-18T07:45:01Z</time>
      </trkpt>
      <trkpt lat="42.463968" lon="-5.872343">
        <ele>836.052</ele>
        <time>2021-07-18T07:45:29Z</time>
      </trkpt>
      <trkpt lat="42.463967" lon="-5.872339">
        <ele>836.930</ele>
        <time>2021-07-18T07:46:01Z</time>
      </trkpt>
      <trkpt lat="42.463987" lon="-5.872350">
        <ele>836.017</ele>
        <time>2021-07-18T07:46:29Z</time>
      </trkpt>
      <trkpt lat="42.463980" lon="-5.872346">
        <ele>836.087</ele>
        <time>2021-07-18T07:46:51Z</time>
      </trkpt>
      <trkpt lat="42.463971" lon="-5.872329">
        <ele>835.515</ele>
        <time>2021-07-18T07:47:15Z</time>
      </trkpt>
      <trkpt lat="42.463968" lon="-5.872319">
        <ele>836.008</ele>
        <time>2021-07-18T07:47:42Z</time>
      </trkpt>
      <trkpt lat="42.463971" lon="-5.872334">
        <ele>834.548</ele>
        <time>2021-07-18T07:48:00Z</time>
      </trkpt>
      <trkpt lat="42.463961" lon="-5.872333">
        <ele>835.020</ele>
        <time>2021-07-18T07:48:23Z</time>
      </trkpt>
      <trkpt lat="42.463962" lon="-5.872313">
        <ele>833.117</ele>
        <time>2021-07-18T07:48:40Z</time>
      </trkpt>
      <trkpt lat="42.463977" lon="-5.872308">
        <ele>832.627</ele>
        <time>2021-07-18T07:48:58Z</time>
      </trkpt>
      <trkpt lat="42.463979" lon="-5.872320">
        <ele>834.531</ele>
        <time>2021-07-18T07:49:14Z</time>
      </trkpt>
      <trkpt lat="42.463967" lon="-5.872323">
        <ele>834.019</ele>
        <time>2021-07-18T07:49:32Z</time>
      </trkpt>
      <trkpt lat="42.463952" lon="-5.872360">
        <ele>835.096</ele>
        <time>2021-07-18T07:49:56Z</time>
      </trkpt>
      <trkpt lat="42.463955" lon="-5.872343">
        <ele>834.554</ele>
        <time>2021-07-18T07:50:15Z</time>
      </trkpt>
      <trkpt lat="42.463965" lon="-5.872343">
        <ele>837.426</ele>
        <time>2021-07-18T07:50:41Z</time>
      </trkpt>
      <trkpt lat="42.463978" lon="-5.872336">
        <ele>835.547</ele>
        <time>2021-07-18T07:51:01Z</time>
      </trkpt>
      <trkpt lat="42.463952" lon="-5.872316">
        <ele>835.011</ele>
        <time>2021-07-18T07:51:09Z</time>
      </trkpt>
      <trkpt lat="42.463941" lon="-5.872306">
        <ele>836.008</ele>
        <time>2021-07-18T07:51:18Z</time>
      </trkpt>
      <trkpt lat="42.463865" lon="-5.872244">
        <ele>836.039</ele>
        <time>2021-07-18T07:51:25Z</time>
      </trkpt>
      <trkpt lat="42.463770" lon="-5.872095">
        <ele>836.411</ele>
        <time>2021-07-18T07:51:33Z</time>
      </trkpt>
      <trkpt lat="42.463662" lon="-5.871916">
        <ele>836.918</ele>
        <time>2021-07-18T07:51:41Z</time>
      </trkpt>
      <trkpt lat="42.463515" lon="-5.871681">
        <ele>836.938</ele>
        <time>2021-07-18T07:51:51Z</time>
      </trkpt>
      <trkpt lat="42.463322" lon="-5.871376">
        <ele>836.412</ele>
        <time>2021-07-18T07:52:01Z</time>
      </trkpt>
      <trkpt lat="42.463011" lon="-5.870888">
        <ele>836.940</ele>
        <time>2021-07-18T07:52:14Z</time>
      </trkpt>
      <trkpt lat="42.462757" lon="-5.870491">
        <ele>837.467</ele>
        <time>2021-07-18T07:52:24Z</time>
      </trkpt>
      <trkpt lat="42.462542" lon="-5.870149">
        <ele>837.975</ele>
        <time>2021-07-18T07:52:34Z</time>
      </trkpt>
      <trkpt lat="42.462483" lon="-5.870099">
        <ele>837.998</ele>
        <time>2021-07-18T07:52:37Z</time>
      </trkpt>
      <trkpt lat="42.462457" lon="-5.870104">
        <ele>837.915</ele>
        <time>2021-07-18T07:52:38Z</time>
      </trkpt>
      <trkpt lat="42.462241" lon="-5.870070">
        <ele>837.426</ele>
        <time>2021-07-18T07:52:46Z</time>
      </trkpt>
      <trkpt lat="42.462157" lon="-5.869850">
        <ele>837.408</ele>
        <time>2021-07-18T07:52:51Z</time>
      </trkpt>
      <trkpt lat="42.462045" lon="-5.869467">
        <ele>837.946</ele>
        <time>2021-07-18T07:52:59Z</time>
      </trkpt>
      <trkpt lat="42.461811" lon="-5.869052">
        <ele>837.498</ele>
        <time>2021-07-18T07:53:09Z</time>
      </trkpt>
      <trkpt lat="42.461581" lon="-5.868685">
        <ele>837.915</ele>
        <time>2021-07-18T07:53:18Z</time>
      </trkpt>
      <trkpt lat="42.461332" lon="-5.868298">
        <ele>837.425</ele>
        <time>2021-07-18T07:53:27Z</time>
      </trkpt>
      <trkpt lat="42.461228" lon="-5.868135">
        <ele>837.479</ele>
        <time>2021-07-18T07:53:31Z</time>
      </trkpt>
      <trkpt lat="42.460959" lon="-5.867714">
        <ele>837.927</ele>
        <time>2021-07-18T07:53:41Z</time>
      </trkpt>
      <trkpt lat="42.460682" lon="-5.867277">
        <ele>837.934</ele>
        <time>2021-07-18T07:53:51Z</time>
      </trkpt>
      <trkpt lat="42.460393" lon="-5.866820">
        <ele>837.432</ele>
        <time>2021-07-18T07:54:02Z</time>
      </trkpt>
      <trkpt lat="42.460105" lon="-5.866366">
        <ele>836.412</ele>
        <time>2021-07-18T07:54:13Z</time>
      </trkpt>
      <trkpt lat="42.459817" lon="-5.865910">
        <ele>836.432</ele>
        <time>2021-07-18T07:54:25Z</time>
      </trkpt>
      <trkpt lat="42.459617" lon="-5.865602">
        <ele>836.905</ele>
        <time>2021-07-18T07:54:34Z</time>
      </trkpt>
      <trkpt lat="42.459469" lon="-5.865359">
        <ele>838.408</ele>
        <time>2021-07-18T07:54:42Z</time>
      </trkpt>
      <trkpt lat="42.459239" lon="-5.865001">
        <ele>839.898</ele>
        <time>2021-07-18T07:54:54Z</time>
      </trkpt>
      <trkpt lat="42.459132" lon="-5.864842">
        <ele>840.880</ele>
        <time>2021-07-18T07:55:00Z</time>
      </trkpt>
      <trkpt lat="42.459036" lon="-5.864675">
        <ele>841.227</ele>
        <time>2021-07-18T07:55:06Z</time>
      </trkpt>
      <trkpt lat="42.458902" lon="-5.864468">
        <ele>842.247</ele>
        <time>2021-07-18T07:55:16Z</time>
      </trkpt>
      <trkpt lat="42.458812" lon="-5.864316">
        <ele>842.771</ele>
        <time>2021-07-18T07:55:23Z</time>
      </trkpt>
      <trkpt lat="42.458679" lon="-5.864102">
        <ele>843.649</ele>
        <time>2021-07-18T07:55:31Z</time>
      </trkpt>
      <trkpt lat="42.458575" lon="-5.864018">
        <ele>843.626</ele>
        <time>2021-07-18T07:55:38Z</time>
      </trkpt>
      <trkpt lat="42.458560" lon="-5.864000">
        <ele>844.144</ele>
        <time>2021-07-18T07:55:46Z</time>
      </trkpt>
      <trkpt lat="42.458570" lon="-5.863977">
        <ele>842.234</ele>
        <time>2021-07-18T07:56:12Z</time>
      </trkpt>
      <trkpt lat="42.458569" lon="-5.863983">
        <ele>842.255</ele>
        <time>2021-07-18T07:56:20Z</time>
      </trkpt>
      <trkpt lat="42.458488" lon="-5.863846">
        <ele>842.710</ele>
        <time>2021-07-18T07:56:27Z</time>
      </trkpt>
      <trkpt lat="42.458337" lon="-5.863615">
        <ele>843.208</ele>
        <time>2021-07-18T07:56:36Z</time>
      </trkpt>
      <trkpt lat="42.458226" lon="-5.863449">
        <ele>843.620</ele>
        <time>2021-07-18T07:56:43Z</time>
      </trkpt>
      <trkpt lat="42.458160" lon="-5.863329">
        <ele>843.652</ele>
        <time>2021-07-18T07:56:49Z</time>
      </trkpt>
      <trkpt lat="42.458149" lon="-5.863299">
        <ele>843.619</ele>
        <time>2021-07-18T07:56:51Z</time>
      </trkpt>
      <trkpt lat="42.458151" lon="-5.863265">
        <ele>843.669</ele>
        <time>2021-07-18T07:56:53Z</time>
      </trkpt>
      <trkpt lat="42.458160" lon="-5.863255">
        <ele>843.623</ele>
        <time>2021-07-18T07:56:54Z</time>
      </trkpt>
      <trkpt lat="42.458170" lon="-5.863252">
        <ele>843.681</ele>
        <time>2021-07-18T07:56:55Z</time>
      </trkpt>
      <trkpt lat="42.458195" lon="-5.863263">
        <ele>843.678</ele>
        <time>2021-07-18T07:57:02Z</time>
      </trkpt>
      <trkpt lat="42.458180" lon="-5.863273">
        <ele>844.696</ele>
        <time>2021-07-18T07:57:18Z</time>
      </trkpt>
      <trkpt lat="42.458188" lon="-5.863273">
        <ele>844.611</ele>
        <time>2021-07-18T07:57:30Z</time>
      </trkpt>
      <trkpt lat="42.458201" lon="-5.863289">
        <ele>844.121</ele>
        <time>2021-07-18T07:57:37Z</time>
      </trkpt>
      <trkpt lat="42.458304" lon="-5.863452">
        <ele>845.103</ele>
        <time>2021-07-18T07:57:44Z</time>
      </trkpt>
      <trkpt lat="42.458441" lon="-5.863652">
        <ele>845.108</ele>
        <time>2021-07-18T07:57:52Z</time>
      </trkpt>
      <trkpt lat="42.458561" lon="-5.863833">
        <ele>845.198</ele>
        <time>2021-07-18T07:57:59Z</time>
      </trkpt>
      <trkpt lat="42.458764" lon="-5.864151">
        <ele>844.140</ele>
        <time>2021-07-18T07:58:09Z</time>
      </trkpt>
      <trkpt lat="42.458985" lon="-5.864493">
        <ele>843.277</ele>
        <time>2021-07-18T07:58:17Z</time>
      </trkpt>
      <trkpt lat="42.459238" lon="-5.864890">
        <ele>840.857</ele>
        <time>2021-07-18T07:58:24Z</time>
      </trkpt>
      <trkpt lat="42.459529" lon="-5.865344">
        <ele>838.491</ele>
        <time>2021-07-18T07:58:31Z</time>
      </trkpt>
      <trkpt lat="42.459705" lon="-5.865639">
        <ele>836.919</ele>
        <time>2021-07-18T07:58:37Z</time>
      </trkpt>
      <trkpt lat="42.459718" lon="-5.865654">
        <ele>836.936</ele>
        <time>2021-07-18T07:58:41Z</time>
      </trkpt>
      <trkpt lat="42.459732" lon="-5.865646">
        <ele>836.984</ele>
        <time>2021-07-18T07:58:43Z</time>
      </trkpt>
      <trkpt lat="42.459732" lon="-5.865622">
        <ele>837.931</ele>
        <time>2021-07-18T07:58:49Z</time>
      </trkpt>
      <trkpt lat="42.459720" lon="-5.865604">
        <ele>837.961</ele>
        <time>2021-07-18T07:58:52Z</time>
      </trkpt>
      <trkpt lat="42.459708" lon="-5.865588">
        <ele>837.907</ele>
        <time>2021-07-18T07:58:53Z</time>
      </trkpt>
      <trkpt lat="42.459575" lon="-5.865385">
        <ele>838.408</ele>
        <time>2021-07-18T07:59:01Z</time>
      </trkpt>
      <trkpt lat="42.459370" lon="-5.865056">
        <ele>839.890</ele>
        <time>2021-07-18T07:59:12Z</time>
      </trkpt>
      <trkpt lat="42.459163" lon="-5.864726">
        <ele>841.742</ele>
        <time>2021-07-18T07:59:23Z</time>
      </trkpt>
      <trkpt lat="42.458998" lon="-5.864475">
        <ele>842.299</ele>
        <time>2021-07-18T07:59:31Z</time>
      </trkpt>
      <trkpt lat="42.458773" lon="-5.864119">
        <ele>843.629</ele>
        <time>2021-07-18T07:59:42Z</time>
      </trkpt>
      <trkpt lat="42.458595" lon="-5.863835">
        <ele>844.123</ele>
        <time>2021-07-18T07:59:52Z</time>
      </trkpt>
      <trkpt lat="42.458387" lon="-5.863506">
        <ele>844.191</ele>
        <time>2021-07-18T08:00:04Z</time>
      </trkpt>
      <trkpt lat="42.458231" lon="-5.863245">
        <ele>843.698</ele>
        <time>2021-07-18T08:00:14Z</time>
      </trkpt>
      <trkpt lat="42.458277" lon="-5.863053">
        <ele>843.266</ele>
        <time>2021-07-18T08:00:21Z</time>
      </trkpt>
      <trkpt lat="42.458371" lon="-5.862756">
        <ele>842.237</ele>
        <time>2021-07-18T08:00:29Z</time>
      </trkpt>
      <trkpt lat="42.458502" lon="-5.862345">
        <ele>841.249</ele>
        <time>2021-07-18T08:00:38Z</time>
      </trkpt>
      <trkpt lat="42.458626" lon="-5.861932">
        <ele>840.313</ele>
        <time>2021-07-18T08:00:46Z</time>
      </trkpt>
      <trkpt lat="42.458764" lon="-5.861483">
        <ele>839.308</ele>
        <time>2021-07-18T08:00:54Z</time>
      </trkpt>
      <trkpt lat="42.458887" lon="-5.861113">
        <ele>838.860</ele>
        <time>2021-07-18T08:01:01Z</time>
      </trkpt>
      <trkpt lat="42.459070" lon="-5.860669">
        <ele>838.482</ele>
        <time>2021-07-18T08:01:11Z</time>
      </trkpt>
      <trkpt lat="42.459127" lon="-5.860476">
        <ele>838.489</ele>
        <time>2021-07-18T08:01:17Z</time>
      </trkpt>
      <trkpt lat="42.459190" lon="-5.860333">
        <ele>838.429</ele>
        <time>2021-07-18T08:01:22Z</time>
      </trkpt>
      <trkpt lat="42.459189" lon="-5.860285">
        <ele>837.993</ele>
        <time>2021-07-18T08:01:23Z</time>
      </trkpt>
      <trkpt lat="42.459193" lon="-5.859939">
        <ele>838.431</ele>
        <time>2021-07-18T08:01:30Z</time>
      </trkpt>
      <trkpt lat="42.459227" lon="-5.859613">
        <ele>838.818</ele>
        <time>2021-07-18T08:01:37Z</time>
      </trkpt>
      <trkpt lat="42.459223" lon="-5.859212">
        <ele>839.386</ele>
        <time>2021-07-18T08:01:46Z</time>
      </trkpt>
      <trkpt lat="42.459231" lon="-5.858818">
        <ele>839.332</ele>
        <time>2021-07-18T08:01:55Z</time>
      </trkpt>
      <trkpt lat="42.459245" lon="-5.858430">
        <ele>839.892</ele>
        <time>2021-07-18T08:02:04Z</time>
      </trkpt>
      <trkpt lat="42.459254" lon="-5.858002">
        <ele>840.311</ele>
        <time>2021-07-18T08:02:14Z</time>
      </trkpt>
      <trkpt lat="42.459267" lon="-5.857623">
        <ele>840.308</ele>
        <time>2021-07-18T08:02:22Z</time>
      </trkpt>
      <trkpt lat="42.459275" lon="-5.857200">
        <ele>840.370</ele>
        <time>2021-07-18T08:02:31Z</time>
      </trkpt>
      <trkpt lat="42.459287" lon="-5.856712">
        <ele>840.392</ele>
        <time>2021-07-18T08:02:42Z</time>
      </trkpt>
      <trkpt lat="42.459316" lon="-5.856127">
        <ele>840.389</ele>
        <time>2021-07-18T08:02:55Z</time>
      </trkpt>
      <trkpt lat="42.459316" lon="-5.855788">
        <ele>840.339</ele>
        <time>2021-07-18T08:03:03Z</time>
      </trkpt>
      <trkpt lat="42.459328" lon="-5.855324">
        <ele>840.873</ele>
        <time>2021-07-18T08:03:14Z</time>
      </trkpt>
      <trkpt lat="42.459336" lon="-5.854988">
        <ele>841.231</ele>
        <time>2021-07-18T08:03:22Z</time>
      </trkpt>
      <trkpt lat="42.459351" lon="-5.854526">
        <ele>841.728</ele>
        <time>2021-07-18T08:03:32Z</time>
      </trkpt>
      <trkpt lat="42.459368" lon="-5.854082">
        <ele>841.786</ele>
        <time>2021-07-18T08:03:42Z</time>
      </trkpt>
      <trkpt lat="42.459380" lon="-5.853702">
        <ele>841.759</ele>
        <time>2021-07-18T08:03:51Z</time>
      </trkpt>
      <trkpt lat="42.459395" lon="-5.853209">
        <ele>841.703</ele>
        <time>2021-07-18T08:04:02Z</time>
      </trkpt>
      <trkpt lat="42.459410" lon="-5.852706">
        <ele>841.723</ele>
        <time>2021-07-18T08:04:13Z</time>
      </trkpt>
      <trkpt lat="42.459425" lon="-5.852254">
        <ele>841.708</ele>
        <time>2021-07-18T08:04:23Z</time>
      </trkpt>
      <trkpt lat="42.459440" lon="-5.851655">
        <ele>842.222</ele>
        <time>2021-07-18T08:04:36Z</time>
      </trkpt>
      <trkpt lat="42.459462" lon="-5.851167">
        <ele>841.724</ele>
        <time>2021-07-18T08:04:47Z</time>
      </trkpt>
      <trkpt lat="42.459472" lon="-5.850735">
        <ele>842.261</ele>
        <time>2021-07-18T08:04:57Z</time>
      </trkpt>
      <trkpt lat="42.459483" lon="-5.850283">
        <ele>842.291</ele>
        <time>2021-07-18T08:05:08Z</time>
      </trkpt>
      <trkpt lat="42.459488" lon="-5.849933">
        <ele>842.215</ele>
        <time>2021-07-18T08:05:16Z</time>
      </trkpt>
      <trkpt lat="42.459495" lon="-5.849443">
        <ele>842.773</ele>
        <time>2021-07-18T08:05:27Z</time>
      </trkpt>
      <trkpt lat="42.459511" lon="-5.848793">
        <ele>842.770</ele>
        <time>2021-07-18T08:05:41Z</time>
      </trkpt>
      <trkpt lat="42.459529" lon="-5.848285">
        <ele>843.298</ele>
        <time>2021-07-18T08:05:52Z</time>
      </trkpt>
      <trkpt lat="42.459548" lon="-5.847668">
        <ele>843.241</ele>
        <time>2021-07-18T08:06:05Z</time>
      </trkpt>
      <trkpt lat="42.459570" lon="-5.847190">
        <ele>843.281</ele>
        <time>2021-07-18T08:06:16Z</time>
      </trkpt>
      <trkpt lat="42.459585" lon="-5.846934">
        <ele>843.209</ele>
        <time>2021-07-18T08:06:23Z</time>
      </trkpt>
      <trkpt lat="42.459583" lon="-5.846655">
        <ele>842.708</ele>
        <time>2021-07-18T08:06:30Z</time>
      </trkpt>
      <trkpt lat="42.459601" lon="-5.846143">
        <ele>843.291</ele>
        <time>2021-07-18T08:06:42Z</time>
      </trkpt>
      <trkpt lat="42.459629" lon="-5.845933">
        <ele>843.293</ele>
        <time>2021-07-18T08:06:49Z</time>
      </trkpt>
      <trkpt lat="42.459749" lon="-5.845728">
        <ele>842.250</ele>
        <time>2021-07-18T08:06:57Z</time>
      </trkpt>
      <trkpt lat="42.459934" lon="-5.845494">
        <ele>841.750</ele>
        <time>2021-07-18T08:07:06Z</time>
      </trkpt>
      <trkpt lat="42.460248" lon="-5.845070">
        <ele>841.784</ele>
        <time>2021-07-18T08:07:18Z</time>
      </trkpt>
      <trkpt lat="42.460449" lon="-5.844797">
        <ele>841.772</ele>
        <time>2021-07-18T08:07:26Z</time>
      </trkpt>
      <trkpt lat="42.460615" lon="-5.844545">
        <ele>840.859</ele>
        <time>2021-07-18T08:07:35Z</time>
      </trkpt>
      <trkpt lat="42.460759" lon="-5.844371">
        <ele>840.377</ele>
        <time>2021-07-18T08:07:42Z</time>
      </trkpt>
      <trkpt lat="42.460948" lon="-5.844102">
        <ele>840.313</ele>
        <time>2021-07-18T08:07:52Z</time>
      </trkpt>
      <trkpt lat="42.461129" lon="-5.843861">
        <ele>840.343</ele>
        <time>2021-07-18T08:08:01Z</time>
      </trkpt>
      <trkpt lat="42.461240" lon="-5.843675">
        <ele>840.807</ele>
        <time>2021-07-18T08:08:09Z</time>
      </trkpt>
      <trkpt lat="42.461274" lon="-5.843613">
        <ele>841.208</ele>
        <time>2021-07-18T08:08:15Z</time>
      </trkpt>
      <trkpt lat="42.461289" lon="-5.843617">
        <ele>840.898</ele>
        <time>2021-07-18T08:08:27Z</time>
      </trkpt>
      <trkpt lat="42.461295" lon="-5.843607">
        <ele>839.850</ele>
        <time>2021-07-18T08:08:40Z</time>
      </trkpt>
      <trkpt lat="42.461305" lon="-5.843611">
        <ele>839.387</ele>
        <time>2021-07-18T08:08:50Z</time>
      </trkpt>
      <trkpt lat="42.461311" lon="-5.843591">
        <ele>837.957</ele>
        <time>2021-07-18T08:09:00Z</time>
      </trkpt>
      <trkpt lat="42.461304" lon="-5.843585">
        <ele>838.891</ele>
        <time>2021-07-18T08:09:07Z</time>
      </trkpt>
      <trkpt lat="42.461286" lon="-5.843587">
        <ele>840.359</ele>
        <time>2021-07-18T08:09:20Z</time>
      </trkpt>
      <trkpt lat="42.461289" lon="-5.843606">
        <ele>839.896</ele>
        <time>2021-07-18T08:09:34Z</time>
      </trkpt>
      <trkpt lat="42.461303" lon="-5.843599">
        <ele>840.834</ele>
        <time>2021-07-18T08:09:45Z</time>
      </trkpt>
      <trkpt lat="42.461304" lon="-5.843601">
        <ele>839.372</ele>
        <time>2021-07-18T08:10:01Z</time>
      </trkpt>
      <trkpt lat="42.461311" lon="-5.843593">
        <ele>840.313</ele>
        <time>2021-07-18T08:10:15Z</time>
      </trkpt>
      <trkpt lat="42.461315" lon="-5.843575">
        <ele>840.314</ele>
        <time>2021-07-18T08:10:25Z</time>
      </trkpt>
      <trkpt lat="42.461442" lon="-5.843431">
        <ele>840.308</ele>
        <time>2021-07-18T08:10:32Z</time>
      </trkpt>
      <trkpt lat="42.461628" lon="-5.843167">
        <ele>840.314</ele>
        <time>2021-07-18T08:10:41Z</time>
      </trkpt>
      <trkpt lat="42.461867" lon="-5.842843">
        <ele>840.326</ele>
        <time>2021-07-18T08:10:51Z</time>
      </trkpt>
      <trkpt lat="42.462162" lon="-5.842425">
        <ele>840.363</ele>
        <time>2021-07-18T08:11:03Z</time>
      </trkpt>
      <trkpt lat="42.462280" lon="-5.842252">
        <ele>840.833</ele>
        <time>2021-07-18T08:11:09Z</time>
      </trkpt>
      <trkpt lat="42.462401" lon="-5.842064">
        <ele>841.257</ele>
        <time>2021-07-18T08:11:16Z</time>
      </trkpt>
      <trkpt lat="42.462543" lon="-5.841865">
        <ele>841.225</ele>
        <time>2021-07-18T08:11:24Z</time>
      </trkpt>
      <trkpt lat="42.462766" lon="-5.841745">
        <ele>842.232</ele>
        <time>2021-07-18T08:11:33Z</time>
      </trkpt>
      <trkpt lat="42.462946" lon="-5.841747">
        <ele>843.220</ele>
        <time>2021-07-18T08:11:40Z</time>
      </trkpt>
      <trkpt lat="42.463229" lon="-5.841794">
        <ele>844.632</ele>
        <time>2021-07-18T08:11:50Z</time>
      </trkpt>
      <trkpt lat="42.463475" lon="-5.841822">
        <ele>845.692</ele>
        <time>2021-07-18T08:11:58Z</time>
      </trkpt>
      <trkpt lat="42.463775" lon="-5.841806">
        <ele>846.511</ele>
        <time>2021-07-18T08:12:07Z</time>
      </trkpt>
      <trkpt lat="42.463969" lon="-5.841734">
        <ele>845.608</ele>
        <time>2021-07-18T08:12:14Z</time>
      </trkpt>
      <trkpt lat="42.464197" lon="-5.841572">
        <ele>846.170</ele>
        <time>2021-07-18T08:12:22Z</time>
      </trkpt>
      <trkpt lat="42.464453" lon="-5.841375">
        <ele>845.652</ele>
        <time>2021-07-18T08:12:31Z</time>
      </trkpt>
      <trkpt lat="42.464690" lon="-5.841188">
        <ele>844.699</ele>
        <time>2021-07-18T08:12:39Z</time>
      </trkpt>
      <trkpt lat="42.464715" lon="-5.841064">
        <ele>844.649</ele>
        <time>2021-07-18T08:12:42Z</time>
      </trkpt>
      <trkpt lat="42.464706" lon="-5.841028">
        <ele>845.173</ele>
        <time>2021-07-18T08:12:43Z</time>
      </trkpt>
      <trkpt lat="42.464691" lon="-5.840988">
        <ele>845.171</ele>
        <time>2021-07-18T08:12:44Z</time>
      </trkpt>
      <trkpt lat="42.464672" lon="-5.840957">
        <ele>845.618</ele>
        <time>2021-07-18T08:12:45Z</time>
      </trkpt>
      <trkpt lat="42.464649" lon="-5.840925">
        <ele>845.636</ele>
        <time>2021-07-18T08:12:46Z</time>
      </trkpt>
      <trkpt lat="42.464504" lon="-5.840744">
        <ele>846.522</ele>
        <time>2021-07-18T08:12:53Z</time>
      </trkpt>
      <trkpt lat="42.464335" lon="-5.840508">
        <ele>848.562</ele>
        <time>2021-07-18T08:13:01Z</time>
      </trkpt>
      <trkpt lat="42.464124" lon="-5.840216">
        <ele>850.908</ele>
        <time>2021-07-18T08:13:11Z</time>
      </trkpt>
      <trkpt lat="42.463924" lon="-5.839948">
        <ele>851.808</ele>
        <time>2021-07-18T08:13:21Z</time>
      </trkpt>
      <trkpt lat="42.463804" lon="-5.839788">
        <ele>850.979</ele>
        <time>2021-07-18T08:13:28Z</time>
      </trkpt>
      <trkpt lat="42.463578" lon="-5.839497">
        <ele>848.031</ele>
        <time>2021-07-18T08:13:34Z</time>
      </trkpt>
      <trkpt lat="42.463206" lon="-5.838972">
        <ele>844.188</ele>
        <time>2021-07-18T08:13:42Z</time>
      </trkpt>
      <trkpt lat="42.463069" lon="-5.838645">
        <ele>843.218</ele>
        <time>2021-07-18T08:13:47Z</time>
      </trkpt>
      <trkpt lat="42.463035" lon="-5.838530">
        <ele>843.252</ele>
        <time>2021-07-18T08:13:49Z</time>
      </trkpt>
      <trkpt lat="42.462929" lon="-5.838129">
        <ele>844.640</ele>
        <time>2021-07-18T08:13:57Z</time>
      </trkpt>
      <trkpt lat="42.462830" lon="-5.837712">
        <ele>846.157</ele>
        <time>2021-07-18T08:14:06Z</time>
      </trkpt>
      <trkpt lat="42.462763" lon="-5.837313">
        <ele>848.515</ele>
        <time>2021-07-18T08:14:15Z</time>
      </trkpt>
      <trkpt lat="42.462690" lon="-5.836893">
        <ele>851.371</ele>
        <time>2021-07-18T08:14:25Z</time>
      </trkpt>
      <trkpt lat="42.462597" lon="-5.836663">
        <ele>852.341</ele>
        <time>2021-07-18T08:14:32Z</time>
      </trkpt>
      <trkpt lat="42.462465" lon="-5.836471">
        <ele>853.315</ele>
        <time>2021-07-18T08:14:39Z</time>
      </trkpt>
      <trkpt lat="42.462316" lon="-5.836085">
        <ele>852.308</ele>
        <time>2021-07-18T08:14:48Z</time>
      </trkpt>
      <trkpt lat="42.462224" lon="-5.835737">
        <ele>851.844</ele>
        <time>2021-07-18T08:14:56Z</time>
      </trkpt>
      <trkpt lat="42.462166" lon="-5.835405">
        <ele>855.716</ele>
        <time>2021-07-18T08:15:04Z</time>
      </trkpt>
      <trkpt lat="42.462084" lon="-5.835116">
        <ele>856.193</ele>
        <time>2021-07-18T08:15:12Z</time>
      </trkpt>
      <trkpt lat="42.462021" lon="-5.834883">
        <ele>853.773</ele>
        <time>2021-07-18T08:15:19Z</time>
      </trkpt>
      <trkpt lat="42.462029" lon="-5.834556">
        <ele>852.857</ele>
        <time>2021-07-18T08:15:26Z</time>
      </trkpt>
      <trkpt lat="42.462004" lon="-5.834524">
        <ele>852.375</ele>
        <time>2021-07-18T08:15:27Z</time>
      </trkpt>
      <trkpt lat="42.461978" lon="-5.834504">
        <ele>852.352</ele>
        <time>2021-07-18T08:15:28Z</time>
      </trkpt>
      <trkpt lat="42.461947" lon="-5.834484">
        <ele>851.880</ele>
        <time>2021-07-18T08:15:29Z</time>
      </trkpt>
      <trkpt lat="42.461919" lon="-5.834463">
        <ele>851.874</ele>
        <time>2021-07-18T08:15:30Z</time>
      </trkpt>
      <trkpt lat="42.461721" lon="-5.834313">
        <ele>851.356</ele>
        <time>2021-07-18T08:15:37Z</time>
      </trkpt>
      <trkpt lat="42.461480" lon="-5.834180">
        <ele>851.321</ele>
        <time>2021-07-18T08:15:44Z</time>
      </trkpt>
      <trkpt lat="42.461104" lon="-5.834066">
        <ele>850.408</ele>
        <time>2021-07-18T08:15:54Z</time>
      </trkpt>
      <trkpt lat="42.460822" lon="-5.833968">
        <ele>848.564</ele>
        <time>2021-07-18T08:16:03Z</time>
      </trkpt>
      <trkpt lat="42.460619" lon="-5.833915">
        <ele>846.546</ele>
        <time>2021-07-18T08:16:10Z</time>
      </trkpt>
      <trkpt lat="42.460323" lon="-5.833884">
        <ele>845.143</ele>
        <time>2021-07-18T08:16:18Z</time>
      </trkpt>
      <trkpt lat="42.460043" lon="-5.833953">
        <ele>845.653</ele>
        <time>2021-07-18T08:16:26Z</time>
      </trkpt>
      <trkpt lat="42.460005" lon="-5.833924">
        <ele>845.627</ele>
        <time>2021-07-18T08:16:28Z</time>
      </trkpt>
      <trkpt lat="42.459993" lon="-5.833898">
        <ele>845.675</ele>
        <time>2021-07-18T08:16:29Z</time>
      </trkpt>
      <trkpt lat="42.459988" lon="-5.833872">
        <ele>845.662</ele>
        <time>2021-07-18T08:16:30Z</time>
      </trkpt>
      <trkpt lat="42.459983" lon="-5.833841">
        <ele>845.690</ele>
        <time>2021-07-18T08:16:31Z</time>
      </trkpt>
      <trkpt lat="42.459978" lon="-5.833807">
        <ele>845.637</ele>
        <time>2021-07-18T08:16:32Z</time>
      </trkpt>
      <trkpt lat="42.459978" lon="-5.833766">
        <ele>845.649</ele>
        <time>2021-07-18T08:16:33Z</time>
      </trkpt>
      <trkpt lat="42.459978" lon="-5.833728">
        <ele>845.613</ele>
        <time>2021-07-18T08:16:34Z</time>
      </trkpt>
      <trkpt lat="42.459986" lon="-5.833364">
        <ele>846.508</ele>
        <time>2021-07-18T08:16:43Z</time>
      </trkpt>
      <trkpt lat="42.460004" lon="-5.832977">
        <ele>846.120</ele>
        <time>2021-07-18T08:16:52Z</time>
      </trkpt>
      <trkpt lat="42.460020" lon="-5.832596">
        <ele>846.582</ele>
        <time>2021-07-18T08:17:00Z</time>
      </trkpt>
      <trkpt lat="42.460027" lon="-5.832170">
        <ele>847.589</ele>
        <time>2021-07-18T08:17:09Z</time>
      </trkpt>
      <trkpt lat="42.460033" lon="-5.831631">
        <ele>848.049</ele>
        <time>2021-07-18T08:17:21Z</time>
      </trkpt>
      <trkpt lat="42.460044" lon="-5.831152">
        <ele>848.533</ele>
        <time>2021-07-18T08:17:31Z</time>
      </trkpt>
      <trkpt lat="42.460065" lon="-5.830530">
        <ele>848.581</ele>
        <time>2021-07-18T08:17:44Z</time>
      </trkpt>
      <trkpt lat="42.460077" lon="-5.829971">
        <ele>848.918</ele>
        <time>2021-07-18T08:17:55Z</time>
      </trkpt>
      <trkpt lat="42.460075" lon="-5.829561">
        <ele>848.946</ele>
        <time>2021-07-18T08:18:03Z</time>
      </trkpt>
      <trkpt lat="42.460084" lon="-5.828991">
        <ele>848.985</ele>
        <time>2021-07-18T08:18:14Z</time>
      </trkpt>
      <trkpt lat="42.460109" lon="-5.828392">
        <ele>848.989</ele>
        <time>2021-07-18T08:18:26Z</time>
      </trkpt>
      <trkpt lat="42.460121" lon="-5.827858">
        <ele>848.917</ele>
        <time>2021-07-18T08:18:37Z</time>
      </trkpt>
      <trkpt lat="42.460135" lon="-5.827304">
        <ele>848.908</ele>
        <time>2021-07-18T08:18:48Z</time>
      </trkpt>
      <trkpt lat="42.460148" lon="-5.826755">
        <ele>848.995</ele>
        <time>2021-07-18T08:18:59Z</time>
      </trkpt>
      <trkpt lat="42.460130" lon="-5.826400">
        <ele>848.587</ele>
        <time>2021-07-18T08:19:07Z</time>
      </trkpt>
      <trkpt lat="42.460151" lon="-5.826093">
        <ele>848.914</ele>
        <time>2021-07-18T08:19:14Z</time>
      </trkpt>
      <trkpt lat="42.460174" lon="-5.825659">
        <ele>848.594</ele>
        <time>2021-07-18T08:19:24Z</time>
      </trkpt>
      <trkpt lat="42.460183" lon="-5.825236">
        <ele>848.568</ele>
        <time>2021-07-18T08:19:34Z</time>
      </trkpt>
      <trkpt lat="42.460205" lon="-5.824795">
        <ele>848.586</ele>
        <time>2021-07-18T08:19:44Z</time>
      </trkpt>
      <trkpt lat="42.460222" lon="-5.824209">
        <ele>848.513</ele>
        <time>2021-07-18T08:19:57Z</time>
      </trkpt>
      <trkpt lat="42.460221" lon="-5.823839">
        <ele>848.911</ele>
        <time>2021-07-18T08:20:05Z</time>
      </trkpt>
      <trkpt lat="42.460234" lon="-5.823232">
        <ele>848.916</ele>
        <time>2021-07-18T08:20:18Z</time>
      </trkpt>
      <trkpt lat="42.460246" lon="-5.822657">
        <ele>849.476</ele>
        <time>2021-07-18T08:20:30Z</time>
      </trkpt>
      <trkpt lat="42.460253" lon="-5.822204">
        <ele>849.913</ele>
        <time>2021-07-18T08:20:41Z</time>
      </trkpt>
      <trkpt lat="42.460254" lon="-5.821891">
        <ele>849.408</ele>
        <time>2021-07-18T08:20:50Z</time>
      </trkpt>
      <trkpt lat="42.460252" lon="-5.821591">
        <ele>848.958</ele>
        <time>2021-07-18T08:20:58Z</time>
      </trkpt>
      <trkpt lat="42.460264" lon="-5.821209">
        <ele>848.590</ele>
        <time>2021-07-18T08:21:06Z</time>
      </trkpt>
      <trkpt lat="42.460274" lon="-5.820750">
        <ele>848.017</ele>
        <time>2021-07-18T08:21:16Z</time>
      </trkpt>
      <trkpt lat="42.460291" lon="-5.820135">
        <ele>848.077</ele>
        <time>2021-07-18T08:21:29Z</time>
      </trkpt>
      <trkpt lat="42.460295" lon="-5.819785">
        <ele>847.581</ele>
        <time>2021-07-18T08:21:38Z</time>
      </trkpt>
      <trkpt lat="42.460307" lon="-5.819289">
        <ele>848.059</ele>
        <time>2021-07-18T08:21:49Z</time>
      </trkpt>
      <trkpt lat="42.460318" lon="-5.818874">
        <ele>847.526</ele>
        <time>2021-07-18T08:21:58Z</time>
      </trkpt>
      <trkpt lat="42.460329" lon="-5.818223">
        <ele>847.014</ele>
        <time>2021-07-18T08:22:11Z</time>
      </trkpt>
      <trkpt lat="42.460344" lon="-5.817770">
        <ele>847.087</ele>
        <time>2021-07-18T08:22:20Z</time>
      </trkpt>
      <trkpt lat="42.460357" lon="-5.817334">
        <ele>847.042</ele>
        <time>2021-07-18T08:22:30Z</time>
      </trkpt>
      <trkpt lat="42.460377" lon="-5.816836">
        <ele>846.526</ele>
        <time>2021-07-18T08:22:41Z</time>
      </trkpt>
      <trkpt lat="42.460371" lon="-5.816428">
        <ele>846.108</ele>
        <time>2021-07-18T08:22:50Z</time>
      </trkpt>
      <trkpt lat="42.460390" lon="-5.815989">
        <ele>846.135</ele>
        <time>2021-07-18T08:22:59Z</time>
      </trkpt>
      <trkpt lat="42.460401" lon="-5.815573">
        <ele>845.687</ele>
        <time>2021-07-18T08:23:09Z</time>
      </trkpt>
      <trkpt lat="42.460416" lon="-5.815101">
        <ele>845.634</ele>
        <time>2021-07-18T08:23:20Z</time>
      </trkpt>
      <trkpt lat="42.460423" lon="-5.814585">
        <ele>846.164</ele>
        <time>2021-07-18T08:23:31Z</time>
      </trkpt>
      <trkpt lat="42.460434" lon="-5.814081">
        <ele>845.698</ele>
        <time>2021-07-18T08:23:42Z</time>
      </trkpt>
      <trkpt lat="42.460444" lon="-5.813641">
        <ele>846.186</ele>
        <time>2021-07-18T08:23:51Z</time>
      </trkpt>
      <trkpt lat="42.460455" lon="-5.813198">
        <ele>846.583</ele>
        <time>2021-07-18T08:24:00Z</time>
      </trkpt>
      <trkpt lat="42.460462" lon="-5.812735">
        <ele>847.581</ele>
        <time>2021-07-18T08:24:10Z</time>
      </trkpt>
      <trkpt lat="42.460486" lon="-5.812391">
        <ele>847.052</ele>
        <time>2021-07-18T08:24:18Z</time>
      </trkpt>
      <trkpt lat="42.460508" lon="-5.812112">
        <ele>847.053</ele>
        <time>2021-07-18T08:24:24Z</time>
      </trkpt>
      <trkpt lat="42.460519" lon="-5.811522">
        <ele>847.508</ele>
        <time>2021-07-18T08:24:35Z</time>
      </trkpt>
      <trkpt lat="42.460530" lon="-5.811211">
        <ele>847.008</ele>
        <time>2021-07-18T08:24:41Z</time>
      </trkpt>
      <trkpt lat="42.460548" lon="-5.810658">
        <ele>847.072</ele>
        <time>2021-07-18T08:24:52Z</time>
      </trkpt>
      <trkpt lat="42.460559" lon="-5.810138">
        <ele>846.514</ele>
        <time>2021-07-18T08:25:02Z</time>
      </trkpt>
      <trkpt lat="42.460571" lon="-5.809668">
        <ele>846.121</ele>
        <time>2021-07-18T08:25:11Z</time>
      </trkpt>
      <trkpt lat="42.460593" lon="-5.809118">
        <ele>846.111</ele>
        <time>2021-07-18T08:25:21Z</time>
      </trkpt>
      <trkpt lat="42.460597" lon="-5.808624">
        <ele>846.165</ele>
        <time>2021-07-18T08:25:31Z</time>
      </trkpt>
      <trkpt lat="42.460603" lon="-5.808053">
        <ele>846.133</ele>
        <time>2021-07-18T08:25:42Z</time>
      </trkpt>
      <trkpt lat="42.460619" lon="-5.807397">
        <ele>845.670</ele>
        <time>2021-07-18T08:25:54Z</time>
      </trkpt>
      <trkpt lat="42.460634" lon="-5.806850">
        <ele>845.658</ele>
        <time>2021-07-18T08:26:04Z</time>
      </trkpt>
      <trkpt lat="42.460640" lon="-5.806454">
        <ele>845.672</ele>
        <time>2021-07-18T08:26:12Z</time>
      </trkpt>
      <trkpt lat="42.460648" lon="-5.806095">
        <ele>845.613</ele>
        <time>2021-07-18T08:26:20Z</time>
      </trkpt>
      <trkpt lat="42.460662" lon="-5.805628">
        <ele>845.614</ele>
        <time>2021-07-18T08:26:30Z</time>
      </trkpt>
      <trkpt lat="42.460662" lon="-5.805230">
        <ele>845.608</ele>
        <time>2021-07-18T08:26:40Z</time>
      </trkpt>
      <trkpt lat="42.460655" lon="-5.804995">
        <ele>846.124</ele>
        <time>2021-07-18T08:26:47Z</time>
      </trkpt>
      <trkpt lat="42.460666" lon="-5.804648">
        <ele>847.076</ele>
        <time>2021-07-18T08:26:57Z</time>
      </trkpt>
      <trkpt lat="42.460684" lon="-5.804356">
        <ele>848.033</ele>
        <time>2021-07-18T08:27:06Z</time>
      </trkpt>
      <trkpt lat="42.460688" lon="-5.804076">
        <ele>848.583</ele>
        <time>2021-07-18T08:27:15Z</time>
      </trkpt>
      <trkpt lat="42.460693" lon="-5.803728">
        <ele>848.947</ele>
        <time>2021-07-18T08:27:26Z</time>
      </trkpt>
      <trkpt lat="42.460716" lon="-5.803465">
        <ele>849.445</ele>
        <time>2021-07-18T08:27:34Z</time>
      </trkpt>
      <trkpt lat="42.460727" lon="-5.803067">
        <ele>850.412</ele>
        <time>2021-07-18T08:27:45Z</time>
      </trkpt>
      <trkpt lat="42.460719" lon="-5.802771">
        <ele>850.460</ele>
        <time>2021-07-18T08:27:54Z</time>
      </trkpt>
      <trkpt lat="42.460719" lon="-5.802754">
        <ele>850.446</ele>
        <time>2021-07-18T08:27:59Z</time>
      </trkpt>
      <trkpt lat="42.460721" lon="-5.802742">
        <ele>850.988</ele>
        <time>2021-07-18T08:28:07Z</time>
      </trkpt>
      <trkpt lat="42.460722" lon="-5.802726">
        <ele>850.916</ele>
        <time>2021-07-18T08:28:08Z</time>
      </trkpt>
      <trkpt lat="42.460722" lon="-5.802708">
        <ele>851.308</ele>
        <time>2021-07-18T08:28:09Z</time>
      </trkpt>
      <trkpt lat="42.460724" lon="-5.802688">
        <ele>851.331</ele>
        <time>2021-07-18T08:28:10Z</time>
      </trkpt>
      <trkpt lat="42.460729" lon="-5.802663">
        <ele>851.333</ele>
        <time>2021-07-18T08:28:11Z</time>
      </trkpt>
      <trkpt lat="42.460733" lon="-5.802637">
        <ele>851.870</ele>
        <time>2021-07-18T08:28:12Z</time>
      </trkpt>
      <trkpt lat="42.460736" lon="-5.802609">
        <ele>851.840</ele>
        <time>2021-07-18T08:28:13Z</time>
      </trkpt>
      <trkpt lat="42.460715" lon="-5.802353">
        <ele>851.344</ele>
        <time>2021-07-18T08:28:21Z</time>
      </trkpt>
      <trkpt lat="42.460728" lon="-5.802012">
        <ele>851.322</ele>
        <time>2021-07-18T08:28:30Z</time>
      </trkpt>
      <trkpt lat="42.460721" lon="-5.801626">
        <ele>851.839</ele>
        <time>2021-07-18T08:28:40Z</time>
      </trkpt>
      <trkpt lat="42.460658" lon="-5.801244">
        <ele>852.357</ele>
        <time>2021-07-18T08:28:50Z</time>
      </trkpt>
      <trkpt lat="42.460546" lon="-5.800849">
        <ele>852.362</ele>
        <time>2021-07-18T08:29:01Z</time>
      </trkpt>
      <trkpt lat="42.460368" lon="-5.800427">
        <ele>853.383</ele>
        <time>2021-07-18T08:29:13Z</time>
      </trkpt>
      <trkpt lat="42.460184" lon="-5.799981">
        <ele>854.211</ele>
        <time>2021-07-18T08:29:25Z</time>
      </trkpt>
      <trkpt lat="42.460031" lon="-5.799622">
        <ele>853.708</ele>
        <time>2021-07-18T08:29:35Z</time>
      </trkpt>
      <trkpt lat="42.459876" lon="-5.799256">
        <ele>854.763</ele>
        <time>2021-07-18T08:29:45Z</time>
      </trkpt>
      <trkpt lat="42.459669" lon="-5.798775">
        <ele>854.265</ele>
        <time>2021-07-18T08:29:58Z</time>
      </trkpt>
      <trkpt lat="42.459483" lon="-5.798365">
        <ele>854.712</ele>
        <time>2021-07-18T08:30:09Z</time>
      </trkpt>
      <trkpt lat="42.459398" lon="-5.798063">
        <ele>856.192</ele>
        <time>2021-07-18T08:30:18Z</time>
      </trkpt>
      <trkpt lat="42.459402" lon="-5.797767">
        <ele>858.556</ele>
        <time>2021-07-18T08:30:28Z</time>
      </trkpt>
      <trkpt lat="42.459466" lon="-5.797596">
        <ele>858.534</ele>
        <time>2021-07-18T08:30:37Z</time>
      </trkpt>
      <trkpt lat="42.459583" lon="-5.797451">
        <ele>859.051</ele>
        <time>2021-07-18T08:30:45Z</time>
      </trkpt>
      <trkpt lat="42.459771" lon="-5.797325">
        <ele>859.599</ele>
        <time>2021-07-18T08:30:56Z</time>
      </trkpt>
      <trkpt lat="42.459926" lon="-5.797279">
        <ele>860.013</ele>
        <time>2021-07-18T08:31:05Z</time>
      </trkpt>
      <trkpt lat="42.460120" lon="-5.797223">
        <ele>860.543</ele>
        <time>2021-07-18T08:31:14Z</time>
      </trkpt>
      <trkpt lat="42.460305" lon="-5.797225">
        <ele>860.507</ele>
        <time>2021-07-18T08:31:22Z</time>
      </trkpt>
      <trkpt lat="42.460573" lon="-5.797261">
        <ele>860.508</ele>
        <time>2021-07-18T08:31:31Z</time>
      </trkpt>
      <trkpt lat="42.460828" lon="-5.797305">
        <ele>860.598</ele>
        <time>2021-07-18T08:31:39Z</time>
      </trkpt>
      <trkpt lat="42.461061" lon="-5.797352">
        <ele>861.030</ele>
        <time>2021-07-18T08:31:47Z</time>
      </trkpt>
      <trkpt lat="42.461265" lon="-5.797323">
        <ele>861.497</ele>
        <time>2021-07-18T08:31:55Z</time>
      </trkpt>
      <trkpt lat="42.461374" lon="-5.797157">
        <ele>860.577</ele>
        <time>2021-07-18T08:32:01Z</time>
      </trkpt>
      <trkpt lat="42.461479" lon="-5.796866">
        <ele>860.071</ele>
        <time>2021-07-18T08:32:10Z</time>
      </trkpt>
      <trkpt lat="42.461568" lon="-5.796580">
        <ele>859.539</ele>
        <time>2021-07-18T08:32:19Z</time>
      </trkpt>
      <trkpt lat="42.461631" lon="-5.796383">
        <ele>859.536</ele>
        <time>2021-07-18T08:32:25Z</time>
      </trkpt>
      <trkpt lat="42.461723" lon="-5.796085">
        <ele>859.594</ele>
        <time>2021-07-18T08:32:34Z</time>
      </trkpt>
      <trkpt lat="42.461803" lon="-5.795811">
        <ele>859.517</ele>
        <time>2021-07-18T08:32:42Z</time>
      </trkpt>
      <trkpt lat="42.461869" lon="-5.795610">
        <ele>859.587</ele>
        <time>2021-07-18T08:32:49Z</time>
      </trkpt>
      <trkpt lat="42.461870" lon="-5.795585">
        <ele>860.015</ele>
        <time>2021-07-18T08:32:50Z</time>
      </trkpt>
      <trkpt lat="42.461873" lon="-5.795559">
        <ele>860.008</ele>
        <time>2021-07-18T08:32:51Z</time>
      </trkpt>
      <trkpt lat="42.461882" lon="-5.795531">
        <ele>860.048</ele>
        <time>2021-07-18T08:32:52Z</time>
      </trkpt>
      <trkpt lat="42.461892" lon="-5.795501">
        <ele>860.010</ele>
        <time>2021-07-18T08:32:53Z</time>
      </trkpt>
      <trkpt lat="42.461905" lon="-5.795463">
        <ele>860.047</ele>
        <time>2021-07-18T08:32:54Z</time>
      </trkpt>
      <trkpt lat="42.461921" lon="-5.795429">
        <ele>860.527</ele>
        <time>2021-07-18T08:32:55Z</time>
      </trkpt>
      <trkpt lat="42.461938" lon="-5.795395">
        <ele>860.031</ele>
        <time>2021-07-18T08:32:56Z</time>
      </trkpt>
      <trkpt lat="42.462012" lon="-5.795161">
        <ele>860.589</ele>
        <time>2021-07-18T08:33:04Z</time>
      </trkpt>
      <trkpt lat="42.462021" lon="-5.795099">
        <ele>861.046</ele>
        <time>2021-07-18T08:33:09Z</time>
      </trkpt>
      <trkpt lat="42.462023" lon="-5.795114">
        <ele>861.054</ele>
        <time>2021-07-18T08:33:24Z</time>
      </trkpt>
      <trkpt lat="42.462024" lon="-5.795107">
        <ele>860.569</ele>
        <time>2021-07-18T08:33:43Z</time>
      </trkpt>
      <trkpt lat="42.462029" lon="-5.795097">
        <ele>861.904</ele>
        <time>2021-07-18T08:34:01Z</time>
      </trkpt>
      <trkpt lat="42.462031" lon="-5.795097">
        <ele>861.024</ele>
        <time>2021-07-18T08:34:16Z</time>
      </trkpt>
      <trkpt lat="42.462032" lon="-5.795094">
        <ele>860.508</ele>
        <time>2021-07-18T08:34:29Z</time>
      </trkpt>
      <trkpt lat="42.462037" lon="-5.795096">
        <ele>861.043</ele>
        <time>2021-07-18T08:34:42Z</time>
      </trkpt>
      <trkpt lat="42.462041" lon="-5.795084">
        <ele>860.555</ele>
        <time>2021-07-18T08:34:50Z</time>
      </trkpt>
      <trkpt lat="42.462049" lon="-5.795070">
        <ele>860.522</ele>
        <time>2021-07-18T08:34:51Z</time>
      </trkpt>
      <trkpt lat="42.462056" lon="-5.795050">
        <ele>860.552</ele>
        <time>2021-07-18T08:34:52Z</time>
      </trkpt>
      <trkpt lat="42.462064" lon="-5.795023">
        <ele>860.586</ele>
        <time>2021-07-18T08:34:53Z</time>
      </trkpt>
      <trkpt lat="42.462073" lon="-5.794993">
        <ele>860.584</ele>
        <time>2021-07-18T08:34:54Z</time>
      </trkpt>
      <trkpt lat="42.462158" lon="-5.794730">
        <ele>860.041</ele>
        <time>2021-07-18T08:35:01Z</time>
      </trkpt>
      <trkpt lat="42.462270" lon="-5.794371">
        <ele>860.089</ele>
        <time>2021-07-18T08:35:10Z</time>
      </trkpt>
      <trkpt lat="42.462403" lon="-5.793938">
        <ele>860.022</ele>
        <time>2021-07-18T08:35:20Z</time>
      </trkpt>
      <trkpt lat="42.462535" lon="-5.793527">
        <ele>859.562</ele>
        <time>2021-07-18T08:35:29Z</time>
      </trkpt>
      <trkpt lat="42.462669" lon="-5.793121">
        <ele>860.008</ele>
        <time>2021-07-18T08:35:38Z</time>
      </trkpt>
      <trkpt lat="42.462817" lon="-5.792614">
        <ele>860.508</ele>
        <time>2021-07-18T08:35:49Z</time>
      </trkpt>
      <trkpt lat="42.462874" lon="-5.792417">
        <ele>861.049</ele>
        <time>2021-07-18T08:35:53Z</time>
      </trkpt>
      <trkpt lat="42.463031" lon="-5.791923">
        <ele>860.571</ele>
        <time>2021-07-18T08:36:03Z</time>
      </trkpt>
      <trkpt lat="42.463174" lon="-5.791470">
        <ele>860.588</ele>
        <time>2021-07-18T08:36:12Z</time>
      </trkpt>
      <trkpt lat="42.463305" lon="-5.791040">
        <ele>860.558</ele>
        <time>2021-07-18T08:36:21Z</time>
      </trkpt>
      <trkpt lat="42.463400" lon="-5.790740">
        <ele>860.512</ele>
        <time>2021-07-18T08:36:27Z</time>
      </trkpt>
      <trkpt lat="42.463414" lon="-5.790689">
        <ele>861.080</ele>
        <time>2021-07-18T08:36:28Z</time>
      </trkpt>
      <trkpt lat="42.463608" lon="-5.790075">
        <ele>860.597</ele>
        <time>2021-07-18T08:36:40Z</time>
      </trkpt>
      <trkpt lat="42.463767" lon="-5.789553">
        <ele>860.575</ele>
        <time>2021-07-18T08:36:50Z</time>
      </trkpt>
      <trkpt lat="42.463981" lon="-5.788885">
        <ele>860.585</ele>
        <time>2021-07-18T08:37:03Z</time>
      </trkpt>
      <trkpt lat="42.464151" lon="-5.788322">
        <ele>860.589</ele>
        <time>2021-07-18T08:37:14Z</time>
      </trkpt>
      <trkpt lat="42.464293" lon="-5.787896">
        <ele>860.517</ele>
        <time>2021-07-18T08:37:23Z</time>
      </trkpt>
      <trkpt lat="42.464461" lon="-5.787349">
        <ele>861.008</ele>
        <time>2021-07-18T08:37:33Z</time>
      </trkpt>
      <trkpt lat="42.464617" lon="-5.786874">
        <ele>861.025</ele>
        <time>2021-07-18T08:37:42Z</time>
      </trkpt>
      <trkpt lat="42.464684" lon="-5.786662">
        <ele>861.017</ele>
        <time>2021-07-18T08:37:46Z</time>
      </trkpt>
      <trkpt lat="42.464702" lon="-5.786609">
        <ele>861.064</ele>
        <time>2021-07-18T08:37:47Z</time>
      </trkpt>
      <trkpt lat="42.464718" lon="-5.786556">
        <ele>861.054</ele>
        <time>2021-07-18T08:37:48Z</time>
      </trkpt>
      <trkpt lat="42.464734" lon="-5.786502">
        <ele>861.098</ele>
        <time>2021-07-18T08:37:49Z</time>
      </trkpt>
      <trkpt lat="42.464752" lon="-5.786449">
        <ele>861.096</ele>
        <time>2021-07-18T08:37:50Z</time>
      </trkpt>
      <trkpt lat="42.464961" lon="-5.785797">
        <ele>861.463</ele>
        <time>2021-07-18T08:38:02Z</time>
      </trkpt>
      <trkpt lat="42.465096" lon="-5.785365">
        <ele>861.961</ele>
        <time>2021-07-18T08:38:10Z</time>
      </trkpt>
      <trkpt lat="42.465260" lon="-5.784862">
        <ele>861.914</ele>
        <time>2021-07-18T08:38:19Z</time>
      </trkpt>
      <trkpt lat="42.465419" lon="-5.784356">
        <ele>862.454</ele>
        <time>2021-07-18T08:38:28Z</time>
      </trkpt>
      <trkpt lat="42.465609" lon="-5.783745">
        <ele>861.909</ele>
        <time>2021-07-18T08:38:39Z</time>
      </trkpt>
      <trkpt lat="42.465792" lon="-5.783177">
        <ele>861.908</ele>
        <time>2021-07-18T08:38:49Z</time>
      </trkpt>
      <trkpt lat="42.466005" lon="-5.782495">
        <ele>861.998</ele>
        <time>2021-07-18T08:39:01Z</time>
      </trkpt>
      <trkpt lat="42.466220" lon="-5.781803">
        <ele>861.950</ele>
        <time>2021-07-18T08:39:13Z</time>
      </trkpt>
      <trkpt lat="42.466453" lon="-5.781041">
        <ele>862.487</ele>
        <time>2021-07-18T08:39:26Z</time>
      </trkpt>
      <trkpt lat="42.466701" lon="-5.780270">
        <ele>862.477</ele>
        <time>2021-07-18T08:39:39Z</time>
      </trkpt>
      <trkpt lat="42.466905" lon="-5.779623">
        <ele>862.441</ele>
        <time>2021-07-18T08:39:50Z</time>
      </trkpt>
      <trkpt lat="42.467121" lon="-5.778979">
        <ele>862.479</ele>
        <time>2021-07-18T08:40:01Z</time>
      </trkpt>
      <trkpt lat="42.467318" lon="-5.778330">
        <ele>862.966</ele>
        <time>2021-07-18T08:40:12Z</time>
      </trkpt>
      <trkpt lat="42.467486" lon="-5.777802">
        <ele>862.974</ele>
        <time>2021-07-18T08:40:21Z</time>
      </trkpt>
      <trkpt lat="42.467674" lon="-5.777200">
        <ele>862.969</ele>
        <time>2021-07-18T08:40:31Z</time>
      </trkpt>
      <trkpt lat="42.467934" lon="-5.776367">
        <ele>862.904</ele>
        <time>2021-07-18T08:40:45Z</time>
      </trkpt>
      <trkpt lat="42.468186" lon="-5.775554">
        <ele>862.424</ele>
        <time>2021-07-18T08:40:58Z</time>
      </trkpt>
      <trkpt lat="42.468445" lon="-5.774758">
        <ele>862.408</ele>
        <time>2021-07-18T08:41:11Z</time>
      </trkpt>
      <trkpt lat="42.468717" lon="-5.773876">
        <ele>862.473</ele>
        <time>2021-07-18T08:41:25Z</time>
      </trkpt>
      <trkpt lat="42.468970" lon="-5.773097">
        <ele>862.945</ele>
        <time>2021-07-18T08:41:37Z</time>
      </trkpt>
      <trkpt lat="42.469208" lon="-5.772362">
        <ele>862.482</ele>
        <time>2021-07-18T08:41:49Z</time>
      </trkpt>
      <trkpt lat="42.469465" lon="-5.771542">
        <ele>862.472</ele>
        <time>2021-07-18T08:42:02Z</time>
      </trkpt>
      <trkpt lat="42.469675" lon="-5.770890">
        <ele>861.966</ele>
        <time>2021-07-18T08:42:13Z</time>
      </trkpt>
      <trkpt lat="42.469851" lon="-5.770339">
        <ele>861.974</ele>
        <time>2021-07-18T08:42:22Z</time>
      </trkpt>
      <trkpt lat="42.470071" lon="-5.769630">
        <ele>861.971</ele>
        <time>2021-07-18T08:42:33Z</time>
      </trkpt>
      <trkpt lat="42.470258" lon="-5.769060">
        <ele>861.929</ele>
        <time>2021-07-18T08:42:42Z</time>
      </trkpt>
      <trkpt lat="42.470450" lon="-5.768452">
        <ele>861.929</ele>
        <time>2021-07-18T08:42:52Z</time>
      </trkpt>
      <trkpt lat="42.470706" lon="-5.767660">
        <ele>861.900</ele>
        <time>2021-07-18T08:43:05Z</time>
      </trkpt>
      <trkpt lat="42.470944" lon="-5.766920">
        <ele>861.420</ele>
        <time>2021-07-18T08:43:17Z</time>
      </trkpt>
      <trkpt lat="42.471135" lon="-5.766297">
        <ele>861.908</ele>
        <time>2021-07-18T08:43:27Z</time>
      </trkpt>
      <trkpt lat="42.471367" lon="-5.765564">
        <ele>861.919</ele>
        <time>2021-07-18T08:43:39Z</time>
      </trkpt>
      <trkpt lat="42.471554" lon="-5.765000">
        <ele>861.911</ele>
        <time>2021-07-18T08:43:48Z</time>
      </trkpt>
      <trkpt lat="42.471750" lon="-5.764355">
        <ele>861.458</ele>
        <time>2021-07-18T08:43:58Z</time>
      </trkpt>
      <trkpt lat="42.471965" lon="-5.763666">
        <ele>861.918</ele>
        <time>2021-07-18T08:44:09Z</time>
      </trkpt>
      <trkpt lat="42.472187" lon="-5.762986">
        <ele>862.472</ele>
        <time>2021-07-18T08:44:21Z</time>
      </trkpt>
      <trkpt lat="42.472336" lon="-5.762514">
        <ele>863.440</ele>
        <time>2021-07-18T08:44:30Z</time>
      </trkpt>
      <trkpt lat="42.472557" lon="-5.761817">
        <ele>863.897</ele>
        <time>2021-07-18T08:44:43Z</time>
      </trkpt>
      <trkpt lat="42.472775" lon="-5.761122">
        <ele>864.315</ele>
        <time>2021-07-18T08:44:55Z</time>
      </trkpt>
      <trkpt lat="42.472872" lon="-5.760807">
        <ele>863.878</ele>
        <time>2021-07-18T08:45:02Z</time>
      </trkpt>
      <trkpt lat="42.472885" lon="-5.760762">
        <ele>863.833</ele>
        <time>2021-07-18T08:45:04Z</time>
      </trkpt>
      <trkpt lat="42.472901" lon="-5.760758">
        <ele>864.326</ele>
        <time>2021-07-18T08:45:05Z</time>
      </trkpt>
      <trkpt lat="42.472912" lon="-5.760772">
        <ele>864.308</ele>
        <time>2021-07-18T08:45:06Z</time>
      </trkpt>
      <trkpt lat="42.472910" lon="-5.760793">
        <ele>864.384</ele>
        <time>2021-07-18T08:45:07Z</time>
      </trkpt>
      <trkpt lat="42.472898" lon="-5.760819">
        <ele>864.346</ele>
        <time>2021-07-18T08:45:08Z</time>
      </trkpt>
      <trkpt lat="42.472881" lon="-5.760840">
        <ele>864.363</ele>
        <time>2021-07-18T08:45:09Z</time>
      </trkpt>
      <trkpt lat="42.472867" lon="-5.760858">
        <ele>864.343</ele>
        <time>2021-07-18T08:45:10Z</time>
      </trkpt>
      <trkpt lat="42.472853" lon="-5.760882">
        <ele>864.347</ele>
        <time>2021-07-18T08:45:11Z</time>
      </trkpt>
      <trkpt lat="42.472841" lon="-5.760907">
        <ele>864.325</ele>
        <time>2021-07-18T08:45:12Z</time>
      </trkpt>
      <trkpt lat="42.472797" lon="-5.761001">
        <ele>863.862</ele>
        <time>2021-07-18T08:45:19Z</time>
      </trkpt>
      <trkpt lat="42.472802" lon="-5.760988">
        <ele>863.850</ele>
        <time>2021-07-18T08:45:26Z</time>
      </trkpt>
      <trkpt lat="42.472802" lon="-5.760983">
        <ele>864.899</ele>
        <time>2021-07-18T08:45:37Z</time>
      </trkpt>
      <trkpt lat="42.472805" lon="-5.760978">
        <ele>865.307</ele>
        <time>2021-07-18T08:45:57Z</time>
      </trkpt>
      <trkpt lat="42.472808" lon="-5.760979">
        <ele>865.327</ele>
        <time>2021-07-18T08:46:15Z</time>
      </trkpt>
      <trkpt lat="42.472808" lon="-5.760973">
        <ele>865.808</ele>
        <time>2021-07-18T08:46:31Z</time>
      </trkpt>
      <trkpt lat="42.472808" lon="-5.760967">
        <ele>866.216</ele>
        <time>2021-07-18T08:46:47Z</time>
      </trkpt>
      <trkpt lat="42.472802" lon="-5.760972">
        <ele>866.258</ele>
        <time>2021-07-18T08:47:04Z</time>
      </trkpt>
      <trkpt lat="42.472806" lon="-5.760978">
        <ele>866.285</ele>
        <time>2021-07-18T08:47:20Z</time>
      </trkpt>
      <trkpt lat="42.472820" lon="-5.760984">
        <ele>865.855</ele>
        <time>2021-07-18T08:47:32Z</time>
      </trkpt>
      <trkpt lat="42.472821" lon="-5.760969">
        <ele>865.889</ele>
        <time>2021-07-18T08:47:38Z</time>
      </trkpt>
      <trkpt lat="42.472825" lon="-5.760960">
        <ele>865.847</ele>
        <time>2021-07-18T08:47:40Z</time>
      </trkpt>
      <trkpt lat="42.472831" lon="-5.760946">
        <ele>865.844</ele>
        <time>2021-07-18T08:47:41Z</time>
      </trkpt>
      <trkpt lat="42.472837" lon="-5.760927">
        <ele>865.812</ele>
        <time>2021-07-18T08:47:42Z</time>
      </trkpt>
      <trkpt lat="42.472901" lon="-5.760711">
        <ele>865.388</ele>
        <time>2021-07-18T08:47:49Z</time>
      </trkpt>
      <trkpt lat="42.473001" lon="-5.760383">
        <ele>864.324</ele>
        <time>2021-07-18T08:47:57Z</time>
      </trkpt>
      <trkpt lat="42.473124" lon="-5.759986">
        <ele>864.326</ele>
        <time>2021-07-18T08:48:06Z</time>
      </trkpt>
      <trkpt lat="42.473324" lon="-5.759368">
        <ele>863.808</ele>
        <time>2021-07-18T08:48:18Z</time>
      </trkpt>
      <trkpt lat="42.473522" lon="-5.758746">
        <ele>863.845</ele>
        <time>2021-07-18T08:48:29Z</time>
      </trkpt>
      <trkpt lat="42.473730" lon="-5.758078">
        <ele>863.877</ele>
        <time>2021-07-18T08:48:40Z</time>
      </trkpt>
      <trkpt lat="42.474020" lon="-5.757175">
        <ele>863.824</ele>
        <time>2021-07-18T08:48:54Z</time>
      </trkpt>
      <trkpt lat="42.474268" lon="-5.756390">
        <ele>864.354</ele>
        <time>2021-07-18T08:49:06Z</time>
      </trkpt>
      <trkpt lat="42.474527" lon="-5.755566">
        <ele>864.848</ele>
        <time>2021-07-18T08:49:19Z</time>
      </trkpt>
      <trkpt lat="42.474708" lon="-5.754989">
        <ele>864.826</ele>
        <time>2021-07-18T08:49:29Z</time>
      </trkpt>
      <trkpt lat="42.474910" lon="-5.754360">
        <ele>864.893</ele>
        <time>2021-07-18T08:49:40Z</time>
      </trkpt>
      <trkpt lat="42.475075" lon="-5.753834">
        <ele>864.821</ele>
        <time>2021-07-18T08:49:49Z</time>
      </trkpt>
      <trkpt lat="42.475318" lon="-5.753082">
        <ele>864.833</ele>
        <time>2021-07-18T08:50:02Z</time>
      </trkpt>
      <trkpt lat="42.475530" lon="-5.752412">
        <ele>865.323</ele>
        <time>2021-07-18T08:50:13Z</time>
      </trkpt>
      <trkpt lat="42.475760" lon="-5.751721">
        <ele>865.315</ele>
        <time>2021-07-18T08:50:24Z</time>
      </trkpt>
      <trkpt lat="42.475940" lon="-5.751137">
        <ele>865.308</ele>
        <time>2021-07-18T08:50:34Z</time>
      </trkpt>
      <trkpt lat="42.476030" lon="-5.750861">
        <ele>865.820</ele>
        <time>2021-07-18T08:50:39Z</time>
      </trkpt>
      <trkpt lat="42.476215" lon="-5.750260">
        <ele>866.262</ele>
        <time>2021-07-18T08:50:49Z</time>
      </trkpt>
      <trkpt lat="42.476411" lon="-5.749647">
        <ele>866.779</ele>
        <time>2021-07-18T08:50:59Z</time>
      </trkpt>
      <trkpt lat="42.476495" lon="-5.749402">
        <ele>867.279</ele>
        <time>2021-07-18T08:51:03Z</time>
      </trkpt>
      <trkpt lat="42.476693" lon="-5.748771">
        <ele>867.793</ele>
        <time>2021-07-18T08:51:13Z</time>
      </trkpt>
      <trkpt lat="42.476908" lon="-5.748080">
        <ele>867.711</ele>
        <time>2021-07-18T08:51:24Z</time>
      </trkpt>
      <trkpt lat="42.477137" lon="-5.747335">
        <ele>867.798</ele>
        <time>2021-07-18T08:51:36Z</time>
      </trkpt>
      <trkpt lat="42.477394" lon="-5.746521">
        <ele>867.796</ele>
        <time>2021-07-18T08:51:49Z</time>
      </trkpt>
      <trkpt lat="42.477645" lon="-5.745728">
        <ele>868.253</ele>
        <time>2021-07-18T08:52:02Z</time>
      </trkpt>
      <trkpt lat="42.477872" lon="-5.745006">
        <ele>868.204</ele>
        <time>2021-07-18T08:52:14Z</time>
      </trkpt>
      <trkpt lat="42.478093" lon="-5.744334">
        <ele>868.614</ele>
        <time>2021-07-18T08:52:25Z</time>
      </trkpt>
      <trkpt lat="42.478336" lon="-5.743589">
        <ele>868.608</ele>
        <time>2021-07-18T08:52:37Z</time>
      </trkpt>
      <trkpt lat="42.478536" lon="-5.742960">
        <ele>869.132</ele>
        <time>2021-07-18T08:52:47Z</time>
      </trkpt>
      <trkpt lat="42.478734" lon="-5.742337">
        <ele>870.124</ele>
        <time>2021-07-18T08:52:57Z</time>
      </trkpt>
      <trkpt lat="42.478994" lon="-5.741523">
        <ele>870.681</ele>
        <time>2021-07-18T08:53:10Z</time>
      </trkpt>
      <trkpt lat="42.479279" lon="-5.740638">
        <ele>871.021</ele>
        <time>2021-07-18T08:53:24Z</time>
      </trkpt>
      <trkpt lat="42.479484" lon="-5.740003">
        <ele>871.025</ele>
        <time>2021-07-18T08:53:34Z</time>
      </trkpt>
      <trkpt lat="42.479770" lon="-5.739122">
        <ele>871.543</ele>
        <time>2021-07-18T08:53:48Z</time>
      </trkpt>
      <trkpt lat="42.480006" lon="-5.738386">
        <ele>871.540</ele>
        <time>2021-07-18T08:54:00Z</time>
      </trkpt>
      <trkpt lat="42.480215" lon="-5.737692">
        <ele>871.538</ele>
        <time>2021-07-18T08:54:11Z</time>
      </trkpt>
      <trkpt lat="42.480464" lon="-5.736871">
        <ele>872.098</ele>
        <time>2021-07-18T08:54:24Z</time>
      </trkpt>
      <trkpt lat="42.480663" lon="-5.736224">
        <ele>872.015</ele>
        <time>2021-07-18T08:54:35Z</time>
      </trkpt>
      <trkpt lat="42.480838" lon="-5.735633">
        <ele>872.026</ele>
        <time>2021-07-18T08:54:45Z</time>
      </trkpt>
      <trkpt lat="42.480981" lon="-5.735133">
        <ele>872.008</ele>
        <time>2021-07-18T08:54:54Z</time>
      </trkpt>
      <trkpt lat="42.481128" lon="-5.734599">
        <ele>872.046</ele>
        <time>2021-07-18T08:55:04Z</time>
      </trkpt>
      <trkpt lat="42.481270" lon="-5.734010">
        <ele>872.098</ele>
        <time>2021-07-18T08:55:15Z</time>
      </trkpt>
      <trkpt lat="42.481344" lon="-5.733733">
        <ele>873.065</ele>
        <time>2021-07-18T08:55:22Z</time>
      </trkpt>
      <trkpt lat="42.481353" lon="-5.733753">
        <ele>873.045</ele>
        <time>2021-07-18T08:55:35Z</time>
      </trkpt>
      <trkpt lat="42.481354" lon="-5.733753">
        <ele>871.059</ele>
        <time>2021-07-18T08:55:57Z</time>
      </trkpt>
      <trkpt lat="42.481350" lon="-5.733757">
        <ele>870.697</ele>
        <time>2021-07-18T08:56:17Z</time>
      </trkpt>
      <trkpt lat="42.481355" lon="-5.733759">
        <ele>871.014</ele>
        <time>2021-07-18T08:56:39Z</time>
      </trkpt>
      <trkpt lat="42.481358" lon="-5.733766">
        <ele>871.552</ele>
        <time>2021-07-18T08:56:57Z</time>
      </trkpt>
      <trkpt lat="42.481380" lon="-5.733715">
        <ele>872.016</ele>
        <time>2021-07-18T08:57:06Z</time>
      </trkpt>
      <trkpt lat="42.481454" lon="-5.733426">
        <ele>872.076</ele>
        <time>2021-07-18T08:57:13Z</time>
      </trkpt>
      <trkpt lat="42.481586" lon="-5.732974">
        <ele>871.513</ele>
        <time>2021-07-18T08:57:22Z</time>
      </trkpt>
      <trkpt lat="42.481789" lon="-5.732507">
        <ele>872.008</ele>
        <time>2021-07-18T08:57:31Z</time>
      </trkpt>
      <trkpt lat="42.482032" lon="-5.732026">
        <ele>873.958</ele>
        <time>2021-07-18T08:57:41Z</time>
      </trkpt>
      <trkpt lat="42.482092" lon="-5.731835">
        <ele>874.910</ele>
        <time>2021-07-18T08:57:47Z</time>
      </trkpt>
      <trkpt lat="42.482097" lon="-5.731613">
        <ele>874.967</ele>
        <time>2021-07-18T08:57:54Z</time>
      </trkpt>
      <trkpt lat="42.482165" lon="-5.731293">
        <ele>874.967</ele>
        <time>2021-07-18T08:58:00Z</time>
      </trkpt>
      <trkpt lat="42.482277" lon="-5.730935">
        <ele>875.481</ele>
        <time>2021-07-18T08:58:06Z</time>
      </trkpt>
      <trkpt lat="42.482445" lon="-5.730372">
        <ele>875.979</ele>
        <time>2021-07-18T08:58:15Z</time>
      </trkpt>
      <trkpt lat="42.482690" lon="-5.729542">
        <ele>873.976</ele>
        <time>2021-07-18T08:58:28Z</time>
      </trkpt>
      <trkpt lat="42.482853" lon="-5.728996">
        <ele>873.934</ele>
        <time>2021-07-18T08:58:37Z</time>
      </trkpt>
      <trkpt lat="42.482950" lon="-5.728533">
        <ele>873.958</ele>
        <time>2021-07-18T08:58:46Z</time>
      </trkpt>
      <trkpt lat="42.483055" lon="-5.728264">
        <ele>875.452</ele>
        <time>2021-07-18T08:58:53Z</time>
      </trkpt>
      <trkpt lat="42.483306" lon="-5.728004">
        <ele>877.317</ele>
        <time>2021-07-18T08:59:02Z</time>
      </trkpt>
      <trkpt lat="42.483549" lon="-5.727763">
        <ele>878.708</ele>
        <time>2021-07-18T08:59:11Z</time>
      </trkpt>
      <trkpt lat="42.483684" lon="-5.727563">
        <ele>881.652</ele>
        <time>2021-07-18T08:59:19Z</time>
      </trkpt>
      <trkpt lat="42.483754" lon="-5.727396">
        <ele>882.694</ele>
        <time>2021-07-18T08:59:26Z</time>
      </trkpt>
      <trkpt lat="42.483865" lon="-5.727129">
        <ele>884.041</ele>
        <time>2021-07-18T08:59:36Z</time>
      </trkpt>
      <trkpt lat="42.483973" lon="-5.726904">
        <ele>884.021</ele>
        <time>2021-07-18T08:59:44Z</time>
      </trkpt>
      <trkpt lat="42.484108" lon="-5.726647">
        <ele>884.595</ele>
        <time>2021-07-18T08:59:51Z</time>
      </trkpt>
      <trkpt lat="42.484255" lon="-5.726266">
        <ele>884.513</ele>
        <time>2021-07-18T09:00:01Z</time>
      </trkpt>
      <trkpt lat="42.484407" lon="-5.725915">
        <ele>885.040</ele>
        <time>2021-07-18T09:00:10Z</time>
      </trkpt>
      <trkpt lat="42.484625" lon="-5.725427">
        <ele>885.028</ele>
        <time>2021-07-18T09:00:22Z</time>
      </trkpt>
      <trkpt lat="42.484798" lon="-5.725013">
        <ele>884.577</ele>
        <time>2021-07-18T09:00:32Z</time>
      </trkpt>
      <trkpt lat="42.484999" lon="-5.724606">
        <ele>884.061</ele>
        <time>2021-07-18T09:00:41Z</time>
      </trkpt>
      <trkpt lat="42.485145" lon="-5.724339">
        <ele>884.527</ele>
        <time>2021-07-18T09:00:49Z</time>
      </trkpt>
      <trkpt lat="42.485161" lon="-5.724342">
        <ele>884.508</ele>
        <time>2021-07-18T09:00:50Z</time>
      </trkpt>
      <trkpt lat="42.485174" lon="-5.724349">
        <ele>884.564</ele>
        <time>2021-07-18T09:00:51Z</time>
      </trkpt>
      <trkpt lat="42.485182" lon="-5.724361">
        <ele>885.046</ele>
        <time>2021-07-18T09:00:57Z</time>
      </trkpt>
      <trkpt lat="42.485187" lon="-5.724346">
        <ele>885.093</ele>
        <time>2021-07-18T09:01:16Z</time>
      </trkpt>
      <trkpt lat="42.485189" lon="-5.724300">
        <ele>885.533</ele>
        <time>2021-07-18T09:01:23Z</time>
      </trkpt>
      <trkpt lat="42.485191" lon="-5.724285">
        <ele>885.547</ele>
        <time>2021-07-18T09:01:24Z</time>
      </trkpt>
      <trkpt lat="42.485196" lon="-5.724269">
        <ele>885.515</ele>
        <time>2021-07-18T09:01:25Z</time>
      </trkpt>
      <trkpt lat="42.485202" lon="-5.724254">
        <ele>885.572</ele>
        <time>2021-07-18T09:01:26Z</time>
      </trkpt>
      <trkpt lat="42.485208" lon="-5.724239">
        <ele>885.580</ele>
        <time>2021-07-18T09:01:27Z</time>
      </trkpt>
      <trkpt lat="42.485236" lon="-5.724180">
        <ele>885.095</ele>
        <time>2021-07-18T09:01:32Z</time>
      </trkpt>
      <trkpt lat="42.485238" lon="-5.724164">
        <ele>885.049</ele>
        <time>2021-07-18T09:01:33Z</time>
      </trkpt>
      <trkpt lat="42.485247" lon="-5.724149">
        <ele>885.023</ele>
        <time>2021-07-18T09:01:34Z</time>
      </trkpt>
      <trkpt lat="42.485258" lon="-5.724131">
        <ele>885.008</ele>
        <time>2021-07-18T09:01:35Z</time>
      </trkpt>
      <trkpt lat="42.485268" lon="-5.724111">
        <ele>885.026</ele>
        <time>2021-07-18T09:01:36Z</time>
      </trkpt>
      <trkpt lat="42.485278" lon="-5.724091">
        <ele>885.038</ele>
        <time>2021-07-18T09:01:37Z</time>
      </trkpt>
      <trkpt lat="42.485288" lon="-5.724069">
        <ele>885.085</ele>
        <time>2021-07-18T09:01:38Z</time>
      </trkpt>
      <trkpt lat="42.485301" lon="-5.724044">
        <ele>885.065</ele>
        <time>2021-07-18T09:01:39Z</time>
      </trkpt>
      <trkpt lat="42.485316" lon="-5.724013">
        <ele>885.529</ele>
        <time>2021-07-18T09:01:40Z</time>
      </trkpt>
      <trkpt lat="42.485332" lon="-5.723980">
        <ele>885.027</ele>
        <time>2021-07-18T09:01:41Z</time>
      </trkpt>
      <trkpt lat="42.485348" lon="-5.723943">
        <ele>885.054</ele>
        <time>2021-07-18T09:01:42Z</time>
      </trkpt>
      <trkpt lat="42.485368" lon="-5.723904">
        <ele>885.072</ele>
        <time>2021-07-18T09:01:43Z</time>
      </trkpt>
      <trkpt lat="42.485504" lon="-5.723653">
        <ele>885.024</ele>
        <time>2021-07-18T09:01:49Z</time>
      </trkpt>
      <trkpt lat="42.485757" lon="-5.723203">
        <ele>884.504</ele>
        <time>2021-07-18T09:01:59Z</time>
      </trkpt>
      <trkpt lat="42.486010" lon="-5.722738">
        <ele>884.514</ele>
        <time>2021-07-18T09:02:10Z</time>
      </trkpt>
      <trkpt lat="42.486157" lon="-5.722487">
        <ele>884.508</ele>
        <time>2021-07-18T09:02:17Z</time>
      </trkpt>
      <trkpt lat="42.486263" lon="-5.722376">
        <ele>884.569</ele>
        <time>2021-07-18T09:02:22Z</time>
      </trkpt>
      <trkpt lat="42.486284" lon="-5.722370">
        <ele>884.511</ele>
        <time>2021-07-18T09:02:23Z</time>
      </trkpt>
      <trkpt lat="42.486301" lon="-5.722364">
        <ele>884.548</ele>
        <time>2021-07-18T09:02:24Z</time>
      </trkpt>
      <trkpt lat="42.486310" lon="-5.722355">
        <ele>884.518</ele>
        <time>2021-07-18T09:02:25Z</time>
      </trkpt>
      <trkpt lat="42.486311" lon="-5.722348">
        <ele>885.022</ele>
        <time>2021-07-18T09:02:31Z</time>
      </trkpt>
      <trkpt lat="42.486307" lon="-5.722360">
        <ele>884.580</ele>
        <time>2021-07-18T09:02:47Z</time>
      </trkpt>
      <trkpt lat="42.486313" lon="-5.722382">
        <ele>885.097</ele>
        <time>2021-07-18T09:03:01Z</time>
      </trkpt>
      <trkpt lat="42.486306" lon="-5.722379">
        <ele>884.525</ele>
        <time>2021-07-18T09:03:23Z</time>
      </trkpt>
      <trkpt lat="42.486301" lon="-5.722363">
        <ele>884.568</ele>
        <time>2021-07-18T09:03:42Z</time>
      </trkpt>
      <trkpt lat="42.486299" lon="-5.722384">
        <ele>885.542</ele>
        <time>2021-07-18T09:04:01Z</time>
      </trkpt>
      <trkpt lat="42.486302" lon="-5.722384">
        <ele>885.526</ele>
        <time>2021-07-18T09:04:17Z</time>
      </trkpt>
      <trkpt lat="42.486297" lon="-5.722393">
        <ele>885.008</ele>
        <time>2021-07-18T09:04:38Z</time>
      </trkpt>
      <trkpt lat="42.486292" lon="-5.722385">
        <ele>884.553</ele>
        <time>2021-07-18T09:05:00Z</time>
      </trkpt>
      <trkpt lat="42.486288" lon="-5.722390">
        <ele>884.045</ele>
        <time>2021-07-18T09:05:19Z</time>
      </trkpt>
      <trkpt lat="42.486289" lon="-5.722390">
        <ele>883.512</ele>
        <time>2021-07-18T09:05:37Z</time>
      </trkpt>
      <trkpt lat="42.486297" lon="-5.722366">
        <ele>886.482</ele>
        <time>2021-07-18T09:05:58Z</time>
      </trkpt>
      <trkpt lat="42.486307" lon="-5.722352">
        <ele>886.416</ele>
        <time>2021-07-18T09:06:14Z</time>
      </trkpt>
      <trkpt lat="42.486303" lon="-5.722385">
        <ele>886.474</ele>
        <time>2021-07-18T09:06:37Z</time>
      </trkpt>
      <trkpt lat="42.486298" lon="-5.722375">
        <ele>885.991</ele>
        <time>2021-07-18T09:06:58Z</time>
      </trkpt>
      <trkpt lat="42.486294" lon="-5.722377">
        <ele>884.559</ele>
        <time>2021-07-18T09:07:14Z</time>
      </trkpt>
      <trkpt lat="42.486304" lon="-5.722373">
        <ele>885.572</ele>
        <time>2021-07-18T09:07:38Z</time>
      </trkpt>
      <trkpt lat="42.486317" lon="-5.722348">
        <ele>886.913</ele>
        <time>2021-07-18T09:07:58Z</time>
      </trkpt>
      <trkpt lat="42.486312" lon="-5.722331">
        <ele>886.914</ele>
        <time>2021-07-18T09:08:31Z</time>
      </trkpt>
      <trkpt lat="42.486336" lon="-5.722316">
        <ele>886.408</ele>
        <time>2021-07-18T09:08:56Z</time>
      </trkpt>
      <trkpt lat="42.486354" lon="-5.722364">
        <ele>885.954</ele>
        <time>2021-07-18T09:09:18Z</time>
      </trkpt>
      <trkpt lat="42.486355" lon="-5.722355">
        <ele>885.976</ele>
        <time>2021-07-18T09:09:49Z</time>
      </trkpt>
      <trkpt lat="42.486340" lon="-5.722375">
        <ele>887.943</ele>
        <time>2021-07-18T09:10:13Z</time>
      </trkpt>
      <trkpt lat="42.486338" lon="-5.722377">
        <ele>886.443</ele>
        <time>2021-07-18T09:10:42Z</time>
      </trkpt>
      <trkpt lat="42.486319" lon="-5.722362">
        <ele>885.967</ele>
        <time>2021-07-18T09:11:05Z</time>
      </trkpt>
      <trkpt lat="42.486311" lon="-5.722370">
        <ele>885.945</ele>
        <time>2021-07-18T09:11:27Z</time>
      </trkpt>
      <trkpt lat="42.486335" lon="-5.722370">
        <ele>885.942</ele>
        <time>2021-07-18T09:11:47Z</time>
      </trkpt>
      <trkpt lat="42.486320" lon="-5.722378">
        <ele>883.190</ele>
        <time>2021-07-18T09:12:09Z</time>
      </trkpt>
      <trkpt lat="42.486319" lon="-5.722351">
        <ele>881.127</ele>
        <time>2021-07-18T09:12:32Z</time>
      </trkpt>
      <trkpt lat="42.486315" lon="-5.722352">
        <ele>881.168</ele>
        <time>2021-07-18T09:12:55Z</time>
      </trkpt>
      <trkpt lat="42.486310" lon="-5.722349">
        <ele>879.714</ele>
        <time>2021-07-18T09:13:17Z</time>
      </trkpt>
      <trkpt lat="42.486325" lon="-5.722331">
        <ele>878.708</ele>
        <time>2021-07-18T09:13:41Z</time>
      </trkpt>
      <trkpt lat="42.486341" lon="-5.722366">
        <ele>881.119</ele>
        <time>2021-07-18T09:14:09Z</time>
      </trkpt>
      <trkpt lat="42.486333" lon="-5.722362">
        <ele>882.621</ele>
        <time>2021-07-18T09:14:32Z</time>
      </trkpt>
      <trkpt lat="42.486314" lon="-5.722345">
        <ele>884.058</ele>
        <time>2021-07-18T09:14:55Z</time>
      </trkpt>
      <trkpt lat="42.486302" lon="-5.722349">
        <ele>883.528</ele>
        <time>2021-07-18T09:15:12Z</time>
      </trkpt>
      <trkpt lat="42.486309" lon="-5.722348">
        <ele>882.182</ele>
        <time>2021-07-18T09:15:33Z</time>
      </trkpt>
      <trkpt lat="42.486323" lon="-5.722357">
        <ele>882.630</ele>
        <time>2021-07-18T09:15:58Z</time>
      </trkpt>
      <trkpt lat="42.486313" lon="-5.722354">
        <ele>882.137</ele>
        <time>2021-07-18T09:16:15Z</time>
      </trkpt>
      <trkpt lat="42.486327" lon="-5.722346">
        <ele>882.155</ele>
        <time>2021-07-18T09:16:34Z</time>
      </trkpt>
      <trkpt lat="42.486334" lon="-5.722333">
        <ele>881.194</ele>
        <time>2021-07-18T09:16:48Z</time>
      </trkpt>
      <trkpt lat="42.486326" lon="-5.722316">
        <ele>883.157</ele>
        <time>2021-07-18T09:17:10Z</time>
      </trkpt>
      <trkpt lat="42.486315" lon="-5.722360">
        <ele>882.622</ele>
        <time>2021-07-18T09:17:30Z</time>
      </trkpt>
      <trkpt lat="42.486316" lon="-5.722338">
        <ele>884.008</ele>
        <time>2021-07-18T09:17:58Z</time>
      </trkpt>
      <trkpt lat="42.486318" lon="-5.722349">
        <ele>885.036</ele>
        <time>2021-07-18T09:18:16Z</time>
      </trkpt>
      <trkpt lat="42.486319" lon="-5.722370">
        <ele>883.578</ele>
        <time>2021-07-18T09:18:40Z</time>
      </trkpt>
      <trkpt lat="42.486318" lon="-5.722365">
        <ele>884.545</ele>
        <time>2021-07-18T09:18:56Z</time>
      </trkpt>
      <trkpt lat="42.486327" lon="-5.722369">
        <ele>885.925</ele>
        <time>2021-07-18T09:19:24Z</time>
      </trkpt>
      <trkpt lat="42.486320" lon="-5.722365">
        <ele>885.969</ele>
        <time>2021-07-18T09:19:57Z</time>
      </trkpt>
      <trkpt lat="42.486327" lon="-5.722359">
        <ele>888.437</ele>
        <time>2021-07-18T09:20:18Z</time>
      </trkpt>
      <trkpt lat="42.486322" lon="-5.722358">
        <ele>889.324</ele>
        <time>2021-07-18T09:20:39Z</time>
      </trkpt>
      <trkpt lat="42.486325" lon="-5.722333">
        <ele>888.452</ele>
        <time>2021-07-18T09:21:00Z</time>
      </trkpt>
      <trkpt lat="42.486323" lon="-5.722327">
        <ele>886.456</ele>
        <time>2021-07-18T09:21:17Z</time>
      </trkpt>
      <trkpt lat="42.486324" lon="-5.722330">
        <ele>885.959</ele>
        <time>2021-07-18T09:21:30Z</time>
      </trkpt>
      <trkpt lat="42.486322" lon="-5.722336">
        <ele>885.914</ele>
        <time>2021-07-18T09:21:40Z</time>
      </trkpt>
      <trkpt lat="42.486330" lon="-5.722352">
        <ele>885.508</ele>
        <time>2021-07-18T09:21:49Z</time>
      </trkpt>
      <trkpt lat="42.486331" lon="-5.722347">
        <ele>885.562</ele>
        <time>2021-07-18T09:21:58Z</time>
      </trkpt>
      <trkpt lat="42.486339" lon="-5.722331">
        <ele>886.414</ele>
        <time>2021-07-18T09:22:11Z</time>
      </trkpt>
      <trkpt lat="42.486324" lon="-5.722337">
        <ele>887.471</ele>
        <time>2021-07-18T09:22:21Z</time>
      </trkpt>
      <trkpt lat="42.486323" lon="-5.722340">
        <ele>887.461</ele>
        <time>2021-07-18T09:22:34Z</time>
      </trkpt>
      <trkpt lat="42.486332" lon="-5.722345">
        <ele>886.945</ele>
        <time>2021-07-18T09:22:44Z</time>
      </trkpt>
      <trkpt lat="42.486344" lon="-5.722335">
        <ele>886.443</ele>
        <time>2021-07-18T09:23:03Z</time>
      </trkpt>
      <trkpt lat="42.486338" lon="-5.722335">
        <ele>886.910</ele>
        <time>2021-07-18T09:23:14Z</time>
      </trkpt>
      <trkpt lat="42.486338" lon="-5.722334">
        <ele>886.428</ele>
        <time>2021-07-18T09:23:25Z</time>
      </trkpt>
      <trkpt lat="42.486352" lon="-5.722340">
        <ele>886.973</ele>
        <time>2021-07-18T09:23:42Z</time>
      </trkpt>
      <trkpt lat="42.486317" lon="-5.722338">
        <ele>887.485</ele>
        <time>2021-07-18T09:23:52Z</time>
      </trkpt>
      <trkpt lat="42.486283" lon="-5.722296">
        <ele>887.413</ele>
        <time>2021-07-18T09:24:00Z</time>
      </trkpt>
      <trkpt lat="42.486282" lon="-5.722260">
        <ele>887.908</ele>
        <time>2021-07-18T09:24:04Z</time>
      </trkpt>
      <trkpt lat="42.486283" lon="-5.722246">
        <ele>887.974</ele>
        <time>2021-07-18T09:24:05Z</time>
      </trkpt>
      <trkpt lat="42.486284" lon="-5.722230">
        <ele>887.936</ele>
        <time>2021-07-18T09:24:06Z</time>
      </trkpt>
      <trkpt lat="42.486282" lon="-5.722210">
        <ele>887.993</ele>
        <time>2021-07-18T09:24:07Z</time>
      </trkpt>
      <trkpt lat="42.486284" lon="-5.722188">
        <ele>887.943</ele>
        <time>2021-07-18T09:24:08Z</time>
      </trkpt>
      <trkpt lat="42.486286" lon="-5.722163">
        <ele>887.997</ele>
        <time>2021-07-18T09:24:09Z</time>
      </trkpt>
      <trkpt lat="42.486291" lon="-5.722135">
        <ele>887.445</ele>
        <time>2021-07-18T09:24:10Z</time>
      </trkpt>
      <trkpt lat="42.486301" lon="-5.722101">
        <ele>887.422</ele>
        <time>2021-07-18T09:24:11Z</time>
      </trkpt>
      <trkpt lat="42.486393" lon="-5.721855">
        <ele>886.950</ele>
        <time>2021-07-18T09:24:18Z</time>
      </trkpt>
      <trkpt lat="42.486514" lon="-5.721514">
        <ele>886.492</ele>
        <time>2021-07-18T09:24:26Z</time>
      </trkpt>
      <trkpt lat="42.486681" lon="-5.721046">
        <ele>886.473</ele>
        <time>2021-07-18T09:24:36Z</time>
      </trkpt>
      <trkpt lat="42.486846" lon="-5.720601">
        <ele>885.920</ele>
        <time>2021-07-18T09:24:45Z</time>
      </trkpt>
      <trkpt lat="42.486993" lon="-5.720163">
        <ele>885.908</ele>
        <time>2021-07-18T09:24:54Z</time>
      </trkpt>
      <trkpt lat="42.487049" lon="-5.720014">
        <ele>885.926</ele>
        <time>2021-07-18T09:24:57Z</time>
      </trkpt>
      <trkpt lat="42.487068" lon="-5.719966">
        <ele>885.598</ele>
        <time>2021-07-18T09:24:58Z</time>
      </trkpt>
      <trkpt lat="42.487175" lon="-5.719659">
        <ele>885.515</ele>
        <time>2021-07-18T09:25:04Z</time>
      </trkpt>
      <trkpt lat="42.487336" lon="-5.719205">
        <ele>885.535</ele>
        <time>2021-07-18T09:25:13Z</time>
      </trkpt>
      <trkpt lat="42.487501" lon="-5.718731">
        <ele>884.529</ele>
        <time>2021-07-18T09:25:22Z</time>
      </trkpt>
      <trkpt lat="42.487711" lon="-5.718176">
        <ele>884.587</ele>
        <time>2021-07-18T09:25:33Z</time>
      </trkpt>
      <trkpt lat="42.487924" lon="-5.717726">
        <ele>884.094</ele>
        <time>2021-07-18T09:25:43Z</time>
      </trkpt>
      <trkpt lat="42.488161" lon="-5.717267">
        <ele>884.092</ele>
        <time>2021-07-18T09:25:53Z</time>
      </trkpt>
      <trkpt lat="42.488493" lon="-5.716651">
        <ele>884.589</ele>
        <time>2021-07-18T09:26:06Z</time>
      </trkpt>
      <trkpt lat="42.488776" lon="-5.716128">
        <ele>884.506</ele>
        <time>2021-07-18T09:26:17Z</time>
      </trkpt>
      <trkpt lat="42.489083" lon="-5.715589">
        <ele>885.026</ele>
        <time>2021-07-18T09:26:29Z</time>
      </trkpt>
      <trkpt lat="42.489350" lon="-5.715120">
        <ele>884.508</ele>
        <time>2021-07-18T09:26:39Z</time>
      </trkpt>
      <trkpt lat="42.489623" lon="-5.714641">
        <ele>883.595</ele>
        <time>2021-07-18T09:26:49Z</time>
      </trkpt>
      <trkpt lat="42.489815" lon="-5.714281">
        <ele>883.117</ele>
        <time>2021-07-18T09:26:56Z</time>
      </trkpt>
      <trkpt lat="42.490105" lon="-5.713796">
        <ele>882.654</ele>
        <time>2021-07-18T09:27:05Z</time>
      </trkpt>
      <trkpt lat="42.490530" lon="-5.713196">
        <ele>882.164</ele>
        <time>2021-07-18T09:27:17Z</time>
      </trkpt>
      <trkpt lat="42.490837" lon="-5.712771">
        <ele>882.198</ele>
        <time>2021-07-18T09:27:26Z</time>
      </trkpt>
      <trkpt lat="42.491149" lon="-5.712343">
        <ele>882.646</ele>
        <time>2021-07-18T09:27:35Z</time>
      </trkpt>
      <trkpt lat="42.491414" lon="-5.711926">
        <ele>882.683</ele>
        <time>2021-07-18T09:27:43Z</time>
      </trkpt>
      <trkpt lat="42.491698" lon="-5.711501">
        <ele>884.581</ele>
        <time>2021-07-18T09:27:52Z</time>
      </trkpt>
      <trkpt lat="42.492007" lon="-5.711062">
        <ele>885.935</ele>
        <time>2021-07-18T09:28:02Z</time>
      </trkpt>
      <trkpt lat="42.492042" lon="-5.711019">
        <ele>885.986</ele>
        <time>2021-07-18T09:28:03Z</time>
      </trkpt>
      <trkpt lat="42.492426" lon="-5.710618">
        <ele>886.414</ele>
        <time>2021-07-18T09:28:13Z</time>
      </trkpt>
      <trkpt lat="42.492810" lon="-5.710178">
        <ele>886.908</ele>
        <time>2021-07-18T09:28:23Z</time>
      </trkpt>
      <trkpt lat="42.493144" lon="-5.709768">
        <ele>886.940</ele>
        <time>2021-07-18T09:28:32Z</time>
      </trkpt>
      <trkpt lat="42.493501" lon="-5.709300">
        <ele>886.932</ele>
        <time>2021-07-18T09:28:42Z</time>
      </trkpt>
      <trkpt lat="42.493868" lon="-5.708924">
        <ele>887.429</ele>
        <time>2021-07-18T09:28:51Z</time>
      </trkpt>
      <trkpt lat="42.494295" lon="-5.708578">
        <ele>887.979</ele>
        <time>2021-07-18T09:29:01Z</time>
      </trkpt>
      <trkpt lat="42.494616" lon="-5.708316">
        <ele>887.943</ele>
        <time>2021-07-18T09:29:09Z</time>
      </trkpt>
      <trkpt lat="42.494892" lon="-5.708074">
        <ele>887.941</ele>
        <time>2021-07-18T09:29:18Z</time>
      </trkpt>
      <trkpt lat="42.494929" lon="-5.708023">
        <ele>887.948</ele>
        <time>2021-07-18T09:29:21Z</time>
      </trkpt>
      <trkpt lat="42.494932" lon="-5.708011">
        <ele>887.966</ele>
        <time>2021-07-18T09:29:26Z</time>
      </trkpt>
      <trkpt lat="42.494924" lon="-5.708006">
        <ele>888.438</ele>
        <time>2021-07-18T09:29:34Z</time>
      </trkpt>
      <trkpt lat="42.494920" lon="-5.707994">
        <ele>888.870</ele>
        <time>2021-07-18T09:29:51Z</time>
      </trkpt>
      <trkpt lat="42.494920" lon="-5.707997">
        <ele>890.317</ele>
        <time>2021-07-18T09:30:07Z</time>
      </trkpt>
      <trkpt lat="42.494920" lon="-5.708013">
        <ele>890.808</ele>
        <time>2021-07-18T09:30:27Z</time>
      </trkpt>
      <trkpt lat="42.494936" lon="-5.707997">
        <ele>890.350</ele>
        <time>2021-07-18T09:30:34Z</time>
      </trkpt>
      <trkpt lat="42.494944" lon="-5.708002">
        <ele>890.312</ele>
        <time>2021-07-18T09:30:36Z</time>
      </trkpt>
      <trkpt lat="42.494954" lon="-5.708004">
        <ele>890.849</ele>
        <time>2021-07-18T09:30:37Z</time>
      </trkpt>
      <trkpt lat="42.495019" lon="-5.707977">
        <ele>890.379</ele>
        <time>2021-07-18T09:30:43Z</time>
      </trkpt>
      <trkpt lat="42.495225" lon="-5.707813">
        <ele>889.883</ele>
        <time>2021-07-18T09:30:51Z</time>
      </trkpt>
      <trkpt lat="42.495520" lon="-5.707563">
        <ele>888.871</ele>
        <time>2021-07-18T09:31:00Z</time>
      </trkpt>
      <trkpt lat="42.495913" lon="-5.707214">
        <ele>887.948</ele>
        <time>2021-07-18T09:31:11Z</time>
      </trkpt>
      <trkpt lat="42.495948" lon="-5.707178">
        <ele>887.936</ele>
        <time>2021-07-18T09:31:12Z</time>
      </trkpt>
      <trkpt lat="42.496315" lon="-5.706812">
        <ele>887.918</ele>
        <time>2021-07-18T09:31:22Z</time>
      </trkpt>
      <trkpt lat="42.496613" lon="-5.706506">
        <ele>887.998</ele>
        <time>2021-07-18T09:31:30Z</time>
      </trkpt>
      <trkpt lat="42.497075" lon="-5.706047">
        <ele>888.417</ele>
        <time>2021-07-18T09:31:42Z</time>
      </trkpt>
      <trkpt lat="42.497465" lon="-5.705659">
        <ele>888.808</ele>
        <time>2021-07-18T09:31:52Z</time>
      </trkpt>
      <trkpt lat="42.497861" lon="-5.705282">
        <ele>888.498</ele>
        <time>2021-07-18T09:32:02Z</time>
      </trkpt>
      <trkpt lat="42.498310" lon="-5.704854">
        <ele>887.910</ele>
        <time>2021-07-18T09:32:13Z</time>
      </trkpt>
      <trkpt lat="42.498828" lon="-5.704303">
        <ele>887.977</ele>
        <time>2021-07-18T09:32:26Z</time>
      </trkpt>
      <trkpt lat="42.499256" lon="-5.703705">
        <ele>888.467</ele>
        <time>2021-07-18T09:32:38Z</time>
      </trkpt>
      <trkpt lat="42.499639" lon="-5.703163">
        <ele>887.911</ele>
        <time>2021-07-18T09:32:49Z</time>
      </trkpt>
      <trkpt lat="42.499897" lon="-5.702793">
        <ele>887.959</ele>
        <time>2021-07-18T09:32:56Z</time>
      </trkpt>
      <trkpt lat="42.500206" lon="-5.702359">
        <ele>887.986</ele>
        <time>2021-07-18T09:33:05Z</time>
      </trkpt>
      <trkpt lat="42.500713" lon="-5.701655">
        <ele>888.474</ele>
        <time>2021-07-18T09:33:19Z</time>
      </trkpt>
      <trkpt lat="42.501068" lon="-5.701126">
        <ele>888.453</ele>
        <time>2021-07-18T09:33:29Z</time>
      </trkpt>
      <trkpt lat="42.501339" lon="-5.700635">
        <ele>888.404</ele>
        <time>2021-07-18T09:33:38Z</time>
      </trkpt>
      <trkpt lat="42.501638" lon="-5.700067">
        <ele>887.914</ele>
        <time>2021-07-18T09:33:48Z</time>
      </trkpt>
      <trkpt lat="42.501900" lon="-5.699578">
        <ele>888.408</ele>
        <time>2021-07-18T09:33:57Z</time>
      </trkpt>
      <trkpt lat="42.502323" lon="-5.698798">
        <ele>887.952</ele>
        <time>2021-07-18T09:34:11Z</time>
      </trkpt>
      <trkpt lat="42.502663" lon="-5.698166">
        <ele>888.464</ele>
        <time>2021-07-18T09:34:22Z</time>
      </trkpt>
      <trkpt lat="42.503006" lon="-5.697540">
        <ele>888.441</ele>
        <time>2021-07-18T09:34:33Z</time>
      </trkpt>
      <trkpt lat="42.503318" lon="-5.696961">
        <ele>888.451</ele>
        <time>2021-07-18T09:34:43Z</time>
      </trkpt>
      <trkpt lat="42.503598" lon="-5.696440">
        <ele>888.435</ele>
        <time>2021-07-18T09:34:52Z</time>
      </trkpt>
      <trkpt lat="42.503970" lon="-5.695746">
        <ele>887.953</ele>
        <time>2021-07-18T09:35:04Z</time>
      </trkpt>
      <trkpt lat="42.504353" lon="-5.695030">
        <ele>887.420</ele>
        <time>2021-07-18T09:35:16Z</time>
      </trkpt>
      <trkpt lat="42.504417" lon="-5.694919">
        <ele>887.968</ele>
        <time>2021-07-18T09:35:18Z</time>
      </trkpt>
      <trkpt lat="42.504688" lon="-5.694412">
        <ele>888.423</ele>
        <time>2021-07-18T09:35:27Z</time>
      </trkpt>
      <trkpt lat="42.505049" lon="-5.693752">
        <ele>888.883</ele>
        <time>2021-07-18T09:35:39Z</time>
      </trkpt>
      <trkpt lat="42.505362" lon="-5.693182">
        <ele>888.811</ele>
        <time>2021-07-18T09:35:49Z</time>
      </trkpt>
      <trkpt lat="42.505745" lon="-5.692417">
        <ele>888.408</ele>
        <time>2021-07-18T09:36:02Z</time>
      </trkpt>
      <trkpt lat="42.506026" lon="-5.691804">
        <ele>887.959</ele>
        <time>2021-07-18T09:36:12Z</time>
      </trkpt>
      <trkpt lat="42.506272" lon="-5.691155">
        <ele>887.961</ele>
        <time>2021-07-18T09:36:23Z</time>
      </trkpt>
      <trkpt lat="42.506530" lon="-5.690676">
        <ele>888.438</ele>
        <time>2021-07-18T09:36:32Z</time>
      </trkpt>
      <trkpt lat="42.506847" lon="-5.690199">
        <ele>887.948</ele>
        <time>2021-07-18T09:36:42Z</time>
      </trkpt>
      <trkpt lat="42.507109" lon="-5.689829">
        <ele>885.912</ele>
        <time>2021-07-18T09:36:49Z</time>
      </trkpt>
      <trkpt lat="42.507146" lon="-5.689752">
        <ele>885.550</ele>
        <time>2021-07-18T09:36:50Z</time>
      </trkpt>
      <trkpt lat="42.507178" lon="-5.689669">
        <ele>885.557</ele>
        <time>2021-07-18T09:36:51Z</time>
      </trkpt>
      <trkpt lat="42.507207" lon="-5.689577">
        <ele>885.575</ele>
        <time>2021-07-18T09:36:52Z</time>
      </trkpt>
      <trkpt lat="42.507398" lon="-5.689047">
        <ele>885.938</ele>
        <time>2021-07-18T09:36:59Z</time>
      </trkpt>
      <trkpt lat="42.507490" lon="-5.688888">
        <ele>885.970</ele>
        <time>2021-07-18T09:37:04Z</time>
      </trkpt>
      <trkpt lat="42.507524" lon="-5.688868">
        <ele>886.417</ele>
        <time>2021-07-18T09:37:06Z</time>
      </trkpt>
      <trkpt lat="42.507547" lon="-5.688868">
        <ele>886.408</ele>
        <time>2021-07-18T09:37:07Z</time>
      </trkpt>
      <trkpt lat="42.507570" lon="-5.688876">
        <ele>885.960</ele>
        <time>2021-07-18T09:37:08Z</time>
      </trkpt>
      <trkpt lat="42.507592" lon="-5.688892">
        <ele>885.922</ele>
        <time>2021-07-18T09:37:09Z</time>
      </trkpt>
      <trkpt lat="42.507614" lon="-5.688909">
        <ele>885.999</ele>
        <time>2021-07-18T09:37:10Z</time>
      </trkpt>
      <trkpt lat="42.507638" lon="-5.688918">
        <ele>885.939</ele>
        <time>2021-07-18T09:37:11Z</time>
      </trkpt>
      <trkpt lat="42.507664" lon="-5.688918">
        <ele>886.413</ele>
        <time>2021-07-18T09:37:12Z</time>
      </trkpt>
      <trkpt lat="42.507691" lon="-5.688910">
        <ele>886.461</ele>
        <time>2021-07-18T09:37:13Z</time>
      </trkpt>
      <trkpt lat="42.507717" lon="-5.688898">
        <ele>886.478</ele>
        <time>2021-07-18T09:37:14Z</time>
      </trkpt>
      <trkpt lat="42.507957" lon="-5.688773">
        <ele>888.476</ele>
        <time>2021-07-18T09:37:23Z</time>
      </trkpt>
      <trkpt lat="42.508224" lon="-5.688557">
        <ele>889.861</ele>
        <time>2021-07-18T09:37:32Z</time>
      </trkpt>
      <trkpt lat="42.508470" lon="-5.688415">
        <ele>890.821</ele>
        <time>2021-07-18T09:37:40Z</time>
      </trkpt>
      <trkpt lat="42.508819" lon="-5.688352">
        <ele>890.813</ele>
        <time>2021-07-18T09:37:50Z</time>
      </trkpt>
      <trkpt lat="42.509166" lon="-5.688339">
        <ele>889.808</ele>
        <time>2021-07-18T09:38:00Z</time>
      </trkpt>
      <trkpt lat="42.509464" lon="-5.688266">
        <ele>891.253</ele>
        <time>2021-07-18T09:38:09Z</time>
      </trkpt>
      <trkpt lat="42.509864" lon="-5.688097">
        <ele>890.835</ele>
        <time>2021-07-18T09:38:21Z</time>
      </trkpt>
      <trkpt lat="42.510209" lon="-5.687975">
        <ele>890.382</ele>
        <time>2021-07-18T09:38:30Z</time>
      </trkpt>
      <trkpt lat="42.510643" lon="-5.687798">
        <ele>890.332</ele>
        <time>2021-07-18T09:38:41Z</time>
      </trkpt>
      <trkpt lat="42.510933" lon="-5.687659">
        <ele>890.896</ele>
        <time>2021-07-18T09:38:50Z</time>
      </trkpt>
      <trkpt lat="42.511102" lon="-5.687576">
        <ele>890.814</ele>
        <time>2021-07-18T09:38:57Z</time>
      </trkpt>
      <trkpt lat="42.511405" lon="-5.687358">
        <ele>892.721</ele>
        <time>2021-07-18T09:39:06Z</time>
      </trkpt>
      <trkpt lat="42.511723" lon="-5.687110">
        <ele>892.769</ele>
        <time>2021-07-18T09:39:15Z</time>
      </trkpt>
      <trkpt lat="42.511988" lon="-5.686929">
        <ele>892.797</ele>
        <time>2021-07-18T09:39:22Z</time>
      </trkpt>
      <trkpt lat="42.512141" lon="-5.686874">
        <ele>892.723</ele>
        <time>2021-07-18T09:39:26Z</time>
      </trkpt>
      <trkpt lat="42.512509" lon="-5.686846">
        <ele>893.225</ele>
        <time>2021-07-18T09:39:35Z</time>
      </trkpt>
      <trkpt lat="42.512933" lon="-5.686803">
        <ele>893.608</ele>
        <time>2021-07-18T09:39:46Z</time>
      </trkpt>
      <trkpt lat="42.513258" lon="-5.686770">
        <ele>894.136</ele>
        <time>2021-07-18T09:39:55Z</time>
      </trkpt>
      <trkpt lat="42.513631" lon="-5.686738">
        <ele>894.198</ele>
        <time>2021-07-18T09:40:05Z</time>
      </trkpt>
      <trkpt lat="42.514045" lon="-5.686698">
        <ele>895.655</ele>
        <time>2021-07-18T09:40:17Z</time>
      </trkpt>
      <trkpt lat="42.514400" lon="-5.686660">
        <ele>896.555</ele>
        <time>2021-07-18T09:40:28Z</time>
      </trkpt>
      <trkpt lat="42.514748" lon="-5.686625">
        <ele>898.079</ele>
        <time>2021-07-18T09:40:39Z</time>
      </trkpt>
      <trkpt lat="42.514993" lon="-5.686588">
        <ele>898.997</ele>
        <time>2021-07-18T09:40:48Z</time>
      </trkpt>
      <trkpt lat="42.515253" lon="-5.686456">
        <ele>899.464</ele>
        <time>2021-07-18T09:40:57Z</time>
      </trkpt>
      <trkpt lat="42.515485" lon="-5.686264">
        <ele>901.342</ele>
        <time>2021-07-18T09:41:06Z</time>
      </trkpt>
      <trkpt lat="42.515740" lon="-5.686065">
        <ele>902.866</ele>
        <time>2021-07-18T09:41:15Z</time>
      </trkpt>
      <trkpt lat="42.515990" lon="-5.685888">
        <ele>903.329</ele>
        <time>2021-07-18T09:41:23Z</time>
      </trkpt>
      <trkpt lat="42.516282" lon="-5.685651">
        <ele>902.821</ele>
        <time>2021-07-18T09:41:32Z</time>
      </trkpt>
      <trkpt lat="42.516524" lon="-5.685436">
        <ele>902.308</ele>
        <time>2021-07-18T09:41:40Z</time>
      </trkpt>
      <trkpt lat="42.516834" lon="-5.685184">
        <ele>901.843</ele>
        <time>2021-07-18T09:41:50Z</time>
      </trkpt>
      <trkpt lat="42.516954" lon="-5.685077">
        <ele>901.335</ele>
        <time>2021-07-18T09:41:56Z</time>
      </trkpt>
      <trkpt lat="42.516947" lon="-5.685082">
        <ele>901.312</ele>
        <time>2021-07-18T09:42:03Z</time>
      </trkpt>
      <trkpt lat="42.516951" lon="-5.685098">
        <ele>899.492</ele>
        <time>2021-07-18T09:42:20Z</time>
      </trkpt>
      <trkpt lat="42.516942" lon="-5.685096">
        <ele>899.426</ele>
        <time>2021-07-18T09:42:37Z</time>
      </trkpt>
      <trkpt lat="42.516947" lon="-5.685082">
        <ele>900.414</ele>
        <time>2021-07-18T09:42:52Z</time>
      </trkpt>
      <trkpt lat="42.516955" lon="-5.685075">
        <ele>899.471</ele>
        <time>2021-07-18T09:43:13Z</time>
      </trkpt>
      <trkpt lat="42.516951" lon="-5.685075">
        <ele>899.959</ele>
        <time>2021-07-18T09:43:32Z</time>
      </trkpt>
      <trkpt lat="42.516951" lon="-5.685089">
        <ele>899.983</ele>
        <time>2021-07-18T09:43:57Z</time>
      </trkpt>
      <trkpt lat="42.516947" lon="-5.685093">
        <ele>899.425</ele>
        <time>2021-07-18T09:44:15Z</time>
      </trkpt>
      <trkpt lat="42.516960" lon="-5.685094">
        <ele>899.917</ele>
        <time>2021-07-18T09:44:39Z</time>
      </trkpt>
      <trkpt lat="42.516935" lon="-5.685082">
        <ele>899.408</ele>
        <time>2021-07-18T09:45:04Z</time>
      </trkpt>
      <trkpt lat="42.516943" lon="-5.685086">
        <ele>898.465</ele>
        <time>2021-07-18T09:45:25Z</time>
      </trkpt>
      <trkpt lat="42.516943" lon="-5.685090">
        <ele>899.497</ele>
        <time>2021-07-18T09:45:44Z</time>
      </trkpt>
      <trkpt lat="42.516949" lon="-5.685085">
        <ele>899.474</ele>
        <time>2021-07-18T09:46:07Z</time>
      </trkpt>
      <trkpt lat="42.516949" lon="-5.685080">
        <ele>898.414</ele>
        <time>2021-07-18T09:46:33Z</time>
      </trkpt>
      <trkpt lat="42.516946" lon="-5.685092">
        <ele>899.468</ele>
        <time>2021-07-18T09:46:52Z</time>
      </trkpt>
      <trkpt lat="42.516938" lon="-5.685085">
        <ele>900.866</ele>
        <time>2021-07-18T09:47:19Z</time>
      </trkpt>
      <trkpt lat="42.516940" lon="-5.685073">
        <ele>899.983</ele>
        <time>2021-07-18T09:47:48Z</time>
      </trkpt>
      <trkpt lat="42.516941" lon="-5.685081">
        <ele>900.831</ele>
        <time>2021-07-18T09:48:03Z</time>
      </trkpt>
      <trkpt lat="42.516951" lon="-5.685077">
        <ele>900.888</ele>
        <time>2021-07-18T09:48:17Z</time>
      </trkpt>
      <trkpt lat="42.517062" lon="-5.684997">
        <ele>901.324</ele>
        <time>2021-07-18T09:48:25Z</time>
      </trkpt>
      <trkpt lat="42.517317" lon="-5.684791">
        <ele>901.326</ele>
        <time>2021-07-18T09:48:34Z</time>
      </trkpt>
      <trkpt lat="42.517677" lon="-5.684521">
        <ele>900.408</ele>
        <time>2021-07-18T09:48:44Z</time>
      </trkpt>
      <trkpt lat="42.518093" lon="-5.684200">
        <ele>898.975</ele>
        <time>2021-07-18T09:48:55Z</time>
      </trkpt>
      <trkpt lat="42.518418" lon="-5.683889">
        <ele>898.917</ele>
        <time>2021-07-18T09:49:04Z</time>
      </trkpt>
      <trkpt lat="42.518728" lon="-5.683421">
        <ele>898.494</ele>
        <time>2021-07-18T09:49:15Z</time>
      </trkpt>
      <trkpt lat="42.519096" lon="-5.682854">
        <ele>899.484</ele>
        <time>2021-07-18T09:49:28Z</time>
      </trkpt>
      <trkpt lat="42.519378" lon="-5.682426">
        <ele>900.448</ele>
        <time>2021-07-18T09:49:38Z</time>
      </trkpt>
      <trkpt lat="42.519615" lon="-5.682100">
        <ele>899.956</ele>
        <time>2021-07-18T09:49:46Z</time>
      </trkpt>
      <trkpt lat="42.519892" lon="-5.681806">
        <ele>900.433</ele>
        <time>2021-07-18T09:49:54Z</time>
      </trkpt>
      <trkpt lat="42.520179" lon="-5.681456">
        <ele>900.491</ele>
        <time>2021-07-18T09:50:03Z</time>
      </trkpt>
      <trkpt lat="42.520461" lon="-5.681064">
        <ele>901.392</ele>
        <time>2021-07-18T09:50:13Z</time>
      </trkpt>
      <trkpt lat="42.520671" lon="-5.680766">
        <ele>901.873</ele>
        <time>2021-07-18T09:50:21Z</time>
      </trkpt>
      <trkpt lat="42.520964" lon="-5.680375">
        <ele>902.320</ele>
        <time>2021-07-18T09:50:31Z</time>
      </trkpt>
      <trkpt lat="42.521289" lon="-5.679940">
        <ele>901.308</ele>
        <time>2021-07-18T09:50:41Z</time>
      </trkpt>
      <trkpt lat="42.521631" lon="-5.679477">
        <ele>899.976</ele>
        <time>2021-07-18T09:50:50Z</time>
      </trkpt>
      <trkpt lat="42.522098" lon="-5.678856">
        <ele>897.588</ele>
        <time>2021-07-18T09:51:00Z</time>
      </trkpt>
      <trkpt lat="42.522346" lon="-5.678555">
        <ele>897.095</ele>
        <time>2021-07-18T09:51:05Z</time>
      </trkpt>
      <trkpt lat="42.522812" lon="-5.678104">
        <ele>896.065</ele>
        <time>2021-07-18T09:51:14Z</time>
      </trkpt>
      <trkpt lat="42.523384" lon="-5.677541">
        <ele>894.679</ele>
        <time>2021-07-18T09:51:26Z</time>
      </trkpt>
      <trkpt lat="42.523824" lon="-5.677125">
        <ele>894.157</ele>
        <time>2021-07-18T09:51:36Z</time>
      </trkpt>
      <trkpt lat="42.524068" lon="-5.676874">
        <ele>894.674</ele>
        <time>2021-07-18T09:51:43Z</time>
      </trkpt>
      <trkpt lat="42.524269" lon="-5.676657">
        <ele>894.692</ele>
        <time>2021-07-18T09:51:51Z</time>
      </trkpt>
      <trkpt lat="42.524405" lon="-5.676497">
        <ele>894.677</ele>
        <time>2021-07-18T09:51:59Z</time>
      </trkpt>
      <trkpt lat="42.524402" lon="-5.676504">
        <ele>893.261</ele>
        <time>2021-07-18T09:52:10Z</time>
      </trkpt>
      <trkpt lat="42.524408" lon="-5.676505">
        <ele>893.227</ele>
        <time>2021-07-18T09:52:22Z</time>
      </trkpt>
      <trkpt lat="42.524412" lon="-5.676506">
        <ele>892.208</ele>
        <time>2021-07-18T09:52:37Z</time>
      </trkpt>
      <trkpt lat="42.524410" lon="-5.676508">
        <ele>892.234</ele>
        <time>2021-07-18T09:52:47Z</time>
      </trkpt>
      <trkpt lat="42.524449" lon="-5.676476">
        <ele>892.216</ele>
        <time>2021-07-18T09:52:53Z</time>
      </trkpt>
      <trkpt lat="42.524617" lon="-5.676310">
        <ele>893.693</ele>
        <time>2021-07-18T09:53:00Z</time>
      </trkpt>
      <trkpt lat="42.524958" lon="-5.675935">
        <ele>895.633</ele>
        <time>2021-07-18T09:53:13Z</time>
      </trkpt>
      <trkpt lat="42.525193" lon="-5.675657">
        <ele>897.037</ele>
        <time>2021-07-18T09:53:23Z</time>
      </trkpt>
      <trkpt lat="42.525402" lon="-5.675378">
        <ele>899.415</ele>
        <time>2021-07-18T09:53:33Z</time>
      </trkpt>
      <trkpt lat="42.525613" lon="-5.675105">
        <ele>900.442</ele>
        <time>2021-07-18T09:53:43Z</time>
      </trkpt>
      <trkpt lat="42.525856" lon="-5.674810">
        <ele>902.360</ele>
        <time>2021-07-18T09:53:54Z</time>
      </trkpt>
      <trkpt lat="42.526066" lon="-5.674570">
        <ele>903.397</ele>
        <time>2021-07-18T09:54:04Z</time>
      </trkpt>
      <trkpt lat="42.526264" lon="-5.674341">
        <ele>904.723</ele>
        <time>2021-07-18T09:54:13Z</time>
      </trkpt>
      <trkpt lat="42.526379" lon="-5.674212">
        <ele>905.225</ele>
        <time>2021-07-18T09:54:20Z</time>
      </trkpt>
      <trkpt lat="42.526603" lon="-5.673960">
        <ele>905.208</ele>
        <time>2021-07-18T09:54:29Z</time>
      </trkpt>
      <trkpt lat="42.526829" lon="-5.673693">
        <ele>903.326</ele>
        <time>2021-07-18T09:54:37Z</time>
      </trkpt>
      <trkpt lat="42.527142" lon="-5.673339">
        <ele>902.348</ele>
        <time>2021-07-18T09:54:46Z</time>
      </trkpt>
      <trkpt lat="42.527376" lon="-5.673084">
        <ele>901.315</ele>
        <time>2021-07-18T09:54:53Z</time>
      </trkpt>
      <trkpt lat="42.527580" lon="-5.672867">
        <ele>900.885</ele>
        <time>2021-07-18T09:55:01Z</time>
      </trkpt>
      <trkpt lat="42.527861" lon="-5.672557">
        <ele>899.979</ele>
        <time>2021-07-18T09:55:10Z</time>
      </trkpt>
      <trkpt lat="42.528194" lon="-5.672192">
        <ele>898.037</ele>
        <time>2021-07-18T09:55:19Z</time>
      </trkpt>
      <trkpt lat="42.528452" lon="-5.671933">
        <ele>897.034</ele>
        <time>2021-07-18T09:55:26Z</time>
      </trkpt>
      <trkpt lat="42.528530" lon="-5.671880">
        <ele>897.072</ele>
        <time>2021-07-18T09:55:28Z</time>
      </trkpt>
      <trkpt lat="42.528569" lon="-5.671861">
        <ele>897.512</ele>
        <time>2021-07-18T09:55:29Z</time>
      </trkpt>
      <trkpt lat="42.528900" lon="-5.671681">
        <ele>898.032</ele>
        <time>2021-07-18T09:55:38Z</time>
      </trkpt>
      <trkpt lat="42.529142" lon="-5.671465">
        <ele>898.005</ele>
        <time>2021-07-18T09:55:47Z</time>
      </trkpt>
      <trkpt lat="42.529416" lon="-5.671312">
        <ele>898.408</ele>
        <time>2021-07-18T09:55:55Z</time>
      </trkpt>
      <trkpt lat="42.529769" lon="-5.671123">
        <ele>900.428</ele>
        <time>2021-07-18T09:56:05Z</time>
      </trkpt>
      <trkpt lat="42.530134" lon="-5.670924">
        <ele>901.810</ele>
        <time>2021-07-18T09:56:16Z</time>
      </trkpt>
      <trkpt lat="42.530416" lon="-5.670761">
        <ele>902.837</ele>
        <time>2021-07-18T09:56:25Z</time>
      </trkpt>
      <trkpt lat="42.530683" lon="-5.670586">
        <ele>903.327</ele>
        <time>2021-07-18T09:56:34Z</time>
      </trkpt>
      <trkpt lat="42.530979" lon="-5.670353">
        <ele>902.821</ele>
        <time>2021-07-18T09:56:44Z</time>
      </trkpt>
      <trkpt lat="42.531306" lon="-5.670110">
        <ele>901.819</ele>
        <time>2021-07-18T09:56:54Z</time>
      </trkpt>
      <trkpt lat="42.531375" lon="-5.670065">
        <ele>901.856</ele>
        <time>2021-07-18T09:56:56Z</time>
      </trkpt>
      <trkpt lat="42.531588" lon="-5.669898">
        <ele>901.324</ele>
        <time>2021-07-18T09:57:02Z</time>
      </trkpt>
      <trkpt lat="42.531866" lon="-5.669683">
        <ele>899.944</ele>
        <time>2021-07-18T09:57:09Z</time>
      </trkpt>
      <trkpt lat="42.531907" lon="-5.669652">
        <ele>899.905</ele>
        <time>2021-07-18T09:57:10Z</time>
      </trkpt>
      <trkpt lat="42.532263" lon="-5.669382">
        <ele>898.015</ele>
        <time>2021-07-18T09:57:17Z</time>
      </trkpt>
      <trkpt lat="42.532576" lon="-5.669135">
        <ele>897.508</ele>
        <time>2021-07-18T09:57:23Z</time>
      </trkpt>
      <trkpt lat="42.532750" lon="-5.668969">
        <ele>897.021</ele>
        <time>2021-07-18T09:57:30Z</time>
      </trkpt>
      <trkpt lat="42.532971" lon="-5.668824">
        <ele>897.523</ele>
        <time>2021-07-18T09:57:38Z</time>
      </trkpt>
      <trkpt lat="42.533174" lon="-5.668633">
        <ele>898.920</ele>
        <time>2021-07-18T09:57:47Z</time>
      </trkpt>
      <trkpt lat="42.533367" lon="-5.668447">
        <ele>899.930</ele>
        <time>2021-07-18T09:57:56Z</time>
      </trkpt>
      <trkpt lat="42.533544" lon="-5.668287">
        <ele>900.874</ele>
        <time>2021-07-18T09:58:04Z</time>
      </trkpt>
      <trkpt lat="42.533728" lon="-5.668116">
        <ele>901.812</ele>
        <time>2021-07-18T09:58:12Z</time>
      </trkpt>
      <trkpt lat="42.533918" lon="-5.667950">
        <ele>902.869</ele>
        <time>2021-07-18T09:58:20Z</time>
      </trkpt>
      <trkpt lat="42.534130" lon="-5.667764">
        <ele>902.837</ele>
        <time>2021-07-18T09:58:29Z</time>
      </trkpt>
      <trkpt lat="42.534426" lon="-5.667535">
        <ele>903.329</ele>
        <time>2021-07-18T09:58:40Z</time>
      </trkpt>
      <trkpt lat="42.534672" lon="-5.667357">
        <ele>903.700</ele>
        <time>2021-07-18T09:58:48Z</time>
      </trkpt>
      <trkpt lat="42.534917" lon="-5.667148">
        <ele>903.320</ele>
        <time>2021-07-18T09:58:56Z</time>
      </trkpt>
      <trkpt lat="42.535220" lon="-5.666916">
        <ele>903.708</ele>
        <time>2021-07-18T09:59:05Z</time>
      </trkpt>
      <trkpt lat="42.535592" lon="-5.666657">
        <ele>903.769</ele>
        <time>2021-07-18T09:59:16Z</time>
      </trkpt>
      <trkpt lat="42.535943" lon="-5.666436">
        <ele>903.391</ele>
        <time>2021-07-18T09:59:26Z</time>
      </trkpt>
      <trkpt lat="42.536271" lon="-5.666242">
        <ele>902.888</ele>
        <time>2021-07-18T09:59:35Z</time>
      </trkpt>
      <trkpt lat="42.536718" lon="-5.665954">
        <ele>902.368</ele>
        <time>2021-07-18T09:59:47Z</time>
      </trkpt>
      <trkpt lat="42.537213" lon="-5.665610">
        <ele>901.372</ele>
        <time>2021-07-18T10:00:00Z</time>
      </trkpt>
      <trkpt lat="42.537635" lon="-5.665323">
        <ele>900.470</ele>
        <time>2021-07-18T10:00:11Z</time>
      </trkpt>
      <trkpt lat="42.537713" lon="-5.665268">
        <ele>899.997</ele>
        <time>2021-07-18T10:00:13Z</time>
      </trkpt>
      <trkpt lat="42.538120" lon="-5.664998">
        <ele>898.975</ele>
        <time>2021-07-18T10:00:23Z</time>
      </trkpt>
      <trkpt lat="42.538359" lon="-5.664843">
        <ele>898.974</ele>
        <time>2021-07-18T10:00:30Z</time>
      </trkpt>
      <trkpt lat="42.538587" lon="-5.664708">
        <ele>898.456</ele>
        <time>2021-07-18T10:00:37Z</time>
      </trkpt>
      <trkpt lat="42.538844" lon="-5.664514">
        <ele>898.921</ele>
        <time>2021-07-18T10:00:45Z</time>
      </trkpt>
      <trkpt lat="42.539046" lon="-5.664338">
        <ele>899.408</ele>
        <time>2021-07-18T10:00:53Z</time>
      </trkpt>
      <trkpt lat="42.539176" lon="-5.664226">
        <ele>899.444</ele>
        <time>2021-07-18T10:01:01Z</time>
      </trkpt>
      <trkpt lat="42.539410" lon="-5.664021">
        <ele>899.986</ele>
        <time>2021-07-18T10:01:11Z</time>
      </trkpt>
      <trkpt lat="42.539693" lon="-5.663774">
        <ele>899.943</ele>
        <time>2021-07-18T10:01:22Z</time>
      </trkpt>
      <trkpt lat="42.539844" lon="-5.663651">
        <ele>900.423</ele>
        <time>2021-07-18T10:01:29Z</time>
      </trkpt>
      <trkpt lat="42.540059" lon="-5.663464">
        <ele>900.417</ele>
        <time>2021-07-18T10:01:38Z</time>
      </trkpt>
      <trkpt lat="42.540260" lon="-5.663335">
        <ele>900.465</ele>
        <time>2021-07-18T10:01:46Z</time>
      </trkpt>
      <trkpt lat="42.540506" lon="-5.663199">
        <ele>901.332</ele>
        <time>2021-07-18T10:01:54Z</time>
      </trkpt>
      <trkpt lat="42.540732" lon="-5.663109">
        <ele>901.390</ele>
        <time>2021-07-18T10:02:02Z</time>
      </trkpt>
      <trkpt lat="42.540950" lon="-5.663024">
        <ele>901.346</ele>
        <time>2021-07-18T10:02:09Z</time>
      </trkpt>
      <trkpt lat="42.541228" lon="-5.662948">
        <ele>901.888</ele>
        <time>2021-07-18T10:02:18Z</time>
      </trkpt>
      <trkpt lat="42.541607" lon="-5.662836">
        <ele>902.316</ele>
        <time>2021-07-18T10:02:29Z</time>
      </trkpt>
      <trkpt lat="42.541858" lon="-5.662758">
        <ele>902.808</ele>
        <time>2021-07-18T10:02:37Z</time>
      </trkpt>
      <trkpt lat="42.542171" lon="-5.662668">
        <ele>902.821</ele>
        <time>2021-07-18T10:02:47Z</time>
      </trkpt>
      <trkpt lat="42.542606" lon="-5.662531">
        <ele>904.723</ele>
        <time>2021-07-18T10:03:01Z</time>
      </trkpt>
      <trkpt lat="42.542931" lon="-5.662435">
        <ele>905.790</ele>
        <time>2021-07-18T10:03:11Z</time>
      </trkpt>
      <trkpt lat="42.543150" lon="-5.662365">
        <ele>906.140</ele>
        <time>2021-07-18T10:03:18Z</time>
      </trkpt>
      <trkpt lat="42.543448" lon="-5.662283">
        <ele>906.154</ele>
        <time>2021-07-18T10:03:27Z</time>
      </trkpt>
      <trkpt lat="42.543779" lon="-5.662214">
        <ele>906.152</ele>
        <time>2021-07-18T10:03:37Z</time>
      </trkpt>
      <trkpt lat="42.544097" lon="-5.662206">
        <ele>906.629</ele>
        <time>2021-07-18T10:03:46Z</time>
      </trkpt>
      <trkpt lat="42.544419" lon="-5.662213">
        <ele>907.127</ele>
        <time>2021-07-18T10:03:55Z</time>
      </trkpt>
      <trkpt lat="42.544772" lon="-5.662259">
        <ele>907.634</ele>
        <time>2021-07-18T10:04:05Z</time>
      </trkpt>
      <trkpt lat="42.545198" lon="-5.662333">
        <ele>907.655</ele>
        <time>2021-07-18T10:04:17Z</time>
      </trkpt>
      <trkpt lat="42.545585" lon="-5.662390">
        <ele>907.610</ele>
        <time>2021-07-18T10:04:27Z</time>
      </trkpt>
      <trkpt lat="42.545968" lon="-5.662451">
        <ele>908.108</ele>
        <time>2021-07-18T10:04:37Z</time>
      </trkpt>
      <trkpt lat="42.546267" lon="-5.662525">
        <ele>908.130</ele>
        <time>2021-07-18T10:04:45Z</time>
      </trkpt>
      <trkpt lat="42.546741" lon="-5.662609">
        <ele>908.582</ele>
        <time>2021-07-18T10:04:57Z</time>
      </trkpt>
      <trkpt lat="42.547060" lon="-5.662683">
        <ele>908.189</ele>
        <time>2021-07-18T10:05:06Z</time>
      </trkpt>
      <trkpt lat="42.547367" lon="-5.662752">
        <ele>908.579</ele>
        <time>2021-07-18T10:05:14Z</time>
      </trkpt>
      <trkpt lat="42.547740" lon="-5.662840">
        <ele>909.093</ele>
        <time>2021-07-18T10:05:24Z</time>
      </trkpt>
      <trkpt lat="42.548069" lon="-5.662900">
        <ele>908.561</ele>
        <time>2021-07-18T10:05:33Z</time>
      </trkpt>
      <trkpt lat="42.548290" lon="-5.662921">
        <ele>908.568</ele>
        <time>2021-07-18T10:05:41Z</time>
      </trkpt>
      <trkpt lat="42.548534" lon="-5.662905">
        <ele>907.156</ele>
        <time>2021-07-18T10:05:50Z</time>
      </trkpt>
      <trkpt lat="42.548808" lon="-5.662844">
        <ele>905.221</ele>
        <time>2021-07-18T10:05:59Z</time>
      </trkpt>
      <trkpt lat="42.548973" lon="-5.662782">
        <ele>903.341</ele>
        <time>2021-07-18T10:06:07Z</time>
      </trkpt>
      <trkpt lat="42.549148" lon="-5.662698">
        <ele>901.305</ele>
        <time>2021-07-18T10:06:17Z</time>
      </trkpt>
      <trkpt lat="42.549273" lon="-5.662618">
        <ele>899.408</ele>
        <time>2021-07-18T10:06:24Z</time>
      </trkpt>
      <trkpt lat="42.549499" lon="-5.662491">
        <ele>896.549</ele>
        <time>2021-07-18T10:06:33Z</time>
      </trkpt>
      <trkpt lat="42.549596" lon="-5.662435">
        <ele>895.111</ele>
        <time>2021-07-18T10:06:39Z</time>
      </trkpt>
      <trkpt lat="42.549768" lon="-5.662364">
        <ele>894.178</ele>
        <time>2021-07-18T10:06:47Z</time>
      </trkpt>
      <trkpt lat="42.549894" lon="-5.662295">
        <ele>893.268</ele>
        <time>2021-07-18T10:06:54Z</time>
      </trkpt>
      <trkpt lat="42.549989" lon="-5.662235">
        <ele>891.712</ele>
        <time>2021-07-18T10:07:01Z</time>
      </trkpt>
      <trkpt lat="42.550124" lon="-5.662161">
        <ele>889.810</ele>
        <time>2021-07-18T10:07:09Z</time>
      </trkpt>
      <trkpt lat="42.550279" lon="-5.662099">
        <ele>887.437</ele>
        <time>2021-07-18T10:07:17Z</time>
      </trkpt>
      <trkpt lat="42.550425" lon="-5.662048">
        <ele>886.485</ele>
        <time>2021-07-18T10:07:24Z</time>
      </trkpt>
      <trkpt lat="42.550513" lon="-5.662016">
        <ele>886.433</ele>
        <time>2021-07-18T10:07:31Z</time>
      </trkpt>
      <trkpt lat="42.550530" lon="-5.662011">
        <ele>886.423</ele>
        <time>2021-07-18T10:07:33Z</time>
      </trkpt>
      <trkpt lat="42.550541" lon="-5.662009">
        <ele>886.415</ele>
        <time>2021-07-18T10:07:34Z</time>
      </trkpt>
      <trkpt lat="42.550649" lon="-5.661943">
        <ele>885.908</ele>
        <time>2021-07-18T10:07:42Z</time>
      </trkpt>
      <trkpt lat="42.550837" lon="-5.661859">
        <ele>884.090</ele>
        <time>2021-07-18T10:07:51Z</time>
      </trkpt>
      <trkpt lat="42.550977" lon="-5.661790">
        <ele>883.512</ele>
        <time>2021-07-18T10:07:57Z</time>
      </trkpt>
      <trkpt lat="42.551140" lon="-5.661700">
        <ele>882.129</ele>
        <time>2021-07-18T10:08:03Z</time>
      </trkpt>
      <trkpt lat="42.551218" lon="-5.661673">
        <ele>881.189</ele>
        <time>2021-07-18T10:08:05Z</time>
      </trkpt>
      <trkpt lat="42.551258" lon="-5.661651">
        <ele>881.183</ele>
        <time>2021-07-18T10:08:06Z</time>
      </trkpt>
      <trkpt lat="42.551301" lon="-5.661623">
        <ele>880.771</ele>
        <time>2021-07-18T10:08:07Z</time>
      </trkpt>
      <trkpt lat="42.551495" lon="-5.661514">
        <ele>879.288</ele>
        <time>2021-07-18T10:08:11Z</time>
      </trkpt>
      <trkpt lat="42.551624" lon="-5.661439">
        <ele>878.336</ele>
        <time>2021-07-18T10:08:14Z</time>
      </trkpt>
      <trkpt lat="42.551671" lon="-5.661408">
        <ele>877.858</ele>
        <time>2021-07-18T10:08:15Z</time>
      </trkpt>
      <trkpt lat="42.551985" lon="-5.661238">
        <ele>876.352</ele>
        <time>2021-07-18T10:08:22Z</time>
      </trkpt>
      <trkpt lat="42.552243" lon="-5.661060">
        <ele>875.417</ele>
        <time>2021-07-18T10:08:29Z</time>
      </trkpt>
      <trkpt lat="42.552300" lon="-5.660926">
        <ele>873.908</ele>
        <time>2021-07-18T10:08:33Z</time>
      </trkpt>
      <trkpt lat="42.552292" lon="-5.660675">
        <ele>873.592</ele>
        <time>2021-07-18T10:08:39Z</time>
      </trkpt>
      <trkpt lat="42.552241" lon="-5.660307">
        <ele>872.014</ele>
        <time>2021-07-18T10:08:46Z</time>
      </trkpt>
      <trkpt lat="42.552240" lon="-5.660250">
        <ele>871.541</ele>
        <time>2021-07-18T10:08:47Z</time>
      </trkpt>
      <trkpt lat="42.552244" lon="-5.660189">
        <ele>871.521</ele>
        <time>2021-07-18T10:08:48Z</time>
      </trkpt>
      <trkpt lat="42.552253" lon="-5.660135">
        <ele>871.085</ele>
        <time>2021-07-18T10:08:49Z</time>
      </trkpt>
      <trkpt lat="42.552269" lon="-5.660081">
        <ele>871.073</ele>
        <time>2021-07-18T10:08:50Z</time>
      </trkpt>
      <trkpt lat="42.552307" lon="-5.660014">
        <ele>870.670</ele>
        <time>2021-07-18T10:08:51Z</time>
      </trkpt>
      <trkpt lat="42.552349" lon="-5.659984">
        <ele>870.658</ele>
        <time>2021-07-18T10:08:52Z</time>
      </trkpt>
      <trkpt lat="42.552367" lon="-5.659969">
        <ele>870.614</ele>
        <time>2021-07-18T10:08:53Z</time>
      </trkpt>
      <trkpt lat="42.552404" lon="-5.659945">
        <ele>870.154</ele>
        <time>2021-07-18T10:08:54Z</time>
      </trkpt>
      <trkpt lat="42.552439" lon="-5.659924">
        <ele>870.109</ele>
        <time>2021-07-18T10:08:55Z</time>
      </trkpt>
      <trkpt lat="42.552478" lon="-5.659904">
        <ele>869.608</ele>
        <time>2021-07-18T10:08:56Z</time>
      </trkpt>
      <trkpt lat="42.552519" lon="-5.659886">
        <ele>869.698</ele>
        <time>2021-07-18T10:08:57Z</time>
      </trkpt>
      <trkpt lat="42.552843" lon="-5.659769">
        <ele>868.640</ele>
        <time>2021-07-18T10:09:04Z</time>
      </trkpt>
      <trkpt lat="42.553269" lon="-5.659749">
        <ele>867.717</ele>
        <time>2021-07-18T10:09:12Z</time>
      </trkpt>
      <trkpt lat="42.553476" lon="-5.659687">
        <ele>869.177</ele>
        <time>2021-07-18T10:09:18Z</time>
      </trkpt>
      <trkpt lat="42.553659" lon="-5.659650">
        <ele>872.511</ele>
        <time>2021-07-18T10:09:26Z</time>
      </trkpt>
      <trkpt lat="42.553825" lon="-5.659608">
        <ele>874.439</ele>
        <time>2021-07-18T10:09:34Z</time>
      </trkpt>
      <trkpt lat="42.554008" lon="-5.659555">
        <ele>875.986</ele>
        <time>2021-07-18T10:09:43Z</time>
      </trkpt>
      <trkpt lat="42.554189" lon="-5.659500">
        <ele>877.344</ele>
        <time>2021-07-18T10:09:52Z</time>
      </trkpt>
      <trkpt lat="42.554359" lon="-5.659450">
        <ele>878.757</ele>
        <time>2021-07-18T10:10:01Z</time>
      </trkpt>
      <trkpt lat="42.554509" lon="-5.659407">
        <ele>880.200</ele>
        <time>2021-07-18T10:10:09Z</time>
      </trkpt>
      <trkpt lat="42.554571" lon="-5.659385">
        <ele>880.720</ele>
        <time>2021-07-18T10:10:13Z</time>
      </trkpt>
      <trkpt lat="42.554654" lon="-5.659353">
        <ele>880.708</ele>
        <time>2021-07-18T10:10:19Z</time>
      </trkpt>
      <trkpt lat="42.554829" lon="-5.659315">
        <ele>881.632</ele>
        <time>2021-07-18T10:10:28Z</time>
      </trkpt>
      <trkpt lat="42.554990" lon="-5.659269">
        <ele>881.654</ele>
        <time>2021-07-18T10:10:36Z</time>
      </trkpt>
      <trkpt lat="42.555232" lon="-5.659192">
        <ele>882.191</ele>
        <time>2021-07-18T10:10:48Z</time>
      </trkpt>
      <trkpt lat="42.555460" lon="-5.659120">
        <ele>881.141</ele>
        <time>2021-07-18T10:10:57Z</time>
      </trkpt>
      <trkpt lat="42.555791" lon="-5.659014">
        <ele>879.755</ele>
        <time>2021-07-18T10:11:05Z</time>
      </trkpt>
      <trkpt lat="42.556007" lon="-5.658956">
        <ele>880.713</ele>
        <time>2021-07-18T10:11:12Z</time>
      </trkpt>
      <trkpt lat="42.556249" lon="-5.658894">
        <ele>881.610</ele>
        <time>2021-07-18T10:11:22Z</time>
      </trkpt>
      <trkpt lat="42.556483" lon="-5.658816">
        <ele>883.188</ele>
        <time>2021-07-18T10:11:32Z</time>
      </trkpt>
      <trkpt lat="42.556691" lon="-5.658754">
        <ele>884.581</ele>
        <time>2021-07-18T10:11:41Z</time>
      </trkpt>
      <trkpt lat="42.556878" lon="-5.658705">
        <ele>885.961</ele>
        <time>2021-07-18T10:11:49Z</time>
      </trkpt>
      <trkpt lat="42.557073" lon="-5.658641">
        <ele>886.417</ele>
        <time>2021-07-18T10:11:58Z</time>
      </trkpt>
      <trkpt lat="42.557261" lon="-5.658599">
        <ele>887.408</ele>
        <time>2021-07-18T10:12:07Z</time>
      </trkpt>
      <trkpt lat="42.557487" lon="-5.658571">
        <ele>887.465</ele>
        <time>2021-07-18T10:12:16Z</time>
      </trkpt>
      <trkpt lat="42.557702" lon="-5.658541">
        <ele>887.417</ele>
        <time>2021-07-18T10:12:24Z</time>
      </trkpt>
      <trkpt lat="42.557927" lon="-5.658538">
        <ele>886.414</ele>
        <time>2021-07-18T10:12:31Z</time>
      </trkpt>
      <trkpt lat="42.558154" lon="-5.658567">
        <ele>885.544</ele>
        <time>2021-07-18T10:12:36Z</time>
      </trkpt>
      <trkpt lat="42.558263" lon="-5.658598">
        <ele>885.028</ele>
        <time>2021-07-18T10:12:38Z</time>
      </trkpt>
      <trkpt lat="42.558674" lon="-5.658660">
        <ele>884.096</ele>
        <time>2021-07-18T10:12:45Z</time>
      </trkpt>
      <trkpt lat="42.559108" lon="-5.658673">
        <ele>884.563</ele>
        <time>2021-07-18T10:12:54Z</time>
      </trkpt>
      <trkpt lat="42.559149" lon="-5.658668">
        <ele>884.521</ele>
        <time>2021-07-18T10:12:55Z</time>
      </trkpt>
      <trkpt lat="42.559372" lon="-5.658615">
        <ele>885.933</ele>
        <time>2021-07-18T10:13:02Z</time>
      </trkpt>
      <trkpt lat="42.559626" lon="-5.658519">
        <ele>886.923</ele>
        <time>2021-07-18T10:13:11Z</time>
      </trkpt>
      <trkpt lat="42.559821" lon="-5.658412">
        <ele>887.915</ele>
        <time>2021-07-18T10:13:19Z</time>
      </trkpt>
      <trkpt lat="42.559932" lon="-5.658343">
        <ele>888.808</ele>
        <time>2021-07-18T10:13:25Z</time>
      </trkpt>
      <trkpt lat="42.560090" lon="-5.658216">
        <ele>889.830</ele>
        <time>2021-07-18T10:13:34Z</time>
      </trkpt>
      <trkpt lat="42.560273" lon="-5.658051">
        <ele>891.282</ele>
        <time>2021-07-18T10:13:45Z</time>
      </trkpt>
      <trkpt lat="42.560407" lon="-5.657922">
        <ele>892.279</ele>
        <time>2021-07-18T10:13:54Z</time>
      </trkpt>
      <trkpt lat="42.560531" lon="-5.657805">
        <ele>893.619</ele>
        <time>2021-07-18T10:14:02Z</time>
      </trkpt>
      <trkpt lat="42.560632" lon="-5.657702">
        <ele>894.613</ele>
        <time>2021-07-18T10:14:09Z</time>
      </trkpt>
      <trkpt lat="42.560729" lon="-5.657622">
        <ele>895.631</ele>
        <time>2021-07-18T10:14:16Z</time>
      </trkpt>
      <trkpt lat="42.560853" lon="-5.657504">
        <ele>896.538</ele>
        <time>2021-07-18T10:14:25Z</time>
      </trkpt>
      <trkpt lat="42.560913" lon="-5.657441">
        <ele>897.586</ele>
        <time>2021-07-18T10:14:30Z</time>
      </trkpt>
      <trkpt lat="42.560927" lon="-5.657426">
        <ele>898.054</ele>
        <time>2021-07-18T10:14:31Z</time>
      </trkpt>
      <trkpt lat="42.560941" lon="-5.657413">
        <ele>898.056</ele>
        <time>2021-07-18T10:14:32Z</time>
      </trkpt>
      <trkpt lat="42.560955" lon="-5.657399">
        <ele>898.011</ele>
        <time>2021-07-18T10:14:33Z</time>
      </trkpt>
      <trkpt lat="42.560969" lon="-5.657388">
        <ele>898.008</ele>
        <time>2021-07-18T10:14:34Z</time>
      </trkpt>
      <trkpt lat="42.560985" lon="-5.657374">
        <ele>898.452</ele>
        <time>2021-07-18T10:14:35Z</time>
      </trkpt>
      <trkpt lat="42.561104" lon="-5.657273">
        <ele>899.994</ele>
        <time>2021-07-18T10:14:43Z</time>
      </trkpt>
      <trkpt lat="42.561244" lon="-5.657151">
        <ele>900.811</ele>
        <time>2021-07-18T10:14:51Z</time>
      </trkpt>
      <trkpt lat="42.561386" lon="-5.657032">
        <ele>901.811</ele>
        <time>2021-07-18T10:14:59Z</time>
      </trkpt>
      <trkpt lat="42.561567" lon="-5.656888">
        <ele>902.875</ele>
        <time>2021-07-18T10:15:09Z</time>
      </trkpt>
      <trkpt lat="42.561709" lon="-5.656786">
        <ele>903.763</ele>
        <time>2021-07-18T10:15:16Z</time>
      </trkpt>
      <trkpt lat="42.561945" lon="-5.656609">
        <ele>904.280</ele>
        <time>2021-07-18T10:15:25Z</time>
      </trkpt>
      <trkpt lat="42.562179" lon="-5.656439">
        <ele>904.738</ele>
        <time>2021-07-18T10:15:34Z</time>
      </trkpt>
      <trkpt lat="42.562354" lon="-5.656320">
        <ele>905.261</ele>
        <time>2021-07-18T10:15:42Z</time>
      </trkpt>
      <trkpt lat="42.562363" lon="-5.656319">
        <ele>904.721</ele>
        <time>2021-07-18T10:15:48Z</time>
      </trkpt>
      <trkpt lat="42.562376" lon="-5.656326">
        <ele>903.713</ele>
        <time>2021-07-18T10:16:05Z</time>
      </trkpt>
      <trkpt lat="42.562372" lon="-5.656327">
        <ele>904.208</ele>
        <time>2021-07-18T10:16:21Z</time>
      </trkpt>
      <trkpt lat="42.562372" lon="-5.656334">
        <ele>905.783</ele>
        <time>2021-07-18T10:16:37Z</time>
      </trkpt>
      <trkpt lat="42.562374" lon="-5.656329">
        <ele>905.285</ele>
        <time>2021-07-18T10:16:55Z</time>
      </trkpt>
      <trkpt lat="42.562369" lon="-5.656324">
        <ele>905.732</ele>
        <time>2021-07-18T10:17:10Z</time>
      </trkpt>
      <trkpt lat="42.562376" lon="-5.656326">
        <ele>904.252</ele>
        <time>2021-07-18T10:17:27Z</time>
      </trkpt>
      <trkpt lat="42.562387" lon="-5.656312">
        <ele>904.256</ele>
        <time>2021-07-18T10:17:37Z</time>
      </trkpt>
      <trkpt lat="42.562396" lon="-5.656315">
        <ele>903.744</ele>
        <time>2021-07-18T10:17:41Z</time>
      </trkpt>
      <trkpt lat="42.562409" lon="-5.656313">
        <ele>903.791</ele>
        <time>2021-07-18T10:17:42Z</time>
      </trkpt>
      <trkpt lat="42.562427" lon="-5.656303">
        <ele>903.799</ele>
        <time>2021-07-18T10:17:43Z</time>
      </trkpt>
      <trkpt lat="42.562645" lon="-5.656207">
        <ele>902.398</ele>
        <time>2021-07-18T10:17:50Z</time>
      </trkpt>
      <trkpt lat="42.562957" lon="-5.656118">
        <ele>898.915</ele>
        <time>2021-07-18T10:17:55Z</time>
      </trkpt>
      <trkpt lat="42.563489" lon="-5.656000">
        <ele>894.126</ele>
        <time>2021-07-18T10:18:01Z</time>
      </trkpt>
      <trkpt lat="42.564055" lon="-5.655784">
        <ele>889.808</ele>
        <time>2021-07-18T10:18:07Z</time>
      </trkpt>
      <trkpt lat="42.564142" lon="-5.655719">
        <ele>889.876</ele>
        <time>2021-07-18T10:18:08Z</time>
      </trkpt>
      <trkpt lat="42.564230" lon="-5.655639">
        <ele>889.388</ele>
        <time>2021-07-18T10:18:09Z</time>
      </trkpt>
      <trkpt lat="42.564303" lon="-5.655562">
        <ele>889.315</ele>
        <time>2021-07-18T10:18:10Z</time>
      </trkpt>
      <trkpt lat="42.564375" lon="-5.655475">
        <ele>888.895</ele>
        <time>2021-07-18T10:18:11Z</time>
      </trkpt>
      <trkpt lat="42.564439" lon="-5.655385">
        <ele>888.469</ele>
        <time>2021-07-18T10:18:12Z</time>
      </trkpt>
      <trkpt lat="42.564504" lon="-5.655287">
        <ele>887.997</ele>
        <time>2021-07-18T10:18:13Z</time>
      </trkpt>
      <trkpt lat="42.565094" lon="-5.654429">
        <ele>884.094</ele>
        <time>2021-07-18T10:18:22Z</time>
      </trkpt>
      <trkpt lat="42.565459" lon="-5.653938">
        <ele>882.112</ele>
        <time>2021-07-18T10:18:28Z</time>
      </trkpt>
      <trkpt lat="42.565734" lon="-5.653539">
        <ele>880.737</ele>
        <time>2021-07-18T10:18:33Z</time>
      </trkpt>
      <trkpt lat="42.565794" lon="-5.653460">
        <ele>880.249</ele>
        <time>2021-07-18T10:18:34Z</time>
      </trkpt>
      <trkpt lat="42.565850" lon="-5.653372">
        <ele>879.713</ele>
        <time>2021-07-18T10:18:35Z</time>
      </trkpt>
      <trkpt lat="42.566236" lon="-5.652753">
        <ele>878.708</ele>
        <time>2021-07-18T10:18:42Z</time>
      </trkpt>
      <trkpt lat="42.566426" lon="-5.652261">
        <ele>879.240</ele>
        <time>2021-07-18T10:18:48Z</time>
      </trkpt>
      <trkpt lat="42.566513" lon="-5.652010">
        <ele>881.162</ele>
        <time>2021-07-18T10:18:53Z</time>
      </trkpt>
      <trkpt lat="42.566633" lon="-5.651712">
        <ele>883.589</ele>
        <time>2021-07-18T10:19:02Z</time>
      </trkpt>
      <trkpt lat="42.566703" lon="-5.651500">
        <ele>884.059</ele>
        <time>2021-07-18T10:19:09Z</time>
      </trkpt>
      <trkpt lat="42.566800" lon="-5.651241">
        <ele>884.013</ele>
        <time>2021-07-18T10:19:19Z</time>
      </trkpt>
      <trkpt lat="42.566851" lon="-5.651135">
        <ele>884.081</ele>
        <time>2021-07-18T10:19:25Z</time>
      </trkpt>
      <trkpt lat="42.566863" lon="-5.651016">
        <ele>883.538</ele>
        <time>2021-07-18T10:19:31Z</time>
      </trkpt>
      <trkpt lat="42.566865" lon="-5.650983">
        <ele>883.176</ele>
        <time>2021-07-18T10:19:32Z</time>
      </trkpt>
      <trkpt lat="42.566876" lon="-5.650968">
        <ele>883.171</ele>
        <time>2021-07-18T10:19:33Z</time>
      </trkpt>
      <trkpt lat="42.566892" lon="-5.650952">
        <ele>883.141</ele>
        <time>2021-07-18T10:19:34Z</time>
      </trkpt>
      <trkpt lat="42.566928" lon="-5.650918">
        <ele>883.515</ele>
        <time>2021-07-18T10:19:35Z</time>
      </trkpt>
      <trkpt lat="42.567106" lon="-5.650718">
        <ele>888.808</ele>
        <time>2021-07-18T10:19:45Z</time>
      </trkpt>
      <trkpt lat="42.567221" lon="-5.650624">
        <ele>890.364</ele>
        <time>2021-07-18T10:19:53Z</time>
      </trkpt>
      <trkpt lat="42.567389" lon="-5.650543">
        <ele>892.726</ele>
        <time>2021-07-18T10:20:03Z</time>
      </trkpt>
      <trkpt lat="42.567541" lon="-5.650478">
        <ele>894.673</ele>
        <time>2021-07-18T10:20:12Z</time>
      </trkpt>
      <trkpt lat="42.567712" lon="-5.650415">
        <ele>896.533</ele>
        <time>2021-07-18T10:20:22Z</time>
      </trkpt>
      <trkpt lat="42.567900" lon="-5.650366">
        <ele>898.477</ele>
        <time>2021-07-18T10:20:33Z</time>
      </trkpt>
      <trkpt lat="42.568026" lon="-5.650316">
        <ele>899.915</ele>
        <time>2021-07-18T10:20:41Z</time>
      </trkpt>
      <trkpt lat="42.568195" lon="-5.650256">
        <ele>902.372</ele>
        <time>2021-07-18T10:20:52Z</time>
      </trkpt>
      <trkpt lat="42.568324" lon="-5.650209">
        <ele>903.740</ele>
        <time>2021-07-18T10:21:00Z</time>
      </trkpt>
      <trkpt lat="42.568466" lon="-5.650160">
        <ele>904.727</ele>
        <time>2021-07-18T10:21:09Z</time>
      </trkpt>
      <trkpt lat="42.568614" lon="-5.650150">
        <ele>905.768</ele>
        <time>2021-07-18T10:21:18Z</time>
      </trkpt>
      <trkpt lat="42.568773" lon="-5.650165">
        <ele>907.114</ele>
        <time>2021-07-18T10:21:27Z</time>
      </trkpt>
      <trkpt lat="42.568935" lon="-5.650207">
        <ele>908.508</ele>
        <time>2021-07-18T10:21:36Z</time>
      </trkpt>
      <trkpt lat="42.569107" lon="-5.650244">
        <ele>909.599</ele>
        <time>2021-07-18T10:21:45Z</time>
      </trkpt>
      <trkpt lat="42.569282" lon="-5.650295">
        <ele>910.531</ele>
        <time>2021-07-18T10:21:54Z</time>
      </trkpt>
      <trkpt lat="42.569464" lon="-5.650346">
        <ele>910.958</ele>
        <time>2021-07-18T10:22:03Z</time>
      </trkpt>
      <trkpt lat="42.569613" lon="-5.650382">
        <ele>911.468</ele>
        <time>2021-07-18T10:22:10Z</time>
      </trkpt>
      <trkpt lat="42.569793" lon="-5.650334">
        <ele>910.592</ele>
        <time>2021-07-18T10:22:17Z</time>
      </trkpt>
      <trkpt lat="42.569881" lon="-5.650120">
        <ele>910.050</ele>
        <time>2021-07-18T10:22:22Z</time>
      </trkpt>
      <trkpt lat="42.569967" lon="-5.649804">
        <ele>909.567</ele>
        <time>2021-07-18T10:22:28Z</time>
      </trkpt>
      <trkpt lat="42.570138" lon="-5.649743">
        <ele>909.595</ele>
        <time>2021-07-18T10:22:33Z</time>
      </trkpt>
      <trkpt lat="42.570369" lon="-5.649862">
        <ele>909.089</ele>
        <time>2021-07-18T10:22:40Z</time>
      </trkpt>
      <trkpt lat="42.570597" lon="-5.649923">
        <ele>909.006</ele>
        <time>2021-07-18T10:22:47Z</time>
      </trkpt>
      <trkpt lat="42.570899" lon="-5.649887">
        <ele>909.026</ele>
        <time>2021-07-18T10:22:57Z</time>
      </trkpt>
      <trkpt lat="42.570907" lon="-5.649876">
        <ele>908.508</ele>
        <time>2021-07-18T10:22:58Z</time>
      </trkpt>
      <trkpt lat="42.570913" lon="-5.649862">
        <ele>908.555</ele>
        <time>2021-07-18T10:22:59Z</time>
      </trkpt>
      <trkpt lat="42.570922" lon="-5.649837">
        <ele>908.127</ele>
        <time>2021-07-18T10:23:06Z</time>
      </trkpt>
      <trkpt lat="42.570937" lon="-5.649807">
        <ele>908.194</ele>
        <time>2021-07-18T10:23:15Z</time>
      </trkpt>
      <trkpt lat="42.571047" lon="-5.649737">
        <ele>907.654</ele>
        <time>2021-07-18T10:23:21Z</time>
      </trkpt>
      <trkpt lat="42.571271" lon="-5.649677">
        <ele>907.168</ele>
        <time>2021-07-18T10:23:29Z</time>
      </trkpt>
      <trkpt lat="42.571598" lon="-5.649510">
        <ele>905.776</ele>
        <time>2021-07-18T10:23:38Z</time>
      </trkpt>
      <trkpt lat="42.572014" lon="-5.649299">
        <ele>903.393</ele>
        <time>2021-07-18T10:23:46Z</time>
      </trkpt>
      <trkpt lat="42.572361" lon="-5.649041">
        <ele>903.361</ele>
        <time>2021-07-18T10:23:53Z</time>
      </trkpt>
      <trkpt lat="42.572528" lon="-5.648859">
        <ele>904.292</ele>
        <time>2021-07-18T10:23:59Z</time>
      </trkpt>
      <trkpt lat="42.572693" lon="-5.648699">
        <ele>906.173</ele>
        <time>2021-07-18T10:24:06Z</time>
      </trkpt>
      <trkpt lat="42.572928" lon="-5.648505">
        <ele>908.120</ele>
        <time>2021-07-18T10:24:16Z</time>
      </trkpt>
      <trkpt lat="42.573195" lon="-5.648283">
        <ele>909.008</ele>
        <time>2021-07-18T10:24:27Z</time>
      </trkpt>
      <trkpt lat="42.573387" lon="-5.648094">
        <ele>908.516</ele>
        <time>2021-07-18T10:24:35Z</time>
      </trkpt>
      <trkpt lat="42.573610" lon="-5.647873">
        <ele>908.568</ele>
        <time>2021-07-18T10:24:44Z</time>
      </trkpt>
      <trkpt lat="42.573907" lon="-5.647602">
        <ele>908.175</ele>
        <time>2021-07-18T10:24:55Z</time>
      </trkpt>
      <trkpt lat="42.574223" lon="-5.647325">
        <ele>907.685</ele>
        <time>2021-07-18T10:25:07Z</time>
      </trkpt>
      <trkpt lat="42.574418" lon="-5.647158">
        <ele>906.619</ele>
        <time>2021-07-18T10:25:15Z</time>
      </trkpt>
      <trkpt lat="42.574584" lon="-5.647031">
        <ele>905.797</ele>
        <time>2021-07-18T10:25:22Z</time>
      </trkpt>
      <trkpt lat="42.574798" lon="-5.646876">
        <ele>902.864</ele>
        <time>2021-07-18T10:25:29Z</time>
      </trkpt>
      <trkpt lat="42.575086" lon="-5.646667">
        <ele>899.962</ele>
        <time>2021-07-18T10:25:35Z</time>
      </trkpt>
      <trkpt lat="42.575436" lon="-5.646428">
        <ele>896.573</ele>
        <time>2021-07-18T10:25:42Z</time>
      </trkpt>
      <trkpt lat="42.575805" lon="-5.646201">
        <ele>894.685</ele>
        <time>2021-07-18T10:25:51Z</time>
      </trkpt>
      <trkpt lat="42.576088" lon="-5.646042">
        <ele>894.113</ele>
        <time>2021-07-18T10:25:58Z</time>
      </trkpt>
      <trkpt lat="42.576310" lon="-5.645929">
        <ele>895.108</ele>
        <time>2021-07-18T10:26:05Z</time>
      </trkpt>
      <trkpt lat="42.576590" lon="-5.645751">
        <ele>895.644</ele>
        <time>2021-07-18T10:26:15Z</time>
      </trkpt>
      <trkpt lat="42.576772" lon="-5.645603">
        <ele>896.596</ele>
        <time>2021-07-18T10:26:24Z</time>
      </trkpt>
      <trkpt lat="42.576782" lon="-5.645596">
        <ele>896.533</ele>
        <time>2021-07-18T10:26:25Z</time>
      </trkpt>
      <trkpt lat="42.576794" lon="-5.645589">
        <ele>896.543</ele>
        <time>2021-07-18T10:26:26Z</time>
      </trkpt>
      <trkpt lat="42.576800" lon="-5.645578">
        <ele>896.557</ele>
        <time>2021-07-18T10:26:32Z</time>
      </trkpt>
      <trkpt lat="42.576812" lon="-5.645576">
        <ele>896.545</ele>
        <time>2021-07-18T10:26:38Z</time>
      </trkpt>
      <trkpt lat="42.576832" lon="-5.645582">
        <ele>896.552</ele>
        <time>2021-07-18T10:26:39Z</time>
      </trkpt>
      <trkpt lat="42.576855" lon="-5.645596">
        <ele>896.540</ele>
        <time>2021-07-18T10:26:40Z</time>
      </trkpt>
      <trkpt lat="42.576872" lon="-5.645605">
        <ele>896.585</ele>
        <time>2021-07-18T10:26:41Z</time>
      </trkpt>
      <trkpt lat="42.576896" lon="-5.645619">
        <ele>896.589</ele>
        <time>2021-07-18T10:26:42Z</time>
      </trkpt>
      <trkpt lat="42.576923" lon="-5.645634">
        <ele>896.517</ele>
        <time>2021-07-18T10:26:43Z</time>
      </trkpt>
      <trkpt lat="42.577186" lon="-5.645805">
        <ele>897.008</ele>
        <time>2021-07-18T10:26:52Z</time>
      </trkpt>
      <trkpt lat="42.577407" lon="-5.645965">
        <ele>897.515</ele>
        <time>2021-07-18T10:27:01Z</time>
      </trkpt>
      <trkpt lat="42.577475" lon="-5.645892">
        <ele>897.067</ele>
        <time>2021-07-18T10:27:06Z</time>
      </trkpt>
      <trkpt lat="42.577502" lon="-5.645855">
        <ele>897.064</ele>
        <time>2021-07-18T10:27:07Z</time>
      </trkpt>
      <trkpt lat="42.577529" lon="-5.645830">
        <ele>896.554</ele>
        <time>2021-07-18T10:27:08Z</time>
      </trkpt>
      <trkpt lat="42.577556" lon="-5.645810">
        <ele>896.578</ele>
        <time>2021-07-18T10:27:09Z</time>
      </trkpt>
      <trkpt lat="42.577679" lon="-5.645697">
        <ele>895.626</ele>
        <time>2021-07-18T10:27:15Z</time>
      </trkpt>
      <trkpt lat="42.577713" lon="-5.645454">
        <ele>895.163</ele>
        <time>2021-07-18T10:27:20Z</time>
      </trkpt>
      <trkpt lat="42.577712" lon="-5.645343">
        <ele>894.641</ele>
        <time>2021-07-18T10:27:23Z</time>
      </trkpt>
      <trkpt lat="42.577705" lon="-5.645310">
        <ele>894.659</ele>
        <time>2021-07-18T10:27:24Z</time>
      </trkpt>
      <trkpt lat="42.577705" lon="-5.645277">
        <ele>894.603</ele>
        <time>2021-07-18T10:27:25Z</time>
      </trkpt>
      <trkpt lat="42.577709" lon="-5.645231">
        <ele>894.123</ele>
        <time>2021-07-18T10:27:26Z</time>
      </trkpt>
      <trkpt lat="42.577718" lon="-5.645176">
        <ele>894.108</ele>
        <time>2021-07-18T10:27:27Z</time>
      </trkpt>
      <trkpt lat="42.577792" lon="-5.644740">
        <ele>894.182</ele>
        <time>2021-07-18T10:27:35Z</time>
      </trkpt>
      <trkpt lat="42.577904" lon="-5.644254">
        <ele>894.694</ele>
        <time>2021-07-18T10:27:45Z</time>
      </trkpt>
      <trkpt lat="42.578010" lon="-5.643886">
        <ele>894.671</ele>
        <time>2021-07-18T10:27:54Z</time>
      </trkpt>
      <trkpt lat="42.578152" lon="-5.643524">
        <ele>896.581</ele>
        <time>2021-07-18T10:28:04Z</time>
      </trkpt>
      <trkpt lat="42.578322" lon="-5.643181">
        <ele>898.955</ele>
        <time>2021-07-18T10:28:16Z</time>
      </trkpt>
      <trkpt lat="42.578407" lon="-5.643053">
        <ele>899.923</ele>
        <time>2021-07-18T10:28:23Z</time>
      </trkpt>
      <trkpt lat="42.578517" lon="-5.642867">
        <ele>901.340</ele>
        <time>2021-07-18T10:28:31Z</time>
      </trkpt>
      <trkpt lat="42.578624" lon="-5.642699">
        <ele>901.898</ele>
        <time>2021-07-18T10:28:38Z</time>
      </trkpt>
      <trkpt lat="42.578766" lon="-5.642504">
        <ele>902.319</ele>
        <time>2021-07-18T10:28:47Z</time>
      </trkpt>
      <trkpt lat="42.578901" lon="-5.642306">
        <ele>903.709</ele>
        <time>2021-07-18T10:28:57Z</time>
      </trkpt>
      <trkpt lat="42.579030" lon="-5.642141">
        <ele>905.219</ele>
        <time>2021-07-18T10:29:06Z</time>
      </trkpt>
      <trkpt lat="42.579171" lon="-5.641966">
        <ele>908.108</ele>
        <time>2021-07-18T10:29:16Z</time>
      </trkpt>
      <trkpt lat="42.579255" lon="-5.641841">
        <ele>909.588</ele>
        <time>2021-07-18T10:29:24Z</time>
      </trkpt>
      <trkpt lat="42.579322" lon="-5.641714">
        <ele>910.970</ele>
        <time>2021-07-18T10:29:30Z</time>
      </trkpt>
      <trkpt lat="42.579406" lon="-5.641661">
        <ele>912.927</ele>
        <time>2021-07-18T10:29:37Z</time>
      </trkpt>
      <trkpt lat="42.579422" lon="-5.641676">
        <ele>913.837</ele>
        <time>2021-07-18T10:29:58Z</time>
      </trkpt>
      <trkpt lat="42.579480" lon="-5.641643">
        <ele>914.851</ele>
        <time>2021-07-18T10:30:04Z</time>
      </trkpt>
      <trkpt lat="42.579603" lon="-5.641499">
        <ele>914.819</ele>
        <time>2021-07-18T10:30:11Z</time>
      </trkpt>
      <trkpt lat="42.579750" lon="-5.641274">
        <ele>913.876</ele>
        <time>2021-07-18T10:30:19Z</time>
      </trkpt>
      <trkpt lat="42.579969" lon="-5.640958">
        <ele>914.354</ele>
        <time>2021-07-18T10:30:28Z</time>
      </trkpt>
      <trkpt lat="42.580197" lon="-5.640608">
        <ele>914.844</ele>
        <time>2021-07-18T10:30:38Z</time>
      </trkpt>
      <trkpt lat="42.580423" lon="-5.640285">
        <ele>915.705</ele>
        <time>2021-07-18T10:30:47Z</time>
      </trkpt>
      <trkpt lat="42.580703" lon="-5.639832">
        <ele>915.715</ele>
        <time>2021-07-18T10:30:58Z</time>
      </trkpt>
      <trkpt lat="42.580936" lon="-5.639438">
        <ele>915.708</ele>
        <time>2021-07-18T10:31:08Z</time>
      </trkpt>
      <trkpt lat="42.581067" lon="-5.639222">
        <ele>915.341</ele>
        <time>2021-07-18T10:31:17Z</time>
      </trkpt>
      <trkpt lat="42.581084" lon="-5.639225">
        <ele>914.393</ele>
        <time>2021-07-18T10:31:24Z</time>
      </trkpt>
      <trkpt lat="42.581084" lon="-5.639222">
        <ele>914.370</ele>
        <time>2021-07-18T10:31:37Z</time>
      </trkpt>
      <trkpt lat="42.581133" lon="-5.639156">
        <ele>915.770</ele>
        <time>2021-07-18T10:31:43Z</time>
      </trkpt>
      <trkpt lat="42.581292" lon="-5.638876">
        <ele>917.214</ele>
        <time>2021-07-18T10:31:50Z</time>
      </trkpt>
      <trkpt lat="42.581597" lon="-5.638367">
        <ele>916.262</ele>
        <time>2021-07-18T10:32:01Z</time>
      </trkpt>
      <trkpt lat="42.581928" lon="-5.637818">
        <ele>916.229</ele>
        <time>2021-07-18T10:32:12Z</time>
      </trkpt>
      <trkpt lat="42.582267" lon="-5.637281">
        <ele>915.787</ele>
        <time>2021-07-18T10:32:23Z</time>
      </trkpt>
      <trkpt lat="42.582510" lon="-5.636887">
        <ele>915.746</ele>
        <time>2021-07-18T10:32:32Z</time>
      </trkpt>
      <trkpt lat="42.582637" lon="-5.636683">
        <ele>915.788</ele>
        <time>2021-07-18T10:32:39Z</time>
      </trkpt>
      <trkpt lat="42.582677" lon="-5.636636">
        <ele>915.316</ele>
        <time>2021-07-18T10:32:45Z</time>
      </trkpt>
      <trkpt lat="42.582673" lon="-5.636632">
        <ele>916.208</ele>
        <time>2021-07-18T10:32:59Z</time>
      </trkpt>
      <trkpt lat="42.582715" lon="-5.636558">
        <ele>916.211</ele>
        <time>2021-07-18T10:33:07Z</time>
      </trkpt>
      <trkpt lat="42.582860" lon="-5.636319">
        <ele>915.363</ele>
        <time>2021-07-18T10:33:13Z</time>
      </trkpt>
      <trkpt lat="42.583123" lon="-5.635871">
        <ele>914.810</ele>
        <time>2021-07-18T10:33:22Z</time>
      </trkpt>
      <trkpt lat="42.583409" lon="-5.635358">
        <ele>913.870</ele>
        <time>2021-07-18T10:33:30Z</time>
      </trkpt>
      <trkpt lat="42.583690" lon="-5.634680">
        <ele>912.494</ele>
        <time>2021-07-18T10:33:38Z</time>
      </trkpt>
      <trkpt lat="42.584030" lon="-5.633711">
        <ele>910.022</ele>
        <time>2021-07-18T10:33:48Z</time>
      </trkpt>
      <trkpt lat="42.584431" lon="-5.632520">
        <ele>906.159</ele>
        <time>2021-07-18T10:34:00Z</time>
      </trkpt>
      <trkpt lat="42.584755" lon="-5.631561">
        <ele>903.387</ele>
        <time>2021-07-18T10:34:10Z</time>
      </trkpt>
      <trkpt lat="42.584773" lon="-5.631487">
        <ele>903.374</ele>
        <time>2021-07-18T10:34:11Z</time>
      </trkpt>
      <trkpt lat="42.584796" lon="-5.631421">
        <ele>902.856</ele>
        <time>2021-07-18T10:34:12Z</time>
      </trkpt>
      <trkpt lat="42.584856" lon="-5.631270">
        <ele>902.321</ele>
        <time>2021-07-18T10:34:16Z</time>
      </trkpt>
      <trkpt lat="42.584862" lon="-5.631252">
        <ele>902.308</ele>
        <time>2021-07-18T10:34:21Z</time>
      </trkpt>
      <trkpt lat="42.584856" lon="-5.631249">
        <ele>902.394</ele>
        <time>2021-07-18T10:34:33Z</time>
      </trkpt>
      <trkpt lat="42.584855" lon="-5.631246">
        <ele>901.386</ele>
        <time>2021-07-18T10:34:45Z</time>
      </trkpt>
      <trkpt lat="42.584872" lon="-5.631246">
        <ele>901.393</ele>
        <time>2021-07-18T10:34:49Z</time>
      </trkpt>
      <trkpt lat="42.584876" lon="-5.631309">
        <ele>900.883</ele>
        <time>2021-07-18T10:34:53Z</time>
      </trkpt>
      <trkpt lat="42.584853" lon="-5.631319">
        <ele>900.817</ele>
        <time>2021-07-18T10:34:54Z</time>
      </trkpt>
      <trkpt lat="42.584799" lon="-5.631247">
        <ele>900.445</ele>
        <time>2021-07-18T10:34:57Z</time>
      </trkpt>
      <trkpt lat="42.584803" lon="-5.631182">
        <ele>899.972</ele>
        <time>2021-07-18T10:34:59Z</time>
      </trkpt>
      <trkpt lat="42.584831" lon="-5.631082">
        <ele>899.970</ele>
        <time>2021-07-18T10:35:00Z</time>
      </trkpt>
      <trkpt lat="42.584845" lon="-5.631041">
        <ele>899.916</ele>
        <time>2021-07-18T10:35:01Z</time>
      </trkpt>
      <trkpt lat="42.585073" lon="-5.630419">
        <ele>898.976</ele>
        <time>2021-07-18T10:35:12Z</time>
      </trkpt>
      <trkpt lat="42.585278" lon="-5.629855">
        <ele>898.013</ele>
        <time>2021-07-18T10:35:21Z</time>
      </trkpt>
      <trkpt lat="42.585491" lon="-5.629231">
        <ele>897.508</ele>
        <time>2021-07-18T10:35:29Z</time>
      </trkpt>
      <trkpt lat="42.585762" lon="-5.628432">
        <ele>898.098</ele>
        <time>2021-07-18T10:35:38Z</time>
      </trkpt>
      <trkpt lat="42.586055" lon="-5.627624">
        <ele>896.050</ele>
        <time>2021-07-18T10:35:47Z</time>
      </trkpt>
      <trkpt lat="42.586365" lon="-5.626771">
        <ele>895.617</ele>
        <time>2021-07-18T10:35:56Z</time>
      </trkpt>
      <trkpt lat="42.586657" lon="-5.625971">
        <ele>893.277</ele>
        <time>2021-07-18T10:36:05Z</time>
      </trkpt>
      <trkpt lat="42.586933" lon="-5.625213">
        <ele>890.831</ele>
        <time>2021-07-18T10:36:14Z</time>
      </trkpt>
      <trkpt lat="42.587187" lon="-5.624411">
        <ele>890.829</ele>
        <time>2021-07-18T10:36:24Z</time>
      </trkpt>
      <trkpt lat="42.587212" lon="-5.624258">
        <ele>890.376</ele>
        <time>2021-07-18T10:36:26Z</time>
      </trkpt>
      <trkpt lat="42.587216" lon="-5.624181">
        <ele>890.374</ele>
        <time>2021-07-18T10:36:27Z</time>
      </trkpt>
      <trkpt lat="42.587214" lon="-5.624109">
        <ele>889.869</ele>
        <time>2021-07-18T10:36:28Z</time>
      </trkpt>
      <trkpt lat="42.587208" lon="-5.624035">
        <ele>889.804</ele>
        <time>2021-07-18T10:36:29Z</time>
      </trkpt>
      <trkpt lat="42.587200" lon="-5.623967">
        <ele>889.824</ele>
        <time>2021-07-18T10:36:30Z</time>
      </trkpt>
      <trkpt lat="42.587189" lon="-5.623896">
        <ele>889.308</ele>
        <time>2021-07-18T10:36:31Z</time>
      </trkpt>
      <trkpt lat="42.587172" lon="-5.623829">
        <ele>889.343</ele>
        <time>2021-07-18T10:36:32Z</time>
      </trkpt>
      <trkpt lat="42.587148" lon="-5.623768">
        <ele>889.325</ele>
        <time>2021-07-18T10:36:33Z</time>
      </trkpt>
      <trkpt lat="42.587125" lon="-5.623704">
        <ele>889.362</ele>
        <time>2021-07-18T10:36:34Z</time>
      </trkpt>
      <trkpt lat="42.587104" lon="-5.623644">
        <ele>888.852</ele>
        <time>2021-07-18T10:36:35Z</time>
      </trkpt>
      <trkpt lat="42.587069" lon="-5.623517">
        <ele>888.436</ele>
        <time>2021-07-18T10:36:37Z</time>
      </trkpt>
      <trkpt lat="42.587064" lon="-5.623448">
        <ele>888.454</ele>
        <time>2021-07-18T10:36:38Z</time>
      </trkpt>
      <trkpt lat="42.587069" lon="-5.623384">
        <ele>887.981</ele>
        <time>2021-07-18T10:36:39Z</time>
      </trkpt>
      <trkpt lat="42.587083" lon="-5.623322">
        <ele>887.949</ele>
        <time>2021-07-18T10:36:40Z</time>
      </trkpt>
      <trkpt lat="42.587094" lon="-5.623262">
        <ele>887.948</ele>
        <time>2021-07-18T10:36:41Z</time>
      </trkpt>
      <trkpt lat="42.587100" lon="-5.623199">
        <ele>887.461</ele>
        <time>2021-07-18T10:36:42Z</time>
      </trkpt>
      <trkpt lat="42.587105" lon="-5.623143">
        <ele>887.417</ele>
        <time>2021-07-18T10:36:43Z</time>
      </trkpt>
      <trkpt lat="42.587121" lon="-5.623032">
        <ele>887.408</ele>
        <time>2021-07-18T10:36:45Z</time>
      </trkpt>
      <trkpt lat="42.587152" lon="-5.622966">
        <ele>887.441</ele>
        <time>2021-07-18T10:36:46Z</time>
      </trkpt>
      <trkpt lat="42.587175" lon="-5.622944">
        <ele>887.493</ele>
        <time>2021-07-18T10:36:47Z</time>
      </trkpt>
      <trkpt lat="42.587214" lon="-5.622923">
        <ele>886.980</ele>
        <time>2021-07-18T10:36:48Z</time>
      </trkpt>
      <trkpt lat="42.587264" lon="-5.622914">
        <ele>886.970</ele>
        <time>2021-07-18T10:36:49Z</time>
      </trkpt>
      <trkpt lat="42.587315" lon="-5.622923">
        <ele>886.434</ele>
        <time>2021-07-18T10:36:50Z</time>
      </trkpt>
      <trkpt lat="42.587367" lon="-5.622948">
        <ele>886.412</ele>
        <time>2021-07-18T10:36:51Z</time>
      </trkpt>
      <trkpt lat="42.587411" lon="-5.622978">
        <ele>886.489</ele>
        <time>2021-07-18T10:36:52Z</time>
      </trkpt>
      <trkpt lat="42.587450" lon="-5.623009">
        <ele>886.497</ele>
        <time>2021-07-18T10:36:53Z</time>
      </trkpt>
      <trkpt lat="42.587486" lon="-5.623041">
        <ele>886.479</ele>
        <time>2021-07-18T10:36:54Z</time>
      </trkpt>
      <trkpt lat="42.587519" lon="-5.623079">
        <ele>886.905</ele>
        <time>2021-07-18T10:36:55Z</time>
      </trkpt>
      <trkpt lat="42.587542" lon="-5.623116">
        <ele>886.925</ele>
        <time>2021-07-18T10:36:56Z</time>
      </trkpt>
      <trkpt lat="42.587561" lon="-5.623159">
        <ele>886.908</ele>
        <time>2021-07-18T10:36:57Z</time>
      </trkpt>
      <trkpt lat="42.587579" lon="-5.623196">
        <ele>886.944</ele>
        <time>2021-07-18T10:36:58Z</time>
      </trkpt>
      <trkpt lat="42.587599" lon="-5.623233">
        <ele>887.426</ele>
        <time>2021-07-18T10:36:59Z</time>
      </trkpt>
      <trkpt lat="42.587620" lon="-5.623267">
        <ele>887.423</ele>
        <time>2021-07-18T10:37:00Z</time>
      </trkpt>
      <trkpt lat="42.587643" lon="-5.623299">
        <ele>887.993</ele>
        <time>2021-07-18T10:37:01Z</time>
      </trkpt>
      <trkpt lat="42.587667" lon="-5.623326">
        <ele>887.937</ele>
        <time>2021-07-18T10:37:02Z</time>
      </trkpt>
      <trkpt lat="42.587691" lon="-5.623351">
        <ele>888.475</ele>
        <time>2021-07-18T10:37:03Z</time>
      </trkpt>
      <trkpt lat="42.587717" lon="-5.623370">
        <ele>888.492</ele>
        <time>2021-07-18T10:37:04Z</time>
      </trkpt>
      <trkpt lat="42.587748" lon="-5.623389">
        <ele>888.490</ele>
        <time>2021-07-18T10:37:05Z</time>
      </trkpt>
      <trkpt lat="42.587985" lon="-5.623538">
        <ele>887.949</ele>
        <time>2021-07-18T10:37:13Z</time>
      </trkpt>
      <trkpt lat="42.588091" lon="-5.623545">
        <ele>887.902</ele>
        <time>2021-07-18T10:37:16Z</time>
      </trkpt>
      <trkpt lat="42.588132" lon="-5.623538">
        <ele>887.422</ele>
        <time>2021-07-18T10:37:17Z</time>
      </trkpt>
      <trkpt lat="42.588174" lon="-5.623536">
        <ele>887.408</ele>
        <time>2021-07-18T10:37:18Z</time>
      </trkpt>
      <trkpt lat="42.588216" lon="-5.623542">
        <ele>887.491</ele>
        <time>2021-07-18T10:37:19Z</time>
      </trkpt>
      <trkpt lat="42.588260" lon="-5.623558">
        <ele>886.923</ele>
        <time>2021-07-18T10:37:20Z</time>
      </trkpt>
      <trkpt lat="42.588307" lon="-5.623590">
        <ele>886.910</ele>
        <time>2021-07-18T10:37:21Z</time>
      </trkpt>
      <trkpt lat="42.588348" lon="-5.623636">
        <ele>886.480</ele>
        <time>2021-07-18T10:37:22Z</time>
      </trkpt>
      <trkpt lat="42.588386" lon="-5.623702">
        <ele>885.944</ele>
        <time>2021-07-18T10:37:23Z</time>
      </trkpt>
      <trkpt lat="42.588410" lon="-5.623756">
        <ele>885.582</ele>
        <time>2021-07-18T10:37:24Z</time>
      </trkpt>
      <trkpt lat="42.588466" lon="-5.623865">
        <ele>885.079</ele>
        <time>2021-07-18T10:37:26Z</time>
      </trkpt>
      <trkpt lat="42.588504" lon="-5.623906">
        <ele>884.557</ele>
        <time>2021-07-18T10:37:27Z</time>
      </trkpt>
      <trkpt lat="42.588561" lon="-5.623949">
        <ele>884.063</ele>
        <time>2021-07-18T10:37:28Z</time>
      </trkpt>
      <trkpt lat="42.588600" lon="-5.623972">
        <ele>883.544</ele>
        <time>2021-07-18T10:37:29Z</time>
      </trkpt>
      <trkpt lat="42.588658" lon="-5.624007">
        <ele>883.118</ele>
        <time>2021-07-18T10:37:30Z</time>
      </trkpt>
      <trkpt lat="42.589089" lon="-5.624339">
        <ele>879.208</ele>
        <time>2021-07-18T10:37:38Z</time>
      </trkpt>
      <trkpt lat="42.589269" lon="-5.624339">
        <ele>879.213</ele>
        <time>2021-07-18T10:37:43Z</time>
      </trkpt>
      <trkpt lat="42.589392" lon="-5.624159">
        <ele>878.335</ele>
        <time>2021-07-18T10:37:49Z</time>
      </trkpt>
      <trkpt lat="42.589529" lon="-5.623871">
        <ele>877.892</ele>
        <time>2021-07-18T10:37:55Z</time>
      </trkpt>
      <trkpt lat="42.589673" lon="-5.623557">
        <ele>877.312</ele>
        <time>2021-07-18T10:38:01Z</time>
      </trkpt>
      <trkpt lat="42.589693" lon="-5.623510">
        <ele>877.356</ele>
        <time>2021-07-18T10:38:02Z</time>
      </trkpt>
      <trkpt lat="42.589717" lon="-5.623464">
        <ele>876.814</ele>
        <time>2021-07-18T10:38:03Z</time>
      </trkpt>
      <trkpt lat="42.589906" lon="-5.623060">
        <ele>877.821</ele>
        <time>2021-07-18T10:38:12Z</time>
      </trkpt>
      <trkpt lat="42.590104" lon="-5.622658">
        <ele>877.379</ele>
        <time>2021-07-18T10:38:22Z</time>
      </trkpt>
      <trkpt lat="42.590133" lon="-5.622592">
        <ele>877.363</ele>
        <time>2021-07-18T10:38:27Z</time>
      </trkpt>
      <trkpt lat="42.590125" lon="-5.622591">
        <ele>877.344</ele>
        <time>2021-07-18T10:38:43Z</time>
      </trkpt>
      <trkpt lat="42.590127" lon="-5.622592">
        <ele>877.818</ele>
        <time>2021-07-18T10:38:58Z</time>
      </trkpt>
      <trkpt lat="42.590127" lon="-5.622591">
        <ele>877.808</ele>
        <time>2021-07-18T10:39:18Z</time>
      </trkpt>
      <trkpt lat="42.590128" lon="-5.622601">
        <ele>878.753</ele>
        <time>2021-07-18T10:39:41Z</time>
      </trkpt>
      <trkpt lat="42.590132" lon="-5.622600">
        <ele>878.725</ele>
        <time>2021-07-18T10:39:51Z</time>
      </trkpt>
      <trkpt lat="42.590139" lon="-5.622596">
        <ele>879.242</ele>
        <time>2021-07-18T10:40:12Z</time>
      </trkpt>
      <trkpt lat="42.590140" lon="-5.622599">
        <ele>877.372</ele>
        <time>2021-07-18T10:40:27Z</time>
      </trkpt>
      <trkpt lat="42.590135" lon="-5.622599">
        <ele>876.826</ele>
        <time>2021-07-18T10:40:38Z</time>
      </trkpt>
      <trkpt lat="42.590129" lon="-5.622597">
        <ele>876.364</ele>
        <time>2021-07-18T10:40:52Z</time>
      </trkpt>
      <trkpt lat="42.590129" lon="-5.622597">
        <ele>875.971</ele>
        <time>2021-07-18T10:41:07Z</time>
      </trkpt>
      <trkpt lat="42.590129" lon="-5.622599">
        <ele>875.919</ele>
        <time>2021-07-18T10:41:28Z</time>
      </trkpt>
      <trkpt lat="42.590129" lon="-5.622598">
        <ele>876.384</ele>
        <time>2021-07-18T10:41:46Z</time>
      </trkpt>
      <trkpt lat="42.590132" lon="-5.622592">
        <ele>876.807</ele>
        <time>2021-07-18T10:42:06Z</time>
      </trkpt>
      <trkpt lat="42.590131" lon="-5.622594">
        <ele>877.317</ele>
        <time>2021-07-18T10:42:20Z</time>
      </trkpt>
      <trkpt lat="42.590135" lon="-5.622596">
        <ele>877.308</ele>
        <time>2021-07-18T10:42:39Z</time>
      </trkpt>
      <trkpt lat="42.590135" lon="-5.622594">
        <ele>878.315</ele>
        <time>2021-07-18T10:43:01Z</time>
      </trkpt>
      <trkpt lat="42.590149" lon="-5.622574">
        <ele>878.367</ele>
        <time>2021-07-18T10:43:08Z</time>
      </trkpt>
      <trkpt lat="42.590160" lon="-5.622563">
        <ele>878.314</ele>
        <time>2021-07-18T10:43:09Z</time>
      </trkpt>
      <trkpt lat="42.590171" lon="-5.622549">
        <ele>878.384</ele>
        <time>2021-07-18T10:43:10Z</time>
      </trkpt>
      <trkpt lat="42.590183" lon="-5.622529">
        <ele>878.318</ele>
        <time>2021-07-18T10:43:11Z</time>
      </trkpt>
      <trkpt lat="42.590195" lon="-5.622502">
        <ele>878.336</ele>
        <time>2021-07-18T10:43:12Z</time>
      </trkpt>
      <trkpt lat="42.590353" lon="-5.622227">
        <ele>878.383</ele>
        <time>2021-07-18T10:43:20Z</time>
      </trkpt>
      <trkpt lat="42.590599" lon="-5.621746">
        <ele>877.331</ele>
        <time>2021-07-18T10:43:31Z</time>
      </trkpt>
      <trkpt lat="42.590756" lon="-5.621438">
        <ele>876.333</ele>
        <time>2021-07-18T10:43:38Z</time>
      </trkpt>
      <trkpt lat="42.590956" lon="-5.620976">
        <ele>876.823</ele>
        <time>2021-07-18T10:43:47Z</time>
      </trkpt>
      <trkpt lat="42.591021" lon="-5.620830">
        <ele>876.815</ele>
        <time>2021-07-18T10:43:50Z</time>
      </trkpt>
      <trkpt lat="42.591242" lon="-5.620363">
        <ele>878.708</ele>
        <time>2021-07-18T10:43:59Z</time>
      </trkpt>
      <trkpt lat="42.591479" lon="-5.619823">
        <ele>878.370</ele>
        <time>2021-07-18T10:44:09Z</time>
      </trkpt>
      <trkpt lat="42.591736" lon="-5.619211">
        <ele>876.392</ele>
        <time>2021-07-18T10:44:21Z</time>
      </trkpt>
      <trkpt lat="42.591881" lon="-5.618868">
        <ele>874.919</ele>
        <time>2021-07-18T10:44:29Z</time>
      </trkpt>
      <trkpt lat="42.591906" lon="-5.618769">
        <ele>874.929</ele>
        <time>2021-07-18T10:44:31Z</time>
      </trkpt>
      <trkpt lat="42.592034" lon="-5.618369">
        <ele>873.983</ele>
        <time>2021-07-18T10:44:39Z</time>
      </trkpt>
      <trkpt lat="42.592052" lon="-5.618326">
        <ele>873.931</ele>
        <time>2021-07-18T10:44:40Z</time>
      </trkpt>
      <trkpt lat="42.592072" lon="-5.618279">
        <ele>873.588</ele>
        <time>2021-07-18T10:44:41Z</time>
      </trkpt>
      <trkpt lat="42.592129" lon="-5.618143">
        <ele>873.556</ele>
        <time>2021-07-18T10:44:44Z</time>
      </trkpt>
      <trkpt lat="42.592299" lon="-5.617811">
        <ele>873.029</ele>
        <time>2021-07-18T10:44:52Z</time>
      </trkpt>
      <trkpt lat="42.592440" lon="-5.617537">
        <ele>873.000</ele>
        <time>2021-07-18T10:44:59Z</time>
      </trkpt>
      <trkpt lat="42.592680" lon="-5.617008">
        <ele>873.520</ele>
        <time>2021-07-18T10:45:10Z</time>
      </trkpt>
      <trkpt lat="42.592826" lon="-5.616629">
        <ele>873.508</ele>
        <time>2021-07-18T10:45:18Z</time>
      </trkpt>
      <trkpt lat="42.592848" lon="-5.616580">
        <ele>873.549</ele>
        <time>2021-07-18T10:45:19Z</time>
      </trkpt>
      <trkpt lat="42.593077" lon="-5.616009">
        <ele>873.931</ele>
        <time>2021-07-18T10:45:30Z</time>
      </trkpt>
      <trkpt lat="42.593257" lon="-5.615575">
        <ele>873.528</ele>
        <time>2021-07-18T10:45:38Z</time>
      </trkpt>
      <trkpt lat="42.593480" lon="-5.615038">
        <ele>873.518</ele>
        <time>2021-07-18T10:45:48Z</time>
      </trkpt>
      <trkpt lat="42.593703" lon="-5.614518">
        <ele>873.582</ele>
        <time>2021-07-18T10:45:58Z</time>
      </trkpt>
      <trkpt lat="42.593926" lon="-5.614045">
        <ele>873.950</ele>
        <time>2021-07-18T10:46:08Z</time>
      </trkpt>
      <trkpt lat="42.594022" lon="-5.613849">
        <ele>873.517</ele>
        <time>2021-07-18T10:46:12Z</time>
      </trkpt>
      <trkpt lat="42.594139" lon="-5.613665">
        <ele>873.015</ele>
        <time>2021-07-18T10:46:16Z</time>
      </trkpt>
      <trkpt lat="42.594332" lon="-5.613307">
        <ele>870.196</ele>
        <time>2021-07-18T10:46:22Z</time>
      </trkpt>
      <trkpt lat="42.594359" lon="-5.612861">
        <ele>864.831</ele>
        <time>2021-07-18T10:46:27Z</time>
      </trkpt>
      <trkpt lat="42.594260" lon="-5.612290">
        <ele>859.524</ele>
        <time>2021-07-18T10:46:33Z</time>
      </trkpt>
      <trkpt lat="42.594327" lon="-5.612025">
        <ele>857.608</ele>
        <time>2021-07-18T10:46:40Z</time>
      </trkpt>
      <trkpt lat="42.594413" lon="-5.612036">
        <ele>857.636</ele>
        <time>2021-07-18T10:46:41Z</time>
      </trkpt>
      <trkpt lat="42.594442" lon="-5.612038">
        <ele>857.628</ele>
        <time>2021-07-18T10:46:42Z</time>
      </trkpt>
      <trkpt lat="42.594600" lon="-5.612067">
        <ele>858.185</ele>
        <time>2021-07-18T10:46:45Z</time>
      </trkpt>
      <trkpt lat="42.595089" lon="-5.612118">
        <ele>857.125</ele>
        <time>2021-07-18T10:46:53Z</time>
      </trkpt>
      <trkpt lat="42.595455" lon="-5.612023">
        <ele>856.159</ele>
        <time>2021-07-18T10:46:59Z</time>
      </trkpt>
      <trkpt lat="42.595575" lon="-5.611943">
        <ele>855.737</ele>
        <time>2021-07-18T10:47:01Z</time>
      </trkpt>
      <trkpt lat="42.595633" lon="-5.611892">
        <ele>855.274</ele>
        <time>2021-07-18T10:47:02Z</time>
      </trkpt>
      <trkpt lat="42.595688" lon="-5.611835">
        <ele>854.732</ele>
        <time>2021-07-18T10:47:03Z</time>
      </trkpt>
      <trkpt lat="42.595736" lon="-5.611772">
        <ele>854.284</ele>
        <time>2021-07-18T10:47:04Z</time>
      </trkpt>
      <trkpt lat="42.595778" lon="-5.611701">
        <ele>854.207</ele>
        <time>2021-07-18T10:47:05Z</time>
      </trkpt>
      <trkpt lat="42.595813" lon="-5.611624">
        <ele>853.717</ele>
        <time>2021-07-18T10:47:06Z</time>
      </trkpt>
      <trkpt lat="42.595840" lon="-5.611555">
        <ele>853.308</ele>
        <time>2021-07-18T10:47:07Z</time>
      </trkpt>
      <trkpt lat="42.595889" lon="-5.611397">
        <ele>852.835</ele>
        <time>2021-07-18T10:47:09Z</time>
      </trkpt>
      <trkpt lat="42.595987" lon="-5.610717">
        <ele>850.927</ele>
        <time>2021-07-18T10:47:17Z</time>
      </trkpt>
      <trkpt lat="42.596039" lon="-5.610220">
        <ele>851.344</ele>
        <time>2021-07-18T10:47:24Z</time>
      </trkpt>
      <trkpt lat="42.596099" lon="-5.609724">
        <ele>850.934</ele>
        <time>2021-07-18T10:47:32Z</time>
      </trkpt>
      <trkpt lat="42.596150" lon="-5.609286">
        <ele>849.918</ele>
        <time>2021-07-18T10:47:40Z</time>
      </trkpt>
      <trkpt lat="42.596167" lon="-5.609173">
        <ele>850.496</ele>
        <time>2021-07-18T10:47:46Z</time>
      </trkpt>
      <trkpt lat="42.596180" lon="-5.609161">
        <ele>850.943</ele>
        <time>2021-07-18T10:47:47Z</time>
      </trkpt>
      <trkpt lat="42.596329" lon="-5.609146">
        <ele>850.951</ele>
        <time>2021-07-18T10:47:53Z</time>
      </trkpt>
      <trkpt lat="42.596587" lon="-5.609188">
        <ele>852.831</ele>
        <time>2021-07-18T10:48:01Z</time>
      </trkpt>
      <trkpt lat="42.596734" lon="-5.609244">
        <ele>854.261</ele>
        <time>2021-07-18T10:48:07Z</time>
      </trkpt>
      <trkpt lat="42.596932" lon="-5.609261">
        <ele>857.107</ele>
        <time>2021-07-18T10:48:15Z</time>
      </trkpt>
      <trkpt lat="42.596967" lon="-5.609263">
        <ele>857.108</ele>
        <time>2021-07-18T10:48:16Z</time>
      </trkpt>
      <trkpt lat="42.597053" lon="-5.609187">
        <ele>855.790</ele>
        <time>2021-07-18T10:48:20Z</time>
      </trkpt>
      <trkpt lat="42.597119" lon="-5.608778">
        <ele>850.422</ele>
        <time>2021-07-18T10:48:31Z</time>
      </trkpt>
      <trkpt lat="42.597145" lon="-5.608494">
        <ele>848.049</ele>
        <time>2021-07-18T10:48:39Z</time>
      </trkpt>
      <trkpt lat="42.597142" lon="-5.608363">
        <ele>845.679</ele>
        <time>2021-07-18T10:48:45Z</time>
      </trkpt>
      <trkpt lat="42.597159" lon="-5.608145">
        <ele>846.573</ele>
        <time>2021-07-18T10:48:52Z</time>
      </trkpt>
      <trkpt lat="42.597212" lon="-5.607765">
        <ele>846.121</ele>
        <time>2021-07-18T10:49:01Z</time>
      </trkpt>
      <trkpt lat="42.597252" lon="-5.607606">
        <ele>845.618</ele>
        <time>2021-07-18T10:49:06Z</time>
      </trkpt>
      <trkpt lat="42.597156" lon="-5.607537">
        <ele>845.136</ele>
        <time>2021-07-18T10:49:11Z</time>
      </trkpt>
      <trkpt lat="42.597007" lon="-5.607525">
        <ele>845.626</ele>
        <time>2021-07-18T10:49:16Z</time>
      </trkpt>
      <trkpt lat="42.596977" lon="-5.607390">
        <ele>845.147</ele>
        <time>2021-07-18T10:49:21Z</time>
      </trkpt>
      <trkpt lat="42.596993" lon="-5.607148">
        <ele>845.111</ele>
        <time>2021-07-18T10:49:28Z</time>
      </trkpt>
      <trkpt lat="42.596996" lon="-5.606926">
        <ele>846.108</ele>
        <time>2021-07-18T10:49:35Z</time>
      </trkpt>
      <trkpt lat="42.597026" lon="-5.606575">
        <ele>847.059</ele>
        <time>2021-07-18T10:49:43Z</time>
      </trkpt>
      <trkpt lat="42.597037" lon="-5.606492">
        <ele>848.061</ele>
        <time>2021-07-18T10:49:46Z</time>
      </trkpt>
      <trkpt lat="42.596927" lon="-5.606414">
        <ele>847.548</ele>
        <time>2021-07-18T10:49:51Z</time>
      </trkpt>
      <trkpt lat="42.596809" lon="-5.606361">
        <ele>846.558</ele>
        <time>2021-07-18T10:49:55Z</time>
      </trkpt>
      <trkpt lat="42.596797" lon="-5.606273">
        <ele>846.122</ele>
        <time>2021-07-18T10:49:59Z</time>
      </trkpt>
      <trkpt lat="42.596845" lon="-5.606087">
        <ele>845.650</ele>
        <time>2021-07-18T10:50:08Z</time>
      </trkpt>
      <trkpt lat="42.596841" lon="-5.606075">
        <ele>844.647</ele>
        <time>2021-07-18T10:50:13Z</time>
      </trkpt>
      <trkpt lat="42.596875" lon="-5.606006">
        <ele>843.655</ele>
        <time>2021-07-18T10:50:20Z</time>
      </trkpt>
      <trkpt lat="42.596916" lon="-5.605769">
        <ele>843.251</ele>
        <time>2021-07-18T10:50:27Z</time>
      </trkpt>
      <trkpt lat="42.596965" lon="-5.605611">
        <ele>842.201</ele>
        <time>2021-07-18T10:50:34Z</time>
      </trkpt>
      <trkpt lat="42.597006" lon="-5.605455">
        <ele>840.311</ele>
        <time>2021-07-18T10:50:40Z</time>
      </trkpt>
      <trkpt lat="42.597043" lon="-5.605343">
        <ele>836.908</ele>
        <time>2021-07-18T10:50:44Z</time>
      </trkpt>
      <trkpt lat="42.596983" lon="-5.605183">
        <ele>836.082</ele>
        <time>2021-07-18T10:50:52Z</time>
      </trkpt>
      <trkpt lat="42.596809" lon="-5.605060">
        <ele>838.494</ele>
        <time>2021-07-18T10:50:59Z</time>
      </trkpt>
      <trkpt lat="42.596785" lon="-5.605040">
        <ele>839.841</ele>
        <time>2021-07-18T10:51:01Z</time>
      </trkpt>
      <trkpt lat="42.596771" lon="-5.604947">
        <ele>840.881</ele>
        <time>2021-07-18T10:51:05Z</time>
      </trkpt>
      <trkpt lat="42.596793" lon="-5.604868">
        <ele>841.235</ele>
        <time>2021-07-18T10:51:07Z</time>
      </trkpt>
      <trkpt lat="42.596802" lon="-5.604841">
        <ele>841.213</ele>
        <time>2021-07-18T10:51:08Z</time>
      </trkpt>
      <trkpt lat="42.596816" lon="-5.604800">
        <ele>841.260</ele>
        <time>2021-07-18T10:51:09Z</time>
      </trkpt>
      <trkpt lat="42.596830" lon="-5.604758">
        <ele>840.888</ele>
        <time>2021-07-18T10:51:10Z</time>
      </trkpt>
      <trkpt lat="42.596844" lon="-5.604715">
        <ele>840.818</ele>
        <time>2021-07-18T10:51:11Z</time>
      </trkpt>
      <trkpt lat="42.596988" lon="-5.604302">
        <ele>839.898</ele>
        <time>2021-07-18T10:51:19Z</time>
      </trkpt>
      <trkpt lat="42.597135" lon="-5.603889">
        <ele>838.817</ele>
        <time>2021-07-18T10:51:28Z</time>
      </trkpt>
      <trkpt lat="42.597366" lon="-5.603238">
        <ele>838.408</ele>
        <time>2021-07-18T10:51:42Z</time>
      </trkpt>
      <trkpt lat="42.597444" lon="-5.602990">
        <ele>839.818</ele>
        <time>2021-07-18T10:51:49Z</time>
      </trkpt>
      <trkpt lat="42.597573" lon="-5.602660">
        <ele>840.370</ele>
        <time>2021-07-18T10:51:57Z</time>
      </trkpt>
      <trkpt lat="42.597694" lon="-5.602299">
        <ele>840.337</ele>
        <time>2021-07-18T10:52:05Z</time>
      </trkpt>
      <trkpt lat="42.597798" lon="-5.601922">
        <ele>841.767</ele>
        <time>2021-07-18T10:52:13Z</time>
      </trkpt>
      <trkpt lat="42.597896" lon="-5.601520">
        <ele>845.161</ele>
        <time>2021-07-18T10:52:21Z</time>
      </trkpt>
      <trkpt lat="42.598034" lon="-5.601200">
        <ele>844.659</ele>
        <time>2021-07-18T10:52:28Z</time>
      </trkpt>
      <trkpt lat="42.598199" lon="-5.601008">
        <ele>843.216</ele>
        <time>2021-07-18T10:52:35Z</time>
      </trkpt>
      <trkpt lat="42.598350" lon="-5.600867">
        <ele>841.714</ele>
        <time>2021-07-18T10:52:43Z</time>
      </trkpt>
      <trkpt lat="42.598506" lon="-5.600721">
        <ele>841.236</ele>
        <time>2021-07-18T10:52:50Z</time>
      </trkpt>
      <trkpt lat="42.598668" lon="-5.600486">
        <ele>841.717</ele>
        <time>2021-07-18T10:52:59Z</time>
      </trkpt>
      <trkpt lat="42.598820" lon="-5.600178">
        <ele>841.718</ele>
        <time>2021-07-18T10:53:09Z</time>
      </trkpt>
      <trkpt lat="42.598903" lon="-5.599912">
        <ele>841.208</ele>
        <time>2021-07-18T10:53:15Z</time>
      </trkpt>
      <trkpt lat="42.598930" lon="-5.599419">
        <ele>839.340</ele>
        <time>2021-07-18T10:53:22Z</time>
      </trkpt>
      <trkpt lat="42.598858" lon="-5.599033">
        <ele>837.982</ele>
        <time>2021-07-18T10:53:28Z</time>
      </trkpt>
      <trkpt lat="42.598758" lon="-5.598827">
        <ele>836.989</ele>
        <time>2021-07-18T10:53:35Z</time>
      </trkpt>
      <trkpt lat="42.598728" lon="-5.598798">
        <ele>836.419</ele>
        <time>2021-07-18T10:53:37Z</time>
      </trkpt>
      <trkpt lat="42.598711" lon="-5.598802">
        <ele>836.083</ele>
        <time>2021-07-18T10:53:38Z</time>
      </trkpt>
      <trkpt lat="42.598696" lon="-5.598818">
        <ele>835.551</ele>
        <time>2021-07-18T10:53:39Z</time>
      </trkpt>
      <trkpt lat="42.598677" lon="-5.598834">
        <ele>835.058</ele>
        <time>2021-07-18T10:53:40Z</time>
      </trkpt>
      <trkpt lat="42.598657" lon="-5.598834">
        <ele>835.096</ele>
        <time>2021-07-18T10:53:41Z</time>
      </trkpt>
      <trkpt lat="42.598637" lon="-5.598816">
        <ele>835.081</ele>
        <time>2021-07-18T10:53:42Z</time>
      </trkpt>
      <trkpt lat="42.598618" lon="-5.598792">
        <ele>834.561</ele>
        <time>2021-07-18T10:53:43Z</time>
      </trkpt>
      <trkpt lat="42.598575" lon="-5.598760">
        <ele>834.017</ele>
        <time>2021-07-18T10:53:45Z</time>
      </trkpt>
      <trkpt lat="42.598553" lon="-5.598759">
        <ele>833.608</ele>
        <time>2021-07-18T10:53:46Z</time>
      </trkpt>
      <trkpt lat="42.598528" lon="-5.598753">
        <ele>833.635</ele>
        <time>2021-07-18T10:53:47Z</time>
      </trkpt>
      <trkpt lat="42.598472" lon="-5.598722">
        <ele>833.677</ele>
        <time>2021-07-18T10:53:50Z</time>
      </trkpt>
      <trkpt lat="42.598455" lon="-5.598698">
        <ele>834.064</ele>
        <time>2021-07-18T10:53:51Z</time>
      </trkpt>
      <trkpt lat="42.598360" lon="-5.598519">
        <ele>834.024</ele>
        <time>2021-07-18T10:53:56Z</time>
      </trkpt>
      <trkpt lat="42.598264" lon="-5.598364">
        <ele>834.028</ele>
        <time>2021-07-18T10:54:01Z</time>
      </trkpt>
      <trkpt lat="42.598248" lon="-5.598351">
        <ele>834.046</ele>
        <time>2021-07-18T10:54:02Z</time>
      </trkpt>
      <trkpt lat="42.598237" lon="-5.598331">
        <ele>833.693</ele>
        <time>2021-07-18T10:54:03Z</time>
      </trkpt>
      <trkpt lat="42.598232" lon="-5.598304">
        <ele>833.681</ele>
        <time>2021-07-18T10:54:04Z</time>
      </trkpt>
      <trkpt lat="42.598228" lon="-5.598271">
        <ele>833.654</ele>
        <time>2021-07-18T10:54:05Z</time>
      </trkpt>
      <trkpt lat="42.598228" lon="-5.598236">
        <ele>833.656</ele>
        <time>2021-07-18T10:54:06Z</time>
      </trkpt>
      <trkpt lat="42.598229" lon="-5.598204">
        <ele>833.611</ele>
        <time>2021-07-18T10:54:07Z</time>
      </trkpt>
      <trkpt lat="42.598229" lon="-5.598174">
        <ele>833.608</ele>
        <time>2021-07-18T10:54:08Z</time>
      </trkpt>
      <trkpt lat="42.598228" lon="-5.598142">
        <ele>833.152</ele>
        <time>2021-07-18T10:54:09Z</time>
      </trkpt>
      <trkpt lat="42.598257" lon="-5.597921">
        <ele>834.084</ele>
        <time>2021-07-18T10:54:15Z</time>
      </trkpt>
      <trkpt lat="42.598289" lon="-5.597541">
        <ele>834.551</ele>
        <time>2021-07-18T10:54:24Z</time>
      </trkpt>
      <trkpt lat="42.598355" lon="-5.597076">
        <ele>834.011</ele>
        <time>2021-07-18T10:54:33Z</time>
      </trkpt>
      <trkpt lat="42.598406" lon="-5.596477">
        <ele>834.555</ele>
        <time>2021-07-18T10:54:43Z</time>
      </trkpt>
      <trkpt lat="42.598441" lon="-5.595943">
        <ele>836.073</ele>
        <time>2021-07-18T10:54:51Z</time>
      </trkpt>
      <trkpt lat="42.598468" lon="-5.595132">
        <ele>837.990</ele>
        <time>2021-07-18T10:55:03Z</time>
      </trkpt>
      <trkpt lat="42.598479" lon="-5.594596">
        <ele>837.968</ele>
        <time>2021-07-18T10:55:11Z</time>
      </trkpt>
      <trkpt lat="42.598485" lon="-5.594344">
        <ele>837.919</ele>
        <time>2021-07-18T10:55:15Z</time>
      </trkpt>
      <trkpt lat="42.598490" lon="-5.594286">
        <ele>837.909</ele>
        <time>2021-07-18T10:55:16Z</time>
      </trkpt>
      <trkpt lat="42.598503" lon="-5.594020">
        <ele>837.919</ele>
        <time>2021-07-18T10:55:22Z</time>
      </trkpt>
      <trkpt lat="42.598506" lon="-5.593988">
        <ele>839.808</ele>
        <time>2021-07-18T10:55:27Z</time>
      </trkpt>
      <trkpt lat="42.598497" lon="-5.593986">
        <ele>845.198</ele>
        <time>2021-07-18T10:55:40Z</time>
      </trkpt>
      <trkpt lat="42.598489" lon="-5.593993">
        <ele>846.540</ele>
        <time>2021-07-18T10:55:54Z</time>
      </trkpt>
      <trkpt lat="42.598476" lon="-5.593974">
        <ele>848.997</ele>
        <time>2021-07-18T10:56:06Z</time>
      </trkpt>
      <trkpt lat="42.598475" lon="-5.593950">
        <ele>848.547</ele>
        <time>2021-07-18T10:56:07Z</time>
      </trkpt>
      <trkpt lat="42.598474" lon="-5.593912">
        <ele>848.011</ele>
        <time>2021-07-18T10:56:08Z</time>
      </trkpt>
      <trkpt lat="42.598476" lon="-5.593872">
        <ele>847.599</ele>
        <time>2021-07-18T10:56:09Z</time>
      </trkpt>
      <trkpt lat="42.598479" lon="-5.593826">
        <ele>847.566</ele>
        <time>2021-07-18T10:56:10Z</time>
      </trkpt>
      <trkpt lat="42.598523" lon="-5.593407">
        <ele>846.564</ele>
        <time>2021-07-18T10:56:18Z</time>
      </trkpt>
      <trkpt lat="42.598549" lon="-5.592758">
        <ele>847.036</ele>
        <time>2021-07-18T10:56:29Z</time>
      </trkpt>
      <trkpt lat="42.598553" lon="-5.592699">
        <ele>847.517</ele>
        <time>2021-07-18T10:56:30Z</time>
      </trkpt>
      <trkpt lat="42.598629" lon="-5.592100">
        <ele>847.518</ele>
        <time>2021-07-18T10:56:39Z</time>
      </trkpt>
      <trkpt lat="42.598683" lon="-5.591432">
        <ele>847.508</ele>
        <time>2021-07-18T10:56:49Z</time>
      </trkpt>
      <trkpt lat="42.598711" lon="-5.591096">
        <ele>847.030</ele>
        <time>2021-07-18T10:56:56Z</time>
      </trkpt>
      <trkpt lat="42.598702" lon="-5.591021">
        <ele>845.672</ele>
        <time>2021-07-18T10:57:02Z</time>
      </trkpt>
      <trkpt lat="42.598706" lon="-5.590904">
        <ele>845.119</ele>
        <time>2021-07-18T10:57:07Z</time>
      </trkpt>
      <trkpt lat="42.598727" lon="-5.590493">
        <ele>843.649</ele>
        <time>2021-07-18T10:57:15Z</time>
      </trkpt>
      <trkpt lat="42.598754" lon="-5.589804">
        <ele>840.823</ele>
        <time>2021-07-18T10:57:26Z</time>
      </trkpt>
      <trkpt lat="42.598907" lon="-5.589257">
        <ele>837.491</ele>
        <time>2021-07-18T10:57:36Z</time>
      </trkpt>
      <trkpt lat="42.599010" lon="-5.589000">
        <ele>836.038</ele>
        <time>2021-07-18T10:57:43Z</time>
      </trkpt>
      <trkpt lat="42.599066" lon="-5.588868">
        <ele>835.576</ele>
        <time>2021-07-18T10:57:49Z</time>
      </trkpt>
      <trkpt lat="42.599197" lon="-5.588489">
        <ele>835.039</ele>
        <time>2021-07-18T10:57:57Z</time>
      </trkpt>
      <trkpt lat="42.599393" lon="-5.587921">
        <ele>833.601</ele>
        <time>2021-07-18T10:58:07Z</time>
      </trkpt>
      <trkpt lat="42.599625" lon="-5.587268">
        <ele>833.121</ele>
        <time>2021-07-18T10:58:18Z</time>
      </trkpt>
      <trkpt lat="42.599849" lon="-5.586678">
        <ele>833.108</ele>
        <time>2021-07-18T10:58:28Z</time>
      </trkpt>
      <trkpt lat="42.600007" lon="-5.586230">
        <ele>835.050</ele>
        <time>2021-07-18T10:58:37Z</time>
      </trkpt>
      <trkpt lat="42.600047" lon="-5.586105">
        <ele>835.042</ele>
        <time>2021-07-18T10:58:43Z</time>
      </trkpt>
      <trkpt lat="42.600053" lon="-5.586128">
        <ele>836.019</ele>
        <time>2021-07-18T10:59:02Z</time>
      </trkpt>
      <trkpt lat="42.600093" lon="-5.586086">
        <ele>836.079</ele>
        <time>2021-07-18T10:59:17Z</time>
      </trkpt>
      <trkpt lat="42.600161" lon="-5.585906">
        <ele>836.933</ele>
        <time>2021-07-18T10:59:22Z</time>
      </trkpt>
      <trkpt lat="42.600238" lon="-5.585638">
        <ele>837.981</ele>
        <time>2021-07-18T10:59:28Z</time>
      </trkpt>
      <trkpt lat="42.600343" lon="-5.585492">
        <ele>837.448</ele>
        <time>2021-07-18T10:59:34Z</time>
      </trkpt>
      <trkpt lat="42.600457" lon="-5.585116">
        <ele>835.066</ele>
        <time>2021-07-18T10:59:44Z</time>
      </trkpt>
      <trkpt lat="42.600582" lon="-5.584754">
        <ele>833.637</ele>
        <time>2021-07-18T10:59:54Z</time>
      </trkpt>
      <trkpt lat="42.600681" lon="-5.584449">
        <ele>831.249</ele>
        <time>2021-07-18T11:00:02Z</time>
      </trkpt>
      <trkpt lat="42.600809" lon="-5.584129">
        <ele>830.213</ele>
        <time>2021-07-18T11:00:12Z</time>
      </trkpt>
      <trkpt lat="42.600826" lon="-5.584044">
        <ele>830.708</ele>
        <time>2021-07-18T11:00:17Z</time>
      </trkpt>
      <trkpt lat="42.600809" lon="-5.583965">
        <ele>831.650</ele>
        <time>2021-07-18T11:00:22Z</time>
      </trkpt>
      <trkpt lat="42.600810" lon="-5.583914">
        <ele>832.622</ele>
        <time>2021-07-18T11:00:27Z</time>
      </trkpt>
      <trkpt lat="42.600843" lon="-5.583948">
        <ele>833.129</ele>
        <time>2021-07-18T11:00:35Z</time>
      </trkpt>
      <trkpt lat="42.600895" lon="-5.583883">
        <ele>833.619</ele>
        <time>2021-07-18T11:00:39Z</time>
      </trkpt>
      <trkpt lat="42.600988" lon="-5.583619">
        <ele>834.013</ele>
        <time>2021-07-18T11:00:49Z</time>
      </trkpt>
      <trkpt lat="42.601109" lon="-5.583344">
        <ele>834.051</ele>
        <time>2021-07-18T11:00:59Z</time>
      </trkpt>
      <trkpt lat="42.601229" lon="-5.583070">
        <ele>834.078</ele>
        <time>2021-07-18T11:01:08Z</time>
      </trkpt>
      <trkpt lat="42.601275" lon="-5.582885">
        <ele>834.086</ele>
        <time>2021-07-18T11:01:15Z</time>
      </trkpt>
      <trkpt lat="42.601370" lon="-5.582702">
        <ele>833.626</ele>
        <time>2021-07-18T11:01:23Z</time>
      </trkpt>
      <trkpt lat="42.601409" lon="-5.582559">
        <ele>833.147</ele>
        <time>2021-07-18T11:01:30Z</time>
      </trkpt>
      <trkpt lat="42.601429" lon="-5.582503">
        <ele>832.611</ele>
        <time>2021-07-18T11:01:34Z</time>
      </trkpt>
      <trkpt lat="42.601406" lon="-5.582426">
        <ele>832.108</ele>
        <time>2021-07-18T11:01:38Z</time>
      </trkpt>
      <trkpt lat="42.601226" lon="-5.582311">
        <ele>832.619</ele>
        <time>2021-07-18T11:01:48Z</time>
      </trkpt>
      <trkpt lat="42.601054" lon="-5.582175">
        <ele>833.191</ele>
        <time>2021-07-18T11:01:56Z</time>
      </trkpt>
      <trkpt lat="42.601052" lon="-5.582069">
        <ele>833.698</ele>
        <time>2021-07-18T11:02:01Z</time>
      </trkpt>
      <trkpt lat="42.601124" lon="-5.581887">
        <ele>834.088</ele>
        <time>2021-07-18T11:02:12Z</time>
      </trkpt>
      <trkpt lat="42.601123" lon="-5.581853">
        <ele>834.522</ele>
        <time>2021-07-18T11:02:15Z</time>
      </trkpt>
      <trkpt lat="42.601091" lon="-5.581883">
        <ele>835.550</ele>
        <time>2021-07-18T11:02:22Z</time>
      </trkpt>
      <trkpt lat="42.601090" lon="-5.581894">
        <ele>836.037</ele>
        <time>2021-07-18T11:02:26Z</time>
      </trkpt>
      <trkpt lat="42.601032" lon="-5.581958">
        <ele>837.955</ele>
        <time>2021-07-18T11:02:31Z</time>
      </trkpt>
      <trkpt lat="42.600900" lon="-5.582026">
        <ele>837.467</ele>
        <time>2021-07-18T11:02:38Z</time>
      </trkpt>
      <trkpt lat="42.600799" lon="-5.581963">
        <ele>836.481</ele>
        <time>2021-07-18T11:02:43Z</time>
      </trkpt>
      <trkpt lat="42.600758" lon="-5.581884">
        <ele>833.619</ele>
        <time>2021-07-18T11:02:50Z</time>
      </trkpt>
      <trkpt lat="42.600763" lon="-5.581869">
        <ele>833.608</ele>
        <time>2021-07-18T11:02:57Z</time>
      </trkpt>
      <trkpt lat="42.600756" lon="-5.581857">
        <ele>834.593</ele>
        <time>2021-07-18T11:03:07Z</time>
      </trkpt>
      <trkpt lat="42.600774" lon="-5.581855">
        <ele>842.245</ele>
        <time>2021-07-18T11:03:32Z</time>
      </trkpt>
      <trkpt lat="42.600752" lon="-5.581794">
        <ele>844.662</ele>
        <time>2021-07-18T11:03:57Z</time>
      </trkpt>
      <trkpt lat="42.600768" lon="-5.581789">
        <ele>844.162</ele>
        <time>2021-07-18T11:04:23Z</time>
      </trkpt>
      <trkpt lat="42.600816" lon="-5.581835">
        <ele>847.566</ele>
        <time>2021-07-18T11:04:45Z</time>
      </trkpt>
      <trkpt lat="42.600825" lon="-5.581799">
        <ele>849.414</ele>
        <time>2021-07-18T11:05:08Z</time>
      </trkpt>
      <trkpt lat="42.600850" lon="-5.581819">
        <ele>849.491</ele>
        <time>2021-07-18T11:05:32Z</time>
      </trkpt>
      <trkpt lat="42.600874" lon="-5.581869">
        <ele>848.999</ele>
        <time>2021-07-18T11:05:55Z</time>
      </trkpt>
      <trkpt lat="42.600833" lon="-5.581841">
        <ele>847.539</ele>
        <time>2021-07-18T11:06:19Z</time>
      </trkpt>
      <trkpt lat="42.600839" lon="-5.581830">
        <ele>848.001</ele>
        <time>2021-07-18T11:06:43Z</time>
      </trkpt>
      <trkpt lat="42.600805" lon="-5.581838">
        <ele>848.021</ele>
        <time>2021-07-18T11:06:59Z</time>
      </trkpt>
      <trkpt lat="42.600783" lon="-5.581860">
        <ele>847.508</ele>
        <time>2021-07-18T11:07:18Z</time>
      </trkpt>
      <trkpt lat="42.600777" lon="-5.581828">
        <ele>847.090</ele>
        <time>2021-07-18T11:07:29Z</time>
      </trkpt>
      <trkpt lat="42.600781" lon="-5.581784">
        <ele>845.652</ele>
        <time>2021-07-18T11:07:38Z</time>
      </trkpt>
      <trkpt lat="42.600750" lon="-5.581703">
        <ele>845.169</ele>
        <time>2021-07-18T11:07:47Z</time>
      </trkpt>
      <trkpt lat="42.600685" lon="-5.581651">
        <ele>844.189</ele>
        <time>2021-07-18T11:07:56Z</time>
      </trkpt>
      <trkpt lat="42.600663" lon="-5.581607">
        <ele>842.793</ele>
        <time>2021-07-18T11:08:05Z</time>
      </trkpt>
      <trkpt lat="42.600605" lon="-5.581552">
        <ele>841.741</ele>
        <time>2021-07-18T11:08:15Z</time>
      </trkpt>
      <trkpt lat="42.600457" lon="-5.581398">
        <ele>842.758</ele>
        <time>2021-07-18T11:08:21Z</time>
      </trkpt>
      <trkpt lat="42.600425" lon="-5.581364">
        <ele>842.766</ele>
        <time>2021-07-18T11:08:22Z</time>
      </trkpt>
      <trkpt lat="42.600045" lon="-5.581030">
        <ele>845.655</ele>
        <time>2021-07-18T11:08:32Z</time>
      </trkpt>
      <trkpt lat="42.599600" lon="-5.580656">
        <ele>846.107</ele>
        <time>2021-07-18T11:08:43Z</time>
      </trkpt>
      <trkpt lat="42.599252" lon="-5.580334">
        <ele>848.917</ele>
        <time>2021-07-18T11:08:52Z</time>
      </trkpt>
      <trkpt lat="42.599151" lon="-5.580262">
        <ele>849.908</ele>
        <time>2021-07-18T11:08:55Z</time>
      </trkpt>
      <trkpt lat="42.599067" lon="-5.580317">
        <ele>851.392</ele>
        <time>2021-07-18T11:08:59Z</time>
      </trkpt>
      <trkpt lat="42.598961" lon="-5.580361">
        <ele>852.324</ele>
        <time>2021-07-18T11:09:06Z</time>
      </trkpt>
      <trkpt lat="42.598946" lon="-5.580382">
        <ele>851.371</ele>
        <time>2021-07-18T11:09:18Z</time>
      </trkpt>
      <trkpt lat="42.598931" lon="-5.580396">
        <ele>848.941</ele>
        <time>2021-07-18T11:09:34Z</time>
      </trkpt>
      <trkpt lat="42.598959" lon="-5.580376">
        <ele>847.525</ele>
        <time>2021-07-18T11:09:42Z</time>
      </trkpt>
      <trkpt lat="42.598968" lon="-5.580374">
        <ele>847.543</ele>
        <time>2021-07-18T11:09:43Z</time>
      </trkpt>
      <trkpt lat="42.598983" lon="-5.580399">
        <ele>846.570</ele>
        <time>2021-07-18T11:09:46Z</time>
      </trkpt>
      <trkpt lat="42.598863" lon="-5.580392">
        <ele>845.628</ele>
        <time>2021-07-18T11:09:52Z</time>
      </trkpt>
      <trkpt lat="42.598710" lon="-5.580293">
        <ele>841.787</ele>
        <time>2021-07-18T11:10:01Z</time>
      </trkpt>
      <trkpt lat="42.598588" lon="-5.580194">
        <ele>839.342</ele>
        <time>2021-07-18T11:10:08Z</time>
      </trkpt>
      <trkpt lat="42.598498" lon="-5.580111">
        <ele>837.926</ele>
        <time>2021-07-18T11:10:15Z</time>
      </trkpt>
      <trkpt lat="42.598381" lon="-5.580020">
        <ele>837.908</ele>
        <time>2021-07-18T11:10:23Z</time>
      </trkpt>
      <trkpt lat="42.598274" lon="-5.579914">
        <ele>837.415</ele>
        <time>2021-07-18T11:10:29Z</time>
      </trkpt>
      <trkpt lat="42.598234" lon="-5.579851">
        <ele>836.447</ele>
        <time>2021-07-18T11:10:32Z</time>
      </trkpt>
      <trkpt lat="42.598218" lon="-5.579665">
        <ele>834.024</ele>
        <time>2021-07-18T11:10:40Z</time>
      </trkpt>
      <trkpt lat="42.598203" lon="-5.579647">
        <ele>833.694</ele>
        <time>2021-07-18T11:10:41Z</time>
      </trkpt>
      <trkpt lat="42.598115" lon="-5.579546">
        <ele>832.198</ele>
        <time>2021-07-18T11:10:47Z</time>
      </trkpt>
      <trkpt lat="42.598138" lon="-5.579411">
        <ele>828.726</ele>
        <time>2021-07-18T11:10:56Z</time>
      </trkpt>
      <trkpt lat="42.598142" lon="-5.579396">
        <ele>827.823</ele>
        <time>2021-07-18T11:10:57Z</time>
      </trkpt>
      <trkpt lat="42.598004" lon="-5.579228">
        <ele>827.381</ele>
        <time>2021-07-18T11:11:03Z</time>
      </trkpt>
      <trkpt lat="42.597689" lon="-5.578919">
        <ele>829.218</ele>
        <time>2021-07-18T11:11:13Z</time>
      </trkpt>
      <trkpt lat="42.597303" lon="-5.578545">
        <ele>836.098</ele>
        <time>2021-07-18T11:11:24Z</time>
      </trkpt>
      <trkpt lat="42.596921" lon="-5.578216">
        <ele>839.817</ele>
        <time>2021-07-18T11:11:34Z</time>
      </trkpt>
      <trkpt lat="42.596882" lon="-5.578182">
        <ele>840.308</ele>
        <time>2021-07-18T11:11:35Z</time>
      </trkpt>
      <trkpt lat="42.596627" lon="-5.578155">
        <ele>840.888</ele>
        <time>2021-07-18T11:11:40Z</time>
      </trkpt>
      <trkpt lat="42.596427" lon="-5.578226">
        <ele>840.880</ele>
        <time>2021-07-18T11:11:44Z</time>
      </trkpt>
      <trkpt lat="42.596258" lon="-5.578239">
        <ele>838.477</ele>
        <time>2021-07-18T11:11:50Z</time>
      </trkpt>
      <trkpt lat="42.596259" lon="-5.578254">
        <ele>835.047</ele>
        <time>2021-07-18T11:11:58Z</time>
      </trkpt>
      <trkpt lat="42.596251" lon="-5.578260">
        <ele>834.031</ele>
        <time>2021-07-18T11:12:12Z</time>
      </trkpt>
      <trkpt lat="42.596240" lon="-5.578244">
        <ele>833.149</ele>
        <time>2021-07-18T11:12:29Z</time>
      </trkpt>
      <trkpt lat="42.596236" lon="-5.578247">
        <ele>833.616</ele>
        <time>2021-07-18T11:12:45Z</time>
      </trkpt>
      <trkpt lat="42.596184" lon="-5.578176">
        <ele>833.674</ele>
        <time>2021-07-18T11:12:50Z</time>
      </trkpt>
      <trkpt lat="42.596154" lon="-5.577918">
        <ele>834.061</ele>
        <time>2021-07-18T11:12:56Z</time>
      </trkpt>
      <trkpt lat="42.596184" lon="-5.577822">
        <ele>833.621</ele>
        <time>2021-07-18T11:13:01Z</time>
      </trkpt>
      <trkpt lat="42.596190" lon="-5.577848">
        <ele>832.113</ele>
        <time>2021-07-18T11:13:14Z</time>
      </trkpt>
      <trkpt lat="42.596194" lon="-5.577836">
        <ele>832.108</ele>
        <time>2021-07-18T11:13:15Z</time>
      </trkpt>
      <trkpt lat="42.596270" lon="-5.577593">
        <ele>831.663</ele>
        <time>2021-07-18T11:13:22Z</time>
      </trkpt>
      <trkpt lat="42.596437" lon="-5.577393">
        <ele>831.625</ele>
        <time>2021-07-18T11:13:28Z</time>
      </trkpt>
      <trkpt lat="42.596572" lon="-5.577117">
        <ele>831.632</ele>
        <time>2021-07-18T11:13:35Z</time>
      </trkpt>
      <trkpt lat="42.596690" lon="-5.576751">
        <ele>831.632</ele>
        <time>2021-07-18T11:13:43Z</time>
      </trkpt>
      <trkpt lat="42.596806" lon="-5.576369">
        <ele>831.666</ele>
        <time>2021-07-18T11:13:52Z</time>
      </trkpt>
      <trkpt lat="42.596925" lon="-5.575950">
        <ele>831.674</ele>
        <time>2021-07-18T11:14:01Z</time>
      </trkpt>
      <trkpt lat="42.597046" lon="-5.575547">
        <ele>832.141</ele>
        <time>2021-07-18T11:14:09Z</time>
      </trkpt>
      <trkpt lat="42.597145" lon="-5.575107">
        <ele>831.259</ele>
        <time>2021-07-18T11:14:18Z</time>
      </trkpt>
      <trkpt lat="42.597251" lon="-5.574671">
        <ele>831.233</ele>
        <time>2021-07-18T11:14:27Z</time>
      </trkpt>
      <trkpt lat="42.597327" lon="-5.574319">
        <ele>831.223</ele>
        <time>2021-07-18T11:14:34Z</time>
      </trkpt>
      <trkpt lat="42.597441" lon="-5.573927">
        <ele>830.715</ele>
        <time>2021-07-18T11:14:43Z</time>
      </trkpt>
      <trkpt lat="42.597547" lon="-5.573485">
        <ele>829.208</ele>
        <time>2021-07-18T11:14:53Z</time>
      </trkpt>
      <trkpt lat="42.597639" lon="-5.573078">
        <ele>828.710</ele>
        <time>2021-07-18T11:15:02Z</time>
      </trkpt>
      <trkpt lat="42.597755" lon="-5.572640">
        <ele>827.372</ele>
        <time>2021-07-18T11:15:12Z</time>
      </trkpt>
      <trkpt lat="42.597835" lon="-5.572358">
        <ele>827.359</ele>
        <time>2021-07-18T11:15:20Z</time>
      </trkpt>
      <trkpt lat="42.597834" lon="-5.572243">
        <ele>828.319</ele>
        <time>2021-07-18T11:15:25Z</time>
      </trkpt>
      <trkpt lat="42.597868" lon="-5.572092">
        <ele>830.293</ele>
        <time>2021-07-18T11:15:30Z</time>
      </trkpt>
      <trkpt lat="42.597962" lon="-5.571734">
        <ele>833.131</ele>
        <time>2021-07-18T11:15:38Z</time>
      </trkpt>
      <trkpt lat="42.597996" lon="-5.571462">
        <ele>833.188</ele>
        <time>2021-07-18T11:15:45Z</time>
      </trkpt>
      <trkpt lat="42.598032" lon="-5.571147">
        <ele>832.636</ele>
        <time>2021-07-18T11:15:54Z</time>
      </trkpt>
      <trkpt lat="42.598082" lon="-5.570817">
        <ele>832.198</ele>
        <time>2021-07-18T11:16:04Z</time>
      </trkpt>
      <trkpt lat="42.598115" lon="-5.570544">
        <ele>832.615</ele>
        <time>2021-07-18T11:16:13Z</time>
      </trkpt>
      <trkpt lat="42.598115" lon="-5.570473">
        <ele>832.626</ele>
        <time>2021-07-18T11:16:16Z</time>
      </trkpt>
      <trkpt lat="42.598125" lon="-5.570430">
        <ele>832.608</ele>
        <time>2021-07-18T11:16:23Z</time>
      </trkpt>
      <trkpt lat="42.598123" lon="-5.570450">
        <ele>834.026</ele>
        <time>2021-07-18T11:16:31Z</time>
      </trkpt>
      <trkpt lat="42.598116" lon="-5.570461">
        <ele>835.598</ele>
        <time>2021-07-18T11:16:39Z</time>
      </trkpt>
      <trkpt lat="42.598129" lon="-5.570406">
        <ele>836.085</ele>
        <time>2021-07-18T11:16:46Z</time>
      </trkpt>
      <trkpt lat="42.598140" lon="-5.570303">
        <ele>836.975</ele>
        <time>2021-07-18T11:16:53Z</time>
      </trkpt>
      <trkpt lat="42.598154" lon="-5.570202">
        <ele>837.979</ele>
        <time>2021-07-18T11:16:59Z</time>
      </trkpt>
      <trkpt lat="42.598199" lon="-5.569986">
        <ele>838.467</ele>
        <time>2021-07-18T11:17:10Z</time>
      </trkpt>
      <trkpt lat="42.598234" lon="-5.569857">
        <ele>839.364</ele>
        <time>2021-07-18T11:17:17Z</time>
      </trkpt>
      <trkpt lat="42.598282" lon="-5.569702">
        <ele>842.272</ele>
        <time>2021-07-18T11:17:27Z</time>
      </trkpt>
      <trkpt lat="42.598296" lon="-5.569650">
        <ele>844.145</ele>
        <time>2021-07-18T11:17:36Z</time>
      </trkpt>
      <trkpt lat="42.598294" lon="-5.569636">
        <ele>844.147</ele>
        <time>2021-07-18T11:17:37Z</time>
      </trkpt>
      <trkpt lat="42.598317" lon="-5.569501">
        <ele>844.111</ele>
        <time>2021-07-18T11:17:46Z</time>
      </trkpt>
      <trkpt lat="42.598318" lon="-5.569469">
        <ele>844.108</ele>
        <time>2021-07-18T11:17:48Z</time>
      </trkpt>
      <trkpt lat="42.598346" lon="-5.569345">
        <ele>844.131</ele>
        <time>2021-07-18T11:17:57Z</time>
      </trkpt>
      <trkpt lat="42.598380" lon="-5.569178">
        <ele>845.143</ele>
        <time>2021-07-18T11:18:07Z</time>
      </trkpt>
      <trkpt lat="42.598428" lon="-5.569026">
        <ele>846.580</ele>
        <time>2021-07-18T11:18:16Z</time>
      </trkpt>
      <trkpt lat="42.598450" lon="-5.568850">
        <ele>846.160</ele>
        <time>2021-07-18T11:18:26Z</time>
      </trkpt>
      <trkpt lat="42.598483" lon="-5.568663">
        <ele>844.144</ele>
        <time>2021-07-18T11:18:36Z</time>
      </trkpt>
      <trkpt lat="42.598545" lon="-5.568412">
        <ele>843.252</ele>
        <time>2021-07-18T11:18:50Z</time>
      </trkpt>
      <trkpt lat="42.598586" lon="-5.568204">
        <ele>840.819</ele>
        <time>2021-07-18T11:19:01Z</time>
      </trkpt>
      <trkpt lat="42.598641" lon="-5.568062">
        <ele>839.887</ele>
        <time>2021-07-18T11:19:13Z</time>
      </trkpt>
      <trkpt lat="42.598662" lon="-5.568078">
        <ele>840.391</ele>
        <time>2021-07-18T11:19:25Z</time>
      </trkpt>
      <trkpt lat="42.598688" lon="-5.568011">
        <ele>839.381</ele>
        <time>2021-07-18T11:19:33Z</time>
      </trkpt>
      <trkpt lat="42.598726" lon="-5.567840">
        <ele>838.419</ele>
        <time>2021-07-18T11:19:44Z</time>
      </trkpt>
      <trkpt lat="42.598790" lon="-5.567622">
        <ele>836.408</ele>
        <time>2021-07-18T11:19:57Z</time>
      </trkpt>
      <trkpt lat="42.598803" lon="-5.567506">
        <ele>837.966</ele>
        <time>2021-07-18T11:20:06Z</time>
      </trkpt>
      <trkpt lat="42.598804" lon="-5.567449">
        <ele>837.968</ele>
        <time>2021-07-18T11:20:13Z</time>
      </trkpt>
      <trkpt lat="42.598806" lon="-5.567436">
        <ele>837.965</ele>
        <time>2021-07-18T11:20:14Z</time>
      </trkpt>
      <trkpt lat="42.598809" lon="-5.567368">
        <ele>838.415</ele>
        <time>2021-07-18T11:20:23Z</time>
      </trkpt>
      <trkpt lat="42.598859" lon="-5.567282">
        <ele>839.329</ele>
        <time>2021-07-18T11:20:30Z</time>
      </trkpt>
      <trkpt lat="42.598860" lon="-5.567143">
        <ele>839.397</ele>
        <time>2021-07-18T11:20:40Z</time>
      </trkpt>
      <trkpt lat="42.598849" lon="-5.567115">
        <ele>838.854</ele>
        <time>2021-07-18T11:20:42Z</time>
      </trkpt>
      <trkpt lat="42.598744" lon="-5.567084">
        <ele>837.442</ele>
        <time>2021-07-18T11:20:51Z</time>
      </trkpt>
      <trkpt lat="42.598609" lon="-5.567079">
        <ele>836.021</ele>
        <time>2021-07-18T11:21:01Z</time>
      </trkpt>
      <trkpt lat="42.598479" lon="-5.567056">
        <ele>834.541</ele>
        <time>2021-07-18T11:21:12Z</time>
      </trkpt>
      <trkpt lat="42.598373" lon="-5.567048">
        <ele>835.005</ele>
        <time>2021-07-18T11:21:22Z</time>
      </trkpt>
      <trkpt lat="42.598269" lon="-5.567019">
        <ele>836.908</ele>
        <time>2021-07-18T11:21:32Z</time>
      </trkpt>
      <trkpt lat="42.598147" lon="-5.566993">
        <ele>839.389</ele>
        <time>2021-07-18T11:21:43Z</time>
      </trkpt>
      <trkpt lat="42.598044" lon="-5.566975">
        <ele>840.831</ele>
        <time>2021-07-18T11:21:52Z</time>
      </trkpt>
      <trkpt lat="42.598005" lon="-5.566964">
        <ele>841.228</ele>
        <time>2021-07-18T11:21:57Z</time>
      </trkpt>
      <trkpt lat="42.598032" lon="-5.566947">
        <ele>840.328</ele>
        <time>2021-07-18T11:22:05Z</time>
      </trkpt>
      <trkpt lat="42.598040" lon="-5.566959">
        <ele>839.342</ele>
        <time>2021-07-18T11:22:14Z</time>
      </trkpt>
      <trkpt lat="42.598049" lon="-5.566951">
        <ele>839.850</ele>
        <time>2021-07-18T11:22:23Z</time>
      </trkpt>
      <trkpt lat="42.598074" lon="-5.566945">
        <ele>840.377</ele>
        <time>2021-07-18T11:22:39Z</time>
      </trkpt>
      <trkpt lat="42.598085" lon="-5.566945">
        <ele>841.285</ele>
        <time>2021-07-18T11:22:55Z</time>
      </trkpt>
      <trkpt lat="42.598070" lon="-5.566931">
        <ele>843.278</ele>
        <time>2021-07-18T11:23:10Z</time>
      </trkpt>
      <trkpt lat="42.598052" lon="-5.566908">
        <ele>845.133</ele>
        <time>2021-07-18T11:23:23Z</time>
      </trkpt>
      <trkpt lat="42.598046" lon="-5.566908">
        <ele>845.126</ele>
        <time>2021-07-18T11:23:31Z</time>
      </trkpt>
      <trkpt lat="42.598036" lon="-5.566917">
        <ele>846.108</ele>
        <time>2021-07-18T11:23:45Z</time>
      </trkpt>
      <trkpt lat="42.598036" lon="-5.566929">
        <ele>846.554</ele>
        <time>2021-07-18T11:23:56Z</time>
      </trkpt>
      <trkpt lat="42.598033" lon="-5.566932">
        <ele>847.046</ele>
        <time>2021-07-18T11:24:07Z</time>
      </trkpt>
      <trkpt lat="42.598034" lon="-5.566925">
        <ele>848.043</ele>
        <time>2021-07-18T11:24:25Z</time>
      </trkpt>
      <trkpt lat="42.598026" lon="-5.566951">
        <ele>848.573</ele>
        <time>2021-07-18T11:24:46Z</time>
      </trkpt>
      <trkpt lat="42.598028" lon="-5.566963">
        <ele>849.487</ele>
        <time>2021-07-18T11:25:11Z</time>
      </trkpt>
      <trkpt lat="42.598015" lon="-5.566950">
        <ele>850.465</ele>
        <time>2021-07-18T11:25:34Z</time>
      </trkpt>
      <trkpt lat="42.597985" lon="-5.566997">
        <ele>852.362</ele>
        <time>2021-07-18T11:25:58Z</time>
      </trkpt>
      <trkpt lat="42.597984" lon="-5.566973">
        <ele>855.290</ele>
        <time>2021-07-18T11:26:23Z</time>
      </trkpt>
      <trkpt lat="42.597990" lon="-5.566975">
        <ele>855.294</ele>
        <time>2021-07-18T11:26:45Z</time>
      </trkpt>
      <trkpt lat="42.598004" lon="-5.566992">
        <ele>855.757</ele>
        <time>2021-07-18T11:27:07Z</time>
      </trkpt>
      <trkpt lat="42.598004" lon="-5.566993">
        <ele>855.722</ele>
        <time>2021-07-18T11:27:20Z</time>
      </trkpt>
      <trkpt lat="42.597988" lon="-5.566995">
        <ele>857.108</ele>
        <time>2021-07-18T11:27:41Z</time>
      </trkpt>
      <trkpt lat="42.597973" lon="-5.567003">
        <ele>858.126</ele>
        <time>2021-07-18T11:28:02Z</time>
      </trkpt>
      <trkpt lat="42.597952" lon="-5.567000">
        <ele>861.998</ele>
        <time>2021-07-18T11:28:27Z</time>
      </trkpt>
      <trkpt lat="42.597934" lon="-5.567014">
        <ele>864.335</ele>
        <time>2021-07-18T11:28:50Z</time>
      </trkpt>
      <trkpt lat="42.597928" lon="-5.567010">
        <ele>864.835</ele>
        <time>2021-07-18T11:29:17Z</time>
      </trkpt>
      <trkpt lat="42.597701" lon="-5.567187">
        <ele>871.099</ele>
        <time>2021-07-21T05:34:14Z</time>
      </trkpt>
      <trkpt lat="42.597772" lon="-5.567089">
        <ele>871.597</ele>
        <time>2021-07-21T05:34:26Z</time>
      </trkpt>
      <trkpt lat="42.597898" lon="-5.567064">
        <ele>874.984</ele>
        <time>2021-07-21T05:34:45Z</time>
      </trkpt>
      <trkpt lat="42.597902" lon="-5.567075">
        <ele>883.132</ele>
        <time>2021-07-21T05:35:04Z</time>
      </trkpt>
      <trkpt lat="42.597903" lon="-5.567062">
        <ele>883.593</ele>
        <time>2021-07-21T05:35:16Z</time>
      </trkpt>
      <trkpt lat="42.597885" lon="-5.567061">
        <ele>882.165</ele>
        <time>2021-07-21T05:35:33Z</time>
      </trkpt>
      <trkpt lat="42.597883" lon="-5.567018">
        <ele>875.921</ele>
        <time>2021-07-21T05:35:51Z</time>
      </trkpt>
      <trkpt lat="42.597886" lon="-5.566992">
        <ele>874.408</ele>
        <time>2021-07-21T05:36:06Z</time>
      </trkpt>
      <trkpt lat="42.597898" lon="-5.567003">
        <ele>871.526</ele>
        <time>2021-07-21T05:36:21Z</time>
      </trkpt>
      <trkpt lat="42.597901" lon="-5.567010">
        <ele>870.688</ele>
        <time>2021-07-21T05:36:39Z</time>
      </trkpt>
      <trkpt lat="42.597904" lon="-5.567060">
        <ele>870.615</ele>
        <time>2021-07-21T05:36:52Z</time>
      </trkpt>
      <trkpt lat="42.597895" lon="-5.567056">
        <ele>870.665</ele>
        <time>2021-07-21T05:37:04Z</time>
      </trkpt>
      <trkpt lat="42.597943" lon="-5.566986">
        <ele>863.829</ele>
        <time>2021-07-21T05:37:22Z</time>
      </trkpt>
      <trkpt lat="42.597940" lon="-5.566994">
        <ele>862.447</ele>
        <time>2021-07-21T05:37:43Z</time>
      </trkpt>
      <trkpt lat="42.597946" lon="-5.567003">
        <ele>862.464</ele>
        <time>2021-07-21T05:38:07Z</time>
      </trkpt>
      <trkpt lat="42.597982" lon="-5.566984">
        <ele>856.172</ele>
        <time>2021-07-21T05:38:28Z</time>
      </trkpt>
      <trkpt lat="42.597977" lon="-5.566964">
        <ele>855.223</ele>
        <time>2021-07-21T05:38:50Z</time>
      </trkpt>
      <trkpt lat="42.597970" lon="-5.566956">
        <ele>855.283</ele>
        <time>2021-07-21T05:39:12Z</time>
      </trkpt>
      <trkpt lat="42.597978" lon="-5.566951">
        <ele>853.711</ele>
        <time>2021-07-21T05:39:28Z</time>
      </trkpt>
      <trkpt lat="42.597984" lon="-5.566983">
        <ele>855.708</ele>
        <time>2021-07-21T05:39:50Z</time>
      </trkpt>
      <trkpt lat="42.597997" lon="-5.566983">
        <ele>856.679</ele>
        <time>2021-07-21T05:40:00Z</time>
      </trkpt>
      <trkpt lat="42.598073" lon="-5.567023">
        <ele>857.671</ele>
        <time>2021-07-21T05:40:08Z</time>
      </trkpt>
      <trkpt lat="42.598159" lon="-5.567019">
        <ele>858.158</ele>
        <time>2021-07-21T05:40:16Z</time>
      </trkpt>
      <trkpt lat="42.598260" lon="-5.567009">
        <ele>858.598</ele>
        <time>2021-07-21T05:40:25Z</time>
      </trkpt>
      <trkpt lat="42.598411" lon="-5.567007">
        <ele>858.522</ele>
        <time>2021-07-21T05:40:33Z</time>
      </trkpt>
      <trkpt lat="42.598582" lon="-5.567021">
        <ele>858.190</ele>
        <time>2021-07-21T05:40:41Z</time>
      </trkpt>
      <trkpt lat="42.598688" lon="-5.567106">
        <ele>856.637</ele>
        <time>2021-07-21T05:40:47Z</time>
      </trkpt>
      <trkpt lat="42.598747" lon="-5.567260">
        <ele>856.195</ele>
        <time>2021-07-21T05:40:53Z</time>
      </trkpt>
      <trkpt lat="42.598828" lon="-5.567426">
        <ele>857.179</ele>
        <time>2021-07-21T05:41:02Z</time>
      </trkpt>
      <trkpt lat="42.598841" lon="-5.567444">
        <ele>856.105</ele>
        <time>2021-07-21T05:41:08Z</time>
      </trkpt>
      <trkpt lat="42.598845" lon="-5.567443">
        <ele>858.125</ele>
        <time>2021-07-21T05:41:21Z</time>
      </trkpt>
      <trkpt lat="42.598824" lon="-5.567424">
        <ele>858.108</ele>
        <time>2021-07-21T05:41:37Z</time>
      </trkpt>
      <trkpt lat="42.598828" lon="-5.567435">
        <ele>859.054</ele>
        <time>2021-07-21T05:41:48Z</time>
      </trkpt>
      <trkpt lat="42.598809" lon="-5.567441">
        <ele>857.646</ele>
        <time>2021-07-21T05:41:56Z</time>
      </trkpt>
      <trkpt lat="42.598820" lon="-5.567448">
        <ele>857.123</ele>
        <time>2021-07-21T05:42:10Z</time>
      </trkpt>
      <trkpt lat="42.598810" lon="-5.567430">
        <ele>857.623</ele>
        <time>2021-07-21T05:42:27Z</time>
      </trkpt>
      <trkpt lat="42.598820" lon="-5.567442">
        <ele>859.057</ele>
        <time>2021-07-21T05:42:36Z</time>
      </trkpt>
      <trkpt lat="42.598835" lon="-5.567459">
        <ele>859.585</ele>
        <time>2021-07-21T05:42:44Z</time>
      </trkpt>
      <trkpt lat="42.598823" lon="-5.567448">
        <ele>859.512</ele>
        <time>2021-07-21T05:42:47Z</time>
      </trkpt>
      <trkpt lat="42.598760" lon="-5.567477">
        <ele>860.510</ele>
        <time>2021-07-21T05:42:53Z</time>
      </trkpt>
      <trkpt lat="42.598733" lon="-5.567543">
        <ele>861.066</ele>
        <time>2021-07-21T05:42:56Z</time>
      </trkpt>
      <trkpt lat="42.598654" lon="-5.567882">
        <ele>864.329</ele>
        <time>2021-07-21T05:43:07Z</time>
      </trkpt>
      <trkpt lat="42.598581" lon="-5.568246">
        <ele>863.821</ele>
        <time>2021-07-21T05:43:17Z</time>
      </trkpt>
      <trkpt lat="42.598522" lon="-5.568544">
        <ele>862.908</ele>
        <time>2021-07-21T05:43:25Z</time>
      </trkpt>
      <trkpt lat="42.598444" lon="-5.568820">
        <ele>861.953</ele>
        <time>2021-07-21T05:43:32Z</time>
      </trkpt>
      <trkpt lat="42.598408" lon="-5.569058">
        <ele>860.045</ele>
        <time>2021-07-21T05:43:38Z</time>
      </trkpt>
      <trkpt lat="42.598350" lon="-5.569346">
        <ele>858.592</ele>
        <time>2021-07-21T05:43:44Z</time>
      </trkpt>
      <trkpt lat="42.598267" lon="-5.569657">
        <ele>856.672</ele>
        <time>2021-07-21T05:43:52Z</time>
      </trkpt>
      <trkpt lat="42.598247" lon="-5.569686">
        <ele>856.166</ele>
        <time>2021-07-21T05:43:53Z</time>
      </trkpt>
      <trkpt lat="42.598217" lon="-5.569826">
        <ele>855.754</ele>
        <time>2021-07-21T05:43:57Z</time>
      </trkpt>
      <trkpt lat="42.598126" lon="-5.570126">
        <ele>855.281</ele>
        <time>2021-07-21T05:44:05Z</time>
      </trkpt>
      <trkpt lat="42.598106" lon="-5.570351">
        <ele>852.399</ele>
        <time>2021-07-21T05:44:13Z</time>
      </trkpt>
      <trkpt lat="42.598137" lon="-5.570488">
        <ele>852.394</ele>
        <time>2021-07-21T05:44:21Z</time>
      </trkpt>
      <trkpt lat="42.598134" lon="-5.570524">
        <ele>852.857</ele>
        <time>2021-07-21T05:44:28Z</time>
      </trkpt>
      <trkpt lat="42.598121" lon="-5.570559">
        <ele>853.322</ele>
        <time>2021-07-21T05:44:36Z</time>
      </trkpt>
      <trkpt lat="42.598091" lon="-5.570556">
        <ele>852.308</ele>
        <time>2021-07-21T05:44:41Z</time>
      </trkpt>
      <trkpt lat="42.598010" lon="-5.570381">
        <ele>851.316</ele>
        <time>2021-07-21T05:44:49Z</time>
      </trkpt>
      <trkpt lat="42.598000" lon="-5.570335">
        <ele>851.888</ele>
        <time>2021-07-21T05:44:51Z</time>
      </trkpt>
      <trkpt lat="42.597887" lon="-5.570286">
        <ele>852.855</ele>
        <time>2021-07-21T05:44:59Z</time>
      </trkpt>
      <trkpt lat="42.597733" lon="-5.570223">
        <ele>853.355</ele>
        <time>2021-07-21T05:45:06Z</time>
      </trkpt>
      <trkpt lat="42.597709" lon="-5.570209">
        <ele>852.849</ele>
        <time>2021-07-21T05:45:07Z</time>
      </trkpt>
      <trkpt lat="42.597638" lon="-5.570183">
        <ele>851.897</ele>
        <time>2021-07-21T05:45:11Z</time>
      </trkpt>
      <trkpt lat="42.597503" lon="-5.570129">
        <ele>850.424</ele>
        <time>2021-07-21T05:45:20Z</time>
      </trkpt>
      <trkpt lat="42.597362" lon="-5.570077">
        <ele>848.552</ele>
        <time>2021-07-21T05:45:28Z</time>
      </trkpt>
      <trkpt lat="42.597189" lon="-5.570009">
        <ele>845.185</ele>
        <time>2021-07-21T05:45:36Z</time>
      </trkpt>
      <trkpt lat="42.597001" lon="-5.569922">
        <ele>839.889</ele>
        <time>2021-07-21T05:45:45Z</time>
      </trkpt>
      <trkpt lat="42.596837" lon="-5.569879">
        <ele>836.417</ele>
        <time>2021-07-21T05:45:53Z</time>
      </trkpt>
      <trkpt lat="42.596583" lon="-5.569843">
        <ele>835.008</ele>
        <time>2021-07-21T05:46:02Z</time>
      </trkpt>
      <trkpt lat="42.596339" lon="-5.569812">
        <ele>838.855</ele>
        <time>2021-07-21T05:46:10Z</time>
      </trkpt>
      <trkpt lat="42.595923" lon="-5.569752">
        <ele>846.197</ele>
        <time>2021-07-21T05:46:23Z</time>
      </trkpt>
      <trkpt lat="42.595657" lon="-5.569727">
        <ele>848.964</ele>
        <time>2021-07-21T05:46:33Z</time>
      </trkpt>
      <trkpt lat="42.595518" lon="-5.569712">
        <ele>848.914</ele>
        <time>2021-07-21T05:46:40Z</time>
      </trkpt>
      <trkpt lat="42.595296" lon="-5.569600">
        <ele>848.938</ele>
        <time>2021-07-21T05:46:48Z</time>
      </trkpt>
      <trkpt lat="42.595188" lon="-5.569478">
        <ele>848.556</ele>
        <time>2021-07-21T05:46:54Z</time>
      </trkpt>
      <trkpt lat="42.595009" lon="-5.569314">
        <ele>848.573</ele>
        <time>2021-07-21T05:47:02Z</time>
      </trkpt>
      <trkpt lat="42.594938" lon="-5.569196">
        <ele>846.121</ele>
        <time>2021-07-21T05:47:07Z</time>
      </trkpt>
      <trkpt lat="42.594873" lon="-5.569099">
        <ele>846.195</ele>
        <time>2021-07-21T05:47:11Z</time>
      </trkpt>
      <trkpt lat="42.594742" lon="-5.569005">
        <ele>845.149</ele>
        <time>2021-07-21T05:47:16Z</time>
      </trkpt>
      <trkpt lat="42.594692" lon="-5.568943">
        <ele>845.623</ele>
        <time>2021-07-21T05:47:18Z</time>
      </trkpt>
      <trkpt lat="42.594552" lon="-5.568718">
        <ele>843.208</ele>
        <time>2021-07-21T05:47:25Z</time>
      </trkpt>
      <trkpt lat="42.594418" lon="-5.568582">
        <ele>841.756</ele>
        <time>2021-07-21T05:47:30Z</time>
      </trkpt>
      <trkpt lat="42.594347" lon="-5.568514">
        <ele>841.738</ele>
        <time>2021-07-21T05:47:32Z</time>
      </trkpt>
      <trkpt lat="42.594057" lon="-5.568233">
        <ele>840.345</ele>
        <time>2021-07-21T05:47:40Z</time>
      </trkpt>
      <trkpt lat="42.593961" lon="-5.568096">
        <ele>840.365</ele>
        <time>2021-07-21T05:47:45Z</time>
      </trkpt>
      <trkpt lat="42.593868" lon="-5.567991">
        <ele>841.289</ele>
        <time>2021-07-21T05:47:51Z</time>
      </trkpt>
      <trkpt lat="42.593737" lon="-5.567830">
        <ele>841.247</ele>
        <time>2021-07-21T05:47:58Z</time>
      </trkpt>
      <trkpt lat="42.593624" lon="-5.567694">
        <ele>840.824</ele>
        <time>2021-07-21T05:48:03Z</time>
      </trkpt>
      <trkpt lat="42.593484" lon="-5.567486">
        <ele>839.892</ele>
        <time>2021-07-21T05:48:09Z</time>
      </trkpt>
      <trkpt lat="42.593321" lon="-5.567267">
        <ele>838.874</ele>
        <time>2021-07-21T05:48:15Z</time>
      </trkpt>
      <trkpt lat="42.593136" lon="-5.567000">
        <ele>837.956</ele>
        <time>2021-07-21T05:48:22Z</time>
      </trkpt>
      <trkpt lat="42.593032" lon="-5.566879">
        <ele>838.421</ele>
        <time>2021-07-21T05:48:28Z</time>
      </trkpt>
      <trkpt lat="42.592984" lon="-5.566852">
        <ele>839.308</ele>
        <time>2021-07-21T05:48:35Z</time>
      </trkpt>
      <trkpt lat="42.592938" lon="-5.566786">
        <ele>840.364</ele>
        <time>2021-07-21T05:48:39Z</time>
      </trkpt>
      <trkpt lat="42.592711" lon="-5.566523">
        <ele>841.766</ele>
        <time>2021-07-21T05:48:48Z</time>
      </trkpt>
      <trkpt lat="42.592534" lon="-5.566299">
        <ele>841.733</ele>
        <time>2021-07-21T05:48:56Z</time>
      </trkpt>
      <trkpt lat="42.592517" lon="-5.566290">
        <ele>842.263</ele>
        <time>2021-07-21T05:49:02Z</time>
      </trkpt>
      <trkpt lat="42.592423" lon="-5.566252">
        <ele>844.677</ele>
        <time>2021-07-21T05:49:08Z</time>
      </trkpt>
      <trkpt lat="42.592354" lon="-5.566228">
        <ele>844.155</ele>
        <time>2021-07-21T05:49:13Z</time>
      </trkpt>
      <trkpt lat="42.592277" lon="-5.566206">
        <ele>841.252</ele>
        <time>2021-07-21T05:49:17Z</time>
      </trkpt>
      <trkpt lat="42.592221" lon="-5.566064">
        <ele>838.470</ele>
        <time>2021-07-21T05:49:25Z</time>
      </trkpt>
      <trkpt lat="42.592220" lon="-5.566018">
        <ele>837.491</ele>
        <time>2021-07-21T05:49:32Z</time>
      </trkpt>
      <trkpt lat="42.592205" lon="-5.565968">
        <ele>836.481</ele>
        <time>2021-07-21T05:49:40Z</time>
      </trkpt>
      <trkpt lat="42.592120" lon="-5.565737">
        <ele>836.419</ele>
        <time>2021-07-21T05:49:46Z</time>
      </trkpt>
      <trkpt lat="42.592085" lon="-5.565656">
        <ele>836.408</ele>
        <time>2021-07-21T05:49:48Z</time>
      </trkpt>
      <trkpt lat="42.591891" lon="-5.565576">
        <ele>836.956</ele>
        <time>2021-07-21T05:49:53Z</time>
      </trkpt>
      <trkpt lat="42.591800" lon="-5.565586">
        <ele>836.098</ele>
        <time>2021-07-21T05:49:55Z</time>
      </trkpt>
      <trkpt lat="42.591612" lon="-5.565601">
        <ele>834.035</ele>
        <time>2021-07-21T05:49:59Z</time>
      </trkpt>
      <trkpt lat="42.591510" lon="-5.565603">
        <ele>832.695</ele>
        <time>2021-07-21T05:50:01Z</time>
      </trkpt>
      <trkpt lat="42.591093" lon="-5.565584">
        <ele>831.249</ele>
        <time>2021-07-21T05:50:09Z</time>
      </trkpt>
      <trkpt lat="42.590985" lon="-5.565585">
        <ele>832.197</ele>
        <time>2021-07-21T05:50:11Z</time>
      </trkpt>
      <trkpt lat="42.590418" lon="-5.565537">
        <ele>835.084</ele>
        <time>2021-07-21T05:50:21Z</time>
      </trkpt>
      <trkpt lat="42.590201" lon="-5.565521">
        <ele>834.562</ele>
        <time>2021-07-21T05:50:25Z</time>
      </trkpt>
      <trkpt lat="42.589763" lon="-5.565511">
        <ele>835.054</ele>
        <time>2021-07-21T05:50:33Z</time>
      </trkpt>
      <trkpt lat="42.589180" lon="-5.565499">
        <ele>834.556</ele>
        <time>2021-07-21T05:50:43Z</time>
      </trkpt>
      <trkpt lat="42.588706" lon="-5.565476">
        <ele>833.111</ele>
        <time>2021-07-21T05:50:51Z</time>
      </trkpt>
      <trkpt lat="42.588280" lon="-5.565469">
        <ele>831.608</ele>
        <time>2021-07-21T05:50:58Z</time>
      </trkpt>
      <trkpt lat="42.588156" lon="-5.565447">
        <ele>831.642</ele>
        <time>2021-07-21T05:51:00Z</time>
      </trkpt>
      <trkpt lat="42.587656" lon="-5.565425">
        <ele>831.294</ele>
        <time>2021-07-21T05:51:08Z</time>
      </trkpt>
      <trkpt lat="42.587300" lon="-5.565422">
        <ele>831.661</ele>
        <time>2021-07-21T05:51:15Z</time>
      </trkpt>
      <trkpt lat="42.587224" lon="-5.565426">
        <ele>832.691</ele>
        <time>2021-07-21T05:51:20Z</time>
      </trkpt>
      <trkpt lat="42.587174" lon="-5.565419">
        <ele>837.415</ele>
        <time>2021-07-21T05:51:34Z</time>
      </trkpt>
      <trkpt lat="42.587183" lon="-5.565406">
        <ele>837.493</ele>
        <time>2021-07-21T05:51:50Z</time>
      </trkpt>
      <trkpt lat="42.587168" lon="-5.565409">
        <ele>837.460</ele>
        <time>2021-07-21T05:51:53Z</time>
      </trkpt>
      <trkpt lat="42.587022" lon="-5.565448">
        <ele>835.028</ele>
        <time>2021-07-21T05:51:59Z</time>
      </trkpt>
      <trkpt lat="42.586877" lon="-5.565395">
        <ele>834.569</ele>
        <time>2021-07-21T05:52:03Z</time>
      </trkpt>
      <trkpt lat="42.586845" lon="-5.565339">
        <ele>834.504</ele>
        <time>2021-07-21T05:52:04Z</time>
      </trkpt>
      <trkpt lat="42.586835" lon="-5.565294">
        <ele>834.024</ele>
        <time>2021-07-21T05:52:05Z</time>
      </trkpt>
      <trkpt lat="42.586832" lon="-5.565235">
        <ele>833.608</ele>
        <time>2021-07-21T05:52:06Z</time>
      </trkpt>
      <trkpt lat="42.586842" lon="-5.565173">
        <ele>833.673</ele>
        <time>2021-07-21T05:52:07Z</time>
      </trkpt>
      <trkpt lat="42.586856" lon="-5.565112">
        <ele>834.055</ele>
        <time>2021-07-21T05:52:08Z</time>
      </trkpt>
      <trkpt lat="42.586873" lon="-5.565056">
        <ele>833.622</ele>
        <time>2021-07-21T05:52:09Z</time>
      </trkpt>
      <trkpt lat="42.586922" lon="-5.564921">
        <ele>833.612</ele>
        <time>2021-07-21T05:52:11Z</time>
      </trkpt>
      <trkpt lat="42.586937" lon="-5.564858">
        <ele>833.646</ele>
        <time>2021-07-21T05:52:12Z</time>
      </trkpt>
      <trkpt lat="42.586951" lon="-5.564775">
        <ele>833.654</ele>
        <time>2021-07-21T05:52:13Z</time>
      </trkpt>
      <trkpt lat="42.586957" lon="-5.564734">
        <ele>833.181</ele>
        <time>2021-07-21T05:52:14Z</time>
      </trkpt>
      <trkpt lat="42.586966" lon="-5.564660">
        <ele>832.699</ele>
        <time>2021-07-21T05:52:15Z</time>
      </trkpt>
      <trkpt lat="42.587043" lon="-5.564128">
        <ele>831.254</ele>
        <time>2021-07-21T05:52:23Z</time>
      </trkpt>
      <trkpt lat="42.587084" lon="-5.563848">
        <ele>830.756</ele>
        <time>2021-07-21T05:52:27Z</time>
      </trkpt>
      <trkpt lat="42.587130" lon="-5.563351">
        <ele>830.711</ele>
        <time>2021-07-21T05:52:35Z</time>
      </trkpt>
      <trkpt lat="42.587189" lon="-5.562935">
        <ele>833.108</ele>
        <time>2021-07-21T05:52:42Z</time>
      </trkpt>
      <trkpt lat="42.587201" lon="-5.562872">
        <ele>833.612</ele>
        <time>2021-07-21T05:52:43Z</time>
      </trkpt>
      <trkpt lat="42.587209" lon="-5.562809">
        <ele>834.084</ele>
        <time>2021-07-21T05:52:44Z</time>
      </trkpt>
      <trkpt lat="42.587217" lon="-5.562744">
        <ele>834.051</ele>
        <time>2021-07-21T05:52:45Z</time>
      </trkpt>
      <trkpt lat="42.587231" lon="-5.562681">
        <ele>834.561</ele>
        <time>2021-07-21T05:52:46Z</time>
      </trkpt>
      <trkpt lat="42.587243" lon="-5.562618">
        <ele>835.085</ele>
        <time>2021-07-21T05:52:47Z</time>
      </trkpt>
      <trkpt lat="42.587253" lon="-5.562551">
        <ele>835.523</ele>
        <time>2021-07-21T05:52:48Z</time>
      </trkpt>
      <trkpt lat="42.587270" lon="-5.561909">
        <ele>835.060</ele>
        <time>2021-07-21T05:52:58Z</time>
      </trkpt>
      <trkpt lat="42.587281" lon="-5.561725">
        <ele>835.058</ele>
        <time>2021-07-21T05:53:01Z</time>
      </trkpt>
      <trkpt lat="42.587283" lon="-5.561663">
        <ele>835.093</ele>
        <time>2021-07-21T05:53:02Z</time>
      </trkpt>
      <trkpt lat="42.587288" lon="-5.561603">
        <ele>835.065</ele>
        <time>2021-07-21T05:53:03Z</time>
      </trkpt>
      <trkpt lat="42.587328" lon="-5.561037">
        <ele>834.521</ele>
        <time>2021-07-21T05:53:12Z</time>
      </trkpt>
      <trkpt lat="42.587308" lon="-5.560906">
        <ele>834.008</ele>
        <time>2021-07-21T05:53:14Z</time>
      </trkpt>
      <trkpt lat="42.587116" lon="-5.560454">
        <ele>833.136</ele>
        <time>2021-07-21T05:53:22Z</time>
      </trkpt>
      <trkpt lat="42.586800" lon="-5.560114">
        <ele>833.688</ele>
        <time>2021-07-21T05:53:30Z</time>
      </trkpt>
      <trkpt lat="42.586376" lon="-5.559727">
        <ele>833.155</ele>
        <time>2021-07-21T05:53:40Z</time>
      </trkpt>
      <trkpt lat="42.585991" lon="-5.559387">
        <ele>833.185</ele>
        <time>2021-07-21T05:53:49Z</time>
      </trkpt>
      <trkpt lat="42.585600" lon="-5.559050">
        <ele>832.189</ele>
        <time>2021-07-21T05:53:59Z</time>
      </trkpt>
      <trkpt lat="42.585448" lon="-5.558921">
        <ele>832.677</ele>
        <time>2021-07-21T05:54:05Z</time>
      </trkpt>
      <trkpt lat="42.585423" lon="-5.558902">
        <ele>832.654</ele>
        <time>2021-07-21T05:54:16Z</time>
      </trkpt>
      <trkpt lat="42.585273" lon="-5.558757">
        <ele>831.622</ele>
        <time>2021-07-21T05:54:22Z</time>
      </trkpt>
      <trkpt lat="42.584892" lon="-5.558413">
        <ele>830.223</ele>
        <time>2021-07-21T05:54:32Z</time>
      </trkpt>
      <trkpt lat="42.584549" lon="-5.558089">
        <ele>830.283</ele>
        <time>2021-07-21T05:54:40Z</time>
      </trkpt>
      <trkpt lat="42.584156" lon="-5.557723">
        <ele>828.711</ele>
        <time>2021-07-21T05:54:49Z</time>
      </trkpt>
      <trkpt lat="42.583579" lon="-5.557167">
        <ele>827.308</ele>
        <time>2021-07-21T05:55:02Z</time>
      </trkpt>
      <trkpt lat="42.583200" lon="-5.556746">
        <ele>828.739</ele>
        <time>2021-07-21T05:55:11Z</time>
      </trkpt>
      <trkpt lat="42.582878" lon="-5.556353">
        <ele>828.391</ele>
        <time>2021-07-21T05:55:20Z</time>
      </trkpt>
      <trkpt lat="42.582821" lon="-5.556267">
        <ele>828.358</ele>
        <time>2021-07-21T05:55:22Z</time>
      </trkpt>
      <trkpt lat="42.582801" lon="-5.556227">
        <ele>828.348</ele>
        <time>2021-07-21T05:55:23Z</time>
      </trkpt>
      <trkpt lat="42.582783" lon="-5.556191">
        <ele>828.382</ele>
        <time>2021-07-21T05:55:24Z</time>
      </trkpt>
      <trkpt lat="42.582702" lon="-5.556081">
        <ele>828.340</ele>
        <time>2021-07-21T05:55:29Z</time>
      </trkpt>
      <trkpt lat="42.582675" lon="-5.556091">
        <ele>828.327</ele>
        <time>2021-07-21T05:55:30Z</time>
      </trkpt>
      <trkpt lat="42.582564" lon="-5.556194">
        <ele>826.835</ele>
        <time>2021-07-21T05:55:35Z</time>
      </trkpt>
      <trkpt lat="42.582385" lon="-5.556359">
        <ele>826.325</ele>
        <time>2021-07-21T05:55:43Z</time>
      </trkpt>
      <trkpt lat="42.582185" lon="-5.556504">
        <ele>825.426</ele>
        <time>2021-07-21T05:55:49Z</time>
      </trkpt>
      <trkpt lat="42.582066" lon="-5.556430">
        <ele>825.408</ele>
        <time>2021-07-21T05:55:53Z</time>
      </trkpt>
      <trkpt lat="42.581925" lon="-5.556190">
        <ele>826.308</ele>
        <time>2021-07-21T05:56:02Z</time>
      </trkpt>
      <trkpt lat="42.581746" lon="-5.555836">
        <ele>826.319</ele>
        <time>2021-07-21T05:56:13Z</time>
      </trkpt>
      <trkpt lat="42.581587" lon="-5.555529">
        <ele>824.931</ele>
        <time>2021-07-21T05:56:22Z</time>
      </trkpt>
      <trkpt lat="42.581457" lon="-5.555260">
        <ele>823.058</ele>
        <time>2021-07-21T05:56:30Z</time>
      </trkpt>
      <trkpt lat="42.581423" lon="-5.555210">
        <ele>823.038</ele>
        <time>2021-07-21T05:56:32Z</time>
      </trkpt>
      <trkpt lat="42.581340" lon="-5.555197">
        <ele>823.592</ele>
        <time>2021-07-21T05:56:38Z</time>
      </trkpt>
      <trkpt lat="42.581312" lon="-5.555123">
        <ele>824.430</ele>
        <time>2021-07-21T05:56:41Z</time>
      </trkpt>
      <trkpt lat="42.581314" lon="-5.555094">
        <ele>824.457</ele>
        <time>2021-07-21T05:56:42Z</time>
      </trkpt>
      <trkpt lat="42.581319" lon="-5.555058">
        <ele>824.985</ele>
        <time>2021-07-21T05:56:43Z</time>
      </trkpt>
      <trkpt lat="42.581329" lon="-5.555019">
        <ele>824.944</ele>
        <time>2021-07-21T05:56:44Z</time>
      </trkpt>
      <trkpt lat="42.581373" lon="-5.554683">
        <ele>824.905</ele>
        <time>2021-07-21T05:56:52Z</time>
      </trkpt>
      <trkpt lat="42.581279" lon="-5.554278">
        <ele>825.415</ele>
        <time>2021-07-21T05:57:01Z</time>
      </trkpt>
      <trkpt lat="42.581159" lon="-5.553864">
        <ele>826.808</ele>
        <time>2021-07-21T05:57:10Z</time>
      </trkpt>
      <trkpt lat="42.581038" lon="-5.553389">
        <ele>828.741</ele>
        <time>2021-07-21T05:57:20Z</time>
      </trkpt>
      <trkpt lat="42.580985" lon="-5.552938">
        <ele>829.763</ele>
        <time>2021-07-21T05:57:29Z</time>
      </trkpt>
      <trkpt lat="42.580942" lon="-5.552577">
        <ele>829.290</ele>
        <time>2021-07-21T05:57:38Z</time>
      </trkpt>
      <trkpt lat="42.580934" lon="-5.552439">
        <ele>830.250</ele>
        <time>2021-07-21T05:57:42Z</time>
      </trkpt>
      <trkpt lat="42.580805" lon="-5.552122">
        <ele>832.614</ele>
        <time>2021-07-21T05:57:52Z</time>
      </trkpt>
      <trkpt lat="42.580691" lon="-5.551837">
        <ele>833.652</ele>
        <time>2021-07-21T05:58:00Z</time>
      </trkpt>
      <trkpt lat="42.580536" lon="-5.551535">
        <ele>835.589</ele>
        <time>2021-07-21T05:58:09Z</time>
      </trkpt>
      <trkpt lat="42.580390" lon="-5.551236">
        <ele>836.047</ele>
        <time>2021-07-21T05:58:18Z</time>
      </trkpt>
      <trkpt lat="42.580228" lon="-5.550848">
        <ele>836.015</ele>
        <time>2021-07-21T05:58:29Z</time>
      </trkpt>
      <trkpt lat="42.580040" lon="-5.550442">
        <ele>836.965</ele>
        <time>2021-07-21T05:58:41Z</time>
      </trkpt>
      <trkpt lat="42.579891" lon="-5.550124">
        <ele>837.411</ele>
        <time>2021-07-21T05:58:50Z</time>
      </trkpt>
      <trkpt lat="42.579733" lon="-5.549792">
        <ele>837.908</ele>
        <time>2021-07-21T05:58:59Z</time>
      </trkpt>
      <trkpt lat="42.579573" lon="-5.549463">
        <ele>837.938</ele>
        <time>2021-07-21T05:59:08Z</time>
      </trkpt>
      <trkpt lat="42.579432" lon="-5.549157">
        <ele>838.810</ele>
        <time>2021-07-21T05:59:16Z</time>
      </trkpt>
      <trkpt lat="42.579237" lon="-5.548773">
        <ele>840.327</ele>
        <time>2021-07-21T05:59:26Z</time>
      </trkpt>
      <trkpt lat="42.579048" lon="-5.548383">
        <ele>841.257</ele>
        <time>2021-07-21T05:59:36Z</time>
      </trkpt>
      <trkpt lat="42.578867" lon="-5.548010">
        <ele>841.781</ele>
        <time>2021-07-21T05:59:46Z</time>
      </trkpt>
      <trkpt lat="42.578682" lon="-5.547607">
        <ele>843.299</ele>
        <time>2021-07-21T05:59:57Z</time>
      </trkpt>
      <trkpt lat="42.578514" lon="-5.547266">
        <ele>845.636</ele>
        <time>2021-07-21T06:00:07Z</time>
      </trkpt>
      <trkpt lat="42.578329" lon="-5.546898">
        <ele>848.974</ele>
        <time>2021-07-21T06:00:18Z</time>
      </trkpt>
      <trkpt lat="42.578163" lon="-5.546521">
        <ele>849.997</ele>
        <time>2021-07-21T06:00:29Z</time>
      </trkpt>
      <trkpt lat="42.578055" lon="-5.546251">
        <ele>850.423</ele>
        <time>2021-07-21T06:00:37Z</time>
      </trkpt>
      <trkpt lat="42.577934" lon="-5.545997">
        <ele>850.925</ele>
        <time>2021-07-21T06:00:45Z</time>
      </trkpt>
      <trkpt lat="42.577780" lon="-5.545674">
        <ele>850.408</ele>
        <time>2021-07-21T06:00:56Z</time>
      </trkpt>
      <trkpt lat="42.577633" lon="-5.545357">
        <ele>850.486</ele>
        <time>2021-07-21T06:01:07Z</time>
      </trkpt>
      <trkpt lat="42.577500" lon="-5.545076">
        <ele>850.938</ele>
        <time>2021-07-21T06:01:17Z</time>
      </trkpt>
      <trkpt lat="42.577358" lon="-5.544778">
        <ele>851.885</ele>
        <time>2021-07-21T06:01:27Z</time>
      </trkpt>
      <trkpt lat="42.577259" lon="-5.544585">
        <ele>853.375</ele>
        <time>2021-07-21T06:01:35Z</time>
      </trkpt>
      <trkpt lat="42.577168" lon="-5.544398">
        <ele>854.229</ele>
        <time>2021-07-21T06:01:43Z</time>
      </trkpt>
      <trkpt lat="42.577023" lon="-5.544088">
        <ele>854.777</ele>
        <time>2021-07-21T06:01:54Z</time>
      </trkpt>
      <trkpt lat="42.576862" lon="-5.543778">
        <ele>854.794</ele>
        <time>2021-07-21T06:02:04Z</time>
      </trkpt>
      <trkpt lat="42.576709" lon="-5.543496">
        <ele>855.222</ele>
        <time>2021-07-21T06:02:12Z</time>
      </trkpt>
      <trkpt lat="42.576689" lon="-5.543209">
        <ele>854.712</ele>
        <time>2021-07-21T06:02:19Z</time>
      </trkpt>
      <trkpt lat="42.576553" lon="-5.542917">
        <ele>855.232</ele>
        <time>2021-07-21T06:02:27Z</time>
      </trkpt>
      <trkpt lat="42.576342" lon="-5.542530">
        <ele>857.605</ele>
        <time>2021-07-21T06:02:39Z</time>
      </trkpt>
      <trkpt lat="42.576185" lon="-5.542225">
        <ele>858.508</ele>
        <time>2021-07-21T06:02:50Z</time>
      </trkpt>
      <trkpt lat="42.576110" lon="-5.542062">
        <ele>859.068</ele>
        <time>2021-07-21T06:02:57Z</time>
      </trkpt>
      <trkpt lat="42.575990" lon="-5.541798">
        <ele>860.520</ele>
        <time>2021-07-21T06:03:07Z</time>
      </trkpt>
      <trkpt lat="42.575876" lon="-5.541535">
        <ele>862.487</ele>
        <time>2021-07-21T06:03:18Z</time>
      </trkpt>
      <trkpt lat="42.575779" lon="-5.541253">
        <ele>863.817</ele>
        <time>2021-07-21T06:03:29Z</time>
      </trkpt>
      <trkpt lat="42.575690" lon="-5.540994">
        <ele>865.381</ele>
        <time>2021-07-21T06:03:39Z</time>
      </trkpt>
      <trkpt lat="42.575606" lon="-5.540709">
        <ele>867.299</ele>
        <time>2021-07-21T06:03:50Z</time>
      </trkpt>
      <trkpt lat="42.575536" lon="-5.540425">
        <ele>868.616</ele>
        <time>2021-07-21T06:04:01Z</time>
      </trkpt>
      <trkpt lat="42.575468" lon="-5.540161">
        <ele>870.194</ele>
        <time>2021-07-21T06:04:10Z</time>
      </trkpt>
      <trkpt lat="42.575405" lon="-5.539846">
        <ele>872.033</ele>
        <time>2021-07-21T06:04:21Z</time>
      </trkpt>
      <trkpt lat="42.575358" lon="-5.539609">
        <ele>872.523</ele>
        <time>2021-07-21T06:04:29Z</time>
      </trkpt>
      <trkpt lat="42.575303" lon="-5.539310">
        <ele>872.015</ele>
        <time>2021-07-21T06:04:39Z</time>
      </trkpt>
      <trkpt lat="42.575193" lon="-5.539095">
        <ele>872.508</ele>
        <time>2021-07-21T06:04:46Z</time>
      </trkpt>
      <trkpt lat="42.575060" lon="-5.538840">
        <ele>873.090</ele>
        <time>2021-07-21T06:04:54Z</time>
      </trkpt>
      <trkpt lat="42.575090" lon="-5.538557">
        <ele>873.512</ele>
        <time>2021-07-21T06:05:01Z</time>
      </trkpt>
      <trkpt lat="42.575148" lon="-5.538231">
        <ele>873.919</ele>
        <time>2021-07-21T06:05:09Z</time>
      </trkpt>
      <trkpt lat="42.575096" lon="-5.537954">
        <ele>874.439</ele>
        <time>2021-07-21T06:05:18Z</time>
      </trkpt>
      <trkpt lat="42.575047" lon="-5.537658">
        <ele>875.473</ele>
        <time>2021-07-21T06:05:28Z</time>
      </trkpt>
      <trkpt lat="42.574998" lon="-5.537284">
        <ele>876.341</ele>
        <time>2021-07-21T06:05:40Z</time>
      </trkpt>
      <trkpt lat="42.574955" lon="-5.536957">
        <ele>877.818</ele>
        <time>2021-07-21T06:05:51Z</time>
      </trkpt>
      <trkpt lat="42.574916" lon="-5.536657">
        <ele>879.286</ele>
        <time>2021-07-21T06:06:01Z</time>
      </trkpt>
      <trkpt lat="42.574876" lon="-5.536316">
        <ele>880.247</ele>
        <time>2021-07-21T06:06:12Z</time>
      </trkpt>
      <trkpt lat="42.574846" lon="-5.536023">
        <ele>881.629</ele>
        <time>2021-07-21T06:06:21Z</time>
      </trkpt>
      <trkpt lat="42.574824" lon="-5.535780">
        <ele>883.121</ele>
        <time>2021-07-21T06:06:31Z</time>
      </trkpt>
      <trkpt lat="42.574805" lon="-5.535774">
        <ele>883.108</ele>
        <time>2021-07-21T06:06:33Z</time>
      </trkpt>
      <trkpt lat="42.574793" lon="-5.535767">
        <ele>883.121</ele>
        <time>2021-07-21T06:06:34Z</time>
      </trkpt>
      <trkpt lat="42.574784" lon="-5.535755">
        <ele>883.163</ele>
        <time>2021-07-21T06:06:35Z</time>
      </trkpt>
      <trkpt lat="42.574777" lon="-5.535738">
        <ele>883.540</ele>
        <time>2021-07-21T06:06:36Z</time>
      </trkpt>
      <trkpt lat="42.574774" lon="-5.535722">
        <ele>883.520</ele>
        <time>2021-07-21T06:06:37Z</time>
      </trkpt>
      <trkpt lat="42.574772" lon="-5.535701">
        <ele>883.564</ele>
        <time>2021-07-21T06:06:38Z</time>
      </trkpt>
      <trkpt lat="42.574772" lon="-5.535679">
        <ele>884.052</ele>
        <time>2021-07-21T06:06:39Z</time>
      </trkpt>
      <trkpt lat="42.574770" lon="-5.535652">
        <ele>884.059</ele>
        <time>2021-07-21T06:06:40Z</time>
      </trkpt>
      <trkpt lat="42.574767" lon="-5.535625">
        <ele>884.097</ele>
        <time>2021-07-21T06:06:41Z</time>
      </trkpt>
      <trkpt lat="42.574711" lon="-5.535320">
        <ele>885.589</ele>
        <time>2021-07-21T06:06:53Z</time>
      </trkpt>
      <trkpt lat="42.574651" lon="-5.535174">
        <ele>886.906</ele>
        <time>2021-07-21T06:07:00Z</time>
      </trkpt>
      <trkpt lat="42.574615" lon="-5.534944">
        <ele>888.426</ele>
        <time>2021-07-21T06:07:09Z</time>
      </trkpt>
      <trkpt lat="42.574593" lon="-5.534774">
        <ele>889.308</ele>
        <time>2021-07-21T06:07:16Z</time>
      </trkpt>
      <trkpt lat="42.574561" lon="-5.534572">
        <ele>890.855</ele>
        <time>2021-07-21T06:07:25Z</time>
      </trkpt>
      <trkpt lat="42.574529" lon="-5.534329">
        <ele>892.237</ele>
        <time>2021-07-21T06:07:35Z</time>
      </trkpt>
      <trkpt lat="42.574503" lon="-5.534088">
        <ele>894.144</ele>
        <time>2021-07-21T06:07:46Z</time>
      </trkpt>
      <trkpt lat="42.574462" lon="-5.533854">
        <ele>894.134</ele>
        <time>2021-07-21T06:07:58Z</time>
      </trkpt>
      <trkpt lat="42.574458" lon="-5.533853">
        <ele>894.648</ele>
        <time>2021-07-21T06:08:04Z</time>
      </trkpt>
      <trkpt lat="42.574467" lon="-5.533841">
        <ele>893.226</ele>
        <time>2021-07-21T06:08:18Z</time>
      </trkpt>
      <trkpt lat="42.574469" lon="-5.533803">
        <ele>893.293</ele>
        <time>2021-07-21T06:08:26Z</time>
      </trkpt>
      <trkpt lat="42.574467" lon="-5.533683">
        <ele>894.111</ele>
        <time>2021-07-21T06:08:34Z</time>
      </trkpt>
      <trkpt lat="42.574472" lon="-5.533608">
        <ele>895.698</ele>
        <time>2021-07-21T06:08:43Z</time>
      </trkpt>
      <trkpt lat="42.574474" lon="-5.533576">
        <ele>896.515</ele>
        <time>2021-07-21T06:08:50Z</time>
      </trkpt>
      <trkpt lat="42.574474" lon="-5.533560">
        <ele>896.526</ele>
        <time>2021-07-21T06:08:51Z</time>
      </trkpt>
      <trkpt lat="42.574445" lon="-5.533391">
        <ele>898.008</ele>
        <time>2021-07-21T06:09:00Z</time>
      </trkpt>
      <trkpt lat="42.574444" lon="-5.533372">
        <ele>897.526</ele>
        <time>2021-07-21T06:09:06Z</time>
      </trkpt>
      <trkpt lat="42.574443" lon="-5.533354">
        <ele>898.048</ele>
        <time>2021-07-21T06:09:11Z</time>
      </trkpt>
      <trkpt lat="42.574417" lon="-5.533230">
        <ele>898.915</ele>
        <time>2021-07-21T06:09:18Z</time>
      </trkpt>
      <trkpt lat="42.574392" lon="-5.533124">
        <ele>899.995</ele>
        <time>2021-07-21T06:09:25Z</time>
      </trkpt>
      <trkpt lat="42.574391" lon="-5.533074">
        <ele>900.889</ele>
        <time>2021-07-21T06:09:32Z</time>
      </trkpt>
      <trkpt lat="42.574373" lon="-5.533028">
        <ele>901.877</ele>
        <time>2021-07-21T06:09:40Z</time>
      </trkpt>
      <trkpt lat="42.574342" lon="-5.532842">
        <ele>902.894</ele>
        <time>2021-07-21T06:09:49Z</time>
      </trkpt>
      <trkpt lat="42.574290" lon="-5.532599">
        <ele>903.792</ele>
        <time>2021-07-21T06:09:58Z</time>
      </trkpt>
      <trkpt lat="42.574196" lon="-5.532275">
        <ele>904.245</ele>
        <time>2021-07-21T06:10:09Z</time>
      </trkpt>
      <trkpt lat="42.574126" lon="-5.531981">
        <ele>904.247</ele>
        <time>2021-07-21T06:10:18Z</time>
      </trkpt>
      <trkpt lat="42.573991" lon="-5.531612">
        <ele>903.311</ele>
        <time>2021-07-21T06:10:27Z</time>
      </trkpt>
      <trkpt lat="42.573912" lon="-5.531442">
        <ele>903.708</ele>
        <time>2021-07-21T06:10:33Z</time>
      </trkpt>
      <trkpt lat="42.573791" lon="-5.531179">
        <ele>906.131</ele>
        <time>2021-07-21T06:10:43Z</time>
      </trkpt>
      <trkpt lat="42.573768" lon="-5.531102">
        <ele>906.693</ele>
        <time>2021-07-21T06:10:46Z</time>
      </trkpt>
      <trkpt lat="42.573781" lon="-5.531074">
        <ele>907.150</ele>
        <time>2021-07-21T06:10:47Z</time>
      </trkpt>
      <trkpt lat="42.573795" lon="-5.531055">
        <ele>907.150</ele>
        <time>2021-07-21T06:10:48Z</time>
      </trkpt>
      <trkpt lat="42.573940" lon="-5.530921">
        <ele>907.614</ele>
        <time>2021-07-21T06:10:55Z</time>
      </trkpt>
      <trkpt lat="42.574003" lon="-5.530850">
        <ele>908.182</ele>
        <time>2021-07-21T06:10:59Z</time>
      </trkpt>
      <trkpt lat="42.574001" lon="-5.530829">
        <ele>908.119</ele>
        <time>2021-07-21T06:11:00Z</time>
      </trkpt>
      <trkpt lat="42.573991" lon="-5.530804">
        <ele>908.167</ele>
        <time>2021-07-21T06:11:01Z</time>
      </trkpt>
      <trkpt lat="42.573978" lon="-5.530779">
        <ele>908.141</ele>
        <time>2021-07-21T06:11:02Z</time>
      </trkpt>
      <trkpt lat="42.573962" lon="-5.530745">
        <ele>907.681</ele>
        <time>2021-07-21T06:11:03Z</time>
      </trkpt>
      <trkpt lat="42.573837" lon="-5.530462">
        <ele>906.109</ele>
        <time>2021-07-21T06:11:11Z</time>
      </trkpt>
      <trkpt lat="42.573785" lon="-5.530344">
        <ele>905.208</ele>
        <time>2021-07-21T06:11:16Z</time>
      </trkpt>
      <trkpt lat="42.573793" lon="-5.530335">
        <ele>905.291</ele>
        <time>2021-07-21T06:11:17Z</time>
      </trkpt>
      <trkpt lat="42.573804" lon="-5.530338">
        <ele>905.223</ele>
        <time>2021-07-21T06:11:18Z</time>
      </trkpt>
      <trkpt lat="42.573815" lon="-5.530354">
        <ele>905.230</ele>
        <time>2021-07-21T06:11:19Z</time>
      </trkpt>
      <trkpt lat="42.573825" lon="-5.530378">
        <ele>905.250</ele>
        <time>2021-07-21T06:11:20Z</time>
      </trkpt>
      <trkpt lat="42.573832" lon="-5.530404">
        <ele>905.294</ele>
        <time>2021-07-21T06:11:21Z</time>
      </trkpt>
      <trkpt lat="42.573840" lon="-5.530426">
        <ele>904.752</ele>
        <time>2021-07-21T06:11:22Z</time>
      </trkpt>
      <trkpt lat="42.573851" lon="-5.530440">
        <ele>904.749</ele>
        <time>2021-07-21T06:11:23Z</time>
      </trkpt>
      <trkpt lat="42.573853" lon="-5.530392">
        <ele>904.727</ele>
        <time>2021-07-21T06:11:27Z</time>
      </trkpt>
      <trkpt lat="42.573829" lon="-5.530321">
        <ele>904.765</ele>
        <time>2021-07-21T06:11:33Z</time>
      </trkpt>
      <trkpt lat="42.573823" lon="-5.530314">
        <ele>904.268</ele>
        <time>2021-07-21T06:11:42Z</time>
      </trkpt>
      <trkpt lat="42.573824" lon="-5.530251">
        <ele>904.714</ele>
        <time>2021-07-21T06:11:45Z</time>
      </trkpt>
      <trkpt lat="42.573813" lon="-5.530226">
        <ele>904.708</ele>
        <time>2021-07-21T06:11:46Z</time>
      </trkpt>
      <trkpt lat="42.573799" lon="-5.530206">
        <ele>905.273</ele>
        <time>2021-07-21T06:11:47Z</time>
      </trkpt>
      <trkpt lat="42.573782" lon="-5.530181">
        <ele>905.265</ele>
        <time>2021-07-21T06:11:48Z</time>
      </trkpt>
      <trkpt lat="42.573609" lon="-5.529930">
        <ele>905.292</ele>
        <time>2021-07-21T06:11:57Z</time>
      </trkpt>
      <trkpt lat="42.573413" lon="-5.529646">
        <ele>904.262</ele>
        <time>2021-07-21T06:12:05Z</time>
      </trkpt>
      <trkpt lat="42.573189" lon="-5.529178">
        <ele>903.776</ele>
        <time>2021-07-21T06:12:15Z</time>
      </trkpt>
      <trkpt lat="42.573080" lon="-5.528593">
        <ele>903.334</ele>
        <time>2021-07-21T06:12:25Z</time>
      </trkpt>
      <trkpt lat="42.573077" lon="-5.528527">
        <ele>903.321</ele>
        <time>2021-07-21T06:12:26Z</time>
      </trkpt>
      <trkpt lat="42.573048" lon="-5.528249">
        <ele>902.359</ele>
        <time>2021-07-21T06:12:32Z</time>
      </trkpt>
      <trkpt lat="42.573034" lon="-5.528216">
        <ele>902.348</ele>
        <time>2021-07-21T06:12:33Z</time>
      </trkpt>
      <trkpt lat="42.572979" lon="-5.528150">
        <ele>901.861</ele>
        <time>2021-07-21T06:12:38Z</time>
      </trkpt>
      <trkpt lat="42.572981" lon="-5.528153">
        <ele>901.317</ele>
        <time>2021-07-21T06:12:48Z</time>
      </trkpt>
      <trkpt lat="42.572955" lon="-5.528116">
        <ele>902.308</ele>
        <time>2021-07-21T06:12:55Z</time>
      </trkpt>
      <trkpt lat="42.572924" lon="-5.527992">
        <ele>901.861</ele>
        <time>2021-07-21T06:12:59Z</time>
      </trkpt>
      <trkpt lat="42.572936" lon="-5.527957">
        <ele>901.833</ele>
        <time>2021-07-21T06:13:00Z</time>
      </trkpt>
      <trkpt lat="42.572953" lon="-5.527731">
        <ele>901.820</ele>
        <time>2021-07-21T06:13:06Z</time>
      </trkpt>
      <trkpt lat="42.572802" lon="-5.527599">
        <ele>901.370</ele>
        <time>2021-07-21T06:13:11Z</time>
      </trkpt>
      <trkpt lat="42.572759" lon="-5.527598">
        <ele>901.374</ele>
        <time>2021-07-21T06:13:12Z</time>
      </trkpt>
      <trkpt lat="42.572713" lon="-5.527595">
        <ele>901.352</ele>
        <time>2021-07-21T06:13:13Z</time>
      </trkpt>
      <trkpt lat="42.572670" lon="-5.527588">
        <ele>900.899</ele>
        <time>2021-07-21T06:13:14Z</time>
      </trkpt>
      <trkpt lat="42.572622" lon="-5.527574">
        <ele>900.447</ele>
        <time>2021-07-21T06:13:15Z</time>
      </trkpt>
      <trkpt lat="42.572574" lon="-5.527554">
        <ele>900.454</ele>
        <time>2021-07-21T06:13:16Z</time>
      </trkpt>
      <trkpt lat="42.572387" lon="-5.527410">
        <ele>898.456</ele>
        <time>2021-07-21T06:13:20Z</time>
      </trkpt>
      <trkpt lat="42.572342" lon="-5.527352">
        <ele>898.011</ele>
        <time>2021-07-21T06:13:21Z</time>
      </trkpt>
      <trkpt lat="42.572311" lon="-5.527304">
        <ele>897.508</ele>
        <time>2021-07-21T06:13:22Z</time>
      </trkpt>
      <trkpt lat="42.572278" lon="-5.527240">
        <ele>897.552</ele>
        <time>2021-07-21T06:13:23Z</time>
      </trkpt>
      <trkpt lat="42.572248" lon="-5.527170">
        <ele>897.094</ele>
        <time>2021-07-21T06:13:24Z</time>
      </trkpt>
      <trkpt lat="42.572226" lon="-5.527094">
        <ele>896.561</ele>
        <time>2021-07-21T06:13:25Z</time>
      </trkpt>
      <trkpt lat="42.572103" lon="-5.526565">
        <ele>895.611</ele>
        <time>2021-07-21T06:13:32Z</time>
      </trkpt>
      <trkpt lat="42.571955" lon="-5.525897">
        <ele>894.615</ele>
        <time>2021-07-21T06:13:40Z</time>
      </trkpt>
      <trkpt lat="42.571940" lon="-5.525811">
        <ele>894.173</ele>
        <time>2021-07-21T06:13:41Z</time>
      </trkpt>
      <trkpt lat="42.571939" lon="-5.525723">
        <ele>894.150</ele>
        <time>2021-07-21T06:13:42Z</time>
      </trkpt>
      <trkpt lat="42.571952" lon="-5.525625">
        <ele>893.618</ele>
        <time>2021-07-21T06:13:43Z</time>
      </trkpt>
      <trkpt lat="42.571980" lon="-5.525536">
        <ele>893.697</ele>
        <time>2021-07-21T06:13:44Z</time>
      </trkpt>
      <trkpt lat="42.572024" lon="-5.525456">
        <ele>893.623</ele>
        <time>2021-07-21T06:13:45Z</time>
      </trkpt>
      <trkpt lat="42.572059" lon="-5.525407">
        <ele>893.625</ele>
        <time>2021-07-21T06:13:46Z</time>
      </trkpt>
      <trkpt lat="42.572105" lon="-5.525353">
        <ele>893.608</ele>
        <time>2021-07-21T06:13:47Z</time>
      </trkpt>
      <trkpt lat="42.572146" lon="-5.525305">
        <ele>893.686</ele>
        <time>2021-07-21T06:13:48Z</time>
      </trkpt>
      <trkpt lat="42.572337" lon="-5.525109">
        <ele>895.688</ele>
        <time>2021-07-21T06:13:54Z</time>
      </trkpt>
      <trkpt lat="42.572498" lon="-5.524986">
        <ele>894.645</ele>
        <time>2021-07-21T06:14:00Z</time>
      </trkpt>
      <trkpt lat="42.572772" lon="-5.524726">
        <ele>898.045</ele>
        <time>2021-07-21T06:14:09Z</time>
      </trkpt>
      <trkpt lat="42.573042" lon="-5.524416">
        <ele>901.339</ele>
        <time>2021-07-21T06:14:18Z</time>
      </trkpt>
      <trkpt lat="42.573294" lon="-5.524133">
        <ele>901.857</ele>
        <time>2021-07-21T06:14:28Z</time>
      </trkpt>
      <trkpt lat="42.573316" lon="-5.523954">
        <ele>899.974</ele>
        <time>2021-07-21T06:14:34Z</time>
      </trkpt>
      <trkpt lat="42.573260" lon="-5.523655">
        <ele>898.042</ele>
        <time>2021-07-21T06:14:42Z</time>
      </trkpt>
      <trkpt lat="42.573188" lon="-5.523371">
        <ele>896.097</ele>
        <time>2021-07-21T06:14:49Z</time>
      </trkpt>
      <trkpt lat="42.573102" lon="-5.522942">
        <ele>893.223</ele>
        <time>2021-07-21T06:14:56Z</time>
      </trkpt>
      <trkpt lat="42.572998" lon="-5.522419">
        <ele>891.225</ele>
        <time>2021-07-21T06:15:03Z</time>
      </trkpt>
      <trkpt lat="42.572933" lon="-5.522074">
        <ele>891.708</ele>
        <time>2021-07-21T06:15:09Z</time>
      </trkpt>
      <trkpt lat="42.572877" lon="-5.521796">
        <ele>892.746</ele>
        <time>2021-07-21T06:15:17Z</time>
      </trkpt>
      <trkpt lat="42.572779" lon="-5.521488">
        <ele>893.678</ele>
        <time>2021-07-21T06:15:27Z</time>
      </trkpt>
      <trkpt lat="42.572630" lon="-5.521204">
        <ele>894.675</ele>
        <time>2021-07-21T06:15:37Z</time>
      </trkpt>
      <trkpt lat="42.572599" lon="-5.520957">
        <ele>896.055</ele>
        <time>2021-07-21T06:15:44Z</time>
      </trkpt>
      <trkpt lat="42.572602" lon="-5.520615">
        <ele>895.659</ele>
        <time>2021-07-21T06:15:53Z</time>
      </trkpt>
      <trkpt lat="42.572551" lon="-5.520356">
        <ele>894.137</ele>
        <time>2021-07-21T06:15:59Z</time>
      </trkpt>
      <trkpt lat="42.572474" lon="-5.519944">
        <ele>891.794</ele>
        <time>2021-07-21T06:16:05Z</time>
      </trkpt>
      <trkpt lat="42.572368" lon="-5.519495">
        <ele>891.742</ele>
        <time>2021-07-21T06:16:13Z</time>
      </trkpt>
      <trkpt lat="42.572292" lon="-5.519143">
        <ele>891.757</ele>
        <time>2021-07-21T06:16:22Z</time>
      </trkpt>
      <trkpt lat="42.572200" lon="-5.518797">
        <ele>894.100</ele>
        <time>2021-07-21T06:16:32Z</time>
      </trkpt>
      <trkpt lat="42.572123" lon="-5.518561">
        <ele>895.620</ele>
        <time>2021-07-21T06:16:40Z</time>
      </trkpt>
      <trkpt lat="42.572043" lon="-5.518223">
        <ele>897.008</ele>
        <time>2021-07-21T06:16:50Z</time>
      </trkpt>
      <trkpt lat="42.571981" lon="-5.517913">
        <ele>898.482</ele>
        <time>2021-07-21T06:16:59Z</time>
      </trkpt>
      <trkpt lat="42.571912" lon="-5.517576">
        <ele>898.044</ele>
        <time>2021-07-21T06:17:09Z</time>
      </trkpt>
      <trkpt lat="42.571850" lon="-5.517217">
        <ele>896.081</ele>
        <time>2021-07-21T06:17:17Z</time>
      </trkpt>
      <trkpt lat="42.571842" lon="-5.517168">
        <ele>895.641</ele>
        <time>2021-07-21T06:17:18Z</time>
      </trkpt>
      <trkpt lat="42.571759" lon="-5.516777">
        <ele>893.265</ele>
        <time>2021-07-21T06:17:24Z</time>
      </trkpt>
      <trkpt lat="42.571617" lon="-5.516243">
        <ele>891.223</ele>
        <time>2021-07-21T06:17:31Z</time>
      </trkpt>
      <trkpt lat="42.571516" lon="-5.515821">
        <ele>889.890</ele>
        <time>2021-07-21T06:17:38Z</time>
      </trkpt>
      <trkpt lat="42.571502" lon="-5.515766">
        <ele>889.338</ele>
        <time>2021-07-21T06:17:39Z</time>
      </trkpt>
      <trkpt lat="42.571491" lon="-5.515709">
        <ele>889.388</ele>
        <time>2021-07-21T06:17:40Z</time>
      </trkpt>
      <trkpt lat="42.571481" lon="-5.515655">
        <ele>888.824</ele>
        <time>2021-07-21T06:17:41Z</time>
      </trkpt>
      <trkpt lat="42.571399" lon="-5.515273">
        <ele>886.426</ele>
        <time>2021-07-21T06:17:49Z</time>
      </trkpt>
      <trkpt lat="42.571290" lon="-5.514857">
        <ele>883.508</ele>
        <time>2021-07-21T06:17:56Z</time>
      </trkpt>
      <trkpt lat="42.571196" lon="-5.514409">
        <ele>879.765</ele>
        <time>2021-07-21T06:18:02Z</time>
      </trkpt>
      <trkpt lat="42.571077" lon="-5.513886">
        <ele>876.337</ele>
        <time>2021-07-21T06:18:10Z</time>
      </trkpt>
      <trkpt lat="42.570961" lon="-5.513392">
        <ele>874.934</ele>
        <time>2021-07-21T06:18:18Z</time>
      </trkpt>
      <trkpt lat="42.570912" lon="-5.513155">
        <ele>873.954</ele>
        <time>2021-07-21T06:18:24Z</time>
      </trkpt>
      <trkpt lat="42.570846" lon="-5.512830">
        <ele>872.518</ele>
        <time>2021-07-21T06:18:31Z</time>
      </trkpt>
      <trkpt lat="42.570768" lon="-5.512465">
        <ele>871.516</ele>
        <time>2021-07-21T06:18:39Z</time>
      </trkpt>
      <trkpt lat="42.570703" lon="-5.512195">
        <ele>872.093</ele>
        <time>2021-07-21T06:18:48Z</time>
      </trkpt>
      <trkpt lat="42.570653" lon="-5.512015">
        <ele>871.561</ele>
        <time>2021-07-21T06:18:57Z</time>
      </trkpt>
      <trkpt lat="42.570619" lon="-5.511852">
        <ele>871.098</ele>
        <time>2021-07-21T06:19:05Z</time>
      </trkpt>
      <trkpt lat="42.570572" lon="-5.511586">
        <ele>870.615</ele>
        <time>2021-07-21T06:19:12Z</time>
      </trkpt>
      <trkpt lat="42.570495" lon="-5.511193">
        <ele>869.626</ele>
        <time>2021-07-21T06:19:19Z</time>
      </trkpt>
      <trkpt lat="42.570402" lon="-5.510753">
        <ele>867.208</ele>
        <time>2021-07-21T06:19:25Z</time>
      </trkpt>
      <trkpt lat="42.570296" lon="-5.510230">
        <ele>865.376</ele>
        <time>2021-07-21T06:19:31Z</time>
      </trkpt>
      <trkpt lat="42.570141" lon="-5.509543">
        <ele>862.958</ele>
        <time>2021-07-21T06:19:39Z</time>
      </trkpt>
      <trkpt lat="42.569980" lon="-5.508757">
        <ele>860.015</ele>
        <time>2021-07-21T06:19:49Z</time>
      </trkpt>
      <trkpt lat="42.569902" lon="-5.508418">
        <ele>859.065</ele>
        <time>2021-07-21T06:19:54Z</time>
      </trkpt>
      <trkpt lat="42.569892" lon="-5.508363">
        <ele>859.049</ele>
        <time>2021-07-21T06:19:55Z</time>
      </trkpt>
      <trkpt lat="42.569883" lon="-5.508313">
        <ele>859.077</ele>
        <time>2021-07-21T06:19:56Z</time>
      </trkpt>
      <trkpt lat="42.569872" lon="-5.508266">
        <ele>858.574</ele>
        <time>2021-07-21T06:19:57Z</time>
      </trkpt>
      <trkpt lat="42.569861" lon="-5.508222">
        <ele>858.592</ele>
        <time>2021-07-21T06:19:58Z</time>
      </trkpt>
      <trkpt lat="42.569851" lon="-5.508181">
        <ele>858.584</ele>
        <time>2021-07-21T06:19:59Z</time>
      </trkpt>
      <trkpt lat="42.569794" lon="-5.507877">
        <ele>858.107</ele>
        <time>2021-07-21T06:20:07Z</time>
      </trkpt>
      <trkpt lat="42.569703" lon="-5.507483">
        <ele>858.117</ele>
        <time>2021-07-21T06:20:16Z</time>
      </trkpt>
      <trkpt lat="42.569608" lon="-5.507023">
        <ele>857.608</ele>
        <time>2021-07-21T06:20:25Z</time>
      </trkpt>
      <trkpt lat="42.569501" lon="-5.506542">
        <ele>855.785</ele>
        <time>2021-07-21T06:20:34Z</time>
      </trkpt>
      <trkpt lat="42.569356" lon="-5.506066">
        <ele>855.267</ele>
        <time>2021-07-21T06:20:44Z</time>
      </trkpt>
      <trkpt lat="42.569335" lon="-5.506014">
        <ele>855.234</ele>
        <time>2021-07-21T06:20:45Z</time>
      </trkpt>
      <trkpt lat="42.569144" lon="-5.505569">
        <ele>855.214</ele>
        <time>2021-07-21T06:20:54Z</time>
      </trkpt>
      <trkpt lat="42.568916" lon="-5.504979">
        <ele>854.798</ele>
        <time>2021-07-21T06:21:06Z</time>
      </trkpt>
      <trkpt lat="42.568736" lon="-5.504417">
        <ele>854.776</ele>
        <time>2021-07-21T06:21:17Z</time>
      </trkpt>
      <trkpt lat="42.568568" lon="-5.503881">
        <ele>854.743</ele>
        <time>2021-07-21T06:21:28Z</time>
      </trkpt>
      <trkpt lat="42.568454" lon="-5.503440">
        <ele>854.771</ele>
        <time>2021-07-21T06:21:37Z</time>
      </trkpt>
      <trkpt lat="42.568360" lon="-5.502944">
        <ele>854.272</ele>
        <time>2021-07-21T06:21:47Z</time>
      </trkpt>
      <trkpt lat="42.568279" lon="-5.502438">
        <ele>853.713</ele>
        <time>2021-07-21T06:21:57Z</time>
      </trkpt>
      <trkpt lat="42.568199" lon="-5.501938">
        <ele>853.714</ele>
        <time>2021-07-21T06:22:07Z</time>
      </trkpt>
      <trkpt lat="42.568130" lon="-5.501500">
        <ele>853.308</ele>
        <time>2021-07-21T06:22:16Z</time>
      </trkpt>
      <trkpt lat="42.568067" lon="-5.501074">
        <ele>852.894</ele>
        <time>2021-07-21T06:22:25Z</time>
      </trkpt>
      <trkpt lat="42.567990" lon="-5.500494">
        <ele>852.836</ele>
        <time>2021-07-21T06:22:37Z</time>
      </trkpt>
      <trkpt lat="42.567944" lon="-5.500096">
        <ele>853.323</ele>
        <time>2021-07-21T06:22:46Z</time>
      </trkpt>
      <trkpt lat="42.567898" lon="-5.499620">
        <ele>854.783</ele>
        <time>2021-07-21T06:22:58Z</time>
      </trkpt>
      <trkpt lat="42.567861" lon="-5.499306">
        <ele>856.197</ele>
        <time>2021-07-21T06:23:08Z</time>
      </trkpt>
      <trkpt lat="42.567834" lon="-5.499059">
        <ele>856.645</ele>
        <time>2021-07-21T06:23:16Z</time>
      </trkpt>
      <trkpt lat="42.567792" lon="-5.498756">
        <ele>858.152</ele>
        <time>2021-07-21T06:23:25Z</time>
      </trkpt>
      <trkpt lat="42.567752" lon="-5.498394">
        <ele>858.580</ele>
        <time>2021-07-21T06:23:35Z</time>
      </trkpt>
      <trkpt lat="42.567715" lon="-5.498016">
        <ele>859.047</ele>
        <time>2021-07-21T06:23:45Z</time>
      </trkpt>
      <trkpt lat="42.567690" lon="-5.497702">
        <ele>859.529</ele>
        <time>2021-07-21T06:23:54Z</time>
      </trkpt>
      <trkpt lat="42.567682" lon="-5.497553">
        <ele>860.021</ele>
        <time>2021-07-21T06:24:01Z</time>
      </trkpt>
      <trkpt lat="42.567654" lon="-5.497252">
        <ele>860.008</ele>
        <time>2021-07-21T06:24:09Z</time>
      </trkpt>
      <trkpt lat="42.567588" lon="-5.496885">
        <ele>860.051</ele>
        <time>2021-07-21T06:24:18Z</time>
      </trkpt>
      <trkpt lat="42.567521" lon="-5.496610">
        <ele>860.553</ele>
        <time>2021-07-21T06:24:25Z</time>
      </trkpt>
      <trkpt lat="42.567413" lon="-5.496331">
        <ele>860.510</ele>
        <time>2021-07-21T06:24:32Z</time>
      </trkpt>
      <trkpt lat="42.567143" lon="-5.496014">
        <ele>860.570</ele>
        <time>2021-07-21T06:24:42Z</time>
      </trkpt>
      <trkpt lat="42.567082" lon="-5.495802">
        <ele>860.034</ele>
        <time>2021-07-21T06:24:47Z</time>
      </trkpt>
      <trkpt lat="42.566981" lon="-5.495457">
        <ele>859.522</ele>
        <time>2021-07-21T06:24:55Z</time>
      </trkpt>
      <trkpt lat="42.566837" lon="-5.495076">
        <ele>859.099</ele>
        <time>2021-07-21T06:25:02Z</time>
      </trkpt>
      <trkpt lat="42.566801" lon="-5.494912">
        <ele>858.597</ele>
        <time>2021-07-21T06:25:06Z</time>
      </trkpt>
      <trkpt lat="42.566743" lon="-5.494743">
        <ele>857.618</ele>
        <time>2021-07-21T06:25:11Z</time>
      </trkpt>
      <trkpt lat="42.566637" lon="-5.494334">
        <ele>854.298</ele>
        <time>2021-07-21T06:25:19Z</time>
      </trkpt>
      <trkpt lat="42.566604" lon="-5.494148">
        <ele>852.817</ele>
        <time>2021-07-21T06:25:24Z</time>
      </trkpt>
      <trkpt lat="42.566575" lon="-5.494053">
        <ele>851.808</ele>
        <time>2021-07-21T06:25:26Z</time>
      </trkpt>
      <trkpt lat="42.566454" lon="-5.493754">
        <ele>848.598</ele>
        <time>2021-07-21T06:25:32Z</time>
      </trkpt>
      <trkpt lat="42.566337" lon="-5.493586">
        <ele>846.570</ele>
        <time>2021-07-21T06:25:39Z</time>
      </trkpt>
      <trkpt lat="42.566229" lon="-5.493411">
        <ele>845.657</ele>
        <time>2021-07-21T06:25:46Z</time>
      </trkpt>
      <trkpt lat="42.566136" lon="-5.493216">
        <ele>844.637</ele>
        <time>2021-07-21T06:25:52Z</time>
      </trkpt>
      <trkpt lat="42.565960" lon="-5.492870">
        <ele>843.281</ele>
        <time>2021-07-21T06:26:01Z</time>
      </trkpt>
      <trkpt lat="42.565811" lon="-5.492514">
        <ele>842.249</ele>
        <time>2021-07-21T06:26:09Z</time>
      </trkpt>
      <trkpt lat="42.565694" lon="-5.492105">
        <ele>841.276</ele>
        <time>2021-07-21T06:26:17Z</time>
      </trkpt>
      <trkpt lat="42.565590" lon="-5.491779">
        <ele>841.234</ele>
        <time>2021-07-21T06:26:25Z</time>
      </trkpt>
      <trkpt lat="42.565444" lon="-5.491293">
        <ele>840.833</ele>
        <time>2021-07-21T06:26:36Z</time>
      </trkpt>
      <trkpt lat="42.565370" lon="-5.491030">
        <ele>840.323</ele>
        <time>2021-07-21T06:26:42Z</time>
      </trkpt>
      <trkpt lat="42.565248" lon="-5.490609">
        <ele>839.815</ele>
        <time>2021-07-21T06:26:51Z</time>
      </trkpt>
      <trkpt lat="42.565101" lon="-5.490172">
        <ele>839.308</ele>
        <time>2021-07-21T06:27:00Z</time>
      </trkpt>
      <trkpt lat="42.564905" lon="-5.489643">
        <ele>838.860</ele>
        <time>2021-07-21T06:27:10Z</time>
      </trkpt>
      <trkpt lat="42.564841" lon="-5.489425">
        <ele>838.452</ele>
        <time>2021-07-21T06:27:14Z</time>
      </trkpt>
      <trkpt lat="42.564697" lon="-5.488975">
        <ele>838.479</ele>
        <time>2021-07-21T06:27:23Z</time>
      </trkpt>
      <trkpt lat="42.564590" lon="-5.488684">
        <ele>837.419</ele>
        <time>2021-07-21T06:27:30Z</time>
      </trkpt>
      <trkpt lat="42.564473" lon="-5.488426">
        <ele>836.913</ele>
        <time>2021-07-21T06:27:37Z</time>
      </trkpt>
      <trkpt lat="42.564401" lon="-5.488033">
        <ele>836.951</ele>
        <time>2021-07-21T06:27:45Z</time>
      </trkpt>
      <trkpt lat="42.564405" lon="-5.487546">
        <ele>836.028</ele>
        <time>2021-07-21T06:27:55Z</time>
      </trkpt>
      <trkpt lat="42.564419" lon="-5.487020">
        <ele>835.516</ele>
        <time>2021-07-21T06:28:06Z</time>
      </trkpt>
      <trkpt lat="42.564400" lon="-5.486471">
        <ele>835.072</ele>
        <time>2021-07-21T06:28:17Z</time>
      </trkpt>
      <trkpt lat="42.564251" lon="-5.486218">
        <ele>834.513</ele>
        <time>2021-07-21T06:28:24Z</time>
      </trkpt>
      <trkpt lat="42.564079" lon="-5.486067">
        <ele>835.014</ele>
        <time>2021-07-21T06:28:31Z</time>
      </trkpt>
      <trkpt lat="42.563690" lon="-5.485797">
        <ele>835.008</ele>
        <time>2021-07-21T06:28:43Z</time>
      </trkpt>
      <trkpt lat="42.563482" lon="-5.485587">
        <ele>836.434</ele>
        <time>2021-07-21T06:28:50Z</time>
      </trkpt>
      <trkpt lat="42.563333" lon="-5.485315">
        <ele>837.946</ele>
        <time>2021-07-21T06:28:57Z</time>
      </trkpt>
      <trkpt lat="42.563214" lon="-5.484957">
        <ele>837.953</ele>
        <time>2021-07-21T06:29:05Z</time>
      </trkpt>
      <trkpt lat="42.563150" lon="-5.484767">
        <ele>837.443</ele>
        <time>2021-07-21T06:29:09Z</time>
      </trkpt>
      <trkpt lat="42.563132" lon="-5.484722">
        <ele>837.427</ele>
        <time>2021-07-21T06:29:10Z</time>
      </trkpt>
      <trkpt lat="42.563008" lon="-5.484361">
        <ele>836.995</ele>
        <time>2021-07-21T06:29:18Z</time>
      </trkpt>
      <trkpt lat="42.562927" lon="-5.484156">
        <ele>837.472</ele>
        <time>2021-07-21T06:29:27Z</time>
      </trkpt>
      <trkpt lat="42.562857" lon="-5.483971">
        <ele>837.910</ele>
        <time>2021-07-21T06:29:34Z</time>
      </trkpt>
      <trkpt lat="42.562757" lon="-5.483689">
        <ele>836.921</ele>
        <time>2021-07-21T06:29:41Z</time>
      </trkpt>
      <trkpt lat="42.562621" lon="-5.483319">
        <ele>836.441</ele>
        <time>2021-07-21T06:29:50Z</time>
      </trkpt>
      <trkpt lat="42.562538" lon="-5.483205">
        <ele>836.405</ele>
        <time>2021-07-21T06:29:56Z</time>
      </trkpt>
      <trkpt lat="42.562418" lon="-5.483063">
        <ele>836.908</ele>
        <time>2021-07-21T06:30:02Z</time>
      </trkpt>
      <trkpt lat="42.562142" lon="-5.482708">
        <ele>836.459</ele>
        <time>2021-07-21T06:30:11Z</time>
      </trkpt>
      <trkpt lat="42.561862" lon="-5.482330">
        <ele>837.421</ele>
        <time>2021-07-21T06:30:21Z</time>
      </trkpt>
      <trkpt lat="42.561746" lon="-5.482175">
        <ele>837.478</ele>
        <time>2021-07-21T06:30:25Z</time>
      </trkpt>
      <trkpt lat="42.561714" lon="-5.482138">
        <ele>837.468</ele>
        <time>2021-07-21T06:30:26Z</time>
      </trkpt>
      <trkpt lat="42.561686" lon="-5.482098">
        <ele>836.992</ele>
        <time>2021-07-21T06:30:27Z</time>
      </trkpt>
      <trkpt lat="42.561658" lon="-5.482060">
        <ele>837.420</ele>
        <time>2021-07-21T06:30:28Z</time>
      </trkpt>
      <trkpt lat="42.561630" lon="-5.482021">
        <ele>837.417</ele>
        <time>2021-07-21T06:30:29Z</time>
      </trkpt>
      <trkpt lat="42.561601" lon="-5.481980">
        <ele>836.975</ele>
        <time>2021-07-21T06:30:30Z</time>
      </trkpt>
      <trkpt lat="42.561574" lon="-5.481944">
        <ele>836.928</ele>
        <time>2021-07-21T06:30:31Z</time>
      </trkpt>
      <trkpt lat="42.561316" lon="-5.481572">
        <ele>837.989</ele>
        <time>2021-07-21T06:30:41Z</time>
      </trkpt>
      <trkpt lat="42.561070" lon="-5.481209">
        <ele>838.817</ele>
        <time>2021-07-21T06:30:51Z</time>
      </trkpt>
      <trkpt lat="42.560853" lon="-5.480900">
        <ele>839.308</ele>
        <time>2021-07-21T06:31:00Z</time>
      </trkpt>
      <trkpt lat="42.560573" lon="-5.480600">
        <ele>838.859</ele>
        <time>2021-07-21T06:31:10Z</time>
      </trkpt>
      <trkpt lat="42.560301" lon="-5.480329">
        <ele>838.481</ele>
        <time>2021-07-21T06:31:19Z</time>
      </trkpt>
      <trkpt lat="42.560157" lon="-5.480191">
        <ele>837.918</ele>
        <time>2021-07-21T06:31:23Z</time>
      </trkpt>
      <trkpt lat="42.559961" lon="-5.480000">
        <ele>836.928</ele>
        <time>2021-07-21T06:31:30Z</time>
      </trkpt>
      <trkpt lat="42.559966" lon="-5.480003">
        <ele>836.072</ele>
        <time>2021-07-21T06:31:38Z</time>
      </trkpt>
      <trkpt lat="42.559965" lon="-5.479996">
        <ele>834.090</ele>
        <time>2021-07-21T06:31:57Z</time>
      </trkpt>
      <trkpt lat="42.559964" lon="-5.480015">
        <ele>836.027</ele>
        <time>2021-07-21T06:32:14Z</time>
      </trkpt>
      <trkpt lat="42.559973" lon="-5.480018">
        <ele>836.955</ele>
        <time>2021-07-21T06:32:36Z</time>
      </trkpt>
      <trkpt lat="42.559934" lon="-5.479976">
        <ele>836.498</ele>
        <time>2021-07-21T06:32:44Z</time>
      </trkpt>
      <trkpt lat="42.559768" lon="-5.479814">
        <ele>835.515</ele>
        <time>2021-07-21T06:32:57Z</time>
      </trkpt>
      <trkpt lat="42.559701" lon="-5.479744">
        <ele>835.026</ele>
        <time>2021-07-21T06:33:05Z</time>
      </trkpt>
      <trkpt lat="42.559704" lon="-5.479753">
        <ele>836.008</ele>
        <time>2021-07-21T06:33:19Z</time>
      </trkpt>
      <trkpt lat="42.559670" lon="-5.479705">
        <ele>836.416</ele>
        <time>2021-07-21T06:33:29Z</time>
      </trkpt>
      <trkpt lat="42.559502" lon="-5.479515">
        <ele>836.448</ele>
        <time>2021-07-21T06:33:36Z</time>
      </trkpt>
      <trkpt lat="42.559267" lon="-5.479157">
        <ele>835.045</ele>
        <time>2021-07-21T06:33:45Z</time>
      </trkpt>
      <trkpt lat="42.559167" lon="-5.478974">
        <ele>834.565</ele>
        <time>2021-07-21T06:33:49Z</time>
      </trkpt>
      <trkpt lat="42.558965" lon="-5.478552">
        <ele>834.049</ele>
        <time>2021-07-21T06:33:58Z</time>
      </trkpt>
      <trkpt lat="42.558787" lon="-5.478178">
        <ele>833.197</ele>
        <time>2021-07-21T06:34:06Z</time>
      </trkpt>
      <trkpt lat="42.558508" lon="-5.477616">
        <ele>832.624</ele>
        <time>2021-07-21T06:34:17Z</time>
      </trkpt>
      <trkpt lat="42.558197" lon="-5.477120">
        <ele>832.172</ele>
        <time>2021-07-21T06:34:27Z</time>
      </trkpt>
      <trkpt lat="42.557921" lon="-5.476652">
        <ele>831.645</ele>
        <time>2021-07-21T06:34:36Z</time>
      </trkpt>
      <trkpt lat="42.557713" lon="-5.476328">
        <ele>830.747</ele>
        <time>2021-07-21T06:34:43Z</time>
      </trkpt>
      <trkpt lat="42.557677" lon="-5.476282">
        <ele>830.711</ele>
        <time>2021-07-21T06:34:44Z</time>
      </trkpt>
      <trkpt lat="42.557388" lon="-5.475872">
        <ele>829.708</ele>
        <time>2021-07-21T06:34:53Z</time>
      </trkpt>
      <trkpt lat="42.557160" lon="-5.475559">
        <ele>829.721</ele>
        <time>2021-07-21T06:35:01Z</time>
      </trkpt>
      <trkpt lat="42.557015" lon="-5.475293">
        <ele>828.753</ele>
        <time>2021-07-21T06:35:07Z</time>
      </trkpt>
      <trkpt lat="42.556774" lon="-5.474665">
        <ele>828.790</ele>
        <time>2021-07-21T06:35:19Z</time>
      </trkpt>
      <trkpt lat="42.556568" lon="-5.474116">
        <ele>828.360</ele>
        <time>2021-07-21T06:35:29Z</time>
      </trkpt>
      <trkpt lat="42.556444" lon="-5.473717">
        <ele>828.324</ele>
        <time>2021-07-21T06:35:37Z</time>
      </trkpt>
      <trkpt lat="42.556325" lon="-5.473296">
        <ele>827.332</ele>
        <time>2021-07-21T06:35:46Z</time>
      </trkpt>
      <trkpt lat="42.556131" lon="-5.472876">
        <ele>826.839</ele>
        <time>2021-07-21T06:35:55Z</time>
      </trkpt>
      <trkpt lat="42.555923" lon="-5.472486">
        <ele>826.327</ele>
        <time>2021-07-21T06:36:03Z</time>
      </trkpt>
      <trkpt lat="42.555899" lon="-5.472441">
        <ele>826.382</ele>
        <time>2021-07-21T06:36:04Z</time>
      </trkpt>
      <trkpt lat="42.555824" lon="-5.472241">
        <ele>826.343</ele>
        <time>2021-07-21T06:36:08Z</time>
      </trkpt>
      <trkpt lat="42.555569" lon="-5.471696">
        <ele>826.817</ele>
        <time>2021-07-21T06:36:19Z</time>
      </trkpt>
      <trkpt lat="42.555332" lon="-5.471293">
        <ele>826.308</ele>
        <time>2021-07-21T06:36:28Z</time>
      </trkpt>
      <trkpt lat="42.555070" lon="-5.470888">
        <ele>825.445</ele>
        <time>2021-07-21T06:36:38Z</time>
      </trkpt>
      <trkpt lat="42.554855" lon="-5.470570">
        <ele>824.997</ele>
        <time>2021-07-21T06:36:47Z</time>
      </trkpt>
      <trkpt lat="42.554683" lon="-5.470246">
        <ele>823.944</ele>
        <time>2021-07-21T06:36:56Z</time>
      </trkpt>
      <trkpt lat="42.554409" lon="-5.469969">
        <ele>824.474</ele>
        <time>2021-07-21T06:37:05Z</time>
      </trkpt>
      <trkpt lat="42.554198" lon="-5.469679">
        <ele>824.488</ele>
        <time>2021-07-21T06:37:13Z</time>
      </trkpt>
      <trkpt lat="42.553945" lon="-5.469308">
        <ele>823.926</ele>
        <time>2021-07-21T06:37:22Z</time>
      </trkpt>
      <trkpt lat="42.553761" lon="-5.469067">
        <ele>823.923</ele>
        <time>2021-07-21T06:37:29Z</time>
      </trkpt>
      <trkpt lat="42.553539" lon="-5.468788">
        <ele>823.941</ele>
        <time>2021-07-21T06:37:37Z</time>
      </trkpt>
      <trkpt lat="42.553291" lon="-5.468528">
        <ele>823.088</ele>
        <time>2021-07-21T06:37:45Z</time>
      </trkpt>
      <trkpt lat="42.553255" lon="-5.468499">
        <ele>822.524</ele>
        <time>2021-07-21T06:37:46Z</time>
      </trkpt>
      <trkpt lat="42.553180" lon="-5.468435">
        <ele>822.026</ele>
        <time>2021-07-21T06:37:48Z</time>
      </trkpt>
      <trkpt lat="42.552931" lon="-5.468192">
        <ele>820.108</ele>
        <time>2021-07-21T06:37:55Z</time>
      </trkpt>
      <trkpt lat="42.552789" lon="-5.468065">
        <ele>818.785</ele>
        <time>2021-07-21T06:38:01Z</time>
      </trkpt>
      <trkpt lat="42.552773" lon="-5.468071">
        <ele>818.727</ele>
        <time>2021-07-21T06:38:07Z</time>
      </trkpt>
      <trkpt lat="42.552791" lon="-5.468065">
        <ele>821.174</ele>
        <time>2021-07-21T06:38:31Z</time>
      </trkpt>
      <trkpt lat="42.552787" lon="-5.468056">
        <ele>822.594</ele>
        <time>2021-07-21T06:38:48Z</time>
      </trkpt>
      <trkpt lat="42.552775" lon="-5.468055">
        <ele>821.548</ele>
        <time>2021-07-21T06:39:00Z</time>
      </trkpt>
      <trkpt lat="42.552760" lon="-5.468040">
        <ele>821.126</ele>
        <time>2021-07-21T06:39:06Z</time>
      </trkpt>
      <trkpt lat="42.552618" lon="-5.467900">
        <ele>821.173</ele>
        <time>2021-07-21T06:39:13Z</time>
      </trkpt>
      <trkpt lat="42.552387" lon="-5.467653">
        <ele>820.611</ele>
        <time>2021-07-21T06:39:21Z</time>
      </trkpt>
      <trkpt lat="42.552117" lon="-5.467373">
        <ele>820.174</ele>
        <time>2021-07-21T06:39:30Z</time>
      </trkpt>
      <trkpt lat="42.551824" lon="-5.467026">
        <ele>819.156</ele>
        <time>2021-07-21T06:39:40Z</time>
      </trkpt>
      <trkpt lat="42.551792" lon="-5.466996">
        <ele>819.121</ele>
        <time>2021-07-21T06:39:41Z</time>
      </trkpt>
      <trkpt lat="42.551758" lon="-5.466965">
        <ele>819.108</ele>
        <time>2021-07-21T06:39:42Z</time>
      </trkpt>
      <trkpt lat="42.551569" lon="-5.466758">
        <ele>818.754</ele>
        <time>2021-07-21T06:39:48Z</time>
      </trkpt>
      <trkpt lat="42.551285" lon="-5.466487">
        <ele>817.736</ele>
        <time>2021-07-21T06:39:57Z</time>
      </trkpt>
      <trkpt lat="42.551031" lon="-5.466430">
        <ele>817.283</ele>
        <time>2021-07-21T06:40:04Z</time>
      </trkpt>
      <trkpt lat="42.550950" lon="-5.466490">
        <ele>817.263</ele>
        <time>2021-07-21T06:40:09Z</time>
      </trkpt>
      <trkpt lat="42.550938" lon="-5.466499">
        <ele>817.297</ele>
        <time>2021-07-21T06:40:10Z</time>
      </trkpt>
      <trkpt lat="42.550883" lon="-5.466481">
        <ele>817.745</ele>
        <time>2021-07-21T06:40:13Z</time>
      </trkpt>
      <trkpt lat="42.550862" lon="-5.466457">
        <ele>817.732</ele>
        <time>2021-07-21T06:40:14Z</time>
      </trkpt>
      <trkpt lat="42.550842" lon="-5.466434">
        <ele>818.250</ele>
        <time>2021-07-21T06:40:15Z</time>
      </trkpt>
      <trkpt lat="42.550658" lon="-5.466182">
        <ele>817.762</ele>
        <time>2021-07-21T06:40:23Z</time>
      </trkpt>
      <trkpt lat="42.550490" lon="-5.465936">
        <ele>818.283</ele>
        <time>2021-07-21T06:40:30Z</time>
      </trkpt>
      <trkpt lat="42.550305" lon="-5.465671">
        <ele>818.211</ele>
        <time>2021-07-21T06:40:38Z</time>
      </trkpt>
      <trkpt lat="42.550082" lon="-5.465365">
        <ele>818.708</ele>
        <time>2021-07-21T06:40:47Z</time>
      </trkpt>
      <trkpt lat="42.549788" lon="-5.464943">
        <ele>818.723</ele>
        <time>2021-07-21T06:40:58Z</time>
      </trkpt>
      <trkpt lat="42.549559" lon="-5.464628">
        <ele>818.235</ele>
        <time>2021-07-21T06:41:06Z</time>
      </trkpt>
      <trkpt lat="42.549501" lon="-5.464537">
        <ele>817.742</ele>
        <time>2021-07-21T06:41:08Z</time>
      </trkpt>
      <trkpt lat="42.549217" lon="-5.464145">
        <ele>817.782</ele>
        <time>2021-07-21T06:41:18Z</time>
      </trkpt>
      <trkpt lat="42.549188" lon="-5.464110">
        <ele>817.776</ele>
        <time>2021-07-21T06:41:19Z</time>
      </trkpt>
      <trkpt lat="42.548909" lon="-5.463721">
        <ele>818.274</ele>
        <time>2021-07-21T06:41:28Z</time>
      </trkpt>
      <trkpt lat="42.548627" lon="-5.463313">
        <ele>818.771</ele>
        <time>2021-07-21T06:41:38Z</time>
      </trkpt>
      <trkpt lat="42.548345" lon="-5.462882">
        <ele>818.219</ele>
        <time>2021-07-21T06:41:49Z</time>
      </trkpt>
      <trkpt lat="42.548087" lon="-5.462552">
        <ele>818.246</ele>
        <time>2021-07-21T06:41:58Z</time>
      </trkpt>
      <trkpt lat="42.547892" lon="-5.462297">
        <ele>818.288</ele>
        <time>2021-07-21T06:42:07Z</time>
      </trkpt>
      <trkpt lat="42.547783" lon="-5.462149">
        <ele>818.216</ele>
        <time>2021-07-21T06:42:13Z</time>
      </trkpt>
      <trkpt lat="42.547547" lon="-5.461819">
        <ele>818.208</ele>
        <time>2021-07-21T06:42:23Z</time>
      </trkpt>
      <trkpt lat="42.547316" lon="-5.461486">
        <ele>818.761</ele>
        <time>2021-07-21T06:42:33Z</time>
      </trkpt>
      <trkpt lat="42.547047" lon="-5.461102">
        <ele>818.733</ele>
        <time>2021-07-21T06:42:44Z</time>
      </trkpt>
      <trkpt lat="42.546892" lon="-5.460840">
        <ele>818.720</ele>
        <time>2021-07-21T06:42:52Z</time>
      </trkpt>
      <trkpt lat="42.546728" lon="-5.460636">
        <ele>817.740</ele>
        <time>2021-07-21T06:42:59Z</time>
      </trkpt>
      <trkpt lat="42.546492" lon="-5.460315">
        <ele>817.264</ele>
        <time>2021-07-21T06:43:08Z</time>
      </trkpt>
      <trkpt lat="42.546413" lon="-5.460114">
        <ele>816.762</ele>
        <time>2021-07-21T06:43:14Z</time>
      </trkpt>
      <trkpt lat="42.546421" lon="-5.460087">
        <ele>816.369</ele>
        <time>2021-07-21T06:43:15Z</time>
      </trkpt>
      <trkpt lat="42.546427" lon="-5.460064">
        <ele>816.367</ele>
        <time>2021-07-21T06:43:16Z</time>
      </trkpt>
      <trkpt lat="42.546420" lon="-5.460038">
        <ele>816.314</ele>
        <time>2021-07-21T06:43:17Z</time>
      </trkpt>
      <trkpt lat="42.546398" lon="-5.460025">
        <ele>816.354</ele>
        <time>2021-07-21T06:43:18Z</time>
      </trkpt>
      <trkpt lat="42.546378" lon="-5.460020">
        <ele>816.309</ele>
        <time>2021-07-21T06:43:19Z</time>
      </trkpt>
      <trkpt lat="42.546304" lon="-5.459989">
        <ele>816.308</ele>
        <time>2021-07-21T06:43:23Z</time>
      </trkpt>
      <trkpt lat="42.546293" lon="-5.459968">
        <ele>816.388</ele>
        <time>2021-07-21T06:43:24Z</time>
      </trkpt>
      <trkpt lat="42.546278" lon="-5.459948">
        <ele>816.360</ele>
        <time>2021-07-21T06:43:25Z</time>
      </trkpt>
      <trkpt lat="42.546258" lon="-5.459943">
        <ele>816.377</ele>
        <time>2021-07-21T06:43:26Z</time>
      </trkpt>
      <trkpt lat="42.546234" lon="-5.459930">
        <ele>816.327</ele>
        <time>2021-07-21T06:43:27Z</time>
      </trkpt>
      <trkpt lat="42.546212" lon="-5.459907">
        <ele>816.321</ele>
        <time>2021-07-21T06:43:28Z</time>
      </trkpt>
      <trkpt lat="42.546197" lon="-5.459885">
        <ele>815.849</ele>
        <time>2021-07-21T06:43:29Z</time>
      </trkpt>
      <trkpt lat="42.546175" lon="-5.459854">
        <ele>815.816</ele>
        <time>2021-07-21T06:43:30Z</time>
      </trkpt>
      <trkpt lat="42.545961" lon="-5.459567">
        <ele>815.394</ele>
        <time>2021-07-21T06:43:39Z</time>
      </trkpt>
      <trkpt lat="42.545783" lon="-5.459336">
        <ele>816.712</ele>
        <time>2021-07-21T06:43:47Z</time>
      </trkpt>
      <trkpt lat="42.545611" lon="-5.459118">
        <ele>816.332</ele>
        <time>2021-07-21T06:43:55Z</time>
      </trkpt>
      <trkpt lat="42.545411" lon="-5.458850">
        <ele>814.805</ele>
        <time>2021-07-21T06:44:04Z</time>
      </trkpt>
      <trkpt lat="42.545170" lon="-5.458528">
        <ele>814.308</ele>
        <time>2021-07-21T06:44:15Z</time>
      </trkpt>
      <trkpt lat="42.545065" lon="-5.458378">
        <ele>813.418</ele>
        <time>2021-07-21T06:44:22Z</time>
      </trkpt>
      <trkpt lat="42.544906" lon="-5.458108">
        <ele>812.960</ele>
        <time>2021-07-21T06:44:31Z</time>
      </trkpt>
      <trkpt lat="42.544764" lon="-5.457862">
        <ele>812.457</ele>
        <time>2021-07-21T06:44:38Z</time>
      </trkpt>
      <trkpt lat="42.544620" lon="-5.457543">
        <ele>812.487</ele>
        <time>2021-07-21T06:44:47Z</time>
      </trkpt>
      <trkpt lat="42.544519" lon="-5.457116">
        <ele>811.981</ele>
        <time>2021-07-21T06:44:57Z</time>
      </trkpt>
      <trkpt lat="42.544459" lon="-5.456778">
        <ele>811.429</ele>
        <time>2021-07-21T06:45:04Z</time>
      </trkpt>
      <trkpt lat="42.544384" lon="-5.456358">
        <ele>810.096</ele>
        <time>2021-07-21T06:45:13Z</time>
      </trkpt>
      <trkpt lat="42.544335" lon="-5.456106">
        <ele>808.124</ele>
        <time>2021-07-21T06:45:20Z</time>
      </trkpt>
      <trkpt lat="42.544319" lon="-5.455935">
        <ele>808.135</ele>
        <time>2021-07-21T06:45:27Z</time>
      </trkpt>
      <trkpt lat="42.544233" lon="-5.455731">
        <ele>808.686</ele>
        <time>2021-07-21T06:45:33Z</time>
      </trkpt>
      <trkpt lat="42.544196" lon="-5.455565">
        <ele>809.014</ele>
        <time>2021-07-21T06:45:36Z</time>
      </trkpt>
      <trkpt lat="42.544060" lon="-5.454964">
        <ele>808.608</ele>
        <time>2021-07-21T06:45:46Z</time>
      </trkpt>
      <trkpt lat="42.543960" lon="-5.454442">
        <ele>808.670</ele>
        <time>2021-07-21T06:45:55Z</time>
      </trkpt>
      <trkpt lat="42.543851" lon="-5.453867">
        <ele>809.512</ele>
        <time>2021-07-21T06:46:07Z</time>
      </trkpt>
      <trkpt lat="42.543769" lon="-5.453371">
        <ele>810.049</ele>
        <time>2021-07-21T06:46:17Z</time>
      </trkpt>
      <trkpt lat="42.543685" lon="-5.452709">
        <ele>809.519</ele>
        <time>2021-07-21T06:46:29Z</time>
      </trkpt>
      <trkpt lat="42.543626" lon="-5.452055">
        <ele>809.053</ele>
        <time>2021-07-21T06:46:41Z</time>
      </trkpt>
      <trkpt lat="42.543567" lon="-5.451621">
        <ele>809.091</ele>
        <time>2021-07-21T06:46:49Z</time>
      </trkpt>
      <trkpt lat="42.543453" lon="-5.451212">
        <ele>809.058</ele>
        <time>2021-07-21T06:46:58Z</time>
      </trkpt>
      <trkpt lat="42.543368" lon="-5.450913">
        <ele>809.056</ele>
        <time>2021-07-21T06:47:04Z</time>
      </trkpt>
      <trkpt lat="42.543351" lon="-5.450861">
        <ele>809.075</ele>
        <time>2021-07-21T06:47:05Z</time>
      </trkpt>
      <trkpt lat="42.543174" lon="-5.450375">
        <ele>808.628</ele>
        <time>2021-07-21T06:47:14Z</time>
      </trkpt>
      <trkpt lat="42.543000" lon="-5.450034">
        <ele>808.120</ele>
        <time>2021-07-21T06:47:21Z</time>
      </trkpt>
      <trkpt lat="42.542946" lon="-5.449980">
        <ele>808.108</ele>
        <time>2021-07-21T06:47:23Z</time>
      </trkpt>
      <trkpt lat="42.542911" lon="-5.449983">
        <ele>808.154</ele>
        <time>2021-07-21T06:47:24Z</time>
      </trkpt>
      <trkpt lat="42.542815" lon="-5.450156">
        <ele>807.696</ele>
        <time>2021-07-21T06:47:28Z</time>
      </trkpt>
      <trkpt lat="42.542814" lon="-5.450275">
        <ele>807.653</ele>
        <time>2021-07-21T06:47:32Z</time>
      </trkpt>
      <trkpt lat="42.542805" lon="-5.450284">
        <ele>807.183</ele>
        <time>2021-07-21T06:47:38Z</time>
      </trkpt>
      <trkpt lat="42.542793" lon="-5.450279">
        <ele>810.097</ele>
        <time>2021-07-21T06:47:50Z</time>
      </trkpt>
      <trkpt lat="42.542744" lon="-5.450232">
        <ele>810.095</ele>
        <time>2021-07-21T06:47:54Z</time>
      </trkpt>
      <trkpt lat="42.542726" lon="-5.450213">
        <ele>810.042</ele>
        <time>2021-07-21T06:47:55Z</time>
      </trkpt>
      <trkpt lat="42.542705" lon="-5.450197">
        <ele>810.020</ele>
        <time>2021-07-21T06:47:56Z</time>
      </trkpt>
      <trkpt lat="42.542678" lon="-5.450176">
        <ele>810.023</ele>
        <time>2021-07-21T06:47:57Z</time>
      </trkpt>
      <trkpt lat="42.542320" lon="-5.449903">
        <ele>809.583</ele>
        <time>2021-07-21T06:48:07Z</time>
      </trkpt>
      <trkpt lat="42.541913" lon="-5.449608">
        <ele>808.611</ele>
        <time>2021-07-21T06:48:17Z</time>
      </trkpt>
      <trkpt lat="42.541587" lon="-5.449371">
        <ele>807.608</ele>
        <time>2021-07-21T06:48:25Z</time>
      </trkpt>
      <trkpt lat="42.541263" lon="-5.449132">
        <ele>807.149</ele>
        <time>2021-07-21T06:48:34Z</time>
      </trkpt>
      <trkpt lat="42.541072" lon="-5.449086">
        <ele>806.261</ele>
        <time>2021-07-21T06:48:40Z</time>
      </trkpt>
      <trkpt lat="42.540890" lon="-5.449019">
        <ele>804.268</ele>
        <time>2021-07-21T06:48:46Z</time>
      </trkpt>
      <trkpt lat="42.540609" lon="-5.448824">
        <ele>803.398</ele>
        <time>2021-07-21T06:48:56Z</time>
      </trkpt>
      <trkpt lat="42.540346" lon="-5.448619">
        <ele>804.262</ele>
        <time>2021-07-21T06:49:05Z</time>
      </trkpt>
      <trkpt lat="42.540125" lon="-5.448431">
        <ele>803.870</ele>
        <time>2021-07-21T06:49:12Z</time>
      </trkpt>
      <trkpt lat="42.539773" lon="-5.448175">
        <ele>804.237</ele>
        <time>2021-07-21T06:49:23Z</time>
      </trkpt>
      <trkpt lat="42.539473" lon="-5.447957">
        <ele>804.215</ele>
        <time>2021-07-21T06:49:33Z</time>
      </trkpt>
      <trkpt lat="42.539140" lon="-5.447698">
        <ele>804.295</ele>
        <time>2021-07-21T06:49:44Z</time>
      </trkpt>
      <trkpt lat="42.538896" lon="-5.447509">
        <ele>804.249</ele>
        <time>2021-07-21T06:49:53Z</time>
      </trkpt>
      <trkpt lat="42.538619" lon="-5.447312">
        <ele>804.223</ele>
        <time>2021-07-21T06:50:02Z</time>
      </trkpt>
      <trkpt lat="42.538274" lon="-5.447078">
        <ele>803.808</ele>
        <time>2021-07-21T06:50:12Z</time>
      </trkpt>
      <trkpt lat="42.537962" lon="-5.446859">
        <ele>803.826</ele>
        <time>2021-07-21T06:50:21Z</time>
      </trkpt>
      <trkpt lat="42.537767" lon="-5.446685">
        <ele>804.778</ele>
        <time>2021-07-21T06:50:29Z</time>
      </trkpt>
      <trkpt lat="42.537641" lon="-5.446497">
        <ele>805.235</ele>
        <time>2021-07-21T06:50:37Z</time>
      </trkpt>
      <trkpt lat="42.537391" lon="-5.446306">
        <ele>806.265</ele>
        <time>2021-07-21T06:50:45Z</time>
      </trkpt>
      <trkpt lat="42.537011" lon="-5.446018">
        <ele>806.659</ele>
        <time>2021-07-21T06:50:55Z</time>
      </trkpt>
      <trkpt lat="42.536580" lon="-5.445720">
        <ele>806.687</ele>
        <time>2021-07-21T06:51:05Z</time>
      </trkpt>
      <trkpt lat="42.535960" lon="-5.445251">
        <ele>806.684</ele>
        <time>2021-07-21T06:51:19Z</time>
      </trkpt>
      <trkpt lat="42.535605" lon="-5.444980">
        <ele>806.212</ele>
        <time>2021-07-21T06:51:27Z</time>
      </trkpt>
      <trkpt lat="42.535146" lon="-5.444661">
        <ele>806.293</ele>
        <time>2021-07-21T06:51:37Z</time>
      </trkpt>
      <trkpt lat="42.534619" lon="-5.444274">
        <ele>805.765</ele>
        <time>2021-07-21T06:51:48Z</time>
      </trkpt>
      <trkpt lat="42.534020" lon="-5.443830">
        <ele>805.221</ele>
        <time>2021-07-21T06:52:00Z</time>
      </trkpt>
      <trkpt lat="42.533472" lon="-5.443432">
        <ele>805.208</ele>
        <time>2021-07-21T06:52:11Z</time>
      </trkpt>
      <trkpt lat="42.532885" lon="-5.443004">
        <ele>805.776</ele>
        <time>2021-07-21T06:52:23Z</time>
      </trkpt>
      <trkpt lat="42.532368" lon="-5.442617">
        <ele>805.288</ele>
        <time>2021-07-21T06:52:34Z</time>
      </trkpt>
      <trkpt lat="42.531908" lon="-5.442279">
        <ele>804.765</ele>
        <time>2021-07-21T06:52:44Z</time>
      </trkpt>
      <trkpt lat="42.531487" lon="-5.441973">
        <ele>804.755</ele>
        <time>2021-07-21T06:52:53Z</time>
      </trkpt>
      <trkpt lat="42.530958" lon="-5.441600">
        <ele>804.219</ele>
        <time>2021-07-21T06:53:04Z</time>
      </trkpt>
      <trkpt lat="42.530586" lon="-5.441322">
        <ele>804.787</ele>
        <time>2021-07-21T06:53:12Z</time>
      </trkpt>
      <trkpt lat="42.530048" lon="-5.440925">
        <ele>804.714</ele>
        <time>2021-07-21T06:53:23Z</time>
      </trkpt>
      <trkpt lat="42.529554" lon="-5.440557">
        <ele>804.752</ele>
        <time>2021-07-21T06:53:33Z</time>
      </trkpt>
      <trkpt lat="42.529081" lon="-5.440206">
        <ele>804.283</ele>
        <time>2021-07-21T06:53:43Z</time>
      </trkpt>
      <trkpt lat="42.528637" lon="-5.439887">
        <ele>804.225</ele>
        <time>2021-07-21T06:53:52Z</time>
      </trkpt>
      <trkpt lat="42.528103" lon="-5.439495">
        <ele>804.217</ele>
        <time>2021-07-21T06:54:03Z</time>
      </trkpt>
      <trkpt lat="42.527509" lon="-5.439062">
        <ele>804.208</ele>
        <time>2021-07-21T06:54:15Z</time>
      </trkpt>
      <trkpt lat="42.527062" lon="-5.438729">
        <ele>804.215</ele>
        <time>2021-07-21T06:54:24Z</time>
      </trkpt>
      <trkpt lat="42.526468" lon="-5.438293">
        <ele>804.297</ele>
        <time>2021-07-21T06:54:36Z</time>
      </trkpt>
      <trkpt lat="42.525872" lon="-5.437852">
        <ele>803.844</ele>
        <time>2021-07-21T06:54:48Z</time>
      </trkpt>
      <trkpt lat="42.525233" lon="-5.437384">
        <ele>802.814</ele>
        <time>2021-07-21T06:55:01Z</time>
      </trkpt>
      <trkpt lat="42.524651" lon="-5.436958">
        <ele>802.398</ele>
        <time>2021-07-21T06:55:13Z</time>
      </trkpt>
      <trkpt lat="42.524106" lon="-5.436563">
        <ele>802.336</ele>
        <time>2021-07-21T06:55:24Z</time>
      </trkpt>
      <trkpt lat="42.523595" lon="-5.436189">
        <ele>802.833</ele>
        <time>2021-07-21T06:55:34Z</time>
      </trkpt>
      <trkpt lat="42.523042" lon="-5.435775">
        <ele>803.341</ele>
        <time>2021-07-21T06:55:45Z</time>
      </trkpt>
      <trkpt lat="42.522483" lon="-5.435363">
        <ele>803.827</ele>
        <time>2021-07-21T06:55:56Z</time>
      </trkpt>
      <trkpt lat="42.521977" lon="-5.435001">
        <ele>802.868</ele>
        <time>2021-07-21T06:56:06Z</time>
      </trkpt>
      <trkpt lat="42.521640" lon="-5.434764">
        <ele>802.314</ele>
        <time>2021-07-21T06:56:13Z</time>
      </trkpt>
      <trkpt lat="42.521227" lon="-5.434455">
        <ele>802.808</ele>
        <time>2021-07-21T06:56:21Z</time>
      </trkpt>
      <trkpt lat="42.521171" lon="-5.434425">
        <ele>802.819</ele>
        <time>2021-07-21T06:56:22Z</time>
      </trkpt>
      <trkpt lat="42.521113" lon="-5.434407">
        <ele>802.841</ele>
        <time>2021-07-21T06:56:23Z</time>
      </trkpt>
      <trkpt lat="42.521050" lon="-5.434410">
        <ele>802.848</ele>
        <time>2021-07-21T06:56:24Z</time>
      </trkpt>
      <trkpt lat="42.520992" lon="-5.434431">
        <ele>802.858</ele>
        <time>2021-07-21T06:56:25Z</time>
      </trkpt>
      <trkpt lat="42.520935" lon="-5.434445">
        <ele>802.842</ele>
        <time>2021-07-21T06:56:26Z</time>
      </trkpt>
      <trkpt lat="42.520864" lon="-5.434443">
        <ele>802.370</ele>
        <time>2021-07-21T06:56:27Z</time>
      </trkpt>
      <trkpt lat="42.520796" lon="-5.434416">
        <ele>802.387</ele>
        <time>2021-07-21T06:56:28Z</time>
      </trkpt>
      <trkpt lat="42.520753" lon="-5.434385">
        <ele>802.835</ele>
        <time>2021-07-21T06:56:29Z</time>
      </trkpt>
      <trkpt lat="42.520707" lon="-5.434331">
        <ele>802.346</ele>
        <time>2021-07-21T06:56:30Z</time>
      </trkpt>
      <trkpt lat="42.520671" lon="-5.434267">
        <ele>802.888</ele>
        <time>2021-07-21T06:56:31Z</time>
      </trkpt>
      <trkpt lat="42.520639" lon="-5.434187">
        <ele>802.816</ele>
        <time>2021-07-21T06:56:32Z</time>
      </trkpt>
      <trkpt lat="42.520612" lon="-5.434111">
        <ele>802.808</ele>
        <time>2021-07-21T06:56:33Z</time>
      </trkpt>
      <trkpt lat="42.520577" lon="-5.434042">
        <ele>802.351</ele>
        <time>2021-07-21T06:56:34Z</time>
      </trkpt>
      <trkpt lat="42.520529" lon="-5.433981">
        <ele>802.863</ele>
        <time>2021-07-21T06:56:35Z</time>
      </trkpt>
      <trkpt lat="42.520476" lon="-5.433923">
        <ele>802.850</ele>
        <time>2021-07-21T06:56:36Z</time>
      </trkpt>
      <trkpt lat="42.520116" lon="-5.433633">
        <ele>802.330</ele>
        <time>2021-07-21T06:56:43Z</time>
      </trkpt>
      <trkpt lat="42.519479" lon="-5.433167">
        <ele>801.874</ele>
        <time>2021-07-21T06:56:55Z</time>
      </trkpt>
      <trkpt lat="42.518815" lon="-5.432685">
        <ele>801.482</ele>
        <time>2021-07-21T06:57:08Z</time>
      </trkpt>
      <trkpt lat="42.518359" lon="-5.432348">
        <ele>801.429</ele>
        <time>2021-07-21T06:57:17Z</time>
      </trkpt>
      <trkpt lat="42.517776" lon="-5.431917">
        <ele>801.467</ele>
        <time>2021-07-21T06:57:29Z</time>
      </trkpt>
      <trkpt lat="42.517252" lon="-5.431530">
        <ele>801.434</ele>
        <time>2021-07-21T06:57:40Z</time>
      </trkpt>
      <trkpt lat="42.516632" lon="-5.431070">
        <ele>801.455</ele>
        <time>2021-07-21T06:57:53Z</time>
      </trkpt>
      <trkpt lat="42.516093" lon="-5.430677">
        <ele>801.410</ele>
        <time>2021-07-21T06:58:04Z</time>
      </trkpt>
      <trkpt lat="42.515485" lon="-5.430227">
        <ele>801.408</ele>
        <time>2021-07-21T06:58:16Z</time>
      </trkpt>
      <trkpt lat="42.515026" lon="-5.429906">
        <ele>801.430</ele>
        <time>2021-07-21T06:58:25Z</time>
      </trkpt>
      <trkpt lat="42.514923" lon="-5.429830">
        <ele>801.422</ele>
        <time>2021-07-21T06:58:27Z</time>
      </trkpt>
      <trkpt lat="42.514873" lon="-5.429788">
        <ele>801.469</ele>
        <time>2021-07-21T06:58:28Z</time>
      </trkpt>
      <trkpt lat="42.514404" lon="-5.429444">
        <ele>800.459</ele>
        <time>2021-07-21T06:58:37Z</time>
      </trkpt>
      <trkpt lat="42.513932" lon="-5.429109">
        <ele>799.923</ele>
        <time>2021-07-21T06:58:46Z</time>
      </trkpt>
      <trkpt lat="42.513310" lon="-5.428645">
        <ele>799.451</ele>
        <time>2021-07-21T06:58:58Z</time>
      </trkpt>
      <trkpt lat="42.512845" lon="-5.428300">
        <ele>798.958</ele>
        <time>2021-07-21T06:59:08Z</time>
      </trkpt>
      <trkpt lat="42.512302" lon="-5.427908">
        <ele>798.946</ele>
        <time>2021-07-21T06:59:19Z</time>
      </trkpt>
      <trkpt lat="42.511743" lon="-5.427499">
        <ele>799.424</ele>
        <time>2021-07-21T06:59:30Z</time>
      </trkpt>
      <trkpt lat="42.511198" lon="-5.427106">
        <ele>799.404</ele>
        <time>2021-07-21T06:59:41Z</time>
      </trkpt>
      <trkpt lat="42.510661" lon="-5.426705">
        <ele>798.914</ele>
        <time>2021-07-21T06:59:52Z</time>
      </trkpt>
      <trkpt lat="42.510621" lon="-5.426681">
        <ele>798.908</ele>
        <time>2021-07-21T06:59:53Z</time>
      </trkpt>
      <trkpt lat="42.510579" lon="-5.426667">
        <ele>798.919</ele>
        <time>2021-07-21T06:59:54Z</time>
      </trkpt>
      <trkpt lat="42.510309" lon="-5.426570">
        <ele>798.011</ele>
        <time>2021-07-21T07:00:01Z</time>
      </trkpt>
      <trkpt lat="42.509903" lon="-5.426356">
        <ele>798.048</ele>
        <time>2021-07-21T07:00:11Z</time>
      </trkpt>
      <trkpt lat="42.509858" lon="-5.426341">
        <ele>798.088</ele>
        <time>2021-07-21T07:00:12Z</time>
      </trkpt>
      <trkpt lat="42.509770" lon="-5.426311">
        <ele>798.022</ele>
        <time>2021-07-21T07:00:14Z</time>
      </trkpt>
      <trkpt lat="42.509642" lon="-5.426260">
        <ele>798.060</ele>
        <time>2021-07-21T07:00:17Z</time>
      </trkpt>
      <trkpt lat="42.509367" lon="-5.426156">
        <ele>798.997</ele>
        <time>2021-07-21T07:00:24Z</time>
      </trkpt>
      <trkpt lat="42.509119" lon="-5.426050">
        <ele>798.995</ele>
        <time>2021-07-21T07:00:31Z</time>
      </trkpt>
      <trkpt lat="42.508961" lon="-5.425897">
        <ele>798.568</ele>
        <time>2021-07-21T07:00:36Z</time>
      </trkpt>
      <trkpt lat="42.508943" lon="-5.425851">
        <ele>798.542</ele>
        <time>2021-07-21T07:00:37Z</time>
      </trkpt>
      <trkpt lat="42.508923" lon="-5.425799">
        <ele>798.526</ele>
        <time>2021-07-21T07:00:38Z</time>
      </trkpt>
      <trkpt lat="42.508756" lon="-5.425491">
        <ele>798.008</ele>
        <time>2021-07-21T07:00:45Z</time>
      </trkpt>
      <trkpt lat="42.508726" lon="-5.425455">
        <ele>798.053</ele>
        <time>2021-07-21T07:00:46Z</time>
      </trkpt>
      <trkpt lat="42.508584" lon="-5.425326">
        <ele>798.095</ele>
        <time>2021-07-21T07:00:50Z</time>
      </trkpt>
      <trkpt lat="42.508549" lon="-5.425300">
        <ele>798.512</ele>
        <time>2021-07-21T07:00:51Z</time>
      </trkpt>
      <trkpt lat="42.508178" lon="-5.425025">
        <ele>798.522</ele>
        <time>2021-07-21T07:01:01Z</time>
      </trkpt>
      <trkpt lat="42.507960" lon="-5.424855">
        <ele>798.966</ele>
        <time>2021-07-21T07:01:08Z</time>
      </trkpt>
      <trkpt lat="42.507924" lon="-5.424831">
        <ele>798.914</ele>
        <time>2021-07-21T07:01:09Z</time>
      </trkpt>
      <trkpt lat="42.507888" lon="-5.424809">
        <ele>798.951</ele>
        <time>2021-07-21T07:01:10Z</time>
      </trkpt>
      <trkpt lat="42.507713" lon="-5.424665">
        <ele>799.459</ele>
        <time>2021-07-21T07:01:15Z</time>
      </trkpt>
      <trkpt lat="42.507677" lon="-5.424634">
        <ele>799.995</ele>
        <time>2021-07-21T07:01:16Z</time>
      </trkpt>
      <trkpt lat="42.507638" lon="-5.424610">
        <ele>799.949</ele>
        <time>2021-07-21T07:01:17Z</time>
      </trkpt>
      <trkpt lat="42.507350" lon="-5.424428">
        <ele>799.923</ele>
        <time>2021-07-21T07:01:25Z</time>
      </trkpt>
      <trkpt lat="42.507069" lon="-5.424234">
        <ele>799.908</ele>
        <time>2021-07-21T07:01:33Z</time>
      </trkpt>
      <trkpt lat="42.506790" lon="-5.424021">
        <ele>800.466</ele>
        <time>2021-07-21T07:01:42Z</time>
      </trkpt>
      <trkpt lat="42.506436" lon="-5.423754">
        <ele>800.458</ele>
        <time>2021-07-21T07:01:52Z</time>
      </trkpt>
      <trkpt lat="42.506156" lon="-5.423564">
        <ele>800.935</ele>
        <time>2021-07-21T07:02:00Z</time>
      </trkpt>
      <trkpt lat="42.505935" lon="-5.423376">
        <ele>800.455</ele>
        <time>2021-07-21T07:02:07Z</time>
      </trkpt>
      <trkpt lat="42.505645" lon="-5.423187">
        <ele>800.959</ele>
        <time>2021-07-21T07:02:16Z</time>
      </trkpt>
      <trkpt lat="42.505343" lon="-5.422958">
        <ele>800.927</ele>
        <time>2021-07-21T07:02:25Z</time>
      </trkpt>
      <trkpt lat="42.505309" lon="-5.422932">
        <ele>800.994</ele>
        <time>2021-07-21T07:02:26Z</time>
      </trkpt>
      <trkpt lat="42.504920" lon="-5.422661">
        <ele>800.912</ele>
        <time>2021-07-21T07:02:37Z</time>
      </trkpt>
      <trkpt lat="42.504697" lon="-5.422489">
        <ele>800.454</ele>
        <time>2021-07-21T07:02:44Z</time>
      </trkpt>
      <trkpt lat="42.504432" lon="-5.422280">
        <ele>800.456</ele>
        <time>2021-07-21T07:02:52Z</time>
      </trkpt>
      <trkpt lat="42.504116" lon="-5.422047">
        <ele>800.411</ele>
        <time>2021-07-21T07:03:01Z</time>
      </trkpt>
      <trkpt lat="42.503776" lon="-5.421792">
        <ele>799.908</ele>
        <time>2021-07-21T07:03:11Z</time>
      </trkpt>
      <trkpt lat="42.503405" lon="-5.421521">
        <ele>799.942</ele>
        <time>2021-07-21T07:03:22Z</time>
      </trkpt>
      <trkpt lat="42.503048" lon="-5.421251">
        <ele>799.954</ele>
        <time>2021-07-21T07:03:34Z</time>
      </trkpt>
      <trkpt lat="42.502832" lon="-5.421093">
        <ele>799.951</ele>
        <time>2021-07-21T07:03:41Z</time>
      </trkpt>
      <trkpt lat="42.502733" lon="-5.420910">
        <ele>800.971</ele>
        <time>2021-07-21T07:03:47Z</time>
      </trkpt>
      <trkpt lat="42.502620" lon="-5.420812">
        <ele>801.415</ele>
        <time>2021-07-21T07:03:52Z</time>
      </trkpt>
      <trkpt lat="42.502317" lon="-5.420598">
        <ele>802.323</ele>
        <time>2021-07-21T07:04:02Z</time>
      </trkpt>
      <trkpt lat="42.502033" lon="-5.420388">
        <ele>803.310</ele>
        <time>2021-07-21T07:04:12Z</time>
      </trkpt>
      <trkpt lat="42.501901" lon="-5.420280">
        <ele>803.358</ele>
        <time>2021-07-21T07:04:21Z</time>
      </trkpt>
      <trkpt lat="42.501918" lon="-5.420279">
        <ele>805.247</ele>
        <time>2021-07-21T07:04:32Z</time>
      </trkpt>
      <trkpt lat="42.501917" lon="-5.420271">
        <ele>806.629</ele>
        <time>2021-07-21T07:04:53Z</time>
      </trkpt>
      <trkpt lat="42.501844" lon="-5.420227">
        <ele>806.621</ele>
        <time>2021-07-21T07:04:58Z</time>
      </trkpt>
      <trkpt lat="42.501644" lon="-5.420065">
        <ele>807.608</ele>
        <time>2021-07-21T07:05:06Z</time>
      </trkpt>
      <trkpt lat="42.501369" lon="-5.419904">
        <ele>807.161</ele>
        <time>2021-07-21T07:05:15Z</time>
      </trkpt>
      <trkpt lat="42.501026" lon="-5.419691">
        <ele>808.183</ele>
        <time>2021-07-21T07:05:26Z</time>
      </trkpt>
      <trkpt lat="42.500752" lon="-5.419522">
        <ele>807.160</ele>
        <time>2021-07-21T07:05:34Z</time>
      </trkpt>
      <trkpt lat="42.500435" lon="-5.419323">
        <ele>806.680</ele>
        <time>2021-07-21T07:05:42Z</time>
      </trkpt>
      <trkpt lat="42.500209" lon="-5.419187">
        <ele>805.724</ele>
        <time>2021-07-21T07:05:49Z</time>
      </trkpt>
      <trkpt lat="42.500189" lon="-5.419141">
        <ele>805.762</ele>
        <time>2021-07-21T07:05:50Z</time>
      </trkpt>
      <trkpt lat="42.500184" lon="-5.419100">
        <ele>805.719</ele>
        <time>2021-07-21T07:05:51Z</time>
      </trkpt>
      <trkpt lat="42.500186" lon="-5.419069">
        <ele>805.287</ele>
        <time>2021-07-21T07:05:52Z</time>
      </trkpt>
      <trkpt lat="42.500192" lon="-5.419029">
        <ele>805.259</ele>
        <time>2021-07-21T07:05:53Z</time>
      </trkpt>
      <trkpt lat="42.500195" lon="-5.418984">
        <ele>805.203</ele>
        <time>2021-07-21T07:05:54Z</time>
      </trkpt>
      <trkpt lat="42.500189" lon="-5.418942">
        <ele>805.223</ele>
        <time>2021-07-21T07:05:55Z</time>
      </trkpt>
      <trkpt lat="42.500178" lon="-5.418911">
        <ele>804.708</ele>
        <time>2021-07-21T07:05:56Z</time>
      </trkpt>
      <trkpt lat="42.500163" lon="-5.418881">
        <ele>804.712</ele>
        <time>2021-07-21T07:05:57Z</time>
      </trkpt>
      <trkpt lat="42.500002" lon="-5.418645">
        <ele>804.234</ele>
        <time>2021-07-21T07:06:05Z</time>
      </trkpt>
      <trkpt lat="42.499804" lon="-5.418389">
        <ele>804.741</ele>
        <time>2021-07-21T07:06:14Z</time>
      </trkpt>
      <trkpt lat="42.499652" lon="-5.418219">
        <ele>806.231</ele>
        <time>2021-07-21T07:06:21Z</time>
      </trkpt>
      <trkpt lat="42.499477" lon="-5.418007">
        <ele>806.695</ele>
        <time>2021-07-21T07:06:28Z</time>
      </trkpt>
      <trkpt lat="42.499340" lon="-5.417844">
        <ele>807.133</ele>
        <time>2021-07-21T07:06:34Z</time>
      </trkpt>
      <trkpt lat="42.499139" lon="-5.417621">
        <ele>806.620</ele>
        <time>2021-07-21T07:06:43Z</time>
      </trkpt>
      <trkpt lat="42.498984" lon="-5.417514">
        <ele>807.138</ele>
        <time>2021-07-21T07:06:53Z</time>
      </trkpt>
      <trkpt lat="42.498959" lon="-5.417495">
        <ele>807.618</ele>
        <time>2021-07-21T07:07:01Z</time>
      </trkpt>
      <trkpt lat="42.498956" lon="-5.417378">
        <ele>808.198</ele>
        <time>2021-07-21T07:07:09Z</time>
      </trkpt>
      <trkpt lat="42.498953" lon="-5.417321">
        <ele>809.517</ele>
        <time>2021-07-21T07:07:13Z</time>
      </trkpt>
      <trkpt lat="42.498958" lon="-5.417211">
        <ele>810.508</ele>
        <time>2021-07-21T07:07:22Z</time>
      </trkpt>
      <trkpt lat="42.498943" lon="-5.417224">
        <ele>811.468</ele>
        <time>2021-07-21T07:07:31Z</time>
      </trkpt>
      <trkpt lat="42.498966" lon="-5.417304">
        <ele>811.050</ele>
        <time>2021-07-21T07:07:37Z</time>
      </trkpt>
      <trkpt lat="42.498930" lon="-5.417283">
        <ele>809.577</ele>
        <time>2021-07-21T07:07:42Z</time>
      </trkpt>
      <trkpt lat="42.498907" lon="-5.417226">
        <ele>808.677</ele>
        <time>2021-07-21T07:07:45Z</time>
      </trkpt>
      <trkpt lat="42.498820" lon="-5.416950">
        <ele>806.261</ele>
        <time>2021-07-21T07:07:55Z</time>
      </trkpt>
      <trkpt lat="42.498721" lon="-5.416645">
        <ele>805.769</ele>
        <time>2021-07-21T07:08:05Z</time>
      </trkpt>
      <trkpt lat="42.498687" lon="-5.416529">
        <ele>805.796</ele>
        <time>2021-07-21T07:08:11Z</time>
      </trkpt>
      <trkpt lat="42.498681" lon="-5.416509">
        <ele>805.234</ele>
        <time>2021-07-21T07:08:17Z</time>
      </trkpt>
      <trkpt lat="42.498690" lon="-5.416499">
        <ele>805.753</ele>
        <time>2021-07-21T07:08:38Z</time>
      </trkpt>
      <trkpt lat="42.498661" lon="-5.416444">
        <ele>805.204</ele>
        <time>2021-07-21T07:08:46Z</time>
      </trkpt>
      <trkpt lat="42.498598" lon="-5.416304">
        <ele>804.714</ele>
        <time>2021-07-21T07:08:55Z</time>
      </trkpt>
      <trkpt lat="42.498552" lon="-5.416228">
        <ele>804.708</ele>
        <time>2021-07-21T07:09:03Z</time>
      </trkpt>
      <trkpt lat="42.498540" lon="-5.416199">
        <ele>804.292</ele>
        <time>2021-07-21T07:09:18Z</time>
      </trkpt>
      <trkpt lat="42.498476" lon="-5.416088">
        <ele>805.294</ele>
        <time>2021-07-21T07:09:26Z</time>
      </trkpt>
      <trkpt lat="42.498369" lon="-5.415894">
        <ele>806.291</ele>
        <time>2021-07-21T07:09:34Z</time>
      </trkpt>
      <trkpt lat="42.498247" lon="-5.415697">
        <ele>806.231</ele>
        <time>2021-07-21T07:09:43Z</time>
      </trkpt>
      <trkpt lat="42.498226" lon="-5.415694">
        <ele>806.625</ele>
        <time>2021-07-21T07:09:46Z</time>
      </trkpt>
      <trkpt lat="42.498138" lon="-5.415749">
        <ele>806.633</ele>
        <time>2021-07-21T07:09:53Z</time>
      </trkpt>
      <trkpt lat="42.498079" lon="-5.415648">
        <ele>805.760</ele>
        <time>2021-07-21T07:09:59Z</time>
      </trkpt>
      <trkpt lat="42.498072" lon="-5.415628">
        <ele>805.798</ele>
        <time>2021-07-21T07:10:00Z</time>
      </trkpt>
      <trkpt lat="42.498042" lon="-5.415572">
        <ele>805.714</ele>
        <time>2021-07-21T07:10:08Z</time>
      </trkpt>
      <trkpt lat="42.498035" lon="-5.415568">
        <ele>804.754</ele>
        <time>2021-07-21T07:10:20Z</time>
      </trkpt>
      <trkpt lat="42.498035" lon="-5.415561">
        <ele>804.209</ele>
        <time>2021-07-21T07:10:24Z</time>
      </trkpt>
      <trkpt lat="42.497964" lon="-5.415425">
        <ele>803.808</ele>
        <time>2021-07-21T07:10:30Z</time>
      </trkpt>
      <trkpt lat="42.497864" lon="-5.415275">
        <ele>804.298</ele>
        <time>2021-07-21T07:10:35Z</time>
      </trkpt>
      <trkpt lat="42.497799" lon="-5.415259">
        <ele>804.750</ele>
        <time>2021-07-21T07:10:39Z</time>
      </trkpt>
      <trkpt lat="42.497692" lon="-5.415378">
        <ele>803.867</ele>
        <time>2021-07-21T07:10:49Z</time>
      </trkpt>
      <trkpt lat="42.497750" lon="-5.415357">
        <ele>803.847</ele>
        <time>2021-07-21T07:10:55Z</time>
      </trkpt>
      <trkpt lat="42.497754" lon="-5.415337">
        <ele>803.811</ele>
        <time>2021-07-21T07:10:56Z</time>
      </trkpt>
      <trkpt lat="42.497845" lon="-5.415272">
        <ele>803.849</ele>
        <time>2021-07-21T07:11:05Z</time>
      </trkpt>
      <trkpt lat="42.497847" lon="-5.415276">
        <ele>803.896</ele>
        <time>2021-07-21T07:11:11Z</time>
      </trkpt>
      <trkpt lat="42.497837" lon="-5.415273">
        <ele>803.374</ele>
        <time>2021-07-21T07:11:35Z</time>
      </trkpt>
      <trkpt lat="42.497837" lon="-5.415284">
        <ele>803.814</ele>
        <time>2021-07-21T07:11:50Z</time>
      </trkpt>
      <trkpt lat="42.497839" lon="-5.415258">
        <ele>805.754</ele>
        <time>2021-07-21T07:12:05Z</time>
      </trkpt>
      <trkpt lat="42.497789" lon="-5.415107">
        <ele>803.809</ele>
        <time>2021-07-21T07:12:16Z</time>
      </trkpt>
      <trkpt lat="42.497796" lon="-5.415123">
        <ele>804.208</ele>
        <time>2021-07-21T07:12:27Z</time>
      </trkpt>
      <trkpt lat="42.497796" lon="-5.415163">
        <ele>805.798</ele>
        <time>2021-07-21T07:12:45Z</time>
      </trkpt>
      <trkpt lat="42.497798" lon="-5.415105">
        <ele>803.880</ele>
        <time>2021-07-21T07:13:05Z</time>
      </trkpt>
      <trkpt lat="42.497790" lon="-5.415114">
        <ele>802.847</ele>
        <time>2021-07-21T07:13:24Z</time>
      </trkpt>
      <trkpt lat="42.497788" lon="-5.415076">
        <ele>803.387</ele>
        <time>2021-07-21T07:13:29Z</time>
      </trkpt>
      <trkpt lat="42.497708" lon="-5.415021">
        <ele>803.351</ele>
        <time>2021-07-21T07:13:36Z</time>
      </trkpt>
      <trkpt lat="42.497680" lon="-5.414928">
        <ele>803.379</ele>
        <time>2021-07-21T07:13:40Z</time>
      </trkpt>
      <trkpt lat="42.497668" lon="-5.414898">
        <ele>803.356</ele>
        <time>2021-07-21T07:13:41Z</time>
      </trkpt>
      <trkpt lat="42.497662" lon="-5.414872">
        <ele>803.334</ele>
        <time>2021-07-21T07:13:42Z</time>
      </trkpt>
      <trkpt lat="42.497655" lon="-5.414838">
        <ele>802.886</ele>
        <time>2021-07-21T07:13:43Z</time>
      </trkpt>
      <trkpt lat="42.497549" lon="-5.414462">
        <ele>803.360</ele>
        <time>2021-07-21T07:13:53Z</time>
      </trkpt>
      <trkpt lat="42.497445" lon="-5.414131">
        <ele>803.326</ele>
        <time>2021-07-21T07:14:01Z</time>
      </trkpt>
      <trkpt lat="42.497275" lon="-5.413662">
        <ele>804.208</ele>
        <time>2021-07-21T07:14:11Z</time>
      </trkpt>
      <trkpt lat="42.497062" lon="-5.413168">
        <ele>805.245</ele>
        <time>2021-07-21T07:14:22Z</time>
      </trkpt>
      <trkpt lat="42.496938" lon="-5.412890">
        <ele>805.797</ele>
        <time>2021-07-21T07:14:28Z</time>
      </trkpt>
      <trkpt lat="42.496900" lon="-5.412789">
        <ele>805.734</ele>
        <time>2021-07-21T07:14:30Z</time>
      </trkpt>
      <trkpt lat="42.496723" lon="-5.412377">
        <ele>805.294</ele>
        <time>2021-07-21T07:14:38Z</time>
      </trkpt>
      <trkpt lat="42.496638" lon="-5.412162">
        <ele>805.228</ele>
        <time>2021-07-21T07:14:42Z</time>
      </trkpt>
      <trkpt lat="42.496596" lon="-5.412062">
        <ele>805.736</ele>
        <time>2021-07-21T07:14:44Z</time>
      </trkpt>
      <trkpt lat="42.496572" lon="-5.412011">
        <ele>805.733</ele>
        <time>2021-07-21T07:14:45Z</time>
      </trkpt>
      <trkpt lat="42.496394" lon="-5.411549">
        <ele>806.251</ele>
        <time>2021-07-21T07:14:54Z</time>
      </trkpt>
      <trkpt lat="42.496169" lon="-5.410943">
        <ele>805.785</ele>
        <time>2021-07-21T07:15:06Z</time>
      </trkpt>
      <trkpt lat="42.495971" lon="-5.410434">
        <ele>805.789</ele>
        <time>2021-07-21T07:15:16Z</time>
      </trkpt>
      <trkpt lat="42.495795" lon="-5.409955">
        <ele>805.717</ele>
        <time>2021-07-21T07:15:25Z</time>
      </trkpt>
      <trkpt lat="42.495657" lon="-5.409589">
        <ele>806.208</ele>
        <time>2021-07-21T07:15:32Z</time>
      </trkpt>
      <trkpt lat="42.495597" lon="-5.409436">
        <ele>806.215</ele>
        <time>2021-07-21T07:15:35Z</time>
      </trkpt>
      <trkpt lat="42.495578" lon="-5.409384">
        <ele>806.247</ele>
        <time>2021-07-21T07:15:36Z</time>
      </trkpt>
      <trkpt lat="42.495417" lon="-5.408983">
        <ele>807.644</ele>
        <time>2021-07-21T07:15:45Z</time>
      </trkpt>
      <trkpt lat="42.495248" lon="-5.408623">
        <ele>808.124</ele>
        <time>2021-07-21T07:15:54Z</time>
      </trkpt>
      <trkpt lat="42.495064" lon="-5.408386">
        <ele>809.528</ele>
        <time>2021-07-21T07:16:03Z</time>
      </trkpt>
      <trkpt lat="42.494797" lon="-5.408226">
        <ele>811.476</ele>
        <time>2021-07-21T07:16:14Z</time>
      </trkpt>
      <trkpt lat="42.494539" lon="-5.408042">
        <ele>812.953</ele>
        <time>2021-07-21T07:16:25Z</time>
      </trkpt>
      <trkpt lat="42.494428" lon="-5.407866">
        <ele>813.861</ele>
        <time>2021-07-21T07:16:32Z</time>
      </trkpt>
      <trkpt lat="42.494366" lon="-5.407526">
        <ele>814.378</ele>
        <time>2021-07-21T07:16:41Z</time>
      </trkpt>
      <trkpt lat="42.494359" lon="-5.407189">
        <ele>814.333</ele>
        <time>2021-07-21T07:16:50Z</time>
      </trkpt>
      <trkpt lat="42.494312" lon="-5.406945">
        <ele>814.326</ele>
        <time>2021-07-21T07:16:56Z</time>
      </trkpt>
      <trkpt lat="42.494186" lon="-5.406570">
        <ele>813.408</ele>
        <time>2021-07-21T07:17:03Z</time>
      </trkpt>
      <trkpt lat="42.493997" lon="-5.406036">
        <ele>811.044</ele>
        <time>2021-07-21T07:17:11Z</time>
      </trkpt>
      <trkpt lat="42.493786" lon="-5.405424">
        <ele>808.176</ele>
        <time>2021-07-21T07:17:18Z</time>
      </trkpt>
      <trkpt lat="42.493633" lon="-5.405030">
        <ele>807.153</ele>
        <time>2021-07-21T07:17:23Z</time>
      </trkpt>
      <trkpt lat="42.493482" lon="-5.404709">
        <ele>807.113</ele>
        <time>2021-07-21T07:17:29Z</time>
      </trkpt>
      <trkpt lat="42.493278" lon="-5.404276">
        <ele>807.197</ele>
        <time>2021-07-21T07:17:39Z</time>
      </trkpt>
      <trkpt lat="42.493063" lon="-5.403775">
        <ele>807.695</ele>
        <time>2021-07-21T07:17:49Z</time>
      </trkpt>
      <trkpt lat="42.492843" lon="-5.403271">
        <ele>808.132</ele>
        <time>2021-07-21T07:17:59Z</time>
      </trkpt>
      <trkpt lat="42.492591" lon="-5.402678">
        <ele>808.130</ele>
        <time>2021-07-21T07:18:11Z</time>
      </trkpt>
      <trkpt lat="42.492443" lon="-5.402377">
        <ele>808.635</ele>
        <time>2021-07-21T07:18:18Z</time>
      </trkpt>
      <trkpt lat="42.492414" lon="-5.402369">
        <ele>808.186</ele>
        <time>2021-07-21T07:18:19Z</time>
      </trkpt>
      <trkpt lat="42.492394" lon="-5.402371">
        <ele>808.114</ele>
        <time>2021-07-21T07:18:20Z</time>
      </trkpt>
      <trkpt lat="42.492376" lon="-5.402375">
        <ele>808.108</ele>
        <time>2021-07-21T07:18:21Z</time>
      </trkpt>
      <trkpt lat="42.492370" lon="-5.402386">
        <ele>807.690</ele>
        <time>2021-07-21T07:18:26Z</time>
      </trkpt>
      <trkpt lat="42.492378" lon="-5.402383">
        <ele>807.182</ele>
        <time>2021-07-21T07:18:37Z</time>
      </trkpt>
      <trkpt lat="42.492380" lon="-5.402386">
        <ele>807.189</ele>
        <time>2021-07-21T07:18:59Z</time>
      </trkpt>
      <trkpt lat="42.492385" lon="-5.402387">
        <ele>806.679</ele>
        <time>2021-07-21T07:19:15Z</time>
      </trkpt>
      <trkpt lat="42.492381" lon="-5.402393">
        <ele>806.293</ele>
        <time>2021-07-21T07:19:30Z</time>
      </trkpt>
      <trkpt lat="42.492382" lon="-5.402394">
        <ele>806.661</ele>
        <time>2021-07-21T07:19:42Z</time>
      </trkpt>
      <trkpt lat="42.492380" lon="-5.402391">
        <ele>806.268</ele>
        <time>2021-07-21T07:19:57Z</time>
      </trkpt>
      <trkpt lat="42.492377" lon="-5.402390">
        <ele>806.626</ele>
        <time>2021-07-21T07:20:10Z</time>
      </trkpt>
      <trkpt lat="42.492380" lon="-5.402391">
        <ele>806.638</ele>
        <time>2021-07-21T07:20:25Z</time>
      </trkpt>
      <trkpt lat="42.492378" lon="-5.402386">
        <ele>807.170</ele>
        <time>2021-07-21T07:20:39Z</time>
      </trkpt>
      <trkpt lat="42.492382" lon="-5.402393">
        <ele>807.117</ele>
        <time>2021-07-21T07:20:55Z</time>
      </trkpt>
      <trkpt lat="42.492374" lon="-5.402391">
        <ele>807.108</ele>
        <time>2021-07-21T07:21:00Z</time>
      </trkpt>
      <trkpt lat="42.492363" lon="-5.402387">
        <ele>807.150</ele>
        <time>2021-07-21T07:21:01Z</time>
      </trkpt>
      <trkpt lat="42.492356" lon="-5.402376">
        <ele>807.172</ele>
        <time>2021-07-21T07:21:02Z</time>
      </trkpt>
      <trkpt lat="42.492355" lon="-5.402357">
        <ele>807.169</ele>
        <time>2021-07-21T07:21:03Z</time>
      </trkpt>
      <trkpt lat="42.492368" lon="-5.402343">
        <ele>807.159</ele>
        <time>2021-07-21T07:21:04Z</time>
      </trkpt>
      <trkpt lat="42.492384" lon="-5.402338">
        <ele>807.133</ele>
        <time>2021-07-21T07:21:05Z</time>
      </trkpt>
      <trkpt lat="42.492401" lon="-5.402326">
        <ele>807.161</ele>
        <time>2021-07-21T07:21:06Z</time>
      </trkpt>
      <trkpt lat="42.492412" lon="-5.402306">
        <ele>807.158</ele>
        <time>2021-07-21T07:21:07Z</time>
      </trkpt>
      <trkpt lat="42.492416" lon="-5.402263">
        <ele>807.176</ele>
        <time>2021-07-21T07:21:08Z</time>
      </trkpt>
      <trkpt lat="42.492407" lon="-5.402231">
        <ele>807.117</ele>
        <time>2021-07-21T07:21:09Z</time>
      </trkpt>
      <trkpt lat="42.492394" lon="-5.402195">
        <ele>807.187</ele>
        <time>2021-07-21T07:21:10Z</time>
      </trkpt>
      <trkpt lat="42.492378" lon="-5.402155">
        <ele>807.115</ele>
        <time>2021-07-21T07:21:11Z</time>
      </trkpt>
      <trkpt lat="42.492206" lon="-5.401753">
        <ele>807.108</ele>
        <time>2021-07-21T07:21:20Z</time>
      </trkpt>
      <trkpt lat="42.492048" lon="-5.401357">
        <ele>807.118</ele>
        <time>2021-07-21T07:21:28Z</time>
      </trkpt>
      <trkpt lat="42.491839" lon="-5.400884">
        <ele>806.660</ele>
        <time>2021-07-21T07:21:37Z</time>
      </trkpt>
      <trkpt lat="42.491637" lon="-5.400413">
        <ele>806.687</ele>
        <time>2021-07-21T07:21:47Z</time>
      </trkpt>
      <trkpt lat="42.491467" lon="-5.400014">
        <ele>807.167</ele>
        <time>2021-07-21T07:21:55Z</time>
      </trkpt>
      <trkpt lat="42.491237" lon="-5.399483">
        <ele>807.121</ele>
        <time>2021-07-21T07:22:05Z</time>
      </trkpt>
      <trkpt lat="42.490957" lon="-5.398816">
        <ele>807.689</ele>
        <time>2021-07-21T07:22:17Z</time>
      </trkpt>
      <trkpt lat="42.490697" lon="-5.398205">
        <ele>807.696</ele>
        <time>2021-07-21T07:22:28Z</time>
      </trkpt>
      <trkpt lat="42.490430" lon="-5.397585">
        <ele>807.154</ele>
        <time>2021-07-21T07:22:39Z</time>
      </trkpt>
      <trkpt lat="42.490192" lon="-5.397018">
        <ele>807.614</ele>
        <time>2021-07-21T07:22:49Z</time>
      </trkpt>
      <trkpt lat="42.489985" lon="-5.396526">
        <ele>808.154</ele>
        <time>2021-07-21T07:22:58Z</time>
      </trkpt>
      <trkpt lat="42.489682" lon="-5.395815">
        <ele>807.609</ele>
        <time>2021-07-21T07:23:11Z</time>
      </trkpt>
      <trkpt lat="42.489295" lon="-5.394909">
        <ele>808.108</ele>
        <time>2021-07-21T07:23:27Z</time>
      </trkpt>
      <trkpt lat="42.489062" lon="-5.394361">
        <ele>807.628</ele>
        <time>2021-07-21T07:23:37Z</time>
      </trkpt>
      <trkpt lat="42.488820" lon="-5.393774">
        <ele>808.170</ele>
        <time>2021-07-21T07:23:48Z</time>
      </trkpt>
      <trkpt lat="42.488649" lon="-5.393392">
        <ele>808.157</ele>
        <time>2021-07-21T07:23:56Z</time>
      </trkpt>
      <trkpt lat="42.488467" lon="-5.392958">
        <ele>808.147</ele>
        <time>2021-07-21T07:24:05Z</time>
      </trkpt>
      <trkpt lat="42.488287" lon="-5.392536">
        <ele>808.641</ele>
        <time>2021-07-21T07:24:13Z</time>
      </trkpt>
      <trkpt lat="42.488036" lon="-5.391929">
        <ele>809.069</ele>
        <time>2021-07-21T07:24:24Z</time>
      </trkpt>
      <trkpt lat="42.487789" lon="-5.391349">
        <ele>809.516</ele>
        <time>2021-07-21T07:24:35Z</time>
      </trkpt>
      <trkpt lat="42.487674" lon="-5.391083">
        <ele>809.594</ele>
        <time>2021-07-21T07:24:40Z</time>
      </trkpt>
      <trkpt lat="42.487416" lon="-5.390491">
        <ele>809.598</ele>
        <time>2021-07-21T07:24:51Z</time>
      </trkpt>
      <trkpt lat="42.487182" lon="-5.389947">
        <ele>809.015</ele>
        <time>2021-07-21T07:25:01Z</time>
      </trkpt>
      <trkpt lat="42.486912" lon="-5.389323">
        <ele>809.026</ele>
        <time>2021-07-21T07:25:12Z</time>
      </trkpt>
      <trkpt lat="42.486682" lon="-5.388789">
        <ele>809.008</ele>
        <time>2021-07-21T07:25:22Z</time>
      </trkpt>
      <trkpt lat="42.486400" lon="-5.388131">
        <ele>809.056</ele>
        <time>2021-07-21T07:25:34Z</time>
      </trkpt>
      <trkpt lat="42.486231" lon="-5.387739">
        <ele>809.598</ele>
        <time>2021-07-21T07:25:41Z</time>
      </trkpt>
      <trkpt lat="42.486207" lon="-5.387685">
        <ele>809.595</ele>
        <time>2021-07-21T07:25:42Z</time>
      </trkpt>
      <trkpt lat="42.485992" lon="-5.387176">
        <ele>809.055</ele>
        <time>2021-07-21T07:25:51Z</time>
      </trkpt>
      <trkpt lat="42.485875" lon="-5.386903">
        <ele>809.529</ele>
        <time>2021-07-21T07:25:56Z</time>
      </trkpt>
      <trkpt lat="42.485663" lon="-5.386406">
        <ele>809.557</ele>
        <time>2021-07-21T07:26:05Z</time>
      </trkpt>
      <trkpt lat="42.485420" lon="-5.385786">
        <ele>809.084</ele>
        <time>2021-07-21T07:26:16Z</time>
      </trkpt>
      <trkpt lat="42.485278" lon="-5.385323">
        <ele>809.562</ele>
        <time>2021-07-21T07:26:24Z</time>
      </trkpt>
      <trkpt lat="42.485100" lon="-5.384747">
        <ele>809.583</ele>
        <time>2021-07-21T07:26:34Z</time>
      </trkpt>
      <trkpt lat="42.484923" lon="-5.384185">
        <ele>809.525</ele>
        <time>2021-07-21T07:26:44Z</time>
      </trkpt>
      <trkpt lat="42.484760" lon="-5.383643">
        <ele>810.517</ele>
        <time>2021-07-21T07:26:54Z</time>
      </trkpt>
      <trkpt lat="42.484587" lon="-5.383072">
        <ele>811.008</ele>
        <time>2021-07-21T07:27:05Z</time>
      </trkpt>
      <trkpt lat="42.484420" lon="-5.382541">
        <ele>811.495</ele>
        <time>2021-07-21T07:27:15Z</time>
      </trkpt>
      <trkpt lat="42.484293" lon="-5.382107">
        <ele>811.967</ele>
        <time>2021-07-21T07:27:23Z</time>
      </trkpt>
      <trkpt lat="42.484276" lon="-5.382054">
        <ele>811.964</ele>
        <time>2021-07-21T07:27:24Z</time>
      </trkpt>
      <trkpt lat="42.484258" lon="-5.382001">
        <ele>811.934</ele>
        <time>2021-07-21T07:27:25Z</time>
      </trkpt>
      <trkpt lat="42.484091" lon="-5.381447">
        <ele>812.428</ele>
        <time>2021-07-21T07:27:35Z</time>
      </trkpt>
      <trkpt lat="42.483922" lon="-5.380880">
        <ele>812.496</ele>
        <time>2021-07-21T07:27:45Z</time>
      </trkpt>
      <trkpt lat="42.483710" lon="-5.380199">
        <ele>811.983</ele>
        <time>2021-07-21T07:27:57Z</time>
      </trkpt>
      <trkpt lat="42.483529" lon="-5.379593">
        <ele>812.921</ele>
        <time>2021-07-21T07:28:08Z</time>
      </trkpt>
      <trkpt lat="42.483380" lon="-5.379099">
        <ele>813.492</ele>
        <time>2021-07-21T07:28:17Z</time>
      </trkpt>
      <trkpt lat="42.483263" lon="-5.378717">
        <ele>813.873</ele>
        <time>2021-07-21T07:28:24Z</time>
      </trkpt>
      <trkpt lat="42.483248" lon="-5.378663">
        <ele>813.820</ele>
        <time>2021-07-21T07:28:25Z</time>
      </trkpt>
      <trkpt lat="42.483073" lon="-5.378090">
        <ele>813.408</ele>
        <time>2021-07-21T07:28:35Z</time>
      </trkpt>
      <trkpt lat="42.482878" lon="-5.377464">
        <ele>813.456</ele>
        <time>2021-07-21T07:28:46Z</time>
      </trkpt>
      <trkpt lat="42.482679" lon="-5.376835">
        <ele>812.978</ele>
        <time>2021-07-21T07:28:57Z</time>
      </trkpt>
      <trkpt lat="42.482482" lon="-5.376192">
        <ele>813.485</ele>
        <time>2021-07-21T07:29:08Z</time>
      </trkpt>
      <trkpt lat="42.482291" lon="-5.375570">
        <ele>814.385</ele>
        <time>2021-07-21T07:29:19Z</time>
      </trkpt>
      <trkpt lat="42.482122" lon="-5.375007">
        <ele>814.379</ele>
        <time>2021-07-21T07:29:29Z</time>
      </trkpt>
      <trkpt lat="42.481903" lon="-5.374328">
        <ele>814.897</ele>
        <time>2021-07-21T07:29:41Z</time>
      </trkpt>
      <trkpt lat="42.481811" lon="-5.374050">
        <ele>814.824</ele>
        <time>2021-07-21T07:29:46Z</time>
      </trkpt>
      <trkpt lat="42.481793" lon="-5.373997">
        <ele>814.812</ele>
        <time>2021-07-21T07:29:47Z</time>
      </trkpt>
      <trkpt lat="42.481650" lon="-5.373534">
        <ele>816.357</ele>
        <time>2021-07-21T07:29:57Z</time>
      </trkpt>
      <trkpt lat="42.481558" lon="-5.373227">
        <ele>817.700</ele>
        <time>2021-07-21T07:30:06Z</time>
      </trkpt>
      <trkpt lat="42.481473" lon="-5.372958">
        <ele>819.120</ele>
        <time>2021-07-21T07:30:15Z</time>
      </trkpt>
      <trkpt lat="42.481384" lon="-5.372659">
        <ele>820.608</ele>
        <time>2021-07-21T07:30:25Z</time>
      </trkpt>
      <trkpt lat="42.481279" lon="-5.372342">
        <ele>822.582</ele>
        <time>2021-07-21T07:30:36Z</time>
      </trkpt>
      <trkpt lat="42.481165" lon="-5.371976">
        <ele>823.934</ele>
        <time>2021-07-21T07:30:48Z</time>
      </trkpt>
      <trkpt lat="42.481041" lon="-5.371562">
        <ele>824.441</ele>
        <time>2021-07-21T07:30:59Z</time>
      </trkpt>
      <trkpt lat="42.480907" lon="-5.371125">
        <ele>823.971</ele>
        <time>2021-07-21T07:31:09Z</time>
      </trkpt>
      <trkpt lat="42.480800" lon="-5.370778">
        <ele>823.565</ele>
        <time>2021-07-21T07:31:16Z</time>
      </trkpt>
      <trkpt lat="42.480652" lon="-5.370302">
        <ele>820.643</ele>
        <time>2021-07-21T07:31:23Z</time>
      </trkpt>
      <trkpt lat="42.480442" lon="-5.369616">
        <ele>817.290</ele>
        <time>2021-07-21T07:31:30Z</time>
      </trkpt>
      <trkpt lat="42.480186" lon="-5.368721">
        <ele>815.388</ele>
        <time>2021-07-21T07:31:38Z</time>
      </trkpt>
      <trkpt lat="42.479963" lon="-5.367993">
        <ele>815.324</ele>
        <time>2021-07-21T07:31:46Z</time>
      </trkpt>
      <trkpt lat="42.479821" lon="-5.367498">
        <ele>815.804</ele>
        <time>2021-07-21T07:31:53Z</time>
      </trkpt>
      <trkpt lat="42.479688" lon="-5.367120">
        <ele>815.814</ele>
        <time>2021-07-21T07:32:00Z</time>
      </trkpt>
      <trkpt lat="42.479511" lon="-5.366657">
        <ele>817.708</ele>
        <time>2021-07-21T07:32:09Z</time>
      </trkpt>
      <trkpt lat="42.479371" lon="-5.366221">
        <ele>820.199</ele>
        <time>2021-07-21T07:32:18Z</time>
      </trkpt>
      <trkpt lat="42.479280" lon="-5.365943">
        <ele>820.611</ele>
        <time>2021-07-21T07:32:24Z</time>
      </trkpt>
      <trkpt lat="42.479151" lon="-5.365468">
        <ele>821.598</ele>
        <time>2021-07-21T07:32:34Z</time>
      </trkpt>
      <trkpt lat="42.478967" lon="-5.364961">
        <ele>821.558</ele>
        <time>2021-07-21T07:32:44Z</time>
      </trkpt>
      <trkpt lat="42.478726" lon="-5.364441">
        <ele>822.542</ele>
        <time>2021-07-21T07:32:55Z</time>
      </trkpt>
      <trkpt lat="42.478447" lon="-5.363843">
        <ele>822.530</ele>
        <time>2021-07-21T07:33:08Z</time>
      </trkpt>
      <trkpt lat="42.478313" lon="-5.363557">
        <ele>823.017</ele>
        <time>2021-07-21T07:33:15Z</time>
      </trkpt>
      <trkpt lat="42.478247" lon="-5.363415">
        <ele>823.055</ele>
        <time>2021-07-21T07:33:18Z</time>
      </trkpt>
      <trkpt lat="42.478037" lon="-5.362956">
        <ele>823.028</ele>
        <time>2021-07-21T07:33:27Z</time>
      </trkpt>
      <trkpt lat="42.477860" lon="-5.362564">
        <ele>823.089</ele>
        <time>2021-07-21T07:33:35Z</time>
      </trkpt>
      <trkpt lat="42.477655" lon="-5.362128">
        <ele>823.017</ele>
        <time>2021-07-21T07:33:44Z</time>
      </trkpt>
      <trkpt lat="42.477436" lon="-5.361662">
        <ele>823.008</ele>
        <time>2021-07-21T07:33:53Z</time>
      </trkpt>
      <trkpt lat="42.477220" lon="-5.361185">
        <ele>823.539</ele>
        <time>2021-07-21T07:34:02Z</time>
      </trkpt>
      <trkpt lat="42.477009" lon="-5.360742">
        <ele>823.571</ele>
        <time>2021-07-21T07:34:11Z</time>
      </trkpt>
      <trkpt lat="42.476764" lon="-5.360222">
        <ele>823.528</ele>
        <time>2021-07-21T07:34:21Z</time>
      </trkpt>
      <trkpt lat="42.476536" lon="-5.359732">
        <ele>823.518</ele>
        <time>2021-07-21T07:34:30Z</time>
      </trkpt>
      <trkpt lat="42.476265" lon="-5.359150">
        <ele>823.092</ele>
        <time>2021-07-21T07:34:41Z</time>
      </trkpt>
      <trkpt lat="42.476116" lon="-5.358817">
        <ele>823.090</ele>
        <time>2021-07-21T07:34:49Z</time>
      </trkpt>
      <trkpt lat="42.476020" lon="-5.358642">
        <ele>823.097</ele>
        <time>2021-07-21T07:34:53Z</time>
      </trkpt>
      <trkpt lat="42.475987" lon="-5.358604">
        <ele>823.025</ele>
        <time>2021-07-21T07:34:54Z</time>
      </trkpt>
      <trkpt lat="42.475619" lon="-5.358194">
        <ele>823.064</ele>
        <time>2021-07-21T07:35:04Z</time>
      </trkpt>
      <trkpt lat="42.475169" lon="-5.357689">
        <ele>823.006</ele>
        <time>2021-07-21T07:35:15Z</time>
      </trkpt>
      <trkpt lat="42.474857" lon="-5.357285">
        <ele>823.016</ele>
        <time>2021-07-21T07:35:23Z</time>
      </trkpt>
      <trkpt lat="42.474727" lon="-5.357073">
        <ele>822.508</ele>
        <time>2021-07-21T07:35:27Z</time>
      </trkpt>
      <trkpt lat="42.474700" lon="-5.357017">
        <ele>823.043</ele>
        <time>2021-07-21T07:35:28Z</time>
      </trkpt>
      <trkpt lat="42.474496" lon="-5.356567">
        <ele>822.595</ele>
        <time>2021-07-21T07:35:37Z</time>
      </trkpt>
      <trkpt lat="42.474340" lon="-5.356258">
        <ele>822.582</ele>
        <time>2021-07-21T07:35:44Z</time>
      </trkpt>
      <trkpt lat="42.474184" lon="-5.355849">
        <ele>823.012</ele>
        <time>2021-07-21T07:35:53Z</time>
      </trkpt>
      <trkpt lat="42.474007" lon="-5.355576">
        <ele>823.076</ele>
        <time>2021-07-21T07:36:01Z</time>
      </trkpt>
      <trkpt lat="42.473749" lon="-5.355255">
        <ele>825.934</ele>
        <time>2021-07-21T07:36:11Z</time>
      </trkpt>
      <trkpt lat="42.473549" lon="-5.355006">
        <ele>826.391</ele>
        <time>2021-07-21T07:36:19Z</time>
      </trkpt>
      <trkpt lat="42.473387" lon="-5.354710">
        <ele>828.379</ele>
        <time>2021-07-21T07:36:27Z</time>
      </trkpt>
      <trkpt lat="42.473278" lon="-5.354445">
        <ele>829.242</ele>
        <time>2021-07-21T07:36:34Z</time>
      </trkpt>
      <trkpt lat="42.473170" lon="-5.354172">
        <ele>830.722</ele>
        <time>2021-07-21T07:36:43Z</time>
      </trkpt>
      <trkpt lat="42.473101" lon="-5.353976">
        <ele>832.614</ele>
        <time>2021-07-21T07:36:50Z</time>
      </trkpt>
      <trkpt lat="42.472979" lon="-5.353712">
        <ele>833.608</ele>
        <time>2021-07-21T07:36:59Z</time>
      </trkpt>
      <trkpt lat="42.472822" lon="-5.353461">
        <ele>833.631</ele>
        <time>2021-07-21T07:37:09Z</time>
      </trkpt>
      <trkpt lat="42.472677" lon="-5.353263">
        <ele>835.083</ele>
        <time>2021-07-21T07:37:17Z</time>
      </trkpt>
      <trkpt lat="42.472524" lon="-5.353020">
        <ele>836.030</ele>
        <time>2021-07-21T07:37:27Z</time>
      </trkpt>
      <trkpt lat="42.472499" lon="-5.352982">
        <ele>836.020</ele>
        <time>2021-07-21T07:37:32Z</time>
      </trkpt>
      <trkpt lat="42.472495" lon="-5.352961">
        <ele>836.414</ele>
        <time>2021-07-21T07:37:37Z</time>
      </trkpt>
      <trkpt lat="42.472472" lon="-5.352893">
        <ele>836.992</ele>
        <time>2021-07-21T07:37:41Z</time>
      </trkpt>
      <trkpt lat="42.472430" lon="-5.352650">
        <ele>838.829</ele>
        <time>2021-07-21T07:37:49Z</time>
      </trkpt>
      <trkpt lat="42.472343" lon="-5.352442">
        <ele>838.487</ele>
        <time>2021-07-21T07:37:55Z</time>
      </trkpt>
      <trkpt lat="42.472218" lon="-5.352164">
        <ele>838.423</ele>
        <time>2021-07-21T07:38:04Z</time>
      </trkpt>
      <trkpt lat="42.472093" lon="-5.351830">
        <ele>838.483</ele>
        <time>2021-07-21T07:38:14Z</time>
      </trkpt>
      <trkpt lat="42.472020" lon="-5.351524">
        <ele>838.411</ele>
        <time>2021-07-21T07:38:22Z</time>
      </trkpt>
      <trkpt lat="42.471918" lon="-5.351112">
        <ele>838.408</ele>
        <time>2021-07-21T07:38:32Z</time>
      </trkpt>
      <trkpt lat="42.471830" lon="-5.350745">
        <ele>838.879</ele>
        <time>2021-07-21T07:38:42Z</time>
      </trkpt>
      <trkpt lat="42.471733" lon="-5.350342">
        <ele>840.341</ele>
        <time>2021-07-21T07:38:53Z</time>
      </trkpt>
      <trkpt lat="42.471613" lon="-5.350053">
        <ele>841.278</ele>
        <time>2021-07-21T07:39:02Z</time>
      </trkpt>
      <trkpt lat="42.471466" lon="-5.349676">
        <ele>843.658</ele>
        <time>2021-07-21T07:39:14Z</time>
      </trkpt>
      <trkpt lat="42.471359" lon="-5.349382">
        <ele>844.632</ele>
        <time>2021-07-21T07:39:23Z</time>
      </trkpt>
      <trkpt lat="42.471250" lon="-5.349098">
        <ele>845.650</ele>
        <time>2021-07-21T07:39:32Z</time>
      </trkpt>
      <trkpt lat="42.471117" lon="-5.348772">
        <ele>846.537</ele>
        <time>2021-07-21T07:39:43Z</time>
      </trkpt>
      <trkpt lat="42.471009" lon="-5.348500">
        <ele>847.535</ele>
        <time>2021-07-21T07:39:52Z</time>
      </trkpt>
      <trkpt lat="42.470890" lon="-5.348201">
        <ele>848.051</ele>
        <time>2021-07-21T07:40:02Z</time>
      </trkpt>
      <trkpt lat="42.470819" lon="-5.348043">
        <ele>848.901</ele>
        <time>2021-07-21T07:40:10Z</time>
      </trkpt>
      <trkpt lat="42.470719" lon="-5.347767">
        <ele>849.911</ele>
        <time>2021-07-21T07:40:19Z</time>
      </trkpt>
      <trkpt lat="42.470675" lon="-5.347509">
        <ele>851.308</ele>
        <time>2021-07-21T07:40:27Z</time>
      </trkpt>
      <trkpt lat="42.470638" lon="-5.347224">
        <ele>852.372</ele>
        <time>2021-07-21T07:40:36Z</time>
      </trkpt>
      <trkpt lat="42.470616" lon="-5.346956">
        <ele>853.314</ele>
        <time>2021-07-21T07:40:44Z</time>
      </trkpt>
      <trkpt lat="42.470594" lon="-5.346579">
        <ele>853.721</ele>
        <time>2021-07-21T07:40:54Z</time>
      </trkpt>
      <trkpt lat="42.470606" lon="-5.346227">
        <ele>854.231</ele>
        <time>2021-07-21T07:41:03Z</time>
      </trkpt>
      <trkpt lat="42.470627" lon="-5.345813">
        <ele>854.245</ele>
        <time>2021-07-21T07:41:13Z</time>
      </trkpt>
      <trkpt lat="42.470649" lon="-5.345345">
        <ele>854.243</ele>
        <time>2021-07-21T07:41:24Z</time>
      </trkpt>
      <trkpt lat="42.470680" lon="-5.344817">
        <ele>854.750</ele>
        <time>2021-07-21T07:41:35Z</time>
      </trkpt>
      <trkpt lat="42.470698" lon="-5.344558">
        <ele>854.738</ele>
        <time>2021-07-21T07:41:40Z</time>
      </trkpt>
      <trkpt lat="42.470698" lon="-5.344504">
        <ele>854.725</ele>
        <time>2021-07-21T07:41:41Z</time>
      </trkpt>
      <trkpt lat="42.470706" lon="-5.344053">
        <ele>854.226</ele>
        <time>2021-07-21T07:41:49Z</time>
      </trkpt>
      <trkpt lat="42.470726" lon="-5.343567">
        <ele>854.708</ele>
        <time>2021-07-21T07:41:58Z</time>
      </trkpt>
      <trkpt lat="42.470699" lon="-5.342929">
        <ele>854.708</ele>
        <time>2021-07-21T07:42:10Z</time>
      </trkpt>
      <trkpt lat="42.470655" lon="-5.342391">
        <ele>855.259</ele>
        <time>2021-07-21T07:42:20Z</time>
      </trkpt>
      <trkpt lat="42.470610" lon="-5.341893">
        <ele>855.721</ele>
        <time>2021-07-21T07:42:29Z</time>
      </trkpt>
      <trkpt lat="42.470553" lon="-5.341224">
        <ele>855.748</ele>
        <time>2021-07-21T07:42:41Z</time>
      </trkpt>
      <trkpt lat="42.470540" lon="-5.341059">
        <ele>855.788</ele>
        <time>2021-07-21T07:42:44Z</time>
      </trkpt>
      <trkpt lat="42.470533" lon="-5.341005">
        <ele>855.792</ele>
        <time>2021-07-21T07:42:45Z</time>
      </trkpt>
      <trkpt lat="42.470511" lon="-5.340724">
        <ele>855.260</ele>
        <time>2021-07-21T07:42:50Z</time>
      </trkpt>
      <trkpt lat="42.470413" lon="-5.340233">
        <ele>853.797</ele>
        <time>2021-07-21T07:42:58Z</time>
      </trkpt>
      <trkpt lat="42.470292" lon="-5.339802">
        <ele>851.885</ele>
        <time>2021-07-21T07:43:04Z</time>
      </trkpt>
      <trkpt lat="42.470260" lon="-5.339735">
        <ele>851.864</ele>
        <time>2021-07-21T07:43:05Z</time>
      </trkpt>
      <trkpt lat="42.470220" lon="-5.339668">
        <ele>851.306</ele>
        <time>2021-07-21T07:43:06Z</time>
      </trkpt>
      <trkpt lat="42.470174" lon="-5.339603">
        <ele>851.316</ele>
        <time>2021-07-21T07:43:07Z</time>
      </trkpt>
      <trkpt lat="42.470131" lon="-5.339546">
        <ele>850.908</ele>
        <time>2021-07-21T07:43:08Z</time>
      </trkpt>
      <trkpt lat="42.469755" lon="-5.339124">
        <ele>848.093</ele>
        <time>2021-07-21T07:43:16Z</time>
      </trkpt>
      <trkpt lat="42.469673" lon="-5.339023">
        <ele>846.575</ele>
        <time>2021-07-21T07:43:19Z</time>
      </trkpt>
      <trkpt lat="42.469670" lon="-5.338995">
        <ele>846.532</ele>
        <time>2021-07-21T07:43:20Z</time>
      </trkpt>
      <trkpt lat="42.469673" lon="-5.338973">
        <ele>846.162</ele>
        <time>2021-07-21T07:43:21Z</time>
      </trkpt>
      <trkpt lat="42.469722" lon="-5.338890">
        <ele>844.666</ele>
        <time>2021-07-21T07:43:27Z</time>
      </trkpt>
      <trkpt lat="42.469746" lon="-5.338853">
        <ele>844.194</ele>
        <time>2021-07-21T07:43:29Z</time>
      </trkpt>
      <trkpt lat="42.469749" lon="-5.338772">
        <ele>843.671</ele>
        <time>2021-07-21T07:43:36Z</time>
      </trkpt>
      <trkpt lat="42.469762" lon="-5.338774">
        <ele>843.619</ele>
        <time>2021-07-21T07:43:49Z</time>
      </trkpt>
      <trkpt lat="42.469777" lon="-5.338765">
        <ele>843.635</ele>
        <time>2021-07-21T07:44:06Z</time>
      </trkpt>
      <trkpt lat="42.469776" lon="-5.338758">
        <ele>844.686</ele>
        <time>2021-07-21T07:44:26Z</time>
      </trkpt>
      <trkpt lat="42.469764" lon="-5.338753">
        <ele>847.014</ele>
        <time>2021-07-21T07:44:47Z</time>
      </trkpt>
      <trkpt lat="42.469766" lon="-5.338762">
        <ele>848.008</ele>
        <time>2021-07-21T07:45:11Z</time>
      </trkpt>
      <trkpt lat="42.469774" lon="-5.338750">
        <ele>848.030</ele>
        <time>2021-07-21T07:45:35Z</time>
      </trkpt>
      <trkpt lat="42.469765" lon="-5.338740">
        <ele>848.092</ele>
        <time>2021-07-21T07:45:53Z</time>
      </trkpt>
      <trkpt lat="42.469768" lon="-5.338745">
        <ele>848.099</ele>
        <time>2021-07-21T07:46:12Z</time>
      </trkpt>
      <trkpt lat="42.469767" lon="-5.338745">
        <ele>848.999</ele>
        <time>2021-07-21T07:46:30Z</time>
      </trkpt>
      <trkpt lat="42.469762" lon="-5.338744">
        <ele>850.463</ele>
        <time>2021-07-21T07:47:01Z</time>
      </trkpt>
      <trkpt lat="42.469765" lon="-5.338748">
        <ele>849.421</ele>
        <time>2021-07-21T07:47:20Z</time>
      </trkpt>
      <trkpt lat="42.469765" lon="-5.338748">
        <ele>849.478</ele>
        <time>2021-07-21T07:47:35Z</time>
      </trkpt>
      <trkpt lat="42.469769" lon="-5.338749">
        <ele>849.916</ele>
        <time>2021-07-21T07:47:51Z</time>
      </trkpt>
      <trkpt lat="42.469764" lon="-5.338756">
        <ele>849.945</ele>
        <time>2021-07-21T07:48:13Z</time>
      </trkpt>
      <trkpt lat="42.469761" lon="-5.338758">
        <ele>848.047</ele>
        <time>2021-07-21T07:48:36Z</time>
      </trkpt>
      <trkpt lat="42.469759" lon="-5.338750">
        <ele>848.011</ele>
        <time>2021-07-21T07:48:59Z</time>
      </trkpt>
      <trkpt lat="42.469765" lon="-5.338743">
        <ele>848.508</ele>
        <time>2021-07-21T07:49:10Z</time>
      </trkpt>
      <trkpt lat="42.469749" lon="-5.338750">
        <ele>848.911</ele>
        <time>2021-07-21T07:49:37Z</time>
      </trkpt>
      <trkpt lat="42.469747" lon="-5.338743">
        <ele>848.553</ele>
        <time>2021-07-21T07:50:01Z</time>
      </trkpt>
      <trkpt lat="42.469756" lon="-5.338747">
        <ele>847.580</ele>
        <time>2021-07-21T07:50:18Z</time>
      </trkpt>
      <trkpt lat="42.469751" lon="-5.338747">
        <ele>848.030</ele>
        <time>2021-07-21T07:50:36Z</time>
      </trkpt>
      <trkpt lat="42.469747" lon="-5.338750">
        <ele>848.024</ele>
        <time>2021-07-21T07:50:52Z</time>
      </trkpt>
      <trkpt lat="42.469745" lon="-5.338760">
        <ele>847.052</ele>
        <time>2021-07-21T07:51:11Z</time>
      </trkpt>
      <trkpt lat="42.469756" lon="-5.338754">
        <ele>846.589</ele>
        <time>2021-07-21T07:51:26Z</time>
      </trkpt>
      <trkpt lat="42.469757" lon="-5.338751">
        <ele>846.127</ele>
        <time>2021-07-21T07:51:43Z</time>
      </trkpt>
      <trkpt lat="42.469763" lon="-5.338750">
        <ele>846.521</ele>
        <time>2021-07-21T07:51:57Z</time>
      </trkpt>
      <trkpt lat="42.469772" lon="-5.338749">
        <ele>847.541</ele>
        <time>2021-07-21T07:52:15Z</time>
      </trkpt>
      <trkpt lat="42.469776" lon="-5.338752">
        <ele>848.005</ele>
        <time>2021-07-21T07:52:35Z</time>
      </trkpt>
      <trkpt lat="42.469777" lon="-5.338760">
        <ele>848.008</ele>
        <time>2021-07-21T07:52:54Z</time>
      </trkpt>
      <trkpt lat="42.469775" lon="-5.338763">
        <ele>848.099</ele>
        <time>2021-07-21T07:53:12Z</time>
      </trkpt>
      <trkpt lat="42.469774" lon="-5.338754">
        <ele>848.561</ele>
        <time>2021-07-21T07:53:28Z</time>
      </trkpt>
      <trkpt lat="42.469772" lon="-5.338747">
        <ele>848.978</ele>
        <time>2021-07-21T07:53:45Z</time>
      </trkpt>
      <trkpt lat="42.469762" lon="-5.338754">
        <ele>848.978</ele>
        <time>2021-07-21T07:54:09Z</time>
      </trkpt>
      <trkpt lat="42.469759" lon="-5.338754">
        <ele>848.042</ele>
        <time>2021-07-21T07:54:27Z</time>
      </trkpt>
      <trkpt lat="42.469752" lon="-5.338755">
        <ele>846.560</ele>
        <time>2021-07-21T07:54:43Z</time>
      </trkpt>
      <trkpt lat="42.469752" lon="-5.338753">
        <ele>845.637</ele>
        <time>2021-07-21T07:55:00Z</time>
      </trkpt>
      <trkpt lat="42.469746" lon="-5.338749">
        <ele>845.165</ele>
        <time>2021-07-21T07:55:16Z</time>
      </trkpt>
      <trkpt lat="42.469745" lon="-5.338752">
        <ele>846.528</ele>
        <time>2021-07-21T07:55:30Z</time>
      </trkpt>
      <trkpt lat="42.469753" lon="-5.338755">
        <ele>847.589</ele>
        <time>2021-07-21T07:55:50Z</time>
      </trkpt>
      <trkpt lat="42.469765" lon="-5.338752">
        <ele>847.517</ele>
        <time>2021-07-21T07:56:08Z</time>
      </trkpt>
      <trkpt lat="42.469771" lon="-5.338743">
        <ele>847.508</ele>
        <time>2021-07-21T07:56:27Z</time>
      </trkpt>
      <trkpt lat="42.469766" lon="-5.338737">
        <ele>846.599</ele>
        <time>2021-07-21T07:56:47Z</time>
      </trkpt>
      <trkpt lat="42.469766" lon="-5.338742">
        <ele>845.191</ele>
        <time>2021-07-21T07:57:01Z</time>
      </trkpt>
      <trkpt lat="42.469767" lon="-5.338754">
        <ele>845.158</ele>
        <time>2021-07-21T07:57:20Z</time>
      </trkpt>
      <trkpt lat="42.469773" lon="-5.338752">
        <ele>846.558</ele>
        <time>2021-07-21T07:57:38Z</time>
      </trkpt>
      <trkpt lat="42.469769" lon="-5.338752">
        <ele>847.572</ele>
        <time>2021-07-21T07:57:54Z</time>
      </trkpt>
      <trkpt lat="42.469768" lon="-5.338752">
        <ele>848.040</ele>
        <time>2021-07-21T07:58:10Z</time>
      </trkpt>
      <trkpt lat="42.469766" lon="-5.338761">
        <ele>848.557</ele>
        <time>2021-07-21T07:58:35Z</time>
      </trkpt>
      <trkpt lat="42.469774" lon="-5.338756">
        <ele>848.075</ele>
        <time>2021-07-21T07:58:48Z</time>
      </trkpt>
      <trkpt lat="42.469772" lon="-5.338753">
        <ele>848.517</ele>
        <time>2021-07-21T07:59:04Z</time>
      </trkpt>
      <trkpt lat="42.469770" lon="-5.338754">
        <ele>848.087</ele>
        <time>2021-07-21T07:59:17Z</time>
      </trkpt>
      <trkpt lat="42.469764" lon="-5.338757">
        <ele>848.015</ele>
        <time>2021-07-21T07:59:33Z</time>
      </trkpt>
      <trkpt lat="42.469759" lon="-5.338767">
        <ele>847.508</ele>
        <time>2021-07-21T07:59:54Z</time>
      </trkpt>
      <trkpt lat="42.469753" lon="-5.338769">
        <ele>847.588</ele>
        <time>2021-07-21T08:00:08Z</time>
      </trkpt>
      <trkpt lat="42.469753" lon="-5.338772">
        <ele>847.550</ele>
        <time>2021-07-21T08:00:21Z</time>
      </trkpt>
      <trkpt lat="42.469756" lon="-5.338778">
        <ele>847.567</ele>
        <time>2021-07-21T08:00:34Z</time>
      </trkpt>
      <trkpt lat="42.469756" lon="-5.338767">
        <ele>847.077</ele>
        <time>2021-07-21T08:00:52Z</time>
      </trkpt>
      <trkpt lat="42.469759" lon="-5.338764">
        <ele>846.161</ele>
        <time>2021-07-21T08:01:07Z</time>
      </trkpt>
      <trkpt lat="42.469754" lon="-5.338764">
        <ele>844.649</ele>
        <time>2021-07-21T08:01:19Z</time>
      </trkpt>
      <trkpt lat="42.469753" lon="-5.338770">
        <ele>843.636</ele>
        <time>2021-07-21T08:01:32Z</time>
      </trkpt>
      <trkpt lat="42.469757" lon="-5.338769">
        <ele>843.664</ele>
        <time>2021-07-21T08:01:46Z</time>
      </trkpt>
      <trkpt lat="42.469764" lon="-5.338758">
        <ele>845.675</ele>
        <time>2021-07-21T08:02:06Z</time>
      </trkpt>
      <trkpt lat="42.469763" lon="-5.338744">
        <ele>846.128</ele>
        <time>2021-07-21T08:02:18Z</time>
      </trkpt>
      <trkpt lat="42.469766" lon="-5.338741">
        <ele>846.120</ele>
        <time>2021-07-21T08:02:33Z</time>
      </trkpt>
      <trkpt lat="42.469772" lon="-5.338752">
        <ele>848.008</ele>
        <time>2021-07-21T08:02:49Z</time>
      </trkpt>
      <trkpt lat="42.469776" lon="-5.338751">
        <ele>848.534</ele>
        <time>2021-07-21T08:03:02Z</time>
      </trkpt>
      <trkpt lat="42.469778" lon="-5.338745">
        <ele>848.576</ele>
        <time>2021-07-21T08:03:11Z</time>
      </trkpt>
      <trkpt lat="42.469773" lon="-5.338749">
        <ele>847.553</ele>
        <time>2021-07-21T08:03:33Z</time>
      </trkpt>
      <trkpt lat="42.469766" lon="-5.338750">
        <ele>848.023</ele>
        <time>2021-07-21T08:03:51Z</time>
      </trkpt>
      <trkpt lat="42.469761" lon="-5.338749">
        <ele>848.017</ele>
        <time>2021-07-21T08:04:09Z</time>
      </trkpt>
      <trkpt lat="42.469761" lon="-5.338740">
        <ele>847.535</ele>
        <time>2021-07-21T08:04:26Z</time>
      </trkpt>
      <trkpt lat="42.469756" lon="-5.338735">
        <ele>848.062</ele>
        <time>2021-07-21T08:04:43Z</time>
      </trkpt>
      <trkpt lat="42.469754" lon="-5.338739">
        <ele>847.520</ele>
        <time>2021-07-21T08:04:55Z</time>
      </trkpt>
      <trkpt lat="42.469762" lon="-5.338742">
        <ele>848.059</ele>
        <time>2021-07-21T08:05:10Z</time>
      </trkpt>
      <trkpt lat="42.469765" lon="-5.338744">
        <ele>849.903</ele>
        <time>2021-07-21T08:05:26Z</time>
      </trkpt>
      <trkpt lat="42.469761" lon="-5.338743">
        <ele>850.423</ele>
        <time>2021-07-21T08:05:38Z</time>
      </trkpt>
      <trkpt lat="42.469755" lon="-5.338751">
        <ele>850.408</ele>
        <time>2021-07-21T08:05:51Z</time>
      </trkpt>
      <trkpt lat="42.469758" lon="-5.338756">
        <ele>850.432</ele>
        <time>2021-07-21T08:06:05Z</time>
      </trkpt>
      <trkpt lat="42.469757" lon="-5.338752">
        <ele>849.964</ele>
        <time>2021-07-21T08:06:24Z</time>
      </trkpt>
      <trkpt lat="42.469752" lon="-5.338740">
        <ele>849.911</ele>
        <time>2021-07-21T08:06:42Z</time>
      </trkpt>
      <trkpt lat="42.469749" lon="-5.338734">
        <ele>848.981</ele>
        <time>2021-07-21T08:06:56Z</time>
      </trkpt>
      <trkpt lat="42.469753" lon="-5.338735">
        <ele>848.935</ele>
        <time>2021-07-21T08:07:06Z</time>
      </trkpt>
      <trkpt lat="42.469736" lon="-5.338752">
        <ele>850.453</ele>
        <time>2021-07-21T08:07:25Z</time>
      </trkpt>
      <trkpt lat="42.469748" lon="-5.338810">
        <ele>849.420</ele>
        <time>2021-07-21T08:07:32Z</time>
      </trkpt>
      <trkpt lat="42.469692" lon="-5.338880">
        <ele>850.488</ele>
        <time>2021-07-21T08:07:41Z</time>
      </trkpt>
      <trkpt lat="42.469648" lon="-5.338906">
        <ele>850.475</ele>
        <time>2021-07-21T08:07:50Z</time>
      </trkpt>
      <trkpt lat="42.469658" lon="-5.338909">
        <ele>848.928</ele>
        <time>2021-07-21T08:08:02Z</time>
      </trkpt>
      <trkpt lat="42.469641" lon="-5.338917">
        <ele>848.520</ele>
        <time>2021-07-21T08:08:08Z</time>
      </trkpt>
      <trkpt lat="42.469585" lon="-5.338879">
        <ele>848.008</ele>
        <time>2021-07-21T08:08:12Z</time>
      </trkpt>
      <trkpt lat="42.469563" lon="-5.338861">
        <ele>848.044</ele>
        <time>2021-07-21T08:08:13Z</time>
      </trkpt>
      <trkpt lat="42.469397" lon="-5.338703">
        <ele>846.556</ele>
        <time>2021-07-21T08:08:19Z</time>
      </trkpt>
      <trkpt lat="42.469123" lon="-5.338420">
        <ele>846.133</ele>
        <time>2021-07-21T08:08:27Z</time>
      </trkpt>
      <trkpt lat="42.468912" lon="-5.338234">
        <ele>846.183</ele>
        <time>2021-07-21T08:08:33Z</time>
      </trkpt>
      <trkpt lat="42.468652" lon="-5.337927">
        <ele>845.657</ele>
        <time>2021-07-21T08:08:42Z</time>
      </trkpt>
      <trkpt lat="42.468487" lon="-5.337541">
        <ele>845.185</ele>
        <time>2021-07-21T08:08:51Z</time>
      </trkpt>
      <trkpt lat="42.468411" lon="-5.337230">
        <ele>844.172</ele>
        <time>2021-07-21T08:08:57Z</time>
      </trkpt>
      <trkpt lat="42.468355" lon="-5.336776">
        <ele>843.260</ele>
        <time>2021-07-21T08:09:04Z</time>
      </trkpt>
      <trkpt lat="42.468348" lon="-5.336514">
        <ele>842.717</ele>
        <time>2021-07-21T08:09:08Z</time>
      </trkpt>
      <trkpt lat="42.468347" lon="-5.335933">
        <ele>843.287</ele>
        <time>2021-07-21T08:09:17Z</time>
      </trkpt>
      <trkpt lat="42.468345" lon="-5.335417">
        <ele>843.215</ele>
        <time>2021-07-21T08:09:25Z</time>
      </trkpt>
      <trkpt lat="42.468345" lon="-5.334842">
        <ele>843.208</ele>
        <time>2021-07-21T08:09:34Z</time>
      </trkpt>
      <trkpt lat="42.468345" lon="-5.334781">
        <ele>843.688</ele>
        <time>2021-07-21T08:09:35Z</time>
      </trkpt>
      <trkpt lat="42.468344" lon="-5.334597">
        <ele>843.230</ele>
        <time>2021-07-21T08:09:38Z</time>
      </trkpt>
      <trkpt lat="42.468344" lon="-5.333927">
        <ele>843.697</ele>
        <time>2021-07-21T08:09:49Z</time>
      </trkpt>
      <trkpt lat="42.468348" lon="-5.333752">
        <ele>843.627</ele>
        <time>2021-07-21T08:09:52Z</time>
      </trkpt>
      <trkpt lat="42.468347" lon="-5.333694">
        <ele>843.681</ele>
        <time>2021-07-21T08:09:53Z</time>
      </trkpt>
      <trkpt lat="42.468349" lon="-5.333190">
        <ele>843.619</ele>
        <time>2021-07-21T08:10:02Z</time>
      </trkpt>
      <trkpt lat="42.468354" lon="-5.333079">
        <ele>843.656</ele>
        <time>2021-07-21T08:10:04Z</time>
      </trkpt>
      <trkpt lat="42.468354" lon="-5.332425">
        <ele>843.664</ele>
        <time>2021-07-21T08:10:16Z</time>
      </trkpt>
      <trkpt lat="42.468345" lon="-5.331933">
        <ele>844.138</ele>
        <time>2021-07-21T08:10:25Z</time>
      </trkpt>
      <trkpt lat="42.468263" lon="-5.331431">
        <ele>844.170</ele>
        <time>2021-07-21T08:10:35Z</time>
      </trkpt>
      <trkpt lat="42.468158" lon="-5.330990">
        <ele>844.617</ele>
        <time>2021-07-21T08:10:44Z</time>
      </trkpt>
      <trkpt lat="42.468025" lon="-5.330521">
        <ele>845.108</ele>
        <time>2021-07-21T08:10:54Z</time>
      </trkpt>
      <trkpt lat="42.467844" lon="-5.330156">
        <ele>844.680</ele>
        <time>2021-07-21T08:11:03Z</time>
      </trkpt>
      <trkpt lat="42.467685" lon="-5.329941">
        <ele>844.612</ele>
        <time>2021-07-21T08:11:09Z</time>
      </trkpt>
      <trkpt lat="42.467433" lon="-5.329721">
        <ele>844.679</ele>
        <time>2021-07-21T08:11:17Z</time>
      </trkpt>
      <trkpt lat="42.467060" lon="-5.329537">
        <ele>846.119</ele>
        <time>2021-07-21T08:11:28Z</time>
      </trkpt>
      <trkpt lat="42.466699" lon="-5.329400">
        <ele>846.133</ele>
        <time>2021-07-21T08:11:38Z</time>
      </trkpt>
      <trkpt lat="42.466363" lon="-5.329283">
        <ele>847.561</ele>
        <time>2021-07-21T08:11:47Z</time>
      </trkpt>
      <trkpt lat="42.466019" lon="-5.329163">
        <ele>848.918</ele>
        <time>2021-07-21T08:11:56Z</time>
      </trkpt>
      <trkpt lat="42.465730" lon="-5.329055">
        <ele>848.916</ele>
        <time>2021-07-21T08:12:04Z</time>
      </trkpt>
      <trkpt lat="42.465367" lon="-5.328942">
        <ele>849.483</ele>
        <time>2021-07-21T08:12:14Z</time>
      </trkpt>
      <trkpt lat="42.465051" lon="-5.328814">
        <ele>849.925</ele>
        <time>2021-07-21T08:12:22Z</time>
      </trkpt>
      <trkpt lat="42.464852" lon="-5.328660">
        <ele>851.317</ele>
        <time>2021-07-21T08:12:29Z</time>
      </trkpt>
      <trkpt lat="42.464663" lon="-5.328408">
        <ele>853.708</ele>
        <time>2021-07-21T08:12:38Z</time>
      </trkpt>
      <trkpt lat="42.464542" lon="-5.328116">
        <ele>854.745</ele>
        <time>2021-07-21T08:12:47Z</time>
      </trkpt>
      <trkpt lat="42.464495" lon="-5.327820">
        <ele>854.797</ele>
        <time>2021-07-21T08:12:55Z</time>
      </trkpt>
      <trkpt lat="42.464516" lon="-5.327312">
        <ele>856.634</ele>
        <time>2021-07-21T08:13:08Z</time>
      </trkpt>
      <trkpt lat="42.464549" lon="-5.326894">
        <ele>857.114</ele>
        <time>2021-07-21T08:13:18Z</time>
      </trkpt>
      <trkpt lat="42.464595" lon="-5.326405">
        <ele>857.628</ele>
        <time>2021-07-21T08:13:28Z</time>
      </trkpt>
      <trkpt lat="42.464646" lon="-5.325919">
        <ele>858.136</ele>
        <time>2021-07-21T08:13:37Z</time>
      </trkpt>
      <trkpt lat="42.464706" lon="-5.325314">
        <ele>858.123</ele>
        <time>2021-07-21T08:13:48Z</time>
      </trkpt>
      <trkpt lat="42.464756" lon="-5.324754">
        <ele>858.131</ele>
        <time>2021-07-21T08:13:58Z</time>
      </trkpt>
      <trkpt lat="42.464800" lon="-5.324255">
        <ele>858.152</ele>
        <time>2021-07-21T08:14:07Z</time>
      </trkpt>
      <trkpt lat="42.464863" lon="-5.323581">
        <ele>858.553</ele>
        <time>2021-07-21T08:14:19Z</time>
      </trkpt>
      <trkpt lat="42.464920" lon="-5.322965">
        <ele>858.508</ele>
        <time>2021-07-21T08:14:30Z</time>
      </trkpt>
      <trkpt lat="42.464965" lon="-5.322499">
        <ele>858.508</ele>
        <time>2021-07-21T08:14:38Z</time>
      </trkpt>
      <trkpt lat="42.465025" lon="-5.321893">
        <ele>859.012</ele>
        <time>2021-07-21T08:14:48Z</time>
      </trkpt>
      <trkpt lat="42.465081" lon="-5.321283">
        <ele>858.514</ele>
        <time>2021-07-21T08:14:58Z</time>
      </trkpt>
      <trkpt lat="42.465150" lon="-5.320578">
        <ele>858.581</ele>
        <time>2021-07-21T08:15:10Z</time>
      </trkpt>
      <trkpt lat="42.465207" lon="-5.319992">
        <ele>858.121</ele>
        <time>2021-07-21T08:15:20Z</time>
      </trkpt>
      <trkpt lat="42.465258" lon="-5.319461">
        <ele>857.695</ele>
        <time>2021-07-21T08:15:29Z</time>
      </trkpt>
      <trkpt lat="42.465308" lon="-5.318841">
        <ele>857.113</ele>
        <time>2021-07-21T08:15:39Z</time>
      </trkpt>
      <trkpt lat="42.465268" lon="-5.318237">
        <ele>857.670</ele>
        <time>2021-07-21T08:15:49Z</time>
      </trkpt>
      <trkpt lat="42.465177" lon="-5.317787">
        <ele>857.618</ele>
        <time>2021-07-21T08:15:57Z</time>
      </trkpt>
      <trkpt lat="42.465080" lon="-5.317269">
        <ele>857.691</ele>
        <time>2021-07-21T08:16:06Z</time>
      </trkpt>
      <trkpt lat="42.464986" lon="-5.316768">
        <ele>857.681</ele>
        <time>2021-07-21T08:16:15Z</time>
      </trkpt>
      <trkpt lat="42.464876" lon="-5.316187">
        <ele>857.619</ele>
        <time>2021-07-21T08:16:25Z</time>
      </trkpt>
      <trkpt lat="42.464720" lon="-5.315393">
        <ele>858.108</ele>
        <time>2021-07-21T08:16:38Z</time>
      </trkpt>
      <trkpt lat="42.464601" lon="-5.314761">
        <ele>857.646</ele>
        <time>2021-07-21T08:16:48Z</time>
      </trkpt>
      <trkpt lat="42.464482" lon="-5.314150">
        <ele>857.688</ele>
        <time>2021-07-21T08:16:58Z</time>
      </trkpt>
      <trkpt lat="42.464363" lon="-5.313552">
        <ele>857.175</ele>
        <time>2021-07-21T08:17:08Z</time>
      </trkpt>
      <trkpt lat="42.464246" lon="-5.312951">
        <ele>857.665</ele>
        <time>2021-07-21T08:17:18Z</time>
      </trkpt>
      <trkpt lat="42.464166" lon="-5.312550">
        <ele>858.179</ele>
        <time>2021-07-21T08:17:26Z</time>
      </trkpt>
      <trkpt lat="42.464056" lon="-5.312003">
        <ele>858.187</ele>
        <time>2021-07-21T08:17:37Z</time>
      </trkpt>
      <trkpt lat="42.463962" lon="-5.311489">
        <ele>859.054</ele>
        <time>2021-07-21T08:17:47Z</time>
      </trkpt>
      <trkpt lat="42.463878" lon="-5.311059">
        <ele>860.572</ele>
        <time>2021-07-21T08:17:56Z</time>
      </trkpt>
      <trkpt lat="42.463735" lon="-5.310568">
        <ele>860.556</ele>
        <time>2021-07-21T08:18:07Z</time>
      </trkpt>
      <trkpt lat="42.463562" lon="-5.310013">
        <ele>861.059</ele>
        <time>2021-07-21T08:18:19Z</time>
      </trkpt>
      <trkpt lat="42.463416" lon="-5.309535">
        <ele>861.414</ele>
        <time>2021-07-21T08:18:29Z</time>
      </trkpt>
      <trkpt lat="42.463215" lon="-5.308909">
        <ele>861.908</ele>
        <time>2021-07-21T08:18:42Z</time>
      </trkpt>
      <trkpt lat="42.463078" lon="-5.308461">
        <ele>862.442</ele>
        <time>2021-07-21T08:18:52Z</time>
      </trkpt>
      <trkpt lat="42.462932" lon="-5.307979">
        <ele>863.474</ele>
        <time>2021-07-21T08:19:03Z</time>
      </trkpt>
      <trkpt lat="42.462788" lon="-5.307550">
        <ele>863.451</ele>
        <time>2021-07-21T08:19:13Z</time>
      </trkpt>
      <trkpt lat="42.462673" lon="-5.307189">
        <ele>863.811</ele>
        <time>2021-07-21T08:19:21Z</time>
      </trkpt>
      <trkpt lat="42.462545" lon="-5.306795">
        <ele>864.375</ele>
        <time>2021-07-21T08:19:30Z</time>
      </trkpt>
      <trkpt lat="42.462425" lon="-5.306400">
        <ele>865.313</ele>
        <time>2021-07-21T08:19:39Z</time>
      </trkpt>
      <trkpt lat="42.462295" lon="-5.305972">
        <ele>865.850</ele>
        <time>2021-07-21T08:19:49Z</time>
      </trkpt>
      <trkpt lat="42.462180" lon="-5.305611">
        <ele>865.888</ele>
        <time>2021-07-21T08:19:57Z</time>
      </trkpt>
      <trkpt lat="42.461994" lon="-5.305044">
        <ele>866.717</ele>
        <time>2021-07-21T08:20:09Z</time>
      </trkpt>
      <trkpt lat="42.461819" lon="-5.304490">
        <ele>866.787</ele>
        <time>2021-07-21T08:20:21Z</time>
      </trkpt>
      <trkpt lat="42.461687" lon="-5.304052">
        <ele>867.215</ele>
        <time>2021-07-21T08:20:31Z</time>
      </trkpt>
      <trkpt lat="42.461555" lon="-5.303630">
        <ele>868.208</ele>
        <time>2021-07-21T08:20:41Z</time>
      </trkpt>
      <trkpt lat="42.461425" lon="-5.303213">
        <ele>868.618</ele>
        <time>2021-07-21T08:20:51Z</time>
      </trkpt>
      <trkpt lat="42.461278" lon="-5.302746">
        <ele>869.620</ele>
        <time>2021-07-21T08:21:02Z</time>
      </trkpt>
      <trkpt lat="42.461123" lon="-5.302249">
        <ele>870.157</ele>
        <time>2021-07-21T08:21:13Z</time>
      </trkpt>
      <trkpt lat="42.461012" lon="-5.301903">
        <ele>870.167</ele>
        <time>2021-07-21T08:21:21Z</time>
      </trkpt>
      <trkpt lat="42.460887" lon="-5.301537">
        <ele>870.121</ele>
        <time>2021-07-21T08:21:30Z</time>
      </trkpt>
      <trkpt lat="42.460710" lon="-5.300994">
        <ele>870.139</ele>
        <time>2021-07-21T08:21:41Z</time>
      </trkpt>
      <trkpt lat="42.460524" lon="-5.300420">
        <ele>869.676</ele>
        <time>2021-07-21T08:21:53Z</time>
      </trkpt>
      <trkpt lat="42.460375" lon="-5.299971">
        <ele>869.654</ele>
        <time>2021-07-21T08:22:03Z</time>
      </trkpt>
      <trkpt lat="42.460253" lon="-5.299570">
        <ele>869.661</ele>
        <time>2021-07-21T08:22:13Z</time>
      </trkpt>
      <trkpt lat="42.460116" lon="-5.299084">
        <ele>869.621</ele>
        <time>2021-07-21T08:22:23Z</time>
      </trkpt>
      <trkpt lat="42.459996" lon="-5.298672">
        <ele>869.113</ele>
        <time>2021-07-21T08:22:31Z</time>
      </trkpt>
      <trkpt lat="42.459843" lon="-5.298143">
        <ele>869.108</ele>
        <time>2021-07-21T08:22:41Z</time>
      </trkpt>
      <trkpt lat="42.459702" lon="-5.297661">
        <ele>868.633</ele>
        <time>2021-07-21T08:22:50Z</time>
      </trkpt>
      <trkpt lat="42.459475" lon="-5.296871">
        <ele>868.295</ele>
        <time>2021-07-21T08:23:04Z</time>
      </trkpt>
      <trkpt lat="42.459305" lon="-5.296261">
        <ele>866.762</ele>
        <time>2021-07-21T08:23:14Z</time>
      </trkpt>
      <trkpt lat="42.459122" lon="-5.295589">
        <ele>865.372</ele>
        <time>2021-07-21T08:23:25Z</time>
      </trkpt>
      <trkpt lat="42.458997" lon="-5.295170">
        <ele>865.356</ele>
        <time>2021-07-21T08:23:33Z</time>
      </trkpt>
      <trkpt lat="42.458842" lon="-5.294643">
        <ele>866.294</ele>
        <time>2021-07-21T08:23:44Z</time>
      </trkpt>
      <trkpt lat="42.458727" lon="-5.294248">
        <ele>867.271</ele>
        <time>2021-07-21T08:23:53Z</time>
      </trkpt>
      <trkpt lat="42.458629" lon="-5.293902">
        <ele>868.629</ele>
        <time>2021-07-21T08:24:01Z</time>
      </trkpt>
      <trkpt lat="42.458499" lon="-5.293505">
        <ele>869.624</ele>
        <time>2021-07-21T08:24:10Z</time>
      </trkpt>
      <trkpt lat="42.458337" lon="-5.293111">
        <ele>870.104</ele>
        <time>2021-07-21T08:24:19Z</time>
      </trkpt>
      <trkpt lat="42.458161" lon="-5.292697">
        <ele>870.114</ele>
        <time>2021-07-21T08:24:28Z</time>
      </trkpt>
      <trkpt lat="42.458020" lon="-5.292368">
        <ele>870.108</ele>
        <time>2021-07-21T08:24:35Z</time>
      </trkpt>
      <trkpt lat="42.457834" lon="-5.291906">
        <ele>869.649</ele>
        <time>2021-07-21T08:24:44Z</time>
      </trkpt>
      <trkpt lat="42.457644" lon="-5.291465">
        <ele>870.111</ele>
        <time>2021-07-21T08:24:53Z</time>
      </trkpt>
      <trkpt lat="42.457425" lon="-5.290922">
        <ele>869.618</ele>
        <time>2021-07-21T08:25:04Z</time>
      </trkpt>
      <trkpt lat="42.457145" lon="-5.290266">
        <ele>869.688</ele>
        <time>2021-07-21T08:25:17Z</time>
      </trkpt>
      <trkpt lat="42.456938" lon="-5.289767">
        <ele>869.692</ele>
        <time>2021-07-21T08:25:27Z</time>
      </trkpt>
      <trkpt lat="42.456723" lon="-5.289261">
        <ele>869.630</ele>
        <time>2021-07-21T08:25:37Z</time>
      </trkpt>
      <trkpt lat="42.456443" lon="-5.288591">
        <ele>869.647</ele>
        <time>2021-07-21T08:25:50Z</time>
      </trkpt>
      <trkpt lat="42.456255" lon="-5.288125">
        <ele>869.645</ele>
        <time>2021-07-21T08:26:00Z</time>
      </trkpt>
      <trkpt lat="42.456112" lon="-5.287809">
        <ele>869.668</ele>
        <time>2021-07-21T08:26:07Z</time>
      </trkpt>
      <trkpt lat="42.455911" lon="-5.287329">
        <ele>869.642</ele>
        <time>2021-07-21T08:26:17Z</time>
      </trkpt>
      <trkpt lat="42.455678" lon="-5.286772">
        <ele>869.126</ele>
        <time>2021-07-21T08:26:28Z</time>
      </trkpt>
      <trkpt lat="42.455462" lon="-5.286247">
        <ele>868.608</ele>
        <time>2021-07-21T08:26:38Z</time>
      </trkpt>
      <trkpt lat="42.455174" lon="-5.285568">
        <ele>868.693</ele>
        <time>2021-07-21T08:26:51Z</time>
      </trkpt>
      <trkpt lat="42.454911" lon="-5.284944">
        <ele>867.785</ele>
        <time>2021-07-21T08:27:03Z</time>
      </trkpt>
      <trkpt lat="42.454674" lon="-5.284379">
        <ele>868.292</ele>
        <time>2021-07-21T08:27:14Z</time>
      </trkpt>
      <trkpt lat="42.454455" lon="-5.283868">
        <ele>867.712</ele>
        <time>2021-07-21T08:27:24Z</time>
      </trkpt>
      <trkpt lat="42.454211" lon="-5.283278">
        <ele>867.246</ele>
        <time>2021-07-21T08:27:35Z</time>
      </trkpt>
      <trkpt lat="42.453965" lon="-5.282693">
        <ele>867.274</ele>
        <time>2021-07-21T08:27:46Z</time>
      </trkpt>
      <trkpt lat="42.453733" lon="-5.282157">
        <ele>867.221</ele>
        <time>2021-07-21T08:27:56Z</time>
      </trkpt>
      <trkpt lat="42.453544" lon="-5.281699">
        <ele>866.759</ele>
        <time>2021-07-21T08:28:05Z</time>
      </trkpt>
      <trkpt lat="42.453314" lon="-5.281133">
        <ele>866.297</ele>
        <time>2021-07-21T08:28:16Z</time>
      </trkpt>
      <trkpt lat="42.453088" lon="-5.280597">
        <ele>866.723</ele>
        <time>2021-07-21T08:28:26Z</time>
      </trkpt>
      <trkpt lat="42.452919" lon="-5.280191">
        <ele>868.225</ele>
        <time>2021-07-21T08:28:35Z</time>
      </trkpt>
      <trkpt lat="42.452777" lon="-5.279859">
        <ele>870.108</ele>
        <time>2021-07-21T08:28:44Z</time>
      </trkpt>
      <trkpt lat="42.452656" lon="-5.279579">
        <ele>871.526</ele>
        <time>2021-07-21T08:28:52Z</time>
      </trkpt>
      <trkpt lat="42.452524" lon="-5.279230">
        <ele>873.018</ele>
        <time>2021-07-21T08:29:01Z</time>
      </trkpt>
      <trkpt lat="42.452327" lon="-5.278764">
        <ele>873.545</ele>
        <time>2021-07-21T08:29:14Z</time>
      </trkpt>
      <trkpt lat="42.452191" lon="-5.278439">
        <ele>873.525</ele>
        <time>2021-07-21T08:29:23Z</time>
      </trkpt>
      <trkpt lat="42.452044" lon="-5.278078">
        <ele>874.419</ele>
        <time>2021-07-21T08:29:32Z</time>
      </trkpt>
      <trkpt lat="42.451902" lon="-5.277721">
        <ele>875.927</ele>
        <time>2021-07-21T08:29:41Z</time>
      </trkpt>
      <trkpt lat="42.451777" lon="-5.277406">
        <ele>876.384</ele>
        <time>2021-07-21T08:29:49Z</time>
      </trkpt>
      <trkpt lat="42.451659" lon="-5.277120">
        <ele>876.332</ele>
        <time>2021-07-21T08:29:56Z</time>
      </trkpt>
      <trkpt lat="42.451483" lon="-5.276685">
        <ele>876.396</ele>
        <time>2021-07-21T08:30:06Z</time>
      </trkpt>
      <trkpt lat="42.451274" lon="-5.276165">
        <ele>875.931</ele>
        <time>2021-07-21T08:30:17Z</time>
      </trkpt>
      <trkpt lat="42.451101" lon="-5.275727">
        <ele>875.924</ele>
        <time>2021-07-21T08:30:26Z</time>
      </trkpt>
      <trkpt lat="42.450900" lon="-5.275215">
        <ele>875.908</ele>
        <time>2021-07-21T08:30:37Z</time>
      </trkpt>
      <trkpt lat="42.450705" lon="-5.274718">
        <ele>875.926</ele>
        <time>2021-07-21T08:30:47Z</time>
      </trkpt>
      <trkpt lat="42.450513" lon="-5.274222">
        <ele>875.438</ele>
        <time>2021-07-21T08:30:57Z</time>
      </trkpt>
      <trkpt lat="42.450311" lon="-5.273733">
        <ele>875.425</ele>
        <time>2021-07-21T08:31:07Z</time>
      </trkpt>
      <trkpt lat="42.450161" lon="-5.273357">
        <ele>875.495</ele>
        <time>2021-07-21T08:31:15Z</time>
      </trkpt>
      <trkpt lat="42.449987" lon="-5.272923">
        <ele>874.979</ele>
        <time>2021-07-21T08:31:24Z</time>
      </trkpt>
      <trkpt lat="42.449811" lon="-5.272494">
        <ele>874.447</ele>
        <time>2021-07-21T08:31:33Z</time>
      </trkpt>
      <trkpt lat="42.449626" lon="-5.272030">
        <ele>873.994</ele>
        <time>2021-07-21T08:31:42Z</time>
      </trkpt>
      <trkpt lat="42.449464" lon="-5.271622">
        <ele>873.962</ele>
        <time>2021-07-21T08:31:50Z</time>
      </trkpt>
      <trkpt lat="42.449261" lon="-5.271125">
        <ele>873.925</ele>
        <time>2021-07-21T08:32:00Z</time>
      </trkpt>
      <trkpt lat="42.449116" lon="-5.270757">
        <ele>874.426</ele>
        <time>2021-07-21T08:32:08Z</time>
      </trkpt>
      <trkpt lat="42.448873" lon="-5.270155">
        <ele>874.908</ele>
        <time>2021-07-21T08:32:21Z</time>
      </trkpt>
      <trkpt lat="42.448668" lon="-5.269645">
        <ele>874.908</ele>
        <time>2021-07-21T08:32:32Z</time>
      </trkpt>
      <trkpt lat="42.448432" lon="-5.269058">
        <ele>874.919</ele>
        <time>2021-07-21T08:32:44Z</time>
      </trkpt>
      <trkpt lat="42.448211" lon="-5.268522">
        <ele>874.941</ele>
        <time>2021-07-21T08:32:55Z</time>
      </trkpt>
      <trkpt lat="42.448024" lon="-5.268065">
        <ele>874.948</ele>
        <time>2021-07-21T08:33:04Z</time>
      </trkpt>
      <trkpt lat="42.447978" lon="-5.267969">
        <ele>874.978</ele>
        <time>2021-07-21T08:33:06Z</time>
      </trkpt>
      <trkpt lat="42.447693" lon="-5.267476">
        <ele>874.982</ele>
        <time>2021-07-21T08:33:17Z</time>
      </trkpt>
      <trkpt lat="42.447514" lon="-5.267177">
        <ele>875.420</ele>
        <time>2021-07-21T08:33:24Z</time>
      </trkpt>
      <trkpt lat="42.447486" lon="-5.267135">
        <ele>875.467</ele>
        <time>2021-07-21T08:33:25Z</time>
      </trkpt>
      <trkpt lat="42.447119" lon="-5.266520">
        <ele>875.415</ele>
        <time>2021-07-21T08:33:39Z</time>
      </trkpt>
      <trkpt lat="42.446877" lon="-5.266108">
        <ele>874.922</ele>
        <time>2021-07-21T08:33:48Z</time>
      </trkpt>
      <trkpt lat="42.446605" lon="-5.265648">
        <ele>874.962</ele>
        <time>2021-07-21T08:33:58Z</time>
      </trkpt>
      <trkpt lat="42.446290" lon="-5.265107">
        <ele>873.508</ele>
        <time>2021-07-21T08:34:09Z</time>
      </trkpt>
      <trkpt lat="42.446023" lon="-5.264643">
        <ele>871.008</ele>
        <time>2021-07-21T08:34:16Z</time>
      </trkpt>
      <trkpt lat="42.445637" lon="-5.263992">
        <ele>869.649</ele>
        <time>2021-07-21T08:34:25Z</time>
      </trkpt>
      <trkpt lat="42.445387" lon="-5.263589">
        <ele>868.261</ele>
        <time>2021-07-21T08:34:32Z</time>
      </trkpt>
      <trkpt lat="42.445240" lon="-5.263356">
        <ele>867.778</ele>
        <time>2021-07-21T08:34:38Z</time>
      </trkpt>
      <trkpt lat="42.445095" lon="-5.263104">
        <ele>870.138</ele>
        <time>2021-07-21T08:34:45Z</time>
      </trkpt>
      <trkpt lat="42.444875" lon="-5.262709">
        <ele>874.972</ele>
        <time>2021-07-21T08:34:56Z</time>
      </trkpt>
      <trkpt lat="42.444724" lon="-5.262475">
        <ele>876.820</ele>
        <time>2021-07-21T08:35:03Z</time>
      </trkpt>
      <trkpt lat="42.444538" lon="-5.262221">
        <ele>878.397</ele>
        <time>2021-07-21T08:35:12Z</time>
      </trkpt>
      <trkpt lat="42.444400" lon="-5.262028">
        <ele>878.745</ele>
        <time>2021-07-21T08:35:19Z</time>
      </trkpt>
      <trkpt lat="42.444178" lon="-5.261707">
        <ele>879.784</ele>
        <time>2021-07-21T08:35:29Z</time>
      </trkpt>
      <trkpt lat="42.443917" lon="-5.261330">
        <ele>881.107</ele>
        <time>2021-07-21T08:35:41Z</time>
      </trkpt>
      <trkpt lat="42.443763" lon="-5.261104">
        <ele>881.117</ele>
        <time>2021-07-21T08:35:49Z</time>
      </trkpt>
      <trkpt lat="42.443500" lon="-5.260732">
        <ele>881.108</ele>
        <time>2021-07-21T08:36:00Z</time>
      </trkpt>
      <trkpt lat="42.443270" lon="-5.260384">
        <ele>881.685</ele>
        <time>2021-07-21T08:36:09Z</time>
      </trkpt>
      <trkpt lat="42.442951" lon="-5.259928">
        <ele>882.657</ele>
        <time>2021-07-21T08:36:21Z</time>
      </trkpt>
      <trkpt lat="42.442705" lon="-5.259572">
        <ele>883.154</ele>
        <time>2021-07-21T08:36:31Z</time>
      </trkpt>
      <trkpt lat="42.442513" lon="-5.259311">
        <ele>883.564</ele>
        <time>2021-07-21T08:36:39Z</time>
      </trkpt>
      <trkpt lat="42.442487" lon="-5.259284">
        <ele>883.568</ele>
        <time>2021-07-21T08:36:43Z</time>
      </trkpt>
      <trkpt lat="42.442484" lon="-5.259290">
        <ele>884.036</ele>
        <time>2021-07-21T08:36:54Z</time>
      </trkpt>
      <trkpt lat="42.442484" lon="-5.259284">
        <ele>885.023</ele>
        <time>2021-07-21T08:37:09Z</time>
      </trkpt>
      <trkpt lat="42.442473" lon="-5.259258">
        <ele>885.061</ele>
        <time>2021-07-21T08:37:24Z</time>
      </trkpt>
      <trkpt lat="42.442378" lon="-5.259119">
        <ele>885.071</ele>
        <time>2021-07-21T08:37:30Z</time>
      </trkpt>
      <trkpt lat="42.442230" lon="-5.258904">
        <ele>884.041</ele>
        <time>2021-07-21T08:37:37Z</time>
      </trkpt>
      <trkpt lat="42.442018" lon="-5.258593">
        <ele>883.515</ele>
        <time>2021-07-21T08:37:46Z</time>
      </trkpt>
      <trkpt lat="42.441784" lon="-5.258240">
        <ele>883.508</ele>
        <time>2021-07-21T08:37:56Z</time>
      </trkpt>
      <trkpt lat="42.441566" lon="-5.257956">
        <ele>883.144</ele>
        <time>2021-07-21T08:38:04Z</time>
      </trkpt>
      <trkpt lat="42.441285" lon="-5.257549">
        <ele>882.666</ele>
        <time>2021-07-21T08:38:14Z</time>
      </trkpt>
      <trkpt lat="42.440965" lon="-5.257086">
        <ele>882.183</ele>
        <time>2021-07-21T08:38:25Z</time>
      </trkpt>
      <trkpt lat="42.440586" lon="-5.256534">
        <ele>881.633</ele>
        <time>2021-07-21T08:38:38Z</time>
      </trkpt>
      <trkpt lat="42.440305" lon="-5.256121">
        <ele>882.177</ele>
        <time>2021-07-21T08:38:48Z</time>
      </trkpt>
      <trkpt lat="42.439932" lon="-5.255590">
        <ele>882.675</ele>
        <time>2021-07-21T08:39:00Z</time>
      </trkpt>
      <trkpt lat="42.439603" lon="-5.255112">
        <ele>882.692</ele>
        <time>2021-07-21T08:39:10Z</time>
      </trkpt>
      <trkpt lat="42.439293" lon="-5.254615">
        <ele>883.170</ele>
        <time>2021-07-21T08:39:20Z</time>
      </trkpt>
      <trkpt lat="42.438936" lon="-5.254012">
        <ele>882.679</ele>
        <time>2021-07-21T08:39:32Z</time>
      </trkpt>
      <trkpt lat="42.438658" lon="-5.253545">
        <ele>882.105</ele>
        <time>2021-07-21T08:39:41Z</time>
      </trkpt>
      <trkpt lat="42.438325" lon="-5.252968">
        <ele>881.625</ele>
        <time>2021-07-21T08:39:52Z</time>
      </trkpt>
      <trkpt lat="42.438039" lon="-5.252466">
        <ele>881.608</ele>
        <time>2021-07-21T08:40:02Z</time>
      </trkpt>
      <trkpt lat="42.437700" lon="-5.251895">
        <ele>881.194</ele>
        <time>2021-07-21T08:40:13Z</time>
      </trkpt>
      <trkpt lat="42.437405" lon="-5.251392">
        <ele>881.146</ele>
        <time>2021-07-21T08:40:23Z</time>
      </trkpt>
      <trkpt lat="42.437018" lon="-5.250734">
        <ele>881.193</ele>
        <time>2021-07-21T08:40:36Z</time>
      </trkpt>
      <trkpt lat="42.436684" lon="-5.250165">
        <ele>881.643</ele>
        <time>2021-07-21T08:40:47Z</time>
      </trkpt>
      <trkpt lat="42.436279" lon="-5.249479">
        <ele>881.167</ele>
        <time>2021-07-21T08:41:00Z</time>
      </trkpt>
      <trkpt lat="42.435804" lon="-5.248658">
        <ele>879.735</ele>
        <time>2021-07-21T08:41:15Z</time>
      </trkpt>
      <trkpt lat="42.435410" lon="-5.247988">
        <ele>879.792</ele>
        <time>2021-07-21T08:41:28Z</time>
      </trkpt>
      <trkpt lat="42.435061" lon="-5.247397">
        <ele>880.280</ele>
        <time>2021-07-21T08:41:40Z</time>
      </trkpt>
      <trkpt lat="42.434791" lon="-5.246951">
        <ele>880.285</ele>
        <time>2021-07-21T08:41:49Z</time>
      </trkpt>
      <trkpt lat="42.434485" lon="-5.246437">
        <ele>879.789</ele>
        <time>2021-07-21T08:42:00Z</time>
      </trkpt>
      <trkpt lat="42.434215" lon="-5.245985">
        <ele>878.717</ele>
        <time>2021-07-21T08:42:09Z</time>
      </trkpt>
      <trkpt lat="42.433869" lon="-5.245397">
        <ele>876.808</ele>
        <time>2021-07-21T08:42:19Z</time>
      </trkpt>
      <trkpt lat="42.433582" lon="-5.244817">
        <ele>874.985</ele>
        <time>2021-07-21T08:42:27Z</time>
      </trkpt>
      <trkpt lat="42.433440" lon="-5.244398">
        <ele>874.477</ele>
        <time>2021-07-21T08:42:33Z</time>
      </trkpt>
      <trkpt lat="42.433336" lon="-5.244072">
        <ele>874.954</ele>
        <time>2021-07-21T08:42:39Z</time>
      </trkpt>
      <trkpt lat="42.433163" lon="-5.243564">
        <ele>876.344</ele>
        <time>2021-07-21T08:42:49Z</time>
      </trkpt>
      <trkpt lat="42.433038" lon="-5.243184">
        <ele>877.818</ele>
        <time>2021-07-21T08:42:58Z</time>
      </trkpt>
      <trkpt lat="42.432910" lon="-5.242805">
        <ele>879.276</ele>
        <time>2021-07-21T08:43:08Z</time>
      </trkpt>
      <trkpt lat="42.432781" lon="-5.242406">
        <ele>879.783</ele>
        <time>2021-07-21T08:43:19Z</time>
      </trkpt>
      <trkpt lat="42.432663" lon="-5.242052">
        <ele>880.271</ele>
        <time>2021-07-21T08:43:28Z</time>
      </trkpt>
      <trkpt lat="42.432520" lon="-5.241613">
        <ele>880.222</ele>
        <time>2021-07-21T08:43:39Z</time>
      </trkpt>
      <trkpt lat="42.432377" lon="-5.241176">
        <ele>880.762</ele>
        <time>2021-07-21T08:43:50Z</time>
      </trkpt>
      <trkpt lat="42.432234" lon="-5.240742">
        <ele>880.708</ele>
        <time>2021-07-21T08:44:00Z</time>
      </trkpt>
      <trkpt lat="42.432063" lon="-5.240201">
        <ele>881.108</ele>
        <time>2021-07-21T08:44:12Z</time>
      </trkpt>
      <trkpt lat="42.431863" lon="-5.239622">
        <ele>882.179</ele>
        <time>2021-07-21T08:44:25Z</time>
      </trkpt>
      <trkpt lat="42.431684" lon="-5.239084">
        <ele>882.621</ele>
        <time>2021-07-21T08:44:37Z</time>
      </trkpt>
      <trkpt lat="42.431528" lon="-5.238626">
        <ele>883.588</ele>
        <time>2021-07-21T08:44:47Z</time>
      </trkpt>
      <trkpt lat="42.431440" lon="-5.238388">
        <ele>883.598</ele>
        <time>2021-07-21T08:44:55Z</time>
      </trkpt>
      <trkpt lat="42.431438" lon="-5.238393">
        <ele>884.582</ele>
        <time>2021-07-21T08:45:05Z</time>
      </trkpt>
      <trkpt lat="42.431429" lon="-5.238399">
        <ele>884.570</ele>
        <time>2021-07-21T08:45:17Z</time>
      </trkpt>
      <trkpt lat="42.431429" lon="-5.238402">
        <ele>884.547</ele>
        <time>2021-07-21T08:45:34Z</time>
      </trkpt>
      <trkpt lat="42.431430" lon="-5.238389">
        <ele>884.515</ele>
        <time>2021-07-21T08:45:48Z</time>
      </trkpt>
      <trkpt lat="42.431412" lon="-5.238322">
        <ele>885.055</ele>
        <time>2021-07-21T08:45:55Z</time>
      </trkpt>
      <trkpt lat="42.431355" lon="-5.238138">
        <ele>884.507</ele>
        <time>2021-07-21T08:46:01Z</time>
      </trkpt>
      <trkpt lat="42.431217" lon="-5.237738">
        <ele>884.017</ele>
        <time>2021-07-21T08:46:11Z</time>
      </trkpt>
      <trkpt lat="42.431083" lon="-5.237327">
        <ele>883.508</ele>
        <time>2021-07-21T08:46:20Z</time>
      </trkpt>
      <trkpt lat="42.430904" lon="-5.236876">
        <ele>883.562</ele>
        <time>2021-07-21T08:46:30Z</time>
      </trkpt>
      <trkpt lat="42.430697" lon="-5.236438">
        <ele>884.064</ele>
        <time>2021-07-21T08:46:41Z</time>
      </trkpt>
      <trkpt lat="42.430491" lon="-5.236009">
        <ele>884.541</ele>
        <time>2021-07-21T08:46:51Z</time>
      </trkpt>
      <trkpt lat="42.430226" lon="-5.235469">
        <ele>884.591</ele>
        <time>2021-07-21T08:47:03Z</time>
      </trkpt>
      <trkpt lat="42.430002" lon="-5.235004">
        <ele>884.555</ele>
        <time>2021-07-21T08:47:13Z</time>
      </trkpt>
      <trkpt lat="42.429802" lon="-5.234573">
        <ele>885.043</ele>
        <time>2021-07-21T08:47:22Z</time>
      </trkpt>
      <trkpt lat="42.429532" lon="-5.234009">
        <ele>884.540</ele>
        <time>2021-07-21T08:47:34Z</time>
      </trkpt>
      <trkpt lat="42.429462" lon="-5.233864">
        <ele>885.068</ele>
        <time>2021-07-21T08:47:37Z</time>
      </trkpt>
      <trkpt lat="42.429255" lon="-5.233431">
        <ele>885.081</ele>
        <time>2021-07-21T08:47:46Z</time>
      </trkpt>
      <trkpt lat="42.429096" lon="-5.233096">
        <ele>885.061</ele>
        <time>2021-07-21T08:47:53Z</time>
      </trkpt>
      <trkpt lat="42.428848" lon="-5.232589">
        <ele>885.017</ele>
        <time>2021-07-21T08:48:04Z</time>
      </trkpt>
      <trkpt lat="42.428622" lon="-5.232116">
        <ele>885.508</ele>
        <time>2021-07-21T08:48:14Z</time>
      </trkpt>
      <trkpt lat="42.428417" lon="-5.231694">
        <ele>885.545</ele>
        <time>2021-07-21T08:48:23Z</time>
      </trkpt>
      <trkpt lat="42.428145" lon="-5.231126">
        <ele>885.017</ele>
        <time>2021-07-21T08:48:35Z</time>
      </trkpt>
      <trkpt lat="42.427900" lon="-5.230607">
        <ele>884.524</ele>
        <time>2021-07-21T08:48:46Z</time>
      </trkpt>
      <trkpt lat="42.427875" lon="-5.230560">
        <ele>884.564</ele>
        <time>2021-07-21T08:48:47Z</time>
      </trkpt>
      <trkpt lat="42.427629" lon="-5.230023">
        <ele>884.578</ele>
        <time>2021-07-21T08:48:58Z</time>
      </trkpt>
      <trkpt lat="42.427381" lon="-5.229511">
        <ele>884.556</ele>
        <time>2021-07-21T08:49:09Z</time>
      </trkpt>
      <trkpt lat="42.427291" lon="-5.229330">
        <ele>884.563</ele>
        <time>2021-07-21T08:49:13Z</time>
      </trkpt>
      <trkpt lat="42.427092" lon="-5.228904">
        <ele>884.541</ele>
        <time>2021-07-21T08:49:22Z</time>
      </trkpt>
      <trkpt lat="42.427068" lon="-5.228859">
        <ele>884.572</ele>
        <time>2021-07-21T08:49:23Z</time>
      </trkpt>
      <trkpt lat="42.426828" lon="-5.228355">
        <ele>884.513</ele>
        <time>2021-07-21T08:49:34Z</time>
      </trkpt>
      <trkpt lat="42.426630" lon="-5.227967">
        <ele>884.514</ele>
        <time>2021-07-21T08:49:43Z</time>
      </trkpt>
      <trkpt lat="42.426412" lon="-5.227616">
        <ele>885.008</ele>
        <time>2021-07-21T08:49:53Z</time>
      </trkpt>
      <trkpt lat="42.426294" lon="-5.227468">
        <ele>885.014</ele>
        <time>2021-07-21T08:50:01Z</time>
      </trkpt>
      <trkpt lat="42.426159" lon="-5.227280">
        <ele>885.946</ele>
        <time>2021-07-21T08:50:08Z</time>
      </trkpt>
      <trkpt lat="42.425969" lon="-5.226979">
        <ele>885.583</ele>
        <time>2021-07-21T08:50:17Z</time>
      </trkpt>
      <trkpt lat="42.425857" lon="-5.226832">
        <ele>885.993</ele>
        <time>2021-07-21T08:50:25Z</time>
      </trkpt>
      <trkpt lat="42.425705" lon="-5.226607">
        <ele>885.917</ele>
        <time>2021-07-21T08:50:35Z</time>
      </trkpt>
      <trkpt lat="42.425480" lon="-5.226275">
        <ele>885.955</ele>
        <time>2021-07-21T08:50:48Z</time>
      </trkpt>
      <trkpt lat="42.425340" lon="-5.226074">
        <ele>885.992</ele>
        <time>2021-07-21T08:50:56Z</time>
      </trkpt>
      <trkpt lat="42.425157" lon="-5.225815">
        <ele>885.540</ele>
        <time>2021-07-21T08:51:05Z</time>
      </trkpt>
      <trkpt lat="42.425014" lon="-5.225574">
        <ele>885.043</ele>
        <time>2021-07-21T08:51:14Z</time>
      </trkpt>
      <trkpt lat="42.424896" lon="-5.225361">
        <ele>885.064</ele>
        <time>2021-07-21T08:51:22Z</time>
      </trkpt>
      <trkpt lat="42.424756" lon="-5.225117">
        <ele>884.510</ele>
        <time>2021-07-21T08:51:29Z</time>
      </trkpt>
      <trkpt lat="42.424554" lon="-5.224731">
        <ele>884.508</ele>
        <time>2021-07-21T08:51:38Z</time>
      </trkpt>
      <trkpt lat="42.424342" lon="-5.224335">
        <ele>884.511</ele>
        <time>2021-07-21T08:51:47Z</time>
      </trkpt>
      <trkpt lat="42.424144" lon="-5.223956">
        <ele>884.593</ele>
        <time>2021-07-21T08:51:55Z</time>
      </trkpt>
      <trkpt lat="42.423892" lon="-5.223474">
        <ele>884.070</ele>
        <time>2021-07-21T08:52:05Z</time>
      </trkpt>
      <trkpt lat="42.423652" lon="-5.222951">
        <ele>883.580</ele>
        <time>2021-07-21T08:52:15Z</time>
      </trkpt>
      <trkpt lat="42.423429" lon="-5.222455">
        <ele>883.164</ele>
        <time>2021-07-21T08:52:25Z</time>
      </trkpt>
      <trkpt lat="42.423252" lon="-5.222131">
        <ele>883.522</ele>
        <time>2021-07-21T08:52:33Z</time>
      </trkpt>
      <trkpt lat="42.423056" lon="-5.221632">
        <ele>883.539</ele>
        <time>2021-07-21T08:52:43Z</time>
      </trkpt>
      <trkpt lat="42.422959" lon="-5.221282">
        <ele>884.017</ele>
        <time>2021-07-21T08:52:51Z</time>
      </trkpt>
      <trkpt lat="42.422921" lon="-5.221257">
        <ele>884.028</ele>
        <time>2021-07-21T08:52:53Z</time>
      </trkpt>
      <trkpt lat="42.422897" lon="-5.221269">
        <ele>883.589</ele>
        <time>2021-07-21T08:52:54Z</time>
      </trkpt>
      <trkpt lat="42.422878" lon="-5.221288">
        <ele>883.517</ele>
        <time>2021-07-21T08:52:55Z</time>
      </trkpt>
      <trkpt lat="42.422856" lon="-5.221313">
        <ele>883.508</ele>
        <time>2021-07-21T08:52:56Z</time>
      </trkpt>
      <trkpt lat="42.422831" lon="-5.221339">
        <ele>883.119</ele>
        <time>2021-07-21T08:52:57Z</time>
      </trkpt>
      <trkpt lat="42.422749" lon="-5.221383">
        <ele>883.171</ele>
        <time>2021-07-21T08:53:00Z</time>
      </trkpt>
      <trkpt lat="42.422722" lon="-5.221373">
        <ele>883.548</ele>
        <time>2021-07-21T08:53:01Z</time>
      </trkpt>
      <trkpt lat="42.422686" lon="-5.221308">
        <ele>883.598</ele>
        <time>2021-07-21T08:53:03Z</time>
      </trkpt>
      <trkpt lat="42.422679" lon="-5.221264">
        <ele>884.082</ele>
        <time>2021-07-21T08:53:04Z</time>
      </trkpt>
      <trkpt lat="42.422675" lon="-5.221230">
        <ele>884.030</ele>
        <time>2021-07-21T08:53:05Z</time>
      </trkpt>
      <trkpt lat="42.422602" lon="-5.220934">
        <ele>885.057</ele>
        <time>2021-07-21T08:53:13Z</time>
      </trkpt>
      <trkpt lat="42.422509" lon="-5.220463">
        <ele>885.055</ele>
        <time>2021-07-21T08:53:24Z</time>
      </trkpt>
      <trkpt lat="42.422434" lon="-5.220161">
        <ele>885.544</ele>
        <time>2021-07-21T08:53:31Z</time>
      </trkpt>
      <trkpt lat="42.422282" lon="-5.219770">
        <ele>885.505</ele>
        <time>2021-07-21T08:53:40Z</time>
      </trkpt>
      <trkpt lat="42.422090" lon="-5.219333">
        <ele>885.015</ele>
        <time>2021-07-21T08:53:51Z</time>
      </trkpt>
      <trkpt lat="42.421924" lon="-5.219015">
        <ele>885.008</ele>
        <time>2021-07-21T08:53:59Z</time>
      </trkpt>
      <trkpt lat="42.421693" lon="-5.218547">
        <ele>884.511</ele>
        <time>2021-07-21T08:54:10Z</time>
      </trkpt>
      <trkpt lat="42.421449" lon="-5.218083">
        <ele>884.573</ele>
        <time>2021-07-21T08:54:21Z</time>
      </trkpt>
      <trkpt lat="42.421250" lon="-5.217725">
        <ele>883.570</ele>
        <time>2021-07-21T08:54:29Z</time>
      </trkpt>
      <trkpt lat="42.421064" lon="-5.217314">
        <ele>884.050</ele>
        <time>2021-07-21T08:54:38Z</time>
      </trkpt>
      <trkpt lat="42.420887" lon="-5.216935">
        <ele>884.534</ele>
        <time>2021-07-21T08:54:46Z</time>
      </trkpt>
      <trkpt lat="42.420692" lon="-5.216506">
        <ele>884.552</ele>
        <time>2021-07-21T08:54:55Z</time>
      </trkpt>
      <trkpt lat="42.420478" lon="-5.216051">
        <ele>884.589</ele>
        <time>2021-07-21T08:55:05Z</time>
      </trkpt>
      <trkpt lat="42.420320" lon="-5.215713">
        <ele>885.057</ele>
        <time>2021-07-21T08:55:14Z</time>
      </trkpt>
      <trkpt lat="42.420180" lon="-5.215494">
        <ele>885.026</ele>
        <time>2021-07-21T08:55:22Z</time>
      </trkpt>
      <trkpt lat="42.420031" lon="-5.215330">
        <ele>884.047</ele>
        <time>2021-07-21T08:55:31Z</time>
      </trkpt>
      <trkpt lat="42.419920" lon="-5.215171">
        <ele>884.011</ele>
        <time>2021-07-21T08:55:38Z</time>
      </trkpt>
      <trkpt lat="42.419770" lon="-5.214876">
        <ele>884.008</ele>
        <time>2021-07-21T08:55:46Z</time>
      </trkpt>
      <trkpt lat="42.419579" lon="-5.214484">
        <ele>883.519</ele>
        <time>2021-07-21T08:55:55Z</time>
      </trkpt>
      <trkpt lat="42.419407" lon="-5.214130">
        <ele>884.081</ele>
        <time>2021-07-21T08:56:03Z</time>
      </trkpt>
      <trkpt lat="42.419225" lon="-5.213756">
        <ele>883.588</ele>
        <time>2021-07-21T08:56:12Z</time>
      </trkpt>
      <trkpt lat="42.419147" lon="-5.213609">
        <ele>883.528</ele>
        <time>2021-07-21T08:56:18Z</time>
      </trkpt>
      <trkpt lat="42.419155" lon="-5.213605">
        <ele>884.592</ele>
        <time>2021-07-21T08:56:33Z</time>
      </trkpt>
      <trkpt lat="42.419151" lon="-5.213610">
        <ele>885.070</ele>
        <time>2021-07-21T08:56:47Z</time>
      </trkpt>
      <trkpt lat="42.419110" lon="-5.213526">
        <ele>884.597</ele>
        <time>2021-07-21T08:56:52Z</time>
      </trkpt>
      <trkpt lat="42.418983" lon="-5.213274">
        <ele>884.095</ele>
        <time>2021-07-21T08:56:59Z</time>
      </trkpt>
      <trkpt lat="42.418792" lon="-5.212876">
        <ele>883.582</ele>
        <time>2021-07-21T08:57:08Z</time>
      </trkpt>
      <trkpt lat="42.418574" lon="-5.212420">
        <ele>883.543</ele>
        <time>2021-07-21T08:57:18Z</time>
      </trkpt>
      <trkpt lat="42.418361" lon="-5.211983">
        <ele>883.117</ele>
        <time>2021-07-21T08:57:28Z</time>
      </trkpt>
      <trkpt lat="42.418084" lon="-5.211457">
        <ele>883.508</ele>
        <time>2021-07-21T08:57:40Z</time>
      </trkpt>
      <trkpt lat="42.417832" lon="-5.211019">
        <ele>883.515</ele>
        <time>2021-07-21T08:57:50Z</time>
      </trkpt>
      <trkpt lat="42.417547" lon="-5.210532">
        <ele>883.597</ele>
        <time>2021-07-21T08:58:01Z</time>
      </trkpt>
      <trkpt lat="42.417300" lon="-5.210096">
        <ele>883.584</ele>
        <time>2021-07-21T08:58:11Z</time>
      </trkpt>
      <trkpt lat="42.417027" lon="-5.209632">
        <ele>883.514</ele>
        <time>2021-07-21T08:58:22Z</time>
      </trkpt>
      <trkpt lat="42.416756" lon="-5.209179">
        <ele>884.048</ele>
        <time>2021-07-21T08:58:33Z</time>
      </trkpt>
      <trkpt lat="42.416501" lon="-5.208750">
        <ele>883.566</ele>
        <time>2021-07-21T08:58:43Z</time>
      </trkpt>
      <trkpt lat="42.416223" lon="-5.208266">
        <ele>882.673</ele>
        <time>2021-07-21T08:58:54Z</time>
      </trkpt>
      <trkpt lat="42.415954" lon="-5.207826">
        <ele>882.651</ele>
        <time>2021-07-21T08:59:04Z</time>
      </trkpt>
      <trkpt lat="42.415702" lon="-5.207351">
        <ele>882.141</ele>
        <time>2021-07-21T08:59:14Z</time>
      </trkpt>
      <trkpt lat="42.415400" lon="-5.206752">
        <ele>882.181</ele>
        <time>2021-07-21T08:59:26Z</time>
      </trkpt>
      <trkpt lat="42.415054" lon="-5.206128">
        <ele>882.109</ele>
        <time>2021-07-21T08:59:39Z</time>
      </trkpt>
      <trkpt lat="42.414816" lon="-5.205668">
        <ele>882.108</ele>
        <time>2021-07-21T08:59:48Z</time>
      </trkpt>
      <trkpt lat="42.414695" lon="-5.205470">
        <ele>881.671</ele>
        <time>2021-07-21T08:59:52Z</time>
      </trkpt>
      <trkpt lat="42.414426" lon="-5.204880">
        <ele>881.683</ele>
        <time>2021-07-21T09:00:03Z</time>
      </trkpt>
      <trkpt lat="42.414148" lon="-5.204284">
        <ele>881.640</ele>
        <time>2021-07-21T09:00:14Z</time>
      </trkpt>
      <trkpt lat="42.413911" lon="-5.203788">
        <ele>882.130</ele>
        <time>2021-07-21T09:00:23Z</time>
      </trkpt>
      <trkpt lat="42.413687" lon="-5.203322">
        <ele>881.134</ele>
        <time>2021-07-21T09:00:32Z</time>
      </trkpt>
      <trkpt lat="42.413449" lon="-5.202839">
        <ele>881.662</ele>
        <time>2021-07-21T09:00:41Z</time>
      </trkpt>
      <trkpt lat="42.413181" lon="-5.202320">
        <ele>882.679</ele>
        <time>2021-07-21T09:00:51Z</time>
      </trkpt>
      <trkpt lat="42.412896" lon="-5.201784">
        <ele>882.667</ele>
        <time>2021-07-21T09:01:02Z</time>
      </trkpt>
      <trkpt lat="42.412653" lon="-5.201281">
        <ele>883.551</ele>
        <time>2021-07-21T09:01:12Z</time>
      </trkpt>
      <trkpt lat="42.412442" lon="-5.200753">
        <ele>884.001</ele>
        <time>2021-07-21T09:01:22Z</time>
      </trkpt>
      <trkpt lat="42.412251" lon="-5.200279">
        <ele>883.511</ele>
        <time>2021-07-21T09:01:31Z</time>
      </trkpt>
      <trkpt lat="42.412015" lon="-5.199741">
        <ele>883.108</ele>
        <time>2021-07-21T09:01:42Z</time>
      </trkpt>
      <trkpt lat="42.411782" lon="-5.199177">
        <ele>882.632</ele>
        <time>2021-07-21T09:01:53Z</time>
      </trkpt>
      <trkpt lat="42.411560" lon="-5.198649">
        <ele>882.114</ele>
        <time>2021-07-21T09:02:04Z</time>
      </trkpt>
      <trkpt lat="42.411299" lon="-5.198057">
        <ele>881.641</ele>
        <time>2021-07-21T09:02:16Z</time>
      </trkpt>
      <trkpt lat="42.411020" lon="-5.197455">
        <ele>882.181</ele>
        <time>2021-07-21T09:02:28Z</time>
      </trkpt>
      <trkpt lat="42.410742" lon="-5.196844">
        <ele>882.195</ele>
        <time>2021-07-21T09:02:40Z</time>
      </trkpt>
      <trkpt lat="42.410497" lon="-5.196303">
        <ele>882.643</ele>
        <time>2021-07-21T09:02:51Z</time>
      </trkpt>
      <trkpt lat="42.410243" lon="-5.195753">
        <ele>884.040</ele>
        <time>2021-07-21T09:03:03Z</time>
      </trkpt>
      <trkpt lat="42.409948" lon="-5.195113">
        <ele>885.048</ele>
        <time>2021-07-21T09:03:17Z</time>
      </trkpt>
      <trkpt lat="42.409718" lon="-5.194600">
        <ele>886.447</ele>
        <time>2021-07-21T09:03:28Z</time>
      </trkpt>
      <trkpt lat="42.409449" lon="-5.194008">
        <ele>887.429</ele>
        <time>2021-07-21T09:03:41Z</time>
      </trkpt>
      <trkpt lat="42.409201" lon="-5.193475">
        <ele>887.921</ele>
        <time>2021-07-21T09:03:53Z</time>
      </trkpt>
      <trkpt lat="42.409032" lon="-5.193113">
        <ele>887.908</ele>
        <time>2021-07-21T09:04:01Z</time>
      </trkpt>
      <trkpt lat="42.408835" lon="-5.192678">
        <ele>887.991</ele>
        <time>2021-07-21T09:04:10Z</time>
      </trkpt>
      <trkpt lat="42.408517" lon="-5.191968">
        <ele>887.463</ele>
        <time>2021-07-21T09:04:24Z</time>
      </trkpt>
      <trkpt lat="42.408219" lon="-5.191320">
        <ele>886.470</ele>
        <time>2021-07-21T09:04:37Z</time>
      </trkpt>
      <trkpt lat="42.407948" lon="-5.190734">
        <ele>885.940</ele>
        <time>2021-07-21T09:04:48Z</time>
      </trkpt>
      <trkpt lat="42.407679" lon="-5.190140">
        <ele>885.924</ele>
        <time>2021-07-21T09:04:59Z</time>
      </trkpt>
      <trkpt lat="42.407425" lon="-5.189596">
        <ele>885.962</ele>
        <time>2021-07-21T09:05:09Z</time>
      </trkpt>
      <trkpt lat="42.407156" lon="-5.189035">
        <ele>885.589</ele>
        <time>2021-07-21T09:05:20Z</time>
      </trkpt>
      <trkpt lat="42.406908" lon="-5.188512">
        <ele>885.517</ele>
        <time>2021-07-21T09:05:30Z</time>
      </trkpt>
      <trkpt lat="42.406645" lon="-5.187973">
        <ele>885.548</ele>
        <time>2021-07-21T09:05:40Z</time>
      </trkpt>
      <trkpt lat="42.406311" lon="-5.187271">
        <ele>885.561</ele>
        <time>2021-07-21T09:05:53Z</time>
      </trkpt>
      <trkpt lat="42.406045" lon="-5.186687">
        <ele>885.017</ele>
        <time>2021-07-21T09:06:03Z</time>
      </trkpt>
      <trkpt lat="42.405786" lon="-5.186142">
        <ele>884.508</ele>
        <time>2021-07-21T09:06:13Z</time>
      </trkpt>
      <trkpt lat="42.405559" lon="-5.185668">
        <ele>884.021</ele>
        <time>2021-07-21T09:06:22Z</time>
      </trkpt>
      <trkpt lat="42.405217" lon="-5.184956">
        <ele>882.673</ele>
        <time>2021-07-21T09:06:35Z</time>
      </trkpt>
      <trkpt lat="42.404940" lon="-5.184379">
        <ele>881.660</ele>
        <time>2021-07-21T09:06:46Z</time>
      </trkpt>
      <trkpt lat="42.404755" lon="-5.183928">
        <ele>881.610</ele>
        <time>2021-07-21T09:06:54Z</time>
      </trkpt>
      <trkpt lat="42.404511" lon="-5.183312">
        <ele>881.634</ele>
        <time>2021-07-21T09:07:05Z</time>
      </trkpt>
      <trkpt lat="42.404490" lon="-5.183253">
        <ele>881.692</ele>
        <time>2021-07-21T09:07:06Z</time>
      </trkpt>
      <trkpt lat="42.404335" lon="-5.182875">
        <ele>881.639</ele>
        <time>2021-07-21T09:07:13Z</time>
      </trkpt>
      <trkpt lat="42.404116" lon="-5.182319">
        <ele>881.657</ele>
        <time>2021-07-21T09:07:23Z</time>
      </trkpt>
      <trkpt lat="42.403886" lon="-5.181732">
        <ele>880.761</ele>
        <time>2021-07-21T09:07:33Z</time>
      </trkpt>
      <trkpt lat="42.403657" lon="-5.181160">
        <ele>880.221</ele>
        <time>2021-07-21T09:07:43Z</time>
      </trkpt>
      <trkpt lat="42.403395" lon="-5.180496">
        <ele>880.713</ele>
        <time>2021-07-21T09:07:55Z</time>
      </trkpt>
      <trkpt lat="42.403129" lon="-5.179824">
        <ele>880.708</ele>
        <time>2021-07-21T09:08:07Z</time>
      </trkpt>
      <trkpt lat="42.402881" lon="-5.179192">
        <ele>880.293</ele>
        <time>2021-07-21T09:08:18Z</time>
      </trkpt>
      <trkpt lat="42.402614" lon="-5.178522">
        <ele>880.735</ele>
        <time>2021-07-21T09:08:30Z</time>
      </trkpt>
      <trkpt lat="42.402384" lon="-5.177951">
        <ele>880.732</ele>
        <time>2021-07-21T09:08:41Z</time>
      </trkpt>
      <trkpt lat="42.402168" lon="-5.177402">
        <ele>880.282</ele>
        <time>2021-07-21T09:08:51Z</time>
      </trkpt>
      <trkpt lat="42.401966" lon="-5.176895">
        <ele>880.286</ele>
        <time>2021-07-21T09:09:00Z</time>
      </trkpt>
      <trkpt lat="42.401787" lon="-5.176441">
        <ele>879.734</ele>
        <time>2021-07-21T09:09:09Z</time>
      </trkpt>
      <trkpt lat="42.401633" lon="-5.176068">
        <ele>879.241</ele>
        <time>2021-07-21T09:09:17Z</time>
      </trkpt>
      <trkpt lat="42.401424" lon="-5.175547">
        <ele>879.279</ele>
        <time>2021-07-21T09:09:27Z</time>
      </trkpt>
      <trkpt lat="42.401227" lon="-5.175032">
        <ele>878.725</ele>
        <time>2021-07-21T09:09:37Z</time>
      </trkpt>
      <trkpt lat="42.401048" lon="-5.174621">
        <ele>878.726</ele>
        <time>2021-07-21T09:09:46Z</time>
      </trkpt>
      <trkpt lat="42.400839" lon="-5.174108">
        <ele>878.708</ele>
        <time>2021-07-21T09:09:56Z</time>
      </trkpt>
      <trkpt lat="42.400739" lon="-5.173847">
        <ele>879.208</ele>
        <time>2021-07-21T09:10:01Z</time>
      </trkpt>
      <trkpt lat="42.400719" lon="-5.173794">
        <ele>879.279</ele>
        <time>2021-07-21T09:10:02Z</time>
      </trkpt>
      <trkpt lat="42.400593" lon="-5.173476">
        <ele>879.251</ele>
        <time>2021-07-21T09:10:08Z</time>
      </trkpt>
      <trkpt lat="42.400572" lon="-5.173423">
        <ele>879.278</ele>
        <time>2021-07-21T09:10:09Z</time>
      </trkpt>
      <trkpt lat="42.400550" lon="-5.173370">
        <ele>879.298</ele>
        <time>2021-07-21T09:10:10Z</time>
      </trkpt>
      <trkpt lat="42.400287" lon="-5.172705">
        <ele>878.772</ele>
        <time>2021-07-21T09:10:22Z</time>
      </trkpt>
      <trkpt lat="42.400043" lon="-5.172070">
        <ele>877.850</ele>
        <time>2021-07-21T09:10:34Z</time>
      </trkpt>
      <trkpt lat="42.399788" lon="-5.171443">
        <ele>876.337</ele>
        <time>2021-07-21T09:10:46Z</time>
      </trkpt>
      <trkpt lat="42.399516" lon="-5.170727">
        <ele>873.935</ele>
        <time>2021-07-21T09:10:57Z</time>
      </trkpt>
      <trkpt lat="42.399259" lon="-5.170077">
        <ele>872.572</ele>
        <time>2021-07-21T09:11:06Z</time>
      </trkpt>
      <trkpt lat="42.399027" lon="-5.169490">
        <ele>871.013</ele>
        <time>2021-07-21T09:11:14Z</time>
      </trkpt>
      <trkpt lat="42.398970" lon="-5.169338">
        <ele>870.614</ele>
        <time>2021-07-21T09:11:16Z</time>
      </trkpt>
      <trkpt lat="42.398668" lon="-5.168561">
        <ele>869.108</ele>
        <time>2021-07-21T09:11:26Z</time>
      </trkpt>
      <trkpt lat="42.398489" lon="-5.168103">
        <ele>868.294</ele>
        <time>2021-07-21T09:11:33Z</time>
      </trkpt>
      <trkpt lat="42.398361" lon="-5.167803">
        <ele>868.266</ele>
        <time>2021-07-21T09:11:38Z</time>
      </trkpt>
      <trkpt lat="42.398318" lon="-5.167682">
        <ele>867.773</ele>
        <time>2021-07-21T09:11:40Z</time>
      </trkpt>
      <trkpt lat="42.398123" lon="-5.167193">
        <ele>868.243</ele>
        <time>2021-07-21T09:11:49Z</time>
      </trkpt>
      <trkpt lat="42.397931" lon="-5.166625">
        <ele>868.277</ele>
        <time>2021-07-21T09:12:00Z</time>
      </trkpt>
      <trkpt lat="42.397877" lon="-5.166422">
        <ele>868.245</ele>
        <time>2021-07-21T09:12:04Z</time>
      </trkpt>
      <trkpt lat="42.397727" lon="-5.165807">
        <ele>867.242</ele>
        <time>2021-07-21T09:12:15Z</time>
      </trkpt>
      <trkpt lat="42.397571" lon="-5.165157">
        <ele>865.860</ele>
        <time>2021-07-21T09:12:26Z</time>
      </trkpt>
      <trkpt lat="42.397414" lon="-5.164491">
        <ele>866.235</ele>
        <time>2021-07-21T09:12:38Z</time>
      </trkpt>
      <trkpt lat="42.397331" lon="-5.164148">
        <ele>867.286</ele>
        <time>2021-07-21T09:12:46Z</time>
      </trkpt>
      <trkpt lat="42.397227" lon="-5.163680">
        <ele>868.614</ele>
        <time>2021-07-21T09:12:57Z</time>
      </trkpt>
      <trkpt lat="42.397114" lon="-5.163263">
        <ele>869.608</ele>
        <time>2021-07-21T09:13:08Z</time>
      </trkpt>
      <trkpt lat="42.396981" lon="-5.162934">
        <ele>871.580</ele>
        <time>2021-07-21T09:13:19Z</time>
      </trkpt>
      <trkpt lat="42.396851" lon="-5.162642">
        <ele>873.062</ele>
        <time>2021-07-21T09:13:29Z</time>
      </trkpt>
      <trkpt lat="42.396727" lon="-5.162348">
        <ele>874.429</ele>
        <time>2021-07-21T09:13:39Z</time>
      </trkpt>
      <trkpt lat="42.396625" lon="-5.162079">
        <ele>875.479</ele>
        <time>2021-07-21T09:13:48Z</time>
      </trkpt>
      <trkpt lat="42.396470" lon="-5.161699">
        <ele>875.963</ele>
        <time>2021-07-21T09:14:00Z</time>
      </trkpt>
      <trkpt lat="42.396338" lon="-5.161416">
        <ele>876.861</ele>
        <time>2021-07-21T09:14:09Z</time>
      </trkpt>
      <trkpt lat="42.396196" lon="-5.161098">
        <ele>876.858</ele>
        <time>2021-07-21T09:14:19Z</time>
      </trkpt>
      <trkpt lat="42.396040" lon="-5.160751">
        <ele>877.356</ele>
        <time>2021-07-21T09:14:28Z</time>
      </trkpt>
      <trkpt lat="42.395785" lon="-5.160152">
        <ele>877.385</ele>
        <time>2021-07-21T09:14:41Z</time>
      </trkpt>
      <trkpt lat="42.395591" lon="-5.159702">
        <ele>877.389</ele>
        <time>2021-07-21T09:14:51Z</time>
      </trkpt>
      <trkpt lat="42.395364" lon="-5.159161">
        <ele>876.817</ele>
        <time>2021-07-21T09:15:02Z</time>
      </trkpt>
      <trkpt lat="42.395085" lon="-5.158501">
        <ele>874.908</ele>
        <time>2021-07-21T09:15:14Z</time>
      </trkpt>
      <trkpt lat="42.394873" lon="-5.157982">
        <ele>873.945</ele>
        <time>2021-07-21T09:15:22Z</time>
      </trkpt>
      <trkpt lat="42.394658" lon="-5.157460">
        <ele>872.537</ele>
        <time>2021-07-21T09:15:30Z</time>
      </trkpt>
      <trkpt lat="42.394362" lon="-5.156789">
        <ele>871.034</ele>
        <time>2021-07-21T09:15:40Z</time>
      </trkpt>
      <trkpt lat="42.394058" lon="-5.156185">
        <ele>870.184</ele>
        <time>2021-07-21T09:15:50Z</time>
      </trkpt>
      <trkpt lat="42.393807" lon="-5.155737">
        <ele>869.698</ele>
        <time>2021-07-21T09:15:58Z</time>
      </trkpt>
      <trkpt lat="42.393387" lon="-5.154986">
        <ele>869.166</ele>
        <time>2021-07-21T09:16:11Z</time>
      </trkpt>
      <trkpt lat="42.393051" lon="-5.154386">
        <ele>869.133</ele>
        <time>2021-07-21T09:16:21Z</time>
      </trkpt>
      <trkpt lat="42.392755" lon="-5.153843">
        <ele>869.661</ele>
        <time>2021-07-21T09:16:30Z</time>
      </trkpt>
      <trkpt lat="42.392535" lon="-5.153439">
        <ele>869.186</ele>
        <time>2021-07-21T09:16:38Z</time>
      </trkpt>
      <trkpt lat="42.392513" lon="-5.153393">
        <ele>869.160</ele>
        <time>2021-07-21T09:16:39Z</time>
      </trkpt>
      <trkpt lat="42.392247" lon="-5.152900">
        <ele>867.726</ele>
        <time>2021-07-21T09:16:51Z</time>
      </trkpt>
      <trkpt lat="42.392030" lon="-5.152502">
        <ele>866.708</ele>
        <time>2021-07-21T09:17:00Z</time>
      </trkpt>
      <trkpt lat="42.391766" lon="-5.152038">
        <ele>865.845</ele>
        <time>2021-07-21T09:17:09Z</time>
      </trkpt>
      <trkpt lat="42.391472" lon="-5.151429">
        <ele>865.337</ele>
        <time>2021-07-21T09:17:20Z</time>
      </trkpt>
      <trkpt lat="42.391218" lon="-5.150768">
        <ele>864.874</ele>
        <time>2021-07-21T09:17:31Z</time>
      </trkpt>
      <trkpt lat="42.390935" lon="-5.150023">
        <ele>864.874</ele>
        <time>2021-07-21T09:17:43Z</time>
      </trkpt>
      <trkpt lat="42.390695" lon="-5.149467">
        <ele>863.868</ele>
        <time>2021-07-21T09:17:52Z</time>
      </trkpt>
      <trkpt lat="42.390440" lon="-5.148914">
        <ele>862.426</ele>
        <time>2021-07-21T09:18:00Z</time>
      </trkpt>
      <trkpt lat="42.390053" lon="-5.148265">
        <ele>860.083</ele>
        <time>2021-07-21T09:18:09Z</time>
      </trkpt>
      <trkpt lat="42.389666" lon="-5.147626">
        <ele>858.181</ele>
        <time>2021-07-21T09:18:18Z</time>
      </trkpt>
      <trkpt lat="42.389632" lon="-5.147555">
        <ele>857.627</ele>
        <time>2021-07-21T09:18:19Z</time>
      </trkpt>
      <trkpt lat="42.389604" lon="-5.147485">
        <ele>857.668</ele>
        <time>2021-07-21T09:18:20Z</time>
      </trkpt>
      <trkpt lat="42.389488" lon="-5.147036">
        <ele>857.614</ele>
        <time>2021-07-21T09:18:27Z</time>
      </trkpt>
      <trkpt lat="42.389489" lon="-5.146486">
        <ele>858.108</ele>
        <time>2021-07-21T09:18:36Z</time>
      </trkpt>
      <trkpt lat="42.389520" lon="-5.145981">
        <ele>858.519</ele>
        <time>2021-07-21T09:18:45Z</time>
      </trkpt>
      <trkpt lat="42.389540" lon="-5.145585">
        <ele>858.531</ele>
        <time>2021-07-21T09:18:53Z</time>
      </trkpt>
      <trkpt lat="42.389548" lon="-5.145331">
        <ele>858.558</ele>
        <time>2021-07-21T09:19:00Z</time>
      </trkpt>
      <trkpt lat="42.389545" lon="-5.145208">
        <ele>858.118</ele>
        <time>2021-07-21T09:19:05Z</time>
      </trkpt>
      <trkpt lat="42.389532" lon="-5.145195">
        <ele>858.192</ele>
        <time>2021-07-21T09:19:06Z</time>
      </trkpt>
      <trkpt lat="42.389515" lon="-5.145188">
        <ele>858.140</ele>
        <time>2021-07-21T09:19:07Z</time>
      </trkpt>
      <trkpt lat="42.389495" lon="-5.145187">
        <ele>857.687</ele>
        <time>2021-07-21T09:19:08Z</time>
      </trkpt>
      <trkpt lat="42.389473" lon="-5.145193">
        <ele>857.635</ele>
        <time>2021-07-21T09:19:09Z</time>
      </trkpt>
      <trkpt lat="42.389450" lon="-5.145204">
        <ele>857.615</ele>
        <time>2021-07-21T09:19:10Z</time>
      </trkpt>
      <trkpt lat="42.389426" lon="-5.145225">
        <ele>857.665</ele>
        <time>2021-07-21T09:19:11Z</time>
      </trkpt>
      <trkpt lat="42.389397" lon="-5.145253">
        <ele>857.611</ele>
        <time>2021-07-21T09:19:12Z</time>
      </trkpt>
      <trkpt lat="42.389195" lon="-5.145503">
        <ele>857.108</ele>
        <time>2021-07-21T09:19:19Z</time>
      </trkpt>
      <trkpt lat="42.388982" lon="-5.145877">
        <ele>856.688</ele>
        <time>2021-07-21T09:19:28Z</time>
      </trkpt>
      <trkpt lat="42.388874" lon="-5.146076">
        <ele>858.170</ele>
        <time>2021-07-21T09:19:35Z</time>
      </trkpt>
      <trkpt lat="42.388796" lon="-5.146141">
        <ele>858.577</ele>
        <time>2021-07-21T09:19:42Z</time>
      </trkpt>
      <trkpt lat="42.388779" lon="-5.146153">
        <ele>858.567</ele>
        <time>2021-07-21T09:19:43Z</time>
      </trkpt>
      <trkpt lat="42.388759" lon="-5.146172">
        <ele>858.541</ele>
        <time>2021-07-21T09:19:44Z</time>
      </trkpt>
      <trkpt lat="42.388559" lon="-5.146313">
        <ele>858.159</ele>
        <time>2021-07-21T09:19:52Z</time>
      </trkpt>
      <trkpt lat="42.388454" lon="-5.146249">
        <ele>857.666</ele>
        <time>2021-07-21T09:19:57Z</time>
      </trkpt>
      <trkpt lat="42.388375" lon="-5.146084">
        <ele>859.594</ele>
        <time>2021-07-21T09:20:05Z</time>
      </trkpt>
      <trkpt lat="42.388360" lon="-5.145912">
        <ele>860.593</ele>
        <time>2021-07-21T09:20:12Z</time>
      </trkpt>
      <trkpt lat="42.388353" lon="-5.145767">
        <ele>862.465</ele>
        <time>2021-07-21T09:20:19Z</time>
      </trkpt>
      <trkpt lat="42.388335" lon="-5.145581">
        <ele>864.321</ele>
        <time>2021-07-21T09:20:25Z</time>
      </trkpt>
      <trkpt lat="42.388328" lon="-5.145538">
        <ele>864.808</ele>
        <time>2021-07-21T09:20:27Z</time>
      </trkpt>
      <trkpt lat="42.388275" lon="-5.145506">
        <ele>864.386</ele>
        <time>2021-07-21T09:20:31Z</time>
      </trkpt>
      <trkpt lat="42.388105" lon="-5.145595">
        <ele>865.398</ele>
        <time>2021-07-21T09:20:40Z</time>
      </trkpt>
      <trkpt lat="42.388027" lon="-5.145569">
        <ele>865.365</ele>
        <time>2021-07-21T09:20:47Z</time>
      </trkpt>
      <trkpt lat="42.387988" lon="-5.145515">
        <ele>864.815</ele>
        <time>2021-07-21T09:20:53Z</time>
      </trkpt>
      <trkpt lat="42.387978" lon="-5.145507">
        <ele>863.479</ele>
        <time>2021-07-21T09:20:59Z</time>
      </trkpt>
      <trkpt lat="42.387950" lon="-5.145427">
        <ele>862.977</ele>
        <time>2021-07-21T09:21:07Z</time>
      </trkpt>
      <trkpt lat="42.387861" lon="-5.145199">
        <ele>861.924</ele>
        <time>2021-07-21T09:21:15Z</time>
      </trkpt>
      <trkpt lat="42.387828" lon="-5.145156">
        <ele>861.482</ele>
        <time>2021-07-21T09:21:18Z</time>
      </trkpt>
      <trkpt lat="42.387818" lon="-5.145114">
        <ele>861.076</ele>
        <time>2021-07-21T09:21:22Z</time>
      </trkpt>
      <trkpt lat="42.387810" lon="-5.145224">
        <ele>862.490</ele>
        <time>2021-07-21T09:21:28Z</time>
      </trkpt>
      <trkpt lat="42.387790" lon="-5.145246">
        <ele>862.419</ele>
        <time>2021-07-21T09:21:29Z</time>
      </trkpt>
      <trkpt lat="42.387630" lon="-5.145400">
        <ele>862.908</ele>
        <time>2021-07-21T09:21:37Z</time>
      </trkpt>
      <trkpt lat="42.387467" lon="-5.145558">
        <ele>861.084</ele>
        <time>2021-07-21T09:21:45Z</time>
      </trkpt>
      <trkpt lat="42.387361" lon="-5.145666">
        <ele>861.096</ele>
        <time>2021-07-21T09:21:50Z</time>
      </trkpt>
      <trkpt lat="42.387385" lon="-5.145781">
        <ele>861.073</ele>
        <time>2021-07-21T09:21:55Z</time>
      </trkpt>
      <trkpt lat="42.387367" lon="-5.145888">
        <ele>861.923</ele>
        <time>2021-07-21T09:22:00Z</time>
      </trkpt>
      <trkpt lat="42.387318" lon="-5.145906">
        <ele>861.977</ele>
        <time>2021-07-21T09:22:02Z</time>
      </trkpt>
      <trkpt lat="42.387029" lon="-5.146014">
        <ele>861.045</ele>
        <time>2021-07-21T09:22:11Z</time>
      </trkpt>
      <trkpt lat="42.386916" lon="-5.146099">
        <ele>860.512</ele>
        <time>2021-07-21T09:22:17Z</time>
      </trkpt>
      <trkpt lat="42.386905" lon="-5.146104">
        <ele>860.040</ele>
        <time>2021-07-21T09:22:25Z</time>
      </trkpt>
      <trkpt lat="42.386904" lon="-5.146101">
        <ele>859.555</ele>
        <time>2021-07-21T09:22:39Z</time>
      </trkpt>
      <trkpt lat="42.386903" lon="-5.146097">
        <ele>859.007</ele>
        <time>2021-07-21T09:22:53Z</time>
      </trkpt>
      <trkpt lat="42.386914" lon="-5.146096">
        <ele>857.617</ele>
        <time>2021-07-21T09:23:07Z</time>
      </trkpt>
      <trkpt lat="42.386923" lon="-5.146091">
        <ele>858.108</ele>
        <time>2021-07-21T09:23:27Z</time>
      </trkpt>
      <trkpt lat="42.386916" lon="-5.146086">
        <ele>856.112</ele>
        <time>2021-07-21T09:23:40Z</time>
      </trkpt>
      <trkpt lat="42.386903" lon="-5.146080">
        <ele>856.174</ele>
        <time>2021-07-21T09:23:52Z</time>
      </trkpt>
      <trkpt lat="42.386903" lon="-5.146086">
        <ele>858.531</ele>
        <time>2021-07-21T09:24:04Z</time>
      </trkpt>
      <trkpt lat="42.386906" lon="-5.146084">
        <ele>859.081</ele>
        <time>2021-07-21T09:24:18Z</time>
      </trkpt>
      <trkpt lat="42.386915" lon="-5.146081">
        <ele>859.545</ele>
        <time>2021-07-21T09:24:32Z</time>
      </trkpt>
      <trkpt lat="42.386918" lon="-5.146087">
        <ele>858.153</ele>
        <time>2021-07-21T09:24:43Z</time>
      </trkpt>
      <trkpt lat="42.386925" lon="-5.146086">
        <ele>857.130</ele>
        <time>2021-07-21T09:24:53Z</time>
      </trkpt>
      <trkpt lat="42.386937" lon="-5.146083">
        <ele>855.778</ele>
        <time>2021-07-21T09:25:09Z</time>
      </trkpt>
      <trkpt lat="42.386947" lon="-5.146078">
        <ele>856.169</ele>
        <time>2021-07-21T09:25:22Z</time>
      </trkpt>
      <trkpt lat="42.386944" lon="-5.146077">
        <ele>857.604</ele>
        <time>2021-07-21T09:25:37Z</time>
      </trkpt>
      <trkpt lat="42.386943" lon="-5.146083">
        <ele>858.124</ele>
        <time>2021-07-21T09:25:51Z</time>
      </trkpt>
      <trkpt lat="42.386952" lon="-5.146077">
        <ele>857.608</ele>
        <time>2021-07-21T09:26:04Z</time>
      </trkpt>
      <trkpt lat="42.386947" lon="-5.146087">
        <ele>856.193</ele>
        <time>2021-07-21T09:26:16Z</time>
      </trkpt>
      <trkpt lat="42.386955" lon="-5.146083">
        <ele>856.665</ele>
        <time>2021-07-21T09:26:28Z</time>
      </trkpt>
      <trkpt lat="42.386958" lon="-5.146096">
        <ele>858.542</ele>
        <time>2021-07-21T09:26:44Z</time>
      </trkpt>
      <trkpt lat="42.386960" lon="-5.146086">
        <ele>859.062</ele>
        <time>2021-07-21T09:27:04Z</time>
      </trkpt>
      <trkpt lat="42.386955" lon="-5.146090">
        <ele>859.566</ele>
        <time>2021-07-21T09:27:14Z</time>
      </trkpt>
      <trkpt lat="42.386949" lon="-5.146091">
        <ele>861.994</ele>
        <time>2021-07-21T09:27:29Z</time>
      </trkpt>
      <trkpt lat="42.386946" lon="-5.146090">
        <ele>863.451</ele>
        <time>2021-07-21T09:27:44Z</time>
      </trkpt>
      <trkpt lat="42.386951" lon="-5.146084">
        <ele>862.979</ele>
        <time>2021-07-21T09:28:01Z</time>
      </trkpt>
      <trkpt lat="42.386962" lon="-5.146077">
        <ele>862.937</ele>
        <time>2021-07-21T09:28:12Z</time>
      </trkpt>
      <trkpt lat="42.386966" lon="-5.146090">
        <ele>861.949</ele>
        <time>2021-07-21T09:28:25Z</time>
      </trkpt>
      <trkpt lat="42.386967" lon="-5.146096">
        <ele>861.913</ele>
        <time>2021-07-21T09:28:41Z</time>
      </trkpt>
      <trkpt lat="42.386964" lon="-5.146098">
        <ele>861.908</ele>
        <time>2021-07-21T09:28:56Z</time>
      </trkpt>
      <trkpt lat="42.386972" lon="-5.146086">
        <ele>862.980</ele>
        <time>2021-07-21T09:29:14Z</time>
      </trkpt>
      <trkpt lat="42.386971" lon="-5.146087">
        <ele>861.432</ele>
        <time>2021-07-21T09:29:33Z</time>
      </trkpt>
      <trkpt lat="42.386971" lon="-5.146076">
        <ele>862.419</ele>
        <time>2021-07-21T09:29:51Z</time>
      </trkpt>
      <trkpt lat="42.386954" lon="-5.146070">
        <ele>862.469</ele>
        <time>2021-07-21T09:30:07Z</time>
      </trkpt>
      <trkpt lat="42.386947" lon="-5.146076">
        <ele>862.993</ele>
        <time>2021-07-21T09:30:22Z</time>
      </trkpt>
      <trkpt lat="42.386951" lon="-5.146072">
        <ele>862.431</ele>
        <time>2021-07-21T09:30:36Z</time>
      </trkpt>
      <trkpt lat="42.386954" lon="-5.146076">
        <ele>862.488</ele>
        <time>2021-07-21T09:30:49Z</time>
      </trkpt>
      <trkpt lat="42.386944" lon="-5.146067">
        <ele>861.976</ele>
        <time>2021-07-21T09:31:08Z</time>
      </trkpt>
      <trkpt lat="42.386942" lon="-5.146068">
        <ele>860.078</ele>
        <time>2021-07-21T09:31:20Z</time>
      </trkpt>
      <trkpt lat="42.386928" lon="-5.146078">
        <ele>857.633</ele>
        <time>2021-07-21T09:31:45Z</time>
      </trkpt>
      <trkpt lat="42.386916" lon="-5.146090">
        <ele>857.126</ele>
        <time>2021-07-21T09:32:03Z</time>
      </trkpt>
      <trkpt lat="42.386915" lon="-5.146097">
        <ele>857.108</ele>
        <time>2021-07-21T09:32:17Z</time>
      </trkpt>
      <trkpt lat="42.386920" lon="-5.146083">
        <ele>859.084</ele>
        <time>2021-07-21T09:32:35Z</time>
      </trkpt>
      <trkpt lat="42.386930" lon="-5.146083">
        <ele>860.556</ele>
        <time>2021-07-21T09:32:56Z</time>
      </trkpt>
      <trkpt lat="42.386930" lon="-5.146073">
        <ele>861.023</ele>
        <time>2021-07-21T09:33:16Z</time>
      </trkpt>
      <trkpt lat="42.386924" lon="-5.146087">
        <ele>861.083</ele>
        <time>2021-07-21T09:33:33Z</time>
      </trkpt>
      <trkpt lat="42.386924" lon="-5.146098">
        <ele>861.477</ele>
        <time>2021-07-21T09:33:54Z</time>
      </trkpt>
      <trkpt lat="42.386929" lon="-5.146106">
        <ele>860.525</ele>
        <time>2021-07-21T09:34:09Z</time>
      </trkpt>
      <trkpt lat="42.386934" lon="-5.146100">
        <ele>862.962</ele>
        <time>2021-07-21T09:34:23Z</time>
      </trkpt>
      <trkpt lat="42.386922" lon="-5.146097">
        <ele>863.440</ele>
        <time>2021-07-21T09:34:43Z</time>
      </trkpt>
      <trkpt lat="42.386933" lon="-5.146104">
        <ele>862.946</ele>
        <time>2021-07-21T09:35:03Z</time>
      </trkpt>
      <trkpt lat="42.386926" lon="-5.146106">
        <ele>863.488</ele>
        <time>2021-07-21T09:35:22Z</time>
      </trkpt>
      <trkpt lat="42.386937" lon="-5.146097">
        <ele>864.316</ele>
        <time>2021-07-21T09:35:37Z</time>
      </trkpt>
      <trkpt lat="42.386949" lon="-5.146096">
        <ele>862.908</ele>
        <time>2021-07-21T09:35:52Z</time>
      </trkpt>
      <trkpt lat="42.386947" lon="-5.146104">
        <ele>861.951</ele>
        <time>2021-07-21T09:36:04Z</time>
      </trkpt>
      <trkpt lat="42.386932" lon="-5.146101">
        <ele>861.073</ele>
        <time>2021-07-21T09:36:20Z</time>
      </trkpt>
      <trkpt lat="42.386933" lon="-5.146091">
        <ele>861.030</ele>
        <time>2021-07-21T09:36:34Z</time>
      </trkpt>
      <trkpt lat="42.386938" lon="-5.146086">
        <ele>861.420</ele>
        <time>2021-07-21T09:36:46Z</time>
      </trkpt>
      <trkpt lat="42.386934" lon="-5.146085">
        <ele>861.414</ele>
        <time>2021-07-21T09:37:02Z</time>
      </trkpt>
      <trkpt lat="42.386923" lon="-5.146084">
        <ele>861.932</ele>
        <time>2021-07-21T09:37:15Z</time>
      </trkpt>
      <trkpt lat="42.386919" lon="-5.146079">
        <ele>862.439</ele>
        <time>2021-07-21T09:37:39Z</time>
      </trkpt>
      <trkpt lat="42.386924" lon="-5.146078">
        <ele>862.447</ele>
        <time>2021-07-21T09:37:57Z</time>
      </trkpt>
      <trkpt lat="42.386930" lon="-5.146081">
        <ele>861.939</ele>
        <time>2021-07-21T09:38:10Z</time>
      </trkpt>
      <trkpt lat="42.386929" lon="-5.146083">
        <ele>861.001</ele>
        <time>2021-07-21T09:38:26Z</time>
      </trkpt>
      <trkpt lat="42.386934" lon="-5.146076">
        <ele>861.021</ele>
        <time>2021-07-21T09:38:37Z</time>
      </trkpt>
      <trkpt lat="42.386937" lon="-5.146081">
        <ele>860.508</ele>
        <time>2021-07-21T09:38:56Z</time>
      </trkpt>
      <trkpt lat="42.386934" lon="-5.146081">
        <ele>859.530</ele>
        <time>2021-07-21T09:39:10Z</time>
      </trkpt>
      <trkpt lat="42.386915" lon="-5.146085">
        <ele>860.552</ele>
        <time>2021-07-21T09:39:29Z</time>
      </trkpt>
      <trkpt lat="42.386916" lon="-5.146085">
        <ele>861.929</ele>
        <time>2021-07-21T09:39:40Z</time>
      </trkpt>
      <trkpt lat="42.386913" lon="-5.146076">
        <ele>863.489</ele>
        <time>2021-07-21T09:39:55Z</time>
      </trkpt>
      <trkpt lat="42.386924" lon="-5.146086">
        <ele>862.923</ele>
        <time>2021-07-21T09:40:06Z</time>
      </trkpt>
      <trkpt lat="42.386928" lon="-5.146078">
        <ele>861.431</ele>
        <time>2021-07-21T09:40:22Z</time>
      </trkpt>
      <trkpt lat="42.386926" lon="-5.146085">
        <ele>862.498</ele>
        <time>2021-07-21T09:40:41Z</time>
      </trkpt>
      <trkpt lat="42.386919" lon="-5.146087">
        <ele>864.326</ele>
        <time>2021-07-21T09:40:57Z</time>
      </trkpt>
      <trkpt lat="42.386911" lon="-5.146087">
        <ele>864.825</ele>
        <time>2021-07-21T09:41:16Z</time>
      </trkpt>
      <trkpt lat="42.386910" lon="-5.146093">
        <ele>864.826</ele>
        <time>2021-07-21T09:41:27Z</time>
      </trkpt>
      <trkpt lat="42.386927" lon="-5.146100">
        <ele>863.408</ele>
        <time>2021-07-21T09:41:46Z</time>
      </trkpt>
      <trkpt lat="42.386928" lon="-5.146105">
        <ele>862.908</ele>
        <time>2021-07-21T09:41:56Z</time>
      </trkpt>
      <trkpt lat="42.386934" lon="-5.146110">
        <ele>861.929</ele>
        <time>2021-07-21T09:42:13Z</time>
      </trkpt>
      <trkpt lat="42.386933" lon="-5.146111">
        <ele>861.421</ele>
        <time>2021-07-21T09:42:25Z</time>
      </trkpt>
      <trkpt lat="42.386930" lon="-5.146105">
        <ele>861.968</ele>
        <time>2021-07-21T09:42:45Z</time>
      </trkpt>
      <trkpt lat="42.386931" lon="-5.146113">
        <ele>861.988</ele>
        <time>2021-07-21T09:42:56Z</time>
      </trkpt>
      <trkpt lat="42.386937" lon="-5.146123">
        <ele>859.532</ele>
        <time>2021-07-21T09:43:21Z</time>
      </trkpt>
      <trkpt lat="42.386931" lon="-5.146113">
        <ele>859.540</ele>
        <time>2021-07-21T09:43:40Z</time>
      </trkpt>
      <trkpt lat="42.386940" lon="-5.146124">
        <ele>859.567</ele>
        <time>2021-07-21T09:43:59Z</time>
      </trkpt>
      <trkpt lat="42.386943" lon="-5.146110">
        <ele>858.595</ele>
        <time>2021-07-21T09:44:17Z</time>
      </trkpt>
      <trkpt lat="42.386941" lon="-5.146112">
        <ele>858.138</ele>
        <time>2021-07-21T09:44:32Z</time>
      </trkpt>
      <trkpt lat="42.386933" lon="-5.146110">
        <ele>857.170</ele>
        <time>2021-07-21T09:44:48Z</time>
      </trkpt>
      <trkpt lat="42.386943" lon="-5.146102">
        <ele>857.117</ele>
        <time>2021-07-21T09:45:13Z</time>
      </trkpt>
      <trkpt lat="42.386939" lon="-5.146099">
        <ele>857.608</ele>
        <time>2021-07-21T09:45:25Z</time>
      </trkpt>
      <trkpt lat="42.386935" lon="-5.146096">
        <ele>857.170</ele>
        <time>2021-07-21T09:45:40Z</time>
      </trkpt>
      <trkpt lat="42.386930" lon="-5.146097">
        <ele>858.522</ele>
        <time>2021-07-21T09:45:57Z</time>
      </trkpt>
      <trkpt lat="42.386926" lon="-5.146094">
        <ele>859.529</ele>
        <time>2021-07-21T09:46:12Z</time>
      </trkpt>
      <trkpt lat="42.386922" lon="-5.146101">
        <ele>859.579</ele>
        <time>2021-07-21T09:46:25Z</time>
      </trkpt>
      <trkpt lat="42.386923" lon="-5.146095">
        <ele>858.543</ele>
        <time>2021-07-21T09:46:43Z</time>
      </trkpt>
      <trkpt lat="42.386925" lon="-5.146086">
        <ele>858.111</ele>
        <time>2021-07-21T09:46:53Z</time>
      </trkpt>
      <trkpt lat="42.386926" lon="-5.146088">
        <ele>858.148</ele>
        <time>2021-07-21T09:47:03Z</time>
      </trkpt>
      <trkpt lat="42.386925" lon="-5.146088">
        <ele>858.586</ele>
        <time>2021-07-21T09:47:16Z</time>
      </trkpt>
      <trkpt lat="42.386916" lon="-5.146081">
        <ele>859.056</ele>
        <time>2021-07-21T09:47:26Z</time>
      </trkpt>
      <trkpt lat="42.386923" lon="-5.146083">
        <ele>860.559</ele>
        <time>2021-07-21T09:47:42Z</time>
      </trkpt>
      <trkpt lat="42.386927" lon="-5.146084">
        <ele>859.014</ele>
        <time>2021-07-21T09:47:58Z</time>
      </trkpt>
      <trkpt lat="42.386931" lon="-5.146089">
        <ele>858.108</ele>
        <time>2021-07-21T09:48:11Z</time>
      </trkpt>
      <trkpt lat="42.386921" lon="-5.146094">
        <ele>858.522</ele>
        <time>2021-07-21T09:48:23Z</time>
      </trkpt>
      <trkpt lat="42.386926" lon="-5.146088">
        <ele>859.594</ele>
        <time>2021-07-21T09:48:37Z</time>
      </trkpt>
      <trkpt lat="42.386918" lon="-5.146089">
        <ele>859.521</ele>
        <time>2021-07-21T09:48:46Z</time>
      </trkpt>
      <trkpt lat="42.386919" lon="-5.146097">
        <ele>858.521</ele>
        <time>2021-07-21T09:49:01Z</time>
      </trkpt>
      <trkpt lat="42.386929" lon="-5.146106">
        <ele>858.115</ele>
        <time>2021-07-21T09:49:19Z</time>
      </trkpt>
      <trkpt lat="42.386910" lon="-5.146094">
        <ele>858.133</ele>
        <time>2021-07-21T09:49:34Z</time>
      </trkpt>
      <trkpt lat="42.386908" lon="-5.146084">
        <ele>859.510</ele>
        <time>2021-07-21T09:49:48Z</time>
      </trkpt>
      <trkpt lat="42.386910" lon="-5.146096">
        <ele>859.518</ele>
        <time>2021-07-21T09:50:07Z</time>
      </trkpt>
      <trkpt lat="42.386920" lon="-5.146098">
        <ele>860.095</ele>
        <time>2021-07-21T09:50:24Z</time>
      </trkpt>
      <trkpt lat="42.386916" lon="-5.146108">
        <ele>860.549</ele>
        <time>2021-07-21T09:50:45Z</time>
      </trkpt>
      <trkpt lat="42.386906" lon="-5.146116">
        <ele>860.023</ele>
        <time>2021-07-21T09:51:02Z</time>
      </trkpt>
      <trkpt lat="42.386904" lon="-5.146113">
        <ele>857.608</ele>
        <time>2021-07-21T09:51:25Z</time>
      </trkpt>
      <trkpt lat="42.386906" lon="-5.146110">
        <ele>858.116</ele>
        <time>2021-07-21T09:51:40Z</time>
      </trkpt>
      <trkpt lat="42.386903" lon="-5.146115">
        <ele>858.138</ele>
        <time>2021-07-21T09:51:56Z</time>
      </trkpt>
      <trkpt lat="42.386897" lon="-5.146113">
        <ele>858.595</ele>
        <time>2021-07-21T09:52:07Z</time>
      </trkpt>
      <trkpt lat="42.386896" lon="-5.146114">
        <ele>858.575</ele>
        <time>2021-07-21T09:52:24Z</time>
      </trkpt>
      <trkpt lat="42.386898" lon="-5.146096">
        <ele>859.529</ele>
        <time>2021-07-21T09:52:40Z</time>
      </trkpt>
      <trkpt lat="42.386897" lon="-5.146103">
        <ele>858.557</ele>
        <time>2021-07-21T09:52:57Z</time>
      </trkpt>
      <trkpt lat="42.386915" lon="-5.146101">
        <ele>859.534</ele>
        <time>2021-07-21T09:53:14Z</time>
      </trkpt>
      <trkpt lat="42.386909" lon="-5.146097">
        <ele>858.572</ele>
        <time>2021-07-21T09:53:35Z</time>
      </trkpt>
      <trkpt lat="42.386907" lon="-5.146101">
        <ele>857.188</ele>
        <time>2021-07-21T09:53:52Z</time>
      </trkpt>
      <trkpt lat="42.386894" lon="-5.146097">
        <ele>858.124</ele>
        <time>2021-07-21T09:54:12Z</time>
      </trkpt>
      <trkpt lat="42.386904" lon="-5.146098">
        <ele>859.026</ele>
        <time>2021-07-21T09:54:27Z</time>
      </trkpt>
      <trkpt lat="42.386904" lon="-5.146096">
        <ele>859.508</ele>
        <time>2021-07-21T09:54:40Z</time>
      </trkpt>
      <trkpt lat="42.386902" lon="-5.146108">
        <ele>859.055</ele>
        <time>2021-07-21T09:54:55Z</time>
      </trkpt>
      <trkpt lat="42.386906" lon="-5.146095">
        <ele>859.087</ele>
        <time>2021-07-21T09:55:07Z</time>
      </trkpt>
      <trkpt lat="42.386920" lon="-5.146083">
        <ele>859.024</ele>
        <time>2021-07-21T09:55:26Z</time>
      </trkpt>
      <trkpt lat="42.386932" lon="-5.146087">
        <ele>859.564</ele>
        <time>2021-07-21T09:55:45Z</time>
      </trkpt>
      <trkpt lat="42.386927" lon="-5.146104">
        <ele>860.048</ele>
        <time>2021-07-21T09:56:00Z</time>
      </trkpt>
      <trkpt lat="42.386932" lon="-5.146092">
        <ele>861.076</ele>
        <time>2021-07-21T09:56:14Z</time>
      </trkpt>
      <trkpt lat="42.386936" lon="-5.146094">
        <ele>861.093</ele>
        <time>2021-07-21T09:56:24Z</time>
      </trkpt>
      <trkpt lat="42.386938" lon="-5.146079">
        <ele>862.451</ele>
        <time>2021-07-21T09:56:44Z</time>
      </trkpt>
      <trkpt lat="42.386932" lon="-5.146085">
        <ele>862.486</ele>
        <time>2021-07-21T09:56:57Z</time>
      </trkpt>
      <trkpt lat="42.386926" lon="-5.146092">
        <ele>861.960</ele>
        <time>2021-07-21T09:57:18Z</time>
      </trkpt>
      <trkpt lat="42.386936" lon="-5.146089">
        <ele>861.426</ele>
        <time>2021-07-21T09:57:27Z</time>
      </trkpt>
      <trkpt lat="42.386939" lon="-5.146084">
        <ele>861.408</ele>
        <time>2021-07-21T09:57:33Z</time>
      </trkpt>
      <trkpt lat="42.386943" lon="-5.146084">
        <ele>861.965</ele>
        <time>2021-07-21T09:57:34Z</time>
      </trkpt>
      <trkpt lat="42.387067" lon="-5.145987">
        <ele>862.497</ele>
        <time>2021-07-21T09:57:43Z</time>
      </trkpt>
      <trkpt lat="42.387238" lon="-5.145909">
        <ele>862.424</ele>
        <time>2021-07-21T09:57:52Z</time>
      </trkpt>
      <trkpt lat="42.387341" lon="-5.145856">
        <ele>862.944</ele>
        <time>2021-07-21T09:57:58Z</time>
      </trkpt>
      <trkpt lat="42.387332" lon="-5.145724">
        <ele>863.428</ele>
        <time>2021-07-21T09:58:03Z</time>
      </trkpt>
      <trkpt lat="42.387240" lon="-5.145429">
        <ele>862.976</ele>
        <time>2021-07-21T09:58:12Z</time>
      </trkpt>
      <trkpt lat="42.387159" lon="-5.145082">
        <ele>861.453</ele>
        <time>2021-07-21T09:58:20Z</time>
      </trkpt>
      <trkpt lat="42.387138" lon="-5.144827">
        <ele>860.091</ele>
        <time>2021-07-21T09:58:27Z</time>
      </trkpt>
      <trkpt lat="42.387210" lon="-5.144551">
        <ele>858.145</ele>
        <time>2021-07-21T09:58:35Z</time>
      </trkpt>
      <trkpt lat="42.387189" lon="-5.144429">
        <ele>858.547</ele>
        <time>2021-07-21T09:58:39Z</time>
      </trkpt>
      <trkpt lat="42.387097" lon="-5.144209">
        <ele>859.011</ele>
        <time>2021-07-21T09:58:46Z</time>
      </trkpt>
      <trkpt lat="42.386962" lon="-5.143849">
        <ele>858.508</ele>
        <time>2021-07-21T09:58:57Z</time>
      </trkpt>
      <trkpt lat="42.386946" lon="-5.143761">
        <ele>858.121</ele>
        <time>2021-07-21T09:59:00Z</time>
      </trkpt>
      <trkpt lat="42.387049" lon="-5.143631">
        <ele>858.123</ele>
        <time>2021-07-21T09:59:07Z</time>
      </trkpt>
      <trkpt lat="42.387274" lon="-5.143552">
        <ele>859.020</ele>
        <time>2021-07-21T09:59:15Z</time>
      </trkpt>
      <trkpt lat="42.387518" lon="-5.143466">
        <ele>861.010</ele>
        <time>2021-07-21T09:59:24Z</time>
      </trkpt>
      <trkpt lat="42.387777" lon="-5.143395">
        <ele>861.494</ele>
        <time>2021-07-21T09:59:33Z</time>
      </trkpt>
      <trkpt lat="42.387839" lon="-5.143242">
        <ele>860.542</ele>
        <time>2021-07-21T09:59:38Z</time>
      </trkpt>
      <trkpt lat="42.387882" lon="-5.142839">
        <ele>860.069</ele>
        <time>2021-07-21T09:59:47Z</time>
      </trkpt>
      <trkpt lat="42.387920" lon="-5.142400">
        <ele>860.097</ele>
        <time>2021-07-21T09:59:57Z</time>
      </trkpt>
      <trkpt lat="42.387968" lon="-5.142198">
        <ele>859.087</ele>
        <time>2021-07-21T10:00:03Z</time>
      </trkpt>
      <trkpt lat="42.388013" lon="-5.141928">
        <ele>858.542</ele>
        <time>2021-07-21T10:00:10Z</time>
      </trkpt>
      <trkpt lat="42.388013" lon="-5.141651">
        <ele>858.526</ele>
        <time>2021-07-21T10:00:16Z</time>
      </trkpt>
      <trkpt lat="42.388077" lon="-5.141079">
        <ele>857.108</ele>
        <time>2021-07-21T10:00:27Z</time>
      </trkpt>
      <trkpt lat="42.388141" lon="-5.140520">
        <ele>854.745</ele>
        <time>2021-07-21T10:00:37Z</time>
      </trkpt>
      <trkpt lat="42.388211" lon="-5.140105">
        <ele>853.767</ele>
        <time>2021-07-21T10:00:45Z</time>
      </trkpt>
      <trkpt lat="42.388248" lon="-5.139873">
        <ele>853.334</ele>
        <time>2021-07-21T10:00:51Z</time>
      </trkpt>
      <trkpt lat="42.388240" lon="-5.139877">
        <ele>853.394</ele>
        <time>2021-07-21T10:00:58Z</time>
      </trkpt>
      <trkpt lat="42.388243" lon="-5.139879">
        <ele>854.248</ele>
        <time>2021-07-21T10:01:20Z</time>
      </trkpt>
      <trkpt lat="42.388234" lon="-5.139880">
        <ele>855.776</ele>
        <time>2021-07-21T10:01:42Z</time>
      </trkpt>
      <trkpt lat="42.388237" lon="-5.139883">
        <ele>857.123</ele>
        <time>2021-07-21T10:02:03Z</time>
      </trkpt>
      <trkpt lat="42.388235" lon="-5.139898">
        <ele>857.671</ele>
        <time>2021-07-21T10:02:29Z</time>
      </trkpt>
      <trkpt lat="42.388246" lon="-5.139901">
        <ele>854.765</ele>
        <time>2021-07-21T10:02:58Z</time>
      </trkpt>
      <trkpt lat="42.388242" lon="-5.139920">
        <ele>854.268</ele>
        <time>2021-07-21T10:03:29Z</time>
      </trkpt>
      <trkpt lat="42.388254" lon="-5.139891">
        <ele>853.314</ele>
        <time>2021-07-21T10:03:48Z</time>
      </trkpt>
      <trkpt lat="42.388253" lon="-5.139876">
        <ele>853.708</ele>
        <time>2021-07-21T10:03:53Z</time>
      </trkpt>
      <trkpt lat="42.388270" lon="-5.139800">
        <ele>853.383</ele>
        <time>2021-07-21T10:04:00Z</time>
      </trkpt>
      <trkpt lat="42.388293" lon="-5.139644">
        <ele>852.855</ele>
        <time>2021-07-21T10:04:07Z</time>
      </trkpt>
      <trkpt lat="42.388337" lon="-5.139361">
        <ele>852.852</ele>
        <time>2021-07-21T10:04:17Z</time>
      </trkpt>
      <trkpt lat="42.388393" lon="-5.139019">
        <ele>852.382</ele>
        <time>2021-07-21T10:04:26Z</time>
      </trkpt>
      <trkpt lat="42.388474" lon="-5.138556">
        <ele>851.876</ele>
        <time>2021-07-21T10:04:36Z</time>
      </trkpt>
      <trkpt lat="42.388561" lon="-5.138040">
        <ele>851.384</ele>
        <time>2021-07-21T10:04:46Z</time>
      </trkpt>
      <trkpt lat="42.388616" lon="-5.137712">
        <ele>850.431</ele>
        <time>2021-07-21T10:04:52Z</time>
      </trkpt>
      <trkpt lat="42.388720" lon="-5.137106">
        <ele>848.079</ele>
        <time>2021-07-21T10:05:02Z</time>
      </trkpt>
      <trkpt lat="42.388805" lon="-5.136588">
        <ele>846.526</ele>
        <time>2021-07-21T10:05:10Z</time>
      </trkpt>
      <trkpt lat="42.388816" lon="-5.136525">
        <ele>846.547</ele>
        <time>2021-07-21T10:05:11Z</time>
      </trkpt>
      <trkpt lat="42.388920" lon="-5.135893">
        <ele>845.111</ele>
        <time>2021-07-21T10:05:20Z</time>
      </trkpt>
      <trkpt lat="42.389031" lon="-5.135215">
        <ele>842.708</ele>
        <time>2021-07-21T10:05:28Z</time>
      </trkpt>
      <trkpt lat="42.389187" lon="-5.134305">
        <ele>839.819</ele>
        <time>2021-07-21T10:05:37Z</time>
      </trkpt>
      <trkpt lat="42.389370" lon="-5.133222">
        <ele>836.961</ele>
        <time>2021-07-21T10:05:47Z</time>
      </trkpt>
      <trkpt lat="42.389444" lon="-5.132682">
        <ele>836.468</ele>
        <time>2021-07-21T10:05:53Z</time>
      </trkpt>
      <trkpt lat="42.389460" lon="-5.132470">
        <ele>836.988</ele>
        <time>2021-07-21T10:05:56Z</time>
      </trkpt>
      <trkpt lat="42.389409" lon="-5.132004">
        <ele>837.452</ele>
        <time>2021-07-21T10:06:04Z</time>
      </trkpt>
      <trkpt lat="42.389296" lon="-5.131455">
        <ele>838.440</ele>
        <time>2021-07-21T10:06:14Z</time>
      </trkpt>
      <trkpt lat="42.389203" lon="-5.131050">
        <ele>840.367</ele>
        <time>2021-07-21T10:06:23Z</time>
      </trkpt>
      <trkpt lat="42.389130" lon="-5.130757">
        <ele>841.785</ele>
        <time>2021-07-21T10:06:30Z</time>
      </trkpt>
      <trkpt lat="42.389066" lon="-5.130513">
        <ele>843.666</ele>
        <time>2021-07-21T10:06:37Z</time>
      </trkpt>
      <trkpt lat="42.389010" lon="-5.130260">
        <ele>845.129</ele>
        <time>2021-07-21T10:06:44Z</time>
      </trkpt>
      <trkpt lat="42.388952" lon="-5.129963">
        <ele>846.121</ele>
        <time>2021-07-21T10:06:52Z</time>
      </trkpt>
      <trkpt lat="42.388859" lon="-5.129452">
        <ele>845.608</ele>
        <time>2021-07-21T10:07:03Z</time>
      </trkpt>
      <trkpt lat="42.388749" lon="-5.128841">
        <ele>844.113</ele>
        <time>2021-07-21T10:07:13Z</time>
      </trkpt>
      <trkpt lat="42.388617" lon="-5.128143">
        <ele>842.295</ele>
        <time>2021-07-21T10:07:23Z</time>
      </trkpt>
      <trkpt lat="42.388483" lon="-5.127451">
        <ele>840.392</ele>
        <time>2021-07-21T10:07:33Z</time>
      </trkpt>
      <trkpt lat="42.388370" lon="-5.126926">
        <ele>839.382</ele>
        <time>2021-07-21T10:07:42Z</time>
      </trkpt>
      <trkpt lat="42.388280" lon="-5.126478">
        <ele>838.826</ele>
        <time>2021-07-21T10:07:51Z</time>
      </trkpt>
      <trkpt lat="42.388185" lon="-5.125981">
        <ele>839.324</ele>
        <time>2021-07-21T10:08:01Z</time>
      </trkpt>
      <trkpt lat="42.388097" lon="-5.125511">
        <ele>839.851</ele>
        <time>2021-07-21T10:08:11Z</time>
      </trkpt>
      <trkpt lat="42.388022" lon="-5.125140">
        <ele>840.379</ele>
        <time>2021-07-21T10:08:19Z</time>
      </trkpt>
      <trkpt lat="42.387925" lon="-5.124640">
        <ele>840.898</ele>
        <time>2021-07-21T10:08:29Z</time>
      </trkpt>
      <trkpt lat="42.387815" lon="-5.124105">
        <ele>840.815</ele>
        <time>2021-07-21T10:08:39Z</time>
      </trkpt>
      <trkpt lat="42.387674" lon="-5.123406">
        <ele>840.826</ele>
        <time>2021-07-21T10:08:51Z</time>
      </trkpt>
      <trkpt lat="42.387563" lon="-5.122835">
        <ele>840.808</ele>
        <time>2021-07-21T10:09:01Z</time>
      </trkpt>
      <trkpt lat="42.387444" lon="-5.122205">
        <ele>841.226</ele>
        <time>2021-07-21T10:09:11Z</time>
      </trkpt>
      <trkpt lat="42.387390" lon="-5.121956">
        <ele>840.838</ele>
        <time>2021-07-21T10:09:15Z</time>
      </trkpt>
      <trkpt lat="42.387262" lon="-5.121322">
        <ele>840.395</ele>
        <time>2021-07-21T10:09:25Z</time>
      </trkpt>
      <trkpt lat="42.387157" lon="-5.120785">
        <ele>838.885</ele>
        <time>2021-07-21T10:09:33Z</time>
      </trkpt>
      <trkpt lat="42.387023" lon="-5.120130">
        <ele>837.449</ele>
        <time>2021-07-21T10:09:42Z</time>
      </trkpt>
      <trkpt lat="42.386993" lon="-5.119979">
        <ele>837.427</ele>
        <time>2021-07-21T10:09:44Z</time>
      </trkpt>
      <trkpt lat="42.386818" lon="-5.119284">
        <ele>836.994</ele>
        <time>2021-07-21T10:09:54Z</time>
      </trkpt>
      <trkpt lat="42.386635" lon="-5.118736">
        <ele>837.932</ele>
        <time>2021-07-21T10:10:04Z</time>
      </trkpt>
      <trkpt lat="42.386448" lon="-5.118166">
        <ele>838.417</ele>
        <time>2021-07-21T10:10:14Z</time>
      </trkpt>
      <trkpt lat="42.386289" lon="-5.117674">
        <ele>838.487</ele>
        <time>2021-07-21T10:10:23Z</time>
      </trkpt>
      <trkpt lat="42.386138" lon="-5.117019">
        <ele>836.915</ele>
        <time>2021-07-21T10:10:34Z</time>
      </trkpt>
      <trkpt lat="42.385983" lon="-5.116232">
        <ele>836.008</ele>
        <time>2021-07-21T10:10:46Z</time>
      </trkpt>
      <trkpt lat="42.385832" lon="-5.115443">
        <ele>835.098</ele>
        <time>2021-07-21T10:10:58Z</time>
      </trkpt>
      <trkpt lat="42.385681" lon="-5.114756">
        <ele>834.510</ele>
        <time>2021-07-21T10:11:09Z</time>
      </trkpt>
      <trkpt lat="42.385504" lon="-5.113975">
        <ele>834.517</ele>
        <time>2021-07-21T10:11:21Z</time>
      </trkpt>
      <trkpt lat="42.385359" lon="-5.113352">
        <ele>835.047</ele>
        <time>2021-07-21T10:11:31Z</time>
      </trkpt>
      <trkpt lat="42.385344" lon="-5.113295">
        <ele>835.071</ele>
        <time>2021-07-21T10:11:32Z</time>
      </trkpt>
      <trkpt lat="42.385189" lon="-5.112704">
        <ele>835.539</ele>
        <time>2021-07-21T10:11:42Z</time>
      </trkpt>
      <trkpt lat="42.385015" lon="-5.112079">
        <ele>834.566</ele>
        <time>2021-07-21T10:11:53Z</time>
      </trkpt>
      <trkpt lat="42.384865" lon="-5.111570">
        <ele>834.054</ele>
        <time>2021-07-21T10:12:01Z</time>
      </trkpt>
      <trkpt lat="42.384848" lon="-5.111505">
        <ele>834.066</ele>
        <time>2021-07-21T10:12:02Z</time>
      </trkpt>
      <trkpt lat="42.384829" lon="-5.111433">
        <ele>834.029</ele>
        <time>2021-07-21T10:12:03Z</time>
      </trkpt>
      <trkpt lat="42.384813" lon="-5.111367">
        <ele>834.021</ele>
        <time>2021-07-21T10:12:04Z</time>
      </trkpt>
      <trkpt lat="42.384798" lon="-5.111299">
        <ele>834.008</ele>
        <time>2021-07-21T10:12:05Z</time>
      </trkpt>
      <trkpt lat="42.384710" lon="-5.110596">
        <ele>832.623</ele>
        <time>2021-07-21T10:12:15Z</time>
      </trkpt>
      <trkpt lat="42.384694" lon="-5.110343">
        <ele>832.135</ele>
        <time>2021-07-21T10:12:19Z</time>
      </trkpt>
      <trkpt lat="42.384684" lon="-5.109807">
        <ele>832.152</ele>
        <time>2021-07-21T10:12:28Z</time>
      </trkpt>
      <trkpt lat="42.384673" lon="-5.109350">
        <ele>833.632</ele>
        <time>2021-07-21T10:12:37Z</time>
      </trkpt>
      <trkpt lat="42.384650" lon="-5.108722">
        <ele>835.556</ele>
        <time>2021-07-21T10:12:49Z</time>
      </trkpt>
      <trkpt lat="42.384606" lon="-5.108032">
        <ele>835.574</ele>
        <time>2021-07-21T10:13:01Z</time>
      </trkpt>
      <trkpt lat="42.384568" lon="-5.107484">
        <ele>835.541</ele>
        <time>2021-07-21T10:13:10Z</time>
      </trkpt>
      <trkpt lat="42.384535" lon="-5.106981">
        <ele>835.539</ele>
        <time>2021-07-21T10:13:18Z</time>
      </trkpt>
      <trkpt lat="42.384489" lon="-5.106329">
        <ele>835.041</ele>
        <time>2021-07-21T10:13:28Z</time>
      </trkpt>
      <trkpt lat="42.384445" lon="-5.105639">
        <ele>834.581</ele>
        <time>2021-07-21T10:13:39Z</time>
      </trkpt>
      <trkpt lat="42.384406" lon="-5.105067">
        <ele>834.009</ele>
        <time>2021-07-21T10:13:48Z</time>
      </trkpt>
      <trkpt lat="42.384369" lon="-5.104402">
        <ele>833.608</ele>
        <time>2021-07-21T10:13:58Z</time>
      </trkpt>
      <trkpt lat="42.384361" lon="-5.104274">
        <ele>833.661</ele>
        <time>2021-07-21T10:14:00Z</time>
      </trkpt>
      <trkpt lat="42.384313" lon="-5.103534">
        <ele>833.623</ele>
        <time>2021-07-21T10:14:11Z</time>
      </trkpt>
      <trkpt lat="42.384268" lon="-5.102814">
        <ele>833.660</ele>
        <time>2021-07-21T10:14:22Z</time>
      </trkpt>
      <trkpt lat="42.384223" lon="-5.102183">
        <ele>834.010</ele>
        <time>2021-07-21T10:14:32Z</time>
      </trkpt>
      <trkpt lat="42.384176" lon="-5.101440">
        <ele>834.044</ele>
        <time>2021-07-21T10:14:44Z</time>
      </trkpt>
      <trkpt lat="42.384138" lon="-5.100854">
        <ele>833.642</ele>
        <time>2021-07-21T10:14:53Z</time>
      </trkpt>
      <trkpt lat="42.384119" lon="-5.100534">
        <ele>833.669</ele>
        <time>2021-07-21T10:14:58Z</time>
      </trkpt>
      <trkpt lat="42.384082" lon="-5.099952">
        <ele>833.157</ele>
        <time>2021-07-21T10:15:07Z</time>
      </trkpt>
      <trkpt lat="42.384045" lon="-5.099405">
        <ele>832.631</ele>
        <time>2021-07-21T10:15:15Z</time>
      </trkpt>
      <trkpt lat="42.384002" lon="-5.098745">
        <ele>832.161</ele>
        <time>2021-07-21T10:15:25Z</time>
      </trkpt>
      <trkpt lat="42.383965" lon="-5.098081">
        <ele>832.107</ele>
        <time>2021-07-21T10:15:35Z</time>
      </trkpt>
      <trkpt lat="42.383913" lon="-5.097318">
        <ele>832.108</ele>
        <time>2021-07-21T10:15:47Z</time>
      </trkpt>
      <trkpt lat="42.383906" lon="-5.096751">
        <ele>831.650</ele>
        <time>2021-07-21T10:15:56Z</time>
      </trkpt>
      <trkpt lat="42.383937" lon="-5.095898">
        <ele>830.262</ele>
        <time>2021-07-21T10:16:08Z</time>
      </trkpt>
      <trkpt lat="42.383962" lon="-5.095215">
        <ele>830.249</ele>
        <time>2021-07-21T10:16:18Z</time>
      </trkpt>
      <trkpt lat="42.383988" lon="-5.094406">
        <ele>829.719</ele>
        <time>2021-07-21T10:16:30Z</time>
      </trkpt>
      <trkpt lat="42.384009" lon="-5.093809">
        <ele>829.743</ele>
        <time>2021-07-21T10:16:39Z</time>
      </trkpt>
      <trkpt lat="42.384039" lon="-5.093037">
        <ele>830.241</ele>
        <time>2021-07-21T10:16:51Z</time>
      </trkpt>
      <trkpt lat="42.384061" lon="-5.092460">
        <ele>830.268</ele>
        <time>2021-07-21T10:17:00Z</time>
      </trkpt>
      <trkpt lat="42.384087" lon="-5.091681">
        <ele>829.736</ele>
        <time>2021-07-21T10:17:12Z</time>
      </trkpt>
      <trkpt lat="42.384109" lon="-5.091106">
        <ele>829.796</ele>
        <time>2021-07-21T10:17:21Z</time>
      </trkpt>
      <trkpt lat="42.384148" lon="-5.090380">
        <ele>829.731</ele>
        <time>2021-07-21T10:17:32Z</time>
      </trkpt>
      <trkpt lat="42.384150" lon="-5.089733">
        <ele>829.224</ele>
        <time>2021-07-21T10:17:42Z</time>
      </trkpt>
      <trkpt lat="42.384107" lon="-5.089091">
        <ele>829.208</ele>
        <time>2021-07-21T10:17:52Z</time>
      </trkpt>
      <trkpt lat="42.384071" lon="-5.088582">
        <ele>829.796</ele>
        <time>2021-07-21T10:18:00Z</time>
      </trkpt>
      <trkpt lat="42.384031" lon="-5.087949">
        <ele>830.228</ele>
        <time>2021-07-21T10:18:10Z</time>
      </trkpt>
      <trkpt lat="42.383997" lon="-5.087364">
        <ele>830.285</ele>
        <time>2021-07-21T10:18:19Z</time>
      </trkpt>
      <trkpt lat="42.383957" lon="-5.086714">
        <ele>829.295</ele>
        <time>2021-07-21T10:18:29Z</time>
      </trkpt>
      <trkpt lat="42.383914" lon="-5.086072">
        <ele>829.259</ele>
        <time>2021-07-21T10:18:39Z</time>
      </trkpt>
      <trkpt lat="42.383877" lon="-5.085504">
        <ele>828.737</ele>
        <time>2021-07-21T10:18:48Z</time>
      </trkpt>
      <trkpt lat="42.383834" lon="-5.084851">
        <ele>828.394</ele>
        <time>2021-07-21T10:18:58Z</time>
      </trkpt>
      <trkpt lat="42.383787" lon="-5.084139">
        <ele>828.312</ele>
        <time>2021-07-21T10:19:09Z</time>
      </trkpt>
      <trkpt lat="42.383724" lon="-5.083502">
        <ele>828.313</ele>
        <time>2021-07-21T10:19:19Z</time>
      </trkpt>
      <trkpt lat="42.383637" lon="-5.082847">
        <ele>828.343</ele>
        <time>2021-07-21T10:19:29Z</time>
      </trkpt>
      <trkpt lat="42.383530" lon="-5.082082">
        <ele>827.307</ele>
        <time>2021-07-21T10:19:40Z</time>
      </trkpt>
      <trkpt lat="42.383485" lon="-5.081875">
        <ele>826.808</ele>
        <time>2021-07-21T10:19:45Z</time>
      </trkpt>
      <trkpt lat="42.383482" lon="-5.081872">
        <ele>827.398</ele>
        <time>2021-07-21T10:19:50Z</time>
      </trkpt>
      <trkpt lat="42.383490" lon="-5.081883">
        <ele>827.870</ele>
        <time>2021-07-21T10:20:05Z</time>
      </trkpt>
      <trkpt lat="42.383490" lon="-5.081878">
        <ele>828.387</ele>
        <time>2021-07-21T10:20:27Z</time>
      </trkpt>
      <trkpt lat="42.383490" lon="-5.081853">
        <ele>828.337</ele>
        <time>2021-07-21T10:20:36Z</time>
      </trkpt>
      <trkpt lat="42.383486" lon="-5.081849">
        <ele>826.851</ele>
        <time>2021-07-21T10:20:48Z</time>
      </trkpt>
      <trkpt lat="42.383479" lon="-5.081841">
        <ele>826.819</ele>
        <time>2021-07-21T10:20:56Z</time>
      </trkpt>
      <trkpt lat="42.383448" lon="-5.081655">
        <ele>826.346</ele>
        <time>2021-07-21T10:21:02Z</time>
      </trkpt>
      <trkpt lat="42.383384" lon="-5.081256">
        <ele>825.994</ele>
        <time>2021-07-21T10:21:09Z</time>
      </trkpt>
      <trkpt lat="42.383243" lon="-5.080405">
        <ele>825.976</ele>
        <time>2021-07-21T10:21:22Z</time>
      </trkpt>
      <trkpt lat="42.383101" lon="-5.079572">
        <ele>825.490</ele>
        <time>2021-07-21T10:21:34Z</time>
      </trkpt>
      <trkpt lat="42.383003" lon="-5.078983">
        <ele>825.419</ele>
        <time>2021-07-21T10:21:43Z</time>
      </trkpt>
      <trkpt lat="42.382890" lon="-5.078300">
        <ele>824.908</ele>
        <time>2021-07-21T10:21:54Z</time>
      </trkpt>
      <trkpt lat="42.382814" lon="-5.078059">
        <ele>824.974</ele>
        <time>2021-07-21T10:22:00Z</time>
      </trkpt>
      <trkpt lat="42.382698" lon="-5.077866">
        <ele>825.496</ele>
        <time>2021-07-21T10:22:08Z</time>
      </trkpt>
      <trkpt lat="42.382561" lon="-5.077626">
        <ele>825.423</ele>
        <time>2021-07-21T10:22:16Z</time>
      </trkpt>
      <trkpt lat="42.382426" lon="-5.077438">
        <ele>825.913</ele>
        <time>2021-07-21T10:22:23Z</time>
      </trkpt>
      <trkpt lat="42.382393" lon="-5.077388">
        <ele>826.827</ele>
        <time>2021-07-21T10:22:28Z</time>
      </trkpt>
      <trkpt lat="42.382281" lon="-5.077243">
        <ele>826.345</ele>
        <time>2021-07-21T10:22:34Z</time>
      </trkpt>
      <trkpt lat="42.382272" lon="-5.077195">
        <ele>826.312</ele>
        <time>2021-07-21T10:22:35Z</time>
      </trkpt>
      <trkpt lat="42.382268" lon="-5.077152">
        <ele>826.350</ele>
        <time>2021-07-21T10:22:36Z</time>
      </trkpt>
      <trkpt lat="42.382257" lon="-5.076614">
        <ele>825.947</ele>
        <time>2021-07-21T10:22:47Z</time>
      </trkpt>
      <trkpt lat="42.382230" lon="-5.076026">
        <ele>824.929</ele>
        <time>2021-07-21T10:22:59Z</time>
      </trkpt>
      <trkpt lat="42.382215" lon="-5.075711">
        <ele>824.921</ele>
        <time>2021-07-21T10:23:05Z</time>
      </trkpt>
      <trkpt lat="42.382203" lon="-5.075000">
        <ele>823.508</ele>
        <time>2021-07-21T10:23:17Z</time>
      </trkpt>
      <trkpt lat="42.382210" lon="-5.074372">
        <ele>823.061</ele>
        <time>2021-07-21T10:23:27Z</time>
      </trkpt>
      <trkpt lat="42.382200" lon="-5.073770">
        <ele>822.553</ele>
        <time>2021-07-21T10:23:37Z</time>
      </trkpt>
      <trkpt lat="42.382186" lon="-5.073124">
        <ele>821.540</ele>
        <time>2021-07-21T10:23:47Z</time>
      </trkpt>
      <trkpt lat="42.382166" lon="-5.072407">
        <ele>820.130</ele>
        <time>2021-07-21T10:23:57Z</time>
      </trkpt>
      <trkpt lat="42.382103" lon="-5.071816">
        <ele>819.174</ele>
        <time>2021-07-21T10:24:05Z</time>
      </trkpt>
      <trkpt lat="42.381895" lon="-5.071073">
        <ele>818.252</ele>
        <time>2021-07-21T10:24:15Z</time>
      </trkpt>
      <trkpt lat="42.381641" lon="-5.070319">
        <ele>816.399</ele>
        <time>2021-07-21T10:24:25Z</time>
      </trkpt>
      <trkpt lat="42.381327" lon="-5.069367">
        <ele>814.857</ele>
        <time>2021-07-21T10:24:37Z</time>
      </trkpt>
      <trkpt lat="42.381121" lon="-5.068792">
        <ele>814.315</ele>
        <time>2021-07-21T10:24:45Z</time>
      </trkpt>
      <trkpt lat="42.380864" lon="-5.068185">
        <ele>814.365</ele>
        <time>2021-07-21T10:24:54Z</time>
      </trkpt>
      <trkpt lat="42.380533" lon="-5.067581">
        <ele>814.311</ele>
        <time>2021-07-21T10:25:04Z</time>
      </trkpt>
      <trkpt lat="42.380086" lon="-5.066852">
        <ele>814.808</ele>
        <time>2021-07-21T10:25:16Z</time>
      </trkpt>
      <trkpt lat="42.379608" lon="-5.066080">
        <ele>814.828</ele>
        <time>2021-07-21T10:25:29Z</time>
      </trkpt>
      <trkpt lat="42.379085" lon="-5.065250">
        <ele>814.360</ele>
        <time>2021-07-21T10:25:43Z</time>
      </trkpt>
      <trkpt lat="42.378756" lon="-5.064691">
        <ele>815.337</ele>
        <time>2021-07-21T10:25:53Z</time>
      </trkpt>
      <trkpt lat="42.378519" lon="-5.064235">
        <ele>815.827</ele>
        <time>2021-07-21T10:26:02Z</time>
      </trkpt>
      <trkpt lat="42.378306" lon="-5.063739">
        <ele>817.211</ele>
        <time>2021-07-21T10:26:12Z</time>
      </trkpt>
      <trkpt lat="42.378123" lon="-5.063204">
        <ele>817.749</ele>
        <time>2021-07-21T10:26:23Z</time>
      </trkpt>
      <trkpt lat="42.377901" lon="-5.062385">
        <ele>818.296</ele>
        <time>2021-07-21T10:26:38Z</time>
      </trkpt>
      <trkpt lat="42.377747" lon="-5.061814">
        <ele>817.714</ele>
        <time>2021-07-21T10:26:48Z</time>
      </trkpt>
      <trkpt lat="42.377592" lon="-5.061218">
        <ele>816.381</ele>
        <time>2021-07-21T10:26:58Z</time>
      </trkpt>
      <trkpt lat="42.377389" lon="-5.060452">
        <ele>814.861</ele>
        <time>2021-07-21T10:27:11Z</time>
      </trkpt>
      <trkpt lat="42.377227" lon="-5.059817">
        <ele>814.317</ele>
        <time>2021-07-21T10:27:21Z</time>
      </trkpt>
      <trkpt lat="42.377032" lon="-5.059105">
        <ele>813.808</ele>
        <time>2021-07-21T10:27:32Z</time>
      </trkpt>
      <trkpt lat="42.376846" lon="-5.058400">
        <ele>812.975</ele>
        <time>2021-07-21T10:27:43Z</time>
      </trkpt>
      <trkpt lat="42.376698" lon="-5.057803">
        <ele>811.977</ele>
        <time>2021-07-21T10:27:53Z</time>
      </trkpt>
      <trkpt lat="42.376549" lon="-5.057125">
        <ele>811.414</ele>
        <time>2021-07-21T10:28:04Z</time>
      </trkpt>
      <trkpt lat="42.376430" lon="-5.056471">
        <ele>809.554</ele>
        <time>2021-07-21T10:28:14Z</time>
      </trkpt>
      <trkpt lat="42.376280" lon="-5.055612">
        <ele>807.668</ele>
        <time>2021-07-21T10:28:26Z</time>
      </trkpt>
      <trkpt lat="42.376139" lon="-5.054819">
        <ele>807.646</ele>
        <time>2021-07-21T10:28:37Z</time>
      </trkpt>
      <trkpt lat="42.376015" lon="-5.054140">
        <ele>807.143</ele>
        <time>2021-07-21T10:28:47Z</time>
      </trkpt>
      <trkpt lat="42.375896" lon="-5.053516">
        <ele>807.671</ele>
        <time>2021-07-21T10:28:56Z</time>
      </trkpt>
      <trkpt lat="42.375733" lon="-5.052654">
        <ele>807.156</ele>
        <time>2021-07-21T10:29:09Z</time>
      </trkpt>
      <trkpt lat="42.375522" lon="-5.051996">
        <ele>807.659</ele>
        <time>2021-07-21T10:29:20Z</time>
      </trkpt>
      <trkpt lat="42.375267" lon="-5.051416">
        <ele>807.114</ele>
        <time>2021-07-21T10:29:30Z</time>
      </trkpt>
      <trkpt lat="42.374945" lon="-5.050822">
        <ele>808.108</ele>
        <time>2021-07-21T10:29:41Z</time>
      </trkpt>
      <trkpt lat="42.374650" lon="-5.050269">
        <ele>808.672</ele>
        <time>2021-07-21T10:29:51Z</time>
      </trkpt>
      <trkpt lat="42.374405" lon="-5.049838">
        <ele>808.144</ele>
        <time>2021-07-21T10:29:59Z</time>
      </trkpt>
      <trkpt lat="42.374362" lon="-5.049799">
        <ele>808.151</ele>
        <time>2021-07-21T10:30:00Z</time>
      </trkpt>
      <trkpt lat="42.374321" lon="-5.049773">
        <ele>808.191</ele>
        <time>2021-07-21T10:30:01Z</time>
      </trkpt>
      <trkpt lat="42.374274" lon="-5.049755">
        <ele>808.125</ele>
        <time>2021-07-21T10:30:02Z</time>
      </trkpt>
      <trkpt lat="42.374230" lon="-5.049746">
        <ele>808.133</ele>
        <time>2021-07-21T10:30:03Z</time>
      </trkpt>
      <trkpt lat="42.374178" lon="-5.049736">
        <ele>808.120</ele>
        <time>2021-07-21T10:30:04Z</time>
      </trkpt>
      <trkpt lat="42.374133" lon="-5.049721">
        <ele>808.168</ele>
        <time>2021-07-21T10:30:05Z</time>
      </trkpt>
      <trkpt lat="42.374085" lon="-5.049690">
        <ele>808.135</ele>
        <time>2021-07-21T10:30:06Z</time>
      </trkpt>
      <trkpt lat="42.374046" lon="-5.049647">
        <ele>808.186</ele>
        <time>2021-07-21T10:30:07Z</time>
      </trkpt>
      <trkpt lat="42.374018" lon="-5.049598">
        <ele>808.614</ele>
        <time>2021-07-21T10:30:08Z</time>
      </trkpt>
      <trkpt lat="42.373997" lon="-5.049534">
        <ele>808.608</ele>
        <time>2021-07-21T10:30:09Z</time>
      </trkpt>
      <trkpt lat="42.373986" lon="-5.049473">
        <ele>808.610</ele>
        <time>2021-07-21T10:30:10Z</time>
      </trkpt>
      <trkpt lat="42.373985" lon="-5.049408">
        <ele>809.052</ele>
        <time>2021-07-21T10:30:11Z</time>
      </trkpt>
      <trkpt lat="42.373991" lon="-5.049341">
        <ele>809.089</ele>
        <time>2021-07-21T10:30:12Z</time>
      </trkpt>
      <trkpt lat="42.373998" lon="-5.049276">
        <ele>809.059</ele>
        <time>2021-07-21T10:30:13Z</time>
      </trkpt>
      <trkpt lat="42.374002" lon="-5.049211">
        <ele>808.693</ele>
        <time>2021-07-21T10:30:14Z</time>
      </trkpt>
      <trkpt lat="42.374002" lon="-5.049145">
        <ele>808.671</ele>
        <time>2021-07-21T10:30:15Z</time>
      </trkpt>
      <trkpt lat="42.373991" lon="-5.049074">
        <ele>808.688</ele>
        <time>2021-07-21T10:30:16Z</time>
      </trkpt>
      <trkpt lat="42.373974" lon="-5.049012">
        <ele>808.156</ele>
        <time>2021-07-21T10:30:17Z</time>
      </trkpt>
      <trkpt lat="42.373947" lon="-5.048945">
        <ele>808.133</ele>
        <time>2021-07-21T10:30:18Z</time>
      </trkpt>
      <trkpt lat="42.373920" lon="-5.048889">
        <ele>808.123</ele>
        <time>2021-07-21T10:30:19Z</time>
      </trkpt>
      <trkpt lat="42.373891" lon="-5.048830">
        <ele>808.115</ele>
        <time>2021-07-21T10:30:20Z</time>
      </trkpt>
      <trkpt lat="42.373630" lon="-5.048347">
        <ele>808.108</ele>
        <time>2021-07-21T10:30:29Z</time>
      </trkpt>
      <trkpt lat="42.373338" lon="-5.047782">
        <ele>808.640</ele>
        <time>2021-07-21T10:30:39Z</time>
      </trkpt>
      <trkpt lat="42.373009" lon="-5.047157">
        <ele>808.652</ele>
        <time>2021-07-21T10:30:50Z</time>
      </trkpt>
      <trkpt lat="42.372743" lon="-5.046641">
        <ele>809.069</ele>
        <time>2021-07-21T10:30:59Z</time>
      </trkpt>
      <trkpt lat="42.372482" lon="-5.046142">
        <ele>808.669</ele>
        <time>2021-07-21T10:31:08Z</time>
      </trkpt>
      <trkpt lat="42.372192" lon="-5.045574">
        <ele>808.643</ele>
        <time>2021-07-21T10:31:18Z</time>
      </trkpt>
      <trkpt lat="42.371948" lon="-5.044959">
        <ele>808.641</ele>
        <time>2021-07-21T10:31:28Z</time>
      </trkpt>
      <trkpt lat="42.371724" lon="-5.044341">
        <ele>807.648</ele>
        <time>2021-07-21T10:31:38Z</time>
      </trkpt>
      <trkpt lat="42.371472" lon="-5.043691">
        <ele>807.616</ele>
        <time>2021-07-21T10:31:48Z</time>
      </trkpt>
      <trkpt lat="42.371235" lon="-5.043061">
        <ele>807.195</ele>
        <time>2021-07-21T10:31:58Z</time>
      </trkpt>
      <trkpt lat="42.371062" lon="-5.042611">
        <ele>807.649</ele>
        <time>2021-07-21T10:32:06Z</time>
      </trkpt>
      <trkpt lat="42.370887" lon="-5.042160">
        <ele>808.623</ele>
        <time>2021-07-21T10:32:15Z</time>
      </trkpt>
      <trkpt lat="42.370698" lon="-5.041625">
        <ele>808.608</ele>
        <time>2021-07-21T10:32:25Z</time>
      </trkpt>
      <trkpt lat="42.370520" lon="-5.041171">
        <ele>808.696</ele>
        <time>2021-07-21T10:32:33Z</time>
      </trkpt>
      <trkpt lat="42.370320" lon="-5.040655">
        <ele>808.648</ele>
        <time>2021-07-21T10:32:42Z</time>
      </trkpt>
      <trkpt lat="42.370120" lon="-5.040147">
        <ele>808.175</ele>
        <time>2021-07-21T10:32:51Z</time>
      </trkpt>
      <trkpt lat="42.369892" lon="-5.039570">
        <ele>808.145</ele>
        <time>2021-07-21T10:33:01Z</time>
      </trkpt>
      <trkpt lat="42.369662" lon="-5.038987">
        <ele>807.649</ele>
        <time>2021-07-21T10:33:11Z</time>
      </trkpt>
      <trkpt lat="42.369622" lon="-5.038872">
        <ele>807.687</ele>
        <time>2021-07-21T10:33:13Z</time>
      </trkpt>
      <trkpt lat="42.369536" lon="-5.038643">
        <ele>807.664</ele>
        <time>2021-07-21T10:33:17Z</time>
      </trkpt>
      <trkpt lat="42.369305" lon="-5.038096">
        <ele>808.122</ele>
        <time>2021-07-21T10:33:27Z</time>
      </trkpt>
      <trkpt lat="42.369094" lon="-5.037556">
        <ele>807.152</ele>
        <time>2021-07-21T10:33:37Z</time>
      </trkpt>
      <trkpt lat="42.368988" lon="-5.037289">
        <ele>807.653</ele>
        <time>2021-07-21T10:33:45Z</time>
      </trkpt>
      <trkpt lat="42.368916" lon="-5.037074">
        <ele>808.108</ele>
        <time>2021-07-21T10:33:56Z</time>
      </trkpt>
      <trkpt lat="42.368914" lon="-5.037052">
        <ele>808.608</ele>
        <time>2021-07-21T10:34:03Z</time>
      </trkpt>
      <trkpt lat="42.368904" lon="-5.037020">
        <ele>808.662</ele>
        <time>2021-07-21T10:34:18Z</time>
      </trkpt>
      <trkpt lat="42.368824" lon="-5.036772">
        <ele>809.064</ele>
        <time>2021-07-21T10:34:25Z</time>
      </trkpt>
      <trkpt lat="42.368759" lon="-5.036313">
        <ele>811.081</ele>
        <time>2021-07-21T10:34:36Z</time>
      </trkpt>
      <trkpt lat="42.368716" lon="-5.035943">
        <ele>810.571</ele>
        <time>2021-07-21T10:34:43Z</time>
      </trkpt>
      <trkpt lat="42.368727" lon="-5.035882">
        <ele>810.555</ele>
        <time>2021-07-21T10:34:44Z</time>
      </trkpt>
      <trkpt lat="42.368756" lon="-5.035821">
        <ele>810.053</ele>
        <time>2021-07-21T10:34:45Z</time>
      </trkpt>
      <trkpt lat="42.368790" lon="-5.035789">
        <ele>810.070</ele>
        <time>2021-07-21T10:34:46Z</time>
      </trkpt>
      <trkpt lat="42.368834" lon="-5.035760">
        <ele>809.588</ele>
        <time>2021-07-21T10:34:47Z</time>
      </trkpt>
      <trkpt lat="42.368887" lon="-5.035726">
        <ele>809.016</ele>
        <time>2021-07-21T10:34:48Z</time>
      </trkpt>
      <trkpt lat="42.368923" lon="-5.035701">
        <ele>809.076</ele>
        <time>2021-07-21T10:34:49Z</time>
      </trkpt>
      <trkpt lat="42.369242" lon="-5.035523">
        <ele>809.513</ele>
        <time>2021-07-21T10:34:56Z</time>
      </trkpt>
      <trkpt lat="42.369443" lon="-5.035298">
        <ele>811.408</ele>
        <time>2021-07-21T10:35:03Z</time>
      </trkpt>
      <trkpt lat="42.369463" lon="-5.035060">
        <ele>812.938</ele>
        <time>2021-07-21T10:35:10Z</time>
      </trkpt>
      <trkpt lat="42.369504" lon="-5.034641">
        <ele>815.380</ele>
        <time>2021-07-21T10:35:21Z</time>
      </trkpt>
      <trkpt lat="42.369521" lon="-5.034313">
        <ele>817.237</ele>
        <time>2021-07-21T10:35:30Z</time>
      </trkpt>
      <trkpt lat="42.369555" lon="-5.033984">
        <ele>819.117</ele>
        <time>2021-07-21T10:35:39Z</time>
      </trkpt>
      <trkpt lat="42.369608" lon="-5.033673">
        <ele>820.621</ele>
        <time>2021-07-21T10:35:48Z</time>
      </trkpt>
      <trkpt lat="42.369723" lon="-5.033583">
        <ele>820.619</ele>
        <time>2021-07-21T10:35:54Z</time>
      </trkpt>
      <trkpt lat="42.369916" lon="-5.033628">
        <ele>821.566</ele>
        <time>2021-07-21T10:36:02Z</time>
      </trkpt>
      <trkpt lat="42.370142" lon="-5.033659">
        <ele>824.924</ele>
        <time>2021-07-21T10:36:10Z</time>
      </trkpt>
      <trkpt lat="42.370330" lon="-5.033679">
        <ele>824.943</ele>
        <time>2021-07-21T10:36:17Z</time>
      </trkpt>
      <trkpt lat="42.370455" lon="-5.033639">
        <ele>824.464</ele>
        <time>2021-07-21T10:36:23Z</time>
      </trkpt>
      <trkpt lat="42.370531" lon="-5.033628">
        <ele>823.910</ele>
        <time>2021-07-21T10:36:30Z</time>
      </trkpt>
      <trkpt lat="42.370534" lon="-5.033627">
        <ele>823.908</ele>
        <time>2021-07-21T10:36:45Z</time>
      </trkpt>
      <trkpt lat="42.370541" lon="-5.033622">
        <ele>823.541</ele>
        <time>2021-07-21T10:36:55Z</time>
      </trkpt>
      <trkpt lat="42.370544" lon="-5.033621">
        <ele>824.443</ele>
        <time>2021-07-21T10:37:06Z</time>
      </trkpt>
      <trkpt lat="42.370597" lon="-5.033604">
        <ele>824.430</ele>
        <time>2021-07-21T10:37:13Z</time>
      </trkpt>
      <trkpt lat="42.370696" lon="-5.033575">
        <ele>824.420</ele>
        <time>2021-07-21T10:37:22Z</time>
      </trkpt>
      <trkpt lat="42.370793" lon="-5.033512">
        <ele>823.954</ele>
        <time>2021-07-21T10:37:33Z</time>
      </trkpt>
      <trkpt lat="42.370789" lon="-5.033540">
        <ele>824.992</ele>
        <time>2021-07-21T10:37:44Z</time>
      </trkpt>
      <trkpt lat="42.370789" lon="-5.033517">
        <ele>822.549</ele>
        <time>2021-07-21T10:37:56Z</time>
      </trkpt>
      <trkpt lat="42.370779" lon="-5.033502">
        <ele>823.557</ele>
        <time>2021-07-21T10:38:07Z</time>
      </trkpt>
      <trkpt lat="42.370781" lon="-5.033530">
        <ele>824.471</ele>
        <time>2021-07-21T10:38:24Z</time>
      </trkpt>
      <trkpt lat="42.370802" lon="-5.033560">
        <ele>824.441</ele>
        <time>2021-07-21T10:38:48Z</time>
      </trkpt>
      <trkpt lat="42.370806" lon="-5.033545">
        <ele>823.515</ele>
        <time>2021-07-21T10:39:00Z</time>
      </trkpt>
      <trkpt lat="42.370837" lon="-5.033505">
        <ele>822.008</ele>
        <time>2021-07-21T10:39:09Z</time>
      </trkpt>
      <trkpt lat="42.370858" lon="-5.033424">
        <ele>822.084</ele>
        <time>2021-07-21T10:39:22Z</time>
      </trkpt>
      <trkpt lat="42.370861" lon="-5.033336">
        <ele>822.526</ele>
        <time>2021-07-21T10:39:31Z</time>
      </trkpt>
      <trkpt lat="42.370885" lon="-5.033321">
        <ele>822.573</ele>
        <time>2021-07-21T10:39:38Z</time>
      </trkpt>
      <trkpt lat="42.370889" lon="-5.033334">
        <ele>821.513</ele>
        <time>2021-07-21T10:39:49Z</time>
      </trkpt>
      <trkpt lat="42.370909" lon="-5.033340">
        <ele>821.147</ele>
        <time>2021-07-21T10:40:00Z</time>
      </trkpt>
      <trkpt lat="42.370925" lon="-5.033334">
        <ele>822.095</ele>
        <time>2021-07-21T10:40:09Z</time>
      </trkpt>
      <trkpt lat="42.370945" lon="-5.033322">
        <ele>819.162</ele>
        <time>2021-07-21T10:40:29Z</time>
      </trkpt>
      <trkpt lat="42.370924" lon="-5.033349">
        <ele>821.520</ele>
        <time>2021-07-21T10:40:51Z</time>
      </trkpt>
      <trkpt lat="42.370952" lon="-5.033308">
        <ele>823.036</ele>
        <time>2021-07-21T10:41:07Z</time>
      </trkpt>
      <trkpt lat="42.370969" lon="-5.033299">
        <ele>821.117</ele>
        <time>2021-07-21T10:41:20Z</time>
      </trkpt>
      <trkpt lat="42.370959" lon="-5.033344">
        <ele>820.118</ele>
        <time>2021-07-21T10:41:45Z</time>
      </trkpt>
      <trkpt lat="42.370965" lon="-5.033291">
        <ele>819.608</ele>
        <time>2021-07-21T10:42:08Z</time>
      </trkpt>
      <trkpt lat="42.370950" lon="-5.033331">
        <ele>818.240</ele>
        <time>2021-07-21T10:42:34Z</time>
      </trkpt>
      <trkpt lat="42.370926" lon="-5.033344">
        <ele>819.612</ele>
        <time>2021-07-21T10:42:49Z</time>
      </trkpt>
      <trkpt lat="42.370930" lon="-5.033310">
        <ele>818.759</ele>
        <time>2021-07-21T10:43:09Z</time>
      </trkpt>
      <trkpt lat="42.370928" lon="-5.033316">
        <ele>818.219</ele>
        <time>2021-07-21T10:43:31Z</time>
      </trkpt>
      <trkpt lat="42.370912" lon="-5.033328">
        <ele>818.223</ele>
        <time>2021-07-21T10:43:44Z</time>
      </trkpt>
      <trkpt lat="42.370891" lon="-5.033345">
        <ele>818.271</ele>
        <time>2021-07-21T10:44:01Z</time>
      </trkpt>
      <trkpt lat="42.370889" lon="-5.033346">
        <ele>820.658</ele>
        <time>2021-07-21T10:44:23Z</time>
      </trkpt>
      <trkpt lat="42.370892" lon="-5.033353">
        <ele>821.576</ele>
        <time>2021-07-21T10:44:38Z</time>
      </trkpt>
      <trkpt lat="42.370903" lon="-5.033341">
        <ele>820.689</ele>
        <time>2021-07-21T10:44:49Z</time>
      </trkpt>
      <trkpt lat="42.370903" lon="-5.033285">
        <ele>820.106</ele>
        <time>2021-07-21T10:44:58Z</time>
      </trkpt>
      <trkpt lat="42.370881" lon="-5.033199">
        <ele>820.126</ele>
        <time>2021-07-21T10:45:02Z</time>
      </trkpt>
      <trkpt lat="42.370839" lon="-5.032893">
        <ele>820.108</ele>
        <time>2021-07-21T10:45:14Z</time>
      </trkpt>
      <trkpt lat="42.370834" lon="-5.032852">
        <ele>820.685</ele>
        <time>2021-07-21T10:45:16Z</time>
      </trkpt>
      <trkpt lat="42.370868" lon="-5.032771">
        <ele>820.637</ele>
        <time>2021-07-21T10:45:22Z</time>
      </trkpt>
      <trkpt lat="42.370896" lon="-5.032755">
        <ele>821.154</ele>
        <time>2021-07-21T10:45:29Z</time>
      </trkpt>
      <trkpt lat="42.370886" lon="-5.032766">
        <ele>821.584</ele>
        <time>2021-07-21T10:45:43Z</time>
      </trkpt>
      <trkpt lat="42.370882" lon="-5.032754">
        <ele>821.168</ele>
        <time>2021-07-21T10:46:00Z</time>
      </trkpt>
      <trkpt lat="42.370886" lon="-5.032758">
        <ele>821.196</ele>
        <time>2021-07-21T10:46:07Z</time>
      </trkpt>
      <trkpt lat="42.370878" lon="-5.032780">
        <ele>824.413</ele>
        <time>2021-07-21T10:46:23Z</time>
      </trkpt>
      <trkpt lat="42.370875" lon="-5.032790">
        <ele>825.491</ele>
        <time>2021-07-21T10:46:38Z</time>
      </trkpt>
      <trkpt lat="42.370886" lon="-5.032822">
        <ele>826.817</ele>
        <time>2021-07-21T10:46:55Z</time>
      </trkpt>
      <trkpt lat="42.370880" lon="-5.032813">
        <ele>825.987</ele>
        <time>2021-07-21T10:47:14Z</time>
      </trkpt>
      <trkpt lat="42.370918" lon="-5.032795">
        <ele>827.315</ele>
        <time>2021-07-21T10:47:25Z</time>
      </trkpt>
      <trkpt lat="42.371025" lon="-5.032753">
        <ele>828.308</ele>
        <time>2021-07-21T10:47:34Z</time>
      </trkpt>
      <trkpt lat="42.371036" lon="-5.032744">
        <ele>828.318</ele>
        <time>2021-07-21T10:47:35Z</time>
      </trkpt>
      <trkpt lat="42.371034" lon="-5.032652">
        <ele>828.790</ele>
        <time>2021-07-21T10:47:41Z</time>
      </trkpt>
      <trkpt lat="42.371035" lon="-5.032626">
        <ele>828.387</ele>
        <time>2021-07-21T10:47:48Z</time>
      </trkpt>
      <trkpt lat="42.371058" lon="-5.032616">
        <ele>828.747</ele>
        <time>2021-07-21T10:48:03Z</time>
      </trkpt>
      <trkpt lat="42.371058" lon="-5.032626">
        <ele>832.141</ele>
        <time>2021-07-21T10:48:22Z</time>
      </trkpt>
      <trkpt lat="42.371054" lon="-5.032633">
        <ele>834.049</ele>
        <time>2021-07-21T10:48:37Z</time>
      </trkpt>
      <trkpt lat="42.371079" lon="-5.032614">
        <ele>832.676</ele>
        <time>2021-07-21T10:48:51Z</time>
      </trkpt>
      <trkpt lat="42.371083" lon="-5.032579">
        <ele>832.174</ele>
        <time>2021-07-21T10:49:00Z</time>
      </trkpt>
      <trkpt lat="42.371039" lon="-5.032440">
        <ele>833.175</ele>
        <time>2021-07-21T10:49:07Z</time>
      </trkpt>
      <trkpt lat="42.370979" lon="-5.032274">
        <ele>833.128</ele>
        <time>2021-07-21T10:49:14Z</time>
      </trkpt>
      <trkpt lat="42.370915" lon="-5.032206">
        <ele>832.120</ele>
        <time>2021-07-21T10:49:18Z</time>
      </trkpt>
      <trkpt lat="42.370762" lon="-5.032140">
        <ele>832.608</ele>
        <time>2021-07-21T10:49:26Z</time>
      </trkpt>
      <trkpt lat="42.370742" lon="-5.032155">
        <ele>831.644</ele>
        <time>2021-07-21T10:49:31Z</time>
      </trkpt>
      <trkpt lat="42.370760" lon="-5.032168">
        <ele>830.256</ele>
        <time>2021-07-21T10:49:44Z</time>
      </trkpt>
      <trkpt lat="42.370775" lon="-5.032168">
        <ele>828.783</ele>
        <time>2021-07-21T10:49:56Z</time>
      </trkpt>
      <trkpt lat="42.370752" lon="-5.032178">
        <ele>828.723</ele>
        <time>2021-07-21T10:50:07Z</time>
      </trkpt>
      <trkpt lat="42.370728" lon="-5.032197">
        <ele>828.347</ele>
        <time>2021-07-21T10:50:16Z</time>
      </trkpt>
      <trkpt lat="42.370720" lon="-5.032186">
        <ele>828.715</ele>
        <time>2021-07-21T10:50:27Z</time>
      </trkpt>
      <trkpt lat="42.370714" lon="-5.032177">
        <ele>828.772</ele>
        <time>2021-07-21T10:50:39Z</time>
      </trkpt>
      <trkpt lat="42.370704" lon="-5.032176">
        <ele>829.230</ele>
        <time>2021-07-21T10:50:49Z</time>
      </trkpt>
      <trkpt lat="42.370717" lon="-5.032181">
        <ele>830.237</ele>
        <time>2021-07-21T10:51:00Z</time>
      </trkpt>
      <trkpt lat="42.370732" lon="-5.032171">
        <ele>829.749</ele>
        <time>2021-07-21T10:51:13Z</time>
      </trkpt>
      <trkpt lat="42.370734" lon="-5.032171">
        <ele>828.713</ele>
        <time>2021-07-21T10:51:21Z</time>
      </trkpt>
      <trkpt lat="42.370708" lon="-5.032177">
        <ele>829.208</ele>
        <time>2021-07-21T10:51:33Z</time>
      </trkpt>
      <trkpt lat="42.370698" lon="-5.032187">
        <ele>830.230</ele>
        <time>2021-07-21T10:51:44Z</time>
      </trkpt>
      <trkpt lat="42.370690" lon="-5.032192">
        <ele>831.232</ele>
        <time>2021-07-21T10:51:55Z</time>
      </trkpt>
      <trkpt lat="42.370698" lon="-5.032189">
        <ele>830.259</ele>
        <time>2021-07-21T10:52:07Z</time>
      </trkpt>
      <trkpt lat="42.370708" lon="-5.032191">
        <ele>830.259</ele>
        <time>2021-07-21T10:52:24Z</time>
      </trkpt>
      <trkpt lat="42.370696" lon="-5.032172">
        <ele>830.213</ele>
        <time>2021-07-21T10:52:38Z</time>
      </trkpt>
      <trkpt lat="42.370682" lon="-5.032167">
        <ele>829.271</ele>
        <time>2021-07-21T10:52:56Z</time>
      </trkpt>
      <trkpt lat="42.370675" lon="-5.032161">
        <ele>827.838</ele>
        <time>2021-07-21T10:53:16Z</time>
      </trkpt>
      <trkpt lat="42.370701" lon="-5.032184">
        <ele>826.316</ele>
        <time>2021-07-21T10:53:32Z</time>
      </trkpt>
      <trkpt lat="42.370695" lon="-5.032185">
        <ele>826.879</ele>
        <time>2021-07-21T10:53:50Z</time>
      </trkpt>
      <trkpt lat="42.370722" lon="-5.032198">
        <ele>827.305</ele>
        <time>2021-07-21T10:54:07Z</time>
      </trkpt>
      <trkpt lat="42.370718" lon="-5.032190">
        <ele>826.825</ele>
        <time>2021-07-21T10:54:28Z</time>
      </trkpt>
      <trkpt lat="42.370732" lon="-5.032189">
        <ele>826.808</ele>
        <time>2021-07-21T10:54:45Z</time>
      </trkpt>
      <trkpt lat="42.370745" lon="-5.032191">
        <ele>826.314</ele>
        <time>2021-07-21T10:55:01Z</time>
      </trkpt>
      <trkpt lat="42.370759" lon="-5.032187">
        <ele>825.456</ele>
        <time>2021-07-21T10:55:12Z</time>
      </trkpt>
      <trkpt lat="42.370762" lon="-5.032193">
        <ele>824.463</ele>
        <time>2021-07-21T10:55:22Z</time>
      </trkpt>
      <trkpt lat="42.370747" lon="-5.032165">
        <ele>824.983</ele>
        <time>2021-07-21T10:55:30Z</time>
      </trkpt>
      <trkpt lat="42.370749" lon="-5.032177">
        <ele>824.487</ele>
        <time>2021-07-21T10:55:36Z</time>
      </trkpt>
      <trkpt lat="42.370753" lon="-5.032194">
        <ele>824.475</ele>
        <time>2021-07-21T10:55:45Z</time>
      </trkpt>
      <trkpt lat="42.370746" lon="-5.032214">
        <ele>823.512</ele>
        <time>2021-07-21T10:55:58Z</time>
      </trkpt>
      <trkpt lat="42.370728" lon="-5.032221">
        <ele>823.010</ele>
        <time>2021-07-21T10:56:11Z</time>
      </trkpt>
      <trkpt lat="42.370726" lon="-5.032227">
        <ele>823.073</ele>
        <time>2021-07-21T10:56:16Z</time>
      </trkpt>
      <trkpt lat="42.370743" lon="-5.032327">
        <ele>822.585</ele>
        <time>2021-07-21T10:56:22Z</time>
      </trkpt>
      <trkpt lat="42.370752" lon="-5.032361">
        <ele>822.513</ele>
        <time>2021-07-21T10:56:24Z</time>
      </trkpt>
      <trkpt lat="42.370723" lon="-5.032409">
        <ele>822.508</ele>
        <time>2021-07-21T10:56:29Z</time>
      </trkpt>
      <trkpt lat="42.370643" lon="-5.032401">
        <ele>823.544</ele>
        <time>2021-07-21T10:56:35Z</time>
      </trkpt>
      <trkpt lat="42.370504" lon="-5.032420">
        <ele>823.946</ele>
        <time>2021-07-21T10:56:44Z</time>
      </trkpt>
      <trkpt lat="42.370450" lon="-5.032451">
        <ele>824.933</ele>
        <time>2021-07-21T10:56:52Z</time>
      </trkpt>
      <trkpt lat="42.370439" lon="-5.032464">
        <ele>824.963</ele>
        <time>2021-07-21T10:56:54Z</time>
      </trkpt>
      <trkpt lat="42.370443" lon="-5.032632">
        <ele>822.587</ele>
        <time>2021-07-21T10:57:02Z</time>
      </trkpt>
      <trkpt lat="42.370439" lon="-5.032923">
        <ele>822.595</ele>
        <time>2021-07-21T10:57:10Z</time>
      </trkpt>
      <trkpt lat="42.370434" lon="-5.033177">
        <ele>822.552</ele>
        <time>2021-07-21T10:57:17Z</time>
      </trkpt>
      <trkpt lat="42.370430" lon="-5.033237">
        <ele>822.080</ele>
        <time>2021-07-21T10:57:19Z</time>
      </trkpt>
      <trkpt lat="42.370424" lon="-5.033274">
        <ele>822.065</ele>
        <time>2021-07-21T10:57:26Z</time>
      </trkpt>
      <trkpt lat="42.370460" lon="-5.033281">
        <ele>823.568</ele>
        <time>2021-07-21T10:57:40Z</time>
      </trkpt>
      <trkpt lat="42.370477" lon="-5.033282">
        <ele>823.514</ele>
        <time>2021-07-21T10:57:53Z</time>
      </trkpt>
      <trkpt lat="42.370490" lon="-5.033278">
        <ele>822.008</ele>
        <time>2021-07-21T10:58:06Z</time>
      </trkpt>
      <trkpt lat="42.370498" lon="-5.033285">
        <ele>822.523</ele>
        <time>2021-07-21T10:58:18Z</time>
      </trkpt>
      <trkpt lat="42.370507" lon="-5.033299">
        <ele>822.525</ele>
        <time>2021-07-21T10:58:41Z</time>
      </trkpt>
      <trkpt lat="42.370502" lon="-5.033295">
        <ele>822.552</ele>
        <time>2021-07-21T10:58:55Z</time>
      </trkpt>
      <trkpt lat="42.370502" lon="-5.033278">
        <ele>821.552</ele>
        <time>2021-07-21T10:59:08Z</time>
      </trkpt>
      <trkpt lat="42.370501" lon="-5.033268">
        <ele>823.936</ele>
        <time>2021-07-21T10:59:24Z</time>
      </trkpt>
      <trkpt lat="42.370512" lon="-5.033275">
        <ele>825.424</ele>
        <time>2021-07-21T10:59:39Z</time>
      </trkpt>
      <trkpt lat="42.370523" lon="-5.033280">
        <ele>823.591</ele>
        <time>2021-07-21T10:59:58Z</time>
      </trkpt>
      <trkpt lat="42.370508" lon="-5.033282">
        <ele>823.929</ele>
        <time>2021-07-21T11:00:13Z</time>
      </trkpt>
      <trkpt lat="42.370503" lon="-5.033285">
        <ele>823.543</ele>
        <time>2021-07-21T11:00:29Z</time>
      </trkpt>
      <trkpt lat="42.370493" lon="-5.033283">
        <ele>823.564</ele>
        <time>2021-07-21T11:00:45Z</time>
      </trkpt>
      <trkpt lat="42.370497" lon="-5.033289">
        <ele>822.510</ele>
        <time>2021-07-21T11:01:03Z</time>
      </trkpt>
      <trkpt lat="42.370495" lon="-5.033282">
        <ele>823.508</ele>
        <time>2021-07-21T11:01:23Z</time>
      </trkpt>
      <trkpt lat="42.370490" lon="-5.033276">
        <ele>823.951</ele>
        <time>2021-07-21T11:01:40Z</time>
      </trkpt>
      <trkpt lat="42.370493" lon="-5.033283">
        <ele>823.013</ele>
        <time>2021-07-21T11:01:55Z</time>
      </trkpt>
      <trkpt lat="42.370493" lon="-5.033300">
        <ele>822.590</ele>
        <time>2021-07-21T11:02:16Z</time>
      </trkpt>
      <trkpt lat="42.370478" lon="-5.033301">
        <ele>823.020</ele>
        <time>2021-07-21T11:02:36Z</time>
      </trkpt>
      <trkpt lat="42.370469" lon="-5.033293">
        <ele>823.034</ele>
        <time>2021-07-21T11:02:56Z</time>
      </trkpt>
      <trkpt lat="42.370473" lon="-5.033303">
        <ele>822.552</ele>
        <time>2021-07-21T11:03:11Z</time>
      </trkpt>
      <trkpt lat="42.370469" lon="-5.033298">
        <ele>821.119</ele>
        <time>2021-07-21T11:03:25Z</time>
      </trkpt>
      <trkpt lat="42.370445" lon="-5.033273">
        <ele>820.617</ele>
        <time>2021-07-21T11:03:38Z</time>
      </trkpt>
      <trkpt lat="42.370432" lon="-5.033259">
        <ele>822.053</ele>
        <time>2021-07-21T11:03:53Z</time>
      </trkpt>
      <trkpt lat="42.370414" lon="-5.033250">
        <ele>823.504</ele>
        <time>2021-07-21T11:04:06Z</time>
      </trkpt>
      <trkpt lat="42.370405" lon="-5.033259">
        <ele>822.514</ele>
        <time>2021-07-21T11:04:20Z</time>
      </trkpt>
      <trkpt lat="42.370422" lon="-5.033257">
        <ele>822.008</ele>
        <time>2021-07-21T11:04:36Z</time>
      </trkpt>
      <trkpt lat="42.370434" lon="-5.033258">
        <ele>822.592</ele>
        <time>2021-07-21T11:04:47Z</time>
      </trkpt>
      <trkpt lat="42.370429" lon="-5.033269">
        <ele>821.524</ele>
        <time>2021-07-21T11:04:59Z</time>
      </trkpt>
      <trkpt lat="42.370419" lon="-5.033272">
        <ele>821.141</ele>
        <time>2021-07-21T11:05:10Z</time>
      </trkpt>
      <trkpt lat="42.370422" lon="-5.033271">
        <ele>821.171</ele>
        <time>2021-07-21T11:05:18Z</time>
      </trkpt>
      <trkpt lat="42.370451" lon="-5.033280">
        <ele>820.685</ele>
        <time>2021-07-21T11:05:24Z</time>
      </trkpt>
      <trkpt lat="42.370456" lon="-5.033277">
        <ele>820.693</ele>
        <time>2021-07-21T11:05:27Z</time>
      </trkpt>
      <trkpt lat="42.370459" lon="-5.033245">
        <ele>820.180</ele>
        <time>2021-07-21T11:05:30Z</time>
      </trkpt>
      <trkpt lat="42.370443" lon="-5.033179">
        <ele>820.118</ele>
        <time>2021-07-21T11:05:34Z</time>
      </trkpt>
      <trkpt lat="42.370450" lon="-5.033000">
        <ele>819.196</ele>
        <time>2021-07-21T11:05:43Z</time>
      </trkpt>
      <trkpt lat="42.370447" lon="-5.032782">
        <ele>819.131</ele>
        <time>2021-07-21T11:05:51Z</time>
      </trkpt>
      <trkpt lat="42.370441" lon="-5.032514">
        <ele>819.624</ele>
        <time>2021-07-21T11:06:01Z</time>
      </trkpt>
      <trkpt lat="42.370432" lon="-5.032220">
        <ele>821.108</ele>
        <time>2021-07-21T11:06:10Z</time>
      </trkpt>
      <trkpt lat="42.370464" lon="-5.031915">
        <ele>820.636</ele>
        <time>2021-07-21T11:06:19Z</time>
      </trkpt>
      <trkpt lat="42.370522" lon="-5.031694">
        <ele>820.638</ele>
        <time>2021-07-21T11:06:28Z</time>
      </trkpt>
      <trkpt lat="42.370571" lon="-5.031507">
        <ele>821.185</ele>
        <time>2021-07-21T11:06:35Z</time>
      </trkpt>
      <trkpt lat="42.370688" lon="-5.031190">
        <ele>821.555</ele>
        <time>2021-07-21T11:06:45Z</time>
      </trkpt>
      <trkpt lat="42.370692" lon="-5.031162">
        <ele>821.579</ele>
        <time>2021-07-21T11:06:50Z</time>
      </trkpt>
      <trkpt lat="42.370711" lon="-5.031083">
        <ele>822.567</ele>
        <time>2021-07-21T11:06:58Z</time>
      </trkpt>
      <trkpt lat="42.370729" lon="-5.030848">
        <ele>823.544</ele>
        <time>2021-07-21T11:07:05Z</time>
      </trkpt>
      <trkpt lat="42.370762" lon="-5.030527">
        <ele>823.962</ele>
        <time>2021-07-21T11:07:14Z</time>
      </trkpt>
      <trkpt lat="42.370770" lon="-5.030102">
        <ele>825.432</ele>
        <time>2021-07-21T11:07:25Z</time>
      </trkpt>
      <trkpt lat="42.370762" lon="-5.029782">
        <ele>826.892</ele>
        <time>2021-07-21T11:07:33Z</time>
      </trkpt>
      <trkpt lat="42.370759" lon="-5.029606">
        <ele>827.811</ele>
        <time>2021-07-21T11:07:39Z</time>
      </trkpt>
      <trkpt lat="42.370761" lon="-5.029462">
        <ele>828.308</ele>
        <time>2021-07-21T11:07:47Z</time>
      </trkpt>
      <trkpt lat="42.370758" lon="-5.029305">
        <ele>830.210</ele>
        <time>2021-07-21T11:07:54Z</time>
      </trkpt>
      <trkpt lat="42.370749" lon="-5.029083">
        <ele>832.162</ele>
        <time>2021-07-21T11:08:03Z</time>
      </trkpt>
      <trkpt lat="42.370698" lon="-5.028878">
        <ele>833.119</ele>
        <time>2021-07-21T11:08:12Z</time>
      </trkpt>
      <trkpt lat="42.370692" lon="-5.028662">
        <ele>834.029</ele>
        <time>2021-07-21T11:08:20Z</time>
      </trkpt>
      <trkpt lat="42.370692" lon="-5.028370">
        <ele>835.073</ele>
        <time>2021-07-21T11:08:30Z</time>
      </trkpt>
      <trkpt lat="42.370662" lon="-5.028142">
        <ele>835.531</ele>
        <time>2021-07-21T11:08:39Z</time>
      </trkpt>
      <trkpt lat="42.370633" lon="-5.027944">
        <ele>834.578</ele>
        <time>2021-07-21T11:08:46Z</time>
      </trkpt>
      <trkpt lat="42.370630" lon="-5.027925">
        <ele>834.586</ele>
        <time>2021-07-21T11:08:47Z</time>
      </trkpt>
      <trkpt lat="42.370653" lon="-5.027840">
        <ele>835.093</ele>
        <time>2021-07-21T11:08:53Z</time>
      </trkpt>
      <trkpt lat="42.370699" lon="-5.027836">
        <ele>835.565</ele>
        <time>2021-07-21T11:08:59Z</time>
      </trkpt>
      <trkpt lat="42.370711" lon="-5.027821">
        <ele>836.421</ele>
        <time>2021-07-21T11:09:05Z</time>
      </trkpt>
      <trkpt lat="42.370707" lon="-5.027783">
        <ele>836.908</ele>
        <time>2021-07-21T11:09:11Z</time>
      </trkpt>
      <trkpt lat="42.370633" lon="-5.027611">
        <ele>836.046</ele>
        <time>2021-07-21T11:09:19Z</time>
      </trkpt>
      <trkpt lat="42.370598" lon="-5.027485">
        <ele>835.578</ele>
        <time>2021-07-21T11:09:25Z</time>
      </trkpt>
      <trkpt lat="42.370568" lon="-5.027357">
        <ele>836.045</ele>
        <time>2021-07-21T11:09:31Z</time>
      </trkpt>
      <trkpt lat="42.370579" lon="-5.027322">
        <ele>836.075</ele>
        <time>2021-07-21T11:09:35Z</time>
      </trkpt>
      <trkpt lat="42.370595" lon="-5.027425">
        <ele>835.079</ele>
        <time>2021-07-21T11:09:39Z</time>
      </trkpt>
      <trkpt lat="42.370628" lon="-5.027457">
        <ele>835.087</ele>
        <time>2021-07-21T11:09:42Z</time>
      </trkpt>
      <trkpt lat="42.370675" lon="-5.027387">
        <ele>833.614</ele>
        <time>2021-07-21T11:09:48Z</time>
      </trkpt>
      <trkpt lat="42.370743" lon="-5.027271">
        <ele>828.762</ele>
        <time>2021-07-21T11:09:55Z</time>
      </trkpt>
      <trkpt lat="42.370871" lon="-5.027209">
        <ele>827.897</ele>
        <time>2021-07-21T11:10:01Z</time>
      </trkpt>
      <trkpt lat="42.371001" lon="-5.027294">
        <ele>830.723</ele>
        <time>2021-07-21T11:10:09Z</time>
      </trkpt>
      <trkpt lat="42.371003" lon="-5.027321">
        <ele>833.125</ele>
        <time>2021-07-21T11:10:16Z</time>
      </trkpt>
      <trkpt lat="42.371003" lon="-5.027374">
        <ele>834.508</ele>
        <time>2021-07-21T11:10:27Z</time>
      </trkpt>
      <trkpt lat="42.371006" lon="-5.027374">
        <ele>837.476</ele>
        <time>2021-07-21T11:10:42Z</time>
      </trkpt>
      <trkpt lat="42.371023" lon="-5.027336">
        <ele>839.318</ele>
        <time>2021-07-21T11:10:54Z</time>
      </trkpt>
      <trkpt lat="42.371024" lon="-5.027325">
        <ele>840.395</ele>
        <time>2021-07-21T11:11:03Z</time>
      </trkpt>
      <trkpt lat="42.370982" lon="-5.027340">
        <ele>841.745</ele>
        <time>2021-07-21T11:11:15Z</time>
      </trkpt>
      <trkpt lat="42.370966" lon="-5.027332">
        <ele>843.679</ele>
        <time>2021-07-21T11:11:29Z</time>
      </trkpt>
      <trkpt lat="42.370973" lon="-5.027339">
        <ele>844.677</ele>
        <time>2021-07-21T11:11:38Z</time>
      </trkpt>
      <trkpt lat="42.371002" lon="-5.027345">
        <ele>844.134</ele>
        <time>2021-07-21T11:11:50Z</time>
      </trkpt>
      <trkpt lat="42.370996" lon="-5.027305">
        <ele>843.682</ele>
        <time>2021-07-21T11:11:57Z</time>
      </trkpt>
      <trkpt lat="42.370994" lon="-5.027282">
        <ele>842.794</ele>
        <time>2021-07-21T11:12:04Z</time>
      </trkpt>
      <trkpt lat="42.371007" lon="-5.027201">
        <ele>842.757</ele>
        <time>2021-07-21T11:12:09Z</time>
      </trkpt>
      <trkpt lat="42.371037" lon="-5.027167">
        <ele>842.222</ele>
        <time>2021-07-21T11:12:12Z</time>
      </trkpt>
      <trkpt lat="42.370960" lon="-5.027144">
        <ele>842.708</ele>
        <time>2021-07-21T11:12:19Z</time>
      </trkpt>
      <trkpt lat="42.370955" lon="-5.027128">
        <ele>842.736</ele>
        <time>2021-07-21T11:12:20Z</time>
      </trkpt>
      <trkpt lat="42.370938" lon="-5.027084">
        <ele>842.278</ele>
        <time>2021-07-21T11:12:23Z</time>
      </trkpt>
      <trkpt lat="42.370937" lon="-5.026946">
        <ele>840.365</ele>
        <time>2021-07-21T11:12:32Z</time>
      </trkpt>
      <trkpt lat="42.370907" lon="-5.026800">
        <ele>839.865</ele>
        <time>2021-07-21T11:12:40Z</time>
      </trkpt>
      <trkpt lat="42.370871" lon="-5.026616">
        <ele>839.829</ele>
        <time>2021-07-21T11:12:48Z</time>
      </trkpt>
      <trkpt lat="42.370874" lon="-5.026505">
        <ele>840.887</ele>
        <time>2021-07-21T11:12:54Z</time>
      </trkpt>
      <trkpt lat="42.370938" lon="-5.026384">
        <ele>839.884</ele>
        <time>2021-07-21T11:13:01Z</time>
      </trkpt>
      <trkpt lat="42.370959" lon="-5.026358">
        <ele>839.352</ele>
        <time>2021-07-21T11:13:03Z</time>
      </trkpt>
      <trkpt lat="42.371086" lon="-5.026225">
        <ele>840.314</ele>
        <time>2021-07-21T11:13:13Z</time>
      </trkpt>
      <trkpt lat="42.371168" lon="-5.026137">
        <ele>841.254</ele>
        <time>2021-07-21T11:13:23Z</time>
      </trkpt>
      <trkpt lat="42.371173" lon="-5.026117">
        <ele>840.309</ele>
        <time>2021-07-21T11:13:37Z</time>
      </trkpt>
      <trkpt lat="42.371187" lon="-5.026124">
        <ele>840.308</ele>
        <time>2021-07-21T11:13:48Z</time>
      </trkpt>
      <trkpt lat="42.371199" lon="-5.026120">
        <ele>840.358</ele>
        <time>2021-07-21T11:14:02Z</time>
      </trkpt>
      <trkpt lat="42.371220" lon="-5.026001">
        <ele>842.720</ele>
        <time>2021-07-21T11:14:08Z</time>
      </trkpt>
      <trkpt lat="42.371240" lon="-5.025976">
        <ele>842.727</ele>
        <time>2021-07-21T11:14:09Z</time>
      </trkpt>
      <trkpt lat="42.371255" lon="-5.025962">
        <ele>843.237</ele>
        <time>2021-07-21T11:14:10Z</time>
      </trkpt>
      <trkpt lat="42.371272" lon="-5.025949">
        <ele>843.291</ele>
        <time>2021-07-21T11:14:11Z</time>
      </trkpt>
      <trkpt lat="42.371388" lon="-5.025827">
        <ele>843.299</ele>
        <time>2021-07-21T11:14:18Z</time>
      </trkpt>
      <trkpt lat="42.371392" lon="-5.025806">
        <ele>843.286</ele>
        <time>2021-07-21T11:14:19Z</time>
      </trkpt>
      <trkpt lat="42.371386" lon="-5.025786">
        <ele>843.614</ele>
        <time>2021-07-21T11:14:20Z</time>
      </trkpt>
      <trkpt lat="42.371308" lon="-5.025626">
        <ele>843.218</ele>
        <time>2021-07-21T11:14:28Z</time>
      </trkpt>
      <trkpt lat="42.371232" lon="-5.025465">
        <ele>843.298</ele>
        <time>2021-07-21T11:14:35Z</time>
      </trkpt>
      <trkpt lat="42.371116" lon="-5.025172">
        <ele>842.217</ele>
        <time>2021-07-21T11:14:44Z</time>
      </trkpt>
      <trkpt lat="42.371075" lon="-5.024859">
        <ele>840.808</ele>
        <time>2021-07-21T11:14:50Z</time>
      </trkpt>
      <trkpt lat="42.371065" lon="-5.024733">
        <ele>840.368</ele>
        <time>2021-07-21T11:14:52Z</time>
      </trkpt>
      <trkpt lat="42.371000" lon="-5.024184">
        <ele>838.480</ele>
        <time>2021-07-21T11:15:01Z</time>
      </trkpt>
      <trkpt lat="42.370991" lon="-5.024125">
        <ele>838.497</ele>
        <time>2021-07-21T11:15:02Z</time>
      </trkpt>
      <trkpt lat="42.370878" lon="-5.023849">
        <ele>837.447</ele>
        <time>2021-07-21T11:15:08Z</time>
      </trkpt>
      <trkpt lat="42.370739" lon="-5.023681">
        <ele>837.441</ele>
        <time>2021-07-21T11:15:15Z</time>
      </trkpt>
      <trkpt lat="42.370678" lon="-5.023639">
        <ele>837.439</ele>
        <time>2021-07-21T11:15:18Z</time>
      </trkpt>
      <trkpt lat="42.370657" lon="-5.023601">
        <ele>837.466</ele>
        <time>2021-07-21T11:15:24Z</time>
      </trkpt>
      <trkpt lat="42.370674" lon="-5.023608">
        <ele>836.084</ele>
        <time>2021-07-21T11:15:37Z</time>
      </trkpt>
      <trkpt lat="42.370660" lon="-5.023612">
        <ele>835.588</ele>
        <time>2021-07-21T11:15:56Z</time>
      </trkpt>
      <trkpt lat="42.370677" lon="-5.023615">
        <ele>834.024</ele>
        <time>2021-07-21T11:16:09Z</time>
      </trkpt>
      <trkpt lat="42.370701" lon="-5.023596">
        <ele>834.526</ele>
        <time>2021-07-21T11:16:28Z</time>
      </trkpt>
      <trkpt lat="42.370677" lon="-5.023574">
        <ele>836.408</ele>
        <time>2021-07-21T11:16:47Z</time>
      </trkpt>
      <trkpt lat="42.370663" lon="-5.023574">
        <ele>836.015</ele>
        <time>2021-07-21T11:16:54Z</time>
      </trkpt>
      <trkpt lat="42.370639" lon="-5.023571">
        <ele>837.497</ele>
        <time>2021-07-21T11:17:22Z</time>
      </trkpt>
      <trkpt lat="42.370620" lon="-5.023561">
        <ele>836.944</ele>
        <time>2021-07-21T11:17:29Z</time>
      </trkpt>
      <trkpt lat="42.370614" lon="-5.023565">
        <ele>836.994</ele>
        <time>2021-07-21T11:17:33Z</time>
      </trkpt>
      <trkpt lat="42.370498" lon="-5.023502">
        <ele>836.028</ele>
        <time>2021-07-21T11:17:40Z</time>
      </trkpt>
      <trkpt lat="42.370481" lon="-5.023473">
        <ele>836.046</ele>
        <time>2021-07-21T11:17:41Z</time>
      </trkpt>
      <trkpt lat="42.370275" lon="-5.023043">
        <ele>834.533</ele>
        <time>2021-07-21T11:17:52Z</time>
      </trkpt>
      <trkpt lat="42.370231" lon="-5.022952">
        <ele>834.061</ele>
        <time>2021-07-21T11:17:54Z</time>
      </trkpt>
      <trkpt lat="42.370157" lon="-5.022686">
        <ele>833.658</ele>
        <time>2021-07-21T11:17:59Z</time>
      </trkpt>
      <trkpt lat="42.370202" lon="-5.022033">
        <ele>833.152</ele>
        <time>2021-07-21T11:18:09Z</time>
      </trkpt>
      <trkpt lat="42.370186" lon="-5.021796">
        <ele>832.617</ele>
        <time>2021-07-21T11:18:15Z</time>
      </trkpt>
      <trkpt lat="42.370112" lon="-5.021590">
        <ele>833.108</ele>
        <time>2021-07-21T11:18:22Z</time>
      </trkpt>
      <trkpt lat="42.370127" lon="-5.021439">
        <ele>833.182</ele>
        <time>2021-07-21T11:18:27Z</time>
      </trkpt>
      <trkpt lat="42.370171" lon="-5.021349">
        <ele>833.164</ele>
        <time>2021-07-21T11:18:30Z</time>
      </trkpt>
      <trkpt lat="42.370174" lon="-5.021311">
        <ele>833.151</ele>
        <time>2021-07-21T11:18:31Z</time>
      </trkpt>
      <trkpt lat="42.370180" lon="-5.020929">
        <ele>831.681</ele>
        <time>2021-07-21T11:18:38Z</time>
      </trkpt>
      <trkpt lat="42.370152" lon="-5.020328">
        <ele>830.215</ele>
        <time>2021-07-21T11:18:47Z</time>
      </trkpt>
      <trkpt lat="42.370082" lon="-5.019550">
        <ele>828.333</ele>
        <time>2021-07-21T11:18:57Z</time>
      </trkpt>
      <trkpt lat="42.370045" lon="-5.018834">
        <ele>827.870</ele>
        <time>2021-07-21T11:19:06Z</time>
      </trkpt>
      <trkpt lat="42.369998" lon="-5.018243">
        <ele>827.848</ele>
        <time>2021-07-21T11:19:14Z</time>
      </trkpt>
      <trkpt lat="42.370018" lon="-5.017675">
        <ele>827.355</ele>
        <time>2021-07-21T11:19:22Z</time>
      </trkpt>
      <trkpt lat="42.370003" lon="-5.016868">
        <ele>826.307</ele>
        <time>2021-07-21T11:19:34Z</time>
      </trkpt>
      <trkpt lat="42.369992" lon="-5.016217">
        <ele>825.917</ele>
        <time>2021-07-21T11:19:44Z</time>
      </trkpt>
      <trkpt lat="42.369990" lon="-5.015977">
        <ele>825.908</ele>
        <time>2021-07-21T11:19:48Z</time>
      </trkpt>
      <trkpt lat="42.370015" lon="-5.015438">
        <ele>824.952</ele>
        <time>2021-07-21T11:19:56Z</time>
      </trkpt>
      <trkpt lat="42.370113" lon="-5.014753">
        <ele>823.514</ele>
        <time>2021-07-21T11:20:06Z</time>
      </trkpt>
      <trkpt lat="42.370134" lon="-5.014244">
        <ele>823.091</ele>
        <time>2021-07-21T11:20:14Z</time>
      </trkpt>
      <trkpt lat="42.370075" lon="-5.013660">
        <ele>822.011</ele>
        <time>2021-07-21T11:20:23Z</time>
      </trkpt>
      <trkpt lat="42.370039" lon="-5.013245">
        <ele>822.015</ele>
        <time>2021-07-21T11:20:30Z</time>
      </trkpt>
      <trkpt lat="42.370042" lon="-5.013187">
        <ele>822.033</ele>
        <time>2021-07-21T11:20:31Z</time>
      </trkpt>
      <trkpt lat="42.370050" lon="-5.013128">
        <ele>822.080</ele>
        <time>2021-07-21T11:20:32Z</time>
      </trkpt>
      <trkpt lat="42.370061" lon="-5.013074">
        <ele>822.048</ele>
        <time>2021-07-21T11:20:33Z</time>
      </trkpt>
      <trkpt lat="42.370077" lon="-5.013020">
        <ele>822.022</ele>
        <time>2021-07-21T11:20:34Z</time>
      </trkpt>
      <trkpt lat="42.370095" lon="-5.012974">
        <ele>822.062</ele>
        <time>2021-07-21T11:20:35Z</time>
      </trkpt>
      <trkpt lat="42.370257" lon="-5.012742">
        <ele>821.508</ele>
        <time>2021-07-21T11:20:42Z</time>
      </trkpt>
      <trkpt lat="42.370249" lon="-5.012537">
        <ele>822.008</ele>
        <time>2021-07-21T11:20:47Z</time>
      </trkpt>
      <trkpt lat="42.370067" lon="-5.012260">
        <ele>822.019</ele>
        <time>2021-07-21T11:20:56Z</time>
      </trkpt>
      <trkpt lat="42.369974" lon="-5.012007">
        <ele>821.581</ele>
        <time>2021-07-21T11:21:03Z</time>
      </trkpt>
      <trkpt lat="42.369979" lon="-5.011453">
        <ele>821.138</ele>
        <time>2021-07-21T11:21:13Z</time>
      </trkpt>
      <trkpt lat="42.369946" lon="-5.011040">
        <ele>820.658</ele>
        <time>2021-07-21T11:21:21Z</time>
      </trkpt>
      <trkpt lat="42.369901" lon="-5.010456">
        <ele>819.642</ele>
        <time>2021-07-21T11:21:32Z</time>
      </trkpt>
      <trkpt lat="42.369879" lon="-5.009986">
        <ele>819.110</ele>
        <time>2021-07-21T11:21:41Z</time>
      </trkpt>
      <trkpt lat="42.369843" lon="-5.009556">
        <ele>817.717</ele>
        <time>2021-07-21T11:21:49Z</time>
      </trkpt>
      <trkpt lat="42.369789" lon="-5.008922">
        <ele>816.785</ele>
        <time>2021-07-21T11:21:59Z</time>
      </trkpt>
      <trkpt lat="42.369704" lon="-5.008169">
        <ele>815.822</ele>
        <time>2021-07-21T11:22:11Z</time>
      </trkpt>
      <trkpt lat="42.369592" lon="-5.007519">
        <ele>815.362</ele>
        <time>2021-07-21T11:22:21Z</time>
      </trkpt>
      <trkpt lat="42.369496" lon="-5.006827">
        <ele>814.808</ele>
        <time>2021-07-21T11:22:31Z</time>
      </trkpt>
      <trkpt lat="42.369445" lon="-5.006159">
        <ele>814.808</ele>
        <time>2021-07-21T11:22:41Z</time>
      </trkpt>
      <trkpt lat="42.369449" lon="-5.005481">
        <ele>814.829</ele>
        <time>2021-07-21T11:22:52Z</time>
      </trkpt>
      <trkpt lat="42.369457" lon="-5.004898">
        <ele>814.871</ele>
        <time>2021-07-21T11:23:02Z</time>
      </trkpt>
      <trkpt lat="42.369470" lon="-5.004288">
        <ele>814.378</ele>
        <time>2021-07-21T11:23:13Z</time>
      </trkpt>
      <trkpt lat="42.369484" lon="-5.003906">
        <ele>813.888</ele>
        <time>2021-07-21T11:23:20Z</time>
      </trkpt>
      <trkpt lat="42.369475" lon="-5.003282">
        <ele>813.872</ele>
        <time>2021-07-21T11:23:31Z</time>
      </trkpt>
      <trkpt lat="42.369490" lon="-5.002692">
        <ele>813.480</ele>
        <time>2021-07-21T11:23:42Z</time>
      </trkpt>
      <trkpt lat="42.369539" lon="-5.002312">
        <ele>813.427</ele>
        <time>2021-07-21T11:23:49Z</time>
      </trkpt>
      <trkpt lat="42.369637" lon="-5.001800">
        <ele>812.915</ele>
        <time>2021-07-21T11:23:59Z</time>
      </trkpt>
      <trkpt lat="42.369747" lon="-5.001359">
        <ele>812.962</ele>
        <time>2021-07-21T11:24:08Z</time>
      </trkpt>
      <trkpt lat="42.369902" lon="-5.001007">
        <ele>812.983</ele>
        <time>2021-07-21T11:24:16Z</time>
      </trkpt>
      <trkpt lat="42.370099" lon="-5.000710">
        <ele>812.911</ele>
        <time>2021-07-21T11:24:25Z</time>
      </trkpt>
      <trkpt lat="42.370277" lon="-5.000504">
        <ele>812.408</ele>
        <time>2021-07-21T11:24:35Z</time>
      </trkpt>
      <trkpt lat="42.370379" lon="-5.000357">
        <ele>812.973</ele>
        <time>2021-07-21T11:24:44Z</time>
      </trkpt>
      <trkpt lat="42.370392" lon="-5.000333">
        <ele>812.985</ele>
        <time>2021-07-21T11:24:50Z</time>
      </trkpt>
      <trkpt lat="42.370409" lon="-5.000322">
        <ele>812.922</ele>
        <time>2021-07-21T11:24:56Z</time>
      </trkpt>
      <trkpt lat="42.370419" lon="-5.000315">
        <ele>812.942</ele>
        <time>2021-07-21T11:24:57Z</time>
      </trkpt>
      <trkpt lat="42.370430" lon="-5.000313">
        <ele>812.946</ele>
        <time>2021-07-21T11:24:58Z</time>
      </trkpt>
      <trkpt lat="42.370442" lon="-5.000315">
        <ele>812.974</ele>
        <time>2021-07-21T11:24:59Z</time>
      </trkpt>
      <trkpt lat="42.370456" lon="-5.000321">
        <ele>813.431</ele>
        <time>2021-07-21T11:25:00Z</time>
      </trkpt>
      <trkpt lat="42.370515" lon="-5.000395">
        <ele>813.489</ele>
        <time>2021-07-21T11:25:05Z</time>
      </trkpt>
      <trkpt lat="42.370545" lon="-5.000446">
        <ele>813.481</ele>
        <time>2021-07-21T11:25:12Z</time>
      </trkpt>
      <trkpt lat="42.370543" lon="-5.000436">
        <ele>814.361</ele>
        <time>2021-07-21T11:25:24Z</time>
      </trkpt>
      <trkpt lat="42.370546" lon="-5.000441">
        <ele>816.317</ele>
        <time>2021-07-21T11:25:43Z</time>
      </trkpt>
      <trkpt lat="42.370532" lon="-5.000441">
        <ele>817.708</ele>
        <time>2021-07-21T11:26:02Z</time>
      </trkpt>
      <trkpt lat="42.370539" lon="-5.000450">
        <ele>818.265</ele>
        <time>2021-07-21T11:26:26Z</time>
      </trkpt>
      <trkpt lat="42.370538" lon="-5.000449">
        <ele>817.747</ele>
        <time>2021-07-21T11:26:45Z</time>
      </trkpt>
      <trkpt lat="42.370534" lon="-5.000434">
        <ele>818.254</ele>
        <time>2021-07-21T11:27:02Z</time>
      </trkpt>
      <trkpt lat="42.370532" lon="-5.000450">
        <ele>818.284</ele>
        <time>2021-07-21T11:27:19Z</time>
      </trkpt>
      <trkpt lat="42.370542" lon="-5.000445">
        <ele>819.118</ele>
        <time>2021-07-21T11:27:36Z</time>
      </trkpt>
      <trkpt lat="42.370540" lon="-5.000449">
        <ele>818.236</ele>
        <time>2021-07-21T11:27:54Z</time>
      </trkpt>
      <trkpt lat="42.370541" lon="-5.000452">
        <ele>819.163</ele>
        <time>2021-07-21T11:28:14Z</time>
      </trkpt>
      <trkpt lat="42.370539" lon="-5.000454">
        <ele>816.771</ele>
        <time>2021-07-21T11:28:37Z</time>
      </trkpt>
      <trkpt lat="42.370545" lon="-5.000430">
        <ele>815.382</ele>
        <time>2021-07-21T11:28:58Z</time>
      </trkpt>
      <trkpt lat="42.370533" lon="-5.000442">
        <ele>813.843</ele>
        <time>2021-07-21T11:29:29Z</time>
      </trkpt>
      <trkpt lat="42.370537" lon="-5.000456">
        <ele>812.917</ele>
        <time>2021-07-21T11:29:50Z</time>
      </trkpt>
      <trkpt lat="42.370546" lon="-5.000431">
        <ele>812.908</ele>
        <time>2021-07-21T11:30:15Z</time>
      </trkpt>
      <trkpt lat="42.370521" lon="-5.000452">
        <ele>814.335</ele>
        <time>2021-07-21T11:30:38Z</time>
      </trkpt>
      <trkpt lat="42.370532" lon="-5.000452">
        <ele>817.797</ele>
        <time>2021-07-21T11:31:07Z</time>
      </trkpt>
      <trkpt lat="42.370535" lon="-5.000448">
        <ele>817.794</ele>
        <time>2021-07-21T11:31:47Z</time>
      </trkpt>
      <trkpt lat="42.370541" lon="-5.000429">
        <ele>816.744</ele>
        <time>2021-07-21T11:32:29Z</time>
      </trkpt>
      <trkpt lat="42.370539" lon="-5.000438">
        <ele>818.218</ele>
        <time>2021-07-21T11:32:57Z</time>
      </trkpt>
      <trkpt lat="42.370533" lon="-5.000425">
        <ele>819.636</ele>
        <time>2021-07-21T11:33:22Z</time>
      </trkpt>
      <trkpt lat="42.370549" lon="-5.000459">
        <ele>819.133</ele>
        <time>2021-07-21T11:33:50Z</time>
      </trkpt>
      <trkpt lat="42.370548" lon="-5.000448">
        <ele>816.741</ele>
        <time>2021-07-21T11:34:16Z</time>
      </trkpt>
      <trkpt lat="42.370492" lon="-5.000430">
        <ele>819.646</ele>
        <time>2021-07-21T11:34:49Z</time>
      </trkpt>
      <trkpt lat="42.370502" lon="-5.000426">
        <ele>822.588</ele>
        <time>2021-07-21T11:35:17Z</time>
      </trkpt>
      <trkpt lat="42.370504" lon="-5.000434">
        <ele>821.116</ele>
        <time>2021-07-21T11:35:43Z</time>
      </trkpt>
      <trkpt lat="42.370515" lon="-5.000425">
        <ele>817.208</ele>
        <time>2021-07-21T11:36:10Z</time>
      </trkpt>
      <trkpt lat="42.370536" lon="-5.000432">
        <ele>817.281</ele>
        <time>2021-07-21T11:36:23Z</time>
      </trkpt>
      <trkpt lat="42.370527" lon="-5.000406">
        <ele>817.763</ele>
        <time>2021-07-21T11:36:27Z</time>
      </trkpt>
      <trkpt lat="42.370478" lon="-5.000214">
        <ele>818.290</ele>
        <time>2021-07-21T11:36:40Z</time>
      </trkpt>
      <trkpt lat="42.370465" lon="-5.000106">
        <ele>818.290</ele>
        <time>2021-07-21T11:36:50Z</time>
      </trkpt>
      <trkpt lat="42.370492" lon="-5.000100">
        <ele>816.344</ele>
        <time>2021-07-21T11:37:04Z</time>
      </trkpt>
      <trkpt lat="42.370500" lon="-5.000108">
        <ele>815.882</ele>
        <time>2021-07-21T11:37:22Z</time>
      </trkpt>
      <trkpt lat="42.370491" lon="-5.000129">
        <ele>814.329</ele>
        <time>2021-07-21T11:37:37Z</time>
      </trkpt>
      <trkpt lat="42.370492" lon="-5.000108">
        <ele>812.467</ele>
        <time>2021-07-21T11:37:52Z</time>
      </trkpt>
      <trkpt lat="42.370529" lon="-5.000132">
        <ele>812.995</ele>
        <time>2021-07-21T11:38:17Z</time>
      </trkpt>
      <trkpt lat="42.370493" lon="-5.000105">
        <ele>816.349</ele>
        <time>2021-07-21T11:38:36Z</time>
      </trkpt>
      <trkpt lat="42.370502" lon="-5.000115">
        <ele>815.323</ele>
        <time>2021-07-21T11:38:53Z</time>
      </trkpt>
      <trkpt lat="42.370499" lon="-5.000104">
        <ele>814.308</ele>
        <time>2021-07-21T11:39:13Z</time>
      </trkpt>
      <trkpt lat="42.370496" lon="-5.000105">
        <ele>817.266</ele>
        <time>2021-07-21T11:39:38Z</time>
      </trkpt>
      <trkpt lat="42.370495" lon="-5.000100">
        <ele>816.368</ele>
        <time>2021-07-21T11:40:01Z</time>
      </trkpt>
      <trkpt lat="42.370495" lon="-5.000114">
        <ele>816.725</ele>
        <time>2021-07-21T11:40:27Z</time>
      </trkpt>
      <trkpt lat="42.370498" lon="-5.000113">
        <ele>816.345</ele>
        <time>2021-07-21T11:40:46Z</time>
      </trkpt>
      <trkpt lat="42.370487" lon="-5.000110">
        <ele>815.889</ele>
        <time>2021-07-21T11:41:10Z</time>
      </trkpt>
      <trkpt lat="42.370481" lon="-5.000102">
        <ele>815.867</ele>
        <time>2021-07-21T11:41:35Z</time>
      </trkpt>
      <trkpt lat="42.370483" lon="-5.000098">
        <ele>813.894</ele>
        <time>2021-07-21T11:41:56Z</time>
      </trkpt>
      <trkpt lat="42.370476" lon="-5.000088">
        <ele>813.832</ele>
        <time>2021-07-21T11:42:20Z</time>
      </trkpt>
      <trkpt lat="42.370468" lon="-5.000078">
        <ele>813.487</ele>
        <time>2021-07-21T11:42:44Z</time>
      </trkpt>
      <trkpt lat="42.370471" lon="-5.000077">
        <ele>813.442</ele>
        <time>2021-07-21T11:42:54Z</time>
      </trkpt>
      <trkpt lat="42.370491" lon="-5.000090">
        <ele>824.926</ele>
        <time>2021-07-21T12:13:14Z</time>
      </trkpt>
      <trkpt lat="42.370488" lon="-5.000106">
        <ele>818.208</ele>
        <time>2021-07-21T12:13:30Z</time>
      </trkpt>
      <trkpt lat="42.370489" lon="-5.000092">
        <ele>817.715</ele>
        <time>2021-07-21T12:13:43Z</time>
      </trkpt>
      <trkpt lat="42.370488" lon="-5.000091">
        <ele>816.317</ele>
        <time>2021-07-21T12:13:57Z</time>
      </trkpt>
      <trkpt lat="42.370492" lon="-5.000083">
        <ele>815.384</ele>
        <time>2021-07-21T12:14:11Z</time>
      </trkpt>
      <trkpt lat="42.370513" lon="-5.000089">
        <ele>815.814</ele>
        <time>2021-07-21T12:14:20Z</time>
      </trkpt>
      <trkpt lat="42.370545" lon="-5.000080">
        <ele>816.778</ele>
        <time>2021-07-21T12:14:27Z</time>
      </trkpt>
      <trkpt lat="42.370550" lon="-5.000059">
        <ele>816.316</ele>
        <time>2021-07-21T12:14:35Z</time>
      </trkpt>
      <trkpt lat="42.370618" lon="-4.999871">
        <ele>815.313</ele>
        <time>2021-07-21T12:14:44Z</time>
      </trkpt>
      <trkpt lat="42.370590" lon="-4.999662">
        <ele>814.811</ele>
        <time>2021-07-21T12:14:52Z</time>
      </trkpt>
      <trkpt lat="42.370565" lon="-4.999603">
        <ele>815.365</ele>
        <time>2021-07-21T12:14:56Z</time>
      </trkpt>
      <trkpt lat="42.370488" lon="-4.999473">
        <ele>815.868</ele>
        <time>2021-07-21T12:15:03Z</time>
      </trkpt>
      <trkpt lat="42.370456" lon="-4.999441">
        <ele>816.314</ele>
        <time>2021-07-21T12:15:07Z</time>
      </trkpt>
      <trkpt lat="42.370446" lon="-4.999439">
        <ele>816.308</ele>
        <time>2021-07-21T12:15:08Z</time>
      </trkpt>
      <trkpt lat="42.370435" lon="-4.999441">
        <ele>816.353</ele>
        <time>2021-07-21T12:15:09Z</time>
      </trkpt>
      <trkpt lat="42.370422" lon="-4.999448">
        <ele>816.755</ele>
        <time>2021-07-21T12:15:10Z</time>
      </trkpt>
      <trkpt lat="42.370409" lon="-4.999456">
        <ele>816.782</ele>
        <time>2021-07-21T12:15:11Z</time>
      </trkpt>
      <trkpt lat="42.370398" lon="-4.999461">
        <ele>817.242</ele>
        <time>2021-07-21T12:15:12Z</time>
      </trkpt>
      <trkpt lat="42.370381" lon="-4.999469">
        <ele>817.296</ele>
        <time>2021-07-21T12:15:13Z</time>
      </trkpt>
      <trkpt lat="42.370363" lon="-4.999476">
        <ele>817.784</ele>
        <time>2021-07-21T12:15:14Z</time>
      </trkpt>
      <trkpt lat="42.370290" lon="-4.999498">
        <ele>818.751</ele>
        <time>2021-07-21T12:15:21Z</time>
      </trkpt>
      <trkpt lat="42.370278" lon="-4.999492">
        <ele>819.629</ele>
        <time>2021-07-21T12:15:30Z</time>
      </trkpt>
      <trkpt lat="42.370277" lon="-4.999501">
        <ele>820.173</ele>
        <time>2021-07-21T12:15:41Z</time>
      </trkpt>
      <trkpt lat="42.370268" lon="-4.999469">
        <ele>820.685</ele>
        <time>2021-07-21T12:15:55Z</time>
      </trkpt>
      <trkpt lat="42.370260" lon="-4.999476">
        <ele>820.113</ele>
        <time>2021-07-21T12:16:05Z</time>
      </trkpt>
      <trkpt lat="42.370182" lon="-4.999498">
        <ele>820.108</ele>
        <time>2021-07-21T12:16:13Z</time>
      </trkpt>
      <trkpt lat="42.369983" lon="-4.999555">
        <ele>820.634</ele>
        <time>2021-07-21T12:16:20Z</time>
      </trkpt>
      <trkpt lat="42.369684" lon="-4.999597">
        <ele>817.736</ele>
        <time>2021-07-21T12:16:29Z</time>
      </trkpt>
      <trkpt lat="42.369433" lon="-4.999637">
        <ele>817.273</ele>
        <time>2021-07-21T12:16:37Z</time>
      </trkpt>
      <trkpt lat="42.369170" lon="-4.999667">
        <ele>816.723</ele>
        <time>2021-07-21T12:16:44Z</time>
      </trkpt>
      <trkpt lat="42.368925" lon="-4.999702">
        <ele>817.227</ele>
        <time>2021-07-21T12:16:51Z</time>
      </trkpt>
      <trkpt lat="42.368683" lon="-4.999735">
        <ele>817.795</ele>
        <time>2021-07-21T12:16:58Z</time>
      </trkpt>
      <trkpt lat="42.368341" lon="-4.999796">
        <ele>818.282</ele>
        <time>2021-07-21T12:17:08Z</time>
      </trkpt>
      <trkpt lat="42.368050" lon="-4.999843">
        <ele>817.290</ele>
        <time>2021-07-21T12:17:17Z</time>
      </trkpt>
      <trkpt lat="42.367763" lon="-4.999881">
        <ele>818.229</ele>
        <time>2021-07-21T12:17:26Z</time>
      </trkpt>
      <trkpt lat="42.367553" lon="-4.999918">
        <ele>818.700</ele>
        <time>2021-07-21T12:17:33Z</time>
      </trkpt>
      <trkpt lat="42.367480" lon="-4.999942">
        <ele>819.120</ele>
        <time>2021-07-21T12:17:37Z</time>
      </trkpt>
      <trkpt lat="42.367462" lon="-4.999959">
        <ele>818.208</ele>
        <time>2021-07-21T12:17:45Z</time>
      </trkpt>
      <trkpt lat="42.367437" lon="-4.999964">
        <ele>816.739</ele>
        <time>2021-07-21T12:17:55Z</time>
      </trkpt>
      <trkpt lat="42.367427" lon="-4.999968">
        <ele>816.791</ele>
        <time>2021-07-21T12:17:56Z</time>
      </trkpt>
      <trkpt lat="42.367410" lon="-4.999964">
        <ele>816.798</ele>
        <time>2021-07-21T12:17:57Z</time>
      </trkpt>
      <trkpt lat="42.367395" lon="-4.999951">
        <ele>816.718</ele>
        <time>2021-07-21T12:17:58Z</time>
      </trkpt>
      <trkpt lat="42.367374" lon="-4.999911">
        <ele>816.782</ele>
        <time>2021-07-21T12:17:59Z</time>
      </trkpt>
      <trkpt lat="42.367365" lon="-4.999882">
        <ele>816.760</ele>
        <time>2021-07-21T12:18:00Z</time>
      </trkpt>
      <trkpt lat="42.367358" lon="-4.999846">
        <ele>816.787</ele>
        <time>2021-07-21T12:18:01Z</time>
      </trkpt>
      <trkpt lat="42.367353" lon="-4.999807">
        <ele>816.725</ele>
        <time>2021-07-21T12:18:02Z</time>
      </trkpt>
      <trkpt lat="42.367297" lon="-4.999348">
        <ele>815.328</ele>
        <time>2021-07-21T12:18:11Z</time>
      </trkpt>
      <trkpt lat="42.367241" lon="-4.998846">
        <ele>814.389</ele>
        <time>2021-07-21T12:18:20Z</time>
      </trkpt>
      <trkpt lat="42.367173" lon="-4.998216">
        <ele>814.317</ele>
        <time>2021-07-21T12:18:32Z</time>
      </trkpt>
      <trkpt lat="42.367122" lon="-4.997677">
        <ele>813.808</ele>
        <time>2021-07-21T12:18:42Z</time>
      </trkpt>
      <trkpt lat="42.367079" lon="-4.997246">
        <ele>813.819</ele>
        <time>2021-07-21T12:18:50Z</time>
      </trkpt>
      <trkpt lat="42.367074" lon="-4.997192">
        <ele>813.871</ele>
        <time>2021-07-21T12:18:51Z</time>
      </trkpt>
      <trkpt lat="42.367010" lon="-4.996644">
        <ele>814.338</ele>
        <time>2021-07-21T12:19:01Z</time>
      </trkpt>
      <trkpt lat="42.366966" lon="-4.996115">
        <ele>815.338</ele>
        <time>2021-07-21T12:19:11Z</time>
      </trkpt>
      <trkpt lat="42.366915" lon="-4.995629">
        <ele>815.882</ele>
        <time>2021-07-21T12:19:21Z</time>
      </trkpt>
      <trkpt lat="42.366862" lon="-4.995101">
        <ele>816.780</ele>
        <time>2021-07-21T12:19:32Z</time>
      </trkpt>
      <trkpt lat="42.366817" lon="-4.994628">
        <ele>817.747</ele>
        <time>2021-07-21T12:19:42Z</time>
      </trkpt>
      <trkpt lat="42.366776" lon="-4.994188">
        <ele>818.255</ele>
        <time>2021-07-21T12:19:51Z</time>
      </trkpt>
      <trkpt lat="42.366713" lon="-4.993648">
        <ele>819.658</ele>
        <time>2021-07-21T12:20:02Z</time>
      </trkpt>
      <trkpt lat="42.366668" lon="-4.993189">
        <ele>820.652</ele>
        <time>2021-07-21T12:20:12Z</time>
      </trkpt>
      <trkpt lat="42.366625" lon="-4.992808">
        <ele>821.117</ele>
        <time>2021-07-21T12:20:21Z</time>
      </trkpt>
      <trkpt lat="42.366570" lon="-4.992287">
        <ele>822.508</ele>
        <time>2021-07-21T12:20:33Z</time>
      </trkpt>
      <trkpt lat="42.366530" lon="-4.991861">
        <ele>823.562</ele>
        <time>2021-07-21T12:20:43Z</time>
      </trkpt>
      <trkpt lat="42.366479" lon="-4.991385">
        <ele>824.484</ele>
        <time>2021-07-21T12:20:54Z</time>
      </trkpt>
      <trkpt lat="42.366436" lon="-4.990955">
        <ele>824.921</ele>
        <time>2021-07-21T12:21:04Z</time>
      </trkpt>
      <trkpt lat="42.366402" lon="-4.990628">
        <ele>825.411</ele>
        <time>2021-07-21T12:21:13Z</time>
      </trkpt>
      <trkpt lat="42.366375" lon="-4.990390">
        <ele>825.995</ele>
        <time>2021-07-21T12:21:20Z</time>
      </trkpt>
      <trkpt lat="42.366348" lon="-4.990152">
        <ele>826.823</ele>
        <time>2021-07-21T12:21:27Z</time>
      </trkpt>
      <trkpt lat="42.366298" lon="-4.989652">
        <ele>827.340</ele>
        <time>2021-07-21T12:21:38Z</time>
      </trkpt>
      <trkpt lat="42.366251" lon="-4.989176">
        <ele>828.788</ele>
        <time>2021-07-21T12:21:48Z</time>
      </trkpt>
      <trkpt lat="42.366199" lon="-4.988705">
        <ele>828.779</ele>
        <time>2021-07-21T12:21:58Z</time>
      </trkpt>
      <trkpt lat="42.366145" lon="-4.988191">
        <ele>829.205</ele>
        <time>2021-07-21T12:22:09Z</time>
      </trkpt>
      <trkpt lat="42.366109" lon="-4.987837">
        <ele>829.725</ele>
        <time>2021-07-21T12:22:17Z</time>
      </trkpt>
      <trkpt lat="42.366069" lon="-4.987415">
        <ele>829.708</ele>
        <time>2021-07-21T12:22:27Z</time>
      </trkpt>
      <trkpt lat="42.366007" lon="-4.986862">
        <ele>830.764</ele>
        <time>2021-07-21T12:22:40Z</time>
      </trkpt>
      <trkpt lat="42.365956" lon="-4.986379">
        <ele>831.666</ele>
        <time>2021-07-21T12:22:51Z</time>
      </trkpt>
      <trkpt lat="42.365915" lon="-4.985971">
        <ele>833.153</ele>
        <time>2021-07-21T12:23:01Z</time>
      </trkpt>
      <trkpt lat="42.365873" lon="-4.985606">
        <ele>833.133</ele>
        <time>2021-07-21T12:23:10Z</time>
      </trkpt>
      <trkpt lat="42.365833" lon="-4.985186">
        <ele>834.047</ele>
        <time>2021-07-21T12:23:20Z</time>
      </trkpt>
      <trkpt lat="42.365786" lon="-4.984731">
        <ele>834.565</ele>
        <time>2021-07-21T12:23:31Z</time>
      </trkpt>
      <trkpt lat="42.365733" lon="-4.984239">
        <ele>836.032</ele>
        <time>2021-07-21T12:23:43Z</time>
      </trkpt>
      <trkpt lat="42.365684" lon="-4.983745">
        <ele>837.420</ele>
        <time>2021-07-21T12:23:55Z</time>
      </trkpt>
      <trkpt lat="42.365628" lon="-4.983255">
        <ele>838.815</ele>
        <time>2021-07-21T12:24:07Z</time>
      </trkpt>
      <trkpt lat="42.365596" lon="-4.982907">
        <ele>840.365</ele>
        <time>2021-07-21T12:24:15Z</time>
      </trkpt>
      <trkpt lat="42.365562" lon="-4.982562">
        <ele>841.711</ele>
        <time>2021-07-21T12:24:24Z</time>
      </trkpt>
      <trkpt lat="42.365524" lon="-4.982153">
        <ele>842.708</ele>
        <time>2021-07-21T12:24:35Z</time>
      </trkpt>
      <trkpt lat="42.365497" lon="-4.981710">
        <ele>844.158</ele>
        <time>2021-07-21T12:24:47Z</time>
      </trkpt>
      <trkpt lat="42.365493" lon="-4.981246">
        <ele>845.610</ele>
        <time>2021-07-21T12:24:59Z</time>
      </trkpt>
      <trkpt lat="42.365501" lon="-4.980758">
        <ele>846.547</ele>
        <time>2021-07-21T12:25:11Z</time>
      </trkpt>
      <trkpt lat="42.365535" lon="-4.980265">
        <ele>847.027</ele>
        <time>2021-07-21T12:25:24Z</time>
      </trkpt>
      <trkpt lat="42.365554" lon="-4.979824">
        <ele>847.091</ele>
        <time>2021-07-21T12:25:35Z</time>
      </trkpt>
      <trkpt lat="42.365582" lon="-4.979368">
        <ele>848.049</ele>
        <time>2021-07-21T12:25:46Z</time>
      </trkpt>
      <trkpt lat="42.365613" lon="-4.978865">
        <ele>848.546</ele>
        <time>2021-07-21T12:25:58Z</time>
      </trkpt>
      <trkpt lat="42.365639" lon="-4.978427">
        <ele>850.474</ele>
        <time>2021-07-21T12:26:08Z</time>
      </trkpt>
      <trkpt lat="42.365659" lon="-4.978036">
        <ele>850.937</ele>
        <time>2021-07-21T12:26:17Z</time>
      </trkpt>
      <trkpt lat="42.365675" lon="-4.977656">
        <ele>851.349</ele>
        <time>2021-07-21T12:26:27Z</time>
      </trkpt>
      <trkpt lat="42.365700" lon="-4.977204">
        <ele>852.813</ele>
        <time>2021-07-21T12:26:39Z</time>
      </trkpt>
      <trkpt lat="42.365727" lon="-4.976741">
        <ele>853.708</ele>
        <time>2021-07-21T12:26:52Z</time>
      </trkpt>
      <trkpt lat="42.365749" lon="-4.976380">
        <ele>854.260</ele>
        <time>2021-07-21T12:27:02Z</time>
      </trkpt>
      <trkpt lat="42.365765" lon="-4.976047">
        <ele>855.722</ele>
        <time>2021-07-21T12:27:11Z</time>
      </trkpt>
      <trkpt lat="42.365781" lon="-4.975720">
        <ele>856.689</ele>
        <time>2021-07-21T12:27:20Z</time>
      </trkpt>
      <trkpt lat="42.365794" lon="-4.975429">
        <ele>857.659</ele>
        <time>2021-07-21T12:27:28Z</time>
      </trkpt>
      <trkpt lat="42.365790" lon="-4.975021">
        <ele>859.033</ele>
        <time>2021-07-21T12:27:39Z</time>
      </trkpt>
      <trkpt lat="42.365781" lon="-4.974630">
        <ele>860.591</ele>
        <time>2021-07-21T12:27:49Z</time>
      </trkpt>
      <trkpt lat="42.365804" lon="-4.974229">
        <ele>861.958</ele>
        <time>2021-07-21T12:27:59Z</time>
      </trkpt>
      <trkpt lat="42.365832" lon="-4.973723">
        <ele>863.866</ele>
        <time>2021-07-21T12:28:11Z</time>
      </trkpt>
      <trkpt lat="42.365847" lon="-4.973556">
        <ele>864.334</ele>
        <time>2021-07-21T12:28:17Z</time>
      </trkpt>
      <trkpt lat="42.365852" lon="-4.973312">
        <ele>864.855</ele>
        <time>2021-07-21T12:28:28Z</time>
      </trkpt>
      <trkpt lat="42.365881" lon="-4.972868">
        <ele>864.810</ele>
        <time>2021-07-21T12:28:39Z</time>
      </trkpt>
      <trkpt lat="42.365892" lon="-4.972646">
        <ele>865.308</ele>
        <time>2021-07-21T12:28:46Z</time>
      </trkpt>
      <trkpt lat="42.365891" lon="-4.972657">
        <ele>866.280</ele>
        <time>2021-07-21T12:28:52Z</time>
      </trkpt>
      <trkpt lat="42.365914" lon="-4.972666">
        <ele>867.752</ele>
        <time>2021-07-21T12:29:17Z</time>
      </trkpt>
      <trkpt lat="42.365900" lon="-4.972678">
        <ele>869.129</ele>
        <time>2021-07-21T12:29:40Z</time>
      </trkpt>
      <trkpt lat="42.365870" lon="-4.972704">
        <ele>868.229</ele>
        <time>2021-07-21T12:30:03Z</time>
      </trkpt>
      <trkpt lat="42.365881" lon="-4.972677">
        <ele>867.243</ele>
        <time>2021-07-21T12:30:21Z</time>
      </trkpt>
      <trkpt lat="42.365900" lon="-4.972547">
        <ele>866.731</ele>
        <time>2021-07-21T12:30:27Z</time>
      </trkpt>
      <trkpt lat="42.365907" lon="-4.972217">
        <ele>865.858</ele>
        <time>2021-07-21T12:30:34Z</time>
      </trkpt>
      <trkpt lat="42.365894" lon="-4.971703">
        <ele>865.826</ele>
        <time>2021-07-21T12:30:43Z</time>
      </trkpt>
      <trkpt lat="42.365861" lon="-4.971170">
        <ele>865.326</ele>
        <time>2021-07-21T12:30:54Z</time>
      </trkpt>
      <trkpt lat="42.365831" lon="-4.970792">
        <ele>864.347</ele>
        <time>2021-07-21T12:31:01Z</time>
      </trkpt>
      <trkpt lat="42.365787" lon="-4.970216">
        <ele>863.811</ele>
        <time>2021-07-21T12:31:10Z</time>
      </trkpt>
      <trkpt lat="42.365748" lon="-4.969580">
        <ele>862.908</ele>
        <time>2021-07-21T12:31:19Z</time>
      </trkpt>
      <trkpt lat="42.365692" lon="-4.968866">
        <ele>861.059</ele>
        <time>2021-07-21T12:31:28Z</time>
      </trkpt>
      <trkpt lat="42.365623" lon="-4.967857">
        <ele>858.541</ele>
        <time>2021-07-21T12:31:39Z</time>
      </trkpt>
      <trkpt lat="42.365550" lon="-4.966830">
        <ele>857.648</ele>
        <time>2021-07-21T12:31:49Z</time>
      </trkpt>
      <trkpt lat="42.365458" lon="-4.965595">
        <ele>856.168</ele>
        <time>2021-07-21T12:32:01Z</time>
      </trkpt>
      <trkpt lat="42.365382" lon="-4.964542">
        <ele>854.782</ele>
        <time>2021-07-21T12:32:12Z</time>
      </trkpt>
      <trkpt lat="42.365300" lon="-4.963373">
        <ele>853.350</ele>
        <time>2021-07-21T12:32:25Z</time>
      </trkpt>
      <trkpt lat="42.365217" lon="-4.962250">
        <ele>852.387</ele>
        <time>2021-07-21T12:32:38Z</time>
      </trkpt>
      <trkpt lat="42.365140" lon="-4.961164">
        <ele>850.915</ele>
        <time>2021-07-21T12:32:51Z</time>
      </trkpt>
      <trkpt lat="42.365072" lon="-4.960210">
        <ele>849.438</ele>
        <time>2021-07-21T12:33:03Z</time>
      </trkpt>
      <trkpt lat="42.365030" lon="-4.959634">
        <ele>849.470</ele>
        <time>2021-07-21T12:33:11Z</time>
      </trkpt>
      <trkpt lat="42.364991" lon="-4.959066">
        <ele>849.417</ele>
        <time>2021-07-21T12:33:20Z</time>
      </trkpt>
      <trkpt lat="42.364993" lon="-4.958559">
        <ele>848.508</ele>
        <time>2021-07-21T12:33:28Z</time>
      </trkpt>
      <trkpt lat="42.364996" lon="-4.957876">
        <ele>847.030</ele>
        <time>2021-07-21T12:33:36Z</time>
      </trkpt>
      <trkpt lat="42.365004" lon="-4.956948">
        <ele>844.692</ele>
        <time>2021-07-21T12:33:45Z</time>
      </trkpt>
      <trkpt lat="42.365013" lon="-4.955794">
        <ele>842.269</ele>
        <time>2021-07-21T12:33:55Z</time>
      </trkpt>
      <trkpt lat="42.365023" lon="-4.954862">
        <ele>841.789</ele>
        <time>2021-07-21T12:34:04Z</time>
      </trkpt>
      <trkpt lat="42.365024" lon="-4.954382">
        <ele>841.763</ele>
        <time>2021-07-21T12:34:10Z</time>
      </trkpt>
      <trkpt lat="42.365020" lon="-4.954279">
        <ele>841.721</ele>
        <time>2021-07-21T12:34:13Z</time>
      </trkpt>
      <trkpt lat="42.365023" lon="-4.954264">
        <ele>841.718</ele>
        <time>2021-07-21T12:34:14Z</time>
      </trkpt>
      <trkpt lat="42.365025" lon="-4.954258">
        <ele>842.246</ele>
        <time>2021-07-21T12:34:20Z</time>
      </trkpt>
      <trkpt lat="42.365027" lon="-4.954257">
        <ele>842.765</ele>
        <time>2021-07-21T12:34:36Z</time>
      </trkpt>
      <trkpt lat="42.365028" lon="-4.954262">
        <ele>841.768</ele>
        <time>2021-07-21T12:34:58Z</time>
      </trkpt>
      <trkpt lat="42.365012" lon="-4.954236">
        <ele>842.214</ele>
        <time>2021-07-21T12:35:03Z</time>
      </trkpt>
      <trkpt lat="42.364996" lon="-4.954230">
        <ele>842.208</ele>
        <time>2021-07-21T12:35:04Z</time>
      </trkpt>
      <trkpt lat="42.364798" lon="-4.954145">
        <ele>840.873</ele>
        <time>2021-07-21T12:35:10Z</time>
      </trkpt>
      <trkpt lat="42.364457" lon="-4.953988">
        <ele>840.815</ele>
        <time>2021-07-21T12:35:18Z</time>
      </trkpt>
      <trkpt lat="42.364324" lon="-4.953887">
        <ele>840.842</ele>
        <time>2021-07-21T12:35:22Z</time>
      </trkpt>
      <trkpt lat="42.364189" lon="-4.953803">
        <ele>841.262</ele>
        <time>2021-07-21T12:35:28Z</time>
      </trkpt>
      <trkpt lat="42.364150" lon="-4.953793">
        <ele>841.286</ele>
        <time>2021-07-21T12:35:30Z</time>
      </trkpt>
      <trkpt lat="42.364135" lon="-4.953772">
        <ele>841.764</ele>
        <time>2021-07-21T12:35:31Z</time>
      </trkpt>
      <trkpt lat="42.364121" lon="-4.953744">
        <ele>841.711</ele>
        <time>2021-07-21T12:35:32Z</time>
      </trkpt>
      <trkpt lat="42.364114" lon="-4.953711">
        <ele>841.799</ele>
        <time>2021-07-21T12:35:33Z</time>
      </trkpt>
      <trkpt lat="42.364111" lon="-4.953674">
        <ele>841.799</ele>
        <time>2021-07-21T12:35:34Z</time>
      </trkpt>
      <trkpt lat="42.364076" lon="-4.953365">
        <ele>842.207</ele>
        <time>2021-07-21T12:35:42Z</time>
      </trkpt>
      <trkpt lat="42.364059" lon="-4.952999">
        <ele>842.227</ele>
        <time>2021-07-21T12:35:51Z</time>
      </trkpt>
      <trkpt lat="42.364072" lon="-4.952642">
        <ele>842.708</ele>
        <time>2021-07-21T12:36:01Z</time>
      </trkpt>
      <trkpt lat="42.364107" lon="-4.952265">
        <ele>844.136</ele>
        <time>2021-07-21T12:36:11Z</time>
      </trkpt>
      <trkpt lat="42.364137" lon="-4.951873">
        <ele>844.668</ele>
        <time>2021-07-21T12:36:21Z</time>
      </trkpt>
      <trkpt lat="42.364166" lon="-4.951532">
        <ele>843.675</ele>
        <time>2021-07-21T12:36:31Z</time>
      </trkpt>
      <trkpt lat="42.364212" lon="-4.951254">
        <ele>842.765</ele>
        <time>2021-07-21T12:36:37Z</time>
      </trkpt>
      <trkpt lat="42.364217" lon="-4.951216">
        <ele>843.279</ele>
        <time>2021-07-21T12:36:38Z</time>
      </trkpt>
      <trkpt lat="42.364164" lon="-4.951165">
        <ele>842.767</ele>
        <time>2021-07-21T12:36:42Z</time>
      </trkpt>
      <trkpt lat="42.363938" lon="-4.951334">
        <ele>843.244</ele>
        <time>2021-07-21T12:36:52Z</time>
      </trkpt>
      <trkpt lat="42.363813" lon="-4.951582">
        <ele>843.672</ele>
        <time>2021-07-21T12:37:01Z</time>
      </trkpt>
      <trkpt lat="42.363747" lon="-4.951697">
        <ele>843.635</ele>
        <time>2021-07-21T12:37:06Z</time>
      </trkpt>
      <trkpt lat="42.363661" lon="-4.951670">
        <ele>843.686</ele>
        <time>2021-07-21T12:37:13Z</time>
      </trkpt>
      <trkpt lat="42.363679" lon="-4.951614">
        <ele>843.214</ele>
        <time>2021-07-21T12:37:18Z</time>
      </trkpt>
      <trkpt lat="42.363688" lon="-4.951608">
        <ele>843.208</ele>
        <time>2021-07-21T12:37:28Z</time>
      </trkpt>
      <trkpt lat="42.363688" lon="-4.951605">
        <ele>843.230</ele>
        <time>2021-07-21T12:37:38Z</time>
      </trkpt>
      <trkpt lat="42.363682" lon="-4.951572">
        <ele>841.782</ele>
        <time>2021-07-21T12:38:06Z</time>
      </trkpt>
      <trkpt lat="42.363692" lon="-4.951567">
        <ele>840.389</ele>
        <time>2021-07-21T12:38:22Z</time>
      </trkpt>
      <trkpt lat="42.363702" lon="-4.951594">
        <ele>839.329</ele>
        <time>2021-07-21T12:38:36Z</time>
      </trkpt>
      <trkpt lat="42.363718" lon="-4.951613">
        <ele>840.883</ele>
        <time>2021-07-21T12:38:44Z</time>
      </trkpt>
      <trkpt lat="42.363760" lon="-4.951526">
        <ele>841.261</ele>
        <time>2021-07-21T12:38:50Z</time>
      </trkpt>
      <trkpt lat="42.363915" lon="-4.951295">
        <ele>842.788</ele>
        <time>2021-07-21T12:38:59Z</time>
      </trkpt>
      <trkpt lat="42.364155" lon="-4.951171">
        <ele>841.776</ele>
        <time>2021-07-21T12:39:08Z</time>
      </trkpt>
      <trkpt lat="42.364179" lon="-4.951158">
        <ele>841.738</ele>
        <time>2021-07-21T12:39:09Z</time>
      </trkpt>
      <trkpt lat="42.364275" lon="-4.950915">
        <ele>841.770</ele>
        <time>2021-07-21T12:39:17Z</time>
      </trkpt>
      <trkpt lat="42.364319" lon="-4.950535">
        <ele>842.217</ele>
        <time>2021-07-21T12:39:27Z</time>
      </trkpt>
      <trkpt lat="42.364344" lon="-4.950264">
        <ele>842.708</ele>
        <time>2021-07-21T12:39:35Z</time>
      </trkpt>
      <trkpt lat="42.364303" lon="-4.949962">
        <ele>844.640</ele>
        <time>2021-07-21T12:39:43Z</time>
      </trkpt>
      <trkpt lat="42.364279" lon="-4.949725">
        <ele>846.192</ele>
        <time>2021-07-21T12:39:50Z</time>
      </trkpt>
      <trkpt lat="42.364270" lon="-4.949386">
        <ele>847.569</ele>
        <time>2021-07-21T12:39:58Z</time>
      </trkpt>
      <trkpt lat="42.364240" lon="-4.949109">
        <ele>847.099</ele>
        <time>2021-07-21T12:40:05Z</time>
      </trkpt>
      <trkpt lat="42.364112" lon="-4.948913">
        <ele>848.093</ele>
        <time>2021-07-21T12:40:11Z</time>
      </trkpt>
      <trkpt lat="42.363879" lon="-4.948646">
        <ele>849.941</ele>
        <time>2021-07-21T12:40:21Z</time>
      </trkpt>
      <trkpt lat="42.363697" lon="-4.948425">
        <ele>850.948</ele>
        <time>2021-07-21T12:40:31Z</time>
      </trkpt>
      <trkpt lat="42.363577" lon="-4.948278">
        <ele>851.816</ele>
        <time>2021-07-21T12:40:39Z</time>
      </trkpt>
      <trkpt lat="42.363400" lon="-4.948084">
        <ele>853.397</ele>
        <time>2021-07-21T12:40:50Z</time>
      </trkpt>
      <trkpt lat="42.363280" lon="-4.947949">
        <ele>854.223</ele>
        <time>2021-07-21T12:40:58Z</time>
      </trkpt>
      <trkpt lat="42.363120" lon="-4.947815">
        <ele>855.225</ele>
        <time>2021-07-21T12:41:07Z</time>
      </trkpt>
      <trkpt lat="42.362891" lon="-4.947714">
        <ele>857.608</ele>
        <time>2021-07-21T12:41:18Z</time>
      </trkpt>
      <trkpt lat="42.362704" lon="-4.947641">
        <ele>858.136</ele>
        <time>2021-07-21T12:41:27Z</time>
      </trkpt>
      <trkpt lat="42.362512" lon="-4.947548">
        <ele>858.188</ele>
        <time>2021-07-21T12:41:36Z</time>
      </trkpt>
      <trkpt lat="42.362253" lon="-4.947394">
        <ele>858.545</ele>
        <time>2021-07-21T12:41:47Z</time>
      </trkpt>
      <trkpt lat="42.362008" lon="-4.947246">
        <ele>859.555</ele>
        <time>2021-07-21T12:41:58Z</time>
      </trkpt>
      <trkpt lat="42.361854" lon="-4.947148">
        <ele>860.529</ele>
        <time>2021-07-21T12:42:06Z</time>
      </trkpt>
      <trkpt lat="42.361684" lon="-4.947041">
        <ele>861.957</ele>
        <time>2021-07-21T12:42:15Z</time>
      </trkpt>
      <trkpt lat="42.361475" lon="-4.946923">
        <ele>863.844</ele>
        <time>2021-07-21T12:42:25Z</time>
      </trkpt>
      <trkpt lat="42.361257" lon="-4.946826">
        <ele>865.372</ele>
        <time>2021-07-21T12:42:35Z</time>
      </trkpt>
      <trkpt lat="42.361059" lon="-4.946768">
        <ele>866.228</ele>
        <time>2021-07-21T12:42:44Z</time>
      </trkpt>
      <trkpt lat="42.360828" lon="-4.946711">
        <ele>867.289</ele>
        <time>2021-07-21T12:42:54Z</time>
      </trkpt>
      <trkpt lat="42.360602" lon="-4.946662">
        <ele>867.717</ele>
        <time>2021-07-21T12:43:04Z</time>
      </trkpt>
      <trkpt lat="42.360403" lon="-4.946593">
        <ele>867.708</ele>
        <time>2021-07-21T12:43:13Z</time>
      </trkpt>
      <trkpt lat="42.360182" lon="-4.946457">
        <ele>868.249</ele>
        <time>2021-07-21T12:43:23Z</time>
      </trkpt>
      <trkpt lat="42.359932" lon="-4.946278">
        <ele>868.231</ele>
        <time>2021-07-21T12:43:34Z</time>
      </trkpt>
      <trkpt lat="42.359749" lon="-4.946150">
        <ele>868.648</ele>
        <time>2021-07-21T12:43:41Z</time>
      </trkpt>
      <trkpt lat="42.359408" lon="-4.945892">
        <ele>869.678</ele>
        <time>2021-07-21T12:43:53Z</time>
      </trkpt>
      <trkpt lat="42.359232" lon="-4.945643">
        <ele>869.652</ele>
        <time>2021-07-21T12:44:01Z</time>
      </trkpt>
      <trkpt lat="42.359157" lon="-4.945352">
        <ele>868.650</ele>
        <time>2021-07-21T12:44:09Z</time>
      </trkpt>
      <trkpt lat="42.359152" lon="-4.944934">
        <ele>868.257</ele>
        <time>2021-07-21T12:44:19Z</time>
      </trkpt>
      <trkpt lat="42.359159" lon="-4.944453">
        <ele>869.195</ele>
        <time>2021-07-21T12:44:30Z</time>
      </trkpt>
      <trkpt lat="42.359196" lon="-4.943995">
        <ele>869.683</ele>
        <time>2021-07-21T12:44:40Z</time>
      </trkpt>
      <trkpt lat="42.359296" lon="-4.943423">
        <ele>870.125</ele>
        <time>2021-07-21T12:44:53Z</time>
      </trkpt>
      <trkpt lat="42.359327" lon="-4.943025">
        <ele>869.617</ele>
        <time>2021-07-21T12:45:02Z</time>
      </trkpt>
      <trkpt lat="42.359343" lon="-4.942550">
        <ele>869.108</ele>
        <time>2021-07-21T12:45:12Z</time>
      </trkpt>
      <trkpt lat="42.359394" lon="-4.942033">
        <ele>869.625</ele>
        <time>2021-07-21T12:45:23Z</time>
      </trkpt>
      <trkpt lat="42.359503" lon="-4.941686">
        <ele>871.537</ele>
        <time>2021-07-21T12:45:33Z</time>
      </trkpt>
      <trkpt lat="42.359566" lon="-4.941385">
        <ele>873.034</ele>
        <time>2021-07-21T12:45:43Z</time>
      </trkpt>
      <trkpt lat="42.359568" lon="-4.941184">
        <ele>873.964</ele>
        <time>2021-07-21T12:45:50Z</time>
      </trkpt>
      <trkpt lat="42.359538" lon="-4.940903">
        <ele>873.918</ele>
        <time>2021-07-21T12:45:58Z</time>
      </trkpt>
      <trkpt lat="42.359461" lon="-4.940527">
        <ele>875.466</ele>
        <time>2021-07-21T12:46:08Z</time>
      </trkpt>
      <trkpt lat="42.359408" lon="-4.940180">
        <ele>875.463</ele>
        <time>2021-07-21T12:46:17Z</time>
      </trkpt>
      <trkpt lat="42.359406" lon="-4.939884">
        <ele>874.941</ele>
        <time>2021-07-21T12:46:24Z</time>
      </trkpt>
      <trkpt lat="42.359422" lon="-4.939483">
        <ele>874.475</ele>
        <time>2021-07-21T12:46:33Z</time>
      </trkpt>
      <trkpt lat="42.359490" lon="-4.939067">
        <ele>873.528</ele>
        <time>2021-07-21T12:46:40Z</time>
      </trkpt>
      <trkpt lat="42.359652" lon="-4.938259">
        <ele>872.520</ele>
        <time>2021-07-21T12:46:51Z</time>
      </trkpt>
      <trkpt lat="42.359770" lon="-4.937547">
        <ele>872.008</ele>
        <time>2021-07-21T12:47:01Z</time>
      </trkpt>
      <trkpt lat="42.359756" lon="-4.937103">
        <ele>871.574</ele>
        <time>2021-07-21T12:47:08Z</time>
      </trkpt>
      <trkpt lat="42.359704" lon="-4.936541">
        <ele>870.646</ele>
        <time>2021-07-21T12:47:17Z</time>
      </trkpt>
      <trkpt lat="42.359660" lon="-4.935799">
        <ele>870.143</ele>
        <time>2021-07-21T12:47:28Z</time>
      </trkpt>
      <trkpt lat="42.359606" lon="-4.935208">
        <ele>869.153</ele>
        <time>2021-07-21T12:47:37Z</time>
      </trkpt>
      <trkpt lat="42.359540" lon="-4.934587">
        <ele>868.647</ele>
        <time>2021-07-21T12:47:46Z</time>
      </trkpt>
      <trkpt lat="42.359406" lon="-4.933950">
        <ele>868.215</ele>
        <time>2021-07-21T12:47:56Z</time>
      </trkpt>
      <trkpt lat="42.359215" lon="-4.933264">
        <ele>867.262</ele>
        <time>2021-07-21T12:48:05Z</time>
      </trkpt>
      <trkpt lat="42.359014" lon="-4.932528">
        <ele>865.870</ele>
        <time>2021-07-21T12:48:14Z</time>
      </trkpt>
      <trkpt lat="42.358870" lon="-4.931858">
        <ele>862.948</ele>
        <time>2021-07-21T12:48:22Z</time>
      </trkpt>
      <trkpt lat="42.358742" lon="-4.931155">
        <ele>860.061</ele>
        <time>2021-07-21T12:48:31Z</time>
      </trkpt>
      <trkpt lat="42.358743" lon="-4.931066">
        <ele>859.517</ele>
        <time>2021-07-21T12:48:32Z</time>
      </trkpt>
      <trkpt lat="42.358752" lon="-4.930982">
        <ele>859.508</ele>
        <time>2021-07-21T12:48:33Z</time>
      </trkpt>
      <trkpt lat="42.358766" lon="-4.930893">
        <ele>859.021</ele>
        <time>2021-07-21T12:48:34Z</time>
      </trkpt>
      <trkpt lat="42.358781" lon="-4.930809">
        <ele>859.043</ele>
        <time>2021-07-21T12:48:35Z</time>
      </trkpt>
      <trkpt lat="42.358932" lon="-4.930164">
        <ele>858.520</ele>
        <time>2021-07-21T12:48:43Z</time>
      </trkpt>
      <trkpt lat="42.359159" lon="-4.929670">
        <ele>857.680</ele>
        <time>2021-07-21T12:48:50Z</time>
      </trkpt>
      <trkpt lat="42.359650" lon="-4.929002">
        <ele>857.644</ele>
        <time>2021-07-21T12:49:02Z</time>
      </trkpt>
      <trkpt lat="42.359717" lon="-4.928878">
        <ele>857.162</ele>
        <time>2021-07-21T12:49:04Z</time>
      </trkpt>
      <trkpt lat="42.359742" lon="-4.928815">
        <ele>857.189</ele>
        <time>2021-07-21T12:49:05Z</time>
      </trkpt>
      <trkpt lat="42.359765" lon="-4.928745">
        <ele>857.157</ele>
        <time>2021-07-21T12:49:06Z</time>
      </trkpt>
      <trkpt lat="42.359905" lon="-4.928180">
        <ele>855.761</ele>
        <time>2021-07-21T12:49:14Z</time>
      </trkpt>
      <trkpt lat="42.359931" lon="-4.928042">
        <ele>855.221</ele>
        <time>2021-07-21T12:49:16Z</time>
      </trkpt>
      <trkpt lat="42.359944" lon="-4.927977">
        <ele>855.213</ele>
        <time>2021-07-21T12:49:17Z</time>
      </trkpt>
      <trkpt lat="42.359963" lon="-4.927852">
        <ele>854.708</ele>
        <time>2021-07-21T12:49:19Z</time>
      </trkpt>
      <trkpt lat="42.360005" lon="-4.927629">
        <ele>854.233</ele>
        <time>2021-07-21T12:49:24Z</time>
      </trkpt>
      <trkpt lat="42.360158" lon="-4.927263">
        <ele>855.765</ele>
        <time>2021-07-21T12:49:35Z</time>
      </trkpt>
      <trkpt lat="42.360421" lon="-4.927106">
        <ele>855.762</ele>
        <time>2021-07-21T12:49:44Z</time>
      </trkpt>
      <trkpt lat="42.360527" lon="-4.927015">
        <ele>856.182</ele>
        <time>2021-07-21T12:49:50Z</time>
      </trkpt>
      <trkpt lat="42.360541" lon="-4.926937">
        <ele>856.626</ele>
        <time>2021-07-21T12:49:54Z</time>
      </trkpt>
      <trkpt lat="42.360527" lon="-4.926913">
        <ele>856.154</ele>
        <time>2021-07-21T12:49:55Z</time>
      </trkpt>
      <trkpt lat="42.360369" lon="-4.926717">
        <ele>856.151</ele>
        <time>2021-07-21T12:50:04Z</time>
      </trkpt>
      <trkpt lat="42.360282" lon="-4.926620">
        <ele>855.779</ele>
        <time>2021-07-21T12:50:10Z</time>
      </trkpt>
      <trkpt lat="42.360283" lon="-4.926593">
        <ele>855.717</ele>
        <time>2021-07-21T12:50:11Z</time>
      </trkpt>
      <trkpt lat="42.360290" lon="-4.926564">
        <ele>855.787</ele>
        <time>2021-07-21T12:50:12Z</time>
      </trkpt>
      <trkpt lat="42.360329" lon="-4.926331">
        <ele>854.715</ele>
        <time>2021-07-21T12:50:19Z</time>
      </trkpt>
      <trkpt lat="42.360350" lon="-4.926219">
        <ele>854.708</ele>
        <time>2021-07-21T12:50:22Z</time>
      </trkpt>
      <trkpt lat="42.360362" lon="-4.926070">
        <ele>855.288</ele>
        <time>2021-07-21T12:50:26Z</time>
      </trkpt>
      <trkpt lat="42.360395" lon="-4.925768">
        <ele>855.240</ele>
        <time>2021-07-21T12:50:34Z</time>
      </trkpt>
      <trkpt lat="42.360453" lon="-4.925437">
        <ele>856.117</ele>
        <time>2021-07-21T12:50:42Z</time>
      </trkpt>
      <trkpt lat="42.360511" lon="-4.925227">
        <ele>856.647</ele>
        <time>2021-07-21T12:50:48Z</time>
      </trkpt>
      <trkpt lat="42.360589" lon="-4.924825">
        <ele>857.681</ele>
        <time>2021-07-21T12:50:58Z</time>
      </trkpt>
      <trkpt lat="42.360692" lon="-4.924372">
        <ele>859.049</ele>
        <time>2021-07-21T12:51:08Z</time>
      </trkpt>
      <trkpt lat="42.360795" lon="-4.923855">
        <ele>859.566</ele>
        <time>2021-07-21T12:51:19Z</time>
      </trkpt>
      <trkpt lat="42.360865" lon="-4.923439">
        <ele>860.524</ele>
        <time>2021-07-21T12:51:28Z</time>
      </trkpt>
      <trkpt lat="42.360923" lon="-4.923085">
        <ele>861.455</ele>
        <time>2021-07-21T12:51:37Z</time>
      </trkpt>
      <trkpt lat="42.360952" lon="-4.922760">
        <ele>862.407</ele>
        <time>2021-07-21T12:51:46Z</time>
      </trkpt>
      <trkpt lat="42.360969" lon="-4.922283">
        <ele>863.817</ele>
        <time>2021-07-21T12:51:58Z</time>
      </trkpt>
      <trkpt lat="42.360950" lon="-4.921854">
        <ele>865.808</ele>
        <time>2021-07-21T12:52:09Z</time>
      </trkpt>
      <trkpt lat="42.360854" lon="-4.921467">
        <ele>865.362</ele>
        <time>2021-07-21T12:52:20Z</time>
      </trkpt>
      <trkpt lat="42.360775" lon="-4.921114">
        <ele>863.464</ele>
        <time>2021-07-21T12:52:27Z</time>
      </trkpt>
      <trkpt lat="42.360735" lon="-4.920644">
        <ele>861.051</ele>
        <time>2021-07-21T12:52:33Z</time>
      </trkpt>
      <trkpt lat="42.360741" lon="-4.919773">
        <ele>859.091</ele>
        <time>2021-07-21T12:52:43Z</time>
      </trkpt>
      <trkpt lat="42.360767" lon="-4.918842">
        <ele>857.185</ele>
        <time>2021-07-21T12:52:53Z</time>
      </trkpt>
      <trkpt lat="42.360806" lon="-4.918105">
        <ele>855.773</ele>
        <time>2021-07-21T12:53:01Z</time>
      </trkpt>
      <trkpt lat="42.360849" lon="-4.917385">
        <ele>853.310</ele>
        <time>2021-07-21T12:53:09Z</time>
      </trkpt>
      <trkpt lat="42.360783" lon="-4.916830">
        <ele>852.338</ele>
        <time>2021-07-21T12:53:15Z</time>
      </trkpt>
      <trkpt lat="42.360551" lon="-4.915929">
        <ele>849.459</ele>
        <time>2021-07-21T12:53:25Z</time>
      </trkpt>
      <trkpt lat="42.360290" lon="-4.915318">
        <ele>847.003</ele>
        <time>2021-07-21T12:53:32Z</time>
      </trkpt>
      <trkpt lat="42.359926" lon="-4.914327">
        <ele>845.123</ele>
        <time>2021-07-21T12:53:43Z</time>
      </trkpt>
      <trkpt lat="42.359753" lon="-4.913762">
        <ele>844.108</ele>
        <time>2021-07-21T12:53:50Z</time>
      </trkpt>
      <trkpt lat="42.359561" lon="-4.913124">
        <ele>841.762</ele>
        <time>2021-07-21T12:53:59Z</time>
      </trkpt>
      <trkpt lat="42.359465" lon="-4.912905">
        <ele>840.844</ele>
        <time>2021-07-21T12:54:02Z</time>
      </trkpt>
      <trkpt lat="42.359434" lon="-4.912828">
        <ele>840.861</ele>
        <time>2021-07-21T12:54:03Z</time>
      </trkpt>
      <trkpt lat="42.359328" lon="-4.912528">
        <ele>840.891</ele>
        <time>2021-07-21T12:54:08Z</time>
      </trkpt>
      <trkpt lat="42.359295" lon="-4.912343">
        <ele>841.225</ele>
        <time>2021-07-21T12:54:13Z</time>
      </trkpt>
      <trkpt lat="42.359293" lon="-4.912323">
        <ele>842.283</ele>
        <time>2021-07-21T12:54:18Z</time>
      </trkpt>
      <trkpt lat="42.359284" lon="-4.912239">
        <ele>842.710</ele>
        <time>2021-07-21T12:54:26Z</time>
      </trkpt>
      <trkpt lat="42.359259" lon="-4.912031">
        <ele>844.158</ele>
        <time>2021-07-21T12:54:38Z</time>
      </trkpt>
      <trkpt lat="42.359254" lon="-4.911813">
        <ele>846.135</ele>
        <time>2021-07-21T12:54:51Z</time>
      </trkpt>
      <trkpt lat="42.359261" lon="-4.911831">
        <ele>844.686</ele>
        <time>2021-07-21T12:55:07Z</time>
      </trkpt>
      <trkpt lat="42.359260" lon="-4.911829">
        <ele>842.714</ele>
        <time>2021-07-21T12:55:32Z</time>
      </trkpt>
      <trkpt lat="42.359257" lon="-4.911827">
        <ele>842.708</ele>
        <time>2021-07-21T12:55:49Z</time>
      </trkpt>
      <trkpt lat="42.359263" lon="-4.911810">
        <ele>843.210</ele>
        <time>2021-07-21T12:55:53Z</time>
      </trkpt>
      <trkpt lat="42.359269" lon="-4.911795">
        <ele>843.292</ele>
        <time>2021-07-21T12:55:54Z</time>
      </trkpt>
      <trkpt lat="42.359273" lon="-4.911776">
        <ele>843.229</ele>
        <time>2021-07-21T12:55:55Z</time>
      </trkpt>
      <trkpt lat="42.359336" lon="-4.911549">
        <ele>842.799</ele>
        <time>2021-07-21T12:56:03Z</time>
      </trkpt>
      <trkpt lat="42.359401" lon="-4.911324">
        <ele>841.223</ele>
        <time>2021-07-21T12:56:07Z</time>
      </trkpt>
      <trkpt lat="42.359407" lon="-4.911251">
        <ele>840.821</ele>
        <time>2021-07-21T12:56:08Z</time>
      </trkpt>
      <trkpt lat="42.359407" lon="-4.911182">
        <ele>840.818</ele>
        <time>2021-07-21T12:56:09Z</time>
      </trkpt>
      <trkpt lat="42.359402" lon="-4.911119">
        <ele>840.836</ele>
        <time>2021-07-21T12:56:10Z</time>
      </trkpt>
      <trkpt lat="42.359393" lon="-4.911064">
        <ele>840.856</ele>
        <time>2021-07-21T12:56:11Z</time>
      </trkpt>
      <trkpt lat="42.359379" lon="-4.911015">
        <ele>840.859</ele>
        <time>2021-07-21T12:56:12Z</time>
      </trkpt>
      <trkpt lat="42.359365" lon="-4.910976">
        <ele>841.214</ele>
        <time>2021-07-21T12:56:13Z</time>
      </trkpt>
      <trkpt lat="42.359352" lon="-4.910941">
        <ele>841.208</ele>
        <time>2021-07-21T12:56:14Z</time>
      </trkpt>
      <trkpt lat="42.359273" lon="-4.910725">
        <ele>841.232</ele>
        <time>2021-07-21T12:56:21Z</time>
      </trkpt>
      <trkpt lat="42.359120" lon="-4.910287">
        <ele>843.654</ele>
        <time>2021-07-21T12:56:33Z</time>
      </trkpt>
      <trkpt lat="42.359118" lon="-4.909985">
        <ele>844.631</ele>
        <time>2021-07-21T12:56:41Z</time>
      </trkpt>
      <trkpt lat="42.359152" lon="-4.909757">
        <ele>846.181</ele>
        <time>2021-07-21T12:56:48Z</time>
      </trkpt>
      <trkpt lat="42.359179" lon="-4.909566">
        <ele>848.595</ele>
        <time>2021-07-21T12:56:56Z</time>
      </trkpt>
      <trkpt lat="42.359339" lon="-4.909398">
        <ele>849.463</ele>
        <time>2021-07-21T12:57:04Z</time>
      </trkpt>
      <trkpt lat="42.359553" lon="-4.909188">
        <ele>849.470</ele>
        <time>2021-07-21T12:57:13Z</time>
      </trkpt>
      <trkpt lat="42.359744" lon="-4.908918">
        <ele>850.468</ele>
        <time>2021-07-21T12:57:23Z</time>
      </trkpt>
      <trkpt lat="42.359874" lon="-4.908662">
        <ele>850.442</ele>
        <time>2021-07-21T12:57:30Z</time>
      </trkpt>
      <trkpt lat="42.360031" lon="-4.908298">
        <ele>850.422</ele>
        <time>2021-07-21T12:57:38Z</time>
      </trkpt>
      <trkpt lat="42.360240" lon="-4.907848">
        <ele>850.914</ele>
        <time>2021-07-21T12:57:48Z</time>
      </trkpt>
      <trkpt lat="42.360450" lon="-4.907386">
        <ele>851.308</ele>
        <time>2021-07-21T12:57:58Z</time>
      </trkpt>
      <trkpt lat="42.360641" lon="-4.906973">
        <ele>851.341</ele>
        <time>2021-07-21T12:58:07Z</time>
      </trkpt>
      <trkpt lat="42.360854" lon="-4.906500">
        <ele>851.873</ele>
        <time>2021-07-21T12:58:17Z</time>
      </trkpt>
      <trkpt lat="42.361038" lon="-4.906096">
        <ele>851.850</ele>
        <time>2021-07-21T12:58:26Z</time>
      </trkpt>
      <trkpt lat="42.361235" lon="-4.905672">
        <ele>851.870</ele>
        <time>2021-07-21T12:58:36Z</time>
      </trkpt>
      <trkpt lat="42.361338" lon="-4.905453">
        <ele>852.394</ele>
        <time>2021-07-21T12:58:43Z</time>
      </trkpt>
      <trkpt lat="42.361336" lon="-4.905452">
        <ele>852.382</ele>
        <time>2021-07-21T12:58:48Z</time>
      </trkpt>
      <trkpt lat="42.361348" lon="-4.905430">
        <ele>852.889</ele>
        <time>2021-07-21T12:59:01Z</time>
      </trkpt>
      <trkpt lat="42.361429" lon="-4.905247">
        <ele>852.837</ele>
        <time>2021-07-21T12:59:08Z</time>
      </trkpt>
      <trkpt lat="42.361552" lon="-4.904975">
        <ele>852.896</ele>
        <time>2021-07-21T12:59:16Z</time>
      </trkpt>
      <trkpt lat="42.361746" lon="-4.904547">
        <ele>852.831</ele>
        <time>2021-07-21T12:59:26Z</time>
      </trkpt>
      <trkpt lat="42.362040" lon="-4.903906">
        <ele>853.324</ele>
        <time>2021-07-21T12:59:40Z</time>
      </trkpt>
      <trkpt lat="42.362260" lon="-4.903425">
        <ele>853.708</ele>
        <time>2021-07-21T12:59:50Z</time>
      </trkpt>
      <trkpt lat="42.362449" lon="-4.903005">
        <ele>853.756</ele>
        <time>2021-07-21T12:59:59Z</time>
      </trkpt>
      <trkpt lat="42.362753" lon="-4.902354">
        <ele>855.278</ele>
        <time>2021-07-21T13:00:13Z</time>
      </trkpt>
      <trkpt lat="42.363004" lon="-4.901804">
        <ele>855.785</ele>
        <time>2021-07-21T13:00:25Z</time>
      </trkpt>
      <trkpt lat="42.363254" lon="-4.901257">
        <ele>856.655</ele>
        <time>2021-07-21T13:00:37Z</time>
      </trkpt>
      <trkpt lat="42.363464" lon="-4.900798">
        <ele>857.649</ele>
        <time>2021-07-21T13:00:47Z</time>
      </trkpt>
      <trkpt lat="42.363700" lon="-4.900282">
        <ele>858.157</ele>
        <time>2021-07-21T13:00:58Z</time>
      </trkpt>
      <trkpt lat="42.363823" lon="-4.900001">
        <ele>858.514</ele>
        <time>2021-07-21T13:01:04Z</time>
      </trkpt>
      <trkpt lat="42.363914" lon="-4.899601">
        <ele>859.032</ele>
        <time>2021-07-21T13:01:12Z</time>
      </trkpt>
      <trkpt lat="42.363950" lon="-4.899039">
        <ele>860.084</ele>
        <time>2021-07-21T13:01:24Z</time>
      </trkpt>
      <trkpt lat="42.363972" lon="-4.898578">
        <ele>861.007</ele>
        <time>2021-07-21T13:01:35Z</time>
      </trkpt>
      <trkpt lat="42.363995" lon="-4.898173">
        <ele>862.417</ele>
        <time>2021-07-21T13:01:45Z</time>
      </trkpt>
      <trkpt lat="42.364013" lon="-4.897857">
        <ele>863.408</ele>
        <time>2021-07-21T13:01:53Z</time>
      </trkpt>
      <trkpt lat="42.364036" lon="-4.897541">
        <ele>864.365</ele>
        <time>2021-07-21T13:02:01Z</time>
      </trkpt>
      <trkpt lat="42.364049" lon="-4.897209">
        <ele>865.367</ele>
        <time>2021-07-21T13:02:10Z</time>
      </trkpt>
      <trkpt lat="42.364078" lon="-4.896776">
        <ele>866.794</ele>
        <time>2021-07-21T13:02:21Z</time>
      </trkpt>
      <trkpt lat="42.364096" lon="-4.896432">
        <ele>867.264</ele>
        <time>2021-07-21T13:02:30Z</time>
      </trkpt>
      <trkpt lat="42.364122" lon="-4.895991">
        <ele>868.218</ele>
        <time>2021-07-21T13:02:41Z</time>
      </trkpt>
      <trkpt lat="42.364148" lon="-4.895501">
        <ele>869.676</ele>
        <time>2021-07-21T13:02:53Z</time>
      </trkpt>
      <trkpt lat="42.364167" lon="-4.895127">
        <ele>870.693</ele>
        <time>2021-07-21T13:03:02Z</time>
      </trkpt>
      <trkpt lat="42.364189" lon="-4.894735">
        <ele>871.591</ele>
        <time>2021-07-21T13:03:12Z</time>
      </trkpt>
      <trkpt lat="42.364211" lon="-4.894343">
        <ele>872.079</ele>
        <time>2021-07-21T13:03:22Z</time>
      </trkpt>
      <trkpt lat="42.364242" lon="-4.893865">
        <ele>873.505</ele>
        <time>2021-07-21T13:03:34Z</time>
      </trkpt>
      <trkpt lat="42.364263" lon="-4.893439">
        <ele>874.425</ele>
        <time>2021-07-21T13:03:45Z</time>
      </trkpt>
      <trkpt lat="42.364282" lon="-4.893057">
        <ele>875.908</ele>
        <time>2021-07-21T13:03:55Z</time>
      </trkpt>
      <trkpt lat="42.364308" lon="-4.892604">
        <ele>877.354</ele>
        <time>2021-07-21T13:04:07Z</time>
      </trkpt>
      <trkpt lat="42.364324" lon="-4.892306">
        <ele>877.836</ele>
        <time>2021-07-21T13:04:15Z</time>
      </trkpt>
      <trkpt lat="42.364342" lon="-4.891960">
        <ele>878.783</ele>
        <time>2021-07-21T13:04:25Z</time>
      </trkpt>
      <trkpt lat="42.364364" lon="-4.891552">
        <ele>879.713</ele>
        <time>2021-07-21T13:04:35Z</time>
      </trkpt>
      <trkpt lat="42.364382" lon="-4.891194">
        <ele>880.737</ele>
        <time>2021-07-21T13:04:44Z</time>
      </trkpt>
      <trkpt lat="42.364390" lon="-4.890837">
        <ele>881.655</ele>
        <time>2021-07-21T13:04:53Z</time>
      </trkpt>
      <trkpt lat="42.364429" lon="-4.890217">
        <ele>883.132</ele>
        <time>2021-07-21T13:05:08Z</time>
      </trkpt>
      <trkpt lat="42.364457" lon="-4.889766">
        <ele>884.040</ele>
        <time>2021-07-21T13:05:19Z</time>
      </trkpt>
      <trkpt lat="42.364490" lon="-4.889309">
        <ele>884.577</ele>
        <time>2021-07-21T13:05:30Z</time>
      </trkpt>
      <trkpt lat="42.364513" lon="-4.889009">
        <ele>885.961</ele>
        <time>2021-07-21T13:05:37Z</time>
      </trkpt>
      <trkpt lat="42.364550" lon="-4.888621">
        <ele>886.427</ele>
        <time>2021-07-21T13:05:46Z</time>
      </trkpt>
      <trkpt lat="42.364610" lon="-4.888134">
        <ele>886.908</ele>
        <time>2021-07-21T13:05:56Z</time>
      </trkpt>
      <trkpt lat="42.364656" lon="-4.887740">
        <ele>886.914</ele>
        <time>2021-07-21T13:06:04Z</time>
      </trkpt>
      <trkpt lat="42.364725" lon="-4.887192">
        <ele>886.976</ele>
        <time>2021-07-21T13:06:14Z</time>
      </trkpt>
      <trkpt lat="42.364814" lon="-4.886461">
        <ele>887.443</ele>
        <time>2021-07-21T13:06:26Z</time>
      </trkpt>
      <trkpt lat="42.364890" lon="-4.885795">
        <ele>887.423</ele>
        <time>2021-07-21T13:06:37Z</time>
      </trkpt>
      <trkpt lat="42.364963" lon="-4.885210">
        <ele>887.977</ele>
        <time>2021-07-21T13:06:47Z</time>
      </trkpt>
      <trkpt lat="42.365030" lon="-4.884609">
        <ele>888.425</ele>
        <time>2021-07-21T13:06:57Z</time>
      </trkpt>
      <trkpt lat="42.365104" lon="-4.884002">
        <ele>888.832</ele>
        <time>2021-07-21T13:07:07Z</time>
      </trkpt>
      <trkpt lat="42.365181" lon="-4.883302">
        <ele>889.350</ele>
        <time>2021-07-21T13:07:18Z</time>
      </trkpt>
      <trkpt lat="42.365260" lon="-4.882594">
        <ele>889.863</ele>
        <time>2021-07-21T13:07:29Z</time>
      </trkpt>
      <trkpt lat="42.365340" lon="-4.881884">
        <ele>889.344</ele>
        <time>2021-07-21T13:07:40Z</time>
      </trkpt>
      <trkpt lat="42.365400" lon="-4.881316">
        <ele>890.318</ele>
        <time>2021-07-21T13:07:49Z</time>
      </trkpt>
      <trkpt lat="42.365483" lon="-4.880605">
        <ele>890.308</ele>
        <time>2021-07-21T13:08:00Z</time>
      </trkpt>
      <trkpt lat="42.365553" lon="-4.879985">
        <ele>890.363</ele>
        <time>2021-07-21T13:08:10Z</time>
      </trkpt>
      <trkpt lat="42.365619" lon="-4.879437">
        <ele>890.345</ele>
        <time>2021-07-21T13:08:19Z</time>
      </trkpt>
      <trkpt lat="42.365700" lon="-4.878697">
        <ele>889.862</ele>
        <time>2021-07-21T13:08:30Z</time>
      </trkpt>
      <trkpt lat="42.365770" lon="-4.878082">
        <ele>888.462</ele>
        <time>2021-07-21T13:08:38Z</time>
      </trkpt>
      <trkpt lat="42.365868" lon="-4.877245">
        <ele>887.486</ele>
        <time>2021-07-21T13:08:48Z</time>
      </trkpt>
      <trkpt lat="42.365963" lon="-4.876469">
        <ele>886.934</ele>
        <time>2021-07-21T13:08:57Z</time>
      </trkpt>
      <trkpt lat="42.366053" lon="-4.875455">
        <ele>885.531</ele>
        <time>2021-07-21T13:09:08Z</time>
      </trkpt>
      <trkpt lat="42.365988" lon="-4.874796">
        <ele>884.589</ele>
        <time>2021-07-21T13:09:15Z</time>
      </trkpt>
      <trkpt lat="42.365756" lon="-4.873982">
        <ele>883.591</ele>
        <time>2021-07-21T13:09:24Z</time>
      </trkpt>
      <trkpt lat="42.365375" lon="-4.872993">
        <ele>881.681</ele>
        <time>2021-07-21T13:09:35Z</time>
      </trkpt>
      <trkpt lat="42.364975" lon="-4.871954">
        <ele>877.819</ele>
        <time>2021-07-21T13:09:45Z</time>
      </trkpt>
      <trkpt lat="42.364576" lon="-4.870906">
        <ele>875.908</ele>
        <time>2021-07-21T13:09:55Z</time>
      </trkpt>
      <trkpt lat="42.364310" lon="-4.870210">
        <ele>876.386</ele>
        <time>2021-07-21T13:10:03Z</time>
      </trkpt>
      <trkpt lat="42.364045" lon="-4.869512">
        <ele>876.868</ele>
        <time>2021-07-21T13:10:13Z</time>
      </trkpt>
      <trkpt lat="42.363775" lon="-4.868810">
        <ele>877.355</ele>
        <time>2021-07-21T13:10:24Z</time>
      </trkpt>
      <trkpt lat="42.363522" lon="-4.868144">
        <ele>877.315</ele>
        <time>2021-07-21T13:10:35Z</time>
      </trkpt>
      <trkpt lat="42.363261" lon="-4.867460">
        <ele>877.889</ele>
        <time>2021-07-21T13:10:47Z</time>
      </trkpt>
      <trkpt lat="42.363212" lon="-4.867357">
        <ele>877.817</ele>
        <time>2021-07-21T13:10:49Z</time>
      </trkpt>
      <trkpt lat="42.362927" lon="-4.866900">
        <ele>877.844</ele>
        <time>2021-07-21T13:10:58Z</time>
      </trkpt>
      <trkpt lat="42.362853" lon="-4.866806">
        <ele>877.862</ele>
        <time>2021-07-21T13:11:00Z</time>
      </trkpt>
      <trkpt lat="42.362440" lon="-4.866439">
        <ele>877.339</ele>
        <time>2021-07-21T13:11:10Z</time>
      </trkpt>
      <trkpt lat="42.362391" lon="-4.866409">
        <ele>877.301</ele>
        <time>2021-07-21T13:11:11Z</time>
      </trkpt>
      <trkpt lat="42.361904" lon="-4.866206">
        <ele>876.821</ele>
        <time>2021-07-21T13:11:21Z</time>
      </trkpt>
      <trkpt lat="42.361320" lon="-4.866044">
        <ele>876.308</ele>
        <time>2021-07-21T13:11:33Z</time>
      </trkpt>
      <trkpt lat="42.360847" lon="-4.865910">
        <ele>875.920</ele>
        <time>2021-07-21T13:11:43Z</time>
      </trkpt>
      <trkpt lat="42.360325" lon="-4.865764">
        <ele>875.962</ele>
        <time>2021-07-21T13:11:54Z</time>
      </trkpt>
      <trkpt lat="42.359846" lon="-4.865625">
        <ele>876.369</ele>
        <time>2021-07-21T13:12:05Z</time>
      </trkpt>
      <trkpt lat="42.359258" lon="-4.865456">
        <ele>876.899</ele>
        <time>2021-07-21T13:12:18Z</time>
      </trkpt>
      <trkpt lat="42.358853" lon="-4.865340">
        <ele>877.383</ele>
        <time>2021-07-21T13:12:27Z</time>
      </trkpt>
      <trkpt lat="42.358318" lon="-4.865289">
        <ele>876.321</ele>
        <time>2021-07-21T13:12:39Z</time>
      </trkpt>
      <trkpt lat="42.357872" lon="-4.865311">
        <ele>875.968</ele>
        <time>2021-07-21T13:12:48Z</time>
      </trkpt>
      <trkpt lat="42.357295" lon="-4.865460">
        <ele>875.416</ele>
        <time>2021-07-21T13:13:00Z</time>
      </trkpt>
      <trkpt lat="42.356696" lon="-4.865698">
        <ele>875.933</ele>
        <time>2021-07-21T13:13:12Z</time>
      </trkpt>
      <trkpt lat="42.356010" lon="-4.865989">
        <ele>874.923</ele>
        <time>2021-07-21T13:13:26Z</time>
      </trkpt>
      <trkpt lat="42.355697" lon="-4.866122">
        <ele>874.415</ele>
        <time>2021-07-21T13:13:33Z</time>
      </trkpt>
      <trkpt lat="42.355660" lon="-4.866127">
        <ele>873.908</ele>
        <time>2021-07-21T13:13:34Z</time>
      </trkpt>
      <trkpt lat="42.355625" lon="-4.866122">
        <ele>873.990</ele>
        <time>2021-07-21T13:13:35Z</time>
      </trkpt>
      <trkpt lat="42.355594" lon="-4.866117">
        <ele>873.982</ele>
        <time>2021-07-21T13:13:36Z</time>
      </trkpt>
      <trkpt lat="42.355564" lon="-4.866113">
        <ele>873.519</ele>
        <time>2021-07-21T13:13:37Z</time>
      </trkpt>
      <trkpt lat="42.355534" lon="-4.866098">
        <ele>873.539</ele>
        <time>2021-07-21T13:13:38Z</time>
      </trkpt>
      <trkpt lat="42.355512" lon="-4.866068">
        <ele>873.563</ele>
        <time>2021-07-21T13:13:39Z</time>
      </trkpt>
      <trkpt lat="42.355496" lon="-4.866034">
        <ele>873.021</ele>
        <time>2021-07-21T13:13:40Z</time>
      </trkpt>
      <trkpt lat="42.355488" lon="-4.866001">
        <ele>873.088</ele>
        <time>2021-07-21T13:13:41Z</time>
      </trkpt>
      <trkpt lat="42.355482" lon="-4.865962">
        <ele>873.066</ele>
        <time>2021-07-21T13:13:42Z</time>
      </trkpt>
      <trkpt lat="42.355398" lon="-4.865606">
        <ele>872.078</ele>
        <time>2021-07-21T13:13:51Z</time>
      </trkpt>
      <trkpt lat="42.355258" lon="-4.865400">
        <ele>872.533</ele>
        <time>2021-07-21T13:13:58Z</time>
      </trkpt>
      <trkpt lat="42.355140" lon="-4.865239">
        <ele>872.026</ele>
        <time>2021-07-21T13:14:04Z</time>
      </trkpt>
      <trkpt lat="42.355128" lon="-4.865210">
        <ele>871.508</ele>
        <time>2021-07-21T13:14:06Z</time>
      </trkpt>
      <trkpt lat="42.355136" lon="-4.865196">
        <ele>871.524</ele>
        <time>2021-07-21T13:14:07Z</time>
      </trkpt>
      <trkpt lat="42.355157" lon="-4.865197">
        <ele>872.066</ele>
        <time>2021-07-21T13:14:08Z</time>
      </trkpt>
      <trkpt lat="42.355172" lon="-4.865209">
        <ele>872.053</ele>
        <time>2021-07-21T13:14:09Z</time>
      </trkpt>
      <trkpt lat="42.355188" lon="-4.865233">
        <ele>872.053</ele>
        <time>2021-07-21T13:14:10Z</time>
      </trkpt>
      <trkpt lat="42.355239" lon="-4.865395">
        <ele>872.517</ele>
        <time>2021-07-21T13:14:15Z</time>
      </trkpt>
      <trkpt lat="42.355202" lon="-4.865477">
        <ele>871.545</ele>
        <time>2021-07-21T13:14:19Z</time>
      </trkpt>
      <trkpt lat="42.355174" lon="-4.865499">
        <ele>871.562</ele>
        <time>2021-07-21T13:14:20Z</time>
      </trkpt>
      <trkpt lat="42.355147" lon="-4.865516">
        <ele>871.590</ele>
        <time>2021-07-21T13:14:21Z</time>
      </trkpt>
      <trkpt lat="42.355015" lon="-4.865592">
        <ele>872.077</ele>
        <time>2021-07-21T13:14:27Z</time>
      </trkpt>
      <trkpt lat="42.354978" lon="-4.865592">
        <ele>870.661</ele>
        <time>2021-07-21T13:14:31Z</time>
      </trkpt>
      <trkpt lat="42.354962" lon="-4.865572">
        <ele>869.627</ele>
        <time>2021-07-21T13:14:37Z</time>
      </trkpt>
      <trkpt lat="42.354982" lon="-4.865541">
        <ele>870.108</ele>
        <time>2021-07-21T13:14:42Z</time>
      </trkpt>
      <trkpt lat="42.355001" lon="-4.865534">
        <ele>869.624</ele>
        <time>2021-07-21T13:14:49Z</time>
      </trkpt>
      <trkpt lat="42.354653" lon="-4.865702">
        <ele>899.416</ele>
        <time>2021-07-22T05:55:25Z</time>
      </trkpt>
      <trkpt lat="42.354648" lon="-4.865791">
        <ele>889.843</ele>
        <time>2021-07-22T05:55:37Z</time>
      </trkpt>
      <trkpt lat="42.354651" lon="-4.865838">
        <ele>887.993</ele>
        <time>2021-07-22T05:55:54Z</time>
      </trkpt>
      <trkpt lat="42.354665" lon="-4.865777">
        <ele>885.017</ele>
        <time>2021-07-22T05:56:08Z</time>
      </trkpt>
      <trkpt lat="42.354694" lon="-4.865924">
        <ele>884.515</ele>
        <time>2021-07-22T05:56:16Z</time>
      </trkpt>
      <trkpt lat="42.354652" lon="-4.865976">
        <ele>883.572</ele>
        <time>2021-07-22T05:56:19Z</time>
      </trkpt>
      <trkpt lat="42.354581" lon="-4.866030">
        <ele>883.110</ele>
        <time>2021-07-22T05:56:22Z</time>
      </trkpt>
      <trkpt lat="42.354563" lon="-4.866040">
        <ele>883.156</ele>
        <time>2021-07-22T05:56:23Z</time>
      </trkpt>
      <trkpt lat="42.354535" lon="-4.866056">
        <ele>882.659</ele>
        <time>2021-07-22T05:56:24Z</time>
      </trkpt>
      <trkpt lat="42.354310" lon="-4.866209">
        <ele>880.714</ele>
        <time>2021-07-22T05:56:34Z</time>
      </trkpt>
      <trkpt lat="42.354077" lon="-4.866370">
        <ele>879.208</ele>
        <time>2021-07-22T05:56:43Z</time>
      </trkpt>
      <trkpt lat="42.353879" lon="-4.866477">
        <ele>877.322</ele>
        <time>2021-07-22T05:56:52Z</time>
      </trkpt>
      <trkpt lat="42.353745" lon="-4.866469">
        <ele>875.914</ele>
        <time>2021-07-22T05:56:59Z</time>
      </trkpt>
      <trkpt lat="42.353729" lon="-4.866447">
        <ele>875.931</ele>
        <time>2021-07-22T05:57:00Z</time>
      </trkpt>
      <trkpt lat="42.353711" lon="-4.866424">
        <ele>875.991</ele>
        <time>2021-07-22T05:57:01Z</time>
      </trkpt>
      <trkpt lat="42.353690" lon="-4.866405">
        <ele>876.335</ele>
        <time>2021-07-22T05:57:02Z</time>
      </trkpt>
      <trkpt lat="42.353667" lon="-4.866399">
        <ele>875.973</ele>
        <time>2021-07-22T05:57:03Z</time>
      </trkpt>
      <trkpt lat="42.353644" lon="-4.866397">
        <ele>875.960</ele>
        <time>2021-07-22T05:57:04Z</time>
      </trkpt>
      <trkpt lat="42.353622" lon="-4.866398">
        <ele>876.398</ele>
        <time>2021-07-22T05:57:05Z</time>
      </trkpt>
      <trkpt lat="42.353599" lon="-4.866396">
        <ele>876.334</ele>
        <time>2021-07-22T05:57:06Z</time>
      </trkpt>
      <trkpt lat="42.353512" lon="-4.866376">
        <ele>876.355</ele>
        <time>2021-07-22T05:57:12Z</time>
      </trkpt>
      <trkpt lat="42.353499" lon="-4.866358">
        <ele>876.310</ele>
        <time>2021-07-22T05:57:13Z</time>
      </trkpt>
      <trkpt lat="42.353486" lon="-4.866344">
        <ele>876.308</ele>
        <time>2021-07-22T05:57:14Z</time>
      </trkpt>
      <trkpt lat="42.353473" lon="-4.866334">
        <ele>876.870</ele>
        <time>2021-07-22T05:57:15Z</time>
      </trkpt>
      <trkpt lat="42.353455" lon="-4.866328">
        <ele>876.872</ele>
        <time>2021-07-22T05:57:16Z</time>
      </trkpt>
      <trkpt lat="42.353434" lon="-4.866326">
        <ele>877.369</ele>
        <time>2021-07-22T05:57:17Z</time>
      </trkpt>
      <trkpt lat="42.353410" lon="-4.866332">
        <ele>877.369</ele>
        <time>2021-07-22T05:57:18Z</time>
      </trkpt>
      <trkpt lat="42.353391" lon="-4.866337">
        <ele>877.313</ele>
        <time>2021-07-22T05:57:19Z</time>
      </trkpt>
      <trkpt lat="42.353364" lon="-4.866345">
        <ele>877.321</ele>
        <time>2021-07-22T05:57:20Z</time>
      </trkpt>
      <trkpt lat="42.353339" lon="-4.866352">
        <ele>877.358</ele>
        <time>2021-07-22T05:57:21Z</time>
      </trkpt>
      <trkpt lat="42.353319" lon="-4.866360">
        <ele>877.366</ele>
        <time>2021-07-22T05:57:22Z</time>
      </trkpt>
      <trkpt lat="42.353294" lon="-4.866368">
        <ele>877.352</ele>
        <time>2021-07-22T05:57:23Z</time>
      </trkpt>
      <trkpt lat="42.353267" lon="-4.866373">
        <ele>877.353</ele>
        <time>2021-07-22T05:57:24Z</time>
      </trkpt>
      <trkpt lat="42.353240" lon="-4.866371">
        <ele>877.308</ele>
        <time>2021-07-22T05:57:25Z</time>
      </trkpt>
      <trkpt lat="42.353209" lon="-4.866359">
        <ele>877.308</ele>
        <time>2021-07-22T05:57:26Z</time>
      </trkpt>
      <trkpt lat="42.353178" lon="-4.866343">
        <ele>877.372</ele>
        <time>2021-07-22T05:57:27Z</time>
      </trkpt>
      <trkpt lat="42.352919" lon="-4.866109">
        <ele>876.864</ele>
        <time>2021-07-22T05:57:36Z</time>
      </trkpt>
      <trkpt lat="42.352669" lon="-4.865853">
        <ele>875.971</ele>
        <time>2021-07-22T05:57:45Z</time>
      </trkpt>
      <trkpt lat="42.352371" lon="-4.865544">
        <ele>875.441</ele>
        <time>2021-07-22T05:57:55Z</time>
      </trkpt>
      <trkpt lat="42.352049" lon="-4.865220">
        <ele>875.965</ele>
        <time>2021-07-22T05:58:06Z</time>
      </trkpt>
      <trkpt lat="42.351656" lon="-4.864819">
        <ele>875.953</ele>
        <time>2021-07-22T05:58:19Z</time>
      </trkpt>
      <trkpt lat="42.351386" lon="-4.864541">
        <ele>876.380</ele>
        <time>2021-07-22T05:58:29Z</time>
      </trkpt>
      <trkpt lat="42.351024" lon="-4.864174">
        <ele>876.888</ele>
        <time>2021-07-22T05:58:42Z</time>
      </trkpt>
      <trkpt lat="42.350674" lon="-4.863817">
        <ele>877.357</ele>
        <time>2021-07-22T05:58:54Z</time>
      </trkpt>
      <trkpt lat="42.350381" lon="-4.863520">
        <ele>877.300</ele>
        <time>2021-07-22T05:59:04Z</time>
      </trkpt>
      <trkpt lat="42.350147" lon="-4.863302">
        <ele>877.820</ele>
        <time>2021-07-22T05:59:12Z</time>
      </trkpt>
      <trkpt lat="42.349937" lon="-4.863115">
        <ele>879.208</ele>
        <time>2021-07-22T05:59:21Z</time>
      </trkpt>
      <trkpt lat="42.349725" lon="-4.862931">
        <ele>880.782</ele>
        <time>2021-07-22T05:59:31Z</time>
      </trkpt>
      <trkpt lat="42.349491" lon="-4.862750">
        <ele>882.174</ele>
        <time>2021-07-22T05:59:42Z</time>
      </trkpt>
      <trkpt lat="42.349310" lon="-4.862587">
        <ele>883.111</ele>
        <time>2021-07-22T05:59:51Z</time>
      </trkpt>
      <trkpt lat="42.349142" lon="-4.862430">
        <ele>884.511</ele>
        <time>2021-07-22T06:00:00Z</time>
      </trkpt>
      <trkpt lat="42.348958" lon="-4.862235">
        <ele>885.995</ele>
        <time>2021-07-22T06:00:10Z</time>
      </trkpt>
      <trkpt lat="42.348794" lon="-4.862011">
        <ele>887.483</ele>
        <time>2021-07-22T06:00:20Z</time>
      </trkpt>
      <trkpt lat="42.348650" lon="-4.861770">
        <ele>889.340</ele>
        <time>2021-07-22T06:00:30Z</time>
      </trkpt>
      <trkpt lat="42.348520" lon="-4.861517">
        <ele>890.318</ele>
        <time>2021-07-22T06:00:40Z</time>
      </trkpt>
      <trkpt lat="42.348424" lon="-4.861275">
        <ele>891.252</ele>
        <time>2021-07-22T06:00:49Z</time>
      </trkpt>
      <trkpt lat="42.348333" lon="-4.860938">
        <ele>892.253</ele>
        <time>2021-07-22T06:01:01Z</time>
      </trkpt>
      <trkpt lat="42.348300" lon="-4.860781">
        <ele>893.208</ele>
        <time>2021-07-22T06:01:08Z</time>
      </trkpt>
      <trkpt lat="42.348245" lon="-4.860459">
        <ele>894.108</ele>
        <time>2021-07-22T06:01:20Z</time>
      </trkpt>
      <trkpt lat="42.348220" lon="-4.860177">
        <ele>894.612</ele>
        <time>2021-07-22T06:01:31Z</time>
      </trkpt>
      <trkpt lat="42.348215" lon="-4.859916">
        <ele>896.014</ele>
        <time>2021-07-22T06:01:41Z</time>
      </trkpt>
      <trkpt lat="42.348219" lon="-4.859686">
        <ele>898.091</ele>
        <time>2021-07-22T06:01:50Z</time>
      </trkpt>
      <trkpt lat="42.348226" lon="-4.859450">
        <ele>898.921</ele>
        <time>2021-07-22T06:01:59Z</time>
      </trkpt>
      <trkpt lat="42.348233" lon="-4.859213">
        <ele>899.995</ele>
        <time>2021-07-22T06:02:08Z</time>
      </trkpt>
      <trkpt lat="42.348246" lon="-4.858942">
        <ele>900.833</ele>
        <time>2021-07-22T06:02:18Z</time>
      </trkpt>
      <trkpt lat="42.348251" lon="-4.858665">
        <ele>902.320</ele>
        <time>2021-07-22T06:02:29Z</time>
      </trkpt>
      <trkpt lat="42.348258" lon="-4.858422">
        <ele>903.348</ele>
        <time>2021-07-22T06:02:38Z</time>
      </trkpt>
      <trkpt lat="42.348258" lon="-4.858209">
        <ele>904.795</ele>
        <time>2021-07-22T06:02:46Z</time>
      </trkpt>
      <trkpt lat="42.348264" lon="-4.857943">
        <ele>905.249</ele>
        <time>2021-07-22T06:02:56Z</time>
      </trkpt>
      <trkpt lat="42.348253" lon="-4.857681">
        <ele>905.723</ele>
        <time>2021-07-22T06:03:06Z</time>
      </trkpt>
      <trkpt lat="42.348214" lon="-4.857339">
        <ele>906.608</ele>
        <time>2021-07-22T06:03:18Z</time>
      </trkpt>
      <trkpt lat="42.348173" lon="-4.857073">
        <ele>906.666</ele>
        <time>2021-07-22T06:03:27Z</time>
      </trkpt>
      <trkpt lat="42.348114" lon="-4.856819">
        <ele>906.618</ele>
        <time>2021-07-22T06:03:35Z</time>
      </trkpt>
      <trkpt lat="42.348011" lon="-4.856480">
        <ele>906.165</ele>
        <time>2021-07-22T06:03:44Z</time>
      </trkpt>
      <trkpt lat="42.347902" lon="-4.856156">
        <ele>906.685</ele>
        <time>2021-07-22T06:03:52Z</time>
      </trkpt>
      <trkpt lat="42.347712" lon="-4.855650">
        <ele>906.129</ele>
        <time>2021-07-22T06:04:05Z</time>
      </trkpt>
      <trkpt lat="42.347525" lon="-4.855143">
        <ele>906.677</ele>
        <time>2021-07-22T06:04:17Z</time>
      </trkpt>
      <trkpt lat="42.347392" lon="-4.854808">
        <ele>906.184</ele>
        <time>2021-07-22T06:04:25Z</time>
      </trkpt>
      <trkpt lat="42.347228" lon="-4.854369">
        <ele>906.632</ele>
        <time>2021-07-22T06:04:35Z</time>
      </trkpt>
      <trkpt lat="42.347056" lon="-4.853911">
        <ele>906.619</ele>
        <time>2021-07-22T06:04:45Z</time>
      </trkpt>
      <trkpt lat="42.346857" lon="-4.853371">
        <ele>906.109</ele>
        <time>2021-07-22T06:04:56Z</time>
      </trkpt>
      <trkpt lat="42.346624" lon="-4.852730">
        <ele>906.119</ele>
        <time>2021-07-22T06:05:09Z</time>
      </trkpt>
      <trkpt lat="42.346425" lon="-4.852206">
        <ele>906.108</ele>
        <time>2021-07-22T06:05:20Z</time>
      </trkpt>
      <trkpt lat="42.346216" lon="-4.851641">
        <ele>905.758</ele>
        <time>2021-07-22T06:05:32Z</time>
      </trkpt>
      <trkpt lat="42.346038" lon="-4.851172">
        <ele>905.270</ele>
        <time>2021-07-22T06:05:42Z</time>
      </trkpt>
      <trkpt lat="42.345784" lon="-4.850472">
        <ele>905.247</ele>
        <time>2021-07-22T06:05:56Z</time>
      </trkpt>
      <trkpt lat="42.345571" lon="-4.849884">
        <ele>905.257</ele>
        <time>2021-07-22T06:06:07Z</time>
      </trkpt>
      <trkpt lat="42.345335" lon="-4.849241">
        <ele>904.791</ele>
        <time>2021-07-22T06:06:19Z</time>
      </trkpt>
      <trkpt lat="42.345132" lon="-4.848694">
        <ele>903.749</ele>
        <time>2021-07-22T06:06:30Z</time>
      </trkpt>
      <trkpt lat="42.344913" lon="-4.848100">
        <ele>902.336</ele>
        <time>2021-07-22T06:06:42Z</time>
      </trkpt>
      <trkpt lat="42.344852" lon="-4.847926">
        <ele>902.384</ele>
        <time>2021-07-22T06:06:48Z</time>
      </trkpt>
      <trkpt lat="42.344851" lon="-4.847911">
        <ele>902.895</ele>
        <time>2021-07-22T06:06:58Z</time>
      </trkpt>
      <trkpt lat="42.344849" lon="-4.847896">
        <ele>902.849</ele>
        <time>2021-07-22T06:06:59Z</time>
      </trkpt>
      <trkpt lat="42.344842" lon="-4.847881">
        <ele>902.823</ele>
        <time>2021-07-22T06:07:00Z</time>
      </trkpt>
      <trkpt lat="42.344834" lon="-4.847865">
        <ele>902.808</ele>
        <time>2021-07-22T06:07:01Z</time>
      </trkpt>
      <trkpt lat="42.344825" lon="-4.847847">
        <ele>902.846</ele>
        <time>2021-07-22T06:07:02Z</time>
      </trkpt>
      <trkpt lat="42.344761" lon="-4.847669">
        <ele>902.898</ele>
        <time>2021-07-22T06:07:09Z</time>
      </trkpt>
      <trkpt lat="42.344728" lon="-4.847580">
        <ele>902.345</ele>
        <time>2021-07-22T06:07:15Z</time>
      </trkpt>
      <trkpt lat="42.344715" lon="-4.847537">
        <ele>902.395</ele>
        <time>2021-07-22T06:07:31Z</time>
      </trkpt>
      <trkpt lat="42.344662" lon="-4.847368">
        <ele>902.369</ele>
        <time>2021-07-22T06:07:38Z</time>
      </trkpt>
      <trkpt lat="42.344575" lon="-4.847117">
        <ele>901.387</ele>
        <time>2021-07-22T06:07:47Z</time>
      </trkpt>
      <trkpt lat="42.344458" lon="-4.846746">
        <ele>900.824</ele>
        <time>2021-07-22T06:07:58Z</time>
      </trkpt>
      <trkpt lat="42.344312" lon="-4.846292">
        <ele>899.932</ele>
        <time>2021-07-22T06:08:07Z</time>
      </trkpt>
      <trkpt lat="42.344128" lon="-4.845736">
        <ele>898.066</ele>
        <time>2021-07-22T06:08:16Z</time>
      </trkpt>
      <trkpt lat="42.343948" lon="-4.845201">
        <ele>895.129</ele>
        <time>2021-07-22T06:08:23Z</time>
      </trkpt>
      <trkpt lat="42.343726" lon="-4.844521">
        <ele>891.721</ele>
        <time>2021-07-22T06:08:30Z</time>
      </trkpt>
      <trkpt lat="42.343459" lon="-4.843589">
        <ele>886.908</ele>
        <time>2021-07-22T06:08:38Z</time>
      </trkpt>
      <trkpt lat="42.343253" lon="-4.842597">
        <ele>882.633</ele>
        <time>2021-07-22T06:08:46Z</time>
      </trkpt>
      <trkpt lat="42.343074" lon="-4.841399">
        <ele>880.255</ele>
        <time>2021-07-22T06:08:56Z</time>
      </trkpt>
      <trkpt lat="42.342869" lon="-4.840471">
        <ele>878.722</ele>
        <time>2021-07-22T06:09:05Z</time>
      </trkpt>
      <trkpt lat="42.342643" lon="-4.839700">
        <ele>876.812</ele>
        <time>2021-07-22T06:09:14Z</time>
      </trkpt>
      <trkpt lat="42.342306" lon="-4.838820">
        <ele>873.966</ele>
        <time>2021-07-22T06:09:24Z</time>
      </trkpt>
      <trkpt lat="42.341937" lon="-4.838019">
        <ele>870.124</ele>
        <time>2021-07-22T06:09:32Z</time>
      </trkpt>
      <trkpt lat="42.341600" lon="-4.837261">
        <ele>868.691</ele>
        <time>2021-07-22T06:09:40Z</time>
      </trkpt>
      <trkpt lat="42.341285" lon="-4.836449">
        <ele>868.219</ele>
        <time>2021-07-22T06:09:49Z</time>
      </trkpt>
      <trkpt lat="42.341016" lon="-4.835719">
        <ele>868.259</ele>
        <time>2021-07-22T06:09:59Z</time>
      </trkpt>
      <trkpt lat="42.340785" lon="-4.835097">
        <ele>868.203</ele>
        <time>2021-07-22T06:10:09Z</time>
      </trkpt>
      <trkpt lat="42.340563" lon="-4.834427">
        <ele>867.723</ele>
        <time>2021-07-22T06:10:20Z</time>
      </trkpt>
      <trkpt lat="42.340421" lon="-4.833785">
        <ele>868.208</ele>
        <time>2021-07-22T06:10:30Z</time>
      </trkpt>
      <trkpt lat="42.340270" lon="-4.833187">
        <ele>868.672</ele>
        <time>2021-07-22T06:10:39Z</time>
      </trkpt>
      <trkpt lat="42.340027" lon="-4.832560">
        <ele>868.234</ele>
        <time>2021-07-22T06:10:49Z</time>
      </trkpt>
      <trkpt lat="42.339771" lon="-4.831945">
        <ele>868.261</ele>
        <time>2021-07-22T06:10:59Z</time>
      </trkpt>
      <trkpt lat="42.339469" lon="-4.831221">
        <ele>867.771</ele>
        <time>2021-07-22T06:11:11Z</time>
      </trkpt>
      <trkpt lat="42.339242" lon="-4.830688">
        <ele>867.755</ele>
        <time>2021-07-22T06:11:20Z</time>
      </trkpt>
      <trkpt lat="42.339003" lon="-4.830107">
        <ele>867.733</ele>
        <time>2021-07-22T06:11:30Z</time>
      </trkpt>
      <trkpt lat="42.338779" lon="-4.829567">
        <ele>867.290</ele>
        <time>2021-07-22T06:11:39Z</time>
      </trkpt>
      <trkpt lat="42.338436" lon="-4.828797">
        <ele>867.248</ele>
        <time>2021-07-22T06:11:52Z</time>
      </trkpt>
      <trkpt lat="42.338189" lon="-4.828280">
        <ele>866.763</ele>
        <time>2021-07-22T06:12:01Z</time>
      </trkpt>
      <trkpt lat="42.337833" lon="-4.827552">
        <ele>866.744</ele>
        <time>2021-07-22T06:12:14Z</time>
      </trkpt>
      <trkpt lat="42.337460" lon="-4.826795">
        <ele>865.818</ele>
        <time>2021-07-22T06:12:27Z</time>
      </trkpt>
      <trkpt lat="42.337139" lon="-4.826125">
        <ele>865.808</ele>
        <time>2021-07-22T06:12:38Z</time>
      </trkpt>
      <trkpt lat="42.336869" lon="-4.825579">
        <ele>865.353</ele>
        <time>2021-07-22T06:12:47Z</time>
      </trkpt>
      <trkpt lat="42.336561" lon="-4.824983">
        <ele>865.395</ele>
        <time>2021-07-22T06:12:57Z</time>
      </trkpt>
      <trkpt lat="42.336199" lon="-4.824293">
        <ele>864.352</ele>
        <time>2021-07-22T06:13:09Z</time>
      </trkpt>
      <trkpt lat="42.335932" lon="-4.823776">
        <ele>863.882</ele>
        <time>2021-07-22T06:13:18Z</time>
      </trkpt>
      <trkpt lat="42.335632" lon="-4.823195">
        <ele>863.886</ele>
        <time>2021-07-22T06:13:28Z</time>
      </trkpt>
      <trkpt lat="42.335269" lon="-4.822510">
        <ele>863.494</ele>
        <time>2021-07-22T06:13:40Z</time>
      </trkpt>
      <trkpt lat="42.334978" lon="-4.821937">
        <ele>863.831</ele>
        <time>2021-07-22T06:13:50Z</time>
      </trkpt>
      <trkpt lat="42.334676" lon="-4.821365">
        <ele>863.499</ele>
        <time>2021-07-22T06:14:00Z</time>
      </trkpt>
      <trkpt lat="42.334350" lon="-4.820723">
        <ele>862.988</ele>
        <time>2021-07-22T06:14:11Z</time>
      </trkpt>
      <trkpt lat="42.334134" lon="-4.820291">
        <ele>862.424</ele>
        <time>2021-07-22T06:14:18Z</time>
      </trkpt>
      <trkpt lat="42.333686" lon="-4.819450">
        <ele>861.026</ele>
        <time>2021-07-22T06:14:32Z</time>
      </trkpt>
      <trkpt lat="42.333383" lon="-4.818912">
        <ele>860.508</ele>
        <time>2021-07-22T06:14:41Z</time>
      </trkpt>
      <trkpt lat="42.333066" lon="-4.818304">
        <ele>860.525</ele>
        <time>2021-07-22T06:14:51Z</time>
      </trkpt>
      <trkpt lat="42.332704" lon="-4.817666">
        <ele>860.597</ele>
        <time>2021-07-22T06:15:02Z</time>
      </trkpt>
      <trkpt lat="42.332370" lon="-4.817103">
        <ele>860.084</ele>
        <time>2021-07-22T06:15:12Z</time>
      </trkpt>
      <trkpt lat="42.332062" lon="-4.816570">
        <ele>860.514</ele>
        <time>2021-07-22T06:15:22Z</time>
      </trkpt>
      <trkpt lat="42.331823" lon="-4.816170">
        <ele>860.588</ele>
        <time>2021-07-22T06:15:30Z</time>
      </trkpt>
      <trkpt lat="42.331768" lon="-4.816076">
        <ele>860.576</ele>
        <time>2021-07-22T06:15:32Z</time>
      </trkpt>
      <trkpt lat="42.331738" lon="-4.816031">
        <ele>860.593</ele>
        <time>2021-07-22T06:15:33Z</time>
      </trkpt>
      <trkpt lat="42.331483" lon="-4.815598">
        <ele>861.051</ele>
        <time>2021-07-22T06:15:42Z</time>
      </trkpt>
      <trkpt lat="42.331192" lon="-4.815104">
        <ele>861.441</ele>
        <time>2021-07-22T06:15:52Z</time>
      </trkpt>
      <trkpt lat="42.331133" lon="-4.815004">
        <ele>861.481</ele>
        <time>2021-07-22T06:15:54Z</time>
      </trkpt>
      <trkpt lat="42.331106" lon="-4.814955">
        <ele>861.409</ele>
        <time>2021-07-22T06:15:55Z</time>
      </trkpt>
      <trkpt lat="42.330780" lon="-4.814403">
        <ele>861.408</ele>
        <time>2021-07-22T06:16:06Z</time>
      </trkpt>
      <trkpt lat="42.330442" lon="-4.813827">
        <ele>861.461</ele>
        <time>2021-07-22T06:16:17Z</time>
      </trkpt>
      <trkpt lat="42.330085" lon="-4.813208">
        <ele>861.923</ele>
        <time>2021-07-22T06:16:29Z</time>
      </trkpt>
      <trkpt lat="42.329741" lon="-4.812501">
        <ele>861.990</ele>
        <time>2021-07-22T06:16:42Z</time>
      </trkpt>
      <trkpt lat="42.329624" lon="-4.812000">
        <ele>861.020</ele>
        <time>2021-07-22T06:16:50Z</time>
      </trkpt>
      <trkpt lat="42.329554" lon="-4.811306">
        <ele>860.054</ele>
        <time>2021-07-22T06:17:00Z</time>
      </trkpt>
      <trkpt lat="42.329498" lon="-4.810648">
        <ele>859.562</ele>
        <time>2021-07-22T06:17:10Z</time>
      </trkpt>
      <trkpt lat="42.329441" lon="-4.809894">
        <ele>859.569</ele>
        <time>2021-07-22T06:17:22Z</time>
      </trkpt>
      <trkpt lat="42.329368" lon="-4.809288">
        <ele>858.597</ele>
        <time>2021-07-22T06:17:32Z</time>
      </trkpt>
      <trkpt lat="42.329320" lon="-4.809000">
        <ele>858.521</ele>
        <time>2021-07-22T06:17:37Z</time>
      </trkpt>
      <trkpt lat="42.329308" lon="-4.808632">
        <ele>859.041</ele>
        <time>2021-07-22T06:17:43Z</time>
      </trkpt>
      <trkpt lat="42.329314" lon="-4.808575">
        <ele>858.505</ele>
        <time>2021-07-22T06:17:44Z</time>
      </trkpt>
      <trkpt lat="42.329325" lon="-4.808521">
        <ele>858.508</ele>
        <time>2021-07-22T06:17:45Z</time>
      </trkpt>
      <trkpt lat="42.329337" lon="-4.808471">
        <ele>858.599</ele>
        <time>2021-07-22T06:17:46Z</time>
      </trkpt>
      <trkpt lat="42.329348" lon="-4.808415">
        <ele>858.541</ele>
        <time>2021-07-22T06:17:47Z</time>
      </trkpt>
      <trkpt lat="42.329389" lon="-4.807950">
        <ele>859.588</ele>
        <time>2021-07-22T06:17:56Z</time>
      </trkpt>
      <trkpt lat="42.329374" lon="-4.807351">
        <ele>859.018</ele>
        <time>2021-07-22T06:18:08Z</time>
      </trkpt>
      <trkpt lat="42.329350" lon="-4.806930">
        <ele>860.072</ele>
        <time>2021-07-22T06:18:17Z</time>
      </trkpt>
      <trkpt lat="42.329318" lon="-4.806431">
        <ele>859.560</ele>
        <time>2021-07-22T06:18:27Z</time>
      </trkpt>
      <trkpt lat="42.329296" lon="-4.806011">
        <ele>859.597</ele>
        <time>2021-07-22T06:18:36Z</time>
      </trkpt>
      <trkpt lat="42.329271" lon="-4.805572">
        <ele>859.595</ele>
        <time>2021-07-22T06:18:46Z</time>
      </trkpt>
      <trkpt lat="42.329265" lon="-4.805096">
        <ele>860.027</ele>
        <time>2021-07-22T06:18:56Z</time>
      </trkpt>
      <trkpt lat="42.329262" lon="-4.804671">
        <ele>860.068</ele>
        <time>2021-07-22T06:19:06Z</time>
      </trkpt>
      <trkpt lat="42.329241" lon="-4.804315">
        <ele>861.914</ele>
        <time>2021-07-22T06:19:15Z</time>
      </trkpt>
      <trkpt lat="42.329212" lon="-4.803915">
        <ele>863.808</ele>
        <time>2021-07-22T06:19:25Z</time>
      </trkpt>
      <trkpt lat="42.329183" lon="-4.803590">
        <ele>863.889</ele>
        <time>2021-07-22T06:19:33Z</time>
      </trkpt>
      <trkpt lat="42.329166" lon="-4.803215">
        <ele>865.871</ele>
        <time>2021-07-22T06:19:42Z</time>
      </trkpt>
      <trkpt lat="42.329144" lon="-4.802933">
        <ele>867.258</ele>
        <time>2021-07-22T06:19:51Z</time>
      </trkpt>
      <trkpt lat="42.329152" lon="-4.802675">
        <ele>869.148</ele>
        <time>2021-07-22T06:20:00Z</time>
      </trkpt>
      <trkpt lat="42.329141" lon="-4.802336">
        <ele>870.192</ele>
        <time>2021-07-22T06:20:10Z</time>
      </trkpt>
      <trkpt lat="42.329095" lon="-4.802091">
        <ele>870.150</ele>
        <time>2021-07-22T06:20:18Z</time>
      </trkpt>
      <trkpt lat="42.329083" lon="-4.801814">
        <ele>869.127</ele>
        <time>2021-07-22T06:20:26Z</time>
      </trkpt>
      <trkpt lat="42.329049" lon="-4.801459">
        <ele>868.685</ele>
        <time>2021-07-22T06:20:36Z</time>
      </trkpt>
      <trkpt lat="42.329021" lon="-4.801201">
        <ele>868.659</ele>
        <time>2021-07-22T06:20:43Z</time>
      </trkpt>
      <trkpt lat="42.328991" lon="-4.800922">
        <ele>869.103</ele>
        <time>2021-07-22T06:20:52Z</time>
      </trkpt>
      <trkpt lat="42.328971" lon="-4.800689">
        <ele>869.623</ele>
        <time>2021-07-22T06:21:01Z</time>
      </trkpt>
      <trkpt lat="42.328952" lon="-4.800491">
        <ele>870.108</ele>
        <time>2021-07-22T06:21:09Z</time>
      </trkpt>
      <trkpt lat="42.328928" lon="-4.800214">
        <ele>871.592</ele>
        <time>2021-07-22T06:21:20Z</time>
      </trkpt>
      <trkpt lat="42.328907" lon="-4.799970">
        <ele>873.014</ele>
        <time>2021-07-22T06:21:30Z</time>
      </trkpt>
      <trkpt lat="42.328886" lon="-4.799714">
        <ele>874.491</ele>
        <time>2021-07-22T06:21:40Z</time>
      </trkpt>
      <trkpt lat="42.328864" lon="-4.799382">
        <ele>874.981</ele>
        <time>2021-07-22T06:21:52Z</time>
      </trkpt>
      <trkpt lat="42.328861" lon="-4.799137">
        <ele>875.485</ele>
        <time>2021-07-22T06:22:01Z</time>
      </trkpt>
      <trkpt lat="42.328872" lon="-4.798811">
        <ele>875.433</ele>
        <time>2021-07-22T06:22:10Z</time>
      </trkpt>
      <trkpt lat="42.328878" lon="-4.798436">
        <ele>874.930</ele>
        <time>2021-07-22T06:22:19Z</time>
      </trkpt>
      <trkpt lat="42.328893" lon="-4.798040">
        <ele>874.918</ele>
        <time>2021-07-22T06:22:28Z</time>
      </trkpt>
      <trkpt lat="42.328915" lon="-4.797653">
        <ele>875.473</ele>
        <time>2021-07-22T06:22:37Z</time>
      </trkpt>
      <trkpt lat="42.328941" lon="-4.797225">
        <ele>875.485</ele>
        <time>2021-07-22T06:22:46Z</time>
      </trkpt>
      <trkpt lat="42.328958" lon="-4.796696">
        <ele>875.413</ele>
        <time>2021-07-22T06:22:57Z</time>
      </trkpt>
      <trkpt lat="42.328976" lon="-4.796154">
        <ele>874.908</ele>
        <time>2021-07-22T06:23:08Z</time>
      </trkpt>
      <trkpt lat="42.328993" lon="-4.795481">
        <ele>874.934</ele>
        <time>2021-07-22T06:23:22Z</time>
      </trkpt>
      <trkpt lat="42.329010" lon="-4.794951">
        <ele>874.936</ele>
        <time>2021-07-22T06:23:33Z</time>
      </trkpt>
      <trkpt lat="42.329015" lon="-4.794501">
        <ele>874.953</ele>
        <time>2021-07-22T06:23:43Z</time>
      </trkpt>
      <trkpt lat="42.329022" lon="-4.794053">
        <ele>874.993</ele>
        <time>2021-07-22T06:23:53Z</time>
      </trkpt>
      <trkpt lat="42.329038" lon="-4.793680">
        <ele>875.487</ele>
        <time>2021-07-22T06:24:01Z</time>
      </trkpt>
      <trkpt lat="42.329056" lon="-4.793154">
        <ele>875.485</ele>
        <time>2021-07-22T06:24:12Z</time>
      </trkpt>
      <trkpt lat="42.329074" lon="-4.792640">
        <ele>875.442</ele>
        <time>2021-07-22T06:24:23Z</time>
      </trkpt>
      <trkpt lat="42.329099" lon="-4.792080">
        <ele>875.990</ele>
        <time>2021-07-22T06:24:34Z</time>
      </trkpt>
      <trkpt lat="42.329086" lon="-4.791361">
        <ele>876.344</ele>
        <time>2021-07-22T06:24:47Z</time>
      </trkpt>
      <trkpt lat="42.329071" lon="-4.790754">
        <ele>876.305</ele>
        <time>2021-07-22T06:24:58Z</time>
      </trkpt>
      <trkpt lat="42.329056" lon="-4.790125">
        <ele>876.315</ele>
        <time>2021-07-22T06:25:10Z</time>
      </trkpt>
      <trkpt lat="42.329043" lon="-4.789597">
        <ele>875.908</ele>
        <time>2021-07-22T06:25:20Z</time>
      </trkpt>
      <trkpt lat="42.329045" lon="-4.789098">
        <ele>875.921</ele>
        <time>2021-07-22T06:25:29Z</time>
      </trkpt>
      <trkpt lat="42.329028" lon="-4.788491">
        <ele>875.973</ele>
        <time>2021-07-22T06:25:40Z</time>
      </trkpt>
      <trkpt lat="42.329023" lon="-4.787958">
        <ele>875.440</ele>
        <time>2021-07-22T06:25:49Z</time>
      </trkpt>
      <trkpt lat="42.329012" lon="-4.787515">
        <ele>875.410</ele>
        <time>2021-07-22T06:25:57Z</time>
      </trkpt>
      <trkpt lat="42.329010" lon="-4.787181">
        <ele>874.924</ele>
        <time>2021-07-22T06:26:03Z</time>
      </trkpt>
      <trkpt lat="42.329001" lon="-4.786552">
        <ele>874.962</ele>
        <time>2021-07-22T06:26:14Z</time>
      </trkpt>
      <trkpt lat="42.329018" lon="-4.785945">
        <ele>875.469</ele>
        <time>2021-07-22T06:26:25Z</time>
      </trkpt>
      <trkpt lat="42.329015" lon="-4.785452">
        <ele>875.467</ele>
        <time>2021-07-22T06:26:34Z</time>
      </trkpt>
      <trkpt lat="42.329015" lon="-4.785012">
        <ele>874.995</ele>
        <time>2021-07-22T06:26:42Z</time>
      </trkpt>
      <trkpt lat="42.329022" lon="-4.784526">
        <ele>874.449</ele>
        <time>2021-07-22T06:26:51Z</time>
      </trkpt>
      <trkpt lat="42.329026" lon="-4.783982">
        <ele>874.923</ele>
        <time>2021-07-22T06:27:01Z</time>
      </trkpt>
      <trkpt lat="42.329030" lon="-4.783477">
        <ele>874.408</ele>
        <time>2021-07-22T06:27:10Z</time>
      </trkpt>
      <trkpt lat="42.329033" lon="-4.782945">
        <ele>874.466</ele>
        <time>2021-07-22T06:27:19Z</time>
      </trkpt>
      <trkpt lat="42.329043" lon="-4.782365">
        <ele>874.498</ele>
        <time>2021-07-22T06:27:29Z</time>
      </trkpt>
      <trkpt lat="42.329046" lon="-4.781695">
        <ele>874.975</ele>
        <time>2021-07-22T06:27:41Z</time>
      </trkpt>
      <trkpt lat="42.329052" lon="-4.781133">
        <ele>875.475</ele>
        <time>2021-07-22T06:27:51Z</time>
      </trkpt>
      <trkpt lat="42.329061" lon="-4.780561">
        <ele>875.489</ele>
        <time>2021-07-22T06:28:01Z</time>
      </trkpt>
      <trkpt lat="42.329076" lon="-4.779977">
        <ele>875.967</ele>
        <time>2021-07-22T06:28:12Z</time>
      </trkpt>
      <trkpt lat="42.329088" lon="-4.779335">
        <ele>875.944</ele>
        <time>2021-07-22T06:28:24Z</time>
      </trkpt>
      <trkpt lat="42.329086" lon="-4.778754">
        <ele>875.912</ele>
        <time>2021-07-22T06:28:35Z</time>
      </trkpt>
      <trkpt lat="42.329100" lon="-4.778109">
        <ele>875.442</ele>
        <time>2021-07-22T06:28:47Z</time>
      </trkpt>
      <trkpt lat="42.329114" lon="-4.777651">
        <ele>874.922</ele>
        <time>2021-07-22T06:28:56Z</time>
      </trkpt>
      <trkpt lat="42.329138" lon="-4.777388">
        <ele>874.914</ele>
        <time>2021-07-22T06:29:01Z</time>
      </trkpt>
      <trkpt lat="42.329146" lon="-4.777335">
        <ele>874.908</ele>
        <time>2021-07-22T06:29:02Z</time>
      </trkpt>
      <trkpt lat="42.329199" lon="-4.776688">
        <ele>874.931</ele>
        <time>2021-07-22T06:29:13Z</time>
      </trkpt>
      <trkpt lat="42.329234" lon="-4.776156">
        <ele>874.933</ele>
        <time>2021-07-22T06:29:23Z</time>
      </trkpt>
      <trkpt lat="42.329276" lon="-4.775653">
        <ele>874.920</ele>
        <time>2021-07-22T06:29:32Z</time>
      </trkpt>
      <trkpt lat="42.329281" lon="-4.775507">
        <ele>874.950</ele>
        <time>2021-07-22T06:29:37Z</time>
      </trkpt>
      <trkpt lat="42.329282" lon="-4.775514">
        <ele>875.434</ele>
        <time>2021-07-22T06:29:45Z</time>
      </trkpt>
      <trkpt lat="42.329290" lon="-4.775518">
        <ele>875.992</ele>
        <time>2021-07-22T06:29:58Z</time>
      </trkpt>
      <trkpt lat="42.329299" lon="-4.775489">
        <ele>875.919</ele>
        <time>2021-07-22T06:30:10Z</time>
      </trkpt>
      <trkpt lat="42.329316" lon="-4.775259">
        <ele>875.487</ele>
        <time>2021-07-22T06:30:17Z</time>
      </trkpt>
      <trkpt lat="42.329350" lon="-4.774797">
        <ele>874.974</ele>
        <time>2021-07-22T06:30:27Z</time>
      </trkpt>
      <trkpt lat="42.329367" lon="-4.774406">
        <ele>874.456</ele>
        <time>2021-07-22T06:30:35Z</time>
      </trkpt>
      <trkpt lat="42.329418" lon="-4.773778">
        <ele>874.421</ele>
        <time>2021-07-22T06:30:47Z</time>
      </trkpt>
      <trkpt lat="42.329475" lon="-4.773202">
        <ele>873.908</ele>
        <time>2021-07-22T06:30:57Z</time>
      </trkpt>
      <trkpt lat="42.329525" lon="-4.772613">
        <ele>873.594</ele>
        <time>2021-07-22T06:31:08Z</time>
      </trkpt>
      <trkpt lat="42.329572" lon="-4.772047">
        <ele>873.936</ele>
        <time>2021-07-22T06:31:18Z</time>
      </trkpt>
      <trkpt lat="42.329625" lon="-4.771476">
        <ele>873.583</ele>
        <time>2021-07-22T06:31:28Z</time>
      </trkpt>
      <trkpt lat="42.329685" lon="-4.770937">
        <ele>873.553</ele>
        <time>2021-07-22T06:31:38Z</time>
      </trkpt>
      <trkpt lat="42.329754" lon="-4.770490">
        <ele>873.047</ele>
        <time>2021-07-22T06:31:47Z</time>
      </trkpt>
      <trkpt lat="42.329778" lon="-4.770382">
        <ele>872.595</ele>
        <time>2021-07-22T06:31:49Z</time>
      </trkpt>
      <trkpt lat="42.329884" lon="-4.769866">
        <ele>870.612</ele>
        <time>2021-07-22T06:31:57Z</time>
      </trkpt>
      <trkpt lat="42.330051" lon="-4.769058">
        <ele>869.630</ele>
        <time>2021-07-22T06:32:09Z</time>
      </trkpt>
      <trkpt lat="42.330194" lon="-4.768341">
        <ele>869.625</ele>
        <time>2021-07-22T06:32:21Z</time>
      </trkpt>
      <trkpt lat="42.330315" lon="-4.767713">
        <ele>869.626</ele>
        <time>2021-07-22T06:32:32Z</time>
      </trkpt>
      <trkpt lat="42.330473" lon="-4.766921">
        <ele>869.108</ele>
        <time>2021-07-22T06:32:45Z</time>
      </trkpt>
      <trkpt lat="42.330532" lon="-4.766606">
        <ele>869.108</ele>
        <time>2021-07-22T06:32:51Z</time>
      </trkpt>
      <trkpt lat="42.330654" lon="-4.765963">
        <ele>868.699</ele>
        <time>2021-07-22T06:33:02Z</time>
      </trkpt>
      <trkpt lat="42.330807" lon="-4.765182">
        <ele>868.261</ele>
        <time>2021-07-22T06:33:16Z</time>
      </trkpt>
      <trkpt lat="42.330908" lon="-4.764654">
        <ele>868.638</ele>
        <time>2021-07-22T06:33:26Z</time>
      </trkpt>
      <trkpt lat="42.330997" lon="-4.764281">
        <ele>868.248</ele>
        <time>2021-07-22T06:33:34Z</time>
      </trkpt>
      <trkpt lat="42.331061" lon="-4.763872">
        <ele>868.292</ele>
        <time>2021-07-22T06:33:42Z</time>
      </trkpt>
      <trkpt lat="42.331214" lon="-4.763115">
        <ele>867.760</ele>
        <time>2021-07-22T06:33:55Z</time>
      </trkpt>
      <trkpt lat="42.331332" lon="-4.762493">
        <ele>865.867</ele>
        <time>2021-07-22T06:34:05Z</time>
      </trkpt>
      <trkpt lat="42.331482" lon="-4.761721">
        <ele>864.385</ele>
        <time>2021-07-22T06:34:18Z</time>
      </trkpt>
      <trkpt lat="42.331577" lon="-4.761211">
        <ele>865.338</ele>
        <time>2021-07-22T06:34:27Z</time>
      </trkpt>
      <trkpt lat="42.331683" lon="-4.760692">
        <ele>866.770</ele>
        <time>2021-07-22T06:34:37Z</time>
      </trkpt>
      <trkpt lat="42.331806" lon="-4.760108">
        <ele>867.217</ele>
        <time>2021-07-22T06:34:48Z</time>
      </trkpt>
      <trkpt lat="42.331910" lon="-4.759590">
        <ele>867.708</ele>
        <time>2021-07-22T06:34:58Z</time>
      </trkpt>
      <trkpt lat="42.332004" lon="-4.759165">
        <ele>867.270</ele>
        <time>2021-07-22T06:35:06Z</time>
      </trkpt>
      <trkpt lat="42.332087" lon="-4.758721">
        <ele>866.212</ele>
        <time>2021-07-22T06:35:15Z</time>
      </trkpt>
      <trkpt lat="42.332171" lon="-4.758180">
        <ele>862.489</ele>
        <time>2021-07-22T06:35:26Z</time>
      </trkpt>
      <trkpt lat="42.332202" lon="-4.757944">
        <ele>861.419</ele>
        <time>2021-07-22T06:35:30Z</time>
      </trkpt>
      <trkpt lat="42.332282" lon="-4.757297">
        <ele>860.043</ele>
        <time>2021-07-22T06:35:40Z</time>
      </trkpt>
      <trkpt lat="42.332368" lon="-4.756712">
        <ele>860.091</ele>
        <time>2021-07-22T06:35:50Z</time>
      </trkpt>
      <trkpt lat="42.332457" lon="-4.756058">
        <ele>859.558</ele>
        <time>2021-07-22T06:36:01Z</time>
      </trkpt>
      <trkpt lat="42.332551" lon="-4.755399">
        <ele>858.526</ele>
        <time>2021-07-22T06:36:12Z</time>
      </trkpt>
      <trkpt lat="42.332642" lon="-4.754766">
        <ele>858.546</ele>
        <time>2021-07-22T06:36:23Z</time>
      </trkpt>
      <trkpt lat="42.332699" lon="-4.754339">
        <ele>858.188</ele>
        <time>2021-07-22T06:36:31Z</time>
      </trkpt>
      <trkpt lat="42.332768" lon="-4.753758">
        <ele>858.516</ele>
        <time>2021-07-22T06:36:41Z</time>
      </trkpt>
      <trkpt lat="42.332814" lon="-4.753455">
        <ele>858.108</ele>
        <time>2021-07-22T06:36:46Z</time>
      </trkpt>
      <trkpt lat="42.332824" lon="-4.753396">
        <ele>858.171</ele>
        <time>2021-07-22T06:36:47Z</time>
      </trkpt>
      <trkpt lat="42.332913" lon="-4.752741">
        <ele>857.633</ele>
        <time>2021-07-22T06:36:58Z</time>
      </trkpt>
      <trkpt lat="42.332971" lon="-4.752331">
        <ele>857.670</ele>
        <time>2021-07-22T06:37:05Z</time>
      </trkpt>
      <trkpt lat="42.333019" lon="-4.752062">
        <ele>857.660</ele>
        <time>2021-07-22T06:37:10Z</time>
      </trkpt>
      <trkpt lat="42.333032" lon="-4.752005">
        <ele>857.684</ele>
        <time>2021-07-22T06:37:11Z</time>
      </trkpt>
      <trkpt lat="42.333040" lon="-4.751951">
        <ele>857.622</ele>
        <time>2021-07-22T06:37:12Z</time>
      </trkpt>
      <trkpt lat="42.333043" lon="-4.751892">
        <ele>857.639</ele>
        <time>2021-07-22T06:37:13Z</time>
      </trkpt>
      <trkpt lat="42.333047" lon="-4.751839">
        <ele>857.647</ele>
        <time>2021-07-22T06:37:14Z</time>
      </trkpt>
      <trkpt lat="42.333053" lon="-4.751781">
        <ele>857.678</ele>
        <time>2021-07-22T06:37:15Z</time>
      </trkpt>
      <trkpt lat="42.333147" lon="-4.751007">
        <ele>857.633</ele>
        <time>2021-07-22T06:37:28Z</time>
      </trkpt>
      <trkpt lat="42.333222" lon="-4.750481">
        <ele>857.626</ele>
        <time>2021-07-22T06:37:37Z</time>
      </trkpt>
      <trkpt lat="42.333238" lon="-4.750423">
        <ele>857.608</ele>
        <time>2021-07-22T06:37:38Z</time>
      </trkpt>
      <trkpt lat="42.333249" lon="-4.750371">
        <ele>857.664</ele>
        <time>2021-07-22T06:37:39Z</time>
      </trkpt>
      <trkpt lat="42.333253" lon="-4.750307">
        <ele>857.616</ele>
        <time>2021-07-22T06:37:40Z</time>
      </trkpt>
      <trkpt lat="42.333255" lon="-4.750251">
        <ele>857.683</ele>
        <time>2021-07-22T06:37:41Z</time>
      </trkpt>
      <trkpt lat="42.333311" lon="-4.749812">
        <ele>857.683</ele>
        <time>2021-07-22T06:37:49Z</time>
      </trkpt>
      <trkpt lat="42.333325" lon="-4.749704">
        <ele>857.677</ele>
        <time>2021-07-22T06:37:51Z</time>
      </trkpt>
      <trkpt lat="42.333402" lon="-4.749146">
        <ele>857.665</ele>
        <time>2021-07-22T06:38:01Z</time>
      </trkpt>
      <trkpt lat="42.333462" lon="-4.748716">
        <ele>858.112</ele>
        <time>2021-07-22T06:38:09Z</time>
      </trkpt>
      <trkpt lat="42.333534" lon="-4.748232">
        <ele>857.680</ele>
        <time>2021-07-22T06:38:19Z</time>
      </trkpt>
      <trkpt lat="42.333606" lon="-4.747813">
        <ele>857.639</ele>
        <time>2021-07-22T06:38:27Z</time>
      </trkpt>
      <trkpt lat="42.333633" lon="-4.747644">
        <ele>857.101</ele>
        <time>2021-07-22T06:38:30Z</time>
      </trkpt>
      <trkpt lat="42.333668" lon="-4.747417">
        <ele>857.121</ele>
        <time>2021-07-22T06:38:34Z</time>
      </trkpt>
      <trkpt lat="42.333758" lon="-4.746947">
        <ele>857.608</ele>
        <time>2021-07-22T06:38:42Z</time>
      </trkpt>
      <trkpt lat="42.333835" lon="-4.746462">
        <ele>857.190</ele>
        <time>2021-07-22T06:38:50Z</time>
      </trkpt>
      <trkpt lat="42.333956" lon="-4.745684">
        <ele>856.692</ele>
        <time>2021-07-22T06:39:02Z</time>
      </trkpt>
      <trkpt lat="42.334053" lon="-4.745070">
        <ele>856.679</ele>
        <time>2021-07-22T06:39:12Z</time>
      </trkpt>
      <trkpt lat="42.334150" lon="-4.744459">
        <ele>856.179</ele>
        <time>2021-07-22T06:39:22Z</time>
      </trkpt>
      <trkpt lat="42.334221" lon="-4.743948">
        <ele>856.653</ele>
        <time>2021-07-22T06:39:31Z</time>
      </trkpt>
      <trkpt lat="42.334320" lon="-4.743360">
        <ele>856.111</ele>
        <time>2021-07-22T06:39:41Z</time>
      </trkpt>
      <trkpt lat="42.334364" lon="-4.743090">
        <ele>856.188</ele>
        <time>2021-07-22T06:39:46Z</time>
      </trkpt>
      <trkpt lat="42.334441" lon="-4.742729">
        <ele>855.726</ele>
        <time>2021-07-22T06:39:52Z</time>
      </trkpt>
      <trkpt lat="42.334504" lon="-4.742309">
        <ele>856.625</ele>
        <time>2021-07-22T06:39:59Z</time>
      </trkpt>
      <trkpt lat="42.334512" lon="-4.742253">
        <ele>856.626</ele>
        <time>2021-07-22T06:40:00Z</time>
      </trkpt>
      <trkpt lat="42.334524" lon="-4.742196">
        <ele>856.608</ele>
        <time>2021-07-22T06:40:01Z</time>
      </trkpt>
      <trkpt lat="42.334609" lon="-4.741673">
        <ele>856.108</ele>
        <time>2021-07-22T06:40:10Z</time>
      </trkpt>
      <trkpt lat="42.334695" lon="-4.741130">
        <ele>856.139</ele>
        <time>2021-07-22T06:40:19Z</time>
      </trkpt>
      <trkpt lat="42.334751" lon="-4.740792">
        <ele>856.141</ele>
        <time>2021-07-22T06:40:25Z</time>
      </trkpt>
      <trkpt lat="42.334758" lon="-4.740734">
        <ele>856.128</ele>
        <time>2021-07-22T06:40:26Z</time>
      </trkpt>
      <trkpt lat="42.334859" lon="-4.740094">
        <ele>855.768</ele>
        <time>2021-07-22T06:40:37Z</time>
      </trkpt>
      <trkpt lat="42.334966" lon="-4.739463">
        <ele>856.192</ele>
        <time>2021-07-22T06:40:48Z</time>
      </trkpt>
      <trkpt lat="42.335060" lon="-4.738887">
        <ele>855.710</ele>
        <time>2021-07-22T06:40:58Z</time>
      </trkpt>
      <trkpt lat="42.335120" lon="-4.738511">
        <ele>855.767</ele>
        <time>2021-07-22T06:41:05Z</time>
      </trkpt>
      <trkpt lat="42.335133" lon="-4.738452">
        <ele>855.735</ele>
        <time>2021-07-22T06:41:06Z</time>
      </trkpt>
      <trkpt lat="42.335159" lon="-4.738286">
        <ele>855.777</ele>
        <time>2021-07-22T06:41:09Z</time>
      </trkpt>
      <trkpt lat="42.335255" lon="-4.737597">
        <ele>855.261</ele>
        <time>2021-07-22T06:41:21Z</time>
      </trkpt>
      <trkpt lat="42.335348" lon="-4.737017">
        <ele>855.227</ele>
        <time>2021-07-22T06:41:31Z</time>
      </trkpt>
      <trkpt lat="42.335439" lon="-4.736486">
        <ele>855.208</ele>
        <time>2021-07-22T06:41:40Z</time>
      </trkpt>
      <trkpt lat="42.335541" lon="-4.735898">
        <ele>855.274</ele>
        <time>2021-07-22T06:41:50Z</time>
      </trkpt>
      <trkpt lat="42.335655" lon="-4.735174">
        <ele>854.796</ele>
        <time>2021-07-22T06:42:02Z</time>
      </trkpt>
      <trkpt lat="42.335736" lon="-4.734542">
        <ele>853.713</ele>
        <time>2021-07-22T06:42:12Z</time>
      </trkpt>
      <trkpt lat="42.335820" lon="-4.734020">
        <ele>853.373</ele>
        <time>2021-07-22T06:42:21Z</time>
      </trkpt>
      <trkpt lat="42.335852" lon="-4.733839">
        <ele>853.357</ele>
        <time>2021-07-22T06:42:24Z</time>
      </trkpt>
      <trkpt lat="42.335935" lon="-4.733286">
        <ele>852.815</ele>
        <time>2021-07-22T06:42:33Z</time>
      </trkpt>
      <trkpt lat="42.336027" lon="-4.732677">
        <ele>852.822</ele>
        <time>2021-07-22T06:42:43Z</time>
      </trkpt>
      <trkpt lat="42.336035" lon="-4.732615">
        <ele>852.830</ele>
        <time>2021-07-22T06:42:44Z</time>
      </trkpt>
      <trkpt lat="42.336135" lon="-4.731972">
        <ele>852.394</ele>
        <time>2021-07-22T06:42:55Z</time>
      </trkpt>
      <trkpt lat="42.336207" lon="-4.731484">
        <ele>852.357</ele>
        <time>2021-07-22T06:43:04Z</time>
      </trkpt>
      <trkpt lat="42.336254" lon="-4.731153">
        <ele>851.822</ele>
        <time>2021-07-22T06:43:11Z</time>
      </trkpt>
      <trkpt lat="42.336305" lon="-4.730807">
        <ele>851.308</ele>
        <time>2021-07-22T06:43:17Z</time>
      </trkpt>
      <trkpt lat="42.336394" lon="-4.730208">
        <ele>850.986</ele>
        <time>2021-07-22T06:43:27Z</time>
      </trkpt>
      <trkpt lat="42.336476" lon="-4.729659">
        <ele>850.968</ele>
        <time>2021-07-22T06:43:36Z</time>
      </trkpt>
      <trkpt lat="42.336553" lon="-4.729193">
        <ele>850.945</ele>
        <time>2021-07-22T06:43:44Z</time>
      </trkpt>
      <trkpt lat="42.336604" lon="-4.728833">
        <ele>850.935</ele>
        <time>2021-07-22T06:43:50Z</time>
      </trkpt>
      <trkpt lat="42.336684" lon="-4.728293">
        <ele>850.939</ele>
        <time>2021-07-22T06:43:59Z</time>
      </trkpt>
      <trkpt lat="42.336765" lon="-4.727792">
        <ele>850.977</ele>
        <time>2021-07-22T06:44:08Z</time>
      </trkpt>
      <trkpt lat="42.336785" lon="-4.727624">
        <ele>850.914</ele>
        <time>2021-07-22T06:44:11Z</time>
      </trkpt>
      <trkpt lat="42.336846" lon="-4.727105">
        <ele>849.912</ele>
        <time>2021-07-22T06:44:20Z</time>
      </trkpt>
      <trkpt lat="42.336930" lon="-4.726519">
        <ele>849.473</ele>
        <time>2021-07-22T06:44:30Z</time>
      </trkpt>
      <trkpt lat="42.337017" lon="-4.725948">
        <ele>849.485</ele>
        <time>2021-07-22T06:44:40Z</time>
      </trkpt>
      <trkpt lat="42.337115" lon="-4.725270">
        <ele>848.913</ele>
        <time>2021-07-22T06:44:51Z</time>
      </trkpt>
      <trkpt lat="42.337203" lon="-4.724737">
        <ele>849.908</ele>
        <time>2021-07-22T06:45:00Z</time>
      </trkpt>
      <trkpt lat="42.337297" lon="-4.724105">
        <ele>850.494</ele>
        <time>2021-07-22T06:45:11Z</time>
      </trkpt>
      <trkpt lat="42.337384" lon="-4.723494">
        <ele>849.926</ele>
        <time>2021-07-22T06:45:21Z</time>
      </trkpt>
      <trkpt lat="42.337481" lon="-4.722851">
        <ele>848.953</ele>
        <time>2021-07-22T06:45:31Z</time>
      </trkpt>
      <trkpt lat="42.337553" lon="-4.722330">
        <ele>848.973</ele>
        <time>2021-07-22T06:45:40Z</time>
      </trkpt>
      <trkpt lat="42.337626" lon="-4.721804">
        <ele>849.427</ele>
        <time>2021-07-22T06:45:49Z</time>
      </trkpt>
      <trkpt lat="42.337708" lon="-4.721229">
        <ele>849.495</ele>
        <time>2021-07-22T06:45:59Z</time>
      </trkpt>
      <trkpt lat="42.337805" lon="-4.720526">
        <ele>849.462</ele>
        <time>2021-07-22T06:46:11Z</time>
      </trkpt>
      <trkpt lat="42.337884" lon="-4.719919">
        <ele>848.590</ele>
        <time>2021-07-22T06:46:21Z</time>
      </trkpt>
      <trkpt lat="42.337924" lon="-4.719639">
        <ele>848.996</ele>
        <time>2021-07-22T06:46:27Z</time>
      </trkpt>
      <trkpt lat="42.337943" lon="-4.719485">
        <ele>848.531</ele>
        <time>2021-07-22T06:46:33Z</time>
      </trkpt>
      <trkpt lat="42.337986" lon="-4.719219">
        <ele>848.524</ele>
        <time>2021-07-22T06:46:40Z</time>
      </trkpt>
      <trkpt lat="42.338045" lon="-4.718716">
        <ele>848.508</ele>
        <time>2021-07-22T06:46:50Z</time>
      </trkpt>
      <trkpt lat="42.338141" lon="-4.718071">
        <ele>848.946</ele>
        <time>2021-07-22T06:47:02Z</time>
      </trkpt>
      <trkpt lat="42.338169" lon="-4.717852">
        <ele>848.518</ele>
        <time>2021-07-22T06:47:06Z</time>
      </trkpt>
      <trkpt lat="42.338214" lon="-4.717626">
        <ele>848.525</ele>
        <time>2021-07-22T06:47:10Z</time>
      </trkpt>
      <trkpt lat="42.338220" lon="-4.717569">
        <ele>848.585</ele>
        <time>2021-07-22T06:47:11Z</time>
      </trkpt>
      <trkpt lat="42.338277" lon="-4.717086">
        <ele>848.069</ele>
        <time>2021-07-22T06:47:19Z</time>
      </trkpt>
      <trkpt lat="42.338314" lon="-4.716849">
        <ele>848.027</ele>
        <time>2021-07-22T06:47:23Z</time>
      </trkpt>
      <trkpt lat="42.338320" lon="-4.716793">
        <ele>848.044</ele>
        <time>2021-07-22T06:47:24Z</time>
      </trkpt>
      <trkpt lat="42.338389" lon="-4.716324">
        <ele>847.512</ele>
        <time>2021-07-22T06:47:32Z</time>
      </trkpt>
      <trkpt lat="42.338464" lon="-4.715782">
        <ele>847.517</ele>
        <time>2021-07-22T06:47:41Z</time>
      </trkpt>
      <trkpt lat="42.338553" lon="-4.715185">
        <ele>847.087</ele>
        <time>2021-07-22T06:47:51Z</time>
      </trkpt>
      <trkpt lat="42.338586" lon="-4.714894">
        <ele>847.015</ele>
        <time>2021-07-22T06:47:56Z</time>
      </trkpt>
      <trkpt lat="42.338671" lon="-4.714321">
        <ele>847.008</ele>
        <time>2021-07-22T06:48:06Z</time>
      </trkpt>
      <trkpt lat="42.338706" lon="-4.714074">
        <ele>846.548</ele>
        <time>2021-07-22T06:48:10Z</time>
      </trkpt>
      <trkpt lat="42.338725" lon="-4.713959">
        <ele>846.530</ele>
        <time>2021-07-22T06:48:12Z</time>
      </trkpt>
      <trkpt lat="42.338811" lon="-4.713360">
        <ele>846.587</ele>
        <time>2021-07-22T06:48:23Z</time>
      </trkpt>
      <trkpt lat="42.338860" lon="-4.712986">
        <ele>846.147</ele>
        <time>2021-07-22T06:48:30Z</time>
      </trkpt>
      <trkpt lat="42.338866" lon="-4.712930">
        <ele>846.181</ele>
        <time>2021-07-22T06:48:31Z</time>
      </trkpt>
      <trkpt lat="42.338962" lon="-4.712296">
        <ele>846.149</ele>
        <time>2021-07-22T06:48:42Z</time>
      </trkpt>
      <trkpt lat="42.339046" lon="-4.711834">
        <ele>846.186</ele>
        <time>2021-07-22T06:48:50Z</time>
      </trkpt>
      <trkpt lat="42.339132" lon="-4.711328">
        <ele>846.144</ele>
        <time>2021-07-22T06:48:59Z</time>
      </trkpt>
      <trkpt lat="42.339156" lon="-4.711098">
        <ele>846.132</ele>
        <time>2021-07-22T06:49:03Z</time>
      </trkpt>
      <trkpt lat="42.339168" lon="-4.711042">
        <ele>846.192</ele>
        <time>2021-07-22T06:49:04Z</time>
      </trkpt>
      <trkpt lat="42.339181" lon="-4.710984">
        <ele>846.111</ele>
        <time>2021-07-22T06:49:05Z</time>
      </trkpt>
      <trkpt lat="42.339267" lon="-4.710352">
        <ele>845.608</ele>
        <time>2021-07-22T06:49:15Z</time>
      </trkpt>
      <trkpt lat="42.339275" lon="-4.710286">
        <ele>845.650</ele>
        <time>2021-07-22T06:49:16Z</time>
      </trkpt>
      <trkpt lat="42.339287" lon="-4.710219">
        <ele>845.612</ele>
        <time>2021-07-22T06:49:17Z</time>
      </trkpt>
      <trkpt lat="42.339344" lon="-4.709819">
        <ele>845.679</ele>
        <time>2021-07-22T06:49:23Z</time>
      </trkpt>
      <trkpt lat="42.339357" lon="-4.709690">
        <ele>845.179</ele>
        <time>2021-07-22T06:49:25Z</time>
      </trkpt>
      <trkpt lat="42.339367" lon="-4.709629">
        <ele>845.133</ele>
        <time>2021-07-22T06:49:26Z</time>
      </trkpt>
      <trkpt lat="42.339443" lon="-4.709076">
        <ele>845.131</ele>
        <time>2021-07-22T06:49:35Z</time>
      </trkpt>
      <trkpt lat="42.339452" lon="-4.709012">
        <ele>845.138</ele>
        <time>2021-07-22T06:49:36Z</time>
      </trkpt>
      <trkpt lat="42.339463" lon="-4.708953">
        <ele>845.146</ele>
        <time>2021-07-22T06:49:37Z</time>
      </trkpt>
      <trkpt lat="42.339475" lon="-4.708894">
        <ele>845.188</ele>
        <time>2021-07-22T06:49:38Z</time>
      </trkpt>
      <trkpt lat="42.339506" lon="-4.708656">
        <ele>845.124</ele>
        <time>2021-07-22T06:49:42Z</time>
      </trkpt>
      <trkpt lat="42.339574" lon="-4.708207">
        <ele>845.626</ele>
        <time>2021-07-22T06:49:51Z</time>
      </trkpt>
      <trkpt lat="42.339640" lon="-4.707722">
        <ele>845.608</ele>
        <time>2021-07-22T06:50:02Z</time>
      </trkpt>
      <trkpt lat="42.339716" lon="-4.707176">
        <ele>845.155</ele>
        <time>2021-07-22T06:50:12Z</time>
      </trkpt>
      <trkpt lat="42.339795" lon="-4.706589">
        <ele>845.127</ele>
        <time>2021-07-22T06:50:22Z</time>
      </trkpt>
      <trkpt lat="42.339802" lon="-4.706532">
        <ele>845.194</ele>
        <time>2021-07-22T06:50:23Z</time>
      </trkpt>
      <trkpt lat="42.339887" lon="-4.705962">
        <ele>845.134</ele>
        <time>2021-07-22T06:50:33Z</time>
      </trkpt>
      <trkpt lat="42.339977" lon="-4.705275">
        <ele>844.668</ele>
        <time>2021-07-22T06:50:45Z</time>
      </trkpt>
      <trkpt lat="42.340045" lon="-4.704735">
        <ele>844.666</ele>
        <time>2021-07-22T06:50:54Z</time>
      </trkpt>
      <trkpt lat="42.340118" lon="-4.704223">
        <ele>844.133</ele>
        <time>2021-07-22T06:51:03Z</time>
      </trkpt>
      <trkpt lat="42.340206" lon="-4.703578">
        <ele>844.161</ele>
        <time>2021-07-22T06:51:14Z</time>
      </trkpt>
      <trkpt lat="42.340274" lon="-4.703032">
        <ele>844.199</ele>
        <time>2021-07-22T06:51:23Z</time>
      </trkpt>
      <trkpt lat="42.340355" lon="-4.702420">
        <ele>843.207</ele>
        <time>2021-07-22T06:51:33Z</time>
      </trkpt>
      <trkpt lat="42.340425" lon="-4.701819">
        <ele>843.227</ele>
        <time>2021-07-22T06:51:43Z</time>
      </trkpt>
      <trkpt lat="42.340510" lon="-4.701197">
        <ele>843.208</ele>
        <time>2021-07-22T06:51:53Z</time>
      </trkpt>
      <trkpt lat="42.340557" lon="-4.700799">
        <ele>843.286</ele>
        <time>2021-07-22T06:52:00Z</time>
      </trkpt>
      <trkpt lat="42.340629" lon="-4.700257">
        <ele>842.778</ele>
        <time>2021-07-22T06:52:09Z</time>
      </trkpt>
      <trkpt lat="42.340690" lon="-4.699767">
        <ele>842.785</ele>
        <time>2021-07-22T06:52:17Z</time>
      </trkpt>
      <trkpt lat="42.340763" lon="-4.699165">
        <ele>842.725</ele>
        <time>2021-07-22T06:52:27Z</time>
      </trkpt>
      <trkpt lat="42.340812" lon="-4.698675">
        <ele>842.229</ele>
        <time>2021-07-22T06:52:35Z</time>
      </trkpt>
      <trkpt lat="42.340897" lon="-4.698083">
        <ele>841.767</ele>
        <time>2021-07-22T06:52:45Z</time>
      </trkpt>
      <trkpt lat="42.341005" lon="-4.697420">
        <ele>841.734</ele>
        <time>2021-07-22T06:52:56Z</time>
      </trkpt>
      <trkpt lat="42.341020" lon="-4.697294">
        <ele>841.792</ele>
        <time>2021-07-22T06:52:58Z</time>
      </trkpt>
      <trkpt lat="42.341028" lon="-4.697234">
        <ele>841.773</ele>
        <time>2021-07-22T06:52:59Z</time>
      </trkpt>
      <trkpt lat="42.341097" lon="-4.696679">
        <ele>841.285</ele>
        <time>2021-07-22T06:53:08Z</time>
      </trkpt>
      <trkpt lat="42.341193" lon="-4.695936">
        <ele>841.213</ele>
        <time>2021-07-22T06:53:20Z</time>
      </trkpt>
      <trkpt lat="42.341245" lon="-4.695367">
        <ele>840.808</ele>
        <time>2021-07-22T06:53:30Z</time>
      </trkpt>
      <trkpt lat="42.341288" lon="-4.694944">
        <ele>840.864</ele>
        <time>2021-07-22T06:53:37Z</time>
      </trkpt>
      <trkpt lat="42.341308" lon="-4.694769">
        <ele>841.266</ele>
        <time>2021-07-22T06:53:40Z</time>
      </trkpt>
      <trkpt lat="42.341407" lon="-4.694178">
        <ele>841.243</ele>
        <time>2021-07-22T06:53:50Z</time>
      </trkpt>
      <trkpt lat="42.341463" lon="-4.693718">
        <ele>840.343</ele>
        <time>2021-07-22T06:53:58Z</time>
      </trkpt>
      <trkpt lat="42.341506" lon="-4.693223">
        <ele>840.317</ele>
        <time>2021-07-22T06:54:07Z</time>
      </trkpt>
      <trkpt lat="42.341527" lon="-4.693009">
        <ele>840.335</ele>
        <time>2021-07-22T06:54:11Z</time>
      </trkpt>
      <trkpt lat="42.341568" lon="-4.692623">
        <ele>840.812</ele>
        <time>2021-07-22T06:54:19Z</time>
      </trkpt>
      <trkpt lat="42.341613" lon="-4.692333">
        <ele>841.240</ele>
        <time>2021-07-22T06:54:26Z</time>
      </trkpt>
      <trkpt lat="42.341653" lon="-4.691997">
        <ele>841.289</ele>
        <time>2021-07-22T06:54:32Z</time>
      </trkpt>
      <trkpt lat="42.341735" lon="-4.691375">
        <ele>840.806</ele>
        <time>2021-07-22T06:54:43Z</time>
      </trkpt>
      <trkpt lat="42.341789" lon="-4.690911">
        <ele>840.826</ele>
        <time>2021-07-22T06:54:51Z</time>
      </trkpt>
      <trkpt lat="42.341842" lon="-4.690398">
        <ele>841.208</ele>
        <time>2021-07-22T06:55:00Z</time>
      </trkpt>
      <trkpt lat="42.341884" lon="-4.690055">
        <ele>841.795</ele>
        <time>2021-07-22T06:55:06Z</time>
      </trkpt>
      <trkpt lat="42.341903" lon="-4.689937">
        <ele>841.757</ele>
        <time>2021-07-22T06:55:08Z</time>
      </trkpt>
      <trkpt lat="42.341964" lon="-4.689319">
        <ele>842.254</ele>
        <time>2021-07-22T06:55:18Z</time>
      </trkpt>
      <trkpt lat="42.341989" lon="-4.688803">
        <ele>841.294</ele>
        <time>2021-07-22T06:55:26Z</time>
      </trkpt>
      <trkpt lat="42.341998" lon="-4.688743">
        <ele>841.278</ele>
        <time>2021-07-22T06:55:27Z</time>
      </trkpt>
      <trkpt lat="42.342040" lon="-4.688409">
        <ele>841.746</ele>
        <time>2021-07-22T06:55:33Z</time>
      </trkpt>
      <trkpt lat="42.342051" lon="-4.688352">
        <ele>841.753</ele>
        <time>2021-07-22T06:55:34Z</time>
      </trkpt>
      <trkpt lat="42.342062" lon="-4.688292">
        <ele>841.781</ele>
        <time>2021-07-22T06:55:35Z</time>
      </trkpt>
      <trkpt lat="42.342070" lon="-4.688234">
        <ele>841.768</ele>
        <time>2021-07-22T06:55:36Z</time>
      </trkpt>
      <trkpt lat="42.342076" lon="-4.688174">
        <ele>841.742</ele>
        <time>2021-07-22T06:55:37Z</time>
      </trkpt>
      <trkpt lat="42.342085" lon="-4.687988">
        <ele>841.226</ele>
        <time>2021-07-22T06:55:40Z</time>
      </trkpt>
      <trkpt lat="42.342148" lon="-4.687446">
        <ele>841.208</ele>
        <time>2021-07-22T06:55:49Z</time>
      </trkpt>
      <trkpt lat="42.342233" lon="-4.686872">
        <ele>841.213</ele>
        <time>2021-07-22T06:55:58Z</time>
      </trkpt>
      <trkpt lat="42.342289" lon="-4.686288">
        <ele>840.855</ele>
        <time>2021-07-22T06:56:07Z</time>
      </trkpt>
      <trkpt lat="42.342350" lon="-4.685776">
        <ele>840.372</ele>
        <time>2021-07-22T06:56:16Z</time>
      </trkpt>
      <trkpt lat="42.342412" lon="-4.685207">
        <ele>839.872</ele>
        <time>2021-07-22T06:56:25Z</time>
      </trkpt>
      <trkpt lat="42.342455" lon="-4.684748">
        <ele>839.876</ele>
        <time>2021-07-22T06:56:33Z</time>
      </trkpt>
      <trkpt lat="42.342482" lon="-4.684523">
        <ele>840.354</ele>
        <time>2021-07-22T06:56:37Z</time>
      </trkpt>
      <trkpt lat="42.342486" lon="-4.684464">
        <ele>840.831</ele>
        <time>2021-07-22T06:56:38Z</time>
      </trkpt>
      <trkpt lat="42.342549" lon="-4.683926">
        <ele>840.329</ele>
        <time>2021-07-22T06:56:47Z</time>
      </trkpt>
      <trkpt lat="42.342621" lon="-4.683294">
        <ele>839.844</ele>
        <time>2021-07-22T06:56:57Z</time>
      </trkpt>
      <trkpt lat="42.342657" lon="-4.682915">
        <ele>839.305</ele>
        <time>2021-07-22T06:57:03Z</time>
      </trkpt>
      <trkpt lat="42.342663" lon="-4.682786">
        <ele>839.315</ele>
        <time>2021-07-22T06:57:05Z</time>
      </trkpt>
      <trkpt lat="42.342673" lon="-4.682723">
        <ele>839.308</ele>
        <time>2021-07-22T06:57:06Z</time>
      </trkpt>
      <trkpt lat="42.342751" lon="-4.682066">
        <ele>839.321</ele>
        <time>2021-07-22T06:57:16Z</time>
      </trkpt>
      <trkpt lat="42.342817" lon="-4.681465">
        <ele>839.363</ele>
        <time>2021-07-22T06:57:25Z</time>
      </trkpt>
      <trkpt lat="42.342861" lon="-4.680953">
        <ele>839.390</ele>
        <time>2021-07-22T06:57:33Z</time>
      </trkpt>
      <trkpt lat="42.342865" lon="-4.680893">
        <ele>839.370</ele>
        <time>2021-07-22T06:57:34Z</time>
      </trkpt>
      <trkpt lat="42.342871" lon="-4.680833">
        <ele>839.894</ele>
        <time>2021-07-22T06:57:35Z</time>
      </trkpt>
      <trkpt lat="42.342878" lon="-4.680771">
        <ele>839.852</ele>
        <time>2021-07-22T06:57:36Z</time>
      </trkpt>
      <trkpt lat="42.342886" lon="-4.680709">
        <ele>839.839</ele>
        <time>2021-07-22T06:57:37Z</time>
      </trkpt>
      <trkpt lat="42.342966" lon="-4.679941">
        <ele>839.317</ele>
        <time>2021-07-22T06:57:49Z</time>
      </trkpt>
      <trkpt lat="42.343040" lon="-4.679164">
        <ele>839.337</ele>
        <time>2021-07-22T06:58:01Z</time>
      </trkpt>
      <trkpt lat="42.343101" lon="-4.678468">
        <ele>839.349</ele>
        <time>2021-07-22T06:58:12Z</time>
      </trkpt>
      <trkpt lat="42.343142" lon="-4.677973">
        <ele>838.813</ele>
        <time>2021-07-22T06:58:20Z</time>
      </trkpt>
      <trkpt lat="42.343204" lon="-4.677332">
        <ele>838.808</ele>
        <time>2021-07-22T06:58:30Z</time>
      </trkpt>
      <trkpt lat="42.343263" lon="-4.676892">
        <ele>839.830</ele>
        <time>2021-07-22T06:58:38Z</time>
      </trkpt>
      <trkpt lat="42.343301" lon="-4.676567">
        <ele>839.812</ele>
        <time>2021-07-22T06:58:45Z</time>
      </trkpt>
      <trkpt lat="42.343349" lon="-4.676078">
        <ele>838.879</ele>
        <time>2021-07-22T06:58:54Z</time>
      </trkpt>
      <trkpt lat="42.343371" lon="-4.675765">
        <ele>838.489</ele>
        <time>2021-07-22T06:58:59Z</time>
      </trkpt>
      <trkpt lat="42.343368" lon="-4.675705">
        <ele>838.413</ele>
        <time>2021-07-22T06:59:00Z</time>
      </trkpt>
      <trkpt lat="42.343371" lon="-4.675643">
        <ele>838.451</ele>
        <time>2021-07-22T06:59:01Z</time>
      </trkpt>
      <trkpt lat="42.343439" lon="-4.675134">
        <ele>838.438</ele>
        <time>2021-07-22T06:59:10Z</time>
      </trkpt>
      <trkpt lat="42.343492" lon="-4.674578">
        <ele>837.436</ele>
        <time>2021-07-22T06:59:19Z</time>
      </trkpt>
      <trkpt lat="42.343506" lon="-4.674449">
        <ele>837.478</ele>
        <time>2021-07-22T06:59:21Z</time>
      </trkpt>
      <trkpt lat="42.343511" lon="-4.674326">
        <ele>837.433</ele>
        <time>2021-07-22T06:59:23Z</time>
      </trkpt>
      <trkpt lat="42.343571" lon="-4.673762">
        <ele>837.426</ele>
        <time>2021-07-22T06:59:33Z</time>
      </trkpt>
      <trkpt lat="42.343591" lon="-4.673359">
        <ele>837.408</ele>
        <time>2021-07-22T06:59:42Z</time>
      </trkpt>
      <trkpt lat="42.343631" lon="-4.672955">
        <ele>837.484</ele>
        <time>2021-07-22T06:59:51Z</time>
      </trkpt>
      <trkpt lat="42.343666" lon="-4.672591">
        <ele>837.496</ele>
        <time>2021-07-22T06:59:58Z</time>
      </trkpt>
      <trkpt lat="42.343734" lon="-4.671892">
        <ele>836.943</ele>
        <time>2021-07-22T07:00:10Z</time>
      </trkpt>
      <trkpt lat="42.343788" lon="-4.671344">
        <ele>836.983</ele>
        <time>2021-07-22T07:00:19Z</time>
      </trkpt>
      <trkpt lat="42.343792" lon="-4.671281">
        <ele>836.957</ele>
        <time>2021-07-22T07:00:20Z</time>
      </trkpt>
      <trkpt lat="42.343814" lon="-4.671098">
        <ele>836.915</ele>
        <time>2021-07-22T07:00:23Z</time>
      </trkpt>
      <trkpt lat="42.343834" lon="-4.670801">
        <ele>836.972</ele>
        <time>2021-07-22T07:00:28Z</time>
      </trkpt>
      <trkpt lat="42.343874" lon="-4.670226">
        <ele>837.480</ele>
        <time>2021-07-22T07:00:37Z</time>
      </trkpt>
      <trkpt lat="42.343915" lon="-4.669615">
        <ele>837.999</ele>
        <time>2021-07-22T07:00:47Z</time>
      </trkpt>
      <trkpt lat="42.343933" lon="-4.669314">
        <ele>837.407</ele>
        <time>2021-07-22T07:00:52Z</time>
      </trkpt>
      <trkpt lat="42.343980" lon="-4.668687">
        <ele>836.927</ele>
        <time>2021-07-22T07:01:02Z</time>
      </trkpt>
      <trkpt lat="42.344011" lon="-4.668244">
        <ele>836.908</ele>
        <time>2021-07-22T07:01:10Z</time>
      </trkpt>
      <trkpt lat="42.344059" lon="-4.667598">
        <ele>836.936</ele>
        <time>2021-07-22T07:01:21Z</time>
      </trkpt>
      <trkpt lat="42.344089" lon="-4.667127">
        <ele>836.038</ele>
        <time>2021-07-22T07:01:29Z</time>
      </trkpt>
      <trkpt lat="42.344140" lon="-4.666496">
        <ele>835.575</ele>
        <time>2021-07-22T07:01:40Z</time>
      </trkpt>
      <trkpt lat="42.344146" lon="-4.666242">
        <ele>836.035</ele>
        <time>2021-07-22T07:01:46Z</time>
      </trkpt>
      <trkpt lat="42.344152" lon="-4.666094">
        <ele>836.079</ele>
        <time>2021-07-22T07:01:52Z</time>
      </trkpt>
      <trkpt lat="42.344145" lon="-4.666096">
        <ele>835.587</ele>
        <time>2021-07-22T07:02:00Z</time>
      </trkpt>
      <trkpt lat="42.344135" lon="-4.666098">
        <ele>836.084</ele>
        <time>2021-07-22T07:02:18Z</time>
      </trkpt>
      <trkpt lat="42.344144" lon="-4.666100">
        <ele>836.472</ele>
        <time>2021-07-22T07:02:31Z</time>
      </trkpt>
      <trkpt lat="42.344151" lon="-4.666102">
        <ele>836.969</ele>
        <time>2021-07-22T07:02:48Z</time>
      </trkpt>
      <trkpt lat="42.344157" lon="-4.666103">
        <ele>836.904</ele>
        <time>2021-07-22T07:03:07Z</time>
      </trkpt>
      <trkpt lat="42.344150" lon="-4.666099">
        <ele>836.924</ele>
        <time>2021-07-22T07:03:15Z</time>
      </trkpt>
      <trkpt lat="42.344150" lon="-4.666097">
        <ele>835.508</ele>
        <time>2021-07-22T07:03:29Z</time>
      </trkpt>
      <trkpt lat="42.344142" lon="-4.666095">
        <ele>834.543</ele>
        <time>2021-07-22T07:03:43Z</time>
      </trkpt>
      <trkpt lat="42.344146" lon="-4.666108">
        <ele>836.075</ele>
        <time>2021-07-22T07:04:00Z</time>
      </trkpt>
      <trkpt lat="42.344142" lon="-4.666104">
        <ele>836.432</ele>
        <time>2021-07-22T07:04:11Z</time>
      </trkpt>
      <trkpt lat="42.344144" lon="-4.666104">
        <ele>835.522</ele>
        <time>2021-07-22T07:04:24Z</time>
      </trkpt>
      <trkpt lat="42.344148" lon="-4.666104">
        <ele>835.566</ele>
        <time>2021-07-22T07:04:38Z</time>
      </trkpt>
      <trkpt lat="42.344156" lon="-4.665980">
        <ele>835.594</ele>
        <time>2021-07-22T07:04:43Z</time>
      </trkpt>
      <trkpt lat="42.344170" lon="-4.665589">
        <ele>835.531</ele>
        <time>2021-07-22T07:04:51Z</time>
      </trkpt>
      <trkpt lat="42.344181" lon="-4.665057">
        <ele>835.089</ele>
        <time>2021-07-22T07:05:00Z</time>
      </trkpt>
      <trkpt lat="42.344202" lon="-4.664455">
        <ele>835.086</ele>
        <time>2021-07-22T07:05:10Z</time>
      </trkpt>
      <trkpt lat="42.344211" lon="-4.663745">
        <ele>834.560</ele>
        <time>2021-07-22T07:05:21Z</time>
      </trkpt>
      <trkpt lat="42.344224" lon="-4.663142">
        <ele>834.526</ele>
        <time>2021-07-22T07:05:31Z</time>
      </trkpt>
      <trkpt lat="42.344243" lon="-4.662455">
        <ele>834.508</ele>
        <time>2021-07-22T07:05:42Z</time>
      </trkpt>
      <trkpt lat="42.344245" lon="-4.662089">
        <ele>834.535</ele>
        <time>2021-07-22T07:05:48Z</time>
      </trkpt>
      <trkpt lat="42.344267" lon="-4.661271">
        <ele>834.077</ele>
        <time>2021-07-22T07:06:01Z</time>
      </trkpt>
      <trkpt lat="42.344284" lon="-4.660546">
        <ele>834.564</ele>
        <time>2021-07-22T07:06:12Z</time>
      </trkpt>
      <trkpt lat="42.344294" lon="-4.660305">
        <ele>834.554</ele>
        <time>2021-07-22T07:06:16Z</time>
      </trkpt>
      <trkpt lat="42.344388" lon="-4.659772">
        <ele>835.538</ele>
        <time>2021-07-22T07:06:25Z</time>
      </trkpt>
      <trkpt lat="42.344476" lon="-4.659537">
        <ele>836.496</ele>
        <time>2021-07-22T07:06:31Z</time>
      </trkpt>
      <trkpt lat="42.344638" lon="-4.659213">
        <ele>836.983</ele>
        <time>2021-07-22T07:06:39Z</time>
      </trkpt>
      <trkpt lat="42.344840" lon="-4.658822">
        <ele>836.461</ele>
        <time>2021-07-22T07:06:48Z</time>
      </trkpt>
      <trkpt lat="42.344880" lon="-4.658719">
        <ele>836.466</ele>
        <time>2021-07-22T07:06:50Z</time>
      </trkpt>
      <trkpt lat="42.344897" lon="-4.658665">
        <ele>836.429</ele>
        <time>2021-07-22T07:06:51Z</time>
      </trkpt>
      <trkpt lat="42.344913" lon="-4.658609">
        <ele>836.421</ele>
        <time>2021-07-22T07:06:52Z</time>
      </trkpt>
      <trkpt lat="42.345031" lon="-4.658136">
        <ele>836.008</ele>
        <time>2021-07-22T07:07:00Z</time>
      </trkpt>
      <trkpt lat="42.345074" lon="-4.657656">
        <ele>835.573</ele>
        <time>2021-07-22T07:07:07Z</time>
      </trkpt>
      <trkpt lat="42.345026" lon="-4.657008">
        <ele>834.535</ele>
        <time>2021-07-22T07:07:17Z</time>
      </trkpt>
      <trkpt lat="42.344919" lon="-4.656521">
        <ele>834.592</ele>
        <time>2021-07-22T07:07:25Z</time>
      </trkpt>
      <trkpt lat="42.344761" lon="-4.655920">
        <ele>833.632</ele>
        <time>2021-07-22T07:07:35Z</time>
      </trkpt>
      <trkpt lat="42.344621" lon="-4.655379">
        <ele>833.176</ele>
        <time>2021-07-22T07:07:44Z</time>
      </trkpt>
      <trkpt lat="42.344438" lon="-4.654650">
        <ele>833.694</ele>
        <time>2021-07-22T07:07:56Z</time>
      </trkpt>
      <trkpt lat="42.344266" lon="-4.653961">
        <ele>833.131</ele>
        <time>2021-07-22T07:08:07Z</time>
      </trkpt>
      <trkpt lat="42.344134" lon="-4.653430">
        <ele>832.639</ele>
        <time>2021-07-22T07:08:16Z</time>
      </trkpt>
      <trkpt lat="42.344025" lon="-4.652875">
        <ele>832.656</ele>
        <time>2021-07-22T07:08:25Z</time>
      </trkpt>
      <trkpt lat="42.344015" lon="-4.652815">
        <ele>832.159</ele>
        <time>2021-07-22T07:08:26Z</time>
      </trkpt>
      <trkpt lat="42.343925" lon="-4.652048">
        <ele>831.614</ele>
        <time>2021-07-22T07:08:38Z</time>
      </trkpt>
      <trkpt lat="42.343866" lon="-4.651386">
        <ele>831.608</ele>
        <time>2021-07-22T07:08:48Z</time>
      </trkpt>
      <trkpt lat="42.343813" lon="-4.650692">
        <ele>831.262</ele>
        <time>2021-07-22T07:08:58Z</time>
      </trkpt>
      <trkpt lat="42.343756" lon="-4.649942">
        <ele>831.224</ele>
        <time>2021-07-22T07:09:09Z</time>
      </trkpt>
      <trkpt lat="42.343717" lon="-4.649386">
        <ele>830.721</ele>
        <time>2021-07-22T07:09:18Z</time>
      </trkpt>
      <trkpt lat="42.343667" lon="-4.648790">
        <ele>830.711</ele>
        <time>2021-07-22T07:09:28Z</time>
      </trkpt>
      <trkpt lat="42.343634" lon="-4.648332">
        <ele>831.245</ele>
        <time>2021-07-22T07:09:36Z</time>
      </trkpt>
      <trkpt lat="42.343582" lon="-4.647701">
        <ele>830.763</ele>
        <time>2021-07-22T07:09:46Z</time>
      </trkpt>
      <trkpt lat="42.343532" lon="-4.646932">
        <ele>830.250</ele>
        <time>2021-07-22T07:09:58Z</time>
      </trkpt>
      <trkpt lat="42.343479" lon="-4.646083">
        <ele>830.248</ele>
        <time>2021-07-22T07:10:12Z</time>
      </trkpt>
      <trkpt lat="42.343433" lon="-4.645441">
        <ele>830.275</ele>
        <time>2021-07-22T07:10:22Z</time>
      </trkpt>
      <trkpt lat="42.343395" lon="-4.644874">
        <ele>830.728</ele>
        <time>2021-07-22T07:10:30Z</time>
      </trkpt>
      <trkpt lat="42.343347" lon="-4.644206">
        <ele>829.720</ele>
        <time>2021-07-22T07:10:40Z</time>
      </trkpt>
      <trkpt lat="42.343336" lon="-4.644087">
        <ele>829.708</ele>
        <time>2021-07-22T07:10:42Z</time>
      </trkpt>
      <trkpt lat="42.343329" lon="-4.644027">
        <ele>829.764</ele>
        <time>2021-07-22T07:10:43Z</time>
      </trkpt>
      <trkpt lat="42.343322" lon="-4.643964">
        <ele>829.716</ele>
        <time>2021-07-22T07:10:44Z</time>
      </trkpt>
      <trkpt lat="42.343276" lon="-4.643443">
        <ele>829.763</ele>
        <time>2021-07-22T07:10:52Z</time>
      </trkpt>
      <trkpt lat="42.343234" lon="-4.642889">
        <ele>830.253</ele>
        <time>2021-07-22T07:11:01Z</time>
      </trkpt>
      <trkpt lat="42.343193" lon="-4.642321">
        <ele>830.257</ele>
        <time>2021-07-22T07:11:10Z</time>
      </trkpt>
      <trkpt lat="42.343170" lon="-4.642011">
        <ele>830.215</ele>
        <time>2021-07-22T07:11:15Z</time>
      </trkpt>
      <trkpt lat="42.343130" lon="-4.641480">
        <ele>829.712</ele>
        <time>2021-07-22T07:11:24Z</time>
      </trkpt>
      <trkpt lat="42.343086" lon="-4.640940">
        <ele>830.750</ele>
        <time>2021-07-22T07:11:34Z</time>
      </trkpt>
      <trkpt lat="42.343050" lon="-4.640486">
        <ele>830.234</ele>
        <time>2021-07-22T07:11:42Z</time>
      </trkpt>
      <trkpt lat="42.343003" lon="-4.639892">
        <ele>829.755</ele>
        <time>2021-07-22T07:11:52Z</time>
      </trkpt>
      <trkpt lat="42.342992" lon="-4.639707">
        <ele>829.210</ele>
        <time>2021-07-22T07:11:55Z</time>
      </trkpt>
      <trkpt lat="42.342952" lon="-4.639105">
        <ele>829.208</ele>
        <time>2021-07-22T07:12:05Z</time>
      </trkpt>
      <trkpt lat="42.342916" lon="-4.638836">
        <ele>829.250</ele>
        <time>2021-07-22T07:12:11Z</time>
      </trkpt>
      <trkpt lat="42.342911" lon="-4.638823">
        <ele>829.792</ele>
        <time>2021-07-22T07:12:16Z</time>
      </trkpt>
      <trkpt lat="42.342915" lon="-4.638822">
        <ele>829.239</ele>
        <time>2021-07-22T07:12:23Z</time>
      </trkpt>
      <trkpt lat="42.342920" lon="-4.638820">
        <ele>829.279</ele>
        <time>2021-07-22T07:12:59Z</time>
      </trkpt>
      <trkpt lat="42.342915" lon="-4.638824">
        <ele>829.293</ele>
        <time>2021-07-22T07:13:16Z</time>
      </trkpt>
      <trkpt lat="42.342919" lon="-4.638791">
        <ele>828.311</ele>
        <time>2021-07-22T07:13:31Z</time>
      </trkpt>
      <trkpt lat="42.342918" lon="-4.638798">
        <ele>828.798</ele>
        <time>2021-07-22T07:13:40Z</time>
      </trkpt>
      <trkpt lat="42.342921" lon="-4.638775">
        <ele>828.746</ele>
        <time>2021-07-22T07:13:50Z</time>
      </trkpt>
      <trkpt lat="42.342922" lon="-4.638671">
        <ele>828.781</ele>
        <time>2021-07-22T07:13:58Z</time>
      </trkpt>
      <trkpt lat="42.342896" lon="-4.638519">
        <ele>828.761</ele>
        <time>2021-07-22T07:14:05Z</time>
      </trkpt>
      <trkpt lat="42.342880" lon="-4.638323">
        <ele>829.217</ele>
        <time>2021-07-22T07:14:13Z</time>
      </trkpt>
      <trkpt lat="42.342856" lon="-4.637988">
        <ele>829.708</ele>
        <time>2021-07-22T07:14:21Z</time>
      </trkpt>
      <trkpt lat="42.342822" lon="-4.637458">
        <ele>828.735</ele>
        <time>2021-07-22T07:14:30Z</time>
      </trkpt>
      <trkpt lat="42.342768" lon="-4.636853">
        <ele>828.397</ele>
        <time>2021-07-22T07:14:40Z</time>
      </trkpt>
      <trkpt lat="42.342690" lon="-4.636079">
        <ele>828.374</ele>
        <time>2021-07-22T07:14:53Z</time>
      </trkpt>
      <trkpt lat="42.342629" lon="-4.635480">
        <ele>828.324</ele>
        <time>2021-07-22T07:15:03Z</time>
      </trkpt>
      <trkpt lat="42.342580" lon="-4.634867">
        <ele>828.368</ele>
        <time>2021-07-22T07:15:13Z</time>
      </trkpt>
      <trkpt lat="42.342536" lon="-4.634380">
        <ele>828.326</ele>
        <time>2021-07-22T07:15:21Z</time>
      </trkpt>
      <trkpt lat="42.342485" lon="-4.633823">
        <ele>828.323</ele>
        <time>2021-07-22T07:15:30Z</time>
      </trkpt>
      <trkpt lat="42.342471" lon="-4.633706">
        <ele>828.351</ele>
        <time>2021-07-22T07:15:32Z</time>
      </trkpt>
      <trkpt lat="42.342402" lon="-4.633052">
        <ele>829.223</ele>
        <time>2021-07-22T07:15:43Z</time>
      </trkpt>
      <trkpt lat="42.342384" lon="-4.632858">
        <ele>829.283</ele>
        <time>2021-07-22T07:15:46Z</time>
      </trkpt>
      <trkpt lat="42.342325" lon="-4.632196">
        <ele>828.311</ele>
        <time>2021-07-22T07:15:57Z</time>
      </trkpt>
      <trkpt lat="42.342281" lon="-4.631598">
        <ele>828.308</ele>
        <time>2021-07-22T07:16:07Z</time>
      </trkpt>
      <trkpt lat="42.342234" lon="-4.630926">
        <ele>827.839</ele>
        <time>2021-07-22T07:16:18Z</time>
      </trkpt>
      <trkpt lat="42.342208" lon="-4.630604">
        <ele>827.821</ele>
        <time>2021-07-22T07:16:25Z</time>
      </trkpt>
      <trkpt lat="42.342210" lon="-4.630606">
        <ele>828.778</ele>
        <time>2021-07-22T07:16:41Z</time>
      </trkpt>
      <trkpt lat="42.342209" lon="-4.630605">
        <ele>829.748</ele>
        <time>2021-07-22T07:16:56Z</time>
      </trkpt>
      <trkpt lat="42.342209" lon="-4.630606">
        <ele>830.232</ele>
        <time>2021-07-22T07:17:15Z</time>
      </trkpt>
      <trkpt lat="42.342218" lon="-4.630615">
        <ele>830.280</ele>
        <time>2021-07-22T07:17:40Z</time>
      </trkpt>
      <trkpt lat="42.342211" lon="-4.630552">
        <ele>829.727</ele>
        <time>2021-07-22T07:17:50Z</time>
      </trkpt>
      <trkpt lat="42.342191" lon="-4.630246">
        <ele>829.745</ele>
        <time>2021-07-22T07:17:57Z</time>
      </trkpt>
      <trkpt lat="42.342150" lon="-4.629752">
        <ele>829.274</ele>
        <time>2021-07-22T07:18:06Z</time>
      </trkpt>
      <trkpt lat="42.342118" lon="-4.629310">
        <ele>828.756</ele>
        <time>2021-07-22T07:18:14Z</time>
      </trkpt>
      <trkpt lat="42.342039" lon="-4.628684">
        <ele>828.321</ele>
        <time>2021-07-22T07:18:25Z</time>
      </trkpt>
      <trkpt lat="42.341978" lon="-4.628147">
        <ele>828.708</ele>
        <time>2021-07-22T07:18:34Z</time>
      </trkpt>
      <trkpt lat="42.341901" lon="-4.627475">
        <ele>828.384</ele>
        <time>2021-07-22T07:18:45Z</time>
      </trkpt>
      <trkpt lat="42.341828" lon="-4.626846">
        <ele>828.776</ele>
        <time>2021-07-22T07:18:56Z</time>
      </trkpt>
      <trkpt lat="42.341781" lon="-4.626409">
        <ele>828.713</ele>
        <time>2021-07-22T07:19:05Z</time>
      </trkpt>
      <trkpt lat="42.341736" lon="-4.625939">
        <ele>829.773</ele>
        <time>2021-07-22T07:19:13Z</time>
      </trkpt>
      <trkpt lat="42.341689" lon="-4.625354">
        <ele>829.247</ele>
        <time>2021-07-22T07:19:22Z</time>
      </trkpt>
      <trkpt lat="42.341624" lon="-4.624540">
        <ele>828.375</ele>
        <time>2021-07-22T07:19:35Z</time>
      </trkpt>
      <trkpt lat="42.341569" lon="-4.623902">
        <ele>828.382</ele>
        <time>2021-07-22T07:19:45Z</time>
      </trkpt>
      <trkpt lat="42.341526" lon="-4.623289">
        <ele>827.350</ele>
        <time>2021-07-22T07:19:55Z</time>
      </trkpt>
      <trkpt lat="42.341476" lon="-4.622714">
        <ele>827.815</ele>
        <time>2021-07-22T07:20:05Z</time>
      </trkpt>
      <trkpt lat="42.341422" lon="-4.622422">
        <ele>828.365</ele>
        <time>2021-07-22T07:20:12Z</time>
      </trkpt>
      <trkpt lat="42.341318" lon="-4.622328">
        <ele>828.311</ele>
        <time>2021-07-22T07:20:18Z</time>
      </trkpt>
      <trkpt lat="42.341185" lon="-4.622212">
        <ele>827.808</ele>
        <time>2021-07-22T07:20:26Z</time>
      </trkpt>
      <trkpt lat="42.341135" lon="-4.621934">
        <ele>827.318</ele>
        <time>2021-07-22T07:20:32Z</time>
      </trkpt>
      <trkpt lat="42.341137" lon="-4.621873">
        <ele>827.380</ele>
        <time>2021-07-22T07:20:33Z</time>
      </trkpt>
      <trkpt lat="42.341142" lon="-4.621826">
        <ele>827.317</ele>
        <time>2021-07-22T07:20:34Z</time>
      </trkpt>
      <trkpt lat="42.341258" lon="-4.621360">
        <ele>826.877</ele>
        <time>2021-07-22T07:20:42Z</time>
      </trkpt>
      <trkpt lat="42.341295" lon="-4.620933">
        <ele>827.311</ele>
        <time>2021-07-22T07:20:50Z</time>
      </trkpt>
      <trkpt lat="42.341292" lon="-4.620874">
        <ele>827.319</ele>
        <time>2021-07-22T07:20:51Z</time>
      </trkpt>
      <trkpt lat="42.341222" lon="-4.620199">
        <ele>827.366</ele>
        <time>2021-07-22T07:21:02Z</time>
      </trkpt>
      <trkpt lat="42.341190" lon="-4.619833">
        <ele>827.354</ele>
        <time>2021-07-22T07:21:08Z</time>
      </trkpt>
      <trkpt lat="42.341124" lon="-4.619277">
        <ele>827.832</ele>
        <time>2021-07-22T07:21:18Z</time>
      </trkpt>
      <trkpt lat="42.341080" lon="-4.618553">
        <ele>826.892</ele>
        <time>2021-07-22T07:21:30Z</time>
      </trkpt>
      <trkpt lat="42.341067" lon="-4.618305">
        <ele>826.811</ele>
        <time>2021-07-22T07:21:34Z</time>
      </trkpt>
      <trkpt lat="42.341037" lon="-4.617625">
        <ele>826.308</ele>
        <time>2021-07-22T07:21:45Z</time>
      </trkpt>
      <trkpt lat="42.341002" lon="-4.616976">
        <ele>826.380</ele>
        <time>2021-07-22T07:21:56Z</time>
      </trkpt>
      <trkpt lat="42.340971" lon="-4.616337">
        <ele>825.922</ele>
        <time>2021-07-22T07:22:07Z</time>
      </trkpt>
      <trkpt lat="42.340937" lon="-4.615631">
        <ele>825.969</ele>
        <time>2021-07-22T07:22:19Z</time>
      </trkpt>
      <trkpt lat="42.340901" lon="-4.615030">
        <ele>826.359</ele>
        <time>2021-07-22T07:22:29Z</time>
      </trkpt>
      <trkpt lat="42.340858" lon="-4.614604">
        <ele>826.353</ele>
        <time>2021-07-22T07:22:38Z</time>
      </trkpt>
      <trkpt lat="42.340844" lon="-4.614445">
        <ele>825.981</ele>
        <time>2021-07-22T07:22:44Z</time>
      </trkpt>
      <trkpt lat="42.340818" lon="-4.614117">
        <ele>825.968</ele>
        <time>2021-07-22T07:22:54Z</time>
      </trkpt>
      <trkpt lat="42.340724" lon="-4.613816">
        <ele>825.946</ele>
        <time>2021-07-22T07:23:01Z</time>
      </trkpt>
      <trkpt lat="42.340666" lon="-4.613754">
        <ele>825.946</ele>
        <time>2021-07-22T07:23:03Z</time>
      </trkpt>
      <trkpt lat="42.340573" lon="-4.613657">
        <ele>825.988</ele>
        <time>2021-07-22T07:23:06Z</time>
      </trkpt>
      <trkpt lat="42.340546" lon="-4.613609">
        <ele>825.916</ele>
        <time>2021-07-22T07:23:07Z</time>
      </trkpt>
      <trkpt lat="42.340525" lon="-4.613560">
        <ele>825.908</ele>
        <time>2021-07-22T07:23:08Z</time>
      </trkpt>
      <trkpt lat="42.340507" lon="-4.613501">
        <ele>825.981</ele>
        <time>2021-07-22T07:23:09Z</time>
      </trkpt>
      <trkpt lat="42.340498" lon="-4.613442">
        <ele>825.973</ele>
        <time>2021-07-22T07:23:10Z</time>
      </trkpt>
      <trkpt lat="42.340496" lon="-4.613384">
        <ele>825.970</ele>
        <time>2021-07-22T07:23:11Z</time>
      </trkpt>
      <trkpt lat="42.340519" lon="-4.613266">
        <ele>825.970</ele>
        <time>2021-07-22T07:23:13Z</time>
      </trkpt>
      <trkpt lat="42.340546" lon="-4.613212">
        <ele>825.994</ele>
        <time>2021-07-22T07:23:14Z</time>
      </trkpt>
      <trkpt lat="42.340569" lon="-4.613177">
        <ele>825.942</ele>
        <time>2021-07-22T07:23:15Z</time>
      </trkpt>
      <trkpt lat="42.340599" lon="-4.613132">
        <ele>825.949</ele>
        <time>2021-07-22T07:23:16Z</time>
      </trkpt>
      <trkpt lat="42.340661" lon="-4.613038">
        <ele>826.357</ele>
        <time>2021-07-22T07:23:18Z</time>
      </trkpt>
      <trkpt lat="42.340684" lon="-4.612986">
        <ele>826.351</ele>
        <time>2021-07-22T07:23:19Z</time>
      </trkpt>
      <trkpt lat="42.340701" lon="-4.612923">
        <ele>826.301</ele>
        <time>2021-07-22T07:23:20Z</time>
      </trkpt>
      <trkpt lat="42.340708" lon="-4.612862">
        <ele>826.311</ele>
        <time>2021-07-22T07:23:21Z</time>
      </trkpt>
      <trkpt lat="42.340708" lon="-4.612798">
        <ele>826.308</ele>
        <time>2021-07-22T07:23:22Z</time>
      </trkpt>
      <trkpt lat="42.340705" lon="-4.612744">
        <ele>826.352</ele>
        <time>2021-07-22T07:23:23Z</time>
      </trkpt>
      <trkpt lat="42.340687" lon="-4.612212">
        <ele>826.364</ele>
        <time>2021-07-22T07:23:33Z</time>
      </trkpt>
      <trkpt lat="42.340681" lon="-4.611969">
        <ele>825.911</ele>
        <time>2021-07-22T07:23:40Z</time>
      </trkpt>
      <trkpt lat="42.340673" lon="-4.611931">
        <ele>825.951</ele>
        <time>2021-07-22T07:23:45Z</time>
      </trkpt>
      <trkpt lat="42.340676" lon="-4.611919">
        <ele>825.935</ele>
        <time>2021-07-22T07:23:47Z</time>
      </trkpt>
      <trkpt lat="42.340682" lon="-4.611742">
        <ele>825.983</ele>
        <time>2021-07-22T07:23:53Z</time>
      </trkpt>
      <trkpt lat="42.340696" lon="-4.611340">
        <ele>825.420</ele>
        <time>2021-07-22T07:24:01Z</time>
      </trkpt>
      <trkpt lat="42.340719" lon="-4.610987">
        <ele>824.938</ele>
        <time>2021-07-22T07:24:09Z</time>
      </trkpt>
      <trkpt lat="42.340765" lon="-4.610863">
        <ele>825.477</ele>
        <time>2021-07-22T07:24:13Z</time>
      </trkpt>
      <trkpt lat="42.340776" lon="-4.610635">
        <ele>825.961</ele>
        <time>2021-07-22T07:24:23Z</time>
      </trkpt>
      <trkpt lat="42.340779" lon="-4.610643">
        <ele>826.327</ele>
        <time>2021-07-22T07:24:30Z</time>
      </trkpt>
      <trkpt lat="42.340773" lon="-4.610642">
        <ele>824.408</ele>
        <time>2021-07-22T07:24:54Z</time>
      </trkpt>
      <trkpt lat="42.340776" lon="-4.610649">
        <ele>824.974</ele>
        <time>2021-07-22T07:25:19Z</time>
      </trkpt>
      <trkpt lat="42.340795" lon="-4.610644">
        <ele>824.476</ele>
        <time>2021-07-22T07:25:38Z</time>
      </trkpt>
      <trkpt lat="42.340772" lon="-4.610648">
        <ele>823.583</ele>
        <time>2021-07-22T07:26:02Z</time>
      </trkpt>
      <trkpt lat="42.340786" lon="-4.610582">
        <ele>823.953</ele>
        <time>2021-07-22T07:26:10Z</time>
      </trkpt>
      <trkpt lat="42.340796" lon="-4.610587">
        <ele>825.467</ele>
        <time>2021-07-22T07:26:20Z</time>
      </trkpt>
      <trkpt lat="42.340834" lon="-4.610597">
        <ele>828.335</ele>
        <time>2021-07-22T07:26:53Z</time>
      </trkpt>
      <trkpt lat="42.340823" lon="-4.610604">
        <ele>829.782</ele>
        <time>2021-07-22T07:27:33Z</time>
      </trkpt>
      <trkpt lat="42.340799" lon="-4.610582">
        <ele>827.330</ele>
        <time>2021-07-22T07:27:55Z</time>
      </trkpt>
      <trkpt lat="42.340799" lon="-4.610568">
        <ele>825.479</ele>
        <time>2021-07-22T07:28:14Z</time>
      </trkpt>
      <trkpt lat="42.340803" lon="-4.610589">
        <ele>823.505</ele>
        <time>2021-07-22T07:28:45Z</time>
      </trkpt>
      <trkpt lat="42.340798" lon="-4.610580">
        <ele>821.125</ele>
        <time>2021-07-22T07:29:17Z</time>
      </trkpt>
      <trkpt lat="42.340787" lon="-4.610589">
        <ele>824.908</ele>
        <time>2021-07-22T07:29:44Z</time>
      </trkpt>
      <trkpt lat="42.340820" lon="-4.610582">
        <ele>821.154</ele>
        <time>2021-07-22T07:30:23Z</time>
      </trkpt>
      <trkpt lat="42.340802" lon="-4.610593">
        <ele>823.576</ele>
        <time>2021-07-22T07:30:52Z</time>
      </trkpt>
      <trkpt lat="42.340817" lon="-4.610580">
        <ele>823.523</ele>
        <time>2021-07-22T07:31:18Z</time>
      </trkpt>
      <trkpt lat="42.340817" lon="-4.610592">
        <ele>824.913</ele>
        <time>2021-07-22T07:31:39Z</time>
      </trkpt>
      <trkpt lat="42.340793" lon="-4.610559">
        <ele>827.317</ele>
        <time>2021-07-22T07:32:02Z</time>
      </trkpt>
      <trkpt lat="42.340801" lon="-4.610563">
        <ele>825.975</ele>
        <time>2021-07-22T07:32:22Z</time>
      </trkpt>
      <trkpt lat="42.340805" lon="-4.610560">
        <ele>826.372</ele>
        <time>2021-07-22T07:32:39Z</time>
      </trkpt>
      <trkpt lat="42.340812" lon="-4.610578">
        <ele>825.940</ele>
        <time>2021-07-22T07:33:01Z</time>
      </trkpt>
      <trkpt lat="42.340817" lon="-4.610577">
        <ele>827.894</ele>
        <time>2021-07-22T07:33:24Z</time>
      </trkpt>
      <trkpt lat="42.340812" lon="-4.610566">
        <ele>827.857</ele>
        <time>2021-07-22T07:33:53Z</time>
      </trkpt>
      <trkpt lat="42.340786" lon="-4.610620">
        <ele>826.322</ele>
        <time>2021-07-22T07:34:16Z</time>
      </trkpt>
      <trkpt lat="42.340768" lon="-4.610601">
        <ele>827.308</ele>
        <time>2021-07-22T07:34:45Z</time>
      </trkpt>
      <trkpt lat="42.340790" lon="-4.610582">
        <ele>825.486</ele>
        <time>2021-07-22T07:35:08Z</time>
      </trkpt>
      <trkpt lat="42.340794" lon="-4.610569">
        <ele>824.478</ele>
        <time>2021-07-22T07:35:24Z</time>
      </trkpt>
      <trkpt lat="42.340782" lon="-4.610547">
        <ele>823.575</ele>
        <time>2021-07-22T07:35:40Z</time>
      </trkpt>
      <trkpt lat="42.340785" lon="-4.610581">
        <ele>823.045</ele>
        <time>2021-07-22T07:36:08Z</time>
      </trkpt>
      <trkpt lat="42.340791" lon="-4.610591">
        <ele>825.449</ele>
        <time>2021-07-22T07:36:30Z</time>
      </trkpt>
      <trkpt lat="42.340801" lon="-4.610605">
        <ele>820.157</ele>
        <time>2021-07-22T07:36:59Z</time>
      </trkpt>
      <trkpt lat="42.340808" lon="-4.610614">
        <ele>821.194</ele>
        <time>2021-07-22T07:37:30Z</time>
      </trkpt>
      <trkpt lat="42.340819" lon="-4.610582">
        <ele>820.632</ele>
        <time>2021-07-22T07:37:53Z</time>
      </trkpt>
      <trkpt lat="42.340770" lon="-4.610582">
        <ele>824.438</ele>
        <time>2021-07-22T07:38:15Z</time>
      </trkpt>
      <trkpt lat="42.340777" lon="-4.610558">
        <ele>824.470</ele>
        <time>2021-07-22T07:38:38Z</time>
      </trkpt>
      <trkpt lat="42.340808" lon="-4.610556">
        <ele>822.017</ele>
        <time>2021-07-22T07:38:58Z</time>
      </trkpt>
      <trkpt lat="42.340783" lon="-4.610574">
        <ele>823.908</ele>
        <time>2021-07-22T07:39:22Z</time>
      </trkpt>
      <trkpt lat="42.340808" lon="-4.610588">
        <ele>829.280</ele>
        <time>2021-07-22T07:39:48Z</time>
      </trkpt>
      <trkpt lat="42.340830" lon="-4.610549">
        <ele>829.732</ele>
        <time>2021-07-22T07:40:11Z</time>
      </trkpt>
      <trkpt lat="42.340830" lon="-4.610579">
        <ele>825.989</ele>
        <time>2021-07-22T07:40:36Z</time>
      </trkpt>
      <trkpt lat="42.340812" lon="-4.610574">
        <ele>825.949</ele>
        <time>2021-07-22T07:40:57Z</time>
      </trkpt>
      <trkpt lat="42.340813" lon="-4.610576">
        <ele>826.813</ele>
        <time>2021-07-22T07:41:13Z</time>
      </trkpt>
      <trkpt lat="42.340809" lon="-4.610572">
        <ele>826.361</ele>
        <time>2021-07-22T07:41:23Z</time>
      </trkpt>
      <trkpt lat="42.340794" lon="-4.610573">
        <ele>826.338</ele>
        <time>2021-07-22T07:41:34Z</time>
      </trkpt>
      <trkpt lat="42.340744" lon="-4.610523">
        <ele>826.396</ele>
        <time>2021-07-22T07:41:42Z</time>
      </trkpt>
      <trkpt lat="42.340733" lon="-4.610509">
        <ele>826.321</ele>
        <time>2021-07-22T07:41:43Z</time>
      </trkpt>
      <trkpt lat="42.340722" lon="-4.610487">
        <ele>826.341</ele>
        <time>2021-07-22T07:41:44Z</time>
      </trkpt>
      <trkpt lat="42.340712" lon="-4.610455">
        <ele>826.305</ele>
        <time>2021-07-22T07:41:45Z</time>
      </trkpt>
      <trkpt lat="42.340702" lon="-4.610421">
        <ele>826.808</ele>
        <time>2021-07-22T07:41:46Z</time>
      </trkpt>
      <trkpt lat="42.340545" lon="-4.610079">
        <ele>826.399</ele>
        <time>2021-07-22T07:41:55Z</time>
      </trkpt>
      <trkpt lat="42.340402" lon="-4.609831">
        <ele>826.881</ele>
        <time>2021-07-22T07:42:04Z</time>
      </trkpt>
      <trkpt lat="42.340252" lon="-4.609563">
        <ele>826.868</ele>
        <time>2021-07-22T07:42:13Z</time>
      </trkpt>
      <trkpt lat="42.340112" lon="-4.609305">
        <ele>826.368</ele>
        <time>2021-07-22T07:42:21Z</time>
      </trkpt>
      <trkpt lat="42.339937" lon="-4.609003">
        <ele>825.972</ele>
        <time>2021-07-22T07:42:30Z</time>
      </trkpt>
      <trkpt lat="42.339800" lon="-4.608735">
        <ele>825.410</ele>
        <time>2021-07-22T07:42:38Z</time>
      </trkpt>
      <trkpt lat="42.339780" lon="-4.608688">
        <ele>824.977</ele>
        <time>2021-07-22T07:42:40Z</time>
      </trkpt>
      <trkpt lat="42.339778" lon="-4.608664">
        <ele>824.925</ele>
        <time>2021-07-22T07:42:41Z</time>
      </trkpt>
      <trkpt lat="42.339782" lon="-4.608575">
        <ele>825.462</ele>
        <time>2021-07-22T07:42:48Z</time>
      </trkpt>
      <trkpt lat="42.339784" lon="-4.608559">
        <ele>825.483</ele>
        <time>2021-07-22T07:42:49Z</time>
      </trkpt>
      <trkpt lat="42.339790" lon="-4.608544">
        <ele>825.411</ele>
        <time>2021-07-22T07:42:50Z</time>
      </trkpt>
      <trkpt lat="42.339800" lon="-4.608531">
        <ele>825.408</ele>
        <time>2021-07-22T07:42:51Z</time>
      </trkpt>
      <trkpt lat="42.339823" lon="-4.608522">
        <ele>825.423</ele>
        <time>2021-07-22T07:42:57Z</time>
      </trkpt>
      <trkpt lat="42.339823" lon="-4.608520">
        <ele>825.445</ele>
        <time>2021-07-22T07:43:05Z</time>
      </trkpt>
      <trkpt lat="42.339827" lon="-4.608541">
        <ele>825.912</ele>
        <time>2021-07-22T07:43:25Z</time>
      </trkpt>
      <trkpt lat="42.339824" lon="-4.608543">
        <ele>825.982</ele>
        <time>2021-07-22T07:43:38Z</time>
      </trkpt>
      <trkpt lat="42.339801" lon="-4.608553">
        <ele>826.376</ele>
        <time>2021-07-22T07:43:55Z</time>
      </trkpt>
      <trkpt lat="42.339794" lon="-4.608502">
        <ele>826.334</ele>
        <time>2021-07-22T07:44:13Z</time>
      </trkpt>
      <trkpt lat="42.339791" lon="-4.608490">
        <ele>825.951</ele>
        <time>2021-07-22T07:44:21Z</time>
      </trkpt>
      <trkpt lat="42.339758" lon="-4.608469">
        <ele>825.989</ele>
        <time>2021-07-22T07:44:26Z</time>
      </trkpt>
      <trkpt lat="42.339748" lon="-4.608466">
        <ele>826.372</ele>
        <time>2021-07-22T07:44:27Z</time>
      </trkpt>
      <trkpt lat="42.339742" lon="-4.608459">
        <ele>826.313</ele>
        <time>2021-07-22T07:44:28Z</time>
      </trkpt>
      <trkpt lat="42.339736" lon="-4.608447">
        <ele>826.314</ele>
        <time>2021-07-22T07:44:29Z</time>
      </trkpt>
      <trkpt lat="42.339730" lon="-4.608435">
        <ele>826.308</ele>
        <time>2021-07-22T07:44:30Z</time>
      </trkpt>
      <trkpt lat="42.339666" lon="-4.608335">
        <ele>826.314</ele>
        <time>2021-07-22T07:44:40Z</time>
      </trkpt>
      <trkpt lat="42.339646" lon="-4.608292">
        <ele>826.386</ele>
        <time>2021-07-22T07:44:48Z</time>
      </trkpt>
      <trkpt lat="42.339637" lon="-4.608247">
        <ele>826.373</ele>
        <time>2021-07-22T07:44:57Z</time>
      </trkpt>
      <trkpt lat="42.339638" lon="-4.608192">
        <ele>826.873</ele>
        <time>2021-07-22T07:45:01Z</time>
      </trkpt>
      <trkpt lat="42.339638" lon="-4.608175">
        <ele>826.837</ele>
        <time>2021-07-22T07:45:02Z</time>
      </trkpt>
      <trkpt lat="42.339639" lon="-4.608159">
        <ele>826.875</ele>
        <time>2021-07-22T07:45:03Z</time>
      </trkpt>
      <trkpt lat="42.339640" lon="-4.607961">
        <ele>826.862</ele>
        <time>2021-07-22T07:45:15Z</time>
      </trkpt>
      <trkpt lat="42.339648" lon="-4.607768">
        <ele>828.390</ele>
        <time>2021-07-22T07:45:26Z</time>
      </trkpt>
      <trkpt lat="42.339660" lon="-4.607594">
        <ele>828.751</ele>
        <time>2021-07-22T07:45:36Z</time>
      </trkpt>
      <trkpt lat="42.339664" lon="-4.607419">
        <ele>829.201</ele>
        <time>2021-07-22T07:45:46Z</time>
      </trkpt>
      <trkpt lat="42.339668" lon="-4.607254">
        <ele>830.711</ele>
        <time>2021-07-22T07:45:56Z</time>
      </trkpt>
      <trkpt lat="42.339672" lon="-4.607123">
        <ele>832.108</ele>
        <time>2021-07-22T07:46:04Z</time>
      </trkpt>
      <trkpt lat="42.339686" lon="-4.606932">
        <ele>832.662</ele>
        <time>2021-07-22T07:46:15Z</time>
      </trkpt>
      <trkpt lat="42.339698" lon="-4.606924">
        <ele>831.674</ele>
        <time>2021-07-22T07:46:23Z</time>
      </trkpt>
      <trkpt lat="42.339694" lon="-4.606893">
        <ele>832.621</ele>
        <time>2021-07-22T07:46:33Z</time>
      </trkpt>
      <trkpt lat="42.339703" lon="-4.606863">
        <ele>832.671</ele>
        <time>2021-07-22T07:46:44Z</time>
      </trkpt>
      <trkpt lat="42.339683" lon="-4.606843">
        <ele>834.045</ele>
        <time>2021-07-22T07:46:55Z</time>
      </trkpt>
      <trkpt lat="42.339691" lon="-4.606820">
        <ele>834.593</ele>
        <time>2021-07-22T07:47:07Z</time>
      </trkpt>
      <trkpt lat="42.339701" lon="-4.606721">
        <ele>834.090</ele>
        <time>2021-07-22T07:47:17Z</time>
      </trkpt>
      <trkpt lat="42.339720" lon="-4.606689">
        <ele>834.578</ele>
        <time>2021-07-22T07:47:24Z</time>
      </trkpt>
      <trkpt lat="42.339736" lon="-4.606704">
        <ele>834.061</ele>
        <time>2021-07-22T07:47:38Z</time>
      </trkpt>
      <trkpt lat="42.339718" lon="-4.606714">
        <ele>835.521</ele>
        <time>2021-07-22T07:47:55Z</time>
      </trkpt>
      <trkpt lat="42.339712" lon="-4.606709">
        <ele>834.513</ele>
        <time>2021-07-22T07:48:10Z</time>
      </trkpt>
      <trkpt lat="42.339726" lon="-4.606712">
        <ele>834.508</ele>
        <time>2021-07-22T07:48:21Z</time>
      </trkpt>
      <trkpt lat="42.339718" lon="-4.606728">
        <ele>833.643</ele>
        <time>2021-07-22T07:48:40Z</time>
      </trkpt>
      <trkpt lat="42.339711" lon="-4.606704">
        <ele>833.145</ele>
        <time>2021-07-22T07:48:50Z</time>
      </trkpt>
      <trkpt lat="42.339707" lon="-4.606678">
        <ele>831.652</ele>
        <time>2021-07-22T07:49:04Z</time>
      </trkpt>
      <trkpt lat="42.339714" lon="-4.606689">
        <ele>832.112</ele>
        <time>2021-07-22T07:49:16Z</time>
      </trkpt>
      <trkpt lat="42.339727" lon="-4.606664">
        <ele>831.666</ele>
        <time>2021-07-22T07:49:27Z</time>
      </trkpt>
      <trkpt lat="42.339712" lon="-4.606663">
        <ele>831.654</ele>
        <time>2021-07-22T07:49:33Z</time>
      </trkpt>
      <trkpt lat="42.339702" lon="-4.606669">
        <ele>831.631</ele>
        <time>2021-07-22T07:49:34Z</time>
      </trkpt>
      <trkpt lat="42.339691" lon="-4.606676">
        <ele>831.669</ele>
        <time>2021-07-22T07:49:35Z</time>
      </trkpt>
      <trkpt lat="42.339675" lon="-4.606680">
        <ele>831.696</ele>
        <time>2021-07-22T07:49:36Z</time>
      </trkpt>
      <trkpt lat="42.339659" lon="-4.606674">
        <ele>832.131</ele>
        <time>2021-07-22T07:49:37Z</time>
      </trkpt>
      <trkpt lat="42.339650" lon="-4.606662">
        <ele>832.124</ele>
        <time>2021-07-22T07:49:38Z</time>
      </trkpt>
      <trkpt lat="42.339639" lon="-4.606643">
        <ele>832.608</ele>
        <time>2021-07-22T07:49:39Z</time>
      </trkpt>
      <trkpt lat="42.339631" lon="-4.606627">
        <ele>832.666</ele>
        <time>2021-07-22T07:49:40Z</time>
      </trkpt>
      <trkpt lat="42.339570" lon="-4.606472">
        <ele>834.598</ele>
        <time>2021-07-22T07:49:48Z</time>
      </trkpt>
      <trkpt lat="42.339505" lon="-4.606316">
        <ele>835.525</ele>
        <time>2021-07-22T07:49:57Z</time>
      </trkpt>
      <trkpt lat="42.339497" lon="-4.606302">
        <ele>835.535</ele>
        <time>2021-07-22T07:49:58Z</time>
      </trkpt>
      <trkpt lat="42.339490" lon="-4.606288">
        <ele>835.579</ele>
        <time>2021-07-22T07:49:59Z</time>
      </trkpt>
      <trkpt lat="42.339483" lon="-4.606272">
        <ele>835.577</ele>
        <time>2021-07-22T07:50:00Z</time>
      </trkpt>
      <trkpt lat="42.339474" lon="-4.606257">
        <ele>835.594</ele>
        <time>2021-07-22T07:50:01Z</time>
      </trkpt>
      <trkpt lat="42.339411" lon="-4.606130">
        <ele>836.022</ele>
        <time>2021-07-22T07:50:09Z</time>
      </trkpt>
      <trkpt lat="42.339400" lon="-4.606117">
        <ele>836.061</ele>
        <time>2021-07-22T07:50:10Z</time>
      </trkpt>
      <trkpt lat="42.339393" lon="-4.606101">
        <ele>836.021</ele>
        <time>2021-07-22T07:50:11Z</time>
      </trkpt>
      <trkpt lat="42.339387" lon="-4.606083">
        <ele>835.513</ele>
        <time>2021-07-22T07:50:12Z</time>
      </trkpt>
      <trkpt lat="42.339382" lon="-4.606064">
        <ele>835.508</ele>
        <time>2021-07-22T07:50:13Z</time>
      </trkpt>
      <trkpt lat="42.339375" lon="-4.606045">
        <ele>835.553</ele>
        <time>2021-07-22T07:50:14Z</time>
      </trkpt>
      <trkpt lat="42.339367" lon="-4.606027">
        <ele>835.515</ele>
        <time>2021-07-22T07:50:15Z</time>
      </trkpt>
      <trkpt lat="42.339362" lon="-4.606006">
        <ele>835.552</ele>
        <time>2021-07-22T07:50:16Z</time>
      </trkpt>
      <trkpt lat="42.339357" lon="-4.605986">
        <ele>835.542</ele>
        <time>2021-07-22T07:50:17Z</time>
      </trkpt>
      <trkpt lat="42.339354" lon="-4.605964">
        <ele>835.526</ele>
        <time>2021-07-22T07:50:18Z</time>
      </trkpt>
      <trkpt lat="42.339351" lon="-4.605943">
        <ele>836.054</ele>
        <time>2021-07-22T07:50:19Z</time>
      </trkpt>
      <trkpt lat="42.339349" lon="-4.605921">
        <ele>836.031</ele>
        <time>2021-07-22T07:50:20Z</time>
      </trkpt>
      <trkpt lat="42.339347" lon="-4.605900">
        <ele>836.079</ele>
        <time>2021-07-22T07:50:21Z</time>
      </trkpt>
      <trkpt lat="42.339345" lon="-4.605880">
        <ele>836.056</ele>
        <time>2021-07-22T07:50:22Z</time>
      </trkpt>
      <trkpt lat="42.339364" lon="-4.605687">
        <ele>836.459</ele>
        <time>2021-07-22T07:50:31Z</time>
      </trkpt>
      <trkpt lat="42.339387" lon="-4.605493">
        <ele>837.914</ele>
        <time>2021-07-22T07:50:40Z</time>
      </trkpt>
      <trkpt lat="42.339407" lon="-4.605312">
        <ele>839.808</ele>
        <time>2021-07-22T07:50:48Z</time>
      </trkpt>
      <trkpt lat="42.339466" lon="-4.605131">
        <ele>842.732</ele>
        <time>2021-07-22T07:50:57Z</time>
      </trkpt>
      <trkpt lat="42.339473" lon="-4.605120">
        <ele>842.784</ele>
        <time>2021-07-22T07:50:58Z</time>
      </trkpt>
      <trkpt lat="42.339487" lon="-4.605094">
        <ele>842.721</ele>
        <time>2021-07-22T07:51:00Z</time>
      </trkpt>
      <trkpt lat="42.339498" lon="-4.605084">
        <ele>842.751</ele>
        <time>2021-07-22T07:51:01Z</time>
      </trkpt>
      <trkpt lat="42.339510" lon="-4.605072">
        <ele>842.745</ele>
        <time>2021-07-22T07:51:02Z</time>
      </trkpt>
      <trkpt lat="42.339525" lon="-4.605063">
        <ele>843.263</ele>
        <time>2021-07-22T07:51:03Z</time>
      </trkpt>
      <trkpt lat="42.339591" lon="-4.605030">
        <ele>844.630</ele>
        <time>2021-07-22T07:51:09Z</time>
      </trkpt>
      <trkpt lat="42.339727" lon="-4.605040">
        <ele>846.538</ele>
        <time>2021-07-22T07:51:17Z</time>
      </trkpt>
      <trkpt lat="42.339902" lon="-4.605053">
        <ele>851.878</ele>
        <time>2021-07-22T07:51:26Z</time>
      </trkpt>
      <trkpt lat="42.340030" lon="-4.604979">
        <ele>848.533</ele>
        <time>2021-07-22T07:51:34Z</time>
      </trkpt>
      <trkpt lat="42.340170" lon="-4.604811">
        <ele>845.126</ele>
        <time>2021-07-22T07:51:44Z</time>
      </trkpt>
      <trkpt lat="42.340304" lon="-4.604669">
        <ele>844.108</ele>
        <time>2021-07-22T07:51:53Z</time>
      </trkpt>
      <trkpt lat="42.340411" lon="-4.604511">
        <ele>844.134</ele>
        <time>2021-07-22T07:52:02Z</time>
      </trkpt>
      <trkpt lat="42.340529" lon="-4.604326">
        <ele>844.696</ele>
        <time>2021-07-22T07:52:12Z</time>
      </trkpt>
      <trkpt lat="42.340547" lon="-4.604306">
        <ele>845.163</ele>
        <time>2021-07-22T07:52:18Z</time>
      </trkpt>
      <trkpt lat="42.340542" lon="-4.604311">
        <ele>845.693</ele>
        <time>2021-07-22T07:52:27Z</time>
      </trkpt>
      <trkpt lat="42.340529" lon="-4.604371">
        <ele>850.977</ele>
        <time>2021-07-22T07:52:49Z</time>
      </trkpt>
      <trkpt lat="42.340535" lon="-4.604372">
        <ele>851.355</ele>
        <time>2021-07-22T07:53:02Z</time>
      </trkpt>
      <trkpt lat="42.340556" lon="-4.604382">
        <ele>853.712</ele>
        <time>2021-07-22T07:53:16Z</time>
      </trkpt>
      <trkpt lat="42.340573" lon="-4.604407">
        <ele>856.640</ele>
        <time>2021-07-22T07:53:35Z</time>
      </trkpt>
      <trkpt lat="42.340556" lon="-4.604412">
        <ele>856.164</ele>
        <time>2021-07-22T07:54:00Z</time>
      </trkpt>
      <trkpt lat="42.340567" lon="-4.604421">
        <ele>856.106</ele>
        <time>2021-07-22T07:54:21Z</time>
      </trkpt>
      <trkpt lat="42.340571" lon="-4.604411">
        <ele>855.216</ele>
        <time>2021-07-22T07:54:49Z</time>
      </trkpt>
      <trkpt lat="42.340567" lon="-4.604405">
        <ele>853.708</ele>
        <time>2021-07-22T07:55:01Z</time>
      </trkpt>
      <trkpt lat="42.340559" lon="-4.604400">
        <ele>855.233</ele>
        <time>2021-07-22T07:55:22Z</time>
      </trkpt>
      <trkpt lat="42.340554" lon="-4.604400">
        <ele>857.125</ele>
        <time>2021-07-22T07:55:34Z</time>
      </trkpt>
      <trkpt lat="42.340556" lon="-4.604416">
        <ele>857.672</ele>
        <time>2021-07-22T07:55:45Z</time>
      </trkpt>
      <trkpt lat="42.340562" lon="-4.604371">
        <ele>851.832</ele>
        <time>2021-07-22T07:55:51Z</time>
      </trkpt>
      <trkpt lat="42.340560" lon="-4.604375">
        <ele>851.826</ele>
        <time>2021-07-22T07:55:52Z</time>
      </trkpt>
      <trkpt lat="42.340557" lon="-4.604421">
        <ele>849.924</ele>
        <time>2021-07-22T07:55:56Z</time>
      </trkpt>
      <trkpt lat="42.340537" lon="-4.604473">
        <ele>849.971</ele>
        <time>2021-07-22T07:55:59Z</time>
      </trkpt>
      <trkpt lat="42.340421" lon="-4.604577">
        <ele>848.019</ele>
        <time>2021-07-22T07:56:08Z</time>
      </trkpt>
      <trkpt lat="42.340321" lon="-4.604545">
        <ele>846.544</ele>
        <time>2021-07-22T07:56:14Z</time>
      </trkpt>
      <trkpt lat="42.340184" lon="-4.604415">
        <ele>845.105</ele>
        <time>2021-07-22T07:56:20Z</time>
      </trkpt>
      <trkpt lat="42.340041" lon="-4.604277">
        <ele>845.115</ele>
        <time>2021-07-22T07:56:27Z</time>
      </trkpt>
      <trkpt lat="42.339923" lon="-4.604144">
        <ele>845.108</ele>
        <time>2021-07-22T07:56:35Z</time>
      </trkpt>
      <trkpt lat="42.339829" lon="-4.604069">
        <ele>844.611</ele>
        <time>2021-07-22T07:56:43Z</time>
      </trkpt>
      <trkpt lat="42.339802" lon="-4.604057">
        <ele>844.123</ele>
        <time>2021-07-22T07:56:50Z</time>
      </trkpt>
      <trkpt lat="42.339686" lon="-4.604014">
        <ele>843.250</ele>
        <time>2021-07-22T07:56:58Z</time>
      </trkpt>
      <trkpt lat="42.339478" lon="-4.603951">
        <ele>843.220</ele>
        <time>2021-07-22T07:57:08Z</time>
      </trkpt>
      <trkpt lat="42.339292" lon="-4.603886">
        <ele>846.134</ele>
        <time>2021-07-22T07:57:19Z</time>
      </trkpt>
      <trkpt lat="42.339175" lon="-4.603852">
        <ele>846.522</ele>
        <time>2021-07-22T07:57:28Z</time>
      </trkpt>
      <trkpt lat="42.339111" lon="-4.603826">
        <ele>847.039</ele>
        <time>2021-07-22T07:57:33Z</time>
      </trkpt>
      <trkpt lat="42.339011" lon="-4.603787">
        <ele>848.587</ele>
        <time>2021-07-22T07:57:41Z</time>
      </trkpt>
      <trkpt lat="42.338867" lon="-4.603739">
        <ele>849.986</ele>
        <time>2021-07-22T07:57:48Z</time>
      </trkpt>
      <trkpt lat="42.338756" lon="-4.603693">
        <ele>844.660</ele>
        <time>2021-07-22T07:57:55Z</time>
      </trkpt>
      <trkpt lat="42.338587" lon="-4.603701">
        <ele>841.726</ele>
        <time>2021-07-22T07:58:04Z</time>
      </trkpt>
      <trkpt lat="42.338514" lon="-4.603701">
        <ele>840.808</ele>
        <time>2021-07-22T07:58:09Z</time>
      </trkpt>
      <trkpt lat="42.338385" lon="-4.603681">
        <ele>840.355</ele>
        <time>2021-07-22T07:58:15Z</time>
      </trkpt>
      <trkpt lat="42.338340" lon="-4.603681">
        <ele>841.297</ele>
        <time>2021-07-22T07:58:21Z</time>
      </trkpt>
      <trkpt lat="42.338306" lon="-4.603673">
        <ele>843.284</ele>
        <time>2021-07-22T07:58:38Z</time>
      </trkpt>
      <trkpt lat="42.338223" lon="-4.603670">
        <ele>844.114</ele>
        <time>2021-07-22T07:58:45Z</time>
      </trkpt>
      <trkpt lat="42.338218" lon="-4.603649">
        <ele>845.678</ele>
        <time>2021-07-22T07:58:58Z</time>
      </trkpt>
      <trkpt lat="42.338218" lon="-4.603661">
        <ele>847.596</ele>
        <time>2021-07-22T07:59:09Z</time>
      </trkpt>
      <trkpt lat="42.338101" lon="-4.603671">
        <ele>844.673</ele>
        <time>2021-07-22T07:59:19Z</time>
      </trkpt>
      <trkpt lat="42.338087" lon="-4.603660">
        <ele>845.181</ele>
        <time>2021-07-22T07:59:27Z</time>
      </trkpt>
      <trkpt lat="42.338094" lon="-4.603638">
        <ele>844.668</ele>
        <time>2021-07-22T07:59:33Z</time>
      </trkpt>
      <trkpt lat="42.338097" lon="-4.603610">
        <ele>844.642</ele>
        <time>2021-07-22T07:59:38Z</time>
      </trkpt>
      <trkpt lat="42.338132" lon="-4.603442">
        <ele>844.126</ele>
        <time>2021-07-22T07:59:49Z</time>
      </trkpt>
      <trkpt lat="42.338156" lon="-4.603325">
        <ele>843.208</ele>
        <time>2021-07-22T07:59:57Z</time>
      </trkpt>
      <trkpt lat="42.338179" lon="-4.603320">
        <ele>842.293</ele>
        <time>2021-07-22T08:00:12Z</time>
      </trkpt>
      <trkpt lat="42.338212" lon="-4.603338">
        <ele>840.865</ele>
        <time>2021-07-22T08:00:34Z</time>
      </trkpt>
      <trkpt lat="42.338212" lon="-4.603326">
        <ele>840.822</ele>
        <time>2021-07-22T08:00:50Z</time>
      </trkpt>
      <trkpt lat="42.338208" lon="-4.603318">
        <ele>840.852</ele>
        <time>2021-07-22T08:00:52Z</time>
      </trkpt>
      <trkpt lat="42.338191" lon="-4.603330">
        <ele>842.226</ele>
        <time>2021-07-22T08:00:55Z</time>
      </trkpt>
      <trkpt lat="42.338172" lon="-4.603376">
        <ele>844.614</ele>
        <time>2021-07-22T08:00:59Z</time>
      </trkpt>
      <trkpt lat="42.338159" lon="-4.603413">
        <ele>845.191</ele>
        <time>2021-07-22T08:01:02Z</time>
      </trkpt>
      <trkpt lat="42.338156" lon="-4.603574">
        <ele>846.189</ele>
        <time>2021-07-22T08:01:13Z</time>
      </trkpt>
      <trkpt lat="42.338113" lon="-4.603635">
        <ele>847.013</ele>
        <time>2021-07-22T08:01:19Z</time>
      </trkpt>
      <trkpt lat="42.338056" lon="-4.603716">
        <ele>847.543</ele>
        <time>2021-07-22T08:01:26Z</time>
      </trkpt>
      <trkpt lat="42.338054" lon="-4.603747">
        <ele>845.607</ele>
        <time>2021-07-22T08:01:34Z</time>
      </trkpt>
      <trkpt lat="42.338058" lon="-4.603711">
        <ele>842.708</ele>
        <time>2021-07-22T08:01:48Z</time>
      </trkpt>
      <trkpt lat="42.338062" lon="-4.603721">
        <ele>839.398</ele>
        <time>2021-07-22T08:02:04Z</time>
      </trkpt>
      <trkpt lat="42.338061" lon="-4.603734">
        <ele>838.850</ele>
        <time>2021-07-22T08:02:23Z</time>
      </trkpt>
      <trkpt lat="42.338056" lon="-4.603745">
        <ele>838.497</ele>
        <time>2021-07-22T08:02:33Z</time>
      </trkpt>
      <trkpt lat="42.337953" lon="-4.603703">
        <ele>839.327</ele>
        <time>2021-07-22T08:02:40Z</time>
      </trkpt>
      <trkpt lat="42.337799" lon="-4.603661">
        <ele>839.821</ele>
        <time>2021-07-22T08:02:48Z</time>
      </trkpt>
      <trkpt lat="42.337665" lon="-4.603565">
        <ele>841.789</ele>
        <time>2021-07-22T08:02:56Z</time>
      </trkpt>
      <trkpt lat="42.337578" lon="-4.603401">
        <ele>843.266</ele>
        <time>2021-07-22T08:03:03Z</time>
      </trkpt>
      <trkpt lat="42.337481" lon="-4.603160">
        <ele>844.144</ele>
        <time>2021-07-22T08:03:13Z</time>
      </trkpt>
      <trkpt lat="42.337490" lon="-4.603036">
        <ele>841.779</ele>
        <time>2021-07-22T08:03:18Z</time>
      </trkpt>
      <trkpt lat="42.337413" lon="-4.602715">
        <ele>841.705</ele>
        <time>2021-07-22T08:03:27Z</time>
      </trkpt>
      <trkpt lat="42.337337" lon="-4.602403">
        <ele>843.625</ele>
        <time>2021-07-22T08:03:37Z</time>
      </trkpt>
      <trkpt lat="42.337314" lon="-4.602194">
        <ele>844.608</ele>
        <time>2021-07-22T08:03:45Z</time>
      </trkpt>
      <trkpt lat="42.337269" lon="-4.601955">
        <ele>845.144</ele>
        <time>2021-07-22T08:03:54Z</time>
      </trkpt>
      <trkpt lat="42.337230" lon="-4.601753">
        <ele>842.786</ele>
        <time>2021-07-22T08:04:03Z</time>
      </trkpt>
      <trkpt lat="42.337191" lon="-4.601528">
        <ele>840.873</ele>
        <time>2021-07-22T08:04:12Z</time>
      </trkpt>
      <trkpt lat="42.337165" lon="-4.601344">
        <ele>842.253</ele>
        <time>2021-07-22T08:04:18Z</time>
      </trkpt>
      <trkpt lat="42.337137" lon="-4.601235">
        <ele>842.767</ele>
        <time>2021-07-22T08:04:24Z</time>
      </trkpt>
      <trkpt lat="42.337123" lon="-4.601225">
        <ele>843.285</ele>
        <time>2021-07-22T08:04:34Z</time>
      </trkpt>
      <trkpt lat="42.337097" lon="-4.601176">
        <ele>843.272</ele>
        <time>2021-07-22T08:04:40Z</time>
      </trkpt>
      <trkpt lat="42.337099" lon="-4.601117">
        <ele>843.670</ele>
        <time>2021-07-22T08:04:47Z</time>
      </trkpt>
      <trkpt lat="42.337119" lon="-4.601127">
        <ele>843.235</ele>
        <time>2021-07-22T08:04:55Z</time>
      </trkpt>
      <trkpt lat="42.337128" lon="-4.601137">
        <ele>842.286</ele>
        <time>2021-07-22T08:05:03Z</time>
      </trkpt>
      <trkpt lat="42.337122" lon="-4.601133">
        <ele>840.814</ele>
        <time>2021-07-22T08:05:09Z</time>
      </trkpt>
      <trkpt lat="42.337143" lon="-4.601110">
        <ele>839.808</ele>
        <time>2021-07-22T08:05:23Z</time>
      </trkpt>
      <trkpt lat="42.337145" lon="-4.601117">
        <ele>839.850</ele>
        <time>2021-07-22T08:05:31Z</time>
      </trkpt>
      <trkpt lat="42.337131" lon="-4.601121">
        <ele>840.382</ele>
        <time>2021-07-22T08:05:40Z</time>
      </trkpt>
      <trkpt lat="42.337149" lon="-4.601120">
        <ele>842.279</ele>
        <time>2021-07-22T08:05:50Z</time>
      </trkpt>
      <trkpt lat="42.337197" lon="-4.601122">
        <ele>843.289</ele>
        <time>2021-07-22T08:06:03Z</time>
      </trkpt>
      <trkpt lat="42.337188" lon="-4.601133">
        <ele>843.293</ele>
        <time>2021-07-22T08:06:13Z</time>
      </trkpt>
      <trkpt lat="42.337183" lon="-4.601126">
        <ele>841.761</ele>
        <time>2021-07-22T08:06:19Z</time>
      </trkpt>
      <trkpt lat="42.337191" lon="-4.601120">
        <ele>840.378</ele>
        <time>2021-07-22T08:06:26Z</time>
      </trkpt>
      <trkpt lat="42.337181" lon="-4.601107">
        <ele>838.466</ele>
        <time>2021-07-22T08:06:38Z</time>
      </trkpt>
      <trkpt lat="42.337145" lon="-4.601114">
        <ele>837.969</ele>
        <time>2021-07-22T08:06:50Z</time>
      </trkpt>
      <trkpt lat="42.337133" lon="-4.601116">
        <ele>838.404</ele>
        <time>2021-07-22T08:06:58Z</time>
      </trkpt>
      <trkpt lat="42.337140" lon="-4.601114">
        <ele>839.824</ele>
        <time>2021-07-22T08:07:08Z</time>
      </trkpt>
      <trkpt lat="42.337120" lon="-4.601120">
        <ele>840.308</ele>
        <time>2021-07-22T08:07:19Z</time>
      </trkpt>
      <trkpt lat="42.337120" lon="-4.601090">
        <ele>840.393</ele>
        <time>2021-07-22T08:07:27Z</time>
      </trkpt>
      <trkpt lat="42.337118" lon="-4.601044">
        <ele>840.315</ele>
        <time>2021-07-22T08:07:34Z</time>
      </trkpt>
      <trkpt lat="42.337079" lon="-4.600966">
        <ele>839.322</ele>
        <time>2021-07-22T08:07:42Z</time>
      </trkpt>
      <trkpt lat="42.337076" lon="-4.600958">
        <ele>839.842</ele>
        <time>2021-07-22T08:07:47Z</time>
      </trkpt>
      <trkpt lat="42.337076" lon="-4.600956">
        <ele>839.316</ele>
        <time>2021-07-22T08:07:50Z</time>
      </trkpt>
      <trkpt lat="42.337171" lon="-4.600840">
        <ele>839.394</ele>
        <time>2021-07-22T08:07:56Z</time>
      </trkpt>
      <trkpt lat="42.337240" lon="-4.600591">
        <ele>837.951</ele>
        <time>2021-07-22T08:08:02Z</time>
      </trkpt>
      <trkpt lat="42.337282" lon="-4.600154">
        <ele>836.099</ele>
        <time>2021-07-22T08:08:11Z</time>
      </trkpt>
      <trkpt lat="42.337367" lon="-4.599603">
        <ele>834.043</ele>
        <time>2021-07-22T08:08:23Z</time>
      </trkpt>
      <trkpt lat="42.337391" lon="-4.599373">
        <ele>833.164</ele>
        <time>2021-07-22T08:08:29Z</time>
      </trkpt>
      <trkpt lat="42.337391" lon="-4.599348">
        <ele>833.110</ele>
        <time>2021-07-22T08:08:30Z</time>
      </trkpt>
      <trkpt lat="42.337399" lon="-4.599283">
        <ele>833.108</ele>
        <time>2021-07-22T08:08:33Z</time>
      </trkpt>
      <trkpt lat="42.337414" lon="-4.599274">
        <ele>833.121</ele>
        <time>2021-07-22T08:08:34Z</time>
      </trkpt>
      <trkpt lat="42.337430" lon="-4.599279">
        <ele>833.133</ele>
        <time>2021-07-22T08:08:35Z</time>
      </trkpt>
      <trkpt lat="42.337450" lon="-4.599293">
        <ele>833.180</ele>
        <time>2021-07-22T08:08:36Z</time>
      </trkpt>
      <trkpt lat="42.337469" lon="-4.599311">
        <ele>833.130</ele>
        <time>2021-07-22T08:08:37Z</time>
      </trkpt>
      <trkpt lat="42.337489" lon="-4.599335">
        <ele>833.684</ele>
        <time>2021-07-22T08:08:38Z</time>
      </trkpt>
      <trkpt lat="42.337654" lon="-4.599399">
        <ele>835.042</ele>
        <time>2021-07-22T08:08:44Z</time>
      </trkpt>
      <trkpt lat="42.337904" lon="-4.599341">
        <ele>836.469</ele>
        <time>2021-07-22T08:08:53Z</time>
      </trkpt>
      <trkpt lat="42.337919" lon="-4.599331">
        <ele>838.497</ele>
        <time>2021-07-22T08:08:58Z</time>
      </trkpt>
      <trkpt lat="42.337918" lon="-4.599333">
        <ele>840.347</ele>
        <time>2021-07-22T08:09:09Z</time>
      </trkpt>
      <trkpt lat="42.337909" lon="-4.599359">
        <ele>841.729</ele>
        <time>2021-07-22T08:09:22Z</time>
      </trkpt>
      <trkpt lat="42.337896" lon="-4.599359">
        <ele>843.221</ele>
        <time>2021-07-22T08:09:42Z</time>
      </trkpt>
      <trkpt lat="42.337907" lon="-4.599361">
        <ele>844.608</ele>
        <time>2021-07-22T08:09:55Z</time>
      </trkpt>
      <trkpt lat="42.337892" lon="-4.599340">
        <ele>844.641</ele>
        <time>2021-07-22T08:10:16Z</time>
      </trkpt>
      <trkpt lat="42.337892" lon="-4.599353">
        <ele>845.193</ele>
        <time>2021-07-22T08:10:32Z</time>
      </trkpt>
      <trkpt lat="42.337890" lon="-4.599376">
        <ele>844.610</ele>
        <time>2021-07-22T08:11:00Z</time>
      </trkpt>
      <trkpt lat="42.337889" lon="-4.599362">
        <ele>845.120</ele>
        <time>2021-07-22T08:11:30Z</time>
      </trkpt>
      <trkpt lat="42.337896" lon="-4.599392">
        <ele>844.174</ele>
        <time>2021-07-22T08:11:51Z</time>
      </trkpt>
      <trkpt lat="42.337901" lon="-4.599400">
        <ele>843.672</ele>
        <time>2021-07-22T08:12:12Z</time>
      </trkpt>
      <trkpt lat="42.337901" lon="-4.599392">
        <ele>842.279</ele>
        <time>2021-07-22T08:12:39Z</time>
      </trkpt>
      <trkpt lat="42.337917" lon="-4.599397">
        <ele>841.277</ele>
        <time>2021-07-22T08:13:12Z</time>
      </trkpt>
      <trkpt lat="42.337895" lon="-4.599380">
        <ele>843.688</ele>
        <time>2021-07-22T08:13:31Z</time>
      </trkpt>
      <trkpt lat="42.337886" lon="-4.599341">
        <ele>844.124</ele>
        <time>2021-07-22T08:13:48Z</time>
      </trkpt>
      <trkpt lat="42.337893" lon="-4.599351">
        <ele>841.726</ele>
        <time>2021-07-22T08:14:07Z</time>
      </trkpt>
      <trkpt lat="42.337889" lon="-4.599350">
        <ele>844.608</ele>
        <time>2021-07-22T08:14:26Z</time>
      </trkpt>
      <trkpt lat="42.337876" lon="-4.599346">
        <ele>845.615</ele>
        <time>2021-07-22T08:14:52Z</time>
      </trkpt>
      <trkpt lat="42.337859" lon="-4.599340">
        <ele>844.197</ele>
        <time>2021-07-22T08:15:15Z</time>
      </trkpt>
      <trkpt lat="42.337882" lon="-4.599344">
        <ele>842.254</ele>
        <time>2021-07-22T08:15:33Z</time>
      </trkpt>
      <trkpt lat="42.337884" lon="-4.599337">
        <ele>840.894</ele>
        <time>2021-07-22T08:15:54Z</time>
      </trkpt>
      <trkpt lat="42.337882" lon="-4.599345">
        <ele>842.258</ele>
        <time>2021-07-22T08:16:20Z</time>
      </trkpt>
      <trkpt lat="42.337979" lon="-4.599345">
        <ele>843.696</ele>
        <time>2021-07-22T08:16:28Z</time>
      </trkpt>
      <trkpt lat="42.338116" lon="-4.599263">
        <ele>843.613</ele>
        <time>2021-07-22T08:16:38Z</time>
      </trkpt>
      <trkpt lat="42.338136" lon="-4.599217">
        <ele>844.611</ele>
        <time>2021-07-22T08:16:45Z</time>
      </trkpt>
      <trkpt lat="42.338150" lon="-4.599192">
        <ele>841.289</ele>
        <time>2021-07-22T08:17:00Z</time>
      </trkpt>
      <trkpt lat="42.338148" lon="-4.599207">
        <ele>840.306</ele>
        <time>2021-07-22T08:17:19Z</time>
      </trkpt>
      <trkpt lat="42.338133" lon="-4.599211">
        <ele>838.826</ele>
        <time>2021-07-22T08:17:36Z</time>
      </trkpt>
      <trkpt lat="42.338149" lon="-4.599211">
        <ele>838.408</ele>
        <time>2021-07-22T08:17:56Z</time>
      </trkpt>
      <trkpt lat="42.338154" lon="-4.599223">
        <ele>836.435</ele>
        <time>2021-07-22T08:18:12Z</time>
      </trkpt>
      <trkpt lat="42.338152" lon="-4.599224">
        <ele>838.817</ele>
        <time>2021-07-22T08:18:31Z</time>
      </trkpt>
      <trkpt lat="42.338162" lon="-4.599218">
        <ele>836.464</ele>
        <time>2021-07-22T08:18:53Z</time>
      </trkpt>
      <trkpt lat="42.338157" lon="-4.599212">
        <ele>836.064</ele>
        <time>2021-07-22T08:19:11Z</time>
      </trkpt>
      <trkpt lat="42.338156" lon="-4.599222">
        <ele>836.998</ele>
        <time>2021-07-22T08:19:26Z</time>
      </trkpt>
      <trkpt lat="42.338152" lon="-4.599235">
        <ele>839.876</ele>
        <time>2021-07-22T08:19:45Z</time>
      </trkpt>
      <trkpt lat="42.338145" lon="-4.599237">
        <ele>838.873</ele>
        <time>2021-07-22T08:20:06Z</time>
      </trkpt>
      <trkpt lat="42.338150" lon="-4.599221">
        <ele>841.261</ele>
        <time>2021-07-22T08:20:25Z</time>
      </trkpt>
      <trkpt lat="42.338148" lon="-4.599249">
        <ele>840.313</ele>
        <time>2021-07-22T08:20:43Z</time>
      </trkpt>
      <trkpt lat="42.338151" lon="-4.599247">
        <ele>839.843</ele>
        <time>2021-07-22T08:20:58Z</time>
      </trkpt>
      <trkpt lat="42.338169" lon="-4.599264">
        <ele>840.307</ele>
        <time>2021-07-22T08:21:17Z</time>
      </trkpt>
      <trkpt lat="42.338154" lon="-4.599214">
        <ele>841.208</ele>
        <time>2021-07-22T08:21:43Z</time>
      </trkpt>
      <trkpt lat="42.338140" lon="-4.599242">
        <ele>841.218</ele>
        <time>2021-07-22T08:22:02Z</time>
      </trkpt>
      <trkpt lat="42.338135" lon="-4.599224">
        <ele>838.810</ele>
        <time>2021-07-22T08:22:21Z</time>
      </trkpt>
      <trkpt lat="42.338140" lon="-4.599230">
        <ele>838.427</ele>
        <time>2021-07-22T08:22:35Z</time>
      </trkpt>
      <trkpt lat="42.338128" lon="-4.599222">
        <ele>836.927</ele>
        <time>2021-07-22T08:22:55Z</time>
      </trkpt>
      <trkpt lat="42.338127" lon="-4.599223">
        <ele>839.851</ele>
        <time>2021-07-22T08:23:11Z</time>
      </trkpt>
      <trkpt lat="42.338145" lon="-4.599186">
        <ele>840.819</ele>
        <time>2021-07-22T08:23:31Z</time>
      </trkpt>
      <trkpt lat="42.338156" lon="-4.599187">
        <ele>839.386</ele>
        <time>2021-07-22T08:23:48Z</time>
      </trkpt>
      <trkpt lat="42.338151" lon="-4.599211">
        <ele>839.364</ele>
        <time>2021-07-22T08:24:08Z</time>
      </trkpt>
      <trkpt lat="42.338143" lon="-4.599233">
        <ele>840.866</ele>
        <time>2021-07-22T08:24:31Z</time>
      </trkpt>
      <trkpt lat="42.338152" lon="-4.599215">
        <ele>842.229</ele>
        <time>2021-07-22T08:24:52Z</time>
      </trkpt>
      <trkpt lat="42.338142" lon="-4.599212">
        <ele>839.321</ele>
        <time>2021-07-22T08:25:18Z</time>
      </trkpt>
      <trkpt lat="42.338153" lon="-4.599202">
        <ele>836.008</ele>
        <time>2021-07-22T08:25:42Z</time>
      </trkpt>
      <trkpt lat="42.338171" lon="-4.599194">
        <ele>834.043</ele>
        <time>2021-07-22T08:26:00Z</time>
      </trkpt>
      <trkpt lat="42.338173" lon="-4.599220">
        <ele>836.925</ele>
        <time>2021-07-22T08:26:17Z</time>
      </trkpt>
      <trkpt lat="42.338168" lon="-4.599210">
        <ele>835.542</ele>
        <time>2021-07-22T08:26:32Z</time>
      </trkpt>
      <trkpt lat="42.338174" lon="-4.599243">
        <ele>835.552</ele>
        <time>2021-07-22T08:26:50Z</time>
      </trkpt>
      <trkpt lat="42.338160" lon="-4.599228">
        <ele>834.526</ele>
        <time>2021-07-22T08:27:09Z</time>
      </trkpt>
      <trkpt lat="42.338147" lon="-4.599215">
        <ele>836.924</ele>
        <time>2021-07-22T08:27:27Z</time>
      </trkpt>
      <trkpt lat="42.338138" lon="-4.599207">
        <ele>836.011</ele>
        <time>2021-07-22T08:27:42Z</time>
      </trkpt>
      <trkpt lat="42.338140" lon="-4.599187">
        <ele>836.099</ele>
        <time>2021-07-22T08:28:06Z</time>
      </trkpt>
      <trkpt lat="42.338158" lon="-4.599202">
        <ele>836.476</ele>
        <time>2021-07-22T08:28:24Z</time>
      </trkpt>
      <trkpt lat="42.338182" lon="-4.599217">
        <ele>835.090</ele>
        <time>2021-07-22T08:28:41Z</time>
      </trkpt>
      <trkpt lat="42.338184" lon="-4.599208">
        <ele>834.019</ele>
        <time>2021-07-22T08:28:55Z</time>
      </trkpt>
      <trkpt lat="42.338173" lon="-4.599204">
        <ele>834.508</ele>
        <time>2021-07-22T08:29:12Z</time>
      </trkpt>
      <trkpt lat="42.338168" lon="-4.599203">
        <ele>835.064</ele>
        <time>2021-07-22T08:29:28Z</time>
      </trkpt>
      <trkpt lat="42.338164" lon="-4.599184">
        <ele>834.526</ele>
        <time>2021-07-22T08:29:46Z</time>
      </trkpt>
      <trkpt lat="42.338159" lon="-4.599181">
        <ele>837.453</ele>
        <time>2021-07-22T08:30:03Z</time>
      </trkpt>
      <trkpt lat="42.338157" lon="-4.599175">
        <ele>838.423</ele>
        <time>2021-07-22T08:30:17Z</time>
      </trkpt>
      <trkpt lat="42.338161" lon="-4.599187">
        <ele>837.917</ele>
        <time>2021-07-22T08:30:29Z</time>
      </trkpt>
      <trkpt lat="42.338155" lon="-4.599203">
        <ele>836.485</ele>
        <time>2021-07-22T08:30:49Z</time>
      </trkpt>
      <trkpt lat="42.338127" lon="-4.599239">
        <ele>837.452</ele>
        <time>2021-07-22T08:30:56Z</time>
      </trkpt>
      <trkpt lat="42.338117" lon="-4.599256">
        <ele>837.950</ele>
        <time>2021-07-22T08:30:58Z</time>
      </trkpt>
      <trkpt lat="42.338110" lon="-4.599275">
        <ele>837.479</ele>
        <time>2021-07-22T08:31:06Z</time>
      </trkpt>
      <trkpt lat="42.338059" lon="-4.599324">
        <ele>837.405</ele>
        <time>2021-07-22T08:31:15Z</time>
      </trkpt>
      <trkpt lat="42.337863" lon="-4.599405">
        <ele>836.925</ele>
        <time>2021-07-22T08:31:25Z</time>
      </trkpt>
      <trkpt lat="42.337660" lon="-4.599443">
        <ele>835.508</ele>
        <time>2021-07-22T08:31:33Z</time>
      </trkpt>
      <trkpt lat="42.337459" lon="-4.599430">
        <ele>835.554</ele>
        <time>2021-07-22T08:31:41Z</time>
      </trkpt>
      <trkpt lat="42.337335" lon="-4.599394">
        <ele>836.086</ele>
        <time>2021-07-22T08:31:47Z</time>
      </trkpt>
      <trkpt lat="42.337083" lon="-4.599377">
        <ele>836.013</ele>
        <time>2021-07-22T08:31:56Z</time>
      </trkpt>
      <trkpt lat="42.336926" lon="-4.599278">
        <ele>835.093</ele>
        <time>2021-07-22T08:32:04Z</time>
      </trkpt>
      <trkpt lat="42.336920" lon="-4.599249">
        <ele>835.077</ele>
        <time>2021-07-22T08:32:05Z</time>
      </trkpt>
      <trkpt lat="42.336956" lon="-4.598997">
        <ele>834.045</ele>
        <time>2021-07-22T08:32:14Z</time>
      </trkpt>
      <trkpt lat="42.336967" lon="-4.598815">
        <ele>833.682</ele>
        <time>2021-07-22T08:32:22Z</time>
      </trkpt>
      <trkpt lat="42.337008" lon="-4.598593">
        <ele>832.660</ele>
        <time>2021-07-22T08:32:31Z</time>
      </trkpt>
      <trkpt lat="42.337034" lon="-4.598405">
        <ele>832.611</ele>
        <time>2021-07-22T08:32:40Z</time>
      </trkpt>
      <trkpt lat="42.337036" lon="-4.598336">
        <ele>832.121</ele>
        <time>2021-07-22T08:32:47Z</time>
      </trkpt>
      <trkpt lat="42.337036" lon="-4.598343">
        <ele>833.103</ele>
        <time>2021-07-22T08:32:55Z</time>
      </trkpt>
      <trkpt lat="42.337038" lon="-4.598341">
        <ele>833.108</ele>
        <time>2021-07-22T08:33:11Z</time>
      </trkpt>
      <trkpt lat="42.337034" lon="-4.598334">
        <ele>833.168</ele>
        <time>2021-07-22T08:33:14Z</time>
      </trkpt>
      <trkpt lat="42.337119" lon="-4.598343">
        <ele>832.180</ele>
        <time>2021-07-22T08:33:22Z</time>
      </trkpt>
      <trkpt lat="42.337148" lon="-4.598347">
        <ele>833.137</ele>
        <time>2021-07-22T08:33:28Z</time>
      </trkpt>
      <trkpt lat="42.337159" lon="-4.598336">
        <ele>835.037</ele>
        <time>2021-07-22T08:33:41Z</time>
      </trkpt>
      <trkpt lat="42.337136" lon="-4.598379">
        <ele>836.421</ele>
        <time>2021-07-22T08:33:57Z</time>
      </trkpt>
      <trkpt lat="42.337143" lon="-4.598351">
        <ele>835.579</ele>
        <time>2021-07-22T08:34:06Z</time>
      </trkpt>
      <trkpt lat="42.337136" lon="-4.598305">
        <ele>835.046</ele>
        <time>2021-07-22T08:34:12Z</time>
      </trkpt>
      <trkpt lat="42.337132" lon="-4.598306">
        <ele>835.094</ele>
        <time>2021-07-22T08:34:13Z</time>
      </trkpt>
      <trkpt lat="42.337160" lon="-4.598195">
        <ele>835.536</ele>
        <time>2021-07-22T08:34:18Z</time>
      </trkpt>
      <trkpt lat="42.337273" lon="-4.597798">
        <ele>834.017</ele>
        <time>2021-07-22T08:34:28Z</time>
      </trkpt>
      <trkpt lat="42.337377" lon="-4.597429">
        <ele>832.618</ele>
        <time>2021-07-22T08:34:38Z</time>
      </trkpt>
      <trkpt lat="42.337375" lon="-4.597140">
        <ele>832.108</ele>
        <time>2021-07-22T08:34:45Z</time>
      </trkpt>
      <trkpt lat="42.337376" lon="-4.596845">
        <ele>831.610</ele>
        <time>2021-07-22T08:34:53Z</time>
      </trkpt>
      <trkpt lat="42.337384" lon="-4.596827">
        <ele>832.142</ele>
        <time>2021-07-22T08:34:54Z</time>
      </trkpt>
      <trkpt lat="42.337397" lon="-4.596819">
        <ele>832.179</ele>
        <time>2021-07-22T08:34:55Z</time>
      </trkpt>
      <trkpt lat="42.337405" lon="-4.596824">
        <ele>831.269</ele>
        <time>2021-07-22T08:35:00Z</time>
      </trkpt>
      <trkpt lat="42.337424" lon="-4.596836">
        <ele>830.213</ele>
        <time>2021-07-22T08:35:09Z</time>
      </trkpt>
      <trkpt lat="42.337419" lon="-4.596833">
        <ele>830.221</ele>
        <time>2021-07-22T08:35:16Z</time>
      </trkpt>
      <trkpt lat="42.337403" lon="-4.596835">
        <ele>828.738</ele>
        <time>2021-07-22T08:35:35Z</time>
      </trkpt>
      <trkpt lat="42.337413" lon="-4.596857">
        <ele>828.766</ele>
        <time>2021-07-22T08:35:51Z</time>
      </trkpt>
      <trkpt lat="42.337416" lon="-4.596850">
        <ele>828.326</ele>
        <time>2021-07-22T08:36:04Z</time>
      </trkpt>
      <trkpt lat="42.337419" lon="-4.596856">
        <ele>828.747</ele>
        <time>2021-07-22T08:36:20Z</time>
      </trkpt>
      <trkpt lat="42.337416" lon="-4.596877">
        <ele>830.211</ele>
        <time>2021-07-22T08:36:34Z</time>
      </trkpt>
      <trkpt lat="42.337416" lon="-4.596879">
        <ele>830.708</ele>
        <time>2021-07-22T08:36:48Z</time>
      </trkpt>
      <trkpt lat="42.337414" lon="-4.596868">
        <ele>831.269</ele>
        <time>2021-07-22T08:36:55Z</time>
      </trkpt>
      <trkpt lat="42.337396" lon="-4.596841">
        <ele>831.271</ele>
        <time>2021-07-22T08:37:02Z</time>
      </trkpt>
      <trkpt lat="42.337393" lon="-4.596831">
        <ele>831.248</ele>
        <time>2021-07-22T08:37:04Z</time>
      </trkpt>
      <trkpt lat="42.337369" lon="-4.596642">
        <ele>830.778</ele>
        <time>2021-07-22T08:37:13Z</time>
      </trkpt>
      <trkpt lat="42.337336" lon="-4.596355">
        <ele>831.292</ele>
        <time>2021-07-22T08:37:22Z</time>
      </trkpt>
      <trkpt lat="42.337177" lon="-4.596073">
        <ele>831.610</ele>
        <time>2021-07-22T08:37:31Z</time>
      </trkpt>
      <trkpt lat="42.336979" lon="-4.595757">
        <ele>831.617</ele>
        <time>2021-07-22T08:37:40Z</time>
      </trkpt>
      <trkpt lat="42.336750" lon="-4.595369">
        <ele>830.775</ele>
        <time>2021-07-22T08:37:50Z</time>
      </trkpt>
      <trkpt lat="42.336532" lon="-4.594979">
        <ele>830.268</ele>
        <time>2021-07-22T08:37:59Z</time>
      </trkpt>
      <trkpt lat="42.336256" lon="-4.594443">
        <ele>829.742</ele>
        <time>2021-07-22T08:38:11Z</time>
      </trkpt>
      <trkpt lat="42.336004" lon="-4.593947">
        <ele>829.726</ele>
        <time>2021-07-22T08:38:22Z</time>
      </trkpt>
      <trkpt lat="42.335703" lon="-4.593376">
        <ele>829.708</ele>
        <time>2021-07-22T08:38:35Z</time>
      </trkpt>
      <trkpt lat="42.335481" lon="-4.592952">
        <ele>830.213</ele>
        <time>2021-07-22T08:38:45Z</time>
      </trkpt>
      <trkpt lat="42.335270" lon="-4.592531">
        <ele>829.795</ele>
        <time>2021-07-22T08:38:55Z</time>
      </trkpt>
      <trkpt lat="42.335070" lon="-4.592146">
        <ele>829.722</ele>
        <time>2021-07-22T08:39:04Z</time>
      </trkpt>
      <trkpt lat="42.334833" lon="-4.591684">
        <ele>829.752</ele>
        <time>2021-07-22T08:39:15Z</time>
      </trkpt>
      <trkpt lat="42.334590" lon="-4.591202">
        <ele>829.756</ele>
        <time>2021-07-22T08:39:26Z</time>
      </trkpt>
      <trkpt lat="42.334345" lon="-4.590727">
        <ele>829.734</ele>
        <time>2021-07-22T08:39:37Z</time>
      </trkpt>
      <trkpt lat="42.334151" lon="-4.590349">
        <ele>830.271</ele>
        <time>2021-07-22T08:39:46Z</time>
      </trkpt>
      <trkpt lat="42.333936" lon="-4.589920">
        <ele>831.299</ele>
        <time>2021-07-22T08:39:57Z</time>
      </trkpt>
      <trkpt lat="42.333775" lon="-4.589607">
        <ele>832.642</ele>
        <time>2021-07-22T08:40:06Z</time>
      </trkpt>
      <trkpt lat="42.333570" lon="-4.589210">
        <ele>834.022</ele>
        <time>2021-07-22T08:40:18Z</time>
      </trkpt>
      <trkpt lat="42.333392" lon="-4.588866">
        <ele>835.014</ele>
        <time>2021-07-22T08:40:29Z</time>
      </trkpt>
      <trkpt lat="42.333213" lon="-4.588523">
        <ele>836.008</ele>
        <time>2021-07-22T08:40:39Z</time>
      </trkpt>
      <trkpt lat="42.333049" lon="-4.588205">
        <ele>836.911</ele>
        <time>2021-07-22T08:40:48Z</time>
      </trkpt>
      <trkpt lat="42.332863" lon="-4.587838">
        <ele>836.963</ele>
        <time>2021-07-22T08:40:58Z</time>
      </trkpt>
      <trkpt lat="42.332682" lon="-4.587486">
        <ele>837.490</ele>
        <time>2021-07-22T08:41:08Z</time>
      </trkpt>
      <trkpt lat="42.332514" lon="-4.587159">
        <ele>837.440</ele>
        <time>2021-07-22T08:41:17Z</time>
      </trkpt>
      <trkpt lat="42.332289" lon="-4.586722">
        <ele>837.454</ele>
        <time>2021-07-22T08:41:28Z</time>
      </trkpt>
      <trkpt lat="42.332033" lon="-4.586223">
        <ele>837.492</ele>
        <time>2021-07-22T08:41:41Z</time>
      </trkpt>
      <trkpt lat="42.331839" lon="-4.585843">
        <ele>837.429</ele>
        <time>2021-07-22T08:41:51Z</time>
      </trkpt>
      <trkpt lat="42.331642" lon="-4.585444">
        <ele>837.467</ele>
        <time>2021-07-22T08:42:01Z</time>
      </trkpt>
      <trkpt lat="42.331485" lon="-4.585153">
        <ele>837.977</ele>
        <time>2021-07-22T08:42:09Z</time>
      </trkpt>
      <trkpt lat="42.331277" lon="-4.584762">
        <ele>838.861</ele>
        <time>2021-07-22T08:42:20Z</time>
      </trkpt>
      <trkpt lat="42.331048" lon="-4.584325">
        <ele>839.827</ele>
        <time>2021-07-22T08:42:32Z</time>
      </trkpt>
      <trkpt lat="42.330872" lon="-4.583973">
        <ele>841.208</ele>
        <time>2021-07-22T08:42:42Z</time>
      </trkpt>
      <trkpt lat="42.330692" lon="-4.583615">
        <ele>841.714</ele>
        <time>2021-07-22T08:42:52Z</time>
      </trkpt>
      <trkpt lat="42.330473" lon="-4.583192">
        <ele>842.726</ele>
        <time>2021-07-22T08:43:04Z</time>
      </trkpt>
      <trkpt lat="42.330202" lon="-4.582665">
        <ele>843.253</ele>
        <time>2021-07-22T08:43:18Z</time>
      </trkpt>
      <trkpt lat="42.329977" lon="-4.582224">
        <ele>843.653</ele>
        <time>2021-07-22T08:43:29Z</time>
      </trkpt>
      <trkpt lat="42.329841" lon="-4.581964">
        <ele>844.147</ele>
        <time>2021-07-22T08:43:36Z</time>
      </trkpt>
      <trkpt lat="42.329684" lon="-4.581659">
        <ele>844.665</ele>
        <time>2021-07-22T08:43:45Z</time>
      </trkpt>
      <trkpt lat="42.329499" lon="-4.581298">
        <ele>845.162</ele>
        <time>2021-07-22T08:43:55Z</time>
      </trkpt>
      <trkpt lat="42.329322" lon="-4.580943">
        <ele>846.560</ele>
        <time>2021-07-22T08:44:05Z</time>
      </trkpt>
      <trkpt lat="42.329122" lon="-4.580553">
        <ele>846.559</ele>
        <time>2021-07-22T08:44:16Z</time>
      </trkpt>
      <trkpt lat="42.328950" lon="-4.580216">
        <ele>848.503</ele>
        <time>2021-07-22T08:44:26Z</time>
      </trkpt>
      <trkpt lat="42.328810" lon="-4.579963">
        <ele>848.923</ele>
        <time>2021-07-22T08:44:34Z</time>
      </trkpt>
      <trkpt lat="42.328610" lon="-4.579560">
        <ele>850.408</ele>
        <time>2021-07-22T08:44:46Z</time>
      </trkpt>
      <trkpt lat="42.328469" lon="-4.579272">
        <ele>850.922</ele>
        <time>2021-07-22T08:44:55Z</time>
      </trkpt>
      <trkpt lat="42.328303" lon="-4.578962">
        <ele>852.314</ele>
        <time>2021-07-22T08:45:05Z</time>
      </trkpt>
      <trkpt lat="42.328119" lon="-4.578611">
        <ele>853.351</ele>
        <time>2021-07-22T08:45:16Z</time>
      </trkpt>
      <trkpt lat="42.327922" lon="-4.578225">
        <ele>853.751</ele>
        <time>2021-07-22T08:45:27Z</time>
      </trkpt>
      <trkpt lat="42.327786" lon="-4.577968">
        <ele>853.365</ele>
        <time>2021-07-22T08:45:34Z</time>
      </trkpt>
      <trkpt lat="42.327553" lon="-4.577557">
        <ele>854.713</ele>
        <time>2021-07-22T08:45:45Z</time>
      </trkpt>
      <trkpt lat="42.327377" lon="-4.577179">
        <ele>853.780</ele>
        <time>2021-07-22T08:45:54Z</time>
      </trkpt>
      <trkpt lat="42.327132" lon="-4.576717">
        <ele>853.318</ele>
        <time>2021-07-22T08:46:04Z</time>
      </trkpt>
      <trkpt lat="42.326916" lon="-4.576312">
        <ele>853.338</ele>
        <time>2021-07-22T08:46:13Z</time>
      </trkpt>
      <trkpt lat="42.326680" lon="-4.575846">
        <ele>852.870</ele>
        <time>2021-07-22T08:46:23Z</time>
      </trkpt>
      <trkpt lat="42.326376" lon="-4.575284">
        <ele>852.817</ele>
        <time>2021-07-22T08:46:35Z</time>
      </trkpt>
      <trkpt lat="42.326145" lon="-4.574819">
        <ele>852.308</ele>
        <time>2021-07-22T08:46:45Z</time>
      </trkpt>
      <trkpt lat="42.325855" lon="-4.574251">
        <ele>851.330</ele>
        <time>2021-07-22T08:46:56Z</time>
      </trkpt>
      <trkpt lat="42.325553" lon="-4.573649">
        <ele>849.972</ele>
        <time>2021-07-22T08:47:07Z</time>
      </trkpt>
      <trkpt lat="42.325264" lon="-4.573115">
        <ele>849.999</ele>
        <time>2021-07-22T08:47:18Z</time>
      </trkpt>
      <trkpt lat="42.325033" lon="-4.572669">
        <ele>849.479</ele>
        <time>2021-07-22T08:47:27Z</time>
      </trkpt>
      <trkpt lat="42.324710" lon="-4.572045">
        <ele>849.913</ele>
        <time>2021-07-22T08:47:39Z</time>
      </trkpt>
      <trkpt lat="42.324494" lon="-4.571626">
        <ele>850.951</ele>
        <time>2021-07-22T08:47:48Z</time>
      </trkpt>
      <trkpt lat="42.324296" lon="-4.571230">
        <ele>850.488</ele>
        <time>2021-07-22T08:47:57Z</time>
      </trkpt>
      <trkpt lat="42.324017" lon="-4.570645">
        <ele>850.476</ele>
        <time>2021-07-22T08:48:10Z</time>
      </trkpt>
      <trkpt lat="42.323772" lon="-4.570100">
        <ele>849.928</ele>
        <time>2021-07-22T08:48:21Z</time>
      </trkpt>
      <trkpt lat="42.323536" lon="-4.569548">
        <ele>848.589</ele>
        <time>2021-07-22T08:48:31Z</time>
      </trkpt>
      <trkpt lat="42.323323" lon="-4.569038">
        <ele>847.017</ele>
        <time>2021-07-22T08:48:40Z</time>
      </trkpt>
      <trkpt lat="42.322946" lon="-4.568137">
        <ele>845.108</ele>
        <time>2021-07-22T08:48:54Z</time>
      </trkpt>
      <trkpt lat="42.322622" lon="-4.567377">
        <ele>842.789</ele>
        <time>2021-07-22T08:49:05Z</time>
      </trkpt>
      <trkpt lat="42.322342" lon="-4.566682">
        <ele>839.891</ele>
        <time>2021-07-22T08:49:13Z</time>
      </trkpt>
      <trkpt lat="42.322009" lon="-4.565697">
        <ele>836.458</ele>
        <time>2021-07-22T08:49:23Z</time>
      </trkpt>
      <trkpt lat="42.321671" lon="-4.564572">
        <ele>834.518</ele>
        <time>2021-07-22T08:49:35Z</time>
      </trkpt>
      <trkpt lat="42.321396" lon="-4.563681">
        <ele>830.712</ele>
        <time>2021-07-22T08:49:44Z</time>
      </trkpt>
      <trkpt lat="42.321101" lon="-4.562699">
        <ele>827.820</ele>
        <time>2021-07-22T08:49:53Z</time>
      </trkpt>
      <trkpt lat="42.320755" lon="-4.561600">
        <ele>825.927</ele>
        <time>2021-07-22T08:50:04Z</time>
      </trkpt>
      <trkpt lat="42.320546" lon="-4.560914">
        <ele>825.475</ele>
        <time>2021-07-22T08:50:12Z</time>
      </trkpt>
      <trkpt lat="42.320325" lon="-4.560181">
        <ele>824.942</ele>
        <time>2021-07-22T08:50:22Z</time>
      </trkpt>
      <trkpt lat="42.320010" lon="-4.559138">
        <ele>824.422</ele>
        <time>2021-07-22T08:50:36Z</time>
      </trkpt>
      <trkpt lat="42.319793" lon="-4.558437">
        <ele>823.514</ele>
        <time>2021-07-22T08:50:46Z</time>
      </trkpt>
      <trkpt lat="42.319506" lon="-4.557474">
        <ele>821.508</ele>
        <time>2021-07-22T08:50:59Z</time>
      </trkpt>
      <trkpt lat="42.319276" lon="-4.556745">
        <ele>820.681</ele>
        <time>2021-07-22T08:51:10Z</time>
      </trkpt>
      <trkpt lat="42.319018" lon="-4.555914">
        <ele>820.163</ele>
        <time>2021-07-22T08:51:22Z</time>
      </trkpt>
      <trkpt lat="42.318751" lon="-4.555033">
        <ele>819.140</ele>
        <time>2021-07-22T08:51:33Z</time>
      </trkpt>
      <trkpt lat="42.318496" lon="-4.554190">
        <ele>818.780</ele>
        <time>2021-07-22T08:51:44Z</time>
      </trkpt>
      <trkpt lat="42.318145" lon="-4.553056">
        <ele>817.714</ele>
        <time>2021-07-22T08:51:59Z</time>
      </trkpt>
      <trkpt lat="42.317910" lon="-4.552296">
        <ele>816.732</ele>
        <time>2021-07-22T08:52:09Z</time>
      </trkpt>
      <trkpt lat="42.317662" lon="-4.551465">
        <ele>815.899</ele>
        <time>2021-07-22T08:52:20Z</time>
      </trkpt>
      <trkpt lat="42.317384" lon="-4.550568">
        <ele>814.847</ele>
        <time>2021-07-22T08:52:33Z</time>
      </trkpt>
      <trkpt lat="42.317160" lon="-4.549836">
        <ele>813.876</ele>
        <time>2021-07-22T08:52:44Z</time>
      </trkpt>
      <trkpt lat="42.316879" lon="-4.548929">
        <ele>812.490</ele>
        <time>2021-07-22T08:52:59Z</time>
      </trkpt>
      <trkpt lat="42.316636" lon="-4.548142">
        <ele>811.419</ele>
        <time>2021-07-22T08:53:13Z</time>
      </trkpt>
      <trkpt lat="42.316476" lon="-4.547633">
        <ele>811.008</ele>
        <time>2021-07-22T08:53:24Z</time>
      </trkpt>
      <trkpt lat="42.316324" lon="-4.547147">
        <ele>809.064</ele>
        <time>2021-07-22T08:53:34Z</time>
      </trkpt>
      <trkpt lat="42.316158" lon="-4.546607">
        <ele>806.276</ele>
        <time>2021-07-22T08:53:42Z</time>
      </trkpt>
      <trkpt lat="42.316020" lon="-4.546141">
        <ele>805.233</ele>
        <time>2021-07-22T08:53:50Z</time>
      </trkpt>
      <trkpt lat="42.315876" lon="-4.545703">
        <ele>804.753</ele>
        <time>2021-07-22T08:54:00Z</time>
      </trkpt>
      <trkpt lat="42.315698" lon="-4.545143">
        <ele>804.277</ele>
        <time>2021-07-22T08:54:11Z</time>
      </trkpt>
      <trkpt lat="42.315473" lon="-4.544392">
        <ele>803.365</ele>
        <time>2021-07-22T08:54:24Z</time>
      </trkpt>
      <trkpt lat="42.315310" lon="-4.543854">
        <ele>803.342</ele>
        <time>2021-07-22T08:54:34Z</time>
      </trkpt>
      <trkpt lat="42.315168" lon="-4.543338">
        <ele>803.850</ele>
        <time>2021-07-22T08:54:45Z</time>
      </trkpt>
      <trkpt lat="42.315136" lon="-4.543295">
        <ele>803.896</ele>
        <time>2021-07-22T08:54:47Z</time>
      </trkpt>
      <trkpt lat="42.315121" lon="-4.543298">
        <ele>803.831</ele>
        <time>2021-07-22T08:54:48Z</time>
      </trkpt>
      <trkpt lat="42.315109" lon="-4.543307">
        <ele>803.824</ele>
        <time>2021-07-22T08:54:49Z</time>
      </trkpt>
      <trkpt lat="42.315099" lon="-4.543316">
        <ele>803.808</ele>
        <time>2021-07-22T08:54:50Z</time>
      </trkpt>
      <trkpt lat="42.315090" lon="-4.543319">
        <ele>803.846</ele>
        <time>2021-07-22T08:54:51Z</time>
      </trkpt>
      <trkpt lat="42.315079" lon="-4.543316">
        <ele>804.218</ele>
        <time>2021-07-22T08:54:52Z</time>
      </trkpt>
      <trkpt lat="42.314997" lon="-4.543293">
        <ele>804.725</ele>
        <time>2021-07-22T08:54:58Z</time>
      </trkpt>
      <trkpt lat="42.314982" lon="-4.543295">
        <ele>804.775</ele>
        <time>2021-07-22T08:54:59Z</time>
      </trkpt>
      <trkpt lat="42.314969" lon="-4.543295">
        <ele>804.779</ele>
        <time>2021-07-22T08:55:00Z</time>
      </trkpt>
      <trkpt lat="42.314956" lon="-4.543295">
        <ele>804.767</ele>
        <time>2021-07-22T08:55:01Z</time>
      </trkpt>
      <trkpt lat="42.314945" lon="-4.543295">
        <ele>804.774</ele>
        <time>2021-07-22T08:55:02Z</time>
      </trkpt>
      <trkpt lat="42.314938" lon="-4.543294">
        <ele>804.762</ele>
        <time>2021-07-22T08:55:09Z</time>
      </trkpt>
      <trkpt lat="42.314939" lon="-4.543286">
        <ele>805.285</ele>
        <time>2021-07-22T08:55:17Z</time>
      </trkpt>
      <trkpt lat="42.314937" lon="-4.543274">
        <ele>806.689</ele>
        <time>2021-07-22T08:55:27Z</time>
      </trkpt>
      <trkpt lat="42.314939" lon="-4.543254">
        <ele>808.617</ele>
        <time>2021-07-22T08:55:46Z</time>
      </trkpt>
      <trkpt lat="42.314971" lon="-4.543268">
        <ele>809.008</ele>
        <time>2021-07-22T08:55:53Z</time>
      </trkpt>
      <trkpt lat="42.314989" lon="-4.543265">
        <ele>809.055</ele>
        <time>2021-07-22T08:55:55Z</time>
      </trkpt>
      <trkpt lat="42.315008" lon="-4.543268">
        <ele>808.697</ele>
        <time>2021-07-22T08:55:57Z</time>
      </trkpt>
      <trkpt lat="42.315018" lon="-4.543275">
        <ele>808.624</ele>
        <time>2021-07-22T08:55:58Z</time>
      </trkpt>
      <trkpt lat="42.315029" lon="-4.543279">
        <ele>808.654</ele>
        <time>2021-07-22T08:56:05Z</time>
      </trkpt>
      <trkpt lat="42.315100" lon="-4.543296">
        <ele>808.668</ele>
        <time>2021-07-22T08:56:12Z</time>
      </trkpt>
      <trkpt lat="42.315113" lon="-4.543297">
        <ele>808.646</ele>
        <time>2021-07-22T08:56:13Z</time>
      </trkpt>
      <trkpt lat="42.315126" lon="-4.543288">
        <ele>808.693</ele>
        <time>2021-07-22T08:56:14Z</time>
      </trkpt>
      <trkpt lat="42.315136" lon="-4.543268">
        <ele>808.661</ele>
        <time>2021-07-22T08:56:15Z</time>
      </trkpt>
      <trkpt lat="42.315136" lon="-4.543251">
        <ele>808.676</ele>
        <time>2021-07-22T08:56:16Z</time>
      </trkpt>
      <trkpt lat="42.315133" lon="-4.543230">
        <ele>808.690</ele>
        <time>2021-07-22T08:56:17Z</time>
      </trkpt>
      <trkpt lat="42.315127" lon="-4.543212">
        <ele>808.619</ele>
        <time>2021-07-22T08:56:18Z</time>
      </trkpt>
      <trkpt lat="42.315118" lon="-4.543187">
        <ele>808.108</ele>
        <time>2021-07-22T08:56:19Z</time>
      </trkpt>
      <trkpt lat="42.315110" lon="-4.543159">
        <ele>808.194</ele>
        <time>2021-07-22T08:56:20Z</time>
      </trkpt>
      <trkpt lat="42.315100" lon="-4.543127">
        <ele>808.186</ele>
        <time>2021-07-22T08:56:21Z</time>
      </trkpt>
      <trkpt lat="42.315088" lon="-4.543094">
        <ele>808.143</ele>
        <time>2021-07-22T08:56:22Z</time>
      </trkpt>
      <trkpt lat="42.315076" lon="-4.543060">
        <ele>808.173</ele>
        <time>2021-07-22T08:56:23Z</time>
      </trkpt>
      <trkpt lat="42.315065" lon="-4.543021">
        <ele>808.197</ele>
        <time>2021-07-22T08:56:24Z</time>
      </trkpt>
      <trkpt lat="42.314946" lon="-4.542621">
        <ele>807.165</ele>
        <time>2021-07-22T08:56:33Z</time>
      </trkpt>
      <trkpt lat="42.314816" lon="-4.542189">
        <ele>806.652</ele>
        <time>2021-07-22T08:56:42Z</time>
      </trkpt>
      <trkpt lat="42.314647" lon="-4.541632">
        <ele>805.760</ele>
        <time>2021-07-22T08:56:53Z</time>
      </trkpt>
      <trkpt lat="42.314525" lon="-4.541238">
        <ele>805.287</ele>
        <time>2021-07-22T08:57:01Z</time>
      </trkpt>
      <trkpt lat="42.314417" lon="-4.540871">
        <ele>804.742</ele>
        <time>2021-07-22T08:57:09Z</time>
      </trkpt>
      <trkpt lat="42.314330" lon="-4.540584">
        <ele>804.726</ele>
        <time>2021-07-22T08:57:17Z</time>
      </trkpt>
      <trkpt lat="42.314326" lon="-4.540591">
        <ele>805.708</ele>
        <time>2021-07-22T08:57:30Z</time>
      </trkpt>
      <trkpt lat="42.314329" lon="-4.540576">
        <ele>805.785</ele>
        <time>2021-07-22T08:57:33Z</time>
      </trkpt>
      <trkpt lat="42.314327" lon="-4.540543">
        <ele>805.727</ele>
        <time>2021-07-22T08:57:35Z</time>
      </trkpt>
      <trkpt lat="42.314319" lon="-4.540520">
        <ele>805.754</ele>
        <time>2021-07-22T08:57:36Z</time>
      </trkpt>
      <trkpt lat="42.314306" lon="-4.540493">
        <ele>806.244</ele>
        <time>2021-07-22T08:57:37Z</time>
      </trkpt>
      <trkpt lat="42.314290" lon="-4.540459">
        <ele>806.288</ele>
        <time>2021-07-22T08:57:38Z</time>
      </trkpt>
      <trkpt lat="42.314278" lon="-4.540422">
        <ele>806.226</ele>
        <time>2021-07-22T08:57:39Z</time>
      </trkpt>
      <trkpt lat="42.314265" lon="-4.540383">
        <ele>806.293</ele>
        <time>2021-07-22T08:57:40Z</time>
      </trkpt>
      <trkpt lat="42.314126" lon="-4.539934">
        <ele>805.221</ele>
        <time>2021-07-22T08:57:50Z</time>
      </trkpt>
      <trkpt lat="42.313980" lon="-4.539448">
        <ele>804.242</ele>
        <time>2021-07-22T08:58:01Z</time>
      </trkpt>
      <trkpt lat="42.313856" lon="-4.539042">
        <ele>804.222</ele>
        <time>2021-07-22T08:58:12Z</time>
      </trkpt>
      <trkpt lat="42.313755" lon="-4.538682">
        <ele>804.214</ele>
        <time>2021-07-22T08:58:22Z</time>
      </trkpt>
      <trkpt lat="42.313642" lon="-4.538301">
        <ele>804.208</ele>
        <time>2021-07-22T08:58:32Z</time>
      </trkpt>
      <trkpt lat="42.313516" lon="-4.537902">
        <ele>804.771</ele>
        <time>2021-07-22T08:58:43Z</time>
      </trkpt>
      <trkpt lat="42.313398" lon="-4.537501">
        <ele>804.253</ele>
        <time>2021-07-22T08:58:52Z</time>
      </trkpt>
      <trkpt lat="42.313192" lon="-4.536829">
        <ele>804.720</ele>
        <time>2021-07-22T08:59:05Z</time>
      </trkpt>
      <trkpt lat="42.313006" lon="-4.536191">
        <ele>804.710</ele>
        <time>2021-07-22T08:59:17Z</time>
      </trkpt>
      <trkpt lat="42.312848" lon="-4.535672">
        <ele>805.744</ele>
        <time>2021-07-22T08:59:27Z</time>
      </trkpt>
      <trkpt lat="42.312673" lon="-4.535077">
        <ele>805.252</ele>
        <time>2021-07-22T08:59:38Z</time>
      </trkpt>
      <trkpt lat="42.312477" lon="-4.534417">
        <ele>805.739</ele>
        <time>2021-07-22T08:59:50Z</time>
      </trkpt>
      <trkpt lat="42.312308" lon="-4.533889">
        <ele>805.217</ele>
        <time>2021-07-22T09:00:00Z</time>
      </trkpt>
      <trkpt lat="42.312130" lon="-4.533298">
        <ele>805.797</ele>
        <time>2021-07-22T09:00:11Z</time>
      </trkpt>
      <trkpt lat="42.311937" lon="-4.532697">
        <ele>805.723</ele>
        <time>2021-07-22T09:00:22Z</time>
      </trkpt>
      <trkpt lat="42.311677" lon="-4.531985">
        <ele>805.225</ele>
        <time>2021-07-22T09:00:35Z</time>
      </trkpt>
      <trkpt lat="42.311483" lon="-4.531522">
        <ele>804.708</ele>
        <time>2021-07-22T09:00:44Z</time>
      </trkpt>
      <trkpt lat="42.311330" lon="-4.531157">
        <ele>804.736</ele>
        <time>2021-07-22T09:00:51Z</time>
      </trkpt>
      <trkpt lat="42.311307" lon="-4.531103">
        <ele>804.778</ele>
        <time>2021-07-22T09:00:52Z</time>
      </trkpt>
      <trkpt lat="42.311030" lon="-4.530442">
        <ele>804.235</ele>
        <time>2021-07-22T09:01:04Z</time>
      </trkpt>
      <trkpt lat="42.310768" lon="-4.529816">
        <ele>803.815</ele>
        <time>2021-07-22T09:01:15Z</time>
      </trkpt>
      <trkpt lat="42.310471" lon="-4.529108">
        <ele>803.889</ele>
        <time>2021-07-22T09:01:27Z</time>
      </trkpt>
      <trkpt lat="42.310148" lon="-4.528335">
        <ele>803.367</ele>
        <time>2021-07-22T09:01:40Z</time>
      </trkpt>
      <trkpt lat="42.309899" lon="-4.527751">
        <ele>803.844</ele>
        <time>2021-07-22T09:01:50Z</time>
      </trkpt>
      <trkpt lat="42.309575" lon="-4.526973">
        <ele>803.382</ele>
        <time>2021-07-22T09:02:03Z</time>
      </trkpt>
      <trkpt lat="42.309379" lon="-4.526506">
        <ele>803.879</ele>
        <time>2021-07-22T09:02:11Z</time>
      </trkpt>
      <trkpt lat="42.309118" lon="-4.525879">
        <ele>803.805</ele>
        <time>2021-07-22T09:02:22Z</time>
      </trkpt>
      <trkpt lat="42.308876" lon="-4.525312">
        <ele>803.825</ele>
        <time>2021-07-22T09:02:32Z</time>
      </trkpt>
      <trkpt lat="42.308635" lon="-4.524731">
        <ele>803.808</ele>
        <time>2021-07-22T09:02:43Z</time>
      </trkpt>
      <trkpt lat="42.308450" lon="-4.524278">
        <ele>803.314</ele>
        <time>2021-07-22T09:02:52Z</time>
      </trkpt>
      <trkpt lat="42.308164" lon="-4.523596">
        <ele>802.846</ele>
        <time>2021-07-22T09:03:04Z</time>
      </trkpt>
      <trkpt lat="42.307894" lon="-4.522955">
        <ele>802.323</ele>
        <time>2021-07-22T09:03:15Z</time>
      </trkpt>
      <trkpt lat="42.307624" lon="-4.522326">
        <ele>801.863</ele>
        <time>2021-07-22T09:03:26Z</time>
      </trkpt>
      <trkpt lat="42.307429" lon="-4.521851">
        <ele>801.847</ele>
        <time>2021-07-22T09:03:34Z</time>
      </trkpt>
      <trkpt lat="42.307156" lon="-4.521205">
        <ele>801.855</ele>
        <time>2021-07-22T09:03:45Z</time>
      </trkpt>
      <trkpt lat="42.306918" lon="-4.520642">
        <ele>801.862</ele>
        <time>2021-07-22T09:03:55Z</time>
      </trkpt>
      <trkpt lat="42.306706" lon="-4.520140">
        <ele>801.470</ele>
        <time>2021-07-22T09:04:04Z</time>
      </trkpt>
      <trkpt lat="42.306418" lon="-4.519458">
        <ele>801.424</ele>
        <time>2021-07-22T09:04:16Z</time>
      </trkpt>
      <trkpt lat="42.306147" lon="-4.518818">
        <ele>801.404</ele>
        <time>2021-07-22T09:04:27Z</time>
      </trkpt>
      <trkpt lat="42.305878" lon="-4.518182">
        <ele>800.914</ele>
        <time>2021-07-22T09:04:38Z</time>
      </trkpt>
      <trkpt lat="42.305655" lon="-4.517653">
        <ele>800.408</ele>
        <time>2021-07-22T09:04:47Z</time>
      </trkpt>
      <trkpt lat="42.305458" lon="-4.517179">
        <ele>800.969</ele>
        <time>2021-07-22T09:04:55Z</time>
      </trkpt>
      <trkpt lat="42.305207" lon="-4.516579">
        <ele>800.951</ele>
        <time>2021-07-22T09:05:05Z</time>
      </trkpt>
      <trkpt lat="42.305001" lon="-4.516082">
        <ele>800.918</ele>
        <time>2021-07-22T09:05:14Z</time>
      </trkpt>
      <trkpt lat="42.304766" lon="-4.515525">
        <ele>800.498</ele>
        <time>2021-07-22T09:05:24Z</time>
      </trkpt>
      <trkpt lat="42.304555" lon="-4.515025">
        <ele>800.462</ele>
        <time>2021-07-22T09:05:33Z</time>
      </trkpt>
      <trkpt lat="42.304241" lon="-4.514278">
        <ele>799.960</ele>
        <time>2021-07-22T09:05:46Z</time>
      </trkpt>
      <trkpt lat="42.303957" lon="-4.513612">
        <ele>799.417</ele>
        <time>2021-07-22T09:05:58Z</time>
      </trkpt>
      <trkpt lat="42.303692" lon="-4.512969">
        <ele>798.535</ele>
        <time>2021-07-22T09:06:09Z</time>
      </trkpt>
      <trkpt lat="42.303410" lon="-4.512302">
        <ele>797.533</ele>
        <time>2021-07-22T09:06:20Z</time>
      </trkpt>
      <trkpt lat="42.303158" lon="-4.511702">
        <ele>797.023</ele>
        <time>2021-07-22T09:06:30Z</time>
      </trkpt>
      <trkpt lat="42.302873" lon="-4.511028">
        <ele>795.115</ele>
        <time>2021-07-22T09:06:41Z</time>
      </trkpt>
      <trkpt lat="42.302524" lon="-4.510184">
        <ele>794.108</ele>
        <time>2021-07-22T09:06:54Z</time>
      </trkpt>
      <trkpt lat="42.302316" lon="-4.509694">
        <ele>794.160</ele>
        <time>2021-07-22T09:07:02Z</time>
      </trkpt>
      <trkpt lat="42.302138" lon="-4.509269">
        <ele>794.122</ele>
        <time>2021-07-22T09:07:09Z</time>
      </trkpt>
      <trkpt lat="42.301921" lon="-4.508763">
        <ele>793.799</ele>
        <time>2021-07-22T09:07:18Z</time>
      </trkpt>
      <trkpt lat="42.301683" lon="-4.508202">
        <ele>793.729</ele>
        <time>2021-07-22T09:07:28Z</time>
      </trkpt>
      <trkpt lat="42.301449" lon="-4.507637">
        <ele>794.173</ele>
        <time>2021-07-22T09:07:38Z</time>
      </trkpt>
      <trkpt lat="42.301180" lon="-4.506993">
        <ele>792.751</ele>
        <time>2021-07-22T09:07:49Z</time>
      </trkpt>
      <trkpt lat="42.300960" lon="-4.506479">
        <ele>793.268</ele>
        <time>2021-07-22T09:07:58Z</time>
      </trkpt>
      <trkpt lat="42.300669" lon="-4.505774">
        <ele>793.236</ele>
        <time>2021-07-22T09:08:10Z</time>
      </trkpt>
      <trkpt lat="42.300374" lon="-4.505069">
        <ele>792.211</ele>
        <time>2021-07-22T09:08:22Z</time>
      </trkpt>
      <trkpt lat="42.300102" lon="-4.504424">
        <ele>792.221</ele>
        <time>2021-07-22T09:08:33Z</time>
      </trkpt>
      <trkpt lat="42.299960" lon="-4.504093">
        <ele>793.203</ele>
        <time>2021-07-22T09:08:39Z</time>
      </trkpt>
      <trkpt lat="42.299937" lon="-4.504041">
        <ele>793.208</ele>
        <time>2021-07-22T09:08:40Z</time>
      </trkpt>
      <trkpt lat="42.299913" lon="-4.503986">
        <ele>793.228</ele>
        <time>2021-07-22T09:08:41Z</time>
      </trkpt>
      <trkpt lat="42.299662" lon="-4.503394">
        <ele>794.130</ele>
        <time>2021-07-22T09:08:52Z</time>
      </trkpt>
      <trkpt lat="42.299435" lon="-4.502846">
        <ele>794.137</ele>
        <time>2021-07-22T09:09:02Z</time>
      </trkpt>
      <trkpt lat="42.299236" lon="-4.502391">
        <ele>794.627</ele>
        <time>2021-07-22T09:09:10Z</time>
      </trkpt>
      <trkpt lat="42.298954" lon="-4.501763">
        <ele>794.671</ele>
        <time>2021-07-22T09:09:21Z</time>
      </trkpt>
      <trkpt lat="42.298689" lon="-4.501203">
        <ele>794.199</ele>
        <time>2021-07-22T09:09:31Z</time>
      </trkpt>
      <trkpt lat="42.298485" lon="-4.500780">
        <ele>793.736</ele>
        <time>2021-07-22T09:09:40Z</time>
      </trkpt>
      <trkpt lat="42.298279" lon="-4.500351">
        <ele>794.194</ele>
        <time>2021-07-22T09:09:49Z</time>
      </trkpt>
      <trkpt lat="42.298060" lon="-4.499891">
        <ele>794.185</ele>
        <time>2021-07-22T09:09:58Z</time>
      </trkpt>
      <trkpt lat="42.297737" lon="-4.499389">
        <ele>794.689</ele>
        <time>2021-07-22T09:10:09Z</time>
      </trkpt>
      <trkpt lat="42.297515" lon="-4.499062">
        <ele>795.117</ele>
        <time>2021-07-22T09:10:18Z</time>
      </trkpt>
      <trkpt lat="42.297260" lon="-4.498632">
        <ele>794.608</ele>
        <time>2021-07-22T09:10:29Z</time>
      </trkpt>
      <trkpt lat="42.296966" lon="-4.498219">
        <ele>794.645</ele>
        <time>2021-07-22T09:10:39Z</time>
      </trkpt>
      <trkpt lat="42.296779" lon="-4.497958">
        <ele>794.147</ele>
        <time>2021-07-22T09:10:46Z</time>
      </trkpt>
      <trkpt lat="42.296753" lon="-4.497916">
        <ele>794.124</ele>
        <time>2021-07-22T09:10:47Z</time>
      </trkpt>
      <trkpt lat="42.296466" lon="-4.497501">
        <ele>794.184</ele>
        <time>2021-07-22T09:10:57Z</time>
      </trkpt>
      <trkpt lat="42.296108" lon="-4.496974">
        <ele>793.758</ele>
        <time>2021-07-22T09:11:09Z</time>
      </trkpt>
      <trkpt lat="42.295770" lon="-4.496482">
        <ele>793.746</ele>
        <time>2021-07-22T09:11:20Z</time>
      </trkpt>
      <trkpt lat="42.295381" lon="-4.495917">
        <ele>793.273</ele>
        <time>2021-07-22T09:11:32Z</time>
      </trkpt>
      <trkpt lat="42.295110" lon="-4.495533">
        <ele>792.751</ele>
        <time>2021-07-22T09:11:42Z</time>
      </trkpt>
      <trkpt lat="42.295000" lon="-4.495385">
        <ele>792.716</ele>
        <time>2021-07-22T09:11:49Z</time>
      </trkpt>
      <trkpt lat="42.295009" lon="-4.495379">
        <ele>791.776</ele>
        <time>2021-07-22T09:12:02Z</time>
      </trkpt>
      <trkpt lat="42.295005" lon="-4.495380">
        <ele>791.713</ele>
        <time>2021-07-22T09:12:14Z</time>
      </trkpt>
      <trkpt lat="42.294990" lon="-4.495348">
        <ele>792.208</ele>
        <time>2021-07-22T09:12:19Z</time>
      </trkpt>
      <trkpt lat="42.294983" lon="-4.495329">
        <ele>792.228</ele>
        <time>2021-07-22T09:12:20Z</time>
      </trkpt>
      <trkpt lat="42.294972" lon="-4.495308">
        <ele>792.280</ele>
        <time>2021-07-22T09:12:21Z</time>
      </trkpt>
      <trkpt lat="42.294957" lon="-4.495289">
        <ele>792.297</ele>
        <time>2021-07-22T09:12:22Z</time>
      </trkpt>
      <trkpt lat="42.294940" lon="-4.495267">
        <ele>792.227</ele>
        <time>2021-07-22T09:12:23Z</time>
      </trkpt>
      <trkpt lat="42.294922" lon="-4.495240">
        <ele>791.791</ele>
        <time>2021-07-22T09:12:24Z</time>
      </trkpt>
      <trkpt lat="42.294902" lon="-4.495214">
        <ele>791.739</ele>
        <time>2021-07-22T09:12:25Z</time>
      </trkpt>
      <trkpt lat="42.294879" lon="-4.495184">
        <ele>791.746</ele>
        <time>2021-07-22T09:12:26Z</time>
      </trkpt>
      <trkpt lat="42.294855" lon="-4.495154">
        <ele>791.754</ele>
        <time>2021-07-22T09:12:27Z</time>
      </trkpt>
      <trkpt lat="42.294830" lon="-4.495123">
        <ele>791.775</ele>
        <time>2021-07-22T09:12:28Z</time>
      </trkpt>
      <trkpt lat="42.294632" lon="-4.494841">
        <ele>790.828</ele>
        <time>2021-07-22T09:12:35Z</time>
      </trkpt>
      <trkpt lat="42.294316" lon="-4.494376">
        <ele>790.820</ele>
        <time>2021-07-22T09:12:45Z</time>
      </trkpt>
      <trkpt lat="42.293957" lon="-4.493842">
        <ele>790.308</ele>
        <time>2021-07-22T09:12:57Z</time>
      </trkpt>
      <trkpt lat="42.293609" lon="-4.493344">
        <ele>790.314</ele>
        <time>2021-07-22T09:13:08Z</time>
      </trkpt>
      <trkpt lat="42.293267" lon="-4.492844">
        <ele>789.386</ele>
        <time>2021-07-22T09:13:19Z</time>
      </trkpt>
      <trkpt lat="42.292921" lon="-4.492333">
        <ele>789.373</ele>
        <time>2021-07-22T09:13:30Z</time>
      </trkpt>
      <trkpt lat="42.292471" lon="-4.491685">
        <ele>789.333</ele>
        <time>2021-07-22T09:13:44Z</time>
      </trkpt>
      <trkpt lat="42.292125" lon="-4.491181">
        <ele>789.317</ele>
        <time>2021-07-22T09:13:56Z</time>
      </trkpt>
      <trkpt lat="42.292016" lon="-4.491054">
        <ele>788.915</ele>
        <time>2021-07-22T09:14:02Z</time>
      </trkpt>
      <trkpt lat="42.292014" lon="-4.491046">
        <ele>788.992</ele>
        <time>2021-07-22T09:14:09Z</time>
      </trkpt>
      <trkpt lat="42.292014" lon="-4.491035">
        <ele>788.970</ele>
        <time>2021-07-22T09:14:33Z</time>
      </trkpt>
      <trkpt lat="42.292010" lon="-4.491037">
        <ele>789.344</ele>
        <time>2021-07-22T09:15:03Z</time>
      </trkpt>
      <trkpt lat="42.292002" lon="-4.491019">
        <ele>789.305</ele>
        <time>2021-07-22T09:15:10Z</time>
      </trkpt>
      <trkpt lat="42.291998" lon="-4.491006">
        <ele>789.315</ele>
        <time>2021-07-22T09:15:11Z</time>
      </trkpt>
      <trkpt lat="42.291914" lon="-4.490878">
        <ele>789.308</ele>
        <time>2021-07-22T09:15:17Z</time>
      </trkpt>
      <trkpt lat="42.291665" lon="-4.490523">
        <ele>788.941</ele>
        <time>2021-07-22T09:15:27Z</time>
      </trkpt>
      <trkpt lat="42.291372" lon="-4.490094">
        <ele>788.933</ele>
        <time>2021-07-22T09:15:37Z</time>
      </trkpt>
      <trkpt lat="42.290986" lon="-4.489530">
        <ele>788.920</ele>
        <time>2021-07-22T09:15:49Z</time>
      </trkpt>
      <trkpt lat="42.290721" lon="-4.489135">
        <ele>788.450</ele>
        <time>2021-07-22T09:15:57Z</time>
      </trkpt>
      <trkpt lat="42.290463" lon="-4.488759">
        <ele>787.984</ele>
        <time>2021-07-22T09:16:06Z</time>
      </trkpt>
      <trkpt lat="42.290116" lon="-4.488252">
        <ele>787.482</ele>
        <time>2021-07-22T09:16:18Z</time>
      </trkpt>
      <trkpt lat="42.289807" lon="-4.487798">
        <ele>787.969</ele>
        <time>2021-07-22T09:16:28Z</time>
      </trkpt>
      <trkpt lat="42.289435" lon="-4.487258">
        <ele>787.927</ele>
        <time>2021-07-22T09:16:40Z</time>
      </trkpt>
      <trkpt lat="42.289104" lon="-4.486784">
        <ele>787.465</ele>
        <time>2021-07-22T09:16:50Z</time>
      </trkpt>
      <trkpt lat="42.288742" lon="-4.486254">
        <ele>787.468</ele>
        <time>2021-07-22T09:17:01Z</time>
      </trkpt>
      <trkpt lat="42.288422" lon="-4.485787">
        <ele>786.514</ele>
        <time>2021-07-22T09:17:11Z</time>
      </trkpt>
      <trkpt lat="42.287951" lon="-4.485105">
        <ele>786.008</ele>
        <time>2021-07-22T09:17:26Z</time>
      </trkpt>
      <trkpt lat="42.287524" lon="-4.484484">
        <ele>785.523</ele>
        <time>2021-07-22T09:17:39Z</time>
      </trkpt>
      <trkpt lat="42.287174" lon="-4.483982">
        <ele>785.025</ele>
        <time>2021-07-22T09:17:50Z</time>
      </trkpt>
      <trkpt lat="42.286892" lon="-4.483568">
        <ele>786.042</ele>
        <time>2021-07-22T09:18:00Z</time>
      </trkpt>
      <trkpt lat="42.286512" lon="-4.483013">
        <ele>785.522</ele>
        <time>2021-07-22T09:18:14Z</time>
      </trkpt>
      <trkpt lat="42.286308" lon="-4.482710">
        <ele>786.926</ele>
        <time>2021-07-22T09:18:22Z</time>
      </trkpt>
      <trkpt lat="42.286074" lon="-4.482454">
        <ele>787.464</ele>
        <time>2021-07-22T09:18:30Z</time>
      </trkpt>
      <trkpt lat="42.285837" lon="-4.482225">
        <ele>788.991</ele>
        <time>2021-07-22T09:18:38Z</time>
      </trkpt>
      <trkpt lat="42.285532" lon="-4.481956">
        <ele>788.419</ele>
        <time>2021-07-22T09:18:48Z</time>
      </trkpt>
      <trkpt lat="42.285294" lon="-4.481715">
        <ele>788.957</ele>
        <time>2021-07-22T09:18:56Z</time>
      </trkpt>
      <trkpt lat="42.285131" lon="-4.481481">
        <ele>787.400</ele>
        <time>2021-07-22T09:19:03Z</time>
      </trkpt>
      <trkpt lat="42.285119" lon="-4.481299">
        <ele>788.420</ele>
        <time>2021-07-22T09:19:09Z</time>
      </trkpt>
      <trkpt lat="42.285125" lon="-4.481281">
        <ele>788.908</ele>
        <time>2021-07-22T09:19:10Z</time>
      </trkpt>
      <trkpt lat="42.285134" lon="-4.481250">
        <ele>789.812</ele>
        <time>2021-07-22T09:19:12Z</time>
      </trkpt>
      <trkpt lat="42.285150" lon="-4.481243">
        <ele>790.364</ele>
        <time>2021-07-22T09:19:13Z</time>
      </trkpt>
      <trkpt lat="42.285166" lon="-4.481244">
        <ele>790.851</ele>
        <time>2021-07-22T09:19:14Z</time>
      </trkpt>
      <trkpt lat="42.285178" lon="-4.481243">
        <ele>791.391</ele>
        <time>2021-07-22T09:19:15Z</time>
      </trkpt>
      <trkpt lat="42.285189" lon="-4.481238">
        <ele>791.715</ele>
        <time>2021-07-22T09:19:21Z</time>
      </trkpt>
      <trkpt lat="42.285183" lon="-4.481221">
        <ele>791.373</ele>
        <time>2021-07-22T09:19:38Z</time>
      </trkpt>
      <trkpt lat="42.285180" lon="-4.481229">
        <ele>792.260</ele>
        <time>2021-07-22T09:19:52Z</time>
      </trkpt>
      <trkpt lat="42.285175" lon="-4.481229">
        <ele>792.268</ele>
        <time>2021-07-22T09:20:08Z</time>
      </trkpt>
      <trkpt lat="42.285175" lon="-4.481223">
        <ele>793.222</ele>
        <time>2021-07-22T09:20:21Z</time>
      </trkpt>
      <trkpt lat="42.285160" lon="-4.481220">
        <ele>793.262</ele>
        <time>2021-07-22T09:20:34Z</time>
      </trkpt>
      <trkpt lat="42.285153" lon="-4.481222">
        <ele>792.208</ele>
        <time>2021-07-22T09:20:49Z</time>
      </trkpt>
      <trkpt lat="42.285171" lon="-4.481249">
        <ele>791.308</ele>
        <time>2021-07-22T09:20:57Z</time>
      </trkpt>
      <trkpt lat="42.285155" lon="-4.481268">
        <ele>791.389</ele>
        <time>2021-07-22T09:21:04Z</time>
      </trkpt>
      <trkpt lat="42.285115" lon="-4.481283">
        <ele>791.341</ele>
        <time>2021-07-22T09:21:10Z</time>
      </trkpt>
      <trkpt lat="42.285066" lon="-4.481301">
        <ele>791.318</ele>
        <time>2021-07-22T09:21:19Z</time>
      </trkpt>
      <trkpt lat="42.285065" lon="-4.481294">
        <ele>790.858</ele>
        <time>2021-07-22T09:21:31Z</time>
      </trkpt>
      <trkpt lat="42.285054" lon="-4.481276">
        <ele>791.352</ele>
        <time>2021-07-22T09:21:33Z</time>
      </trkpt>
      <trkpt lat="42.285044" lon="-4.481257">
        <ele>790.820</ele>
        <time>2021-07-22T09:21:34Z</time>
      </trkpt>
      <trkpt lat="42.285034" lon="-4.481240">
        <ele>790.857</ele>
        <time>2021-07-22T09:21:35Z</time>
      </trkpt>
      <trkpt lat="42.284860" lon="-4.481040">
        <ele>790.365</ele>
        <time>2021-07-22T09:21:43Z</time>
      </trkpt>
      <trkpt lat="42.284595" lon="-4.480761">
        <ele>790.384</ele>
        <time>2021-07-22T09:21:52Z</time>
      </trkpt>
      <trkpt lat="42.284340" lon="-4.480445">
        <ele>791.307</ele>
        <time>2021-07-22T09:22:01Z</time>
      </trkpt>
      <trkpt lat="42.284080" lon="-4.480119">
        <ele>791.717</ele>
        <time>2021-07-22T09:22:10Z</time>
      </trkpt>
      <trkpt lat="42.284019" lon="-4.480048">
        <ele>790.808</ele>
        <time>2021-07-22T09:22:12Z</time>
      </trkpt>
      <trkpt lat="42.283737" lon="-4.479656">
        <ele>789.375</ele>
        <time>2021-07-22T09:22:21Z</time>
      </trkpt>
      <trkpt lat="42.283432" lon="-4.479255">
        <ele>787.437</ele>
        <time>2021-07-22T09:22:30Z</time>
      </trkpt>
      <trkpt lat="42.283366" lon="-4.479166">
        <ele>786.524</ele>
        <time>2021-07-22T09:22:32Z</time>
      </trkpt>
      <trkpt lat="42.283340" lon="-4.479122">
        <ele>786.094</ele>
        <time>2021-07-22T09:22:33Z</time>
      </trkpt>
      <trkpt lat="42.283126" lon="-4.478781">
        <ele>785.088</ele>
        <time>2021-07-22T09:22:41Z</time>
      </trkpt>
      <trkpt lat="42.283096" lon="-4.478734">
        <ele>785.046</ele>
        <time>2021-07-22T09:22:42Z</time>
      </trkpt>
      <trkpt lat="42.283068" lon="-4.478689">
        <ele>785.063</ele>
        <time>2021-07-22T09:22:43Z</time>
      </trkpt>
      <trkpt lat="42.282793" lon="-4.478252">
        <ele>784.581</ele>
        <time>2021-07-22T09:22:53Z</time>
      </trkpt>
      <trkpt lat="42.282463" lon="-4.477737">
        <ele>783.692</ele>
        <time>2021-07-22T09:23:04Z</time>
      </trkpt>
      <trkpt lat="42.282143" lon="-4.477238">
        <ele>782.673</ele>
        <time>2021-07-22T09:23:14Z</time>
      </trkpt>
      <trkpt lat="42.281798" lon="-4.476691">
        <ele>782.120</ele>
        <time>2021-07-22T09:23:25Z</time>
      </trkpt>
      <trkpt lat="42.281485" lon="-4.476196">
        <ele>782.108</ele>
        <time>2021-07-22T09:23:35Z</time>
      </trkpt>
      <trkpt lat="42.281096" lon="-4.475571">
        <ele>781.676</ele>
        <time>2021-07-22T09:23:48Z</time>
      </trkpt>
      <trkpt lat="42.280714" lon="-4.474970">
        <ele>782.168</ele>
        <time>2021-07-22T09:24:01Z</time>
      </trkpt>
      <trkpt lat="42.280423" lon="-4.474509">
        <ele>782.615</ele>
        <time>2021-07-22T09:24:11Z</time>
      </trkpt>
      <trkpt lat="42.280168" lon="-4.474106">
        <ele>783.175</ele>
        <time>2021-07-22T09:24:20Z</time>
      </trkpt>
      <trkpt lat="42.280109" lon="-4.474008">
        <ele>783.159</ele>
        <time>2021-07-22T09:24:22Z</time>
      </trkpt>
      <trkpt lat="42.279836" lon="-4.473574">
        <ele>783.187</ele>
        <time>2021-07-22T09:24:31Z</time>
      </trkpt>
      <trkpt lat="42.279462" lon="-4.472985">
        <ele>782.154</ele>
        <time>2021-07-22T09:24:43Z</time>
      </trkpt>
      <trkpt lat="42.279243" lon="-4.472649">
        <ele>781.622</ele>
        <time>2021-07-22T09:24:50Z</time>
      </trkpt>
      <trkpt lat="42.279214" lon="-4.472601">
        <ele>781.671</ele>
        <time>2021-07-22T09:24:51Z</time>
      </trkpt>
      <trkpt lat="42.279183" lon="-4.472551">
        <ele>781.641</ele>
        <time>2021-07-22T09:24:52Z</time>
      </trkpt>
      <trkpt lat="42.278869" lon="-4.472060">
        <ele>781.215</ele>
        <time>2021-07-22T09:25:02Z</time>
      </trkpt>
      <trkpt lat="42.278580" lon="-4.471597">
        <ele>781.208</ele>
        <time>2021-07-22T09:25:11Z</time>
      </trkpt>
      <trkpt lat="42.278251" lon="-4.471098">
        <ele>780.274</ele>
        <time>2021-07-22T09:25:21Z</time>
      </trkpt>
      <trkpt lat="42.277926" lon="-4.470589">
        <ele>780.286</ele>
        <time>2021-07-22T09:25:31Z</time>
      </trkpt>
      <trkpt lat="42.277559" lon="-4.470006">
        <ele>779.793</ele>
        <time>2021-07-22T09:25:42Z</time>
      </trkpt>
      <trkpt lat="42.277431" lon="-4.469807">
        <ele>780.213</ele>
        <time>2021-07-22T09:25:46Z</time>
      </trkpt>
      <trkpt lat="42.277104" lon="-4.469292">
        <ele>780.757</ele>
        <time>2021-07-22T09:25:57Z</time>
      </trkpt>
      <trkpt lat="42.276782" lon="-4.468783">
        <ele>780.225</ele>
        <time>2021-07-22T09:26:08Z</time>
      </trkpt>
      <trkpt lat="42.276506" lon="-4.468348">
        <ele>779.792</ele>
        <time>2021-07-22T09:26:17Z</time>
      </trkpt>
      <trkpt lat="42.276167" lon="-4.467809">
        <ele>778.840</ele>
        <time>2021-07-22T09:26:28Z</time>
      </trkpt>
      <trkpt lat="42.275802" lon="-4.467236">
        <ele>777.357</ele>
        <time>2021-07-22T09:26:39Z</time>
      </trkpt>
      <trkpt lat="42.275411" lon="-4.466629">
        <ele>777.300</ele>
        <time>2021-07-22T09:26:51Z</time>
      </trkpt>
      <trkpt lat="42.275026" lon="-4.466018">
        <ele>778.320</ele>
        <time>2021-07-22T09:27:03Z</time>
      </trkpt>
      <trkpt lat="42.274864" lon="-4.465753">
        <ele>778.308</ele>
        <time>2021-07-22T09:27:08Z</time>
      </trkpt>
      <trkpt lat="42.274831" lon="-4.465703">
        <ele>778.812</ele>
        <time>2021-07-22T09:27:09Z</time>
      </trkpt>
      <trkpt lat="42.274634" lon="-4.465385">
        <ele>778.814</ele>
        <time>2021-07-22T09:27:15Z</time>
      </trkpt>
      <trkpt lat="42.274348" lon="-4.464921">
        <ele>778.321</ele>
        <time>2021-07-22T09:27:24Z</time>
      </trkpt>
      <trkpt lat="42.274018" lon="-4.464409">
        <ele>777.861</ele>
        <time>2021-07-22T09:27:34Z</time>
      </trkpt>
      <trkpt lat="42.273627" lon="-4.463787">
        <ele>778.855</ele>
        <time>2021-07-22T09:27:46Z</time>
      </trkpt>
      <trkpt lat="42.273322" lon="-4.463254">
        <ele>778.343</ele>
        <time>2021-07-22T09:27:56Z</time>
      </trkpt>
      <trkpt lat="42.272961" lon="-4.462538">
        <ele>778.380</ele>
        <time>2021-07-22T09:28:09Z</time>
      </trkpt>
      <trkpt lat="42.272737" lon="-4.462015">
        <ele>778.838</ele>
        <time>2021-07-22T09:28:18Z</time>
      </trkpt>
      <trkpt lat="42.272495" lon="-4.461382">
        <ele>779.226</ele>
        <time>2021-07-22T09:28:29Z</time>
      </trkpt>
      <trkpt lat="42.272275" lon="-4.460817">
        <ele>779.247</ele>
        <time>2021-07-22T09:28:39Z</time>
      </trkpt>
      <trkpt lat="42.272123" lon="-4.460406">
        <ele>779.711</ele>
        <time>2021-07-22T09:28:46Z</time>
      </trkpt>
      <trkpt lat="42.271922" lon="-4.459878">
        <ele>779.708</ele>
        <time>2021-07-22T09:28:55Z</time>
      </trkpt>
      <trkpt lat="42.271708" lon="-4.459288">
        <ele>779.779</ele>
        <time>2021-07-22T09:29:05Z</time>
      </trkpt>
      <trkpt lat="42.271484" lon="-4.458684">
        <ele>779.721</ele>
        <time>2021-07-22T09:29:15Z</time>
      </trkpt>
      <trkpt lat="42.271280" lon="-4.458139">
        <ele>779.718</ele>
        <time>2021-07-22T09:29:24Z</time>
      </trkpt>
      <trkpt lat="42.271043" lon="-4.457498">
        <ele>779.718</ele>
        <time>2021-07-22T09:29:35Z</time>
      </trkpt>
      <trkpt lat="42.270817" lon="-4.456886">
        <ele>779.782</ele>
        <time>2021-07-22T09:29:45Z</time>
      </trkpt>
      <trkpt lat="42.270558" lon="-4.456200">
        <ele>779.240</ele>
        <time>2021-07-22T09:29:56Z</time>
      </trkpt>
      <trkpt lat="42.270344" lon="-4.455618">
        <ele>779.247</ele>
        <time>2021-07-22T09:30:06Z</time>
      </trkpt>
      <trkpt lat="42.270097" lon="-4.454968">
        <ele>779.225</ele>
        <time>2021-07-22T09:30:17Z</time>
      </trkpt>
      <trkpt lat="42.269798" lon="-4.454160">
        <ele>779.773</ele>
        <time>2021-07-22T09:30:30Z</time>
      </trkpt>
      <trkpt lat="42.269566" lon="-4.453524">
        <ele>779.785</ele>
        <time>2021-07-22T09:30:40Z</time>
      </trkpt>
      <trkpt lat="42.269283" lon="-4.452789">
        <ele>779.713</ele>
        <time>2021-07-22T09:30:52Z</time>
      </trkpt>
      <trkpt lat="42.269054" lon="-4.452185">
        <ele>779.208</ele>
        <time>2021-07-22T09:31:03Z</time>
      </trkpt>
      <trkpt lat="42.268802" lon="-4.451494">
        <ele>778.894</ele>
        <time>2021-07-22T09:31:15Z</time>
      </trkpt>
      <trkpt lat="42.268627" lon="-4.450816">
        <ele>778.336</ele>
        <time>2021-07-22T09:31:26Z</time>
      </trkpt>
      <trkpt lat="42.268642" lon="-4.450393">
        <ele>779.223</ele>
        <time>2021-07-22T09:31:33Z</time>
      </trkpt>
      <trkpt lat="42.268680" lon="-4.450226">
        <ele>779.253</ele>
        <time>2021-07-22T09:31:36Z</time>
      </trkpt>
      <trkpt lat="42.268696" lon="-4.450168">
        <ele>779.797</ele>
        <time>2021-07-22T09:31:37Z</time>
      </trkpt>
      <trkpt lat="42.268711" lon="-4.450116">
        <ele>779.715</ele>
        <time>2021-07-22T09:31:38Z</time>
      </trkpt>
      <trkpt lat="42.268730" lon="-4.450062">
        <ele>779.722</ele>
        <time>2021-07-22T09:31:39Z</time>
      </trkpt>
      <trkpt lat="42.268751" lon="-4.450009">
        <ele>779.740</ele>
        <time>2021-07-22T09:31:40Z</time>
      </trkpt>
      <trkpt lat="42.268776" lon="-4.449958">
        <ele>779.799</ele>
        <time>2021-07-22T09:31:41Z</time>
      </trkpt>
      <trkpt lat="42.268943" lon="-4.449646">
        <ele>779.707</ele>
        <time>2021-07-22T09:31:48Z</time>
      </trkpt>
      <trkpt lat="42.269096" lon="-4.449315">
        <ele>779.227</ele>
        <time>2021-07-22T09:31:57Z</time>
      </trkpt>
      <trkpt lat="42.269087" lon="-4.449274">
        <ele>779.208</ele>
        <time>2021-07-22T09:31:58Z</time>
      </trkpt>
      <trkpt lat="42.269068" lon="-4.449232">
        <ele>779.246</ele>
        <time>2021-07-22T09:31:59Z</time>
      </trkpt>
      <trkpt lat="42.269050" lon="-4.449199">
        <ele>779.278</ele>
        <time>2021-07-22T09:32:00Z</time>
      </trkpt>
      <trkpt lat="42.269029" lon="-4.449161">
        <ele>779.265</ele>
        <time>2021-07-22T09:32:01Z</time>
      </trkpt>
      <trkpt lat="42.268811" lon="-4.448830">
        <ele>778.865</ele>
        <time>2021-07-22T09:32:11Z</time>
      </trkpt>
      <trkpt lat="42.268696" lon="-4.448538">
        <ele>779.729</ele>
        <time>2021-07-22T09:32:19Z</time>
      </trkpt>
      <trkpt lat="42.268667" lon="-4.448143">
        <ele>779.277</ele>
        <time>2021-07-22T09:32:27Z</time>
      </trkpt>
      <trkpt lat="42.268757" lon="-4.447692">
        <ele>778.864</ele>
        <time>2021-07-22T09:32:35Z</time>
      </trkpt>
      <trkpt lat="42.268835" lon="-4.447383">
        <ele>779.272</ele>
        <time>2021-07-22T09:32:42Z</time>
      </trkpt>
      <trkpt lat="42.268924" lon="-4.446934">
        <ele>780.225</ele>
        <time>2021-07-22T09:32:51Z</time>
      </trkpt>
      <trkpt lat="42.269065" lon="-4.446467">
        <ele>781.226</ele>
        <time>2021-07-22T09:33:01Z</time>
      </trkpt>
      <trkpt lat="42.269159" lon="-4.446052">
        <ele>782.608</ele>
        <time>2021-07-22T09:33:11Z</time>
      </trkpt>
      <trkpt lat="42.269211" lon="-4.445817">
        <ele>783.608</ele>
        <time>2021-07-22T09:33:17Z</time>
      </trkpt>
      <trkpt lat="42.269311" lon="-4.445549">
        <ele>784.569</ele>
        <time>2021-07-22T09:33:24Z</time>
      </trkpt>
      <trkpt lat="42.269331" lon="-4.445373">
        <ele>784.091</ele>
        <time>2021-07-22T09:33:29Z</time>
      </trkpt>
      <trkpt lat="42.269246" lon="-4.445098">
        <ele>782.198</ele>
        <time>2021-07-22T09:33:36Z</time>
      </trkpt>
      <trkpt lat="42.269185" lon="-4.444911">
        <ele>782.118</ele>
        <time>2021-07-22T09:33:41Z</time>
      </trkpt>
      <trkpt lat="42.268998" lon="-4.444564">
        <ele>782.692</ele>
        <time>2021-07-22T09:33:50Z</time>
      </trkpt>
      <trkpt lat="42.268759" lon="-4.444111">
        <ele>783.110</ele>
        <time>2021-07-22T09:34:01Z</time>
      </trkpt>
      <trkpt lat="42.268593" lon="-4.443799">
        <ele>781.657</ele>
        <time>2021-07-22T09:34:09Z</time>
      </trkpt>
      <trkpt lat="42.268385" lon="-4.443426">
        <ele>782.115</ele>
        <time>2021-07-22T09:34:18Z</time>
      </trkpt>
      <trkpt lat="42.268201" lon="-4.443104">
        <ele>782.687</ele>
        <time>2021-07-22T09:34:26Z</time>
      </trkpt>
      <trkpt lat="42.267975" lon="-4.442691">
        <ele>783.142</ele>
        <time>2021-07-22T09:34:36Z</time>
      </trkpt>
      <trkpt lat="42.267810" lon="-4.442381">
        <ele>783.126</ele>
        <time>2021-07-22T09:34:44Z</time>
      </trkpt>
      <trkpt lat="42.267736" lon="-4.442276">
        <ele>783.108</ele>
        <time>2021-07-22T09:34:48Z</time>
      </trkpt>
      <trkpt lat="42.267722" lon="-4.442273">
        <ele>783.175</ele>
        <time>2021-07-22T09:34:49Z</time>
      </trkpt>
      <trkpt lat="42.267709" lon="-4.442269">
        <ele>783.187</ele>
        <time>2021-07-22T09:34:50Z</time>
      </trkpt>
      <trkpt lat="42.267693" lon="-4.442261">
        <ele>783.144</ele>
        <time>2021-07-22T09:34:51Z</time>
      </trkpt>
      <trkpt lat="42.267679" lon="-4.442244">
        <ele>783.124</ele>
        <time>2021-07-22T09:34:52Z</time>
      </trkpt>
      <trkpt lat="42.267663" lon="-4.442214">
        <ele>783.118</ele>
        <time>2021-07-22T09:34:53Z</time>
      </trkpt>
      <trkpt lat="42.267654" lon="-4.442187">
        <ele>783.136</ele>
        <time>2021-07-22T09:34:54Z</time>
      </trkpt>
      <trkpt lat="42.267648" lon="-4.442154">
        <ele>783.173</ele>
        <time>2021-07-22T09:34:55Z</time>
      </trkpt>
      <trkpt lat="42.267643" lon="-4.442117">
        <ele>783.121</ele>
        <time>2021-07-22T09:34:56Z</time>
      </trkpt>
      <trkpt lat="42.267607" lon="-4.441750">
        <ele>783.611</ele>
        <time>2021-07-22T09:35:04Z</time>
      </trkpt>
      <trkpt lat="42.267563" lon="-4.441338">
        <ele>784.021</ele>
        <time>2021-07-22T09:35:13Z</time>
      </trkpt>
      <trkpt lat="42.267509" lon="-4.440802">
        <ele>784.503</ele>
        <time>2021-07-22T09:35:24Z</time>
      </trkpt>
      <trkpt lat="42.267463" lon="-4.440298">
        <ele>784.508</ele>
        <time>2021-07-22T09:35:34Z</time>
      </trkpt>
      <trkpt lat="42.267476" lon="-4.439948">
        <ele>785.018</ele>
        <time>2021-07-22T09:35:42Z</time>
      </trkpt>
      <trkpt lat="42.267497" lon="-4.439684">
        <ele>785.050</ele>
        <time>2021-07-22T09:35:50Z</time>
      </trkpt>
      <trkpt lat="42.267488" lon="-4.439520">
        <ele>785.077</ele>
        <time>2021-07-22T09:35:58Z</time>
      </trkpt>
      <trkpt lat="42.267462" lon="-4.439395">
        <ele>785.057</ele>
        <time>2021-07-22T09:36:06Z</time>
      </trkpt>
      <trkpt lat="42.267448" lon="-4.439194">
        <ele>785.081</ele>
        <time>2021-07-22T09:36:16Z</time>
      </trkpt>
      <trkpt lat="42.267424" lon="-4.438858">
        <ele>784.039</ele>
        <time>2021-07-22T09:36:27Z</time>
      </trkpt>
      <trkpt lat="42.267409" lon="-4.438557">
        <ele>784.086</ele>
        <time>2021-07-22T09:36:37Z</time>
      </trkpt>
      <trkpt lat="42.267412" lon="-4.438561">
        <ele>784.074</ele>
        <time>2021-07-22T09:36:49Z</time>
      </trkpt>
      <trkpt lat="42.267402" lon="-4.438544">
        <ele>784.078</ele>
        <time>2021-07-22T09:36:56Z</time>
      </trkpt>
      <trkpt lat="42.267400" lon="-4.438526">
        <ele>784.033</ele>
        <time>2021-07-22T09:36:57Z</time>
      </trkpt>
      <trkpt lat="42.267397" lon="-4.438502">
        <ele>783.626</ele>
        <time>2021-07-22T09:36:58Z</time>
      </trkpt>
      <trkpt lat="42.267393" lon="-4.438474">
        <ele>783.608</ele>
        <time>2021-07-22T09:36:59Z</time>
      </trkpt>
      <trkpt lat="42.267387" lon="-4.438440">
        <ele>784.024</ele>
        <time>2021-07-22T09:37:00Z</time>
      </trkpt>
      <trkpt lat="42.267342" lon="-4.438021">
        <ele>783.636</ele>
        <time>2021-07-22T09:37:09Z</time>
      </trkpt>
      <trkpt lat="42.267288" lon="-4.437544">
        <ele>783.193</ele>
        <time>2021-07-22T09:37:17Z</time>
      </trkpt>
      <trkpt lat="42.267239" lon="-4.436918">
        <ele>782.643</ele>
        <time>2021-07-22T09:37:27Z</time>
      </trkpt>
      <trkpt lat="42.267168" lon="-4.436247">
        <ele>782.187</ele>
        <time>2021-07-22T09:37:38Z</time>
      </trkpt>
      <trkpt lat="42.267109" lon="-4.435612">
        <ele>781.675</ele>
        <time>2021-07-22T09:37:48Z</time>
      </trkpt>
      <trkpt lat="42.267055" lon="-4.435073">
        <ele>781.672</ele>
        <time>2021-07-22T09:37:57Z</time>
      </trkpt>
      <trkpt lat="42.267014" lon="-4.434639">
        <ele>781.640</ele>
        <time>2021-07-22T09:38:06Z</time>
      </trkpt>
      <trkpt lat="42.266966" lon="-4.434150">
        <ele>781.652</ele>
        <time>2021-07-22T09:38:16Z</time>
      </trkpt>
      <trkpt lat="42.266906" lon="-4.433559">
        <ele>781.253</ele>
        <time>2021-07-22T09:38:27Z</time>
      </trkpt>
      <trkpt lat="42.266845" lon="-4.432989">
        <ele>781.208</ele>
        <time>2021-07-22T09:38:37Z</time>
      </trkpt>
      <trkpt lat="42.266779" lon="-4.432351">
        <ele>780.708</ele>
        <time>2021-07-22T09:38:49Z</time>
      </trkpt>
      <trkpt lat="42.266722" lon="-4.431727">
        <ele>780.792</ele>
        <time>2021-07-22T09:39:01Z</time>
      </trkpt>
      <trkpt lat="42.266676" lon="-4.431168">
        <ele>780.764</ele>
        <time>2021-07-22T09:39:12Z</time>
      </trkpt>
      <trkpt lat="42.266649" lon="-4.430893">
        <ele>781.211</ele>
        <time>2021-07-22T09:39:19Z</time>
      </trkpt>
      <trkpt lat="42.266616" lon="-4.430538">
        <ele>780.721</ele>
        <time>2021-07-22T09:39:28Z</time>
      </trkpt>
      <trkpt lat="42.266592" lon="-4.430258">
        <ele>781.275</ele>
        <time>2021-07-22T09:39:36Z</time>
      </trkpt>
      <trkpt lat="42.266558" lon="-4.429886">
        <ele>781.223</ele>
        <time>2021-07-22T09:39:44Z</time>
      </trkpt>
      <trkpt lat="42.266509" lon="-4.429437">
        <ele>781.260</ele>
        <time>2021-07-22T09:39:52Z</time>
      </trkpt>
      <trkpt lat="42.266454" lon="-4.428865">
        <ele>781.228</ele>
        <time>2021-07-22T09:40:02Z</time>
      </trkpt>
      <trkpt lat="42.266409" lon="-4.428395">
        <ele>781.643</ele>
        <time>2021-07-22T09:40:11Z</time>
      </trkpt>
      <trkpt lat="42.266361" lon="-4.427947">
        <ele>781.664</ele>
        <time>2021-07-22T09:40:21Z</time>
      </trkpt>
      <trkpt lat="42.266328" lon="-4.427592">
        <ele>782.110</ele>
        <time>2021-07-22T09:40:29Z</time>
      </trkpt>
      <trkpt lat="42.266279" lon="-4.427091">
        <ele>782.608</ele>
        <time>2021-07-22T09:40:40Z</time>
      </trkpt>
      <trkpt lat="42.266231" lon="-4.426600">
        <ele>783.131</ele>
        <time>2021-07-22T09:40:50Z</time>
      </trkpt>
      <trkpt lat="42.266185" lon="-4.426134">
        <ele>783.123</ele>
        <time>2021-07-22T09:41:00Z</time>
      </trkpt>
      <trkpt lat="42.266137" lon="-4.425624">
        <ele>782.630</ele>
        <time>2021-07-22T09:41:10Z</time>
      </trkpt>
      <trkpt lat="42.266077" lon="-4.425059">
        <ele>782.130</ele>
        <time>2021-07-22T09:41:21Z</time>
      </trkpt>
      <trkpt lat="42.266031" lon="-4.424578">
        <ele>782.174</ele>
        <time>2021-07-22T09:41:30Z</time>
      </trkpt>
      <trkpt lat="42.265984" lon="-4.424102">
        <ele>782.182</ele>
        <time>2021-07-22T09:41:39Z</time>
      </trkpt>
      <trkpt lat="42.265932" lon="-4.423574">
        <ele>782.629</ele>
        <time>2021-07-22T09:41:49Z</time>
      </trkpt>
      <trkpt lat="42.265889" lon="-4.423122">
        <ele>782.177</ele>
        <time>2021-07-22T09:41:59Z</time>
      </trkpt>
      <trkpt lat="42.265841" lon="-4.422628">
        <ele>782.682</ele>
        <time>2021-07-22T09:42:09Z</time>
      </trkpt>
      <trkpt lat="42.265789" lon="-4.422104">
        <ele>782.643</ele>
        <time>2021-07-22T09:42:19Z</time>
      </trkpt>
      <trkpt lat="42.265746" lon="-4.421636">
        <ele>782.117</ele>
        <time>2021-07-22T09:42:28Z</time>
      </trkpt>
      <trkpt lat="42.265702" lon="-4.421196">
        <ele>782.608</ele>
        <time>2021-07-22T09:42:38Z</time>
      </trkpt>
      <trkpt lat="42.265675" lon="-4.420911">
        <ele>783.175</ele>
        <time>2021-07-22T09:42:46Z</time>
      </trkpt>
      <trkpt lat="42.265636" lon="-4.420567">
        <ele>784.017</ele>
        <time>2021-07-22T09:42:55Z</time>
      </trkpt>
      <trkpt lat="42.265609" lon="-4.420269">
        <ele>785.064</ele>
        <time>2021-07-22T09:43:03Z</time>
      </trkpt>
      <trkpt lat="42.265585" lon="-4.419983">
        <ele>786.014</ele>
        <time>2021-07-22T09:43:11Z</time>
      </trkpt>
      <trkpt lat="42.265556" lon="-4.419721">
        <ele>786.588</ele>
        <time>2021-07-22T09:43:18Z</time>
      </trkpt>
      <trkpt lat="42.265519" lon="-4.419332">
        <ele>786.996</ele>
        <time>2021-07-22T09:43:29Z</time>
      </trkpt>
      <trkpt lat="42.265500" lon="-4.418975">
        <ele>788.413</ele>
        <time>2021-07-22T09:43:39Z</time>
      </trkpt>
      <trkpt lat="42.265571" lon="-4.418702">
        <ele>789.361</ele>
        <time>2021-07-22T09:43:47Z</time>
      </trkpt>
      <trkpt lat="42.265719" lon="-4.418395">
        <ele>789.827</ele>
        <time>2021-07-22T09:43:56Z</time>
      </trkpt>
      <trkpt lat="42.265722" lon="-4.418084">
        <ele>790.368</ele>
        <time>2021-07-22T09:44:04Z</time>
      </trkpt>
      <trkpt lat="42.265581" lon="-4.417809">
        <ele>790.314</ele>
        <time>2021-07-22T09:44:13Z</time>
      </trkpt>
      <trkpt lat="42.265397" lon="-4.417582">
        <ele>790.808</ele>
        <time>2021-07-22T09:44:22Z</time>
      </trkpt>
      <trkpt lat="42.265316" lon="-4.417207">
        <ele>791.359</ele>
        <time>2021-07-22T09:44:32Z</time>
      </trkpt>
      <trkpt lat="42.265267" lon="-4.416909">
        <ele>791.761</ele>
        <time>2021-07-22T09:44:41Z</time>
      </trkpt>
      <trkpt lat="42.265242" lon="-4.416819">
        <ele>792.798</ele>
        <time>2021-07-22T09:44:45Z</time>
      </trkpt>
      <trkpt lat="42.265226" lon="-4.416610">
        <ele>793.778</ele>
        <time>2021-07-22T09:44:51Z</time>
      </trkpt>
      <trkpt lat="42.265185" lon="-4.416228">
        <ele>793.712</ele>
        <time>2021-07-22T09:45:01Z</time>
      </trkpt>
      <trkpt lat="42.265165" lon="-4.415921">
        <ele>792.780</ele>
        <time>2021-07-22T09:45:11Z</time>
      </trkpt>
      <trkpt lat="42.265165" lon="-4.415822">
        <ele>792.287</ele>
        <time>2021-07-22T09:45:17Z</time>
      </trkpt>
      <trkpt lat="42.265144" lon="-4.415537">
        <ele>791.325</ele>
        <time>2021-07-22T09:45:25Z</time>
      </trkpt>
      <trkpt lat="42.265133" lon="-4.415138">
        <ele>791.393</ele>
        <time>2021-07-22T09:45:35Z</time>
      </trkpt>
      <trkpt lat="42.265223" lon="-4.414883">
        <ele>791.765</ele>
        <time>2021-07-22T09:45:42Z</time>
      </trkpt>
      <trkpt lat="42.265316" lon="-4.414610">
        <ele>792.221</ele>
        <time>2021-07-22T09:45:49Z</time>
      </trkpt>
      <trkpt lat="42.265293" lon="-4.414325">
        <ele>791.708</ele>
        <time>2021-07-22T09:45:55Z</time>
      </trkpt>
      <trkpt lat="42.265153" lon="-4.414075">
        <ele>791.346</ele>
        <time>2021-07-22T09:46:02Z</time>
      </trkpt>
      <trkpt lat="42.265060" lon="-4.413848">
        <ele>791.358</ele>
        <time>2021-07-22T09:46:08Z</time>
      </trkpt>
      <trkpt lat="42.265015" lon="-4.413508">
        <ele>790.345</ele>
        <time>2021-07-22T09:46:16Z</time>
      </trkpt>
      <trkpt lat="42.265016" lon="-4.413285">
        <ele>790.815</ele>
        <time>2021-07-22T09:46:22Z</time>
      </trkpt>
      <trkpt lat="42.265050" lon="-4.412917">
        <ele>790.369</ele>
        <time>2021-07-22T09:46:31Z</time>
      </trkpt>
      <trkpt lat="42.265081" lon="-4.412478">
        <ele>789.347</ele>
        <time>2021-07-22T09:46:41Z</time>
      </trkpt>
      <trkpt lat="42.265105" lon="-4.412117">
        <ele>787.464</ele>
        <time>2021-07-22T09:46:49Z</time>
      </trkpt>
      <trkpt lat="42.265122" lon="-4.411785">
        <ele>786.522</ele>
        <time>2021-07-22T09:46:57Z</time>
      </trkpt>
      <trkpt lat="42.265122" lon="-4.411576">
        <ele>786.096</ele>
        <time>2021-07-22T09:47:05Z</time>
      </trkpt>
      <trkpt lat="42.265093" lon="-4.411360">
        <ele>786.031</ele>
        <time>2021-07-22T09:47:11Z</time>
      </trkpt>
      <trkpt lat="42.265113" lon="-4.410937">
        <ele>786.924</ele>
        <time>2021-07-22T09:47:20Z</time>
      </trkpt>
      <trkpt lat="42.265134" lon="-4.410551">
        <ele>787.908</ele>
        <time>2021-07-22T09:47:28Z</time>
      </trkpt>
      <trkpt lat="42.265162" lon="-4.410026">
        <ele>787.956</ele>
        <time>2021-07-22T09:47:39Z</time>
      </trkpt>
      <trkpt lat="42.265168" lon="-4.409600">
        <ele>787.978</ele>
        <time>2021-07-22T09:47:48Z</time>
      </trkpt>
      <trkpt lat="42.265189" lon="-4.409106">
        <ele>786.935</ele>
        <time>2021-07-22T09:47:56Z</time>
      </trkpt>
      <trkpt lat="42.265229" lon="-4.408228">
        <ele>786.515</ele>
        <time>2021-07-22T09:48:08Z</time>
      </trkpt>
      <trkpt lat="42.265295" lon="-4.407632">
        <ele>786.549</ele>
        <time>2021-07-22T09:48:17Z</time>
      </trkpt>
      <trkpt lat="42.265467" lon="-4.407178">
        <ele>786.047</ele>
        <time>2021-07-22T09:48:25Z</time>
      </trkpt>
      <trkpt lat="42.265632" lon="-4.406893">
        <ele>786.044</ele>
        <time>2021-07-22T09:48:31Z</time>
      </trkpt>
      <trkpt lat="42.265698" lon="-4.406812">
        <ele>786.032</ele>
        <time>2021-07-22T09:48:33Z</time>
      </trkpt>
      <trkpt lat="42.265934" lon="-4.406518">
        <ele>785.053</ele>
        <time>2021-07-22T09:48:41Z</time>
      </trkpt>
      <trkpt lat="42.266016" lon="-4.406270">
        <ele>785.004</ele>
        <time>2021-07-22T09:48:47Z</time>
      </trkpt>
      <trkpt lat="42.266041" lon="-4.406251">
        <ele>785.514</ele>
        <time>2021-07-22T09:48:48Z</time>
      </trkpt>
      <trkpt lat="42.266065" lon="-4.406238">
        <ele>785.508</ele>
        <time>2021-07-22T09:48:49Z</time>
      </trkpt>
      <trkpt lat="42.266081" lon="-4.406231">
        <ele>785.542</ele>
        <time>2021-07-22T09:48:50Z</time>
      </trkpt>
      <trkpt lat="42.266099" lon="-4.406225">
        <ele>786.024</ele>
        <time>2021-07-22T09:48:51Z</time>
      </trkpt>
      <trkpt lat="42.266119" lon="-4.406214">
        <ele>786.031</ele>
        <time>2021-07-22T09:48:52Z</time>
      </trkpt>
      <trkpt lat="42.266135" lon="-4.406197">
        <ele>786.061</ele>
        <time>2021-07-22T09:48:53Z</time>
      </trkpt>
      <trkpt lat="42.266151" lon="-4.406177">
        <ele>786.035</ele>
        <time>2021-07-22T09:48:54Z</time>
      </trkpt>
      <trkpt lat="42.266169" lon="-4.406162">
        <ele>786.533</ele>
        <time>2021-07-22T09:48:55Z</time>
      </trkpt>
      <trkpt lat="42.266190" lon="-4.406152">
        <ele>786.540</ele>
        <time>2021-07-22T09:48:56Z</time>
      </trkpt>
      <trkpt lat="42.266213" lon="-4.406142">
        <ele>786.578</ele>
        <time>2021-07-22T09:48:57Z</time>
      </trkpt>
      <trkpt lat="42.266236" lon="-4.406134">
        <ele>786.924</ele>
        <time>2021-07-22T09:48:58Z</time>
      </trkpt>
      <trkpt lat="42.266439" lon="-4.406070">
        <ele>787.904</ele>
        <time>2021-07-22T09:49:07Z</time>
      </trkpt>
      <trkpt lat="42.266639" lon="-4.406013">
        <ele>789.814</ele>
        <time>2021-07-22T09:49:17Z</time>
      </trkpt>
      <trkpt lat="42.266725" lon="-4.406013">
        <ele>789.808</ele>
        <time>2021-07-22T09:49:23Z</time>
      </trkpt>
      <trkpt lat="42.266732" lon="-4.406037">
        <ele>789.839</ele>
        <time>2021-07-22T09:49:29Z</time>
      </trkpt>
      <trkpt lat="42.266730" lon="-4.406027">
        <ele>788.951</ele>
        <time>2021-07-22T09:49:41Z</time>
      </trkpt>
      <trkpt lat="42.266722" lon="-4.405993">
        <ele>786.998</ele>
        <time>2021-07-22T09:49:58Z</time>
      </trkpt>
      <trkpt lat="42.266738" lon="-4.405991">
        <ele>784.068</ele>
        <time>2021-07-22T09:50:23Z</time>
      </trkpt>
      <trkpt lat="42.266727" lon="-4.406002">
        <ele>782.192</ele>
        <time>2021-07-22T09:50:39Z</time>
      </trkpt>
      <trkpt lat="42.266723" lon="-4.406034">
        <ele>785.080</ele>
        <time>2021-07-22T09:50:57Z</time>
      </trkpt>
      <trkpt lat="42.266734" lon="-4.406024">
        <ele>783.627</ele>
        <time>2021-07-22T09:51:12Z</time>
      </trkpt>
      <trkpt lat="42.266723" lon="-4.406031">
        <ele>784.545</ele>
        <time>2021-07-22T09:51:18Z</time>
      </trkpt>
      <trkpt lat="42.266713" lon="-4.406033">
        <ele>784.548</ele>
        <time>2021-07-22T09:51:19Z</time>
      </trkpt>
      <trkpt lat="42.266703" lon="-4.406039">
        <ele>784.561</ele>
        <time>2021-07-22T09:51:20Z</time>
      </trkpt>
      <trkpt lat="42.266695" lon="-4.406051">
        <ele>784.517</ele>
        <time>2021-07-22T09:51:21Z</time>
      </trkpt>
      <trkpt lat="42.266713" lon="-4.406128">
        <ele>785.508</ele>
        <time>2021-07-22T09:51:26Z</time>
      </trkpt>
      <trkpt lat="42.266719" lon="-4.406317">
        <ele>784.071</ele>
        <time>2021-07-22T09:51:37Z</time>
      </trkpt>
      <trkpt lat="42.266745" lon="-4.406428">
        <ele>783.663</ele>
        <time>2021-07-22T09:51:45Z</time>
      </trkpt>
      <trkpt lat="42.266738" lon="-4.406447">
        <ele>783.640</ele>
        <time>2021-07-22T09:51:46Z</time>
      </trkpt>
      <trkpt lat="42.266692" lon="-4.406550">
        <ele>784.030</ele>
        <time>2021-07-22T09:51:55Z</time>
      </trkpt>
      <trkpt lat="42.266687" lon="-4.406571">
        <ele>784.054</ele>
        <time>2021-07-22T09:51:57Z</time>
      </trkpt>
      <trkpt lat="42.266618" lon="-4.406681">
        <ele>785.052</ele>
        <time>2021-07-22T09:52:08Z</time>
      </trkpt>
      <trkpt lat="42.266622" lon="-4.406677">
        <ele>785.059</ele>
        <time>2021-07-22T09:52:22Z</time>
      </trkpt>
      <trkpt lat="42.266613" lon="-4.406684">
        <ele>785.547</ele>
        <time>2021-07-22T09:52:44Z</time>
      </trkpt>
      <trkpt lat="42.266611" lon="-4.406667">
        <ele>785.533</ele>
        <time>2021-07-22T09:53:01Z</time>
      </trkpt>
      <trkpt lat="42.266603" lon="-4.406678">
        <ele>784.023</ele>
        <time>2021-07-22T09:53:25Z</time>
      </trkpt>
      <trkpt lat="42.266611" lon="-4.406681">
        <ele>783.615</ele>
        <time>2021-07-22T09:53:46Z</time>
      </trkpt>
      <trkpt lat="42.266610" lon="-4.406682">
        <ele>782.108</ele>
        <time>2021-07-22T09:54:06Z</time>
      </trkpt>
      <trkpt lat="42.266615" lon="-4.406665">
        <ele>784.030</ele>
        <time>2021-07-22T09:54:22Z</time>
      </trkpt>
      <trkpt lat="42.266638" lon="-4.406664">
        <ele>786.592</ele>
        <time>2021-07-22T09:54:44Z</time>
      </trkpt>
      <trkpt lat="42.266615" lon="-4.406670">
        <ele>786.929</ele>
        <time>2021-07-22T09:55:07Z</time>
      </trkpt>
      <trkpt lat="42.266623" lon="-4.406674">
        <ele>786.029</ele>
        <time>2021-07-22T09:55:28Z</time>
      </trkpt>
      <trkpt lat="42.266641" lon="-4.406686">
        <ele>786.933</ele>
        <time>2021-07-22T09:55:47Z</time>
      </trkpt>
      <trkpt lat="42.266650" lon="-4.406681">
        <ele>787.431</ele>
        <time>2021-07-22T09:55:57Z</time>
      </trkpt>
      <trkpt lat="42.266651" lon="-4.406671">
        <ele>787.988</ele>
        <time>2021-07-22T09:56:02Z</time>
      </trkpt>
      <trkpt lat="42.266710" lon="-4.406627">
        <ele>787.946</ele>
        <time>2021-07-22T09:56:07Z</time>
      </trkpt>
      <trkpt lat="42.266796" lon="-4.406499">
        <ele>787.476</ele>
        <time>2021-07-22T09:56:14Z</time>
      </trkpt>
      <trkpt lat="42.266791" lon="-4.406437">
        <ele>787.490</ele>
        <time>2021-07-22T09:56:17Z</time>
      </trkpt>
      <trkpt lat="42.266795" lon="-4.406371">
        <ele>787.419</ele>
        <time>2021-07-22T09:56:21Z</time>
      </trkpt>
      <trkpt lat="42.266839" lon="-4.406361">
        <ele>787.908</ele>
        <time>2021-07-22T09:56:25Z</time>
      </trkpt>
      <trkpt lat="42.266871" lon="-4.406300">
        <ele>788.444</ele>
        <time>2021-07-22T09:56:33Z</time>
      </trkpt>
      <trkpt lat="42.266861" lon="-4.406300">
        <ele>788.476</ele>
        <time>2021-07-22T09:56:34Z</time>
      </trkpt>
      <trkpt lat="42.266834" lon="-4.406313">
        <ele>787.913</ele>
        <time>2021-07-22T09:56:37Z</time>
      </trkpt>
      <trkpt lat="42.266803" lon="-4.406244">
        <ele>788.413</ele>
        <time>2021-07-22T09:56:43Z</time>
      </trkpt>
      <trkpt lat="42.266813" lon="-4.406139">
        <ele>788.457</ele>
        <time>2021-07-22T09:56:50Z</time>
      </trkpt>
      <trkpt lat="42.266806" lon="-4.406107">
        <ele>788.445</ele>
        <time>2021-07-22T09:56:52Z</time>
      </trkpt>
      <trkpt lat="42.266818" lon="-4.406034">
        <ele>787.482</ele>
        <time>2021-07-22T09:56:56Z</time>
      </trkpt>
      <trkpt lat="42.266756" lon="-4.405914">
        <ele>786.080</ele>
        <time>2021-07-22T09:57:02Z</time>
      </trkpt>
      <trkpt lat="42.266715" lon="-4.405858">
        <ele>786.065</ele>
        <time>2021-07-22T09:57:06Z</time>
      </trkpt>
      <trkpt lat="42.266703" lon="-4.405835">
        <ele>786.068</ele>
        <time>2021-07-22T09:57:08Z</time>
      </trkpt>
      <trkpt lat="42.266678" lon="-4.405813">
        <ele>786.014</ele>
        <time>2021-07-22T09:57:11Z</time>
      </trkpt>
      <trkpt lat="42.266633" lon="-4.405825">
        <ele>785.508</ele>
        <time>2021-07-22T09:57:14Z</time>
      </trkpt>
      <trkpt lat="42.266613" lon="-4.405837">
        <ele>785.513</ele>
        <time>2021-07-22T09:57:15Z</time>
      </trkpt>
      <trkpt lat="42.266595" lon="-4.405846">
        <ele>786.075</ele>
        <time>2021-07-22T09:57:16Z</time>
      </trkpt>
      <trkpt lat="42.266577" lon="-4.405857">
        <ele>786.052</ele>
        <time>2021-07-22T09:57:17Z</time>
      </trkpt>
      <trkpt lat="42.266430" lon="-4.405937">
        <ele>786.062</ele>
        <time>2021-07-22T09:57:24Z</time>
      </trkpt>
      <trkpt lat="42.266273" lon="-4.406033">
        <ele>786.066</ele>
        <time>2021-07-22T09:57:32Z</time>
      </trkpt>
      <trkpt lat="42.266259" lon="-4.406036">
        <ele>786.054</ele>
        <time>2021-07-22T09:57:33Z</time>
      </trkpt>
      <trkpt lat="42.266244" lon="-4.406038">
        <ele>786.081</ele>
        <time>2021-07-22T09:57:39Z</time>
      </trkpt>
      <trkpt lat="42.266199" lon="-4.406027">
        <ele>786.019</ele>
        <time>2021-07-22T09:57:51Z</time>
      </trkpt>
      <trkpt lat="42.266193" lon="-4.406007">
        <ele>786.034</ele>
        <time>2021-07-22T09:57:52Z</time>
      </trkpt>
      <trkpt lat="42.266195" lon="-4.405979">
        <ele>786.055</ele>
        <time>2021-07-22T09:57:53Z</time>
      </trkpt>
      <trkpt lat="42.266207" lon="-4.405954">
        <ele>786.010</ele>
        <time>2021-07-22T09:57:54Z</time>
      </trkpt>
      <trkpt lat="42.266231" lon="-4.405929">
        <ele>785.508</ele>
        <time>2021-07-22T09:57:55Z</time>
      </trkpt>
      <trkpt lat="42.266257" lon="-4.405913">
        <ele>785.520</ele>
        <time>2021-07-22T09:57:56Z</time>
      </trkpt>
      <trkpt lat="42.266287" lon="-4.405897">
        <ele>785.532</ele>
        <time>2021-07-22T09:57:57Z</time>
      </trkpt>
      <trkpt lat="42.266566" lon="-4.405760">
        <ele>786.029</ele>
        <time>2021-07-22T09:58:05Z</time>
      </trkpt>
      <trkpt lat="42.266919" lon="-4.405559">
        <ele>786.999</ele>
        <time>2021-07-22T09:58:15Z</time>
      </trkpt>
      <trkpt lat="42.267265" lon="-4.405365">
        <ele>787.483</ele>
        <time>2021-07-22T09:58:25Z</time>
      </trkpt>
      <trkpt lat="42.267607" lon="-4.405144">
        <ele>788.471</ele>
        <time>2021-07-22T09:58:36Z</time>
      </trkpt>
      <trkpt lat="42.267804" lon="-4.405019">
        <ele>788.918</ele>
        <time>2021-07-22T09:58:45Z</time>
      </trkpt>
      <trkpt lat="42.267990" lon="-4.405009">
        <ele>788.916</ele>
        <time>2021-07-22T09:58:53Z</time>
      </trkpt>
      <trkpt lat="42.268085" lon="-4.405052">
        <ele>788.471</ele>
        <time>2021-07-22T09:58:58Z</time>
      </trkpt>
      <trkpt lat="42.268102" lon="-4.405043">
        <ele>788.441</ele>
        <time>2021-07-22T09:58:59Z</time>
      </trkpt>
      <trkpt lat="42.268117" lon="-4.405029">
        <ele>788.415</ele>
        <time>2021-07-22T09:59:00Z</time>
      </trkpt>
      <trkpt lat="42.268186" lon="-4.404953">
        <ele>788.408</ele>
        <time>2021-07-22T09:59:08Z</time>
      </trkpt>
      <trkpt lat="42.268187" lon="-4.404953">
        <ele>788.434</ele>
        <time>2021-07-22T09:59:19Z</time>
      </trkpt>
      <trkpt lat="42.268184" lon="-4.404975">
        <ele>788.486</ele>
        <time>2021-07-22T09:59:35Z</time>
      </trkpt>
      <trkpt lat="42.268201" lon="-4.404975">
        <ele>787.923</ele>
        <time>2021-07-22T09:59:54Z</time>
      </trkpt>
      <trkpt lat="42.268202" lon="-4.404949">
        <ele>786.953</ele>
        <time>2021-07-22T10:00:12Z</time>
      </trkpt>
      <trkpt lat="42.268207" lon="-4.404936">
        <ele>788.417</ele>
        <time>2021-07-22T10:00:29Z</time>
      </trkpt>
      <trkpt lat="42.268215" lon="-4.404960">
        <ele>787.965</ele>
        <time>2021-07-22T10:00:44Z</time>
      </trkpt>
      <trkpt lat="42.268198" lon="-4.404952">
        <ele>787.432</ele>
        <time>2021-07-22T10:00:58Z</time>
      </trkpt>
      <trkpt lat="42.268194" lon="-4.404962">
        <ele>791.790</ele>
        <time>2021-07-22T10:01:17Z</time>
      </trkpt>
      <trkpt lat="42.268197" lon="-4.404957">
        <ele>791.362</ele>
        <time>2021-07-22T10:01:35Z</time>
      </trkpt>
      <trkpt lat="42.268191" lon="-4.404949">
        <ele>789.883</ele>
        <time>2021-07-22T10:01:52Z</time>
      </trkpt>
      <trkpt lat="42.268182" lon="-4.404946">
        <ele>789.311</ele>
        <time>2021-07-22T10:02:09Z</time>
      </trkpt>
      <trkpt lat="42.268188" lon="-4.404985">
        <ele>789.808</ele>
        <time>2021-07-22T10:02:30Z</time>
      </trkpt>
      <trkpt lat="42.268180" lon="-4.404963">
        <ele>790.813</ele>
        <time>2021-07-22T10:02:44Z</time>
      </trkpt>
      <trkpt lat="42.268192" lon="-4.404963">
        <ele>788.495</ele>
        <time>2021-07-22T10:03:00Z</time>
      </trkpt>
      <trkpt lat="42.268181" lon="-4.404953">
        <ele>787.922</ele>
        <time>2021-07-22T10:03:12Z</time>
      </trkpt>
      <trkpt lat="42.268162" lon="-4.404969">
        <ele>787.452</ele>
        <time>2021-07-22T10:03:18Z</time>
      </trkpt>
      <trkpt lat="42.268153" lon="-4.404973">
        <ele>787.476</ele>
        <time>2021-07-22T10:03:20Z</time>
      </trkpt>
      <trkpt lat="42.268147" lon="-4.404985">
        <ele>787.454</ele>
        <time>2021-07-22T10:03:21Z</time>
      </trkpt>
      <trkpt lat="42.268142" lon="-4.405000">
        <ele>787.411</ele>
        <time>2021-07-22T10:03:22Z</time>
      </trkpt>
      <trkpt lat="42.268134" lon="-4.405017">
        <ele>787.499</ele>
        <time>2021-07-22T10:03:23Z</time>
      </trkpt>
      <trkpt lat="42.268125" lon="-4.405032">
        <ele>787.487</ele>
        <time>2021-07-22T10:03:24Z</time>
      </trkpt>
      <trkpt lat="42.268116" lon="-4.405052">
        <ele>787.442</ele>
        <time>2021-07-22T10:03:25Z</time>
      </trkpt>
      <trkpt lat="42.268107" lon="-4.405076">
        <ele>787.926</ele>
        <time>2021-07-22T10:03:26Z</time>
      </trkpt>
      <trkpt lat="42.268100" lon="-4.405102">
        <ele>787.908</ele>
        <time>2021-07-22T10:03:27Z</time>
      </trkpt>
      <trkpt lat="42.268094" lon="-4.405131">
        <ele>787.985</ele>
        <time>2021-07-22T10:03:28Z</time>
      </trkpt>
      <trkpt lat="42.268087" lon="-4.405158">
        <ele>787.977</ele>
        <time>2021-07-22T10:03:29Z</time>
      </trkpt>
      <trkpt lat="42.268080" lon="-4.405306">
        <ele>786.934</ele>
        <time>2021-07-22T10:03:36Z</time>
      </trkpt>
      <trkpt lat="42.268075" lon="-4.405347">
        <ele>786.594</ele>
        <time>2021-07-22T10:03:40Z</time>
      </trkpt>
      <trkpt lat="42.268100" lon="-4.405563">
        <ele>787.948</ele>
        <time>2021-07-22T10:03:48Z</time>
      </trkpt>
      <trkpt lat="42.268086" lon="-4.405748">
        <ele>788.416</ele>
        <time>2021-07-22T10:03:54Z</time>
      </trkpt>
      <trkpt lat="42.268046" lon="-4.405766">
        <ele>788.413</ele>
        <time>2021-07-22T10:04:00Z</time>
      </trkpt>
      <trkpt lat="42.268046" lon="-4.405767">
        <ele>786.981</ele>
        <time>2021-07-22T10:04:15Z</time>
      </trkpt>
      <trkpt lat="42.268038" lon="-4.405759">
        <ele>786.597</ele>
        <time>2021-07-22T10:04:20Z</time>
      </trkpt>
      <trkpt lat="42.268044" lon="-4.405628">
        <ele>785.523</ele>
        <time>2021-07-22T10:04:28Z</time>
      </trkpt>
      <trkpt lat="42.268044" lon="-4.405627">
        <ele>787.425</ele>
        <time>2021-07-22T10:04:39Z</time>
      </trkpt>
      <trkpt lat="42.268055" lon="-4.405626">
        <ele>787.408</ele>
        <time>2021-07-22T10:04:49Z</time>
      </trkpt>
      <trkpt lat="42.268074" lon="-4.405610">
        <ele>786.026</ele>
        <time>2021-07-22T10:05:05Z</time>
      </trkpt>
      <trkpt lat="42.268063" lon="-4.405602">
        <ele>786.518</ele>
        <time>2021-07-22T10:05:15Z</time>
      </trkpt>
      <trkpt lat="42.268042" lon="-4.405527">
        <ele>786.545</ele>
        <time>2021-07-22T10:05:19Z</time>
      </trkpt>
      <trkpt lat="42.268022" lon="-4.405279">
        <ele>785.545</ele>
        <time>2021-07-22T10:05:27Z</time>
      </trkpt>
      <trkpt lat="42.267989" lon="-4.405056">
        <ele>786.049</ele>
        <time>2021-07-22T10:05:34Z</time>
      </trkpt>
      <trkpt lat="42.267953" lon="-4.405010">
        <ele>786.527</ele>
        <time>2021-07-22T10:05:37Z</time>
      </trkpt>
      <trkpt lat="42.267943" lon="-4.404936">
        <ele>786.544</ele>
        <time>2021-07-22T10:05:40Z</time>
      </trkpt>
      <trkpt lat="42.267948" lon="-4.404904">
        <ele>786.522</ele>
        <time>2021-07-22T10:05:41Z</time>
      </trkpt>
      <trkpt lat="42.267919" lon="-4.404787">
        <ele>786.544</ele>
        <time>2021-07-22T10:05:46Z</time>
      </trkpt>
      <trkpt lat="42.267816" lon="-4.404619">
        <ele>787.405</ele>
        <time>2021-07-22T10:05:54Z</time>
      </trkpt>
      <trkpt lat="42.267702" lon="-4.404435">
        <ele>786.015</ele>
        <time>2021-07-22T10:06:01Z</time>
      </trkpt>
      <trkpt lat="42.267540" lon="-4.404192">
        <ele>784.508</ele>
        <time>2021-07-22T10:06:10Z</time>
      </trkpt>
      <trkpt lat="42.267383" lon="-4.403878">
        <ele>785.591</ele>
        <time>2021-07-22T10:06:20Z</time>
      </trkpt>
      <trkpt lat="42.267231" lon="-4.403615">
        <ele>787.933</ele>
        <time>2021-07-22T10:06:29Z</time>
      </trkpt>
      <trkpt lat="42.267215" lon="-4.403593">
        <ele>788.480</ele>
        <time>2021-07-22T10:06:30Z</time>
      </trkpt>
      <trkpt lat="42.267216" lon="-4.403503">
        <ele>789.810</ele>
        <time>2021-07-22T10:06:34Z</time>
      </trkpt>
      <trkpt lat="42.267361" lon="-4.403391">
        <ele>793.274</ele>
        <time>2021-07-22T10:06:42Z</time>
      </trkpt>
      <trkpt lat="42.267395" lon="-4.403247">
        <ele>793.292</ele>
        <time>2021-07-22T10:06:48Z</time>
      </trkpt>
      <trkpt lat="42.267439" lon="-4.403162">
        <ele>793.239</ele>
        <time>2021-07-22T10:06:52Z</time>
      </trkpt>
      <trkpt lat="42.267527" lon="-4.402957">
        <ele>794.667</ele>
        <time>2021-07-22T10:07:03Z</time>
      </trkpt>
      <trkpt lat="42.267564" lon="-4.402752">
        <ele>796.147</ele>
        <time>2021-07-22T10:07:12Z</time>
      </trkpt>
      <trkpt lat="42.267564" lon="-4.402748">
        <ele>797.029</ele>
        <time>2021-07-22T10:07:19Z</time>
      </trkpt>
      <trkpt lat="42.267580" lon="-4.402765">
        <ele>795.621</ele>
        <time>2021-07-22T10:07:41Z</time>
      </trkpt>
      <trkpt lat="42.267573" lon="-4.402743">
        <ele>795.608</ele>
        <time>2021-07-22T10:07:51Z</time>
      </trkpt>
      <trkpt lat="42.267573" lon="-4.402733">
        <ele>795.621</ele>
        <time>2021-07-22T10:07:52Z</time>
      </trkpt>
      <trkpt lat="42.267573" lon="-4.402664">
        <ele>793.243</ele>
        <time>2021-07-22T10:07:57Z</time>
      </trkpt>
      <trkpt lat="42.267616" lon="-4.402489">
        <ele>792.750</ele>
        <time>2021-07-22T10:08:04Z</time>
      </trkpt>
      <trkpt lat="42.267626" lon="-4.402445">
        <ele>793.780</ele>
        <time>2021-07-22T10:08:10Z</time>
      </trkpt>
      <trkpt lat="42.267637" lon="-4.402463">
        <ele>793.234</ele>
        <time>2021-07-22T10:08:14Z</time>
      </trkpt>
      <trkpt lat="42.267609" lon="-4.402565">
        <ele>792.262</ele>
        <time>2021-07-22T10:08:20Z</time>
      </trkpt>
      <trkpt lat="42.267595" lon="-4.402645">
        <ele>792.269</ele>
        <time>2021-07-22T10:08:23Z</time>
      </trkpt>
      <trkpt lat="42.267564" lon="-4.402854">
        <ele>792.267</ele>
        <time>2021-07-22T10:08:31Z</time>
      </trkpt>
      <trkpt lat="42.267530" lon="-4.402916">
        <ele>791.774</ele>
        <time>2021-07-22T10:08:33Z</time>
      </trkpt>
      <trkpt lat="42.267327" lon="-4.402883">
        <ele>791.356</ele>
        <time>2021-07-22T10:08:40Z</time>
      </trkpt>
      <trkpt lat="42.267198" lon="-4.402669">
        <ele>790.821</ele>
        <time>2021-07-22T10:08:47Z</time>
      </trkpt>
      <trkpt lat="42.267235" lon="-4.402466">
        <ele>790.308</ele>
        <time>2021-07-22T10:08:53Z</time>
      </trkpt>
      <trkpt lat="42.267319" lon="-4.402253">
        <ele>790.344</ele>
        <time>2021-07-22T10:09:00Z</time>
      </trkpt>
      <trkpt lat="42.267329" lon="-4.402236">
        <ele>790.396</ele>
        <time>2021-07-22T10:09:05Z</time>
      </trkpt>
      <trkpt lat="42.267345" lon="-4.402231">
        <ele>788.913</ele>
        <time>2021-07-22T10:09:28Z</time>
      </trkpt>
      <trkpt lat="42.267437" lon="-4.402093">
        <ele>788.953</ele>
        <time>2021-07-22T10:09:35Z</time>
      </trkpt>
      <trkpt lat="42.267450" lon="-4.402073">
        <ele>789.397</ele>
        <time>2021-07-22T10:09:36Z</time>
      </trkpt>
      <trkpt lat="42.267392" lon="-4.401962">
        <ele>789.895</ele>
        <time>2021-07-22T10:09:41Z</time>
      </trkpt>
      <trkpt lat="42.267118" lon="-4.401752">
        <ele>790.382</ele>
        <time>2021-07-22T10:09:51Z</time>
      </trkpt>
      <trkpt lat="42.266920" lon="-4.401726">
        <ele>790.350</ele>
        <time>2021-07-22T10:09:57Z</time>
      </trkpt>
      <trkpt lat="42.266595" lon="-4.401778">
        <ele>791.791</ele>
        <time>2021-07-22T10:10:07Z</time>
      </trkpt>
      <trkpt lat="42.266397" lon="-4.401840">
        <ele>792.781</ele>
        <time>2021-07-22T10:10:14Z</time>
      </trkpt>
      <trkpt lat="42.266285" lon="-4.401894">
        <ele>792.719</ele>
        <time>2021-07-22T10:10:22Z</time>
      </trkpt>
      <trkpt lat="42.266264" lon="-4.401919">
        <ele>792.708</ele>
        <time>2021-07-22T10:10:24Z</time>
      </trkpt>
      <trkpt lat="42.266262" lon="-4.401939">
        <ele>792.746</ele>
        <time>2021-07-22T10:10:25Z</time>
      </trkpt>
      <trkpt lat="42.266262" lon="-4.401963">
        <ele>792.238</ele>
        <time>2021-07-22T10:10:26Z</time>
      </trkpt>
      <trkpt lat="42.266269" lon="-4.401994">
        <ele>792.235</ele>
        <time>2021-07-22T10:10:27Z</time>
      </trkpt>
      <trkpt lat="42.266275" lon="-4.402028">
        <ele>792.295</ele>
        <time>2021-07-22T10:10:28Z</time>
      </trkpt>
      <trkpt lat="42.266279" lon="-4.402059">
        <ele>792.259</ele>
        <time>2021-07-22T10:10:29Z</time>
      </trkpt>
      <trkpt lat="42.266280" lon="-4.402099">
        <ele>791.787</ele>
        <time>2021-07-22T10:10:30Z</time>
      </trkpt>
      <trkpt lat="42.266263" lon="-4.402374">
        <ele>791.324</ele>
        <time>2021-07-22T10:10:36Z</time>
      </trkpt>
      <trkpt lat="42.266232" lon="-4.402810">
        <ele>789.892</ele>
        <time>2021-07-22T10:10:44Z</time>
      </trkpt>
      <trkpt lat="42.266228" lon="-4.402988">
        <ele>789.359</ele>
        <time>2021-07-22T10:10:48Z</time>
      </trkpt>
      <trkpt lat="42.266274" lon="-4.402981">
        <ele>789.303</ele>
        <time>2021-07-22T10:10:51Z</time>
      </trkpt>
      <trkpt lat="42.266272" lon="-4.402943">
        <ele>789.323</ele>
        <time>2021-07-22T10:10:52Z</time>
      </trkpt>
      <trkpt lat="42.266269" lon="-4.402909">
        <ele>789.308</ele>
        <time>2021-07-22T10:10:53Z</time>
      </trkpt>
      <trkpt lat="42.266268" lon="-4.402866">
        <ele>789.362</ele>
        <time>2021-07-22T10:10:54Z</time>
      </trkpt>
      <trkpt lat="42.266296" lon="-4.402471">
        <ele>788.464</ele>
        <time>2021-07-22T10:11:03Z</time>
      </trkpt>
      <trkpt lat="42.266325" lon="-4.402113">
        <ele>787.481</ele>
        <time>2021-07-22T10:11:10Z</time>
      </trkpt>
      <trkpt lat="42.266322" lon="-4.402058">
        <ele>787.481</ele>
        <time>2021-07-22T10:11:11Z</time>
      </trkpt>
      <trkpt lat="42.266311" lon="-4.401997">
        <ele>787.455</ele>
        <time>2021-07-22T10:11:12Z</time>
      </trkpt>
      <trkpt lat="42.266297" lon="-4.401940">
        <ele>787.423</ele>
        <time>2021-07-22T10:11:13Z</time>
      </trkpt>
      <trkpt lat="42.266283" lon="-4.401882">
        <ele>787.480</ele>
        <time>2021-07-22T10:11:14Z</time>
      </trkpt>
      <trkpt lat="42.266274" lon="-4.401834">
        <ele>787.488</ele>
        <time>2021-07-22T10:11:15Z</time>
      </trkpt>
      <trkpt lat="42.266209" lon="-4.401559">
        <ele>788.929</ele>
        <time>2021-07-22T10:11:20Z</time>
      </trkpt>
      <trkpt lat="42.266071" lon="-4.401259">
        <ele>790.300</ele>
        <time>2021-07-22T10:11:28Z</time>
      </trkpt>
      <trkpt lat="42.265856" lon="-4.401060">
        <ele>791.320</ele>
        <time>2021-07-22T10:11:37Z</time>
      </trkpt>
      <trkpt lat="42.265658" lon="-4.400903">
        <ele>792.708</ele>
        <time>2021-07-22T10:11:45Z</time>
      </trkpt>
      <trkpt lat="42.265406" lon="-4.400688">
        <ele>793.799</ele>
        <time>2021-07-22T10:11:56Z</time>
      </trkpt>
      <trkpt lat="42.265176" lon="-4.400454">
        <ele>794.121</ele>
        <time>2021-07-22T10:12:05Z</time>
      </trkpt>
      <trkpt lat="42.264916" lon="-4.400143">
        <ele>793.278</ele>
        <time>2021-07-22T10:12:15Z</time>
      </trkpt>
      <trkpt lat="42.264805" lon="-4.399909">
        <ele>793.718</ele>
        <time>2021-07-22T10:12:22Z</time>
      </trkpt>
      <trkpt lat="42.264776" lon="-4.399814">
        <ele>793.752</ele>
        <time>2021-07-22T10:12:26Z</time>
      </trkpt>
      <trkpt lat="42.264684" lon="-4.399676">
        <ele>794.140</ele>
        <time>2021-07-22T10:12:35Z</time>
      </trkpt>
      <trkpt lat="42.264601" lon="-4.399562">
        <ele>793.797</ele>
        <time>2021-07-22T10:12:42Z</time>
      </trkpt>
      <trkpt lat="42.264481" lon="-4.399413">
        <ele>794.195</ele>
        <time>2021-07-22T10:12:50Z</time>
      </trkpt>
      <trkpt lat="42.264366" lon="-4.399261">
        <ele>795.187</ele>
        <time>2021-07-22T10:12:59Z</time>
      </trkpt>
      <trkpt lat="42.264341" lon="-4.399187">
        <ele>796.142</ele>
        <time>2021-07-22T10:13:06Z</time>
      </trkpt>
      <trkpt lat="42.264333" lon="-4.399175">
        <ele>796.126</ele>
        <time>2021-07-22T10:13:07Z</time>
      </trkpt>
      <trkpt lat="42.264276" lon="-4.399108">
        <ele>796.508</ele>
        <time>2021-07-22T10:13:13Z</time>
      </trkpt>
      <trkpt lat="42.264263" lon="-4.399104">
        <ele>796.545</ele>
        <time>2021-07-22T10:13:14Z</time>
      </trkpt>
      <trkpt lat="42.264247" lon="-4.399102">
        <ele>796.527</ele>
        <time>2021-07-22T10:13:15Z</time>
      </trkpt>
      <trkpt lat="42.264226" lon="-4.399102">
        <ele>796.594</ele>
        <time>2021-07-22T10:13:16Z</time>
      </trkpt>
      <trkpt lat="42.264204" lon="-4.399104">
        <ele>796.554</ele>
        <time>2021-07-22T10:13:17Z</time>
      </trkpt>
      <trkpt lat="42.264033" lon="-4.399164">
        <ele>798.598</ele>
        <time>2021-07-22T10:13:25Z</time>
      </trkpt>
      <trkpt lat="42.263929" lon="-4.399196">
        <ele>799.966</ele>
        <time>2021-07-22T10:13:33Z</time>
      </trkpt>
      <trkpt lat="42.263880" lon="-4.399139">
        <ele>800.473</ele>
        <time>2021-07-22T10:13:38Z</time>
      </trkpt>
      <trkpt lat="42.263870" lon="-4.399115">
        <ele>800.911</ele>
        <time>2021-07-22T10:13:46Z</time>
      </trkpt>
      <trkpt lat="42.263865" lon="-4.399123">
        <ele>801.826</ele>
        <time>2021-07-22T10:14:04Z</time>
      </trkpt>
      <trkpt lat="42.263885" lon="-4.399137">
        <ele>797.547</ele>
        <time>2021-07-22T10:14:29Z</time>
      </trkpt>
      <trkpt lat="42.263901" lon="-4.399121">
        <ele>798.511</ele>
        <time>2021-07-22T10:14:49Z</time>
      </trkpt>
      <trkpt lat="42.263869" lon="-4.399121">
        <ele>798.508</ele>
        <time>2021-07-22T10:15:20Z</time>
      </trkpt>
      <trkpt lat="42.263859" lon="-4.399120">
        <ele>798.959</ele>
        <time>2021-07-22T10:15:38Z</time>
      </trkpt>
      <trkpt lat="42.263878" lon="-4.399112">
        <ele>800.921</ele>
        <time>2021-07-22T10:16:02Z</time>
      </trkpt>
      <trkpt lat="42.263884" lon="-4.399108">
        <ele>798.998</ele>
        <time>2021-07-22T10:16:21Z</time>
      </trkpt>
      <trkpt lat="42.263865" lon="-4.399120">
        <ele>798.548</ele>
        <time>2021-07-22T10:16:36Z</time>
      </trkpt>
      <trkpt lat="42.263863" lon="-4.399124">
        <ele>798.032</ele>
        <time>2021-07-22T10:16:53Z</time>
      </trkpt>
      <trkpt lat="42.263868" lon="-4.399143">
        <ele>798.950</ele>
        <time>2021-07-22T10:17:00Z</time>
      </trkpt>
      <trkpt lat="42.263874" lon="-4.399160">
        <ele>799.437</ele>
        <time>2021-07-22T10:17:03Z</time>
      </trkpt>
      <trkpt lat="42.263853" lon="-4.399246">
        <ele>798.555</ele>
        <time>2021-07-22T10:17:08Z</time>
      </trkpt>
      <trkpt lat="42.263660" lon="-4.399479">
        <ele>795.677</ele>
        <time>2021-07-22T10:17:19Z</time>
      </trkpt>
      <trkpt lat="42.263515" lon="-4.399645">
        <ele>793.261</ele>
        <time>2021-07-22T10:17:27Z</time>
      </trkpt>
      <trkpt lat="42.263361" lon="-4.399863">
        <ele>790.327</ele>
        <time>2021-07-22T10:17:36Z</time>
      </trkpt>
      <trkpt lat="42.263319" lon="-4.399948">
        <ele>789.808</ele>
        <time>2021-07-22T10:17:40Z</time>
      </trkpt>
      <trkpt lat="42.263261" lon="-4.399989">
        <ele>789.834</ele>
        <time>2021-07-22T10:17:44Z</time>
      </trkpt>
      <trkpt lat="42.263239" lon="-4.399987">
        <ele>789.826</ele>
        <time>2021-07-22T10:17:45Z</time>
      </trkpt>
      <trkpt lat="42.263222" lon="-4.399980">
        <ele>789.813</ele>
        <time>2021-07-22T10:17:46Z</time>
      </trkpt>
      <trkpt lat="42.263201" lon="-4.399967">
        <ele>789.813</ele>
        <time>2021-07-22T10:17:47Z</time>
      </trkpt>
      <trkpt lat="42.263182" lon="-4.399951">
        <ele>789.817</ele>
        <time>2021-07-22T10:17:48Z</time>
      </trkpt>
      <trkpt lat="42.263164" lon="-4.399932">
        <ele>789.865</ele>
        <time>2021-07-22T10:17:49Z</time>
      </trkpt>
      <trkpt lat="42.263157" lon="-4.399912">
        <ele>789.812</ele>
        <time>2021-07-22T10:17:50Z</time>
      </trkpt>
      <trkpt lat="42.263161" lon="-4.399896">
        <ele>789.830</ele>
        <time>2021-07-22T10:17:51Z</time>
      </trkpt>
      <trkpt lat="42.263172" lon="-4.399884">
        <ele>789.822</ele>
        <time>2021-07-22T10:17:52Z</time>
      </trkpt>
      <trkpt lat="42.263194" lon="-4.399877">
        <ele>790.362</ele>
        <time>2021-07-22T10:17:58Z</time>
      </trkpt>
      <trkpt lat="42.263181" lon="-4.399866">
        <ele>790.808</ele>
        <time>2021-07-22T10:18:12Z</time>
      </trkpt>
      <trkpt lat="42.263190" lon="-4.399898">
        <ele>790.808</ele>
        <time>2021-07-22T10:18:18Z</time>
      </trkpt>
      <trkpt lat="42.263189" lon="-4.399916">
        <ele>790.889</ele>
        <time>2021-07-22T10:18:19Z</time>
      </trkpt>
      <trkpt lat="42.263180" lon="-4.399930">
        <ele>790.371</ele>
        <time>2021-07-22T10:18:20Z</time>
      </trkpt>
      <trkpt lat="42.263164" lon="-4.399936">
        <ele>790.358</ele>
        <time>2021-07-22T10:18:21Z</time>
      </trkpt>
      <trkpt lat="42.263149" lon="-4.399928">
        <ele>790.328</ele>
        <time>2021-07-22T10:18:22Z</time>
      </trkpt>
      <trkpt lat="42.263135" lon="-4.399913">
        <ele>790.872</ele>
        <time>2021-07-22T10:18:23Z</time>
      </trkpt>
      <trkpt lat="42.263122" lon="-4.399894">
        <ele>790.820</ele>
        <time>2021-07-22T10:18:24Z</time>
      </trkpt>
      <trkpt lat="42.263102" lon="-4.399757">
        <ele>790.877</ele>
        <time>2021-07-22T10:18:30Z</time>
      </trkpt>
      <trkpt lat="42.263178" lon="-4.399626">
        <ele>792.745</ele>
        <time>2021-07-22T10:18:38Z</time>
      </trkpt>
      <trkpt lat="42.263291" lon="-4.399509">
        <ele>794.185</ele>
        <time>2021-07-22T10:18:47Z</time>
      </trkpt>
      <trkpt lat="42.263429" lon="-4.399345">
        <ele>795.689</ele>
        <time>2021-07-22T10:18:58Z</time>
      </trkpt>
      <trkpt lat="42.263547" lon="-4.399215">
        <ele>797.017</ele>
        <time>2021-07-22T10:19:08Z</time>
      </trkpt>
      <trkpt lat="42.263624" lon="-4.399134">
        <ele>798.008</ele>
        <time>2021-07-22T10:19:16Z</time>
      </trkpt>
      <trkpt lat="42.263719" lon="-4.399019">
        <ele>798.975</ele>
        <time>2021-07-22T10:19:25Z</time>
      </trkpt>
      <trkpt lat="42.263717" lon="-4.399005">
        <ele>799.937</ele>
        <time>2021-07-22T10:19:32Z</time>
      </trkpt>
      <trkpt lat="42.263711" lon="-4.399009">
        <ele>799.944</ele>
        <time>2021-07-22T10:19:47Z</time>
      </trkpt>
      <trkpt lat="42.263730" lon="-4.398996">
        <ele>799.444</ele>
        <time>2021-07-22T10:19:51Z</time>
      </trkpt>
      <trkpt lat="42.263742" lon="-4.398992">
        <ele>799.428</ele>
        <time>2021-07-22T10:19:52Z</time>
      </trkpt>
      <trkpt lat="42.263755" lon="-4.398987">
        <ele>799.956</ele>
        <time>2021-07-22T10:19:53Z</time>
      </trkpt>
      <trkpt lat="42.263784" lon="-4.398973">
        <ele>799.993</ele>
        <time>2021-07-22T10:19:55Z</time>
      </trkpt>
      <trkpt lat="42.263795" lon="-4.398959">
        <ele>799.991</ele>
        <time>2021-07-22T10:19:56Z</time>
      </trkpt>
      <trkpt lat="42.263803" lon="-4.398939">
        <ele>799.991</ele>
        <time>2021-07-22T10:19:57Z</time>
      </trkpt>
      <trkpt lat="42.263809" lon="-4.398920">
        <ele>799.981</ele>
        <time>2021-07-22T10:19:58Z</time>
      </trkpt>
      <trkpt lat="42.263815" lon="-4.398901">
        <ele>799.919</ele>
        <time>2021-07-22T10:19:59Z</time>
      </trkpt>
      <trkpt lat="42.263835" lon="-4.398842">
        <ele>799.408</ele>
        <time>2021-07-22T10:20:05Z</time>
      </trkpt>
      <trkpt lat="42.263845" lon="-4.398850">
        <ele>798.926</ele>
        <time>2021-07-22T10:20:22Z</time>
      </trkpt>
      <trkpt lat="42.263831" lon="-4.398840">
        <ele>798.578</ele>
        <time>2021-07-22T10:20:43Z</time>
      </trkpt>
      <trkpt lat="42.263834" lon="-4.398854">
        <ele>799.415</ele>
        <time>2021-07-22T10:21:03Z</time>
      </trkpt>
      <trkpt lat="42.263843" lon="-4.398847">
        <ele>799.455</ele>
        <time>2021-07-22T10:21:12Z</time>
      </trkpt>
      <trkpt lat="42.263855" lon="-4.398846">
        <ele>800.469</ele>
        <time>2021-07-22T10:21:24Z</time>
      </trkpt>
      <trkpt lat="42.263874" lon="-4.398819">
        <ele>799.457</ele>
        <time>2021-07-22T10:21:36Z</time>
      </trkpt>
      <trkpt lat="42.263883" lon="-4.398807">
        <ele>799.464</ele>
        <time>2021-07-22T10:21:37Z</time>
      </trkpt>
      <trkpt lat="42.263892" lon="-4.398795">
        <ele>799.432</ele>
        <time>2021-07-22T10:21:38Z</time>
      </trkpt>
      <trkpt lat="42.263902" lon="-4.398783">
        <ele>799.454</ele>
        <time>2021-07-22T10:21:39Z</time>
      </trkpt>
      <trkpt lat="42.263927" lon="-4.398753">
        <ele>799.956</ele>
        <time>2021-07-22T10:21:42Z</time>
      </trkpt>
      <trkpt lat="42.263931" lon="-4.398738">
        <ele>799.411</ele>
        <time>2021-07-22T10:21:43Z</time>
      </trkpt>
      <trkpt lat="42.263966" lon="-4.398706">
        <ele>799.408</ele>
        <time>2021-07-22T10:21:50Z</time>
      </trkpt>
      <trkpt lat="42.263968" lon="-4.398711">
        <ele>799.912</ele>
        <time>2021-07-22T10:21:59Z</time>
      </trkpt>
      <trkpt lat="42.263970" lon="-4.398702">
        <ele>798.564</ele>
        <time>2021-07-22T10:22:14Z</time>
      </trkpt>
      <trkpt lat="42.263979" lon="-4.398693">
        <ele>798.531</ele>
        <time>2021-07-22T10:22:15Z</time>
      </trkpt>
      <trkpt lat="42.263991" lon="-4.398684">
        <ele>798.051</ele>
        <time>2021-07-22T10:22:16Z</time>
      </trkpt>
      <trkpt lat="42.264005" lon="-4.398671">
        <ele>798.565</ele>
        <time>2021-07-22T10:22:17Z</time>
      </trkpt>
      <trkpt lat="42.264127" lon="-4.398511">
        <ele>798.983</ele>
        <time>2021-07-22T10:22:26Z</time>
      </trkpt>
      <trkpt lat="42.264268" lon="-4.398343">
        <ele>798.930</ele>
        <time>2021-07-22T10:22:34Z</time>
      </trkpt>
      <trkpt lat="42.264457" lon="-4.398073">
        <ele>799.468</ele>
        <time>2021-07-22T10:22:43Z</time>
      </trkpt>
      <trkpt lat="42.264567" lon="-4.397780">
        <ele>799.462</ele>
        <time>2021-07-22T10:22:51Z</time>
      </trkpt>
      <trkpt lat="42.264606" lon="-4.397423">
        <ele>798.983</ele>
        <time>2021-07-22T10:23:00Z</time>
      </trkpt>
      <trkpt lat="42.264570" lon="-4.396998">
        <ele>799.911</ele>
        <time>2021-07-22T10:23:10Z</time>
      </trkpt>
      <trkpt lat="42.264495" lon="-4.396560">
        <ele>799.908</ele>
        <time>2021-07-22T10:23:19Z</time>
      </trkpt>
      <trkpt lat="42.264387" lon="-4.396052">
        <ele>799.973</ele>
        <time>2021-07-22T10:23:30Z</time>
      </trkpt>
      <trkpt lat="42.264312" lon="-4.395755">
        <ele>798.975</ele>
        <time>2021-07-22T10:23:37Z</time>
      </trkpt>
      <trkpt lat="42.264232" lon="-4.395314">
        <ele>798.552</ele>
        <time>2021-07-22T10:23:47Z</time>
      </trkpt>
      <trkpt lat="42.264152" lon="-4.394844">
        <ele>798.992</ele>
        <time>2021-07-22T10:23:57Z</time>
      </trkpt>
      <trkpt lat="42.264081" lon="-4.394410">
        <ele>798.586</ele>
        <time>2021-07-22T10:24:06Z</time>
      </trkpt>
      <trkpt lat="42.263989" lon="-4.393938">
        <ele>798.534</ele>
        <time>2021-07-22T10:24:16Z</time>
      </trkpt>
      <trkpt lat="42.263911" lon="-4.393498">
        <ele>798.991</ele>
        <time>2021-07-22T10:24:26Z</time>
      </trkpt>
      <trkpt lat="42.263856" lon="-4.393163">
        <ele>799.439</ele>
        <time>2021-07-22T10:24:35Z</time>
      </trkpt>
      <trkpt lat="42.263849" lon="-4.393134">
        <ele>798.999</ele>
        <time>2021-07-22T10:24:41Z</time>
      </trkpt>
      <trkpt lat="42.263860" lon="-4.393127">
        <ele>798.507</ele>
        <time>2021-07-22T10:24:54Z</time>
      </trkpt>
      <trkpt lat="42.263852" lon="-4.393129">
        <ele>798.927</ele>
        <time>2021-07-22T10:25:11Z</time>
      </trkpt>
      <trkpt lat="42.263837" lon="-4.393039">
        <ele>799.908</ele>
        <time>2021-07-22T10:25:18Z</time>
      </trkpt>
      <trkpt lat="42.263787" lon="-4.392754">
        <ele>799.956</ele>
        <time>2021-07-22T10:25:28Z</time>
      </trkpt>
      <trkpt lat="42.263727" lon="-4.392392">
        <ele>800.968</ele>
        <time>2021-07-22T10:25:39Z</time>
      </trkpt>
      <trkpt lat="42.263681" lon="-4.392097">
        <ele>800.465</ele>
        <time>2021-07-22T10:25:47Z</time>
      </trkpt>
      <trkpt lat="42.263608" lon="-4.391700">
        <ele>800.485</ele>
        <time>2021-07-22T10:25:57Z</time>
      </trkpt>
      <trkpt lat="42.263544" lon="-4.391327">
        <ele>800.429</ele>
        <time>2021-07-22T10:26:06Z</time>
      </trkpt>
      <trkpt lat="42.263452" lon="-4.390767">
        <ele>800.957</ele>
        <time>2021-07-22T10:26:18Z</time>
      </trkpt>
      <trkpt lat="42.263381" lon="-4.390346">
        <ele>800.964</ele>
        <time>2021-07-22T10:26:27Z</time>
      </trkpt>
      <trkpt lat="42.263301" lon="-4.389906">
        <ele>800.492</ele>
        <time>2021-07-22T10:26:38Z</time>
      </trkpt>
      <trkpt lat="42.263238" lon="-4.389524">
        <ele>799.941</ele>
        <time>2021-07-22T10:26:47Z</time>
      </trkpt>
      <trkpt lat="42.263171" lon="-4.389186">
        <ele>800.981</ele>
        <time>2021-07-22T10:26:55Z</time>
      </trkpt>
      <trkpt lat="42.263058" lon="-4.388872">
        <ele>801.409</ele>
        <time>2021-07-22T10:27:04Z</time>
      </trkpt>
      <trkpt lat="42.262923" lon="-4.388637">
        <ele>801.808</ele>
        <time>2021-07-22T10:27:11Z</time>
      </trkpt>
      <trkpt lat="42.262717" lon="-4.388426">
        <ele>802.351</ele>
        <time>2021-07-22T10:27:19Z</time>
      </trkpt>
      <trkpt lat="42.262448" lon="-4.388183">
        <ele>802.833</ele>
        <time>2021-07-22T10:27:29Z</time>
      </trkpt>
      <trkpt lat="42.262215" lon="-4.387984">
        <ele>803.350</ele>
        <time>2021-07-22T10:27:37Z</time>
      </trkpt>
      <trkpt lat="42.262002" lon="-4.387798">
        <ele>802.320</ele>
        <time>2021-07-22T10:27:45Z</time>
      </trkpt>
      <trkpt lat="42.261701" lon="-4.387535">
        <ele>802.834</ele>
        <time>2021-07-22T10:27:55Z</time>
      </trkpt>
      <trkpt lat="42.261429" lon="-4.387311">
        <ele>801.892</ele>
        <time>2021-07-22T10:28:04Z</time>
      </trkpt>
      <trkpt lat="42.261157" lon="-4.387048">
        <ele>801.859</ele>
        <time>2021-07-22T10:28:13Z</time>
      </trkpt>
      <trkpt lat="42.260884" lon="-4.386813">
        <ele>800.967</ele>
        <time>2021-07-22T10:28:22Z</time>
      </trkpt>
      <trkpt lat="42.260561" lon="-4.386536">
        <ele>801.477</ele>
        <time>2021-07-22T10:28:33Z</time>
      </trkpt>
      <trkpt lat="42.260325" lon="-4.386338">
        <ele>800.961</ele>
        <time>2021-07-22T10:28:41Z</time>
      </trkpt>
      <trkpt lat="42.259971" lon="-4.386010">
        <ele>800.927</ele>
        <time>2021-07-22T10:28:53Z</time>
      </trkpt>
      <trkpt lat="42.259711" lon="-4.385661">
        <ele>800.408</ele>
        <time>2021-07-22T10:29:03Z</time>
      </trkpt>
      <trkpt lat="42.259571" lon="-4.385290">
        <ele>799.914</ele>
        <time>2021-07-22T10:29:12Z</time>
      </trkpt>
      <trkpt lat="42.259433" lon="-4.384801">
        <ele>799.956</ele>
        <time>2021-07-22T10:29:23Z</time>
      </trkpt>
      <trkpt lat="42.259306" lon="-4.384293">
        <ele>799.923</ele>
        <time>2021-07-22T10:29:34Z</time>
      </trkpt>
      <trkpt lat="42.259181" lon="-4.383787">
        <ele>798.953</ele>
        <time>2021-07-22T10:29:45Z</time>
      </trkpt>
      <trkpt lat="42.259065" lon="-4.383336">
        <ele>799.497</ele>
        <time>2021-07-22T10:29:55Z</time>
      </trkpt>
      <trkpt lat="42.258938" lon="-4.382849">
        <ele>798.955</ele>
        <time>2021-07-22T10:30:06Z</time>
      </trkpt>
      <trkpt lat="42.258829" lon="-4.382421">
        <ele>798.992</ele>
        <time>2021-07-22T10:30:15Z</time>
      </trkpt>
      <trkpt lat="42.258706" lon="-4.381949">
        <ele>798.920</ele>
        <time>2021-07-22T10:30:25Z</time>
      </trkpt>
      <trkpt lat="42.258625" lon="-4.381638">
        <ele>799.427</ele>
        <time>2021-07-22T10:30:33Z</time>
      </trkpt>
      <trkpt lat="42.258515" lon="-4.381217">
        <ele>799.468</ele>
        <time>2021-07-22T10:30:43Z</time>
      </trkpt>
      <trkpt lat="42.258415" lon="-4.380781">
        <ele>799.414</ele>
        <time>2021-07-22T10:30:52Z</time>
      </trkpt>
      <trkpt lat="42.258351" lon="-4.380310">
        <ele>799.408</ele>
        <time>2021-07-22T10:31:02Z</time>
      </trkpt>
      <trkpt lat="42.258343" lon="-4.379792">
        <ele>799.429</ele>
        <time>2021-07-22T10:31:12Z</time>
      </trkpt>
      <trkpt lat="42.258340" lon="-4.379298">
        <ele>799.431</ele>
        <time>2021-07-22T10:31:21Z</time>
      </trkpt>
      <trkpt lat="42.258336" lon="-4.378760">
        <ele>798.938</ele>
        <time>2021-07-22T10:31:31Z</time>
      </trkpt>
      <trkpt lat="42.258334" lon="-4.378260">
        <ele>799.438</ele>
        <time>2021-07-22T10:31:41Z</time>
      </trkpt>
      <trkpt lat="42.258313" lon="-4.377841">
        <ele>798.912</ele>
        <time>2021-07-22T10:31:49Z</time>
      </trkpt>
      <trkpt lat="42.258312" lon="-4.377405">
        <ele>799.450</ele>
        <time>2021-07-22T10:31:57Z</time>
      </trkpt>
      <trkpt lat="42.258302" lon="-4.376840">
        <ele>798.577</ele>
        <time>2021-07-22T10:32:08Z</time>
      </trkpt>
      <trkpt lat="42.258294" lon="-4.376459">
        <ele>798.995</ele>
        <time>2021-07-22T10:32:16Z</time>
      </trkpt>
      <trkpt lat="42.258286" lon="-4.375964">
        <ele>799.433</ele>
        <time>2021-07-22T10:32:26Z</time>
      </trkpt>
      <trkpt lat="42.258301" lon="-4.375409">
        <ele>799.423</ele>
        <time>2021-07-22T10:32:37Z</time>
      </trkpt>
      <trkpt lat="42.258313" lon="-4.374961">
        <ele>798.915</ele>
        <time>2021-07-22T10:32:46Z</time>
      </trkpt>
      <trkpt lat="42.258342" lon="-4.374445">
        <ele>799.408</ele>
        <time>2021-07-22T10:32:56Z</time>
      </trkpt>
      <trkpt lat="42.258350" lon="-4.374017">
        <ele>799.450</ele>
        <time>2021-07-22T10:33:05Z</time>
      </trkpt>
      <trkpt lat="42.258338" lon="-4.373572">
        <ele>799.452</ele>
        <time>2021-07-22T10:33:14Z</time>
      </trkpt>
      <trkpt lat="42.258341" lon="-4.373089">
        <ele>798.919</ele>
        <time>2021-07-22T10:33:23Z</time>
      </trkpt>
      <trkpt lat="42.258341" lon="-4.372679">
        <ele>798.939</ele>
        <time>2021-07-22T10:33:31Z</time>
      </trkpt>
      <trkpt lat="42.258351" lon="-4.372314">
        <ele>798.513</ele>
        <time>2021-07-22T10:33:39Z</time>
      </trkpt>
      <trkpt lat="42.258344" lon="-4.371864">
        <ele>798.591</ele>
        <time>2021-07-22T10:33:49Z</time>
      </trkpt>
      <trkpt lat="42.258341" lon="-4.371436">
        <ele>798.548</ele>
        <time>2021-07-22T10:33:58Z</time>
      </trkpt>
      <trkpt lat="42.258343" lon="-4.371038">
        <ele>798.546</ele>
        <time>2021-07-22T10:34:06Z</time>
      </trkpt>
      <trkpt lat="42.258347" lon="-4.370616">
        <ele>798.951</ele>
        <time>2021-07-22T10:34:15Z</time>
      </trkpt>
      <trkpt lat="42.258351" lon="-4.370060">
        <ele>798.501</ele>
        <time>2021-07-22T10:34:26Z</time>
      </trkpt>
      <trkpt lat="42.258344" lon="-4.369565">
        <ele>798.511</ele>
        <time>2021-07-22T10:34:36Z</time>
      </trkpt>
      <trkpt lat="42.258345" lon="-4.369144">
        <ele>798.908</ele>
        <time>2021-07-22T10:34:44Z</time>
      </trkpt>
      <trkpt lat="42.258338" lon="-4.368656">
        <ele>799.472</ele>
        <time>2021-07-22T10:34:54Z</time>
      </trkpt>
      <trkpt lat="42.258334" lon="-4.368243">
        <ele>798.584</ele>
        <time>2021-07-22T10:35:04Z</time>
      </trkpt>
      <trkpt lat="42.258333" lon="-4.367804">
        <ele>798.541</ele>
        <time>2021-07-22T10:35:13Z</time>
      </trkpt>
      <trkpt lat="42.258337" lon="-4.367234">
        <ele>799.491</ele>
        <time>2021-07-22T10:35:24Z</time>
      </trkpt>
      <trkpt lat="42.258337" lon="-4.366664">
        <ele>799.495</ele>
        <time>2021-07-22T10:35:35Z</time>
      </trkpt>
      <trkpt lat="42.258325" lon="-4.366213">
        <ele>799.413</ele>
        <time>2021-07-22T10:35:44Z</time>
      </trkpt>
      <trkpt lat="42.258332" lon="-4.365741">
        <ele>799.420</ele>
        <time>2021-07-22T10:35:53Z</time>
      </trkpt>
      <trkpt lat="42.258330" lon="-4.365219">
        <ele>799.418</ele>
        <time>2021-07-22T10:36:03Z</time>
      </trkpt>
      <trkpt lat="42.258325" lon="-4.364696">
        <ele>798.995</ele>
        <time>2021-07-22T10:36:14Z</time>
      </trkpt>
      <trkpt lat="42.258339" lon="-4.364386">
        <ele>799.449</ele>
        <time>2021-07-22T10:36:21Z</time>
      </trkpt>
      <trkpt lat="42.258359" lon="-4.364236">
        <ele>799.923</ele>
        <time>2021-07-22T10:36:28Z</time>
      </trkpt>
      <trkpt lat="42.258359" lon="-4.364234">
        <ele>799.408</ele>
        <time>2021-07-22T10:36:38Z</time>
      </trkpt>
      <trkpt lat="42.258367" lon="-4.364227">
        <ele>799.426</ele>
        <time>2021-07-22T10:36:46Z</time>
      </trkpt>
      <trkpt lat="42.258366" lon="-4.364245">
        <ele>800.488</ele>
        <time>2021-07-22T10:37:04Z</time>
      </trkpt>
      <trkpt lat="42.258381" lon="-4.364241">
        <ele>799.995</ele>
        <time>2021-07-22T10:37:19Z</time>
      </trkpt>
      <trkpt lat="42.258382" lon="-4.364232">
        <ele>798.555</ele>
        <time>2021-07-22T10:37:37Z</time>
      </trkpt>
      <trkpt lat="42.258387" lon="-4.364244">
        <ele>798.959</ele>
        <time>2021-07-22T10:37:51Z</time>
      </trkpt>
      <trkpt lat="42.258368" lon="-4.364227">
        <ele>798.937</ele>
        <time>2021-07-22T10:38:11Z</time>
      </trkpt>
      <trkpt lat="42.258367" lon="-4.364189">
        <ele>799.414</ele>
        <time>2021-07-22T10:38:19Z</time>
      </trkpt>
      <trkpt lat="42.258426" lon="-4.363999">
        <ele>799.462</ele>
        <time>2021-07-22T10:38:26Z</time>
      </trkpt>
      <trkpt lat="42.258490" lon="-4.363863">
        <ele>799.449</ele>
        <time>2021-07-22T10:38:33Z</time>
      </trkpt>
      <trkpt lat="42.258522" lon="-4.363811">
        <ele>798.902</ele>
        <time>2021-07-22T10:38:38Z</time>
      </trkpt>
      <trkpt lat="42.258591" lon="-4.363603">
        <ele>798.022</ele>
        <time>2021-07-22T10:38:45Z</time>
      </trkpt>
      <trkpt lat="42.258685" lon="-4.363220">
        <ele>796.508</ele>
        <time>2021-07-22T10:38:51Z</time>
      </trkpt>
      <trkpt lat="42.258784" lon="-4.362461">
        <ele>796.541</ele>
        <time>2021-07-22T10:39:02Z</time>
      </trkpt>
      <trkpt lat="42.258872" lon="-4.361648">
        <ele>797.013</ele>
        <time>2021-07-22T10:39:13Z</time>
      </trkpt>
      <trkpt lat="42.258960" lon="-4.360651">
        <ele>798.070</ele>
        <time>2021-07-22T10:39:27Z</time>
      </trkpt>
      <trkpt lat="42.259058" lon="-4.360018">
        <ele>797.090</ele>
        <time>2021-07-22T10:39:35Z</time>
      </trkpt>
      <trkpt lat="42.259212" lon="-4.359183">
        <ele>796.514</ele>
        <time>2021-07-22T10:39:45Z</time>
      </trkpt>
      <trkpt lat="42.259383" lon="-4.358342">
        <ele>796.122</ele>
        <time>2021-07-22T10:39:55Z</time>
      </trkpt>
      <trkpt lat="42.259473" lon="-4.358002">
        <ele>795.629</ele>
        <time>2021-07-22T10:39:59Z</time>
      </trkpt>
      <trkpt lat="42.259506" lon="-4.357927">
        <ele>795.637</ele>
        <time>2021-07-22T10:40:00Z</time>
      </trkpt>
      <trkpt lat="42.259799" lon="-4.357406">
        <ele>794.618</ele>
        <time>2021-07-22T10:40:07Z</time>
      </trkpt>
      <trkpt lat="42.260253" lon="-4.356620">
        <ele>793.298</ele>
        <time>2021-07-22T10:40:18Z</time>
      </trkpt>
      <trkpt lat="42.260624" lon="-4.355976">
        <ele>793.217</ele>
        <time>2021-07-22T10:40:27Z</time>
      </trkpt>
      <trkpt lat="42.261016" lon="-4.355301">
        <ele>792.708</ele>
        <time>2021-07-22T10:40:37Z</time>
      </trkpt>
      <trkpt lat="42.261439" lon="-4.354563">
        <ele>792.718</ele>
        <time>2021-07-22T10:40:48Z</time>
      </trkpt>
      <trkpt lat="42.261814" lon="-4.353894">
        <ele>792.760</ele>
        <time>2021-07-22T10:40:58Z</time>
      </trkpt>
      <trkpt lat="42.262135" lon="-4.353203">
        <ele>793.767</ele>
        <time>2021-07-22T10:41:08Z</time>
      </trkpt>
      <trkpt lat="42.262537" lon="-4.352281">
        <ele>793.787</ele>
        <time>2021-07-22T10:41:21Z</time>
      </trkpt>
      <trkpt lat="42.262814" lon="-4.351655">
        <ele>794.131</ele>
        <time>2021-07-22T10:41:31Z</time>
      </trkpt>
      <trkpt lat="42.262974" lon="-4.351310">
        <ele>794.159</ele>
        <time>2021-07-22T10:41:39Z</time>
      </trkpt>
      <trkpt lat="42.262996" lon="-4.351304">
        <ele>793.716</ele>
        <time>2021-07-22T10:41:44Z</time>
      </trkpt>
      <trkpt lat="42.263006" lon="-4.351259">
        <ele>794.144</ele>
        <time>2021-07-22T10:41:56Z</time>
      </trkpt>
      <trkpt lat="42.263001" lon="-4.351245">
        <ele>794.181</ele>
        <time>2021-07-22T10:41:57Z</time>
      </trkpt>
      <trkpt lat="42.263000" lon="-4.351225">
        <ele>794.161</ele>
        <time>2021-07-22T10:41:58Z</time>
      </trkpt>
      <trkpt lat="42.262999" lon="-4.351200">
        <ele>794.117</ele>
        <time>2021-07-22T10:41:59Z</time>
      </trkpt>
      <trkpt lat="42.262996" lon="-4.351174">
        <ele>794.108</ele>
        <time>2021-07-22T10:42:00Z</time>
      </trkpt>
      <trkpt lat="42.262988" lon="-4.351146">
        <ele>794.115</ele>
        <time>2021-07-22T10:42:01Z</time>
      </trkpt>
      <trkpt lat="42.262978" lon="-4.351117">
        <ele>794.177</ele>
        <time>2021-07-22T10:42:02Z</time>
      </trkpt>
      <trkpt lat="42.262867" lon="-4.350977">
        <ele>794.114</ele>
        <time>2021-07-22T10:42:08Z</time>
      </trkpt>
      <trkpt lat="42.262604" lon="-4.350826">
        <ele>793.784</ele>
        <time>2021-07-22T10:42:16Z</time>
      </trkpt>
      <trkpt lat="42.262455" lon="-4.350725">
        <ele>793.768</ele>
        <time>2021-07-22T10:42:20Z</time>
      </trkpt>
      <trkpt lat="42.262203" lon="-4.350423">
        <ele>793.796</ele>
        <time>2021-07-22T10:42:28Z</time>
      </trkpt>
      <trkpt lat="42.261928" lon="-4.350088">
        <ele>794.193</ele>
        <time>2021-07-22T10:42:36Z</time>
      </trkpt>
      <trkpt lat="42.261534" lon="-4.349657">
        <ele>793.781</ele>
        <time>2021-07-22T10:42:47Z</time>
      </trkpt>
      <trkpt lat="42.261343" lon="-4.349265">
        <ele>792.747</ele>
        <time>2021-07-22T10:42:54Z</time>
      </trkpt>
      <trkpt lat="42.261230" lon="-4.348984">
        <ele>792.729</ele>
        <time>2021-07-22T10:42:59Z</time>
      </trkpt>
      <trkpt lat="42.261200" lon="-4.348940">
        <ele>792.721</ele>
        <time>2021-07-22T10:43:00Z</time>
      </trkpt>
      <trkpt lat="42.261164" lon="-4.348901">
        <ele>792.708</ele>
        <time>2021-07-22T10:43:01Z</time>
      </trkpt>
      <trkpt lat="42.261127" lon="-4.348869">
        <ele>792.751</ele>
        <time>2021-07-22T10:43:02Z</time>
      </trkpt>
      <trkpt lat="42.261086" lon="-4.348835">
        <ele>792.733</ele>
        <time>2021-07-22T10:43:03Z</time>
      </trkpt>
      <trkpt lat="42.261048" lon="-4.348804">
        <ele>792.270</ele>
        <time>2021-07-22T10:43:04Z</time>
      </trkpt>
      <trkpt lat="42.260903" lon="-4.348684">
        <ele>792.290</ele>
        <time>2021-07-22T10:43:08Z</time>
      </trkpt>
      <trkpt lat="42.260864" lon="-4.348663">
        <ele>792.214</ele>
        <time>2021-07-22T10:43:09Z</time>
      </trkpt>
      <trkpt lat="42.260625" lon="-4.348467">
        <ele>792.742</ele>
        <time>2021-07-22T10:43:17Z</time>
      </trkpt>
      <trkpt lat="42.260415" lon="-4.348287">
        <ele>793.239</ele>
        <time>2021-07-22T10:43:25Z</time>
      </trkpt>
      <trkpt lat="42.260221" lon="-4.348135">
        <ele>793.717</ele>
        <time>2021-07-22T10:43:33Z</time>
      </trkpt>
      <trkpt lat="42.259949" lon="-4.347954">
        <ele>796.113</ele>
        <time>2021-07-22T10:43:42Z</time>
      </trkpt>
      <trkpt lat="42.259743" lon="-4.347740">
        <ele>796.143</ele>
        <time>2021-07-22T10:43:50Z</time>
      </trkpt>
      <trkpt lat="42.259537" lon="-4.347569">
        <ele>794.107</ele>
        <time>2021-07-22T10:43:58Z</time>
      </trkpt>
      <trkpt lat="42.259349" lon="-4.347393">
        <ele>792.208</ele>
        <time>2021-07-22T10:44:05Z</time>
      </trkpt>
      <trkpt lat="42.259249" lon="-4.347223">
        <ele>791.788</ele>
        <time>2021-07-22T10:44:12Z</time>
      </trkpt>
      <trkpt lat="42.259109" lon="-4.346976">
        <ele>790.880</ele>
        <time>2021-07-22T10:44:20Z</time>
      </trkpt>
      <trkpt lat="42.259089" lon="-4.346959">
        <ele>790.897</ele>
        <time>2021-07-22T10:44:21Z</time>
      </trkpt>
      <trkpt lat="42.259010" lon="-4.346844">
        <ele>790.337</ele>
        <time>2021-07-22T10:44:26Z</time>
      </trkpt>
      <trkpt lat="42.258935" lon="-4.346761">
        <ele>790.331</ele>
        <time>2021-07-22T10:44:30Z</time>
      </trkpt>
      <trkpt lat="42.258861" lon="-4.346758">
        <ele>789.389</ele>
        <time>2021-07-22T10:44:36Z</time>
      </trkpt>
      <trkpt lat="42.258862" lon="-4.346761">
        <ele>788.436</ele>
        <time>2021-07-22T10:44:47Z</time>
      </trkpt>
      <trkpt lat="42.258862" lon="-4.346764">
        <ele>788.474</ele>
        <time>2021-07-22T10:45:00Z</time>
      </trkpt>
      <trkpt lat="42.258869" lon="-4.346743">
        <ele>786.949</ele>
        <time>2021-07-22T10:45:19Z</time>
      </trkpt>
      <trkpt lat="42.258845" lon="-4.346735">
        <ele>787.902</ele>
        <time>2021-07-22T10:45:42Z</time>
      </trkpt>
      <trkpt lat="42.258881" lon="-4.346742">
        <ele>786.922</ele>
        <time>2021-07-22T10:46:02Z</time>
      </trkpt>
      <trkpt lat="42.258866" lon="-4.346731">
        <ele>785.508</ele>
        <time>2021-07-22T10:46:24Z</time>
      </trkpt>
      <trkpt lat="42.258857" lon="-4.346741">
        <ele>786.591</ele>
        <time>2021-07-22T10:46:46Z</time>
      </trkpt>
      <trkpt lat="42.258864" lon="-4.346740">
        <ele>786.953</ele>
        <time>2021-07-22T10:47:02Z</time>
      </trkpt>
      <trkpt lat="42.258872" lon="-4.346767">
        <ele>787.420</ele>
        <time>2021-07-22T10:47:25Z</time>
      </trkpt>
      <trkpt lat="42.258887" lon="-4.346785">
        <ele>786.010</ele>
        <time>2021-07-22T10:47:36Z</time>
      </trkpt>
      <trkpt lat="42.258889" lon="-4.346783">
        <ele>786.024</ele>
        <time>2021-07-22T10:47:52Z</time>
      </trkpt>
      <trkpt lat="42.258895" lon="-4.346774">
        <ele>786.932</ele>
        <time>2021-07-22T10:48:16Z</time>
      </trkpt>
      <trkpt lat="42.258885" lon="-4.346768">
        <ele>789.899</ele>
        <time>2021-07-22T10:48:33Z</time>
      </trkpt>
      <trkpt lat="42.258881" lon="-4.346791">
        <ele>789.827</ele>
        <time>2021-07-22T10:48:36Z</time>
      </trkpt>
      <trkpt lat="42.258906" lon="-4.346810">
        <ele>790.843</ele>
        <time>2021-07-22T10:48:40Z</time>
      </trkpt>
      <trkpt lat="42.259012" lon="-4.346803">
        <ele>790.364</ele>
        <time>2021-07-22T10:48:47Z</time>
      </trkpt>
      <trkpt lat="42.259086" lon="-4.346629">
        <ele>788.910</ele>
        <time>2021-07-22T10:48:55Z</time>
      </trkpt>
      <trkpt lat="42.259121" lon="-4.346580">
        <ele>788.408</ele>
        <time>2021-07-22T10:48:58Z</time>
      </trkpt>
      <trkpt lat="42.259260" lon="-4.346493">
        <ele>789.311</ele>
        <time>2021-07-22T10:49:06Z</time>
      </trkpt>
      <trkpt lat="42.259420" lon="-4.346419">
        <ele>789.333</ele>
        <time>2021-07-22T10:49:14Z</time>
      </trkpt>
      <trkpt lat="42.259594" lon="-4.346369">
        <ele>788.930</ele>
        <time>2021-07-22T10:49:22Z</time>
      </trkpt>
      <trkpt lat="42.259870" lon="-4.346084">
        <ele>788.420</ele>
        <time>2021-07-22T10:49:32Z</time>
      </trkpt>
      <trkpt lat="42.259973" lon="-4.346024">
        <ele>788.434</ele>
        <time>2021-07-22T10:49:35Z</time>
      </trkpt>
      <trkpt lat="42.260346" lon="-4.345814">
        <ele>788.462</ele>
        <time>2021-07-22T10:49:45Z</time>
      </trkpt>
      <trkpt lat="42.260669" lon="-4.345671">
        <ele>789.379</ele>
        <time>2021-07-22T10:49:54Z</time>
      </trkpt>
      <trkpt lat="42.260930" lon="-4.345397">
        <ele>788.967</ele>
        <time>2021-07-22T10:50:03Z</time>
      </trkpt>
      <trkpt lat="42.261062" lon="-4.345141">
        <ele>788.421</ele>
        <time>2021-07-22T10:50:11Z</time>
      </trkpt>
      <trkpt lat="42.261144" lon="-4.345036">
        <ele>787.941</ele>
        <time>2021-07-22T10:50:17Z</time>
      </trkpt>
      <trkpt lat="42.261316" lon="-4.344891">
        <ele>787.405</ele>
        <time>2021-07-22T10:50:25Z</time>
      </trkpt>
      <trkpt lat="42.261425" lon="-4.344753">
        <ele>788.408</ele>
        <time>2021-07-22T10:50:33Z</time>
      </trkpt>
      <trkpt lat="42.261434" lon="-4.344733">
        <ele>788.919</ele>
        <time>2021-07-22T10:50:38Z</time>
      </trkpt>
      <trkpt lat="42.261433" lon="-4.344710">
        <ele>789.391</ele>
        <time>2021-07-22T10:50:40Z</time>
      </trkpt>
      <trkpt lat="42.261426" lon="-4.344695">
        <ele>788.998</ele>
        <time>2021-07-22T10:50:41Z</time>
      </trkpt>
      <trkpt lat="42.261411" lon="-4.344652">
        <ele>789.388</ele>
        <time>2021-07-22T10:50:44Z</time>
      </trkpt>
      <trkpt lat="42.261411" lon="-4.344633">
        <ele>789.342</ele>
        <time>2021-07-22T10:50:45Z</time>
      </trkpt>
      <trkpt lat="42.261413" lon="-4.344616">
        <ele>789.870</ele>
        <time>2021-07-22T10:50:46Z</time>
      </trkpt>
      <trkpt lat="42.261413" lon="-4.344598">
        <ele>789.867</ele>
        <time>2021-07-22T10:50:47Z</time>
      </trkpt>
      <trkpt lat="42.261411" lon="-4.344580">
        <ele>790.315</ele>
        <time>2021-07-22T10:50:48Z</time>
      </trkpt>
      <trkpt lat="42.261410" lon="-4.344563">
        <ele>790.338</ele>
        <time>2021-07-22T10:50:49Z</time>
      </trkpt>
      <trkpt lat="42.261406" lon="-4.344546">
        <ele>790.370</ele>
        <time>2021-07-22T10:50:50Z</time>
      </trkpt>
      <trkpt lat="42.261406" lon="-4.344528">
        <ele>790.317</ele>
        <time>2021-07-22T10:50:51Z</time>
      </trkpt>
      <trkpt lat="42.261407" lon="-4.344510">
        <ele>790.308</ele>
        <time>2021-07-22T10:50:52Z</time>
      </trkpt>
      <trkpt lat="42.261410" lon="-4.344495">
        <ele>790.360</ele>
        <time>2021-07-22T10:50:53Z</time>
      </trkpt>
      <trkpt lat="42.261413" lon="-4.344479">
        <ele>790.372</ele>
        <time>2021-07-22T10:50:54Z</time>
      </trkpt>
      <trkpt lat="42.261416" lon="-4.344465">
        <ele>790.329</ele>
        <time>2021-07-22T10:50:55Z</time>
      </trkpt>
      <trkpt lat="42.261427" lon="-4.344380">
        <ele>789.869</ele>
        <time>2021-07-22T10:51:04Z</time>
      </trkpt>
      <trkpt lat="42.261427" lon="-4.344386">
        <ele>789.353</ele>
        <time>2021-07-22T10:51:18Z</time>
      </trkpt>
      <trkpt lat="42.261420" lon="-4.344385">
        <ele>790.321</ele>
        <time>2021-07-22T10:51:34Z</time>
      </trkpt>
      <trkpt lat="42.261435" lon="-4.344407">
        <ele>788.998</ele>
        <time>2021-07-22T10:51:56Z</time>
      </trkpt>
      <trkpt lat="42.261444" lon="-4.344408">
        <ele>788.466</ele>
        <time>2021-07-22T10:52:19Z</time>
      </trkpt>
      <trkpt lat="42.261446" lon="-4.344429">
        <ele>788.418</ele>
        <time>2021-07-22T10:52:45Z</time>
      </trkpt>
      <trkpt lat="42.261458" lon="-4.344414">
        <ele>788.498</ele>
        <time>2021-07-22T10:53:11Z</time>
      </trkpt>
      <trkpt lat="42.261456" lon="-4.344409">
        <ele>791.317</ele>
        <time>2021-07-22T10:53:46Z</time>
      </trkpt>
      <trkpt lat="42.261444" lon="-4.344398">
        <ele>790.308</ele>
        <time>2021-07-22T10:54:08Z</time>
      </trkpt>
      <trkpt lat="42.261438" lon="-4.344393">
        <ele>791.348</ele>
        <time>2021-07-22T10:54:40Z</time>
      </trkpt>
      <trkpt lat="42.261440" lon="-4.344380">
        <ele>790.810</ele>
        <time>2021-07-22T10:55:03Z</time>
      </trkpt>
      <trkpt lat="42.261428" lon="-4.344383">
        <ele>791.797</ele>
        <time>2021-07-22T10:55:25Z</time>
      </trkpt>
      <trkpt lat="42.261432" lon="-4.344380">
        <ele>790.347</ele>
        <time>2021-07-22T10:55:41Z</time>
      </trkpt>
      <trkpt lat="42.261413" lon="-4.344360">
        <ele>791.371</ele>
        <time>2021-07-22T10:55:56Z</time>
      </trkpt>
      <trkpt lat="42.261416" lon="-4.344353">
        <ele>791.769</ele>
        <time>2021-07-22T11:29:14Z</time>
      </trkpt>
      <trkpt lat="42.261415" lon="-4.344338">
        <ele>790.386</ele>
        <time>2021-07-22T11:29:25Z</time>
      </trkpt>
      <trkpt lat="42.261448" lon="-4.344373">
        <ele>790.384</ele>
        <time>2021-07-22T11:29:32Z</time>
      </trkpt>
      <trkpt lat="42.261531" lon="-4.344460">
        <ele>789.369</ele>
        <time>2021-07-22T11:29:41Z</time>
      </trkpt>
      <trkpt lat="42.261568" lon="-4.344473">
        <ele>789.304</ele>
        <time>2021-07-22T11:29:50Z</time>
      </trkpt>
      <trkpt lat="42.261578" lon="-4.344456">
        <ele>789.324</ele>
        <time>2021-07-22T11:29:55Z</time>
      </trkpt>
      <trkpt lat="42.261670" lon="-4.344289">
        <ele>789.808</ele>
        <time>2021-07-22T11:30:03Z</time>
      </trkpt>
      <trkpt lat="42.261802" lon="-4.344043">
        <ele>789.343</ele>
        <time>2021-07-22T11:30:12Z</time>
      </trkpt>
      <trkpt lat="42.261975" lon="-4.343754">
        <ele>787.925</ele>
        <time>2021-07-22T11:30:22Z</time>
      </trkpt>
      <trkpt lat="42.262107" lon="-4.343504">
        <ele>787.452</ele>
        <time>2021-07-22T11:30:30Z</time>
      </trkpt>
      <trkpt lat="42.262239" lon="-4.343194">
        <ele>787.492</ele>
        <time>2021-07-22T11:30:40Z</time>
      </trkpt>
      <trkpt lat="42.262334" lon="-4.342992">
        <ele>787.456</ele>
        <time>2021-07-22T11:30:47Z</time>
      </trkpt>
      <trkpt lat="42.262442" lon="-4.342676">
        <ele>787.924</ele>
        <time>2021-07-22T11:30:57Z</time>
      </trkpt>
      <trkpt lat="42.262525" lon="-4.342431">
        <ele>788.911</ele>
        <time>2021-07-22T11:31:05Z</time>
      </trkpt>
      <trkpt lat="42.262625" lon="-4.342120">
        <ele>788.929</ele>
        <time>2021-07-22T11:31:15Z</time>
      </trkpt>
      <trkpt lat="42.262718" lon="-4.341816">
        <ele>790.318</ele>
        <time>2021-07-22T11:31:25Z</time>
      </trkpt>
      <trkpt lat="42.262823" lon="-4.341515">
        <ele>791.398</ele>
        <time>2021-07-22T11:31:35Z</time>
      </trkpt>
      <trkpt lat="42.262884" lon="-4.341348">
        <ele>791.317</ele>
        <time>2021-07-22T11:31:41Z</time>
      </trkpt>
      <trkpt lat="42.262956" lon="-4.341174">
        <ele>791.708</ele>
        <time>2021-07-22T11:31:48Z</time>
      </trkpt>
      <trkpt lat="42.263083" lon="-4.340876">
        <ele>791.788</ele>
        <time>2021-07-22T11:31:58Z</time>
      </trkpt>
      <trkpt lat="42.263187" lon="-4.340645">
        <ele>792.240</ele>
        <time>2021-07-22T11:32:06Z</time>
      </trkpt>
      <trkpt lat="42.263352" lon="-4.340301">
        <ele>791.767</ele>
        <time>2021-07-22T11:32:17Z</time>
      </trkpt>
      <trkpt lat="42.263484" lon="-4.340049">
        <ele>791.377</ele>
        <time>2021-07-22T11:32:26Z</time>
      </trkpt>
      <trkpt lat="42.263658" lon="-4.339727">
        <ele>791.741</ele>
        <time>2021-07-22T11:32:35Z</time>
      </trkpt>
      <trkpt lat="42.263821" lon="-4.339431">
        <ele>791.379</ele>
        <time>2021-07-22T11:32:44Z</time>
      </trkpt>
      <trkpt lat="42.263992" lon="-4.339103">
        <ele>791.396</ele>
        <time>2021-07-22T11:32:53Z</time>
      </trkpt>
      <trkpt lat="42.264151" lon="-4.338749">
        <ele>790.374</ele>
        <time>2021-07-22T11:33:03Z</time>
      </trkpt>
      <trkpt lat="42.264346" lon="-4.338343">
        <ele>790.316</ele>
        <time>2021-07-22T11:33:14Z</time>
      </trkpt>
      <trkpt lat="42.264533" lon="-4.338015">
        <ele>790.376</ele>
        <time>2021-07-22T11:33:23Z</time>
      </trkpt>
      <trkpt lat="42.264727" lon="-4.337624">
        <ele>790.313</ele>
        <time>2021-07-22T11:33:33Z</time>
      </trkpt>
      <trkpt lat="42.264920" lon="-4.337251">
        <ele>790.808</ele>
        <time>2021-07-22T11:33:43Z</time>
      </trkpt>
      <trkpt lat="42.265035" lon="-4.336992">
        <ele>790.838</ele>
        <time>2021-07-22T11:33:51Z</time>
      </trkpt>
      <trkpt lat="42.265180" lon="-4.336681">
        <ele>789.860</ele>
        <time>2021-07-22T11:34:00Z</time>
      </trkpt>
      <trkpt lat="42.265375" lon="-4.336260">
        <ele>789.327</ele>
        <time>2021-07-22T11:34:11Z</time>
      </trkpt>
      <trkpt lat="42.265514" lon="-4.335951">
        <ele>789.377</ele>
        <time>2021-07-22T11:34:19Z</time>
      </trkpt>
      <trkpt lat="42.265711" lon="-4.335520">
        <ele>789.341</ele>
        <time>2021-07-22T11:34:30Z</time>
      </trkpt>
      <trkpt lat="42.265838" lon="-4.335233">
        <ele>789.389</ele>
        <time>2021-07-22T11:34:38Z</time>
      </trkpt>
      <trkpt lat="42.265991" lon="-4.334880">
        <ele>790.326</ele>
        <time>2021-07-22T11:34:48Z</time>
      </trkpt>
      <trkpt lat="42.266157" lon="-4.334505">
        <ele>790.384</ele>
        <time>2021-07-22T11:34:58Z</time>
      </trkpt>
      <trkpt lat="42.266340" lon="-4.334110">
        <ele>790.817</ele>
        <time>2021-07-22T11:35:09Z</time>
      </trkpt>
      <trkpt lat="42.266430" lon="-4.333912">
        <ele>790.387</ele>
        <time>2021-07-22T11:35:16Z</time>
      </trkpt>
      <trkpt lat="42.266549" lon="-4.333636">
        <ele>791.315</ele>
        <time>2021-07-22T11:35:25Z</time>
      </trkpt>
      <trkpt lat="42.266677" lon="-4.333335">
        <ele>791.708</ele>
        <time>2021-07-22T11:35:34Z</time>
      </trkpt>
      <trkpt lat="42.266821" lon="-4.333012">
        <ele>792.218</ele>
        <time>2021-07-22T11:35:43Z</time>
      </trkpt>
      <trkpt lat="42.266954" lon="-4.332728">
        <ele>793.270</ele>
        <time>2021-07-22T11:35:52Z</time>
      </trkpt>
      <trkpt lat="42.267083" lon="-4.332439">
        <ele>793.247</ele>
        <time>2021-07-22T11:36:01Z</time>
      </trkpt>
      <trkpt lat="42.267227" lon="-4.332125">
        <ele>793.727</ele>
        <time>2021-07-22T11:36:11Z</time>
      </trkpt>
      <trkpt lat="42.267392" lon="-4.331751">
        <ele>794.641</ele>
        <time>2021-07-22T11:36:22Z</time>
      </trkpt>
      <trkpt lat="42.267501" lon="-4.331509">
        <ele>794.699</ele>
        <time>2021-07-22T11:36:30Z</time>
      </trkpt>
      <trkpt lat="42.267650" lon="-4.331192">
        <ele>795.176</ele>
        <time>2021-07-22T11:36:40Z</time>
      </trkpt>
      <trkpt lat="42.267794" lon="-4.330868">
        <ele>795.144</ele>
        <time>2021-07-22T11:36:50Z</time>
      </trkpt>
      <trkpt lat="42.267907" lon="-4.330627">
        <ele>795.118</ele>
        <time>2021-07-22T11:36:58Z</time>
      </trkpt>
      <trkpt lat="42.267997" lon="-4.330417">
        <ele>796.198</ele>
        <time>2021-07-22T11:37:06Z</time>
      </trkpt>
      <trkpt lat="42.268088" lon="-4.330197">
        <ele>796.117</ele>
        <time>2021-07-22T11:37:14Z</time>
      </trkpt>
      <trkpt lat="42.268226" lon="-4.329830">
        <ele>796.508</ele>
        <time>2021-07-22T11:37:26Z</time>
      </trkpt>
      <trkpt lat="42.268343" lon="-4.329529">
        <ele>796.128</ele>
        <time>2021-07-22T11:37:35Z</time>
      </trkpt>
      <trkpt lat="42.268452" lon="-4.329245">
        <ele>796.530</ele>
        <time>2021-07-22T11:37:44Z</time>
      </trkpt>
      <trkpt lat="42.268585" lon="-4.328883">
        <ele>798.017</ele>
        <time>2021-07-22T11:37:55Z</time>
      </trkpt>
      <trkpt lat="42.268737" lon="-4.328483">
        <ele>798.527</ele>
        <time>2021-07-22T11:38:05Z</time>
      </trkpt>
      <trkpt lat="42.268930" lon="-4.327983">
        <ele>798.991</ele>
        <time>2021-07-22T11:38:16Z</time>
      </trkpt>
      <trkpt lat="42.269063" lon="-4.327623">
        <ele>799.499</ele>
        <time>2021-07-22T11:38:26Z</time>
      </trkpt>
      <trkpt lat="42.269176" lon="-4.327316">
        <ele>799.996</ele>
        <time>2021-07-22T11:38:35Z</time>
      </trkpt>
      <trkpt lat="42.269297" lon="-4.326996">
        <ele>800.924</ele>
        <time>2021-07-22T11:38:45Z</time>
      </trkpt>
      <trkpt lat="42.269384" lon="-4.326754">
        <ele>801.885</ele>
        <time>2021-07-22T11:38:53Z</time>
      </trkpt>
      <trkpt lat="42.269494" lon="-4.326450">
        <ele>802.389</ele>
        <time>2021-07-22T11:39:02Z</time>
      </trkpt>
      <trkpt lat="42.269613" lon="-4.326121">
        <ele>802.817</ele>
        <time>2021-07-22T11:39:11Z</time>
      </trkpt>
      <trkpt lat="42.269710" lon="-4.325834">
        <ele>803.308</ele>
        <time>2021-07-22T11:39:20Z</time>
      </trkpt>
      <trkpt lat="42.269833" lon="-4.325465">
        <ele>803.885</ele>
        <time>2021-07-22T11:39:31Z</time>
      </trkpt>
      <trkpt lat="42.269923" lon="-4.325174">
        <ele>803.817</ele>
        <time>2021-07-22T11:39:39Z</time>
      </trkpt>
      <trkpt lat="42.270019" lon="-4.324842">
        <ele>804.224</ele>
        <time>2021-07-22T11:39:49Z</time>
      </trkpt>
      <trkpt lat="42.270111" lon="-4.324490">
        <ele>805.234</ele>
        <time>2021-07-22T11:39:59Z</time>
      </trkpt>
      <trkpt lat="42.270194" lon="-4.324150">
        <ele>805.768</ele>
        <time>2021-07-22T11:40:09Z</time>
      </trkpt>
      <trkpt lat="42.270279" lon="-4.323775">
        <ele>805.286</ele>
        <time>2021-07-22T11:40:19Z</time>
      </trkpt>
      <trkpt lat="42.270356" lon="-4.323449">
        <ele>805.713</ele>
        <time>2021-07-22T11:40:28Z</time>
      </trkpt>
      <trkpt lat="42.270378" lon="-4.323390">
        <ele>805.261</ele>
        <time>2021-07-22T11:40:33Z</time>
      </trkpt>
      <trkpt lat="42.270378" lon="-4.323392">
        <ele>804.746</ele>
        <time>2021-07-22T11:40:46Z</time>
      </trkpt>
      <trkpt lat="42.270368" lon="-4.323396">
        <ele>804.788</ele>
        <time>2021-07-22T11:41:08Z</time>
      </trkpt>
      <trkpt lat="42.270368" lon="-4.323396">
        <ele>804.716</ele>
        <time>2021-07-22T11:41:24Z</time>
      </trkpt>
      <trkpt lat="42.270372" lon="-4.323390">
        <ele>804.208</ele>
        <time>2021-07-22T11:41:44Z</time>
      </trkpt>
      <trkpt lat="42.270384" lon="-4.323351">
        <ele>804.251</ele>
        <time>2021-07-22T11:41:50Z</time>
      </trkpt>
      <trkpt lat="42.270391" lon="-4.323334">
        <ele>804.263</ele>
        <time>2021-07-22T11:41:51Z</time>
      </trkpt>
      <trkpt lat="42.270399" lon="-4.323307">
        <ele>804.280</ele>
        <time>2021-07-22T11:41:52Z</time>
      </trkpt>
      <trkpt lat="42.270464" lon="-4.323041">
        <ele>804.760</ele>
        <time>2021-07-22T11:42:00Z</time>
      </trkpt>
      <trkpt lat="42.270505" lon="-4.322785">
        <ele>805.224</ele>
        <time>2021-07-22T11:42:07Z</time>
      </trkpt>
      <trkpt lat="42.270558" lon="-4.322535">
        <ele>805.292</ele>
        <time>2021-07-22T11:42:14Z</time>
      </trkpt>
      <trkpt lat="42.270630" lon="-4.322196">
        <ele>805.279</ele>
        <time>2021-07-22T11:42:23Z</time>
      </trkpt>
      <trkpt lat="42.270724" lon="-4.321716">
        <ele>805.717</ele>
        <time>2021-07-22T11:42:35Z</time>
      </trkpt>
      <trkpt lat="42.270813" lon="-4.321301">
        <ele>805.764</ele>
        <time>2021-07-22T11:42:45Z</time>
      </trkpt>
      <trkpt lat="42.270886" lon="-4.320940">
        <ele>805.706</ele>
        <time>2021-07-22T11:42:54Z</time>
      </trkpt>
      <trkpt lat="42.270964" lon="-4.320546">
        <ele>804.716</ele>
        <time>2021-07-22T11:43:03Z</time>
      </trkpt>
      <trkpt lat="42.271059" lon="-4.320111">
        <ele>805.708</ele>
        <time>2021-07-22T11:43:13Z</time>
      </trkpt>
      <trkpt lat="42.271142" lon="-4.319699">
        <ele>805.793</ele>
        <time>2021-07-22T11:43:22Z</time>
      </trkpt>
      <trkpt lat="42.271237" lon="-4.319270">
        <ele>806.675</ele>
        <time>2021-07-22T11:43:32Z</time>
      </trkpt>
      <trkpt lat="42.271339" lon="-4.318757">
        <ele>806.632</ele>
        <time>2021-07-22T11:43:43Z</time>
      </trkpt>
      <trkpt lat="42.271438" lon="-4.318270">
        <ele>807.172</ele>
        <time>2021-07-22T11:43:54Z</time>
      </trkpt>
      <trkpt lat="42.271525" lon="-4.317845">
        <ele>807.676</ele>
        <time>2021-07-22T11:44:04Z</time>
      </trkpt>
      <trkpt lat="42.271612" lon="-4.317445">
        <ele>808.634</ele>
        <time>2021-07-22T11:44:14Z</time>
      </trkpt>
      <trkpt lat="42.271719" lon="-4.316908">
        <ele>809.031</ele>
        <time>2021-07-22T11:44:27Z</time>
      </trkpt>
      <trkpt lat="42.271799" lon="-4.316488">
        <ele>809.589</ele>
        <time>2021-07-22T11:44:38Z</time>
      </trkpt>
      <trkpt lat="42.271899" lon="-4.316081">
        <ele>810.585</ele>
        <time>2021-07-22T11:44:49Z</time>
      </trkpt>
      <trkpt lat="42.272011" lon="-4.315739">
        <ele>811.989</ele>
        <time>2021-07-22T11:44:59Z</time>
      </trkpt>
      <trkpt lat="42.272095" lon="-4.315496">
        <ele>811.917</ele>
        <time>2021-07-22T11:45:08Z</time>
      </trkpt>
      <trkpt lat="42.272233" lon="-4.315105">
        <ele>813.808</ele>
        <time>2021-07-22T11:45:20Z</time>
      </trkpt>
      <trkpt lat="42.272373" lon="-4.314686">
        <ele>814.365</ele>
        <time>2021-07-22T11:45:31Z</time>
      </trkpt>
      <trkpt lat="42.272526" lon="-4.314273">
        <ele>813.867</ele>
        <time>2021-07-22T11:45:42Z</time>
      </trkpt>
      <trkpt lat="42.272671" lon="-4.313928">
        <ele>812.994</ele>
        <time>2021-07-22T11:45:51Z</time>
      </trkpt>
      <trkpt lat="42.272840" lon="-4.313567">
        <ele>811.934</ele>
        <time>2021-07-22T11:46:00Z</time>
      </trkpt>
      <trkpt lat="42.273037" lon="-4.313132">
        <ele>811.488</ele>
        <time>2021-07-22T11:46:11Z</time>
      </trkpt>
      <trkpt lat="42.273218" lon="-4.312747">
        <ele>811.016</ele>
        <time>2021-07-22T11:46:21Z</time>
      </trkpt>
      <trkpt lat="42.273400" lon="-4.312331">
        <ele>811.073</ele>
        <time>2021-07-22T11:46:31Z</time>
      </trkpt>
      <trkpt lat="42.273578" lon="-4.311890">
        <ele>811.911</ele>
        <time>2021-07-22T11:46:42Z</time>
      </trkpt>
      <trkpt lat="42.273754" lon="-4.311458">
        <ele>812.499</ele>
        <time>2021-07-22T11:46:53Z</time>
      </trkpt>
      <trkpt lat="42.273917" lon="-4.311075">
        <ele>812.407</ele>
        <time>2021-07-22T11:47:03Z</time>
      </trkpt>
      <trkpt lat="42.274124" lon="-4.310593">
        <ele>812.927</ele>
        <time>2021-07-22T11:47:16Z</time>
      </trkpt>
      <trkpt lat="42.274285" lon="-4.310217">
        <ele>813.408</ele>
        <time>2021-07-22T11:47:25Z</time>
      </trkpt>
      <trkpt lat="42.274449" lon="-4.309819">
        <ele>813.896</ele>
        <time>2021-07-22T11:47:35Z</time>
      </trkpt>
      <trkpt lat="42.274551" lon="-4.309532">
        <ele>815.378</ele>
        <time>2021-07-22T11:47:44Z</time>
      </trkpt>
      <trkpt lat="42.274598" lon="-4.309342">
        <ele>815.865</ele>
        <time>2021-07-22T11:47:52Z</time>
      </trkpt>
      <trkpt lat="42.274662" lon="-4.309053">
        <ele>817.265</ele>
        <time>2021-07-22T11:48:03Z</time>
      </trkpt>
      <trkpt lat="42.274740" lon="-4.308764">
        <ele>818.779</ele>
        <time>2021-07-22T11:48:14Z</time>
      </trkpt>
      <trkpt lat="42.274839" lon="-4.308482">
        <ele>820.117</ele>
        <time>2021-07-22T11:48:25Z</time>
      </trkpt>
      <trkpt lat="42.274954" lon="-4.308170">
        <ele>821.114</ele>
        <time>2021-07-22T11:48:37Z</time>
      </trkpt>
      <trkpt lat="42.274997" lon="-4.308036">
        <ele>821.182</ele>
        <time>2021-07-22T11:48:44Z</time>
      </trkpt>
      <trkpt lat="42.275057" lon="-4.307802">
        <ele>822.061</ele>
        <time>2021-07-22T11:48:54Z</time>
      </trkpt>
      <trkpt lat="42.275116" lon="-4.307558">
        <ele>822.521</ele>
        <time>2021-07-22T11:49:03Z</time>
      </trkpt>
      <trkpt lat="42.275192" lon="-4.307246">
        <ele>823.013</ele>
        <time>2021-07-22T11:49:14Z</time>
      </trkpt>
      <trkpt lat="42.275257" lon="-4.306990">
        <ele>823.008</ele>
        <time>2021-07-22T11:49:23Z</time>
      </trkpt>
      <trkpt lat="42.275319" lon="-4.306729">
        <ele>823.953</ele>
        <time>2021-07-22T11:49:32Z</time>
      </trkpt>
      <trkpt lat="42.275394" lon="-4.306436">
        <ele>824.445</ele>
        <time>2021-07-22T11:49:42Z</time>
      </trkpt>
      <trkpt lat="42.275478" lon="-4.306085">
        <ele>824.952</ele>
        <time>2021-07-22T11:49:54Z</time>
      </trkpt>
      <trkpt lat="42.275531" lon="-4.305858">
        <ele>825.412</ele>
        <time>2021-07-22T11:50:02Z</time>
      </trkpt>
      <trkpt lat="42.275614" lon="-4.305511">
        <ele>826.316</ele>
        <time>2021-07-22T11:50:14Z</time>
      </trkpt>
      <trkpt lat="42.275661" lon="-4.305320">
        <ele>826.884</ele>
        <time>2021-07-22T11:50:21Z</time>
      </trkpt>
      <trkpt lat="42.275737" lon="-4.305019">
        <ele>827.861</ele>
        <time>2021-07-22T11:50:32Z</time>
      </trkpt>
      <trkpt lat="42.275808" lon="-4.304730">
        <ele>828.729</ele>
        <time>2021-07-22T11:50:42Z</time>
      </trkpt>
      <trkpt lat="42.275880" lon="-4.304441">
        <ele>829.747</ele>
        <time>2021-07-22T11:50:52Z</time>
      </trkpt>
      <trkpt lat="42.275943" lon="-4.304220">
        <ele>830.729</ele>
        <time>2021-07-22T11:51:01Z</time>
      </trkpt>
      <trkpt lat="42.276029" lon="-4.303968">
        <ele>831.221</ele>
        <time>2021-07-22T11:51:11Z</time>
      </trkpt>
      <trkpt lat="42.276102" lon="-4.303734">
        <ele>832.608</ele>
        <time>2021-07-22T11:51:21Z</time>
      </trkpt>
      <trkpt lat="42.276151" lon="-4.303580">
        <ele>832.111</ele>
        <time>2021-07-22T11:51:29Z</time>
      </trkpt>
      <trkpt lat="42.276233" lon="-4.303307">
        <ele>831.283</ele>
        <time>2021-07-22T11:51:35Z</time>
      </trkpt>
      <trkpt lat="42.276396" lon="-4.302809">
        <ele>827.880</ele>
        <time>2021-07-22T11:51:41Z</time>
      </trkpt>
      <trkpt lat="42.276681" lon="-4.302162">
        <ele>823.920</ele>
        <time>2021-07-22T11:51:47Z</time>
      </trkpt>
      <trkpt lat="42.276955" lon="-4.301492">
        <ele>821.194</ele>
        <time>2021-07-22T11:51:53Z</time>
      </trkpt>
      <trkpt lat="42.277255" lon="-4.300519">
        <ele>817.282</ele>
        <time>2021-07-22T11:52:02Z</time>
      </trkpt>
      <trkpt lat="42.277581" lon="-4.299461">
        <ele>814.339</ele>
        <time>2021-07-22T11:52:12Z</time>
      </trkpt>
      <trkpt lat="42.277954" lon="-4.298190">
        <ele>812.957</ele>
        <time>2021-07-22T11:52:24Z</time>
      </trkpt>
      <trkpt lat="42.278094" lon="-4.297727">
        <ele>812.982</ele>
        <time>2021-07-22T11:52:29Z</time>
      </trkpt>
      <trkpt lat="42.278134" lon="-4.297649">
        <ele>812.943</ele>
        <time>2021-07-22T11:52:30Z</time>
      </trkpt>
      <trkpt lat="42.278179" lon="-4.297577">
        <ele>812.417</ele>
        <time>2021-07-22T11:52:31Z</time>
      </trkpt>
      <trkpt lat="42.278548" lon="-4.297044">
        <ele>812.408</ele>
        <time>2021-07-22T11:52:39Z</time>
      </trkpt>
      <trkpt lat="42.278719" lon="-4.296683">
        <ele>811.975</ele>
        <time>2021-07-22T11:52:44Z</time>
      </trkpt>
      <trkpt lat="42.278741" lon="-4.296606">
        <ele>811.937</ele>
        <time>2021-07-22T11:52:45Z</time>
      </trkpt>
      <trkpt lat="42.278801" lon="-4.296283">
        <ele>811.944</ele>
        <time>2021-07-22T11:52:49Z</time>
      </trkpt>
      <trkpt lat="42.278811" lon="-4.296202">
        <ele>811.974</ele>
        <time>2021-07-22T11:52:50Z</time>
      </trkpt>
      <trkpt lat="42.278913" lon="-4.295336">
        <ele>811.078</ele>
        <time>2021-07-22T11:53:00Z</time>
      </trkpt>
      <trkpt lat="42.278995" lon="-4.294339">
        <ele>809.536</ele>
        <time>2021-07-22T11:53:11Z</time>
      </trkpt>
      <trkpt lat="42.279020" lon="-4.293775">
        <ele>809.073</ele>
        <time>2021-07-22T11:53:18Z</time>
      </trkpt>
      <trkpt lat="42.279018" lon="-4.293737">
        <ele>809.021</ele>
        <time>2021-07-22T11:53:21Z</time>
      </trkpt>
      <trkpt lat="42.279027" lon="-4.293723">
        <ele>809.527</ele>
        <time>2021-07-22T11:53:34Z</time>
      </trkpt>
      <trkpt lat="42.279033" lon="-4.293711">
        <ele>809.568</ele>
        <time>2021-07-22T11:53:35Z</time>
      </trkpt>
      <trkpt lat="42.279033" lon="-4.293695">
        <ele>809.514</ele>
        <time>2021-07-22T11:53:36Z</time>
      </trkpt>
      <trkpt lat="42.279030" lon="-4.293675">
        <ele>809.008</ele>
        <time>2021-07-22T11:53:37Z</time>
      </trkpt>
      <trkpt lat="42.279031" lon="-4.293653">
        <ele>809.039</ele>
        <time>2021-07-22T11:53:38Z</time>
      </trkpt>
      <trkpt lat="42.279033" lon="-4.293632">
        <ele>809.011</ele>
        <time>2021-07-22T11:53:39Z</time>
      </trkpt>
      <trkpt lat="42.279035" lon="-4.293609">
        <ele>809.028</ele>
        <time>2021-07-22T11:53:40Z</time>
      </trkpt>
      <trkpt lat="42.279035" lon="-4.293587">
        <ele>809.068</ele>
        <time>2021-07-22T11:53:41Z</time>
      </trkpt>
      <trkpt lat="42.279036" lon="-4.293563">
        <ele>809.012</ele>
        <time>2021-07-22T11:53:42Z</time>
      </trkpt>
      <trkpt lat="42.279035" lon="-4.293538">
        <ele>809.080</ele>
        <time>2021-07-22T11:53:43Z</time>
      </trkpt>
      <trkpt lat="42.279057" lon="-4.293421">
        <ele>809.077</ele>
        <time>2021-07-22T11:53:48Z</time>
      </trkpt>
      <trkpt lat="42.279051" lon="-4.293395">
        <ele>809.015</ele>
        <time>2021-07-22T11:53:49Z</time>
      </trkpt>
      <trkpt lat="42.279047" lon="-4.293158">
        <ele>809.049</ele>
        <time>2021-07-22T11:53:55Z</time>
      </trkpt>
      <trkpt lat="42.279051" lon="-4.292753">
        <ele>808.602</ele>
        <time>2021-07-22T11:54:02Z</time>
      </trkpt>
      <trkpt lat="42.279067" lon="-4.292160">
        <ele>806.622</ele>
        <time>2021-07-22T11:54:10Z</time>
      </trkpt>
      <trkpt lat="42.279175" lon="-4.291458">
        <ele>805.708</ele>
        <time>2021-07-22T11:54:19Z</time>
      </trkpt>
      <trkpt lat="42.279408" lon="-4.290745">
        <ele>804.211</ele>
        <time>2021-07-22T11:54:29Z</time>
      </trkpt>
      <trkpt lat="42.279695" lon="-4.289922">
        <ele>802.313</ele>
        <time>2021-07-22T11:54:40Z</time>
      </trkpt>
      <trkpt lat="42.279881" lon="-4.289372">
        <ele>802.330</ele>
        <time>2021-07-22T11:54:48Z</time>
      </trkpt>
      <trkpt lat="42.280114" lon="-4.288706">
        <ele>801.880</ele>
        <time>2021-07-22T11:54:58Z</time>
      </trkpt>
      <trkpt lat="42.280363" lon="-4.288000">
        <ele>801.824</ele>
        <time>2021-07-22T11:55:09Z</time>
      </trkpt>
      <trkpt lat="42.280645" lon="-4.287317">
        <ele>799.962</ele>
        <time>2021-07-22T11:55:19Z</time>
      </trkpt>
      <trkpt lat="42.280919" lon="-4.286566">
        <ele>798.589</ele>
        <time>2021-07-22T11:55:29Z</time>
      </trkpt>
      <trkpt lat="42.280926" lon="-4.286482">
        <ele>798.097</ele>
        <time>2021-07-22T11:55:30Z</time>
      </trkpt>
      <trkpt lat="42.280923" lon="-4.286397">
        <ele>798.047</ele>
        <time>2021-07-22T11:55:31Z</time>
      </trkpt>
      <trkpt lat="42.280912" lon="-4.286312">
        <ele>797.529</ele>
        <time>2021-07-22T11:55:32Z</time>
      </trkpt>
      <trkpt lat="42.280896" lon="-4.286224">
        <ele>797.521</ele>
        <time>2021-07-22T11:55:33Z</time>
      </trkpt>
      <trkpt lat="42.280879" lon="-4.286146">
        <ele>797.008</ele>
        <time>2021-07-22T11:55:34Z</time>
      </trkpt>
      <trkpt lat="42.280794" lon="-4.285579">
        <ele>795.121</ele>
        <time>2021-07-22T11:55:40Z</time>
      </trkpt>
      <trkpt lat="42.280795" lon="-4.284511">
        <ele>792.743</ele>
        <time>2021-07-22T11:55:50Z</time>
      </trkpt>
      <trkpt lat="42.280901" lon="-4.283450">
        <ele>791.380</ele>
        <time>2021-07-22T11:56:00Z</time>
      </trkpt>
      <trkpt lat="42.280941" lon="-4.283227">
        <ele>791.360</ele>
        <time>2021-07-22T11:56:04Z</time>
      </trkpt>
      <trkpt lat="42.280952" lon="-4.283162">
        <ele>791.344</ele>
        <time>2021-07-22T11:56:07Z</time>
      </trkpt>
      <trkpt lat="42.280961" lon="-4.283146">
        <ele>791.362</ele>
        <time>2021-07-22T11:56:12Z</time>
      </trkpt>
      <trkpt lat="42.280966" lon="-4.283148">
        <ele>790.839</ele>
        <time>2021-07-22T11:56:26Z</time>
      </trkpt>
      <trkpt lat="42.280968" lon="-4.283150">
        <ele>790.837</ele>
        <time>2021-07-22T11:56:47Z</time>
      </trkpt>
      <trkpt lat="42.280970" lon="-4.283153">
        <ele>790.881</ele>
        <time>2021-07-22T11:57:08Z</time>
      </trkpt>
      <trkpt lat="42.280964" lon="-4.283152">
        <ele>790.361</ele>
        <time>2021-07-22T11:57:30Z</time>
      </trkpt>
      <trkpt lat="42.280960" lon="-4.283142">
        <ele>790.817</ele>
        <time>2021-07-22T11:57:48Z</time>
      </trkpt>
      <trkpt lat="42.280960" lon="-4.283131">
        <ele>790.808</ele>
        <time>2021-07-22T11:57:50Z</time>
      </trkpt>
      <trkpt lat="42.280962" lon="-4.283112">
        <ele>790.845</ele>
        <time>2021-07-22T11:57:51Z</time>
      </trkpt>
      <trkpt lat="42.280964" lon="-4.283089">
        <ele>790.877</ele>
        <time>2021-07-22T11:57:52Z</time>
      </trkpt>
      <trkpt lat="42.280970" lon="-4.283063">
        <ele>790.814</ele>
        <time>2021-07-22T11:57:53Z</time>
      </trkpt>
      <trkpt lat="42.280977" lon="-4.283038">
        <ele>790.394</ele>
        <time>2021-07-22T11:57:54Z</time>
      </trkpt>
      <trkpt lat="42.281039" lon="-4.282829">
        <ele>789.878</ele>
        <time>2021-07-22T11:58:01Z</time>
      </trkpt>
      <trkpt lat="42.281079" lon="-4.282680">
        <ele>788.996</ele>
        <time>2021-07-22T11:58:04Z</time>
      </trkpt>
      <trkpt lat="42.281205" lon="-4.281980">
        <ele>787.413</ele>
        <time>2021-07-22T11:58:15Z</time>
      </trkpt>
      <trkpt lat="42.281287" lon="-4.281328">
        <ele>786.961</ele>
        <time>2021-07-22T11:58:25Z</time>
      </trkpt>
      <trkpt lat="42.281310" lon="-4.281137">
        <ele>786.568</ele>
        <time>2021-07-22T11:58:28Z</time>
      </trkpt>
      <trkpt lat="42.281318" lon="-4.281074">
        <ele>786.542</ele>
        <time>2021-07-22T11:58:29Z</time>
      </trkpt>
      <trkpt lat="42.281430" lon="-4.280360">
        <ele>786.026</ele>
        <time>2021-07-22T11:58:40Z</time>
      </trkpt>
      <trkpt lat="42.281546" lon="-4.279781">
        <ele>785.508</ele>
        <time>2021-07-22T11:58:49Z</time>
      </trkpt>
      <trkpt lat="42.281675" lon="-4.279032">
        <ele>785.093</ele>
        <time>2021-07-22T11:59:00Z</time>
      </trkpt>
      <trkpt lat="42.281807" lon="-4.278326">
        <ele>785.585</ele>
        <time>2021-07-22T11:59:11Z</time>
      </trkpt>
      <trkpt lat="42.281940" lon="-4.277623">
        <ele>784.522</ele>
        <time>2021-07-22T11:59:22Z</time>
      </trkpt>
      <trkpt lat="42.282029" lon="-4.277178">
        <ele>784.082</ele>
        <time>2021-07-22T11:59:29Z</time>
      </trkpt>
      <trkpt lat="42.282044" lon="-4.277114">
        <ele>784.026</ele>
        <time>2021-07-22T11:59:30Z</time>
      </trkpt>
      <trkpt lat="42.282145" lon="-4.276585">
        <ele>784.074</ele>
        <time>2021-07-22T11:59:39Z</time>
      </trkpt>
      <trkpt lat="42.282214" lon="-4.275971">
        <ele>784.051</ele>
        <time>2021-07-22T11:59:49Z</time>
      </trkpt>
      <trkpt lat="42.282344" lon="-4.275189">
        <ele>783.659</ele>
        <time>2021-07-22T12:00:01Z</time>
      </trkpt>
      <trkpt lat="42.282499" lon="-4.274468">
        <ele>783.189</ele>
        <time>2021-07-22T12:00:12Z</time>
      </trkpt>
      <trkpt lat="42.282672" lon="-4.273822">
        <ele>783.106</ele>
        <time>2021-07-22T12:00:22Z</time>
      </trkpt>
      <trkpt lat="42.282849" lon="-4.273247">
        <ele>782.626</ele>
        <time>2021-07-22T12:00:31Z</time>
      </trkpt>
      <trkpt lat="42.283025" lon="-4.272684">
        <ele>782.608</ele>
        <time>2021-07-22T12:00:40Z</time>
      </trkpt>
      <trkpt lat="42.283236" lon="-4.272025">
        <ele>782.145</ele>
        <time>2021-07-22T12:00:50Z</time>
      </trkpt>
      <trkpt lat="42.283394" lon="-4.271544">
        <ele>781.677</ele>
        <time>2021-07-22T12:00:58Z</time>
      </trkpt>
      <trkpt lat="42.283565" lon="-4.271028">
        <ele>782.134</ele>
        <time>2021-07-22T12:01:07Z</time>
      </trkpt>
      <trkpt lat="42.283665" lon="-4.270740">
        <ele>781.644</ele>
        <time>2021-07-22T12:01:12Z</time>
      </trkpt>
      <trkpt lat="42.283678" lon="-4.270672">
        <ele>782.188</ele>
        <time>2021-07-22T12:01:13Z</time>
      </trkpt>
      <trkpt lat="42.283690" lon="-4.270608">
        <ele>781.696</ele>
        <time>2021-07-22T12:01:14Z</time>
      </trkpt>
      <trkpt lat="42.283854" lon="-4.270038">
        <ele>781.653</ele>
        <time>2021-07-22T12:01:23Z</time>
      </trkpt>
      <trkpt lat="42.284073" lon="-4.269313">
        <ele>781.211</ele>
        <time>2021-07-22T12:01:35Z</time>
      </trkpt>
      <trkpt lat="42.284165" lon="-4.268981">
        <ele>781.225</ele>
        <time>2021-07-22T12:01:41Z</time>
      </trkpt>
      <trkpt lat="42.284177" lon="-4.268927">
        <ele>780.726</ele>
        <time>2021-07-22T12:01:42Z</time>
      </trkpt>
      <trkpt lat="42.284317" lon="-4.268380">
        <ele>778.308</ele>
        <time>2021-07-22T12:01:50Z</time>
      </trkpt>
      <trkpt lat="42.284448" lon="-4.267843">
        <ele>776.408</ele>
        <time>2021-07-22T12:01:56Z</time>
      </trkpt>
      <trkpt lat="42.284690" lon="-4.267056">
        <ele>775.499</ele>
        <time>2021-07-22T12:02:05Z</time>
      </trkpt>
      <trkpt lat="42.284885" lon="-4.266444">
        <ele>775.471</ele>
        <time>2021-07-22T12:02:13Z</time>
      </trkpt>
      <trkpt lat="42.285066" lon="-4.265834">
        <ele>775.418</ele>
        <time>2021-07-22T12:02:22Z</time>
      </trkpt>
      <trkpt lat="42.285236" lon="-4.265242">
        <ele>775.978</ele>
        <time>2021-07-22T12:02:31Z</time>
      </trkpt>
      <trkpt lat="42.285425" lon="-4.264579">
        <ele>775.462</ele>
        <time>2021-07-22T12:02:42Z</time>
      </trkpt>
      <trkpt lat="42.285529" lon="-4.264207">
        <ele>775.480</ele>
        <time>2021-07-22T12:02:50Z</time>
      </trkpt>
      <trkpt lat="42.285619" lon="-4.264042">
        <ele>775.457</ele>
        <time>2021-07-22T12:02:57Z</time>
      </trkpt>
      <trkpt lat="42.285772" lon="-4.263789">
        <ele>774.465</ele>
        <time>2021-07-22T12:03:03Z</time>
      </trkpt>
      <trkpt lat="42.286086" lon="-4.263276">
        <ele>774.041</ele>
        <time>2021-07-22T12:03:13Z</time>
      </trkpt>
      <trkpt lat="42.286415" lon="-4.262733">
        <ele>774.081</ele>
        <time>2021-07-22T12:03:23Z</time>
      </trkpt>
      <trkpt lat="42.286714" lon="-4.262216">
        <ele>774.009</ele>
        <time>2021-07-22T12:03:33Z</time>
      </trkpt>
      <trkpt lat="42.287008" lon="-4.261616">
        <ele>773.008</ele>
        <time>2021-07-22T12:03:44Z</time>
      </trkpt>
      <trkpt lat="42.287023" lon="-4.261554">
        <ele>773.011</ele>
        <time>2021-07-22T12:03:45Z</time>
      </trkpt>
      <trkpt lat="42.287096" lon="-4.261024">
        <ele>773.543</ele>
        <time>2021-07-22T12:03:54Z</time>
      </trkpt>
      <trkpt lat="42.287153" lon="-4.260455">
        <ele>774.060</ele>
        <time>2021-07-22T12:04:03Z</time>
      </trkpt>
      <trkpt lat="42.287203" lon="-4.259906">
        <ele>774.460</ele>
        <time>2021-07-22T12:04:12Z</time>
      </trkpt>
      <trkpt lat="42.287259" lon="-4.259445">
        <ele>774.984</ele>
        <time>2021-07-22T12:04:21Z</time>
      </trkpt>
      <trkpt lat="42.287263" lon="-4.259012">
        <ele>775.412</ele>
        <time>2021-07-22T12:04:29Z</time>
      </trkpt>
      <trkpt lat="42.287280" lon="-4.258352">
        <ele>776.849</ele>
        <time>2021-07-22T12:04:41Z</time>
      </trkpt>
      <trkpt lat="42.287247" lon="-4.257892">
        <ele>777.317</ele>
        <time>2021-07-22T12:04:50Z</time>
      </trkpt>
      <trkpt lat="42.287095" lon="-4.257497">
        <ele>779.258</ele>
        <time>2021-07-22T12:04:59Z</time>
      </trkpt>
      <trkpt lat="42.287048" lon="-4.257155">
        <ele>779.752</ele>
        <time>2021-07-22T12:05:06Z</time>
      </trkpt>
      <trkpt lat="42.287054" lon="-4.256889">
        <ele>779.717</ele>
        <time>2021-07-22T12:05:12Z</time>
      </trkpt>
      <trkpt lat="42.287124" lon="-4.256645">
        <ele>778.808</ele>
        <time>2021-07-22T12:05:18Z</time>
      </trkpt>
      <trkpt lat="42.287135" lon="-4.256579">
        <ele>778.822</ele>
        <time>2021-07-22T12:05:20Z</time>
      </trkpt>
      <trkpt lat="42.287015" lon="-4.256379">
        <ele>778.334</ele>
        <time>2021-07-22T12:05:26Z</time>
      </trkpt>
      <trkpt lat="42.286846" lon="-4.256236">
        <ele>778.881</ele>
        <time>2021-07-22T12:05:32Z</time>
      </trkpt>
      <trkpt lat="42.286598" lon="-4.256077">
        <ele>778.311</ele>
        <time>2021-07-22T12:05:40Z</time>
      </trkpt>
      <trkpt lat="42.286443" lon="-4.255837">
        <ele>778.345</ele>
        <time>2021-07-22T12:05:47Z</time>
      </trkpt>
      <trkpt lat="42.286310" lon="-4.255521">
        <ele>777.313</ele>
        <time>2021-07-22T12:05:54Z</time>
      </trkpt>
      <trkpt lat="42.286201" lon="-4.255341">
        <ele>777.310</ele>
        <time>2021-07-22T12:05:58Z</time>
      </trkpt>
      <trkpt lat="42.286173" lon="-4.255298">
        <ele>777.388</ele>
        <time>2021-07-22T12:05:59Z</time>
      </trkpt>
      <trkpt lat="42.286147" lon="-4.255256">
        <ele>776.873</ele>
        <time>2021-07-22T12:06:00Z</time>
      </trkpt>
      <trkpt lat="42.285883" lon="-4.254912">
        <ele>776.485</ele>
        <time>2021-07-22T12:06:09Z</time>
      </trkpt>
      <trkpt lat="42.285628" lon="-4.254629">
        <ele>776.813</ele>
        <time>2021-07-22T12:06:18Z</time>
      </trkpt>
      <trkpt lat="42.285436" lon="-4.254386">
        <ele>776.808</ele>
        <time>2021-07-22T12:06:26Z</time>
      </trkpt>
      <trkpt lat="42.285268" lon="-4.254176">
        <ele>776.464</ele>
        <time>2021-07-22T12:06:34Z</time>
      </trkpt>
      <trkpt lat="42.285262" lon="-4.254181">
        <ele>774.976</ele>
        <time>2021-07-22T12:06:42Z</time>
      </trkpt>
      <trkpt lat="42.285245" lon="-4.254192">
        <ele>771.113</ele>
        <time>2021-07-22T12:07:11Z</time>
      </trkpt>
      <trkpt lat="42.285245" lon="-4.254177">
        <ele>771.623</ele>
        <time>2021-07-22T12:07:23Z</time>
      </trkpt>
      <trkpt lat="42.285241" lon="-4.254163">
        <ele>772.047</ele>
        <time>2021-07-22T12:07:24Z</time>
      </trkpt>
      <trkpt lat="42.285235" lon="-4.254142">
        <ele>772.585</ele>
        <time>2021-07-22T12:07:25Z</time>
      </trkpt>
      <trkpt lat="42.285127" lon="-4.253878">
        <ele>774.052</ele>
        <time>2021-07-22T12:07:34Z</time>
      </trkpt>
      <trkpt lat="42.284990" lon="-4.253630">
        <ele>774.420</ele>
        <time>2021-07-22T12:07:41Z</time>
      </trkpt>
      <trkpt lat="42.284674" lon="-4.253281">
        <ele>774.441</ele>
        <time>2021-07-22T12:07:51Z</time>
      </trkpt>
      <trkpt lat="42.284327" lon="-4.252998">
        <ele>773.581</ele>
        <time>2021-07-22T12:08:01Z</time>
      </trkpt>
      <trkpt lat="42.283886" lon="-4.252708">
        <ele>772.509</ele>
        <time>2021-07-22T12:08:13Z</time>
      </trkpt>
      <trkpt lat="42.283850" lon="-4.252683">
        <ele>772.508</ele>
        <time>2021-07-22T12:08:14Z</time>
      </trkpt>
      <trkpt lat="42.283583" lon="-4.252441">
        <ele>772.521</ele>
        <time>2021-07-22T12:08:22Z</time>
      </trkpt>
      <trkpt lat="42.283318" lon="-4.252104">
        <ele>773.033</ele>
        <time>2021-07-22T12:08:31Z</time>
      </trkpt>
      <trkpt lat="42.283058" lon="-4.251750">
        <ele>774.040</ele>
        <time>2021-07-22T12:08:40Z</time>
      </trkpt>
      <trkpt lat="42.282967" lon="-4.251635">
        <ele>774.090</ele>
        <time>2021-07-22T12:08:43Z</time>
      </trkpt>
      <trkpt lat="42.282937" lon="-4.251598">
        <ele>774.034</ele>
        <time>2021-07-22T12:08:44Z</time>
      </trkpt>
      <trkpt lat="42.282779" lon="-4.251411">
        <ele>774.082</ele>
        <time>2021-07-22T12:08:49Z</time>
      </trkpt>
      <trkpt lat="42.282744" lon="-4.251377">
        <ele>774.079</ele>
        <time>2021-07-22T12:08:50Z</time>
      </trkpt>
      <trkpt lat="42.282413" lon="-4.251073">
        <ele>774.077</ele>
        <time>2021-07-22T12:09:00Z</time>
      </trkpt>
      <trkpt lat="42.282168" lon="-4.250748">
        <ele>773.543</ele>
        <time>2021-07-22T12:09:09Z</time>
      </trkpt>
      <trkpt lat="42.281862" lon="-4.250459">
        <ele>774.064</ele>
        <time>2021-07-22T12:09:18Z</time>
      </trkpt>
      <trkpt lat="42.281542" lon="-4.250353">
        <ele>774.910</ele>
        <time>2021-07-22T12:09:26Z</time>
      </trkpt>
      <trkpt lat="42.281198" lon="-4.250237">
        <ele>774.908</ele>
        <time>2021-07-22T12:09:35Z</time>
      </trkpt>
      <trkpt lat="42.280814" lon="-4.250141">
        <ele>774.971</ele>
        <time>2021-07-22T12:09:45Z</time>
      </trkpt>
      <trkpt lat="42.280385" lon="-4.250070">
        <ele>774.413</ele>
        <time>2021-07-22T12:09:56Z</time>
      </trkpt>
      <trkpt lat="42.280303" lon="-4.250067">
        <ele>774.460</ele>
        <time>2021-07-22T12:09:58Z</time>
      </trkpt>
      <trkpt lat="42.280099" lon="-4.250077">
        <ele>774.920</ele>
        <time>2021-07-22T12:10:03Z</time>
      </trkpt>
      <trkpt lat="42.279722" lon="-4.250114">
        <ele>774.464</ele>
        <time>2021-07-22T12:10:12Z</time>
      </trkpt>
      <trkpt lat="42.279639" lon="-4.250103">
        <ele>774.412</ele>
        <time>2021-07-22T12:10:14Z</time>
      </trkpt>
      <trkpt lat="42.279298" lon="-4.249978">
        <ele>774.089</ele>
        <time>2021-07-22T12:10:23Z</time>
      </trkpt>
      <trkpt lat="42.278889" lon="-4.249752">
        <ele>774.417</ele>
        <time>2021-07-22T12:10:35Z</time>
      </trkpt>
      <trkpt lat="42.278582" lon="-4.249517">
        <ele>774.983</ele>
        <time>2021-07-22T12:10:44Z</time>
      </trkpt>
      <trkpt lat="42.278230" lon="-4.249153">
        <ele>775.425</ele>
        <time>2021-07-22T12:10:54Z</time>
      </trkpt>
      <trkpt lat="42.277893" lon="-4.248804">
        <ele>774.917</ele>
        <time>2021-07-22T12:11:04Z</time>
      </trkpt>
      <trkpt lat="42.277619" lon="-4.248331">
        <ele>774.908</ele>
        <time>2021-07-22T12:11:15Z</time>
      </trkpt>
      <trkpt lat="42.277586" lon="-4.248228">
        <ele>774.965</ele>
        <time>2021-07-22T12:11:17Z</time>
      </trkpt>
      <trkpt lat="42.277535" lon="-4.247807">
        <ele>775.947</ele>
        <time>2021-07-22T12:11:25Z</time>
      </trkpt>
      <trkpt lat="42.277538" lon="-4.247510">
        <ele>775.914</ele>
        <time>2021-07-22T12:11:33Z</time>
      </trkpt>
      <trkpt lat="42.277567" lon="-4.247316">
        <ele>775.474</ele>
        <time>2021-07-22T12:11:39Z</time>
      </trkpt>
      <trkpt lat="42.277577" lon="-4.247309">
        <ele>775.498</ele>
        <time>2021-07-22T12:11:40Z</time>
      </trkpt>
      <trkpt lat="42.277590" lon="-4.247305">
        <ele>775.456</ele>
        <time>2021-07-22T12:11:41Z</time>
      </trkpt>
      <trkpt lat="42.277601" lon="-4.247304">
        <ele>775.423</ele>
        <time>2021-07-22T12:11:42Z</time>
      </trkpt>
      <trkpt lat="42.277613" lon="-4.247304">
        <ele>775.441</ele>
        <time>2021-07-22T12:11:43Z</time>
      </trkpt>
      <trkpt lat="42.277626" lon="-4.247296">
        <ele>775.926</ele>
        <time>2021-07-22T12:11:49Z</time>
      </trkpt>
      <trkpt lat="42.277623" lon="-4.247298">
        <ele>776.847</ele>
        <time>2021-07-22T12:12:02Z</time>
      </trkpt>
      <trkpt lat="42.277624" lon="-4.247298">
        <ele>777.311</ele>
        <time>2021-07-22T12:12:09Z</time>
      </trkpt>
      <trkpt lat="42.277646" lon="-4.247281">
        <ele>777.308</ele>
        <time>2021-07-22T12:12:20Z</time>
      </trkpt>
      <trkpt lat="42.277644" lon="-4.247294">
        <ele>777.389</ele>
        <time>2021-07-22T12:12:37Z</time>
      </trkpt>
      <trkpt lat="42.277640" lon="-4.247284">
        <ele>778.881</ele>
        <time>2021-07-22T12:12:58Z</time>
      </trkpt>
      <trkpt lat="42.277644" lon="-4.247290">
        <ele>777.838</ele>
        <time>2021-07-22T12:13:12Z</time>
      </trkpt>
      <trkpt lat="42.277650" lon="-4.247306">
        <ele>776.888</ele>
        <time>2021-07-22T12:13:27Z</time>
      </trkpt>
      <trkpt lat="42.277638" lon="-4.247296">
        <ele>775.942</ele>
        <time>2021-07-22T12:13:44Z</time>
      </trkpt>
      <trkpt lat="42.277642" lon="-4.247294">
        <ele>776.460</ele>
        <time>2021-07-22T12:13:59Z</time>
      </trkpt>
      <trkpt lat="42.277651" lon="-4.247301">
        <ele>777.347</ele>
        <time>2021-07-22T12:14:13Z</time>
      </trkpt>
      <trkpt lat="42.277638" lon="-4.247313">
        <ele>778.395</ele>
        <time>2021-07-22T12:14:27Z</time>
      </trkpt>
      <trkpt lat="42.277651" lon="-4.247315">
        <ele>778.848</ele>
        <time>2021-07-22T12:14:39Z</time>
      </trkpt>
      <trkpt lat="42.277653" lon="-4.247320">
        <ele>778.361</ele>
        <time>2021-07-22T12:14:53Z</time>
      </trkpt>
      <trkpt lat="42.277657" lon="-4.247312">
        <ele>778.317</ele>
        <time>2021-07-22T12:15:09Z</time>
      </trkpt>
      <trkpt lat="42.277644" lon="-4.247305">
        <ele>778.308</ele>
        <time>2021-07-22T12:15:22Z</time>
      </trkpt>
      <trkpt lat="42.277637" lon="-4.247299">
        <ele>777.871</ele>
        <time>2021-07-22T12:15:36Z</time>
      </trkpt>
      <trkpt lat="42.277632" lon="-4.247300">
        <ele>777.893</ele>
        <time>2021-07-22T12:15:49Z</time>
      </trkpt>
      <trkpt lat="42.277642" lon="-4.247307">
        <ele>776.860</ele>
        <time>2021-07-22T12:16:04Z</time>
      </trkpt>
      <trkpt lat="42.277637" lon="-4.247313">
        <ele>778.390</ele>
        <time>2021-07-22T12:16:17Z</time>
      </trkpt>
      <trkpt lat="42.277627" lon="-4.247319">
        <ele>778.824</ele>
        <time>2021-07-22T12:16:38Z</time>
      </trkpt>
      <trkpt lat="42.277626" lon="-4.247299">
        <ele>778.312</ele>
        <time>2021-07-22T12:16:57Z</time>
      </trkpt>
      <trkpt lat="42.277615" lon="-4.247279">
        <ele>777.819</ele>
        <time>2021-07-22T12:17:10Z</time>
      </trkpt>
      <trkpt lat="42.277608" lon="-4.247279">
        <ele>777.877</ele>
        <time>2021-07-22T12:17:23Z</time>
      </trkpt>
      <trkpt lat="42.277617" lon="-4.247275">
        <ele>776.466</ele>
        <time>2021-07-22T12:17:37Z</time>
      </trkpt>
      <trkpt lat="42.277622" lon="-4.247291">
        <ele>776.429</ele>
        <time>2021-07-22T12:17:50Z</time>
      </trkpt>
      <trkpt lat="42.277632" lon="-4.247282">
        <ele>776.821</ele>
        <time>2021-07-22T12:18:02Z</time>
      </trkpt>
      <trkpt lat="42.277628" lon="-4.247248">
        <ele>777.308</ele>
        <time>2021-07-22T12:18:11Z</time>
      </trkpt>
      <trkpt lat="42.277621" lon="-4.247241">
        <ele>777.363</ele>
        <time>2021-07-22T12:18:12Z</time>
      </trkpt>
      <trkpt lat="42.277575" lon="-4.247155">
        <ele>777.835</ele>
        <time>2021-07-22T12:18:18Z</time>
      </trkpt>
      <trkpt lat="42.277584" lon="-4.247137">
        <ele>777.352</ele>
        <time>2021-07-22T12:18:19Z</time>
      </trkpt>
      <trkpt lat="42.277595" lon="-4.247114">
        <ele>777.322</ele>
        <time>2021-07-22T12:18:20Z</time>
      </trkpt>
      <trkpt lat="42.277605" lon="-4.247091">
        <ele>776.846</ele>
        <time>2021-07-22T12:18:21Z</time>
      </trkpt>
      <trkpt lat="42.277736" lon="-4.246852">
        <ele>775.974</ele>
        <time>2021-07-22T12:18:31Z</time>
      </trkpt>
      <trkpt lat="42.277756" lon="-4.246813">
        <ele>776.441</ele>
        <time>2021-07-22T12:18:37Z</time>
      </trkpt>
      <trkpt lat="42.277753" lon="-4.246827">
        <ele>778.859</ele>
        <time>2021-07-22T12:18:51Z</time>
      </trkpt>
      <trkpt lat="42.277775" lon="-4.246776">
        <ele>778.823</ele>
        <time>2021-07-22T12:19:02Z</time>
      </trkpt>
      <trkpt lat="42.277881" lon="-4.246550">
        <ele>778.383</ele>
        <time>2021-07-22T12:19:10Z</time>
      </trkpt>
      <trkpt lat="42.277983" lon="-4.246310">
        <ele>777.311</ele>
        <time>2021-07-22T12:19:17Z</time>
      </trkpt>
      <trkpt lat="42.278101" lon="-4.246068">
        <ele>777.308</ele>
        <time>2021-07-22T12:19:25Z</time>
      </trkpt>
      <trkpt lat="42.278218" lon="-4.245793">
        <ele>777.399</ele>
        <time>2021-07-22T12:19:34Z</time>
      </trkpt>
      <trkpt lat="42.278351" lon="-4.245474">
        <ele>775.921</ele>
        <time>2021-07-22T12:19:45Z</time>
      </trkpt>
      <trkpt lat="42.278485" lon="-4.245173">
        <ele>774.498</ele>
        <time>2021-07-22T12:19:53Z</time>
      </trkpt>
      <trkpt lat="42.278643" lon="-4.244824">
        <ele>773.078</ele>
        <time>2021-07-22T12:19:59Z</time>
      </trkpt>
      <trkpt lat="42.278744" lon="-4.244594">
        <ele>772.012</ele>
        <time>2021-07-22T12:20:02Z</time>
      </trkpt>
      <trkpt lat="42.278787" lon="-4.244521">
        <ele>771.660</ele>
        <time>2021-07-22T12:20:03Z</time>
      </trkpt>
      <trkpt lat="42.278834" lon="-4.244456">
        <ele>771.627</ele>
        <time>2021-07-22T12:20:04Z</time>
      </trkpt>
      <trkpt lat="42.278886" lon="-4.244395">
        <ele>771.135</ele>
        <time>2021-07-22T12:20:05Z</time>
      </trkpt>
      <trkpt lat="42.278948" lon="-4.244335">
        <ele>771.189</ele>
        <time>2021-07-22T12:20:06Z</time>
      </trkpt>
      <trkpt lat="42.279457" lon="-4.243907">
        <ele>770.606</ele>
        <time>2021-07-22T12:20:15Z</time>
      </trkpt>
      <trkpt lat="42.279908" lon="-4.243509">
        <ele>771.126</ele>
        <time>2021-07-22T12:20:24Z</time>
      </trkpt>
      <trkpt lat="42.280334" lon="-4.243150">
        <ele>772.508</ele>
        <time>2021-07-22T12:20:34Z</time>
      </trkpt>
      <trkpt lat="42.280615" lon="-4.242911">
        <ele>774.045</ele>
        <time>2021-07-22T12:20:43Z</time>
      </trkpt>
      <trkpt lat="42.280840" lon="-4.242709">
        <ele>775.497</ele>
        <time>2021-07-22T12:20:52Z</time>
      </trkpt>
      <trkpt lat="42.281056" lon="-4.242459">
        <ele>776.814</ele>
        <time>2021-07-22T12:21:02Z</time>
      </trkpt>
      <trkpt lat="42.281223" lon="-4.242151">
        <ele>778.344</ele>
        <time>2021-07-22T12:21:12Z</time>
      </trkpt>
      <trkpt lat="42.281391" lon="-4.241800">
        <ele>779.248</ele>
        <time>2021-07-22T12:21:23Z</time>
      </trkpt>
      <trkpt lat="42.281514" lon="-4.241540">
        <ele>779.796</ele>
        <time>2021-07-22T12:21:31Z</time>
      </trkpt>
      <trkpt lat="42.281685" lon="-4.241188">
        <ele>781.263</ele>
        <time>2021-07-22T12:21:42Z</time>
      </trkpt>
      <trkpt lat="42.281852" lon="-4.240849">
        <ele>781.611</ele>
        <time>2021-07-22T12:21:52Z</time>
      </trkpt>
      <trkpt lat="42.281958" lon="-4.240632">
        <ele>782.159</ele>
        <time>2021-07-22T12:22:00Z</time>
      </trkpt>
      <trkpt lat="42.282077" lon="-4.240383">
        <ele>782.603</ele>
        <time>2021-07-22T12:22:08Z</time>
      </trkpt>
      <trkpt lat="42.282201" lon="-4.240140">
        <ele>783.623</ele>
        <time>2021-07-22T12:22:17Z</time>
      </trkpt>
      <trkpt lat="42.282338" lon="-4.239848">
        <ele>784.508</ele>
        <time>2021-07-22T12:22:26Z</time>
      </trkpt>
      <trkpt lat="42.282525" lon="-4.239494">
        <ele>785.562</ele>
        <time>2021-07-22T12:22:37Z</time>
      </trkpt>
      <trkpt lat="42.282700" lon="-4.239159">
        <ele>786.584</ele>
        <time>2021-07-22T12:22:47Z</time>
      </trkpt>
      <trkpt lat="42.282844" lon="-4.238876">
        <ele>786.951</ele>
        <time>2021-07-22T12:22:55Z</time>
      </trkpt>
      <trkpt lat="42.283025" lon="-4.238510">
        <ele>787.951</ele>
        <time>2021-07-22T12:23:05Z</time>
      </trkpt>
      <trkpt lat="42.283189" lon="-4.238183">
        <ele>788.975</ele>
        <time>2021-07-22T12:23:14Z</time>
      </trkpt>
      <trkpt lat="42.283339" lon="-4.237887">
        <ele>789.883</ele>
        <time>2021-07-22T12:23:23Z</time>
      </trkpt>
      <trkpt lat="42.283446" lon="-4.237698">
        <ele>791.370</ele>
        <time>2021-07-22T12:23:29Z</time>
      </trkpt>
      <trkpt lat="42.283673" lon="-4.237422">
        <ele>791.728</ele>
        <time>2021-07-22T12:23:39Z</time>
      </trkpt>
      <trkpt lat="42.283951" lon="-4.237148">
        <ele>792.743</ele>
        <time>2021-07-22T12:23:50Z</time>
      </trkpt>
      <trkpt lat="42.284259" lon="-4.236846">
        <ele>794.164</ele>
        <time>2021-07-22T12:24:02Z</time>
      </trkpt>
      <trkpt lat="42.284520" lon="-4.236600">
        <ele>795.110</ele>
        <time>2021-07-22T12:24:12Z</time>
      </trkpt>
      <trkpt lat="42.284807" lon="-4.236314">
        <ele>796.108</ele>
        <time>2021-07-22T12:24:23Z</time>
      </trkpt>
      <trkpt lat="42.285064" lon="-4.236062">
        <ele>797.571</ele>
        <time>2021-07-22T12:24:33Z</time>
      </trkpt>
      <trkpt lat="42.285320" lon="-4.235807">
        <ele>798.583</ele>
        <time>2021-07-22T12:24:43Z</time>
      </trkpt>
      <trkpt lat="42.285562" lon="-4.235475">
        <ele>798.950</ele>
        <time>2021-07-22T12:24:54Z</time>
      </trkpt>
      <trkpt lat="42.285805" lon="-4.235074">
        <ele>799.930</ele>
        <time>2021-07-22T12:25:06Z</time>
      </trkpt>
      <trkpt lat="42.285954" lon="-4.234828">
        <ele>800.974</ele>
        <time>2021-07-22T12:25:14Z</time>
      </trkpt>
      <trkpt lat="42.286156" lon="-4.234482">
        <ele>801.432</ele>
        <time>2021-07-22T12:25:24Z</time>
      </trkpt>
      <trkpt lat="42.286318" lon="-4.234218">
        <ele>801.849</ele>
        <time>2021-07-22T12:25:32Z</time>
      </trkpt>
      <trkpt lat="42.286538" lon="-4.233853">
        <ele>802.877</ele>
        <time>2021-07-22T12:25:43Z</time>
      </trkpt>
      <trkpt lat="42.286726" lon="-4.233543">
        <ele>802.867</ele>
        <time>2021-07-22T12:25:52Z</time>
      </trkpt>
      <trkpt lat="42.286872" lon="-4.233299">
        <ele>803.381</ele>
        <time>2021-07-22T12:25:59Z</time>
      </trkpt>
      <trkpt lat="42.287082" lon="-4.232946">
        <ele>803.319</ele>
        <time>2021-07-22T12:26:09Z</time>
      </trkpt>
      <trkpt lat="42.287308" lon="-4.232574">
        <ele>803.808</ele>
        <time>2021-07-22T12:26:20Z</time>
      </trkpt>
      <trkpt lat="42.287511" lon="-4.232228">
        <ele>804.773</ele>
        <time>2021-07-22T12:26:30Z</time>
      </trkpt>
      <trkpt lat="42.287744" lon="-4.231819">
        <ele>805.775</ele>
        <time>2021-07-22T12:26:41Z</time>
      </trkpt>
      <trkpt lat="42.288008" lon="-4.231388">
        <ele>806.612</ele>
        <time>2021-07-22T12:26:53Z</time>
      </trkpt>
      <trkpt lat="42.288214" lon="-4.231057">
        <ele>807.682</ele>
        <time>2021-07-22T12:27:02Z</time>
      </trkpt>
      <trkpt lat="42.288424" lon="-4.230707">
        <ele>808.116</ele>
        <time>2021-07-22T12:27:11Z</time>
      </trkpt>
      <trkpt lat="42.288653" lon="-4.230324">
        <ele>809.094</ele>
        <time>2021-07-22T12:27:20Z</time>
      </trkpt>
      <trkpt lat="42.288914" lon="-4.229891">
        <ele>810.041</ele>
        <time>2021-07-22T12:27:30Z</time>
      </trkpt>
      <trkpt lat="42.289045" lon="-4.229671">
        <ele>811.039</ele>
        <time>2021-07-22T12:27:37Z</time>
      </trkpt>
      <trkpt lat="42.289123" lon="-4.229520">
        <ele>811.459</ele>
        <time>2021-07-22T12:27:44Z</time>
      </trkpt>
      <trkpt lat="42.289263" lon="-4.229301">
        <ele>811.903</ele>
        <time>2021-07-22T12:27:52Z</time>
      </trkpt>
      <trkpt lat="42.289453" lon="-4.228975">
        <ele>812.923</ele>
        <time>2021-07-22T12:28:02Z</time>
      </trkpt>
      <trkpt lat="42.289701" lon="-4.228560">
        <ele>813.408</ele>
        <time>2021-07-22T12:28:13Z</time>
      </trkpt>
      <trkpt lat="42.290032" lon="-4.228014">
        <ele>814.882</ele>
        <time>2021-07-22T12:28:26Z</time>
      </trkpt>
      <trkpt lat="42.290247" lon="-4.227642">
        <ele>815.844</ele>
        <time>2021-07-22T12:28:35Z</time>
      </trkpt>
      <trkpt lat="42.290401" lon="-4.227386">
        <ele>816.731</ele>
        <time>2021-07-22T12:28:44Z</time>
      </trkpt>
      <trkpt lat="42.290583" lon="-4.227075">
        <ele>817.751</ele>
        <time>2021-07-22T12:28:53Z</time>
      </trkpt>
      <trkpt lat="42.290849" lon="-4.226630">
        <ele>818.795</ele>
        <time>2021-07-22T12:29:05Z</time>
      </trkpt>
      <trkpt lat="42.291164" lon="-4.226113">
        <ele>820.113</ele>
        <time>2021-07-22T12:29:18Z</time>
      </trkpt>
      <trkpt lat="42.291338" lon="-4.225823">
        <ele>821.170</ele>
        <time>2021-07-22T12:29:27Z</time>
      </trkpt>
      <trkpt lat="42.291393" lon="-4.225728">
        <ele>821.568</ele>
        <time>2021-07-22T12:29:32Z</time>
      </trkpt>
      <trkpt lat="42.291405" lon="-4.225710">
        <ele>821.534</ele>
        <time>2021-07-22T12:29:33Z</time>
      </trkpt>
      <trkpt lat="42.291524" lon="-4.225525">
        <ele>821.555</ele>
        <time>2021-07-22T12:29:42Z</time>
      </trkpt>
      <trkpt lat="42.291727" lon="-4.225244">
        <ele>820.610</ele>
        <time>2021-07-22T12:29:51Z</time>
      </trkpt>
      <trkpt lat="42.292005" lon="-4.224863">
        <ele>820.108</ele>
        <time>2021-07-22T12:30:00Z</time>
      </trkpt>
      <trkpt lat="42.292331" lon="-4.224385">
        <ele>818.760</ele>
        <time>2021-07-22T12:30:08Z</time>
      </trkpt>
      <trkpt lat="42.292746" lon="-4.223803">
        <ele>816.732</ele>
        <time>2021-07-22T12:30:16Z</time>
      </trkpt>
      <trkpt lat="42.293301" lon="-4.223035">
        <ele>814.329</ele>
        <time>2021-07-22T12:30:25Z</time>
      </trkpt>
      <trkpt lat="42.293950" lon="-4.222126">
        <ele>813.479</ele>
        <time>2021-07-22T12:30:35Z</time>
      </trkpt>
      <trkpt lat="42.294334" lon="-4.221577">
        <ele>814.313</ele>
        <time>2021-07-22T12:30:42Z</time>
      </trkpt>
      <trkpt lat="42.294635" lon="-4.221149">
        <ele>815.371</ele>
        <time>2021-07-22T12:30:49Z</time>
      </trkpt>
      <trkpt lat="42.294776" lon="-4.220947">
        <ele>815.838</ele>
        <time>2021-07-22T12:30:53Z</time>
      </trkpt>
      <trkpt lat="42.294810" lon="-4.220896">
        <ele>815.846</ele>
        <time>2021-07-22T12:30:54Z</time>
      </trkpt>
      <trkpt lat="42.295045" lon="-4.220571">
        <ele>816.797</ele>
        <time>2021-07-22T12:31:02Z</time>
      </trkpt>
      <trkpt lat="42.295370" lon="-4.220113">
        <ele>817.723</ele>
        <time>2021-07-22T12:31:13Z</time>
      </trkpt>
      <trkpt lat="42.295398" lon="-4.220073">
        <ele>817.725</ele>
        <time>2021-07-22T12:31:14Z</time>
      </trkpt>
      <trkpt lat="42.295426" lon="-4.220030">
        <ele>818.208</ele>
        <time>2021-07-22T12:31:15Z</time>
      </trkpt>
      <trkpt lat="42.295457" lon="-4.219989">
        <ele>818.216</ele>
        <time>2021-07-22T12:31:16Z</time>
      </trkpt>
      <trkpt lat="42.295487" lon="-4.219949">
        <ele>818.268</ele>
        <time>2021-07-22T12:31:17Z</time>
      </trkpt>
      <trkpt lat="42.295516" lon="-4.219907">
        <ele>818.755</ele>
        <time>2021-07-22T12:31:18Z</time>
      </trkpt>
      <trkpt lat="42.295849" lon="-4.219457">
        <ele>820.175</ele>
        <time>2021-07-22T12:31:29Z</time>
      </trkpt>
      <trkpt lat="42.296063" lon="-4.219133">
        <ele>821.519</ele>
        <time>2021-07-22T12:31:38Z</time>
      </trkpt>
      <trkpt lat="42.296238" lon="-4.218749">
        <ele>822.087</ele>
        <time>2021-07-22T12:31:48Z</time>
      </trkpt>
      <trkpt lat="42.296318" lon="-4.218513">
        <ele>822.514</ele>
        <time>2021-07-22T12:31:56Z</time>
      </trkpt>
      <trkpt lat="42.296392" lon="-4.218278">
        <ele>822.562</ele>
        <time>2021-07-22T12:32:05Z</time>
      </trkpt>
      <trkpt lat="42.296472" lon="-4.218003">
        <ele>822.019</ele>
        <time>2021-07-22T12:32:15Z</time>
      </trkpt>
      <trkpt lat="42.296552" lon="-4.217771">
        <ele>822.009</ele>
        <time>2021-07-22T12:32:22Z</time>
      </trkpt>
      <trkpt lat="42.296692" lon="-4.217390">
        <ele>822.019</ele>
        <time>2021-07-22T12:32:31Z</time>
      </trkpt>
      <trkpt lat="42.296772" lon="-4.217142">
        <ele>822.008</ele>
        <time>2021-07-22T12:32:38Z</time>
      </trkpt>
      <trkpt lat="42.296857" lon="-4.216859">
        <ele>823.078</ele>
        <time>2021-07-22T12:32:45Z</time>
      </trkpt>
      <trkpt lat="42.297025" lon="-4.216325">
        <ele>825.450</ele>
        <time>2021-07-22T12:32:56Z</time>
      </trkpt>
      <trkpt lat="42.297193" lon="-4.215815">
        <ele>826.847</ele>
        <time>2021-07-22T12:33:06Z</time>
      </trkpt>
      <trkpt lat="42.297319" lon="-4.215335">
        <ele>826.827</ele>
        <time>2021-07-22T12:33:16Z</time>
      </trkpt>
      <trkpt lat="42.297440" lon="-4.214842">
        <ele>825.471</ele>
        <time>2021-07-22T12:33:24Z</time>
      </trkpt>
      <trkpt lat="42.297615" lon="-4.214146">
        <ele>823.929</ele>
        <time>2021-07-22T12:33:33Z</time>
      </trkpt>
      <trkpt lat="42.297795" lon="-4.213418">
        <ele>823.036</ele>
        <time>2021-07-22T12:33:41Z</time>
      </trkpt>
      <trkpt lat="42.298021" lon="-4.212503">
        <ele>821.194</ele>
        <time>2021-07-22T12:33:50Z</time>
      </trkpt>
      <trkpt lat="42.298324" lon="-4.211258">
        <ele>818.282</ele>
        <time>2021-07-22T12:34:01Z</time>
      </trkpt>
      <trkpt lat="42.298697" lon="-4.209787">
        <ele>814.843</ele>
        <time>2021-07-22T12:34:13Z</time>
      </trkpt>
      <trkpt lat="42.298953" lon="-4.208748">
        <ele>814.317</ele>
        <time>2021-07-22T12:34:22Z</time>
      </trkpt>
      <trkpt lat="42.299111" lon="-4.208107">
        <ele>815.808</ele>
        <time>2021-07-22T12:34:29Z</time>
      </trkpt>
      <trkpt lat="42.299240" lon="-4.207585">
        <ele>815.895</ele>
        <time>2021-07-22T12:34:36Z</time>
      </trkpt>
      <trkpt lat="42.299407" lon="-4.206900">
        <ele>814.377</ele>
        <time>2021-07-22T12:34:45Z</time>
      </trkpt>
      <trkpt lat="42.299425" lon="-4.206820">
        <ele>814.324</ele>
        <time>2021-07-22T12:34:46Z</time>
      </trkpt>
      <trkpt lat="42.299577" lon="-4.206153">
        <ele>812.984</ele>
        <time>2021-07-22T12:34:54Z</time>
      </trkpt>
      <trkpt lat="42.299840" lon="-4.205090">
        <ele>811.038</ele>
        <time>2021-07-22T12:35:06Z</time>
      </trkpt>
      <trkpt lat="42.300118" lon="-4.203955">
        <ele>809.586</ele>
        <time>2021-07-22T12:35:18Z</time>
      </trkpt>
      <trkpt lat="42.300303" lon="-4.203218">
        <ele>809.583</ele>
        <time>2021-07-22T12:35:26Z</time>
      </trkpt>
      <trkpt lat="42.300442" lon="-4.202676">
        <ele>809.561</ele>
        <time>2021-07-22T12:35:33Z</time>
      </trkpt>
      <trkpt lat="42.300600" lon="-4.202045">
        <ele>810.051</ele>
        <time>2021-07-22T12:35:43Z</time>
      </trkpt>
      <trkpt lat="42.300778" lon="-4.201316">
        <ele>810.501</ele>
        <time>2021-07-22T12:35:55Z</time>
      </trkpt>
      <trkpt lat="42.300925" lon="-4.200706">
        <ele>811.411</ele>
        <time>2021-07-22T12:36:05Z</time>
      </trkpt>
      <trkpt lat="42.301074" lon="-4.200106">
        <ele>811.408</ele>
        <time>2021-07-22T12:36:15Z</time>
      </trkpt>
      <trkpt lat="42.301088" lon="-4.200040">
        <ele>811.452</ele>
        <time>2021-07-22T12:36:16Z</time>
      </trkpt>
      <trkpt lat="42.301101" lon="-4.199980">
        <ele>811.414</ele>
        <time>2021-07-22T12:36:17Z</time>
      </trkpt>
      <trkpt lat="42.301245" lon="-4.199418">
        <ele>811.971</ele>
        <time>2021-07-22T12:36:26Z</time>
      </trkpt>
      <trkpt lat="42.301397" lon="-4.198772">
        <ele>811.981</ele>
        <time>2021-07-22T12:36:36Z</time>
      </trkpt>
      <trkpt lat="42.301488" lon="-4.198400">
        <ele>811.995</ele>
        <time>2021-07-22T12:36:42Z</time>
      </trkpt>
      <trkpt lat="42.301506" lon="-4.198335">
        <ele>811.993</ele>
        <time>2021-07-22T12:36:43Z</time>
      </trkpt>
      <trkpt lat="42.301520" lon="-4.198270">
        <ele>811.950</ele>
        <time>2021-07-22T12:36:44Z</time>
      </trkpt>
      <trkpt lat="42.301533" lon="-4.198207">
        <ele>811.998</ele>
        <time>2021-07-22T12:36:45Z</time>
      </trkpt>
      <trkpt lat="42.301549" lon="-4.198137">
        <ele>812.498</ele>
        <time>2021-07-22T12:36:46Z</time>
      </trkpt>
      <trkpt lat="42.301756" lon="-4.197316">
        <ele>812.915</ele>
        <time>2021-07-22T12:36:58Z</time>
      </trkpt>
      <trkpt lat="42.301973" lon="-4.196410">
        <ele>813.426</ele>
        <time>2021-07-22T12:37:11Z</time>
      </trkpt>
      <trkpt lat="42.302113" lon="-4.195846">
        <ele>813.808</ele>
        <time>2021-07-22T12:37:20Z</time>
      </trkpt>
      <trkpt lat="42.302182" lon="-4.195571">
        <ele>813.876</ele>
        <time>2021-07-22T12:37:27Z</time>
      </trkpt>
      <trkpt lat="42.302199" lon="-4.195501">
        <ele>813.848</ele>
        <time>2021-07-22T12:37:34Z</time>
      </trkpt>
      <trkpt lat="42.302274" lon="-4.195183">
        <ele>814.375</ele>
        <time>2021-07-22T12:37:42Z</time>
      </trkpt>
      <trkpt lat="42.302392" lon="-4.194696">
        <ele>814.315</ele>
        <time>2021-07-22T12:37:51Z</time>
      </trkpt>
      <trkpt lat="42.302445" lon="-4.194494">
        <ele>814.839</ele>
        <time>2021-07-22T12:37:56Z</time>
      </trkpt>
      <trkpt lat="42.302449" lon="-4.194474">
        <ele>814.877</ele>
        <time>2021-07-22T12:38:06Z</time>
      </trkpt>
      <trkpt lat="42.302448" lon="-4.194474">
        <ele>815.314</ele>
        <time>2021-07-22T12:38:17Z</time>
      </trkpt>
      <trkpt lat="42.302458" lon="-4.194453">
        <ele>814.882</ele>
        <time>2021-07-22T12:38:23Z</time>
      </trkpt>
      <trkpt lat="42.302501" lon="-4.194323">
        <ele>814.846</ele>
        <time>2021-07-22T12:38:29Z</time>
      </trkpt>
      <trkpt lat="42.302562" lon="-4.194043">
        <ele>815.388</ele>
        <time>2021-07-22T12:38:37Z</time>
      </trkpt>
      <trkpt lat="42.302634" lon="-4.193761">
        <ele>815.316</ele>
        <time>2021-07-22T12:38:45Z</time>
      </trkpt>
      <trkpt lat="42.302637" lon="-4.193758">
        <ele>815.808</ele>
        <time>2021-07-22T12:38:50Z</time>
      </trkpt>
      <trkpt lat="42.302642" lon="-4.193733">
        <ele>815.391</ele>
        <time>2021-07-22T12:38:59Z</time>
      </trkpt>
      <trkpt lat="42.302650" lon="-4.193720">
        <ele>815.323</ele>
        <time>2021-07-22T12:39:00Z</time>
      </trkpt>
      <trkpt lat="42.302654" lon="-4.193701">
        <ele>815.870</ele>
        <time>2021-07-22T12:39:01Z</time>
      </trkpt>
      <trkpt lat="42.302657" lon="-4.193678">
        <ele>815.850</ele>
        <time>2021-07-22T12:39:02Z</time>
      </trkpt>
      <trkpt lat="42.302659" lon="-4.193653">
        <ele>815.874</ele>
        <time>2021-07-22T12:39:03Z</time>
      </trkpt>
      <trkpt lat="42.302720" lon="-4.193384">
        <ele>815.882</ele>
        <time>2021-07-22T12:39:12Z</time>
      </trkpt>
      <trkpt lat="42.302806" lon="-4.193010">
        <ele>816.389</ele>
        <time>2021-07-22T12:39:21Z</time>
      </trkpt>
      <trkpt lat="42.302954" lon="-4.192425">
        <ele>817.217</ele>
        <time>2021-07-22T12:39:32Z</time>
      </trkpt>
      <trkpt lat="42.303079" lon="-4.191912">
        <ele>817.721</ele>
        <time>2021-07-22T12:39:41Z</time>
      </trkpt>
      <trkpt lat="42.303249" lon="-4.191230">
        <ele>817.741</ele>
        <time>2021-07-22T12:39:52Z</time>
      </trkpt>
      <trkpt lat="42.303436" lon="-4.190456">
        <ele>818.705</ele>
        <time>2021-07-22T12:40:04Z</time>
      </trkpt>
      <trkpt lat="42.303597" lon="-4.189785">
        <ele>818.708</ele>
        <time>2021-07-22T12:40:15Z</time>
      </trkpt>
      <trkpt lat="42.303753" lon="-4.189142">
        <ele>820.189</ele>
        <time>2021-07-22T12:40:26Z</time>
      </trkpt>
      <trkpt lat="42.303945" lon="-4.188412">
        <ele>819.181</ele>
        <time>2021-07-22T12:40:38Z</time>
      </trkpt>
      <trkpt lat="42.304073" lon="-4.187851">
        <ele>817.758</ele>
        <time>2021-07-22T12:40:45Z</time>
      </trkpt>
      <trkpt lat="42.304197" lon="-4.187366">
        <ele>816.778</ele>
        <time>2021-07-22T12:40:50Z</time>
      </trkpt>
      <trkpt lat="42.304391" lon="-4.186551">
        <ele>814.862</ele>
        <time>2021-07-22T12:40:58Z</time>
      </trkpt>
      <trkpt lat="42.304578" lon="-4.185810">
        <ele>816.370</ele>
        <time>2021-07-22T12:41:06Z</time>
      </trkpt>
      <trkpt lat="42.304715" lon="-4.185247">
        <ele>817.217</ele>
        <time>2021-07-22T12:41:14Z</time>
      </trkpt>
      <trkpt lat="42.304765" lon="-4.184791">
        <ele>816.745</ele>
        <time>2021-07-22T12:41:22Z</time>
      </trkpt>
      <trkpt lat="42.304801" lon="-4.184599">
        <ele>816.775</ele>
        <time>2021-07-22T12:41:25Z</time>
      </trkpt>
      <trkpt lat="42.304824" lon="-4.184524">
        <ele>816.328</ele>
        <time>2021-07-22T12:41:26Z</time>
      </trkpt>
      <trkpt lat="42.304880" lon="-4.184380">
        <ele>815.320</ele>
        <time>2021-07-22T12:41:28Z</time>
      </trkpt>
      <trkpt lat="42.305137" lon="-4.183823">
        <ele>812.408</ele>
        <time>2021-07-22T12:41:34Z</time>
      </trkpt>
      <trkpt lat="42.305437" lon="-4.183164">
        <ele>810.094</ele>
        <time>2021-07-22T12:41:40Z</time>
      </trkpt>
      <trkpt lat="42.305830" lon="-4.182305">
        <ele>806.236</ele>
        <time>2021-07-22T12:41:47Z</time>
      </trkpt>
      <trkpt lat="42.306467" lon="-4.180878">
        <ele>801.843</ele>
        <time>2021-07-22T12:41:58Z</time>
      </trkpt>
      <trkpt lat="42.306909" lon="-4.179893">
        <ele>798.943</ele>
        <time>2021-07-22T12:42:06Z</time>
      </trkpt>
      <trkpt lat="42.307392" lon="-4.178844">
        <ele>798.087</ele>
        <time>2021-07-22T12:42:15Z</time>
      </trkpt>
      <trkpt lat="42.307757" lon="-4.177989">
        <ele>797.015</ele>
        <time>2021-07-22T12:42:23Z</time>
      </trkpt>
      <trkpt lat="42.308204" lon="-4.177026">
        <ele>795.692</ele>
        <time>2021-07-22T12:42:33Z</time>
      </trkpt>
      <trkpt lat="42.308566" lon="-4.176196">
        <ele>795.620</ele>
        <time>2021-07-22T12:42:42Z</time>
      </trkpt>
      <trkpt lat="42.308815" lon="-4.175672">
        <ele>796.139</ele>
        <time>2021-07-22T12:42:49Z</time>
      </trkpt>
      <trkpt lat="42.309082" lon="-4.175065">
        <ele>795.101</ele>
        <time>2021-07-22T12:42:57Z</time>
      </trkpt>
      <trkpt lat="42.309322" lon="-4.174518">
        <ele>794.121</ele>
        <time>2021-07-22T12:43:04Z</time>
      </trkpt>
      <trkpt lat="42.309605" lon="-4.173816">
        <ele>792.208</ele>
        <time>2021-07-22T12:43:13Z</time>
      </trkpt>
      <trkpt lat="42.309623" lon="-4.173533">
        <ele>792.210</ele>
        <time>2021-07-22T12:43:16Z</time>
      </trkpt>
      <trkpt lat="42.309608" lon="-4.173457">
        <ele>791.782</ele>
        <time>2021-07-22T12:43:17Z</time>
      </trkpt>
      <trkpt lat="42.309584" lon="-4.173392">
        <ele>791.719</ele>
        <time>2021-07-22T12:43:18Z</time>
      </trkpt>
      <trkpt lat="42.309551" lon="-4.173320">
        <ele>791.719</ele>
        <time>2021-07-22T12:43:19Z</time>
      </trkpt>
      <trkpt lat="42.309519" lon="-4.173253">
        <ele>791.713</ele>
        <time>2021-07-22T12:43:20Z</time>
      </trkpt>
      <trkpt lat="42.309280" lon="-4.172761">
        <ele>790.831</ele>
        <time>2021-07-22T12:43:28Z</time>
      </trkpt>
      <trkpt lat="42.308857" lon="-4.171872">
        <ele>790.858</ele>
        <time>2021-07-22T12:43:43Z</time>
      </trkpt>
      <trkpt lat="42.308478" lon="-4.171086">
        <ele>789.856</ele>
        <time>2021-07-22T12:43:56Z</time>
      </trkpt>
      <trkpt lat="42.308146" lon="-4.170399">
        <ele>788.963</ele>
        <time>2021-07-22T12:44:08Z</time>
      </trkpt>
      <trkpt lat="42.307876" lon="-4.169831">
        <ele>788.444</ele>
        <time>2021-07-22T12:44:18Z</time>
      </trkpt>
      <trkpt lat="42.307617" lon="-4.169284">
        <ele>787.418</ele>
        <time>2021-07-22T12:44:28Z</time>
      </trkpt>
      <trkpt lat="42.307541" lon="-4.169119">
        <ele>787.408</ele>
        <time>2021-07-22T12:44:31Z</time>
      </trkpt>
      <trkpt lat="42.307267" lon="-4.168526">
        <ele>786.913</ele>
        <time>2021-07-22T12:44:42Z</time>
      </trkpt>
      <trkpt lat="42.307150" lon="-4.168277">
        <ele>786.575</ele>
        <time>2021-07-22T12:44:47Z</time>
      </trkpt>
      <trkpt lat="42.306912" lon="-4.167774">
        <ele>786.042</ele>
        <time>2021-07-22T12:44:57Z</time>
      </trkpt>
      <trkpt lat="42.306863" lon="-4.167674">
        <ele>786.052</ele>
        <time>2021-07-22T12:44:59Z</time>
      </trkpt>
      <trkpt lat="42.306642" lon="-4.167194">
        <ele>785.586</ele>
        <time>2021-07-22T12:45:09Z</time>
      </trkpt>
      <trkpt lat="42.306411" lon="-4.166717">
        <ele>785.064</ele>
        <time>2021-07-22T12:45:19Z</time>
      </trkpt>
      <trkpt lat="42.306201" lon="-4.166278">
        <ele>784.581</ele>
        <time>2021-07-22T12:45:28Z</time>
      </trkpt>
      <trkpt lat="42.306153" lon="-4.166183">
        <ele>784.089</ele>
        <time>2021-07-22T12:45:30Z</time>
      </trkpt>
      <trkpt lat="42.305915" lon="-4.165678">
        <ele>783.639</ele>
        <time>2021-07-22T12:45:40Z</time>
      </trkpt>
      <trkpt lat="42.305642" lon="-4.165099">
        <ele>783.601</ele>
        <time>2021-07-22T12:45:51Z</time>
      </trkpt>
      <trkpt lat="42.305452" lon="-4.164681">
        <ele>783.121</ele>
        <time>2021-07-22T12:45:59Z</time>
      </trkpt>
      <trkpt lat="42.305379" lon="-4.164530">
        <ele>783.108</ele>
        <time>2021-07-22T12:46:02Z</time>
      </trkpt>
      <trkpt lat="42.305177" lon="-4.164095">
        <ele>783.190</ele>
        <time>2021-07-22T12:46:11Z</time>
      </trkpt>
      <trkpt lat="42.305157" lon="-4.164051">
        <ele>783.112</ele>
        <time>2021-07-22T12:46:12Z</time>
      </trkpt>
      <trkpt lat="42.304992" lon="-4.163704">
        <ele>782.629</ele>
        <time>2021-07-22T12:46:20Z</time>
      </trkpt>
      <trkpt lat="42.304864" lon="-4.163443">
        <ele>782.679</ele>
        <time>2021-07-22T12:46:26Z</time>
      </trkpt>
      <trkpt lat="42.304681" lon="-4.163042">
        <ele>782.633</ele>
        <time>2021-07-22T12:46:35Z</time>
      </trkpt>
      <trkpt lat="42.304512" lon="-4.162696">
        <ele>783.171</ele>
        <time>2021-07-22T12:46:43Z</time>
      </trkpt>
      <trkpt lat="42.304338" lon="-4.162324">
        <ele>782.658</ele>
        <time>2021-07-22T12:46:51Z</time>
      </trkpt>
      <trkpt lat="42.304134" lon="-4.161893">
        <ele>783.186</ele>
        <time>2021-07-22T12:47:00Z</time>
      </trkpt>
      <trkpt lat="42.303935" lon="-4.161464">
        <ele>783.164</ele>
        <time>2021-07-22T12:47:09Z</time>
      </trkpt>
      <trkpt lat="42.303913" lon="-4.161416">
        <ele>783.106</ele>
        <time>2021-07-22T12:47:10Z</time>
      </trkpt>
      <trkpt lat="42.303893" lon="-4.161367">
        <ele>783.116</ele>
        <time>2021-07-22T12:47:11Z</time>
      </trkpt>
      <trkpt lat="42.303826" lon="-4.161229">
        <ele>782.608</ele>
        <time>2021-07-22T12:47:14Z</time>
      </trkpt>
      <trkpt lat="42.303802" lon="-4.161184">
        <ele>782.693</ele>
        <time>2021-07-22T12:47:15Z</time>
      </trkpt>
      <trkpt lat="42.303778" lon="-4.161138">
        <ele>782.645</ele>
        <time>2021-07-22T12:47:16Z</time>
      </trkpt>
      <trkpt lat="42.303756" lon="-4.161091">
        <ele>782.642</ele>
        <time>2021-07-22T12:47:17Z</time>
      </trkpt>
      <trkpt lat="42.303734" lon="-4.161044">
        <ele>782.622</ele>
        <time>2021-07-22T12:47:18Z</time>
      </trkpt>
      <trkpt lat="42.303647" lon="-4.160859">
        <ele>782.616</ele>
        <time>2021-07-22T12:47:22Z</time>
      </trkpt>
      <trkpt lat="42.303625" lon="-4.160813">
        <ele>782.654</ele>
        <time>2021-07-22T12:47:23Z</time>
      </trkpt>
      <trkpt lat="42.303603" lon="-4.160767">
        <ele>782.631</ele>
        <time>2021-07-22T12:47:24Z</time>
      </trkpt>
      <trkpt lat="42.303385" lon="-4.160301">
        <ele>782.659</ele>
        <time>2021-07-22T12:47:34Z</time>
      </trkpt>
      <trkpt lat="42.303148" lon="-4.159837">
        <ele>783.146</ele>
        <time>2021-07-22T12:47:45Z</time>
      </trkpt>
      <trkpt lat="42.302938" lon="-4.159478">
        <ele>782.688</ele>
        <time>2021-07-22T12:47:54Z</time>
      </trkpt>
      <trkpt lat="42.302718" lon="-4.159159">
        <ele>783.116</ele>
        <time>2021-07-22T12:48:03Z</time>
      </trkpt>
      <trkpt lat="42.302489" lon="-4.158868">
        <ele>783.108</ele>
        <time>2021-07-22T12:48:12Z</time>
      </trkpt>
      <trkpt lat="42.302073" lon="-4.158417">
        <ele>783.631</ele>
        <time>2021-07-22T12:48:26Z</time>
      </trkpt>
      <trkpt lat="42.301682" lon="-4.158036">
        <ele>783.173</ele>
        <time>2021-07-22T12:48:38Z</time>
      </trkpt>
      <trkpt lat="42.301251" lon="-4.157626">
        <ele>783.150</ele>
        <time>2021-07-22T12:48:50Z</time>
      </trkpt>
      <trkpt lat="42.300903" lon="-4.157294">
        <ele>782.690</ele>
        <time>2021-07-22T12:49:00Z</time>
      </trkpt>
      <trkpt lat="42.300596" lon="-4.157000">
        <ele>783.154</ele>
        <time>2021-07-22T12:49:09Z</time>
      </trkpt>
      <trkpt lat="42.300266" lon="-4.156687">
        <ele>783.152</ele>
        <time>2021-07-22T12:49:19Z</time>
      </trkpt>
      <trkpt lat="42.299884" lon="-4.156323">
        <ele>782.679</ele>
        <time>2021-07-22T12:49:30Z</time>
      </trkpt>
      <trkpt lat="42.299415" lon="-4.155878">
        <ele>782.677</ele>
        <time>2021-07-22T12:49:43Z</time>
      </trkpt>
      <trkpt lat="42.298985" lon="-4.155474">
        <ele>782.672</ele>
        <time>2021-07-22T12:49:55Z</time>
      </trkpt>
      <trkpt lat="42.298617" lon="-4.155116">
        <ele>782.113</ele>
        <time>2021-07-22T12:50:06Z</time>
      </trkpt>
      <trkpt lat="42.298297" lon="-4.154813">
        <ele>782.614</ele>
        <time>2021-07-22T12:50:16Z</time>
      </trkpt>
      <trkpt lat="42.297988" lon="-4.154527">
        <ele>782.608</ele>
        <time>2021-07-22T12:50:26Z</time>
      </trkpt>
      <trkpt lat="42.297671" lon="-4.154219">
        <ele>783.184</ele>
        <time>2021-07-22T12:50:37Z</time>
      </trkpt>
      <trkpt lat="42.297426" lon="-4.153987">
        <ele>783.696</ele>
        <time>2021-07-22T12:50:46Z</time>
      </trkpt>
      <trkpt lat="42.297163" lon="-4.153756">
        <ele>783.173</ele>
        <time>2021-07-22T12:50:56Z</time>
      </trkpt>
      <trkpt lat="42.296792" lon="-4.153428">
        <ele>782.673</ele>
        <time>2021-07-22T12:51:08Z</time>
      </trkpt>
      <trkpt lat="42.296533" lon="-4.153189">
        <ele>783.697</ele>
        <time>2021-07-22T12:51:17Z</time>
      </trkpt>
      <trkpt lat="42.296264" lon="-4.152962">
        <ele>784.085</ele>
        <time>2021-07-22T12:51:26Z</time>
      </trkpt>
      <trkpt lat="42.296035" lon="-4.152765">
        <ele>784.062</ele>
        <time>2021-07-22T12:51:34Z</time>
      </trkpt>
      <trkpt lat="42.295749" lon="-4.152509">
        <ele>784.530</ele>
        <time>2021-07-22T12:51:44Z</time>
      </trkpt>
      <trkpt lat="42.295458" lon="-4.152265">
        <ele>785.574</ele>
        <time>2021-07-22T12:51:55Z</time>
      </trkpt>
      <trkpt lat="42.295213" lon="-4.152057">
        <ele>785.556</ele>
        <time>2021-07-22T12:52:04Z</time>
      </trkpt>
      <trkpt lat="42.294954" lon="-4.151851">
        <ele>785.021</ele>
        <time>2021-07-22T12:52:13Z</time>
      </trkpt>
      <trkpt lat="42.294695" lon="-4.151640">
        <ele>786.008</ele>
        <time>2021-07-22T12:52:22Z</time>
      </trkpt>
      <trkpt lat="42.294412" lon="-4.151409">
        <ele>786.564</ele>
        <time>2021-07-22T12:52:32Z</time>
      </trkpt>
      <trkpt lat="42.294151" lon="-4.151201">
        <ele>786.986</ele>
        <time>2021-07-22T12:52:41Z</time>
      </trkpt>
      <trkpt lat="42.293853" lon="-4.150960">
        <ele>787.493</ele>
        <time>2021-07-22T12:52:52Z</time>
      </trkpt>
      <trkpt lat="42.293529" lon="-4.150698">
        <ele>787.963</ele>
        <time>2021-07-22T12:53:04Z</time>
      </trkpt>
      <trkpt lat="42.293204" lon="-4.150440">
        <ele>787.997</ele>
        <time>2021-07-22T12:53:16Z</time>
      </trkpt>
      <trkpt lat="42.292876" lon="-4.150173">
        <ele>789.385</ele>
        <time>2021-07-22T12:53:28Z</time>
      </trkpt>
      <trkpt lat="42.292532" lon="-4.149884">
        <ele>790.362</ele>
        <time>2021-07-22T12:53:41Z</time>
      </trkpt>
      <trkpt lat="42.292453" lon="-4.149820">
        <ele>790.840</ele>
        <time>2021-07-22T12:53:45Z</time>
      </trkpt>
      <trkpt lat="42.292450" lon="-4.149821">
        <ele>790.389</ele>
        <time>2021-07-22T12:53:51Z</time>
      </trkpt>
      <trkpt lat="42.292449" lon="-4.149830">
        <ele>789.306</ele>
        <time>2021-07-22T12:54:05Z</time>
      </trkpt>
      <trkpt lat="42.292444" lon="-4.149828">
        <ele>789.326</ele>
        <time>2021-07-22T12:54:16Z</time>
      </trkpt>
      <trkpt lat="42.292436" lon="-4.149815">
        <ele>789.308</ele>
        <time>2021-07-22T12:54:18Z</time>
      </trkpt>
      <trkpt lat="42.292336" lon="-4.149723">
        <ele>789.845</ele>
        <time>2021-07-22T12:54:26Z</time>
      </trkpt>
      <trkpt lat="42.292183" lon="-4.149598">
        <ele>790.327</ele>
        <time>2021-07-22T12:54:33Z</time>
      </trkpt>
      <trkpt lat="42.291995" lon="-4.149448">
        <ele>791.354</ele>
        <time>2021-07-22T12:54:41Z</time>
      </trkpt>
      <trkpt lat="42.291781" lon="-4.149276">
        <ele>791.724</ele>
        <time>2021-07-22T12:54:50Z</time>
      </trkpt>
      <trkpt lat="42.291543" lon="-4.149079">
        <ele>792.768</ele>
        <time>2021-07-22T12:55:00Z</time>
      </trkpt>
      <trkpt lat="42.291305" lon="-4.148901">
        <ele>793.246</ele>
        <time>2021-07-22T12:55:09Z</time>
      </trkpt>
      <trkpt lat="42.291011" lon="-4.148666">
        <ele>794.193</ele>
        <time>2021-07-22T12:55:20Z</time>
      </trkpt>
      <trkpt lat="42.290666" lon="-4.148381">
        <ele>795.141</ele>
        <time>2021-07-22T12:55:32Z</time>
      </trkpt>
      <trkpt lat="42.290406" lon="-4.148159">
        <ele>796.554</ele>
        <time>2021-07-22T12:55:41Z</time>
      </trkpt>
      <trkpt lat="42.290138" lon="-4.147920">
        <ele>797.556</ele>
        <time>2021-07-22T12:55:51Z</time>
      </trkpt>
      <trkpt lat="42.289884" lon="-4.147712">
        <ele>798.011</ele>
        <time>2021-07-22T12:56:00Z</time>
      </trkpt>
      <trkpt lat="42.289582" lon="-4.147483">
        <ele>798.908</ele>
        <time>2021-07-22T12:56:11Z</time>
      </trkpt>
      <trkpt lat="42.289336" lon="-4.147282">
        <ele>799.492</ele>
        <time>2021-07-22T12:56:20Z</time>
      </trkpt>
      <trkpt lat="42.289080" lon="-4.147073">
        <ele>799.914</ele>
        <time>2021-07-22T12:56:29Z</time>
      </trkpt>
      <trkpt lat="42.288822" lon="-4.146954">
        <ele>799.931</ele>
        <time>2021-07-22T12:56:37Z</time>
      </trkpt>
      <trkpt lat="42.288576" lon="-4.146983">
        <ele>798.961</ele>
        <time>2021-07-22T12:56:44Z</time>
      </trkpt>
      <trkpt lat="42.288460" lon="-4.146822">
        <ele>798.945</ele>
        <time>2021-07-22T12:56:49Z</time>
      </trkpt>
      <trkpt lat="42.288457" lon="-4.146541">
        <ele>798.043</ele>
        <time>2021-07-22T12:56:56Z</time>
      </trkpt>
      <trkpt lat="42.288431" lon="-4.146328">
        <ele>797.530</ele>
        <time>2021-07-22T12:57:03Z</time>
      </trkpt>
      <trkpt lat="42.288424" lon="-4.146279">
        <ele>797.588</ele>
        <time>2021-07-22T12:57:10Z</time>
      </trkpt>
      <trkpt lat="42.288427" lon="-4.146271">
        <ele>797.098</ele>
        <time>2021-07-22T12:57:13Z</time>
      </trkpt>
      <trkpt lat="42.288431" lon="-4.146255">
        <ele>797.015</ele>
        <time>2021-07-22T12:57:14Z</time>
      </trkpt>
      <trkpt lat="42.288440" lon="-4.146237">
        <ele>797.026</ele>
        <time>2021-07-22T12:57:15Z</time>
      </trkpt>
      <trkpt lat="42.288513" lon="-4.146136">
        <ele>797.008</ele>
        <time>2021-07-22T12:57:20Z</time>
      </trkpt>
      <trkpt lat="42.288523" lon="-4.146111">
        <ele>797.056</ele>
        <time>2021-07-22T12:57:21Z</time>
      </trkpt>
      <trkpt lat="42.288531" lon="-4.146086">
        <ele>797.038</ele>
        <time>2021-07-22T12:57:22Z</time>
      </trkpt>
      <trkpt lat="42.288581" lon="-4.145927">
        <ele>797.565</ele>
        <time>2021-07-22T12:57:28Z</time>
      </trkpt>
      <trkpt lat="42.288636" lon="-4.145755">
        <ele>798.025</ele>
        <time>2021-07-22T12:57:35Z</time>
      </trkpt>
      <trkpt lat="42.288660" lon="-4.145650">
        <ele>798.549</ele>
        <time>2021-07-22T12:57:42Z</time>
      </trkpt>
      <trkpt lat="42.288723" lon="-4.145553">
        <ele>798.957</ele>
        <time>2021-07-22T12:57:51Z</time>
      </trkpt>
      <trkpt lat="42.288740" lon="-4.145536">
        <ele>798.994</ele>
        <time>2021-07-22T12:57:53Z</time>
      </trkpt>
      <trkpt lat="42.288774" lon="-4.145500">
        <ele>799.492</ele>
        <time>2021-07-22T12:57:57Z</time>
      </trkpt>
      <trkpt lat="42.288851" lon="-4.145431">
        <ele>799.462</ele>
        <time>2021-07-22T12:58:06Z</time>
      </trkpt>
      <trkpt lat="42.288900" lon="-4.145430">
        <ele>800.483</ele>
        <time>2021-07-22T12:58:10Z</time>
      </trkpt>
      <trkpt lat="42.288919" lon="-4.145418">
        <ele>800.411</ele>
        <time>2021-07-22T12:58:12Z</time>
      </trkpt>
      <trkpt lat="42.288954" lon="-4.145391">
        <ele>800.908</ele>
        <time>2021-07-22T12:58:16Z</time>
      </trkpt>
      <trkpt lat="42.288952" lon="-4.145279">
        <ele>801.433</ele>
        <time>2021-07-22T12:58:23Z</time>
      </trkpt>
      <trkpt lat="42.288953" lon="-4.145265">
        <ele>801.865</ele>
        <time>2021-07-22T12:58:24Z</time>
      </trkpt>
      <trkpt lat="42.288978" lon="-4.145112">
        <ele>802.342</ele>
        <time>2021-07-22T12:58:31Z</time>
      </trkpt>
      <trkpt lat="42.289039" lon="-4.144936">
        <ele>803.312</ele>
        <time>2021-07-22T12:58:38Z</time>
      </trkpt>
      <trkpt lat="42.289087" lon="-4.144710">
        <ele>803.326</ele>
        <time>2021-07-22T12:58:46Z</time>
      </trkpt>
      <trkpt lat="42.289125" lon="-4.144491">
        <ele>803.844</ele>
        <time>2021-07-22T12:58:55Z</time>
      </trkpt>
      <trkpt lat="42.289185" lon="-4.144266">
        <ele>802.811</ele>
        <time>2021-07-22T12:59:04Z</time>
      </trkpt>
      <trkpt lat="42.289283" lon="-4.144059">
        <ele>802.859</ele>
        <time>2021-07-22T12:59:11Z</time>
      </trkpt>
      <trkpt lat="42.289385" lon="-4.143886">
        <ele>802.333</ele>
        <time>2021-07-22T12:59:18Z</time>
      </trkpt>
      <trkpt lat="42.289477" lon="-4.143689">
        <ele>803.323</ele>
        <time>2021-07-22T12:59:28Z</time>
      </trkpt>
      <trkpt lat="42.289515" lon="-4.143461">
        <ele>804.215</ele>
        <time>2021-07-22T12:59:36Z</time>
      </trkpt>
      <trkpt lat="42.289499" lon="-4.143300">
        <ele>804.208</ele>
        <time>2021-07-22T12:59:43Z</time>
      </trkpt>
      <trkpt lat="42.289478" lon="-4.143243">
        <ele>804.290</ele>
        <time>2021-07-22T12:59:50Z</time>
      </trkpt>
      <trkpt lat="42.289452" lon="-4.143207">
        <ele>804.212</ele>
        <time>2021-07-22T12:59:55Z</time>
      </trkpt>
      <trkpt lat="42.289449" lon="-4.143207">
        <ele>803.399</ele>
        <time>2021-07-22T13:00:10Z</time>
      </trkpt>
      <trkpt lat="42.289437" lon="-4.143179">
        <ele>803.329</ele>
        <time>2021-07-22T13:00:17Z</time>
      </trkpt>
      <trkpt lat="42.289342" lon="-4.143014">
        <ele>803.393</ele>
        <time>2021-07-22T13:00:26Z</time>
      </trkpt>
      <trkpt lat="42.289272" lon="-4.142869">
        <ele>803.331</ele>
        <time>2021-07-22T13:00:35Z</time>
      </trkpt>
      <trkpt lat="42.289171" lon="-4.142663">
        <ele>805.248</ele>
        <time>2021-07-22T13:00:46Z</time>
      </trkpt>
      <trkpt lat="42.289020" lon="-4.142556">
        <ele>807.196</ele>
        <time>2021-07-22T13:00:53Z</time>
      </trkpt>
      <trkpt lat="42.288837" lon="-4.142434">
        <ele>809.545</ele>
        <time>2021-07-22T13:01:00Z</time>
      </trkpt>
      <trkpt lat="42.288662" lon="-4.142296">
        <ele>806.647</ele>
        <time>2021-07-22T13:01:07Z</time>
      </trkpt>
      <trkpt lat="42.288487" lon="-4.142062">
        <ele>805.211</ele>
        <time>2021-07-22T13:01:16Z</time>
      </trkpt>
      <trkpt lat="42.288346" lon="-4.141846">
        <ele>803.808</ele>
        <time>2021-07-22T13:01:24Z</time>
      </trkpt>
      <trkpt lat="42.288299" lon="-4.141777">
        <ele>802.391</ele>
        <time>2021-07-22T13:01:28Z</time>
      </trkpt>
      <trkpt lat="42.288160" lon="-4.141790">
        <ele>801.413</ele>
        <time>2021-07-22T13:01:34Z</time>
      </trkpt>
      <trkpt lat="42.287953" lon="-4.141785">
        <ele>799.970</ele>
        <time>2021-07-22T13:01:43Z</time>
      </trkpt>
      <trkpt lat="42.287843" lon="-4.141668">
        <ele>798.580</ele>
        <time>2021-07-22T13:01:50Z</time>
      </trkpt>
      <trkpt lat="42.287819" lon="-4.141643">
        <ele>798.014</ele>
        <time>2021-07-22T13:01:52Z</time>
      </trkpt>
      <trkpt lat="42.287800" lon="-4.141628">
        <ele>797.592</ele>
        <time>2021-07-22T13:01:59Z</time>
      </trkpt>
      <trkpt lat="42.287799" lon="-4.141624">
        <ele>797.599</ele>
        <time>2021-07-22T13:02:00Z</time>
      </trkpt>
      <trkpt lat="42.287775" lon="-4.141547">
        <ele>797.557</ele>
        <time>2021-07-22T13:02:04Z</time>
      </trkpt>
      <trkpt lat="42.287806" lon="-4.141489">
        <ele>797.099</ele>
        <time>2021-07-22T13:02:10Z</time>
      </trkpt>
      <trkpt lat="42.287817" lon="-4.141471">
        <ele>797.507</ele>
        <time>2021-07-22T13:02:17Z</time>
      </trkpt>
      <trkpt lat="42.287817" lon="-4.141468">
        <ele>797.027</ele>
        <time>2021-07-22T13:02:30Z</time>
      </trkpt>
      <trkpt lat="42.287817" lon="-4.141459">
        <ele>796.508</ele>
        <time>2021-07-22T13:02:46Z</time>
      </trkpt>
      <trkpt lat="42.287799" lon="-4.141446">
        <ele>797.546</ele>
        <time>2021-07-22T13:02:56Z</time>
      </trkpt>
      <trkpt lat="42.287803" lon="-4.141438">
        <ele>798.978</ele>
        <time>2021-07-22T13:03:09Z</time>
      </trkpt>
      <trkpt lat="42.287756" lon="-4.141430">
        <ele>798.945</ele>
        <time>2021-07-22T13:03:13Z</time>
      </trkpt>
      <trkpt lat="42.287654" lon="-4.141243">
        <ele>798.095</ele>
        <time>2021-07-22T13:03:19Z</time>
      </trkpt>
      <trkpt lat="42.287579" lon="-4.140913">
        <ele>796.549</ele>
        <time>2021-07-22T13:03:27Z</time>
      </trkpt>
      <trkpt lat="42.287511" lon="-4.140519">
        <ele>795.117</ele>
        <time>2021-07-22T13:03:36Z</time>
      </trkpt>
      <trkpt lat="42.287443" lon="-4.140216">
        <ele>794.614</ele>
        <time>2021-07-22T13:03:43Z</time>
      </trkpt>
      <trkpt lat="42.287375" lon="-4.139920">
        <ele>795.192</ele>
        <time>2021-07-22T13:03:51Z</time>
      </trkpt>
      <trkpt lat="42.287277" lon="-4.139457">
        <ele>795.668</ele>
        <time>2021-07-22T13:04:03Z</time>
      </trkpt>
      <trkpt lat="42.287187" lon="-4.139205">
        <ele>795.142</ele>
        <time>2021-07-22T13:04:10Z</time>
      </trkpt>
      <trkpt lat="42.287118" lon="-4.138876">
        <ele>793.226</ele>
        <time>2021-07-22T13:04:18Z</time>
      </trkpt>
      <trkpt lat="42.287049" lon="-4.138523">
        <ele>791.308</ele>
        <time>2021-07-22T13:04:26Z</time>
      </trkpt>
      <trkpt lat="42.286932" lon="-4.138272">
        <ele>790.323</ele>
        <time>2021-07-22T13:04:33Z</time>
      </trkpt>
      <trkpt lat="42.286879" lon="-4.138206">
        <ele>790.375</ele>
        <time>2021-07-22T13:04:36Z</time>
      </trkpt>
      <trkpt lat="42.286870" lon="-4.138173">
        <ele>790.362</ele>
        <time>2021-07-22T13:04:37Z</time>
      </trkpt>
      <trkpt lat="42.286866" lon="-4.138136">
        <ele>790.372</ele>
        <time>2021-07-22T13:04:38Z</time>
      </trkpt>
      <trkpt lat="42.286865" lon="-4.138093">
        <ele>790.316</ele>
        <time>2021-07-22T13:04:39Z</time>
      </trkpt>
      <trkpt lat="42.286864" lon="-4.138045">
        <ele>790.384</ele>
        <time>2021-07-22T13:04:40Z</time>
      </trkpt>
      <trkpt lat="42.286882" lon="-4.137666">
        <ele>790.351</ele>
        <time>2021-07-22T13:04:48Z</time>
      </trkpt>
      <trkpt lat="42.286897" lon="-4.137196">
        <ele>789.329</ele>
        <time>2021-07-22T13:04:58Z</time>
      </trkpt>
      <trkpt lat="42.286973" lon="-4.136798">
        <ele>788.964</ele>
        <time>2021-07-22T13:05:07Z</time>
      </trkpt>
      <trkpt lat="42.287102" lon="-4.136306">
        <ele>788.906</ele>
        <time>2021-07-22T13:05:18Z</time>
      </trkpt>
      <trkpt lat="42.287213" lon="-4.135978">
        <ele>788.416</ele>
        <time>2021-07-22T13:05:26Z</time>
      </trkpt>
      <trkpt lat="42.287298" lon="-4.135686">
        <ele>787.908</ele>
        <time>2021-07-22T13:05:33Z</time>
      </trkpt>
      <trkpt lat="42.287390" lon="-4.135332">
        <ele>787.933</ele>
        <time>2021-07-22T13:05:41Z</time>
      </trkpt>
      <trkpt lat="42.287513" lon="-4.135009">
        <ele>788.965</ele>
        <time>2021-07-22T13:05:50Z</time>
      </trkpt>
      <trkpt lat="42.287666" lon="-4.134768">
        <ele>789.312</ele>
        <time>2021-07-22T13:05:57Z</time>
      </trkpt>
      <trkpt lat="42.287916" lon="-4.134379">
        <ele>790.382</ele>
        <time>2021-07-22T13:06:08Z</time>
      </trkpt>
      <trkpt lat="42.288013" lon="-4.134228">
        <ele>789.876</ele>
        <time>2021-07-22T13:06:13Z</time>
      </trkpt>
      <trkpt lat="42.288014" lon="-4.134213">
        <ele>790.394</ele>
        <time>2021-07-22T13:06:18Z</time>
      </trkpt>
      <trkpt lat="42.288008" lon="-4.134207">
        <ele>789.371</ele>
        <time>2021-07-22T13:06:39Z</time>
      </trkpt>
      <trkpt lat="42.288015" lon="-4.134202">
        <ele>788.919</ele>
        <time>2021-07-22T13:06:46Z</time>
      </trkpt>
      <trkpt lat="42.288097" lon="-4.134099">
        <ele>789.365</ele>
        <time>2021-07-22T13:06:52Z</time>
      </trkpt>
      <trkpt lat="42.288246" lon="-4.133889">
        <ele>788.968</ele>
        <time>2021-07-22T13:06:59Z</time>
      </trkpt>
      <trkpt lat="42.288482" lon="-4.133555">
        <ele>789.314</ele>
        <time>2021-07-22T13:07:08Z</time>
      </trkpt>
      <trkpt lat="42.288764" lon="-4.133134">
        <ele>789.308</ele>
        <time>2021-07-22T13:07:19Z</time>
      </trkpt>
      <trkpt lat="42.288992" lon="-4.132828">
        <ele>789.333</ele>
        <time>2021-07-22T13:07:27Z</time>
      </trkpt>
      <trkpt lat="42.289270" lon="-4.132487">
        <ele>789.395</ele>
        <time>2021-07-22T13:07:36Z</time>
      </trkpt>
      <trkpt lat="42.289544" lon="-4.132157">
        <ele>788.982</ele>
        <time>2021-07-22T13:07:46Z</time>
      </trkpt>
      <trkpt lat="42.289674" lon="-4.132027">
        <ele>788.952</ele>
        <time>2021-07-22T13:07:54Z</time>
      </trkpt>
      <trkpt lat="42.289693" lon="-4.132030">
        <ele>788.956</ele>
        <time>2021-07-22T13:07:55Z</time>
      </trkpt>
      <trkpt lat="42.289713" lon="-4.132032">
        <ele>788.994</ele>
        <time>2021-07-22T13:07:56Z</time>
      </trkpt>
      <trkpt lat="42.289894" lon="-4.132036">
        <ele>788.981</ele>
        <time>2021-07-22T13:08:03Z</time>
      </trkpt>
      <trkpt lat="42.290166" lon="-4.131834">
        <ele>789.319</ele>
        <time>2021-07-22T13:08:12Z</time>
      </trkpt>
      <trkpt lat="42.290409" lon="-4.131657">
        <ele>791.396</ele>
        <time>2021-07-22T13:08:21Z</time>
      </trkpt>
      <trkpt lat="42.290591" lon="-4.131553">
        <ele>793.231</ele>
        <time>2021-07-22T13:08:29Z</time>
      </trkpt>
      <trkpt lat="42.290606" lon="-4.131566">
        <ele>793.224</ele>
        <time>2021-07-22T13:08:30Z</time>
      </trkpt>
      <trkpt lat="42.290650" lon="-4.131683">
        <ele>793.708</ele>
        <time>2021-07-22T13:08:37Z</time>
      </trkpt>
      <trkpt lat="42.290654" lon="-4.131702">
        <ele>793.796</ele>
        <time>2021-07-22T13:08:38Z</time>
      </trkpt>
      <trkpt lat="42.290658" lon="-4.131723">
        <ele>793.258</ele>
        <time>2021-07-22T13:08:39Z</time>
      </trkpt>
      <trkpt lat="42.290663" lon="-4.131740">
        <ele>793.215</ele>
        <time>2021-07-22T13:08:40Z</time>
      </trkpt>
      <trkpt lat="42.290667" lon="-4.131758">
        <ele>793.745</ele>
        <time>2021-07-22T13:08:41Z</time>
      </trkpt>
      <trkpt lat="42.290671" lon="-4.131777">
        <ele>793.749</ele>
        <time>2021-07-22T13:08:42Z</time>
      </trkpt>
      <trkpt lat="42.290676" lon="-4.131794">
        <ele>793.717</ele>
        <time>2021-07-22T13:08:43Z</time>
      </trkpt>
      <trkpt lat="42.290683" lon="-4.131810">
        <ele>793.754</ele>
        <time>2021-07-22T13:08:44Z</time>
      </trkpt>
      <trkpt lat="42.290693" lon="-4.131820">
        <ele>793.792</ele>
        <time>2021-07-22T13:08:45Z</time>
      </trkpt>
      <trkpt lat="42.290705" lon="-4.131820">
        <ele>793.727</ele>
        <time>2021-07-22T13:08:46Z</time>
      </trkpt>
      <trkpt lat="42.290715" lon="-4.131817">
        <ele>793.768</ele>
        <time>2021-07-22T13:08:47Z</time>
      </trkpt>
      <trkpt lat="42.290729" lon="-4.131814">
        <ele>793.714</ele>
        <time>2021-07-22T13:08:48Z</time>
      </trkpt>
      <trkpt lat="42.290745" lon="-4.131814">
        <ele>793.708</ele>
        <time>2021-07-22T13:08:49Z</time>
      </trkpt>
      <trkpt lat="42.290760" lon="-4.131819">
        <ele>793.719</ele>
        <time>2021-07-22T13:08:50Z</time>
      </trkpt>
      <trkpt lat="42.290776" lon="-4.131824">
        <ele>793.771</ele>
        <time>2021-07-22T13:08:51Z</time>
      </trkpt>
      <trkpt lat="42.290794" lon="-4.131825">
        <ele>794.178</ele>
        <time>2021-07-22T13:08:52Z</time>
      </trkpt>
      <trkpt lat="42.290812" lon="-4.131827">
        <ele>794.198</ele>
        <time>2021-07-22T13:08:53Z</time>
      </trkpt>
      <trkpt lat="42.290830" lon="-4.131832">
        <ele>794.632</ele>
        <time>2021-07-22T13:08:54Z</time>
      </trkpt>
      <trkpt lat="42.290850" lon="-4.131838">
        <ele>794.660</ele>
        <time>2021-07-22T13:08:55Z</time>
      </trkpt>
      <trkpt lat="42.290870" lon="-4.131841">
        <ele>795.187</ele>
        <time>2021-07-22T13:08:56Z</time>
      </trkpt>
      <trkpt lat="42.290989" lon="-4.131810">
        <ele>795.675</ele>
        <time>2021-07-22T13:09:03Z</time>
      </trkpt>
      <trkpt lat="42.290997" lon="-4.131668">
        <ele>795.137</ele>
        <time>2021-07-22T13:09:09Z</time>
      </trkpt>
      <trkpt lat="42.291010" lon="-4.131621">
        <ele>794.149</ele>
        <time>2021-07-22T13:09:16Z</time>
      </trkpt>
      <trkpt lat="42.291012" lon="-4.131606">
        <ele>794.613</ele>
        <time>2021-07-22T13:09:26Z</time>
      </trkpt>
      <trkpt lat="42.291017" lon="-4.131619">
        <ele>793.708</ele>
        <time>2021-07-22T13:09:42Z</time>
      </trkpt>
      <trkpt lat="42.291015" lon="-4.131628">
        <ele>792.740</ele>
        <time>2021-07-22T13:10:02Z</time>
      </trkpt>
      <trkpt lat="42.291008" lon="-4.131623">
        <ele>790.892</ele>
        <time>2021-07-22T13:10:23Z</time>
      </trkpt>
      <trkpt lat="42.291013" lon="-4.131614">
        <ele>790.859</ele>
        <time>2021-07-22T13:10:50Z</time>
      </trkpt>
      <trkpt lat="42.291019" lon="-4.131608">
        <ele>789.819</ele>
        <time>2021-07-22T13:11:08Z</time>
      </trkpt>
      <trkpt lat="42.291026" lon="-4.131617">
        <ele>790.893</ele>
        <time>2021-07-22T13:11:14Z</time>
      </trkpt>
      <trkpt lat="42.291043" lon="-4.131584">
        <ele>792.231</ele>
        <time>2021-07-22T13:11:17Z</time>
      </trkpt>
      <trkpt lat="42.291148" lon="-4.131501">
        <ele>794.118</ele>
        <time>2021-07-22T13:11:28Z</time>
      </trkpt>
      <trkpt lat="42.291206" lon="-4.131439">
        <ele>795.186</ele>
        <time>2021-07-22T13:11:36Z</time>
      </trkpt>
      <trkpt lat="42.291331" lon="-4.131331">
        <ele>795.172</ele>
        <time>2021-07-22T13:11:48Z</time>
      </trkpt>
      <trkpt lat="42.291426" lon="-4.131280">
        <ele>796.513</ele>
        <time>2021-07-22T13:11:56Z</time>
      </trkpt>
      <trkpt lat="42.291543" lon="-4.131199">
        <ele>796.514</ele>
        <time>2021-07-22T13:12:06Z</time>
      </trkpt>
      <trkpt lat="42.291641" lon="-4.131091">
        <ele>797.008</ele>
        <time>2021-07-22T13:12:16Z</time>
      </trkpt>
      <trkpt lat="42.291770" lon="-4.130944">
        <ele>798.584</ele>
        <time>2021-07-22T13:12:28Z</time>
      </trkpt>
      <trkpt lat="42.291803" lon="-4.130861">
        <ele>797.556</ele>
        <time>2021-07-22T13:12:35Z</time>
      </trkpt>
      <trkpt lat="42.291801" lon="-4.130849">
        <ele>797.013</ele>
        <time>2021-07-22T13:12:38Z</time>
      </trkpt>
      <trkpt lat="42.291782" lon="-4.130813">
        <ele>797.013</ele>
        <time>2021-07-22T13:12:40Z</time>
      </trkpt>
      <trkpt lat="42.291687" lon="-4.130691">
        <ele>796.167</ele>
        <time>2021-07-22T13:12:46Z</time>
      </trkpt>
      <trkpt lat="42.291670" lon="-4.130676">
        <ele>795.645</ele>
        <time>2021-07-22T13:12:47Z</time>
      </trkpt>
      <trkpt lat="42.291651" lon="-4.130669">
        <ele>795.622</ele>
        <time>2021-07-22T13:12:48Z</time>
      </trkpt>
      <trkpt lat="42.291631" lon="-4.130671">
        <ele>795.620</ele>
        <time>2021-07-22T13:12:49Z</time>
      </trkpt>
      <trkpt lat="42.291609" lon="-4.130679">
        <ele>795.642</ele>
        <time>2021-07-22T13:12:50Z</time>
      </trkpt>
      <trkpt lat="42.291568" lon="-4.130710">
        <ele>796.122</ele>
        <time>2021-07-22T13:12:52Z</time>
      </trkpt>
      <trkpt lat="42.291460" lon="-4.130840">
        <ele>795.114</ele>
        <time>2021-07-22T13:12:59Z</time>
      </trkpt>
      <trkpt lat="42.291301" lon="-4.130993">
        <ele>795.608</ele>
        <time>2021-07-22T13:13:07Z</time>
      </trkpt>
      <trkpt lat="42.291132" lon="-4.131146">
        <ele>795.171</ele>
        <time>2021-07-22T13:13:16Z</time>
      </trkpt>
      <trkpt lat="42.290982" lon="-4.131285">
        <ele>794.643</ele>
        <time>2021-07-22T13:13:24Z</time>
      </trkpt>
      <trkpt lat="42.290949" lon="-4.131298">
        <ele>795.130</ele>
        <time>2021-07-22T13:13:30Z</time>
      </trkpt>
      <trkpt lat="42.290932" lon="-4.131289">
        <ele>794.640</ele>
        <time>2021-07-22T13:13:38Z</time>
      </trkpt>
      <trkpt lat="42.290933" lon="-4.131287">
        <ele>794.194</ele>
        <time>2021-07-22T13:13:46Z</time>
      </trkpt>
      <trkpt lat="42.290945" lon="-4.131270">
        <ele>793.742</ele>
        <time>2021-07-22T13:14:02Z</time>
      </trkpt>
      <trkpt lat="42.290957" lon="-4.131257">
        <ele>794.149</ele>
        <time>2021-07-22T13:14:23Z</time>
      </trkpt>
      <trkpt lat="42.290955" lon="-4.131258">
        <ele>794.177</ele>
        <time>2021-07-22T13:14:47Z</time>
      </trkpt>
      <trkpt lat="42.290940" lon="-4.131279">
        <ele>793.722</ele>
        <time>2021-07-22T13:15:07Z</time>
      </trkpt>
      <trkpt lat="42.290933" lon="-4.131289">
        <ele>794.662</ele>
        <time>2021-07-22T13:15:28Z</time>
      </trkpt>
      <trkpt lat="42.290920" lon="-4.131323">
        <ele>795.608</ele>
        <time>2021-07-22T13:15:32Z</time>
      </trkpt>
      <trkpt lat="42.290869" lon="-4.131507">
        <ele>796.508</ele>
        <time>2021-07-22T13:15:43Z</time>
      </trkpt>
      <trkpt lat="42.290839" lon="-4.131593">
        <ele>796.549</ele>
        <time>2021-07-22T13:15:50Z</time>
      </trkpt>
      <trkpt lat="42.290838" lon="-4.131561">
        <ele>797.541</ele>
        <time>2021-07-22T13:16:12Z</time>
      </trkpt>
      <trkpt lat="42.290848" lon="-4.131571">
        <ele>797.548</ele>
        <time>2021-07-22T13:16:30Z</time>
      </trkpt>
      <trkpt lat="42.290840" lon="-4.131575">
        <ele>798.538</ele>
        <time>2021-07-22T13:16:44Z</time>
      </trkpt>
      <trkpt lat="42.290839" lon="-4.131587">
        <ele>798.522</ele>
        <time>2021-07-22T13:16:58Z</time>
      </trkpt>
      <trkpt lat="42.290851" lon="-4.131589">
        <ele>798.070</ele>
        <time>2021-07-22T13:17:14Z</time>
      </trkpt>
      <trkpt lat="42.290848" lon="-4.131589">
        <ele>798.037</ele>
        <time>2021-07-22T13:17:32Z</time>
      </trkpt>
      <trkpt lat="42.290838" lon="-4.131577">
        <ele>799.915</ele>
        <time>2021-07-22T13:17:45Z</time>
      </trkpt>
      <trkpt lat="42.290837" lon="-4.131574">
        <ele>799.921</ele>
        <time>2021-07-22T13:17:57Z</time>
      </trkpt>
      <trkpt lat="42.290836" lon="-4.131568">
        <ele>799.441</ele>
        <time>2021-07-22T13:18:14Z</time>
      </trkpt>
      <trkpt lat="42.290843" lon="-4.131577">
        <ele>800.405</ele>
        <time>2021-07-22T13:18:31Z</time>
      </trkpt>
      <trkpt lat="42.290844" lon="-4.131572">
        <ele>798.908</ele>
        <time>2021-07-22T13:18:46Z</time>
      </trkpt>
      <trkpt lat="42.290842" lon="-4.131583">
        <ele>798.099</ele>
        <time>2021-07-22T13:19:00Z</time>
      </trkpt>
      <trkpt lat="42.290840" lon="-4.131554">
        <ele>796.151</ele>
        <time>2021-07-22T13:19:12Z</time>
      </trkpt>
      <trkpt lat="42.290875" lon="-4.131371">
        <ele>796.188</ele>
        <time>2021-07-22T13:19:24Z</time>
      </trkpt>
      <trkpt lat="42.290882" lon="-4.131294">
        <ele>796.128</ele>
        <time>2021-07-22T13:19:32Z</time>
      </trkpt>
      <trkpt lat="42.290878" lon="-4.131296">
        <ele>796.152</ele>
        <time>2021-07-22T13:19:48Z</time>
      </trkpt>
      <trkpt lat="42.290874" lon="-4.131298">
        <ele>795.150</ele>
        <time>2021-07-22T13:20:07Z</time>
      </trkpt>
      <trkpt lat="42.290878" lon="-4.131312">
        <ele>793.777</ele>
        <time>2021-07-22T13:20:31Z</time>
      </trkpt>
      <trkpt lat="42.290889" lon="-4.131309">
        <ele>794.625</ele>
        <time>2021-07-22T13:20:55Z</time>
      </trkpt>
      <trkpt lat="42.290880" lon="-4.131293">
        <ele>791.749</ele>
        <time>2021-07-22T13:21:19Z</time>
      </trkpt>
      <trkpt lat="42.290898" lon="-4.131292">
        <ele>791.302</ele>
        <time>2021-07-22T13:21:47Z</time>
      </trkpt>
      <trkpt lat="42.290880" lon="-4.131314">
        <ele>794.622</ele>
        <time>2021-07-22T13:22:16Z</time>
      </trkpt>
      <trkpt lat="42.290900" lon="-4.131304">
        <ele>796.108</ele>
        <time>2021-07-22T13:22:36Z</time>
      </trkpt>
      <trkpt lat="42.290841" lon="-4.131149">
        <ele>801.841</ele>
        <time>2021-07-23T06:58:20Z</time>
      </trkpt>
      <trkpt lat="42.290897" lon="-4.131209">
        <ele>797.583</ele>
        <time>2021-07-23T06:58:34Z</time>
      </trkpt>
      <trkpt lat="42.290922" lon="-4.131237">
        <ele>785.070</ele>
        <time>2021-07-23T06:58:49Z</time>
      </trkpt>
      <trkpt lat="42.290899" lon="-4.131267">
        <ele>794.670</ele>
        <time>2021-07-23T06:58:51Z</time>
      </trkpt>
      <trkpt lat="42.290915" lon="-4.131318">
        <ele>796.514</ele>
        <time>2021-07-23T06:58:55Z</time>
      </trkpt>
      <trkpt lat="42.290849" lon="-4.131445">
        <ele>796.532</ele>
        <time>2021-07-23T06:59:03Z</time>
      </trkpt>
      <trkpt lat="42.290962" lon="-4.131720">
        <ele>796.159</ele>
        <time>2021-07-23T06:59:17Z</time>
      </trkpt>
      <trkpt lat="42.290977" lon="-4.131769">
        <ele>796.557</ele>
        <time>2021-07-23T06:59:20Z</time>
      </trkpt>
      <trkpt lat="42.290943" lon="-4.131817">
        <ele>796.511</ele>
        <time>2021-07-23T06:59:24Z</time>
      </trkpt>
      <trkpt lat="42.290923" lon="-4.131821">
        <ele>796.521</ele>
        <time>2021-07-23T06:59:25Z</time>
      </trkpt>
      <trkpt lat="42.290898" lon="-4.131822">
        <ele>796.503</ele>
        <time>2021-07-23T06:59:26Z</time>
      </trkpt>
      <trkpt lat="42.290873" lon="-4.131823">
        <ele>796.108</ele>
        <time>2021-07-23T06:59:27Z</time>
      </trkpt>
      <trkpt lat="42.290751" lon="-4.131833">
        <ele>795.158</ele>
        <time>2021-07-23T06:59:33Z</time>
      </trkpt>
      <trkpt lat="42.290680" lon="-4.131724">
        <ele>793.230</ele>
        <time>2021-07-23T06:59:40Z</time>
      </trkpt>
      <trkpt lat="42.290662" lon="-4.131696">
        <ele>792.767</ele>
        <time>2021-07-23T06:59:41Z</time>
      </trkpt>
      <trkpt lat="42.290639" lon="-4.131667">
        <ele>793.217</ele>
        <time>2021-07-23T06:59:42Z</time>
      </trkpt>
      <trkpt lat="42.290619" lon="-4.131640">
        <ele>793.211</ele>
        <time>2021-07-23T06:59:43Z</time>
      </trkpt>
      <trkpt lat="42.290603" lon="-4.131614">
        <ele>793.719</ele>
        <time>2021-07-23T06:59:44Z</time>
      </trkpt>
      <trkpt lat="42.290590" lon="-4.131592">
        <ele>793.796</ele>
        <time>2021-07-23T06:59:45Z</time>
      </trkpt>
      <trkpt lat="42.290579" lon="-4.131576">
        <ele>793.774</ele>
        <time>2021-07-23T06:59:46Z</time>
      </trkpt>
      <trkpt lat="42.290571" lon="-4.131565">
        <ele>793.766</ele>
        <time>2021-07-23T06:59:47Z</time>
      </trkpt>
      <trkpt lat="42.290564" lon="-4.131550">
        <ele>793.729</ele>
        <time>2021-07-23T06:59:48Z</time>
      </trkpt>
      <trkpt lat="42.290563" lon="-4.131530">
        <ele>793.721</ele>
        <time>2021-07-23T06:59:49Z</time>
      </trkpt>
      <trkpt lat="42.290569" lon="-4.131508">
        <ele>793.708</ele>
        <time>2021-07-23T06:59:50Z</time>
      </trkpt>
      <trkpt lat="42.290579" lon="-4.131493">
        <ele>793.723</ele>
        <time>2021-07-23T06:59:51Z</time>
      </trkpt>
      <trkpt lat="42.290590" lon="-4.131481">
        <ele>793.735</ele>
        <time>2021-07-23T06:59:52Z</time>
      </trkpt>
      <trkpt lat="42.290601" lon="-4.131473">
        <ele>793.792</ele>
        <time>2021-07-23T06:59:53Z</time>
      </trkpt>
      <trkpt lat="42.290612" lon="-4.131463">
        <ele>793.752</ele>
        <time>2021-07-23T06:59:54Z</time>
      </trkpt>
      <trkpt lat="42.290621" lon="-4.131448">
        <ele>793.746</ele>
        <time>2021-07-23T06:59:55Z</time>
      </trkpt>
      <trkpt lat="42.290629" lon="-4.131429">
        <ele>793.724</ele>
        <time>2021-07-23T06:59:56Z</time>
      </trkpt>
      <trkpt lat="42.290732" lon="-4.131268">
        <ele>793.251</ele>
        <time>2021-07-23T07:00:06Z</time>
      </trkpt>
      <trkpt lat="42.290840" lon="-4.131113">
        <ele>792.299</ele>
        <time>2021-07-23T07:00:15Z</time>
      </trkpt>
      <trkpt lat="42.291023" lon="-4.130897">
        <ele>791.772</ele>
        <time>2021-07-23T07:00:25Z</time>
      </trkpt>
      <trkpt lat="42.291208" lon="-4.130599">
        <ele>790.813</ele>
        <time>2021-07-23T07:00:35Z</time>
      </trkpt>
      <trkpt lat="42.291320" lon="-4.130304">
        <ele>790.314</ele>
        <time>2021-07-23T07:00:44Z</time>
      </trkpt>
      <trkpt lat="42.291379" lon="-4.130046">
        <ele>791.708</ele>
        <time>2021-07-23T07:00:53Z</time>
      </trkpt>
      <trkpt lat="42.291510" lon="-4.129788">
        <ele>791.394</ele>
        <time>2021-07-23T07:01:01Z</time>
      </trkpt>
      <trkpt lat="42.291717" lon="-4.129462">
        <ele>792.226</ele>
        <time>2021-07-23T07:01:12Z</time>
      </trkpt>
      <trkpt lat="42.291903" lon="-4.129247">
        <ele>793.783</ele>
        <time>2021-07-23T07:01:21Z</time>
      </trkpt>
      <trkpt lat="42.292151" lon="-4.129014">
        <ele>795.693</ele>
        <time>2021-07-23T07:01:32Z</time>
      </trkpt>
      <trkpt lat="42.292294" lon="-4.128907">
        <ele>795.637</ele>
        <time>2021-07-23T07:01:39Z</time>
      </trkpt>
      <trkpt lat="42.292456" lon="-4.128740">
        <ele>795.635</ele>
        <time>2021-07-23T07:01:47Z</time>
      </trkpt>
      <trkpt lat="42.292582" lon="-4.128473">
        <ele>795.652</ele>
        <time>2021-07-23T07:01:58Z</time>
      </trkpt>
      <trkpt lat="42.292589" lon="-4.128426">
        <ele>795.610</ele>
        <time>2021-07-23T07:02:01Z</time>
      </trkpt>
      <trkpt lat="42.292592" lon="-4.128412">
        <ele>795.687</ele>
        <time>2021-07-23T07:02:02Z</time>
      </trkpt>
      <trkpt lat="42.292595" lon="-4.128356">
        <ele>795.642</ele>
        <time>2021-07-23T07:02:07Z</time>
      </trkpt>
      <trkpt lat="42.292602" lon="-4.128347">
        <ele>795.626</ele>
        <time>2021-07-23T07:02:08Z</time>
      </trkpt>
      <trkpt lat="42.292611" lon="-4.128339">
        <ele>796.108</ele>
        <time>2021-07-23T07:02:09Z</time>
      </trkpt>
      <trkpt lat="42.292622" lon="-4.128319">
        <ele>796.195</ele>
        <time>2021-07-23T07:02:15Z</time>
      </trkpt>
      <trkpt lat="42.292625" lon="-4.128323">
        <ele>797.597</ele>
        <time>2021-07-23T07:02:24Z</time>
      </trkpt>
      <trkpt lat="42.292625" lon="-4.128318">
        <ele>797.574</ele>
        <time>2021-07-23T07:02:44Z</time>
      </trkpt>
      <trkpt lat="42.292618" lon="-4.128340">
        <ele>797.064</ele>
        <time>2021-07-23T07:03:09Z</time>
      </trkpt>
      <trkpt lat="42.292613" lon="-4.128372">
        <ele>798.578</ele>
        <time>2021-07-23T07:03:32Z</time>
      </trkpt>
      <trkpt lat="42.292636" lon="-4.128335">
        <ele>796.546</ele>
        <time>2021-07-23T07:03:53Z</time>
      </trkpt>
      <trkpt lat="42.292639" lon="-4.128327">
        <ele>796.123</ele>
        <time>2021-07-23T07:04:12Z</time>
      </trkpt>
      <trkpt lat="42.292644" lon="-4.128333">
        <ele>795.651</ele>
        <time>2021-07-23T07:04:30Z</time>
      </trkpt>
      <trkpt lat="42.292630" lon="-4.128304">
        <ele>793.783</ele>
        <time>2021-07-23T07:04:49Z</time>
      </trkpt>
      <trkpt lat="42.292642" lon="-4.128295">
        <ele>794.125</ele>
        <time>2021-07-23T07:05:04Z</time>
      </trkpt>
      <trkpt lat="42.292646" lon="-4.128309">
        <ele>795.617</ele>
        <time>2021-07-23T07:05:19Z</time>
      </trkpt>
      <trkpt lat="42.292634" lon="-4.128309">
        <ele>797.008</ele>
        <time>2021-07-23T07:05:36Z</time>
      </trkpt>
      <trkpt lat="42.292647" lon="-4.128332">
        <ele>795.165</ele>
        <time>2021-07-23T07:05:50Z</time>
      </trkpt>
      <trkpt lat="42.292645" lon="-4.128335">
        <ele>793.257</ele>
        <time>2021-07-23T07:06:02Z</time>
      </trkpt>
      <trkpt lat="42.292632" lon="-4.128330">
        <ele>793.284</ele>
        <time>2021-07-23T07:06:11Z</time>
      </trkpt>
      <trkpt lat="42.292628" lon="-4.128325">
        <ele>793.214</ele>
        <time>2021-07-23T07:06:13Z</time>
      </trkpt>
      <trkpt lat="42.292555" lon="-4.128272">
        <ele>793.738</ele>
        <time>2021-07-23T07:06:20Z</time>
      </trkpt>
      <trkpt lat="42.292540" lon="-4.128207">
        <ele>794.686</ele>
        <time>2021-07-23T07:06:24Z</time>
      </trkpt>
      <trkpt lat="42.292509" lon="-4.127992">
        <ele>795.623</ele>
        <time>2021-07-23T07:06:34Z</time>
      </trkpt>
      <trkpt lat="42.292505" lon="-4.127969">
        <ele>796.131</ele>
        <time>2021-07-23T07:06:35Z</time>
      </trkpt>
      <trkpt lat="42.292514" lon="-4.127918">
        <ele>795.156</ele>
        <time>2021-07-23T07:06:44Z</time>
      </trkpt>
      <trkpt lat="42.292511" lon="-4.127904">
        <ele>795.159</ele>
        <time>2021-07-23T07:06:48Z</time>
      </trkpt>
      <trkpt lat="42.292479" lon="-4.127763">
        <ele>793.714</ele>
        <time>2021-07-23T07:06:55Z</time>
      </trkpt>
      <trkpt lat="42.292414" lon="-4.127515">
        <ele>792.208</ele>
        <time>2021-07-23T07:07:04Z</time>
      </trkpt>
      <trkpt lat="42.292368" lon="-4.127291">
        <ele>791.322</ele>
        <time>2021-07-23T07:07:10Z</time>
      </trkpt>
      <trkpt lat="42.292236" lon="-4.127153">
        <ele>790.314</ele>
        <time>2021-07-23T07:07:15Z</time>
      </trkpt>
      <trkpt lat="42.292162" lon="-4.126984">
        <ele>789.841</ele>
        <time>2021-07-23T07:07:20Z</time>
      </trkpt>
      <trkpt lat="42.292114" lon="-4.126710">
        <ele>789.321</ele>
        <time>2021-07-23T07:07:29Z</time>
      </trkpt>
      <trkpt lat="42.292087" lon="-4.126542">
        <ele>789.335</ele>
        <time>2021-07-23T07:07:35Z</time>
      </trkpt>
      <trkpt lat="42.292087" lon="-4.126517">
        <ele>789.313</ele>
        <time>2021-07-23T07:07:36Z</time>
      </trkpt>
      <trkpt lat="42.292087" lon="-4.126490">
        <ele>789.370</ele>
        <time>2021-07-23T07:07:37Z</time>
      </trkpt>
      <trkpt lat="42.292085" lon="-4.126465">
        <ele>789.328</ele>
        <time>2021-07-23T07:07:38Z</time>
      </trkpt>
      <trkpt lat="42.292084" lon="-4.126440">
        <ele>789.322</ele>
        <time>2021-07-23T07:07:39Z</time>
      </trkpt>
      <trkpt lat="42.292083" lon="-4.126415">
        <ele>789.362</ele>
        <time>2021-07-23T07:07:40Z</time>
      </trkpt>
      <trkpt lat="42.292052" lon="-4.126236">
        <ele>789.308</ele>
        <time>2021-07-23T07:07:47Z</time>
      </trkpt>
      <trkpt lat="42.292037" lon="-4.125914">
        <ele>789.808</ele>
        <time>2021-07-23T07:07:56Z</time>
      </trkpt>
      <trkpt lat="42.292041" lon="-4.125835">
        <ele>789.879</ele>
        <time>2021-07-23T07:08:03Z</time>
      </trkpt>
      <trkpt lat="42.292054" lon="-4.125737">
        <ele>789.821</ele>
        <time>2021-07-23T07:08:12Z</time>
      </trkpt>
      <trkpt lat="42.292058" lon="-4.125722">
        <ele>789.868</ele>
        <time>2021-07-23T07:08:13Z</time>
      </trkpt>
      <trkpt lat="42.292059" lon="-4.125707">
        <ele>789.868</ele>
        <time>2021-07-23T07:08:14Z</time>
      </trkpt>
      <trkpt lat="42.292060" lon="-4.125691">
        <ele>789.822</ele>
        <time>2021-07-23T07:08:15Z</time>
      </trkpt>
      <trkpt lat="42.292062" lon="-4.125675">
        <ele>789.890</ele>
        <time>2021-07-23T07:08:16Z</time>
      </trkpt>
      <trkpt lat="42.292061" lon="-4.125660">
        <ele>789.817</ele>
        <time>2021-07-23T07:08:17Z</time>
      </trkpt>
      <trkpt lat="42.292059" lon="-4.125645">
        <ele>789.895</ele>
        <time>2021-07-23T07:08:18Z</time>
      </trkpt>
      <trkpt lat="42.292054" lon="-4.125597">
        <ele>789.356</ele>
        <time>2021-07-23T07:08:21Z</time>
      </trkpt>
      <trkpt lat="42.292053" lon="-4.125577">
        <ele>789.359</ele>
        <time>2021-07-23T07:08:22Z</time>
      </trkpt>
      <trkpt lat="42.292052" lon="-4.125558">
        <ele>789.314</ele>
        <time>2021-07-23T07:08:23Z</time>
      </trkpt>
      <trkpt lat="42.292053" lon="-4.125538">
        <ele>789.308</ele>
        <time>2021-07-23T07:08:24Z</time>
      </trkpt>
      <trkpt lat="42.292053" lon="-4.125521">
        <ele>789.322</ele>
        <time>2021-07-23T07:08:25Z</time>
      </trkpt>
      <trkpt lat="42.292053" lon="-4.125505">
        <ele>789.384</ele>
        <time>2021-07-23T07:08:26Z</time>
      </trkpt>
      <trkpt lat="42.292055" lon="-4.125488">
        <ele>789.341</ele>
        <time>2021-07-23T07:08:27Z</time>
      </trkpt>
      <trkpt lat="42.292059" lon="-4.125471">
        <ele>789.871</ele>
        <time>2021-07-23T07:08:28Z</time>
      </trkpt>
      <trkpt lat="42.292071" lon="-4.125343">
        <ele>789.885</ele>
        <time>2021-07-23T07:08:36Z</time>
      </trkpt>
      <trkpt lat="42.292096" lon="-4.125241">
        <ele>790.333</ele>
        <time>2021-07-23T07:08:44Z</time>
      </trkpt>
      <trkpt lat="42.292097" lon="-4.125238">
        <ele>790.350</ele>
        <time>2021-07-23T07:08:52Z</time>
      </trkpt>
      <trkpt lat="42.292096" lon="-4.125251">
        <ele>791.328</ele>
        <time>2021-07-23T07:09:09Z</time>
      </trkpt>
      <trkpt lat="42.292124" lon="-4.125234">
        <ele>791.353</ele>
        <time>2021-07-23T07:09:30Z</time>
      </trkpt>
      <trkpt lat="42.292132" lon="-4.125231">
        <ele>792.204</ele>
        <time>2021-07-23T07:09:47Z</time>
      </trkpt>
      <trkpt lat="42.292133" lon="-4.125224">
        <ele>791.314</ele>
        <time>2021-07-23T07:10:05Z</time>
      </trkpt>
      <trkpt lat="42.292114" lon="-4.125190">
        <ele>789.808</ele>
        <time>2021-07-23T07:10:19Z</time>
      </trkpt>
      <trkpt lat="42.292093" lon="-4.125021">
        <ele>790.862</ele>
        <time>2021-07-23T07:10:26Z</time>
      </trkpt>
      <trkpt lat="42.292078" lon="-4.124938">
        <ele>791.314</ele>
        <time>2021-07-23T07:10:30Z</time>
      </trkpt>
      <trkpt lat="42.292143" lon="-4.124658">
        <ele>791.321</ele>
        <time>2021-07-23T07:10:41Z</time>
      </trkpt>
      <trkpt lat="42.292225" lon="-4.124317">
        <ele>791.741</ele>
        <time>2021-07-23T07:10:53Z</time>
      </trkpt>
      <trkpt lat="42.292255" lon="-4.124004">
        <ele>791.715</ele>
        <time>2021-07-23T07:11:03Z</time>
      </trkpt>
      <trkpt lat="42.292237" lon="-4.123691">
        <ele>791.783</ele>
        <time>2021-07-23T07:11:12Z</time>
      </trkpt>
      <trkpt lat="42.292225" lon="-4.123337">
        <ele>792.230</ele>
        <time>2021-07-23T07:11:22Z</time>
      </trkpt>
      <trkpt lat="42.292209" lon="-4.122953">
        <ele>792.218</ele>
        <time>2021-07-23T07:11:32Z</time>
      </trkpt>
      <trkpt lat="42.292203" lon="-4.122586">
        <ele>793.228</ele>
        <time>2021-07-23T07:11:41Z</time>
      </trkpt>
      <trkpt lat="42.292186" lon="-4.122277">
        <ele>794.189</ele>
        <time>2021-07-23T07:11:48Z</time>
      </trkpt>
      <trkpt lat="42.292167" lon="-4.121828">
        <ele>794.617</ele>
        <time>2021-07-23T07:11:58Z</time>
      </trkpt>
      <trkpt lat="42.292150" lon="-4.121330">
        <ele>795.608</ele>
        <time>2021-07-23T07:12:09Z</time>
      </trkpt>
      <trkpt lat="42.292131" lon="-4.120812">
        <ele>796.139</ele>
        <time>2021-07-23T07:12:20Z</time>
      </trkpt>
      <trkpt lat="42.292110" lon="-4.120221">
        <ele>797.051</ele>
        <time>2021-07-23T07:12:32Z</time>
      </trkpt>
      <trkpt lat="42.292080" lon="-4.119463">
        <ele>797.558</ele>
        <time>2021-07-23T07:12:47Z</time>
      </trkpt>
      <trkpt lat="42.292054" lon="-4.118816">
        <ele>798.048</ele>
        <time>2021-07-23T07:13:00Z</time>
      </trkpt>
      <trkpt lat="42.292036" lon="-4.118224">
        <ele>798.592</ele>
        <time>2021-07-23T07:13:12Z</time>
      </trkpt>
      <trkpt lat="42.292018" lon="-4.117662">
        <ele>798.020</ele>
        <time>2021-07-23T07:13:23Z</time>
      </trkpt>
      <trkpt lat="42.292005" lon="-4.117165">
        <ele>798.067</ele>
        <time>2021-07-23T07:13:33Z</time>
      </trkpt>
      <trkpt lat="42.291988" lon="-4.116653">
        <ele>797.535</ele>
        <time>2021-07-23T07:13:43Z</time>
      </trkpt>
      <trkpt lat="42.291965" lon="-4.116138">
        <ele>797.059</ele>
        <time>2021-07-23T07:13:53Z</time>
      </trkpt>
      <trkpt lat="42.291954" lon="-4.115751">
        <ele>797.003</ele>
        <time>2021-07-23T07:14:01Z</time>
      </trkpt>
      <trkpt lat="42.291933" lon="-4.115284">
        <ele>796.523</ele>
        <time>2021-07-23T07:14:11Z</time>
      </trkpt>
      <trkpt lat="42.291901" lon="-4.114709">
        <ele>795.608</ele>
        <time>2021-07-23T07:14:22Z</time>
      </trkpt>
      <trkpt lat="42.291884" lon="-4.114122">
        <ele>795.162</ele>
        <time>2021-07-23T07:14:33Z</time>
      </trkpt>
      <trkpt lat="42.291859" lon="-4.113517">
        <ele>795.194</ele>
        <time>2021-07-23T07:14:44Z</time>
      </trkpt>
      <trkpt lat="42.291832" lon="-4.112891">
        <ele>796.131</ele>
        <time>2021-07-23T07:14:54Z</time>
      </trkpt>
      <trkpt lat="42.291813" lon="-4.112217">
        <ele>796.511</ele>
        <time>2021-07-23T07:15:05Z</time>
      </trkpt>
      <trkpt lat="42.291791" lon="-4.111627">
        <ele>797.515</ele>
        <time>2021-07-23T07:15:15Z</time>
      </trkpt>
      <trkpt lat="42.291772" lon="-4.111073">
        <ele>797.553</ele>
        <time>2021-07-23T07:15:25Z</time>
      </trkpt>
      <trkpt lat="42.291756" lon="-4.110388">
        <ele>798.580</ele>
        <time>2021-07-23T07:15:38Z</time>
      </trkpt>
      <trkpt lat="42.291740" lon="-4.109923">
        <ele>799.498</ele>
        <time>2021-07-23T07:15:47Z</time>
      </trkpt>
      <trkpt lat="42.291714" lon="-4.109412">
        <ele>798.958</ele>
        <time>2021-07-23T07:15:57Z</time>
      </trkpt>
      <trkpt lat="42.291702" lon="-4.108867">
        <ele>799.452</ele>
        <time>2021-07-23T07:16:08Z</time>
      </trkpt>
      <trkpt lat="42.291689" lon="-4.108347">
        <ele>799.917</ele>
        <time>2021-07-23T07:16:18Z</time>
      </trkpt>
      <trkpt lat="42.291674" lon="-4.107797">
        <ele>801.408</ele>
        <time>2021-07-23T07:16:29Z</time>
      </trkpt>
      <trkpt lat="42.291659" lon="-4.107176">
        <ele>802.382</ele>
        <time>2021-07-23T07:16:41Z</time>
      </trkpt>
      <trkpt lat="42.291619" lon="-4.106707">
        <ele>802.894</ele>
        <time>2021-07-23T07:16:50Z</time>
      </trkpt>
      <trkpt lat="42.291604" lon="-4.106185">
        <ele>803.331</ele>
        <time>2021-07-23T07:17:00Z</time>
      </trkpt>
      <trkpt lat="42.291585" lon="-4.105617">
        <ele>803.881</ele>
        <time>2021-07-23T07:17:11Z</time>
      </trkpt>
      <trkpt lat="42.291576" lon="-4.105168">
        <ele>803.825</ele>
        <time>2021-07-23T07:17:20Z</time>
      </trkpt>
      <trkpt lat="42.291555" lon="-4.104585">
        <ele>804.763</ele>
        <time>2021-07-23T07:17:32Z</time>
      </trkpt>
      <trkpt lat="42.291523" lon="-4.103948">
        <ele>805.780</ele>
        <time>2021-07-23T07:17:44Z</time>
      </trkpt>
      <trkpt lat="42.291488" lon="-4.103208">
        <ele>806.258</ele>
        <time>2021-07-23T07:17:58Z</time>
      </trkpt>
      <trkpt lat="42.291512" lon="-4.102627">
        <ele>806.273</ele>
        <time>2021-07-23T07:18:09Z</time>
      </trkpt>
      <trkpt lat="42.291599" lon="-4.102062">
        <ele>806.285</ele>
        <time>2021-07-23T07:18:20Z</time>
      </trkpt>
      <trkpt lat="42.291735" lon="-4.101575">
        <ele>806.613</ele>
        <time>2021-07-23T07:18:30Z</time>
      </trkpt>
      <trkpt lat="42.291933" lon="-4.101114">
        <ele>807.108</ele>
        <time>2021-07-23T07:18:40Z</time>
      </trkpt>
      <trkpt lat="42.292116" lon="-4.100647">
        <ele>807.674</ele>
        <time>2021-07-23T07:18:50Z</time>
      </trkpt>
      <trkpt lat="42.292291" lon="-4.100230">
        <ele>808.136</ele>
        <time>2021-07-23T07:19:00Z</time>
      </trkpt>
      <trkpt lat="42.292447" lon="-4.099812">
        <ele>808.133</ele>
        <time>2021-07-23T07:19:11Z</time>
      </trkpt>
      <trkpt lat="42.292581" lon="-4.099434">
        <ele>808.693</ele>
        <time>2021-07-23T07:19:22Z</time>
      </trkpt>
      <trkpt lat="42.292700" lon="-4.099114">
        <ele>809.027</ele>
        <time>2021-07-23T07:19:31Z</time>
      </trkpt>
      <trkpt lat="42.292842" lon="-4.098821">
        <ele>808.625</ele>
        <time>2021-07-23T07:19:40Z</time>
      </trkpt>
      <trkpt lat="42.293017" lon="-4.098655">
        <ele>809.062</ele>
        <time>2021-07-23T07:19:47Z</time>
      </trkpt>
      <trkpt lat="42.293234" lon="-4.098444">
        <ele>810.090</ele>
        <time>2021-07-23T07:19:55Z</time>
      </trkpt>
      <trkpt lat="42.293474" lon="-4.098141">
        <ele>811.039</ele>
        <time>2021-07-23T07:20:06Z</time>
      </trkpt>
      <trkpt lat="42.293518" lon="-4.098103">
        <ele>811.901</ele>
        <time>2021-07-23T07:20:09Z</time>
      </trkpt>
      <trkpt lat="42.293528" lon="-4.098113">
        <ele>811.921</ele>
        <time>2021-07-23T07:20:10Z</time>
      </trkpt>
      <trkpt lat="42.293529" lon="-4.098125">
        <ele>811.908</ele>
        <time>2021-07-23T07:20:11Z</time>
      </trkpt>
      <trkpt lat="42.293523" lon="-4.098136">
        <ele>811.920</ele>
        <time>2021-07-23T07:20:12Z</time>
      </trkpt>
      <trkpt lat="42.293516" lon="-4.098145">
        <ele>811.422</ele>
        <time>2021-07-23T07:20:13Z</time>
      </trkpt>
      <trkpt lat="42.293507" lon="-4.098158">
        <ele>811.489</ele>
        <time>2021-07-23T07:20:14Z</time>
      </trkpt>
      <trkpt lat="42.293498" lon="-4.098170">
        <ele>811.469</ele>
        <time>2021-07-23T07:20:15Z</time>
      </trkpt>
      <trkpt lat="42.293489" lon="-4.098182">
        <ele>811.463</ele>
        <time>2021-07-23T07:20:16Z</time>
      </trkpt>
      <trkpt lat="42.293368" lon="-4.098334">
        <ele>811.021</ele>
        <time>2021-07-23T07:20:26Z</time>
      </trkpt>
      <trkpt lat="42.293248" lon="-4.098464">
        <ele>811.018</ele>
        <time>2021-07-23T07:20:36Z</time>
      </trkpt>
      <trkpt lat="42.293242" lon="-4.098467">
        <ele>811.996</ele>
        <time>2021-07-23T07:20:47Z</time>
      </trkpt>
      <trkpt lat="42.293152" lon="-4.098544">
        <ele>811.466</ele>
        <time>2021-07-23T07:20:53Z</time>
      </trkpt>
      <trkpt lat="42.292960" lon="-4.098708">
        <ele>811.929</ele>
        <time>2021-07-23T07:21:04Z</time>
      </trkpt>
      <trkpt lat="42.292851" lon="-4.098776">
        <ele>811.921</ele>
        <time>2021-07-23T07:21:13Z</time>
      </trkpt>
      <trkpt lat="42.292826" lon="-4.098792">
        <ele>811.408</ele>
        <time>2021-07-23T07:21:23Z</time>
      </trkpt>
      <trkpt lat="42.292779" lon="-4.098824">
        <ele>811.473</ele>
        <time>2021-07-23T07:21:29Z</time>
      </trkpt>
      <trkpt lat="42.292782" lon="-4.098823">
        <ele>811.475</ele>
        <time>2021-07-23T07:21:37Z</time>
      </trkpt>
      <trkpt lat="42.292773" lon="-4.098841">
        <ele>812.492</ele>
        <time>2021-07-23T07:21:50Z</time>
      </trkpt>
      <trkpt lat="42.292743" lon="-4.098829">
        <ele>811.952</ele>
        <time>2021-07-23T07:22:12Z</time>
      </trkpt>
      <trkpt lat="42.292755" lon="-4.098835">
        <ele>810.096</ele>
        <time>2021-07-23T07:22:27Z</time>
      </trkpt>
      <trkpt lat="42.292790" lon="-4.098804">
        <ele>810.064</ele>
        <time>2021-07-23T07:22:51Z</time>
      </trkpt>
      <trkpt lat="42.292777" lon="-4.098791">
        <ele>810.021</ele>
        <time>2021-07-23T07:23:08Z</time>
      </trkpt>
      <trkpt lat="42.292781" lon="-4.098781">
        <ele>811.989</ele>
        <time>2021-07-23T07:23:25Z</time>
      </trkpt>
      <trkpt lat="42.292825" lon="-4.098757">
        <ele>810.057</ele>
        <time>2021-07-23T07:23:50Z</time>
      </trkpt>
      <trkpt lat="42.292828" lon="-4.098817">
        <ele>812.900</ele>
        <time>2021-07-23T07:24:10Z</time>
      </trkpt>
      <trkpt lat="42.292806" lon="-4.098839">
        <ele>812.920</ele>
        <time>2021-07-23T07:24:24Z</time>
      </trkpt>
      <trkpt lat="42.292800" lon="-4.098831">
        <ele>812.408</ele>
        <time>2021-07-23T07:24:48Z</time>
      </trkpt>
      <trkpt lat="42.292803" lon="-4.098796">
        <ele>810.592</ele>
        <time>2021-07-23T07:25:11Z</time>
      </trkpt>
      <trkpt lat="42.292786" lon="-4.098821">
        <ele>810.554</ele>
        <time>2021-07-23T07:25:26Z</time>
      </trkpt>
      <trkpt lat="42.292775" lon="-4.098816">
        <ele>811.451</ele>
        <time>2021-07-23T07:25:48Z</time>
      </trkpt>
      <trkpt lat="42.292792" lon="-4.098806">
        <ele>809.081</ele>
        <time>2021-07-23T07:26:03Z</time>
      </trkpt>
      <trkpt lat="42.292798" lon="-4.098806">
        <ele>807.625</ele>
        <time>2021-07-23T07:26:14Z</time>
      </trkpt>
      <trkpt lat="42.292808" lon="-4.098822">
        <ele>806.623</ele>
        <time>2021-07-23T07:26:28Z</time>
      </trkpt>
      <trkpt lat="42.292793" lon="-4.098798">
        <ele>806.210</ele>
        <time>2021-07-23T07:26:35Z</time>
      </trkpt>
      <trkpt lat="42.292833" lon="-4.098786">
        <ele>808.138</ele>
        <time>2021-07-23T07:26:42Z</time>
      </trkpt>
      <trkpt lat="42.292884" lon="-4.098753">
        <ele>809.531</ele>
        <time>2021-07-23T07:26:50Z</time>
      </trkpt>
      <trkpt lat="42.292888" lon="-4.098749">
        <ele>808.661</ele>
        <time>2021-07-23T07:26:56Z</time>
      </trkpt>
      <trkpt lat="42.292890" lon="-4.098762">
        <ele>810.507</ele>
        <time>2021-07-23T07:27:11Z</time>
      </trkpt>
      <trkpt lat="42.292903" lon="-4.098737">
        <ele>810.508</ele>
        <time>2021-07-23T07:27:19Z</time>
      </trkpt>
      <trkpt lat="42.292927" lon="-4.098721">
        <ele>810.510</ele>
        <time>2021-07-23T07:27:22Z</time>
      </trkpt>
      <trkpt lat="42.292941" lon="-4.098716">
        <ele>810.542</ele>
        <time>2021-07-23T07:27:23Z</time>
      </trkpt>
      <trkpt lat="42.292957" lon="-4.098707">
        <ele>810.599</ele>
        <time>2021-07-23T07:27:24Z</time>
      </trkpt>
      <trkpt lat="42.293093" lon="-4.098595">
        <ele>811.019</ele>
        <time>2021-07-23T07:27:31Z</time>
      </trkpt>
      <trkpt lat="42.293279" lon="-4.098396">
        <ele>811.023</ele>
        <time>2021-07-23T07:27:39Z</time>
      </trkpt>
      <trkpt lat="42.293546" lon="-4.098058">
        <ele>811.931</ele>
        <time>2021-07-23T07:27:50Z</time>
      </trkpt>
      <trkpt lat="42.293851" lon="-4.097674">
        <ele>813.468</ele>
        <time>2021-07-23T07:28:02Z</time>
      </trkpt>
      <trkpt lat="42.294084" lon="-4.097371">
        <ele>812.966</ele>
        <time>2021-07-23T07:28:11Z</time>
      </trkpt>
      <trkpt lat="42.294397" lon="-4.096963">
        <ele>813.876</ele>
        <time>2021-07-23T07:28:23Z</time>
      </trkpt>
      <trkpt lat="42.294694" lon="-4.096573">
        <ele>813.490</ele>
        <time>2021-07-23T07:28:34Z</time>
      </trkpt>
      <trkpt lat="42.294978" lon="-4.096187">
        <ele>813.419</ele>
        <time>2021-07-23T07:28:44Z</time>
      </trkpt>
      <trkpt lat="42.295374" lon="-4.095778">
        <ele>812.408</ele>
        <time>2021-07-23T07:28:56Z</time>
      </trkpt>
      <trkpt lat="42.295713" lon="-4.095500">
        <ele>811.974</ele>
        <time>2021-07-23T07:29:05Z</time>
      </trkpt>
      <trkpt lat="42.295994" lon="-4.095274">
        <ele>812.486</ele>
        <time>2021-07-23T07:29:13Z</time>
      </trkpt>
      <trkpt lat="42.296336" lon="-4.094989">
        <ele>812.453</ele>
        <time>2021-07-23T07:29:22Z</time>
      </trkpt>
      <trkpt lat="42.296674" lon="-4.094711">
        <ele>812.993</ele>
        <time>2021-07-23T07:29:31Z</time>
      </trkpt>
      <trkpt lat="42.297086" lon="-4.094378">
        <ele>813.437</ele>
        <time>2021-07-23T07:29:42Z</time>
      </trkpt>
      <trkpt lat="42.297445" lon="-4.094085">
        <ele>814.365</ele>
        <time>2021-07-23T07:29:52Z</time>
      </trkpt>
      <trkpt lat="42.297880" lon="-4.093726">
        <ele>813.832</ele>
        <time>2021-07-23T07:30:04Z</time>
      </trkpt>
      <trkpt lat="42.298209" lon="-4.093453">
        <ele>814.830</ele>
        <time>2021-07-23T07:30:13Z</time>
      </trkpt>
      <trkpt lat="42.298607" lon="-4.093130">
        <ele>815.359</ele>
        <time>2021-07-23T07:30:24Z</time>
      </trkpt>
      <trkpt lat="42.298931" lon="-4.092889">
        <ele>815.303</ele>
        <time>2021-07-23T07:30:33Z</time>
      </trkpt>
      <trkpt lat="42.299246" lon="-4.092688">
        <ele>815.323</ele>
        <time>2021-07-23T07:30:41Z</time>
      </trkpt>
      <trkpt lat="42.299325" lon="-4.092642">
        <ele>815.308</ele>
        <time>2021-07-23T07:30:43Z</time>
      </trkpt>
      <trkpt lat="42.299749" lon="-4.092360">
        <ele>815.372</ele>
        <time>2021-07-23T07:30:54Z</time>
      </trkpt>
      <trkpt lat="42.300269" lon="-4.092034">
        <ele>815.834</ele>
        <time>2021-07-23T07:31:07Z</time>
      </trkpt>
      <trkpt lat="42.300617" lon="-4.091812">
        <ele>815.381</ele>
        <time>2021-07-23T07:31:16Z</time>
      </trkpt>
      <trkpt lat="42.300944" lon="-4.091597">
        <ele>816.321</ele>
        <time>2021-07-23T07:31:25Z</time>
      </trkpt>
      <trkpt lat="42.301318" lon="-4.091361">
        <ele>817.285</ele>
        <time>2021-07-23T07:31:35Z</time>
      </trkpt>
      <trkpt lat="42.301585" lon="-4.091098">
        <ele>816.713</ele>
        <time>2021-07-23T07:31:43Z</time>
      </trkpt>
      <trkpt lat="42.301664" lon="-4.090974">
        <ele>816.730</ele>
        <time>2021-07-23T07:31:46Z</time>
      </trkpt>
      <trkpt lat="42.301705" lon="-4.090880">
        <ele>817.268</ele>
        <time>2021-07-23T07:31:48Z</time>
      </trkpt>
      <trkpt lat="42.301915" lon="-4.090329">
        <ele>817.734</ele>
        <time>2021-07-23T07:31:59Z</time>
      </trkpt>
      <trkpt lat="42.302127" lon="-4.089779">
        <ele>817.755</ele>
        <time>2021-07-23T07:32:10Z</time>
      </trkpt>
      <trkpt lat="42.302351" lon="-4.089210">
        <ele>817.710</ele>
        <time>2021-07-23T07:32:21Z</time>
      </trkpt>
      <trkpt lat="42.302551" lon="-4.088678">
        <ele>817.708</ele>
        <time>2021-07-23T07:32:31Z</time>
      </trkpt>
      <trkpt lat="42.302795" lon="-4.088073">
        <ele>818.240</ele>
        <time>2021-07-23T07:32:43Z</time>
      </trkpt>
      <trkpt lat="42.302988" lon="-4.087522">
        <ele>818.232</ele>
        <time>2021-07-23T07:32:54Z</time>
      </trkpt>
      <trkpt lat="42.303175" lon="-4.087033">
        <ele>818.239</ele>
        <time>2021-07-23T07:33:04Z</time>
      </trkpt>
      <trkpt lat="42.303378" lon="-4.086512">
        <ele>819.119</ele>
        <time>2021-07-23T07:33:14Z</time>
      </trkpt>
      <trkpt lat="42.303466" lon="-4.086110">
        <ele>820.183</ele>
        <time>2021-07-23T07:33:22Z</time>
      </trkpt>
      <trkpt lat="42.303462" lon="-4.085686">
        <ele>822.051</ele>
        <time>2021-07-23T07:33:30Z</time>
      </trkpt>
      <trkpt lat="42.303464" lon="-4.085386">
        <ele>823.078</ele>
        <time>2021-07-23T07:33:36Z</time>
      </trkpt>
      <trkpt lat="42.303524" lon="-4.085049">
        <ele>823.996</ele>
        <time>2021-07-23T07:33:43Z</time>
      </trkpt>
      <trkpt lat="42.303731" lon="-4.084779">
        <ele>823.583</ele>
        <time>2021-07-23T07:33:50Z</time>
      </trkpt>
      <trkpt lat="42.304040" lon="-4.084452">
        <ele>823.925</ele>
        <time>2021-07-23T07:33:59Z</time>
      </trkpt>
      <trkpt lat="42.304396" lon="-4.084068">
        <ele>823.917</ele>
        <time>2021-07-23T07:34:10Z</time>
      </trkpt>
      <trkpt lat="42.304725" lon="-4.083728">
        <ele>823.508</ele>
        <time>2021-07-23T07:34:20Z</time>
      </trkpt>
      <trkpt lat="42.305051" lon="-4.083380">
        <ele>823.015</ele>
        <time>2021-07-23T07:34:30Z</time>
      </trkpt>
      <trkpt lat="42.305120" lon="-4.083315">
        <ele>823.077</ele>
        <time>2021-07-23T07:34:32Z</time>
      </trkpt>
      <trkpt lat="42.305424" lon="-4.082907">
        <ele>821.574</ele>
        <time>2021-07-23T07:34:42Z</time>
      </trkpt>
      <trkpt lat="42.305714" lon="-4.082418">
        <ele>822.054</ele>
        <time>2021-07-23T07:34:53Z</time>
      </trkpt>
      <trkpt lat="42.305950" lon="-4.082017">
        <ele>822.558</ele>
        <time>2021-07-23T07:35:02Z</time>
      </trkpt>
      <trkpt lat="42.306182" lon="-4.081621">
        <ele>823.096</ele>
        <time>2021-07-23T07:35:11Z</time>
      </trkpt>
      <trkpt lat="42.306358" lon="-4.081317">
        <ele>822.513</ele>
        <time>2021-07-23T07:35:18Z</time>
      </trkpt>
      <trkpt lat="42.306384" lon="-4.081273">
        <ele>822.551</ele>
        <time>2021-07-23T07:35:19Z</time>
      </trkpt>
      <trkpt lat="42.306410" lon="-4.081230">
        <ele>822.531</ele>
        <time>2021-07-23T07:35:20Z</time>
      </trkpt>
      <trkpt lat="42.306688" lon="-4.080732">
        <ele>822.561</ele>
        <time>2021-07-23T07:35:31Z</time>
      </trkpt>
      <trkpt lat="42.306791" lon="-4.080484">
        <ele>823.007</ele>
        <time>2021-07-23T07:35:36Z</time>
      </trkpt>
      <trkpt lat="42.306807" lon="-4.080437">
        <ele>823.008</ele>
        <time>2021-07-23T07:35:37Z</time>
      </trkpt>
      <trkpt lat="42.306920" lon="-4.080050">
        <ele>823.950</ele>
        <time>2021-07-23T07:35:45Z</time>
      </trkpt>
      <trkpt lat="42.307064" lon="-4.079560">
        <ele>824.432</ele>
        <time>2021-07-23T07:35:54Z</time>
      </trkpt>
      <trkpt lat="42.307193" lon="-4.079139">
        <ele>825.949</ele>
        <time>2021-07-23T07:36:02Z</time>
      </trkpt>
      <trkpt lat="42.307333" lon="-4.078585">
        <ele>826.349</ele>
        <time>2021-07-23T07:36:12Z</time>
      </trkpt>
      <trkpt lat="42.307462" lon="-4.077912">
        <ele>827.843</ele>
        <time>2021-07-23T07:36:24Z</time>
      </trkpt>
      <trkpt lat="42.307549" lon="-4.077420">
        <ele>829.261</ele>
        <time>2021-07-23T07:36:33Z</time>
      </trkpt>
      <trkpt lat="42.307643" lon="-4.076878">
        <ele>829.798</ele>
        <time>2021-07-23T07:36:43Z</time>
      </trkpt>
      <trkpt lat="42.307762" lon="-4.076210">
        <ele>830.766</ele>
        <time>2021-07-23T07:36:55Z</time>
      </trkpt>
      <trkpt lat="42.307886" lon="-4.075515">
        <ele>831.681</ele>
        <time>2021-07-23T07:37:07Z</time>
      </trkpt>
      <trkpt lat="42.307960" lon="-4.075067">
        <ele>833.161</ele>
        <time>2021-07-23T07:37:15Z</time>
      </trkpt>
      <trkpt lat="42.308053" lon="-4.074579">
        <ele>834.017</ele>
        <time>2021-07-23T07:37:24Z</time>
      </trkpt>
      <trkpt lat="42.308134" lon="-4.074133">
        <ele>834.008</ele>
        <time>2021-07-23T07:37:32Z</time>
      </trkpt>
      <trkpt lat="42.308240" lon="-4.073512">
        <ele>835.085</ele>
        <time>2021-07-23T07:37:43Z</time>
      </trkpt>
      <trkpt lat="42.308323" lon="-4.073006">
        <ele>834.537</ele>
        <time>2021-07-23T07:37:53Z</time>
      </trkpt>
      <trkpt lat="42.308397" lon="-4.072658">
        <ele>834.074</ele>
        <time>2021-07-23T07:38:02Z</time>
      </trkpt>
      <trkpt lat="42.308438" lon="-4.072504">
        <ele>833.634</ele>
        <time>2021-07-23T07:38:05Z</time>
      </trkpt>
      <trkpt lat="42.308446" lon="-4.072445">
        <ele>833.618</ele>
        <time>2021-07-23T07:38:06Z</time>
      </trkpt>
      <trkpt lat="42.308451" lon="-4.072386">
        <ele>833.696</ele>
        <time>2021-07-23T07:38:07Z</time>
      </trkpt>
      <trkpt lat="42.308456" lon="-4.072328">
        <ele>834.053</ele>
        <time>2021-07-23T07:38:08Z</time>
      </trkpt>
      <trkpt lat="42.308466" lon="-4.072270">
        <ele>834.081</ele>
        <time>2021-07-23T07:38:09Z</time>
      </trkpt>
      <trkpt lat="42.308476" lon="-4.072213">
        <ele>834.072</ele>
        <time>2021-07-23T07:38:10Z</time>
      </trkpt>
      <trkpt lat="42.308580" lon="-4.071640">
        <ele>834.513</ele>
        <time>2021-07-23T07:38:20Z</time>
      </trkpt>
      <trkpt lat="42.308679" lon="-4.071075">
        <ele>835.014</ele>
        <time>2021-07-23T07:38:30Z</time>
      </trkpt>
      <trkpt lat="42.308760" lon="-4.070634">
        <ele>835.008</ele>
        <time>2021-07-23T07:38:38Z</time>
      </trkpt>
      <trkpt lat="42.308858" lon="-4.070063">
        <ele>835.584</ele>
        <time>2021-07-23T07:38:48Z</time>
      </trkpt>
      <trkpt lat="42.308869" lon="-4.070007">
        <ele>835.586</ele>
        <time>2021-07-23T07:38:49Z</time>
      </trkpt>
      <trkpt lat="42.308959" lon="-4.069515">
        <ele>836.043</ele>
        <time>2021-07-23T07:38:58Z</time>
      </trkpt>
      <trkpt lat="42.309020" lon="-4.069219">
        <ele>836.933</ele>
        <time>2021-07-23T07:39:04Z</time>
      </trkpt>
      <trkpt lat="42.309110" lon="-4.068717">
        <ele>838.417</ele>
        <time>2021-07-23T07:39:13Z</time>
      </trkpt>
      <trkpt lat="42.309179" lon="-4.068237">
        <ele>838.415</ele>
        <time>2021-07-23T07:39:21Z</time>
      </trkpt>
      <trkpt lat="42.309199" lon="-4.067499">
        <ele>839.352</ele>
        <time>2021-07-23T07:39:33Z</time>
      </trkpt>
      <trkpt lat="42.309187" lon="-4.066878">
        <ele>838.470</ele>
        <time>2021-07-23T07:39:43Z</time>
      </trkpt>
      <trkpt lat="42.309188" lon="-4.066603">
        <ele>837.928</ele>
        <time>2021-07-23T07:39:48Z</time>
      </trkpt>
      <trkpt lat="42.309195" lon="-4.066118">
        <ele>838.489</ele>
        <time>2021-07-23T07:39:57Z</time>
      </trkpt>
      <trkpt lat="42.309185" lon="-4.065567">
        <ele>839.317</ele>
        <time>2021-07-23T07:40:07Z</time>
      </trkpt>
      <trkpt lat="42.309189" lon="-4.065345">
        <ele>839.308</ele>
        <time>2021-07-23T07:40:13Z</time>
      </trkpt>
      <trkpt lat="42.309192" lon="-4.065355">
        <ele>840.869</ele>
        <time>2021-07-23T07:40:32Z</time>
      </trkpt>
      <trkpt lat="42.309164" lon="-4.065340">
        <ele>843.211</ele>
        <time>2021-07-23T07:40:50Z</time>
      </trkpt>
      <trkpt lat="42.309184" lon="-4.065336">
        <ele>841.758</ele>
        <time>2021-07-23T07:40:58Z</time>
      </trkpt>
      <trkpt lat="42.309187" lon="-4.065358">
        <ele>841.718</ele>
        <time>2021-07-23T07:40:59Z</time>
      </trkpt>
      <trkpt lat="42.309187" lon="-4.065386">
        <ele>841.252</ele>
        <time>2021-07-23T07:41:00Z</time>
      </trkpt>
      <trkpt lat="42.309186" lon="-4.065414">
        <ele>840.850</ele>
        <time>2021-07-23T07:41:01Z</time>
      </trkpt>
      <trkpt lat="42.309185" lon="-4.065449">
        <ele>840.837</ele>
        <time>2021-07-23T07:41:02Z</time>
      </trkpt>
      <trkpt lat="42.309181" lon="-4.065755">
        <ele>839.825</ele>
        <time>2021-07-23T07:41:11Z</time>
      </trkpt>
      <trkpt lat="42.309188" lon="-4.065936">
        <ele>839.326</ele>
        <time>2021-07-23T07:41:18Z</time>
      </trkpt>
      <trkpt lat="42.309190" lon="-4.065927">
        <ele>839.847</ele>
        <time>2021-07-23T07:41:28Z</time>
      </trkpt>
      <trkpt lat="42.309196" lon="-4.065945">
        <ele>839.311</ele>
        <time>2021-07-23T07:41:34Z</time>
      </trkpt>
      <trkpt lat="42.309210" lon="-4.065932">
        <ele>839.308</ele>
        <time>2021-07-23T07:41:36Z</time>
      </trkpt>
      <trkpt lat="42.309210" lon="-4.065915">
        <ele>839.349</ele>
        <time>2021-07-23T07:41:37Z</time>
      </trkpt>
      <trkpt lat="42.309206" lon="-4.065902">
        <ele>839.361</ele>
        <time>2021-07-23T07:41:38Z</time>
      </trkpt>
      <trkpt lat="42.309188" lon="-4.065760">
        <ele>840.368</ele>
        <time>2021-07-23T07:41:47Z</time>
      </trkpt>
      <trkpt lat="42.309185" lon="-4.065655">
        <ele>840.838</ele>
        <time>2021-07-23T07:41:53Z</time>
      </trkpt>
      <trkpt lat="42.309186" lon="-4.065636">
        <ele>840.392</ele>
        <time>2021-07-23T07:41:54Z</time>
      </trkpt>
      <trkpt lat="42.309186" lon="-4.065616">
        <ele>840.360</ele>
        <time>2021-07-23T07:41:55Z</time>
      </trkpt>
      <trkpt lat="42.309184" lon="-4.065403">
        <ele>840.317</ele>
        <time>2021-07-23T07:42:04Z</time>
      </trkpt>
      <trkpt lat="42.309193" lon="-4.065197">
        <ele>840.865</ele>
        <time>2021-07-23T07:42:13Z</time>
      </trkpt>
      <trkpt lat="42.309184" lon="-4.064991">
        <ele>840.847</ele>
        <time>2021-07-23T07:42:20Z</time>
      </trkpt>
      <trkpt lat="42.309181" lon="-4.064696">
        <ele>841.229</ele>
        <time>2021-07-23T07:42:29Z</time>
      </trkpt>
      <trkpt lat="42.309225" lon="-4.064304">
        <ele>843.221</ele>
        <time>2021-07-23T07:42:38Z</time>
      </trkpt>
      <trkpt lat="42.309342" lon="-4.063877">
        <ele>841.708</ele>
        <time>2021-07-23T07:42:47Z</time>
      </trkpt>
      <trkpt lat="42.309512" lon="-4.063345">
        <ele>840.841</ele>
        <time>2021-07-23T07:42:58Z</time>
      </trkpt>
      <trkpt lat="42.309684" lon="-4.062846">
        <ele>840.393</ele>
        <time>2021-07-23T07:43:08Z</time>
      </trkpt>
      <trkpt lat="42.309831" lon="-4.062403">
        <ele>839.890</ele>
        <time>2021-07-23T07:43:17Z</time>
      </trkpt>
      <trkpt lat="42.309961" lon="-4.061982">
        <ele>840.390</ele>
        <time>2021-07-23T07:43:25Z</time>
      </trkpt>
      <trkpt lat="42.310115" lon="-4.061514">
        <ele>840.334</ele>
        <time>2021-07-23T07:43:34Z</time>
      </trkpt>
      <trkpt lat="42.310278" lon="-4.061033">
        <ele>839.862</ele>
        <time>2021-07-23T07:43:43Z</time>
      </trkpt>
      <trkpt lat="42.310462" lon="-4.060461">
        <ele>839.849</ele>
        <time>2021-07-23T07:43:54Z</time>
      </trkpt>
      <trkpt lat="42.310625" lon="-4.059936">
        <ele>840.367</ele>
        <time>2021-07-23T07:44:04Z</time>
      </trkpt>
      <trkpt lat="42.310785" lon="-4.059465">
        <ele>840.883</ele>
        <time>2021-07-23T07:44:13Z</time>
      </trkpt>
      <trkpt lat="42.310953" lon="-4.058961">
        <ele>841.225</ele>
        <time>2021-07-23T07:44:23Z</time>
      </trkpt>
      <trkpt lat="42.311095" lon="-4.058478">
        <ele>842.217</ele>
        <time>2021-07-23T07:44:33Z</time>
      </trkpt>
      <trkpt lat="42.311286" lon="-4.057905">
        <ele>843.608</ele>
        <time>2021-07-23T07:44:45Z</time>
      </trkpt>
      <trkpt lat="42.311431" lon="-4.057459">
        <ele>844.685</ele>
        <time>2021-07-23T07:44:55Z</time>
      </trkpt>
      <trkpt lat="42.311582" lon="-4.057013">
        <ele>845.697</ele>
        <time>2021-07-23T07:45:05Z</time>
      </trkpt>
      <trkpt lat="42.311720" lon="-4.056565">
        <ele>846.524</ele>
        <time>2021-07-23T07:45:15Z</time>
      </trkpt>
      <trkpt lat="42.311859" lon="-4.056162">
        <ele>847.054</ele>
        <time>2021-07-23T07:45:24Z</time>
      </trkpt>
      <trkpt lat="42.311993" lon="-4.055718">
        <ele>847.588</ele>
        <time>2021-07-23T07:45:33Z</time>
      </trkpt>
      <trkpt lat="42.312113" lon="-4.055335">
        <ele>848.076</ele>
        <time>2021-07-23T07:45:41Z</time>
      </trkpt>
      <trkpt lat="42.312187" lon="-4.055083">
        <ele>848.093</ele>
        <time>2021-07-23T07:45:46Z</time>
      </trkpt>
      <trkpt lat="42.312356" lon="-4.054588">
        <ele>847.511</ele>
        <time>2021-07-23T07:45:56Z</time>
      </trkpt>
      <trkpt lat="42.312483" lon="-4.054187">
        <ele>848.081</ele>
        <time>2021-07-23T07:46:04Z</time>
      </trkpt>
      <trkpt lat="42.312619" lon="-4.053774">
        <ele>848.561</ele>
        <time>2021-07-23T07:46:12Z</time>
      </trkpt>
      <trkpt lat="42.312654" lon="-4.053667">
        <ele>848.517</ele>
        <time>2021-07-23T07:46:14Z</time>
      </trkpt>
      <trkpt lat="42.312798" lon="-4.053199">
        <ele>849.408</ele>
        <time>2021-07-23T07:46:23Z</time>
      </trkpt>
      <trkpt lat="42.312934" lon="-4.052804">
        <ele>849.465</ele>
        <time>2021-07-23T07:46:31Z</time>
      </trkpt>
      <trkpt lat="42.313044" lon="-4.052474">
        <ele>850.987</ele>
        <time>2021-07-23T07:46:38Z</time>
      </trkpt>
      <trkpt lat="42.313142" lon="-4.052152">
        <ele>851.854</ele>
        <time>2021-07-23T07:46:45Z</time>
      </trkpt>
      <trkpt lat="42.313268" lon="-4.051755">
        <ele>852.354</ele>
        <time>2021-07-23T07:46:54Z</time>
      </trkpt>
      <trkpt lat="42.313419" lon="-4.051281">
        <ele>852.828</ele>
        <time>2021-07-23T07:47:06Z</time>
      </trkpt>
      <trkpt lat="42.313565" lon="-4.050867">
        <ele>853.786</ele>
        <time>2021-07-23T07:47:16Z</time>
      </trkpt>
      <trkpt lat="42.313688" lon="-4.050505">
        <ele>855.263</ele>
        <time>2021-07-23T07:47:25Z</time>
      </trkpt>
      <trkpt lat="42.313773" lon="-4.050211">
        <ele>855.761</ele>
        <time>2021-07-23T07:47:32Z</time>
      </trkpt>
      <trkpt lat="42.313886" lon="-4.049852">
        <ele>857.111</ele>
        <time>2021-07-23T07:47:41Z</time>
      </trkpt>
      <trkpt lat="42.313996" lon="-4.049426">
        <ele>857.621</ele>
        <time>2021-07-23T07:47:51Z</time>
      </trkpt>
      <trkpt lat="42.313966" lon="-4.049230">
        <ele>857.603</ele>
        <time>2021-07-23T07:47:57Z</time>
      </trkpt>
      <trkpt lat="42.313964" lon="-4.049234">
        <ele>857.608</ele>
        <time>2021-07-23T07:48:03Z</time>
      </trkpt>
      <trkpt lat="42.313942" lon="-4.049181">
        <ele>858.138</ele>
        <time>2021-07-23T07:48:11Z</time>
      </trkpt>
      <trkpt lat="42.313921" lon="-4.049100">
        <ele>858.180</ele>
        <time>2021-07-23T07:48:20Z</time>
      </trkpt>
      <trkpt lat="42.313924" lon="-4.049100">
        <ele>860.587</ele>
        <time>2021-07-23T07:48:37Z</time>
      </trkpt>
      <trkpt lat="42.313916" lon="-4.049080">
        <ele>860.597</ele>
        <time>2021-07-23T07:48:52Z</time>
      </trkpt>
      <trkpt lat="42.313904" lon="-4.049055">
        <ele>860.031</ele>
        <time>2021-07-23T07:48:58Z</time>
      </trkpt>
      <trkpt lat="42.313860" lon="-4.048869">
        <ele>861.939</ele>
        <time>2021-07-23T07:49:07Z</time>
      </trkpt>
      <trkpt lat="42.313782" lon="-4.048588">
        <ele>863.466</ele>
        <time>2021-07-23T07:49:18Z</time>
      </trkpt>
      <trkpt lat="42.313741" lon="-4.048433">
        <ele>863.884</ele>
        <time>2021-07-23T07:49:25Z</time>
      </trkpt>
      <trkpt lat="42.313675" lon="-4.048257">
        <ele>864.872</ele>
        <time>2021-07-23T07:49:32Z</time>
      </trkpt>
      <trkpt lat="42.313662" lon="-4.047915">
        <ele>865.313</ele>
        <time>2021-07-23T07:49:41Z</time>
      </trkpt>
      <trkpt lat="42.313631" lon="-4.047496">
        <ele>865.814</ele>
        <time>2021-07-23T07:49:51Z</time>
      </trkpt>
      <trkpt lat="42.313567" lon="-4.047160">
        <ele>865.808</ele>
        <time>2021-07-23T07:50:00Z</time>
      </trkpt>
      <trkpt lat="42.313384" lon="-4.046820">
        <ele>865.374</ele>
        <time>2021-07-23T07:50:10Z</time>
      </trkpt>
      <trkpt lat="42.313193" lon="-4.046511">
        <ele>864.826</ele>
        <time>2021-07-23T07:50:20Z</time>
      </trkpt>
      <trkpt lat="42.313023" lon="-4.046226">
        <ele>865.333</ele>
        <time>2021-07-23T07:50:30Z</time>
      </trkpt>
      <trkpt lat="42.312928" lon="-4.046023">
        <ele>865.813</ele>
        <time>2021-07-23T07:50:38Z</time>
      </trkpt>
      <trkpt lat="42.312838" lon="-4.045815">
        <ele>867.267</ele>
        <time>2021-07-23T07:50:45Z</time>
      </trkpt>
      <trkpt lat="42.312750" lon="-4.045536">
        <ele>868.285</ele>
        <time>2021-07-23T07:50:53Z</time>
      </trkpt>
      <trkpt lat="42.312683" lon="-4.045238">
        <ele>870.172</ele>
        <time>2021-07-23T07:51:03Z</time>
      </trkpt>
      <trkpt lat="42.312663" lon="-4.044932">
        <ele>872.510</ele>
        <time>2021-07-23T07:51:13Z</time>
      </trkpt>
      <trkpt lat="42.312715" lon="-4.044693">
        <ele>874.417</ele>
        <time>2021-07-23T07:51:22Z</time>
      </trkpt>
      <trkpt lat="42.312717" lon="-4.044533">
        <ele>875.987</ele>
        <time>2021-07-23T07:51:28Z</time>
      </trkpt>
      <trkpt lat="42.312666" lon="-4.044500">
        <ele>876.815</ele>
        <time>2021-07-23T07:51:33Z</time>
      </trkpt>
      <trkpt lat="42.312630" lon="-4.044500">
        <ele>876.808</ele>
        <time>2021-07-23T07:51:40Z</time>
      </trkpt>
      <trkpt lat="42.312608" lon="-4.044509">
        <ele>876.838</ele>
        <time>2021-07-23T07:51:54Z</time>
      </trkpt>
      <trkpt lat="42.312604" lon="-4.044502">
        <ele>875.420</ele>
        <time>2021-07-23T07:52:02Z</time>
      </trkpt>
      <trkpt lat="42.312643" lon="-4.044453">
        <ele>874.927</ele>
        <time>2021-07-23T07:52:08Z</time>
      </trkpt>
      <trkpt lat="42.312693" lon="-4.044400">
        <ele>874.917</ele>
        <time>2021-07-23T07:52:13Z</time>
      </trkpt>
      <trkpt lat="42.312696" lon="-4.044293">
        <ele>876.391</ele>
        <time>2021-07-23T07:52:18Z</time>
      </trkpt>
      <trkpt lat="42.312711" lon="-4.044082">
        <ele>878.329</ele>
        <time>2021-07-23T07:52:27Z</time>
      </trkpt>
      <trkpt lat="42.312720" lon="-4.043910">
        <ele>879.216</ele>
        <time>2021-07-23T07:52:35Z</time>
      </trkpt>
      <trkpt lat="42.312720" lon="-4.043688">
        <ele>880.784</ele>
        <time>2021-07-23T07:52:44Z</time>
      </trkpt>
      <trkpt lat="42.312726" lon="-4.043476">
        <ele>883.124</ele>
        <time>2021-07-23T07:52:53Z</time>
      </trkpt>
      <trkpt lat="42.312730" lon="-4.043294">
        <ele>885.504</ele>
        <time>2021-07-23T07:53:01Z</time>
      </trkpt>
      <trkpt lat="42.312740" lon="-4.043143">
        <ele>886.914</ele>
        <time>2021-07-23T07:53:09Z</time>
      </trkpt>
      <trkpt lat="42.312730" lon="-4.043002">
        <ele>888.408</ele>
        <time>2021-07-23T07:53:17Z</time>
      </trkpt>
      <trkpt lat="42.312716" lon="-4.042878">
        <ele>889.319</ele>
        <time>2021-07-23T07:53:25Z</time>
      </trkpt>
      <trkpt lat="42.312712" lon="-4.042823">
        <ele>890.341</ele>
        <time>2021-07-23T07:53:29Z</time>
      </trkpt>
      <trkpt lat="42.312721" lon="-4.042640">
        <ele>892.268</ele>
        <time>2021-07-23T07:53:40Z</time>
      </trkpt>
      <trkpt lat="42.312722" lon="-4.042577">
        <ele>892.228</ele>
        <time>2021-07-23T07:53:44Z</time>
      </trkpt>
      <trkpt lat="42.312719" lon="-4.042462">
        <ele>892.772</ele>
        <time>2021-07-23T07:53:51Z</time>
      </trkpt>
      <trkpt lat="42.312674" lon="-4.042408">
        <ele>892.740</ele>
        <time>2021-07-23T07:53:59Z</time>
      </trkpt>
      <trkpt lat="42.312619" lon="-4.042382">
        <ele>893.237</ele>
        <time>2021-07-23T07:54:06Z</time>
      </trkpt>
      <trkpt lat="42.312587" lon="-4.042383">
        <ele>893.685</ele>
        <time>2021-07-23T07:54:14Z</time>
      </trkpt>
      <trkpt lat="42.312592" lon="-4.042393">
        <ele>892.222</ele>
        <time>2021-07-23T07:54:22Z</time>
      </trkpt>
      <trkpt lat="42.312587" lon="-4.042389">
        <ele>890.862</ele>
        <time>2021-07-23T07:54:31Z</time>
      </trkpt>
      <trkpt lat="42.312574" lon="-4.042383">
        <ele>889.808</ele>
        <time>2021-07-23T07:54:44Z</time>
      </trkpt>
      <trkpt lat="42.312581" lon="-4.042380">
        <ele>888.808</ele>
        <time>2021-07-23T07:55:02Z</time>
      </trkpt>
      <trkpt lat="42.312582" lon="-4.042384">
        <ele>887.429</ele>
        <time>2021-07-23T07:55:13Z</time>
      </trkpt>
      <trkpt lat="42.312588" lon="-4.042380">
        <ele>887.461</ele>
        <time>2021-07-23T07:55:29Z</time>
      </trkpt>
      <trkpt lat="42.312585" lon="-4.042379">
        <ele>888.458</ele>
        <time>2021-07-23T07:55:42Z</time>
      </trkpt>
      <trkpt lat="42.312596" lon="-4.042374">
        <ele>889.368</ele>
        <time>2021-07-23T07:55:59Z</time>
      </trkpt>
      <trkpt lat="42.312599" lon="-4.042381">
        <ele>889.352</ele>
        <time>2021-07-23T07:56:11Z</time>
      </trkpt>
      <trkpt lat="42.312572" lon="-4.042380">
        <ele>889.330</ele>
        <time>2021-07-23T07:56:18Z</time>
      </trkpt>
      <trkpt lat="42.312497" lon="-4.042373">
        <ele>890.327</ele>
        <time>2021-07-23T07:56:27Z</time>
      </trkpt>
      <trkpt lat="42.312486" lon="-4.042357">
        <ele>890.825</ele>
        <time>2021-07-23T07:56:29Z</time>
      </trkpt>
      <trkpt lat="42.312461" lon="-4.042226">
        <ele>892.768</ele>
        <time>2021-07-23T07:56:40Z</time>
      </trkpt>
      <trkpt lat="42.312478" lon="-4.042095">
        <ele>894.642</ele>
        <time>2021-07-23T07:56:49Z</time>
      </trkpt>
      <trkpt lat="42.312507" lon="-4.041970">
        <ele>895.626</ele>
        <time>2021-07-23T07:56:59Z</time>
      </trkpt>
      <trkpt lat="42.312522" lon="-4.041931">
        <ele>895.608</ele>
        <time>2021-07-23T07:57:03Z</time>
      </trkpt>
      <trkpt lat="42.312558" lon="-4.041813">
        <ele>896.593</ele>
        <time>2021-07-23T07:57:13Z</time>
      </trkpt>
      <trkpt lat="42.312586" lon="-4.041683">
        <ele>898.495</ele>
        <time>2021-07-23T07:57:24Z</time>
      </trkpt>
      <trkpt lat="42.312601" lon="-4.041534">
        <ele>900.482</ele>
        <time>2021-07-23T07:57:34Z</time>
      </trkpt>
      <trkpt lat="42.312606" lon="-4.041492">
        <ele>901.332</ele>
        <time>2021-07-23T07:57:42Z</time>
      </trkpt>
      <trkpt lat="42.312609" lon="-4.041444">
        <ele>901.866</ele>
        <time>2021-07-23T07:57:52Z</time>
      </trkpt>
      <trkpt lat="42.312616" lon="-4.041315">
        <ele>902.894</ele>
        <time>2021-07-23T07:58:02Z</time>
      </trkpt>
      <trkpt lat="42.312606" lon="-4.041215">
        <ele>903.721</ele>
        <time>2021-07-23T07:58:10Z</time>
      </trkpt>
      <trkpt lat="42.312587" lon="-4.041043">
        <ele>905.719</ele>
        <time>2021-07-23T07:58:23Z</time>
      </trkpt>
      <trkpt lat="42.312546" lon="-4.040881">
        <ele>907.684</ele>
        <time>2021-07-23T07:58:37Z</time>
      </trkpt>
      <trkpt lat="42.312497" lon="-4.040711">
        <ele>909.507</ele>
        <time>2021-07-23T07:58:51Z</time>
      </trkpt>
      <trkpt lat="42.312489" lon="-4.040708">
        <ele>910.017</ele>
        <time>2021-07-23T07:58:57Z</time>
      </trkpt>
      <trkpt lat="42.312495" lon="-4.040705">
        <ele>909.008</ele>
        <time>2021-07-23T07:59:20Z</time>
      </trkpt>
      <trkpt lat="42.312487" lon="-4.040697">
        <ele>908.515</ele>
        <time>2021-07-23T07:59:32Z</time>
      </trkpt>
      <trkpt lat="42.312492" lon="-4.040699">
        <ele>908.527</ele>
        <time>2021-07-23T07:59:46Z</time>
      </trkpt>
      <trkpt lat="42.312472" lon="-4.040625">
        <ele>909.554</ele>
        <time>2021-07-23T07:59:55Z</time>
      </trkpt>
      <trkpt lat="42.312453" lon="-4.040495">
        <ele>910.914</ele>
        <time>2021-07-23T08:00:05Z</time>
      </trkpt>
      <trkpt lat="42.312431" lon="-4.040305">
        <ele>912.948</ele>
        <time>2021-07-23T08:00:19Z</time>
      </trkpt>
      <trkpt lat="42.312438" lon="-4.040140">
        <ele>914.376</ele>
        <time>2021-07-23T08:00:30Z</time>
      </trkpt>
      <trkpt lat="42.312440" lon="-4.040008">
        <ele>915.383</ele>
        <time>2021-07-23T08:00:40Z</time>
      </trkpt>
      <trkpt lat="42.312456" lon="-4.039838">
        <ele>916.761</ele>
        <time>2021-07-23T08:00:52Z</time>
      </trkpt>
      <trkpt lat="42.312453" lon="-4.039818">
        <ele>916.751</ele>
        <time>2021-07-23T08:00:59Z</time>
      </trkpt>
      <trkpt lat="42.312464" lon="-4.039738">
        <ele>917.201</ele>
        <time>2021-07-23T08:01:05Z</time>
      </trkpt>
      <trkpt lat="42.312512" lon="-4.039520">
        <ele>918.611</ele>
        <time>2021-07-23T08:01:16Z</time>
      </trkpt>
      <trkpt lat="42.312562" lon="-4.039336">
        <ele>919.608</ele>
        <time>2021-07-23T08:01:25Z</time>
      </trkpt>
      <trkpt lat="42.312587" lon="-4.039095">
        <ele>921.092</ele>
        <time>2021-07-23T08:01:36Z</time>
      </trkpt>
      <trkpt lat="42.312599" lon="-4.038891">
        <ele>922.044</ele>
        <time>2021-07-23T08:01:45Z</time>
      </trkpt>
      <trkpt lat="42.312613" lon="-4.038665">
        <ele>922.541</ele>
        <time>2021-07-23T08:01:55Z</time>
      </trkpt>
      <trkpt lat="42.312663" lon="-4.038368">
        <ele>922.591</ele>
        <time>2021-07-23T08:02:06Z</time>
      </trkpt>
      <trkpt lat="42.312787" lon="-4.038131">
        <ele>922.515</ele>
        <time>2021-07-23T08:02:14Z</time>
      </trkpt>
      <trkpt lat="42.312860" lon="-4.037772">
        <ele>923.033</ele>
        <time>2021-07-23T08:02:23Z</time>
      </trkpt>
      <trkpt lat="42.312913" lon="-4.037387">
        <ele>922.530</ele>
        <time>2021-07-23T08:02:32Z</time>
      </trkpt>
      <trkpt lat="42.313021" lon="-4.036836">
        <ele>923.028</ele>
        <time>2021-07-23T08:02:44Z</time>
      </trkpt>
      <trkpt lat="42.313100" lon="-4.036413">
        <ele>923.451</ele>
        <time>2021-07-23T08:02:53Z</time>
      </trkpt>
      <trkpt lat="42.313190" lon="-4.035892">
        <ele>923.401</ele>
        <time>2021-07-23T08:03:04Z</time>
      </trkpt>
      <trkpt lat="42.313278" lon="-4.035443">
        <ele>924.411</ele>
        <time>2021-07-23T08:03:14Z</time>
      </trkpt>
      <trkpt lat="42.313356" lon="-4.035028">
        <ele>924.408</ele>
        <time>2021-07-23T08:03:23Z</time>
      </trkpt>
      <trkpt lat="42.313434" lon="-4.034564">
        <ele>924.982</ele>
        <time>2021-07-23T08:03:33Z</time>
      </trkpt>
      <trkpt lat="42.313567" lon="-4.034051">
        <ele>923.944</ele>
        <time>2021-07-23T08:03:45Z</time>
      </trkpt>
      <trkpt lat="42.313640" lon="-4.033594">
        <ele>923.031</ele>
        <time>2021-07-23T08:03:54Z</time>
      </trkpt>
      <trkpt lat="42.313691" lon="-4.033119">
        <ele>923.441</ele>
        <time>2021-07-23T08:04:03Z</time>
      </trkpt>
      <trkpt lat="42.313726" lon="-4.032639">
        <ele>923.475</ele>
        <time>2021-07-23T08:04:13Z</time>
      </trkpt>
      <trkpt lat="42.313815" lon="-4.032137">
        <ele>924.423</ele>
        <time>2021-07-23T08:04:23Z</time>
      </trkpt>
      <trkpt lat="42.313924" lon="-4.031686">
        <ele>924.490</ele>
        <time>2021-07-23T08:04:32Z</time>
      </trkpt>
      <trkpt lat="42.314052" lon="-4.031188">
        <ele>925.448</ele>
        <time>2021-07-23T08:04:43Z</time>
      </trkpt>
      <trkpt lat="42.314169" lon="-4.030718">
        <ele>925.464</ele>
        <time>2021-07-23T08:04:54Z</time>
      </trkpt>
      <trkpt lat="42.314172" lon="-4.030478">
        <ele>925.406</ele>
        <time>2021-07-23T08:05:01Z</time>
      </trkpt>
      <trkpt lat="42.314144" lon="-4.030264">
        <ele>923.916</ele>
        <time>2021-07-23T08:05:05Z</time>
      </trkpt>
      <trkpt lat="42.314145" lon="-4.030197">
        <ele>923.908</ele>
        <time>2021-07-23T08:05:06Z</time>
      </trkpt>
      <trkpt lat="42.314151" lon="-4.030126">
        <ele>923.453</ele>
        <time>2021-07-23T08:05:07Z</time>
      </trkpt>
      <trkpt lat="42.314162" lon="-4.030059">
        <ele>923.485</ele>
        <time>2021-07-23T08:05:08Z</time>
      </trkpt>
      <trkpt lat="42.314175" lon="-4.029996">
        <ele>923.492</ele>
        <time>2021-07-23T08:05:09Z</time>
      </trkpt>
      <trkpt lat="42.314192" lon="-4.029937">
        <ele>923.482</ele>
        <time>2021-07-23T08:05:10Z</time>
      </trkpt>
      <trkpt lat="42.314213" lon="-4.029888">
        <ele>923.466</ele>
        <time>2021-07-23T08:05:11Z</time>
      </trkpt>
      <trkpt lat="42.314239" lon="-4.029842">
        <ele>923.434</ele>
        <time>2021-07-23T08:05:12Z</time>
      </trkpt>
      <trkpt lat="42.314271" lon="-4.029804">
        <ele>923.461</ele>
        <time>2021-07-23T08:05:13Z</time>
      </trkpt>
      <trkpt lat="42.314304" lon="-4.029771">
        <ele>923.489</ele>
        <time>2021-07-23T08:05:14Z</time>
      </trkpt>
      <trkpt lat="42.314339" lon="-4.029741">
        <ele>923.469</ele>
        <time>2021-07-23T08:05:15Z</time>
      </trkpt>
      <trkpt lat="42.314375" lon="-4.029715">
        <ele>923.904</ele>
        <time>2021-07-23T08:05:16Z</time>
      </trkpt>
      <trkpt lat="42.314633" lon="-4.029456">
        <ele>924.924</ele>
        <time>2021-07-23T08:05:25Z</time>
      </trkpt>
      <trkpt lat="42.314778" lon="-4.029095">
        <ele>925.408</ele>
        <time>2021-07-23T08:05:34Z</time>
      </trkpt>
      <trkpt lat="42.314918" lon="-4.028707">
        <ele>925.453</ele>
        <time>2021-07-23T08:05:42Z</time>
      </trkpt>
      <trkpt lat="42.314938" lon="-4.028659">
        <ele>925.425</ele>
        <time>2021-07-23T08:05:43Z</time>
      </trkpt>
      <trkpt lat="42.314957" lon="-4.028607">
        <ele>925.472</ele>
        <time>2021-07-23T08:05:44Z</time>
      </trkpt>
      <trkpt lat="42.314973" lon="-4.028556">
        <ele>925.472</ele>
        <time>2021-07-23T08:05:45Z</time>
      </trkpt>
      <trkpt lat="42.314987" lon="-4.028503">
        <ele>925.436</ele>
        <time>2021-07-23T08:05:46Z</time>
      </trkpt>
      <trkpt lat="42.315004" lon="-4.028454">
        <ele>925.464</ele>
        <time>2021-07-23T08:05:47Z</time>
      </trkpt>
      <trkpt lat="42.315020" lon="-4.028408">
        <ele>925.471</ele>
        <time>2021-07-23T08:05:48Z</time>
      </trkpt>
      <trkpt lat="42.315168" lon="-4.027974">
        <ele>926.319</ele>
        <time>2021-07-23T08:05:57Z</time>
      </trkpt>
      <trkpt lat="42.315321" lon="-4.027567">
        <ele>925.815</ele>
        <time>2021-07-23T08:06:06Z</time>
      </trkpt>
      <trkpt lat="42.315503" lon="-4.027130">
        <ele>925.865</ele>
        <time>2021-07-23T08:06:16Z</time>
      </trkpt>
      <trkpt lat="42.315677" lon="-4.026737">
        <ele>926.311</ele>
        <time>2021-07-23T08:06:25Z</time>
      </trkpt>
      <trkpt lat="42.315887" lon="-4.026292">
        <ele>927.308</ele>
        <time>2021-07-23T08:06:35Z</time>
      </trkpt>
      <trkpt lat="42.316105" lon="-4.025846">
        <ele>927.848</ele>
        <time>2021-07-23T08:06:45Z</time>
      </trkpt>
      <trkpt lat="42.316264" lon="-4.025449">
        <ele>928.710</ele>
        <time>2021-07-23T08:06:54Z</time>
      </trkpt>
      <trkpt lat="42.316442" lon="-4.025049">
        <ele>928.757</ele>
        <time>2021-07-23T08:07:03Z</time>
      </trkpt>
      <trkpt lat="42.316627" lon="-4.024646">
        <ele>929.237</ele>
        <time>2021-07-23T08:07:14Z</time>
      </trkpt>
      <trkpt lat="42.316746" lon="-4.024368">
        <ele>929.791</ele>
        <time>2021-07-23T08:07:23Z</time>
      </trkpt>
      <trkpt lat="42.316871" lon="-4.024082">
        <ele>930.239</ele>
        <time>2021-07-23T08:07:32Z</time>
      </trkpt>
      <trkpt lat="42.317025" lon="-4.023731">
        <ele>929.726</ele>
        <time>2021-07-23T08:07:40Z</time>
      </trkpt>
      <trkpt lat="42.317070" lon="-4.023640">
        <ele>929.234</ele>
        <time>2021-07-23T08:07:42Z</time>
      </trkpt>
      <trkpt lat="42.317255" lon="-4.023221">
        <ele>929.211</ele>
        <time>2021-07-23T08:07:51Z</time>
      </trkpt>
      <trkpt lat="42.317429" lon="-4.022804">
        <ele>929.221</ele>
        <time>2021-07-23T08:08:00Z</time>
      </trkpt>
      <trkpt lat="42.317614" lon="-4.022345">
        <ele>929.203</ele>
        <time>2021-07-23T08:08:10Z</time>
      </trkpt>
      <trkpt lat="42.317789" lon="-4.021901">
        <ele>929.708</ele>
        <time>2021-07-23T08:08:20Z</time>
      </trkpt>
      <trkpt lat="42.317982" lon="-4.021414">
        <ele>930.228</ele>
        <time>2021-07-23T08:08:31Z</time>
      </trkpt>
      <trkpt lat="42.318190" lon="-4.020927">
        <ele>930.240</ele>
        <time>2021-07-23T08:08:41Z</time>
      </trkpt>
      <trkpt lat="42.318329" lon="-4.020536">
        <ele>930.667</ele>
        <time>2021-07-23T08:08:49Z</time>
      </trkpt>
      <trkpt lat="42.318483" lon="-4.020129">
        <ele>930.617</ele>
        <time>2021-07-23T08:08:57Z</time>
      </trkpt>
      <trkpt lat="42.318684" lon="-4.019569">
        <ele>930.621</ele>
        <time>2021-07-23T08:09:08Z</time>
      </trkpt>
      <trkpt lat="42.318882" lon="-4.019056">
        <ele>930.289</ele>
        <time>2021-07-23T08:09:18Z</time>
      </trkpt>
      <trkpt lat="42.319064" lon="-4.018558">
        <ele>930.276</ele>
        <time>2021-07-23T08:09:28Z</time>
      </trkpt>
      <trkpt lat="42.319219" lon="-4.018117">
        <ele>930.694</ele>
        <time>2021-07-23T08:09:37Z</time>
      </trkpt>
      <trkpt lat="42.319407" lon="-4.017621">
        <ele>929.711</ele>
        <time>2021-07-23T08:09:46Z</time>
      </trkpt>
      <trkpt lat="42.319688" lon="-4.016924">
        <ele>929.221</ele>
        <time>2021-07-23T08:09:58Z</time>
      </trkpt>
      <trkpt lat="42.319824" lon="-4.016478">
        <ele>929.203</ele>
        <time>2021-07-23T08:10:07Z</time>
      </trkpt>
      <trkpt lat="42.319952" lon="-4.016030">
        <ele>929.208</ele>
        <time>2021-07-23T08:10:17Z</time>
      </trkpt>
      <trkpt lat="42.320081" lon="-4.015574">
        <ele>929.248</ele>
        <time>2021-07-23T08:10:26Z</time>
      </trkpt>
      <trkpt lat="42.320164" lon="-4.015226">
        <ele>929.220</ele>
        <time>2021-07-23T08:10:34Z</time>
      </trkpt>
      <trkpt lat="42.320238" lon="-4.014866">
        <ele>929.227</ele>
        <time>2021-07-23T08:10:42Z</time>
      </trkpt>
      <trkpt lat="42.320309" lon="-4.014479">
        <ele>928.727</ele>
        <time>2021-07-23T08:10:50Z</time>
      </trkpt>
      <trkpt lat="42.320391" lon="-4.014018">
        <ele>929.261</ele>
        <time>2021-07-23T08:10:59Z</time>
      </trkpt>
      <trkpt lat="42.320491" lon="-4.013515">
        <ele>929.269</ele>
        <time>2021-07-23T08:11:10Z</time>
      </trkpt>
      <trkpt lat="42.320589" lon="-4.013017">
        <ele>928.746</ele>
        <time>2021-07-23T08:11:20Z</time>
      </trkpt>
      <trkpt lat="42.320680" lon="-4.012578">
        <ele>928.754</ele>
        <time>2021-07-23T08:11:29Z</time>
      </trkpt>
      <trkpt lat="42.320762" lon="-4.012172">
        <ele>928.726</ele>
        <time>2021-07-23T08:11:37Z</time>
      </trkpt>
      <trkpt lat="42.320883" lon="-4.011621">
        <ele>928.247</ele>
        <time>2021-07-23T08:11:48Z</time>
      </trkpt>
      <trkpt lat="42.321001" lon="-4.011219">
        <ele>928.211</ele>
        <time>2021-07-23T08:11:57Z</time>
      </trkpt>
      <trkpt lat="42.321061" lon="-4.010904">
        <ele>927.808</ele>
        <time>2021-07-23T08:12:05Z</time>
      </trkpt>
      <trkpt lat="42.321117" lon="-4.010624">
        <ele>927.839</ele>
        <time>2021-07-23T08:12:12Z</time>
      </trkpt>
      <trkpt lat="42.321220" lon="-4.010182">
        <ele>928.261</ele>
        <time>2021-07-23T08:12:22Z</time>
      </trkpt>
      <trkpt lat="42.321314" lon="-4.009751">
        <ele>928.268</ele>
        <time>2021-07-23T08:12:31Z</time>
      </trkpt>
      <trkpt lat="42.321453" lon="-4.009117">
        <ele>928.758</ele>
        <time>2021-07-23T08:12:44Z</time>
      </trkpt>
      <trkpt lat="42.321602" lon="-4.008624">
        <ele>928.792</ele>
        <time>2021-07-23T08:12:54Z</time>
      </trkpt>
      <trkpt lat="42.321749" lon="-4.008076">
        <ele>929.230</ele>
        <time>2021-07-23T08:13:05Z</time>
      </trkpt>
      <trkpt lat="42.321847" lon="-4.007698">
        <ele>929.237</ele>
        <time>2021-07-23T08:13:13Z</time>
      </trkpt>
      <trkpt lat="42.321952" lon="-4.007288">
        <ele>929.775</ele>
        <time>2021-07-23T08:13:22Z</time>
      </trkpt>
      <trkpt lat="42.321996" lon="-4.007120">
        <ele>929.263</ele>
        <time>2021-07-23T08:13:29Z</time>
      </trkpt>
      <trkpt lat="42.322003" lon="-4.007056">
        <ele>929.244</ele>
        <time>2021-07-23T08:13:34Z</time>
      </trkpt>
      <trkpt lat="42.322010" lon="-4.007036">
        <ele>929.218</ele>
        <time>2021-07-23T08:13:35Z</time>
      </trkpt>
      <trkpt lat="42.322016" lon="-4.007010">
        <ele>929.208</ele>
        <time>2021-07-23T08:13:36Z</time>
      </trkpt>
      <trkpt lat="42.322022" lon="-4.006975">
        <ele>929.293</ele>
        <time>2021-07-23T08:13:37Z</time>
      </trkpt>
      <trkpt lat="42.322028" lon="-4.006934">
        <ele>929.245</ele>
        <time>2021-07-23T08:13:38Z</time>
      </trkpt>
      <trkpt lat="42.322128" lon="-4.006531">
        <ele>929.762</ele>
        <time>2021-07-23T08:13:47Z</time>
      </trkpt>
      <trkpt lat="42.322243" lon="-4.006102">
        <ele>929.772</ele>
        <time>2021-07-23T08:13:57Z</time>
      </trkpt>
      <trkpt lat="42.322339" lon="-4.005713">
        <ele>930.286</ele>
        <time>2021-07-23T08:14:06Z</time>
      </trkpt>
      <trkpt lat="42.322428" lon="-4.005278">
        <ele>930.254</ele>
        <time>2021-07-23T08:14:16Z</time>
      </trkpt>
      <trkpt lat="42.322488" lon="-4.004856">
        <ele>930.271</ele>
        <time>2021-07-23T08:14:25Z</time>
      </trkpt>
      <trkpt lat="42.322563" lon="-4.004411">
        <ele>930.299</ele>
        <time>2021-07-23T08:14:35Z</time>
      </trkpt>
      <trkpt lat="42.322658" lon="-4.003972">
        <ele>929.786</ele>
        <time>2021-07-23T08:14:45Z</time>
      </trkpt>
      <trkpt lat="42.322749" lon="-4.003531">
        <ele>929.760</ele>
        <time>2021-07-23T08:14:55Z</time>
      </trkpt>
      <trkpt lat="42.322864" lon="-4.003026">
        <ele>930.226</ele>
        <time>2021-07-23T08:15:06Z</time>
      </trkpt>
      <trkpt lat="42.322948" lon="-4.002685">
        <ele>931.108</ele>
        <time>2021-07-23T08:15:14Z</time>
      </trkpt>
      <trkpt lat="42.323010" lon="-4.002378">
        <ele>932.125</ele>
        <time>2021-07-23T08:15:22Z</time>
      </trkpt>
      <trkpt lat="42.323003" lon="-4.002318">
        <ele>932.697</ele>
        <time>2021-07-23T08:15:27Z</time>
      </trkpt>
      <trkpt lat="42.323005" lon="-4.002330">
        <ele>932.684</ele>
        <time>2021-07-23T08:15:41Z</time>
      </trkpt>
      <trkpt lat="42.322997" lon="-4.002321">
        <ele>932.144</ele>
        <time>2021-07-23T08:15:48Z</time>
      </trkpt>
      <trkpt lat="42.323004" lon="-4.002311">
        <ele>932.168</ele>
        <time>2021-07-23T08:16:09Z</time>
      </trkpt>
      <trkpt lat="42.323001" lon="-4.002316">
        <ele>932.196</ele>
        <time>2021-07-23T08:16:21Z</time>
      </trkpt>
      <trkpt lat="42.322998" lon="-4.002313">
        <ele>932.673</ele>
        <time>2021-07-23T08:16:35Z</time>
      </trkpt>
      <trkpt lat="42.323008" lon="-4.002312">
        <ele>932.681</ele>
        <time>2021-07-23T08:16:47Z</time>
      </trkpt>
      <trkpt lat="42.323011" lon="-4.002297">
        <ele>932.157</ele>
        <time>2021-07-23T08:16:53Z</time>
      </trkpt>
      <trkpt lat="42.323015" lon="-4.002285">
        <ele>932.100</ele>
        <time>2021-07-23T08:16:57Z</time>
      </trkpt>
      <trkpt lat="42.323052" lon="-4.002125">
        <ele>931.620</ele>
        <time>2021-07-23T08:17:05Z</time>
      </trkpt>
      <trkpt lat="42.323077" lon="-4.001822">
        <ele>931.608</ele>
        <time>2021-07-23T08:17:15Z</time>
      </trkpt>
      <trkpt lat="42.323166" lon="-4.001459">
        <ele>931.692</ele>
        <time>2021-07-23T08:17:24Z</time>
      </trkpt>
      <trkpt lat="42.323249" lon="-4.001119">
        <ele>931.654</ele>
        <time>2021-07-23T08:17:32Z</time>
      </trkpt>
      <trkpt lat="42.323367" lon="-4.000621">
        <ele>932.111</ele>
        <time>2021-07-23T08:17:44Z</time>
      </trkpt>
      <trkpt lat="42.323475" lon="-4.000166">
        <ele>932.161</ele>
        <time>2021-07-23T08:17:55Z</time>
      </trkpt>
      <trkpt lat="42.323606" lon="-3.999750">
        <ele>931.625</ele>
        <time>2021-07-23T08:18:05Z</time>
      </trkpt>
      <trkpt lat="42.323741" lon="-3.999253">
        <ele>931.643</ele>
        <time>2021-07-23T08:18:17Z</time>
      </trkpt>
      <trkpt lat="42.323831" lon="-3.998824">
        <ele>931.130</ele>
        <time>2021-07-23T08:18:27Z</time>
      </trkpt>
      <trkpt lat="42.323952" lon="-3.998478">
        <ele>931.168</ele>
        <time>2021-07-23T08:18:36Z</time>
      </trkpt>
      <trkpt lat="42.324071" lon="-3.998151">
        <ele>930.292</ele>
        <time>2021-07-23T08:18:45Z</time>
      </trkpt>
      <trkpt lat="42.324158" lon="-3.997863">
        <ele>929.773</ele>
        <time>2021-07-23T08:18:53Z</time>
      </trkpt>
      <trkpt lat="42.324310" lon="-3.997508">
        <ele>929.220</ele>
        <time>2021-07-23T08:19:02Z</time>
      </trkpt>
      <trkpt lat="42.324485" lon="-3.997124">
        <ele>928.208</ele>
        <time>2021-07-23T08:19:11Z</time>
      </trkpt>
      <trkpt lat="42.324624" lon="-3.996734">
        <ele>928.266</ele>
        <time>2021-07-23T08:19:20Z</time>
      </trkpt>
      <trkpt lat="42.324753" lon="-3.996374">
        <ele>927.818</ele>
        <time>2021-07-23T08:19:29Z</time>
      </trkpt>
      <trkpt lat="42.324913" lon="-3.996109">
        <ele>927.385</ele>
        <time>2021-07-23T08:19:37Z</time>
      </trkpt>
      <trkpt lat="42.325090" lon="-3.995921">
        <ele>926.325</ele>
        <time>2021-07-23T08:19:46Z</time>
      </trkpt>
      <trkpt lat="42.325172" lon="-3.995787">
        <ele>925.849</ele>
        <time>2021-07-23T08:19:52Z</time>
      </trkpt>
      <trkpt lat="42.325233" lon="-3.995533">
        <ele>923.987</ele>
        <time>2021-07-23T08:20:00Z</time>
      </trkpt>
      <trkpt lat="42.325264" lon="-3.995411">
        <ele>923.434</ele>
        <time>2021-07-23T08:20:07Z</time>
      </trkpt>
      <trkpt lat="42.325307" lon="-3.995209">
        <ele>922.062</ele>
        <time>2021-07-23T08:20:17Z</time>
      </trkpt>
      <trkpt lat="42.325324" lon="-3.995014">
        <ele>921.046</ele>
        <time>2021-07-23T08:20:23Z</time>
      </trkpt>
      <trkpt lat="42.325361" lon="-3.994750">
        <ele>920.188</ele>
        <time>2021-07-23T08:20:33Z</time>
      </trkpt>
      <trkpt lat="42.325388" lon="-3.994524">
        <ele>919.616</ele>
        <time>2021-07-23T08:20:40Z</time>
      </trkpt>
      <trkpt lat="42.325406" lon="-3.994209">
        <ele>918.208</ele>
        <time>2021-07-23T08:20:50Z</time>
      </trkpt>
      <trkpt lat="42.325500" lon="-3.993978">
        <ele>916.291</ele>
        <time>2021-07-23T08:20:58Z</time>
      </trkpt>
      <trkpt lat="42.325642" lon="-3.993761">
        <ele>913.343</ele>
        <time>2021-07-23T08:21:09Z</time>
      </trkpt>
      <trkpt lat="42.325727" lon="-3.993655">
        <ele>911.930</ele>
        <time>2021-07-23T08:21:18Z</time>
      </trkpt>
      <trkpt lat="42.325822" lon="-3.993541">
        <ele>910.560</ele>
        <time>2021-07-23T08:21:26Z</time>
      </trkpt>
      <trkpt lat="42.325849" lon="-3.993498">
        <ele>910.594</ele>
        <time>2021-07-23T08:21:32Z</time>
      </trkpt>
      <trkpt lat="42.325865" lon="-3.993485">
        <ele>910.552</ele>
        <time>2021-07-23T08:21:45Z</time>
      </trkpt>
      <trkpt lat="42.325883" lon="-3.993452">
        <ele>910.569</ele>
        <time>2021-07-23T08:21:53Z</time>
      </trkpt>
      <trkpt lat="42.325968" lon="-3.993263">
        <ele>909.067</ele>
        <time>2021-07-23T08:22:00Z</time>
      </trkpt>
      <trkpt lat="42.326062" lon="-3.992866">
        <ele>906.159</ele>
        <time>2021-07-23T08:22:11Z</time>
      </trkpt>
      <trkpt lat="42.326111" lon="-3.992484">
        <ele>904.203</ele>
        <time>2021-07-23T08:22:19Z</time>
      </trkpt>
      <trkpt lat="42.326134" lon="-3.992018">
        <ele>902.323</ele>
        <time>2021-07-23T08:22:27Z</time>
      </trkpt>
      <trkpt lat="42.326133" lon="-3.991417">
        <ele>899.408</ele>
        <time>2021-07-23T08:22:38Z</time>
      </trkpt>
      <trkpt lat="42.326109" lon="-3.990720">
        <ele>898.422</ele>
        <time>2021-07-23T08:22:50Z</time>
      </trkpt>
      <trkpt lat="42.326082" lon="-3.990318">
        <ele>898.414</ele>
        <time>2021-07-23T08:22:59Z</time>
      </trkpt>
      <trkpt lat="42.326064" lon="-3.990119">
        <ele>897.011</ele>
        <time>2021-07-23T08:23:06Z</time>
      </trkpt>
      <trkpt lat="42.326018" lon="-3.989657">
        <ele>897.031</ele>
        <time>2021-07-23T08:23:16Z</time>
      </trkpt>
      <trkpt lat="42.326011" lon="-3.989275">
        <ele>896.515</ele>
        <time>2021-07-23T08:23:24Z</time>
      </trkpt>
      <trkpt lat="42.326013" lon="-3.988893">
        <ele>894.663</ele>
        <time>2021-07-23T08:23:31Z</time>
      </trkpt>
      <trkpt lat="42.326008" lon="-3.988673">
        <ele>893.640</ele>
        <time>2021-07-23T08:23:35Z</time>
      </trkpt>
      <trkpt lat="42.326006" lon="-3.988619">
        <ele>893.638</ele>
        <time>2021-07-23T08:23:36Z</time>
      </trkpt>
      <trkpt lat="42.325993" lon="-3.988131">
        <ele>893.272</ele>
        <time>2021-07-23T08:23:45Z</time>
      </trkpt>
      <trkpt lat="42.325931" lon="-3.987740">
        <ele>892.213</ele>
        <time>2021-07-23T08:23:54Z</time>
      </trkpt>
      <trkpt lat="42.325970" lon="-3.987491">
        <ele>893.214</ele>
        <time>2021-07-23T08:24:01Z</time>
      </trkpt>
      <trkpt lat="42.326105" lon="-3.987105">
        <ele>894.108</ele>
        <time>2021-07-23T08:24:13Z</time>
      </trkpt>
      <trkpt lat="42.326169" lon="-3.986823">
        <ele>895.194</ele>
        <time>2021-07-23T08:24:22Z</time>
      </trkpt>
      <trkpt lat="42.326191" lon="-3.986624">
        <ele>895.186</ele>
        <time>2021-07-23T08:24:30Z</time>
      </trkpt>
      <trkpt lat="42.326234" lon="-3.986405">
        <ele>896.063</ele>
        <time>2021-07-23T08:24:38Z</time>
      </trkpt>
      <trkpt lat="42.326287" lon="-3.986121">
        <ele>897.553</ele>
        <time>2021-07-23T08:24:49Z</time>
      </trkpt>
      <trkpt lat="42.326312" lon="-3.985939">
        <ele>898.047</ele>
        <time>2021-07-23T08:24:56Z</time>
      </trkpt>
      <trkpt lat="42.326318" lon="-3.985766">
        <ele>898.995</ele>
        <time>2021-07-23T08:25:04Z</time>
      </trkpt>
      <trkpt lat="42.326316" lon="-3.985745">
        <ele>899.462</ele>
        <time>2021-07-23T08:25:05Z</time>
      </trkpt>
      <trkpt lat="42.326319" lon="-3.985721">
        <ele>899.410</ele>
        <time>2021-07-23T08:25:06Z</time>
      </trkpt>
      <trkpt lat="42.326321" lon="-3.985696">
        <ele>899.423</ele>
        <time>2021-07-23T08:25:07Z</time>
      </trkpt>
      <trkpt lat="42.326379" lon="-3.985341">
        <ele>901.383</ele>
        <time>2021-07-23T08:25:20Z</time>
      </trkpt>
      <trkpt lat="42.326437" lon="-3.984990">
        <ele>902.811</ele>
        <time>2021-07-23T08:25:33Z</time>
      </trkpt>
      <trkpt lat="42.326510" lon="-3.984641">
        <ele>903.708</ele>
        <time>2021-07-23T08:25:46Z</time>
      </trkpt>
      <trkpt lat="42.326581" lon="-3.984318">
        <ele>905.729</ele>
        <time>2021-07-23T08:25:58Z</time>
      </trkpt>
      <trkpt lat="42.326639" lon="-3.984109">
        <ele>907.171</ele>
        <time>2021-07-23T08:26:07Z</time>
      </trkpt>
      <trkpt lat="42.326734" lon="-3.983888">
        <ele>907.638</ele>
        <time>2021-07-23T08:26:18Z</time>
      </trkpt>
      <trkpt lat="42.326851" lon="-3.983699">
        <ele>908.138</ele>
        <time>2021-07-23T08:26:28Z</time>
      </trkpt>
      <trkpt lat="42.326959" lon="-3.983533">
        <ele>909.582</ele>
        <time>2021-07-23T08:26:37Z</time>
      </trkpt>
      <trkpt lat="42.327085" lon="-3.983384">
        <ele>911.420</ele>
        <time>2021-07-23T08:26:46Z</time>
      </trkpt>
      <trkpt lat="42.327203" lon="-3.983264">
        <ele>913.337</ele>
        <time>2021-07-23T08:26:54Z</time>
      </trkpt>
      <trkpt lat="42.327329" lon="-3.983077">
        <ele>916.285</ele>
        <time>2021-07-23T08:27:05Z</time>
      </trkpt>
      <trkpt lat="42.327429" lon="-3.982896">
        <ele>918.256</ele>
        <time>2021-07-23T08:27:17Z</time>
      </trkpt>
      <trkpt lat="42.327529" lon="-3.982711">
        <ele>920.659</ele>
        <time>2021-07-23T08:27:29Z</time>
      </trkpt>
      <trkpt lat="42.327603" lon="-3.982553">
        <ele>922.014</ele>
        <time>2021-07-23T08:27:38Z</time>
      </trkpt>
      <trkpt lat="42.327701" lon="-3.982367">
        <ele>924.408</ele>
        <time>2021-07-23T08:27:50Z</time>
      </trkpt>
      <trkpt lat="42.327748" lon="-3.982259">
        <ele>924.932</ele>
        <time>2021-07-23T08:27:59Z</time>
      </trkpt>
      <trkpt lat="42.327797" lon="-3.982160">
        <ele>926.384</ele>
        <time>2021-07-23T08:28:07Z</time>
      </trkpt>
      <trkpt lat="42.327840" lon="-3.982035">
        <ele>927.881</ele>
        <time>2021-07-23T08:28:16Z</time>
      </trkpt>
      <trkpt lat="42.327868" lon="-3.981927">
        <ele>928.781</ele>
        <time>2021-07-23T08:28:23Z</time>
      </trkpt>
      <trkpt lat="42.327868" lon="-3.981794">
        <ele>930.265</ele>
        <time>2021-07-23T08:28:31Z</time>
      </trkpt>
      <trkpt lat="42.327847" lon="-3.981655">
        <ele>931.693</ele>
        <time>2021-07-23T08:28:39Z</time>
      </trkpt>
      <trkpt lat="42.327831" lon="-3.981495">
        <ele>932.140</ele>
        <time>2021-07-23T08:28:48Z</time>
      </trkpt>
      <trkpt lat="42.327833" lon="-3.981506">
        <ele>932.188</ele>
        <time>2021-07-23T08:29:04Z</time>
      </trkpt>
      <trkpt lat="42.327830" lon="-3.981507">
        <ele>932.144</ele>
        <time>2021-07-23T08:29:18Z</time>
      </trkpt>
      <trkpt lat="42.327846" lon="-3.981497">
        <ele>931.605</ele>
        <time>2021-07-23T08:29:30Z</time>
      </trkpt>
      <trkpt lat="42.327851" lon="-3.981488">
        <ele>932.115</ele>
        <time>2021-07-23T08:29:53Z</time>
      </trkpt>
      <trkpt lat="42.327850" lon="-3.981489">
        <ele>932.108</ele>
        <time>2021-07-23T08:30:17Z</time>
      </trkpt>
      <trkpt lat="42.327836" lon="-3.981491">
        <ele>932.681</ele>
        <time>2021-07-23T08:30:34Z</time>
      </trkpt>
      <trkpt lat="42.327831" lon="-3.981494">
        <ele>933.123</ele>
        <time>2021-07-23T08:30:50Z</time>
      </trkpt>
      <trkpt lat="42.327828" lon="-3.981496">
        <ele>933.120</ele>
        <time>2021-07-23T08:31:10Z</time>
      </trkpt>
      <trkpt lat="42.327840" lon="-3.981414">
        <ele>933.120</ele>
        <time>2021-07-23T08:31:16Z</time>
      </trkpt>
      <trkpt lat="42.327818" lon="-3.981188">
        <ele>934.544</ele>
        <time>2021-07-23T08:31:26Z</time>
      </trkpt>
      <trkpt lat="42.327803" lon="-3.980887">
        <ele>935.032</ele>
        <time>2021-07-23T08:31:37Z</time>
      </trkpt>
      <trkpt lat="42.327799" lon="-3.980593">
        <ele>934.549</ele>
        <time>2021-07-23T08:31:47Z</time>
      </trkpt>
      <trkpt lat="42.327809" lon="-3.980268">
        <ele>934.577</ele>
        <time>2021-07-23T08:31:57Z</time>
      </trkpt>
      <trkpt lat="42.327815" lon="-3.979985">
        <ele>934.073</ele>
        <time>2021-07-23T08:32:04Z</time>
      </trkpt>
      <trkpt lat="42.327796" lon="-3.979728">
        <ele>934.085</ele>
        <time>2021-07-23T08:32:10Z</time>
      </trkpt>
      <trkpt lat="42.327791" lon="-3.979407">
        <ele>934.013</ele>
        <time>2021-07-23T08:32:19Z</time>
      </trkpt>
      <trkpt lat="42.327784" lon="-3.979076">
        <ele>934.508</ele>
        <time>2021-07-23T08:32:28Z</time>
      </trkpt>
      <trkpt lat="42.327774" lon="-3.978718">
        <ele>935.544</ele>
        <time>2021-07-23T08:32:38Z</time>
      </trkpt>
      <trkpt lat="42.327776" lon="-3.978390">
        <ele>935.986</ele>
        <time>2021-07-23T08:32:47Z</time>
      </trkpt>
      <trkpt lat="42.327775" lon="-3.978048">
        <ele>936.993</ele>
        <time>2021-07-23T08:32:57Z</time>
      </trkpt>
      <trkpt lat="42.327773" lon="-3.977750">
        <ele>937.473</ele>
        <time>2021-07-23T08:33:06Z</time>
      </trkpt>
      <trkpt lat="42.327785" lon="-3.977526">
        <ele>936.997</ele>
        <time>2021-07-23T08:33:13Z</time>
      </trkpt>
      <trkpt lat="42.327782" lon="-3.977193">
        <ele>936.465</ele>
        <time>2021-07-23T08:33:22Z</time>
      </trkpt>
      <trkpt lat="42.327794" lon="-3.976858">
        <ele>935.972</ele>
        <time>2021-07-23T08:33:31Z</time>
      </trkpt>
      <trkpt lat="42.327754" lon="-3.976416">
        <ele>935.990</ele>
        <time>2021-07-23T08:33:41Z</time>
      </trkpt>
      <trkpt lat="42.327717" lon="-3.975972">
        <ele>935.925</ele>
        <time>2021-07-23T08:33:51Z</time>
      </trkpt>
      <trkpt lat="42.327685" lon="-3.975643">
        <ele>935.926</ele>
        <time>2021-07-23T08:33:59Z</time>
      </trkpt>
      <trkpt lat="42.327635" lon="-3.975239">
        <ele>935.508</ele>
        <time>2021-07-23T08:34:09Z</time>
      </trkpt>
      <trkpt lat="42.327569" lon="-3.974907">
        <ele>935.508</ele>
        <time>2021-07-23T08:34:18Z</time>
      </trkpt>
      <trkpt lat="42.327530" lon="-3.974594">
        <ele>935.579</ele>
        <time>2021-07-23T08:34:27Z</time>
      </trkpt>
      <trkpt lat="42.327486" lon="-3.974193">
        <ele>935.911</ele>
        <time>2021-07-23T08:34:37Z</time>
      </trkpt>
      <trkpt lat="42.327471" lon="-3.973790">
        <ele>936.478</ele>
        <time>2021-07-23T08:34:47Z</time>
      </trkpt>
      <trkpt lat="42.327455" lon="-3.973428">
        <ele>936.948</ele>
        <time>2021-07-23T08:34:56Z</time>
      </trkpt>
      <trkpt lat="42.327458" lon="-3.972970">
        <ele>936.432</ele>
        <time>2021-07-23T08:35:07Z</time>
      </trkpt>
      <trkpt lat="42.327464" lon="-3.972529">
        <ele>936.420</ele>
        <time>2021-07-23T08:35:17Z</time>
      </trkpt>
      <trkpt lat="42.327475" lon="-3.972107">
        <ele>936.987</ele>
        <time>2021-07-23T08:35:27Z</time>
      </trkpt>
      <trkpt lat="42.327496" lon="-3.971748">
        <ele>936.965</ele>
        <time>2021-07-23T08:35:36Z</time>
      </trkpt>
      <trkpt lat="42.327541" lon="-3.971286">
        <ele>937.457</ele>
        <time>2021-07-23T08:35:47Z</time>
      </trkpt>
      <trkpt lat="42.327597" lon="-3.970826">
        <ele>936.900</ele>
        <time>2021-07-23T08:35:57Z</time>
      </trkpt>
      <trkpt lat="42.327679" lon="-3.970412">
        <ele>936.420</ele>
        <time>2021-07-23T08:36:07Z</time>
      </trkpt>
      <trkpt lat="42.327778" lon="-3.970137">
        <ele>936.908</ele>
        <time>2021-07-23T08:36:14Z</time>
      </trkpt>
      <trkpt lat="42.327867" lon="-3.969683">
        <ele>936.412</ele>
        <time>2021-07-23T08:36:25Z</time>
      </trkpt>
      <trkpt lat="42.327918" lon="-3.969287">
        <ele>935.984</ele>
        <time>2021-07-23T08:36:34Z</time>
      </trkpt>
      <trkpt lat="42.327942" lon="-3.968877">
        <ele>936.471</ele>
        <time>2021-07-23T08:36:43Z</time>
      </trkpt>
      <trkpt lat="42.328000" lon="-3.968396">
        <ele>936.911</ele>
        <time>2021-07-23T08:36:54Z</time>
      </trkpt>
      <trkpt lat="42.328059" lon="-3.967939">
        <ele>936.985</ele>
        <time>2021-07-23T08:37:04Z</time>
      </trkpt>
      <trkpt lat="42.328169" lon="-3.967348">
        <ele>936.933</ele>
        <time>2021-07-23T08:37:17Z</time>
      </trkpt>
      <trkpt lat="42.328244" lon="-3.966997">
        <ele>937.460</ele>
        <time>2021-07-23T08:37:25Z</time>
      </trkpt>
      <trkpt lat="42.328379" lon="-3.966476">
        <ele>937.418</ele>
        <time>2021-07-23T08:37:37Z</time>
      </trkpt>
      <trkpt lat="42.328474" lon="-3.966080">
        <ele>937.477</ele>
        <time>2021-07-23T08:37:46Z</time>
      </trkpt>
      <trkpt lat="42.328533" lon="-3.965647">
        <ele>937.961</ele>
        <time>2021-07-23T08:37:56Z</time>
      </trkpt>
      <trkpt lat="42.328558" lon="-3.965088">
        <ele>937.427</ele>
        <time>2021-07-23T08:38:08Z</time>
      </trkpt>
      <trkpt lat="42.328585" lon="-3.964680">
        <ele>936.908</ele>
        <time>2021-07-23T08:38:17Z</time>
      </trkpt>
      <trkpt lat="42.328616" lon="-3.964333">
        <ele>936.944</ele>
        <time>2021-07-23T08:38:25Z</time>
      </trkpt>
      <trkpt lat="42.328665" lon="-3.963951">
        <ele>936.486</ele>
        <time>2021-07-23T08:38:35Z</time>
      </trkpt>
      <trkpt lat="42.328717" lon="-3.963675">
        <ele>935.953</ele>
        <time>2021-07-23T08:38:44Z</time>
      </trkpt>
      <trkpt lat="42.328655" lon="-3.963471">
        <ele>935.053</ele>
        <time>2021-07-23T08:38:52Z</time>
      </trkpt>
      <trkpt lat="42.328591" lon="-3.963293">
        <ele>934.087</ele>
        <time>2021-07-23T08:39:00Z</time>
      </trkpt>
      <trkpt lat="42.328560" lon="-3.963063">
        <ele>932.165</ele>
        <time>2021-07-23T08:39:10Z</time>
      </trkpt>
      <trkpt lat="42.328560" lon="-3.962930">
        <ele>930.672</ele>
        <time>2021-07-23T08:39:17Z</time>
      </trkpt>
      <trkpt lat="42.328569" lon="-3.962812">
        <ele>929.790</ele>
        <time>2021-07-23T08:39:24Z</time>
      </trkpt>
      <trkpt lat="42.328575" lon="-3.962592">
        <ele>927.311</ele>
        <time>2021-07-23T08:39:34Z</time>
      </trkpt>
      <trkpt lat="42.328579" lon="-3.962350">
        <ele>925.821</ele>
        <time>2021-07-23T08:39:42Z</time>
      </trkpt>
      <trkpt lat="42.328569" lon="-3.962181">
        <ele>923.903</ele>
        <time>2021-07-23T08:39:50Z</time>
      </trkpt>
      <trkpt lat="42.328569" lon="-3.962168">
        <ele>923.008</ele>
        <time>2021-07-23T08:39:56Z</time>
      </trkpt>
      <trkpt lat="42.328579" lon="-3.962164">
        <ele>920.158</ele>
        <time>2021-07-23T08:40:14Z</time>
      </trkpt>
      <trkpt lat="42.328577" lon="-3.962164">
        <ele>921.580</ele>
        <time>2021-07-23T08:40:28Z</time>
      </trkpt>
      <trkpt lat="42.328585" lon="-3.962165">
        <ele>921.547</ele>
        <time>2021-07-23T08:40:44Z</time>
      </trkpt>
      <trkpt lat="42.328586" lon="-3.962164">
        <ele>921.567</ele>
        <time>2021-07-23T08:40:58Z</time>
      </trkpt>
      <trkpt lat="42.328582" lon="-3.962167">
        <ele>920.651</ele>
        <time>2021-07-23T08:41:14Z</time>
      </trkpt>
      <trkpt lat="42.328577" lon="-3.962162">
        <ele>921.079</ele>
        <time>2021-07-23T08:41:31Z</time>
      </trkpt>
      <trkpt lat="42.328577" lon="-3.962163">
        <ele>920.126</ele>
        <time>2021-07-23T08:41:47Z</time>
      </trkpt>
      <trkpt lat="42.328567" lon="-3.962164">
        <ele>921.564</ele>
        <time>2021-07-23T08:42:02Z</time>
      </trkpt>
      <trkpt lat="42.328572" lon="-3.962162">
        <ele>920.186</ele>
        <time>2021-07-23T08:42:18Z</time>
      </trkpt>
      <trkpt lat="42.328575" lon="-3.962167">
        <ele>919.660</ele>
        <time>2021-07-23T08:42:39Z</time>
      </trkpt>
      <trkpt lat="42.328575" lon="-3.962175">
        <ele>919.126</ele>
        <time>2021-07-23T08:42:57Z</time>
      </trkpt>
      <trkpt lat="42.328573" lon="-3.962175">
        <ele>919.608</ele>
        <time>2021-07-23T08:43:18Z</time>
      </trkpt>
      <trkpt lat="42.328572" lon="-3.962180">
        <ele>920.135</ele>
        <time>2021-07-23T08:43:34Z</time>
      </trkpt>
      <trkpt lat="42.328576" lon="-3.962173">
        <ele>920.687</ele>
        <time>2021-07-23T08:43:54Z</time>
      </trkpt>
      <trkpt lat="42.328571" lon="-3.962172">
        <ele>920.154</ele>
        <time>2021-07-23T08:44:11Z</time>
      </trkpt>
      <trkpt lat="42.328573" lon="-3.962164">
        <ele>921.574</ele>
        <time>2021-07-23T08:44:27Z</time>
      </trkpt>
      <trkpt lat="42.328562" lon="-3.962143">
        <ele>922.028</ele>
        <time>2021-07-23T08:44:42Z</time>
      </trkpt>
      <trkpt lat="42.328566" lon="-3.962140">
        <ele>922.056</ele>
        <time>2021-07-23T08:44:54Z</time>
      </trkpt>
      <trkpt lat="42.328564" lon="-3.962140">
        <ele>921.533</ele>
        <time>2021-07-23T08:45:11Z</time>
      </trkpt>
      <trkpt lat="42.328565" lon="-3.962143">
        <ele>923.091</ele>
        <time>2021-07-23T08:45:27Z</time>
      </trkpt>
      <trkpt lat="42.328561" lon="-3.962148">
        <ele>922.543</ele>
        <time>2021-07-23T08:45:46Z</time>
      </trkpt>
      <trkpt lat="42.328554" lon="-3.962153">
        <ele>922.564</ele>
        <time>2021-07-23T08:46:03Z</time>
      </trkpt>
      <trkpt lat="42.328558" lon="-3.962147">
        <ele>922.510</ele>
        <time>2021-07-23T08:46:18Z</time>
      </trkpt>
      <trkpt lat="42.328561" lon="-3.962140">
        <ele>922.008</ele>
        <time>2021-07-23T08:46:35Z</time>
      </trkpt>
      <trkpt lat="42.328561" lon="-3.962140">
        <ele>921.541</ele>
        <time>2021-07-23T08:46:55Z</time>
      </trkpt>
      <trkpt lat="42.328560" lon="-3.962147">
        <ele>922.073</ele>
        <time>2021-07-23T08:47:08Z</time>
      </trkpt>
      <trkpt lat="42.328560" lon="-3.962155">
        <ele>921.040</ele>
        <time>2021-07-23T08:47:28Z</time>
      </trkpt>
      <trkpt lat="42.328563" lon="-3.962154">
        <ele>921.530</ele>
        <time>2021-07-23T08:47:47Z</time>
      </trkpt>
      <trkpt lat="42.328559" lon="-3.962158">
        <ele>921.014</ele>
        <time>2021-07-23T08:48:06Z</time>
      </trkpt>
      <trkpt lat="42.328559" lon="-3.962158">
        <ele>921.562</ele>
        <time>2021-07-23T08:48:14Z</time>
      </trkpt>
      <trkpt lat="42.328555" lon="-3.962164">
        <ele>922.029</ele>
        <time>2021-07-23T08:48:29Z</time>
      </trkpt>
      <trkpt lat="42.328563" lon="-3.962158">
        <ele>921.037</ele>
        <time>2021-07-23T08:48:45Z</time>
      </trkpt>
      <trkpt lat="42.328558" lon="-3.962164">
        <ele>919.124</ele>
        <time>2021-07-23T08:49:01Z</time>
      </trkpt>
      <trkpt lat="42.328557" lon="-3.962162">
        <ele>919.104</ele>
        <time>2021-07-23T08:49:16Z</time>
      </trkpt>
      <trkpt lat="42.328556" lon="-3.962163">
        <ele>919.614</ele>
        <time>2021-07-23T08:49:33Z</time>
      </trkpt>
      <trkpt lat="42.328558" lon="-3.962170">
        <ele>918.608</ele>
        <time>2021-07-23T08:49:46Z</time>
      </trkpt>
      <trkpt lat="42.328557" lon="-3.962177">
        <ele>918.649</ele>
        <time>2021-07-23T08:50:02Z</time>
      </trkpt>
      <trkpt lat="42.328558" lon="-3.962163">
        <ele>920.171</ele>
        <time>2021-07-23T08:50:20Z</time>
      </trkpt>
      <trkpt lat="42.328562" lon="-3.962133">
        <ele>920.648</ele>
        <time>2021-07-23T08:50:31Z</time>
      </trkpt>
      <trkpt lat="42.328550" lon="-3.962011">
        <ele>920.648</ele>
        <time>2021-07-23T08:50:38Z</time>
      </trkpt>
      <trkpt lat="42.328519" lon="-3.961784">
        <ele>919.192</ele>
        <time>2021-07-23T08:50:45Z</time>
      </trkpt>
      <trkpt lat="42.328468" lon="-3.961494">
        <ele>918.240</ele>
        <time>2021-07-23T08:50:53Z</time>
      </trkpt>
      <trkpt lat="42.328439" lon="-3.961189">
        <ele>917.287</ele>
        <time>2021-07-23T08:51:01Z</time>
      </trkpt>
      <trkpt lat="42.328414" lon="-3.960913">
        <ele>916.735</ele>
        <time>2021-07-23T08:51:09Z</time>
      </trkpt>
      <trkpt lat="42.328386" lon="-3.960661">
        <ele>915.746</ele>
        <time>2021-07-23T08:51:18Z</time>
      </trkpt>
      <trkpt lat="42.328336" lon="-3.960430">
        <ele>913.388</ele>
        <time>2021-07-23T08:51:25Z</time>
      </trkpt>
      <trkpt lat="42.328303" lon="-3.960099">
        <ele>910.016</ele>
        <time>2021-07-23T08:51:33Z</time>
      </trkpt>
      <trkpt lat="42.328266" lon="-3.959744">
        <ele>908.108</ele>
        <time>2021-07-23T08:51:42Z</time>
      </trkpt>
      <trkpt lat="42.328221" lon="-3.959421">
        <ele>906.141</ele>
        <time>2021-07-23T08:51:52Z</time>
      </trkpt>
      <trkpt lat="42.328225" lon="-3.959227">
        <ele>905.213</ele>
        <time>2021-07-23T08:52:00Z</time>
      </trkpt>
      <trkpt lat="42.328224" lon="-3.959211">
        <ele>904.770</ele>
        <time>2021-07-23T08:52:09Z</time>
      </trkpt>
      <trkpt lat="42.328227" lon="-3.959197">
        <ele>904.280</ele>
        <time>2021-07-23T08:52:20Z</time>
      </trkpt>
      <trkpt lat="42.328237" lon="-3.959191">
        <ele>904.294</ele>
        <time>2021-07-23T08:52:38Z</time>
      </trkpt>
      <trkpt lat="42.328237" lon="-3.959191">
        <ele>904.262</ele>
        <time>2021-07-23T08:52:53Z</time>
      </trkpt>
      <trkpt lat="42.328260" lon="-3.959117">
        <ele>904.739</ele>
        <time>2021-07-23T08:53:06Z</time>
      </trkpt>
      <trkpt lat="42.328271" lon="-3.958890">
        <ele>904.297</ele>
        <time>2021-07-23T08:53:13Z</time>
      </trkpt>
      <trkpt lat="42.328259" lon="-3.958637">
        <ele>902.892</ele>
        <time>2021-07-23T08:53:21Z</time>
      </trkpt>
      <trkpt lat="42.328277" lon="-3.958468">
        <ele>901.873</ele>
        <time>2021-07-23T08:53:27Z</time>
      </trkpt>
      <trkpt lat="42.328329" lon="-3.958285">
        <ele>900.420</ele>
        <time>2021-07-23T08:53:33Z</time>
      </trkpt>
      <trkpt lat="42.328424" lon="-3.957887">
        <ele>899.408</ele>
        <time>2021-07-23T08:53:41Z</time>
      </trkpt>
      <trkpt lat="42.328507" lon="-3.957585">
        <ele>897.056</ele>
        <time>2021-07-23T08:53:48Z</time>
      </trkpt>
      <trkpt lat="42.328578" lon="-3.957253">
        <ele>895.128</ele>
        <time>2021-07-23T08:53:57Z</time>
      </trkpt>
      <trkpt lat="42.328678" lon="-3.956913">
        <ele>893.645</ele>
        <time>2021-07-23T08:54:04Z</time>
      </trkpt>
      <trkpt lat="42.328746" lon="-3.956684">
        <ele>891.745</ele>
        <time>2021-07-23T08:54:11Z</time>
      </trkpt>
      <trkpt lat="42.328749" lon="-3.956683">
        <ele>891.749</ele>
        <time>2021-07-23T08:54:16Z</time>
      </trkpt>
      <trkpt lat="42.328772" lon="-3.956649">
        <ele>891.297</ele>
        <time>2021-07-23T08:54:28Z</time>
      </trkpt>
      <trkpt lat="42.328857" lon="-3.956461">
        <ele>890.314</ele>
        <time>2021-07-23T08:54:36Z</time>
      </trkpt>
      <trkpt lat="42.328956" lon="-3.956215">
        <ele>888.882</ele>
        <time>2021-07-23T08:54:44Z</time>
      </trkpt>
      <trkpt lat="42.329094" lon="-3.955909">
        <ele>887.996</ele>
        <time>2021-07-23T08:54:52Z</time>
      </trkpt>
      <trkpt lat="42.329284" lon="-3.955519">
        <ele>886.431</ele>
        <time>2021-07-23T08:55:00Z</time>
      </trkpt>
      <trkpt lat="42.329447" lon="-3.955197">
        <ele>885.024</ele>
        <time>2021-07-23T08:55:07Z</time>
      </trkpt>
      <trkpt lat="42.329606" lon="-3.954907">
        <ele>883.508</ele>
        <time>2021-07-23T08:55:14Z</time>
      </trkpt>
      <trkpt lat="42.329768" lon="-3.954599">
        <ele>882.646</ele>
        <time>2021-07-23T08:55:22Z</time>
      </trkpt>
      <trkpt lat="42.330029" lon="-3.954158">
        <ele>881.618</ele>
        <time>2021-07-23T08:55:33Z</time>
      </trkpt>
      <trkpt lat="42.330243" lon="-3.953857">
        <ele>881.195</ele>
        <time>2021-07-23T08:55:42Z</time>
      </trkpt>
      <trkpt lat="42.330361" lon="-3.953654">
        <ele>880.765</ele>
        <time>2021-07-23T08:55:50Z</time>
      </trkpt>
      <trkpt lat="42.330548" lon="-3.953354">
        <ele>879.779</ele>
        <time>2021-07-23T08:56:00Z</time>
      </trkpt>
      <trkpt lat="42.330766" lon="-3.952988">
        <ele>879.717</ele>
        <time>2021-07-23T08:56:11Z</time>
      </trkpt>
      <trkpt lat="42.330953" lon="-3.952706">
        <ele>878.344</ele>
        <time>2021-07-23T08:56:20Z</time>
      </trkpt>
      <trkpt lat="42.331083" lon="-3.952453">
        <ele>876.352</ele>
        <time>2021-07-23T08:56:27Z</time>
      </trkpt>
      <trkpt lat="42.331227" lon="-3.952192">
        <ele>874.976</ele>
        <time>2021-07-23T08:56:34Z</time>
      </trkpt>
      <trkpt lat="42.331429" lon="-3.951862">
        <ele>873.990</ele>
        <time>2021-07-23T08:56:44Z</time>
      </trkpt>
      <trkpt lat="42.331571" lon="-3.951647">
        <ele>873.019</ele>
        <time>2021-07-23T08:56:51Z</time>
      </trkpt>
      <trkpt lat="42.331737" lon="-3.951401">
        <ele>872.508</ele>
        <time>2021-07-23T08:57:00Z</time>
      </trkpt>
      <trkpt lat="42.331928" lon="-3.951182">
        <ele>872.584</ele>
        <time>2021-07-23T08:57:09Z</time>
      </trkpt>
      <trkpt lat="42.332111" lon="-3.951004">
        <ele>873.026</ele>
        <time>2021-07-23T08:57:17Z</time>
      </trkpt>
      <trkpt lat="42.332300" lon="-3.950716">
        <ele>871.553</ele>
        <time>2021-07-23T08:57:25Z</time>
      </trkpt>
      <trkpt lat="42.332296" lon="-3.950497">
        <ele>870.643</ele>
        <time>2021-07-23T08:57:30Z</time>
      </trkpt>
      <trkpt lat="42.332230" lon="-3.950243">
        <ele>870.627</ele>
        <time>2021-07-23T08:57:36Z</time>
      </trkpt>
      <trkpt lat="42.332290" lon="-3.949969">
        <ele>870.645</ele>
        <time>2021-07-23T08:57:42Z</time>
      </trkpt>
      <trkpt lat="42.332467" lon="-3.949641">
        <ele>870.112</ele>
        <time>2021-07-23T08:57:50Z</time>
      </trkpt>
      <trkpt lat="42.332599" lon="-3.949410">
        <ele>869.660</ele>
        <time>2021-07-23T08:57:58Z</time>
      </trkpt>
      <trkpt lat="42.332669" lon="-3.949265">
        <ele>869.115</ele>
        <time>2021-07-23T08:58:04Z</time>
      </trkpt>
      <trkpt lat="42.332669" lon="-3.949271">
        <ele>868.665</ele>
        <time>2021-07-23T08:58:15Z</time>
      </trkpt>
      <trkpt lat="42.332683" lon="-3.949258">
        <ele>868.611</ele>
        <time>2021-07-23T08:58:19Z</time>
      </trkpt>
      <trkpt lat="42.332694" lon="-3.949251">
        <ele>868.608</ele>
        <time>2021-07-23T08:58:20Z</time>
      </trkpt>
      <trkpt lat="42.332706" lon="-3.949235">
        <ele>868.668</ele>
        <time>2021-07-23T08:58:21Z</time>
      </trkpt>
      <trkpt lat="42.332717" lon="-3.949216">
        <ele>868.240</ele>
        <time>2021-07-23T08:58:22Z</time>
      </trkpt>
      <trkpt lat="42.332727" lon="-3.949193">
        <ele>868.227</ele>
        <time>2021-07-23T08:58:23Z</time>
      </trkpt>
      <trkpt lat="42.332736" lon="-3.949167">
        <ele>867.747</ele>
        <time>2021-07-23T08:58:24Z</time>
      </trkpt>
      <trkpt lat="42.332747" lon="-3.949142">
        <ele>867.791</ele>
        <time>2021-07-23T08:58:25Z</time>
      </trkpt>
      <trkpt lat="42.332758" lon="-3.949119">
        <ele>867.779</ele>
        <time>2021-07-23T08:58:26Z</time>
      </trkpt>
      <trkpt lat="42.332878" lon="-3.948893">
        <ele>867.726</ele>
        <time>2021-07-23T08:58:34Z</time>
      </trkpt>
      <trkpt lat="42.333049" lon="-3.948542">
        <ele>867.264</ele>
        <time>2021-07-23T08:58:45Z</time>
      </trkpt>
      <trkpt lat="42.333161" lon="-3.948280">
        <ele>867.264</ele>
        <time>2021-07-23T08:58:54Z</time>
      </trkpt>
      <trkpt lat="42.333270" lon="-3.948039">
        <ele>866.706</ele>
        <time>2021-07-23T08:59:03Z</time>
      </trkpt>
      <trkpt lat="42.333348" lon="-3.947825">
        <ele>865.816</ele>
        <time>2021-07-23T08:59:11Z</time>
      </trkpt>
      <trkpt lat="42.333443" lon="-3.947485">
        <ele>864.308</ele>
        <time>2021-07-23T08:59:19Z</time>
      </trkpt>
      <trkpt lat="42.333633" lon="-3.946956">
        <ele>862.463</ele>
        <time>2021-07-23T08:59:28Z</time>
      </trkpt>
      <trkpt lat="42.333846" lon="-3.946272">
        <ele>861.955</ele>
        <time>2021-07-23T08:59:37Z</time>
      </trkpt>
      <trkpt lat="42.334001" lon="-3.945712">
        <ele>861.012</ele>
        <time>2021-07-23T08:59:44Z</time>
      </trkpt>
      <trkpt lat="42.334205" lon="-3.945073">
        <ele>860.562</ele>
        <time>2021-07-23T08:59:52Z</time>
      </trkpt>
      <trkpt lat="42.334276" lon="-3.944849">
        <ele>860.576</ele>
        <time>2021-07-23T08:59:55Z</time>
      </trkpt>
      <trkpt lat="42.334305" lon="-3.944784">
        <ele>860.534</ele>
        <time>2021-07-23T08:59:56Z</time>
      </trkpt>
      <trkpt lat="42.334337" lon="-3.944724">
        <ele>860.551</ele>
        <time>2021-07-23T08:59:57Z</time>
      </trkpt>
      <trkpt lat="42.334371" lon="-3.944672">
        <ele>860.559</ele>
        <time>2021-07-23T08:59:58Z</time>
      </trkpt>
      <trkpt lat="42.334405" lon="-3.944621">
        <ele>860.536</ele>
        <time>2021-07-23T08:59:59Z</time>
      </trkpt>
      <trkpt lat="42.334601" lon="-3.944336">
        <ele>860.517</ele>
        <time>2021-07-23T09:00:06Z</time>
      </trkpt>
      <trkpt lat="42.334837" lon="-3.943928">
        <ele>861.018</ele>
        <time>2021-07-23T09:00:17Z</time>
      </trkpt>
      <trkpt lat="42.335106" lon="-3.943505">
        <ele>860.008</ele>
        <time>2021-07-23T09:00:27Z</time>
      </trkpt>
      <trkpt lat="42.335234" lon="-3.943305">
        <ele>857.680</ele>
        <time>2021-07-23T09:00:33Z</time>
      </trkpt>
      <trkpt lat="42.335383" lon="-3.942982">
        <ele>854.722</ele>
        <time>2021-07-23T09:00:40Z</time>
      </trkpt>
      <trkpt lat="42.335403" lon="-3.942919">
        <ele>854.739</ele>
        <time>2021-07-23T09:00:41Z</time>
      </trkpt>
      <trkpt lat="42.335525" lon="-3.942309">
        <ele>853.749</ele>
        <time>2021-07-23T09:00:49Z</time>
      </trkpt>
      <trkpt lat="42.335720" lon="-3.941607">
        <ele>852.843</ele>
        <time>2021-07-23T09:00:58Z</time>
      </trkpt>
      <trkpt lat="42.335867" lon="-3.940979">
        <ele>851.331</ele>
        <time>2021-07-23T09:01:06Z</time>
      </trkpt>
      <trkpt lat="42.335964" lon="-3.940329">
        <ele>850.448</ele>
        <time>2021-07-23T09:01:15Z</time>
      </trkpt>
      <trkpt lat="42.336097" lon="-3.939704">
        <ele>849.426</ele>
        <time>2021-07-23T09:01:25Z</time>
      </trkpt>
      <trkpt lat="42.336208" lon="-3.939276">
        <ele>848.943</ele>
        <time>2021-07-23T09:01:32Z</time>
      </trkpt>
      <trkpt lat="42.336384" lon="-3.938620">
        <ele>848.064</ele>
        <time>2021-07-23T09:01:42Z</time>
      </trkpt>
      <trkpt lat="42.336668" lon="-3.937886">
        <ele>845.610</ele>
        <time>2021-07-23T09:01:52Z</time>
      </trkpt>
      <trkpt lat="42.336788" lon="-3.937525">
        <ele>844.608</ele>
        <time>2021-07-23T09:01:58Z</time>
      </trkpt>
      <trkpt lat="42.336839" lon="-3.937399">
        <ele>844.171</ele>
        <time>2021-07-23T09:02:04Z</time>
      </trkpt>
      <trkpt lat="42.336838" lon="-3.937412">
        <ele>843.213</ele>
        <time>2021-07-23T09:02:19Z</time>
      </trkpt>
      <trkpt lat="42.336838" lon="-3.937414">
        <ele>842.760</ele>
        <time>2021-07-23T09:02:37Z</time>
      </trkpt>
      <trkpt lat="42.336841" lon="-3.937410">
        <ele>842.740</ele>
        <time>2021-07-23T09:02:50Z</time>
      </trkpt>
      <trkpt lat="42.336855" lon="-3.937398">
        <ele>842.734</ele>
        <time>2021-07-23T09:02:51Z</time>
      </trkpt>
      <trkpt lat="42.336870" lon="-3.937378">
        <ele>842.792</ele>
        <time>2021-07-23T09:02:52Z</time>
      </trkpt>
      <trkpt lat="42.336886" lon="-3.937356">
        <ele>842.229</ele>
        <time>2021-07-23T09:02:53Z</time>
      </trkpt>
      <trkpt lat="42.336903" lon="-3.937330">
        <ele>842.237</ele>
        <time>2021-07-23T09:02:54Z</time>
      </trkpt>
      <trkpt lat="42.336919" lon="-3.937299">
        <ele>842.295</ele>
        <time>2021-07-23T09:02:55Z</time>
      </trkpt>
      <trkpt lat="42.336931" lon="-3.937265">
        <ele>841.749</ele>
        <time>2021-07-23T09:02:56Z</time>
      </trkpt>
      <trkpt lat="42.336973" lon="-3.937029">
        <ele>841.723</ele>
        <time>2021-07-23T09:03:03Z</time>
      </trkpt>
      <trkpt lat="42.337000" lon="-3.936741">
        <ele>841.708</ele>
        <time>2021-07-23T09:03:09Z</time>
      </trkpt>
      <trkpt lat="42.337067" lon="-3.936228">
        <ele>840.346</ele>
        <time>2021-07-23T09:03:17Z</time>
      </trkpt>
      <trkpt lat="42.337217" lon="-3.935515">
        <ele>838.878</ele>
        <time>2021-07-23T09:03:27Z</time>
      </trkpt>
      <trkpt lat="42.337409" lon="-3.934714">
        <ele>837.465</ele>
        <time>2021-07-23T09:03:38Z</time>
      </trkpt>
      <trkpt lat="42.337648" lon="-3.934095">
        <ele>836.475</ele>
        <time>2021-07-23T09:03:48Z</time>
      </trkpt>
      <trkpt lat="42.337852" lon="-3.933559">
        <ele>836.079</ele>
        <time>2021-07-23T09:03:58Z</time>
      </trkpt>
      <trkpt lat="42.337945" lon="-3.933129">
        <ele>836.967</ele>
        <time>2021-07-23T09:04:06Z</time>
      </trkpt>
      <trkpt lat="42.337952" lon="-3.933013">
        <ele>836.454</ele>
        <time>2021-07-23T09:04:08Z</time>
      </trkpt>
      <trkpt lat="42.337924" lon="-3.932540">
        <ele>836.012</ele>
        <time>2021-07-23T09:04:16Z</time>
      </trkpt>
      <trkpt lat="42.337904" lon="-3.932227">
        <ele>835.562</ele>
        <time>2021-07-23T09:04:21Z</time>
      </trkpt>
      <trkpt lat="42.337836" lon="-3.931642">
        <ele>833.683</ele>
        <time>2021-07-23T09:04:30Z</time>
      </trkpt>
      <trkpt lat="42.337764" lon="-3.931240">
        <ele>833.111</ele>
        <time>2021-07-23T09:04:37Z</time>
      </trkpt>
      <trkpt lat="42.337712" lon="-3.930899">
        <ele>832.108</ele>
        <time>2021-07-23T09:04:43Z</time>
      </trkpt>
      <trkpt lat="42.337704" lon="-3.930848">
        <ele>832.113</ele>
        <time>2021-07-23T09:04:44Z</time>
      </trkpt>
      <trkpt lat="42.337631" lon="-3.930489">
        <ele>832.195</ele>
        <time>2021-07-23T09:04:53Z</time>
      </trkpt>
      <trkpt lat="42.337562" lon="-3.930188">
        <ele>831.642</ele>
        <time>2021-07-23T09:05:03Z</time>
      </trkpt>
      <trkpt lat="42.337572" lon="-3.929927">
        <ele>831.692</ele>
        <time>2021-07-23T09:05:11Z</time>
      </trkpt>
      <trkpt lat="42.337677" lon="-3.929653">
        <ele>831.646</ele>
        <time>2021-07-23T09:05:19Z</time>
      </trkpt>
      <trkpt lat="42.337818" lon="-3.929322">
        <ele>830.744</ele>
        <time>2021-07-23T09:05:28Z</time>
      </trkpt>
      <trkpt lat="42.337957" lon="-3.928980">
        <ele>830.291</ele>
        <time>2021-07-23T09:05:37Z</time>
      </trkpt>
      <trkpt lat="42.338120" lon="-3.928529">
        <ele>829.739</ele>
        <time>2021-07-23T09:05:47Z</time>
      </trkpt>
      <trkpt lat="42.338294" lon="-3.928077">
        <ele>828.398</ele>
        <time>2021-07-23T09:05:56Z</time>
      </trkpt>
      <trkpt lat="42.338468" lon="-3.927589">
        <ele>827.315</ele>
        <time>2021-07-23T09:06:04Z</time>
      </trkpt>
      <trkpt lat="42.338586" lon="-3.927123">
        <ele>825.426</ele>
        <time>2021-07-23T09:06:11Z</time>
      </trkpt>
      <trkpt lat="42.338611" lon="-3.926800">
        <ele>826.808</ele>
        <time>2021-07-23T09:06:18Z</time>
      </trkpt>
      <trkpt lat="42.338556" lon="-3.926493">
        <ele>826.366</ele>
        <time>2021-07-23T09:06:26Z</time>
      </trkpt>
      <trkpt lat="42.338525" lon="-3.926343">
        <ele>824.498</ele>
        <time>2021-07-23T09:06:34Z</time>
      </trkpt>
      <trkpt lat="42.338534" lon="-3.926339">
        <ele>823.985</ele>
        <time>2021-07-23T09:06:48Z</time>
      </trkpt>
      <trkpt lat="42.338531" lon="-3.926328">
        <ele>823.915</ele>
        <time>2021-07-23T09:06:49Z</time>
      </trkpt>
      <trkpt lat="42.338488" lon="-3.926139">
        <ele>823.939</ele>
        <time>2021-07-23T09:06:57Z</time>
      </trkpt>
      <trkpt lat="42.338432" lon="-3.925826">
        <ele>823.917</ele>
        <time>2021-07-23T09:07:05Z</time>
      </trkpt>
      <trkpt lat="42.338342" lon="-3.925392">
        <ele>823.974</ele>
        <time>2021-07-23T09:07:13Z</time>
      </trkpt>
      <trkpt lat="42.338261" lon="-3.924916">
        <ele>822.072</ele>
        <time>2021-07-23T09:07:21Z</time>
      </trkpt>
      <trkpt lat="42.338246" lon="-3.924791">
        <ele>821.571</ele>
        <time>2021-07-23T09:07:26Z</time>
      </trkpt>
      <trkpt lat="42.338255" lon="-3.924762">
        <ele>822.041</ele>
        <time>2021-07-23T09:07:33Z</time>
      </trkpt>
      <trkpt lat="42.338280" lon="-3.924797">
        <ele>822.515</ele>
        <time>2021-07-23T09:07:38Z</time>
      </trkpt>
      <trkpt lat="42.338282" lon="-3.924819">
        <ele>822.508</ele>
        <time>2021-07-23T09:07:39Z</time>
      </trkpt>
      <trkpt lat="42.338293" lon="-3.924964">
        <ele>822.514</ele>
        <time>2021-07-23T09:07:46Z</time>
      </trkpt>
      <trkpt lat="42.338317" lon="-3.924974">
        <ele>823.076</ele>
        <time>2021-07-23T09:07:49Z</time>
      </trkpt>
      <trkpt lat="42.338336" lon="-3.924908">
        <ele>823.943</ele>
        <time>2021-07-23T09:07:58Z</time>
      </trkpt>
      <trkpt lat="42.338323" lon="-3.924926">
        <ele>823.033</ele>
        <time>2021-07-23T09:08:08Z</time>
      </trkpt>
      <trkpt lat="42.338312" lon="-3.924933">
        <ele>825.427</ele>
        <time>2021-07-23T09:08:28Z</time>
      </trkpt>
      <trkpt lat="42.338317" lon="-3.924907">
        <ele>826.815</ele>
        <time>2021-07-23T09:08:44Z</time>
      </trkpt>
      <trkpt lat="42.338305" lon="-3.924921">
        <ele>825.932</ele>
        <time>2021-07-23T09:08:59Z</time>
      </trkpt>
      <trkpt lat="42.338296" lon="-3.924930">
        <ele>826.360</ele>
        <time>2021-07-23T09:09:19Z</time>
      </trkpt>
      <trkpt lat="42.338317" lon="-3.924920">
        <ele>827.321</ele>
        <time>2021-07-23T09:09:45Z</time>
      </trkpt>
      <trkpt lat="42.338325" lon="-3.924911">
        <ele>824.441</ele>
        <time>2021-07-23T09:10:18Z</time>
      </trkpt>
      <trkpt lat="42.338311" lon="-3.924930">
        <ele>823.905</ele>
        <time>2021-07-23T09:10:47Z</time>
      </trkpt>
      <trkpt lat="42.338330" lon="-3.924926">
        <ele>822.508</ele>
        <time>2021-07-23T09:11:15Z</time>
      </trkpt>
      <trkpt lat="42.338334" lon="-3.924915">
        <ele>820.629</ele>
        <time>2021-07-23T09:11:42Z</time>
      </trkpt>
      <trkpt lat="42.338331" lon="-3.924931">
        <ele>822.081</ele>
        <time>2021-07-23T09:12:02Z</time>
      </trkpt>
      <trkpt lat="42.338336" lon="-3.924922">
        <ele>822.088</ele>
        <time>2021-07-23T09:12:30Z</time>
      </trkpt>
      <trkpt lat="42.338335" lon="-3.924938">
        <ele>820.178</ele>
        <time>2021-07-23T09:12:59Z</time>
      </trkpt>
      <trkpt lat="42.338340" lon="-3.924948">
        <ele>819.612</ele>
        <time>2021-07-23T09:13:25Z</time>
      </trkpt>
      <trkpt lat="42.338348" lon="-3.924956">
        <ele>823.560</ele>
        <time>2021-07-23T09:13:46Z</time>
      </trkpt>
      <trkpt lat="42.338337" lon="-3.924936">
        <ele>822.567</ele>
        <time>2021-07-23T09:14:04Z</time>
      </trkpt>
      <trkpt lat="42.338339" lon="-3.924968">
        <ele>820.155</ele>
        <time>2021-07-23T09:14:27Z</time>
      </trkpt>
      <trkpt lat="42.338342" lon="-3.924947">
        <ele>821.593</ele>
        <time>2021-07-23T09:14:45Z</time>
      </trkpt>
      <trkpt lat="42.338333" lon="-3.924906">
        <ele>823.065</ele>
        <time>2021-07-23T09:15:13Z</time>
      </trkpt>
      <trkpt lat="42.338344" lon="-3.924916">
        <ele>822.521</ele>
        <time>2021-07-23T09:15:39Z</time>
      </trkpt>
      <trkpt lat="42.338346" lon="-3.924943">
        <ele>823.508</ele>
        <time>2021-07-23T09:16:05Z</time>
      </trkpt>
      <trkpt lat="42.338328" lon="-3.924919">
        <ele>822.596</ele>
        <time>2021-07-23T09:16:23Z</time>
      </trkpt>
      <trkpt lat="42.338322" lon="-3.924944">
        <ele>824.478</ele>
        <time>2021-07-23T09:16:53Z</time>
      </trkpt>
      <trkpt lat="42.338312" lon="-3.924982">
        <ele>825.915</ele>
        <time>2021-07-23T09:17:15Z</time>
      </trkpt>
      <trkpt lat="42.338324" lon="-3.924966">
        <ele>825.415</ele>
        <time>2021-07-23T09:17:34Z</time>
      </trkpt>
      <trkpt lat="42.338313" lon="-3.924953">
        <ele>824.459</ele>
        <time>2021-07-23T09:17:53Z</time>
      </trkpt>
      <trkpt lat="42.338320" lon="-3.924909">
        <ele>823.047</ele>
        <time>2021-07-23T09:18:18Z</time>
      </trkpt>
      <trkpt lat="42.338316" lon="-3.924922">
        <ele>823.084</ele>
        <time>2021-07-23T09:18:45Z</time>
      </trkpt>
      <trkpt lat="42.338325" lon="-3.924915">
        <ele>822.022</ele>
        <time>2021-07-23T09:19:05Z</time>
      </trkpt>
      <trkpt lat="42.338341" lon="-3.924922">
        <ele>824.436</ele>
        <time>2021-07-23T09:19:31Z</time>
      </trkpt>
      <trkpt lat="42.338333" lon="-3.924924">
        <ele>822.017</ele>
        <time>2021-07-23T09:19:49Z</time>
      </trkpt>
      <trkpt lat="42.338317" lon="-3.924924">
        <ele>819.618</ele>
        <time>2021-07-23T09:20:04Z</time>
      </trkpt>
      <trkpt lat="42.338304" lon="-3.924932">
        <ele>819.608</ele>
        <time>2021-07-23T09:20:19Z</time>
      </trkpt>
      <trkpt lat="42.338322" lon="-3.924934">
        <ele>820.680</ele>
        <time>2021-07-23T09:20:45Z</time>
      </trkpt>
      <trkpt lat="42.338314" lon="-3.924948">
        <ele>819.652</ele>
        <time>2021-07-23T09:20:59Z</time>
      </trkpt>
      <trkpt lat="42.338308" lon="-3.924941">
        <ele>819.649</ele>
        <time>2021-07-23T09:21:21Z</time>
      </trkpt>
      <trkpt lat="42.338310" lon="-3.924940">
        <ele>819.159</ele>
        <time>2021-07-23T09:21:34Z</time>
      </trkpt>
      <trkpt lat="42.338325" lon="-3.924935">
        <ele>821.133</ele>
        <time>2021-07-23T09:21:58Z</time>
      </trkpt>
      <trkpt lat="42.338322" lon="-3.924928">
        <ele>821.161</ele>
        <time>2021-07-23T09:22:17Z</time>
      </trkpt>
      <trkpt lat="42.338326" lon="-3.924925">
        <ele>821.148</ele>
        <time>2021-07-23T09:22:36Z</time>
      </trkpt>
      <trkpt lat="42.338334" lon="-3.924920">
        <ele>822.526</ele>
        <time>2021-07-23T09:22:56Z</time>
      </trkpt>
      <trkpt lat="42.338324" lon="-3.924910">
        <ele>823.032</ele>
        <time>2021-07-23T09:23:18Z</time>
      </trkpt>
      <trkpt lat="42.338320" lon="-3.924921">
        <ele>823.592</ele>
        <time>2021-07-23T09:23:35Z</time>
      </trkpt>
      <trkpt lat="42.338298" lon="-3.924942">
        <ele>823.511</ele>
        <time>2021-07-23T09:23:54Z</time>
      </trkpt>
      <trkpt lat="42.338308" lon="-3.924942">
        <ele>822.508</ele>
        <time>2021-07-23T09:24:14Z</time>
      </trkpt>
      <trkpt lat="42.338308" lon="-3.924934">
        <ele>821.140</ele>
        <time>2021-07-23T09:24:31Z</time>
      </trkpt>
      <trkpt lat="42.338307" lon="-3.924937">
        <ele>821.552</ele>
        <time>2021-07-23T09:24:49Z</time>
      </trkpt>
      <trkpt lat="42.338311" lon="-3.924928">
        <ele>823.029</ele>
        <time>2021-07-23T09:25:05Z</time>
      </trkpt>
      <trkpt lat="42.338310" lon="-3.924926">
        <ele>821.539</ele>
        <time>2021-07-23T09:25:25Z</time>
      </trkpt>
      <trkpt lat="42.338306" lon="-3.924932">
        <ele>821.513</ele>
        <time>2021-07-23T09:25:42Z</time>
      </trkpt>
      <trkpt lat="42.338319" lon="-3.924928">
        <ele>822.041</ele>
        <time>2021-07-23T09:25:52Z</time>
      </trkpt>
      <trkpt lat="42.338321" lon="-3.924947">
        <ele>822.588</ele>
        <time>2021-07-23T09:25:55Z</time>
      </trkpt>
      <trkpt lat="42.338301" lon="-3.924971">
        <ele>823.036</ele>
        <time>2021-07-23T09:25:58Z</time>
      </trkpt>
      <trkpt lat="42.338259" lon="-3.924981">
        <ele>823.022</ele>
        <time>2021-07-23T09:26:06Z</time>
      </trkpt>
      <trkpt lat="42.338255" lon="-3.924978">
        <ele>823.062</ele>
        <time>2021-07-23T09:26:07Z</time>
      </trkpt>
      <trkpt lat="42.338238" lon="-3.924866">
        <ele>822.008</ele>
        <time>2021-07-23T09:26:13Z</time>
      </trkpt>
      <trkpt lat="42.338240" lon="-3.924836">
        <ele>822.008</ele>
        <time>2021-07-23T09:26:14Z</time>
      </trkpt>
      <trkpt lat="42.338239" lon="-3.924808">
        <ele>822.089</ele>
        <time>2021-07-23T09:26:15Z</time>
      </trkpt>
      <trkpt lat="42.338298" lon="-3.924597">
        <ele>823.041</ele>
        <time>2021-07-23T09:26:22Z</time>
      </trkpt>
      <trkpt lat="42.338408" lon="-3.924394">
        <ele>822.558</ele>
        <time>2021-07-23T09:26:30Z</time>
      </trkpt>
      <trkpt lat="42.338417" lon="-3.924367">
        <ele>822.028</ele>
        <time>2021-07-23T09:26:33Z</time>
      </trkpt>
      <trkpt lat="42.338427" lon="-3.924363">
        <ele>822.062</ele>
        <time>2021-07-23T09:26:34Z</time>
      </trkpt>
      <trkpt lat="42.338435" lon="-3.924374">
        <ele>821.520</ele>
        <time>2021-07-23T09:26:35Z</time>
      </trkpt>
      <trkpt lat="42.338435" lon="-3.924391">
        <ele>822.027</ele>
        <time>2021-07-23T09:26:36Z</time>
      </trkpt>
      <trkpt lat="42.338426" lon="-3.924408">
        <ele>822.035</ele>
        <time>2021-07-23T09:26:37Z</time>
      </trkpt>
      <trkpt lat="42.338415" lon="-3.924417">
        <ele>822.075</ele>
        <time>2021-07-23T09:26:38Z</time>
      </trkpt>
      <trkpt lat="42.338400" lon="-3.924416">
        <ele>822.528</ele>
        <time>2021-07-23T09:26:39Z</time>
      </trkpt>
      <trkpt lat="42.338388" lon="-3.924401">
        <ele>822.520</ele>
        <time>2021-07-23T09:26:40Z</time>
      </trkpt>
      <trkpt lat="42.338376" lon="-3.924364">
        <ele>822.508</ele>
        <time>2021-07-23T09:26:45Z</time>
      </trkpt>
      <trkpt lat="42.338362" lon="-3.924350">
        <ele>821.584</ele>
        <time>2021-07-23T09:26:57Z</time>
      </trkpt>
      <trkpt lat="42.338362" lon="-3.924387">
        <ele>821.536</ele>
        <time>2021-07-23T09:27:01Z</time>
      </trkpt>
      <trkpt lat="42.338400" lon="-3.924382">
        <ele>822.093</ele>
        <time>2021-07-23T09:27:04Z</time>
      </trkpt>
      <trkpt lat="42.338504" lon="-3.924112">
        <ele>822.063</ele>
        <time>2021-07-23T09:27:14Z</time>
      </trkpt>
      <trkpt lat="42.338571" lon="-3.923822">
        <ele>822.517</ele>
        <time>2021-07-23T09:27:23Z</time>
      </trkpt>
      <trkpt lat="42.338598" lon="-3.923558">
        <ele>822.065</ele>
        <time>2021-07-23T09:27:30Z</time>
      </trkpt>
      <trkpt lat="42.338642" lon="-3.923206">
        <ele>821.162</ele>
        <time>2021-07-23T09:27:39Z</time>
      </trkpt>
      <trkpt lat="42.338737" lon="-3.922790">
        <ele>821.590</ele>
        <time>2021-07-23T09:27:49Z</time>
      </trkpt>
      <trkpt lat="42.338760" lon="-3.922492">
        <ele>820.617</ele>
        <time>2021-07-23T09:27:55Z</time>
      </trkpt>
      <trkpt lat="42.338815" lon="-3.922071">
        <ele>821.587</ele>
        <time>2021-07-23T09:28:04Z</time>
      </trkpt>
      <trkpt lat="42.338879" lon="-3.921838">
        <ele>822.515</ele>
        <time>2021-07-23T09:28:11Z</time>
      </trkpt>
      <trkpt lat="42.339015" lon="-3.921557">
        <ele>822.008</ele>
        <time>2021-07-23T09:28:18Z</time>
      </trkpt>
      <trkpt lat="42.339195" lon="-3.921175">
        <ele>820.648</ele>
        <time>2021-07-23T09:28:27Z</time>
      </trkpt>
      <trkpt lat="42.339418" lon="-3.920760">
        <ele>820.160</ele>
        <time>2021-07-23T09:28:37Z</time>
      </trkpt>
      <trkpt lat="42.339636" lon="-3.920281">
        <ele>819.627</ele>
        <time>2021-07-23T09:28:47Z</time>
      </trkpt>
      <trkpt lat="42.339791" lon="-3.919761">
        <ele>820.167</ele>
        <time>2021-07-23T09:28:57Z</time>
      </trkpt>
      <trkpt lat="42.339923" lon="-3.919286">
        <ele>821.131</ele>
        <time>2021-07-23T09:29:07Z</time>
      </trkpt>
      <trkpt lat="42.339998" lon="-3.919008">
        <ele>821.599</ele>
        <time>2021-07-23T09:29:15Z</time>
      </trkpt>
      <trkpt lat="42.340050" lon="-3.918612">
        <ele>822.076</ele>
        <time>2021-07-23T09:29:25Z</time>
      </trkpt>
      <trkpt lat="42.340094" lon="-3.918228">
        <ele>823.014</ele>
        <time>2021-07-23T09:29:34Z</time>
      </trkpt>
      <trkpt lat="42.340145" lon="-3.917706">
        <ele>823.539</ele>
        <time>2021-07-23T09:29:46Z</time>
      </trkpt>
      <trkpt lat="42.340182" lon="-3.917336">
        <ele>824.901</ele>
        <time>2021-07-23T09:29:55Z</time>
      </trkpt>
      <trkpt lat="42.340221" lon="-3.916968">
        <ele>826.821</ele>
        <time>2021-07-23T09:30:05Z</time>
      </trkpt>
      <trkpt lat="42.340251" lon="-3.916667">
        <ele>827.808</ele>
        <time>2021-07-23T09:30:14Z</time>
      </trkpt>
      <trkpt lat="42.340288" lon="-3.916306">
        <ele>828.330</ele>
        <time>2021-07-23T09:30:24Z</time>
      </trkpt>
      <trkpt lat="42.340332" lon="-3.915872">
        <ele>827.852</ele>
        <time>2021-07-23T09:30:36Z</time>
      </trkpt>
      <trkpt lat="42.340367" lon="-3.915536">
        <ele>828.769</ele>
        <time>2021-07-23T09:30:45Z</time>
      </trkpt>
      <trkpt lat="42.340411" lon="-3.915143">
        <ele>828.729</ele>
        <time>2021-07-23T09:30:55Z</time>
      </trkpt>
      <trkpt lat="42.340464" lon="-3.914667">
        <ele>829.283</ele>
        <time>2021-07-23T09:31:07Z</time>
      </trkpt>
      <trkpt lat="42.340520" lon="-3.914196">
        <ele>829.251</ele>
        <time>2021-07-23T09:31:19Z</time>
      </trkpt>
      <trkpt lat="42.340555" lon="-3.913804">
        <ele>830.228</ele>
        <time>2021-07-23T09:31:29Z</time>
      </trkpt>
      <trkpt lat="42.340584" lon="-3.913358">
        <ele>830.746</ele>
        <time>2021-07-23T09:31:40Z</time>
      </trkpt>
      <trkpt lat="42.340598" lon="-3.913008">
        <ele>830.773</ele>
        <time>2021-07-23T09:31:49Z</time>
      </trkpt>
      <trkpt lat="42.340610" lon="-3.912673">
        <ele>831.685</ele>
        <time>2021-07-23T09:31:59Z</time>
      </trkpt>
      <trkpt lat="42.340612" lon="-3.912484">
        <ele>831.613</ele>
        <time>2021-07-23T09:32:08Z</time>
      </trkpt>
      <trkpt lat="42.340621" lon="-3.912401">
        <ele>831.208</ele>
        <time>2021-07-23T09:32:15Z</time>
      </trkpt>
      <trkpt lat="42.340625" lon="-3.912385">
        <ele>831.214</ele>
        <time>2021-07-23T09:32:16Z</time>
      </trkpt>
      <trkpt lat="42.340628" lon="-3.912365">
        <ele>831.256</ele>
        <time>2021-07-23T09:32:17Z</time>
      </trkpt>
      <trkpt lat="42.340628" lon="-3.912342">
        <ele>831.213</ele>
        <time>2021-07-23T09:32:18Z</time>
      </trkpt>
      <trkpt lat="42.340628" lon="-3.912313">
        <ele>831.223</ele>
        <time>2021-07-23T09:32:19Z</time>
      </trkpt>
      <trkpt lat="42.340627" lon="-3.912278">
        <ele>831.287</ele>
        <time>2021-07-23T09:32:20Z</time>
      </trkpt>
      <trkpt lat="42.340628" lon="-3.912242">
        <ele>831.255</ele>
        <time>2021-07-23T09:32:21Z</time>
      </trkpt>
      <trkpt lat="42.340630" lon="-3.912203">
        <ele>831.262</ele>
        <time>2021-07-23T09:32:22Z</time>
      </trkpt>
      <trkpt lat="42.340633" lon="-3.912161">
        <ele>831.270</ele>
        <time>2021-07-23T09:32:23Z</time>
      </trkpt>
      <trkpt lat="42.340642" lon="-3.911762">
        <ele>831.634</ele>
        <time>2021-07-23T09:32:33Z</time>
      </trkpt>
      <trkpt lat="42.340652" lon="-3.911389">
        <ele>831.655</ele>
        <time>2021-07-23T09:32:42Z</time>
      </trkpt>
      <trkpt lat="42.340664" lon="-3.910930">
        <ele>832.610</ele>
        <time>2021-07-23T09:32:53Z</time>
      </trkpt>
      <trkpt lat="42.340666" lon="-3.910478">
        <ele>833.108</ele>
        <time>2021-07-23T09:33:04Z</time>
      </trkpt>
      <trkpt lat="42.340683" lon="-3.910070">
        <ele>833.130</ele>
        <time>2021-07-23T09:33:14Z</time>
      </trkpt>
      <trkpt lat="42.340692" lon="-3.909633">
        <ele>834.092</ele>
        <time>2021-07-23T09:33:25Z</time>
      </trkpt>
      <trkpt lat="42.340719" lon="-3.909322">
        <ele>835.059</ele>
        <time>2021-07-23T09:33:33Z</time>
      </trkpt>
      <trkpt lat="42.340700" lon="-3.909075">
        <ele>836.069</ele>
        <time>2021-07-23T09:33:40Z</time>
      </trkpt>
      <trkpt lat="42.340720" lon="-3.908808">
        <ele>836.923</ele>
        <time>2021-07-23T09:33:47Z</time>
      </trkpt>
      <trkpt lat="42.340698" lon="-3.908497">
        <ele>836.421</ele>
        <time>2021-07-23T09:33:54Z</time>
      </trkpt>
      <trkpt lat="42.340691" lon="-3.908127">
        <ele>836.428</ele>
        <time>2021-07-23T09:34:03Z</time>
      </trkpt>
      <trkpt lat="42.340709" lon="-3.907704">
        <ele>836.976</ele>
        <time>2021-07-23T09:34:13Z</time>
      </trkpt>
      <trkpt lat="42.340738" lon="-3.907200">
        <ele>837.411</ele>
        <time>2021-07-23T09:34:25Z</time>
      </trkpt>
      <trkpt lat="42.340704" lon="-3.906805">
        <ele>838.421</ele>
        <time>2021-07-23T09:34:35Z</time>
      </trkpt>
      <trkpt lat="42.340640" lon="-3.906419">
        <ele>838.803</ele>
        <time>2021-07-23T09:34:45Z</time>
      </trkpt>
      <trkpt lat="42.340588" lon="-3.906062">
        <ele>840.308</ele>
        <time>2021-07-23T09:34:55Z</time>
      </trkpt>
      <trkpt lat="42.340559" lon="-3.905668">
        <ele>841.778</ele>
        <time>2021-07-23T09:35:06Z</time>
      </trkpt>
      <trkpt lat="42.340566" lon="-3.905300">
        <ele>843.230</ele>
        <time>2021-07-23T09:35:16Z</time>
      </trkpt>
      <trkpt lat="42.340591" lon="-3.904870">
        <ele>844.667</ele>
        <time>2021-07-23T09:35:28Z</time>
      </trkpt>
      <trkpt lat="42.340652" lon="-3.904458">
        <ele>846.147</ele>
        <time>2021-07-23T09:35:40Z</time>
      </trkpt>
      <trkpt lat="42.340695" lon="-3.904104">
        <ele>847.531</ele>
        <time>2021-07-23T09:35:50Z</time>
      </trkpt>
      <trkpt lat="42.340714" lon="-3.903858">
        <ele>848.079</ele>
        <time>2021-07-23T09:35:58Z</time>
      </trkpt>
      <trkpt lat="42.340712" lon="-3.903626">
        <ele>848.936</ele>
        <time>2021-07-23T09:36:07Z</time>
      </trkpt>
      <trkpt lat="42.340708" lon="-3.903335">
        <ele>852.324</ele>
        <time>2021-07-23T09:36:18Z</time>
      </trkpt>
      <trkpt lat="42.340714" lon="-3.903122">
        <ele>855.237</ele>
        <time>2021-07-23T09:36:27Z</time>
      </trkpt>
      <trkpt lat="42.340712" lon="-3.902868">
        <ele>856.149</ele>
        <time>2021-07-23T09:36:37Z</time>
      </trkpt>
      <trkpt lat="42.340702" lon="-3.902602">
        <ele>857.113</ele>
        <time>2021-07-23T09:36:47Z</time>
      </trkpt>
      <trkpt lat="42.340689" lon="-3.902369">
        <ele>857.608</ele>
        <time>2021-07-23T09:36:56Z</time>
      </trkpt>
      <trkpt lat="42.340669" lon="-3.902068">
        <ele>858.160</ele>
        <time>2021-07-23T09:37:07Z</time>
      </trkpt>
      <trkpt lat="42.340666" lon="-3.901742">
        <ele>860.012</ele>
        <time>2021-07-23T09:37:19Z</time>
      </trkpt>
      <trkpt lat="42.340668" lon="-3.901466">
        <ele>861.069</ele>
        <time>2021-07-23T09:37:29Z</time>
      </trkpt>
      <trkpt lat="42.340673" lon="-3.901256">
        <ele>861.449</ele>
        <time>2021-07-23T09:37:38Z</time>
      </trkpt>
      <trkpt lat="42.340681" lon="-3.901028">
        <ele>862.933</ele>
        <time>2021-07-23T09:37:50Z</time>
      </trkpt>
      <trkpt lat="42.340696" lon="-3.900789">
        <ele>864.861</ele>
        <time>2021-07-23T09:38:02Z</time>
      </trkpt>
      <trkpt lat="42.340694" lon="-3.900579">
        <ele>866.778</ele>
        <time>2021-07-23T09:38:12Z</time>
      </trkpt>
      <trkpt lat="42.340698" lon="-3.900319">
        <ele>868.246</ele>
        <time>2021-07-23T09:38:24Z</time>
      </trkpt>
      <trkpt lat="42.340691" lon="-3.900048">
        <ele>870.617</ele>
        <time>2021-07-23T09:38:36Z</time>
      </trkpt>
      <trkpt lat="42.340683" lon="-3.899817">
        <ele>872.587</ele>
        <time>2021-07-23T09:38:47Z</time>
      </trkpt>
      <trkpt lat="42.340670" lon="-3.899627">
        <ele>873.015</ele>
        <time>2021-07-23T09:38:57Z</time>
      </trkpt>
      <trkpt lat="42.340663" lon="-3.899462">
        <ele>874.408</ele>
        <time>2021-07-23T09:39:06Z</time>
      </trkpt>
      <trkpt lat="42.340656" lon="-3.899297">
        <ele>875.438</ele>
        <time>2021-07-23T09:39:14Z</time>
      </trkpt>
      <trkpt lat="42.340664" lon="-3.899144">
        <ele>876.390</ele>
        <time>2021-07-23T09:39:22Z</time>
      </trkpt>
      <trkpt lat="42.340665" lon="-3.899011">
        <ele>877.387</ele>
        <time>2021-07-23T09:39:30Z</time>
      </trkpt>
      <trkpt lat="42.340676" lon="-3.898878">
        <ele>879.267</ele>
        <time>2021-07-23T09:39:39Z</time>
      </trkpt>
      <trkpt lat="42.340700" lon="-3.898724">
        <ele>881.181</ele>
        <time>2021-07-23T09:39:49Z</time>
      </trkpt>
      <trkpt lat="42.340744" lon="-3.898573">
        <ele>882.689</ele>
        <time>2021-07-23T09:39:59Z</time>
      </trkpt>
      <trkpt lat="42.340777" lon="-3.898443">
        <ele>884.066</ele>
        <time>2021-07-23T09:40:08Z</time>
      </trkpt>
      <trkpt lat="42.340814" lon="-3.898336">
        <ele>885.064</ele>
        <time>2021-07-23T09:40:16Z</time>
      </trkpt>
      <trkpt lat="42.340840" lon="-3.898223">
        <ele>885.588</ele>
        <time>2021-07-23T09:40:24Z</time>
      </trkpt>
      <trkpt lat="42.340878" lon="-3.898091">
        <ele>886.924</ele>
        <time>2021-07-23T09:40:34Z</time>
      </trkpt>
      <trkpt lat="42.340904" lon="-3.897978">
        <ele>888.426</ele>
        <time>2021-07-23T09:40:42Z</time>
      </trkpt>
      <trkpt lat="42.340940" lon="-3.897837">
        <ele>890.308</ele>
        <time>2021-07-23T09:40:52Z</time>
      </trkpt>
      <trkpt lat="42.340967" lon="-3.897700">
        <ele>891.745</ele>
        <time>2021-07-23T09:41:02Z</time>
      </trkpt>
      <trkpt lat="42.340966" lon="-3.897561">
        <ele>893.267</ele>
        <time>2021-07-23T09:41:13Z</time>
      </trkpt>
      <trkpt lat="42.340962" lon="-3.897466">
        <ele>895.174</ele>
        <time>2021-07-23T09:41:21Z</time>
      </trkpt>
      <trkpt lat="42.340957" lon="-3.897331">
        <ele>896.514</ele>
        <time>2021-07-23T09:41:30Z</time>
      </trkpt>
      <trkpt lat="42.340946" lon="-3.897207">
        <ele>897.598</ele>
        <time>2021-07-23T09:41:39Z</time>
      </trkpt>
      <trkpt lat="42.340941" lon="-3.897136">
        <ele>898.066</ele>
        <time>2021-07-23T09:41:44Z</time>
      </trkpt>
      <trkpt lat="42.340939" lon="-3.897107">
        <ele>898.473</ele>
        <time>2021-07-23T09:41:46Z</time>
      </trkpt>
      <trkpt lat="42.340936" lon="-3.897095">
        <ele>898.411</ele>
        <time>2021-07-23T09:41:47Z</time>
      </trkpt>
      <trkpt lat="42.340938" lon="-3.897082">
        <ele>898.431</ele>
        <time>2021-07-23T09:41:48Z</time>
      </trkpt>
      <trkpt lat="42.340938" lon="-3.897068">
        <ele>898.461</ele>
        <time>2021-07-23T09:41:49Z</time>
      </trkpt>
      <trkpt lat="42.340935" lon="-3.897053">
        <ele>898.907</ele>
        <time>2021-07-23T09:41:50Z</time>
      </trkpt>
      <trkpt lat="42.340933" lon="-3.897039">
        <ele>898.908</ele>
        <time>2021-07-23T09:41:51Z</time>
      </trkpt>
      <trkpt lat="42.340933" lon="-3.897025">
        <ele>898.930</ele>
        <time>2021-07-23T09:41:52Z</time>
      </trkpt>
      <trkpt lat="42.340931" lon="-3.896899">
        <ele>900.482</ele>
        <time>2021-07-23T09:42:01Z</time>
      </trkpt>
      <trkpt lat="42.340915" lon="-3.896765">
        <ele>902.349</ele>
        <time>2021-07-23T09:42:10Z</time>
      </trkpt>
      <trkpt lat="42.340899" lon="-3.896648">
        <ele>904.299</ele>
        <time>2021-07-23T09:42:18Z</time>
      </trkpt>
      <trkpt lat="42.340893" lon="-3.896525">
        <ele>905.773</ele>
        <time>2021-07-23T09:42:26Z</time>
      </trkpt>
      <trkpt lat="42.340870" lon="-3.896386">
        <ele>907.691</ele>
        <time>2021-07-23T09:42:35Z</time>
      </trkpt>
      <trkpt lat="42.340862" lon="-3.896264">
        <ele>909.058</ele>
        <time>2021-07-23T09:42:43Z</time>
      </trkpt>
      <trkpt lat="42.340862" lon="-3.896127">
        <ele>910.586</ele>
        <time>2021-07-23T09:42:52Z</time>
      </trkpt>
      <trkpt lat="42.340866" lon="-3.896034">
        <ele>911.469</ele>
        <time>2021-07-23T09:42:59Z</time>
      </trkpt>
      <trkpt lat="42.340867" lon="-3.896041">
        <ele>911.404</ele>
        <time>2021-07-23T09:43:05Z</time>
      </trkpt>
      <trkpt lat="42.340866" lon="-3.896018">
        <ele>911.924</ele>
        <time>2021-07-23T09:43:13Z</time>
      </trkpt>
      <trkpt lat="42.340870" lon="-3.896002">
        <ele>911.908</ele>
        <time>2021-07-23T09:43:29Z</time>
      </trkpt>
      <trkpt lat="42.340864" lon="-3.895998">
        <ele>911.433</ele>
        <time>2021-07-23T09:43:37Z</time>
      </trkpt>
      <trkpt lat="42.340861" lon="-3.895996">
        <ele>911.975</ele>
        <time>2021-07-23T09:43:54Z</time>
      </trkpt>
      <trkpt lat="42.340865" lon="-3.895996">
        <ele>911.472</ele>
        <time>2021-07-23T09:44:05Z</time>
      </trkpt>
      <trkpt lat="42.340882" lon="-3.895926">
        <ele>912.432</ele>
        <time>2021-07-23T09:44:14Z</time>
      </trkpt>
      <trkpt lat="42.340895" lon="-3.895834">
        <ele>913.846</ele>
        <time>2021-07-23T09:44:25Z</time>
      </trkpt>
      <trkpt lat="42.340903" lon="-3.895740">
        <ele>914.344</ele>
        <time>2021-07-23T09:44:36Z</time>
      </trkpt>
      <trkpt lat="42.340913" lon="-3.895645">
        <ele>915.331</ele>
        <time>2021-07-23T09:44:46Z</time>
      </trkpt>
      <trkpt lat="42.340936" lon="-3.895533">
        <ele>917.229</ele>
        <time>2021-07-23T09:44:57Z</time>
      </trkpt>
      <trkpt lat="42.340949" lon="-3.895483">
        <ele>919.145</ele>
        <time>2021-07-23T09:45:07Z</time>
      </trkpt>
      <trkpt lat="42.340956" lon="-3.895481">
        <ele>920.147</ele>
        <time>2021-07-23T09:45:25Z</time>
      </trkpt>
      <trkpt lat="42.340963" lon="-3.895471">
        <ele>920.611</ele>
        <time>2021-07-23T09:45:43Z</time>
      </trkpt>
      <trkpt lat="42.340984" lon="-3.895341">
        <ele>921.508</ele>
        <time>2021-07-23T09:45:54Z</time>
      </trkpt>
      <trkpt lat="42.341019" lon="-3.895183">
        <ele>923.011</ele>
        <time>2021-07-23T09:46:06Z</time>
      </trkpt>
      <trkpt lat="42.341027" lon="-3.895146">
        <ele>923.423</ele>
        <time>2021-07-23T09:46:13Z</time>
      </trkpt>
      <trkpt lat="42.341038" lon="-3.895138">
        <ele>922.010</ele>
        <time>2021-07-23T09:46:33Z</time>
      </trkpt>
      <trkpt lat="42.341037" lon="-3.895139">
        <ele>922.060</ele>
        <time>2021-07-23T09:47:00Z</time>
      </trkpt>
      <trkpt lat="42.341033" lon="-3.895144">
        <ele>922.084</ele>
        <time>2021-07-23T09:47:18Z</time>
      </trkpt>
      <trkpt lat="42.341037" lon="-3.895094">
        <ele>921.572</ele>
        <time>2021-07-23T09:47:34Z</time>
      </trkpt>
      <trkpt lat="42.341084" lon="-3.894899">
        <ele>923.929</ele>
        <time>2021-07-23T09:47:47Z</time>
      </trkpt>
      <trkpt lat="42.341082" lon="-3.894886">
        <ele>923.927</ele>
        <time>2021-07-23T09:47:48Z</time>
      </trkpt>
      <trkpt lat="42.341080" lon="-3.894871">
        <ele>923.998</ele>
        <time>2021-07-23T09:47:49Z</time>
      </trkpt>
      <trkpt lat="42.341083" lon="-3.894860">
        <ele>923.915</ele>
        <time>2021-07-23T09:47:55Z</time>
      </trkpt>
      <trkpt lat="42.341079" lon="-3.894876">
        <ele>923.926</ele>
        <time>2021-07-23T09:48:20Z</time>
      </trkpt>
      <trkpt lat="42.341078" lon="-3.894869">
        <ele>923.908</ele>
        <time>2021-07-23T09:48:37Z</time>
      </trkpt>
      <trkpt lat="42.341078" lon="-3.894866">
        <ele>924.496</ele>
        <time>2021-07-23T09:48:52Z</time>
      </trkpt>
      <trkpt lat="42.341070" lon="-3.894871">
        <ele>924.458</ele>
        <time>2021-07-23T09:49:16Z</time>
      </trkpt>
      <trkpt lat="42.341076" lon="-3.894859">
        <ele>924.915</ele>
        <time>2021-07-23T09:49:20Z</time>
      </trkpt>
      <trkpt lat="42.341082" lon="-3.894845">
        <ele>924.965</ele>
        <time>2021-07-23T09:49:21Z</time>
      </trkpt>
      <trkpt lat="42.341088" lon="-3.894828">
        <ele>924.979</ele>
        <time>2021-07-23T09:49:22Z</time>
      </trkpt>
      <trkpt lat="42.341094" lon="-3.894807">
        <ele>924.987</ele>
        <time>2021-07-23T09:49:23Z</time>
      </trkpt>
      <trkpt lat="42.341099" lon="-3.894779">
        <ele>924.964</ele>
        <time>2021-07-23T09:49:24Z</time>
      </trkpt>
      <trkpt lat="42.341148" lon="-3.894612">
        <ele>924.962</ele>
        <time>2021-07-23T09:49:31Z</time>
      </trkpt>
      <trkpt lat="42.341209" lon="-3.894307">
        <ele>925.499</ele>
        <time>2021-07-23T09:49:41Z</time>
      </trkpt>
      <trkpt lat="42.341304" lon="-3.894007">
        <ele>925.407</ele>
        <time>2021-07-23T09:49:50Z</time>
      </trkpt>
      <trkpt lat="42.341405" lon="-3.893712">
        <ele>924.927</ele>
        <time>2021-07-23T09:49:58Z</time>
      </trkpt>
      <trkpt lat="42.341563" lon="-3.893211">
        <ele>923.408</ele>
        <time>2021-07-23T09:50:09Z</time>
      </trkpt>
      <trkpt lat="42.341693" lon="-3.892643">
        <ele>922.566</ele>
        <time>2021-07-23T09:50:19Z</time>
      </trkpt>
      <trkpt lat="42.341872" lon="-3.891908">
        <ele>921.518</ele>
        <time>2021-07-23T09:50:31Z</time>
      </trkpt>
      <trkpt lat="42.342058" lon="-3.891307">
        <ele>921.025</ele>
        <time>2021-07-23T09:50:41Z</time>
      </trkpt>
      <trkpt lat="42.342110" lon="-3.891117">
        <ele>920.635</ele>
        <time>2021-07-23T09:50:44Z</time>
      </trkpt>
      <trkpt lat="42.342212" lon="-3.890553">
        <ele>919.169</ele>
        <time>2021-07-23T09:50:52Z</time>
      </trkpt>
      <trkpt lat="42.342314" lon="-3.889911">
        <ele>919.197</ele>
        <time>2021-07-23T09:51:02Z</time>
      </trkpt>
      <trkpt lat="42.342344" lon="-3.889693">
        <ele>919.134</ele>
        <time>2021-07-23T09:51:06Z</time>
      </trkpt>
      <trkpt lat="42.342353" lon="-3.889641">
        <ele>919.122</ele>
        <time>2021-07-23T09:51:07Z</time>
      </trkpt>
      <trkpt lat="42.342418" lon="-3.889121">
        <ele>918.698</ele>
        <time>2021-07-23T09:51:17Z</time>
      </trkpt>
      <trkpt lat="42.342437" lon="-3.888693">
        <ele>919.615</ele>
        <time>2021-07-23T09:51:27Z</time>
      </trkpt>
      <trkpt lat="42.342438" lon="-3.888255">
        <ele>920.626</ele>
        <time>2021-07-23T09:51:39Z</time>
      </trkpt>
      <trkpt lat="42.342418" lon="-3.887815">
        <ele>921.008</ele>
        <time>2021-07-23T09:51:51Z</time>
      </trkpt>
      <trkpt lat="42.342398" lon="-3.887382">
        <ele>921.086</ele>
        <time>2021-07-23T09:52:02Z</time>
      </trkpt>
      <trkpt lat="42.342387" lon="-3.886985">
        <ele>921.518</ele>
        <time>2021-07-23T09:52:12Z</time>
      </trkpt>
      <trkpt lat="42.342381" lon="-3.886612">
        <ele>922.575</ele>
        <time>2021-07-23T09:52:21Z</time>
      </trkpt>
      <trkpt lat="42.342348" lon="-3.886271">
        <ele>922.555</ele>
        <time>2021-07-23T09:52:30Z</time>
      </trkpt>
      <trkpt lat="42.342331" lon="-3.886007">
        <ele>923.099</ele>
        <time>2021-07-23T09:52:37Z</time>
      </trkpt>
      <trkpt lat="42.342300" lon="-3.885671">
        <ele>923.087</ele>
        <time>2021-07-23T09:52:45Z</time>
      </trkpt>
      <trkpt lat="42.342240" lon="-3.885246">
        <ele>922.564</ele>
        <time>2021-07-23T09:52:55Z</time>
      </trkpt>
      <trkpt lat="42.342181" lon="-3.884886">
        <ele>923.052</ele>
        <time>2021-07-23T09:53:04Z</time>
      </trkpt>
      <trkpt lat="42.342122" lon="-3.884540">
        <ele>923.453</ele>
        <time>2021-07-23T09:53:14Z</time>
      </trkpt>
      <trkpt lat="42.342079" lon="-3.884293">
        <ele>922.504</ele>
        <time>2021-07-23T09:53:21Z</time>
      </trkpt>
      <trkpt lat="42.342022" lon="-3.883918">
        <ele>921.514</ele>
        <time>2021-07-23T09:53:29Z</time>
      </trkpt>
      <trkpt lat="42.342002" lon="-3.883591">
        <ele>921.008</ele>
        <time>2021-07-23T09:53:37Z</time>
      </trkpt>
      <trkpt lat="42.341978" lon="-3.883234">
        <ele>919.622</ele>
        <time>2021-07-23T09:53:46Z</time>
      </trkpt>
      <trkpt lat="42.341982" lon="-3.882832">
        <ele>919.124</ele>
        <time>2021-07-23T09:53:56Z</time>
      </trkpt>
      <trkpt lat="42.341975" lon="-3.882456">
        <ele>918.611</ele>
        <time>2021-07-23T09:54:05Z</time>
      </trkpt>
      <trkpt lat="42.341937" lon="-3.882000">
        <ele>917.781</ele>
        <time>2021-07-23T09:54:16Z</time>
      </trkpt>
      <trkpt lat="42.341877" lon="-3.881563">
        <ele>916.795</ele>
        <time>2021-07-23T09:54:26Z</time>
      </trkpt>
      <trkpt lat="42.341839" lon="-3.881085">
        <ele>916.243</ele>
        <time>2021-07-23T09:54:37Z</time>
      </trkpt>
      <trkpt lat="42.341827" lon="-3.880739">
        <ele>914.850</ele>
        <time>2021-07-23T09:54:45Z</time>
      </trkpt>
      <trkpt lat="42.341801" lon="-3.880431">
        <ele>913.828</ele>
        <time>2021-07-23T09:54:52Z</time>
      </trkpt>
      <trkpt lat="42.341752" lon="-3.880074">
        <ele>913.332</ele>
        <time>2021-07-23T09:55:01Z</time>
      </trkpt>
      <trkpt lat="42.341716" lon="-3.879932">
        <ele>912.992</ele>
        <time>2021-07-23T09:55:08Z</time>
      </trkpt>
      <trkpt lat="42.341709" lon="-3.879923">
        <ele>911.911</ele>
        <time>2021-07-23T09:55:14Z</time>
      </trkpt>
      <trkpt lat="42.341703" lon="-3.879890">
        <ele>911.408</ele>
        <time>2021-07-23T09:55:19Z</time>
      </trkpt>
      <trkpt lat="42.341700" lon="-3.879867">
        <ele>911.490</ele>
        <time>2021-07-23T09:55:20Z</time>
      </trkpt>
      <trkpt lat="42.341674" lon="-3.879700">
        <ele>910.542</ele>
        <time>2021-07-23T09:55:27Z</time>
      </trkpt>
      <trkpt lat="42.341666" lon="-3.879479">
        <ele>909.549</ele>
        <time>2021-07-23T09:55:34Z</time>
      </trkpt>
      <trkpt lat="42.341659" lon="-3.879279">
        <ele>908.519</ele>
        <time>2021-07-23T09:55:41Z</time>
      </trkpt>
      <trkpt lat="42.341615" lon="-3.879078">
        <ele>907.143</ele>
        <time>2021-07-23T09:55:49Z</time>
      </trkpt>
      <trkpt lat="42.341637" lon="-3.878847">
        <ele>906.181</ele>
        <time>2021-07-23T09:55:55Z</time>
      </trkpt>
      <trkpt lat="42.341692" lon="-3.878642">
        <ele>905.728</ele>
        <time>2021-07-23T09:55:59Z</time>
      </trkpt>
      <trkpt lat="42.341778" lon="-3.878238">
        <ele>904.296</ele>
        <time>2021-07-23T09:56:06Z</time>
      </trkpt>
      <trkpt lat="42.341856" lon="-3.877724">
        <ele>902.354</ele>
        <time>2021-07-23T09:56:14Z</time>
      </trkpt>
      <trkpt lat="42.341908" lon="-3.877323">
        <ele>900.856</ele>
        <time>2021-07-23T09:56:22Z</time>
      </trkpt>
      <trkpt lat="42.341923" lon="-3.876924">
        <ele>898.911</ele>
        <time>2021-07-23T09:56:29Z</time>
      </trkpt>
      <trkpt lat="42.341898" lon="-3.876403">
        <ele>898.008</ele>
        <time>2021-07-23T09:56:36Z</time>
      </trkpt>
      <trkpt lat="42.341844" lon="-3.875927">
        <ele>895.142</ele>
        <time>2021-07-23T09:56:44Z</time>
      </trkpt>
      <trkpt lat="42.341804" lon="-3.875410">
        <ele>893.264</ele>
        <time>2021-07-23T09:56:52Z</time>
      </trkpt>
      <trkpt lat="42.341819" lon="-3.875098">
        <ele>893.211</ele>
        <time>2021-07-23T09:56:59Z</time>
      </trkpt>
      <trkpt lat="42.341860" lon="-3.874963">
        <ele>893.251</ele>
        <time>2021-07-23T09:57:05Z</time>
      </trkpt>
      <trkpt lat="42.342003" lon="-3.874664">
        <ele>891.755</ele>
        <time>2021-07-23T09:57:13Z</time>
      </trkpt>
      <trkpt lat="42.342014" lon="-3.874614">
        <ele>891.263</ele>
        <time>2021-07-23T09:57:14Z</time>
      </trkpt>
      <trkpt lat="42.342029" lon="-3.874318">
        <ele>889.380</ele>
        <time>2021-07-23T09:57:20Z</time>
      </trkpt>
      <trkpt lat="42.342015" lon="-3.874003">
        <ele>887.428</ele>
        <time>2021-07-23T09:57:27Z</time>
      </trkpt>
      <trkpt lat="42.342017" lon="-3.873828">
        <ele>886.915</ele>
        <time>2021-07-23T09:57:30Z</time>
      </trkpt>
      <trkpt lat="42.342008" lon="-3.873569">
        <ele>886.465</ele>
        <time>2021-07-23T09:57:34Z</time>
      </trkpt>
      <trkpt lat="42.342002" lon="-3.873501">
        <ele>885.911</ele>
        <time>2021-07-23T09:57:35Z</time>
      </trkpt>
      <trkpt lat="42.341997" lon="-3.873433">
        <ele>885.908</ele>
        <time>2021-07-23T09:57:36Z</time>
      </trkpt>
      <trkpt lat="42.341987" lon="-3.873362">
        <ele>885.548</ele>
        <time>2021-07-23T09:57:37Z</time>
      </trkpt>
      <trkpt lat="42.341976" lon="-3.873293">
        <ele>885.070</ele>
        <time>2021-07-23T09:57:38Z</time>
      </trkpt>
      <trkpt lat="42.341875" lon="-3.872796">
        <ele>885.557</ele>
        <time>2021-07-23T09:57:46Z</time>
      </trkpt>
      <trkpt lat="42.341869" lon="-3.872737">
        <ele>885.557</ele>
        <time>2021-07-23T09:57:47Z</time>
      </trkpt>
      <trkpt lat="42.341882" lon="-3.872263">
        <ele>884.051</ele>
        <time>2021-07-23T09:57:54Z</time>
      </trkpt>
      <trkpt lat="42.341896" lon="-3.871747">
        <ele>884.089</ele>
        <time>2021-07-23T09:58:01Z</time>
      </trkpt>
      <trkpt lat="42.341846" lon="-3.871079">
        <ele>882.656</ele>
        <time>2021-07-23T09:58:11Z</time>
      </trkpt>
      <trkpt lat="42.341807" lon="-3.870686">
        <ele>882.174</ele>
        <time>2021-07-23T09:58:19Z</time>
      </trkpt>
      <trkpt lat="42.341762" lon="-3.870315">
        <ele>881.167</ele>
        <time>2021-07-23T09:58:26Z</time>
      </trkpt>
      <trkpt lat="42.341754" lon="-3.870254">
        <ele>881.181</ele>
        <time>2021-07-23T09:58:27Z</time>
      </trkpt>
      <trkpt lat="42.341683" lon="-3.869633">
        <ele>880.719</ele>
        <time>2021-07-23T09:58:38Z</time>
      </trkpt>
      <trkpt lat="42.341680" lon="-3.869576">
        <ele>880.708</ele>
        <time>2021-07-23T09:58:39Z</time>
      </trkpt>
      <trkpt lat="42.341644" lon="-3.869018">
        <ele>880.293</ele>
        <time>2021-07-23T09:58:50Z</time>
      </trkpt>
      <trkpt lat="42.341568" lon="-3.868526">
        <ele>880.765</ele>
        <time>2021-07-23T09:59:00Z</time>
      </trkpt>
      <trkpt lat="42.341495" lon="-3.868189">
        <ele>879.232</ele>
        <time>2021-07-23T09:59:08Z</time>
      </trkpt>
      <trkpt lat="42.341488" lon="-3.868135">
        <ele>878.772</ele>
        <time>2021-07-23T09:59:09Z</time>
      </trkpt>
      <trkpt lat="42.341481" lon="-3.868078">
        <ele>878.386</ele>
        <time>2021-07-23T09:59:10Z</time>
      </trkpt>
      <trkpt lat="42.341421" lon="-3.867649">
        <ele>876.384</ele>
        <time>2021-07-23T09:59:17Z</time>
      </trkpt>
      <trkpt lat="42.341384" lon="-3.867265">
        <ele>874.481</ele>
        <time>2021-07-23T09:59:24Z</time>
      </trkpt>
      <trkpt lat="42.341373" lon="-3.867144">
        <ele>873.589</ele>
        <time>2021-07-23T09:59:26Z</time>
      </trkpt>
      <trkpt lat="42.341356" lon="-3.866855">
        <ele>871.593</ele>
        <time>2021-07-23T09:59:32Z</time>
      </trkpt>
      <trkpt lat="42.341340" lon="-3.866597">
        <ele>871.065</ele>
        <time>2021-07-23T09:59:38Z</time>
      </trkpt>
      <trkpt lat="42.341294" lon="-3.866309">
        <ele>870.121</ele>
        <time>2021-07-23T09:59:46Z</time>
      </trkpt>
      <trkpt lat="42.341224" lon="-3.865903">
        <ele>869.108</ele>
        <time>2021-07-23T09:59:57Z</time>
      </trkpt>
      <trkpt lat="42.341160" lon="-3.865594">
        <ele>869.636</ele>
        <time>2021-07-23T10:00:05Z</time>
      </trkpt>
      <trkpt lat="42.341083" lon="-3.865299">
        <ele>868.288</ele>
        <time>2021-07-23T10:00:14Z</time>
      </trkpt>
      <trkpt lat="42.340972" lon="-3.865003">
        <ele>867.245</ele>
        <time>2021-07-23T10:00:23Z</time>
      </trkpt>
      <trkpt lat="42.340886" lon="-3.864748">
        <ele>866.785</ele>
        <time>2021-07-23T10:00:31Z</time>
      </trkpt>
      <trkpt lat="42.340766" lon="-3.864443">
        <ele>866.729</ele>
        <time>2021-07-23T10:00:40Z</time>
      </trkpt>
      <trkpt lat="42.340730" lon="-3.864123">
        <ele>866.727</ele>
        <time>2021-07-23T10:00:48Z</time>
      </trkpt>
      <trkpt lat="42.340739" lon="-3.863759">
        <ele>867.264</ele>
        <time>2021-07-23T10:00:55Z</time>
      </trkpt>
      <trkpt lat="42.340743" lon="-3.863704">
        <ele>866.732</ele>
        <time>2021-07-23T10:00:56Z</time>
      </trkpt>
      <trkpt lat="42.340754" lon="-3.863159">
        <ele>866.799</ele>
        <time>2021-07-23T10:01:06Z</time>
      </trkpt>
      <trkpt lat="42.340744" lon="-3.862619">
        <ele>866.207</ele>
        <time>2021-07-23T10:01:16Z</time>
      </trkpt>
      <trkpt lat="42.340734" lon="-3.862054">
        <ele>866.227</ele>
        <time>2021-07-23T10:01:26Z</time>
      </trkpt>
      <trkpt lat="42.340750" lon="-3.861564">
        <ele>865.308</ele>
        <time>2021-07-23T10:01:34Z</time>
      </trkpt>
      <trkpt lat="42.340819" lon="-3.860834">
        <ele>864.376</ele>
        <time>2021-07-23T10:01:44Z</time>
      </trkpt>
      <trkpt lat="42.340887" lon="-3.860024">
        <ele>862.918</ele>
        <time>2021-07-23T10:01:54Z</time>
      </trkpt>
      <trkpt lat="42.340885" lon="-3.859446">
        <ele>862.965</ele>
        <time>2021-07-23T10:02:02Z</time>
      </trkpt>
      <trkpt lat="42.340889" lon="-3.859197">
        <ele>862.925</ele>
        <time>2021-07-23T10:02:06Z</time>
      </trkpt>
      <trkpt lat="42.340910" lon="-3.858748">
        <ele>863.449</ele>
        <time>2021-07-23T10:02:15Z</time>
      </trkpt>
      <trkpt lat="42.340892" lon="-3.858470">
        <ele>864.857</ele>
        <time>2021-07-23T10:02:23Z</time>
      </trkpt>
      <trkpt lat="42.340887" lon="-3.858187">
        <ele>862.974</ele>
        <time>2021-07-23T10:02:30Z</time>
      </trkpt>
      <trkpt lat="42.340961" lon="-3.857604">
        <ele>861.422</ele>
        <time>2021-07-23T10:02:38Z</time>
      </trkpt>
      <trkpt lat="42.341053" lon="-3.856953">
        <ele>860.571</ele>
        <time>2021-07-23T10:02:47Z</time>
      </trkpt>
      <trkpt lat="42.341066" lon="-3.856822">
        <ele>860.541</ele>
        <time>2021-07-23T10:02:49Z</time>
      </trkpt>
      <trkpt lat="42.341071" lon="-3.856764">
        <ele>860.515</ele>
        <time>2021-07-23T10:02:50Z</time>
      </trkpt>
      <trkpt lat="42.341134" lon="-3.856191">
        <ele>860.008</ele>
        <time>2021-07-23T10:03:00Z</time>
      </trkpt>
      <trkpt lat="42.341149" lon="-3.856019">
        <ele>860.084</ele>
        <time>2021-07-23T10:03:03Z</time>
      </trkpt>
      <trkpt lat="42.341160" lon="-3.855966">
        <ele>860.076</ele>
        <time>2021-07-23T10:03:04Z</time>
      </trkpt>
      <trkpt lat="42.341168" lon="-3.855914">
        <ele>860.083</ele>
        <time>2021-07-23T10:03:05Z</time>
      </trkpt>
      <trkpt lat="42.341171" lon="-3.855863">
        <ele>859.583</ele>
        <time>2021-07-23T10:03:06Z</time>
      </trkpt>
      <trkpt lat="42.341176" lon="-3.855813">
        <ele>859.547</ele>
        <time>2021-07-23T10:03:07Z</time>
      </trkpt>
      <trkpt lat="42.341271" lon="-3.855346">
        <ele>860.035</ele>
        <time>2021-07-23T10:03:16Z</time>
      </trkpt>
      <trkpt lat="42.341304" lon="-3.855122">
        <ele>860.032</ele>
        <time>2021-07-23T10:03:20Z</time>
      </trkpt>
      <trkpt lat="42.341381" lon="-3.854552">
        <ele>860.030</ele>
        <time>2021-07-23T10:03:30Z</time>
      </trkpt>
      <trkpt lat="42.341403" lon="-3.854343">
        <ele>859.567</ele>
        <time>2021-07-23T10:03:33Z</time>
      </trkpt>
      <trkpt lat="42.341433" lon="-3.853643">
        <ele>858.181</ele>
        <time>2021-07-23T10:03:42Z</time>
      </trkpt>
      <trkpt lat="42.341361" lon="-3.853021">
        <ele>856.619</ele>
        <time>2021-07-23T10:03:50Z</time>
      </trkpt>
      <trkpt lat="42.341309" lon="-3.852467">
        <ele>854.708</ele>
        <time>2021-07-23T10:03:57Z</time>
      </trkpt>
      <trkpt lat="42.341291" lon="-3.851893">
        <ele>851.893</ele>
        <time>2021-07-23T10:04:04Z</time>
      </trkpt>
      <trkpt lat="42.341228" lon="-3.851214">
        <ele>848.065</ele>
        <time>2021-07-23T10:04:12Z</time>
      </trkpt>
      <trkpt lat="42.341149" lon="-3.850422">
        <ele>846.532</ele>
        <time>2021-07-23T10:04:21Z</time>
      </trkpt>
      <trkpt lat="42.341128" lon="-3.850261">
        <ele>846.582</ele>
        <time>2021-07-23T10:04:23Z</time>
      </trkpt>
      <trkpt lat="42.341113" lon="-3.850188">
        <ele>846.166</ele>
        <time>2021-07-23T10:04:24Z</time>
      </trkpt>
      <trkpt lat="42.341095" lon="-3.850123">
        <ele>846.164</ele>
        <time>2021-07-23T10:04:25Z</time>
      </trkpt>
      <trkpt lat="42.341075" lon="-3.850062">
        <ele>846.111</ele>
        <time>2021-07-23T10:04:26Z</time>
      </trkpt>
      <trkpt lat="42.341051" lon="-3.849999">
        <ele>845.679</ele>
        <time>2021-07-23T10:04:27Z</time>
      </trkpt>
      <trkpt lat="42.341024" lon="-3.849940">
        <ele>845.697</ele>
        <time>2021-07-23T10:04:28Z</time>
      </trkpt>
      <trkpt lat="42.340992" lon="-3.849880">
        <ele>845.623</ele>
        <time>2021-07-23T10:04:29Z</time>
      </trkpt>
      <trkpt lat="42.340958" lon="-3.849828">
        <ele>845.625</ele>
        <time>2021-07-23T10:04:30Z</time>
      </trkpt>
      <trkpt lat="42.340921" lon="-3.849777">
        <ele>845.608</ele>
        <time>2021-07-23T10:04:31Z</time>
      </trkpt>
      <trkpt lat="42.340763" lon="-3.849515">
        <ele>845.136</ele>
        <time>2021-07-23T10:04:36Z</time>
      </trkpt>
      <trkpt lat="42.340740" lon="-3.849455">
        <ele>845.128</ele>
        <time>2021-07-23T10:04:37Z</time>
      </trkpt>
      <trkpt lat="42.340701" lon="-3.849332">
        <ele>845.125</ele>
        <time>2021-07-23T10:04:39Z</time>
      </trkpt>
      <trkpt lat="42.340598" lon="-3.848729">
        <ele>845.125</ele>
        <time>2021-07-23T10:04:49Z</time>
      </trkpt>
      <trkpt lat="42.340532" lon="-3.848162">
        <ele>844.139</ele>
        <time>2021-07-23T10:04:59Z</time>
      </trkpt>
      <trkpt lat="42.340448" lon="-3.847412">
        <ele>843.617</ele>
        <time>2021-07-23T10:05:12Z</time>
      </trkpt>
      <trkpt lat="42.340384" lon="-3.846753">
        <ele>843.274</ele>
        <time>2021-07-23T10:05:23Z</time>
      </trkpt>
      <trkpt lat="42.340359" lon="-3.846450">
        <ele>842.792</ele>
        <time>2021-07-23T10:05:28Z</time>
      </trkpt>
      <trkpt lat="42.340367" lon="-3.846012">
        <ele>842.742</ele>
        <time>2021-07-23T10:05:35Z</time>
      </trkpt>
      <trkpt lat="42.340371" lon="-3.845961">
        <ele>842.722</ele>
        <time>2021-07-23T10:05:36Z</time>
      </trkpt>
      <trkpt lat="42.340372" lon="-3.845571">
        <ele>844.114</ele>
        <time>2021-07-23T10:05:44Z</time>
      </trkpt>
      <trkpt lat="42.340333" lon="-3.845071">
        <ele>844.108</ele>
        <time>2021-07-23T10:05:55Z</time>
      </trkpt>
      <trkpt lat="42.340248" lon="-3.844469">
        <ele>843.621</ele>
        <time>2021-07-23T10:06:06Z</time>
      </trkpt>
      <trkpt lat="42.340181" lon="-3.843827">
        <ele>842.273</ele>
        <time>2021-07-23T10:06:17Z</time>
      </trkpt>
      <trkpt lat="42.340171" lon="-3.843697">
        <ele>841.740</ele>
        <time>2021-07-23T10:06:19Z</time>
      </trkpt>
      <trkpt lat="42.340222" lon="-3.843009">
        <ele>840.840</ele>
        <time>2021-07-23T10:06:29Z</time>
      </trkpt>
      <trkpt lat="42.340284" lon="-3.842542">
        <ele>839.364</ele>
        <time>2021-07-23T10:06:36Z</time>
      </trkpt>
      <trkpt lat="42.340343" lon="-3.841935">
        <ele>836.072</ele>
        <time>2021-07-23T10:06:45Z</time>
      </trkpt>
      <trkpt lat="42.340429" lon="-3.841263">
        <ele>833.189</ele>
        <time>2021-07-23T10:06:54Z</time>
      </trkpt>
      <trkpt lat="42.340428" lon="-3.840883">
        <ele>833.197</ele>
        <time>2021-07-23T10:07:01Z</time>
      </trkpt>
      <trkpt lat="42.340469" lon="-3.840255">
        <ele>832.668</ele>
        <time>2021-07-23T10:07:12Z</time>
      </trkpt>
      <trkpt lat="42.340430" lon="-3.839688">
        <ele>832.642</ele>
        <time>2021-07-23T10:07:22Z</time>
      </trkpt>
      <trkpt lat="42.340377" lon="-3.839308">
        <ele>833.126</ele>
        <time>2021-07-23T10:07:29Z</time>
      </trkpt>
      <trkpt lat="42.340284" lon="-3.838825">
        <ele>834.508</ele>
        <time>2021-07-23T10:07:38Z</time>
      </trkpt>
      <trkpt lat="42.340242" lon="-3.838516">
        <ele>834.013</ele>
        <time>2021-07-23T10:07:45Z</time>
      </trkpt>
      <trkpt lat="42.340236" lon="-3.838169">
        <ele>833.665</ele>
        <time>2021-07-23T10:07:54Z</time>
      </trkpt>
      <trkpt lat="42.340250" lon="-3.837861">
        <ele>832.192</ele>
        <time>2021-07-23T10:08:03Z</time>
      </trkpt>
      <trkpt lat="42.340263" lon="-3.837570">
        <ele>831.612</ele>
        <time>2021-07-23T10:08:14Z</time>
      </trkpt>
      <trkpt lat="42.340266" lon="-3.837551">
        <ele>831.696</ele>
        <time>2021-07-23T10:08:15Z</time>
      </trkpt>
      <trkpt lat="42.340265" lon="-3.837530">
        <ele>831.674</ele>
        <time>2021-07-23T10:08:16Z</time>
      </trkpt>
      <trkpt lat="42.340274" lon="-3.837443">
        <ele>831.641</ele>
        <time>2021-07-23T10:08:21Z</time>
      </trkpt>
      <trkpt lat="42.340272" lon="-3.837425">
        <ele>831.659</ele>
        <time>2021-07-23T10:08:22Z</time>
      </trkpt>
      <trkpt lat="42.340270" lon="-3.837408">
        <ele>831.649</ele>
        <time>2021-07-23T10:08:23Z</time>
      </trkpt>
      <trkpt lat="42.340268" lon="-3.837388">
        <ele>831.602</ele>
        <time>2021-07-23T10:08:24Z</time>
      </trkpt>
      <trkpt lat="42.340265" lon="-3.837369">
        <ele>832.122</ele>
        <time>2021-07-23T10:08:25Z</time>
      </trkpt>
      <trkpt lat="42.340232" lon="-3.837156">
        <ele>832.108</ele>
        <time>2021-07-23T10:08:35Z</time>
      </trkpt>
      <trkpt lat="42.340224" lon="-3.837141">
        <ele>832.631</ele>
        <time>2021-07-23T10:08:36Z</time>
      </trkpt>
      <trkpt lat="42.340218" lon="-3.837125">
        <ele>832.613</ele>
        <time>2021-07-23T10:08:37Z</time>
      </trkpt>
      <trkpt lat="42.340213" lon="-3.837106">
        <ele>832.630</ele>
        <time>2021-07-23T10:08:38Z</time>
      </trkpt>
      <trkpt lat="42.340177" lon="-3.836950">
        <ele>832.680</ele>
        <time>2021-07-23T10:08:47Z</time>
      </trkpt>
      <trkpt lat="42.340144" lon="-3.836794">
        <ele>833.114</ele>
        <time>2021-07-23T10:08:58Z</time>
      </trkpt>
      <trkpt lat="42.340118" lon="-3.836577">
        <ele>833.142</ele>
        <time>2021-07-23T10:09:08Z</time>
      </trkpt>
      <trkpt lat="42.340101" lon="-3.836376">
        <ele>834.589</ele>
        <time>2021-07-23T10:09:17Z</time>
      </trkpt>
      <trkpt lat="42.340079" lon="-3.836175">
        <ele>835.067</ele>
        <time>2021-07-23T10:09:27Z</time>
      </trkpt>
      <trkpt lat="42.340026" lon="-3.835887">
        <ele>835.567</ele>
        <time>2021-07-23T10:09:36Z</time>
      </trkpt>
      <trkpt lat="42.339959" lon="-3.835625">
        <ele>836.981</ele>
        <time>2021-07-23T10:09:45Z</time>
      </trkpt>
      <trkpt lat="42.339913" lon="-3.835404">
        <ele>837.419</ele>
        <time>2021-07-23T10:09:54Z</time>
      </trkpt>
      <trkpt lat="42.339971" lon="-3.835274">
        <ele>836.908</ele>
        <time>2021-07-23T10:10:01Z</time>
      </trkpt>
      <trkpt lat="42.340035" lon="-3.835150">
        <ele>836.043</ele>
        <time>2021-07-23T10:10:08Z</time>
      </trkpt>
      <trkpt lat="42.340075" lon="-3.834967">
        <ele>836.445</ele>
        <time>2021-07-23T10:10:17Z</time>
      </trkpt>
      <trkpt lat="42.340109" lon="-3.834752">
        <ele>836.012</ele>
        <time>2021-07-23T10:10:26Z</time>
      </trkpt>
      <trkpt lat="42.340151" lon="-3.834557">
        <ele>834.012</ele>
        <time>2021-07-23T10:10:33Z</time>
      </trkpt>
      <trkpt lat="42.340192" lon="-3.834418">
        <ele>832.196</ele>
        <time>2021-07-23T10:10:39Z</time>
      </trkpt>
      <trkpt lat="42.340198" lon="-3.834427">
        <ele>831.674</ele>
        <time>2021-07-23T10:10:42Z</time>
      </trkpt>
      <trkpt lat="42.340151" lon="-3.834611">
        <ele>832.131</ele>
        <time>2021-07-23T10:10:51Z</time>
      </trkpt>
      <trkpt lat="42.340099" lon="-3.834847">
        <ele>832.659</ele>
        <time>2021-07-23T10:10:59Z</time>
      </trkpt>
      <trkpt lat="42.340040" lon="-3.835074">
        <ele>835.539</ele>
        <time>2021-07-23T10:11:07Z</time>
      </trkpt>
      <trkpt lat="42.339968" lon="-3.835123">
        <ele>836.001</ele>
        <time>2021-07-23T10:11:12Z</time>
      </trkpt>
      <trkpt lat="42.339909" lon="-3.835103">
        <ele>836.921</ele>
        <time>2021-07-23T10:11:16Z</time>
      </trkpt>
      <trkpt lat="42.339856" lon="-3.835024">
        <ele>836.908</ele>
        <time>2021-07-23T10:11:21Z</time>
      </trkpt>
      <trkpt lat="42.339900" lon="-3.834789">
        <ele>835.080</ele>
        <time>2021-07-23T10:11:30Z</time>
      </trkpt>
      <trkpt lat="42.339986" lon="-3.834578">
        <ele>832.112</ele>
        <time>2021-07-23T10:11:38Z</time>
      </trkpt>
      <trkpt lat="42.340087" lon="-3.834378">
        <ele>829.769</ele>
        <time>2021-07-23T10:11:45Z</time>
      </trkpt>
      <trkpt lat="42.340122" lon="-3.834294">
        <ele>829.249</ele>
        <time>2021-07-23T10:11:48Z</time>
      </trkpt>
      <trkpt lat="42.340151" lon="-3.834251">
        <ele>829.243</ele>
        <time>2021-07-23T10:11:50Z</time>
      </trkpt>
      <trkpt lat="42.340277" lon="-3.834247">
        <ele>830.211</ele>
        <time>2021-07-23T10:11:56Z</time>
      </trkpt>
      <trkpt lat="42.340479" lon="-3.834334">
        <ele>829.738</ele>
        <time>2021-07-23T10:12:07Z</time>
      </trkpt>
      <trkpt lat="42.340522" lon="-3.834342">
        <ele>829.756</ele>
        <time>2021-07-23T10:12:14Z</time>
      </trkpt>
      <trkpt lat="42.340527" lon="-3.834362">
        <ele>831.241</ele>
        <time>2021-07-23T10:12:29Z</time>
      </trkpt>
      <trkpt lat="42.340523" lon="-3.834361">
        <ele>832.681</ele>
        <time>2021-07-23T10:12:51Z</time>
      </trkpt>
      <trkpt lat="42.340523" lon="-3.834359">
        <ele>832.109</ele>
        <time>2021-07-23T10:13:03Z</time>
      </trkpt>
      <trkpt lat="42.340550" lon="-3.834338">
        <ele>832.108</ele>
        <time>2021-07-23T10:13:09Z</time>
      </trkpt>
      <trkpt lat="42.340554" lon="-3.834306">
        <ele>832.161</ele>
        <time>2021-07-23T10:13:13Z</time>
      </trkpt>
      <trkpt lat="42.340542" lon="-3.834232">
        <ele>831.633</ele>
        <time>2021-07-23T10:13:17Z</time>
      </trkpt>
      <trkpt lat="42.340555" lon="-3.833994">
        <ele>831.660</ele>
        <time>2021-07-23T10:13:24Z</time>
      </trkpt>
      <trkpt lat="42.340598" lon="-3.833726">
        <ele>830.740</ele>
        <time>2021-07-23T10:13:31Z</time>
      </trkpt>
      <trkpt lat="42.340664" lon="-3.833534">
        <ele>829.774</ele>
        <time>2021-07-23T10:13:37Z</time>
      </trkpt>
      <trkpt lat="42.340809" lon="-3.833520">
        <ele>829.782</ele>
        <time>2021-07-23T10:13:44Z</time>
      </trkpt>
      <trkpt lat="42.341052" lon="-3.833479">
        <ele>829.769</ele>
        <time>2021-07-23T10:13:52Z</time>
      </trkpt>
      <trkpt lat="42.341334" lon="-3.833313">
        <ele>830.247</ele>
        <time>2021-07-23T10:14:01Z</time>
      </trkpt>
      <trkpt lat="42.341540" lon="-3.833024">
        <ele>829.755</ele>
        <time>2021-07-23T10:14:09Z</time>
      </trkpt>
      <trkpt lat="42.341828" lon="-3.832583">
        <ele>828.707</ele>
        <time>2021-07-23T10:14:20Z</time>
      </trkpt>
      <trkpt lat="42.342069" lon="-3.832201">
        <ele>828.717</ele>
        <time>2021-07-23T10:14:29Z</time>
      </trkpt>
      <trkpt lat="42.342318" lon="-3.831831">
        <ele>829.208</ele>
        <time>2021-07-23T10:14:38Z</time>
      </trkpt>
      <trkpt lat="42.342463" lon="-3.831643">
        <ele>829.712</ele>
        <time>2021-07-23T10:14:44Z</time>
      </trkpt>
      <trkpt lat="42.342602" lon="-3.831354">
        <ele>829.214</ele>
        <time>2021-07-23T10:14:52Z</time>
      </trkpt>
      <trkpt lat="42.342774" lon="-3.831097">
        <ele>829.721</ele>
        <time>2021-07-23T10:15:00Z</time>
      </trkpt>
      <trkpt lat="42.342990" lon="-3.830840">
        <ele>830.761</ele>
        <time>2021-07-23T10:15:08Z</time>
      </trkpt>
      <trkpt lat="42.343243" lon="-3.830553">
        <ele>830.765</ele>
        <time>2021-07-23T10:15:16Z</time>
      </trkpt>
      <trkpt lat="42.343607" lon="-3.830235">
        <ele>830.263</ele>
        <time>2021-07-23T10:15:26Z</time>
      </trkpt>
      <trkpt lat="42.343646" lon="-3.830206">
        <ele>830.270</ele>
        <time>2021-07-23T10:15:27Z</time>
      </trkpt>
      <trkpt lat="42.343682" lon="-3.830180">
        <ele>830.258</ele>
        <time>2021-07-23T10:15:28Z</time>
      </trkpt>
      <trkpt lat="42.343795" lon="-3.830101">
        <ele>830.216</ele>
        <time>2021-07-23T10:15:31Z</time>
      </trkpt>
      <trkpt lat="42.343835" lon="-3.830079">
        <ele>830.276</ele>
        <time>2021-07-23T10:15:32Z</time>
      </trkpt>
      <trkpt lat="42.343874" lon="-3.830059">
        <ele>830.713</ele>
        <time>2021-07-23T10:15:33Z</time>
      </trkpt>
      <trkpt lat="42.343986" lon="-3.829990">
        <ele>830.208</ele>
        <time>2021-07-23T10:15:36Z</time>
      </trkpt>
      <trkpt lat="42.344024" lon="-3.829972">
        <ele>830.288</ele>
        <time>2021-07-23T10:15:37Z</time>
      </trkpt>
      <trkpt lat="42.344433" lon="-3.829762">
        <ele>830.280</ele>
        <time>2021-07-23T10:15:48Z</time>
      </trkpt>
      <trkpt lat="42.344784" lon="-3.829610">
        <ele>830.217</ele>
        <time>2021-07-23T10:15:57Z</time>
      </trkpt>
      <trkpt lat="42.345236" lon="-3.829382">
        <ele>829.757</ele>
        <time>2021-07-23T10:16:09Z</time>
      </trkpt>
      <trkpt lat="42.345269" lon="-3.829353">
        <ele>829.231</ele>
        <time>2021-07-23T10:16:10Z</time>
      </trkpt>
      <trkpt lat="42.345340" lon="-3.829299">
        <ele>829.219</ele>
        <time>2021-07-23T10:16:12Z</time>
      </trkpt>
      <trkpt lat="42.345376" lon="-3.829267">
        <ele>829.276</ele>
        <time>2021-07-23T10:16:13Z</time>
      </trkpt>
      <trkpt lat="42.345414" lon="-3.829235">
        <ele>829.214</ele>
        <time>2021-07-23T10:16:14Z</time>
      </trkpt>
      <trkpt lat="42.345488" lon="-3.829169">
        <ele>828.738</ele>
        <time>2021-07-23T10:16:16Z</time>
      </trkpt>
      <trkpt lat="42.345527" lon="-3.829136">
        <ele>828.770</ele>
        <time>2021-07-23T10:16:17Z</time>
      </trkpt>
      <trkpt lat="42.345566" lon="-3.829099">
        <ele>828.717</ele>
        <time>2021-07-23T10:16:18Z</time>
      </trkpt>
      <trkpt lat="42.345643" lon="-3.829033">
        <ele>828.308</ele>
        <time>2021-07-23T10:16:20Z</time>
      </trkpt>
      <trkpt lat="42.345681" lon="-3.828995">
        <ele>828.380</ele>
        <time>2021-07-23T10:16:21Z</time>
      </trkpt>
      <trkpt lat="42.345815" lon="-3.828881">
        <ele>828.362</ele>
        <time>2021-07-23T10:16:24Z</time>
      </trkpt>
      <trkpt lat="42.345865" lon="-3.828851">
        <ele>828.389</ele>
        <time>2021-07-23T10:16:25Z</time>
      </trkpt>
      <trkpt lat="42.346095" lon="-3.828750">
        <ele>826.899</ele>
        <time>2021-07-23T10:16:29Z</time>
      </trkpt>
      <trkpt lat="42.346628" lon="-3.828651">
        <ele>824.483</ele>
        <time>2021-07-23T10:16:37Z</time>
      </trkpt>
      <trkpt lat="42.347271" lon="-3.828612">
        <ele>823.021</ele>
        <time>2021-07-23T10:16:46Z</time>
      </trkpt>
      <trkpt lat="42.347339" lon="-3.828599">
        <ele>823.028</ele>
        <time>2021-07-23T10:16:47Z</time>
      </trkpt>
      <trkpt lat="42.347406" lon="-3.828575">
        <ele>822.576</ele>
        <time>2021-07-23T10:16:48Z</time>
      </trkpt>
      <trkpt lat="42.347468" lon="-3.828547">
        <ele>822.518</ele>
        <time>2021-07-23T10:16:49Z</time>
      </trkpt>
      <trkpt lat="42.347529" lon="-3.828512">
        <ele>822.598</ele>
        <time>2021-07-23T10:16:50Z</time>
      </trkpt>
      <trkpt lat="42.347593" lon="-3.828463">
        <ele>822.517</ele>
        <time>2021-07-23T10:16:51Z</time>
      </trkpt>
      <trkpt lat="42.347637" lon="-3.828417">
        <ele>822.508</ele>
        <time>2021-07-23T10:16:52Z</time>
      </trkpt>
      <trkpt lat="42.347680" lon="-3.828353">
        <ele>822.588</ele>
        <time>2021-07-23T10:16:53Z</time>
      </trkpt>
      <trkpt lat="42.347716" lon="-3.828280">
        <ele>822.530</ele>
        <time>2021-07-23T10:16:54Z</time>
      </trkpt>
      <trkpt lat="42.347745" lon="-3.828207">
        <ele>823.057</ele>
        <time>2021-07-23T10:16:55Z</time>
      </trkpt>
      <trkpt lat="42.347768" lon="-3.828132">
        <ele>823.057</ele>
        <time>2021-07-23T10:16:56Z</time>
      </trkpt>
      <trkpt lat="42.347964" lon="-3.827445">
        <ele>823.941</ele>
        <time>2021-07-23T10:17:06Z</time>
      </trkpt>
      <trkpt lat="42.348133" lon="-3.826800">
        <ele>823.929</ele>
        <time>2021-07-23T10:17:17Z</time>
      </trkpt>
      <trkpt lat="42.348297" lon="-3.826262">
        <ele>823.946</ele>
        <time>2021-07-23T10:17:26Z</time>
      </trkpt>
      <trkpt lat="42.348505" lon="-3.825607">
        <ele>823.524</ele>
        <time>2021-07-23T10:17:36Z</time>
      </trkpt>
      <trkpt lat="42.348716" lon="-3.824933">
        <ele>823.586</ele>
        <time>2021-07-23T10:17:47Z</time>
      </trkpt>
      <trkpt lat="42.348909" lon="-3.824310">
        <ele>823.560</ele>
        <time>2021-07-23T10:17:58Z</time>
      </trkpt>
      <trkpt lat="42.349043" lon="-3.823790">
        <ele>824.426</ele>
        <time>2021-07-23T10:18:07Z</time>
      </trkpt>
      <trkpt lat="42.349090" lon="-3.823291">
        <ele>824.908</ele>
        <time>2021-07-23T10:18:16Z</time>
      </trkpt>
      <trkpt lat="42.349104" lon="-3.823126">
        <ele>824.945</ele>
        <time>2021-07-23T10:18:19Z</time>
      </trkpt>
      <trkpt lat="42.349104" lon="-3.823067">
        <ele>824.437</ele>
        <time>2021-07-23T10:18:20Z</time>
      </trkpt>
      <trkpt lat="42.349130" lon="-3.822641">
        <ele>824.964</ele>
        <time>2021-07-23T10:18:28Z</time>
      </trkpt>
      <trkpt lat="42.349194" lon="-3.822258">
        <ele>824.494</ele>
        <time>2021-07-23T10:18:36Z</time>
      </trkpt>
      <trkpt lat="42.349302" lon="-3.821872">
        <ele>824.938</ele>
        <time>2021-07-23T10:18:44Z</time>
      </trkpt>
      <trkpt lat="42.349272" lon="-3.821659">
        <ele>823.946</ele>
        <time>2021-07-23T10:18:49Z</time>
      </trkpt>
      <trkpt lat="42.349258" lon="-3.821642">
        <ele>823.953</ele>
        <time>2021-07-23T10:18:50Z</time>
      </trkpt>
      <trkpt lat="42.349244" lon="-3.821634">
        <ele>823.971</ele>
        <time>2021-07-23T10:18:51Z</time>
      </trkpt>
      <trkpt lat="42.349231" lon="-3.821631">
        <ele>823.965</ele>
        <time>2021-07-23T10:18:52Z</time>
      </trkpt>
      <trkpt lat="42.349218" lon="-3.821637">
        <ele>823.968</ele>
        <time>2021-07-23T10:18:53Z</time>
      </trkpt>
      <trkpt lat="42.349212" lon="-3.821650">
        <ele>823.914</ele>
        <time>2021-07-23T10:18:54Z</time>
      </trkpt>
      <trkpt lat="42.349266" lon="-3.821668">
        <ele>824.408</ele>
        <time>2021-07-23T10:18:58Z</time>
      </trkpt>
      <trkpt lat="42.349298" lon="-3.821636">
        <ele>824.913</ele>
        <time>2021-07-23T10:19:00Z</time>
      </trkpt>
      <trkpt lat="42.349308" lon="-3.821617">
        <ele>824.935</ele>
        <time>2021-07-23T10:19:01Z</time>
      </trkpt>
      <trkpt lat="42.349312" lon="-3.821600">
        <ele>824.932</ele>
        <time>2021-07-23T10:19:02Z</time>
      </trkpt>
      <trkpt lat="42.349316" lon="-3.821586">
        <ele>825.492</ele>
        <time>2021-07-23T10:19:03Z</time>
      </trkpt>
      <trkpt lat="42.349323" lon="-3.821578">
        <ele>825.476</ele>
        <time>2021-07-23T10:19:04Z</time>
      </trkpt>
      <trkpt lat="42.349333" lon="-3.821579">
        <ele>825.484</ele>
        <time>2021-07-23T10:19:05Z</time>
      </trkpt>
      <trkpt lat="42.349341" lon="-3.821589">
        <ele>825.451</ele>
        <time>2021-07-23T10:19:06Z</time>
      </trkpt>
      <trkpt lat="42.349345" lon="-3.821602">
        <ele>825.479</ele>
        <time>2021-07-23T10:19:07Z</time>
      </trkpt>
      <trkpt lat="42.349340" lon="-3.821615">
        <ele>825.477</ele>
        <time>2021-07-23T10:19:08Z</time>
      </trkpt>
      <trkpt lat="42.349329" lon="-3.821625">
        <ele>825.961</ele>
        <time>2021-07-23T10:19:09Z</time>
      </trkpt>
      <trkpt lat="42.349318" lon="-3.821638">
        <ele>825.927</ele>
        <time>2021-07-23T10:19:10Z</time>
      </trkpt>
      <trkpt lat="42.349304" lon="-3.821652">
        <ele>825.908</ele>
        <time>2021-07-23T10:19:11Z</time>
      </trkpt>
      <trkpt lat="42.349287" lon="-3.821665">
        <ele>825.924</ele>
        <time>2021-07-23T10:19:12Z</time>
      </trkpt>
      <trkpt lat="42.349264" lon="-3.821669">
        <ele>825.976</ele>
        <time>2021-07-23T10:19:13Z</time>
      </trkpt>
      <trkpt lat="42.349241" lon="-3.821668">
        <ele>825.913</ele>
        <time>2021-07-23T10:19:14Z</time>
      </trkpt>
      <trkpt lat="42.349023" lon="-3.821729">
        <ele>825.423</ele>
        <time>2021-07-23T10:19:22Z</time>
      </trkpt>
      <trkpt lat="42.348830" lon="-3.821775">
        <ele>825.497</ele>
        <time>2021-07-23T10:19:28Z</time>
      </trkpt>
      <trkpt lat="42.348702" lon="-3.821624">
        <ele>825.935</ele>
        <time>2021-07-23T10:19:33Z</time>
      </trkpt>
      <trkpt lat="42.348516" lon="-3.821296">
        <ele>825.992</ele>
        <time>2021-07-23T10:19:41Z</time>
      </trkpt>
      <trkpt lat="42.348341" lon="-3.820880">
        <ele>826.350</ele>
        <time>2021-07-23T10:19:51Z</time>
      </trkpt>
      <trkpt lat="42.348117" lon="-3.820596">
        <ele>825.957</ele>
        <time>2021-07-23T10:19:59Z</time>
      </trkpt>
      <trkpt lat="42.348089" lon="-3.820555">
        <ele>825.900</ele>
        <time>2021-07-23T10:20:00Z</time>
      </trkpt>
      <trkpt lat="42.347920" lon="-3.820373">
        <ele>825.420</ele>
        <time>2021-07-23T10:20:06Z</time>
      </trkpt>
      <trkpt lat="42.347898" lon="-3.820343">
        <ele>824.908</ele>
        <time>2021-07-23T10:20:07Z</time>
      </trkpt>
      <trkpt lat="42.347887" lon="-3.820304">
        <ele>824.432</ele>
        <time>2021-07-23T10:20:08Z</time>
      </trkpt>
      <trkpt lat="42.347885" lon="-3.820256">
        <ele>823.934</ele>
        <time>2021-07-23T10:20:09Z</time>
      </trkpt>
      <trkpt lat="42.347890" lon="-3.820208">
        <ele>823.921</ele>
        <time>2021-07-23T10:20:10Z</time>
      </trkpt>
      <trkpt lat="42.347897" lon="-3.820161">
        <ele>824.411</ele>
        <time>2021-07-23T10:20:11Z</time>
      </trkpt>
      <trkpt lat="42.347905" lon="-3.820114">
        <ele>824.435</ele>
        <time>2021-07-23T10:20:12Z</time>
      </trkpt>
      <trkpt lat="42.347913" lon="-3.820066">
        <ele>824.493</ele>
        <time>2021-07-23T10:20:13Z</time>
      </trkpt>
      <trkpt lat="42.347922" lon="-3.820016">
        <ele>823.960</ele>
        <time>2021-07-23T10:20:14Z</time>
      </trkpt>
      <trkpt lat="42.347943" lon="-3.819622">
        <ele>824.468</ele>
        <time>2021-07-23T10:20:22Z</time>
      </trkpt>
      <trkpt lat="42.347901" lon="-3.819375">
        <ele>825.478</ele>
        <time>2021-07-23T10:20:28Z</time>
      </trkpt>
      <trkpt lat="42.347964" lon="-3.818920">
        <ele>826.333</ele>
        <time>2021-07-23T10:20:37Z</time>
      </trkpt>
      <trkpt lat="42.347978" lon="-3.818755">
        <ele>827.326</ele>
        <time>2021-07-23T10:20:40Z</time>
      </trkpt>
      <trkpt lat="42.348003" lon="-3.818587">
        <ele>827.308</ele>
        <time>2021-07-23T10:20:43Z</time>
      </trkpt>
      <trkpt lat="42.348017" lon="-3.818532">
        <ele>827.344</ele>
        <time>2021-07-23T10:20:44Z</time>
      </trkpt>
      <trkpt lat="42.348168" lon="-3.818042">
        <ele>826.846</ele>
        <time>2021-07-23T10:20:53Z</time>
      </trkpt>
      <trkpt lat="42.348323" lon="-3.817552">
        <ele>826.323</ele>
        <time>2021-07-23T10:21:03Z</time>
      </trkpt>
      <trkpt lat="42.348449" lon="-3.817115">
        <ele>826.873</ele>
        <time>2021-07-23T10:21:13Z</time>
      </trkpt>
      <trkpt lat="42.348556" lon="-3.816790">
        <ele>826.867</ele>
        <time>2021-07-23T10:21:21Z</time>
      </trkpt>
      <trkpt lat="42.348651" lon="-3.816462">
        <ele>827.315</ele>
        <time>2021-07-23T10:21:29Z</time>
      </trkpt>
      <trkpt lat="42.348826" lon="-3.816107">
        <ele>827.332</ele>
        <time>2021-07-23T10:21:38Z</time>
      </trkpt>
      <trkpt lat="42.348948" lon="-3.815807">
        <ele>828.710</ele>
        <time>2021-07-23T10:21:46Z</time>
      </trkpt>
      <trkpt lat="42.349015" lon="-3.815485">
        <ele>830.222</ele>
        <time>2021-07-23T10:21:54Z</time>
      </trkpt>
      <trkpt lat="42.349033" lon="-3.815188">
        <ele>830.762</ele>
        <time>2021-07-23T10:22:01Z</time>
      </trkpt>
      <trkpt lat="42.348933" lon="-3.814804">
        <ele>831.608</ele>
        <time>2021-07-23T10:22:10Z</time>
      </trkpt>
      <trkpt lat="42.348777" lon="-3.814410">
        <ele>832.108</ele>
        <time>2021-07-23T10:22:19Z</time>
      </trkpt>
      <trkpt lat="42.348602" lon="-3.813922">
        <ele>832.139</ele>
        <time>2021-07-23T10:22:29Z</time>
      </trkpt>
      <trkpt lat="42.348596" lon="-3.813864">
        <ele>831.691</ele>
        <time>2021-07-23T10:22:30Z</time>
      </trkpt>
      <trkpt lat="42.348590" lon="-3.813810">
        <ele>831.648</ele>
        <time>2021-07-23T10:22:31Z</time>
      </trkpt>
      <trkpt lat="42.348578" lon="-3.813762">
        <ele>831.658</ele>
        <time>2021-07-23T10:22:32Z</time>
      </trkpt>
      <trkpt lat="42.348563" lon="-3.813715">
        <ele>831.672</ele>
        <time>2021-07-23T10:22:33Z</time>
      </trkpt>
      <trkpt lat="42.348546" lon="-3.813671">
        <ele>831.680</ele>
        <time>2021-07-23T10:22:34Z</time>
      </trkpt>
      <trkpt lat="42.348413" lon="-3.813208">
        <ele>831.627</ele>
        <time>2021-07-23T10:22:44Z</time>
      </trkpt>
      <trkpt lat="42.348314" lon="-3.812671">
        <ele>830.745</ele>
        <time>2021-07-23T10:22:54Z</time>
      </trkpt>
      <trkpt lat="42.348283" lon="-3.812501">
        <ele>830.783</ele>
        <time>2021-07-23T10:22:57Z</time>
      </trkpt>
      <trkpt lat="42.348195" lon="-3.812037">
        <ele>830.225</ele>
        <time>2021-07-23T10:23:05Z</time>
      </trkpt>
      <trkpt lat="42.348186" lon="-3.811977">
        <ele>830.217</ele>
        <time>2021-07-23T10:23:06Z</time>
      </trkpt>
      <trkpt lat="42.348175" lon="-3.811914">
        <ele>829.708</ele>
        <time>2021-07-23T10:23:07Z</time>
      </trkpt>
      <trkpt lat="42.348164" lon="-3.811854">
        <ele>830.245</ele>
        <time>2021-07-23T10:23:08Z</time>
      </trkpt>
      <trkpt lat="42.348154" lon="-3.811798">
        <ele>830.217</ele>
        <time>2021-07-23T10:23:09Z</time>
      </trkpt>
      <trkpt lat="42.348038" lon="-3.811201">
        <ele>830.254</ele>
        <time>2021-07-23T10:23:19Z</time>
      </trkpt>
      <trkpt lat="42.347959" lon="-3.810731">
        <ele>831.254</ele>
        <time>2021-07-23T10:23:27Z</time>
      </trkpt>
      <trkpt lat="42.347889" lon="-3.810189">
        <ele>830.738</ele>
        <time>2021-07-23T10:23:36Z</time>
      </trkpt>
      <trkpt lat="42.347826" lon="-3.809539">
        <ele>831.276</ele>
        <time>2021-07-23T10:23:46Z</time>
      </trkpt>
      <trkpt lat="42.347790" lon="-3.809145">
        <ele>831.673</ele>
        <time>2021-07-23T10:23:52Z</time>
      </trkpt>
      <trkpt lat="42.347784" lon="-3.809077">
        <ele>831.631</ele>
        <time>2021-07-23T10:23:53Z</time>
      </trkpt>
      <trkpt lat="42.347710" lon="-3.808269">
        <ele>831.211</ele>
        <time>2021-07-23T10:24:05Z</time>
      </trkpt>
      <trkpt lat="42.347637" lon="-3.807466">
        <ele>830.721</ele>
        <time>2021-07-23T10:24:17Z</time>
      </trkpt>
      <trkpt lat="42.347613" lon="-3.806941">
        <ele>830.703</ele>
        <time>2021-07-23T10:24:25Z</time>
      </trkpt>
      <trkpt lat="42.347627" lon="-3.806117">
        <ele>830.708</ele>
        <time>2021-07-23T10:24:37Z</time>
      </trkpt>
      <trkpt lat="42.347696" lon="-3.805425">
        <ele>830.758</ele>
        <time>2021-07-23T10:24:47Z</time>
      </trkpt>
      <trkpt lat="42.347825" lon="-3.804703">
        <ele>830.280</ele>
        <time>2021-07-23T10:24:57Z</time>
      </trkpt>
      <trkpt lat="42.348048" lon="-3.803905">
        <ele>830.237</ele>
        <time>2021-07-23T10:25:08Z</time>
      </trkpt>
      <trkpt lat="42.348368" lon="-3.803091">
        <ele>829.297</ele>
        <time>2021-07-23T10:25:20Z</time>
      </trkpt>
      <trkpt lat="42.348697" lon="-3.802444">
        <ele>828.371</ele>
        <time>2021-07-23T10:25:30Z</time>
      </trkpt>
      <trkpt lat="42.349104" lon="-3.801744">
        <ele>828.729</ele>
        <time>2021-07-23T10:25:41Z</time>
      </trkpt>
      <trkpt lat="42.349453" lon="-3.801071">
        <ele>829.236</ele>
        <time>2021-07-23T10:25:51Z</time>
      </trkpt>
      <trkpt lat="42.349770" lon="-3.800281">
        <ele>828.724</ele>
        <time>2021-07-23T10:26:02Z</time>
      </trkpt>
      <trkpt lat="42.349915" lon="-3.799637">
        <ele>829.766</ele>
        <time>2021-07-23T10:26:11Z</time>
      </trkpt>
      <trkpt lat="42.349973" lon="-3.799050">
        <ele>830.229</ele>
        <time>2021-07-23T10:26:20Z</time>
      </trkpt>
      <trkpt lat="42.349987" lon="-3.798384">
        <ele>830.221</ele>
        <time>2021-07-23T10:26:31Z</time>
      </trkpt>
      <trkpt lat="42.349983" lon="-3.797697">
        <ele>830.708</ele>
        <time>2021-07-23T10:26:43Z</time>
      </trkpt>
      <trkpt lat="42.349935" lon="-3.797027">
        <ele>830.713</ele>
        <time>2021-07-23T10:26:54Z</time>
      </trkpt>
      <trkpt lat="42.349854" lon="-3.796726">
        <ele>829.795</ele>
        <time>2021-07-23T10:26:59Z</time>
      </trkpt>
      <trkpt lat="42.349681" lon="-3.796391">
        <ele>829.242</ele>
        <time>2021-07-23T10:27:05Z</time>
      </trkpt>
      <trkpt lat="42.349609" lon="-3.796294">
        <ele>829.222</ele>
        <time>2021-07-23T10:27:07Z</time>
      </trkpt>
      <trkpt lat="42.349488" lon="-3.796178">
        <ele>828.756</ele>
        <time>2021-07-23T10:27:10Z</time>
      </trkpt>
      <trkpt lat="42.349152" lon="-3.795971">
        <ele>828.794</ele>
        <time>2021-07-23T10:27:17Z</time>
      </trkpt>
      <trkpt lat="42.348967" lon="-3.795876">
        <ele>828.731</ele>
        <time>2021-07-23T10:27:21Z</time>
      </trkpt>
      <trkpt lat="42.348817" lon="-3.795760">
        <ele>829.289</ele>
        <time>2021-07-23T10:27:25Z</time>
      </trkpt>
      <trkpt lat="42.348618" lon="-3.795467">
        <ele>829.724</ele>
        <time>2021-07-23T10:27:32Z</time>
      </trkpt>
      <trkpt lat="42.348489" lon="-3.794946">
        <ele>829.704</ele>
        <time>2021-07-23T10:27:43Z</time>
      </trkpt>
      <trkpt lat="42.348446" lon="-3.794832">
        <ele>829.714</ele>
        <time>2021-07-23T10:27:49Z</time>
      </trkpt>
      <trkpt lat="42.348339" lon="-3.794586">
        <ele>829.708</ele>
        <time>2021-07-23T10:27:55Z</time>
      </trkpt>
      <trkpt lat="42.348278" lon="-3.794407">
        <ele>830.229</ele>
        <time>2021-07-23T10:27:58Z</time>
      </trkpt>
      <trkpt lat="42.348224" lon="-3.793942">
        <ele>830.251</ele>
        <time>2021-07-23T10:28:05Z</time>
      </trkpt>
      <trkpt lat="42.348229" lon="-3.793885">
        <ele>829.758</ele>
        <time>2021-07-23T10:28:06Z</time>
      </trkpt>
      <trkpt lat="42.348238" lon="-3.793820">
        <ele>829.788</ele>
        <time>2021-07-23T10:28:07Z</time>
      </trkpt>
      <trkpt lat="42.348252" lon="-3.793752">
        <ele>829.752</ele>
        <time>2021-07-23T10:28:08Z</time>
      </trkpt>
      <trkpt lat="42.348268" lon="-3.793693">
        <ele>829.710</ele>
        <time>2021-07-23T10:28:09Z</time>
      </trkpt>
      <trkpt lat="42.348290" lon="-3.793626">
        <ele>829.717</ele>
        <time>2021-07-23T10:28:10Z</time>
      </trkpt>
      <trkpt lat="42.348316" lon="-3.793565">
        <ele>829.755</ele>
        <time>2021-07-23T10:28:11Z</time>
      </trkpt>
      <trkpt lat="42.348371" lon="-3.793459">
        <ele>830.294</ele>
        <time>2021-07-23T10:28:13Z</time>
      </trkpt>
      <trkpt lat="42.348500" lon="-3.793274">
        <ele>830.257</ele>
        <time>2021-07-23T10:28:18Z</time>
      </trkpt>
      <trkpt lat="42.348523" lon="-3.793251">
        <ele>830.222</ele>
        <time>2021-07-23T10:28:19Z</time>
      </trkpt>
      <trkpt lat="42.348590" lon="-3.793227">
        <ele>830.708</ele>
        <time>2021-07-23T10:28:21Z</time>
      </trkpt>
      <trkpt lat="42.348741" lon="-3.793124">
        <ele>830.756</ele>
        <time>2021-07-23T10:28:25Z</time>
      </trkpt>
      <trkpt lat="42.348910" lon="-3.793040">
        <ele>831.248</ele>
        <time>2021-07-23T10:28:29Z</time>
      </trkpt>
      <trkpt lat="42.348963" lon="-3.793033">
        <ele>831.215</ele>
        <time>2021-07-23T10:28:30Z</time>
      </trkpt>
      <trkpt lat="42.348996" lon="-3.793031">
        <ele>831.235</ele>
        <time>2021-07-23T10:28:31Z</time>
      </trkpt>
      <trkpt lat="42.349291" lon="-3.793093">
        <ele>831.679</ele>
        <time>2021-07-23T10:28:39Z</time>
      </trkpt>
      <trkpt lat="42.349431" lon="-3.793121">
        <ele>831.627</ele>
        <time>2021-07-23T10:28:43Z</time>
      </trkpt>
      <trkpt lat="42.349512" lon="-3.793114">
        <ele>831.284</ele>
        <time>2021-07-23T10:28:45Z</time>
      </trkpt>
      <trkpt lat="42.349631" lon="-3.793053">
        <ele>830.732</ele>
        <time>2021-07-23T10:28:48Z</time>
      </trkpt>
      <trkpt lat="42.349664" lon="-3.793016">
        <ele>830.792</ele>
        <time>2021-07-23T10:28:49Z</time>
      </trkpt>
      <trkpt lat="42.349694" lon="-3.792976">
        <ele>830.773</ele>
        <time>2021-07-23T10:28:50Z</time>
      </trkpt>
      <trkpt lat="42.349934" lon="-3.792562">
        <ele>829.220</ele>
        <time>2021-07-23T10:28:58Z</time>
      </trkpt>
      <trkpt lat="42.350163" lon="-3.791915">
        <ele>829.208</ele>
        <time>2021-07-23T10:29:08Z</time>
      </trkpt>
      <trkpt lat="42.350253" lon="-3.791429">
        <ele>829.746</ele>
        <time>2021-07-23T10:29:16Z</time>
      </trkpt>
      <trkpt lat="42.350273" lon="-3.791236">
        <ele>830.298</ele>
        <time>2021-07-23T10:29:19Z</time>
      </trkpt>
      <trkpt lat="42.350328" lon="-3.790730">
        <ele>831.295</ele>
        <time>2021-07-23T10:29:28Z</time>
      </trkpt>
      <trkpt lat="42.350390" lon="-3.790004">
        <ele>831.635</ele>
        <time>2021-07-23T10:29:40Z</time>
      </trkpt>
      <trkpt lat="42.350500" lon="-3.789396">
        <ele>832.159</ele>
        <time>2021-07-23T10:29:50Z</time>
      </trkpt>
      <trkpt lat="42.350695" lon="-3.788741">
        <ele>831.627</ele>
        <time>2021-07-23T10:30:01Z</time>
      </trkpt>
      <trkpt lat="42.350983" lon="-3.788075">
        <ele>830.774</ele>
        <time>2021-07-23T10:30:13Z</time>
      </trkpt>
      <trkpt lat="42.351126" lon="-3.787768">
        <ele>831.252</ele>
        <time>2021-07-23T10:30:20Z</time>
      </trkpt>
      <trkpt lat="42.351156" lon="-3.787682">
        <ele>831.676</ele>
        <time>2021-07-23T10:30:26Z</time>
      </trkpt>
      <trkpt lat="42.351158" lon="-3.787687">
        <ele>831.690</ele>
        <time>2021-07-23T10:30:43Z</time>
      </trkpt>
      <trkpt lat="42.351162" lon="-3.787682">
        <ele>832.619</ele>
        <time>2021-07-23T10:30:58Z</time>
      </trkpt>
      <trkpt lat="42.351160" lon="-3.787686">
        <ele>832.608</ele>
        <time>2021-07-23T10:31:14Z</time>
      </trkpt>
      <trkpt lat="42.351153" lon="-3.787688">
        <ele>833.154</ele>
        <time>2021-07-23T10:31:27Z</time>
      </trkpt>
      <trkpt lat="42.351144" lon="-3.787710">
        <ele>832.116</ele>
        <time>2021-07-23T10:31:39Z</time>
      </trkpt>
      <trkpt lat="42.351146" lon="-3.787712">
        <ele>832.113</ele>
        <time>2021-07-23T10:31:40Z</time>
      </trkpt>
      <trkpt lat="42.351059" lon="-3.787901">
        <ele>832.693</ele>
        <time>2021-07-23T10:31:52Z</time>
      </trkpt>
      <trkpt lat="42.350952" lon="-3.788139">
        <ele>832.647</ele>
        <time>2021-07-23T10:32:06Z</time>
      </trkpt>
      <trkpt lat="42.350822" lon="-3.788419">
        <ele>833.185</ele>
        <time>2021-07-23T10:32:22Z</time>
      </trkpt>
      <trkpt lat="42.350712" lon="-3.788684">
        <ele>832.672</ele>
        <time>2021-07-23T10:32:36Z</time>
      </trkpt>
      <trkpt lat="42.350618" lon="-3.788939">
        <ele>832.160</ele>
        <time>2021-07-23T10:32:50Z</time>
      </trkpt>
      <trkpt lat="42.350523" lon="-3.789253">
        <ele>831.649</ele>
        <time>2021-07-23T10:33:06Z</time>
      </trkpt>
      <trkpt lat="42.350454" lon="-3.789552">
        <ele>831.202</ele>
        <time>2021-07-23T10:33:21Z</time>
      </trkpt>
      <trkpt lat="42.350410" lon="-3.789770">
        <ele>831.622</ele>
        <time>2021-07-23T10:33:32Z</time>
      </trkpt>
      <trkpt lat="42.350371" lon="-3.790036">
        <ele>832.108</ele>
        <time>2021-07-23T10:33:45Z</time>
      </trkpt>
      <trkpt lat="42.350344" lon="-3.790332">
        <ele>831.281</ele>
        <time>2021-07-23T10:34:00Z</time>
      </trkpt>
      <trkpt lat="42.350334" lon="-3.790490">
        <ele>830.743</ele>
        <time>2021-07-23T10:34:09Z</time>
      </trkpt>
      <trkpt lat="42.350320" lon="-3.790735">
        <ele>832.130</ele>
        <time>2021-07-23T10:34:21Z</time>
      </trkpt>
      <trkpt lat="42.350304" lon="-3.790979">
        <ele>830.730</ele>
        <time>2021-07-23T10:34:33Z</time>
      </trkpt>
      <trkpt lat="42.350293" lon="-3.791184">
        <ele>829.734</ele>
        <time>2021-07-23T10:34:43Z</time>
      </trkpt>
      <trkpt lat="42.350282" lon="-3.791225">
        <ele>830.262</ele>
        <time>2021-07-23T10:34:45Z</time>
      </trkpt>
      <trkpt lat="42.350239" lon="-3.791494">
        <ele>831.669</ele>
        <time>2021-07-23T10:34:58Z</time>
      </trkpt>
      <trkpt lat="42.350185" lon="-3.791796">
        <ele>829.787</ele>
        <time>2021-07-23T10:35:13Z</time>
      </trkpt>
      <trkpt lat="42.350118" lon="-3.792041">
        <ele>830.734</ele>
        <time>2021-07-23T10:35:25Z</time>
      </trkpt>
      <trkpt lat="42.350065" lon="-3.792251">
        <ele>830.255</ele>
        <time>2021-07-23T10:35:38Z</time>
      </trkpt>
      <trkpt lat="42.350045" lon="-3.792323">
        <ele>830.710</ele>
        <time>2021-07-23T10:35:52Z</time>
      </trkpt>
      <trkpt lat="42.349945" lon="-3.792548">
        <ele>831.608</ele>
        <time>2021-07-23T10:36:05Z</time>
      </trkpt>
      <trkpt lat="42.349826" lon="-3.792771">
        <ele>831.230</ele>
        <time>2021-07-23T10:36:18Z</time>
      </trkpt>
      <trkpt lat="42.349691" lon="-3.792976">
        <ele>832.152</ele>
        <time>2021-07-23T10:36:32Z</time>
      </trkpt>
      <trkpt lat="42.349548" lon="-3.793094">
        <ele>832.639</ele>
        <time>2021-07-23T10:36:44Z</time>
      </trkpt>
      <trkpt lat="42.349453" lon="-3.793121">
        <ele>832.679</ele>
        <time>2021-07-23T10:36:53Z</time>
      </trkpt>
      <trkpt lat="42.349332" lon="-3.793114">
        <ele>833.153</ele>
        <time>2021-07-23T10:37:03Z</time>
      </trkpt>
      <trkpt lat="42.349340" lon="-3.793111">
        <ele>832.141</ele>
        <time>2021-07-23T10:37:16Z</time>
      </trkpt>
      <trkpt lat="42.349356" lon="-3.793125">
        <ele>832.198</ele>
        <time>2021-07-23T10:37:27Z</time>
      </trkpt>
      <trkpt lat="42.349371" lon="-3.793128">
        <ele>832.186</ele>
        <time>2021-07-23T10:37:34Z</time>
      </trkpt>
      <trkpt lat="42.349375" lon="-3.793134">
        <ele>832.152</ele>
        <time>2021-07-23T10:37:35Z</time>
      </trkpt>
      <trkpt lat="42.349459" lon="-3.793241">
        <ele>832.153</ele>
        <time>2021-07-23T10:37:41Z</time>
      </trkpt>
      <trkpt lat="42.349651" lon="-3.793535">
        <ele>832.108</ele>
        <time>2021-07-23T10:37:49Z</time>
      </trkpt>
      <trkpt lat="42.349725" lon="-3.793743">
        <ele>832.108</ele>
        <time>2021-07-23T10:37:53Z</time>
      </trkpt>
      <trkpt lat="42.349757" lon="-3.794279">
        <ele>832.192</ele>
        <time>2021-07-23T10:38:02Z</time>
      </trkpt>
      <trkpt lat="42.349747" lon="-3.794337">
        <ele>832.154</ele>
        <time>2021-07-23T10:38:03Z</time>
      </trkpt>
      <trkpt lat="42.349707" lon="-3.794510">
        <ele>831.661</ele>
        <time>2021-07-23T10:38:06Z</time>
      </trkpt>
      <trkpt lat="42.349688" lon="-3.794565">
        <ele>831.661</ele>
        <time>2021-07-23T10:38:07Z</time>
      </trkpt>
      <trkpt lat="42.349665" lon="-3.794616">
        <ele>831.655</ele>
        <time>2021-07-23T10:38:08Z</time>
      </trkpt>
      <trkpt lat="42.349610" lon="-3.794714">
        <ele>831.613</ele>
        <time>2021-07-23T10:38:10Z</time>
      </trkpt>
      <trkpt lat="42.349304" lon="-3.795030">
        <ele>832.660</ele>
        <time>2021-07-23T10:38:18Z</time>
      </trkpt>
      <trkpt lat="42.349157" lon="-3.795098">
        <ele>832.668</ele>
        <time>2021-07-23T10:38:21Z</time>
      </trkpt>
      <trkpt lat="42.348897" lon="-3.795121">
        <ele>832.644</ele>
        <time>2021-07-23T10:38:26Z</time>
      </trkpt>
      <trkpt lat="42.348708" lon="-3.795248">
        <ele>831.605</ele>
        <time>2021-07-23T10:38:30Z</time>
      </trkpt>
      <trkpt lat="42.348717" lon="-3.795482">
        <ele>830.715</ele>
        <time>2021-07-23T10:38:33Z</time>
      </trkpt>
      <trkpt lat="42.348897" lon="-3.795710">
        <ele>830.208</ele>
        <time>2021-07-23T10:38:37Z</time>
      </trkpt>
      <trkpt lat="42.348952" lon="-3.795753">
        <ele>829.741</ele>
        <time>2021-07-23T10:38:38Z</time>
      </trkpt>
      <trkpt lat="42.349394" lon="-3.796004">
        <ele>830.253</ele>
        <time>2021-07-23T10:38:47Z</time>
      </trkpt>
      <trkpt lat="42.349691" lon="-3.796235">
        <ele>830.280</ele>
        <time>2021-07-23T10:38:55Z</time>
      </trkpt>
      <trkpt lat="42.349883" lon="-3.796297">
        <ele>830.270</ele>
        <time>2021-07-23T10:39:01Z</time>
      </trkpt>
      <trkpt lat="42.350005" lon="-3.796405">
        <ele>831.224</ele>
        <time>2021-07-23T10:39:06Z</time>
      </trkpt>
      <trkpt lat="42.350021" lon="-3.796396">
        <ele>831.632</ele>
        <time>2021-07-23T10:39:07Z</time>
      </trkpt>
      <trkpt lat="42.350038" lon="-3.796376">
        <ele>831.679</ele>
        <time>2021-07-23T10:39:08Z</time>
      </trkpt>
      <trkpt lat="42.350207" lon="-3.796142">
        <ele>830.247</ele>
        <time>2021-07-23T10:39:16Z</time>
      </trkpt>
      <trkpt lat="42.350274" lon="-3.796058">
        <ele>829.749</ele>
        <time>2021-07-23T10:39:18Z</time>
      </trkpt>
      <trkpt lat="42.350311" lon="-3.796026">
        <ele>829.702</ele>
        <time>2021-07-23T10:39:19Z</time>
      </trkpt>
      <trkpt lat="42.350355" lon="-3.796001">
        <ele>829.722</ele>
        <time>2021-07-23T10:39:20Z</time>
      </trkpt>
      <trkpt lat="42.350397" lon="-3.795990">
        <ele>829.208</ele>
        <time>2021-07-23T10:39:21Z</time>
      </trkpt>
      <trkpt lat="42.350446" lon="-3.795993">
        <ele>829.231</ele>
        <time>2021-07-23T10:39:22Z</time>
      </trkpt>
      <trkpt lat="42.350488" lon="-3.796008">
        <ele>829.293</ele>
        <time>2021-07-23T10:39:23Z</time>
      </trkpt>
      <trkpt lat="42.350533" lon="-3.796027">
        <ele>829.210</ele>
        <time>2021-07-23T10:39:24Z</time>
      </trkpt>
      <trkpt lat="42.350944" lon="-3.796278">
        <ele>829.760</ele>
        <time>2021-07-23T10:39:34Z</time>
      </trkpt>
      <trkpt lat="42.351199" lon="-3.796370">
        <ele>829.774</ele>
        <time>2021-07-23T10:39:41Z</time>
      </trkpt>
      <trkpt lat="42.351377" lon="-3.796220">
        <ele>830.212</ele>
        <time>2021-07-23T10:39:47Z</time>
      </trkpt>
      <trkpt lat="42.351426" lon="-3.796147">
        <ele>830.289</ele>
        <time>2021-07-23T10:39:49Z</time>
      </trkpt>
      <trkpt lat="42.351520" lon="-3.795895">
        <ele>830.287</ele>
        <time>2021-07-23T10:39:54Z</time>
      </trkpt>
      <trkpt lat="42.351553" lon="-3.795788">
        <ele>830.247</ele>
        <time>2021-07-23T10:39:56Z</time>
      </trkpt>
      <trkpt lat="42.351610" lon="-3.795628">
        <ele>829.729</ele>
        <time>2021-07-23T10:39:59Z</time>
      </trkpt>
      <trkpt lat="42.351655" lon="-3.795450">
        <ele>830.221</ele>
        <time>2021-07-23T10:40:02Z</time>
      </trkpt>
      <trkpt lat="42.351583" lon="-3.795146">
        <ele>830.708</ele>
        <time>2021-07-23T10:40:08Z</time>
      </trkpt>
      <trkpt lat="42.351231" lon="-3.794860">
        <ele>829.231</ele>
        <time>2021-07-23T10:40:18Z</time>
      </trkpt>
      <trkpt lat="42.351193" lon="-3.794834">
        <ele>829.293</ele>
        <time>2021-07-23T10:40:19Z</time>
      </trkpt>
      <trkpt lat="42.350870" lon="-3.794640">
        <ele>828.790</ele>
        <time>2021-07-23T10:40:28Z</time>
      </trkpt>
      <trkpt lat="42.350691" lon="-3.794420">
        <ele>828.720</ele>
        <time>2021-07-23T10:40:35Z</time>
      </trkpt>
      <trkpt lat="42.350690" lon="-3.794370">
        <ele>828.744</ele>
        <time>2021-07-23T10:40:36Z</time>
      </trkpt>
      <trkpt lat="42.350774" lon="-3.793775">
        <ele>828.312</ele>
        <time>2021-07-23T10:40:47Z</time>
      </trkpt>
      <trkpt lat="42.350790" lon="-3.793514">
        <ele>828.369</ele>
        <time>2021-07-23T10:40:52Z</time>
      </trkpt>
      <trkpt lat="42.350777" lon="-3.792951">
        <ele>828.317</ele>
        <time>2021-07-23T10:41:02Z</time>
      </trkpt>
      <trkpt lat="42.350789" lon="-3.792496">
        <ele>829.239</ele>
        <time>2021-07-23T10:41:11Z</time>
      </trkpt>
      <trkpt lat="42.350740" lon="-3.792150">
        <ele>828.701</ele>
        <time>2021-07-23T10:41:19Z</time>
      </trkpt>
      <trkpt lat="42.350622" lon="-3.791893">
        <ele>829.221</ele>
        <time>2021-07-23T10:41:25Z</time>
      </trkpt>
      <trkpt lat="42.350590" lon="-3.791797">
        <ele>829.708</ele>
        <time>2021-07-23T10:41:27Z</time>
      </trkpt>
      <trkpt lat="42.350637" lon="-3.791284">
        <ele>830.290</ele>
        <time>2021-07-23T10:41:36Z</time>
      </trkpt>
      <trkpt lat="42.350692" lon="-3.790954">
        <ele>830.782</ele>
        <time>2021-07-23T10:41:42Z</time>
      </trkpt>
      <trkpt lat="42.350733" lon="-3.790856">
        <ele>830.289</ele>
        <time>2021-07-23T10:41:44Z</time>
      </trkpt>
      <trkpt lat="42.350811" lon="-3.790719">
        <ele>830.299</ele>
        <time>2021-07-23T10:41:47Z</time>
      </trkpt>
      <trkpt lat="42.350889" lon="-3.790453">
        <ele>830.283</ele>
        <time>2021-07-23T10:41:52Z</time>
      </trkpt>
      <trkpt lat="42.350931" lon="-3.789818">
        <ele>830.741</ele>
        <time>2021-07-23T10:42:03Z</time>
      </trkpt>
      <trkpt lat="42.350957" lon="-3.789372">
        <ele>830.738</ele>
        <time>2021-07-23T10:42:11Z</time>
      </trkpt>
      <trkpt lat="42.351051" lon="-3.788640">
        <ele>830.296</ele>
        <time>2021-07-23T10:42:24Z</time>
      </trkpt>
      <trkpt lat="42.351065" lon="-3.788591">
        <ele>830.268</ele>
        <time>2021-07-23T10:42:25Z</time>
      </trkpt>
      <trkpt lat="42.351324" lon="-3.788022">
        <ele>830.242</ele>
        <time>2021-07-23T10:42:37Z</time>
      </trkpt>
      <trkpt lat="42.351556" lon="-3.787526">
        <ele>830.226</ele>
        <time>2021-07-23T10:42:47Z</time>
      </trkpt>
      <trkpt lat="42.351688" lon="-3.787234">
        <ele>830.208</ele>
        <time>2021-07-23T10:42:53Z</time>
      </trkpt>
      <trkpt lat="42.351931" lon="-3.786830">
        <ele>830.793</ele>
        <time>2021-07-23T10:43:03Z</time>
      </trkpt>
      <trkpt lat="42.352154" lon="-3.786776">
        <ele>830.715</ele>
        <time>2021-07-23T10:43:09Z</time>
      </trkpt>
      <trkpt lat="42.352536" lon="-3.786842">
        <ele>830.272</ele>
        <time>2021-07-23T10:43:18Z</time>
      </trkpt>
      <trkpt lat="42.352958" lon="-3.786920">
        <ele>830.762</ele>
        <time>2021-07-23T10:43:28Z</time>
      </trkpt>
      <trkpt lat="42.353265" lon="-3.786858">
        <ele>830.226</ele>
        <time>2021-07-23T10:43:36Z</time>
      </trkpt>
      <trkpt lat="42.353316" lon="-3.786673">
        <ele>830.264</ele>
        <time>2021-07-23T10:43:41Z</time>
      </trkpt>
      <trkpt lat="42.353289" lon="-3.786587">
        <ele>830.771</ele>
        <time>2021-07-23T10:43:43Z</time>
      </trkpt>
      <trkpt lat="42.353217" lon="-3.786260">
        <ele>832.699</ele>
        <time>2021-07-23T10:43:51Z</time>
      </trkpt>
      <trkpt lat="42.353189" lon="-3.785879">
        <ele>835.034</ele>
        <time>2021-07-23T10:44:01Z</time>
      </trkpt>
      <trkpt lat="42.353115" lon="-3.785609">
        <ele>836.455</ele>
        <time>2021-07-23T10:44:09Z</time>
      </trkpt>
      <trkpt lat="42.352962" lon="-3.785421">
        <ele>837.410</ele>
        <time>2021-07-23T10:44:17Z</time>
      </trkpt>
      <trkpt lat="42.352759" lon="-3.785252">
        <ele>838.408</ele>
        <time>2021-07-23T10:44:26Z</time>
      </trkpt>
      <trkpt lat="42.352537" lon="-3.785084">
        <ele>838.450</ele>
        <time>2021-07-23T10:44:35Z</time>
      </trkpt>
      <trkpt lat="42.352330" lon="-3.784924">
        <ele>838.482</ele>
        <time>2021-07-23T10:44:43Z</time>
      </trkpt>
      <trkpt lat="42.352162" lon="-3.784773">
        <ele>837.959</ele>
        <time>2021-07-23T10:44:50Z</time>
      </trkpt>
      <trkpt lat="42.351982" lon="-3.784637">
        <ele>836.499</ele>
        <time>2021-07-23T10:44:57Z</time>
      </trkpt>
      <trkpt lat="42.351723" lon="-3.784497">
        <ele>834.033</ele>
        <time>2021-07-23T10:45:04Z</time>
      </trkpt>
      <trkpt lat="42.351486" lon="-3.784341">
        <ele>832.141</ele>
        <time>2021-07-23T10:45:12Z</time>
      </trkpt>
      <trkpt lat="42.351480" lon="-3.784296">
        <ele>832.118</ele>
        <time>2021-07-23T10:45:13Z</time>
      </trkpt>
      <trkpt lat="42.351487" lon="-3.784240">
        <ele>831.616</ele>
        <time>2021-07-23T10:45:14Z</time>
      </trkpt>
      <trkpt lat="42.351499" lon="-3.784195">
        <ele>831.256</ele>
        <time>2021-07-23T10:45:15Z</time>
      </trkpt>
      <trkpt lat="42.351521" lon="-3.784129">
        <ele>830.759</ele>
        <time>2021-07-23T10:45:16Z</time>
      </trkpt>
      <trkpt lat="42.351543" lon="-3.784070">
        <ele>830.714</ele>
        <time>2021-07-23T10:45:17Z</time>
      </trkpt>
      <trkpt lat="42.351698" lon="-3.783617">
        <ele>830.708</ele>
        <time>2021-07-23T10:45:25Z</time>
      </trkpt>
      <trkpt lat="42.351717" lon="-3.783570">
        <ele>830.792</ele>
        <time>2021-07-23T10:45:26Z</time>
      </trkpt>
      <trkpt lat="42.351883" lon="-3.783111">
        <ele>831.294</ele>
        <time>2021-07-23T10:45:35Z</time>
      </trkpt>
      <trkpt lat="42.351991" lon="-3.782772">
        <ele>831.251</ele>
        <time>2021-07-23T10:45:42Z</time>
      </trkpt>
      <trkpt lat="42.352085" lon="-3.782250">
        <ele>831.661</ele>
        <time>2021-07-23T10:45:52Z</time>
      </trkpt>
      <trkpt lat="42.352231" lon="-3.781928">
        <ele>831.245</ele>
        <time>2021-07-23T10:45:59Z</time>
      </trkpt>
      <trkpt lat="42.352249" lon="-3.781875">
        <ele>831.653</ele>
        <time>2021-07-23T10:46:00Z</time>
      </trkpt>
      <trkpt lat="42.352259" lon="-3.781825">
        <ele>831.680</ele>
        <time>2021-07-23T10:46:01Z</time>
      </trkpt>
      <trkpt lat="42.352265" lon="-3.781772">
        <ele>832.198</ele>
        <time>2021-07-23T10:46:02Z</time>
      </trkpt>
      <trkpt lat="42.352262" lon="-3.781362">
        <ele>832.686</ele>
        <time>2021-07-23T10:46:10Z</time>
      </trkpt>
      <trkpt lat="42.352261" lon="-3.780880">
        <ele>832.660</ele>
        <time>2021-07-23T10:46:19Z</time>
      </trkpt>
      <trkpt lat="42.352288" lon="-3.780450">
        <ele>832.626</ele>
        <time>2021-07-23T10:46:27Z</time>
      </trkpt>
      <trkpt lat="42.352301" lon="-3.780026">
        <ele>832.608</ele>
        <time>2021-07-23T10:46:36Z</time>
      </trkpt>
      <trkpt lat="42.352337" lon="-3.779588">
        <ele>832.645</ele>
        <time>2021-07-23T10:46:45Z</time>
      </trkpt>
      <trkpt lat="42.352399" lon="-3.779197">
        <ele>833.197</ele>
        <time>2021-07-23T10:46:53Z</time>
      </trkpt>
      <trkpt lat="42.352509" lon="-3.778816">
        <ele>834.094</ele>
        <time>2021-07-23T10:47:01Z</time>
      </trkpt>
      <trkpt lat="42.352727" lon="-3.778310">
        <ele>834.574</ele>
        <time>2021-07-23T10:47:12Z</time>
      </trkpt>
      <trkpt lat="42.352976" lon="-3.777731">
        <ele>834.558</ele>
        <time>2021-07-23T10:47:24Z</time>
      </trkpt>
      <trkpt lat="42.353037" lon="-3.777525">
        <ele>834.536</ele>
        <time>2021-07-23T10:47:29Z</time>
      </trkpt>
      <trkpt lat="42.352958" lon="-3.777447">
        <ele>835.093</ele>
        <time>2021-07-23T10:47:34Z</time>
      </trkpt>
      <trkpt lat="42.352769" lon="-3.777325">
        <ele>834.591</ele>
        <time>2021-07-23T10:47:41Z</time>
      </trkpt>
      <trkpt lat="42.352588" lon="-3.777220">
        <ele>834.516</ele>
        <time>2021-07-23T10:47:47Z</time>
      </trkpt>
      <trkpt lat="42.352578" lon="-3.777188">
        <ele>834.576</ele>
        <time>2021-07-23T10:47:48Z</time>
      </trkpt>
      <trkpt lat="42.352576" lon="-3.777159">
        <ele>834.513</ele>
        <time>2021-07-23T10:47:49Z</time>
      </trkpt>
      <trkpt lat="42.352576" lon="-3.777128">
        <ele>835.008</ele>
        <time>2021-07-23T10:47:50Z</time>
      </trkpt>
      <trkpt lat="42.352581" lon="-3.777097">
        <ele>835.038</ele>
        <time>2021-07-23T10:47:51Z</time>
      </trkpt>
      <trkpt lat="42.352591" lon="-3.777068">
        <ele>835.010</ele>
        <time>2021-07-23T10:47:52Z</time>
      </trkpt>
      <trkpt lat="42.352596" lon="-3.777043">
        <ele>835.537</ele>
        <time>2021-07-23T10:47:53Z</time>
      </trkpt>
      <trkpt lat="42.352594" lon="-3.777010">
        <ele>835.577</ele>
        <time>2021-07-23T10:47:54Z</time>
      </trkpt>
      <trkpt lat="42.352590" lon="-3.776977">
        <ele>835.511</ele>
        <time>2021-07-23T10:47:55Z</time>
      </trkpt>
      <trkpt lat="42.352583" lon="-3.776938">
        <ele>835.089</ele>
        <time>2021-07-23T10:47:56Z</time>
      </trkpt>
      <trkpt lat="42.352551" lon="-3.776561">
        <ele>834.576</ele>
        <time>2021-07-23T10:48:04Z</time>
      </trkpt>
      <trkpt lat="42.352485" lon="-3.775913">
        <ele>834.514</ele>
        <time>2021-07-23T10:48:16Z</time>
      </trkpt>
      <trkpt lat="42.352430" lon="-3.775435">
        <ele>834.077</ele>
        <time>2021-07-23T10:48:26Z</time>
      </trkpt>
      <trkpt lat="42.352376" lon="-3.775116">
        <ele>834.561</ele>
        <time>2021-07-23T10:48:33Z</time>
      </trkpt>
      <trkpt lat="42.352368" lon="-3.775118">
        <ele>834.527</ele>
        <time>2021-07-23T10:48:38Z</time>
      </trkpt>
      <trkpt lat="42.352369" lon="-3.775116">
        <ele>834.008</ele>
        <time>2021-07-23T10:48:50Z</time>
      </trkpt>
      <trkpt lat="42.352376" lon="-3.775132">
        <ele>834.584</ele>
        <time>2021-07-23T10:49:00Z</time>
      </trkpt>
      <trkpt lat="42.352375" lon="-3.775129">
        <ele>834.016</ele>
        <time>2021-07-23T10:49:13Z</time>
      </trkpt>
      <trkpt lat="42.352371" lon="-3.775108">
        <ele>833.193</ele>
        <time>2021-07-23T10:49:30Z</time>
      </trkpt>
      <trkpt lat="42.352330" lon="-3.774909">
        <ele>833.653</ele>
        <time>2021-07-23T10:49:37Z</time>
      </trkpt>
      <trkpt lat="42.352265" lon="-3.774535">
        <ele>834.077</ele>
        <time>2021-07-23T10:49:46Z</time>
      </trkpt>
      <trkpt lat="42.352201" lon="-3.774140">
        <ele>834.065</ele>
        <time>2021-07-23T10:49:55Z</time>
      </trkpt>
      <trkpt lat="42.352126" lon="-3.773793">
        <ele>834.042</ele>
        <time>2021-07-23T10:50:03Z</time>
      </trkpt>
      <trkpt lat="42.352107" lon="-3.773412">
        <ele>834.520</ele>
        <time>2021-07-23T10:50:11Z</time>
      </trkpt>
      <trkpt lat="42.352044" lon="-3.773016">
        <ele>834.538</ele>
        <time>2021-07-23T10:50:20Z</time>
      </trkpt>
      <trkpt lat="42.351998" lon="-3.772648">
        <ele>835.070</ele>
        <time>2021-07-23T10:50:28Z</time>
      </trkpt>
      <trkpt lat="42.351955" lon="-3.772262">
        <ele>835.517</ele>
        <time>2021-07-23T10:50:36Z</time>
      </trkpt>
      <trkpt lat="42.351900" lon="-3.771926">
        <ele>835.008</ele>
        <time>2021-07-23T10:50:43Z</time>
      </trkpt>
      <trkpt lat="42.351851" lon="-3.771631">
        <ele>835.090</ele>
        <time>2021-07-23T10:50:50Z</time>
      </trkpt>
      <trkpt lat="42.351815" lon="-3.771361">
        <ele>835.022</ele>
        <time>2021-07-23T10:50:59Z</time>
      </trkpt>
      <trkpt lat="42.351732" lon="-3.770986">
        <ele>835.049</ele>
        <time>2021-07-23T10:51:09Z</time>
      </trkpt>
      <trkpt lat="42.351514" lon="-3.770511">
        <ele>836.069</ele>
        <time>2021-07-23T10:51:21Z</time>
      </trkpt>
      <trkpt lat="42.351387" lon="-3.770165">
        <ele>836.083</ele>
        <time>2021-07-23T10:51:29Z</time>
      </trkpt>
      <trkpt lat="42.351286" lon="-3.769920">
        <ele>836.051</ele>
        <time>2021-07-23T10:51:36Z</time>
      </trkpt>
      <trkpt lat="42.351171" lon="-3.769653">
        <ele>836.088</ele>
        <time>2021-07-23T10:51:43Z</time>
      </trkpt>
      <trkpt lat="42.351077" lon="-3.769293">
        <ele>835.546</ele>
        <time>2021-07-23T10:51:52Z</time>
      </trkpt>
      <trkpt lat="42.350951" lon="-3.768919">
        <ele>835.545</ele>
        <time>2021-07-23T10:52:01Z</time>
      </trkpt>
      <trkpt lat="42.350831" lon="-3.768486">
        <ele>836.447</ele>
        <time>2021-07-23T10:52:11Z</time>
      </trkpt>
      <trkpt lat="42.350726" lon="-3.768192">
        <ele>836.411</ele>
        <time>2021-07-23T10:52:20Z</time>
      </trkpt>
      <trkpt lat="42.350664" lon="-3.767913">
        <ele>837.908</ele>
        <time>2021-07-23T10:52:28Z</time>
      </trkpt>
      <trkpt lat="42.350608" lon="-3.767836">
        <ele>838.421</ele>
        <time>2021-07-23T10:52:34Z</time>
      </trkpt>
      <trkpt lat="42.350585" lon="-3.767836">
        <ele>838.433</ele>
        <time>2021-07-23T10:52:35Z</time>
      </trkpt>
      <trkpt lat="42.350523" lon="-3.767894">
        <ele>838.440</ele>
        <time>2021-07-23T10:52:38Z</time>
      </trkpt>
      <trkpt lat="42.350368" lon="-3.768299">
        <ele>837.960</ele>
        <time>2021-07-23T10:52:48Z</time>
      </trkpt>
      <trkpt lat="42.350253" lon="-3.768429">
        <ele>837.934</ele>
        <time>2021-07-23T10:52:52Z</time>
      </trkpt>
      <trkpt lat="42.350134" lon="-3.768394">
        <ele>837.982</ele>
        <time>2021-07-23T10:52:55Z</time>
      </trkpt>
      <trkpt lat="42.350101" lon="-3.768341">
        <ele>837.959</ele>
        <time>2021-07-23T10:52:56Z</time>
      </trkpt>
      <trkpt lat="42.350085" lon="-3.768298">
        <ele>837.957</ele>
        <time>2021-07-23T10:52:57Z</time>
      </trkpt>
      <trkpt lat="42.350072" lon="-3.768243">
        <ele>837.938</ele>
        <time>2021-07-23T10:52:58Z</time>
      </trkpt>
      <trkpt lat="42.350064" lon="-3.768189">
        <ele>837.970</ele>
        <time>2021-07-23T10:52:59Z</time>
      </trkpt>
      <trkpt lat="42.350057" lon="-3.768127">
        <ele>837.417</ele>
        <time>2021-07-23T10:53:00Z</time>
      </trkpt>
      <trkpt lat="42.350049" lon="-3.768076">
        <ele>837.408</ele>
        <time>2021-07-23T10:53:01Z</time>
      </trkpt>
      <trkpt lat="42.350038" lon="-3.768022">
        <ele>837.450</ele>
        <time>2021-07-23T10:53:02Z</time>
      </trkpt>
      <trkpt lat="42.349920" lon="-3.767632">
        <ele>836.962</ele>
        <time>2021-07-23T10:53:10Z</time>
      </trkpt>
      <trkpt lat="42.349761" lon="-3.767400">
        <ele>836.949</ele>
        <time>2021-07-23T10:53:16Z</time>
      </trkpt>
      <trkpt lat="42.349535" lon="-3.767084">
        <ele>837.449</ele>
        <time>2021-07-23T10:53:24Z</time>
      </trkpt>
      <trkpt lat="42.349358" lon="-3.766731">
        <ele>837.473</ele>
        <time>2021-07-23T10:53:32Z</time>
      </trkpt>
      <trkpt lat="42.349267" lon="-3.766262">
        <ele>836.981</ele>
        <time>2021-07-23T10:53:41Z</time>
      </trkpt>
      <trkpt lat="42.349184" lon="-3.765803">
        <ele>836.978</ele>
        <time>2021-07-23T10:53:50Z</time>
      </trkpt>
      <trkpt lat="42.349048" lon="-3.765304">
        <ele>836.986</ele>
        <time>2021-07-23T10:54:00Z</time>
      </trkpt>
      <trkpt lat="42.348795" lon="-3.764786">
        <ele>836.417</ele>
        <time>2021-07-23T10:54:12Z</time>
      </trkpt>
      <trkpt lat="42.348544" lon="-3.764317">
        <ele>836.987</ele>
        <time>2021-07-23T10:54:23Z</time>
      </trkpt>
      <trkpt lat="42.348503" lon="-3.764227">
        <ele>837.415</ele>
        <time>2021-07-23T10:54:25Z</time>
      </trkpt>
      <trkpt lat="42.348436" lon="-3.764032">
        <ele>837.908</ele>
        <time>2021-07-23T10:54:29Z</time>
      </trkpt>
      <trkpt lat="42.348393" lon="-3.763817">
        <ele>837.958</ele>
        <time>2021-07-23T10:54:33Z</time>
      </trkpt>
      <trkpt lat="42.348363" lon="-3.763292">
        <ele>837.940</ele>
        <time>2021-07-23T10:54:43Z</time>
      </trkpt>
      <trkpt lat="42.348360" lon="-3.762713">
        <ele>838.487</ele>
        <time>2021-07-23T10:54:54Z</time>
      </trkpt>
      <trkpt lat="42.348363" lon="-3.762069">
        <ele>838.817</ele>
        <time>2021-07-23T10:55:06Z</time>
      </trkpt>
      <trkpt lat="42.348359" lon="-3.761539">
        <ele>838.851</ele>
        <time>2021-07-23T10:55:16Z</time>
      </trkpt>
      <trkpt lat="42.348360" lon="-3.761482">
        <ele>838.819</ele>
        <time>2021-07-23T10:55:17Z</time>
      </trkpt>
      <trkpt lat="42.348361" lon="-3.760979">
        <ele>838.866</ele>
        <time>2021-07-23T10:55:26Z</time>
      </trkpt>
      <trkpt lat="42.348352" lon="-3.760432">
        <ele>839.354</ele>
        <time>2021-07-23T10:55:36Z</time>
      </trkpt>
      <trkpt lat="42.348345" lon="-3.760274">
        <ele>838.898</ele>
        <time>2021-07-23T10:55:39Z</time>
      </trkpt>
      <trkpt lat="42.348323" lon="-3.759629">
        <ele>838.815</ele>
        <time>2021-07-23T10:55:51Z</time>
      </trkpt>
      <trkpt lat="42.348261" lon="-3.759007">
        <ele>838.426</ele>
        <time>2021-07-23T10:56:03Z</time>
      </trkpt>
      <trkpt lat="42.348139" lon="-3.758393">
        <ele>838.808</ele>
        <time>2021-07-23T10:56:15Z</time>
      </trkpt>
      <trkpt lat="42.348014" lon="-3.757950">
        <ele>839.386</ele>
        <time>2021-07-23T10:56:24Z</time>
      </trkpt>
      <trkpt lat="42.347881" lon="-3.757440">
        <ele>839.388</ele>
        <time>2021-07-23T10:56:34Z</time>
      </trkpt>
      <trkpt lat="42.347763" lon="-3.756995">
        <ele>839.375</ele>
        <time>2021-07-23T10:56:43Z</time>
      </trkpt>
      <trkpt lat="42.347625" lon="-3.756507">
        <ele>839.315</ele>
        <time>2021-07-23T10:56:53Z</time>
      </trkpt>
      <trkpt lat="42.347542" lon="-3.756134">
        <ele>839.829</ele>
        <time>2021-07-23T10:57:02Z</time>
      </trkpt>
      <trkpt lat="42.347506" lon="-3.755718">
        <ele>839.837</ele>
        <time>2021-07-23T10:57:10Z</time>
      </trkpt>
      <trkpt lat="42.347476" lon="-3.755493">
        <ele>839.834</ele>
        <time>2021-07-23T10:57:14Z</time>
      </trkpt>
      <trkpt lat="42.347365" lon="-3.755056">
        <ele>840.882</ele>
        <time>2021-07-23T10:57:23Z</time>
      </trkpt>
      <trkpt lat="42.347261" lon="-3.754667">
        <ele>840.898</ele>
        <time>2021-07-23T10:57:31Z</time>
      </trkpt>
      <trkpt lat="42.347138" lon="-3.754245">
        <ele>840.815</ele>
        <time>2021-07-23T10:57:40Z</time>
      </trkpt>
      <trkpt lat="42.346967" lon="-3.753868">
        <ele>840.826</ele>
        <time>2021-07-23T10:57:49Z</time>
      </trkpt>
      <trkpt lat="42.346777" lon="-3.753440">
        <ele>840.308</ele>
        <time>2021-07-23T10:57:59Z</time>
      </trkpt>
      <trkpt lat="42.346624" lon="-3.752971">
        <ele>840.896</ele>
        <time>2021-07-23T10:58:09Z</time>
      </trkpt>
      <trkpt lat="42.346614" lon="-3.752491">
        <ele>841.258</ele>
        <time>2021-07-23T10:58:18Z</time>
      </trkpt>
      <trkpt lat="42.346544" lon="-3.752145">
        <ele>842.265</ele>
        <time>2021-07-23T10:58:26Z</time>
      </trkpt>
      <trkpt lat="42.346399" lon="-3.751725">
        <ele>841.785</ele>
        <time>2021-07-23T10:58:35Z</time>
      </trkpt>
      <trkpt lat="42.346175" lon="-3.751402">
        <ele>842.229</ele>
        <time>2021-07-23T10:58:44Z</time>
      </trkpt>
      <trkpt lat="42.346034" lon="-3.751162">
        <ele>841.747</ele>
        <time>2021-07-23T10:58:52Z</time>
      </trkpt>
      <trkpt lat="42.345861" lon="-3.750837">
        <ele>842.774</ele>
        <time>2021-07-23T10:59:01Z</time>
      </trkpt>
      <trkpt lat="42.345685" lon="-3.750459">
        <ele>842.732</ele>
        <time>2021-07-23T10:59:11Z</time>
      </trkpt>
      <trkpt lat="42.345462" lon="-3.750031">
        <ele>844.168</ele>
        <time>2021-07-23T10:59:22Z</time>
      </trkpt>
      <trkpt lat="42.345351" lon="-3.749673">
        <ele>844.142</ele>
        <time>2021-07-23T10:59:30Z</time>
      </trkpt>
      <trkpt lat="42.345273" lon="-3.749277">
        <ele>843.626</ele>
        <time>2021-07-23T10:59:39Z</time>
      </trkpt>
      <trkpt lat="42.345156" lon="-3.748791">
        <ele>843.208</ele>
        <time>2021-07-23T10:59:49Z</time>
      </trkpt>
      <trkpt lat="42.345061" lon="-3.748359">
        <ele>842.763</ele>
        <time>2021-07-23T10:59:58Z</time>
      </trkpt>
      <trkpt lat="42.344948" lon="-3.747960">
        <ele>842.285</ele>
        <time>2021-07-23T11:00:06Z</time>
      </trkpt>
      <trkpt lat="42.344801" lon="-3.747607">
        <ele>842.262</ele>
        <time>2021-07-23T11:00:14Z</time>
      </trkpt>
      <trkpt lat="42.344607" lon="-3.747130">
        <ele>843.252</ele>
        <time>2021-07-23T11:00:25Z</time>
      </trkpt>
      <trkpt lat="42.344394" lon="-3.746675">
        <ele>843.616</ele>
        <time>2021-07-23T11:00:36Z</time>
      </trkpt>
      <trkpt lat="42.344270" lon="-3.746429">
        <ele>844.164</ele>
        <time>2021-07-23T11:00:42Z</time>
      </trkpt>
      <trkpt lat="42.344070" lon="-3.746055">
        <ele>844.151</ele>
        <time>2021-07-23T11:00:51Z</time>
      </trkpt>
      <trkpt lat="42.343877" lon="-3.745692">
        <ele>845.179</ele>
        <time>2021-07-23T11:01:00Z</time>
      </trkpt>
      <trkpt lat="42.343749" lon="-3.745290">
        <ele>845.673</ele>
        <time>2021-07-23T11:01:08Z</time>
      </trkpt>
      <trkpt lat="42.343692" lon="-3.745031">
        <ele>845.185</ele>
        <time>2021-07-23T11:01:13Z</time>
      </trkpt>
      <trkpt lat="42.343610" lon="-3.744547">
        <ele>844.113</ele>
        <time>2021-07-23T11:01:23Z</time>
      </trkpt>
      <trkpt lat="42.343593" lon="-3.744123">
        <ele>844.108</ele>
        <time>2021-07-23T11:01:33Z</time>
      </trkpt>
      <trkpt lat="42.343606" lon="-3.743761">
        <ele>844.144</ele>
        <time>2021-07-23T11:01:40Z</time>
      </trkpt>
      <trkpt lat="42.343611" lon="-3.743594">
        <ele>844.146</ele>
        <time>2021-07-23T11:01:43Z</time>
      </trkpt>
      <trkpt lat="42.343614" lon="-3.743536">
        <ele>844.113</ele>
        <time>2021-07-23T11:01:44Z</time>
      </trkpt>
      <trkpt lat="42.343627" lon="-3.743022">
        <ele>844.633</ele>
        <time>2021-07-23T11:01:53Z</time>
      </trkpt>
      <trkpt lat="42.343632" lon="-3.742910">
        <ele>844.657</ele>
        <time>2021-07-23T11:01:55Z</time>
      </trkpt>
      <trkpt lat="42.343633" lon="-3.742852">
        <ele>844.635</ele>
        <time>2021-07-23T11:01:56Z</time>
      </trkpt>
      <trkpt lat="42.343652" lon="-3.742233">
        <ele>845.132</ele>
        <time>2021-07-23T11:02:07Z</time>
      </trkpt>
      <trkpt lat="42.343659" lon="-3.742120">
        <ele>845.120</ele>
        <time>2021-07-23T11:02:09Z</time>
      </trkpt>
      <trkpt lat="42.343663" lon="-3.742065">
        <ele>845.626</ele>
        <time>2021-07-23T11:02:10Z</time>
      </trkpt>
      <trkpt lat="42.343671" lon="-3.741839">
        <ele>845.647</ele>
        <time>2021-07-23T11:02:14Z</time>
      </trkpt>
      <trkpt lat="42.343692" lon="-3.741223">
        <ele>846.511</ele>
        <time>2021-07-23T11:02:25Z</time>
      </trkpt>
      <trkpt lat="42.343747" lon="-3.740688">
        <ele>847.008</ele>
        <time>2021-07-23T11:02:35Z</time>
      </trkpt>
      <trkpt lat="42.343742" lon="-3.740326">
        <ele>847.099</ele>
        <time>2021-07-23T11:02:41Z</time>
      </trkpt>
      <trkpt lat="42.343743" lon="-3.740263">
        <ele>847.011</ele>
        <time>2021-07-23T11:02:42Z</time>
      </trkpt>
      <trkpt lat="42.343715" lon="-3.739809">
        <ele>847.058</ele>
        <time>2021-07-23T11:02:50Z</time>
      </trkpt>
      <trkpt lat="42.343683" lon="-3.739400">
        <ele>847.018</ele>
        <time>2021-07-23T11:02:57Z</time>
      </trkpt>
      <trkpt lat="42.343625" lon="-3.738845">
        <ele>847.572</ele>
        <time>2021-07-23T11:03:06Z</time>
      </trkpt>
      <trkpt lat="42.343542" lon="-3.738331">
        <ele>847.530</ele>
        <time>2021-07-23T11:03:15Z</time>
      </trkpt>
      <trkpt lat="42.343417" lon="-3.737796">
        <ele>847.067</ele>
        <time>2021-07-23T11:03:24Z</time>
      </trkpt>
      <trkpt lat="42.343275" lon="-3.737177">
        <ele>848.055</ele>
        <time>2021-07-23T11:03:34Z</time>
      </trkpt>
      <trkpt lat="42.343263" lon="-3.737119">
        <ele>848.079</ele>
        <time>2021-07-23T11:03:35Z</time>
      </trkpt>
      <trkpt lat="42.343141" lon="-3.736846">
        <ele>848.505</ele>
        <time>2021-07-23T11:03:41Z</time>
      </trkpt>
      <trkpt lat="42.343113" lon="-3.736826">
        <ele>848.525</ele>
        <time>2021-07-23T11:03:42Z</time>
      </trkpt>
      <trkpt lat="42.342879" lon="-3.736675">
        <ele>848.908</ele>
        <time>2021-07-23T11:03:49Z</time>
      </trkpt>
      <trkpt lat="42.342830" lon="-3.736474">
        <ele>848.534</ele>
        <time>2021-07-23T11:03:53Z</time>
      </trkpt>
      <trkpt lat="42.342797" lon="-3.736121">
        <ele>848.066</ele>
        <time>2021-07-23T11:04:00Z</time>
      </trkpt>
      <trkpt lat="42.342779" lon="-3.736101">
        <ele>848.033</ele>
        <time>2021-07-23T11:04:01Z</time>
      </trkpt>
      <trkpt lat="42.342760" lon="-3.736093">
        <ele>848.063</ele>
        <time>2021-07-23T11:04:02Z</time>
      </trkpt>
      <trkpt lat="42.342738" lon="-3.736076">
        <ele>848.057</ele>
        <time>2021-07-23T11:04:03Z</time>
      </trkpt>
      <trkpt lat="42.342726" lon="-3.736045">
        <ele>848.085</ele>
        <time>2021-07-23T11:04:04Z</time>
      </trkpt>
      <trkpt lat="42.342721" lon="-3.735994">
        <ele>848.062</ele>
        <time>2021-07-23T11:04:05Z</time>
      </trkpt>
      <trkpt lat="42.342721" lon="-3.735965">
        <ele>847.540</ele>
        <time>2021-07-23T11:04:06Z</time>
      </trkpt>
      <trkpt lat="42.342719" lon="-3.735917">
        <ele>847.528</ele>
        <time>2021-07-23T11:04:07Z</time>
      </trkpt>
      <trkpt lat="42.342714" lon="-3.735866">
        <ele>847.089</ele>
        <time>2021-07-23T11:04:08Z</time>
      </trkpt>
      <trkpt lat="42.342655" lon="-3.735391">
        <ele>847.517</ele>
        <time>2021-07-23T11:04:17Z</time>
      </trkpt>
      <trkpt lat="42.342611" lon="-3.734992">
        <ele>848.008</ele>
        <time>2021-07-23T11:04:24Z</time>
      </trkpt>
      <trkpt lat="42.342605" lon="-3.734937">
        <ele>848.049</ele>
        <time>2021-07-23T11:04:25Z</time>
      </trkpt>
      <trkpt lat="42.342558" lon="-3.734583">
        <ele>849.471</ele>
        <time>2021-07-23T11:04:32Z</time>
      </trkpt>
      <trkpt lat="42.342488" lon="-3.734107">
        <ele>849.428</ele>
        <time>2021-07-23T11:04:43Z</time>
      </trkpt>
      <trkpt lat="42.342343" lon="-3.733825">
        <ele>849.498</ele>
        <time>2021-07-23T11:04:51Z</time>
      </trkpt>
      <trkpt lat="42.342284" lon="-3.733599">
        <ele>849.962</ele>
        <time>2021-07-23T11:04:57Z</time>
      </trkpt>
      <trkpt lat="42.342277" lon="-3.733437">
        <ele>849.930</ele>
        <time>2021-07-23T11:05:02Z</time>
      </trkpt>
      <trkpt lat="42.342293" lon="-3.733407">
        <ele>849.417</ele>
        <time>2021-07-23T11:05:03Z</time>
      </trkpt>
      <trkpt lat="42.342412" lon="-3.733161">
        <ele>849.465</ele>
        <time>2021-07-23T11:05:10Z</time>
      </trkpt>
      <trkpt lat="42.342399" lon="-3.732791">
        <ele>848.915</ele>
        <time>2021-07-23T11:05:18Z</time>
      </trkpt>
      <trkpt lat="42.342370" lon="-3.732290">
        <ele>848.965</ele>
        <time>2021-07-23T11:05:28Z</time>
      </trkpt>
      <trkpt lat="42.342348" lon="-3.731744">
        <ele>849.411</ele>
        <time>2021-07-23T11:05:38Z</time>
      </trkpt>
      <trkpt lat="42.342306" lon="-3.731336">
        <ele>850.408</ele>
        <time>2021-07-23T11:05:47Z</time>
      </trkpt>
      <trkpt lat="42.342273" lon="-3.731114">
        <ele>850.968</ele>
        <time>2021-07-23T11:05:55Z</time>
      </trkpt>
      <trkpt lat="42.342320" lon="-3.731085">
        <ele>853.770</ele>
        <time>2021-07-23T11:06:08Z</time>
      </trkpt>
      <trkpt lat="42.342309" lon="-3.731099">
        <ele>856.127</ele>
        <time>2021-07-23T11:06:24Z</time>
      </trkpt>
      <trkpt lat="42.342278" lon="-3.731099">
        <ele>857.117</ele>
        <time>2021-07-23T11:06:37Z</time>
      </trkpt>
      <trkpt lat="42.342294" lon="-3.731093">
        <ele>857.641</ele>
        <time>2021-07-23T11:06:53Z</time>
      </trkpt>
      <trkpt lat="42.342285" lon="-3.731055">
        <ele>860.599</ele>
        <time>2021-07-23T11:07:12Z</time>
      </trkpt>
      <trkpt lat="42.342244" lon="-3.731059">
        <ele>861.946</ele>
        <time>2021-07-23T11:07:33Z</time>
      </trkpt>
      <trkpt lat="42.342232" lon="-3.731080">
        <ele>859.074</ele>
        <time>2021-07-23T11:07:46Z</time>
      </trkpt>
      <trkpt lat="42.342236" lon="-3.731092">
        <ele>857.192</ele>
        <time>2021-07-23T11:08:02Z</time>
      </trkpt>
      <trkpt lat="42.342232" lon="-3.731084">
        <ele>857.173</ele>
        <time>2021-07-23T11:08:18Z</time>
      </trkpt>
      <trkpt lat="42.342228" lon="-3.731100">
        <ele>857.620</ele>
        <time>2021-07-23T11:08:37Z</time>
      </trkpt>
      <trkpt lat="42.342228" lon="-3.731131">
        <ele>853.708</ele>
        <time>2021-07-23T11:08:50Z</time>
      </trkpt>
      <trkpt lat="42.342253" lon="-3.731128">
        <ele>853.316</ele>
        <time>2021-07-23T11:08:53Z</time>
      </trkpt>
      <trkpt lat="42.342307" lon="-3.731121">
        <ele>852.338</ele>
        <time>2021-07-23T11:08:57Z</time>
      </trkpt>
      <trkpt lat="42.342317" lon="-3.731114">
        <ele>851.825</ele>
        <time>2021-07-23T11:08:58Z</time>
      </trkpt>
      <trkpt lat="42.342329" lon="-3.731108">
        <ele>851.865</ele>
        <time>2021-07-23T11:08:59Z</time>
      </trkpt>
      <trkpt lat="42.342341" lon="-3.731102">
        <ele>851.819</ele>
        <time>2021-07-23T11:09:00Z</time>
      </trkpt>
      <trkpt lat="42.342410" lon="-3.731053">
        <ele>852.327</ele>
        <time>2021-07-23T11:09:08Z</time>
      </trkpt>
      <trkpt lat="42.342415" lon="-3.731028">
        <ele>853.354</ele>
        <time>2021-07-23T11:09:10Z</time>
      </trkpt>
      <trkpt lat="42.342419" lon="-3.731013">
        <ele>853.742</ele>
        <time>2021-07-23T11:09:11Z</time>
      </trkpt>
      <trkpt lat="42.342426" lon="-3.731000">
        <ele>853.747</ele>
        <time>2021-07-23T11:09:12Z</time>
      </trkpt>
      <trkpt lat="42.342432" lon="-3.730995">
        <ele>854.229</ele>
        <time>2021-07-23T11:09:13Z</time>
      </trkpt>
      <trkpt lat="42.342441" lon="-3.730994">
        <ele>854.721</ele>
        <time>2021-07-23T11:09:14Z</time>
      </trkpt>
      <trkpt lat="42.342451" lon="-3.730993">
        <ele>855.208</ele>
        <time>2021-07-23T11:09:15Z</time>
      </trkpt>
      <trkpt lat="42.342459" lon="-3.730994">
        <ele>855.771</ele>
        <time>2021-07-23T11:09:16Z</time>
      </trkpt>
      <trkpt lat="42.342496" lon="-3.731022">
        <ele>858.183</ele>
        <time>2021-07-23T11:09:24Z</time>
      </trkpt>
      <trkpt lat="42.342497" lon="-3.731082">
        <ele>859.090</ele>
        <time>2021-07-23T11:09:36Z</time>
      </trkpt>
      <trkpt lat="42.342494" lon="-3.731098">
        <ele>858.510</ele>
        <time>2021-07-23T11:09:42Z</time>
      </trkpt>
      <trkpt lat="42.342484" lon="-3.731151">
        <ele>858.514</ele>
        <time>2021-07-23T11:09:55Z</time>
      </trkpt>
      <trkpt lat="42.342479" lon="-3.731169">
        <ele>858.152</ele>
        <time>2021-07-23T11:10:13Z</time>
      </trkpt>
      <trkpt lat="42.342535" lon="-3.731212">
        <ele>859.549</ele>
        <time>2021-07-23T11:10:34Z</time>
      </trkpt>
      <trkpt lat="42.342554" lon="-3.731226">
        <ele>861.457</ele>
        <time>2021-07-23T11:10:53Z</time>
      </trkpt>
      <trkpt lat="42.342534" lon="-3.731202">
        <ele>862.958</ele>
        <time>2021-07-23T11:11:06Z</time>
      </trkpt>
      <trkpt lat="42.342519" lon="-3.731180">
        <ele>862.952</ele>
        <time>2021-07-23T11:11:19Z</time>
      </trkpt>
      <trkpt lat="42.342521" lon="-3.731175">
        <ele>866.217</ele>
        <time>2021-07-23T11:11:38Z</time>
      </trkpt>
      <trkpt lat="42.342483" lon="-3.731179">
        <ele>873.508</ele>
        <time>2021-07-23T11:11:52Z</time>
      </trkpt>
      <trkpt lat="42.342476" lon="-3.731204">
        <ele>874.962</ele>
        <time>2021-07-23T11:12:02Z</time>
      </trkpt>
      <trkpt lat="42.342480" lon="-3.731191">
        <ele>875.994</ele>
        <time>2021-07-23T11:12:21Z</time>
      </trkpt>
      <trkpt lat="42.342450" lon="-3.731174">
        <ele>880.251</ele>
        <time>2021-07-23T11:12:41Z</time>
      </trkpt>
      <trkpt lat="42.342423" lon="-3.731149">
        <ele>885.091</ele>
        <time>2021-07-23T11:13:02Z</time>
      </trkpt>
      <trkpt lat="42.342436" lon="-3.731127">
        <ele>885.075</ele>
        <time>2021-07-23T11:13:13Z</time>
      </trkpt>
      <trkpt lat="42.342451" lon="-3.731122">
        <ele>885.073</ele>
        <time>2021-07-23T11:13:27Z</time>
      </trkpt>
      <trkpt lat="42.342535" lon="-3.731073">
        <ele>889.880</ele>
        <time>2021-07-23T11:52:00Z</time>
      </trkpt>
      <trkpt lat="42.342516" lon="-3.731157">
        <ele>865.888</ele>
        <time>2021-07-23T11:52:10Z</time>
      </trkpt>
      <trkpt lat="42.342374" lon="-3.731146">
        <ele>862.481</ele>
        <time>2021-07-23T11:52:21Z</time>
      </trkpt>
      <trkpt lat="42.342315" lon="-3.731123">
        <ele>862.461</ele>
        <time>2021-07-23T11:52:29Z</time>
      </trkpt>
      <trkpt lat="42.342284" lon="-3.731144">
        <ele>859.517</ele>
        <time>2021-07-23T11:52:36Z</time>
      </trkpt>
      <trkpt lat="42.342296" lon="-3.731155">
        <ele>857.608</ele>
        <time>2021-07-23T11:52:40Z</time>
      </trkpt>
      <trkpt lat="42.342269" lon="-3.731075">
        <ele>858.115</ele>
        <time>2021-07-23T11:52:45Z</time>
      </trkpt>
      <trkpt lat="42.342264" lon="-3.731037">
        <ele>857.617</ele>
        <time>2021-07-23T11:52:46Z</time>
      </trkpt>
      <trkpt lat="42.342263" lon="-3.731015">
        <ele>858.114</ele>
        <time>2021-07-23T11:52:47Z</time>
      </trkpt>
      <trkpt lat="42.342261" lon="-3.730979">
        <ele>858.124</ele>
        <time>2021-07-23T11:52:48Z</time>
      </trkpt>
      <trkpt lat="42.342259" lon="-3.730939">
        <ele>858.118</ele>
        <time>2021-07-23T11:52:49Z</time>
      </trkpt>
      <trkpt lat="42.342255" lon="-3.730902">
        <ele>857.676</ele>
        <time>2021-07-23T11:52:50Z</time>
      </trkpt>
      <trkpt lat="42.342248" lon="-3.730867">
        <ele>857.623</ele>
        <time>2021-07-23T11:52:51Z</time>
      </trkpt>
      <trkpt lat="42.342241" lon="-3.730830">
        <ele>856.631</ele>
        <time>2021-07-23T11:52:52Z</time>
      </trkpt>
      <trkpt lat="42.342236" lon="-3.730793">
        <ele>856.684</ele>
        <time>2021-07-23T11:52:53Z</time>
      </trkpt>
      <trkpt lat="42.342233" lon="-3.730752">
        <ele>856.107</ele>
        <time>2021-07-23T11:52:54Z</time>
      </trkpt>
      <trkpt lat="42.342225" lon="-3.730711">
        <ele>856.117</ele>
        <time>2021-07-23T11:52:55Z</time>
      </trkpt>
      <trkpt lat="42.342221" lon="-3.730665">
        <ele>855.708</ele>
        <time>2021-07-23T11:52:56Z</time>
      </trkpt>
      <trkpt lat="42.342218" lon="-3.730619">
        <ele>855.725</ele>
        <time>2021-07-23T11:52:57Z</time>
      </trkpt>
      <trkpt lat="42.342213" lon="-3.730570">
        <ele>855.217</ele>
        <time>2021-07-23T11:52:58Z</time>
      </trkpt>
      <trkpt lat="42.342170" lon="-3.730167">
        <ele>852.314</ele>
        <time>2021-07-23T11:53:06Z</time>
      </trkpt>
      <trkpt lat="42.342096" lon="-3.729670">
        <ele>850.934</ele>
        <time>2021-07-23T11:53:17Z</time>
      </trkpt>
      <trkpt lat="42.342063" lon="-3.729413">
        <ele>850.948</ele>
        <time>2021-07-23T11:53:23Z</time>
      </trkpt>
      <trkpt lat="42.342043" lon="-3.729385">
        <ele>850.486</ele>
        <time>2021-07-23T11:53:24Z</time>
      </trkpt>
      <trkpt lat="42.342013" lon="-3.729374">
        <ele>850.983</ele>
        <time>2021-07-23T11:53:25Z</time>
      </trkpt>
      <trkpt lat="42.341986" lon="-3.729374">
        <ele>850.411</ele>
        <time>2021-07-23T11:53:26Z</time>
      </trkpt>
      <trkpt lat="42.341959" lon="-3.729369">
        <ele>850.457</ele>
        <time>2021-07-23T11:53:27Z</time>
      </trkpt>
      <trkpt lat="42.341934" lon="-3.729347">
        <ele>850.400</ele>
        <time>2021-07-23T11:53:28Z</time>
      </trkpt>
      <trkpt lat="42.341919" lon="-3.729317">
        <ele>850.420</ele>
        <time>2021-07-23T11:53:29Z</time>
      </trkpt>
      <trkpt lat="42.341906" lon="-3.729289">
        <ele>850.408</ele>
        <time>2021-07-23T11:53:30Z</time>
      </trkpt>
      <trkpt lat="42.341891" lon="-3.729259">
        <ele>850.472</ele>
        <time>2021-07-23T11:53:31Z</time>
      </trkpt>
      <trkpt lat="42.341876" lon="-3.729042">
        <ele>850.434</ele>
        <time>2021-07-23T11:53:37Z</time>
      </trkpt>
      <trkpt lat="42.341877" lon="-3.728748">
        <ele>850.431</ele>
        <time>2021-07-23T11:53:44Z</time>
      </trkpt>
      <trkpt lat="42.341837" lon="-3.728469">
        <ele>849.981</ele>
        <time>2021-07-23T11:53:52Z</time>
      </trkpt>
      <trkpt lat="42.341838" lon="-3.728433">
        <ele>849.915</ele>
        <time>2021-07-23T11:53:53Z</time>
      </trkpt>
      <trkpt lat="42.341849" lon="-3.728403">
        <ele>849.963</ele>
        <time>2021-07-23T11:53:54Z</time>
      </trkpt>
      <trkpt lat="42.341867" lon="-3.728381">
        <ele>849.930</ele>
        <time>2021-07-23T11:53:55Z</time>
      </trkpt>
      <trkpt lat="42.341889" lon="-3.728357">
        <ele>849.928</ele>
        <time>2021-07-23T11:53:56Z</time>
      </trkpt>
      <trkpt lat="42.341911" lon="-3.728330">
        <ele>849.929</ele>
        <time>2021-07-23T11:53:57Z</time>
      </trkpt>
      <trkpt lat="42.341943" lon="-3.728175">
        <ele>849.400</ele>
        <time>2021-07-23T11:54:01Z</time>
      </trkpt>
      <trkpt lat="42.341907" lon="-3.727803">
        <ele>850.420</ele>
        <time>2021-07-23T11:54:10Z</time>
      </trkpt>
      <trkpt lat="42.341870" lon="-3.727466">
        <ele>851.308</ele>
        <time>2021-07-23T11:54:19Z</time>
      </trkpt>
      <trkpt lat="42.341836" lon="-3.727199">
        <ele>851.399</ele>
        <time>2021-07-23T11:54:26Z</time>
      </trkpt>
      <trkpt lat="42.341831" lon="-3.727009">
        <ele>850.471</ele>
        <time>2021-07-23T11:54:33Z</time>
      </trkpt>
      <trkpt lat="42.341806" lon="-3.726741">
        <ele>850.978</ele>
        <time>2021-07-23T11:54:41Z</time>
      </trkpt>
      <trkpt lat="42.341763" lon="-3.726335">
        <ele>853.378</ele>
        <time>2021-07-23T11:54:52Z</time>
      </trkpt>
      <trkpt lat="42.341740" lon="-3.725961">
        <ele>855.242</ele>
        <time>2021-07-23T11:55:01Z</time>
      </trkpt>
      <trkpt lat="42.341709" lon="-3.725588">
        <ele>856.660</ele>
        <time>2021-07-23T11:55:09Z</time>
      </trkpt>
      <trkpt lat="42.341669" lon="-3.725207">
        <ele>855.727</ele>
        <time>2021-07-23T11:55:18Z</time>
      </trkpt>
      <trkpt lat="42.341657" lon="-3.725060">
        <ele>855.765</ele>
        <time>2021-07-23T11:55:23Z</time>
      </trkpt>
      <trkpt lat="42.341650" lon="-3.725046">
        <ele>855.799</ele>
        <time>2021-07-23T11:55:24Z</time>
      </trkpt>
      <trkpt lat="42.341641" lon="-3.725038">
        <ele>855.707</ele>
        <time>2021-07-23T11:55:25Z</time>
      </trkpt>
      <trkpt lat="42.341631" lon="-3.725035">
        <ele>855.727</ele>
        <time>2021-07-23T11:55:26Z</time>
      </trkpt>
      <trkpt lat="42.341620" lon="-3.725033">
        <ele>855.708</ele>
        <time>2021-07-23T11:55:27Z</time>
      </trkpt>
      <trkpt lat="42.341580" lon="-3.725032">
        <ele>856.136</ele>
        <time>2021-07-23T11:55:30Z</time>
      </trkpt>
      <trkpt lat="42.341543" lon="-3.725030">
        <ele>857.168</ele>
        <time>2021-07-23T11:55:36Z</time>
      </trkpt>
      <trkpt lat="42.341517" lon="-3.725043">
        <ele>857.155</ele>
        <time>2021-07-23T11:55:45Z</time>
      </trkpt>
      <trkpt lat="42.341509" lon="-3.724979">
        <ele>855.775</ele>
        <time>2021-07-23T11:55:58Z</time>
      </trkpt>
      <trkpt lat="42.341506" lon="-3.724975">
        <ele>851.879</ele>
        <time>2021-07-23T11:56:17Z</time>
      </trkpt>
      <trkpt lat="42.341506" lon="-3.725009">
        <ele>851.817</ele>
        <time>2021-07-23T11:56:37Z</time>
      </trkpt>
      <trkpt lat="42.341490" lon="-3.725006">
        <ele>854.284</ele>
        <time>2021-07-23T11:57:02Z</time>
      </trkpt>
      <trkpt lat="42.341499" lon="-3.724999">
        <ele>850.912</ele>
        <time>2021-07-23T11:57:27Z</time>
      </trkpt>
      <trkpt lat="42.341533" lon="-3.724994">
        <ele>850.413</ele>
        <time>2021-07-23T11:57:54Z</time>
      </trkpt>
      <trkpt lat="42.341500" lon="-3.725002">
        <ele>846.543</ele>
        <time>2021-07-23T11:58:23Z</time>
      </trkpt>
      <trkpt lat="42.341524" lon="-3.725003">
        <ele>845.607</ele>
        <time>2021-07-23T11:58:48Z</time>
      </trkpt>
      <trkpt lat="42.341521" lon="-3.724996">
        <ele>848.008</ele>
        <time>2021-07-23T11:59:08Z</time>
      </trkpt>
      <trkpt lat="42.341495" lon="-3.725022">
        <ele>848.068</ele>
        <time>2021-07-23T11:59:29Z</time>
      </trkpt>
      <trkpt lat="42.341471" lon="-3.725006">
        <ele>849.990</ele>
        <time>2021-07-23T11:59:51Z</time>
      </trkpt>
      <trkpt lat="42.341468" lon="-3.724984">
        <ele>851.377</ele>
        <time>2021-07-23T12:00:13Z</time>
      </trkpt>
      <trkpt lat="42.341499" lon="-3.724976">
        <ele>850.417</ele>
        <time>2021-07-23T12:00:32Z</time>
      </trkpt>
      <trkpt lat="42.341499" lon="-3.725005">
        <ele>848.921</ele>
        <time>2021-07-23T12:00:49Z</time>
      </trkpt>
      <trkpt lat="42.341488" lon="-3.724963">
        <ele>847.019</ele>
        <time>2021-07-23T12:01:09Z</time>
      </trkpt>
      <trkpt lat="42.341486" lon="-3.724965">
        <ele>845.656</ele>
        <time>2021-07-23T12:01:29Z</time>
      </trkpt>
      <trkpt lat="42.341494" lon="-3.724967">
        <ele>843.654</ele>
        <time>2021-07-23T12:01:56Z</time>
      </trkpt>
      <trkpt lat="42.341488" lon="-3.724967">
        <ele>845.172</ele>
        <time>2021-07-23T12:02:21Z</time>
      </trkpt>
      <trkpt lat="42.341488" lon="-3.724985">
        <ele>847.513</ele>
        <time>2021-07-23T12:02:43Z</time>
      </trkpt>
      <trkpt lat="42.341476" lon="-3.724949">
        <ele>848.014</ele>
        <time>2021-07-23T12:03:07Z</time>
      </trkpt>
      <trkpt lat="42.341471" lon="-3.724945">
        <ele>848.908</ele>
        <time>2021-07-23T12:03:30Z</time>
      </trkpt>
      <trkpt lat="42.341489" lon="-3.724967">
        <ele>851.814</ele>
        <time>2021-07-23T12:03:48Z</time>
      </trkpt>
      <trkpt lat="42.341496" lon="-3.724979">
        <ele>852.866</ele>
        <time>2021-07-23T12:04:09Z</time>
      </trkpt>
      <trkpt lat="42.341517" lon="-3.724983">
        <ele>853.313</ele>
        <time>2021-07-23T12:04:29Z</time>
      </trkpt>
      <trkpt lat="42.341506" lon="-3.724977">
        <ele>856.193</ele>
        <time>2021-07-23T12:04:49Z</time>
      </trkpt>
      <trkpt lat="42.341520" lon="-3.725005">
        <ele>854.747</ele>
        <time>2021-07-23T12:05:07Z</time>
      </trkpt>
      <trkpt lat="42.341485" lon="-3.724995">
        <ele>853.365</ele>
        <time>2021-07-23T12:05:26Z</time>
      </trkpt>
      <trkpt lat="42.341497" lon="-3.724995">
        <ele>854.742</ele>
        <time>2021-07-23T12:05:45Z</time>
      </trkpt>
      <trkpt lat="42.341480" lon="-3.724983">
        <ele>853.770</ele>
        <time>2021-07-23T12:06:04Z</time>
      </trkpt>
      <trkpt lat="42.341508" lon="-3.725011">
        <ele>853.738</ele>
        <time>2021-07-23T12:06:24Z</time>
      </trkpt>
      <trkpt lat="42.341468" lon="-3.724963">
        <ele>851.870</ele>
        <time>2021-07-23T12:06:47Z</time>
      </trkpt>
      <trkpt lat="42.341493" lon="-3.724971">
        <ele>852.817</ele>
        <time>2021-07-23T12:07:17Z</time>
      </trkpt>
      <trkpt lat="42.341516" lon="-3.725006">
        <ele>852.308</ele>
        <time>2021-07-23T12:07:42Z</time>
      </trkpt>
      <trkpt lat="42.341491" lon="-3.724993">
        <ele>852.380</ele>
        <time>2021-07-23T12:08:03Z</time>
      </trkpt>
      <trkpt lat="42.341524" lon="-3.724977">
        <ele>850.932</ele>
        <time>2021-07-23T12:08:28Z</time>
      </trkpt>
      <trkpt lat="42.341517" lon="-3.724985">
        <ele>851.869</ele>
        <time>2021-07-23T12:08:54Z</time>
      </trkpt>
      <trkpt lat="42.341505" lon="-3.724962">
        <ele>852.369</ele>
        <time>2021-07-23T12:09:14Z</time>
      </trkpt>
      <trkpt lat="42.341500" lon="-3.724964">
        <ele>852.823</ele>
        <time>2021-07-23T12:09:31Z</time>
      </trkpt>
      <trkpt lat="42.341473" lon="-3.724983">
        <ele>852.341</ele>
        <time>2021-07-23T12:09:48Z</time>
      </trkpt>
      <trkpt lat="42.341484" lon="-3.725008">
        <ele>854.278</ele>
        <time>2021-07-23T12:10:08Z</time>
      </trkpt>
      <trkpt lat="42.341485" lon="-3.724980">
        <ele>855.286</ele>
        <time>2021-07-23T12:10:27Z</time>
      </trkpt>
      <trkpt lat="42.341498" lon="-3.724939">
        <ele>856.149</ele>
        <time>2021-07-23T12:10:47Z</time>
      </trkpt>
      <trkpt lat="42.341469" lon="-3.724945">
        <ele>855.702</ele>
        <time>2021-07-23T12:11:12Z</time>
      </trkpt>
      <trkpt lat="42.341484" lon="-3.724948">
        <ele>854.722</ele>
        <time>2021-07-23T12:11:35Z</time>
      </trkpt>
      <trkpt lat="42.341504" lon="-3.724961">
        <ele>853.308</ele>
        <time>2021-07-23T12:11:59Z</time>
      </trkpt>
      <trkpt lat="42.341492" lon="-3.724986">
        <ele>855.721</ele>
        <time>2021-07-23T12:12:21Z</time>
      </trkpt>
      <trkpt lat="42.341494" lon="-3.724961">
        <ele>855.283</ele>
        <time>2021-07-23T12:12:37Z</time>
      </trkpt>
      <trkpt lat="42.341490" lon="-3.724962">
        <ele>854.710</ele>
        <time>2021-07-23T12:12:55Z</time>
      </trkpt>
      <trkpt lat="42.341495" lon="-3.724974">
        <ele>854.210</ele>
        <time>2021-07-23T12:13:15Z</time>
      </trkpt>
      <trkpt lat="42.341481" lon="-3.724963">
        <ele>852.394</ele>
        <time>2021-07-23T12:13:34Z</time>
      </trkpt>
      <trkpt lat="42.341490" lon="-3.724975">
        <ele>850.422</ele>
        <time>2021-07-23T12:13:53Z</time>
      </trkpt>
      <trkpt lat="42.341490" lon="-3.724982">
        <ele>852.879</ele>
        <time>2021-07-23T12:14:11Z</time>
      </trkpt>
      <trkpt lat="42.341500" lon="-3.725000">
        <ele>851.887</ele>
        <time>2021-07-23T12:14:28Z</time>
      </trkpt>
      <trkpt lat="42.341510" lon="-3.724968">
        <ele>855.761</ele>
        <time>2021-07-23T12:14:46Z</time>
      </trkpt>
      <trkpt lat="42.341515" lon="-3.724979">
        <ele>855.221</ele>
        <time>2021-07-23T12:15:00Z</time>
      </trkpt>
      <trkpt lat="42.341491" lon="-3.724965">
        <ele>851.313</ele>
        <time>2021-07-23T12:15:22Z</time>
      </trkpt>
      <trkpt lat="42.341483" lon="-3.724928">
        <ele>852.308</ele>
        <time>2021-07-23T12:15:43Z</time>
      </trkpt>
      <trkpt lat="42.341486" lon="-3.724928">
        <ele>854.763</ele>
        <time>2021-07-23T12:16:03Z</time>
      </trkpt>
      <trkpt lat="42.341482" lon="-3.724930">
        <ele>853.715</ele>
        <time>2021-07-23T12:16:20Z</time>
      </trkpt>
      <trkpt lat="42.341501" lon="-3.724981">
        <ele>852.842</ele>
        <time>2021-07-23T12:16:37Z</time>
      </trkpt>
      <trkpt lat="42.341497" lon="-3.724986">
        <ele>852.842</ele>
        <time>2021-07-23T12:16:55Z</time>
      </trkpt>
      <trkpt lat="42.341483" lon="-3.724993">
        <ele>853.766</ele>
        <time>2021-07-23T12:17:12Z</time>
      </trkpt>
      <trkpt lat="42.341477" lon="-3.725006">
        <ele>852.324</ele>
        <time>2021-07-23T12:17:29Z</time>
      </trkpt>
      <trkpt lat="42.341476" lon="-3.725003">
        <ele>855.231</ele>
        <time>2021-07-23T12:17:48Z</time>
      </trkpt>
      <trkpt lat="42.341492" lon="-3.724990">
        <ele>855.279</ele>
        <time>2021-07-23T12:18:03Z</time>
      </trkpt>
      <trkpt lat="42.341494" lon="-3.724989">
        <ele>854.294</ele>
        <time>2021-07-23T12:18:16Z</time>
      </trkpt>
      <trkpt lat="42.341501" lon="-3.724972">
        <ele>852.857</ele>
        <time>2021-07-23T12:18:29Z</time>
      </trkpt>
      <trkpt lat="42.341507" lon="-3.724961">
        <ele>852.822</ele>
        <time>2021-07-23T12:18:43Z</time>
      </trkpt>
      <trkpt lat="42.341509" lon="-3.724979">
        <ele>855.708</ele>
        <time>2021-07-23T12:19:00Z</time>
      </trkpt>
      <trkpt lat="42.341506" lon="-3.724967">
        <ele>857.646</ele>
        <time>2021-07-23T12:19:19Z</time>
      </trkpt>
      <trkpt lat="42.341482" lon="-3.724961">
        <ele>854.778</ele>
        <time>2021-07-23T12:19:34Z</time>
      </trkpt>
      <trkpt lat="42.341488" lon="-3.724946">
        <ele>853.765</ele>
        <time>2021-07-23T12:19:47Z</time>
      </trkpt>
      <trkpt lat="42.341493" lon="-3.724953">
        <ele>853.725</ele>
        <time>2021-07-23T12:20:01Z</time>
      </trkpt>
      <trkpt lat="42.341517" lon="-3.724971">
        <ele>857.149</ele>
        <time>2021-07-23T12:20:19Z</time>
      </trkpt>
      <trkpt lat="42.341499" lon="-3.724948">
        <ele>861.037</ele>
        <time>2021-07-23T12:20:40Z</time>
      </trkpt>
      <trkpt lat="42.341499" lon="-3.724950">
        <ele>860.054</ele>
        <time>2021-07-23T12:20:55Z</time>
      </trkpt>
      <trkpt lat="42.341491" lon="-3.724952">
        <ele>858.512</ele>
        <time>2021-07-23T12:21:08Z</time>
      </trkpt>
      <trkpt lat="42.341487" lon="-3.724999">
        <ele>854.287</ele>
        <time>2021-07-23T12:21:22Z</time>
      </trkpt>
      <trkpt lat="42.341484" lon="-3.725003">
        <ele>851.842</ele>
        <time>2021-07-23T12:21:36Z</time>
      </trkpt>
      <trkpt lat="42.341486" lon="-3.725006">
        <ele>851.326</ele>
        <time>2021-07-23T12:21:47Z</time>
      </trkpt>
      <trkpt lat="42.341495" lon="-3.725006">
        <ele>852.308</ele>
        <time>2021-07-23T12:22:03Z</time>
      </trkpt>
      <trkpt lat="42.341489" lon="-3.725004">
        <ele>851.815</ele>
        <time>2021-07-23T12:22:16Z</time>
      </trkpt>
      <trkpt lat="42.341498" lon="-3.724990">
        <ele>852.357</ele>
        <time>2021-07-23T12:22:35Z</time>
      </trkpt>
      <trkpt lat="42.341492" lon="-3.724985">
        <ele>851.824</ele>
        <time>2021-07-23T12:22:51Z</time>
      </trkpt>
      <trkpt lat="42.341511" lon="-3.724988">
        <ele>850.494</ele>
        <time>2021-07-23T12:23:05Z</time>
      </trkpt>
      <trkpt lat="42.341519" lon="-3.724964">
        <ele>849.928</ele>
        <time>2021-07-23T12:23:23Z</time>
      </trkpt>
      <trkpt lat="42.341507" lon="-3.724966">
        <ele>850.916</ele>
        <time>2021-07-23T12:23:41Z</time>
      </trkpt>
      <trkpt lat="42.341501" lon="-3.724969">
        <ele>849.963</ele>
        <time>2021-07-23T12:23:53Z</time>
      </trkpt>
      <trkpt lat="42.341517" lon="-3.724959">
        <ele>850.481</ele>
        <time>2021-07-23T12:24:14Z</time>
      </trkpt>
      <trkpt lat="42.341521" lon="-3.724992">
        <ele>851.358</ele>
        <time>2021-07-23T12:24:31Z</time>
      </trkpt>
      <trkpt lat="42.341519" lon="-3.725007">
        <ele>850.452</ele>
        <time>2021-07-23T12:24:46Z</time>
      </trkpt>
      <trkpt lat="42.341516" lon="-3.725017">
        <ele>848.917</ele>
        <time>2021-07-23T12:24:57Z</time>
      </trkpt>
      <trkpt lat="42.341527" lon="-3.725006">
        <ele>847.508</ele>
        <time>2021-07-23T12:25:11Z</time>
      </trkpt>
      <trkpt lat="42.341546" lon="-3.725019">
        <ele>848.092</ele>
        <time>2021-07-23T12:25:23Z</time>
      </trkpt>
      <trkpt lat="42.341523" lon="-3.725006">
        <ele>850.434</ele>
        <time>2021-07-23T12:25:39Z</time>
      </trkpt>
      <trkpt lat="42.341529" lon="-3.724991">
        <ele>853.711</ele>
        <time>2021-07-23T12:25:54Z</time>
      </trkpt>
      <trkpt lat="42.341496" lon="-3.725002">
        <ele>856.181</ele>
        <time>2021-07-23T12:26:07Z</time>
      </trkpt>
      <trkpt lat="42.341500" lon="-3.724988">
        <ele>853.735</ele>
        <time>2021-07-23T12:26:23Z</time>
      </trkpt>
      <trkpt lat="42.341503" lon="-3.724974">
        <ele>851.383</ele>
        <time>2021-07-23T12:26:36Z</time>
      </trkpt>
      <trkpt lat="42.341508" lon="-3.724966">
        <ele>851.880</ele>
        <time>2021-07-23T12:26:47Z</time>
      </trkpt>
      <trkpt lat="42.341495" lon="-3.724967">
        <ele>852.838</ele>
        <time>2021-07-23T12:26:59Z</time>
      </trkpt>
      <trkpt lat="42.341502" lon="-3.724980">
        <ele>853.312</ele>
        <time>2021-07-23T12:27:15Z</time>
      </trkpt>
      <trkpt lat="42.341493" lon="-3.724968">
        <ele>855.232</ele>
        <time>2021-07-23T12:27:28Z</time>
      </trkpt>
      <trkpt lat="42.341494" lon="-3.724977">
        <ele>856.105</ele>
        <time>2021-07-23T12:27:40Z</time>
      </trkpt>
      <trkpt lat="42.341510" lon="-3.724953">
        <ele>856.108</ele>
        <time>2021-07-23T12:27:51Z</time>
      </trkpt>
      <trkpt lat="42.341508" lon="-3.724966">
        <ele>856.118</ele>
        <time>2021-07-23T12:28:06Z</time>
      </trkpt>
      <trkpt lat="42.341522" lon="-3.724972">
        <ele>855.790</ele>
        <time>2021-07-23T12:28:16Z</time>
      </trkpt>
      <trkpt lat="42.341544" lon="-3.724952">
        <ele>852.867</ele>
        <time>2021-07-23T12:28:36Z</time>
      </trkpt>
      <trkpt lat="42.341547" lon="-3.724962">
        <ele>852.317</ele>
        <time>2021-07-23T12:28:52Z</time>
      </trkpt>
      <trkpt lat="42.341529" lon="-3.725006">
        <ele>853.771</ele>
        <time>2021-07-23T12:29:09Z</time>
      </trkpt>
      <trkpt lat="42.341516" lon="-3.725021">
        <ele>854.739</ele>
        <time>2021-07-23T12:29:27Z</time>
      </trkpt>
      <trkpt lat="42.341536" lon="-3.725014">
        <ele>853.726</ele>
        <time>2021-07-23T12:29:48Z</time>
      </trkpt>
      <trkpt lat="42.341526" lon="-3.725019">
        <ele>852.814</ele>
        <time>2021-07-23T12:30:13Z</time>
      </trkpt>
      <trkpt lat="42.341534" lon="-3.725019">
        <ele>851.312</ele>
        <time>2021-07-23T12:30:32Z</time>
      </trkpt>
      <trkpt lat="42.341530" lon="-3.725001">
        <ele>852.832</ele>
        <time>2021-07-23T12:30:52Z</time>
      </trkpt>
      <trkpt lat="42.341542" lon="-3.725021">
        <ele>850.405</ele>
        <time>2021-07-23T12:31:16Z</time>
      </trkpt>
      <trkpt lat="42.341541" lon="-3.725011">
        <ele>850.908</ele>
        <time>2021-07-23T12:31:37Z</time>
      </trkpt>
      <trkpt lat="42.341520" lon="-3.725016">
        <ele>851.858</ele>
        <time>2021-07-23T12:31:51Z</time>
      </trkpt>
      <trkpt lat="42.341527" lon="-3.724996">
        <ele>850.970</ele>
        <time>2021-07-23T12:32:06Z</time>
      </trkpt>
      <trkpt lat="42.341531" lon="-3.724998">
        <ele>855.727</ele>
        <time>2021-07-23T12:32:24Z</time>
      </trkpt>
      <trkpt lat="42.341530" lon="-3.724988">
        <ele>856.157</ele>
        <time>2021-07-23T12:32:39Z</time>
      </trkpt>
      <trkpt lat="42.341516" lon="-3.724981">
        <ele>858.551</ele>
        <time>2021-07-23T12:32:54Z</time>
      </trkpt>
      <trkpt lat="42.341516" lon="-3.724981">
        <ele>858.559</ele>
        <time>2021-07-23T12:33:13Z</time>
      </trkpt>
      <trkpt lat="42.341520" lon="-3.724996">
        <ele>857.196</ele>
        <time>2021-07-23T12:33:28Z</time>
      </trkpt>
      <trkpt lat="42.341542" lon="-3.725003">
        <ele>857.174</ele>
        <time>2021-07-23T12:33:43Z</time>
      </trkpt>
      <trkpt lat="42.341533" lon="-3.724982">
        <ele>857.646</ele>
        <time>2021-07-23T12:34:01Z</time>
      </trkpt>
      <trkpt lat="42.341548" lon="-3.724980">
        <ele>857.188</ele>
        <time>2021-07-23T12:34:14Z</time>
      </trkpt>
      <trkpt lat="42.341610" lon="-3.724982">
        <ele>861.016</ele>
        <time>2021-07-23T12:34:33Z</time>
      </trkpt>
      <trkpt lat="42.341549" lon="-3.724984">
        <ele>863.408</ele>
        <time>2021-07-23T12:34:50Z</time>
      </trkpt>
      <trkpt lat="42.341522" lon="-3.725000">
        <ele>865.821</ele>
        <time>2021-07-23T12:35:10Z</time>
      </trkpt>
      <trkpt lat="42.341529" lon="-3.725031">
        <ele>864.333</ele>
        <time>2021-07-23T12:35:24Z</time>
      </trkpt>
      <trkpt lat="42.341530" lon="-3.725043">
        <ele>863.840</ele>
        <time>2021-07-23T12:35:33Z</time>
      </trkpt>
      <trkpt lat="42.341543" lon="-3.725014">
        <ele>861.090</ele>
        <time>2021-07-23T12:35:48Z</time>
      </trkpt>
      <trkpt lat="42.341508" lon="-3.724997">
        <ele>860.044</ele>
        <time>2021-07-23T12:36:06Z</time>
      </trkpt>
      <trkpt lat="42.341490" lon="-3.725021">
        <ele>859.042</ele>
        <time>2021-07-23T12:36:23Z</time>
      </trkpt>
      <trkpt lat="42.341498" lon="-3.725003">
        <ele>859.089</ele>
        <time>2021-07-23T12:36:39Z</time>
      </trkpt>
      <trkpt lat="42.341484" lon="-3.725025">
        <ele>859.017</ele>
        <time>2021-07-23T12:37:00Z</time>
      </trkpt>
      <trkpt lat="42.341506" lon="-3.725023">
        <ele>855.722</ele>
        <time>2021-07-23T12:37:16Z</time>
      </trkpt>
      <trkpt lat="42.341511" lon="-3.725023">
        <ele>857.162</ele>
        <time>2021-07-23T12:37:33Z</time>
      </trkpt>
      <trkpt lat="42.341523" lon="-3.725028">
        <ele>857.108</ele>
        <time>2021-07-23T12:37:48Z</time>
      </trkpt>
      <trkpt lat="42.341515" lon="-3.725004">
        <ele>857.608</ele>
        <time>2021-07-23T12:38:06Z</time>
      </trkpt>
      <trkpt lat="42.341489" lon="-3.725021">
        <ele>860.059</ele>
        <time>2021-07-23T12:38:25Z</time>
      </trkpt>
      <trkpt lat="42.341511" lon="-3.725032">
        <ele>860.011</ele>
        <time>2021-07-23T12:38:40Z</time>
      </trkpt>
      <trkpt lat="42.341516" lon="-3.725029">
        <ele>861.038</ele>
        <time>2021-07-23T12:38:54Z</time>
      </trkpt>
      <trkpt lat="42.341523" lon="-3.725021">
        <ele>858.188</ele>
        <time>2021-07-23T12:39:12Z</time>
      </trkpt>
      <trkpt lat="42.341505" lon="-3.725023">
        <ele>856.172</ele>
        <time>2021-07-23T12:39:26Z</time>
      </trkpt>
      <trkpt lat="42.341533" lon="-3.725007">
        <ele>854.250</ele>
        <time>2021-07-23T12:39:42Z</time>
      </trkpt>
      <trkpt lat="42.341521" lon="-3.724986">
        <ele>855.287</ele>
        <time>2021-07-23T12:39:57Z</time>
      </trkpt>
      <trkpt lat="42.341524" lon="-3.724968">
        <ele>855.765</ele>
        <time>2021-07-23T12:40:04Z</time>
      </trkpt>
      <trkpt lat="42.341522" lon="-3.724956">
        <ele>855.784</ele>
        <time>2021-07-23T12:40:05Z</time>
      </trkpt>
      <trkpt lat="42.341518" lon="-3.724946">
        <ele>855.707</ele>
        <time>2021-07-23T12:40:06Z</time>
      </trkpt>
      <trkpt lat="42.341513" lon="-3.724935">
        <ele>855.717</ele>
        <time>2021-07-23T12:40:07Z</time>
      </trkpt>
      <trkpt lat="42.341510" lon="-3.724922">
        <ele>855.708</ele>
        <time>2021-07-23T12:40:08Z</time>
      </trkpt>
      <trkpt lat="42.341504" lon="-3.724917">
        <ele>856.195</ele>
        <time>2021-07-23T12:40:15Z</time>
      </trkpt>
      <trkpt lat="42.341534" lon="-3.724940">
        <ele>856.687</ele>
        <time>2021-07-23T12:40:32Z</time>
      </trkpt>
      <trkpt lat="42.341549" lon="-3.724930">
        <ele>857.644</ele>
        <time>2021-07-23T12:40:45Z</time>
      </trkpt>
      <trkpt lat="42.341529" lon="-3.724922">
        <ele>856.614</ele>
        <time>2021-07-23T12:41:00Z</time>
      </trkpt>
      <trkpt lat="42.341520" lon="-3.724936">
        <ele>857.158</ele>
        <time>2021-07-23T12:41:11Z</time>
      </trkpt>
      <trkpt lat="42.341520" lon="-3.724921">
        <ele>859.586</ele>
        <time>2021-07-23T12:41:25Z</time>
      </trkpt>
      <trkpt lat="42.341522" lon="-3.724913">
        <ele>858.563</ele>
        <time>2021-07-23T12:41:40Z</time>
      </trkpt>
      <trkpt lat="42.341532" lon="-3.724928">
        <ele>856.651</ele>
        <time>2021-07-23T12:41:59Z</time>
      </trkpt>
      <trkpt lat="42.341543" lon="-3.724928">
        <ele>855.217</ele>
        <time>2021-07-23T12:42:16Z</time>
      </trkpt>
      <trkpt lat="42.341533" lon="-3.724936">
        <ele>856.687</ele>
        <time>2021-07-23T12:42:35Z</time>
      </trkpt>
      <trkpt lat="42.341517" lon="-3.724941">
        <ele>856.115</ele>
        <time>2021-07-23T12:42:50Z</time>
      </trkpt>
      <trkpt lat="42.341486" lon="-3.724980">
        <ele>855.708</ele>
        <time>2021-07-23T12:43:10Z</time>
      </trkpt>
      <trkpt lat="42.341486" lon="-3.724945">
        <ele>854.738</ele>
        <time>2021-07-23T12:43:31Z</time>
      </trkpt>
      <trkpt lat="42.341502" lon="-3.724914">
        <ele>854.730</ele>
        <time>2021-07-23T12:43:36Z</time>
      </trkpt>
      <trkpt lat="42.341512" lon="-3.724908">
        <ele>854.757</ele>
        <time>2021-07-23T12:43:37Z</time>
      </trkpt>
      <trkpt lat="42.341522" lon="-3.724903">
        <ele>854.267</ele>
        <time>2021-07-23T12:43:38Z</time>
      </trkpt>
      <trkpt lat="42.341593" lon="-3.724860">
        <ele>853.751</ele>
        <time>2021-07-23T12:43:45Z</time>
      </trkpt>
      <trkpt lat="42.341592" lon="-3.724847">
        <ele>853.789</ele>
        <time>2021-07-23T12:43:46Z</time>
      </trkpt>
      <trkpt lat="42.341583" lon="-3.724680">
        <ele>853.316</ele>
        <time>2021-07-23T12:43:52Z</time>
      </trkpt>
      <trkpt lat="42.341563" lon="-3.724321">
        <ele>854.254</ele>
        <time>2021-07-23T12:44:01Z</time>
      </trkpt>
      <trkpt lat="42.341540" lon="-3.723996">
        <ele>853.753</ele>
        <time>2021-07-23T12:44:08Z</time>
      </trkpt>
      <trkpt lat="42.341506" lon="-3.723683">
        <ele>853.704</ele>
        <time>2021-07-23T12:44:14Z</time>
      </trkpt>
      <trkpt lat="42.341460" lon="-3.723196">
        <ele>852.814</ele>
        <time>2021-07-23T12:44:23Z</time>
      </trkpt>
      <trkpt lat="42.341411" lon="-3.722817">
        <ele>852.808</ele>
        <time>2021-07-23T12:44:31Z</time>
      </trkpt>
      <trkpt lat="42.341377" lon="-3.722430">
        <ele>852.342</ele>
        <time>2021-07-23T12:44:39Z</time>
      </trkpt>
      <trkpt lat="42.341306" lon="-3.722051">
        <ele>852.384</ele>
        <time>2021-07-23T12:44:47Z</time>
      </trkpt>
      <trkpt lat="42.341252" lon="-3.721543">
        <ele>852.391</ele>
        <time>2021-07-23T12:44:57Z</time>
      </trkpt>
      <trkpt lat="42.341204" lon="-3.721071">
        <ele>853.381</ele>
        <time>2021-07-23T12:45:06Z</time>
      </trkpt>
      <trkpt lat="42.341114" lon="-3.720555">
        <ele>853.365</ele>
        <time>2021-07-23T12:45:17Z</time>
      </trkpt>
      <trkpt lat="42.341029" lon="-3.720281">
        <ele>853.793</ele>
        <time>2021-07-23T12:45:23Z</time>
      </trkpt>
      <trkpt lat="42.341043" lon="-3.719948">
        <ele>853.350</ele>
        <time>2021-07-23T12:45:30Z</time>
      </trkpt>
      <trkpt lat="42.340879" lon="-3.719334">
        <ele>853.388</ele>
        <time>2021-07-23T12:45:42Z</time>
      </trkpt>
      <trkpt lat="42.340692" lon="-3.718876">
        <ele>853.334</ele>
        <time>2021-07-23T12:45:52Z</time>
      </trkpt>
      <trkpt lat="42.340493" lon="-3.718536">
        <ele>852.355</ele>
        <time>2021-07-23T12:46:01Z</time>
      </trkpt>
      <trkpt lat="42.340320" lon="-3.718254">
        <ele>852.310</ele>
        <time>2021-07-23T12:46:09Z</time>
      </trkpt>
      <trkpt lat="42.340107" lon="-3.717984">
        <ele>852.808</ele>
        <time>2021-07-23T12:46:18Z</time>
      </trkpt>
      <trkpt lat="42.339959" lon="-3.717778">
        <ele>852.340</ele>
        <time>2021-07-23T12:46:25Z</time>
      </trkpt>
      <trkpt lat="42.339744" lon="-3.717605">
        <ele>852.882</ele>
        <time>2021-07-23T12:46:32Z</time>
      </trkpt>
      <trkpt lat="42.339630" lon="-3.717518">
        <ele>852.399</ele>
        <time>2021-07-23T12:46:36Z</time>
      </trkpt>
      <trkpt lat="42.339618" lon="-3.717494">
        <ele>852.379</ele>
        <time>2021-07-23T12:46:37Z</time>
      </trkpt>
      <trkpt lat="42.339616" lon="-3.717461">
        <ele>852.383</ele>
        <time>2021-07-23T12:46:38Z</time>
      </trkpt>
      <trkpt lat="42.339661" lon="-3.717216">
        <ele>853.711</ele>
        <time>2021-07-23T12:46:45Z</time>
      </trkpt>
      <trkpt lat="42.339704" lon="-3.717113">
        <ele>853.758</ele>
        <time>2021-07-23T12:46:48Z</time>
      </trkpt>
      <trkpt lat="42.339704" lon="-3.717067">
        <ele>853.726</ele>
        <time>2021-07-23T12:46:49Z</time>
      </trkpt>
      <trkpt lat="42.339700" lon="-3.717020">
        <ele>853.757</ele>
        <time>2021-07-23T12:46:50Z</time>
      </trkpt>
      <trkpt lat="42.339632" lon="-3.716644">
        <ele>855.200</ele>
        <time>2021-07-23T12:46:58Z</time>
      </trkpt>
      <trkpt lat="42.339522" lon="-3.716227">
        <ele>856.620</ele>
        <time>2021-07-23T12:47:06Z</time>
      </trkpt>
      <trkpt lat="42.339432" lon="-3.715873">
        <ele>857.608</ele>
        <time>2021-07-23T12:47:13Z</time>
      </trkpt>
      <trkpt lat="42.339265" lon="-3.715331">
        <ele>858.132</ele>
        <time>2021-07-23T12:47:23Z</time>
      </trkpt>
      <trkpt lat="42.339155" lon="-3.714984">
        <ele>859.564</ele>
        <time>2021-07-23T12:47:30Z</time>
      </trkpt>
      <trkpt lat="42.339002" lon="-3.714557">
        <ele>862.961</ele>
        <time>2021-07-23T12:47:39Z</time>
      </trkpt>
      <trkpt lat="42.338785" lon="-3.714001">
        <ele>862.411</ele>
        <time>2021-07-23T12:47:50Z</time>
      </trkpt>
      <trkpt lat="42.338566" lon="-3.713427">
        <ele>861.025</ele>
        <time>2021-07-23T12:48:01Z</time>
      </trkpt>
      <trkpt lat="42.338346" lon="-3.712907">
        <ele>860.093</ele>
        <time>2021-07-23T12:48:11Z</time>
      </trkpt>
      <trkpt lat="42.338151" lon="-3.712554">
        <ele>859.020</ele>
        <time>2021-07-23T12:48:19Z</time>
      </trkpt>
      <trkpt lat="42.337961" lon="-3.712234">
        <ele>858.568</ele>
        <time>2021-07-23T12:48:27Z</time>
      </trkpt>
      <trkpt lat="42.337912" lon="-3.712134">
        <ele>857.171</ele>
        <time>2021-07-23T12:48:31Z</time>
      </trkpt>
      <trkpt lat="42.337906" lon="-3.712093">
        <ele>858.541</ele>
        <time>2021-07-23T12:48:32Z</time>
      </trkpt>
      <trkpt lat="42.337910" lon="-3.712058">
        <ele>858.515</ele>
        <time>2021-07-23T12:48:33Z</time>
      </trkpt>
      <trkpt lat="42.337921" lon="-3.712026">
        <ele>858.508</ele>
        <time>2021-07-23T12:48:34Z</time>
      </trkpt>
      <trkpt lat="42.337934" lon="-3.711990">
        <ele>858.594</ele>
        <time>2021-07-23T12:48:35Z</time>
      </trkpt>
      <trkpt lat="42.337947" lon="-3.711960">
        <ele>858.536</ele>
        <time>2021-07-23T12:48:36Z</time>
      </trkpt>
      <trkpt lat="42.337949" lon="-3.711935">
        <ele>858.553</ele>
        <time>2021-07-23T12:48:37Z</time>
      </trkpt>
      <trkpt lat="42.337937" lon="-3.711908">
        <ele>858.183</ele>
        <time>2021-07-23T12:48:38Z</time>
      </trkpt>
      <trkpt lat="42.337923" lon="-3.711884">
        <ele>858.187</ele>
        <time>2021-07-23T12:48:39Z</time>
      </trkpt>
      <trkpt lat="42.337760" lon="-3.711600">
        <ele>855.225</ele>
        <time>2021-07-23T12:48:48Z</time>
      </trkpt>
      <trkpt lat="42.337621" lon="-3.711323">
        <ele>852.392</ele>
        <time>2021-07-23T12:48:56Z</time>
      </trkpt>
      <trkpt lat="42.337446" lon="-3.710940">
        <ele>849.430</ele>
        <time>2021-07-23T12:49:05Z</time>
      </trkpt>
      <trkpt lat="42.337312" lon="-3.710655">
        <ele>848.099</ele>
        <time>2021-07-23T12:49:12Z</time>
      </trkpt>
      <trkpt lat="42.337191" lon="-3.710374">
        <ele>847.007</ele>
        <time>2021-07-23T12:49:19Z</time>
      </trkpt>
      <trkpt lat="42.337124" lon="-3.710194">
        <ele>843.627</ele>
        <time>2021-07-23T12:49:24Z</time>
      </trkpt>
      <trkpt lat="42.336960" lon="-3.709843">
        <ele>841.708</ele>
        <time>2021-07-23T12:49:32Z</time>
      </trkpt>
      <trkpt lat="42.336880" lon="-3.709435">
        <ele>846.546</ele>
        <time>2021-07-23T12:49:40Z</time>
      </trkpt>
      <trkpt lat="42.336792" lon="-3.708895">
        <ele>850.428</ele>
        <time>2021-07-23T12:49:51Z</time>
      </trkpt>
      <trkpt lat="42.336789" lon="-3.708821">
        <ele>850.915</ele>
        <time>2021-07-23T12:49:53Z</time>
      </trkpt>
      <trkpt lat="42.336796" lon="-3.708792">
        <ele>851.365</ele>
        <time>2021-07-23T12:49:54Z</time>
      </trkpt>
      <trkpt lat="42.336804" lon="-3.708768">
        <ele>851.829</ele>
        <time>2021-07-23T12:49:55Z</time>
      </trkpt>
      <trkpt lat="42.336810" lon="-3.708742">
        <ele>851.817</ele>
        <time>2021-07-23T12:49:56Z</time>
      </trkpt>
      <trkpt lat="42.336826" lon="-3.708601">
        <ele>853.784</ele>
        <time>2021-07-23T12:50:01Z</time>
      </trkpt>
      <trkpt lat="42.336845" lon="-3.708473">
        <ele>854.712</ele>
        <time>2021-07-23T12:50:04Z</time>
      </trkpt>
      <trkpt lat="42.336833" lon="-3.708432">
        <ele>854.249</ele>
        <time>2021-07-23T12:50:05Z</time>
      </trkpt>
      <trkpt lat="42.336823" lon="-3.708390">
        <ele>854.202</ele>
        <time>2021-07-23T12:50:06Z</time>
      </trkpt>
      <trkpt lat="42.336811" lon="-3.708347">
        <ele>854.222</ele>
        <time>2021-07-23T12:50:07Z</time>
      </trkpt>
      <trkpt lat="42.336793" lon="-3.708306">
        <ele>853.708</ele>
        <time>2021-07-23T12:50:08Z</time>
      </trkpt>
      <trkpt lat="42.336783" lon="-3.708263">
        <ele>854.281</ele>
        <time>2021-07-23T12:50:09Z</time>
      </trkpt>
      <trkpt lat="42.336782" lon="-3.708212">
        <ele>854.763</ele>
        <time>2021-07-23T12:50:10Z</time>
      </trkpt>
      <trkpt lat="42.336789" lon="-3.708157">
        <ele>854.770</ele>
        <time>2021-07-23T12:50:11Z</time>
      </trkpt>
      <trkpt lat="42.336869" lon="-3.707817">
        <ele>854.250</ele>
        <time>2021-07-23T12:50:19Z</time>
      </trkpt>
      <trkpt lat="42.336945" lon="-3.707361">
        <ele>851.814</ele>
        <time>2021-07-23T12:50:29Z</time>
      </trkpt>
      <trkpt lat="42.337045" lon="-3.706942">
        <ele>852.832</ele>
        <time>2021-07-23T12:50:38Z</time>
      </trkpt>
      <trkpt lat="42.337177" lon="-3.706600">
        <ele>853.359</ele>
        <time>2021-07-23T12:50:46Z</time>
      </trkpt>
      <trkpt lat="42.337377" lon="-3.706131">
        <ele>853.357</ele>
        <time>2021-07-23T12:50:56Z</time>
      </trkpt>
      <trkpt lat="42.337564" lon="-3.705693">
        <ele>852.849</ele>
        <time>2021-07-23T12:51:07Z</time>
      </trkpt>
      <trkpt lat="42.337699" lon="-3.705446">
        <ele>852.802</ele>
        <time>2021-07-23T12:51:15Z</time>
      </trkpt>
      <trkpt lat="42.337723" lon="-3.705446">
        <ele>853.322</ele>
        <time>2021-07-23T12:51:16Z</time>
      </trkpt>
      <trkpt lat="42.337746" lon="-3.705461">
        <ele>853.308</ele>
        <time>2021-07-23T12:51:17Z</time>
      </trkpt>
      <trkpt lat="42.337789" lon="-3.705498">
        <ele>853.731</ele>
        <time>2021-07-23T12:51:19Z</time>
      </trkpt>
      <trkpt lat="42.337814" lon="-3.705493">
        <ele>853.743</ele>
        <time>2021-07-23T12:51:20Z</time>
      </trkpt>
      <trkpt lat="42.337829" lon="-3.705464">
        <ele>854.280</ele>
        <time>2021-07-23T12:51:21Z</time>
      </trkpt>
      <trkpt lat="42.337936" lon="-3.705219">
        <ele>853.770</ele>
        <time>2021-07-23T12:51:27Z</time>
      </trkpt>
      <trkpt lat="42.338072" lon="-3.705030">
        <ele>853.784</ele>
        <time>2021-07-23T12:51:33Z</time>
      </trkpt>
      <trkpt lat="42.338133" lon="-3.704923">
        <ele>854.212</ele>
        <time>2021-07-23T12:51:39Z</time>
      </trkpt>
      <trkpt lat="42.338188" lon="-3.704844">
        <ele>854.719</ele>
        <time>2021-07-23T12:51:46Z</time>
      </trkpt>
      <trkpt lat="42.338231" lon="-3.704766">
        <ele>857.147</ele>
        <time>2021-07-23T12:51:57Z</time>
      </trkpt>
      <trkpt lat="42.338338" lon="-3.704614">
        <ele>859.012</ele>
        <time>2021-07-23T12:52:06Z</time>
      </trkpt>
      <trkpt lat="42.338414" lon="-3.704521">
        <ele>860.532</ele>
        <time>2021-07-23T12:52:13Z</time>
      </trkpt>
      <trkpt lat="42.338485" lon="-3.704418">
        <ele>860.505</ele>
        <time>2021-07-23T12:52:20Z</time>
      </trkpt>
      <trkpt lat="42.338539" lon="-3.704342">
        <ele>861.408</ele>
        <time>2021-07-23T12:52:30Z</time>
      </trkpt>
      <trkpt lat="42.338582" lon="-3.704299">
        <ele>862.448</ele>
        <time>2021-07-23T12:52:39Z</time>
      </trkpt>
      <trkpt lat="42.338730" lon="-3.704113">
        <ele>863.420</ele>
        <time>2021-07-23T12:52:46Z</time>
      </trkpt>
      <trkpt lat="42.338840" lon="-3.703919">
        <ele>863.487</ele>
        <time>2021-07-23T12:52:52Z</time>
      </trkpt>
      <trkpt lat="42.338846" lon="-3.703876">
        <ele>863.467</ele>
        <time>2021-07-23T12:52:53Z</time>
      </trkpt>
      <trkpt lat="42.338861" lon="-3.703829">
        <ele>862.961</ele>
        <time>2021-07-23T12:52:54Z</time>
      </trkpt>
      <trkpt lat="42.339083" lon="-3.703331">
        <ele>861.049</ele>
        <time>2021-07-23T12:53:05Z</time>
      </trkpt>
      <trkpt lat="42.339120" lon="-3.703124">
        <ele>860.516</ele>
        <time>2021-07-23T12:53:10Z</time>
      </trkpt>
      <trkpt lat="42.339134" lon="-3.703089">
        <ele>860.514</ele>
        <time>2021-07-23T12:53:11Z</time>
      </trkpt>
      <trkpt lat="42.339224" lon="-3.702918">
        <ele>861.434</ele>
        <time>2021-07-23T12:53:17Z</time>
      </trkpt>
      <trkpt lat="42.339238" lon="-3.702922">
        <ele>861.455</ele>
        <time>2021-07-23T12:53:18Z</time>
      </trkpt>
      <trkpt lat="42.339248" lon="-3.702932">
        <ele>861.410</ele>
        <time>2021-07-23T12:53:19Z</time>
      </trkpt>
      <trkpt lat="42.339255" lon="-3.702944">
        <ele>861.908</ele>
        <time>2021-07-23T12:53:20Z</time>
      </trkpt>
      <trkpt lat="42.339262" lon="-3.702957">
        <ele>861.930</ele>
        <time>2021-07-23T12:53:21Z</time>
      </trkpt>
      <trkpt lat="42.339262" lon="-3.702953">
        <ele>863.432</ele>
        <time>2021-07-23T12:53:28Z</time>
      </trkpt>
      <trkpt lat="42.339244" lon="-3.702901">
        <ele>865.899</ele>
        <time>2021-07-23T12:53:48Z</time>
      </trkpt>
      <trkpt lat="42.339267" lon="-3.702954">
        <ele>863.899</ele>
        <time>2021-07-23T12:54:03Z</time>
      </trkpt>
      <trkpt lat="42.339270" lon="-3.703000">
        <ele>861.933</ele>
        <time>2021-07-23T12:54:17Z</time>
      </trkpt>
      <trkpt lat="42.339355" lon="-3.703108">
        <ele>861.461</ele>
        <time>2021-07-23T12:54:24Z</time>
      </trkpt>
      <trkpt lat="42.339520" lon="-3.703352">
        <ele>860.558</ele>
        <time>2021-07-23T12:54:34Z</time>
      </trkpt>
      <trkpt lat="42.339636" lon="-3.703528">
        <ele>859.586</ele>
        <time>2021-07-23T12:54:42Z</time>
      </trkpt>
      <trkpt lat="42.339752" lon="-3.703711">
        <ele>857.695</ele>
        <time>2021-07-23T12:54:51Z</time>
      </trkpt>
      <trkpt lat="42.339806" lon="-3.703899">
        <ele>857.149</ele>
        <time>2021-07-23T12:55:00Z</time>
      </trkpt>
      <trkpt lat="42.339851" lon="-3.704029">
        <ele>856.623</ele>
        <time>2021-07-23T12:55:09Z</time>
      </trkpt>
      <trkpt lat="42.339911" lon="-3.704086">
        <ele>857.108</ele>
        <time>2021-07-23T12:55:17Z</time>
      </trkpt>
      <trkpt lat="42.340042" lon="-3.704013">
        <ele>858.586</ele>
        <time>2021-07-23T12:55:25Z</time>
      </trkpt>
      <trkpt lat="42.340130" lon="-3.703992">
        <ele>860.548</ele>
        <time>2021-07-23T12:55:30Z</time>
      </trkpt>
      <trkpt lat="42.340144" lon="-3.703979">
        <ele>860.575</ele>
        <time>2021-07-23T12:55:31Z</time>
      </trkpt>
      <trkpt lat="42.340196" lon="-3.703912">
        <ele>860.555</ele>
        <time>2021-07-23T12:55:35Z</time>
      </trkpt>
      <trkpt lat="42.340240" lon="-3.703811">
        <ele>860.029</ele>
        <time>2021-07-23T12:55:40Z</time>
      </trkpt>
      <trkpt lat="42.340243" lon="-3.703788">
        <ele>860.017</ele>
        <time>2021-07-23T12:55:41Z</time>
      </trkpt>
      <trkpt lat="42.340251" lon="-3.703770">
        <ele>860.064</ele>
        <time>2021-07-23T12:55:42Z</time>
      </trkpt>
      <trkpt lat="42.340263" lon="-3.703753">
        <ele>860.022</ele>
        <time>2021-07-23T12:55:43Z</time>
      </trkpt>
      <trkpt lat="42.340272" lon="-3.703730">
        <ele>860.577</ele>
        <time>2021-07-23T12:55:48Z</time>
      </trkpt>
      <trkpt lat="42.340235" lon="-3.703689">
        <ele>870.161</ele>
        <time>2021-07-23T12:56:03Z</time>
      </trkpt>
      <trkpt lat="42.340252" lon="-3.703713">
        <ele>874.927</ele>
        <time>2021-07-23T12:56:16Z</time>
      </trkpt>
      <trkpt lat="42.340271" lon="-3.703692">
        <ele>876.308</ele>
        <time>2021-07-23T12:56:28Z</time>
      </trkpt>
      <trkpt lat="42.340285" lon="-3.703727">
        <ele>873.074</ele>
        <time>2021-07-23T12:56:39Z</time>
      </trkpt>
      <trkpt lat="42.340268" lon="-3.703761">
        <ele>867.216</ele>
        <time>2021-07-23T12:56:59Z</time>
      </trkpt>
      <trkpt lat="42.340274" lon="-3.703753">
        <ele>870.163</ele>
        <time>2021-07-23T12:57:05Z</time>
      </trkpt>
      <trkpt lat="42.340273" lon="-3.703776">
        <ele>872.043</ele>
        <time>2021-07-23T12:57:08Z</time>
      </trkpt>
      <trkpt lat="42.340264" lon="-3.703788">
        <ele>872.527</ele>
        <time>2021-07-23T12:57:09Z</time>
      </trkpt>
      <trkpt lat="42.340253" lon="-3.703798">
        <ele>873.015</ele>
        <time>2021-07-23T12:57:10Z</time>
      </trkpt>
      <trkpt lat="42.340248" lon="-3.703805">
        <ele>873.082</ele>
        <time>2021-07-23T12:57:11Z</time>
      </trkpt>
      <trkpt lat="42.340239" lon="-3.703814">
        <ele>873.040</ele>
        <time>2021-07-23T12:57:12Z</time>
      </trkpt>
      <trkpt lat="42.340232" lon="-3.703823">
        <ele>873.549</ele>
        <time>2021-07-23T12:57:13Z</time>
      </trkpt>
      <trkpt lat="42.340224" lon="-3.703834">
        <ele>873.502</ele>
        <time>2021-07-23T12:57:14Z</time>
      </trkpt>
      <trkpt lat="42.340199" lon="-3.703860">
        <ele>873.522</ele>
        <time>2021-07-23T12:57:21Z</time>
      </trkpt>
      <trkpt lat="42.340208" lon="-3.703821">
        <ele>870.608</ele>
        <time>2021-07-23T12:57:35Z</time>
      </trkpt>
      <trkpt lat="42.340233" lon="-3.703824">
        <ele>871.081</ele>
        <time>2021-07-23T12:57:49Z</time>
      </trkpt>
      <trkpt lat="42.340241" lon="-3.703817">
        <ele>869.153</ele>
        <time>2021-07-23T12:58:02Z</time>
      </trkpt>
      <trkpt lat="42.340213" lon="-3.703834">
        <ele>865.820</ele>
        <time>2021-07-23T12:58:22Z</time>
      </trkpt>
      <trkpt lat="42.340201" lon="-3.703877">
        <ele>863.850</ele>
        <time>2021-07-23T12:58:44Z</time>
      </trkpt>
      <trkpt lat="42.340213" lon="-3.703855">
        <ele>862.984</ele>
        <time>2021-07-23T12:59:03Z</time>
      </trkpt>
      <trkpt lat="42.340213" lon="-3.703817">
        <ele>868.292</ele>
        <time>2021-07-23T12:59:18Z</time>
      </trkpt>
      <trkpt lat="42.340213" lon="-3.703788">
        <ele>870.149</ele>
        <time>2021-07-23T12:59:35Z</time>
      </trkpt>
      <trkpt lat="42.340198" lon="-3.703812">
        <ele>866.757</ele>
        <time>2021-07-23T12:59:47Z</time>
      </trkpt>
      <trkpt lat="42.340205" lon="-3.703831">
        <ele>866.231</ele>
        <time>2021-07-23T13:00:01Z</time>
      </trkpt>
      <trkpt lat="42.340208" lon="-3.703826">
        <ele>868.261</ele>
        <time>2021-07-23T13:00:13Z</time>
      </trkpt>
      <trkpt lat="42.340201" lon="-3.703848">
        <ele>868.207</ele>
        <time>2021-07-23T13:00:30Z</time>
      </trkpt>
      <trkpt lat="42.340202" lon="-3.703842">
        <ele>869.108</ele>
        <time>2021-07-23T13:00:41Z</time>
      </trkpt>
      <trkpt lat="42.340220" lon="-3.703823">
        <ele>867.740</ele>
        <time>2021-07-23T13:00:58Z</time>
      </trkpt>
      <trkpt lat="42.340206" lon="-3.703817">
        <ele>867.752</ele>
        <time>2021-07-23T13:01:13Z</time>
      </trkpt>
      <trkpt lat="42.340196" lon="-3.703824">
        <ele>870.129</ele>
        <time>2021-07-23T13:01:27Z</time>
      </trkpt>
      <trkpt lat="42.340208" lon="-3.703839">
        <ele>868.619</ele>
        <time>2021-07-23T13:01:40Z</time>
      </trkpt>
      <trkpt lat="42.340202" lon="-3.703859">
        <ele>869.153</ele>
        <time>2021-07-23T13:01:54Z</time>
      </trkpt>
      <trkpt lat="42.340205" lon="-3.703844">
        <ele>868.661</ele>
        <time>2021-07-23T13:02:08Z</time>
      </trkpt>
      <trkpt lat="42.340213" lon="-3.703845">
        <ele>867.258</ele>
        <time>2021-07-23T13:02:23Z</time>
      </trkpt>
      <trkpt lat="42.340193" lon="-3.703848">
        <ele>867.286</ele>
        <time>2021-07-23T13:02:35Z</time>
      </trkpt>
      <trkpt lat="42.340208" lon="-3.703805">
        <ele>869.612</ele>
        <time>2021-07-23T13:02:49Z</time>
      </trkpt>
      <trkpt lat="42.340221" lon="-3.703786">
        <ele>872.032</ele>
        <time>2021-07-23T13:03:06Z</time>
      </trkpt>
      <trkpt lat="42.340204" lon="-3.703814">
        <ele>871.505</ele>
        <time>2021-07-23T13:03:22Z</time>
      </trkpt>
      <trkpt lat="42.340197" lon="-3.703846">
        <ele>872.008</ele>
        <time>2021-07-23T13:03:35Z</time>
      </trkpt>
      <trkpt lat="42.340198" lon="-3.703850">
        <ele>873.958</ele>
        <time>2021-07-23T13:03:54Z</time>
      </trkpt>
      <trkpt lat="42.340197" lon="-3.703885">
        <ele>873.960</ele>
        <time>2021-07-23T13:03:57Z</time>
      </trkpt>
      <trkpt lat="42.340195" lon="-3.703901">
        <ele>873.917</ele>
        <time>2021-07-23T13:03:58Z</time>
      </trkpt>
      <trkpt lat="42.340193" lon="-3.703923">
        <ele>873.927</ele>
        <time>2021-07-23T13:03:59Z</time>
      </trkpt>
      <trkpt lat="42.340159" lon="-3.704008">
        <ele>873.991</ele>
        <time>2021-07-23T13:04:04Z</time>
      </trkpt>
      <trkpt lat="42.340146" lon="-3.704010">
        <ele>873.989</ele>
        <time>2021-07-23T13:04:05Z</time>
      </trkpt>
      <trkpt lat="42.340133" lon="-3.704009">
        <ele>873.926</ele>
        <time>2021-07-23T13:04:06Z</time>
      </trkpt>
      <trkpt lat="42.340090" lon="-3.704009">
        <ele>873.084</ele>
        <time>2021-07-23T13:04:09Z</time>
      </trkpt>
      <trkpt lat="42.340075" lon="-3.704014">
        <ele>872.541</ele>
        <time>2021-07-23T13:04:10Z</time>
      </trkpt>
      <trkpt lat="42.340060" lon="-3.704019">
        <ele>872.081</ele>
        <time>2021-07-23T13:04:11Z</time>
      </trkpt>
      <trkpt lat="42.340044" lon="-3.704028">
        <ele>872.009</ele>
        <time>2021-07-23T13:04:12Z</time>
      </trkpt>
      <trkpt lat="42.340031" lon="-3.704040">
        <ele>871.508</ele>
        <time>2021-07-23T13:04:13Z</time>
      </trkpt>
      <trkpt lat="42.340016" lon="-3.704053">
        <ele>871.081</ele>
        <time>2021-07-23T13:04:14Z</time>
      </trkpt>
      <trkpt lat="42.340003" lon="-3.704063">
        <ele>871.093</ele>
        <time>2021-07-23T13:04:15Z</time>
      </trkpt>
      <trkpt lat="42.339989" lon="-3.704069">
        <ele>871.080</ele>
        <time>2021-07-23T13:04:16Z</time>
      </trkpt>
      <trkpt lat="42.339977" lon="-3.704074">
        <ele>870.620</ele>
        <time>2021-07-23T13:04:17Z</time>
      </trkpt>
      <trkpt lat="42.339962" lon="-3.704078">
        <ele>870.134</ele>
        <time>2021-07-23T13:04:18Z</time>
      </trkpt>
      <trkpt lat="42.339949" lon="-3.704079">
        <ele>869.642</ele>
        <time>2021-07-23T13:04:19Z</time>
      </trkpt>
      <trkpt lat="42.339918" lon="-3.704052">
        <ele>869.169</ele>
        <time>2021-07-23T13:04:24Z</time>
      </trkpt>
      <trkpt lat="42.339900" lon="-3.703964">
        <ele>869.687</ele>
        <time>2021-07-23T13:04:32Z</time>
      </trkpt>
      <trkpt lat="42.339811" lon="-3.703852">
        <ele>869.162</ele>
        <time>2021-07-23T13:04:41Z</time>
      </trkpt>
      <trkpt lat="42.339776" lon="-3.703649">
        <ele>866.283</ele>
        <time>2021-07-23T13:04:50Z</time>
      </trkpt>
      <trkpt lat="42.339765" lon="-3.703560">
        <ele>865.811</ele>
        <time>2021-07-23T13:04:55Z</time>
      </trkpt>
      <trkpt lat="42.339754" lon="-3.703548">
        <ele>865.808</ele>
        <time>2021-07-23T13:04:56Z</time>
      </trkpt>
      <trkpt lat="42.339742" lon="-3.703533">
        <ele>865.343</ele>
        <time>2021-07-23T13:04:57Z</time>
      </trkpt>
      <trkpt lat="42.339729" lon="-3.703523">
        <ele>864.865</ele>
        <time>2021-07-23T13:04:58Z</time>
      </trkpt>
      <trkpt lat="42.339713" lon="-3.703513">
        <ele>864.842</ele>
        <time>2021-07-23T13:04:59Z</time>
      </trkpt>
      <trkpt lat="42.339700" lon="-3.703499">
        <ele>864.352</ele>
        <time>2021-07-23T13:05:00Z</time>
      </trkpt>
      <trkpt lat="42.339691" lon="-3.703479">
        <ele>864.886</ele>
        <time>2021-07-23T13:05:01Z</time>
      </trkpt>
      <trkpt lat="42.339686" lon="-3.703456">
        <ele>864.874</ele>
        <time>2021-07-23T13:05:02Z</time>
      </trkpt>
      <trkpt lat="42.339688" lon="-3.703431">
        <ele>864.891</ele>
        <time>2021-07-23T13:05:03Z</time>
      </trkpt>
      <trkpt lat="42.339693" lon="-3.703401">
        <ele>865.389</ele>
        <time>2021-07-23T13:05:04Z</time>
      </trkpt>
      <trkpt lat="42.339696" lon="-3.703374">
        <ele>865.377</ele>
        <time>2021-07-23T13:05:05Z</time>
      </trkpt>
      <trkpt lat="42.339695" lon="-3.703349">
        <ele>865.361</ele>
        <time>2021-07-23T13:05:06Z</time>
      </trkpt>
      <trkpt lat="42.339720" lon="-3.703175">
        <ele>865.327</ele>
        <time>2021-07-23T13:05:14Z</time>
      </trkpt>
      <trkpt lat="42.339759" lon="-3.702971">
        <ele>864.808</ele>
        <time>2021-07-23T13:05:21Z</time>
      </trkpt>
      <trkpt lat="42.339834" lon="-3.702613">
        <ele>862.434</ele>
        <time>2021-07-23T13:05:31Z</time>
      </trkpt>
      <trkpt lat="42.339901" lon="-3.702313">
        <ele>860.556</ele>
        <time>2021-07-23T13:05:39Z</time>
      </trkpt>
      <trkpt lat="42.339978" lon="-3.701948">
        <ele>859.543</ele>
        <time>2021-07-23T13:05:48Z</time>
      </trkpt>
      <trkpt lat="42.340027" lon="-3.701673">
        <ele>859.553</ele>
        <time>2021-07-23T13:05:56Z</time>
      </trkpt>
      <trkpt lat="42.340096" lon="-3.701301">
        <ele>859.587</ele>
        <time>2021-07-23T13:06:05Z</time>
      </trkpt>
      <trkpt lat="42.340182" lon="-3.700939">
        <ele>858.525</ele>
        <time>2021-07-23T13:06:13Z</time>
      </trkpt>
      <trkpt lat="42.340253" lon="-3.700611">
        <ele>857.692</ele>
        <time>2021-07-23T13:06:22Z</time>
      </trkpt>
      <trkpt lat="42.340330" lon="-3.700313">
        <ele>858.590</ele>
        <time>2021-07-23T13:06:30Z</time>
      </trkpt>
      <trkpt lat="42.340409" lon="-3.700025">
        <ele>859.062</ele>
        <time>2021-07-23T13:06:37Z</time>
      </trkpt>
      <trkpt lat="42.340480" lon="-3.699808">
        <ele>857.683</ele>
        <time>2021-07-23T13:06:44Z</time>
      </trkpt>
      <trkpt lat="42.340494" lon="-3.699795">
        <ele>857.611</ele>
        <time>2021-07-23T13:06:45Z</time>
      </trkpt>
      <trkpt lat="42.340511" lon="-3.699787">
        <ele>857.108</ele>
        <time>2021-07-23T13:06:46Z</time>
      </trkpt>
      <trkpt lat="42.340529" lon="-3.699785">
        <ele>857.173</ele>
        <time>2021-07-23T13:06:47Z</time>
      </trkpt>
      <trkpt lat="42.340549" lon="-3.699788">
        <ele>857.185</ele>
        <time>2021-07-23T13:06:48Z</time>
      </trkpt>
      <trkpt lat="42.340568" lon="-3.699795">
        <ele>857.122</ele>
        <time>2021-07-23T13:06:49Z</time>
      </trkpt>
      <trkpt lat="42.340589" lon="-3.699800">
        <ele>857.192</ele>
        <time>2021-07-23T13:06:50Z</time>
      </trkpt>
      <trkpt lat="42.340601" lon="-3.699800">
        <ele>857.156</ele>
        <time>2021-07-23T13:06:51Z</time>
      </trkpt>
      <trkpt lat="42.340657" lon="-3.699798">
        <ele>857.114</ele>
        <time>2021-07-23T13:06:58Z</time>
      </trkpt>
      <trkpt lat="42.340673" lon="-3.699805">
        <ele>857.151</ele>
        <time>2021-07-23T13:07:02Z</time>
      </trkpt>
      <trkpt lat="42.340677" lon="-3.699821">
        <ele>856.699</ele>
        <time>2021-07-23T13:07:03Z</time>
      </trkpt>
      <trkpt lat="42.340670" lon="-3.699833">
        <ele>856.674</ele>
        <time>2021-07-23T13:07:04Z</time>
      </trkpt>
      <trkpt lat="42.340654" lon="-3.699844">
        <ele>856.656</ele>
        <time>2021-07-23T13:07:05Z</time>
      </trkpt>
      <trkpt lat="42.340636" lon="-3.699841">
        <ele>856.621</ele>
        <time>2021-07-23T13:07:06Z</time>
      </trkpt>
      <trkpt lat="42.340615" lon="-3.699828">
        <ele>857.108</ele>
        <time>2021-07-23T13:07:07Z</time>
      </trkpt>
      <trkpt lat="42.340592" lon="-3.699809">
        <ele>857.154</ele>
        <time>2021-07-23T13:07:08Z</time>
      </trkpt>
      <trkpt lat="42.340489" lon="-3.699635">
        <ele>858.136</ele>
        <time>2021-07-23T13:07:14Z</time>
      </trkpt>
      <trkpt lat="42.340470" lon="-3.699567">
        <ele>858.183</ele>
        <time>2021-07-23T13:07:16Z</time>
      </trkpt>
      <trkpt lat="42.340475" lon="-3.699531">
        <ele>858.183</ele>
        <time>2021-07-23T13:07:17Z</time>
      </trkpt>
      <trkpt lat="42.340486" lon="-3.699502">
        <ele>858.117</ele>
        <time>2021-07-23T13:07:18Z</time>
      </trkpt>
      <trkpt lat="42.340496" lon="-3.699481">
        <ele>858.125</ele>
        <time>2021-07-23T13:07:19Z</time>
      </trkpt>
      <trkpt lat="42.340508" lon="-3.699465">
        <ele>858.182</ele>
        <time>2021-07-23T13:07:20Z</time>
      </trkpt>
      <trkpt lat="42.340524" lon="-3.699444">
        <ele>858.120</ele>
        <time>2021-07-23T13:07:21Z</time>
      </trkpt>
      <trkpt lat="42.340537" lon="-3.699424">
        <ele>858.144</ele>
        <time>2021-07-23T13:07:22Z</time>
      </trkpt>
      <trkpt lat="42.340578" lon="-3.699361">
        <ele>858.105</ele>
        <time>2021-07-23T13:07:28Z</time>
      </trkpt>
      <trkpt lat="42.340596" lon="-3.699274">
        <ele>858.115</ele>
        <time>2021-07-23T13:07:37Z</time>
      </trkpt>
      <trkpt lat="42.340671" lon="-3.698940">
        <ele>857.608</ele>
        <time>2021-07-23T13:07:47Z</time>
      </trkpt>
      <trkpt lat="42.340714" lon="-3.698749">
        <ele>856.691</ele>
        <time>2021-07-23T13:07:51Z</time>
      </trkpt>
      <trkpt lat="42.340740" lon="-3.698573">
        <ele>856.143</ele>
        <time>2021-07-23T13:07:54Z</time>
      </trkpt>
      <trkpt lat="42.340804" lon="-3.698103">
        <ele>855.740</ele>
        <time>2021-07-23T13:08:02Z</time>
      </trkpt>
      <trkpt lat="42.340899" lon="-3.697495">
        <ele>858.130</ele>
        <time>2021-07-23T13:08:13Z</time>
      </trkpt>
      <trkpt lat="42.340971" lon="-3.697081">
        <ele>859.044</ele>
        <time>2021-07-23T13:08:21Z</time>
      </trkpt>
      <trkpt lat="42.341049" lon="-3.696639">
        <ele>861.092</ele>
        <time>2021-07-23T13:08:29Z</time>
      </trkpt>
      <trkpt lat="42.341111" lon="-3.696299">
        <ele>862.479</ele>
        <time>2021-07-23T13:08:35Z</time>
      </trkpt>
      <trkpt lat="42.341122" lon="-3.696243">
        <ele>862.477</ele>
        <time>2021-07-23T13:08:36Z</time>
      </trkpt>
      <trkpt lat="42.341252" lon="-3.695659">
        <ele>861.058</ele>
        <time>2021-07-23T13:08:46Z</time>
      </trkpt>
      <trkpt lat="42.341369" lon="-3.695055">
        <ele>861.052</ele>
        <time>2021-07-23T13:08:55Z</time>
      </trkpt>
      <trkpt lat="42.341450" lon="-3.694604">
        <ele>861.417</ele>
        <time>2021-07-23T13:09:02Z</time>
      </trkpt>
      <trkpt lat="42.341548" lon="-3.694078">
        <ele>861.408</ele>
        <time>2021-07-23T13:09:11Z</time>
      </trkpt>
      <trkpt lat="42.341699" lon="-3.693472">
        <ele>858.532</ele>
        <time>2021-07-23T13:09:21Z</time>
      </trkpt>
      <trkpt lat="42.341805" lon="-3.692871">
        <ele>857.114</ele>
        <time>2021-07-23T13:09:31Z</time>
      </trkpt>
      <trkpt lat="42.341926" lon="-3.692277">
        <ele>860.071</ele>
        <time>2021-07-23T13:09:41Z</time>
      </trkpt>
      <trkpt lat="42.342017" lon="-3.691809">
        <ele>859.591</ele>
        <time>2021-07-23T13:09:49Z</time>
      </trkpt>
      <trkpt lat="42.342121" lon="-3.691390">
        <ele>861.025</ele>
        <time>2021-07-23T13:09:56Z</time>
      </trkpt>
      <trkpt lat="42.342261" lon="-3.690595">
        <ele>861.993</ele>
        <time>2021-07-23T13:10:09Z</time>
      </trkpt>
      <trkpt lat="42.342386" lon="-3.689994">
        <ele>861.420</ele>
        <time>2021-07-23T13:10:19Z</time>
      </trkpt>
      <trkpt lat="42.342499" lon="-3.689427">
        <ele>860.078</ele>
        <time>2021-07-23T13:10:29Z</time>
      </trkpt>
      <trkpt lat="42.342595" lon="-3.688945">
        <ele>861.087</ele>
        <time>2021-07-23T13:10:38Z</time>
      </trkpt>
      <trkpt lat="42.342661" lon="-3.688521">
        <ele>861.942</ele>
        <time>2021-07-23T13:10:46Z</time>
      </trkpt>
      <trkpt lat="42.342708" lon="-3.688308">
        <ele>862.426</ele>
        <time>2021-07-23T13:10:51Z</time>
      </trkpt>
      <trkpt lat="42.342735" lon="-3.688129">
        <ele>861.908</ele>
        <time>2021-07-23T13:10:56Z</time>
      </trkpt>
      <trkpt lat="42.342896" lon="-3.688039">
        <ele>860.065</ele>
        <time>2021-07-23T13:11:01Z</time>
      </trkpt>
      <trkpt lat="42.342939" lon="-3.688050">
        <ele>859.577</ele>
        <time>2021-07-23T13:11:02Z</time>
      </trkpt>
      <trkpt lat="42.343017" lon="-3.688089">
        <ele>859.544</ele>
        <time>2021-07-23T13:11:04Z</time>
      </trkpt>
      <trkpt lat="42.343305" lon="-3.688246">
        <ele>860.514</ele>
        <time>2021-07-23T13:11:13Z</time>
      </trkpt>
      <trkpt lat="42.343351" lon="-3.688263">
        <ele>860.528</ele>
        <time>2021-07-23T13:11:15Z</time>
      </trkpt>
      <trkpt lat="42.343423" lon="-3.688175">
        <ele>861.436</ele>
        <time>2021-07-23T13:11:19Z</time>
      </trkpt>
      <trkpt lat="42.343489" lon="-3.687897">
        <ele>862.983</ele>
        <time>2021-07-23T13:11:27Z</time>
      </trkpt>
      <trkpt lat="42.343569" lon="-3.687689">
        <ele>864.861</ele>
        <time>2021-07-23T13:11:33Z</time>
      </trkpt>
      <trkpt lat="42.343629" lon="-3.687447">
        <ele>865.865</ele>
        <time>2021-07-23T13:11:39Z</time>
      </trkpt>
      <trkpt lat="42.343721" lon="-3.687169">
        <ele>865.868</ele>
        <time>2021-07-23T13:11:46Z</time>
      </trkpt>
      <trkpt lat="42.343737" lon="-3.687127">
        <ele>866.214</ele>
        <time>2021-07-23T13:11:47Z</time>
      </trkpt>
      <trkpt lat="42.343806" lon="-3.686926">
        <ele>866.708</ele>
        <time>2021-07-23T13:11:52Z</time>
      </trkpt>
      <trkpt lat="42.343883" lon="-3.686721">
        <ele>868.693</ele>
        <time>2021-07-23T13:11:58Z</time>
      </trkpt>
      <trkpt lat="42.343919" lon="-3.686525">
        <ele>869.615</ele>
        <time>2021-07-23T13:12:05Z</time>
      </trkpt>
      <trkpt lat="42.343907" lon="-3.686473">
        <ele>871.072</ele>
        <time>2021-07-23T13:12:10Z</time>
      </trkpt>
      <trkpt lat="42.343901" lon="-3.686406">
        <ele>877.332</ele>
        <time>2021-07-23T13:12:24Z</time>
      </trkpt>
      <trkpt lat="42.343901" lon="-3.686332">
        <ele>880.786</ele>
        <time>2021-07-23T13:12:41Z</time>
      </trkpt>
      <trkpt lat="42.343934" lon="-3.686252">
        <ele>880.724</ele>
        <time>2021-07-23T13:12:46Z</time>
      </trkpt>
      <trkpt lat="42.343950" lon="-3.686148">
        <ele>879.781</ele>
        <time>2021-07-23T13:12:53Z</time>
      </trkpt>
      <trkpt lat="42.343944" lon="-3.686227">
        <ele>876.389</ele>
        <time>2021-07-23T13:13:08Z</time>
      </trkpt>
      <trkpt lat="42.343940" lon="-3.686244">
        <ele>874.987</ele>
        <time>2021-07-23T13:13:29Z</time>
      </trkpt>
      <trkpt lat="42.343928" lon="-3.686132">
        <ele>873.542</ele>
        <time>2021-07-23T13:13:35Z</time>
      </trkpt>
      <trkpt lat="42.343951" lon="-3.685975">
        <ele>870.626</ele>
        <time>2021-07-23T13:13:44Z</time>
      </trkpt>
      <trkpt lat="42.343955" lon="-3.685978">
        <ele>867.708</ele>
        <time>2021-07-23T13:13:57Z</time>
      </trkpt>
      <trkpt lat="42.343936" lon="-3.685946">
        <ele>862.975</ele>
        <time>2021-07-23T13:14:16Z</time>
      </trkpt>
      <trkpt lat="42.343992" lon="-3.685874">
        <ele>862.427</ele>
        <time>2021-07-23T13:14:21Z</time>
      </trkpt>
      <trkpt lat="42.344024" lon="-3.685804">
        <ele>862.984</ele>
        <time>2021-07-23T13:14:24Z</time>
      </trkpt>
      <trkpt lat="42.343987" lon="-3.685681">
        <ele>862.994</ele>
        <time>2021-07-23T13:14:33Z</time>
      </trkpt>
      <trkpt lat="42.344014" lon="-3.685571">
        <ele>862.948</ele>
        <time>2021-07-23T13:14:38Z</time>
      </trkpt>
      <trkpt lat="42.344154" lon="-3.685436">
        <ele>862.446</ele>
        <time>2021-07-23T13:14:45Z</time>
      </trkpt>
      <trkpt lat="42.344326" lon="-3.685227">
        <ele>861.963</ele>
        <time>2021-07-23T13:14:52Z</time>
      </trkpt>
      <trkpt lat="42.344551" lon="-3.684902">
        <ele>861.011</ele>
        <time>2021-07-23T13:15:01Z</time>
      </trkpt>
      <trkpt lat="42.344594" lon="-3.684807">
        <ele>861.095</ele>
        <time>2021-07-23T13:15:07Z</time>
      </trkpt>
      <trkpt lat="42.344610" lon="-3.684790">
        <ele>860.549</ele>
        <time>2021-07-23T13:15:22Z</time>
      </trkpt>
      <trkpt lat="42.344718" lon="-3.684589">
        <ele>860.523</ele>
        <time>2021-07-23T13:15:29Z</time>
      </trkpt>
      <trkpt lat="42.344944" lon="-3.684239">
        <ele>860.008</ele>
        <time>2021-07-23T13:15:38Z</time>
      </trkpt>
      <trkpt lat="42.345226" lon="-3.683754">
        <ele>861.926</ele>
        <time>2021-07-23T13:15:49Z</time>
      </trkpt>
      <trkpt lat="42.345469" lon="-3.683289">
        <ele>863.818</ele>
        <time>2021-07-23T13:15:59Z</time>
      </trkpt>
      <trkpt lat="42.345716" lon="-3.682840">
        <ele>864.365</ele>
        <time>2021-07-23T13:16:09Z</time>
      </trkpt>
      <trkpt lat="42.345852" lon="-3.682576">
        <ele>866.275</ele>
        <time>2021-07-23T13:16:16Z</time>
      </trkpt>
      <trkpt lat="42.345844" lon="-3.682564">
        <ele>866.759</ele>
        <time>2021-07-23T13:16:22Z</time>
      </trkpt>
      <trkpt lat="42.345831" lon="-3.682600">
        <ele>865.837</ele>
        <time>2021-07-23T13:16:38Z</time>
      </trkpt>
      <trkpt lat="42.345879" lon="-3.682513">
        <ele>865.824</ele>
        <time>2021-07-23T13:16:43Z</time>
      </trkpt>
      <trkpt lat="42.346029" lon="-3.682230">
        <ele>864.892</ele>
        <time>2021-07-23T13:16:50Z</time>
      </trkpt>
      <trkpt lat="42.346335" lon="-3.681674">
        <ele>865.866</ele>
        <time>2021-07-23T13:17:01Z</time>
      </trkpt>
      <trkpt lat="42.346604" lon="-3.681204">
        <ele>866.229</ele>
        <time>2021-07-23T13:17:10Z</time>
      </trkpt>
      <trkpt lat="42.346910" lon="-3.680670">
        <ele>866.221</ele>
        <time>2021-07-23T13:17:20Z</time>
      </trkpt>
      <trkpt lat="42.347239" lon="-3.680083">
        <ele>867.708</ele>
        <time>2021-07-23T13:17:31Z</time>
      </trkpt>
      <trkpt lat="42.347573" lon="-3.679494">
        <ele>868.273</ele>
        <time>2021-07-23T13:17:42Z</time>
      </trkpt>
      <trkpt lat="42.347890" lon="-3.678903">
        <ele>869.155</ele>
        <time>2021-07-23T13:17:53Z</time>
      </trkpt>
      <trkpt lat="42.348208" lon="-3.678310">
        <ele>868.672</ele>
        <time>2021-07-23T13:18:04Z</time>
      </trkpt>
      <trkpt lat="42.348545" lon="-3.677691">
        <ele>866.782</ele>
        <time>2021-07-23T13:18:15Z</time>
      </trkpt>
      <trkpt lat="42.348825" lon="-3.677175">
        <ele>866.786</ele>
        <time>2021-07-23T13:18:23Z</time>
      </trkpt>
      <trkpt lat="42.348928" lon="-3.676958">
        <ele>866.744</ele>
        <time>2021-07-23T13:18:28Z</time>
      </trkpt>
      <trkpt lat="42.348928" lon="-3.676938">
        <ele>867.211</ele>
        <time>2021-07-23T13:18:33Z</time>
      </trkpt>
      <trkpt lat="42.348947" lon="-3.676913">
        <ele>869.689</ele>
        <time>2021-07-23T13:18:48Z</time>
      </trkpt>
      <trkpt lat="42.349045" lon="-3.676729">
        <ele>869.157</ele>
        <time>2021-07-23T13:18:54Z</time>
      </trkpt>
      <trkpt lat="42.349273" lon="-3.676302">
        <ele>869.100</ele>
        <time>2021-07-23T13:19:03Z</time>
      </trkpt>
      <trkpt lat="42.349568" lon="-3.675795">
        <ele>869.120</ele>
        <time>2021-07-23T13:19:13Z</time>
      </trkpt>
      <trkpt lat="42.349831" lon="-3.675335">
        <ele>869.608</ele>
        <time>2021-07-23T13:19:22Z</time>
      </trkpt>
      <trkpt lat="42.350161" lon="-3.674727">
        <ele>869.112</ele>
        <time>2021-07-23T13:19:33Z</time>
      </trkpt>
      <trkpt lat="42.350479" lon="-3.674153">
        <ele>869.144</ele>
        <time>2021-07-23T13:19:43Z</time>
      </trkpt>
      <trkpt lat="42.350890" lon="-3.673397">
        <ele>872.011</ele>
        <time>2021-07-23T13:19:56Z</time>
      </trkpt>
      <trkpt lat="42.351189" lon="-3.672850">
        <ele>872.511</ele>
        <time>2021-07-23T13:20:06Z</time>
      </trkpt>
      <trkpt lat="42.351423" lon="-3.672402">
        <ele>873.095</ele>
        <time>2021-07-23T13:20:14Z</time>
      </trkpt>
      <trkpt lat="42.351745" lon="-3.671768">
        <ele>874.973</ele>
        <time>2021-07-23T13:20:25Z</time>
      </trkpt>
      <trkpt lat="42.351928" lon="-3.671398">
        <ele>874.980</ele>
        <time>2021-07-23T13:20:32Z</time>
      </trkpt>
      <trkpt lat="42.352207" lon="-3.670913">
        <ele>875.948</ele>
        <time>2021-07-23T13:20:41Z</time>
      </trkpt>
      <trkpt lat="42.352273" lon="-3.670816">
        <ele>875.432</ele>
        <time>2021-07-23T13:20:43Z</time>
      </trkpt>
      <trkpt lat="42.352308" lon="-3.670765">
        <ele>875.492</ele>
        <time>2021-07-23T13:20:44Z</time>
      </trkpt>
      <trkpt lat="42.352549" lon="-3.670300">
        <ele>876.811</ele>
        <time>2021-07-23T13:20:52Z</time>
      </trkpt>
      <trkpt lat="42.352876" lon="-3.669750">
        <ele>877.808</ele>
        <time>2021-07-23T13:21:02Z</time>
      </trkpt>
      <trkpt lat="42.353134" lon="-3.669255">
        <ele>878.770</ele>
        <time>2021-07-23T13:21:11Z</time>
      </trkpt>
      <trkpt lat="42.353226" lon="-3.669067">
        <ele>880.242</ele>
        <time>2021-07-23T13:21:17Z</time>
      </trkpt>
      <trkpt lat="42.353275" lon="-3.669146">
        <ele>883.199</ele>
        <time>2021-07-23T13:21:32Z</time>
      </trkpt>
      <trkpt lat="42.353287" lon="-3.669112">
        <ele>884.569</ele>
        <time>2021-07-23T13:21:45Z</time>
      </trkpt>
      <trkpt lat="42.353361" lon="-3.668942">
        <ele>885.923</ele>
        <time>2021-07-23T13:21:50Z</time>
      </trkpt>
      <trkpt lat="42.353545" lon="-3.668510">
        <ele>886.991</ele>
        <time>2021-07-23T13:21:59Z</time>
      </trkpt>
      <trkpt lat="42.353737" lon="-3.667923">
        <ele>882.148</ele>
        <time>2021-07-23T13:22:11Z</time>
      </trkpt>
      <trkpt lat="42.353881" lon="-3.667406">
        <ele>880.286</ele>
        <time>2021-07-23T13:22:21Z</time>
      </trkpt>
      <trkpt lat="42.354052" lon="-3.666819">
        <ele>878.729</ele>
        <time>2021-07-23T13:22:32Z</time>
      </trkpt>
      <trkpt lat="42.354248" lon="-3.666143">
        <ele>878.300</ele>
        <time>2021-07-23T13:22:44Z</time>
      </trkpt>
      <trkpt lat="42.354315" lon="-3.665918">
        <ele>878.320</ele>
        <time>2021-07-23T13:22:48Z</time>
      </trkpt>
      <trkpt lat="42.354332" lon="-3.665855">
        <ele>877.808</ele>
        <time>2021-07-23T13:22:49Z</time>
      </trkpt>
      <trkpt lat="42.354478" lon="-3.665354">
        <ele>878.759</ele>
        <time>2021-07-23T13:22:57Z</time>
      </trkpt>
      <trkpt lat="42.354654" lon="-3.664778">
        <ele>880.241</ele>
        <time>2021-07-23T13:23:06Z</time>
      </trkpt>
      <trkpt lat="42.354840" lon="-3.664307">
        <ele>884.058</ele>
        <time>2021-07-23T13:23:15Z</time>
      </trkpt>
      <trkpt lat="42.354976" lon="-3.663941">
        <ele>885.598</ele>
        <time>2021-07-23T13:23:23Z</time>
      </trkpt>
      <trkpt lat="42.355018" lon="-3.663849">
        <ele>885.952</ele>
        <time>2021-07-23T13:23:27Z</time>
      </trkpt>
      <trkpt lat="42.355087" lon="-3.663856">
        <ele>885.970</ele>
        <time>2021-07-23T13:23:31Z</time>
      </trkpt>
      <trkpt lat="42.355100" lon="-3.663808">
        <ele>886.417</ele>
        <time>2021-07-23T13:23:33Z</time>
      </trkpt>
      <trkpt lat="42.355107" lon="-3.663773">
        <ele>886.425</ele>
        <time>2021-07-23T13:23:34Z</time>
      </trkpt>
      <trkpt lat="42.355168" lon="-3.663544">
        <ele>887.962</ele>
        <time>2021-07-23T13:23:42Z</time>
      </trkpt>
      <trkpt lat="42.355176" lon="-3.663447">
        <ele>888.883</ele>
        <time>2021-07-23T13:23:48Z</time>
      </trkpt>
      <trkpt lat="42.355147" lon="-3.663330">
        <ele>892.711</ele>
        <time>2021-07-23T13:24:01Z</time>
      </trkpt>
      <trkpt lat="42.355126" lon="-3.663270">
        <ele>895.608</ele>
        <time>2021-07-23T13:24:16Z</time>
      </trkpt>
      <trkpt lat="42.355126" lon="-3.663249">
        <ele>899.473</ele>
        <time>2021-07-23T13:24:33Z</time>
      </trkpt>
      <trkpt lat="42.355115" lon="-3.663210">
        <ele>899.915</ele>
        <time>2021-07-23T13:24:54Z</time>
      </trkpt>
      <trkpt lat="42.355109" lon="-3.663177">
        <ele>898.962</ele>
        <time>2021-07-23T13:25:08Z</time>
      </trkpt>
      <trkpt lat="42.355120" lon="-3.663171">
        <ele>898.992</ele>
        <time>2021-07-23T13:25:09Z</time>
      </trkpt>
      <trkpt lat="42.355132" lon="-3.663160">
        <ele>898.996</ele>
        <time>2021-07-23T13:25:10Z</time>
      </trkpt>
      <trkpt lat="42.355150" lon="-3.663148">
        <ele>898.954</ele>
        <time>2021-07-23T13:25:11Z</time>
      </trkpt>
      <trkpt lat="42.355170" lon="-3.663142">
        <ele>898.991</ele>
        <time>2021-07-23T13:25:12Z</time>
      </trkpt>
      <trkpt lat="42.355198" lon="-3.663141">
        <ele>898.479</ele>
        <time>2021-07-23T13:25:13Z</time>
      </trkpt>
      <trkpt lat="42.355223" lon="-3.663137">
        <ele>898.493</ele>
        <time>2021-07-23T13:25:14Z</time>
      </trkpt>
      <trkpt lat="42.355254" lon="-3.663139">
        <ele>898.965</ele>
        <time>2021-07-23T13:25:15Z</time>
      </trkpt>
      <trkpt lat="42.355279" lon="-3.663143">
        <ele>898.921</ele>
        <time>2021-07-23T13:25:16Z</time>
      </trkpt>
      <trkpt lat="42.355395" lon="-3.663211">
        <ele>896.008</ele>
        <time>2021-07-23T13:25:22Z</time>
      </trkpt>
      <trkpt lat="42.355406" lon="-3.663259">
        <ele>892.776</ele>
        <time>2021-07-23T13:25:29Z</time>
      </trkpt>
      <trkpt lat="42.355453" lon="-3.663210">
        <ele>890.858</ele>
        <time>2021-07-23T13:25:34Z</time>
      </trkpt>
      <trkpt lat="42.355489" lon="-3.663146">
        <ele>887.965</ele>
        <time>2021-07-23T13:25:38Z</time>
      </trkpt>
      <trkpt lat="42.355636" lon="-3.663200">
        <ele>886.955</ele>
        <time>2021-07-23T13:25:44Z</time>
      </trkpt>
      <trkpt lat="42.355884" lon="-3.663397">
        <ele>884.529</ele>
        <time>2021-07-23T13:25:52Z</time>
      </trkpt>
      <trkpt lat="42.356256" lon="-3.663684">
        <ele>883.537</ele>
        <time>2021-07-23T13:26:03Z</time>
      </trkpt>
      <trkpt lat="42.356486" lon="-3.663745">
        <ele>883.164</ele>
        <time>2021-07-23T13:26:10Z</time>
      </trkpt>
      <trkpt lat="42.356594" lon="-3.663746">
        <ele>884.062</ele>
        <time>2021-07-23T13:26:15Z</time>
      </trkpt>
      <trkpt lat="42.356673" lon="-3.663852">
        <ele>882.651</ele>
        <time>2021-07-23T13:26:22Z</time>
      </trkpt>
      <trkpt lat="42.356809" lon="-3.663957">
        <ele>882.601</ele>
        <time>2021-07-23T13:26:29Z</time>
      </trkpt>
      <trkpt lat="42.357010" lon="-3.664122">
        <ele>882.611</ele>
        <time>2021-07-23T13:26:36Z</time>
      </trkpt>
      <trkpt lat="42.357282" lon="-3.664329">
        <ele>881.608</ele>
        <time>2021-07-23T13:26:44Z</time>
      </trkpt>
      <trkpt lat="42.357586" lon="-3.664507">
        <ele>880.792</ele>
        <time>2021-07-23T13:26:54Z</time>
      </trkpt>
      <trkpt lat="42.357678" lon="-3.664511">
        <ele>881.174</ele>
        <time>2021-07-23T13:26:57Z</time>
      </trkpt>
      <trkpt lat="42.357788" lon="-3.664562">
        <ele>880.721</ele>
        <time>2021-07-23T13:27:01Z</time>
      </trkpt>
      <trkpt lat="42.358106" lon="-3.664797">
        <ele>880.751</ele>
        <time>2021-07-23T13:27:11Z</time>
      </trkpt>
      <trkpt lat="42.358434" lon="-3.665056">
        <ele>880.795</ele>
        <time>2021-07-23T13:27:21Z</time>
      </trkpt>
      <trkpt lat="42.358538" lon="-3.665148">
        <ele>880.743</ele>
        <time>2021-07-23T13:27:27Z</time>
      </trkpt>
      <trkpt lat="42.358540" lon="-3.665141">
        <ele>880.230</ele>
        <time>2021-07-23T13:27:34Z</time>
      </trkpt>
      <trkpt lat="42.358599" lon="-3.665177">
        <ele>881.678</ele>
        <time>2021-07-23T13:27:42Z</time>
      </trkpt>
      <trkpt lat="42.358774" lon="-3.665305">
        <ele>882.677</ele>
        <time>2021-07-23T13:27:50Z</time>
      </trkpt>
      <trkpt lat="42.359005" lon="-3.665484">
        <ele>883.161</ele>
        <time>2021-07-23T13:27:58Z</time>
      </trkpt>
      <trkpt lat="42.359219" lon="-3.665644">
        <ele>883.527</ele>
        <time>2021-07-23T13:28:05Z</time>
      </trkpt>
      <trkpt lat="42.359364" lon="-3.665795">
        <ele>884.008</ele>
        <time>2021-07-23T13:28:11Z</time>
      </trkpt>
      <trkpt lat="42.359319" lon="-3.665980">
        <ele>883.164</ele>
        <time>2021-07-23T13:28:17Z</time>
      </trkpt>
      <trkpt lat="42.359289" lon="-3.666144">
        <ele>881.616</ele>
        <time>2021-07-23T13:28:22Z</time>
      </trkpt>
      <trkpt lat="42.359309" lon="-3.666177">
        <ele>881.193</ele>
        <time>2021-07-23T13:28:23Z</time>
      </trkpt>
      <trkpt lat="42.359328" lon="-3.666206">
        <ele>881.143</ele>
        <time>2021-07-23T13:28:24Z</time>
      </trkpt>
      <trkpt lat="42.359348" lon="-3.666245">
        <ele>880.767</ele>
        <time>2021-07-23T13:28:25Z</time>
      </trkpt>
      <trkpt lat="42.359365" lon="-3.666285">
        <ele>880.775</ele>
        <time>2021-07-23T13:28:26Z</time>
      </trkpt>
      <trkpt lat="42.359381" lon="-3.666320">
        <ele>880.732</ele>
        <time>2021-07-23T13:28:27Z</time>
      </trkpt>
      <trkpt lat="42.359419" lon="-3.666563">
        <ele>881.620</ele>
        <time>2021-07-23T13:28:34Z</time>
      </trkpt>
      <trkpt lat="42.359414" lon="-3.666606">
        <ele>881.658</ele>
        <time>2021-07-23T13:28:36Z</time>
      </trkpt>
      <trkpt lat="42.359430" lon="-3.666624">
        <ele>881.652</ele>
        <time>2021-07-23T13:28:37Z</time>
      </trkpt>
      <trkpt lat="42.359452" lon="-3.666637">
        <ele>881.617</ele>
        <time>2021-07-23T13:28:38Z</time>
      </trkpt>
      <trkpt lat="42.359479" lon="-3.666644">
        <ele>881.608</ele>
        <time>2021-07-23T13:28:39Z</time>
      </trkpt>
      <trkpt lat="42.359502" lon="-3.666648">
        <ele>882.162</ele>
        <time>2021-07-23T13:28:40Z</time>
      </trkpt>
      <trkpt lat="42.359528" lon="-3.666629">
        <ele>883.134</ele>
        <time>2021-07-23T13:28:45Z</time>
      </trkpt>
      <trkpt lat="42.359585" lon="-3.666635">
        <ele>885.061</ele>
        <time>2021-07-23T13:28:49Z</time>
      </trkpt>
      <trkpt lat="42.359706" lon="-3.666569">
        <ele>883.571</ele>
        <time>2021-07-23T13:28:54Z</time>
      </trkpt>
      <trkpt lat="42.359801" lon="-3.666623">
        <ele>883.185</ele>
        <time>2021-07-23T13:28:57Z</time>
      </trkpt>
      <trkpt lat="42.360086" lon="-3.666980">
        <ele>880.223</ele>
        <time>2021-07-23T13:29:07Z</time>
      </trkpt>
      <trkpt lat="42.360178" lon="-3.667233">
        <ele>877.880</ele>
        <time>2021-07-23T13:29:14Z</time>
      </trkpt>
      <trkpt lat="42.360195" lon="-3.667264">
        <ele>877.338</ele>
        <time>2021-07-23T13:29:15Z</time>
      </trkpt>
      <trkpt lat="42.360193" lon="-3.667419">
        <ele>876.841</ele>
        <time>2021-07-23T13:29:19Z</time>
      </trkpt>
      <trkpt lat="42.360071" lon="-3.667696">
        <ele>876.881</ele>
        <time>2021-07-23T13:29:27Z</time>
      </trkpt>
      <trkpt lat="42.360046" lon="-3.667762">
        <ele>875.909</ele>
        <time>2021-07-23T13:29:30Z</time>
      </trkpt>
      <trkpt lat="42.360043" lon="-3.667789">
        <ele>875.408</ele>
        <time>2021-07-23T13:29:32Z</time>
      </trkpt>
      <trkpt lat="42.360068" lon="-3.667796">
        <ele>875.441</ele>
        <time>2021-07-23T13:29:35Z</time>
      </trkpt>
      <trkpt lat="42.360158" lon="-3.667891">
        <ele>875.433</ele>
        <time>2021-07-23T13:29:42Z</time>
      </trkpt>
      <trkpt lat="42.360222" lon="-3.667953">
        <ele>875.460</ele>
        <time>2021-07-23T13:29:46Z</time>
      </trkpt>
      <trkpt lat="42.360309" lon="-3.667974">
        <ele>878.330</ele>
        <time>2021-07-23T13:29:51Z</time>
      </trkpt>
      <trkpt lat="42.360412" lon="-3.668158">
        <ele>880.214</ele>
        <time>2021-07-23T13:29:58Z</time>
      </trkpt>
      <trkpt lat="42.360428" lon="-3.668343">
        <ele>879.712</ele>
        <time>2021-07-23T13:30:04Z</time>
      </trkpt>
      <trkpt lat="42.360378" lon="-3.668453">
        <ele>879.799</ele>
        <time>2021-07-23T13:30:08Z</time>
      </trkpt>
      <trkpt lat="42.360285" lon="-3.668558">
        <ele>881.177</ele>
        <time>2021-07-23T13:30:15Z</time>
      </trkpt>
      <trkpt lat="42.360263" lon="-3.668594">
        <ele>881.629</ele>
        <time>2021-07-23T13:30:17Z</time>
      </trkpt>
      <trkpt lat="42.360305" lon="-3.668692">
        <ele>880.700</ele>
        <time>2021-07-23T13:30:22Z</time>
      </trkpt>
      <trkpt lat="42.360366" lon="-3.668730">
        <ele>878.320</ele>
        <time>2021-07-23T13:30:29Z</time>
      </trkpt>
      <trkpt lat="42.360330" lon="-3.668692">
        <ele>876.808</ele>
        <time>2021-07-23T13:30:32Z</time>
      </trkpt>
      <trkpt lat="42.360200" lon="-3.668582">
        <ele>875.429</ele>
        <time>2021-07-23T13:30:39Z</time>
      </trkpt>
      <trkpt lat="42.360123" lon="-3.668494">
        <ele>873.571</ele>
        <time>2021-07-23T13:30:47Z</time>
      </trkpt>
      <trkpt lat="42.360120" lon="-3.668477">
        <ele>873.098</ele>
        <time>2021-07-23T13:30:57Z</time>
      </trkpt>
      <trkpt lat="42.360138" lon="-3.668484">
        <ele>873.998</ele>
        <time>2021-07-23T13:31:09Z</time>
      </trkpt>
      <trkpt lat="42.360154" lon="-3.668472">
        <ele>873.922</ele>
        <time>2021-07-23T13:31:28Z</time>
      </trkpt>
      <trkpt lat="42.360144" lon="-3.668470">
        <ele>874.460</ele>
        <time>2021-07-23T13:31:46Z</time>
      </trkpt>
      <trkpt lat="42.360141" lon="-3.668446">
        <ele>878.337</ele>
        <time>2021-07-23T13:32:13Z</time>
      </trkpt>
      <trkpt lat="42.360163" lon="-3.668420">
        <ele>880.775</ele>
        <time>2021-07-23T13:32:38Z</time>
      </trkpt>
      <trkpt lat="42.359307" lon="-3.669292">
        <ele>944.682</ele>
        <time>2021-07-25T05:53:09Z</time>
      </trkpt>
      <trkpt lat="42.359704" lon="-3.669473">
        <ele>934.543</ele>
        <time>2021-07-25T05:53:26Z</time>
      </trkpt>
      <trkpt lat="42.359815" lon="-3.669533">
        <ele>939.317</ele>
        <time>2021-07-25T05:53:39Z</time>
      </trkpt>
      <trkpt lat="42.359805" lon="-3.669619">
        <ele>935.008</ele>
        <time>2021-07-25T05:53:55Z</time>
      </trkpt>
      <trkpt lat="42.359807" lon="-3.669622">
        <ele>930.295</ele>
        <time>2021-07-25T05:54:08Z</time>
      </trkpt>
      <trkpt lat="42.359779" lon="-3.669640">
        <ele>930.287</ele>
        <time>2021-07-25T05:54:25Z</time>
      </trkpt>
      <trkpt lat="42.359784" lon="-3.669662">
        <ele>930.674</ele>
        <time>2021-07-25T05:54:38Z</time>
      </trkpt>
      <trkpt lat="42.359789" lon="-3.669673">
        <ele>932.174</ele>
        <time>2021-07-25T05:54:46Z</time>
      </trkpt>
      <trkpt lat="42.359715" lon="-3.669597">
        <ele>929.268</ele>
        <time>2021-07-25T05:54:53Z</time>
      </trkpt>
      <trkpt lat="42.359644" lon="-3.669419">
        <ele>925.476</ele>
        <time>2021-07-25T05:54:59Z</time>
      </trkpt>
      <trkpt lat="42.359557" lon="-3.669234">
        <ele>921.083</ele>
        <time>2021-07-25T05:55:06Z</time>
      </trkpt>
      <trkpt lat="42.359559" lon="-3.669097">
        <ele>917.281</ele>
        <time>2021-07-25T05:55:12Z</time>
      </trkpt>
      <trkpt lat="42.359562" lon="-3.668969">
        <ele>915.792</ele>
        <time>2021-07-25T05:55:16Z</time>
      </trkpt>
      <trkpt lat="42.359603" lon="-3.668679">
        <ele>913.373</ele>
        <time>2021-07-25T05:55:25Z</time>
      </trkpt>
      <trkpt lat="42.359676" lon="-3.668487">
        <ele>912.420</ele>
        <time>2021-07-25T05:55:33Z</time>
      </trkpt>
      <trkpt lat="42.359867" lon="-3.668009">
        <ele>909.508</ele>
        <time>2021-07-25T05:55:40Z</time>
      </trkpt>
      <trkpt lat="42.359932" lon="-3.667845">
        <ele>908.546</ele>
        <time>2021-07-25T05:55:46Z</time>
      </trkpt>
      <trkpt lat="42.359927" lon="-3.667713">
        <ele>903.738</ele>
        <time>2021-07-25T05:55:57Z</time>
      </trkpt>
      <trkpt lat="42.360028" lon="-3.667558">
        <ele>897.055</ele>
        <time>2021-07-25T05:56:03Z</time>
      </trkpt>
      <trkpt lat="42.360163" lon="-3.667144">
        <ele>897.555</ele>
        <time>2021-07-25T05:56:13Z</time>
      </trkpt>
      <trkpt lat="42.360194" lon="-3.666904">
        <ele>894.679</ele>
        <time>2021-07-25T05:56:20Z</time>
      </trkpt>
      <trkpt lat="42.360249" lon="-3.666735">
        <ele>889.817</ele>
        <time>2021-07-25T05:56:26Z</time>
      </trkpt>
      <trkpt lat="42.360234" lon="-3.666706">
        <ele>889.344</ele>
        <time>2021-07-25T05:56:27Z</time>
      </trkpt>
      <trkpt lat="42.360134" lon="-3.666607">
        <ele>887.962</ele>
        <time>2021-07-25T05:56:31Z</time>
      </trkpt>
      <trkpt lat="42.359870" lon="-3.666365">
        <ele>885.562</ele>
        <time>2021-07-25T05:56:42Z</time>
      </trkpt>
      <trkpt lat="42.359733" lon="-3.666212">
        <ele>878.783</ele>
        <time>2021-07-25T05:56:49Z</time>
      </trkpt>
      <trkpt lat="42.359751" lon="-3.665911">
        <ele>879.211</ele>
        <time>2021-07-25T05:56:57Z</time>
      </trkpt>
      <trkpt lat="42.359748" lon="-3.665708">
        <ele>881.108</ele>
        <time>2021-07-25T05:57:04Z</time>
      </trkpt>
      <trkpt lat="42.359728" lon="-3.665698">
        <ele>881.113</ele>
        <time>2021-07-25T05:57:05Z</time>
      </trkpt>
      <trkpt lat="42.359705" lon="-3.665696">
        <ele>881.165</ele>
        <time>2021-07-25T05:57:06Z</time>
      </trkpt>
      <trkpt lat="42.359683" lon="-3.665694">
        <ele>881.142</ele>
        <time>2021-07-25T05:57:07Z</time>
      </trkpt>
      <trkpt lat="42.359660" lon="-3.665686">
        <ele>881.132</ele>
        <time>2021-07-25T05:57:08Z</time>
      </trkpt>
      <trkpt lat="42.359635" lon="-3.665673">
        <ele>880.766</ele>
        <time>2021-07-25T05:57:09Z</time>
      </trkpt>
      <trkpt lat="42.359609" lon="-3.665665">
        <ele>880.724</ele>
        <time>2021-07-25T05:57:10Z</time>
      </trkpt>
      <trkpt lat="42.359584" lon="-3.665668">
        <ele>880.781</ele>
        <time>2021-07-25T05:57:11Z</time>
      </trkpt>
      <trkpt lat="42.359560" lon="-3.665674">
        <ele>881.189</ele>
        <time>2021-07-25T05:57:12Z</time>
      </trkpt>
      <trkpt lat="42.359533" lon="-3.665672">
        <ele>881.115</ele>
        <time>2021-07-25T05:57:13Z</time>
      </trkpt>
      <trkpt lat="42.359507" lon="-3.665667">
        <ele>881.165</ele>
        <time>2021-07-25T05:57:14Z</time>
      </trkpt>
      <trkpt lat="42.359371" lon="-3.665682">
        <ele>881.111</ele>
        <time>2021-07-25T05:57:19Z</time>
      </trkpt>
      <trkpt lat="42.359349" lon="-3.665690">
        <ele>881.608</ele>
        <time>2021-07-25T05:57:20Z</time>
      </trkpt>
      <trkpt lat="42.359324" lon="-3.665688">
        <ele>881.128</ele>
        <time>2021-07-25T05:57:21Z</time>
      </trkpt>
      <trkpt lat="42.359294" lon="-3.665682">
        <ele>881.130</ele>
        <time>2021-07-25T05:57:22Z</time>
      </trkpt>
      <trkpt lat="42.359265" lon="-3.665670">
        <ele>881.147</ele>
        <time>2021-07-25T05:57:23Z</time>
      </trkpt>
      <trkpt lat="42.359237" lon="-3.665649">
        <ele>880.797</ele>
        <time>2021-07-25T05:57:24Z</time>
      </trkpt>
      <trkpt lat="42.358982" lon="-3.665447">
        <ele>877.851</ele>
        <time>2021-07-25T05:57:33Z</time>
      </trkpt>
      <trkpt lat="42.358741" lon="-3.665274">
        <ele>876.349</ele>
        <time>2021-07-25T05:57:41Z</time>
      </trkpt>
      <trkpt lat="42.358522" lon="-3.665124">
        <ele>875.476</ele>
        <time>2021-07-25T05:57:49Z</time>
      </trkpt>
      <trkpt lat="42.358317" lon="-3.664936">
        <ele>873.054</ele>
        <time>2021-07-25T05:57:57Z</time>
      </trkpt>
      <trkpt lat="42.358031" lon="-3.664717">
        <ele>872.581</ele>
        <time>2021-07-25T05:58:06Z</time>
      </trkpt>
      <trkpt lat="42.357733" lon="-3.664531">
        <ele>869.161</ele>
        <time>2021-07-25T05:58:15Z</time>
      </trkpt>
      <trkpt lat="42.357696" lon="-3.664513">
        <ele>869.117</ele>
        <time>2021-07-25T05:58:16Z</time>
      </trkpt>
      <trkpt lat="42.357514" lon="-3.664441">
        <ele>870.108</ele>
        <time>2021-07-25T05:58:22Z</time>
      </trkpt>
      <trkpt lat="42.357332" lon="-3.664326">
        <ele>868.695</ele>
        <time>2021-07-25T05:58:30Z</time>
      </trkpt>
      <trkpt lat="42.357099" lon="-3.664126">
        <ele>868.227</ele>
        <time>2021-07-25T05:58:39Z</time>
      </trkpt>
      <trkpt lat="42.356869" lon="-3.663952">
        <ele>869.614</ele>
        <time>2021-07-25T05:58:47Z</time>
      </trkpt>
      <trkpt lat="42.356744" lon="-3.663902">
        <ele>870.674</ele>
        <time>2021-07-25T05:58:51Z</time>
      </trkpt>
      <trkpt lat="42.356662" lon="-3.663791">
        <ele>872.018</ele>
        <time>2021-07-25T05:58:57Z</time>
      </trkpt>
      <trkpt lat="42.356629" lon="-3.663736">
        <ele>872.576</ele>
        <time>2021-07-25T05:58:59Z</time>
      </trkpt>
      <trkpt lat="42.356441" lon="-3.663712">
        <ele>874.993</ele>
        <time>2021-07-25T05:59:06Z</time>
      </trkpt>
      <trkpt lat="42.356261" lon="-3.663637">
        <ele>874.921</ele>
        <time>2021-07-25T05:59:12Z</time>
      </trkpt>
      <trkpt lat="42.356026" lon="-3.663464">
        <ele>873.047</ele>
        <time>2021-07-25T05:59:20Z</time>
      </trkpt>
      <trkpt lat="42.355773" lon="-3.663301">
        <ele>871.029</ele>
        <time>2021-07-25T05:59:28Z</time>
      </trkpt>
      <trkpt lat="42.355498" lon="-3.663099">
        <ele>865.321</ele>
        <time>2021-07-25T05:59:37Z</time>
      </trkpt>
      <trkpt lat="42.355418" lon="-3.662910">
        <ele>863.808</ele>
        <time>2021-07-25T05:59:42Z</time>
      </trkpt>
      <trkpt lat="42.355435" lon="-3.662765">
        <ele>865.831</ele>
        <time>2021-07-25T05:59:46Z</time>
      </trkpt>
      <trkpt lat="42.355415" lon="-3.662723">
        <ele>867.273</ele>
        <time>2021-07-25T05:59:49Z</time>
      </trkpt>
      <trkpt lat="42.355276" lon="-3.662673">
        <ele>868.620</ele>
        <time>2021-07-25T05:59:56Z</time>
      </trkpt>
      <trkpt lat="42.355193" lon="-3.662673">
        <ele>869.150</ele>
        <time>2021-07-25T05:59:59Z</time>
      </trkpt>
      <trkpt lat="42.355172" lon="-3.662693">
        <ele>869.654</ele>
        <time>2021-07-25T06:00:00Z</time>
      </trkpt>
      <trkpt lat="42.355146" lon="-3.662718">
        <ele>869.622</ele>
        <time>2021-07-25T06:00:01Z</time>
      </trkpt>
      <trkpt lat="42.355120" lon="-3.662739">
        <ele>870.119</ele>
        <time>2021-07-25T06:00:02Z</time>
      </trkpt>
      <trkpt lat="42.355091" lon="-3.662754">
        <ele>870.187</ele>
        <time>2021-07-25T06:00:03Z</time>
      </trkpt>
      <trkpt lat="42.355058" lon="-3.662762">
        <ele>870.171</ele>
        <time>2021-07-25T06:00:04Z</time>
      </trkpt>
      <trkpt lat="42.354964" lon="-3.662740">
        <ele>870.641</ele>
        <time>2021-07-25T06:00:07Z</time>
      </trkpt>
      <trkpt lat="42.354695" lon="-3.662628">
        <ele>872.015</ele>
        <time>2021-07-25T06:00:16Z</time>
      </trkpt>
      <trkpt lat="42.354476" lon="-3.662511">
        <ele>873.908</ele>
        <time>2021-07-25T06:00:23Z</time>
      </trkpt>
      <trkpt lat="42.354173" lon="-3.662365">
        <ele>874.464</ele>
        <time>2021-07-25T06:00:32Z</time>
      </trkpt>
      <trkpt lat="42.353755" lon="-3.662137">
        <ele>875.476</ele>
        <time>2021-07-25T06:00:44Z</time>
      </trkpt>
      <trkpt lat="42.353574" lon="-3.662027">
        <ele>875.993</ele>
        <time>2021-07-25T06:00:51Z</time>
      </trkpt>
      <trkpt lat="42.353381" lon="-3.661925">
        <ele>875.913</ele>
        <time>2021-07-25T06:00:58Z</time>
      </trkpt>
      <trkpt lat="42.353000" lon="-3.661730">
        <ele>874.487</ele>
        <time>2021-07-25T06:01:10Z</time>
      </trkpt>
      <trkpt lat="42.352740" lon="-3.661602">
        <ele>872.565</ele>
        <time>2021-07-25T06:01:19Z</time>
      </trkpt>
      <trkpt lat="42.352584" lon="-3.661530">
        <ele>872.592</ele>
        <time>2021-07-25T06:01:26Z</time>
      </trkpt>
      <trkpt lat="42.352317" lon="-3.661405">
        <ele>872.090</ele>
        <time>2021-07-25T06:01:35Z</time>
      </trkpt>
      <trkpt lat="42.352067" lon="-3.661290">
        <ele>872.066</ele>
        <time>2021-07-25T06:01:43Z</time>
      </trkpt>
      <trkpt lat="42.351881" lon="-3.661189">
        <ele>871.029</ele>
        <time>2021-07-25T06:01:50Z</time>
      </trkpt>
      <trkpt lat="42.351696" lon="-3.661085">
        <ele>871.021</ele>
        <time>2021-07-25T06:02:00Z</time>
      </trkpt>
      <trkpt lat="42.351481" lon="-3.660992">
        <ele>868.208</ele>
        <time>2021-07-25T06:02:08Z</time>
      </trkpt>
      <trkpt lat="42.351299" lon="-3.660917">
        <ele>863.423</ele>
        <time>2021-07-25T06:02:15Z</time>
      </trkpt>
      <trkpt lat="42.350997" lon="-3.660750">
        <ele>863.455</ele>
        <time>2021-07-25T06:02:25Z</time>
      </trkpt>
      <trkpt lat="42.350801" lon="-3.660654">
        <ele>864.392</ele>
        <time>2021-07-25T06:02:31Z</time>
      </trkpt>
      <trkpt lat="42.350659" lon="-3.660484">
        <ele>864.882</ele>
        <time>2021-07-25T06:02:37Z</time>
      </trkpt>
      <trkpt lat="42.350645" lon="-3.660452">
        <ele>865.336</ele>
        <time>2021-07-25T06:02:38Z</time>
      </trkpt>
      <trkpt lat="42.350511" lon="-3.660386">
        <ele>862.924</ele>
        <time>2021-07-25T06:02:43Z</time>
      </trkpt>
      <trkpt lat="42.350182" lon="-3.660353">
        <ele>862.951</ele>
        <time>2021-07-25T06:02:53Z</time>
      </trkpt>
      <trkpt lat="42.349886" lon="-3.660359">
        <ele>864.319</ele>
        <time>2021-07-25T06:03:02Z</time>
      </trkpt>
      <trkpt lat="42.349622" lon="-3.660418">
        <ele>867.297</ele>
        <time>2021-07-25T06:03:10Z</time>
      </trkpt>
      <trkpt lat="42.349319" lon="-3.660541">
        <ele>871.023</ele>
        <time>2021-07-25T06:03:20Z</time>
      </trkpt>
      <trkpt lat="42.349056" lon="-3.660717">
        <ele>873.925</ele>
        <time>2021-07-25T06:03:29Z</time>
      </trkpt>
      <trkpt lat="42.348805" lon="-3.660749">
        <ele>875.908</ele>
        <time>2021-07-25T06:03:37Z</time>
      </trkpt>
      <trkpt lat="42.348655" lon="-3.660836">
        <ele>874.916</ele>
        <time>2021-07-25T06:03:42Z</time>
      </trkpt>
      <trkpt lat="42.348446" lon="-3.661018">
        <ele>874.948</ele>
        <time>2021-07-25T06:03:49Z</time>
      </trkpt>
      <trkpt lat="42.348143" lon="-3.661302">
        <ele>876.855</ele>
        <time>2021-07-25T06:03:59Z</time>
      </trkpt>
      <trkpt lat="42.347879" lon="-3.661551">
        <ele>878.385</ele>
        <time>2021-07-25T06:04:08Z</time>
      </trkpt>
      <trkpt lat="42.347543" lon="-3.661849">
        <ele>879.239</ele>
        <time>2021-07-25T06:04:19Z</time>
      </trkpt>
      <trkpt lat="42.347312" lon="-3.662085">
        <ele>880.287</ele>
        <time>2021-07-25T06:04:27Z</time>
      </trkpt>
      <trkpt lat="42.347164" lon="-3.662357">
        <ele>880.794</ele>
        <time>2021-07-25T06:04:34Z</time>
      </trkpt>
      <trkpt lat="42.346941" lon="-3.662548">
        <ele>881.182</ele>
        <time>2021-07-25T06:04:42Z</time>
      </trkpt>
      <trkpt lat="42.346856" lon="-3.662642">
        <ele>880.781</ele>
        <time>2021-07-25T06:04:46Z</time>
      </trkpt>
      <trkpt lat="42.346804" lon="-3.662675">
        <ele>880.761</ele>
        <time>2021-07-25T06:04:48Z</time>
      </trkpt>
      <trkpt lat="42.346625" lon="-3.662727">
        <ele>879.717</ele>
        <time>2021-07-25T06:04:56Z</time>
      </trkpt>
      <trkpt lat="42.346541" lon="-3.662745">
        <ele>879.708</ele>
        <time>2021-07-25T06:05:00Z</time>
      </trkpt>
      <trkpt lat="42.346517" lon="-3.662722">
        <ele>879.255</ele>
        <time>2021-07-25T06:05:01Z</time>
      </trkpt>
      <trkpt lat="42.346500" lon="-3.662676">
        <ele>879.267</ele>
        <time>2021-07-25T06:05:02Z</time>
      </trkpt>
      <trkpt lat="42.346497" lon="-3.662654">
        <ele>879.284</ele>
        <time>2021-07-25T06:05:03Z</time>
      </trkpt>
      <trkpt lat="42.346491" lon="-3.662600">
        <ele>878.754</ele>
        <time>2021-07-25T06:05:04Z</time>
      </trkpt>
      <trkpt lat="42.346485" lon="-3.662547">
        <ele>878.318</ele>
        <time>2021-07-25T06:05:05Z</time>
      </trkpt>
      <trkpt lat="42.346433" lon="-3.662155">
        <ele>876.366</ele>
        <time>2021-07-25T06:05:11Z</time>
      </trkpt>
      <trkpt lat="42.346369" lon="-3.661682">
        <ele>875.483</ele>
        <time>2021-07-25T06:05:17Z</time>
      </trkpt>
      <trkpt lat="42.346323" lon="-3.661253">
        <ele>876.391</ele>
        <time>2021-07-25T06:05:26Z</time>
      </trkpt>
      <trkpt lat="42.346258" lon="-3.660658">
        <ele>876.367</ele>
        <time>2021-07-25T06:05:39Z</time>
      </trkpt>
      <trkpt lat="42.346182" lon="-3.660111">
        <ele>875.981</ele>
        <time>2021-07-25T06:05:50Z</time>
      </trkpt>
      <trkpt lat="42.346114" lon="-3.659603">
        <ele>875.919</ele>
        <time>2021-07-25T06:06:00Z</time>
      </trkpt>
      <trkpt lat="42.346042" lon="-3.659042">
        <ele>876.308</ele>
        <time>2021-07-25T06:06:11Z</time>
      </trkpt>
      <trkpt lat="42.346008" lon="-3.658716">
        <ele>876.893</ele>
        <time>2021-07-25T06:06:20Z</time>
      </trkpt>
      <trkpt lat="42.346125" lon="-3.658514">
        <ele>877.345</ele>
        <time>2021-07-25T06:06:26Z</time>
      </trkpt>
      <trkpt lat="42.346169" lon="-3.658419">
        <ele>877.352</ele>
        <time>2021-07-25T06:06:29Z</time>
      </trkpt>
      <trkpt lat="42.346166" lon="-3.658380">
        <ele>877.312</ele>
        <time>2021-07-25T06:06:30Z</time>
      </trkpt>
      <trkpt lat="42.346161" lon="-3.658339">
        <ele>877.326</ele>
        <time>2021-07-25T06:06:31Z</time>
      </trkpt>
      <trkpt lat="42.346154" lon="-3.658300">
        <ele>877.344</ele>
        <time>2021-07-25T06:06:32Z</time>
      </trkpt>
      <trkpt lat="42.346145" lon="-3.658260">
        <ele>877.321</ele>
        <time>2021-07-25T06:06:33Z</time>
      </trkpt>
      <trkpt lat="42.346137" lon="-3.658222">
        <ele>877.339</ele>
        <time>2021-07-25T06:06:34Z</time>
      </trkpt>
      <trkpt lat="42.346131" lon="-3.658180">
        <ele>877.392</ele>
        <time>2021-07-25T06:06:35Z</time>
      </trkpt>
      <trkpt lat="42.346079" lon="-3.657790">
        <ele>877.873</ele>
        <time>2021-07-25T06:06:44Z</time>
      </trkpt>
      <trkpt lat="42.345999" lon="-3.657262">
        <ele>878.320</ele>
        <time>2021-07-25T06:06:56Z</time>
      </trkpt>
      <trkpt lat="42.345922" lon="-3.656719">
        <ele>878.308</ele>
        <time>2021-07-25T06:07:08Z</time>
      </trkpt>
      <trkpt lat="42.345841" lon="-3.656124">
        <ele>877.836</ele>
        <time>2021-07-25T06:07:21Z</time>
      </trkpt>
      <trkpt lat="42.345836" lon="-3.655988">
        <ele>877.858</ele>
        <time>2021-07-25T06:07:27Z</time>
      </trkpt>
      <trkpt lat="42.345825" lon="-3.655864">
        <ele>878.365</ele>
        <time>2021-07-25T06:07:33Z</time>
      </trkpt>
      <trkpt lat="42.345772" lon="-3.655669">
        <ele>878.735</ele>
        <time>2021-07-25T06:07:39Z</time>
      </trkpt>
      <trkpt lat="42.345772" lon="-3.655647">
        <ele>879.229</ele>
        <time>2021-07-25T06:07:40Z</time>
      </trkpt>
      <trkpt lat="42.345773" lon="-3.655622">
        <ele>879.257</ele>
        <time>2021-07-25T06:07:41Z</time>
      </trkpt>
      <trkpt lat="42.345732" lon="-3.655387">
        <ele>879.774</ele>
        <time>2021-07-25T06:07:48Z</time>
      </trkpt>
      <trkpt lat="42.345680" lon="-3.655017">
        <ele>879.772</ele>
        <time>2021-07-25T06:07:58Z</time>
      </trkpt>
      <trkpt lat="42.345637" lon="-3.654670">
        <ele>879.748</ele>
        <time>2021-07-25T06:08:06Z</time>
      </trkpt>
      <trkpt lat="42.345661" lon="-3.654427">
        <ele>879.761</ele>
        <time>2021-07-25T06:08:13Z</time>
      </trkpt>
      <trkpt lat="42.345770" lon="-3.654283">
        <ele>880.717</ele>
        <time>2021-07-25T06:08:21Z</time>
      </trkpt>
      <trkpt lat="42.345751" lon="-3.654211">
        <ele>881.608</ele>
        <time>2021-07-25T06:08:26Z</time>
      </trkpt>
      <trkpt lat="42.345698" lon="-3.654224">
        <ele>882.111</ele>
        <time>2021-07-25T06:08:28Z</time>
      </trkpt>
      <trkpt lat="42.345538" lon="-3.654265">
        <ele>882.643</ele>
        <time>2021-07-25T06:08:37Z</time>
      </trkpt>
      <trkpt lat="42.345557" lon="-3.654257">
        <ele>882.190</ele>
        <time>2021-07-25T06:08:53Z</time>
      </trkpt>
      <trkpt lat="42.345507" lon="-3.654247">
        <ele>883.160</ele>
        <time>2021-07-25T06:09:09Z</time>
      </trkpt>
      <trkpt lat="42.345369" lon="-3.654155">
        <ele>882.684</ele>
        <time>2021-07-25T06:09:14Z</time>
      </trkpt>
      <trkpt lat="42.345307" lon="-3.653874">
        <ele>882.692</ele>
        <time>2021-07-25T06:09:20Z</time>
      </trkpt>
      <trkpt lat="42.345225" lon="-3.653345">
        <ele>881.139</ele>
        <time>2021-07-25T06:09:31Z</time>
      </trkpt>
      <trkpt lat="42.345166" lon="-3.652874">
        <ele>880.227</ele>
        <time>2021-07-25T06:09:40Z</time>
      </trkpt>
      <trkpt lat="42.345066" lon="-3.652229">
        <ele>879.788</ele>
        <time>2021-07-25T06:09:52Z</time>
      </trkpt>
      <trkpt lat="42.345014" lon="-3.651652">
        <ele>879.724</ele>
        <time>2021-07-25T06:10:03Z</time>
      </trkpt>
      <trkpt lat="42.344984" lon="-3.651063">
        <ele>881.126</ele>
        <time>2021-07-25T06:10:14Z</time>
      </trkpt>
      <trkpt lat="42.344944" lon="-3.650401">
        <ele>881.108</ele>
        <time>2021-07-25T06:10:26Z</time>
      </trkpt>
      <trkpt lat="42.344903" lon="-3.649719">
        <ele>881.185</ele>
        <time>2021-07-25T06:10:38Z</time>
      </trkpt>
      <trkpt lat="42.344865" lon="-3.648962">
        <ele>881.167</ele>
        <time>2021-07-25T06:10:52Z</time>
      </trkpt>
      <trkpt lat="42.344835" lon="-3.648407">
        <ele>881.154</ele>
        <time>2021-07-25T06:11:02Z</time>
      </trkpt>
      <trkpt lat="42.344819" lon="-3.647784">
        <ele>881.694</ele>
        <time>2021-07-25T06:11:13Z</time>
      </trkpt>
      <trkpt lat="42.344799" lon="-3.647210">
        <ele>881.128</ele>
        <time>2021-07-25T06:11:23Z</time>
      </trkpt>
      <trkpt lat="42.344741" lon="-3.646529">
        <ele>880.716</ele>
        <time>2021-07-25T06:11:35Z</time>
      </trkpt>
      <trkpt lat="42.344704" lon="-3.645928">
        <ele>881.133</ele>
        <time>2021-07-25T06:11:45Z</time>
      </trkpt>
      <trkpt lat="42.344686" lon="-3.645699">
        <ele>881.641</ele>
        <time>2021-07-25T06:11:49Z</time>
      </trkpt>
      <trkpt lat="42.344673" lon="-3.645587">
        <ele>881.653</ele>
        <time>2021-07-25T06:11:51Z</time>
      </trkpt>
      <trkpt lat="42.344601" lon="-3.644801">
        <ele>881.104</ele>
        <time>2021-07-25T06:12:05Z</time>
      </trkpt>
      <trkpt lat="42.344553" lon="-3.644258">
        <ele>881.614</ele>
        <time>2021-07-25T06:12:15Z</time>
      </trkpt>
      <trkpt lat="42.344502" lon="-3.643638">
        <ele>882.108</ele>
        <time>2021-07-25T06:12:26Z</time>
      </trkpt>
      <trkpt lat="42.344460" lon="-3.643086">
        <ele>882.642</ele>
        <time>2021-07-25T06:12:36Z</time>
      </trkpt>
      <trkpt lat="42.344409" lon="-3.642310">
        <ele>883.194</ele>
        <time>2021-07-25T06:12:50Z</time>
      </trkpt>
      <trkpt lat="42.344362" lon="-3.641599">
        <ele>883.111</ele>
        <time>2021-07-25T06:13:03Z</time>
      </trkpt>
      <trkpt lat="42.344333" lon="-3.641067">
        <ele>883.171</ele>
        <time>2021-07-25T06:13:13Z</time>
      </trkpt>
      <trkpt lat="42.344310" lon="-3.640485">
        <ele>882.635</ele>
        <time>2021-07-25T06:13:23Z</time>
      </trkpt>
      <trkpt lat="42.344286" lon="-3.639846">
        <ele>883.113</ele>
        <time>2021-07-25T06:13:34Z</time>
      </trkpt>
      <trkpt lat="42.344298" lon="-3.639322">
        <ele>883.570</ele>
        <time>2021-07-25T06:13:43Z</time>
      </trkpt>
      <trkpt lat="42.344398" lon="-3.638817">
        <ele>884.048</ele>
        <time>2021-07-25T06:13:52Z</time>
      </trkpt>
      <trkpt lat="42.344408" lon="-3.638760">
        <ele>884.088</ele>
        <time>2021-07-25T06:13:53Z</time>
      </trkpt>
      <trkpt lat="42.344412" lon="-3.638699">
        <ele>884.024</ele>
        <time>2021-07-25T06:13:54Z</time>
      </trkpt>
      <trkpt lat="42.344410" lon="-3.638635">
        <ele>884.026</ele>
        <time>2021-07-25T06:13:55Z</time>
      </trkpt>
      <trkpt lat="42.344401" lon="-3.638575">
        <ele>884.008</ele>
        <time>2021-07-25T06:13:56Z</time>
      </trkpt>
      <trkpt lat="42.344389" lon="-3.638516">
        <ele>884.555</ele>
        <time>2021-07-25T06:13:57Z</time>
      </trkpt>
      <trkpt lat="42.344296" lon="-3.638013">
        <ele>884.577</ele>
        <time>2021-07-25T06:14:06Z</time>
      </trkpt>
      <trkpt lat="42.344294" lon="-3.637954">
        <ele>884.554</ele>
        <time>2021-07-25T06:14:07Z</time>
      </trkpt>
      <trkpt lat="42.344307" lon="-3.637436">
        <ele>884.584</ele>
        <time>2021-07-25T06:14:16Z</time>
      </trkpt>
      <trkpt lat="42.344319" lon="-3.637379">
        <ele>884.558</ele>
        <time>2021-07-25T06:14:17Z</time>
      </trkpt>
      <trkpt lat="42.344382" lon="-3.637145">
        <ele>884.526</ele>
        <time>2021-07-25T06:14:21Z</time>
      </trkpt>
      <trkpt lat="42.344383" lon="-3.637076">
        <ele>884.553</ele>
        <time>2021-07-25T06:14:22Z</time>
      </trkpt>
      <trkpt lat="42.344374" lon="-3.637004">
        <ele>884.511</ele>
        <time>2021-07-25T06:14:23Z</time>
      </trkpt>
      <trkpt lat="42.344363" lon="-3.636956">
        <ele>884.574</ele>
        <time>2021-07-25T06:14:24Z</time>
      </trkpt>
      <trkpt lat="42.344345" lon="-3.636899">
        <ele>884.556</ele>
        <time>2021-07-25T06:14:25Z</time>
      </trkpt>
      <trkpt lat="42.344322" lon="-3.636843">
        <ele>884.521</ele>
        <time>2021-07-25T06:14:26Z</time>
      </trkpt>
      <trkpt lat="42.344301" lon="-3.636796">
        <ele>884.508</ele>
        <time>2021-07-25T06:14:27Z</time>
      </trkpt>
      <trkpt lat="42.344143" lon="-3.636335">
        <ele>884.574</ele>
        <time>2021-07-25T06:14:36Z</time>
      </trkpt>
      <trkpt lat="42.344058" lon="-3.635854">
        <ele>884.536</ele>
        <time>2021-07-25T06:14:45Z</time>
      </trkpt>
      <trkpt lat="42.343989" lon="-3.635393">
        <ele>884.093</ele>
        <time>2021-07-25T06:14:53Z</time>
      </trkpt>
      <trkpt lat="42.344000" lon="-3.634801">
        <ele>884.573</ele>
        <time>2021-07-25T06:15:03Z</time>
      </trkpt>
      <trkpt lat="42.344001" lon="-3.634256">
        <ele>884.517</ele>
        <time>2021-07-25T06:15:13Z</time>
      </trkpt>
      <trkpt lat="42.343989" lon="-3.633837">
        <ele>885.045</ele>
        <time>2021-07-25T06:15:21Z</time>
      </trkpt>
      <trkpt lat="42.343974" lon="-3.633285">
        <ele>885.582</ele>
        <time>2021-07-25T06:15:31Z</time>
      </trkpt>
      <trkpt lat="42.343967" lon="-3.633045">
        <ele>886.430</ele>
        <time>2021-07-25T06:15:35Z</time>
      </trkpt>
      <trkpt lat="42.343963" lon="-3.632824">
        <ele>887.989</ele>
        <time>2021-07-25T06:15:39Z</time>
      </trkpt>
      <trkpt lat="42.343929" lon="-3.632144">
        <ele>889.306</ele>
        <time>2021-07-25T06:15:51Z</time>
      </trkpt>
      <trkpt lat="42.343894" lon="-3.631527">
        <ele>889.326</ele>
        <time>2021-07-25T06:16:02Z</time>
      </trkpt>
      <trkpt lat="42.343857" lon="-3.630854">
        <ele>888.808</ele>
        <time>2021-07-25T06:16:14Z</time>
      </trkpt>
      <trkpt lat="42.343847" lon="-3.630748">
        <ele>888.495</ele>
        <time>2021-07-25T06:16:16Z</time>
      </trkpt>
      <trkpt lat="42.343844" lon="-3.630694">
        <ele>888.467</ele>
        <time>2021-07-25T06:16:17Z</time>
      </trkpt>
      <trkpt lat="42.343842" lon="-3.630640">
        <ele>888.474</ele>
        <time>2021-07-25T06:16:18Z</time>
      </trkpt>
      <trkpt lat="42.343840" lon="-3.630584">
        <ele>888.484</ele>
        <time>2021-07-25T06:16:19Z</time>
      </trkpt>
      <trkpt lat="42.343838" lon="-3.630529">
        <ele>888.468</ele>
        <time>2021-07-25T06:16:20Z</time>
      </trkpt>
      <trkpt lat="42.343836" lon="-3.630473">
        <ele>888.456</ele>
        <time>2021-07-25T06:16:21Z</time>
      </trkpt>
      <trkpt lat="42.343805" lon="-3.629811">
        <ele>889.313</ele>
        <time>2021-07-25T06:16:33Z</time>
      </trkpt>
      <trkpt lat="42.343785" lon="-3.629395">
        <ele>888.881</ele>
        <time>2021-07-25T06:16:41Z</time>
      </trkpt>
      <trkpt lat="42.343777" lon="-3.629286">
        <ele>888.829</ele>
        <time>2021-07-25T06:16:43Z</time>
      </trkpt>
      <trkpt lat="42.343775" lon="-3.629230">
        <ele>888.800</ele>
        <time>2021-07-25T06:16:44Z</time>
      </trkpt>
      <trkpt lat="42.343748" lon="-3.628749">
        <ele>889.320</ele>
        <time>2021-07-25T06:16:53Z</time>
      </trkpt>
      <trkpt lat="42.343727" lon="-3.628169">
        <ele>889.308</ele>
        <time>2021-07-25T06:17:04Z</time>
      </trkpt>
      <trkpt lat="42.343740" lon="-3.627670">
        <ele>889.849</ele>
        <time>2021-07-25T06:17:13Z</time>
      </trkpt>
      <trkpt lat="42.343772" lon="-3.627237">
        <ele>889.851</ele>
        <time>2021-07-25T06:17:21Z</time>
      </trkpt>
      <trkpt lat="42.343811" lon="-3.626747">
        <ele>890.318</ele>
        <time>2021-07-25T06:17:30Z</time>
      </trkpt>
      <trkpt lat="42.343851" lon="-3.626083">
        <ele>889.898</ele>
        <time>2021-07-25T06:17:42Z</time>
      </trkpt>
      <trkpt lat="42.343845" lon="-3.625795">
        <ele>889.322</ele>
        <time>2021-07-25T06:17:47Z</time>
      </trkpt>
      <trkpt lat="42.343772" lon="-3.625350">
        <ele>889.880</ele>
        <time>2021-07-25T06:17:55Z</time>
      </trkpt>
      <trkpt lat="42.343749" lon="-3.625239">
        <ele>889.877</ele>
        <time>2021-07-25T06:17:57Z</time>
      </trkpt>
      <trkpt lat="42.343736" lon="-3.625179">
        <ele>889.855</ele>
        <time>2021-07-25T06:17:58Z</time>
      </trkpt>
      <trkpt lat="42.343617" lon="-3.624549">
        <ele>890.322</ele>
        <time>2021-07-25T06:18:10Z</time>
      </trkpt>
      <trkpt lat="42.343517" lon="-3.623998">
        <ele>890.862</ele>
        <time>2021-07-25T06:18:20Z</time>
      </trkpt>
      <trkpt lat="42.343407" lon="-3.623416">
        <ele>890.808</ele>
        <time>2021-07-25T06:18:31Z</time>
      </trkpt>
      <trkpt lat="42.343310" lon="-3.622911">
        <ele>890.308</ele>
        <time>2021-07-25T06:18:40Z</time>
      </trkpt>
      <trkpt lat="42.343197" lon="-3.622314">
        <ele>890.329</ele>
        <time>2021-07-25T06:18:51Z</time>
      </trkpt>
      <trkpt lat="42.343075" lon="-3.621657">
        <ele>890.331</ele>
        <time>2021-07-25T06:19:03Z</time>
      </trkpt>
      <trkpt lat="42.342981" lon="-3.621125">
        <ele>890.848</ele>
        <time>2021-07-25T06:19:13Z</time>
      </trkpt>
      <trkpt lat="42.342891" lon="-3.620640">
        <ele>890.868</ele>
        <time>2021-07-25T06:19:22Z</time>
      </trkpt>
      <trkpt lat="42.342800" lon="-3.620049">
        <ele>893.282</ele>
        <time>2021-07-25T06:19:33Z</time>
      </trkpt>
      <trkpt lat="42.342732" lon="-3.619627">
        <ele>895.120</ele>
        <time>2021-07-25T06:19:41Z</time>
      </trkpt>
      <trkpt lat="42.342640" lon="-3.619134">
        <ele>895.177</ele>
        <time>2021-07-25T06:19:50Z</time>
      </trkpt>
      <trkpt lat="42.342549" lon="-3.618644">
        <ele>894.635</ele>
        <time>2021-07-25T06:19:59Z</time>
      </trkpt>
      <trkpt lat="42.342467" lon="-3.618156">
        <ele>897.049</ele>
        <time>2021-07-25T06:20:08Z</time>
      </trkpt>
      <trkpt lat="42.342384" lon="-3.617621">
        <ele>899.402</ele>
        <time>2021-07-25T06:20:18Z</time>
      </trkpt>
      <trkpt lat="42.342299" lon="-3.617097">
        <ele>902.322</ele>
        <time>2021-07-25T06:20:28Z</time>
      </trkpt>
      <trkpt lat="42.342220" lon="-3.616604">
        <ele>903.308</ele>
        <time>2021-07-25T06:20:37Z</time>
      </trkpt>
      <trkpt lat="42.342111" lon="-3.615971">
        <ele>903.311</ele>
        <time>2021-07-25T06:20:49Z</time>
      </trkpt>
      <trkpt lat="42.342026" lon="-3.615513">
        <ele>902.323</ele>
        <time>2021-07-25T06:20:58Z</time>
      </trkpt>
      <trkpt lat="42.341942" lon="-3.615033">
        <ele>901.880</ele>
        <time>2021-07-25T06:21:07Z</time>
      </trkpt>
      <trkpt lat="42.341834" lon="-3.614439">
        <ele>901.380</ele>
        <time>2021-07-25T06:21:18Z</time>
      </trkpt>
      <trkpt lat="42.341704" lon="-3.613739">
        <ele>900.444</ele>
        <time>2021-07-25T06:21:31Z</time>
      </trkpt>
      <trkpt lat="42.341585" lon="-3.613100">
        <ele>899.942</ele>
        <time>2021-07-25T06:21:43Z</time>
      </trkpt>
      <trkpt lat="42.341491" lon="-3.612576">
        <ele>899.479</ele>
        <time>2021-07-25T06:21:53Z</time>
      </trkpt>
      <trkpt lat="42.341406" lon="-3.612111">
        <ele>898.957</ele>
        <time>2021-07-25T06:22:02Z</time>
      </trkpt>
      <trkpt lat="42.341313" lon="-3.611591">
        <ele>898.451</ele>
        <time>2021-07-25T06:22:12Z</time>
      </trkpt>
      <trkpt lat="42.341217" lon="-3.611094">
        <ele>898.401</ele>
        <time>2021-07-25T06:22:22Z</time>
      </trkpt>
      <trkpt lat="42.341122" lon="-3.610569">
        <ele>898.011</ele>
        <time>2021-07-25T06:22:32Z</time>
      </trkpt>
      <trkpt lat="42.340975" lon="-3.609815">
        <ele>896.008</ele>
        <time>2021-07-25T06:22:46Z</time>
      </trkpt>
      <trkpt lat="42.340871" lon="-3.609270">
        <ele>896.062</ele>
        <time>2021-07-25T06:22:56Z</time>
      </trkpt>
      <trkpt lat="42.340776" lon="-3.608820">
        <ele>897.554</ele>
        <time>2021-07-25T06:23:05Z</time>
      </trkpt>
      <trkpt lat="42.340765" lon="-3.608766">
        <ele>897.571</ele>
        <time>2021-07-25T06:23:06Z</time>
      </trkpt>
      <trkpt lat="42.340657" lon="-3.608109">
        <ele>898.091</ele>
        <time>2021-07-25T06:23:18Z</time>
      </trkpt>
      <trkpt lat="42.340601" lon="-3.607832">
        <ele>897.575</ele>
        <time>2021-07-25T06:23:25Z</time>
      </trkpt>
      <trkpt lat="42.340580" lon="-3.607785">
        <ele>896.543</ele>
        <time>2021-07-25T06:23:31Z</time>
      </trkpt>
      <trkpt lat="42.340580" lon="-3.607790">
        <ele>895.110</ele>
        <time>2021-07-25T06:23:42Z</time>
      </trkpt>
      <trkpt lat="42.340575" lon="-3.607783">
        <ele>893.648</ele>
        <time>2021-07-25T06:23:58Z</time>
      </trkpt>
      <trkpt lat="42.340571" lon="-3.607794">
        <ele>893.253</ele>
        <time>2021-07-25T06:24:09Z</time>
      </trkpt>
      <trkpt lat="42.340556" lon="-3.607796">
        <ele>892.704</ele>
        <time>2021-07-25T06:24:26Z</time>
      </trkpt>
      <trkpt lat="42.340564" lon="-3.607800">
        <ele>892.714</ele>
        <time>2021-07-25T06:24:41Z</time>
      </trkpt>
      <trkpt lat="42.340570" lon="-3.607784">
        <ele>892.708</ele>
        <time>2021-07-25T06:24:43Z</time>
      </trkpt>
      <trkpt lat="42.340574" lon="-3.607770">
        <ele>893.222</ele>
        <time>2021-07-25T06:24:44Z</time>
      </trkpt>
      <trkpt lat="42.340573" lon="-3.607736">
        <ele>893.294</ele>
        <time>2021-07-25T06:24:46Z</time>
      </trkpt>
      <trkpt lat="42.340569" lon="-3.607712">
        <ele>893.231</ele>
        <time>2021-07-25T06:24:47Z</time>
      </trkpt>
      <trkpt lat="42.340565" lon="-3.607682">
        <ele>893.221</ele>
        <time>2021-07-25T06:24:48Z</time>
      </trkpt>
      <trkpt lat="42.340560" lon="-3.607650">
        <ele>893.295</ele>
        <time>2021-07-25T06:24:49Z</time>
      </trkpt>
      <trkpt lat="42.340554" lon="-3.607613">
        <ele>893.683</ele>
        <time>2021-07-25T06:24:50Z</time>
      </trkpt>
      <trkpt lat="42.340487" lon="-3.607273">
        <ele>893.660</ele>
        <time>2021-07-25T06:24:59Z</time>
      </trkpt>
      <trkpt lat="42.340421" lon="-3.606906">
        <ele>893.248</ele>
        <time>2021-07-25T06:25:08Z</time>
      </trkpt>
      <trkpt lat="42.340344" lon="-3.606466">
        <ele>892.728</ele>
        <time>2021-07-25T06:25:18Z</time>
      </trkpt>
      <trkpt lat="42.340250" lon="-3.605920">
        <ele>893.289</ele>
        <time>2021-07-25T06:25:30Z</time>
      </trkpt>
      <trkpt lat="42.340153" lon="-3.605380">
        <ele>892.717</ele>
        <time>2021-07-25T06:25:41Z</time>
      </trkpt>
      <trkpt lat="42.340067" lon="-3.604893">
        <ele>892.208</ele>
        <time>2021-07-25T06:25:51Z</time>
      </trkpt>
      <trkpt lat="42.339988" lon="-3.604452">
        <ele>893.299</ele>
        <time>2021-07-25T06:26:00Z</time>
      </trkpt>
      <trkpt lat="42.339907" lon="-3.603980">
        <ele>893.661</ele>
        <time>2021-07-25T06:26:09Z</time>
      </trkpt>
      <trkpt lat="42.339813" lon="-3.603446">
        <ele>894.138</ele>
        <time>2021-07-25T06:26:19Z</time>
      </trkpt>
      <trkpt lat="42.339806" lon="-3.603394">
        <ele>894.678</ele>
        <time>2021-07-25T06:26:20Z</time>
      </trkpt>
      <trkpt lat="42.339695" lon="-3.602728">
        <ele>896.562</ele>
        <time>2021-07-25T06:26:33Z</time>
      </trkpt>
      <trkpt lat="42.339675" lon="-3.602606">
        <ele>897.090</ele>
        <time>2021-07-25T06:26:38Z</time>
      </trkpt>
      <trkpt lat="42.339671" lon="-3.602629">
        <ele>897.557</ele>
        <time>2021-07-25T06:26:50Z</time>
      </trkpt>
      <trkpt lat="42.339663" lon="-3.602635">
        <ele>898.055</ele>
        <time>2021-07-25T06:27:06Z</time>
      </trkpt>
      <trkpt lat="42.339669" lon="-3.602652">
        <ele>897.074</ele>
        <time>2021-07-25T06:27:20Z</time>
      </trkpt>
      <trkpt lat="42.339665" lon="-3.602658">
        <ele>896.056</ele>
        <time>2021-07-25T06:27:41Z</time>
      </trkpt>
      <trkpt lat="42.339648" lon="-3.602561">
        <ele>896.521</ele>
        <time>2021-07-25T06:27:46Z</time>
      </trkpt>
      <trkpt lat="42.339586" lon="-3.602215">
        <ele>897.008</ele>
        <time>2021-07-25T06:27:54Z</time>
      </trkpt>
      <trkpt lat="42.339488" lon="-3.601591">
        <ele>897.574</ele>
        <time>2021-07-25T06:28:06Z</time>
      </trkpt>
      <trkpt lat="42.339385" lon="-3.600983">
        <ele>898.076</ele>
        <time>2021-07-25T06:28:17Z</time>
      </trkpt>
      <trkpt lat="42.339252" lon="-3.600252">
        <ele>897.513</ele>
        <time>2021-07-25T06:28:30Z</time>
      </trkpt>
      <trkpt lat="42.339132" lon="-3.599571">
        <ele>898.033</ele>
        <time>2021-07-25T06:28:42Z</time>
      </trkpt>
      <trkpt lat="42.339033" lon="-3.599002">
        <ele>898.047</ele>
        <time>2021-07-25T06:28:52Z</time>
      </trkpt>
      <trkpt lat="42.339011" lon="-3.598886">
        <ele>898.075</ele>
        <time>2021-07-25T06:28:54Z</time>
      </trkpt>
      <trkpt lat="42.338891" lon="-3.598263">
        <ele>898.462</ele>
        <time>2021-07-25T06:29:05Z</time>
      </trkpt>
      <trkpt lat="42.338778" lon="-3.597708">
        <ele>898.920</ele>
        <time>2021-07-25T06:29:15Z</time>
      </trkpt>
      <trkpt lat="42.338661" lon="-3.597063">
        <ele>898.999</ele>
        <time>2021-07-25T06:29:27Z</time>
      </trkpt>
      <trkpt lat="42.338529" lon="-3.596346">
        <ele>899.407</ele>
        <time>2021-07-25T06:29:40Z</time>
      </trkpt>
      <trkpt lat="42.338521" lon="-3.596294">
        <ele>899.427</ele>
        <time>2021-07-25T06:29:41Z</time>
      </trkpt>
      <trkpt lat="42.338440" lon="-3.595682">
        <ele>899.408</ele>
        <time>2021-07-25T06:29:52Z</time>
      </trkpt>
      <trkpt lat="42.338297" lon="-3.595045">
        <ele>899.986</ele>
        <time>2021-07-25T06:30:03Z</time>
      </trkpt>
      <trkpt lat="42.338204" lon="-3.594512">
        <ele>899.918</ele>
        <time>2021-07-25T06:30:12Z</time>
      </trkpt>
      <trkpt lat="42.338104" lon="-3.593906">
        <ele>899.935</ele>
        <time>2021-07-25T06:30:23Z</time>
      </trkpt>
      <trkpt lat="42.338030" lon="-3.593460">
        <ele>900.425</ele>
        <time>2021-07-25T06:30:32Z</time>
      </trkpt>
      <trkpt lat="42.337942" lon="-3.592908">
        <ele>900.889</ele>
        <time>2021-07-25T06:30:43Z</time>
      </trkpt>
      <trkpt lat="42.337812" lon="-3.592180">
        <ele>900.897</ele>
        <time>2021-07-25T06:30:57Z</time>
      </trkpt>
      <trkpt lat="42.337720" lon="-3.591660">
        <ele>901.314</ele>
        <time>2021-07-25T06:31:07Z</time>
      </trkpt>
      <trkpt lat="42.337605" lon="-3.591028">
        <ele>900.842</ele>
        <time>2021-07-25T06:31:19Z</time>
      </trkpt>
      <trkpt lat="42.337502" lon="-3.590444">
        <ele>901.318</ele>
        <time>2021-07-25T06:31:30Z</time>
      </trkpt>
      <trkpt lat="42.337400" lon="-3.589864">
        <ele>901.898</ele>
        <time>2021-07-25T06:31:41Z</time>
      </trkpt>
      <trkpt lat="42.337285" lon="-3.589228">
        <ele>901.817</ele>
        <time>2021-07-25T06:31:53Z</time>
      </trkpt>
      <trkpt lat="42.337194" lon="-3.588711">
        <ele>901.808</ele>
        <time>2021-07-25T06:32:03Z</time>
      </trkpt>
      <trkpt lat="42.337081" lon="-3.588100">
        <ele>902.318</ele>
        <time>2021-07-25T06:32:15Z</time>
      </trkpt>
      <trkpt lat="42.336940" lon="-3.587289">
        <ele>902.840</ele>
        <time>2021-07-25T06:32:31Z</time>
      </trkpt>
      <trkpt lat="42.336832" lon="-3.586683">
        <ele>903.317</ele>
        <time>2021-07-25T06:32:43Z</time>
      </trkpt>
      <trkpt lat="42.336694" lon="-3.585917">
        <ele>904.297</ele>
        <time>2021-07-25T06:32:58Z</time>
      </trkpt>
      <trkpt lat="42.336605" lon="-3.585401">
        <ele>904.221</ele>
        <time>2021-07-25T06:33:08Z</time>
      </trkpt>
      <trkpt lat="42.336492" lon="-3.584796">
        <ele>904.729</ele>
        <time>2021-07-25T06:33:20Z</time>
      </trkpt>
      <trkpt lat="42.336380" lon="-3.584184">
        <ele>905.216</ele>
        <time>2021-07-25T06:33:32Z</time>
      </trkpt>
      <trkpt lat="42.336280" lon="-3.583625">
        <ele>905.264</ele>
        <time>2021-07-25T06:33:43Z</time>
      </trkpt>
      <trkpt lat="42.336173" lon="-3.583049">
        <ele>905.267</ele>
        <time>2021-07-25T06:33:55Z</time>
      </trkpt>
      <trkpt lat="42.336087" lon="-3.582568">
        <ele>905.781</ele>
        <time>2021-07-25T06:34:05Z</time>
      </trkpt>
      <trkpt lat="42.335975" lon="-3.581924">
        <ele>906.119</ele>
        <time>2021-07-25T06:34:18Z</time>
      </trkpt>
      <trkpt lat="42.335883" lon="-3.581410">
        <ele>906.608</ele>
        <time>2021-07-25T06:34:29Z</time>
      </trkpt>
      <trkpt lat="42.335808" lon="-3.580981">
        <ele>907.113</ele>
        <time>2021-07-25T06:34:38Z</time>
      </trkpt>
      <trkpt lat="42.335702" lon="-3.580406">
        <ele>907.125</ele>
        <time>2021-07-25T06:34:50Z</time>
      </trkpt>
      <trkpt lat="42.335600" lon="-3.579814">
        <ele>907.622</ele>
        <time>2021-07-25T06:35:02Z</time>
      </trkpt>
      <trkpt lat="42.335500" lon="-3.579269">
        <ele>908.112</ele>
        <time>2021-07-25T06:35:13Z</time>
      </trkpt>
      <trkpt lat="42.335401" lon="-3.578714">
        <ele>908.536</ele>
        <time>2021-07-25T06:35:24Z</time>
      </trkpt>
      <trkpt lat="42.335305" lon="-3.578167">
        <ele>908.554</ele>
        <time>2021-07-25T06:35:35Z</time>
      </trkpt>
      <trkpt lat="42.335205" lon="-3.577584">
        <ele>909.561</ele>
        <time>2021-07-25T06:35:47Z</time>
      </trkpt>
      <trkpt lat="42.335097" lon="-3.576988">
        <ele>910.059</ele>
        <time>2021-07-25T06:35:59Z</time>
      </trkpt>
      <trkpt lat="42.334987" lon="-3.576385">
        <ele>910.047</ele>
        <time>2021-07-25T06:36:11Z</time>
      </trkpt>
      <trkpt lat="42.334889" lon="-3.575822">
        <ele>910.529</ele>
        <time>2021-07-25T06:36:22Z</time>
      </trkpt>
      <trkpt lat="42.334768" lon="-3.575159">
        <ele>910.521</ele>
        <time>2021-07-25T06:36:35Z</time>
      </trkpt>
      <trkpt lat="42.334689" lon="-3.574721">
        <ele>910.908</ele>
        <time>2021-07-25T06:36:44Z</time>
      </trkpt>
      <trkpt lat="42.334625" lon="-3.574368">
        <ele>911.411</ele>
        <time>2021-07-25T06:36:51Z</time>
      </trkpt>
      <trkpt lat="42.334507" lon="-3.573681">
        <ele>911.983</ele>
        <time>2021-07-25T06:37:04Z</time>
      </trkpt>
      <trkpt lat="42.334424" lon="-3.573204">
        <ele>912.490</ele>
        <time>2021-07-25T06:37:14Z</time>
      </trkpt>
      <trkpt lat="42.334317" lon="-3.572596">
        <ele>912.460</ele>
        <time>2021-07-25T06:37:26Z</time>
      </trkpt>
      <trkpt lat="42.334207" lon="-3.571981">
        <ele>912.924</ele>
        <time>2021-07-25T06:37:38Z</time>
      </trkpt>
      <trkpt lat="42.334098" lon="-3.571354">
        <ele>913.362</ele>
        <time>2021-07-25T06:37:50Z</time>
      </trkpt>
      <trkpt lat="42.333984" lon="-3.570719">
        <ele>913.869</ele>
        <time>2021-07-25T06:38:02Z</time>
      </trkpt>
      <trkpt lat="42.333873" lon="-3.570093">
        <ele>914.327</ele>
        <time>2021-07-25T06:38:14Z</time>
      </trkpt>
      <trkpt lat="42.333808" lon="-3.569697">
        <ele>914.331</ele>
        <time>2021-07-25T06:38:22Z</time>
      </trkpt>
      <trkpt lat="42.333735" lon="-3.569309">
        <ele>914.861</ele>
        <time>2021-07-25T06:38:30Z</time>
      </trkpt>
      <trkpt lat="42.333642" lon="-3.568731">
        <ele>915.307</ele>
        <time>2021-07-25T06:38:42Z</time>
      </trkpt>
      <trkpt lat="42.333582" lon="-3.568236">
        <ele>915.708</ele>
        <time>2021-07-25T06:38:52Z</time>
      </trkpt>
      <trkpt lat="42.333535" lon="-3.567677">
        <ele>915.780</ele>
        <time>2021-07-25T06:39:03Z</time>
      </trkpt>
      <trkpt lat="42.333493" lon="-3.567059">
        <ele>916.752</ele>
        <time>2021-07-25T06:39:15Z</time>
      </trkpt>
      <trkpt lat="42.333456" lon="-3.566424">
        <ele>916.259</ele>
        <time>2021-07-25T06:39:27Z</time>
      </trkpt>
      <trkpt lat="42.333409" lon="-3.565731">
        <ele>916.289</ele>
        <time>2021-07-25T06:39:40Z</time>
      </trkpt>
      <trkpt lat="42.333378" lon="-3.565218">
        <ele>915.793</ele>
        <time>2021-07-25T06:39:50Z</time>
      </trkpt>
      <trkpt lat="42.333333" lon="-3.564649">
        <ele>915.771</ele>
        <time>2021-07-25T06:40:01Z</time>
      </trkpt>
      <trkpt lat="42.333299" lon="-3.564056">
        <ele>915.768</ele>
        <time>2021-07-25T06:40:12Z</time>
      </trkpt>
      <trkpt lat="42.333266" lon="-3.563555">
        <ele>916.216</ele>
        <time>2021-07-25T06:40:21Z</time>
      </trkpt>
      <trkpt lat="42.333244" lon="-3.563074">
        <ele>916.781</ele>
        <time>2021-07-25T06:40:30Z</time>
      </trkpt>
      <trkpt lat="42.333226" lon="-3.562740">
        <ele>917.261</ele>
        <time>2021-07-25T06:40:36Z</time>
      </trkpt>
      <trkpt lat="42.333222" lon="-3.562683">
        <ele>917.217</ele>
        <time>2021-07-25T06:40:37Z</time>
      </trkpt>
      <trkpt lat="42.333187" lon="-3.562094">
        <ele>917.208</ele>
        <time>2021-07-25T06:40:48Z</time>
      </trkpt>
      <trkpt lat="42.333158" lon="-3.561602">
        <ele>917.725</ele>
        <time>2021-07-25T06:40:57Z</time>
      </trkpt>
      <trkpt lat="42.333126" lon="-3.561071">
        <ele>918.257</ele>
        <time>2021-07-25T06:41:07Z</time>
      </trkpt>
      <trkpt lat="42.333086" lon="-3.560486">
        <ele>918.224</ele>
        <time>2021-07-25T06:41:19Z</time>
      </trkpt>
      <trkpt lat="42.333054" lon="-3.560002">
        <ele>918.264</ele>
        <time>2021-07-25T06:41:29Z</time>
      </trkpt>
      <trkpt lat="42.333029" lon="-3.559526">
        <ele>918.658</ele>
        <time>2021-07-25T06:41:39Z</time>
      </trkpt>
      <trkpt lat="42.333000" lon="-3.558982">
        <ele>919.166</ele>
        <time>2021-07-25T06:41:50Z</time>
      </trkpt>
      <trkpt lat="42.332963" lon="-3.558320">
        <ele>919.163</ele>
        <time>2021-07-25T06:42:03Z</time>
      </trkpt>
      <trkpt lat="42.332933" lon="-3.557860">
        <ele>919.641</ele>
        <time>2021-07-25T06:42:12Z</time>
      </trkpt>
      <trkpt lat="42.332897" lon="-3.557303">
        <ele>919.677</ele>
        <time>2021-07-25T06:42:23Z</time>
      </trkpt>
      <trkpt lat="42.332867" lon="-3.556838">
        <ele>920.161</ele>
        <time>2021-07-25T06:42:32Z</time>
      </trkpt>
      <trkpt lat="42.332836" lon="-3.556324">
        <ele>920.127</ele>
        <time>2021-07-25T06:42:42Z</time>
      </trkpt>
      <trkpt lat="42.332809" lon="-3.555879">
        <ele>919.608</ele>
        <time>2021-07-25T06:42:51Z</time>
      </trkpt>
      <trkpt lat="42.332777" lon="-3.555386">
        <ele>920.184</ele>
        <time>2021-07-25T06:43:01Z</time>
      </trkpt>
      <trkpt lat="42.332742" lon="-3.554823">
        <ele>920.616</ele>
        <time>2021-07-25T06:43:12Z</time>
      </trkpt>
      <trkpt lat="42.332710" lon="-3.554271">
        <ele>921.033</ele>
        <time>2021-07-25T06:43:23Z</time>
      </trkpt>
      <trkpt lat="42.332682" lon="-3.553799">
        <ele>921.083</ele>
        <time>2021-07-25T06:43:33Z</time>
      </trkpt>
      <trkpt lat="42.332655" lon="-3.553341">
        <ele>921.517</ele>
        <time>2021-07-25T06:43:43Z</time>
      </trkpt>
      <trkpt lat="42.332619" lon="-3.552718">
        <ele>922.015</ele>
        <time>2021-07-25T06:43:56Z</time>
      </trkpt>
      <trkpt lat="42.332591" lon="-3.552255">
        <ele>922.572</ele>
        <time>2021-07-25T06:44:06Z</time>
      </trkpt>
      <trkpt lat="42.332557" lon="-3.551642">
        <ele>923.080</ele>
        <time>2021-07-25T06:44:19Z</time>
      </trkpt>
      <trkpt lat="42.332534" lon="-3.551256">
        <ele>923.474</ele>
        <time>2021-07-25T06:44:28Z</time>
      </trkpt>
      <trkpt lat="42.332503" lon="-3.550751">
        <ele>923.456</ele>
        <time>2021-07-25T06:44:39Z</time>
      </trkpt>
      <trkpt lat="42.332471" lon="-3.550258">
        <ele>923.921</ele>
        <time>2021-07-25T06:44:50Z</time>
      </trkpt>
      <trkpt lat="42.332439" lon="-3.549710">
        <ele>924.408</ele>
        <time>2021-07-25T06:45:02Z</time>
      </trkpt>
      <trkpt lat="42.332410" lon="-3.549227">
        <ele>924.994</ele>
        <time>2021-07-25T06:45:13Z</time>
      </trkpt>
      <trkpt lat="42.332385" lon="-3.548823">
        <ele>924.936</ele>
        <time>2021-07-25T06:45:22Z</time>
      </trkpt>
      <trkpt lat="42.332363" lon="-3.548448">
        <ele>925.483</ele>
        <time>2021-07-25T06:45:31Z</time>
      </trkpt>
      <trkpt lat="42.332332" lon="-3.547925">
        <ele>925.813</ele>
        <time>2021-07-25T06:45:42Z</time>
      </trkpt>
      <trkpt lat="42.332305" lon="-3.547436">
        <ele>926.877</ele>
        <time>2021-07-25T06:45:52Z</time>
      </trkpt>
      <trkpt lat="42.332270" lon="-3.546854">
        <ele>927.855</ele>
        <time>2021-07-25T06:46:04Z</time>
      </trkpt>
      <trkpt lat="42.332239" lon="-3.546365">
        <ele>926.842</ele>
        <time>2021-07-25T06:46:14Z</time>
      </trkpt>
      <trkpt lat="42.332205" lon="-3.545881">
        <ele>926.880</ele>
        <time>2021-07-25T06:46:24Z</time>
      </trkpt>
      <trkpt lat="42.332165" lon="-3.545248">
        <ele>926.889</ele>
        <time>2021-07-25T06:46:37Z</time>
      </trkpt>
      <trkpt lat="42.332138" lon="-3.544764">
        <ele>927.306</ele>
        <time>2021-07-25T06:46:47Z</time>
      </trkpt>
      <trkpt lat="42.332100" lon="-3.544232">
        <ele>927.326</ele>
        <time>2021-07-25T06:46:58Z</time>
      </trkpt>
      <trkpt lat="42.332067" lon="-3.543642">
        <ele>927.308</ele>
        <time>2021-07-25T06:47:10Z</time>
      </trkpt>
      <trkpt lat="42.332030" lon="-3.543040">
        <ele>928.255</ele>
        <time>2021-07-25T06:47:22Z</time>
      </trkpt>
      <trkpt lat="42.331998" lon="-3.542487">
        <ele>928.247</ele>
        <time>2021-07-25T06:47:33Z</time>
      </trkpt>
      <trkpt lat="42.331976" lon="-3.542103">
        <ele>929.784</ele>
        <time>2021-07-25T06:47:41Z</time>
      </trkpt>
      <trkpt lat="42.331945" lon="-3.541606">
        <ele>930.264</ele>
        <time>2021-07-25T06:47:51Z</time>
      </trkpt>
      <trkpt lat="42.331919" lon="-3.541147">
        <ele>930.688</ele>
        <time>2021-07-25T06:48:00Z</time>
      </trkpt>
      <trkpt lat="42.331885" lon="-3.540497">
        <ele>930.616</ele>
        <time>2021-07-25T06:48:13Z</time>
      </trkpt>
      <trkpt lat="42.331850" lon="-3.539942">
        <ele>930.613</ele>
        <time>2021-07-25T06:48:24Z</time>
      </trkpt>
      <trkpt lat="42.331830" lon="-3.539547">
        <ele>931.651</ele>
        <time>2021-07-25T06:48:32Z</time>
      </trkpt>
      <trkpt lat="42.331805" lon="-3.538953">
        <ele>932.119</ele>
        <time>2021-07-25T06:48:44Z</time>
      </trkpt>
      <trkpt lat="42.331772" lon="-3.538516">
        <ele>933.109</ele>
        <time>2021-07-25T06:48:53Z</time>
      </trkpt>
      <trkpt lat="42.331740" lon="-3.537878">
        <ele>933.519</ele>
        <time>2021-07-25T06:49:06Z</time>
      </trkpt>
      <trkpt lat="42.331708" lon="-3.537330">
        <ele>934.008</ele>
        <time>2021-07-25T06:49:17Z</time>
      </trkpt>
      <trkpt lat="42.331678" lon="-3.536792">
        <ele>934.558</ele>
        <time>2021-07-25T06:49:28Z</time>
      </trkpt>
      <trkpt lat="42.331652" lon="-3.536355">
        <ele>935.090</ele>
        <time>2021-07-25T06:49:38Z</time>
      </trkpt>
      <trkpt lat="42.331637" lon="-3.536055">
        <ele>935.577</ele>
        <time>2021-07-25T06:49:45Z</time>
      </trkpt>
      <trkpt lat="42.331632" lon="-3.535565">
        <ele>936.497</ele>
        <time>2021-07-25T06:49:55Z</time>
      </trkpt>
      <trkpt lat="42.331631" lon="-3.535117">
        <ele>937.431</ele>
        <time>2021-07-25T06:50:04Z</time>
      </trkpt>
      <trkpt lat="42.331629" lon="-3.534565">
        <ele>937.499</ele>
        <time>2021-07-25T06:50:15Z</time>
      </trkpt>
      <trkpt lat="42.331623" lon="-3.534169">
        <ele>936.966</ele>
        <time>2021-07-25T06:50:23Z</time>
      </trkpt>
      <trkpt lat="42.331618" lon="-3.533683">
        <ele>936.934</ele>
        <time>2021-07-25T06:50:33Z</time>
      </trkpt>
      <trkpt lat="42.331606" lon="-3.533195">
        <ele>937.415</ele>
        <time>2021-07-25T06:50:43Z</time>
      </trkpt>
      <trkpt lat="42.331606" lon="-3.532600">
        <ele>938.365</ele>
        <time>2021-07-25T06:50:55Z</time>
      </trkpt>
      <trkpt lat="42.331646" lon="-3.532028">
        <ele>938.811</ele>
        <time>2021-07-25T06:51:07Z</time>
      </trkpt>
      <trkpt lat="42.331709" lon="-3.531543">
        <ele>939.308</ele>
        <time>2021-07-25T06:51:17Z</time>
      </trkpt>
      <trkpt lat="42.331763" lon="-3.531121">
        <ele>939.358</ele>
        <time>2021-07-25T06:51:26Z</time>
      </trkpt>
      <trkpt lat="42.331821" lon="-3.530662">
        <ele>938.840</ele>
        <time>2021-07-25T06:51:36Z</time>
      </trkpt>
      <trkpt lat="42.331874" lon="-3.530196">
        <ele>938.327</ele>
        <time>2021-07-25T06:51:46Z</time>
      </trkpt>
      <trkpt lat="42.331934" lon="-3.529733">
        <ele>938.817</ele>
        <time>2021-07-25T06:51:56Z</time>
      </trkpt>
      <trkpt lat="42.331992" lon="-3.529284">
        <ele>938.881</ele>
        <time>2021-07-25T06:52:06Z</time>
      </trkpt>
      <trkpt lat="42.332060" lon="-3.528812">
        <ele>939.899</ele>
        <time>2021-07-25T06:52:17Z</time>
      </trkpt>
      <trkpt lat="42.332098" lon="-3.528481">
        <ele>940.766</ele>
        <time>2021-07-25T06:52:26Z</time>
      </trkpt>
      <trkpt lat="42.332137" lon="-3.528156">
        <ele>941.714</ele>
        <time>2021-07-25T06:52:35Z</time>
      </trkpt>
      <trkpt lat="42.332180" lon="-3.527837">
        <ele>943.173</ele>
        <time>2021-07-25T06:52:44Z</time>
      </trkpt>
      <trkpt lat="42.332229" lon="-3.527459">
        <ele>945.185</ele>
        <time>2021-07-25T06:52:55Z</time>
      </trkpt>
      <trkpt lat="42.332282" lon="-3.527133">
        <ele>946.013</ele>
        <time>2021-07-25T06:53:05Z</time>
      </trkpt>
      <trkpt lat="42.332328" lon="-3.526875">
        <ele>947.008</ele>
        <time>2021-07-25T06:53:13Z</time>
      </trkpt>
      <trkpt lat="42.332392" lon="-3.526496">
        <ele>947.564</ele>
        <time>2021-07-25T06:53:25Z</time>
      </trkpt>
      <trkpt lat="42.332493" lon="-3.526101">
        <ele>948.926</ele>
        <time>2021-07-25T06:53:38Z</time>
      </trkpt>
      <trkpt lat="42.332575" lon="-3.525823">
        <ele>949.953</ele>
        <time>2021-07-25T06:53:47Z</time>
      </trkpt>
      <trkpt lat="42.332670" lon="-3.525498">
        <ele>950.433</ele>
        <time>2021-07-25T06:53:57Z</time>
      </trkpt>
      <trkpt lat="42.332788" lon="-3.525099">
        <ele>949.957</ele>
        <time>2021-07-25T06:54:09Z</time>
      </trkpt>
      <trkpt lat="42.332863" lon="-3.524832">
        <ele>949.985</ele>
        <time>2021-07-25T06:54:17Z</time>
      </trkpt>
      <trkpt lat="42.332975" lon="-3.524439">
        <ele>949.442</ele>
        <time>2021-07-25T06:54:28Z</time>
      </trkpt>
      <trkpt lat="42.333085" lon="-3.524059">
        <ele>949.420</ele>
        <time>2021-07-25T06:54:39Z</time>
      </trkpt>
      <trkpt lat="42.333171" lon="-3.523746">
        <ele>949.441</ele>
        <time>2021-07-25T06:54:48Z</time>
      </trkpt>
      <trkpt lat="42.333259" lon="-3.523432">
        <ele>949.981</ele>
        <time>2021-07-25T06:54:57Z</time>
      </trkpt>
      <trkpt lat="42.333359" lon="-3.523079">
        <ele>950.409</ele>
        <time>2021-07-25T06:55:07Z</time>
      </trkpt>
      <trkpt lat="42.333458" lon="-3.522727">
        <ele>951.308</ele>
        <time>2021-07-25T06:55:17Z</time>
      </trkpt>
      <trkpt lat="42.333549" lon="-3.522384">
        <ele>951.811</ele>
        <time>2021-07-25T06:55:27Z</time>
      </trkpt>
      <trkpt lat="42.333666" lon="-3.521965">
        <ele>952.323</ele>
        <time>2021-07-25T06:55:39Z</time>
      </trkpt>
      <trkpt lat="42.333765" lon="-3.521622">
        <ele>952.310</ele>
        <time>2021-07-25T06:55:48Z</time>
      </trkpt>
      <trkpt lat="42.333870" lon="-3.521262">
        <ele>952.830</ele>
        <time>2021-07-25T06:55:57Z</time>
      </trkpt>
      <trkpt lat="42.333977" lon="-3.520883">
        <ele>953.774</ele>
        <time>2021-07-25T06:56:07Z</time>
      </trkpt>
      <trkpt lat="42.334085" lon="-3.520507">
        <ele>954.242</ele>
        <time>2021-07-25T06:56:17Z</time>
      </trkpt>
      <trkpt lat="42.334213" lon="-3.520079">
        <ele>954.749</ele>
        <time>2021-07-25T06:56:28Z</time>
      </trkpt>
      <trkpt lat="42.334340" lon="-3.519631">
        <ele>954.797</ele>
        <time>2021-07-25T06:56:39Z</time>
      </trkpt>
      <trkpt lat="42.334468" lon="-3.519197">
        <ele>954.715</ele>
        <time>2021-07-25T06:56:50Z</time>
      </trkpt>
      <trkpt lat="42.334589" lon="-3.518752">
        <ele>955.265</ele>
        <time>2021-07-25T06:57:01Z</time>
      </trkpt>
      <trkpt lat="42.334735" lon="-3.518251">
        <ele>955.611</ele>
        <time>2021-07-25T06:57:14Z</time>
      </trkpt>
      <trkpt lat="42.334863" lon="-3.517791">
        <ele>956.108</ele>
        <time>2021-07-25T06:57:26Z</time>
      </trkpt>
      <trkpt lat="42.334964" lon="-3.517417">
        <ele>956.688</ele>
        <time>2021-07-25T06:57:36Z</time>
      </trkpt>
      <trkpt lat="42.335017" lon="-3.517214">
        <ele>956.660</ele>
        <time>2021-07-25T06:57:44Z</time>
      </trkpt>
      <trkpt lat="42.335018" lon="-3.517221">
        <ele>957.147</ele>
        <time>2021-07-25T06:57:56Z</time>
      </trkpt>
      <trkpt lat="42.335019" lon="-3.517225">
        <ele>957.117</ele>
        <time>2021-07-25T06:58:12Z</time>
      </trkpt>
      <trkpt lat="42.335046" lon="-3.517143">
        <ele>957.111</ele>
        <time>2021-07-25T06:58:21Z</time>
      </trkpt>
      <trkpt lat="42.335110" lon="-3.516927">
        <ele>957.629</ele>
        <time>2021-07-25T06:58:28Z</time>
      </trkpt>
      <trkpt lat="42.335211" lon="-3.516570">
        <ele>957.616</ele>
        <time>2021-07-25T06:58:38Z</time>
      </trkpt>
      <trkpt lat="42.335313" lon="-3.516199">
        <ele>958.034</ele>
        <time>2021-07-25T06:58:48Z</time>
      </trkpt>
      <trkpt lat="42.335428" lon="-3.515787">
        <ele>958.538</ele>
        <time>2021-07-25T06:58:59Z</time>
      </trkpt>
      <trkpt lat="42.335543" lon="-3.515371">
        <ele>959.070</ele>
        <time>2021-07-25T06:59:10Z</time>
      </trkpt>
      <trkpt lat="42.335629" lon="-3.515063">
        <ele>959.017</ele>
        <time>2021-07-25T06:59:18Z</time>
      </trkpt>
      <trkpt lat="42.335751" lon="-3.514631">
        <ele>959.008</ele>
        <time>2021-07-25T06:59:29Z</time>
      </trkpt>
      <trkpt lat="42.335880" lon="-3.514169">
        <ele>959.520</ele>
        <time>2021-07-25T06:59:41Z</time>
      </trkpt>
      <trkpt lat="42.335985" lon="-3.513786">
        <ele>959.582</ele>
        <time>2021-07-25T06:59:51Z</time>
      </trkpt>
      <trkpt lat="42.336100" lon="-3.513376">
        <ele>960.419</ele>
        <time>2021-07-25T07:00:02Z</time>
      </trkpt>
      <trkpt lat="42.336205" lon="-3.512996">
        <ele>960.999</ele>
        <time>2021-07-25T07:00:12Z</time>
      </trkpt>
      <trkpt lat="42.336305" lon="-3.512665">
        <ele>961.463</ele>
        <time>2021-07-25T07:00:21Z</time>
      </trkpt>
      <trkpt lat="42.336407" lon="-3.512291">
        <ele>961.921</ele>
        <time>2021-07-25T07:00:31Z</time>
      </trkpt>
      <trkpt lat="42.336518" lon="-3.511921">
        <ele>961.968</ele>
        <time>2021-07-25T07:00:41Z</time>
      </trkpt>
      <trkpt lat="42.336631" lon="-3.511533">
        <ele>962.476</ele>
        <time>2021-07-25T07:00:51Z</time>
      </trkpt>
      <trkpt lat="42.336738" lon="-3.511135">
        <ele>962.976</ele>
        <time>2021-07-25T07:01:01Z</time>
      </trkpt>
      <trkpt lat="42.336880" lon="-3.510727">
        <ele>964.390</ele>
        <time>2021-07-25T07:01:12Z</time>
      </trkpt>
      <trkpt lat="42.337073" lon="-3.510337">
        <ele>964.819</ele>
        <time>2021-07-25T07:01:23Z</time>
      </trkpt>
      <trkpt lat="42.337315" lon="-3.509959">
        <ele>964.808</ele>
        <time>2021-07-25T07:01:34Z</time>
      </trkpt>
      <trkpt lat="42.337527" lon="-3.509699">
        <ele>964.824</ele>
        <time>2021-07-25T07:01:42Z</time>
      </trkpt>
      <trkpt lat="42.337833" lon="-3.509341">
        <ele>964.316</ele>
        <time>2021-07-25T07:01:53Z</time>
      </trkpt>
      <trkpt lat="42.338117" lon="-3.509006">
        <ele>964.863</ele>
        <time>2021-07-25T07:02:04Z</time>
      </trkpt>
      <trkpt lat="42.338411" lon="-3.508685">
        <ele>965.343</ele>
        <time>2021-07-25T07:02:15Z</time>
      </trkpt>
      <trkpt lat="42.338692" lon="-3.508366">
        <ele>964.897</ele>
        <time>2021-07-25T07:02:26Z</time>
      </trkpt>
      <trkpt lat="42.338926" lon="-3.508088">
        <ele>965.785</ele>
        <time>2021-07-25T07:02:35Z</time>
      </trkpt>
      <trkpt lat="42.339194" lon="-3.507764">
        <ele>967.252</ele>
        <time>2021-07-25T07:02:46Z</time>
      </trkpt>
      <trkpt lat="42.339429" lon="-3.507433">
        <ele>967.720</ele>
        <time>2021-07-25T07:02:56Z</time>
      </trkpt>
      <trkpt lat="42.339672" lon="-3.507001">
        <ele>968.626</ele>
        <time>2021-07-25T07:03:07Z</time>
      </trkpt>
      <trkpt lat="42.339883" lon="-3.506484">
        <ele>969.647</ele>
        <time>2021-07-25T07:03:20Z</time>
      </trkpt>
      <trkpt lat="42.340024" lon="-3.506027">
        <ele>970.111</ele>
        <time>2021-07-25T07:03:31Z</time>
      </trkpt>
      <trkpt lat="42.340126" lon="-3.505653">
        <ele>970.508</ele>
        <time>2021-07-25T07:03:40Z</time>
      </trkpt>
      <trkpt lat="42.340224" lon="-3.505283">
        <ele>971.539</ele>
        <time>2021-07-25T07:03:49Z</time>
      </trkpt>
      <trkpt lat="42.340338" lon="-3.504862">
        <ele>972.551</ele>
        <time>2021-07-25T07:03:59Z</time>
      </trkpt>
      <trkpt lat="42.340468" lon="-3.504375">
        <ele>973.428</ele>
        <time>2021-07-25T07:04:10Z</time>
      </trkpt>
      <trkpt lat="42.340592" lon="-3.503897">
        <ele>974.448</ele>
        <time>2021-07-25T07:04:21Z</time>
      </trkpt>
      <trkpt lat="42.340739" lon="-3.503370">
        <ele>975.352</ele>
        <time>2021-07-25T07:04:34Z</time>
      </trkpt>
      <trkpt lat="42.340855" lon="-3.502929">
        <ele>976.390</ele>
        <time>2021-07-25T07:04:45Z</time>
      </trkpt>
      <trkpt lat="42.340936" lon="-3.502616">
        <ele>975.837</ele>
        <time>2021-07-25T07:04:54Z</time>
      </trkpt>
      <trkpt lat="42.341022" lon="-3.502302">
        <ele>976.895</ele>
        <time>2021-07-25T07:05:03Z</time>
      </trkpt>
      <trkpt lat="42.341151" lon="-3.501831">
        <ele>976.863</ele>
        <time>2021-07-25T07:05:16Z</time>
      </trkpt>
      <trkpt lat="42.341256" lon="-3.501443">
        <ele>978.244</ele>
        <time>2021-07-25T07:05:27Z</time>
      </trkpt>
      <trkpt lat="42.341358" lon="-3.501059">
        <ele>979.218</ele>
        <time>2021-07-25T07:05:38Z</time>
      </trkpt>
      <trkpt lat="42.341466" lon="-3.500656">
        <ele>979.708</ele>
        <time>2021-07-25T07:05:49Z</time>
      </trkpt>
      <trkpt lat="42.341586" lon="-3.500269">
        <ele>979.793</ele>
        <time>2021-07-25T07:05:59Z</time>
      </trkpt>
      <trkpt lat="42.341716" lon="-3.499907">
        <ele>979.775</ele>
        <time>2021-07-25T07:06:08Z</time>
      </trkpt>
      <trkpt lat="42.341894" lon="-3.499436">
        <ele>978.752</ele>
        <time>2021-07-25T07:06:19Z</time>
      </trkpt>
      <trkpt lat="42.342036" lon="-3.499045">
        <ele>979.222</ele>
        <time>2021-07-25T07:06:28Z</time>
      </trkpt>
      <trkpt lat="42.342220" lon="-3.498553">
        <ele>979.736</ele>
        <time>2021-07-25T07:06:40Z</time>
      </trkpt>
      <trkpt lat="42.342401" lon="-3.498067">
        <ele>980.224</ele>
        <time>2021-07-25T07:06:52Z</time>
      </trkpt>
      <trkpt lat="42.342603" lon="-3.497539">
        <ele>980.281</ele>
        <time>2021-07-25T07:07:05Z</time>
      </trkpt>
      <trkpt lat="42.342767" lon="-3.497108">
        <ele>980.239</ele>
        <time>2021-07-25T07:07:16Z</time>
      </trkpt>
      <trkpt lat="42.342886" lon="-3.496797">
        <ele>979.785</ele>
        <time>2021-07-25T07:07:25Z</time>
      </trkpt>
      <trkpt lat="42.342907" lon="-3.496709">
        <ele>978.789</ele>
        <time>2021-07-25T07:07:31Z</time>
      </trkpt>
      <trkpt lat="42.342896" lon="-3.496706">
        <ele>977.817</ele>
        <time>2021-07-25T07:07:37Z</time>
      </trkpt>
      <trkpt lat="42.342907" lon="-3.496698">
        <ele>978.208</ele>
        <time>2021-07-25T07:07:59Z</time>
      </trkpt>
      <trkpt lat="42.342894" lon="-3.496708">
        <ele>978.745</ele>
        <time>2021-07-25T07:08:26Z</time>
      </trkpt>
      <trkpt lat="42.342900" lon="-3.496703">
        <ele>978.297</ele>
        <time>2021-07-25T07:08:41Z</time>
      </trkpt>
      <trkpt lat="42.342936" lon="-3.496666">
        <ele>978.254</ele>
        <time>2021-07-25T07:08:47Z</time>
      </trkpt>
      <trkpt lat="42.342944" lon="-3.496654">
        <ele>978.244</ele>
        <time>2021-07-25T07:08:48Z</time>
      </trkpt>
      <trkpt lat="42.342951" lon="-3.496641">
        <ele>978.278</ele>
        <time>2021-07-25T07:08:49Z</time>
      </trkpt>
      <trkpt lat="42.342956" lon="-3.496626">
        <ele>978.266</ele>
        <time>2021-07-25T07:08:50Z</time>
      </trkpt>
      <trkpt lat="42.342956" lon="-3.496613">
        <ele>977.853</ele>
        <time>2021-07-25T07:08:56Z</time>
      </trkpt>
      <trkpt lat="42.342987" lon="-3.496559">
        <ele>977.371</ele>
        <time>2021-07-25T07:09:03Z</time>
      </trkpt>
      <trkpt lat="42.343055" lon="-3.496361">
        <ele>977.888</ele>
        <time>2021-07-25T07:09:11Z</time>
      </trkpt>
      <trkpt lat="42.343215" lon="-3.495958">
        <ele>977.824</ele>
        <time>2021-07-25T07:09:22Z</time>
      </trkpt>
      <trkpt lat="42.343304" lon="-3.495722">
        <ele>978.226</ele>
        <time>2021-07-25T07:09:29Z</time>
      </trkpt>
      <trkpt lat="42.343411" lon="-3.495440">
        <ele>978.708</ele>
        <time>2021-07-25T07:09:37Z</time>
      </trkpt>
      <trkpt lat="42.343535" lon="-3.495106">
        <ele>978.265</ele>
        <time>2021-07-25T07:09:46Z</time>
      </trkpt>
      <trkpt lat="42.343728" lon="-3.494605">
        <ele>979.217</ele>
        <time>2021-07-25T07:09:59Z</time>
      </trkpt>
      <trkpt lat="42.343937" lon="-3.494062">
        <ele>979.714</ele>
        <time>2021-07-25T07:10:13Z</time>
      </trkpt>
      <trkpt lat="42.344103" lon="-3.493616">
        <ele>980.274</ele>
        <time>2021-07-25T07:10:25Z</time>
      </trkpt>
      <trkpt lat="42.344248" lon="-3.493258">
        <ele>980.688</ele>
        <time>2021-07-25T07:10:35Z</time>
      </trkpt>
      <trkpt lat="42.344357" lon="-3.492949">
        <ele>981.636</ele>
        <time>2021-07-25T07:10:43Z</time>
      </trkpt>
      <trkpt lat="42.344487" lon="-3.492607">
        <ele>981.623</ele>
        <time>2021-07-25T07:10:52Z</time>
      </trkpt>
      <trkpt lat="42.344628" lon="-3.492233">
        <ele>982.121</ele>
        <time>2021-07-25T07:11:02Z</time>
      </trkpt>
      <trkpt lat="42.344762" lon="-3.491861">
        <ele>982.123</ele>
        <time>2021-07-25T07:11:12Z</time>
      </trkpt>
      <trkpt lat="42.344936" lon="-3.491391">
        <ele>984.083</ele>
        <time>2021-07-25T07:11:25Z</time>
      </trkpt>
      <trkpt lat="42.345052" lon="-3.491073">
        <ele>984.011</ele>
        <time>2021-07-25T07:11:34Z</time>
      </trkpt>
      <trkpt lat="42.345221" lon="-3.490630">
        <ele>985.008</ele>
        <time>2021-07-25T07:11:47Z</time>
      </trkpt>
      <trkpt lat="42.345345" lon="-3.490289">
        <ele>985.979</ele>
        <time>2021-07-25T07:11:57Z</time>
      </trkpt>
      <trkpt lat="42.345479" lon="-3.489927">
        <ele>986.411</ele>
        <time>2021-07-25T07:12:08Z</time>
      </trkpt>
      <trkpt lat="42.345607" lon="-3.489594">
        <ele>987.478</ele>
        <time>2021-07-25T07:12:18Z</time>
      </trkpt>
      <trkpt lat="42.345745" lon="-3.489230">
        <ele>988.388</ele>
        <time>2021-07-25T07:12:29Z</time>
      </trkpt>
      <trkpt lat="42.345900" lon="-3.488829">
        <ele>989.382</ele>
        <time>2021-07-25T07:12:41Z</time>
      </trkpt>
      <trkpt lat="42.346050" lon="-3.488415">
        <ele>989.820</ele>
        <time>2021-07-25T07:12:53Z</time>
      </trkpt>
      <trkpt lat="42.346159" lon="-3.488100">
        <ele>990.327</ele>
        <time>2021-07-25T07:13:02Z</time>
      </trkpt>
      <trkpt lat="42.346262" lon="-3.487769">
        <ele>991.255</ele>
        <time>2021-07-25T07:13:11Z</time>
      </trkpt>
      <trkpt lat="42.346355" lon="-3.487479">
        <ele>991.277</ele>
        <time>2021-07-25T07:13:19Z</time>
      </trkpt>
      <trkpt lat="42.346429" lon="-3.487238">
        <ele>992.261</ele>
        <time>2021-07-25T07:13:27Z</time>
      </trkpt>
      <trkpt lat="42.346499" lon="-3.487008">
        <ele>992.227</ele>
        <time>2021-07-25T07:13:35Z</time>
      </trkpt>
      <trkpt lat="42.346587" lon="-3.486727">
        <ele>992.208</ele>
        <time>2021-07-25T07:13:43Z</time>
      </trkpt>
      <trkpt lat="42.346696" lon="-3.486380">
        <ele>992.744</ele>
        <time>2021-07-25T07:13:52Z</time>
      </trkpt>
      <trkpt lat="42.346800" lon="-3.486048">
        <ele>993.126</ele>
        <time>2021-07-25T07:14:00Z</time>
      </trkpt>
      <trkpt lat="42.346956" lon="-3.485583">
        <ele>993.153</ele>
        <time>2021-07-25T07:14:11Z</time>
      </trkpt>
      <trkpt lat="42.347096" lon="-3.485149">
        <ele>994.153</ele>
        <time>2021-07-25T07:14:21Z</time>
      </trkpt>
      <trkpt lat="42.347219" lon="-3.484760">
        <ele>994.167</ele>
        <time>2021-07-25T07:14:30Z</time>
      </trkpt>
      <trkpt lat="42.347346" lon="-3.484367">
        <ele>994.665</ele>
        <time>2021-07-25T07:14:39Z</time>
      </trkpt>
      <trkpt lat="42.347483" lon="-3.483919">
        <ele>994.642</ele>
        <time>2021-07-25T07:14:49Z</time>
      </trkpt>
      <trkpt lat="42.347612" lon="-3.483405">
        <ele>994.650</ele>
        <time>2021-07-25T07:15:00Z</time>
      </trkpt>
      <trkpt lat="42.347698" lon="-3.483039">
        <ele>994.658</ele>
        <time>2021-07-25T07:15:08Z</time>
      </trkpt>
      <trkpt lat="42.347790" lon="-3.482516">
        <ele>994.652</ele>
        <time>2021-07-25T07:15:20Z</time>
      </trkpt>
      <trkpt lat="42.347844" lon="-3.482107">
        <ele>995.517</ele>
        <time>2021-07-25T07:15:30Z</time>
      </trkpt>
      <trkpt lat="42.347890" lon="-3.481716">
        <ele>995.508</ele>
        <time>2021-07-25T07:15:40Z</time>
      </trkpt>
      <trkpt lat="42.347933" lon="-3.481344">
        <ele>996.022</ele>
        <time>2021-07-25T07:15:50Z</time>
      </trkpt>
      <trkpt lat="42.347994" lon="-3.480937">
        <ele>996.594</ele>
        <time>2021-07-25T07:16:01Z</time>
      </trkpt>
      <trkpt lat="42.348041" lon="-3.480600">
        <ele>997.561</ele>
        <time>2021-07-25T07:16:10Z</time>
      </trkpt>
      <trkpt lat="42.348085" lon="-3.480268">
        <ele>997.981</ele>
        <time>2021-07-25T07:16:19Z</time>
      </trkpt>
      <trkpt lat="42.348143" lon="-3.479833">
        <ele>999.475</ele>
        <time>2021-07-25T07:16:30Z</time>
      </trkpt>
      <trkpt lat="42.348190" lon="-3.479455">
        <ele>999.993</ele>
        <time>2021-07-25T07:16:39Z</time>
      </trkpt>
      <trkpt lat="42.348248" lon="-3.478987">
        <ele>1000.350</ele>
        <time>2021-07-25T07:16:50Z</time>
      </trkpt>
      <trkpt lat="42.348326" lon="-3.478436">
        <ele>1000.858</ele>
        <time>2021-07-25T07:17:02Z</time>
      </trkpt>
      <trkpt lat="42.348397" lon="-3.477897">
        <ele>1000.375</ele>
        <time>2021-07-25T07:17:14Z</time>
      </trkpt>
      <trkpt lat="42.348460" lon="-3.477441">
        <ele>999.928</ele>
        <time>2021-07-25T07:17:24Z</time>
      </trkpt>
      <trkpt lat="42.348522" lon="-3.476982">
        <ele>999.420</ele>
        <time>2021-07-25T07:17:34Z</time>
      </trkpt>
      <trkpt lat="42.348598" lon="-3.476375">
        <ele>997.908</ele>
        <time>2021-07-25T07:17:46Z</time>
      </trkpt>
      <trkpt lat="42.348682" lon="-3.475777">
        <ele>996.544</ele>
        <time>2021-07-25T07:17:55Z</time>
      </trkpt>
      <trkpt lat="42.348793" lon="-3.474924">
        <ele>994.136</ele>
        <time>2021-07-25T07:18:06Z</time>
      </trkpt>
      <trkpt lat="42.348915" lon="-3.473994">
        <ele>992.223</ele>
        <time>2021-07-25T07:18:17Z</time>
      </trkpt>
      <trkpt lat="42.349014" lon="-3.473256">
        <ele>992.223</ele>
        <time>2021-07-25T07:18:27Z</time>
      </trkpt>
      <trkpt lat="42.349110" lon="-3.472575">
        <ele>993.197</ele>
        <time>2021-07-25T07:18:38Z</time>
      </trkpt>
      <trkpt lat="42.349165" lon="-3.472159">
        <ele>994.185</ele>
        <time>2021-07-25T07:18:47Z</time>
      </trkpt>
      <trkpt lat="42.349220" lon="-3.471750">
        <ele>995.132</ele>
        <time>2021-07-25T07:18:56Z</time>
      </trkpt>
      <trkpt lat="42.349276" lon="-3.471298">
        <ele>995.510</ele>
        <time>2021-07-25T07:19:07Z</time>
      </trkpt>
      <trkpt lat="42.349336" lon="-3.470864">
        <ele>996.535</ele>
        <time>2021-07-25T07:19:18Z</time>
      </trkpt>
      <trkpt lat="42.349377" lon="-3.470567">
        <ele>997.586</ele>
        <time>2021-07-25T07:19:26Z</time>
      </trkpt>
      <trkpt lat="42.349419" lon="-3.470227">
        <ele>998.414</ele>
        <time>2021-07-25T07:19:35Z</time>
      </trkpt>
      <trkpt lat="42.349483" lon="-3.469775">
        <ele>999.408</ele>
        <time>2021-07-25T07:19:47Z</time>
      </trkpt>
      <trkpt lat="42.349526" lon="-3.469418">
        <ele>1000.390</ele>
        <time>2021-07-25T07:19:57Z</time>
      </trkpt>
      <trkpt lat="42.349573" lon="-3.468998">
        <ele>1000.822</ele>
        <time>2021-07-25T07:20:08Z</time>
      </trkpt>
      <trkpt lat="42.349638" lon="-3.468492">
        <ele>1002.339</ele>
        <time>2021-07-25T07:20:21Z</time>
      </trkpt>
      <trkpt lat="42.349693" lon="-3.468090">
        <ele>1003.279</ele>
        <time>2021-07-25T07:20:31Z</time>
      </trkpt>
      <trkpt lat="42.349758" lon="-3.467610">
        <ele>1004.223</ele>
        <time>2021-07-25T07:20:43Z</time>
      </trkpt>
      <trkpt lat="42.349806" lon="-3.467332">
        <ele>1004.731</ele>
        <time>2021-07-25T07:20:50Z</time>
      </trkpt>
      <trkpt lat="42.349876" lon="-3.466820">
        <ele>1004.758</ele>
        <time>2021-07-25T07:21:02Z</time>
      </trkpt>
      <trkpt lat="42.349925" lon="-3.466424">
        <ele>1004.286</ele>
        <time>2021-07-25T07:21:12Z</time>
      </trkpt>
      <trkpt lat="42.349972" lon="-3.466095">
        <ele>1003.248</ele>
        <time>2021-07-25T07:21:20Z</time>
      </trkpt>
      <trkpt lat="42.350027" lon="-3.465670">
        <ele>1002.761</ele>
        <time>2021-07-25T07:21:29Z</time>
      </trkpt>
      <trkpt lat="42.350103" lon="-3.465120">
        <ele>1002.717</ele>
        <time>2021-07-25T07:21:39Z</time>
      </trkpt>
      <trkpt lat="42.350164" lon="-3.464663">
        <ele>1002.708</ele>
        <time>2021-07-25T07:21:48Z</time>
      </trkpt>
      <trkpt lat="42.350236" lon="-3.464122">
        <ele>1003.251</ele>
        <time>2021-07-25T07:21:59Z</time>
      </trkpt>
      <trkpt lat="42.350294" lon="-3.463712">
        <ele>1004.293</ele>
        <time>2021-07-25T07:22:08Z</time>
      </trkpt>
      <trkpt lat="42.350343" lon="-3.463313">
        <ele>1004.740</ele>
        <time>2021-07-25T07:22:17Z</time>
      </trkpt>
      <trkpt lat="42.350389" lon="-3.463009">
        <ele>1004.710</ele>
        <time>2021-07-25T07:22:24Z</time>
      </trkpt>
      <trkpt lat="42.350439" lon="-3.462609">
        <ele>1004.254</ele>
        <time>2021-07-25T07:22:34Z</time>
      </trkpt>
      <trkpt lat="42.350495" lon="-3.462162">
        <ele>1003.242</ele>
        <time>2021-07-25T07:22:44Z</time>
      </trkpt>
      <trkpt lat="42.350529" lon="-3.461668">
        <ele>1001.829</ele>
        <time>2021-07-25T07:22:53Z</time>
      </trkpt>
      <trkpt lat="42.350522" lon="-3.460954">
        <ele>998.967</ele>
        <time>2021-07-25T07:23:03Z</time>
      </trkpt>
      <trkpt lat="42.350466" lon="-3.460288">
        <ele>997.549</ele>
        <time>2021-07-25T07:23:12Z</time>
      </trkpt>
      <trkpt lat="42.350355" lon="-3.459647">
        <ele>996.502</ele>
        <time>2021-07-25T07:23:22Z</time>
      </trkpt>
      <trkpt lat="42.350264" lon="-3.459173">
        <ele>996.522</ele>
        <time>2021-07-25T07:23:31Z</time>
      </trkpt>
      <trkpt lat="42.350154" lon="-3.458645">
        <ele>995.508</ele>
        <time>2021-07-25T07:23:41Z</time>
      </trkpt>
      <trkpt lat="42.350054" lon="-3.458134">
        <ele>995.191</ele>
        <time>2021-07-25T07:23:51Z</time>
      </trkpt>
      <trkpt lat="42.349939" lon="-3.457569">
        <ele>994.673</ele>
        <time>2021-07-25T07:24:02Z</time>
      </trkpt>
      <trkpt lat="42.349846" lon="-3.457091">
        <ele>995.120</ele>
        <time>2021-07-25T07:24:11Z</time>
      </trkpt>
      <trkpt lat="42.349747" lon="-3.456578">
        <ele>994.690</ele>
        <time>2021-07-25T07:24:21Z</time>
      </trkpt>
      <trkpt lat="42.349644" lon="-3.456080">
        <ele>995.174</ele>
        <time>2021-07-25T07:24:31Z</time>
      </trkpt>
      <trkpt lat="42.349549" lon="-3.455594">
        <ele>995.512</ele>
        <time>2021-07-25T07:24:41Z</time>
      </trkpt>
      <trkpt lat="42.349487" lon="-3.455291">
        <ele>996.019</ele>
        <time>2021-07-25T07:24:49Z</time>
      </trkpt>
      <trkpt lat="42.349425" lon="-3.454994">
        <ele>997.517</ele>
        <time>2021-07-25T07:24:58Z</time>
      </trkpt>
      <trkpt lat="42.349355" lon="-3.454628">
        <ele>998.427</ele>
        <time>2021-07-25T07:25:09Z</time>
      </trkpt>
      <trkpt lat="42.349293" lon="-3.454316">
        <ele>999.968</ele>
        <time>2021-07-25T07:25:19Z</time>
      </trkpt>
      <trkpt lat="42.349227" lon="-3.453969">
        <ele>1001.314</ele>
        <time>2021-07-25T07:25:30Z</time>
      </trkpt>
      <trkpt lat="42.349159" lon="-3.453622">
        <ele>1002.708</ele>
        <time>2021-07-25T07:25:41Z</time>
      </trkpt>
      <trkpt lat="42.349101" lon="-3.453337">
        <ele>1003.769</ele>
        <time>2021-07-25T07:25:50Z</time>
      </trkpt>
      <trkpt lat="42.349044" lon="-3.453025">
        <ele>1004.231</ele>
        <time>2021-07-25T07:26:00Z</time>
      </trkpt>
      <trkpt lat="42.348985" lon="-3.452712">
        <ele>1004.738</ele>
        <time>2021-07-25T07:26:10Z</time>
      </trkpt>
      <trkpt lat="42.348923" lon="-3.452404">
        <ele>1006.178</ele>
        <time>2021-07-25T07:26:20Z</time>
      </trkpt>
      <trkpt lat="42.348870" lon="-3.452164">
        <ele>1007.182</ele>
        <time>2021-07-25T07:26:28Z</time>
      </trkpt>
      <trkpt lat="42.348820" lon="-3.451924">
        <ele>1008.050</ele>
        <time>2021-07-25T07:26:36Z</time>
      </trkpt>
      <trkpt lat="42.348765" lon="-3.451663">
        <ele>1009.097</ele>
        <time>2021-07-25T07:26:45Z</time>
      </trkpt>
      <trkpt lat="42.348706" lon="-3.451367">
        <ele>1010.955</ele>
        <time>2021-07-25T07:26:55Z</time>
      </trkpt>
      <trkpt lat="42.348656" lon="-3.451107">
        <ele>1012.416</ele>
        <time>2021-07-25T07:27:04Z</time>
      </trkpt>
      <trkpt lat="42.348633" lon="-3.450934">
        <ele>1013.376</ele>
        <time>2021-07-25T07:27:12Z</time>
      </trkpt>
      <trkpt lat="42.348585" lon="-3.450672">
        <ele>1014.813</ele>
        <time>2021-07-25T07:27:22Z</time>
      </trkpt>
      <trkpt lat="42.348563" lon="-3.450457">
        <ele>1015.208</ele>
        <time>2021-07-25T07:27:31Z</time>
      </trkpt>
      <trkpt lat="42.348546" lon="-3.450212">
        <ele>1016.768</ele>
        <time>2021-07-25T07:27:41Z</time>
      </trkpt>
      <trkpt lat="42.348554" lon="-3.449957">
        <ele>1018.170</ele>
        <time>2021-07-25T07:27:51Z</time>
      </trkpt>
      <trkpt lat="42.348578" lon="-3.449719">
        <ele>1019.117</ele>
        <time>2021-07-25T07:28:00Z</time>
      </trkpt>
      <trkpt lat="42.348589" lon="-3.449490">
        <ele>1020.147</ele>
        <time>2021-07-25T07:28:08Z</time>
      </trkpt>
      <trkpt lat="42.348610" lon="-3.449220">
        <ele>1020.591</ele>
        <time>2021-07-25T07:28:18Z</time>
      </trkpt>
      <trkpt lat="42.348636" lon="-3.449017">
        <ele>1021.029</ele>
        <time>2021-07-25T07:28:26Z</time>
      </trkpt>
      <trkpt lat="42.348659" lon="-3.448763">
        <ele>1022.536</ele>
        <time>2021-07-25T07:28:36Z</time>
      </trkpt>
      <trkpt lat="42.348680" lon="-3.448520">
        <ele>1023.454</ele>
        <time>2021-07-25T07:28:46Z</time>
      </trkpt>
      <trkpt lat="42.348707" lon="-3.448271">
        <ele>1024.949</ele>
        <time>2021-07-25T07:28:56Z</time>
      </trkpt>
      <trkpt lat="42.348735" lon="-3.447990">
        <ele>1026.302</ele>
        <time>2021-07-25T07:29:07Z</time>
      </trkpt>
      <trkpt lat="42.348762" lon="-3.447711">
        <ele>1027.722</ele>
        <time>2021-07-25T07:29:18Z</time>
      </trkpt>
      <trkpt lat="42.348791" lon="-3.447479">
        <ele>1028.708</ele>
        <time>2021-07-25T07:29:27Z</time>
      </trkpt>
      <trkpt lat="42.348810" lon="-3.447259">
        <ele>1030.171</ele>
        <time>2021-07-25T07:29:36Z</time>
      </trkpt>
      <trkpt lat="42.348836" lon="-3.446965">
        <ele>1031.113</ele>
        <time>2021-07-25T07:29:48Z</time>
      </trkpt>
      <trkpt lat="42.348861" lon="-3.446749">
        <ele>1032.130</ele>
        <time>2021-07-25T07:29:57Z</time>
      </trkpt>
      <trkpt lat="42.348888" lon="-3.446477">
        <ele>1033.520</ele>
        <time>2021-07-25T07:30:08Z</time>
      </trkpt>
      <trkpt lat="42.348910" lon="-3.446229">
        <ele>1035.064</ele>
        <time>2021-07-25T07:30:18Z</time>
      </trkpt>
      <trkpt lat="42.348940" lon="-3.445914">
        <ele>1036.952</ele>
        <time>2021-07-25T07:30:31Z</time>
      </trkpt>
      <trkpt lat="42.348960" lon="-3.445701">
        <ele>1037.879</ele>
        <time>2021-07-25T07:30:40Z</time>
      </trkpt>
      <trkpt lat="42.348989" lon="-3.445432">
        <ele>1038.877</ele>
        <time>2021-07-25T07:30:51Z</time>
      </trkpt>
      <trkpt lat="42.349015" lon="-3.445139">
        <ele>1040.276</ele>
        <time>2021-07-25T07:31:03Z</time>
      </trkpt>
      <trkpt lat="42.349042" lon="-3.444838">
        <ele>1041.790</ele>
        <time>2021-07-25T07:31:15Z</time>
      </trkpt>
      <trkpt lat="42.349072" lon="-3.444515">
        <ele>1043.119</ele>
        <time>2021-07-25T07:31:28Z</time>
      </trkpt>
      <trkpt lat="42.349100" lon="-3.444256">
        <ele>1044.108</ele>
        <time>2021-07-25T07:31:39Z</time>
      </trkpt>
      <trkpt lat="42.349117" lon="-3.444090">
        <ele>1044.614</ele>
        <time>2021-07-25T07:31:47Z</time>
      </trkpt>
      <trkpt lat="42.349133" lon="-3.443882">
        <ele>1045.546</ele>
        <time>2021-07-25T07:31:56Z</time>
      </trkpt>
      <trkpt lat="42.349165" lon="-3.443578">
        <ele>1047.053</ele>
        <time>2021-07-25T07:32:07Z</time>
      </trkpt>
      <trkpt lat="42.349190" lon="-3.443239">
        <ele>1048.413</ele>
        <time>2021-07-25T07:32:20Z</time>
      </trkpt>
      <trkpt lat="42.349202" lon="-3.442954">
        <ele>1049.977</ele>
        <time>2021-07-25T07:32:31Z</time>
      </trkpt>
      <trkpt lat="42.349211" lon="-3.442593">
        <ele>1050.875</ele>
        <time>2021-07-25T07:32:44Z</time>
      </trkpt>
      <trkpt lat="42.349206" lon="-3.442303">
        <ele>1051.362</ele>
        <time>2021-07-25T07:32:54Z</time>
      </trkpt>
      <trkpt lat="42.349192" lon="-3.441906">
        <ele>1051.840</ele>
        <time>2021-07-25T07:33:05Z</time>
      </trkpt>
      <trkpt lat="42.349185" lon="-3.441501">
        <ele>1052.351</ele>
        <time>2021-07-25T07:33:16Z</time>
      </trkpt>
      <trkpt lat="42.349169" lon="-3.441213">
        <ele>1052.701</ele>
        <time>2021-07-25T07:33:25Z</time>
      </trkpt>
      <trkpt lat="42.349153" lon="-3.440870">
        <ele>1053.711</ele>
        <time>2021-07-25T07:33:37Z</time>
      </trkpt>
      <trkpt lat="42.349168" lon="-3.440635">
        <ele>1054.208</ele>
        <time>2021-07-25T07:33:45Z</time>
      </trkpt>
      <trkpt lat="42.349177" lon="-3.440371">
        <ele>1055.152</ele>
        <time>2021-07-25T07:33:54Z</time>
      </trkpt>
      <trkpt lat="42.349197" lon="-3.440175">
        <ele>1055.174</ele>
        <time>2021-07-25T07:34:01Z</time>
      </trkpt>
      <trkpt lat="42.349229" lon="-3.439865">
        <ele>1056.161</ele>
        <time>2021-07-25T07:34:12Z</time>
      </trkpt>
      <trkpt lat="42.349250" lon="-3.439607">
        <ele>1057.171</ele>
        <time>2021-07-25T07:34:21Z</time>
      </trkpt>
      <trkpt lat="42.349295" lon="-3.439173">
        <ele>1058.045</ele>
        <time>2021-07-25T07:34:35Z</time>
      </trkpt>
      <trkpt lat="42.349330" lon="-3.438812">
        <ele>1058.553</ele>
        <time>2021-07-25T07:34:46Z</time>
      </trkpt>
      <trkpt lat="42.349368" lon="-3.438441">
        <ele>1059.090</ele>
        <time>2021-07-25T07:34:57Z</time>
      </trkpt>
      <trkpt lat="42.349409" lon="-3.438064">
        <ele>1059.528</ele>
        <time>2021-07-25T07:35:08Z</time>
      </trkpt>
      <trkpt lat="42.349460" lon="-3.437734">
        <ele>1059.972</ele>
        <time>2021-07-25T07:35:18Z</time>
      </trkpt>
      <trkpt lat="42.349508" lon="-3.437461">
        <ele>1060.413</ele>
        <time>2021-07-25T07:35:26Z</time>
      </trkpt>
      <trkpt lat="42.349612" lon="-3.437077">
        <ele>1059.914</ele>
        <time>2021-07-25T07:35:37Z</time>
      </trkpt>
      <trkpt lat="42.349718" lon="-3.436795">
        <ele>1059.908</ele>
        <time>2021-07-25T07:35:46Z</time>
      </trkpt>
      <trkpt lat="42.349842" lon="-3.436522">
        <ele>1059.934</ele>
        <time>2021-07-25T07:35:54Z</time>
      </trkpt>
      <trkpt lat="42.350044" lon="-3.436138">
        <ele>1059.526</ele>
        <time>2021-07-25T07:36:04Z</time>
      </trkpt>
      <trkpt lat="42.350233" lon="-3.435786">
        <ele>1059.083</ele>
        <time>2021-07-25T07:36:13Z</time>
      </trkpt>
      <trkpt lat="42.350378" lon="-3.435505">
        <ele>1058.553</ele>
        <time>2021-07-25T07:36:20Z</time>
      </trkpt>
      <trkpt lat="42.350563" lon="-3.435095">
        <ele>1059.527</ele>
        <time>2021-07-25T07:36:30Z</time>
      </trkpt>
      <trkpt lat="42.350703" lon="-3.434591">
        <ele>1059.925</ele>
        <time>2021-07-25T07:36:42Z</time>
      </trkpt>
      <trkpt lat="42.350768" lon="-3.434215">
        <ele>1060.492</ele>
        <time>2021-07-25T07:36:51Z</time>
      </trkpt>
      <trkpt lat="42.350800" lon="-3.433870">
        <ele>1060.960</ele>
        <time>2021-07-25T07:36:59Z</time>
      </trkpt>
      <trkpt lat="42.350811" lon="-3.433444">
        <ele>1061.413</ele>
        <time>2021-07-25T07:37:09Z</time>
      </trkpt>
      <trkpt lat="42.350815" lon="-3.433043">
        <ele>1061.943</ele>
        <time>2021-07-25T07:37:19Z</time>
      </trkpt>
      <trkpt lat="42.350814" lon="-3.432675">
        <ele>1062.807</ele>
        <time>2021-07-25T07:37:28Z</time>
      </trkpt>
      <trkpt lat="42.350819" lon="-3.432227">
        <ele>1063.308</ele>
        <time>2021-07-25T07:37:39Z</time>
      </trkpt>
      <trkpt lat="42.350813" lon="-3.431776">
        <ele>1064.388</ele>
        <time>2021-07-25T07:37:50Z</time>
      </trkpt>
      <trkpt lat="42.350817" lon="-3.431268">
        <ele>1065.260</ele>
        <time>2021-07-25T07:38:03Z</time>
      </trkpt>
      <trkpt lat="42.350814" lon="-3.430934">
        <ele>1066.287</ele>
        <time>2021-07-25T07:38:11Z</time>
      </trkpt>
      <trkpt lat="42.350812" lon="-3.430515">
        <ele>1066.217</ele>
        <time>2021-07-25T07:38:21Z</time>
      </trkpt>
      <trkpt lat="42.350841" lon="-3.430230">
        <ele>1066.741</ele>
        <time>2021-07-25T07:38:29Z</time>
      </trkpt>
      <trkpt lat="42.350939" lon="-3.430166">
        <ele>1066.279</ele>
        <time>2021-07-25T07:38:35Z</time>
      </trkpt>
      <trkpt lat="42.350952" lon="-3.430176">
        <ele>1066.226</ele>
        <time>2021-07-25T07:38:36Z</time>
      </trkpt>
      <trkpt lat="42.350954" lon="-3.430188">
        <ele>1065.734</ele>
        <time>2021-07-25T07:38:41Z</time>
      </trkpt>
      <trkpt lat="42.350942" lon="-3.430192">
        <ele>1065.751</ele>
        <time>2021-07-25T07:38:54Z</time>
      </trkpt>
      <trkpt lat="42.350933" lon="-3.430204">
        <ele>1064.301</ele>
        <time>2021-07-25T07:39:10Z</time>
      </trkpt>
      <trkpt lat="42.350958" lon="-3.430208">
        <ele>1063.811</ele>
        <time>2021-07-25T07:39:31Z</time>
      </trkpt>
      <trkpt lat="42.350951" lon="-3.430193">
        <ele>1065.708</ele>
        <time>2021-07-25T07:39:47Z</time>
      </trkpt>
      <trkpt lat="42.350953" lon="-3.430203">
        <ele>1064.882</ele>
        <time>2021-07-25T07:40:05Z</time>
      </trkpt>
      <trkpt lat="42.350939" lon="-3.430193">
        <ele>1066.254</ele>
        <time>2021-07-25T07:40:21Z</time>
      </trkpt>
      <trkpt lat="42.350918" lon="-3.430182">
        <ele>1067.221</ele>
        <time>2021-07-25T07:40:38Z</time>
      </trkpt>
      <trkpt lat="42.350933" lon="-3.430200">
        <ele>1068.191</ele>
        <time>2021-07-25T07:40:51Z</time>
      </trkpt>
      <trkpt lat="42.350947" lon="-3.430209">
        <ele>1068.635</ele>
        <time>2021-07-25T07:41:06Z</time>
      </trkpt>
      <trkpt lat="42.350943" lon="-3.430214">
        <ele>1068.183</ele>
        <time>2021-07-25T07:41:25Z</time>
      </trkpt>
      <trkpt lat="42.350950" lon="-3.430211">
        <ele>1069.620</ele>
        <time>2021-07-25T07:41:43Z</time>
      </trkpt>
      <trkpt lat="42.350945" lon="-3.430220">
        <ele>1068.648</ele>
        <time>2021-07-25T07:41:58Z</time>
      </trkpt>
      <trkpt lat="42.350949" lon="-3.430215">
        <ele>1067.296</ele>
        <time>2021-07-25T07:42:11Z</time>
      </trkpt>
      <trkpt lat="42.350952" lon="-3.430197">
        <ele>1067.631</ele>
        <time>2021-07-25T07:42:26Z</time>
      </trkpt>
      <trkpt lat="42.350941" lon="-3.430198">
        <ele>1067.624</ele>
        <time>2021-07-25T07:42:42Z</time>
      </trkpt>
      <trkpt lat="42.350936" lon="-3.430212">
        <ele>1066.208</ele>
        <time>2021-07-25T07:43:00Z</time>
      </trkpt>
      <trkpt lat="42.350940" lon="-3.430211">
        <ele>1066.266</ele>
        <time>2021-07-25T07:43:16Z</time>
      </trkpt>
      <trkpt lat="42.350945" lon="-3.430199">
        <ele>1065.748</ele>
        <time>2021-07-25T07:43:35Z</time>
      </trkpt>
      <trkpt lat="42.350950" lon="-3.430186">
        <ele>1065.715</ele>
        <time>2021-07-25T07:43:52Z</time>
      </trkpt>
      <trkpt lat="42.350949" lon="-3.430178">
        <ele>1065.745</ele>
        <time>2021-07-25T07:44:04Z</time>
      </trkpt>
      <trkpt lat="42.350947" lon="-3.430187">
        <ele>1064.899</ele>
        <time>2021-07-25T07:44:18Z</time>
      </trkpt>
      <trkpt lat="42.350937" lon="-3.430203">
        <ele>1066.277</ele>
        <time>2021-07-25T07:44:35Z</time>
      </trkpt>
      <trkpt lat="42.350938" lon="-3.430212">
        <ele>1067.694</ele>
        <time>2021-07-25T07:44:56Z</time>
      </trkpt>
      <trkpt lat="42.350945" lon="-3.430199">
        <ele>1068.692</ele>
        <time>2021-07-25T07:45:13Z</time>
      </trkpt>
      <trkpt lat="42.350952" lon="-3.430191">
        <ele>1066.738</ele>
        <time>2021-07-25T07:45:26Z</time>
      </trkpt>
      <trkpt lat="42.350961" lon="-3.430206">
        <ele>1065.270</ele>
        <time>2021-07-25T07:45:46Z</time>
      </trkpt>
      <trkpt lat="42.350949" lon="-3.430201">
        <ele>1067.217</ele>
        <time>2021-07-25T07:45:59Z</time>
      </trkpt>
      <trkpt lat="42.350951" lon="-3.430208">
        <ele>1067.608</ele>
        <time>2021-07-25T07:46:17Z</time>
      </trkpt>
      <trkpt lat="42.350947" lon="-3.430209">
        <ele>1066.250</ele>
        <time>2021-07-25T07:46:30Z</time>
      </trkpt>
      <trkpt lat="42.350943" lon="-3.430191">
        <ele>1066.232</ele>
        <time>2021-07-25T07:46:50Z</time>
      </trkpt>
      <trkpt lat="42.350943" lon="-3.430188">
        <ele>1066.229</ele>
        <time>2021-07-25T07:47:05Z</time>
      </trkpt>
      <trkpt lat="42.350931" lon="-3.430184">
        <ele>1067.649</ele>
        <time>2021-07-25T07:47:24Z</time>
      </trkpt>
      <trkpt lat="42.350933" lon="-3.430174">
        <ele>1068.113</ele>
        <time>2021-07-25T07:47:43Z</time>
      </trkpt>
      <trkpt lat="42.350948" lon="-3.430197">
        <ele>1067.221</ele>
        <time>2021-07-25T07:48:01Z</time>
      </trkpt>
      <trkpt lat="42.350950" lon="-3.430218">
        <ele>1065.768</ele>
        <time>2021-07-25T07:48:19Z</time>
      </trkpt>
      <trkpt lat="42.350941" lon="-3.430201">
        <ele>1067.666</ele>
        <time>2021-07-25T07:48:36Z</time>
      </trkpt>
      <trkpt lat="42.350936" lon="-3.430196">
        <ele>1069.181</ele>
        <time>2021-07-25T07:48:54Z</time>
      </trkpt>
      <trkpt lat="42.350942" lon="-3.430204">
        <ele>1067.261</ele>
        <time>2021-07-25T07:49:14Z</time>
      </trkpt>
      <trkpt lat="42.350945" lon="-3.430210">
        <ele>1066.217</ele>
        <time>2021-07-25T07:49:31Z</time>
      </trkpt>
      <trkpt lat="42.350951" lon="-3.430197">
        <ele>1066.208</ele>
        <time>2021-07-25T07:49:46Z</time>
      </trkpt>
      <trkpt lat="42.350946" lon="-3.430219">
        <ele>1065.265</ele>
        <time>2021-07-25T07:49:59Z</time>
      </trkpt>
      <trkpt lat="42.350943" lon="-3.430206">
        <ele>1065.267</ele>
        <time>2021-07-25T07:50:12Z</time>
      </trkpt>
      <trkpt lat="42.350952" lon="-3.430190">
        <ele>1065.714</ele>
        <time>2021-07-25T07:50:33Z</time>
      </trkpt>
      <trkpt lat="42.350954" lon="-3.430194">
        <ele>1066.794</ele>
        <time>2021-07-25T07:50:51Z</time>
      </trkpt>
      <trkpt lat="42.350959" lon="-3.430190">
        <ele>1067.628</ele>
        <time>2021-07-25T07:51:15Z</time>
      </trkpt>
      <trkpt lat="42.350964" lon="-3.430185">
        <ele>1065.236</ele>
        <time>2021-07-25T07:51:29Z</time>
      </trkpt>
      <trkpt lat="42.350940" lon="-3.430197">
        <ele>1066.283</ele>
        <time>2021-07-25T07:51:45Z</time>
      </trkpt>
      <trkpt lat="42.350951" lon="-3.430210">
        <ele>1066.761</ele>
        <time>2021-07-25T07:52:03Z</time>
      </trkpt>
      <trkpt lat="42.350950" lon="-3.430185">
        <ele>1066.746</ele>
        <time>2021-07-25T07:52:22Z</time>
      </trkpt>
      <trkpt lat="42.350931" lon="-3.430190">
        <ele>1066.288</ele>
        <time>2021-07-25T07:52:38Z</time>
      </trkpt>
      <trkpt lat="42.350931" lon="-3.430206">
        <ele>1066.716</ele>
        <time>2021-07-25T07:53:05Z</time>
      </trkpt>
      <trkpt lat="42.350941" lon="-3.430203">
        <ele>1067.608</ele>
        <time>2021-07-25T07:53:23Z</time>
      </trkpt>
      <trkpt lat="42.350949" lon="-3.430213">
        <ele>1066.751</ele>
        <time>2021-07-25T07:53:38Z</time>
      </trkpt>
      <trkpt lat="42.350947" lon="-3.430199">
        <ele>1066.283</ele>
        <time>2021-07-25T07:53:53Z</time>
      </trkpt>
      <trkpt lat="42.350948" lon="-3.430192">
        <ele>1066.250</ele>
        <time>2021-07-25T07:54:08Z</time>
      </trkpt>
      <trkpt lat="42.350944" lon="-3.430203">
        <ele>1066.230</ele>
        <time>2021-07-25T07:54:27Z</time>
      </trkpt>
      <trkpt lat="42.350963" lon="-3.430223">
        <ele>1064.384</ele>
        <time>2021-07-25T07:54:45Z</time>
      </trkpt>
      <trkpt lat="42.350959" lon="-3.430188">
        <ele>1065.242</ele>
        <time>2021-07-25T07:55:02Z</time>
      </trkpt>
      <trkpt lat="42.350936" lon="-3.430199">
        <ele>1065.239</ele>
        <time>2021-07-25T07:55:08Z</time>
      </trkpt>
      <trkpt lat="42.350939" lon="-3.430199">
        <ele>1065.767</ele>
        <time>2021-07-25T07:55:14Z</time>
      </trkpt>
      <trkpt lat="42.350933" lon="-3.430198">
        <ele>1065.223</ele>
        <time>2021-07-25T07:55:30Z</time>
      </trkpt>
      <trkpt lat="42.350927" lon="-3.430203">
        <ele>1065.283</ele>
        <time>2021-07-25T07:55:42Z</time>
      </trkpt>
      <trkpt lat="42.350915" lon="-3.430210">
        <ele>1065.211</ele>
        <time>2021-07-25T07:55:44Z</time>
      </trkpt>
      <trkpt lat="42.350843" lon="-3.430215">
        <ele>1065.708</ele>
        <time>2021-07-25T07:55:49Z</time>
      </trkpt>
      <trkpt lat="42.350823" lon="-3.430125">
        <ele>1065.749</ele>
        <time>2021-07-25T07:55:53Z</time>
      </trkpt>
      <trkpt lat="42.350824" lon="-3.429845">
        <ele>1065.291</ele>
        <time>2021-07-25T07:56:02Z</time>
      </trkpt>
      <trkpt lat="42.350822" lon="-3.429414">
        <ele>1065.788</ele>
        <time>2021-07-25T07:56:12Z</time>
      </trkpt>
      <trkpt lat="42.350826" lon="-3.428932">
        <ele>1066.288</ele>
        <time>2021-07-25T07:56:23Z</time>
      </trkpt>
      <trkpt lat="42.350825" lon="-3.428417">
        <ele>1066.262</ele>
        <time>2021-07-25T07:56:34Z</time>
      </trkpt>
      <trkpt lat="42.350827" lon="-3.427985">
        <ele>1066.270</ele>
        <time>2021-07-25T07:56:44Z</time>
      </trkpt>
      <trkpt lat="42.350826" lon="-3.427534">
        <ele>1066.747</ele>
        <time>2021-07-25T07:56:54Z</time>
      </trkpt>
      <trkpt lat="42.350827" lon="-3.427017">
        <ele>1066.235</ele>
        <time>2021-07-25T07:57:05Z</time>
      </trkpt>
      <trkpt lat="42.350829" lon="-3.426410">
        <ele>1066.215</ele>
        <time>2021-07-25T07:57:18Z</time>
      </trkpt>
      <trkpt lat="42.350826" lon="-3.425844">
        <ele>1066.265</ele>
        <time>2021-07-25T07:57:31Z</time>
      </trkpt>
      <trkpt lat="42.350815" lon="-3.425360">
        <ele>1066.211</ele>
        <time>2021-07-25T07:57:42Z</time>
      </trkpt>
      <trkpt lat="42.350826" lon="-3.424850">
        <ele>1066.708</ele>
        <time>2021-07-25T07:57:53Z</time>
      </trkpt>
      <trkpt lat="42.350824" lon="-3.424265">
        <ele>1067.258</ele>
        <time>2021-07-25T07:58:06Z</time>
      </trkpt>
      <trkpt lat="42.350825" lon="-3.423781">
        <ele>1068.670</ele>
        <time>2021-07-25T07:58:18Z</time>
      </trkpt>
      <trkpt lat="42.350824" lon="-3.423361">
        <ele>1069.627</ele>
        <time>2021-07-25T07:58:29Z</time>
      </trkpt>
      <trkpt lat="42.350824" lon="-3.423000">
        <ele>1070.547</ele>
        <time>2021-07-25T07:58:38Z</time>
      </trkpt>
      <trkpt lat="42.350826" lon="-3.422597">
        <ele>1071.021</ele>
        <time>2021-07-25T07:58:48Z</time>
      </trkpt>
      <trkpt lat="42.350822" lon="-3.422162">
        <ele>1072.039</ele>
        <time>2021-07-25T07:58:59Z</time>
      </trkpt>
      <trkpt lat="42.350820" lon="-3.421797">
        <ele>1072.916</ele>
        <time>2021-07-25T07:59:08Z</time>
      </trkpt>
      <trkpt lat="42.350823" lon="-3.421399">
        <ele>1073.954</ele>
        <time>2021-07-25T07:59:18Z</time>
      </trkpt>
      <trkpt lat="42.350824" lon="-3.421103">
        <ele>1074.898</ele>
        <time>2021-07-25T07:59:27Z</time>
      </trkpt>
      <trkpt lat="42.350824" lon="-3.420760">
        <ele>1076.815</ele>
        <time>2021-07-25T07:59:38Z</time>
      </trkpt>
      <trkpt lat="42.350820" lon="-3.420420">
        <ele>1078.226</ele>
        <time>2021-07-25T07:59:49Z</time>
      </trkpt>
      <trkpt lat="42.350820" lon="-3.420111">
        <ele>1079.208</ele>
        <time>2021-07-25T07:59:59Z</time>
      </trkpt>
      <trkpt lat="42.350817" lon="-3.419836">
        <ele>1080.156</ele>
        <time>2021-07-25T08:00:08Z</time>
      </trkpt>
      <trkpt lat="42.350816" lon="-3.419554">
        <ele>1082.128</ele>
        <time>2021-07-25T08:00:17Z</time>
      </trkpt>
      <trkpt lat="42.350817" lon="-3.419247">
        <ele>1083.575</ele>
        <time>2021-07-25T08:00:27Z</time>
      </trkpt>
      <trkpt lat="42.350818" lon="-3.419030">
        <ele>1084.065</ele>
        <time>2021-07-25T08:00:34Z</time>
      </trkpt>
      <trkpt lat="42.350815" lon="-3.418895">
        <ele>1084.019</ele>
        <time>2021-07-25T08:00:41Z</time>
      </trkpt>
      <trkpt lat="42.350821" lon="-3.418834">
        <ele>1084.067</ele>
        <time>2021-07-25T08:00:49Z</time>
      </trkpt>
      <trkpt lat="42.350820" lon="-3.418809">
        <ele>1084.014</ele>
        <time>2021-07-25T08:00:57Z</time>
      </trkpt>
      <trkpt lat="42.350819" lon="-3.418789">
        <ele>1084.032</ele>
        <time>2021-07-25T08:00:58Z</time>
      </trkpt>
      <trkpt lat="42.350818" lon="-3.418764">
        <ele>1084.047</ele>
        <time>2021-07-25T08:00:59Z</time>
      </trkpt>
      <trkpt lat="42.350819" lon="-3.418739">
        <ele>1084.029</ele>
        <time>2021-07-25T08:01:00Z</time>
      </trkpt>
      <trkpt lat="42.350819" lon="-3.418713">
        <ele>1084.021</ele>
        <time>2021-07-25T08:01:01Z</time>
      </trkpt>
      <trkpt lat="42.350815" lon="-3.418429">
        <ele>1084.008</ele>
        <time>2021-07-25T08:01:13Z</time>
      </trkpt>
      <trkpt lat="42.350817" lon="-3.418181">
        <ele>1084.531</ele>
        <time>2021-07-25T08:01:23Z</time>
      </trkpt>
      <trkpt lat="42.350821" lon="-3.417923">
        <ele>1085.483</ele>
        <time>2021-07-25T08:01:33Z</time>
      </trkpt>
      <trkpt lat="42.350821" lon="-3.417638">
        <ele>1085.970</ele>
        <time>2021-07-25T08:01:44Z</time>
      </trkpt>
      <trkpt lat="42.350822" lon="-3.417461">
        <ele>1086.990</ele>
        <time>2021-07-25T08:01:52Z</time>
      </trkpt>
      <trkpt lat="42.350822" lon="-3.417182">
        <ele>1086.974</ele>
        <time>2021-07-25T08:02:04Z</time>
      </trkpt>
      <trkpt lat="42.350822" lon="-3.416870">
        <ele>1086.972</ele>
        <time>2021-07-25T08:02:16Z</time>
      </trkpt>
      <trkpt lat="42.350821" lon="-3.416682">
        <ele>1087.339</ele>
        <time>2021-07-25T08:02:25Z</time>
      </trkpt>
      <trkpt lat="42.350824" lon="-3.416447">
        <ele>1086.957</ele>
        <time>2021-07-25T08:02:32Z</time>
      </trkpt>
      <trkpt lat="42.350829" lon="-3.416116">
        <ele>1087.325</ele>
        <time>2021-07-25T08:02:41Z</time>
      </trkpt>
      <trkpt lat="42.350826" lon="-3.415776">
        <ele>1087.326</ele>
        <time>2021-07-25T08:02:49Z</time>
      </trkpt>
      <trkpt lat="42.350824" lon="-3.415246">
        <ele>1086.408</ele>
        <time>2021-07-25T08:03:01Z</time>
      </trkpt>
      <trkpt lat="42.350832" lon="-3.414920">
        <ele>1086.408</ele>
        <time>2021-07-25T08:03:08Z</time>
      </trkpt>
      <trkpt lat="42.350837" lon="-3.414528">
        <ele>1086.429</ele>
        <time>2021-07-25T08:03:16Z</time>
      </trkpt>
      <trkpt lat="42.350838" lon="-3.414013">
        <ele>1085.491</ele>
        <time>2021-07-25T08:03:25Z</time>
      </trkpt>
      <trkpt lat="42.350843" lon="-3.413285">
        <ele>1083.528</ele>
        <time>2021-07-25T08:03:36Z</time>
      </trkpt>
      <trkpt lat="42.350844" lon="-3.412589">
        <ele>1082.148</ele>
        <time>2021-07-25T08:03:46Z</time>
      </trkpt>
      <trkpt lat="42.350851" lon="-3.411829">
        <ele>1079.742</ele>
        <time>2021-07-25T08:03:56Z</time>
      </trkpt>
      <trkpt lat="42.350854" lon="-3.411050">
        <ele>1078.280</ele>
        <time>2021-07-25T08:04:06Z</time>
      </trkpt>
      <trkpt lat="42.350858" lon="-3.410488">
        <ele>1078.287</ele>
        <time>2021-07-25T08:04:15Z</time>
      </trkpt>
      <trkpt lat="42.350891" lon="-3.410013">
        <ele>1078.795</ele>
        <time>2021-07-25T08:04:24Z</time>
      </trkpt>
      <trkpt lat="42.350936" lon="-3.409632">
        <ele>1079.245</ele>
        <time>2021-07-25T08:04:32Z</time>
      </trkpt>
      <trkpt lat="42.351018" lon="-3.409258">
        <ele>1079.247</ele>
        <time>2021-07-25T08:04:40Z</time>
      </trkpt>
      <trkpt lat="42.351129" lon="-3.408850">
        <ele>1080.111</ele>
        <time>2021-07-25T08:04:50Z</time>
      </trkpt>
      <trkpt lat="42.351270" lon="-3.408458">
        <ele>1081.108</ele>
        <time>2021-07-25T08:05:01Z</time>
      </trkpt>
      <trkpt lat="42.351406" lon="-3.408099">
        <ele>1082.541</ele>
        <time>2021-07-25T08:05:12Z</time>
      </trkpt>
      <trkpt lat="42.351520" lon="-3.407824">
        <ele>1083.573</ele>
        <time>2021-07-25T08:05:21Z</time>
      </trkpt>
      <trkpt lat="42.351613" lon="-3.407581">
        <ele>1084.940</ele>
        <time>2021-07-25T08:05:30Z</time>
      </trkpt>
      <trkpt lat="42.351723" lon="-3.407306">
        <ele>1085.920</ele>
        <time>2021-07-25T08:05:40Z</time>
      </trkpt>
      <trkpt lat="42.351809" lon="-3.407091">
        <ele>1086.924</ele>
        <time>2021-07-25T08:05:48Z</time>
      </trkpt>
      <trkpt lat="42.351910" lon="-3.406855">
        <ele>1087.812</ele>
        <time>2021-07-25T08:05:57Z</time>
      </trkpt>
      <trkpt lat="42.352031" lon="-3.406539">
        <ele>1088.389</ele>
        <time>2021-07-25T08:06:08Z</time>
      </trkpt>
      <trkpt lat="42.352164" lon="-3.406224">
        <ele>1089.797</ele>
        <time>2021-07-25T08:06:19Z</time>
      </trkpt>
      <trkpt lat="42.352240" lon="-3.406026">
        <ele>1090.236</ele>
        <time>2021-07-25T08:06:26Z</time>
      </trkpt>
      <trkpt lat="42.352342" lon="-3.405783">
        <ele>1091.717</ele>
        <time>2021-07-25T08:06:35Z</time>
      </trkpt>
      <trkpt lat="42.352451" lon="-3.405494">
        <ele>1092.618</ele>
        <time>2021-07-25T08:06:45Z</time>
      </trkpt>
      <trkpt lat="42.352578" lon="-3.405172">
        <ele>1094.108</ele>
        <time>2021-07-25T08:06:56Z</time>
      </trkpt>
      <trkpt lat="42.352725" lon="-3.404819">
        <ele>1096.520</ele>
        <time>2021-07-25T08:07:09Z</time>
      </trkpt>
      <trkpt lat="42.352854" lon="-3.404496">
        <ele>1097.422</ele>
        <time>2021-07-25T08:07:20Z</time>
      </trkpt>
      <trkpt lat="42.352991" lon="-3.404171">
        <ele>1097.459</ele>
        <time>2021-07-25T08:07:31Z</time>
      </trkpt>
      <trkpt lat="42.353105" lon="-3.403869">
        <ele>1098.419</ele>
        <time>2021-07-25T08:07:41Z</time>
      </trkpt>
      <trkpt lat="42.353215" lon="-3.403537">
        <ele>1099.853</ele>
        <time>2021-07-25T08:07:52Z</time>
      </trkpt>
      <trkpt lat="42.353303" lon="-3.403264">
        <ele>1101.821</ele>
        <time>2021-07-25T08:08:01Z</time>
      </trkpt>
      <trkpt lat="42.353408" lon="-3.402930">
        <ele>1103.788</ele>
        <time>2021-07-25T08:08:12Z</time>
      </trkpt>
      <trkpt lat="42.353498" lon="-3.402638">
        <ele>1104.296</ele>
        <time>2021-07-25T08:08:22Z</time>
      </trkpt>
      <trkpt lat="42.353580" lon="-3.402386">
        <ele>1105.179</ele>
        <time>2021-07-25T08:08:31Z</time>
      </trkpt>
      <trkpt lat="42.353666" lon="-3.402122">
        <ele>1106.605</ele>
        <time>2021-07-25T08:08:40Z</time>
      </trkpt>
      <trkpt lat="42.353752" lon="-3.401836">
        <ele>1107.125</ele>
        <time>2021-07-25T08:08:49Z</time>
      </trkpt>
      <trkpt lat="42.353868" lon="-3.401473">
        <ele>1108.508</ele>
        <time>2021-07-25T08:09:01Z</time>
      </trkpt>
      <trkpt lat="42.353954" lon="-3.401235">
        <ele>1109.964</ele>
        <time>2021-07-25T08:09:09Z</time>
      </trkpt>
      <trkpt lat="42.354039" lon="-3.400972">
        <ele>1110.976</ele>
        <time>2021-07-25T08:09:18Z</time>
      </trkpt>
      <trkpt lat="42.354137" lon="-3.400665">
        <ele>1111.423</ele>
        <time>2021-07-25T08:09:28Z</time>
      </trkpt>
      <trkpt lat="42.354226" lon="-3.400386">
        <ele>1111.913</ele>
        <time>2021-07-25T08:09:37Z</time>
      </trkpt>
      <trkpt lat="42.354323" lon="-3.400089">
        <ele>1112.867</ele>
        <time>2021-07-25T08:09:46Z</time>
      </trkpt>
      <trkpt lat="42.354447" lon="-3.399710">
        <ele>1112.855</ele>
        <time>2021-07-25T08:09:57Z</time>
      </trkpt>
      <trkpt lat="42.354593" lon="-3.399278">
        <ele>1113.372</ele>
        <time>2021-07-25T08:10:09Z</time>
      </trkpt>
      <trkpt lat="42.354709" lon="-3.398903">
        <ele>1114.720</ele>
        <time>2021-07-25T08:10:20Z</time>
      </trkpt>
      <trkpt lat="42.354850" lon="-3.398481">
        <ele>1115.282</ele>
        <time>2021-07-25T08:10:32Z</time>
      </trkpt>
      <trkpt lat="42.354949" lon="-3.398168">
        <ele>1115.243</ele>
        <time>2021-07-25T08:10:41Z</time>
      </trkpt>
      <trkpt lat="42.355043" lon="-3.397893">
        <ele>1114.717</ele>
        <time>2021-07-25T08:10:49Z</time>
      </trkpt>
      <trkpt lat="42.355160" lon="-3.397522">
        <ele>1113.808</ele>
        <time>2021-07-25T08:10:59Z</time>
      </trkpt>
      <trkpt lat="42.355244" lon="-3.397257">
        <ele>1113.885</ele>
        <time>2021-07-25T08:11:06Z</time>
      </trkpt>
      <trkpt lat="42.355359" lon="-3.396906">
        <ele>1114.327</ele>
        <time>2021-07-25T08:11:15Z</time>
      </trkpt>
      <trkpt lat="42.355489" lon="-3.396493">
        <ele>1115.264</ele>
        <time>2021-07-25T08:11:25Z</time>
      </trkpt>
      <trkpt lat="42.355617" lon="-3.396118">
        <ele>1114.744</ele>
        <time>2021-07-25T08:11:34Z</time>
      </trkpt>
      <trkpt lat="42.355759" lon="-3.395687">
        <ele>1115.268</ele>
        <time>2021-07-25T08:11:44Z</time>
      </trkpt>
      <trkpt lat="42.355884" lon="-3.395292">
        <ele>1114.776</ele>
        <time>2021-07-25T08:11:53Z</time>
      </trkpt>
      <trkpt lat="42.356022" lon="-3.394848">
        <ele>1113.813</ele>
        <time>2021-07-25T08:12:03Z</time>
      </trkpt>
      <trkpt lat="42.356192" lon="-3.394353">
        <ele>1114.391</ele>
        <time>2021-07-25T08:12:14Z</time>
      </trkpt>
      <trkpt lat="42.356302" lon="-3.393999">
        <ele>1114.762</ele>
        <time>2021-07-25T08:12:23Z</time>
      </trkpt>
      <trkpt lat="42.356351" lon="-3.393847">
        <ele>1115.283</ele>
        <time>2021-07-25T08:12:30Z</time>
      </trkpt>
      <trkpt lat="42.356439" lon="-3.393586">
        <ele>1116.211</ele>
        <time>2021-07-25T08:12:39Z</time>
      </trkpt>
      <trkpt lat="42.356560" lon="-3.393234">
        <ele>1118.108</ele>
        <time>2021-07-25T08:12:51Z</time>
      </trkpt>
      <trkpt lat="42.356671" lon="-3.392898">
        <ele>1120.063</ele>
        <time>2021-07-25T08:13:02Z</time>
      </trkpt>
      <trkpt lat="42.356760" lon="-3.392628">
        <ele>1121.085</ele>
        <time>2021-07-25T08:13:11Z</time>
      </trkpt>
      <trkpt lat="42.356864" lon="-3.392285">
        <ele>1123.432</ele>
        <time>2021-07-25T08:13:22Z</time>
      </trkpt>
      <trkpt lat="42.356981" lon="-3.391912">
        <ele>1123.912</ele>
        <time>2021-07-25T08:13:32Z</time>
      </trkpt>
      <trkpt lat="42.357147" lon="-3.391406">
        <ele>1122.436</ele>
        <time>2021-07-25T08:13:44Z</time>
      </trkpt>
      <trkpt lat="42.357203" lon="-3.391221">
        <ele>1122.034</ele>
        <time>2021-07-25T08:13:50Z</time>
      </trkpt>
      <trkpt lat="42.357216" lon="-3.391176">
        <ele>1122.031</ele>
        <time>2021-07-25T08:13:56Z</time>
      </trkpt>
      <trkpt lat="42.357225" lon="-3.391154">
        <ele>1122.079</ele>
        <time>2021-07-25T08:13:57Z</time>
      </trkpt>
      <trkpt lat="42.357294" lon="-3.390950">
        <ele>1121.563</ele>
        <time>2021-07-25T08:14:04Z</time>
      </trkpt>
      <trkpt lat="42.357370" lon="-3.390704">
        <ele>1121.544</ele>
        <time>2021-07-25T08:14:11Z</time>
      </trkpt>
      <trkpt lat="42.357482" lon="-3.390355">
        <ele>1120.518</ele>
        <time>2021-07-25T08:14:18Z</time>
      </trkpt>
      <trkpt lat="42.357683" lon="-3.389738">
        <ele>1118.108</ele>
        <time>2021-07-25T08:14:27Z</time>
      </trkpt>
      <trkpt lat="42.357881" lon="-3.389125">
        <ele>1115.733</ele>
        <time>2021-07-25T08:14:34Z</time>
      </trkpt>
      <trkpt lat="42.358187" lon="-3.388187">
        <ele>1112.855</ele>
        <time>2021-07-25T08:14:43Z</time>
      </trkpt>
      <trkpt lat="42.358437" lon="-3.387433">
        <ele>1112.842</ele>
        <time>2021-07-25T08:14:51Z</time>
      </trkpt>
      <trkpt lat="42.358534" lon="-3.387181">
        <ele>1114.312</ele>
        <time>2021-07-25T08:14:56Z</time>
      </trkpt>
      <trkpt lat="42.358611" lon="-3.387002">
        <ele>1115.286</ele>
        <time>2021-07-25T08:15:02Z</time>
      </trkpt>
      <trkpt lat="42.358750" lon="-3.386733">
        <ele>1117.144</ele>
        <time>2021-07-25T08:15:10Z</time>
      </trkpt>
      <trkpt lat="42.358923" lon="-3.386463">
        <ele>1118.661</ele>
        <time>2021-07-25T08:15:20Z</time>
      </trkpt>
      <trkpt lat="42.359104" lon="-3.386226">
        <ele>1120.069</ele>
        <time>2021-07-25T08:15:29Z</time>
      </trkpt>
      <trkpt lat="42.359365" lon="-3.385919">
        <ele>1121.018</ele>
        <time>2021-07-25T08:15:41Z</time>
      </trkpt>
      <trkpt lat="42.359597" lon="-3.385651">
        <ele>1121.598</ele>
        <time>2021-07-25T08:15:51Z</time>
      </trkpt>
      <trkpt lat="42.359846" lon="-3.385292">
        <ele>1122.417</ele>
        <time>2021-07-25T08:16:02Z</time>
      </trkpt>
      <trkpt lat="42.360037" lon="-3.384916">
        <ele>1121.508</ele>
        <time>2021-07-25T08:16:12Z</time>
      </trkpt>
      <trkpt lat="42.360176" lon="-3.384550">
        <ele>1122.068</ele>
        <time>2021-07-25T08:16:21Z</time>
      </trkpt>
      <trkpt lat="42.360313" lon="-3.384083">
        <ele>1122.490</ele>
        <time>2021-07-25T08:16:32Z</time>
      </trkpt>
      <trkpt lat="42.360437" lon="-3.383593">
        <ele>1122.437</ele>
        <time>2021-07-25T08:16:43Z</time>
      </trkpt>
      <trkpt lat="42.360560" lon="-3.383126">
        <ele>1122.477</ele>
        <time>2021-07-25T08:16:54Z</time>
      </trkpt>
      <trkpt lat="42.360699" lon="-3.382601">
        <ele>1122.061</ele>
        <time>2021-07-25T08:17:05Z</time>
      </trkpt>
      <trkpt lat="42.360818" lon="-3.382171">
        <ele>1122.059</ele>
        <time>2021-07-25T08:17:14Z</time>
      </trkpt>
      <trkpt lat="42.361036" lon="-3.381594">
        <ele>1120.526</ele>
        <time>2021-07-25T08:17:26Z</time>
      </trkpt>
      <trkpt lat="42.361287" lon="-3.381153">
        <ele>1120.514</ele>
        <time>2021-07-25T08:17:37Z</time>
      </trkpt>
      <trkpt lat="42.361526" lon="-3.380754">
        <ele>1121.524</ele>
        <time>2021-07-25T08:17:48Z</time>
      </trkpt>
      <trkpt lat="42.361719" lon="-3.380438">
        <ele>1123.404</ele>
        <time>2021-07-25T08:17:58Z</time>
      </trkpt>
      <trkpt lat="42.361928" lon="-3.380044">
        <ele>1123.914</ele>
        <time>2021-07-25T08:18:10Z</time>
      </trkpt>
      <trkpt lat="42.362096" lon="-3.379626">
        <ele>1124.408</ele>
        <time>2021-07-25T08:18:21Z</time>
      </trkpt>
      <trkpt lat="42.362237" lon="-3.379111">
        <ele>1123.929</ele>
        <time>2021-07-25T08:18:33Z</time>
      </trkpt>
      <trkpt lat="42.362326" lon="-3.378650">
        <ele>1123.491</ele>
        <time>2021-07-25T08:18:43Z</time>
      </trkpt>
      <trkpt lat="42.362423" lon="-3.378099">
        <ele>1122.938</ele>
        <time>2021-07-25T08:18:54Z</time>
      </trkpt>
      <trkpt lat="42.362525" lon="-3.377534">
        <ele>1122.028</ele>
        <time>2021-07-25T08:19:05Z</time>
      </trkpt>
      <trkpt lat="42.362639" lon="-3.376905">
        <ele>1120.592</ele>
        <time>2021-07-25T08:19:16Z</time>
      </trkpt>
      <trkpt lat="42.362738" lon="-3.376350">
        <ele>1119.130</ele>
        <time>2021-07-25T08:19:25Z</time>
      </trkpt>
      <trkpt lat="42.362859" lon="-3.375704">
        <ele>1117.667</ele>
        <time>2021-07-25T08:19:35Z</time>
      </trkpt>
      <trkpt lat="42.362972" lon="-3.375087">
        <ele>1116.755</ele>
        <time>2021-07-25T08:19:44Z</time>
      </trkpt>
      <trkpt lat="42.363084" lon="-3.374457">
        <ele>1116.234</ele>
        <time>2021-07-25T08:19:53Z</time>
      </trkpt>
      <trkpt lat="42.363184" lon="-3.373861">
        <ele>1115.255</ele>
        <time>2021-07-25T08:20:02Z</time>
      </trkpt>
      <trkpt lat="42.363292" lon="-3.373250">
        <ele>1114.310</ele>
        <time>2021-07-25T08:20:12Z</time>
      </trkpt>
      <trkpt lat="42.363426" lon="-3.372504">
        <ele>1113.308</ele>
        <time>2021-07-25T08:20:25Z</time>
      </trkpt>
      <trkpt lat="42.363534" lon="-3.371908">
        <ele>1111.950</ele>
        <time>2021-07-25T08:20:35Z</time>
      </trkpt>
      <trkpt lat="42.363627" lon="-3.371391">
        <ele>1110.972</ele>
        <time>2021-07-25T08:20:43Z</time>
      </trkpt>
      <trkpt lat="42.363749" lon="-3.370711">
        <ele>1109.579</ele>
        <time>2021-07-25T08:20:53Z</time>
      </trkpt>
      <trkpt lat="42.363822" lon="-3.370283">
        <ele>1109.039</ele>
        <time>2021-07-25T08:21:01Z</time>
      </trkpt>
      <trkpt lat="42.363910" lon="-3.369747">
        <ele>1108.533</ele>
        <time>2021-07-25T08:21:12Z</time>
      </trkpt>
      <trkpt lat="42.363971" lon="-3.369358">
        <ele>1109.551</ele>
        <time>2021-07-25T08:21:20Z</time>
      </trkpt>
      <trkpt lat="42.364038" lon="-3.368929">
        <ele>1110.988</ele>
        <time>2021-07-25T08:21:31Z</time>
      </trkpt>
      <trkpt lat="42.364097" lon="-3.368602">
        <ele>1113.316</ele>
        <time>2021-07-25T08:21:41Z</time>
      </trkpt>
      <trkpt lat="42.364116" lon="-3.368345">
        <ele>1114.394</ele>
        <time>2021-07-25T08:21:49Z</time>
      </trkpt>
      <trkpt lat="42.364126" lon="-3.368140">
        <ele>1115.757</ele>
        <time>2021-07-25T08:21:57Z</time>
      </trkpt>
      <trkpt lat="42.364139" lon="-3.367842">
        <ele>1117.122</ele>
        <time>2021-07-25T08:22:08Z</time>
      </trkpt>
      <trkpt lat="42.364129" lon="-3.367578">
        <ele>1118.608</ele>
        <time>2021-07-25T08:22:18Z</time>
      </trkpt>
      <trkpt lat="42.364104" lon="-3.367268">
        <ele>1120.066</ele>
        <time>2021-07-25T08:22:30Z</time>
      </trkpt>
      <trkpt lat="42.364087" lon="-3.367062">
        <ele>1121.548</ele>
        <time>2021-07-25T08:22:38Z</time>
      </trkpt>
      <trkpt lat="42.364060" lon="-3.366844">
        <ele>1122.995</ele>
        <time>2021-07-25T08:22:47Z</time>
      </trkpt>
      <trkpt lat="42.364022" lon="-3.366596">
        <ele>1123.965</ele>
        <time>2021-07-25T08:22:57Z</time>
      </trkpt>
      <trkpt lat="42.363971" lon="-3.366344">
        <ele>1125.829</ele>
        <time>2021-07-25T08:23:07Z</time>
      </trkpt>
      <trkpt lat="42.363924" lon="-3.366095">
        <ele>1126.317</ele>
        <time>2021-07-25T08:23:17Z</time>
      </trkpt>
      <trkpt lat="42.363881" lon="-3.365879">
        <ele>1127.214</ele>
        <time>2021-07-25T08:23:26Z</time>
      </trkpt>
      <trkpt lat="42.363850" lon="-3.365668">
        <ele>1128.252</ele>
        <time>2021-07-25T08:23:35Z</time>
      </trkpt>
      <trkpt lat="42.363797" lon="-3.365423">
        <ele>1129.694</ele>
        <time>2021-07-25T08:23:45Z</time>
      </trkpt>
      <trkpt lat="42.363751" lon="-3.365204">
        <ele>1130.657</ele>
        <time>2021-07-25T08:23:54Z</time>
      </trkpt>
      <trkpt lat="42.363716" lon="-3.365034">
        <ele>1131.622</ele>
        <time>2021-07-25T08:24:01Z</time>
      </trkpt>
      <trkpt lat="42.363677" lon="-3.364847">
        <ele>1133.508</ele>
        <time>2021-07-25T08:24:09Z</time>
      </trkpt>
      <trkpt lat="42.363643" lon="-3.364587">
        <ele>1134.426</ele>
        <time>2021-07-25T08:24:20Z</time>
      </trkpt>
      <trkpt lat="42.363619" lon="-3.364318">
        <ele>1135.998</ele>
        <time>2021-07-25T08:24:31Z</time>
      </trkpt>
      <trkpt lat="42.363605" lon="-3.364115">
        <ele>1136.415</ele>
        <time>2021-07-25T08:24:39Z</time>
      </trkpt>
      <trkpt lat="42.363594" lon="-3.363853">
        <ele>1137.875</ele>
        <time>2021-07-25T08:24:49Z</time>
      </trkpt>
      <trkpt lat="42.363593" lon="-3.363673">
        <ele>1138.329</ele>
        <time>2021-07-25T08:24:56Z</time>
      </trkpt>
      <trkpt lat="42.363598" lon="-3.363466">
        <ele>1139.317</ele>
        <time>2021-07-25T08:25:04Z</time>
      </trkpt>
      <trkpt lat="42.363599" lon="-3.363235">
        <ele>1140.294</ele>
        <time>2021-07-25T08:25:13Z</time>
      </trkpt>
      <trkpt lat="42.363607" lon="-3.363020">
        <ele>1141.232</ele>
        <time>2021-07-25T08:25:22Z</time>
      </trkpt>
      <trkpt lat="42.363619" lon="-3.362750">
        <ele>1141.213</ele>
        <time>2021-07-25T08:25:33Z</time>
      </trkpt>
      <trkpt lat="42.363631" lon="-3.362487">
        <ele>1142.143</ele>
        <time>2021-07-25T08:25:44Z</time>
      </trkpt>
      <trkpt lat="42.363650" lon="-3.362215">
        <ele>1143.107</ele>
        <time>2021-07-25T08:25:55Z</time>
      </trkpt>
      <trkpt lat="42.363665" lon="-3.361998">
        <ele>1144.108</ele>
        <time>2021-07-25T08:26:04Z</time>
      </trkpt>
      <trkpt lat="42.363691" lon="-3.361722">
        <ele>1144.578</ele>
        <time>2021-07-25T08:26:15Z</time>
      </trkpt>
      <trkpt lat="42.363711" lon="-3.361495">
        <ele>1145.590</ele>
        <time>2021-07-25T08:26:24Z</time>
      </trkpt>
      <trkpt lat="42.363747" lon="-3.361256">
        <ele>1146.017</ele>
        <time>2021-07-25T08:26:34Z</time>
      </trkpt>
      <trkpt lat="42.363774" lon="-3.361054">
        <ele>1146.067</ele>
        <time>2021-07-25T08:26:42Z</time>
      </trkpt>
      <trkpt lat="42.363797" lon="-3.360860">
        <ele>1146.041</ele>
        <time>2021-07-25T08:26:50Z</time>
      </trkpt>
      <trkpt lat="42.363824" lon="-3.360691">
        <ele>1146.069</ele>
        <time>2021-07-25T08:26:57Z</time>
      </trkpt>
      <trkpt lat="42.363872" lon="-3.360436">
        <ele>1146.516</ele>
        <time>2021-07-25T08:27:07Z</time>
      </trkpt>
      <trkpt lat="42.363917" lon="-3.360165">
        <ele>1147.944</ele>
        <time>2021-07-25T08:27:18Z</time>
      </trkpt>
      <trkpt lat="42.363957" lon="-3.359922">
        <ele>1150.311</ele>
        <time>2021-07-25T08:27:28Z</time>
      </trkpt>
      <trkpt lat="42.364019" lon="-3.359650">
        <ele>1151.321</ele>
        <time>2021-07-25T08:27:39Z</time>
      </trkpt>
      <trkpt lat="42.364080" lon="-3.359348">
        <ele>1152.203</ele>
        <time>2021-07-25T08:27:50Z</time>
      </trkpt>
      <trkpt lat="42.364150" lon="-3.359036">
        <ele>1153.708</ele>
        <time>2021-07-25T08:28:02Z</time>
      </trkpt>
      <trkpt lat="42.364198" lon="-3.358812">
        <ele>1154.668</ele>
        <time>2021-07-25T08:28:11Z</time>
      </trkpt>
      <trkpt lat="42.364254" lon="-3.358550">
        <ele>1155.650</ele>
        <time>2021-07-25T08:28:21Z</time>
      </trkpt>
      <trkpt lat="42.364320" lon="-3.358245">
        <ele>1157.047</ele>
        <time>2021-07-25T08:28:32Z</time>
      </trkpt>
      <trkpt lat="42.364376" lon="-3.357950">
        <ele>1159.097</ele>
        <time>2021-07-25T08:28:43Z</time>
      </trkpt>
      <trkpt lat="42.364397" lon="-3.357814">
        <ele>1160.421</ele>
        <time>2021-07-25T08:28:51Z</time>
      </trkpt>
      <trkpt lat="42.364408" lon="-3.357827">
        <ele>1159.099</ele>
        <time>2021-07-25T08:29:02Z</time>
      </trkpt>
      <trkpt lat="42.364394" lon="-3.357804">
        <ele>1157.556</ele>
        <time>2021-07-25T08:29:18Z</time>
      </trkpt>
      <trkpt lat="42.364395" lon="-3.357834">
        <ele>1157.044</ele>
        <time>2021-07-25T08:29:40Z</time>
      </trkpt>
      <trkpt lat="42.364400" lon="-3.357823">
        <ele>1158.579</ele>
        <time>2021-07-25T08:30:03Z</time>
      </trkpt>
      <trkpt lat="42.364404" lon="-3.357819">
        <ele>1159.405</ele>
        <time>2021-07-25T08:30:21Z</time>
      </trkpt>
      <trkpt lat="42.364394" lon="-3.357799">
        <ele>1160.925</ele>
        <time>2021-07-25T08:30:31Z</time>
      </trkpt>
      <trkpt lat="42.364392" lon="-3.357796">
        <ele>1161.408</ele>
        <time>2021-07-25T08:30:46Z</time>
      </trkpt>
      <trkpt lat="42.364422" lon="-3.357659">
        <ele>1161.844</ele>
        <time>2021-07-25T08:30:53Z</time>
      </trkpt>
      <trkpt lat="42.364462" lon="-3.357466">
        <ele>1162.886</ele>
        <time>2021-07-25T08:31:01Z</time>
      </trkpt>
      <trkpt lat="42.364516" lon="-3.357236">
        <ele>1163.313</ele>
        <time>2021-07-25T08:31:09Z</time>
      </trkpt>
      <trkpt lat="42.364542" lon="-3.357073">
        <ele>1163.353</ele>
        <time>2021-07-25T08:31:16Z</time>
      </trkpt>
      <trkpt lat="42.364544" lon="-3.357084">
        <ele>1162.827</ele>
        <time>2021-07-25T08:31:35Z</time>
      </trkpt>
      <trkpt lat="42.364560" lon="-3.357080">
        <ele>1164.245</ele>
        <time>2021-07-25T08:31:57Z</time>
      </trkpt>
      <trkpt lat="42.364569" lon="-3.357047">
        <ele>1163.872</ele>
        <time>2021-07-25T08:32:07Z</time>
      </trkpt>
      <trkpt lat="42.364612" lon="-3.356807">
        <ele>1164.220</ele>
        <time>2021-07-25T08:32:15Z</time>
      </trkpt>
      <trkpt lat="42.364681" lon="-3.356475">
        <ele>1164.781</ele>
        <time>2021-07-25T08:32:24Z</time>
      </trkpt>
      <trkpt lat="42.364775" lon="-3.356009">
        <ele>1164.761</ele>
        <time>2021-07-25T08:32:36Z</time>
      </trkpt>
      <trkpt lat="42.364852" lon="-3.355661">
        <ele>1164.717</ele>
        <time>2021-07-25T08:32:44Z</time>
      </trkpt>
      <trkpt lat="42.364949" lon="-3.355189">
        <ele>1164.208</ele>
        <time>2021-07-25T08:32:54Z</time>
      </trkpt>
      <trkpt lat="42.365048" lon="-3.354683">
        <ele>1163.395</ele>
        <time>2021-07-25T08:33:04Z</time>
      </trkpt>
      <trkpt lat="42.365155" lon="-3.354171">
        <ele>1162.887</ele>
        <time>2021-07-25T08:33:14Z</time>
      </trkpt>
      <trkpt lat="42.365280" lon="-3.353614">
        <ele>1163.364</ele>
        <time>2021-07-25T08:33:25Z</time>
      </trkpt>
      <trkpt lat="42.365400" lon="-3.353026">
        <ele>1163.354</ele>
        <time>2021-07-25T08:33:37Z</time>
      </trkpt>
      <trkpt lat="42.365493" lon="-3.352575">
        <ele>1163.358</ele>
        <time>2021-07-25T08:33:46Z</time>
      </trkpt>
      <trkpt lat="42.365610" lon="-3.352036">
        <ele>1162.816</ele>
        <time>2021-07-25T08:33:57Z</time>
      </trkpt>
      <trkpt lat="42.365729" lon="-3.351513">
        <ele>1162.343</ele>
        <time>2021-07-25T08:34:07Z</time>
      </trkpt>
      <trkpt lat="42.365901" lon="-3.350930">
        <ele>1160.441</ele>
        <time>2021-07-25T08:34:17Z</time>
      </trkpt>
      <trkpt lat="42.366085" lon="-3.350460">
        <ele>1159.926</ele>
        <time>2021-07-25T08:34:24Z</time>
      </trkpt>
      <trkpt lat="42.366368" lon="-3.349983">
        <ele>1158.047</ele>
        <time>2021-07-25T08:34:31Z</time>
      </trkpt>
      <trkpt lat="42.366826" lon="-3.349458">
        <ele>1154.211</ele>
        <time>2021-07-25T08:34:39Z</time>
      </trkpt>
      <trkpt lat="42.367423" lon="-3.349005">
        <ele>1150.308</ele>
        <time>2021-07-25T08:34:47Z</time>
      </trkpt>
      <trkpt lat="42.368340" lon="-3.348380">
        <ele>1144.149</ele>
        <time>2021-07-25T08:34:58Z</time>
      </trkpt>
      <trkpt lat="42.368708" lon="-3.348124">
        <ele>1141.761</ele>
        <time>2021-07-25T08:35:03Z</time>
      </trkpt>
      <trkpt lat="42.369308" lon="-3.347635">
        <ele>1138.358</ele>
        <time>2021-07-25T08:35:11Z</time>
      </trkpt>
      <trkpt lat="42.369747" lon="-3.347058">
        <ele>1135.998</ele>
        <time>2021-07-25T08:35:18Z</time>
      </trkpt>
      <trkpt lat="42.370265" lon="-3.346098">
        <ele>1132.552</ele>
        <time>2021-07-25T08:35:28Z</time>
      </trkpt>
      <trkpt lat="42.370671" lon="-3.345317">
        <ele>1131.640</ele>
        <time>2021-07-25T08:35:37Z</time>
      </trkpt>
      <trkpt lat="42.370890" lon="-3.344886">
        <ele>1132.047</ele>
        <time>2021-07-25T08:35:44Z</time>
      </trkpt>
      <trkpt lat="42.371027" lon="-3.344629">
        <ele>1133.095</ele>
        <time>2021-07-25T08:35:51Z</time>
      </trkpt>
      <trkpt lat="42.371171" lon="-3.344363">
        <ele>1134.091</ele>
        <time>2021-07-25T08:36:00Z</time>
      </trkpt>
      <trkpt lat="42.371315" lon="-3.344086">
        <ele>1135.481</ele>
        <time>2021-07-25T08:36:09Z</time>
      </trkpt>
      <trkpt lat="42.371454" lon="-3.343808">
        <ele>1136.919</ele>
        <time>2021-07-25T08:36:19Z</time>
      </trkpt>
      <trkpt lat="42.371514" lon="-3.343684">
        <ele>1136.908</ele>
        <time>2021-07-25T08:36:26Z</time>
      </trkpt>
      <trkpt lat="42.371636" lon="-3.343446">
        <ele>1138.366</ele>
        <time>2021-07-25T08:36:35Z</time>
      </trkpt>
      <trkpt lat="42.371758" lon="-3.343223">
        <ele>1139.378</ele>
        <time>2021-07-25T08:36:44Z</time>
      </trkpt>
      <trkpt lat="42.371894" lon="-3.342955">
        <ele>1140.715</ele>
        <time>2021-07-25T08:36:55Z</time>
      </trkpt>
      <trkpt lat="42.372017" lon="-3.342751">
        <ele>1141.795</ele>
        <time>2021-07-25T08:37:04Z</time>
      </trkpt>
      <trkpt lat="42.372138" lon="-3.342526">
        <ele>1142.619</ele>
        <time>2021-07-25T08:37:13Z</time>
      </trkpt>
      <trkpt lat="42.372294" lon="-3.342239">
        <ele>1143.637</ele>
        <time>2021-07-25T08:37:24Z</time>
      </trkpt>
      <trkpt lat="42.372437" lon="-3.341961">
        <ele>1145.024</ele>
        <time>2021-07-25T08:37:35Z</time>
      </trkpt>
      <trkpt lat="42.372560" lon="-3.341721">
        <ele>1146.082</ele>
        <time>2021-07-25T08:37:44Z</time>
      </trkpt>
      <trkpt lat="42.372695" lon="-3.341437">
        <ele>1147.914</ele>
        <time>2021-07-25T08:37:54Z</time>
      </trkpt>
      <trkpt lat="42.372832" lon="-3.341141">
        <ele>1147.454</ele>
        <time>2021-07-25T08:38:03Z</time>
      </trkpt>
      <trkpt lat="42.372957" lon="-3.340787">
        <ele>1146.909</ele>
        <time>2021-07-25T08:38:12Z</time>
      </trkpt>
      <trkpt lat="42.373072" lon="-3.340352">
        <ele>1146.508</ele>
        <time>2021-07-25T08:38:22Z</time>
      </trkpt>
      <trkpt lat="42.373158" lon="-3.339860">
        <ele>1145.588</ele>
        <time>2021-07-25T08:38:33Z</time>
      </trkpt>
      <trkpt lat="42.373220" lon="-3.339363">
        <ele>1144.520</ele>
        <time>2021-07-25T08:38:42Z</time>
      </trkpt>
      <trkpt lat="42.373298" lon="-3.338654">
        <ele>1142.137</ele>
        <time>2021-07-25T08:38:52Z</time>
      </trkpt>
      <trkpt lat="42.373371" lon="-3.338032">
        <ele>1139.347</ele>
        <time>2021-07-25T08:38:59Z</time>
      </trkpt>
      <trkpt lat="42.373388" lon="-3.337807">
        <ele>1137.861</ele>
        <time>2021-07-25T08:39:03Z</time>
      </trkpt>
      <trkpt lat="42.373361" lon="-3.337652">
        <ele>1136.929</ele>
        <time>2021-07-25T08:39:08Z</time>
      </trkpt>
      <trkpt lat="42.373352" lon="-3.337636">
        <ele>1136.426</ele>
        <time>2021-07-25T08:39:12Z</time>
      </trkpt>
      <trkpt lat="42.373358" lon="-3.337633">
        <ele>1137.864</ele>
        <time>2021-07-25T08:39:25Z</time>
      </trkpt>
      <trkpt lat="42.373335" lon="-3.337624">
        <ele>1137.814</ele>
        <time>2021-07-25T08:39:44Z</time>
      </trkpt>
      <trkpt lat="42.373334" lon="-3.337620">
        <ele>1135.954</ele>
        <time>2021-07-25T08:40:12Z</time>
      </trkpt>
      <trkpt lat="42.373359" lon="-3.337624">
        <ele>1134.909</ele>
        <time>2021-07-25T08:40:37Z</time>
      </trkpt>
      <trkpt lat="42.373370" lon="-3.337629">
        <ele>1135.408</ele>
        <time>2021-07-25T08:41:00Z</time>
      </trkpt>
      <trkpt lat="42.373379" lon="-3.337630">
        <ele>1136.428</ele>
        <time>2021-07-25T08:41:21Z</time>
      </trkpt>
      <trkpt lat="42.373385" lon="-3.337633">
        <ele>1135.920</ele>
        <time>2021-07-25T08:41:45Z</time>
      </trkpt>
      <trkpt lat="42.373382" lon="-3.337643">
        <ele>1137.347</ele>
        <time>2021-07-25T08:42:06Z</time>
      </trkpt>
      <trkpt lat="42.373372" lon="-3.337640">
        <ele>1138.357</ele>
        <time>2021-07-25T08:42:22Z</time>
      </trkpt>
      <trkpt lat="42.373364" lon="-3.337635">
        <ele>1137.881</ele>
        <time>2021-07-25T08:42:34Z</time>
      </trkpt>
      <trkpt lat="42.373352" lon="-3.337627">
        <ele>1137.339</ele>
        <time>2021-07-25T08:42:45Z</time>
      </trkpt>
      <trkpt lat="42.373361" lon="-3.337611">
        <ele>1137.866</ele>
        <time>2021-07-25T08:42:51Z</time>
      </trkpt>
      <trkpt lat="42.373370" lon="-3.337594">
        <ele>1137.854</ele>
        <time>2021-07-25T08:42:52Z</time>
      </trkpt>
      <trkpt lat="42.373435" lon="-3.337411">
        <ele>1137.893</ele>
        <time>2021-07-25T08:43:00Z</time>
      </trkpt>
      <trkpt lat="42.373479" lon="-3.337143">
        <ele>1135.965</ele>
        <time>2021-07-25T08:43:06Z</time>
      </trkpt>
      <trkpt lat="42.373536" lon="-3.336692">
        <ele>1133.521</ele>
        <time>2021-07-25T08:43:12Z</time>
      </trkpt>
      <trkpt lat="42.373628" lon="-3.335908">
        <ele>1130.108</ele>
        <time>2021-07-25T08:43:20Z</time>
      </trkpt>
      <trkpt lat="42.373760" lon="-3.334916">
        <ele>1126.366</ele>
        <time>2021-07-25T08:43:29Z</time>
      </trkpt>
      <trkpt lat="42.373964" lon="-3.334249">
        <ele>1122.968</ele>
        <time>2021-07-25T08:43:35Z</time>
      </trkpt>
      <trkpt lat="42.374303" lon="-3.333602">
        <ele>1119.135</ele>
        <time>2021-07-25T08:43:41Z</time>
      </trkpt>
      <trkpt lat="42.374762" lon="-3.332968">
        <ele>1114.785</ele>
        <time>2021-07-25T08:43:48Z</time>
      </trkpt>
      <trkpt lat="42.374903" lon="-3.332754">
        <ele>1113.369</ele>
        <time>2021-07-25T08:43:50Z</time>
      </trkpt>
      <trkpt lat="42.374965" lon="-3.332632">
        <ele>1112.317</ele>
        <time>2021-07-25T08:43:51Z</time>
      </trkpt>
      <trkpt lat="42.375212" lon="-3.331911">
        <ele>1106.664</ele>
        <time>2021-07-25T08:43:56Z</time>
      </trkpt>
      <trkpt lat="42.375377" lon="-3.331069">
        <ele>1100.882</ele>
        <time>2021-07-25T08:44:02Z</time>
      </trkpt>
      <trkpt lat="42.375562" lon="-3.330288">
        <ele>1096.578</ele>
        <time>2021-07-25T08:44:08Z</time>
      </trkpt>
      <trkpt lat="42.375606" lon="-3.330171">
        <ele>1095.533</ele>
        <time>2021-07-25T08:44:09Z</time>
      </trkpt>
      <trkpt lat="42.375659" lon="-3.330060">
        <ele>1095.026</ele>
        <time>2021-07-25T08:44:10Z</time>
      </trkpt>
      <trkpt lat="42.375846" lon="-3.329758">
        <ele>1093.608</ele>
        <time>2021-07-25T08:44:13Z</time>
      </trkpt>
      <trkpt lat="42.376464" lon="-3.328912">
        <ele>1088.864</ele>
        <time>2021-07-25T08:44:22Z</time>
      </trkpt>
      <trkpt lat="42.376762" lon="-3.328266">
        <ele>1085.456</ele>
        <time>2021-07-25T08:44:28Z</time>
      </trkpt>
      <trkpt lat="42.376792" lon="-3.328142">
        <ele>1084.983</ele>
        <time>2021-07-25T08:44:29Z</time>
      </trkpt>
      <trkpt lat="42.376947" lon="-3.327141">
        <ele>1080.673</ele>
        <time>2021-07-25T08:44:37Z</time>
      </trkpt>
      <trkpt lat="42.377117" lon="-3.325962">
        <ele>1074.427</ele>
        <time>2021-07-25T08:44:46Z</time>
      </trkpt>
      <trkpt lat="42.377286" lon="-3.324830">
        <ele>1068.125</ele>
        <time>2021-07-25T08:44:54Z</time>
      </trkpt>
      <trkpt lat="42.377471" lon="-3.323424">
        <ele>1060.972</ele>
        <time>2021-07-25T08:45:03Z</time>
      </trkpt>
      <trkpt lat="42.377705" lon="-3.322579">
        <ele>1056.130</ele>
        <time>2021-07-25T08:45:09Z</time>
      </trkpt>
      <trkpt lat="42.378091" lon="-3.321630">
        <ele>1050.896</ele>
        <time>2021-07-25T08:45:16Z</time>
      </trkpt>
      <trkpt lat="42.378613" lon="-3.320372">
        <ele>1044.131</ele>
        <time>2021-07-25T08:45:25Z</time>
      </trkpt>
      <trkpt lat="42.379024" lon="-3.319243">
        <ele>1037.824</ele>
        <time>2021-07-25T08:45:33Z</time>
      </trkpt>
      <trkpt lat="42.379240" lon="-3.318382">
        <ele>1033.008</ele>
        <time>2021-07-25T08:45:39Z</time>
      </trkpt>
      <trkpt lat="42.379257" lon="-3.318240">
        <ele>1032.196</ele>
        <time>2021-07-25T08:45:40Z</time>
      </trkpt>
      <trkpt lat="42.379286" lon="-3.317329">
        <ele>1028.238</ele>
        <time>2021-07-25T08:45:46Z</time>
      </trkpt>
      <trkpt lat="42.379389" lon="-3.316095">
        <ele>1022.565</ele>
        <time>2021-07-25T08:45:54Z</time>
      </trkpt>
      <trkpt lat="42.379473" lon="-3.314906">
        <ele>1015.725</ele>
        <time>2021-07-25T08:46:02Z</time>
      </trkpt>
      <trkpt lat="42.379560" lon="-3.313461">
        <ele>1008.589</ele>
        <time>2021-07-25T08:46:11Z</time>
      </trkpt>
      <trkpt lat="42.379509" lon="-3.312711">
        <ele>1004.767</ele>
        <time>2021-07-25T08:46:16Z</time>
      </trkpt>
      <trkpt lat="42.379315" lon="-3.311683">
        <ele>999.974</ele>
        <time>2021-07-25T08:46:23Z</time>
      </trkpt>
      <trkpt lat="42.379092" lon="-3.311120">
        <ele>996.092</ele>
        <time>2021-07-25T08:46:28Z</time>
      </trkpt>
      <trkpt lat="42.378764" lon="-3.310537">
        <ele>992.749</ele>
        <time>2021-07-25T08:46:34Z</time>
      </trkpt>
      <trkpt lat="42.378691" lon="-3.310363">
        <ele>991.702</ele>
        <time>2021-07-25T08:46:36Z</time>
      </trkpt>
      <trkpt lat="42.378663" lon="-3.310254">
        <ele>991.222</ele>
        <time>2021-07-25T08:46:37Z</time>
      </trkpt>
      <trkpt lat="42.378654" lon="-3.310140">
        <ele>990.708</ele>
        <time>2021-07-25T08:46:38Z</time>
      </trkpt>
      <trkpt lat="42.378665" lon="-3.310040">
        <ele>990.361</ele>
        <time>2021-07-25T08:46:39Z</time>
      </trkpt>
      <trkpt lat="42.378704" lon="-3.309940">
        <ele>989.883</ele>
        <time>2021-07-25T08:46:40Z</time>
      </trkpt>
      <trkpt lat="42.378757" lon="-3.309884">
        <ele>989.370</ele>
        <time>2021-07-25T08:46:41Z</time>
      </trkpt>
      <trkpt lat="42.378834" lon="-3.309844">
        <ele>988.310</ele>
        <time>2021-07-25T08:46:42Z</time>
      </trkpt>
      <trkpt lat="42.378916" lon="-3.309819">
        <ele>987.824</ele>
        <time>2021-07-25T08:46:43Z</time>
      </trkpt>
      <trkpt lat="42.378997" lon="-3.309811">
        <ele>987.492</ele>
        <time>2021-07-25T08:46:44Z</time>
      </trkpt>
      <trkpt lat="42.379082" lon="-3.309811">
        <ele>986.959</ele>
        <time>2021-07-25T08:46:45Z</time>
      </trkpt>
      <trkpt lat="42.379737" lon="-3.309786">
        <ele>982.167</ele>
        <time>2021-07-25T08:46:52Z</time>
      </trkpt>
      <trkpt lat="42.380353" lon="-3.309613">
        <ele>977.812</ele>
        <time>2021-07-25T08:46:58Z</time>
      </trkpt>
      <trkpt lat="42.381180" lon="-3.309341">
        <ele>972.532</ele>
        <time>2021-07-25T08:47:06Z</time>
      </trkpt>
      <trkpt lat="42.381856" lon="-3.309152">
        <ele>968.605</ele>
        <time>2021-07-25T08:47:13Z</time>
      </trkpt>
      <trkpt lat="42.382664" lon="-3.309003">
        <ele>963.808</ele>
        <time>2021-07-25T08:47:22Z</time>
      </trkpt>
      <trkpt lat="42.383133" lon="-3.308917">
        <ele>962.498</ele>
        <time>2021-07-25T08:47:28Z</time>
      </trkpt>
      <trkpt lat="42.383870" lon="-3.308870">
        <ele>960.430</ele>
        <time>2021-07-25T08:47:39Z</time>
      </trkpt>
      <trkpt lat="42.384237" lon="-3.308995">
        <ele>958.077</ele>
        <time>2021-07-25T08:47:45Z</time>
      </trkpt>
      <trkpt lat="42.384402" lon="-3.309050">
        <ele>956.627</ele>
        <time>2021-07-25T08:47:48Z</time>
      </trkpt>
      <trkpt lat="42.384464" lon="-3.309054">
        <ele>956.621</ele>
        <time>2021-07-25T08:47:49Z</time>
      </trkpt>
      <trkpt lat="42.384515" lon="-3.309047">
        <ele>956.149</ele>
        <time>2021-07-25T08:47:50Z</time>
      </trkpt>
      <trkpt lat="42.384572" lon="-3.309033">
        <ele>955.696</ele>
        <time>2021-07-25T08:47:51Z</time>
      </trkpt>
      <trkpt lat="42.384628" lon="-3.309015">
        <ele>955.644</ele>
        <time>2021-07-25T08:47:52Z</time>
      </trkpt>
      <trkpt lat="42.384925" lon="-3.308909">
        <ele>957.143</ele>
        <time>2021-07-25T08:47:59Z</time>
      </trkpt>
      <trkpt lat="42.385156" lon="-3.308893">
        <ele>957.664</ele>
        <time>2021-07-25T08:48:06Z</time>
      </trkpt>
      <trkpt lat="42.385502" lon="-3.308912">
        <ele>958.010</ele>
        <time>2021-07-25T08:48:15Z</time>
      </trkpt>
      <trkpt lat="42.385844" lon="-3.308930">
        <ele>959.008</ele>
        <time>2021-07-25T08:48:25Z</time>
      </trkpt>
      <trkpt lat="42.386142" lon="-3.308954">
        <ele>959.521</ele>
        <time>2021-07-25T08:48:34Z</time>
      </trkpt>
      <trkpt lat="42.386468" lon="-3.308954">
        <ele>959.043</ele>
        <time>2021-07-25T08:48:44Z</time>
      </trkpt>
      <trkpt lat="42.386471" lon="-3.308948">
        <ele>960.050</ele>
        <time>2021-07-25T08:48:48Z</time>
      </trkpt>
      <trkpt lat="42.386481" lon="-3.308951">
        <ele>961.910</ele>
        <time>2021-07-25T08:48:57Z</time>
      </trkpt>
      <trkpt lat="42.386471" lon="-3.308961">
        <ele>963.834</ele>
        <time>2021-07-25T08:49:10Z</time>
      </trkpt>
      <trkpt lat="42.386481" lon="-3.308946">
        <ele>963.872</ele>
        <time>2021-07-25T08:49:21Z</time>
      </trkpt>
      <trkpt lat="42.386587" lon="-3.308961">
        <ele>962.999</ele>
        <time>2021-07-25T08:49:28Z</time>
      </trkpt>
      <trkpt lat="42.386794" lon="-3.308945">
        <ele>962.947</ele>
        <time>2021-07-25T08:49:39Z</time>
      </trkpt>
      <trkpt lat="42.387015" lon="-3.308912">
        <ele>961.952</ele>
        <time>2021-07-25T08:49:49Z</time>
      </trkpt>
      <trkpt lat="42.387248" lon="-3.308861">
        <ele>960.053</ele>
        <time>2021-07-25T08:49:57Z</time>
      </trkpt>
      <trkpt lat="42.387469" lon="-3.308815">
        <ele>958.508</ele>
        <time>2021-07-25T08:50:06Z</time>
      </trkpt>
      <trkpt lat="42.387584" lon="-3.308790">
        <ele>957.608</ele>
        <time>2021-07-25T08:50:13Z</time>
      </trkpt>
      <trkpt lat="42.387619" lon="-3.308783">
        <ele>956.182</ele>
        <time>2021-07-25T08:50:24Z</time>
      </trkpt>
      <trkpt lat="42.387846" lon="-3.308744">
        <ele>955.224</ele>
        <time>2021-07-25T08:50:33Z</time>
      </trkpt>
      <trkpt lat="42.388101" lon="-3.308708">
        <ele>955.231</ele>
        <time>2021-07-25T08:50:44Z</time>
      </trkpt>
      <trkpt lat="42.388090" lon="-3.308702">
        <ele>954.251</ele>
        <time>2021-07-25T08:50:55Z</time>
      </trkpt>
      <trkpt lat="42.388140" lon="-3.308705">
        <ele>954.795</ele>
        <time>2021-07-25T08:51:04Z</time>
      </trkpt>
      <trkpt lat="42.388324" lon="-3.308677">
        <ele>954.293</ele>
        <time>2021-07-25T08:51:13Z</time>
      </trkpt>
      <trkpt lat="42.388413" lon="-3.308658">
        <ele>954.210</ele>
        <time>2021-07-25T08:51:20Z</time>
      </trkpt>
      <trkpt lat="42.388410" lon="-3.308650">
        <ele>954.288</ele>
        <time>2021-07-25T08:51:36Z</time>
      </trkpt>
      <trkpt lat="42.388460" lon="-3.308652">
        <ele>953.248</ele>
        <time>2021-07-25T08:51:45Z</time>
      </trkpt>
      <trkpt lat="42.388658" lon="-3.308641">
        <ele>953.261</ele>
        <time>2021-07-25T08:51:52Z</time>
      </trkpt>
      <trkpt lat="42.388802" lon="-3.308636">
        <ele>952.817</ele>
        <time>2021-07-25T08:51:59Z</time>
      </trkpt>
      <trkpt lat="42.388817" lon="-3.308634">
        <ele>954.208</ele>
        <time>2021-07-25T08:52:08Z</time>
      </trkpt>
      <trkpt lat="42.388818" lon="-3.308659">
        <ele>956.151</ele>
        <time>2021-07-25T08:52:24Z</time>
      </trkpt>
      <trkpt lat="42.388891" lon="-3.308649">
        <ele>956.173</ele>
        <time>2021-07-25T08:52:31Z</time>
      </trkpt>
      <trkpt lat="42.389108" lon="-3.308602">
        <ele>955.670</ele>
        <time>2021-07-25T08:52:40Z</time>
      </trkpt>
      <trkpt lat="42.389332" lon="-3.308503">
        <ele>954.250</ele>
        <time>2021-07-25T08:52:49Z</time>
      </trkpt>
      <trkpt lat="42.389568" lon="-3.308338">
        <ele>952.854</ele>
        <time>2021-07-25T08:52:56Z</time>
      </trkpt>
      <trkpt lat="42.389902" lon="-3.308134">
        <ele>948.942</ele>
        <time>2021-07-25T08:53:04Z</time>
      </trkpt>
      <trkpt lat="42.390220" lon="-3.307886">
        <ele>949.499</ele>
        <time>2021-07-25T08:53:11Z</time>
      </trkpt>
      <trkpt lat="42.390260" lon="-3.307839">
        <ele>949.477</ele>
        <time>2021-07-25T08:53:12Z</time>
      </trkpt>
      <trkpt lat="42.390293" lon="-3.307778">
        <ele>948.943</ele>
        <time>2021-07-25T08:53:13Z</time>
      </trkpt>
      <trkpt lat="42.390475" lon="-3.307397">
        <ele>946.564</ele>
        <time>2021-07-25T08:53:20Z</time>
      </trkpt>
      <trkpt lat="42.390801" lon="-3.306773">
        <ele>945.510</ele>
        <time>2021-07-25T08:53:32Z</time>
      </trkpt>
      <trkpt lat="42.391074" lon="-3.306260">
        <ele>946.008</ele>
        <time>2021-07-25T08:53:43Z</time>
      </trkpt>
      <trkpt lat="42.391305" lon="-3.305888">
        <ele>947.041</ele>
        <time>2021-07-25T08:53:53Z</time>
      </trkpt>
      <trkpt lat="42.391613" lon="-3.305580">
        <ele>947.513</ele>
        <time>2021-07-25T08:54:04Z</time>
      </trkpt>
      <trkpt lat="42.391961" lon="-3.305278">
        <ele>948.040</ele>
        <time>2021-07-25T08:54:15Z</time>
      </trkpt>
      <trkpt lat="42.392322" lon="-3.304978">
        <ele>948.060</ele>
        <time>2021-07-25T08:54:26Z</time>
      </trkpt>
      <trkpt lat="42.392713" lon="-3.304656">
        <ele>947.544</ele>
        <time>2021-07-25T08:54:37Z</time>
      </trkpt>
      <trkpt lat="42.393162" lon="-3.304270">
        <ele>946.572</ele>
        <time>2021-07-25T08:54:49Z</time>
      </trkpt>
      <trkpt lat="42.393563" lon="-3.303938">
        <ele>945.559</ele>
        <time>2021-07-25T08:55:00Z</time>
      </trkpt>
      <trkpt lat="42.394024" lon="-3.303555">
        <ele>944.667</ele>
        <time>2021-07-25T08:55:12Z</time>
      </trkpt>
      <trkpt lat="42.394384" lon="-3.303257">
        <ele>944.155</ele>
        <time>2021-07-25T08:55:21Z</time>
      </trkpt>
      <trkpt lat="42.394856" lon="-3.302863">
        <ele>944.107</ele>
        <time>2021-07-25T08:55:33Z</time>
      </trkpt>
      <trkpt lat="42.395242" lon="-3.302533">
        <ele>944.117</ele>
        <time>2021-07-25T08:55:43Z</time>
      </trkpt>
      <trkpt lat="42.395281" lon="-3.302502">
        <ele>944.108</ele>
        <time>2021-07-25T08:55:44Z</time>
      </trkpt>
      <trkpt lat="42.395320" lon="-3.302472">
        <ele>944.192</ele>
        <time>2021-07-25T08:55:45Z</time>
      </trkpt>
      <trkpt lat="42.395691" lon="-3.302159">
        <ele>944.114</ele>
        <time>2021-07-25T08:55:55Z</time>
      </trkpt>
      <trkpt lat="42.396173" lon="-3.301767">
        <ele>943.111</ele>
        <time>2021-07-25T08:56:08Z</time>
      </trkpt>
      <trkpt lat="42.396646" lon="-3.301373">
        <ele>943.161</ele>
        <time>2021-07-25T08:56:20Z</time>
      </trkpt>
      <trkpt lat="42.397089" lon="-3.300994">
        <ele>943.685</ele>
        <time>2021-07-25T08:56:31Z</time>
      </trkpt>
      <trkpt lat="42.397478" lon="-3.300665">
        <ele>944.133</ele>
        <time>2021-07-25T08:56:41Z</time>
      </trkpt>
      <trkpt lat="42.397865" lon="-3.300352">
        <ele>943.670</ele>
        <time>2021-07-25T08:56:51Z</time>
      </trkpt>
      <trkpt lat="42.397902" lon="-3.300319">
        <ele>943.638</ele>
        <time>2021-07-25T08:56:52Z</time>
      </trkpt>
      <trkpt lat="42.398293" lon="-3.299994">
        <ele>945.132</ele>
        <time>2021-07-25T08:57:03Z</time>
      </trkpt>
      <trkpt lat="42.398600" lon="-3.299729">
        <ele>947.592</ele>
        <time>2021-07-25T08:57:14Z</time>
      </trkpt>
      <trkpt lat="42.398865" lon="-3.299517">
        <ele>948.911</ele>
        <time>2021-07-25T08:57:24Z</time>
      </trkpt>
      <trkpt lat="42.399162" lon="-3.299261">
        <ele>950.408</ele>
        <time>2021-07-25T08:57:36Z</time>
      </trkpt>
      <trkpt lat="42.399330" lon="-3.299115">
        <ele>951.310</ele>
        <time>2021-07-25T08:57:43Z</time>
      </trkpt>
      <trkpt lat="42.399531" lon="-3.298954">
        <ele>950.892</ele>
        <time>2021-07-25T08:57:51Z</time>
      </trkpt>
      <trkpt lat="42.399744" lon="-3.298732">
        <ele>950.479</ele>
        <time>2021-07-25T08:58:01Z</time>
      </trkpt>
      <trkpt lat="42.399972" lon="-3.298437">
        <ele>950.459</ele>
        <time>2021-07-25T08:58:12Z</time>
      </trkpt>
      <trkpt lat="42.400156" lon="-3.298111">
        <ele>949.953</ele>
        <time>2021-07-25T08:58:22Z</time>
      </trkpt>
      <trkpt lat="42.400302" lon="-3.297775">
        <ele>949.961</ele>
        <time>2021-07-25T08:58:30Z</time>
      </trkpt>
      <trkpt lat="42.400447" lon="-3.297255">
        <ele>949.428</ele>
        <time>2021-07-25T08:58:41Z</time>
      </trkpt>
      <trkpt lat="42.400473" lon="-3.297147">
        <ele>948.936</ele>
        <time>2021-07-25T08:58:43Z</time>
      </trkpt>
      <trkpt lat="42.400486" lon="-3.297093">
        <ele>948.936</ele>
        <time>2021-07-25T08:58:44Z</time>
      </trkpt>
      <trkpt lat="42.400511" lon="-3.296974">
        <ele>948.417</ele>
        <time>2021-07-25T08:58:46Z</time>
      </trkpt>
      <trkpt lat="42.400525" lon="-3.296917">
        <ele>948.418</ele>
        <time>2021-07-25T08:58:47Z</time>
      </trkpt>
      <trkpt lat="42.400614" lon="-3.296472">
        <ele>947.008</ele>
        <time>2021-07-25T08:58:54Z</time>
      </trkpt>
      <trkpt lat="42.400628" lon="-3.296405">
        <ele>946.570</ele>
        <time>2021-07-25T08:58:55Z</time>
      </trkpt>
      <trkpt lat="42.400743" lon="-3.295838">
        <ele>944.122</ele>
        <time>2021-07-25T08:59:02Z</time>
      </trkpt>
      <trkpt lat="42.400889" lon="-3.295148">
        <ele>941.799</ele>
        <time>2021-07-25T08:59:09Z</time>
      </trkpt>
      <trkpt lat="42.401065" lon="-3.294317">
        <ele>939.399</ele>
        <time>2021-07-25T08:59:17Z</time>
      </trkpt>
      <trkpt lat="42.401244" lon="-3.293462">
        <ele>938.313</ele>
        <time>2021-07-25T08:59:27Z</time>
      </trkpt>
      <trkpt lat="42.401376" lon="-3.292798">
        <ele>937.471</ele>
        <time>2021-07-25T08:59:36Z</time>
      </trkpt>
      <trkpt lat="42.401511" lon="-3.292184">
        <ele>936.428</ele>
        <time>2021-07-25T08:59:45Z</time>
      </trkpt>
      <trkpt lat="42.401611" lon="-3.291591">
        <ele>935.036</ele>
        <time>2021-07-25T08:59:52Z</time>
      </trkpt>
      <trkpt lat="42.401696" lon="-3.290801">
        <ele>932.142</ele>
        <time>2021-07-25T09:00:00Z</time>
      </trkpt>
      <trkpt lat="42.401777" lon="-3.289843">
        <ele>928.222</ele>
        <time>2021-07-25T09:00:09Z</time>
      </trkpt>
      <trkpt lat="42.401849" lon="-3.288916">
        <ele>924.914</ele>
        <time>2021-07-25T09:00:17Z</time>
      </trkpt>
      <trkpt lat="42.401920" lon="-3.287964">
        <ele>921.508</ele>
        <time>2021-07-25T09:00:25Z</time>
      </trkpt>
      <trkpt lat="42.402014" lon="-3.286746">
        <ele>917.241</ele>
        <time>2021-07-25T09:00:35Z</time>
      </trkpt>
      <trkpt lat="42.402123" lon="-3.285601">
        <ele>914.323</ele>
        <time>2021-07-25T09:00:45Z</time>
      </trkpt>
      <trkpt lat="42.402337" lon="-3.284884">
        <ele>913.310</ele>
        <time>2021-07-25T09:00:53Z</time>
      </trkpt>
      <trkpt lat="42.402587" lon="-3.284400">
        <ele>912.960</ele>
        <time>2021-07-25T09:01:00Z</time>
      </trkpt>
      <trkpt lat="42.402822" lon="-3.284070">
        <ele>913.314</ele>
        <time>2021-07-25T09:01:07Z</time>
      </trkpt>
      <trkpt lat="42.403102" lon="-3.283736">
        <ele>914.882</ele>
        <time>2021-07-25T09:01:16Z</time>
      </trkpt>
      <trkpt lat="42.403398" lon="-3.283370">
        <ele>916.229</ele>
        <time>2021-07-25T09:01:27Z</time>
      </trkpt>
      <trkpt lat="42.403643" lon="-3.282975">
        <ele>917.717</ele>
        <time>2021-07-25T09:01:37Z</time>
      </trkpt>
      <trkpt lat="42.403835" lon="-3.282536">
        <ele>918.267</ele>
        <time>2021-07-25T09:01:46Z</time>
      </trkpt>
      <trkpt lat="42.403998" lon="-3.281949">
        <ele>918.281</ele>
        <time>2021-07-25T09:01:57Z</time>
      </trkpt>
      <trkpt lat="42.404127" lon="-3.281378">
        <ele>915.719</ele>
        <time>2021-07-25T09:02:06Z</time>
      </trkpt>
      <trkpt lat="42.404312" lon="-3.280561">
        <ele>912.408</ele>
        <time>2021-07-25T09:02:17Z</time>
      </trkpt>
      <trkpt lat="42.404439" lon="-3.279979">
        <ele>910.073</ele>
        <time>2021-07-25T09:02:24Z</time>
      </trkpt>
      <trkpt lat="42.404597" lon="-3.279280">
        <ele>906.195</ele>
        <time>2021-07-25T09:02:32Z</time>
      </trkpt>
      <trkpt lat="42.404771" lon="-3.278492">
        <ele>902.882</ele>
        <time>2021-07-25T09:02:40Z</time>
      </trkpt>
      <trkpt lat="42.404962" lon="-3.277638">
        <ele>900.862</ele>
        <time>2021-07-25T09:02:49Z</time>
      </trkpt>
      <trkpt lat="42.405102" lon="-3.276993">
        <ele>899.456</ele>
        <time>2021-07-25T09:02:57Z</time>
      </trkpt>
      <trkpt lat="42.405237" lon="-3.276363">
        <ele>896.554</ele>
        <time>2021-07-25T09:03:05Z</time>
      </trkpt>
      <trkpt lat="42.405334" lon="-3.275943">
        <ele>894.671</ele>
        <time>2021-07-25T09:03:12Z</time>
      </trkpt>
      <trkpt lat="42.405448" lon="-3.275429">
        <ele>892.299</ele>
        <time>2021-07-25T09:03:19Z</time>
      </trkpt>
      <trkpt lat="42.405616" lon="-3.274669">
        <ele>888.446</ele>
        <time>2021-07-25T09:03:28Z</time>
      </trkpt>
      <trkpt lat="42.405812" lon="-3.273782">
        <ele>884.588</ele>
        <time>2021-07-25T09:03:37Z</time>
      </trkpt>
      <trkpt lat="42.406036" lon="-3.272887">
        <ele>882.616</ele>
        <time>2021-07-25T09:03:45Z</time>
      </trkpt>
      <trkpt lat="42.406257" lon="-3.272337">
        <ele>882.108</ele>
        <time>2021-07-25T09:03:51Z</time>
      </trkpt>
      <trkpt lat="42.406543" lon="-3.271841">
        <ele>881.691</ele>
        <time>2021-07-25T09:03:59Z</time>
      </trkpt>
      <trkpt lat="42.406770" lon="-3.271444">
        <ele>880.713</ele>
        <time>2021-07-25T09:04:07Z</time>
      </trkpt>
      <trkpt lat="42.406972" lon="-3.271043">
        <ele>880.280</ele>
        <time>2021-07-25T09:04:15Z</time>
      </trkpt>
      <trkpt lat="42.407141" lon="-3.270568">
        <ele>878.340</ele>
        <time>2021-07-25T09:04:23Z</time>
      </trkpt>
      <trkpt lat="42.407264" lon="-3.269909">
        <ele>875.974</ele>
        <time>2021-07-25T09:04:32Z</time>
      </trkpt>
      <trkpt lat="42.407378" lon="-3.269112">
        <ele>873.542</ele>
        <time>2021-07-25T09:04:41Z</time>
      </trkpt>
      <trkpt lat="42.407526" lon="-3.268124">
        <ele>870.149</ele>
        <time>2021-07-25T09:04:51Z</time>
      </trkpt>
      <trkpt lat="42.407708" lon="-3.266862">
        <ele>866.757</ele>
        <time>2021-07-25T09:05:04Z</time>
      </trkpt>
      <trkpt lat="42.407818" lon="-3.266122">
        <ele>864.887</ele>
        <time>2021-07-25T09:05:13Z</time>
      </trkpt>
      <trkpt lat="42.407947" lon="-3.265232">
        <ele>862.942</ele>
        <time>2021-07-25T09:05:24Z</time>
      </trkpt>
      <trkpt lat="42.408051" lon="-3.264499">
        <ele>860.526</ele>
        <time>2021-07-25T09:05:33Z</time>
      </trkpt>
      <trkpt lat="42.408152" lon="-3.263797">
        <ele>858.508</ele>
        <time>2021-07-25T09:05:42Z</time>
      </trkpt>
      <trkpt lat="42.408162" lon="-3.263716">
        <ele>858.535</ele>
        <time>2021-07-25T09:05:43Z</time>
      </trkpt>
      <trkpt lat="42.408172" lon="-3.263635">
        <ele>858.187</ele>
        <time>2021-07-25T09:05:44Z</time>
      </trkpt>
      <trkpt lat="42.408291" lon="-3.262818">
        <ele>856.634</ele>
        <time>2021-07-25T09:05:55Z</time>
      </trkpt>
      <trkpt lat="42.408331" lon="-3.262536">
        <ele>855.724</ele>
        <time>2021-07-25T09:05:59Z</time>
      </trkpt>
      <trkpt lat="42.408344" lon="-3.262466">
        <ele>855.728</ele>
        <time>2021-07-25T09:06:00Z</time>
      </trkpt>
      <trkpt lat="42.408353" lon="-3.262401">
        <ele>855.796</ele>
        <time>2021-07-25T09:06:01Z</time>
      </trkpt>
      <trkpt lat="42.408362" lon="-3.262331">
        <ele>855.733</ele>
        <time>2021-07-25T09:06:02Z</time>
      </trkpt>
      <trkpt lat="42.408372" lon="-3.262266">
        <ele>855.731</ele>
        <time>2021-07-25T09:06:03Z</time>
      </trkpt>
      <trkpt lat="42.408530" lon="-3.261216">
        <ele>852.884</ele>
        <time>2021-07-25T09:06:18Z</time>
      </trkpt>
      <trkpt lat="42.408611" lon="-3.260726">
        <ele>851.307</ele>
        <time>2021-07-25T09:06:26Z</time>
      </trkpt>
      <trkpt lat="42.408619" lon="-3.260664">
        <ele>850.917</ele>
        <time>2021-07-25T09:06:30Z</time>
      </trkpt>
      <trkpt lat="42.408623" lon="-3.260668">
        <ele>849.908</ele>
        <time>2021-07-25T09:06:44Z</time>
      </trkpt>
      <trkpt lat="42.408636" lon="-3.260587">
        <ele>849.915</ele>
        <time>2021-07-25T09:06:52Z</time>
      </trkpt>
      <trkpt lat="42.408693" lon="-3.260290">
        <ele>849.917</ele>
        <time>2021-07-25T09:07:01Z</time>
      </trkpt>
      <trkpt lat="42.408741" lon="-3.260079">
        <ele>849.944</ele>
        <time>2021-07-25T09:07:09Z</time>
      </trkpt>
      <trkpt lat="42.408743" lon="-3.260062">
        <ele>850.464</ele>
        <time>2021-07-25T09:07:14Z</time>
      </trkpt>
      <trkpt lat="42.408759" lon="-3.260031">
        <ele>850.468</ele>
        <time>2021-07-25T09:07:26Z</time>
      </trkpt>
      <trkpt lat="42.408828" lon="-3.259826">
        <ele>850.926</ele>
        <time>2021-07-25T09:07:32Z</time>
      </trkpt>
      <trkpt lat="42.408967" lon="-3.259346">
        <ele>849.463</ele>
        <time>2021-07-25T09:07:41Z</time>
      </trkpt>
      <trkpt lat="42.409132" lon="-3.258797">
        <ele>848.511</ele>
        <time>2021-07-25T09:07:49Z</time>
      </trkpt>
      <trkpt lat="42.409377" lon="-3.257986">
        <ele>846.565</ele>
        <time>2021-07-25T09:08:00Z</time>
      </trkpt>
      <trkpt lat="42.409634" lon="-3.257123">
        <ele>845.668</ele>
        <time>2021-07-25T09:08:11Z</time>
      </trkpt>
      <trkpt lat="42.409875" lon="-3.256323">
        <ele>844.114</ele>
        <time>2021-07-25T09:08:22Z</time>
      </trkpt>
      <trkpt lat="42.410108" lon="-3.255558">
        <ele>843.608</ele>
        <time>2021-07-25T09:08:33Z</time>
      </trkpt>
      <trkpt lat="42.410366" lon="-3.254707">
        <ele>842.263</ele>
        <time>2021-07-25T09:08:45Z</time>
      </trkpt>
      <trkpt lat="42.410626" lon="-3.253844">
        <ele>840.845</ele>
        <time>2021-07-25T09:08:57Z</time>
      </trkpt>
      <trkpt lat="42.410834" lon="-3.253144">
        <ele>840.392</ele>
        <time>2021-07-25T09:09:07Z</time>
      </trkpt>
      <trkpt lat="42.411057" lon="-3.252426">
        <ele>838.852</ele>
        <time>2021-07-25T09:09:17Z</time>
      </trkpt>
      <trkpt lat="42.411352" lon="-3.251470">
        <ele>837.946</ele>
        <time>2021-07-25T09:09:31Z</time>
      </trkpt>
      <trkpt lat="42.411554" lon="-3.250832">
        <ele>838.484</ele>
        <time>2021-07-25T09:09:41Z</time>
      </trkpt>
      <trkpt lat="42.411586" lon="-3.250729">
        <ele>838.421</ele>
        <time>2021-07-25T09:09:45Z</time>
      </trkpt>
      <trkpt lat="42.411588" lon="-3.250700">
        <ele>838.889</ele>
        <time>2021-07-25T09:09:51Z</time>
      </trkpt>
      <trkpt lat="42.411587" lon="-3.250706">
        <ele>838.876</ele>
        <time>2021-07-25T09:10:07Z</time>
      </trkpt>
      <trkpt lat="42.411618" lon="-3.250622">
        <ele>838.890</ele>
        <time>2021-07-25T09:10:15Z</time>
      </trkpt>
      <trkpt lat="42.411725" lon="-3.250288">
        <ele>837.919</ele>
        <time>2021-07-25T09:10:23Z</time>
      </trkpt>
      <trkpt lat="42.411945" lon="-3.249598">
        <ele>836.008</ele>
        <time>2021-07-25T09:10:36Z</time>
      </trkpt>
      <trkpt lat="42.412141" lon="-3.248968">
        <ele>835.044</ele>
        <time>2021-07-25T09:10:47Z</time>
      </trkpt>
      <trkpt lat="42.412350" lon="-3.248304">
        <ele>834.586</ele>
        <time>2021-07-25T09:10:58Z</time>
      </trkpt>
      <trkpt lat="42.412553" lon="-3.247639">
        <ele>833.183</ele>
        <time>2021-07-25T09:11:09Z</time>
      </trkpt>
      <trkpt lat="42.412713" lon="-3.247112">
        <ele>832.153</ele>
        <time>2021-07-25T09:11:18Z</time>
      </trkpt>
      <trkpt lat="42.412912" lon="-3.246466">
        <ele>831.637</ele>
        <time>2021-07-25T09:11:29Z</time>
      </trkpt>
      <trkpt lat="42.413069" lon="-3.245967">
        <ele>831.665</ele>
        <time>2021-07-25T09:11:38Z</time>
      </trkpt>
      <trkpt lat="42.413240" lon="-3.245434">
        <ele>831.282</ele>
        <time>2021-07-25T09:11:48Z</time>
      </trkpt>
      <trkpt lat="42.413351" lon="-3.245081">
        <ele>830.710</ele>
        <time>2021-07-25T09:11:56Z</time>
      </trkpt>
      <trkpt lat="42.413403" lon="-3.244895">
        <ele>831.243</ele>
        <time>2021-07-25T09:12:03Z</time>
      </trkpt>
      <trkpt lat="42.413405" lon="-3.244905">
        <ele>829.764</ele>
        <time>2021-07-25T09:12:19Z</time>
      </trkpt>
      <trkpt lat="42.413396" lon="-3.244904">
        <ele>828.710</ele>
        <time>2021-07-25T09:12:29Z</time>
      </trkpt>
      <trkpt lat="42.413409" lon="-3.244874">
        <ele>828.308</ele>
        <time>2021-07-25T09:12:40Z</time>
      </trkpt>
      <trkpt lat="42.413412" lon="-3.244857">
        <ele>828.351</ele>
        <time>2021-07-25T09:12:41Z</time>
      </trkpt>
      <trkpt lat="42.413414" lon="-3.244839">
        <ele>828.373</ele>
        <time>2021-07-25T09:12:42Z</time>
      </trkpt>
      <trkpt lat="42.413469" lon="-3.244621">
        <ele>828.380</ele>
        <time>2021-07-25T09:12:50Z</time>
      </trkpt>
      <trkpt lat="42.413542" lon="-3.244355">
        <ele>829.270</ele>
        <time>2021-07-25T09:12:59Z</time>
      </trkpt>
      <trkpt lat="42.413628" lon="-3.244003">
        <ele>828.774</ele>
        <time>2021-07-25T09:13:12Z</time>
      </trkpt>
      <trkpt lat="42.413688" lon="-3.243719">
        <ele>828.362</ele>
        <time>2021-07-25T09:13:22Z</time>
      </trkpt>
      <trkpt lat="42.413752" lon="-3.243457">
        <ele>828.359</ele>
        <time>2021-07-25T09:13:29Z</time>
      </trkpt>
      <trkpt lat="42.413778" lon="-3.243352">
        <ele>827.817</ele>
        <time>2021-07-25T09:13:31Z</time>
      </trkpt>
      <trkpt lat="42.413793" lon="-3.243299">
        <ele>827.852</ele>
        <time>2021-07-25T09:13:32Z</time>
      </trkpt>
      <trkpt lat="42.413903" lon="-3.242817">
        <ele>827.353</ele>
        <time>2021-07-25T09:13:42Z</time>
      </trkpt>
      <trkpt lat="42.413984" lon="-3.242349">
        <ele>826.308</ele>
        <time>2021-07-25T09:13:52Z</time>
      </trkpt>
      <trkpt lat="42.414033" lon="-3.242072">
        <ele>825.908</ele>
        <time>2021-07-25T09:13:57Z</time>
      </trkpt>
      <trkpt lat="42.414087" lon="-3.241545">
        <ele>824.422</ele>
        <time>2021-07-25T09:14:06Z</time>
      </trkpt>
      <trkpt lat="42.414089" lon="-3.241091">
        <ele>824.474</ele>
        <time>2021-07-25T09:14:13Z</time>
      </trkpt>
      <trkpt lat="42.414036" lon="-3.240517">
        <ele>823.571</ele>
        <time>2021-07-25T09:14:21Z</time>
      </trkpt>
      <trkpt lat="42.413954" lon="-3.239705">
        <ele>821.131</ele>
        <time>2021-07-25T09:14:31Z</time>
      </trkpt>
      <trkpt lat="42.413892" lon="-3.239064">
        <ele>819.685</ele>
        <time>2021-07-25T09:14:39Z</time>
      </trkpt>
      <trkpt lat="42.413797" lon="-3.238084">
        <ele>816.773</ele>
        <time>2021-07-25T09:14:51Z</time>
      </trkpt>
      <trkpt lat="42.413710" lon="-3.237209">
        <ele>816.320</ele>
        <time>2021-07-25T09:15:03Z</time>
      </trkpt>
      <trkpt lat="42.413634" lon="-3.236408">
        <ele>815.368</ele>
        <time>2021-07-25T09:15:14Z</time>
      </trkpt>
      <trkpt lat="42.413565" lon="-3.235620">
        <ele>814.311</ele>
        <time>2021-07-25T09:15:25Z</time>
      </trkpt>
      <trkpt lat="42.413503" lon="-3.235068">
        <ele>812.921</ele>
        <time>2021-07-25T09:15:33Z</time>
      </trkpt>
      <trkpt lat="42.413439" lon="-3.234392">
        <ele>812.403</ele>
        <time>2021-07-25T09:15:43Z</time>
      </trkpt>
      <trkpt lat="42.413382" lon="-3.233792">
        <ele>811.908</ele>
        <time>2021-07-25T09:15:52Z</time>
      </trkpt>
      <trkpt lat="42.413308" lon="-3.233022">
        <ele>811.988</ele>
        <time>2021-07-25T09:16:03Z</time>
      </trkpt>
      <trkpt lat="42.413258" lon="-3.232451">
        <ele>811.480</ele>
        <time>2021-07-25T09:16:11Z</time>
      </trkpt>
      <trkpt lat="42.413169" lon="-3.231556">
        <ele>810.547</ele>
        <time>2021-07-25T09:16:23Z</time>
      </trkpt>
      <trkpt lat="42.413102" lon="-3.230843">
        <ele>809.037</ele>
        <time>2021-07-25T09:16:33Z</time>
      </trkpt>
      <trkpt lat="42.413016" lon="-3.229973">
        <ele>807.691</ele>
        <time>2021-07-25T09:16:45Z</time>
      </trkpt>
      <trkpt lat="42.412998" lon="-3.229748">
        <ele>807.679</ele>
        <time>2021-07-25T09:16:48Z</time>
      </trkpt>
      <trkpt lat="42.412994" lon="-3.229671">
        <ele>807.646</ele>
        <time>2021-07-25T09:16:49Z</time>
      </trkpt>
      <trkpt lat="42.412932" lon="-3.228995">
        <ele>806.234</ele>
        <time>2021-07-25T09:16:58Z</time>
      </trkpt>
      <trkpt lat="42.412913" lon="-3.228707">
        <ele>805.714</ele>
        <time>2021-07-25T09:17:02Z</time>
      </trkpt>
      <trkpt lat="42.412934" lon="-3.227973">
        <ele>803.854</ele>
        <time>2021-07-25T09:17:12Z</time>
      </trkpt>
      <trkpt lat="42.413046" lon="-3.227180">
        <ele>802.309</ele>
        <time>2021-07-25T09:17:23Z</time>
      </trkpt>
      <trkpt lat="42.413183" lon="-3.226479">
        <ele>801.408</ele>
        <time>2021-07-25T09:17:33Z</time>
      </trkpt>
      <trkpt lat="42.413314" lon="-3.225817">
        <ele>800.948</ele>
        <time>2021-07-25T09:17:43Z</time>
      </trkpt>
      <trkpt lat="42.413448" lon="-3.225126">
        <ele>800.990</ele>
        <time>2021-07-25T09:17:54Z</time>
      </trkpt>
      <trkpt lat="42.413591" lon="-3.224403">
        <ele>800.457</ele>
        <time>2021-07-25T09:18:05Z</time>
      </trkpt>
      <trkpt lat="42.413743" lon="-3.223630">
        <ele>799.997</ele>
        <time>2021-07-25T09:18:17Z</time>
      </trkpt>
      <trkpt lat="42.413844" lon="-3.223108">
        <ele>800.481</ele>
        <time>2021-07-25T09:18:27Z</time>
      </trkpt>
      <trkpt lat="42.413839" lon="-3.223049">
        <ele>799.969</ele>
        <time>2021-07-25T09:18:29Z</time>
      </trkpt>
      <trkpt lat="42.413827" lon="-3.223031">
        <ele>799.986</ele>
        <time>2021-07-25T09:18:30Z</time>
      </trkpt>
      <trkpt lat="42.413813" lon="-3.223022">
        <ele>799.994</ele>
        <time>2021-07-25T09:18:31Z</time>
      </trkpt>
      <trkpt lat="42.413802" lon="-3.223030">
        <ele>799.458</ele>
        <time>2021-07-25T09:18:36Z</time>
      </trkpt>
      <trkpt lat="42.413815" lon="-3.223031">
        <ele>799.952</ele>
        <time>2021-07-25T09:18:51Z</time>
      </trkpt>
      <trkpt lat="42.413815" lon="-3.223023">
        <ele>800.417</ele>
        <time>2021-07-25T09:19:14Z</time>
      </trkpt>
      <trkpt lat="42.413814" lon="-3.223022">
        <ele>799.408</ele>
        <time>2021-07-25T09:19:31Z</time>
      </trkpt>
      <trkpt lat="42.413816" lon="-3.223031">
        <ele>799.492</ele>
        <time>2021-07-25T09:19:45Z</time>
      </trkpt>
      <trkpt lat="42.413827" lon="-3.223003">
        <ele>798.994</ele>
        <time>2021-07-25T09:19:52Z</time>
      </trkpt>
      <trkpt lat="42.413824" lon="-3.222995">
        <ele>799.461</ele>
        <time>2021-07-25T09:20:09Z</time>
      </trkpt>
      <trkpt lat="42.413829" lon="-3.223003">
        <ele>799.411</ele>
        <time>2021-07-25T09:20:20Z</time>
      </trkpt>
      <trkpt lat="42.413833" lon="-3.223001">
        <ele>800.995</ele>
        <time>2021-07-25T09:20:41Z</time>
      </trkpt>
      <trkpt lat="42.413839" lon="-3.222999">
        <ele>801.833</ele>
        <time>2021-07-25T09:20:55Z</time>
      </trkpt>
      <trkpt lat="42.413834" lon="-3.222995">
        <ele>801.850</ele>
        <time>2021-07-25T09:21:11Z</time>
      </trkpt>
      <trkpt lat="42.413841" lon="-3.222995">
        <ele>801.818</ele>
        <time>2021-07-25T09:21:19Z</time>
      </trkpt>
      <trkpt lat="42.413879" lon="-3.222962">
        <ele>801.894</ele>
        <time>2021-07-25T09:21:22Z</time>
      </trkpt>
      <trkpt lat="42.413884" lon="-3.222943">
        <ele>801.457</ele>
        <time>2021-07-25T09:21:23Z</time>
      </trkpt>
      <trkpt lat="42.413923" lon="-3.222710">
        <ele>800.922</ele>
        <time>2021-07-25T09:21:29Z</time>
      </trkpt>
      <trkpt lat="42.414014" lon="-3.222213">
        <ele>799.408</ele>
        <time>2021-07-25T09:21:38Z</time>
      </trkpt>
      <trkpt lat="42.414149" lon="-3.221523">
        <ele>798.016</ele>
        <time>2021-07-25T09:21:49Z</time>
      </trkpt>
      <trkpt lat="42.414265" lon="-3.220934">
        <ele>797.078</ele>
        <time>2021-07-25T09:21:58Z</time>
      </trkpt>
      <trkpt lat="42.414405" lon="-3.220206">
        <ele>797.035</ele>
        <time>2021-07-25T09:22:09Z</time>
      </trkpt>
      <trkpt lat="42.414552" lon="-3.219433">
        <ele>796.175</ele>
        <time>2021-07-25T09:22:20Z</time>
      </trkpt>
      <trkpt lat="42.414710" lon="-3.218636">
        <ele>794.199</ele>
        <time>2021-07-25T09:22:31Z</time>
      </trkpt>
      <trkpt lat="42.414884" lon="-3.217728">
        <ele>793.277</ele>
        <time>2021-07-25T09:22:43Z</time>
      </trkpt>
      <trkpt lat="42.415053" lon="-3.216840">
        <ele>791.794</ele>
        <time>2021-07-25T09:22:55Z</time>
      </trkpt>
      <trkpt lat="42.415225" lon="-3.215986">
        <ele>789.892</ele>
        <time>2021-07-25T09:23:07Z</time>
      </trkpt>
      <trkpt lat="42.415389" lon="-3.215151">
        <ele>788.463</ele>
        <time>2021-07-25T09:23:18Z</time>
      </trkpt>
      <trkpt lat="42.415562" lon="-3.214257">
        <ele>787.944</ele>
        <time>2021-07-25T09:23:30Z</time>
      </trkpt>
      <trkpt lat="42.415729" lon="-3.213411">
        <ele>786.518</ele>
        <time>2021-07-25T09:23:42Z</time>
      </trkpt>
      <trkpt lat="42.415852" lon="-3.212782">
        <ele>786.508</ele>
        <time>2021-07-25T09:23:52Z</time>
      </trkpt>
      <trkpt lat="42.415970" lon="-3.212174">
        <ele>786.593</ele>
        <time>2021-07-25T09:24:02Z</time>
      </trkpt>
      <trkpt lat="42.416101" lon="-3.211505">
        <ele>786.935</ele>
        <time>2021-07-25T09:24:13Z</time>
      </trkpt>
      <trkpt lat="42.416228" lon="-3.210853">
        <ele>786.042</ele>
        <time>2021-07-25T09:24:23Z</time>
      </trkpt>
      <trkpt lat="42.416388" lon="-3.210014">
        <ele>786.022</ele>
        <time>2021-07-25T09:24:35Z</time>
      </trkpt>
      <trkpt lat="42.416525" lon="-3.209286">
        <ele>786.016</ele>
        <time>2021-07-25T09:24:46Z</time>
      </trkpt>
      <trkpt lat="42.416526" lon="-3.209222">
        <ele>786.044</ele>
        <time>2021-07-25T09:24:47Z</time>
      </trkpt>
      <trkpt lat="42.416516" lon="-3.209158">
        <ele>786.511</ele>
        <time>2021-07-25T09:24:48Z</time>
      </trkpt>
      <trkpt lat="42.416494" lon="-3.209099">
        <ele>786.529</ele>
        <time>2021-07-25T09:24:49Z</time>
      </trkpt>
      <trkpt lat="42.416467" lon="-3.209042">
        <ele>786.099</ele>
        <time>2021-07-25T09:24:50Z</time>
      </trkpt>
      <trkpt lat="42.416420" lon="-3.208845">
        <ele>786.507</ele>
        <time>2021-07-25T09:24:53Z</time>
      </trkpt>
      <trkpt lat="42.416511" lon="-3.208541">
        <ele>786.527</ele>
        <time>2021-07-25T09:24:58Z</time>
      </trkpt>
      <trkpt lat="42.416645" lon="-3.208452">
        <ele>786.508</ele>
        <time>2021-07-25T09:25:01Z</time>
      </trkpt>
      <trkpt lat="42.416687" lon="-3.208424">
        <ele>786.586</ele>
        <time>2021-07-25T09:25:02Z</time>
      </trkpt>
      <trkpt lat="42.416722" lon="-3.208387">
        <ele>786.098</ele>
        <time>2021-07-25T09:25:03Z</time>
      </trkpt>
      <trkpt lat="42.416756" lon="-3.208342">
        <ele>786.025</ele>
        <time>2021-07-25T09:25:04Z</time>
      </trkpt>
      <trkpt lat="42.416787" lon="-3.208295">
        <ele>786.045</ele>
        <time>2021-07-25T09:25:05Z</time>
      </trkpt>
      <trkpt lat="42.416817" lon="-3.208244">
        <ele>786.099</ele>
        <time>2021-07-25T09:25:06Z</time>
      </trkpt>
      <trkpt lat="42.416845" lon="-3.208190">
        <ele>786.077</ele>
        <time>2021-07-25T09:25:07Z</time>
      </trkpt>
      <trkpt lat="42.416871" lon="-3.208130">
        <ele>786.044</ele>
        <time>2021-07-25T09:25:08Z</time>
      </trkpt>
      <trkpt lat="42.417180" lon="-3.207445">
        <ele>784.522</ele>
        <time>2021-07-25T09:25:20Z</time>
      </trkpt>
      <trkpt lat="42.417403" lon="-3.206954">
        <ele>783.172</ele>
        <time>2021-07-25T09:25:28Z</time>
      </trkpt>
      <trkpt lat="42.417719" lon="-3.206265">
        <ele>782.613</ele>
        <time>2021-07-25T09:25:39Z</time>
      </trkpt>
      <trkpt lat="42.418045" lon="-3.205559">
        <ele>781.214</ele>
        <time>2021-07-25T09:25:50Z</time>
      </trkpt>
      <trkpt lat="42.418353" lon="-3.204899">
        <ele>778.808</ele>
        <time>2021-07-25T09:26:00Z</time>
      </trkpt>
      <trkpt lat="42.418633" lon="-3.204198">
        <ele>777.324</ele>
        <time>2021-07-25T09:26:10Z</time>
      </trkpt>
      <trkpt lat="42.418675" lon="-3.203867">
        <ele>776.416</ele>
        <time>2021-07-25T09:26:14Z</time>
      </trkpt>
      <trkpt lat="42.418675" lon="-3.203780">
        <ele>776.413</ele>
        <time>2021-07-25T09:26:15Z</time>
      </trkpt>
      <trkpt lat="42.418670" lon="-3.203694">
        <ele>776.453</ele>
        <time>2021-07-25T09:26:16Z</time>
      </trkpt>
      <trkpt lat="42.418659" lon="-3.203615">
        <ele>776.437</ele>
        <time>2021-07-25T09:26:17Z</time>
      </trkpt>
      <trkpt lat="42.418644" lon="-3.203539">
        <ele>776.495</ele>
        <time>2021-07-25T09:26:18Z</time>
      </trkpt>
      <trkpt lat="42.418626" lon="-3.203467">
        <ele>776.432</ele>
        <time>2021-07-25T09:26:19Z</time>
      </trkpt>
      <trkpt lat="42.418605" lon="-3.203395">
        <ele>776.410</ele>
        <time>2021-07-25T09:26:20Z</time>
      </trkpt>
      <trkpt lat="42.418419" lon="-3.202932">
        <ele>776.464</ele>
        <time>2021-07-25T09:26:28Z</time>
      </trkpt>
      <trkpt lat="42.418237" lon="-3.202457">
        <ele>776.406</ele>
        <time>2021-07-25T09:26:36Z</time>
      </trkpt>
      <trkpt lat="42.417981" lon="-3.201855">
        <ele>776.416</ele>
        <time>2021-07-25T09:26:46Z</time>
      </trkpt>
      <trkpt lat="42.417956" lon="-3.201800">
        <ele>776.408</ele>
        <time>2021-07-25T09:26:47Z</time>
      </trkpt>
      <trkpt lat="42.417720" lon="-3.201267">
        <ele>776.843</ele>
        <time>2021-07-25T09:26:57Z</time>
      </trkpt>
      <trkpt lat="42.417684" lon="-3.201172">
        <ele>776.815</ele>
        <time>2021-07-25T09:27:00Z</time>
      </trkpt>
      <trkpt lat="42.417683" lon="-3.201134">
        <ele>777.362</ele>
        <time>2021-07-25T09:27:01Z</time>
      </trkpt>
      <trkpt lat="42.417690" lon="-3.201096">
        <ele>777.372</ele>
        <time>2021-07-25T09:27:02Z</time>
      </trkpt>
      <trkpt lat="42.417768" lon="-3.200828">
        <ele>775.476</ele>
        <time>2021-07-25T09:27:09Z</time>
      </trkpt>
      <trkpt lat="42.417854" lon="-3.200602">
        <ele>774.984</ele>
        <time>2021-07-25T09:27:14Z</time>
      </trkpt>
      <trkpt lat="42.417974" lon="-3.200286">
        <ele>774.951</ele>
        <time>2021-07-25T09:27:22Z</time>
      </trkpt>
      <trkpt lat="42.418071" lon="-3.199923">
        <ele>774.999</ele>
        <time>2021-07-25T09:27:30Z</time>
      </trkpt>
      <trkpt lat="42.418119" lon="-3.199598">
        <ele>774.936</ele>
        <time>2021-07-25T09:27:37Z</time>
      </trkpt>
      <trkpt lat="42.418193" lon="-3.199284">
        <ele>775.417</ele>
        <time>2021-07-25T09:27:43Z</time>
      </trkpt>
      <trkpt lat="42.418198" lon="-3.199237">
        <ele>775.418</ele>
        <time>2021-07-25T09:27:44Z</time>
      </trkpt>
      <trkpt lat="42.418249" lon="-3.198732">
        <ele>775.908</ele>
        <time>2021-07-25T09:27:54Z</time>
      </trkpt>
      <trkpt lat="42.418298" lon="-3.198368">
        <ele>774.490</ele>
        <time>2021-07-25T09:28:02Z</time>
      </trkpt>
      <trkpt lat="42.418384" lon="-3.197921">
        <ele>774.042</ele>
        <time>2021-07-25T09:28:11Z</time>
      </trkpt>
      <trkpt lat="42.418434" lon="-3.197653">
        <ele>773.569</ele>
        <time>2021-07-25T09:28:17Z</time>
      </trkpt>
      <trkpt lat="42.418481" lon="-3.197453">
        <ele>773.089</ele>
        <time>2021-07-25T09:28:21Z</time>
      </trkpt>
      <trkpt lat="42.418499" lon="-3.197402">
        <ele>773.063</ele>
        <time>2021-07-25T09:28:22Z</time>
      </trkpt>
      <trkpt lat="42.418544" lon="-3.197305">
        <ele>772.581</ele>
        <time>2021-07-25T09:28:24Z</time>
      </trkpt>
      <trkpt lat="42.418565" lon="-3.197261">
        <ele>772.528</ele>
        <time>2021-07-25T09:28:25Z</time>
      </trkpt>
      <trkpt lat="42.418682" lon="-3.196948">
        <ele>772.056</ele>
        <time>2021-07-25T09:28:32Z</time>
      </trkpt>
      <trkpt lat="42.418791" lon="-3.196543">
        <ele>773.552</ele>
        <time>2021-07-25T09:28:41Z</time>
      </trkpt>
      <trkpt lat="42.418834" lon="-3.196228">
        <ele>774.953</ele>
        <time>2021-07-25T09:28:49Z</time>
      </trkpt>
      <trkpt lat="42.418834" lon="-3.195923">
        <ele>775.408</ele>
        <time>2021-07-25T09:28:57Z</time>
      </trkpt>
      <trkpt lat="42.418854" lon="-3.195681">
        <ele>776.408</ele>
        <time>2021-07-25T09:29:04Z</time>
      </trkpt>
      <trkpt lat="42.418976" lon="-3.195499">
        <ele>776.492</ele>
        <time>2021-07-25T09:29:10Z</time>
      </trkpt>
      <trkpt lat="42.419101" lon="-3.195309">
        <ele>776.484</ele>
        <time>2021-07-25T09:29:16Z</time>
      </trkpt>
      <trkpt lat="42.419324" lon="-3.195052">
        <ele>775.941</ele>
        <time>2021-07-25T09:29:24Z</time>
      </trkpt>
      <trkpt lat="42.419445" lon="-3.194802">
        <ele>775.971</ele>
        <time>2021-07-25T09:29:30Z</time>
      </trkpt>
      <trkpt lat="42.419615" lon="-3.194465">
        <ele>775.965</ele>
        <time>2021-07-25T09:29:38Z</time>
      </trkpt>
      <trkpt lat="42.419810" lon="-3.194111">
        <ele>776.443</ele>
        <time>2021-07-25T09:29:47Z</time>
      </trkpt>
      <trkpt lat="42.419958" lon="-3.193801">
        <ele>776.450</ele>
        <time>2021-07-25T09:29:55Z</time>
      </trkpt>
      <trkpt lat="42.420097" lon="-3.193500">
        <ele>776.498</ele>
        <time>2021-07-25T09:30:02Z</time>
      </trkpt>
      <trkpt lat="42.420242" lon="-3.193147">
        <ele>778.311</ele>
        <time>2021-07-25T09:30:10Z</time>
      </trkpt>
      <trkpt lat="42.420398" lon="-3.192750">
        <ele>777.821</ele>
        <time>2021-07-25T09:30:19Z</time>
      </trkpt>
      <trkpt lat="42.420536" lon="-3.192465">
        <ele>775.403</ele>
        <time>2021-07-25T09:30:27Z</time>
      </trkpt>
      <trkpt lat="42.420618" lon="-3.192207">
        <ele>775.408</ele>
        <time>2021-07-25T09:30:37Z</time>
      </trkpt>
      <trkpt lat="42.420720" lon="-3.191970">
        <ele>773.528</ele>
        <time>2021-07-25T09:30:45Z</time>
      </trkpt>
      <trkpt lat="42.420800" lon="-3.191742">
        <ele>773.030</ele>
        <time>2021-07-25T09:30:52Z</time>
      </trkpt>
      <trkpt lat="42.420833" lon="-3.191638">
        <ele>773.057</ele>
        <time>2021-07-25T09:30:58Z</time>
      </trkpt>
      <trkpt lat="42.420843" lon="-3.191638">
        <ele>772.027</ele>
        <time>2021-07-25T09:31:10Z</time>
      </trkpt>
      <trkpt lat="42.420845" lon="-3.191624">
        <ele>773.521</ele>
        <time>2021-07-25T09:31:28Z</time>
      </trkpt>
      <trkpt lat="42.420829" lon="-3.191623">
        <ele>776.849</ele>
        <time>2021-07-25T09:31:49Z</time>
      </trkpt>
      <trkpt lat="42.420839" lon="-3.191634">
        <ele>778.866</ele>
        <time>2021-07-25T09:32:16Z</time>
      </trkpt>
      <trkpt lat="42.420825" lon="-3.191644">
        <ele>779.274</ele>
        <time>2021-07-25T09:32:42Z</time>
      </trkpt>
      <trkpt lat="42.420818" lon="-3.191630">
        <ele>778.395</ele>
        <time>2021-07-25T09:32:57Z</time>
      </trkpt>
      <trkpt lat="42.420827" lon="-3.191628">
        <ele>779.249</ele>
        <time>2021-07-25T09:33:11Z</time>
      </trkpt>
      <trkpt lat="42.420828" lon="-3.191618">
        <ele>782.123</ele>
        <time>2021-07-25T09:33:35Z</time>
      </trkpt>
      <trkpt lat="42.420836" lon="-3.191614">
        <ele>782.108</ele>
        <time>2021-07-25T09:33:43Z</time>
      </trkpt>
      <trkpt lat="42.420845" lon="-3.191583">
        <ele>783.136</ele>
        <time>2021-07-25T09:34:01Z</time>
      </trkpt>
      <trkpt lat="42.420896" lon="-3.191463">
        <ele>779.718</ele>
        <time>2021-07-25T09:34:09Z</time>
      </trkpt>
      <trkpt lat="42.420941" lon="-3.191319">
        <ele>776.495</ele>
        <time>2021-07-25T09:34:16Z</time>
      </trkpt>
      <trkpt lat="42.420861" lon="-3.191249">
        <ele>776.435</ele>
        <time>2021-07-25T09:34:22Z</time>
      </trkpt>
      <trkpt lat="42.420737" lon="-3.191089">
        <ele>776.419</ele>
        <time>2021-07-25T09:34:31Z</time>
      </trkpt>
      <trkpt lat="42.420661" lon="-3.190879">
        <ele>776.817</ele>
        <time>2021-07-25T09:34:40Z</time>
      </trkpt>
      <trkpt lat="42.420709" lon="-3.190600">
        <ele>778.874</ele>
        <time>2021-07-25T09:34:50Z</time>
      </trkpt>
      <trkpt lat="42.420746" lon="-3.190358">
        <ele>780.742</ele>
        <time>2021-07-25T09:35:00Z</time>
      </trkpt>
      <trkpt lat="42.420818" lon="-3.190355">
        <ele>780.283</ele>
        <time>2021-07-25T09:35:06Z</time>
      </trkpt>
      <trkpt lat="42.420819" lon="-3.190360">
        <ele>779.725</ele>
        <time>2021-07-25T09:35:11Z</time>
      </trkpt>
      <trkpt lat="42.420802" lon="-3.190326">
        <ele>778.817</ele>
        <time>2021-07-25T09:35:26Z</time>
      </trkpt>
      <trkpt lat="42.420788" lon="-3.190302">
        <ele>777.808</ele>
        <time>2021-07-25T09:35:36Z</time>
      </trkpt>
      <trkpt lat="42.420782" lon="-3.190283">
        <ele>777.875</ele>
        <time>2021-07-25T09:35:47Z</time>
      </trkpt>
      <trkpt lat="42.420774" lon="-3.190298">
        <ele>778.377</ele>
        <time>2021-07-25T09:35:59Z</time>
      </trkpt>
      <trkpt lat="42.420765" lon="-3.190292">
        <ele>778.844</ele>
        <time>2021-07-25T09:36:06Z</time>
      </trkpt>
      <trkpt lat="42.420753" lon="-3.190280">
        <ele>778.834</ele>
        <time>2021-07-25T09:36:16Z</time>
      </trkpt>
      <trkpt lat="42.420758" lon="-3.190277">
        <ele>778.818</ele>
        <time>2021-07-25T09:36:25Z</time>
      </trkpt>
      <trkpt lat="42.420753" lon="-3.190295">
        <ele>779.216</ele>
        <time>2021-07-25T09:36:35Z</time>
      </trkpt>
      <trkpt lat="42.420754" lon="-3.190296">
        <ele>779.293</ele>
        <time>2021-07-25T09:36:42Z</time>
      </trkpt>
      <trkpt lat="42.420742" lon="-3.190294">
        <ele>778.851</ele>
        <time>2021-07-25T09:36:53Z</time>
      </trkpt>
      <trkpt lat="42.420738" lon="-3.190292">
        <ele>778.841</ele>
        <time>2021-07-25T09:37:03Z</time>
      </trkpt>
      <trkpt lat="42.420727" lon="-3.190288">
        <ele>780.281</ele>
        <time>2021-07-25T09:37:13Z</time>
      </trkpt>
      <trkpt lat="42.420720" lon="-3.190282">
        <ele>781.209</ele>
        <time>2021-07-25T09:37:23Z</time>
      </trkpt>
      <trkpt lat="42.420714" lon="-3.190274">
        <ele>781.208</ele>
        <time>2021-07-25T09:37:30Z</time>
      </trkpt>
      <trkpt lat="42.420708" lon="-3.190281">
        <ele>781.241</ele>
        <time>2021-07-25T09:37:39Z</time>
      </trkpt>
      <trkpt lat="42.420715" lon="-3.190287">
        <ele>780.743</ele>
        <time>2021-07-25T09:37:48Z</time>
      </trkpt>
      <trkpt lat="42.420712" lon="-3.190307">
        <ele>778.880</ele>
        <time>2021-07-25T09:37:58Z</time>
      </trkpt>
      <trkpt lat="42.420716" lon="-3.190326">
        <ele>777.860</ele>
        <time>2021-07-25T09:38:05Z</time>
      </trkpt>
      <trkpt lat="42.420718" lon="-3.190339">
        <ele>776.864</ele>
        <time>2021-07-25T09:38:13Z</time>
      </trkpt>
      <trkpt lat="42.420723" lon="-3.190335">
        <ele>775.972</ele>
        <time>2021-07-25T09:38:22Z</time>
      </trkpt>
      <trkpt lat="42.420721" lon="-3.190346">
        <ele>775.959</ele>
        <time>2021-07-25T09:38:30Z</time>
      </trkpt>
      <trkpt lat="42.420722" lon="-3.190326">
        <ele>777.827</ele>
        <time>2021-07-25T09:38:40Z</time>
      </trkpt>
      <trkpt lat="42.420724" lon="-3.190326">
        <ele>777.885</ele>
        <time>2021-07-25T09:38:51Z</time>
      </trkpt>
      <trkpt lat="42.420718" lon="-3.190346">
        <ele>777.389</ele>
        <time>2021-07-25T09:39:00Z</time>
      </trkpt>
      <trkpt lat="42.420723" lon="-3.190328">
        <ele>778.317</ele>
        <time>2021-07-25T09:39:12Z</time>
      </trkpt>
      <trkpt lat="42.420732" lon="-3.190319">
        <ele>777.808</ele>
        <time>2021-07-25T09:39:20Z</time>
      </trkpt>
      <trkpt lat="42.420747" lon="-3.190300">
        <ele>778.355</ele>
        <time>2021-07-25T09:39:28Z</time>
      </trkpt>
      <trkpt lat="42.420751" lon="-3.190295">
        <ele>779.287</ele>
        <time>2021-07-25T09:39:35Z</time>
      </trkpt>
      <trkpt lat="42.420759" lon="-3.190262">
        <ele>782.124</ele>
        <time>2021-07-25T09:39:45Z</time>
      </trkpt>
      <trkpt lat="42.420755" lon="-3.190255">
        <ele>783.614</ele>
        <time>2021-07-25T09:39:54Z</time>
      </trkpt>
      <trkpt lat="42.420743" lon="-3.190263">
        <ele>783.148</ele>
        <time>2021-07-25T09:40:02Z</time>
      </trkpt>
      <trkpt lat="42.420731" lon="-3.190251">
        <ele>782.686</ele>
        <time>2021-07-25T09:40:11Z</time>
      </trkpt>
      <trkpt lat="42.420721" lon="-3.190235">
        <ele>782.193</ele>
        <time>2021-07-25T09:40:20Z</time>
      </trkpt>
      <trkpt lat="42.420720" lon="-3.190235">
        <ele>780.251</ele>
        <time>2021-07-25T09:40:31Z</time>
      </trkpt>
      <trkpt lat="42.420710" lon="-3.190247">
        <ele>780.278</ele>
        <time>2021-07-25T09:40:42Z</time>
      </trkpt>
      <trkpt lat="42.420706" lon="-3.190260">
        <ele>780.733</ele>
        <time>2021-07-25T09:40:53Z</time>
      </trkpt>
      <trkpt lat="42.420712" lon="-3.190275">
        <ele>780.726</ele>
        <time>2021-07-25T09:41:05Z</time>
      </trkpt>
      <trkpt lat="42.420717" lon="-3.190300">
        <ele>779.708</ele>
        <time>2021-07-25T09:41:21Z</time>
      </trkpt>
      <trkpt lat="42.420717" lon="-3.190314">
        <ele>779.264</ele>
        <time>2021-07-25T09:41:32Z</time>
      </trkpt>
      <trkpt lat="42.420715" lon="-3.190319">
        <ele>777.826</ele>
        <time>2021-07-25T09:41:41Z</time>
      </trkpt>
      <trkpt lat="42.420725" lon="-3.190324">
        <ele>774.423</ele>
        <time>2021-07-25T09:41:51Z</time>
      </trkpt>
      <trkpt lat="42.420731" lon="-3.190330">
        <ele>771.613</ele>
        <time>2021-07-25T09:42:00Z</time>
      </trkpt>
      <trkpt lat="42.420745" lon="-3.190350">
        <ele>772.547</ele>
        <time>2021-07-25T09:42:15Z</time>
      </trkpt>
      <trkpt lat="42.420745" lon="-3.190342">
        <ele>773.565</ele>
        <time>2021-07-25T09:42:26Z</time>
      </trkpt>
      <trkpt lat="42.420754" lon="-3.190328">
        <ele>775.462</ele>
        <time>2021-07-25T09:42:39Z</time>
      </trkpt>
      <trkpt lat="42.420755" lon="-3.190320">
        <ele>775.440</ele>
        <time>2021-07-25T09:42:54Z</time>
      </trkpt>
      <trkpt lat="42.420751" lon="-3.190299">
        <ele>776.488</ele>
        <time>2021-07-25T09:43:07Z</time>
      </trkpt>
      <trkpt lat="42.420749" lon="-3.190292">
        <ele>776.824</ele>
        <time>2021-07-25T09:43:17Z</time>
      </trkpt>
      <trkpt lat="42.420736" lon="-3.190296">
        <ele>777.826</ele>
        <time>2021-07-25T09:43:29Z</time>
      </trkpt>
      <trkpt lat="42.420732" lon="-3.190312">
        <ele>775.408</ele>
        <time>2021-07-25T09:43:41Z</time>
      </trkpt>
      <trkpt lat="42.420735" lon="-3.190308">
        <ele>774.955</ele>
        <time>2021-07-25T09:43:52Z</time>
      </trkpt>
      <trkpt lat="42.420736" lon="-3.190303">
        <ele>772.097</ele>
        <time>2021-07-25T09:44:05Z</time>
      </trkpt>
      <trkpt lat="42.420745" lon="-3.190307">
        <ele>771.164</ele>
        <time>2021-07-25T09:44:15Z</time>
      </trkpt>
      <trkpt lat="42.420760" lon="-3.190321">
        <ele>770.124</ele>
        <time>2021-07-25T09:44:25Z</time>
      </trkpt>
      <trkpt lat="42.420755" lon="-3.190346">
        <ele>769.618</ele>
        <time>2021-07-25T09:44:37Z</time>
      </trkpt>
      <trkpt lat="42.420759" lon="-3.190351">
        <ele>770.156</ele>
        <time>2021-07-25T09:44:57Z</time>
      </trkpt>
      <trkpt lat="42.420775" lon="-3.190351">
        <ele>770.133</ele>
        <time>2021-07-25T09:45:12Z</time>
      </trkpt>
      <trkpt lat="42.420769" lon="-3.190355">
        <ele>771.121</ele>
        <time>2021-07-25T09:45:24Z</time>
      </trkpt>
      <trkpt lat="42.420751" lon="-3.190365">
        <ele>769.681</ele>
        <time>2021-07-25T09:45:42Z</time>
      </trkpt>
      <trkpt lat="42.420768" lon="-3.190370">
        <ele>770.661</ele>
        <time>2021-07-25T09:45:57Z</time>
      </trkpt>
      <trkpt lat="42.420752" lon="-3.190367">
        <ele>771.617</ele>
        <time>2021-07-25T09:46:12Z</time>
      </trkpt>
      <trkpt lat="42.420763" lon="-3.190373">
        <ele>772.008</ele>
        <time>2021-07-25T09:46:30Z</time>
      </trkpt>
      <trkpt lat="42.420759" lon="-3.190360">
        <ele>771.685</ele>
        <time>2021-07-25T09:46:52Z</time>
      </trkpt>
      <trkpt lat="42.420747" lon="-3.190348">
        <ele>774.457</ele>
        <time>2021-07-25T09:47:13Z</time>
      </trkpt>
      <trkpt lat="42.420751" lon="-3.190352">
        <ele>776.434</ele>
        <time>2021-07-25T09:47:34Z</time>
      </trkpt>
      <trkpt lat="42.420750" lon="-3.190322">
        <ele>776.444</ele>
        <time>2021-07-25T09:48:00Z</time>
      </trkpt>
      <trkpt lat="42.420767" lon="-3.190310">
        <ele>775.948</ele>
        <time>2021-07-25T09:48:26Z</time>
      </trkpt>
      <trkpt lat="42.420785" lon="-3.190315">
        <ele>772.546</ele>
        <time>2021-07-25T09:48:46Z</time>
      </trkpt>
      <trkpt lat="42.420799" lon="-3.190316">
        <ele>769.193</ele>
        <time>2021-07-25T09:49:03Z</time>
      </trkpt>
      <trkpt lat="42.420803" lon="-3.190312">
        <ele>767.241</ele>
        <time>2021-07-25T09:49:18Z</time>
      </trkpt>
      <trkpt lat="42.420808" lon="-3.190320">
        <ele>764.376</ele>
        <time>2021-07-25T09:49:41Z</time>
      </trkpt>
      <trkpt lat="42.420809" lon="-3.190317">
        <ele>763.990</ele>
        <time>2021-07-25T09:49:52Z</time>
      </trkpt>
      <trkpt lat="42.420792" lon="-3.190322">
        <ele>763.919</ele>
        <time>2021-07-25T09:50:17Z</time>
      </trkpt>
      <trkpt lat="42.420777" lon="-3.190323">
        <ele>765.308</ele>
        <time>2021-07-25T09:50:36Z</time>
      </trkpt>
      <trkpt lat="42.420775" lon="-3.190313">
        <ele>765.894</ele>
        <time>2021-07-25T09:50:47Z</time>
      </trkpt>
      <trkpt lat="42.420780" lon="-3.190317">
        <ele>767.256</ele>
        <time>2021-07-25T09:51:15Z</time>
      </trkpt>
      <trkpt lat="42.420794" lon="-3.190317">
        <ele>767.213</ele>
        <time>2021-07-25T09:51:29Z</time>
      </trkpt>
      <trkpt lat="42.420795" lon="-3.190346">
        <ele>767.253</ele>
        <time>2021-07-25T09:51:45Z</time>
      </trkpt>
      <trkpt lat="42.420797" lon="-3.190351">
        <ele>770.687</ele>
        <time>2021-07-25T09:52:12Z</time>
      </trkpt>
      <trkpt lat="42.420789" lon="-3.190331">
        <ele>771.655</ele>
        <time>2021-07-25T09:52:25Z</time>
      </trkpt>
      <trkpt lat="42.420790" lon="-3.190341">
        <ele>771.672</ele>
        <time>2021-07-25T09:52:48Z</time>
      </trkpt>
      <trkpt lat="42.420786" lon="-3.190353">
        <ele>772.540</ele>
        <time>2021-07-25T09:53:08Z</time>
      </trkpt>
      <trkpt lat="42.420768" lon="-3.190324">
        <ele>774.098</ele>
        <time>2021-07-25T09:53:35Z</time>
      </trkpt>
      <trkpt lat="42.420756" lon="-3.190344">
        <ele>772.015</ele>
        <time>2021-07-25T09:54:06Z</time>
      </trkpt>
      <trkpt lat="42.420765" lon="-3.190360">
        <ele>770.626</ele>
        <time>2021-07-25T09:54:26Z</time>
      </trkpt>
      <trkpt lat="42.420779" lon="-3.190379">
        <ele>769.608</ele>
        <time>2021-07-25T09:54:49Z</time>
      </trkpt>
      <trkpt lat="42.420784" lon="-3.190359">
        <ele>769.696</ele>
        <time>2021-07-25T09:55:20Z</time>
      </trkpt>
      <trkpt lat="42.420779" lon="-3.190341">
        <ele>772.068</ele>
        <time>2021-07-25T09:55:45Z</time>
      </trkpt>
      <trkpt lat="42.420751" lon="-3.190327">
        <ele>773.085</ele>
        <time>2021-07-25T09:56:16Z</time>
      </trkpt>
      <trkpt lat="42.420748" lon="-3.190346">
        <ele>774.925</ele>
        <time>2021-07-25T09:56:34Z</time>
      </trkpt>
      <trkpt lat="42.420741" lon="-3.190351">
        <ele>776.869</ele>
        <time>2021-07-25T09:56:58Z</time>
      </trkpt>
      <trkpt lat="42.420735" lon="-3.190361">
        <ele>776.867</ele>
        <time>2021-07-25T09:57:25Z</time>
      </trkpt>
      <trkpt lat="42.420737" lon="-3.190337">
        <ele>775.974</ele>
        <time>2021-07-25T09:57:41Z</time>
      </trkpt>
      <trkpt lat="42.420745" lon="-3.190356">
        <ele>772.552</ele>
        <time>2021-07-25T09:58:11Z</time>
      </trkpt>
      <trkpt lat="42.420773" lon="-3.190347">
        <ele>772.531</ele>
        <time>2021-07-25T09:58:39Z</time>
      </trkpt>
      <trkpt lat="42.420780" lon="-3.190333">
        <ele>772.061</ele>
        <time>2021-07-25T09:59:08Z</time>
      </trkpt>
      <trkpt lat="42.420765" lon="-3.190315">
        <ele>774.407</ele>
        <time>2021-07-25T09:59:38Z</time>
      </trkpt>
      <trkpt lat="42.420764" lon="-3.190305">
        <ele>775.908</ele>
        <time>2021-07-25T10:00:07Z</time>
      </trkpt>
      <trkpt lat="42.420765" lon="-3.190291">
        <ele>779.750</ele>
        <time>2021-07-25T10:00:23Z</time>
      </trkpt>
      <trkpt lat="42.420770" lon="-3.190317">
        <ele>778.812</ele>
        <time>2021-07-25T10:00:48Z</time>
      </trkpt>
      <trkpt lat="42.420777" lon="-3.190346">
        <ele>779.729</ele>
        <time>2021-07-25T10:01:13Z</time>
      </trkpt>
      <trkpt lat="42.420788" lon="-3.190364">
        <ele>776.869</ele>
        <time>2021-07-25T10:01:39Z</time>
      </trkpt>
      <trkpt lat="42.420801" lon="-3.190378">
        <ele>775.433</ele>
        <time>2021-07-25T10:01:58Z</time>
      </trkpt>
      <trkpt lat="42.420809" lon="-3.190373">
        <ele>774.091</ele>
        <time>2021-07-25T10:02:15Z</time>
      </trkpt>
      <trkpt lat="42.420803" lon="-3.190379">
        <ele>772.098</ele>
        <time>2021-07-25T10:02:39Z</time>
      </trkpt>
      <trkpt lat="42.420801" lon="-3.190381">
        <ele>770.136</ele>
        <time>2021-07-25T10:02:58Z</time>
      </trkpt>
      <trkpt lat="42.420796" lon="-3.190373">
        <ele>769.631</ele>
        <time>2021-07-25T10:03:16Z</time>
      </trkpt>
      <trkpt lat="42.420786" lon="-3.190374">
        <ele>768.261</ele>
        <time>2021-07-25T10:03:44Z</time>
      </trkpt>
      <trkpt lat="42.420780" lon="-3.190351">
        <ele>769.107</ele>
        <time>2021-07-25T10:04:05Z</time>
      </trkpt>
      <trkpt lat="42.420783" lon="-3.190331">
        <ele>771.108</ele>
        <time>2021-07-25T10:04:23Z</time>
      </trkpt>
      <trkpt lat="42.420775" lon="-3.190306">
        <ele>772.570</ele>
        <time>2021-07-25T10:04:43Z</time>
      </trkpt>
      <trkpt lat="42.420779" lon="-3.190328">
        <ele>775.422</ele>
        <time>2021-07-25T10:05:05Z</time>
      </trkpt>
      <trkpt lat="42.420766" lon="-3.190340">
        <ele>777.379</ele>
        <time>2021-07-25T10:05:19Z</time>
      </trkpt>
      <trkpt lat="42.420741" lon="-3.190317">
        <ele>776.839</ele>
        <time>2021-07-25T10:05:38Z</time>
      </trkpt>
      <trkpt lat="42.420747" lon="-3.190303">
        <ele>775.453</ele>
        <time>2021-07-25T10:05:53Z</time>
      </trkpt>
      <trkpt lat="42.420765" lon="-3.190301">
        <ele>775.911</ele>
        <time>2021-07-25T10:06:17Z</time>
      </trkpt>
      <trkpt lat="42.420761" lon="-3.190303">
        <ele>774.918</ele>
        <time>2021-07-25T10:06:33Z</time>
      </trkpt>
      <trkpt lat="42.420764" lon="-3.190318">
        <ele>774.066</ele>
        <time>2021-07-25T10:06:51Z</time>
      </trkpt>
      <trkpt lat="42.420771" lon="-3.190326">
        <ele>774.034</ele>
        <time>2021-07-25T10:07:04Z</time>
      </trkpt>
      <trkpt lat="42.420764" lon="-3.190297">
        <ele>775.455</ele>
        <time>2021-07-25T10:07:10Z</time>
      </trkpt>
      <trkpt lat="42.420785" lon="-3.190298">
        <ele>774.910</ele>
        <time>2021-07-25T10:07:18Z</time>
      </trkpt>
      <trkpt lat="42.420790" lon="-3.190298">
        <ele>774.408</ele>
        <time>2021-07-25T10:07:22Z</time>
      </trkpt>
      <trkpt lat="42.420749" lon="-3.190219">
        <ele>775.970</ele>
        <time>2021-07-25T10:07:30Z</time>
      </trkpt>
      <trkpt lat="42.420731" lon="-3.190145">
        <ele>776.862</ele>
        <time>2021-07-25T10:07:35Z</time>
      </trkpt>
      <trkpt lat="42.420671" lon="-3.190053">
        <ele>778.359</ele>
        <time>2021-07-25T10:07:42Z</time>
      </trkpt>
      <trkpt lat="42.420601" lon="-3.190001">
        <ele>777.379</ele>
        <time>2021-07-25T10:07:50Z</time>
      </trkpt>
      <trkpt lat="42.420567" lon="-3.189955">
        <ele>777.893</ele>
        <time>2021-07-25T10:08:01Z</time>
      </trkpt>
      <trkpt lat="42.420525" lon="-3.189944">
        <ele>777.311</ele>
        <time>2021-07-25T10:08:06Z</time>
      </trkpt>
      <trkpt lat="42.420410" lon="-3.189967">
        <ele>776.868</ele>
        <time>2021-07-25T10:08:14Z</time>
      </trkpt>
      <trkpt lat="42.420364" lon="-3.189975">
        <ele>777.376</ele>
        <time>2021-07-25T10:08:17Z</time>
      </trkpt>
      <trkpt lat="42.420309" lon="-3.189980">
        <ele>776.883</ele>
        <time>2021-07-25T10:08:25Z</time>
      </trkpt>
      <trkpt lat="42.420322" lon="-3.189996">
        <ele>775.925</ele>
        <time>2021-07-25T10:08:41Z</time>
      </trkpt>
      <trkpt lat="42.420297" lon="-3.189979">
        <ele>781.617</ele>
        <time>2021-07-25T10:09:01Z</time>
      </trkpt>
      <trkpt lat="42.420311" lon="-3.189938">
        <ele>785.008</ele>
        <time>2021-07-25T10:09:24Z</time>
      </trkpt>
      <trkpt lat="42.420308" lon="-3.189953">
        <ele>783.115</ele>
        <time>2021-07-25T10:09:47Z</time>
      </trkpt>
      <trkpt lat="42.420325" lon="-3.189961">
        <ele>781.687</ele>
        <time>2021-07-25T10:10:05Z</time>
      </trkpt>
      <trkpt lat="42.420319" lon="-3.189968">
        <ele>781.214</ele>
        <time>2021-07-25T10:10:18Z</time>
      </trkpt>
      <trkpt lat="42.420314" lon="-3.190005">
        <ele>781.614</ele>
        <time>2021-07-25T10:10:25Z</time>
      </trkpt>
      <trkpt lat="42.420323" lon="-3.190027">
        <ele>782.698</ele>
        <time>2021-07-25T10:10:27Z</time>
      </trkpt>
      <trkpt lat="42.420328" lon="-3.190089">
        <ele>783.676</ele>
        <time>2021-07-25T10:10:31Z</time>
      </trkpt>
      <trkpt lat="42.420359" lon="-3.190309">
        <ele>782.183</ele>
        <time>2021-07-25T10:10:42Z</time>
      </trkpt>
      <trkpt lat="42.420487" lon="-3.190470">
        <ele>783.641</ele>
        <time>2021-07-25T10:10:49Z</time>
      </trkpt>
      <trkpt lat="42.420577" lon="-3.190578">
        <ele>784.542</ele>
        <time>2021-07-25T10:10:57Z</time>
      </trkpt>
      <trkpt lat="42.420644" lon="-3.190714">
        <ele>782.622</ele>
        <time>2021-07-25T10:11:06Z</time>
      </trkpt>
      <trkpt lat="42.420669" lon="-3.190817">
        <ele>779.714</ele>
        <time>2021-07-25T10:11:13Z</time>
      </trkpt>
      <trkpt lat="42.420712" lon="-3.190908">
        <ele>778.808</ele>
        <time>2021-07-25T10:11:21Z</time>
      </trkpt>
      <trkpt lat="42.420707" lon="-3.190937">
        <ele>781.291</ele>
        <time>2021-07-25T10:11:33Z</time>
      </trkpt>
      <trkpt lat="42.420692" lon="-3.190974">
        <ele>782.123</ele>
        <time>2021-07-25T10:11:46Z</time>
      </trkpt>
      <trkpt lat="42.420699" lon="-3.190973">
        <ele>781.680</ele>
        <time>2021-07-25T10:11:55Z</time>
      </trkpt>
      <trkpt lat="42.420699" lon="-3.190985">
        <ele>782.160</ele>
        <time>2021-07-25T10:12:05Z</time>
      </trkpt>
      <trkpt lat="42.420790" lon="-3.191120">
        <ele>781.674</ele>
        <time>2021-07-25T10:12:14Z</time>
      </trkpt>
      <trkpt lat="42.420887" lon="-3.191281">
        <ele>778.342</ele>
        <time>2021-07-25T10:12:21Z</time>
      </trkpt>
      <trkpt lat="42.420935" lon="-3.191222">
        <ele>777.389</ele>
        <time>2021-07-25T10:12:26Z</time>
      </trkpt>
      <trkpt lat="42.420967" lon="-3.191092">
        <ele>777.857</ele>
        <time>2021-07-25T10:12:34Z</time>
      </trkpt>
      <trkpt lat="42.421015" lon="-3.190950">
        <ele>777.378</ele>
        <time>2021-07-25T10:12:44Z</time>
      </trkpt>
      <trkpt lat="42.421058" lon="-3.190826">
        <ele>777.833</ele>
        <time>2021-07-25T10:12:52Z</time>
      </trkpt>
      <trkpt lat="42.421096" lon="-3.190725">
        <ele>777.826</ele>
        <time>2021-07-25T10:12:59Z</time>
      </trkpt>
      <trkpt lat="42.421115" lon="-3.190651">
        <ele>777.308</ele>
        <time>2021-07-25T10:13:03Z</time>
      </trkpt>
      <trkpt lat="42.421185" lon="-3.190474">
        <ele>775.474</ele>
        <time>2021-07-25T10:13:12Z</time>
      </trkpt>
      <trkpt lat="42.421243" lon="-3.190292">
        <ele>776.416</ele>
        <time>2021-07-25T10:13:21Z</time>
      </trkpt>
      <trkpt lat="42.421270" lon="-3.190222">
        <ele>775.943</ele>
        <time>2021-07-25T10:13:25Z</time>
      </trkpt>
      <trkpt lat="42.421270" lon="-3.190183">
        <ele>774.083</ele>
        <time>2021-07-25T10:13:28Z</time>
      </trkpt>
      <trkpt lat="42.421277" lon="-3.190139">
        <ele>772.087</ele>
        <time>2021-07-25T10:13:31Z</time>
      </trkpt>
      <trkpt lat="42.421252" lon="-3.189985">
        <ele>774.035</ele>
        <time>2021-07-25T10:13:39Z</time>
      </trkpt>
      <trkpt lat="42.421217" lon="-3.189820">
        <ele>774.992</ele>
        <time>2021-07-25T10:13:46Z</time>
      </trkpt>
      <trkpt lat="42.421209" lon="-3.189660">
        <ele>775.450</ele>
        <time>2021-07-25T10:13:54Z</time>
      </trkpt>
      <trkpt lat="42.421231" lon="-3.189612">
        <ele>775.499</ele>
        <time>2021-07-25T10:14:04Z</time>
      </trkpt>
      <trkpt lat="42.421237" lon="-3.189470">
        <ele>774.907</ele>
        <time>2021-07-25T10:14:10Z</time>
      </trkpt>
      <trkpt lat="42.421216" lon="-3.189283">
        <ele>774.927</ele>
        <time>2021-07-25T10:14:17Z</time>
      </trkpt>
      <trkpt lat="42.421206" lon="-3.189191">
        <ele>774.908</ele>
        <time>2021-07-25T10:14:21Z</time>
      </trkpt>
      <trkpt lat="42.421107" lon="-3.189155">
        <ele>775.476</ele>
        <time>2021-07-25T10:14:28Z</time>
      </trkpt>
      <trkpt lat="42.421090" lon="-3.189156">
        <ele>775.458</ele>
        <time>2021-07-25T10:14:29Z</time>
      </trkpt>
      <trkpt lat="42.420894" lon="-3.189138">
        <ele>773.535</ele>
        <time>2021-07-25T10:14:40Z</time>
      </trkpt>
      <trkpt lat="42.420798" lon="-3.189100">
        <ele>774.485</ele>
        <time>2021-07-25T10:14:48Z</time>
      </trkpt>
      <trkpt lat="42.420778" lon="-3.189042">
        <ele>775.419</ele>
        <time>2021-07-25T10:14:52Z</time>
      </trkpt>
      <trkpt lat="42.420761" lon="-3.188859">
        <ele>777.387</ele>
        <time>2021-07-25T10:15:04Z</time>
      </trkpt>
      <trkpt lat="42.420749" lon="-3.188784">
        <ele>777.854</ele>
        <time>2021-07-25T10:15:09Z</time>
      </trkpt>
      <trkpt lat="42.420722" lon="-3.188641">
        <ele>777.852</ele>
        <time>2021-07-25T10:15:17Z</time>
      </trkpt>
      <trkpt lat="42.420715" lon="-3.188614">
        <ele>774.959</ele>
        <time>2021-07-25T10:15:36Z</time>
      </trkpt>
      <trkpt lat="42.420721" lon="-3.188630">
        <ele>774.903</ele>
        <time>2021-07-25T10:15:56Z</time>
      </trkpt>
      <trkpt lat="42.420714" lon="-3.188607">
        <ele>775.923</ele>
        <time>2021-07-25T10:16:10Z</time>
      </trkpt>
      <trkpt lat="42.420715" lon="-3.188587">
        <ele>776.408</ele>
        <time>2021-07-25T10:16:13Z</time>
      </trkpt>
      <trkpt lat="42.420668" lon="-3.188554">
        <ele>775.462</ele>
        <time>2021-07-25T10:16:17Z</time>
      </trkpt>
      <trkpt lat="42.420546" lon="-3.188480">
        <ele>774.074</ele>
        <time>2021-07-25T10:16:27Z</time>
      </trkpt>
      <trkpt lat="42.420451" lon="-3.188454">
        <ele>774.081</ele>
        <time>2021-07-25T10:16:34Z</time>
      </trkpt>
      <trkpt lat="42.420325" lon="-3.188390">
        <ele>774.921</ele>
        <time>2021-07-25T10:16:42Z</time>
      </trkpt>
      <trkpt lat="42.420203" lon="-3.188311">
        <ele>775.465</ele>
        <time>2021-07-25T10:16:50Z</time>
      </trkpt>
      <trkpt lat="42.420178" lon="-3.188273">
        <ele>776.453</ele>
        <time>2021-07-25T10:16:52Z</time>
      </trkpt>
      <trkpt lat="42.420125" lon="-3.188210">
        <ele>774.970</ele>
        <time>2021-07-25T10:16:56Z</time>
      </trkpt>
      <trkpt lat="42.419981" lon="-3.188107">
        <ele>775.918</ele>
        <time>2021-07-25T10:17:04Z</time>
      </trkpt>
      <trkpt lat="42.419860" lon="-3.188007">
        <ele>775.967</ele>
        <time>2021-07-25T10:17:12Z</time>
      </trkpt>
      <trkpt lat="42.419732" lon="-3.187938">
        <ele>775.981</ele>
        <time>2021-07-25T10:17:19Z</time>
      </trkpt>
      <trkpt lat="42.419590" lon="-3.187772">
        <ele>777.319</ele>
        <time>2021-07-25T10:17:27Z</time>
      </trkpt>
      <trkpt lat="42.419445" lon="-3.187485">
        <ele>778.808</ele>
        <time>2021-07-25T10:17:37Z</time>
      </trkpt>
      <trkpt lat="42.419307" lon="-3.187174">
        <ele>779.733</ele>
        <time>2021-07-25T10:17:48Z</time>
      </trkpt>
      <trkpt lat="42.419151" lon="-3.186928">
        <ele>781.275</ele>
        <time>2021-07-25T10:17:58Z</time>
      </trkpt>
      <trkpt lat="42.419025" lon="-3.186760">
        <ele>782.152</ele>
        <time>2021-07-25T10:18:06Z</time>
      </trkpt>
      <trkpt lat="42.418882" lon="-3.186565">
        <ele>782.192</ele>
        <time>2021-07-25T10:18:15Z</time>
      </trkpt>
      <trkpt lat="42.418725" lon="-3.186340">
        <ele>782.686</ele>
        <time>2021-07-25T10:18:25Z</time>
      </trkpt>
      <trkpt lat="42.418579" lon="-3.186125">
        <ele>784.024</ele>
        <time>2021-07-25T10:18:34Z</time>
      </trkpt>
      <trkpt lat="42.418484" lon="-3.185861">
        <ele>784.521</ele>
        <time>2021-07-25T10:18:43Z</time>
      </trkpt>
      <trkpt lat="42.418453" lon="-3.185560">
        <ele>785.559</ele>
        <time>2021-07-25T10:18:52Z</time>
      </trkpt>
      <trkpt lat="42.418415" lon="-3.185210">
        <ele>786.597</ele>
        <time>2021-07-25T10:19:03Z</time>
      </trkpt>
      <trkpt lat="42.418374" lon="-3.184937">
        <ele>787.423</ele>
        <time>2021-07-25T10:19:12Z</time>
      </trkpt>
      <trkpt lat="42.418342" lon="-3.184630">
        <ele>787.925</ele>
        <time>2021-07-25T10:19:21Z</time>
      </trkpt>
      <trkpt lat="42.418254" lon="-3.184259">
        <ele>789.308</ele>
        <time>2021-07-25T10:19:33Z</time>
      </trkpt>
      <trkpt lat="42.418144" lon="-3.183944">
        <ele>789.896</ele>
        <time>2021-07-25T10:19:43Z</time>
      </trkpt>
      <trkpt lat="42.418034" lon="-3.183588">
        <ele>791.378</ele>
        <time>2021-07-25T10:19:54Z</time>
      </trkpt>
      <trkpt lat="42.417972" lon="-3.183213">
        <ele>792.725</ele>
        <time>2021-07-25T10:20:05Z</time>
      </trkpt>
      <trkpt lat="42.417933" lon="-3.182921">
        <ele>794.615</ele>
        <time>2021-07-25T10:20:14Z</time>
      </trkpt>
      <trkpt lat="42.417852" lon="-3.182574">
        <ele>796.129</ele>
        <time>2021-07-25T10:20:25Z</time>
      </trkpt>
      <trkpt lat="42.417767" lon="-3.182206">
        <ele>797.547</ele>
        <time>2021-07-25T10:20:37Z</time>
      </trkpt>
      <trkpt lat="42.417682" lon="-3.181939">
        <ele>798.534</ele>
        <time>2021-07-25T10:20:46Z</time>
      </trkpt>
      <trkpt lat="42.417594" lon="-3.181713">
        <ele>798.932</ele>
        <time>2021-07-25T10:20:54Z</time>
      </trkpt>
      <trkpt lat="42.417453" lon="-3.181425">
        <ele>799.498</ele>
        <time>2021-07-25T10:21:04Z</time>
      </trkpt>
      <trkpt lat="42.417330" lon="-3.181249">
        <ele>799.915</ele>
        <time>2021-07-25T10:21:12Z</time>
      </trkpt>
      <trkpt lat="42.417204" lon="-3.181045">
        <ele>800.426</ele>
        <time>2021-07-25T10:21:20Z</time>
      </trkpt>
      <trkpt lat="42.417038" lon="-3.180803">
        <ele>800.408</ele>
        <time>2021-07-25T10:21:29Z</time>
      </trkpt>
      <trkpt lat="42.416867" lon="-3.180623">
        <ele>800.446</ele>
        <time>2021-07-25T10:21:37Z</time>
      </trkpt>
      <trkpt lat="42.416693" lon="-3.180435">
        <ele>800.468</ele>
        <time>2021-07-25T10:21:46Z</time>
      </trkpt>
      <trkpt lat="42.416507" lon="-3.180156">
        <ele>799.965</ele>
        <time>2021-07-25T10:21:56Z</time>
      </trkpt>
      <trkpt lat="42.416317" lon="-3.179918">
        <ele>800.925</ele>
        <time>2021-07-25T10:22:05Z</time>
      </trkpt>
      <trkpt lat="42.416259" lon="-3.179804">
        <ele>800.969</ele>
        <time>2021-07-25T10:22:11Z</time>
      </trkpt>
      <trkpt lat="42.416238" lon="-3.179702">
        <ele>801.417</ele>
        <time>2021-07-25T10:22:19Z</time>
      </trkpt>
      <trkpt lat="42.416240" lon="-3.179707">
        <ele>801.854</ele>
        <time>2021-07-25T10:22:28Z</time>
      </trkpt>
      <trkpt lat="42.416245" lon="-3.179714">
        <ele>802.892</ele>
        <time>2021-07-25T10:22:40Z</time>
      </trkpt>
      <trkpt lat="42.416241" lon="-3.179694">
        <ele>802.342</ele>
        <time>2021-07-25T10:22:55Z</time>
      </trkpt>
      <trkpt lat="42.416258" lon="-3.179698">
        <ele>802.822</ele>
        <time>2021-07-25T10:23:15Z</time>
      </trkpt>
      <trkpt lat="42.416262" lon="-3.179684">
        <ele>802.314</ele>
        <time>2021-07-25T10:23:32Z</time>
      </trkpt>
      <trkpt lat="42.416249" lon="-3.179697">
        <ele>801.808</ele>
        <time>2021-07-25T10:23:47Z</time>
      </trkpt>
      <trkpt lat="42.416238" lon="-3.179726">
        <ele>802.391</ele>
        <time>2021-07-25T10:23:56Z</time>
      </trkpt>
      <trkpt lat="42.416237" lon="-3.179736">
        <ele>802.853</ele>
        <time>2021-07-25T10:24:04Z</time>
      </trkpt>
      <trkpt lat="42.416233" lon="-3.179755">
        <ele>802.860</ele>
        <time>2021-07-25T10:24:05Z</time>
      </trkpt>
      <trkpt lat="42.416225" lon="-3.179781">
        <ele>802.320</ele>
        <time>2021-07-25T10:24:06Z</time>
      </trkpt>
      <trkpt lat="42.416214" lon="-3.179802">
        <ele>802.344</ele>
        <time>2021-07-25T10:24:07Z</time>
      </trkpt>
      <trkpt lat="42.416195" lon="-3.179825">
        <ele>801.882</ele>
        <time>2021-07-25T10:24:08Z</time>
      </trkpt>
      <trkpt lat="42.416179" lon="-3.179842">
        <ele>801.829</ele>
        <time>2021-07-25T10:24:09Z</time>
      </trkpt>
      <trkpt lat="42.416084" lon="-3.179899">
        <ele>802.397</ele>
        <time>2021-07-25T10:24:15Z</time>
      </trkpt>
      <trkpt lat="42.416026" lon="-3.179880">
        <ele>802.827</ele>
        <time>2021-07-25T10:24:19Z</time>
      </trkpt>
      <trkpt lat="42.416017" lon="-3.179856">
        <ele>803.368</ele>
        <time>2021-07-25T10:24:20Z</time>
      </trkpt>
      <trkpt lat="42.415964" lon="-3.179639">
        <ele>804.214</ele>
        <time>2021-07-25T10:24:30Z</time>
      </trkpt>
      <trkpt lat="42.415956" lon="-3.179654">
        <ele>804.708</ele>
        <time>2021-07-25T10:24:43Z</time>
      </trkpt>
      <trkpt lat="42.415955" lon="-3.179651">
        <ele>805.739</ele>
        <time>2021-07-25T10:24:49Z</time>
      </trkpt>
      <trkpt lat="42.415957" lon="-3.179635">
        <ele>805.731</ele>
        <time>2021-07-25T10:24:50Z</time>
      </trkpt>
      <trkpt lat="42.415956" lon="-3.179614">
        <ele>806.218</ele>
        <time>2021-07-25T10:24:51Z</time>
      </trkpt>
      <trkpt lat="42.415926" lon="-3.179380">
        <ele>806.268</ele>
        <time>2021-07-25T10:24:57Z</time>
      </trkpt>
      <trkpt lat="42.415887" lon="-3.178981">
        <ele>806.282</ele>
        <time>2021-07-25T10:25:06Z</time>
      </trkpt>
      <trkpt lat="42.415869" lon="-3.178542">
        <ele>806.620</ele>
        <time>2021-07-25T10:25:17Z</time>
      </trkpt>
      <trkpt lat="42.415865" lon="-3.178268">
        <ele>806.657</ele>
        <time>2021-07-25T10:25:24Z</time>
      </trkpt>
      <trkpt lat="42.415888" lon="-3.177885">
        <ele>807.615</ele>
        <time>2021-07-25T10:25:34Z</time>
      </trkpt>
      <trkpt lat="42.415908" lon="-3.177576">
        <ele>808.112</ele>
        <time>2021-07-25T10:25:42Z</time>
      </trkpt>
      <trkpt lat="42.415953" lon="-3.177246">
        <ele>809.032</ele>
        <time>2021-07-25T10:25:51Z</time>
      </trkpt>
      <trkpt lat="42.416026" lon="-3.176875">
        <ele>810.005</ele>
        <time>2021-07-25T10:26:01Z</time>
      </trkpt>
      <trkpt lat="42.416114" lon="-3.176483">
        <ele>811.408</ele>
        <time>2021-07-25T10:26:12Z</time>
      </trkpt>
      <trkpt lat="42.416197" lon="-3.176146">
        <ele>812.478</ele>
        <time>2021-07-25T10:26:21Z</time>
      </trkpt>
      <trkpt lat="42.416244" lon="-3.175964">
        <ele>812.480</ele>
        <time>2021-07-25T10:26:27Z</time>
      </trkpt>
      <trkpt lat="42.416344" lon="-3.175592">
        <ele>812.927</ele>
        <time>2021-07-25T10:26:37Z</time>
      </trkpt>
      <trkpt lat="42.416431" lon="-3.175262">
        <ele>813.467</ele>
        <time>2021-07-25T10:26:46Z</time>
      </trkpt>
      <trkpt lat="42.416525" lon="-3.174892">
        <ele>813.811</ele>
        <time>2021-07-25T10:26:56Z</time>
      </trkpt>
      <trkpt lat="42.416633" lon="-3.174488">
        <ele>814.369</ele>
        <time>2021-07-25T10:27:07Z</time>
      </trkpt>
      <trkpt lat="42.416739" lon="-3.174088">
        <ele>815.886</ele>
        <time>2021-07-25T10:27:18Z</time>
      </trkpt>
      <trkpt lat="42.416833" lon="-3.173719">
        <ele>816.724</ele>
        <time>2021-07-25T10:27:28Z</time>
      </trkpt>
      <trkpt lat="42.416926" lon="-3.173366">
        <ele>817.237</ele>
        <time>2021-07-25T10:27:37Z</time>
      </trkpt>
      <trkpt lat="42.416987" lon="-3.173103">
        <ele>818.249</ele>
        <time>2021-07-25T10:27:44Z</time>
      </trkpt>
      <trkpt lat="42.417063" lon="-3.172818">
        <ele>819.113</ele>
        <time>2021-07-25T10:27:52Z</time>
      </trkpt>
      <trkpt lat="42.417162" lon="-3.172435">
        <ele>819.608</ele>
        <time>2021-07-25T10:28:02Z</time>
      </trkpt>
      <trkpt lat="42.417272" lon="-3.171995">
        <ele>820.140</ele>
        <time>2021-07-25T10:28:13Z</time>
      </trkpt>
      <trkpt lat="42.417390" lon="-3.171557">
        <ele>821.192</ele>
        <time>2021-07-25T10:28:24Z</time>
      </trkpt>
      <trkpt lat="42.417507" lon="-3.171094">
        <ele>821.539</ele>
        <time>2021-07-25T10:28:35Z</time>
      </trkpt>
      <trkpt lat="42.417634" lon="-3.170590">
        <ele>821.549</ele>
        <time>2021-07-25T10:28:46Z</time>
      </trkpt>
      <trkpt lat="42.417761" lon="-3.170082">
        <ele>822.023</ele>
        <time>2021-07-25T10:28:57Z</time>
      </trkpt>
      <trkpt lat="42.417892" lon="-3.169576">
        <ele>822.521</ele>
        <time>2021-07-25T10:29:08Z</time>
      </trkpt>
      <trkpt lat="42.418043" lon="-3.168977">
        <ele>823.548</ele>
        <time>2021-07-25T10:29:21Z</time>
      </trkpt>
      <trkpt lat="42.418205" lon="-3.168353">
        <ele>824.426</ele>
        <time>2021-07-25T10:29:34Z</time>
      </trkpt>
      <trkpt lat="42.418333" lon="-3.167841">
        <ele>824.912</ele>
        <time>2021-07-25T10:29:45Z</time>
      </trkpt>
      <trkpt lat="42.418448" lon="-3.167394">
        <ele>825.932</ele>
        <time>2021-07-25T10:29:55Z</time>
      </trkpt>
      <trkpt lat="42.418560" lon="-3.166944">
        <ele>826.305</ele>
        <time>2021-07-25T10:30:05Z</time>
      </trkpt>
      <trkpt lat="42.418729" lon="-3.166276">
        <ele>828.308</ele>
        <time>2021-07-25T10:30:19Z</time>
      </trkpt>
      <trkpt lat="42.418886" lon="-3.165651">
        <ele>828.758</ele>
        <time>2021-07-25T10:30:32Z</time>
      </trkpt>
      <trkpt lat="42.419020" lon="-3.165127">
        <ele>829.270</ele>
        <time>2021-07-25T10:30:43Z</time>
      </trkpt>
      <trkpt lat="42.419197" lon="-3.164433">
        <ele>830.237</ele>
        <time>2021-07-25T10:30:57Z</time>
      </trkpt>
      <trkpt lat="42.419319" lon="-3.163952">
        <ele>831.267</ele>
        <time>2021-07-25T10:31:07Z</time>
      </trkpt>
      <trkpt lat="42.419483" lon="-3.163306">
        <ele>831.251</ele>
        <time>2021-07-25T10:31:20Z</time>
      </trkpt>
      <trkpt lat="42.419507" lon="-3.163202">
        <ele>831.259</ele>
        <time>2021-07-25T10:31:22Z</time>
      </trkpt>
      <trkpt lat="42.419664" lon="-3.162610">
        <ele>831.256</ele>
        <time>2021-07-25T10:31:33Z</time>
      </trkpt>
      <trkpt lat="42.419823" lon="-3.161975">
        <ele>830.244</ele>
        <time>2021-07-25T10:31:44Z</time>
      </trkpt>
      <trkpt lat="42.419983" lon="-3.161351">
        <ele>829.742</ele>
        <time>2021-07-25T10:31:54Z</time>
      </trkpt>
      <trkpt lat="42.420160" lon="-3.160664">
        <ele>828.722</ele>
        <time>2021-07-25T10:32:05Z</time>
      </trkpt>
      <trkpt lat="42.420312" lon="-3.160067">
        <ele>828.714</ele>
        <time>2021-07-25T10:32:14Z</time>
      </trkpt>
      <trkpt lat="42.420470" lon="-3.159432">
        <ele>828.708</ele>
        <time>2021-07-25T10:32:24Z</time>
      </trkpt>
      <trkpt lat="42.420656" lon="-3.158760">
        <ele>827.881</ele>
        <time>2021-07-25T10:32:35Z</time>
      </trkpt>
      <trkpt lat="42.420862" lon="-3.158089">
        <ele>827.343</ele>
        <time>2021-07-25T10:32:46Z</time>
      </trkpt>
      <trkpt lat="42.421075" lon="-3.157425">
        <ele>826.850</ele>
        <time>2021-07-25T10:32:57Z</time>
      </trkpt>
      <trkpt lat="42.421321" lon="-3.156676">
        <ele>826.380</ele>
        <time>2021-07-25T10:33:09Z</time>
      </trkpt>
      <trkpt lat="42.421548" lon="-3.155999">
        <ele>825.984</ele>
        <time>2021-07-25T10:33:20Z</time>
      </trkpt>
      <trkpt lat="42.421730" lon="-3.155433">
        <ele>825.452</ele>
        <time>2021-07-25T10:33:29Z</time>
      </trkpt>
      <trkpt lat="42.422011" lon="-3.154573">
        <ele>823.529</ele>
        <time>2021-07-25T10:33:42Z</time>
      </trkpt>
      <trkpt lat="42.422229" lon="-3.153903">
        <ele>822.547</ele>
        <time>2021-07-25T10:33:52Z</time>
      </trkpt>
      <trkpt lat="42.422454" lon="-3.153212">
        <ele>820.614</ele>
        <time>2021-07-25T10:34:02Z</time>
      </trkpt>
      <trkpt lat="42.422720" lon="-3.152380">
        <ele>818.754</ele>
        <time>2021-07-25T10:34:15Z</time>
      </trkpt>
      <trkpt lat="42.422929" lon="-3.151748">
        <ele>818.209</ele>
        <time>2021-07-25T10:34:24Z</time>
      </trkpt>
      <trkpt lat="42.423204" lon="-3.150913">
        <ele>816.308</ele>
        <time>2021-07-25T10:34:36Z</time>
      </trkpt>
      <trkpt lat="42.423396" lon="-3.150316">
        <ele>814.898</ele>
        <time>2021-07-25T10:34:45Z</time>
      </trkpt>
      <trkpt lat="42.423645" lon="-3.149540">
        <ele>813.450</ele>
        <time>2021-07-25T10:34:56Z</time>
      </trkpt>
      <trkpt lat="42.423856" lon="-3.148908">
        <ele>812.417</ele>
        <time>2021-07-25T10:35:05Z</time>
      </trkpt>
      <trkpt lat="42.424114" lon="-3.148132">
        <ele>810.577</ele>
        <time>2021-07-25T10:35:16Z</time>
      </trkpt>
      <trkpt lat="42.424327" lon="-3.147489">
        <ele>809.061</ele>
        <time>2021-07-25T10:35:25Z</time>
      </trkpt>
      <trkpt lat="42.424580" lon="-3.146723">
        <ele>807.619</ele>
        <time>2021-07-25T10:35:36Z</time>
      </trkpt>
      <trkpt lat="42.424847" lon="-3.145891">
        <ele>805.786</ele>
        <time>2021-07-25T10:35:48Z</time>
      </trkpt>
      <trkpt lat="42.425115" lon="-3.145078">
        <ele>804.294</ele>
        <time>2021-07-25T10:35:59Z</time>
      </trkpt>
      <trkpt lat="42.425360" lon="-3.144331">
        <ele>802.395</ele>
        <time>2021-07-25T10:36:09Z</time>
      </trkpt>
      <trkpt lat="42.425660" lon="-3.143413">
        <ele>800.949</ele>
        <time>2021-07-25T10:36:21Z</time>
      </trkpt>
      <trkpt lat="42.425947" lon="-3.142553">
        <ele>798.523</ele>
        <time>2021-07-25T10:36:32Z</time>
      </trkpt>
      <trkpt lat="42.426205" lon="-3.141776">
        <ele>797.008</ele>
        <time>2021-07-25T10:36:42Z</time>
      </trkpt>
      <trkpt lat="42.426413" lon="-3.141128">
        <ele>796.176</ele>
        <time>2021-07-25T10:36:50Z</time>
      </trkpt>
      <trkpt lat="42.426650" lon="-3.140396">
        <ele>795.628</ele>
        <time>2021-07-25T10:37:00Z</time>
      </trkpt>
      <trkpt lat="42.426873" lon="-3.139710">
        <ele>795.135</ele>
        <time>2021-07-25T10:37:10Z</time>
      </trkpt>
      <trkpt lat="42.427132" lon="-3.138929">
        <ele>794.175</ele>
        <time>2021-07-25T10:37:22Z</time>
      </trkpt>
      <trkpt lat="42.427391" lon="-3.138147">
        <ele>793.249</ele>
        <time>2021-07-25T10:37:34Z</time>
      </trkpt>
      <trkpt lat="42.427701" lon="-3.137215">
        <ele>791.717</ele>
        <time>2021-07-25T10:37:47Z</time>
      </trkpt>
      <trkpt lat="42.427916" lon="-3.136560">
        <ele>790.834</ele>
        <time>2021-07-25T10:37:56Z</time>
      </trkpt>
      <trkpt lat="42.428210" lon="-3.135702">
        <ele>788.942</ele>
        <time>2021-07-25T10:38:08Z</time>
      </trkpt>
      <trkpt lat="42.428417" lon="-3.135057">
        <ele>787.931</ele>
        <time>2021-07-25T10:38:17Z</time>
      </trkpt>
      <trkpt lat="42.428498" lon="-3.134813">
        <ele>787.461</ele>
        <time>2021-07-25T10:38:21Z</time>
      </trkpt>
      <trkpt lat="42.428626" lon="-3.134446">
        <ele>787.407</ele>
        <time>2021-07-25T10:38:29Z</time>
      </trkpt>
      <trkpt lat="42.428724" lon="-3.134125">
        <ele>787.408</ele>
        <time>2021-07-25T10:38:37Z</time>
      </trkpt>
      <trkpt lat="42.428940" lon="-3.133527">
        <ele>787.990</ele>
        <time>2021-07-25T10:38:49Z</time>
      </trkpt>
      <trkpt lat="42.429162" lon="-3.133017">
        <ele>788.462</ele>
        <time>2021-07-25T10:38:59Z</time>
      </trkpt>
      <trkpt lat="42.429345" lon="-3.132671">
        <ele>789.329</ele>
        <time>2021-07-25T10:39:08Z</time>
      </trkpt>
      <trkpt lat="42.429507" lon="-3.132413">
        <ele>790.359</ele>
        <time>2021-07-25T10:39:17Z</time>
      </trkpt>
      <trkpt lat="42.429685" lon="-3.132189">
        <ele>792.263</ele>
        <time>2021-07-25T10:39:26Z</time>
      </trkpt>
      <trkpt lat="42.429842" lon="-3.131999">
        <ele>793.251</ele>
        <time>2021-07-25T10:39:34Z</time>
      </trkpt>
      <trkpt lat="42.430089" lon="-3.131712">
        <ele>793.768</ele>
        <time>2021-07-25T10:39:46Z</time>
      </trkpt>
      <trkpt lat="42.430301" lon="-3.131452">
        <ele>794.656</ele>
        <time>2021-07-25T10:39:56Z</time>
      </trkpt>
      <trkpt lat="42.430512" lon="-3.131096">
        <ele>794.649</ele>
        <time>2021-07-25T10:40:07Z</time>
      </trkpt>
      <trkpt lat="42.430681" lon="-3.130749">
        <ele>795.102</ele>
        <time>2021-07-25T10:40:16Z</time>
      </trkpt>
      <trkpt lat="42.430893" lon="-3.130220">
        <ele>795.122</ele>
        <time>2021-07-25T10:40:28Z</time>
      </trkpt>
      <trkpt lat="42.431045" lon="-3.129788">
        <ele>795.108</ele>
        <time>2021-07-25T10:40:37Z</time>
      </trkpt>
      <trkpt lat="42.431177" lon="-3.129223">
        <ele>794.681</ele>
        <time>2021-07-25T10:40:48Z</time>
      </trkpt>
      <trkpt lat="42.431221" lon="-3.128655">
        <ele>793.273</ele>
        <time>2021-07-25T10:40:57Z</time>
      </trkpt>
      <trkpt lat="42.431187" lon="-3.128061">
        <ele>790.890</ele>
        <time>2021-07-25T10:41:04Z</time>
      </trkpt>
      <trkpt lat="42.431073" lon="-3.127248">
        <ele>787.430</ele>
        <time>2021-07-25T10:41:12Z</time>
      </trkpt>
      <trkpt lat="42.430946" lon="-3.126320">
        <ele>784.514</ele>
        <time>2021-07-25T10:41:20Z</time>
      </trkpt>
      <trkpt lat="42.430829" lon="-3.125452">
        <ele>783.632</ele>
        <time>2021-07-25T10:41:29Z</time>
      </trkpt>
      <trkpt lat="42.430753" lon="-3.124886">
        <ele>784.079</ele>
        <time>2021-07-25T10:41:37Z</time>
      </trkpt>
      <trkpt lat="42.430674" lon="-3.124301">
        <ele>785.547</ele>
        <time>2021-07-25T10:41:47Z</time>
      </trkpt>
      <trkpt lat="42.430655" lon="-3.124171">
        <ele>786.048</ele>
        <time>2021-07-25T10:41:52Z</time>
      </trkpt>
      <trkpt lat="42.430631" lon="-3.123980">
        <ele>786.561</ele>
        <time>2021-07-25T10:41:58Z</time>
      </trkpt>
      <trkpt lat="42.430570" lon="-3.123543">
        <ele>788.417</ele>
        <time>2021-07-25T10:42:09Z</time>
      </trkpt>
      <trkpt lat="42.430513" lon="-3.123091">
        <ele>789.808</ele>
        <time>2021-07-25T10:42:21Z</time>
      </trkpt>
      <trkpt lat="42.430497" lon="-3.122572">
        <ele>790.851</ele>
        <time>2021-07-25T10:42:33Z</time>
      </trkpt>
      <trkpt lat="42.430535" lon="-3.122073">
        <ele>790.843</ele>
        <time>2021-07-25T10:42:43Z</time>
      </trkpt>
      <trkpt lat="42.430579" lon="-3.121555">
        <ele>790.880</ele>
        <time>2021-07-25T10:42:53Z</time>
      </trkpt>
      <trkpt lat="42.430628" lon="-3.120982">
        <ele>789.870</ele>
        <time>2021-07-25T10:43:04Z</time>
      </trkpt>
      <trkpt lat="42.430678" lon="-3.120357">
        <ele>788.474</ele>
        <time>2021-07-25T10:43:15Z</time>
      </trkpt>
      <trkpt lat="42.430730" lon="-3.119719">
        <ele>786.512</ele>
        <time>2021-07-25T10:43:24Z</time>
      </trkpt>
      <trkpt lat="42.430805" lon="-3.118807">
        <ele>784.029</ele>
        <time>2021-07-25T10:43:35Z</time>
      </trkpt>
      <trkpt lat="42.430887" lon="-3.117807">
        <ele>780.747</ele>
        <time>2021-07-25T10:43:46Z</time>
      </trkpt>
      <trkpt lat="42.430988" lon="-3.116672">
        <ele>777.818</ele>
        <time>2021-07-25T10:43:58Z</time>
      </trkpt>
      <trkpt lat="42.431072" lon="-3.115738">
        <ele>774.998</ele>
        <time>2021-07-25T10:44:08Z</time>
      </trkpt>
      <trkpt lat="42.431164" lon="-3.114697">
        <ele>772.017</ele>
        <time>2021-07-25T10:44:19Z</time>
      </trkpt>
      <trkpt lat="42.431248" lon="-3.113655">
        <ele>767.708</ele>
        <time>2021-07-25T10:44:30Z</time>
      </trkpt>
      <trkpt lat="42.431335" lon="-3.112655">
        <ele>764.348</ele>
        <time>2021-07-25T10:44:40Z</time>
      </trkpt>
      <trkpt lat="42.431444" lon="-3.111410">
        <ele>759.530</ele>
        <time>2021-07-25T10:44:51Z</time>
      </trkpt>
      <trkpt lat="42.431564" lon="-3.109995">
        <ele>755.217</ele>
        <time>2021-07-25T10:45:02Z</time>
      </trkpt>
      <trkpt lat="42.431673" lon="-3.108678">
        <ele>751.437</ele>
        <time>2021-07-25T10:45:13Z</time>
      </trkpt>
      <trkpt lat="42.431745" lon="-3.107857">
        <ele>750.951</ele>
        <time>2021-07-25T10:45:21Z</time>
      </trkpt>
      <trkpt lat="42.431801" lon="-3.107220">
        <ele>750.489</ele>
        <time>2021-07-25T10:45:29Z</time>
      </trkpt>
      <trkpt lat="42.431891" lon="-3.106208">
        <ele>749.946</ele>
        <time>2021-07-25T10:45:42Z</time>
      </trkpt>
      <trkpt lat="42.431979" lon="-3.105231">
        <ele>749.984</ele>
        <time>2021-07-25T10:45:55Z</time>
      </trkpt>
      <trkpt lat="42.432067" lon="-3.104201">
        <ele>749.415</ele>
        <time>2021-07-25T10:46:09Z</time>
      </trkpt>
      <trkpt lat="42.432146" lon="-3.103363">
        <ele>749.465</ele>
        <time>2021-07-25T10:46:20Z</time>
      </trkpt>
      <trkpt lat="42.432218" lon="-3.102616">
        <ele>749.911</ele>
        <time>2021-07-25T10:46:30Z</time>
      </trkpt>
      <trkpt lat="42.432269" lon="-3.102017">
        <ele>751.408</ele>
        <time>2021-07-25T10:46:39Z</time>
      </trkpt>
      <trkpt lat="42.432304" lon="-3.101563">
        <ele>752.858</ele>
        <time>2021-07-25T10:46:48Z</time>
      </trkpt>
      <trkpt lat="42.432352" lon="-3.101066">
        <ele>754.750</ele>
        <time>2021-07-25T10:46:59Z</time>
      </trkpt>
      <trkpt lat="42.432402" lon="-3.100674">
        <ele>755.787</ele>
        <time>2021-07-25T10:47:08Z</time>
      </trkpt>
      <trkpt lat="42.432486" lon="-3.100193">
        <ele>757.657</ele>
        <time>2021-07-25T10:47:19Z</time>
      </trkpt>
      <trkpt lat="42.432607" lon="-3.099702">
        <ele>757.621</ele>
        <time>2021-07-25T10:47:30Z</time>
      </trkpt>
      <trkpt lat="42.432662" lon="-3.099471">
        <ele>757.619</ele>
        <time>2021-07-25T10:47:37Z</time>
      </trkpt>
      <trkpt lat="42.432750" lon="-3.099109">
        <ele>757.646</ele>
        <time>2021-07-25T10:47:48Z</time>
      </trkpt>
      <trkpt lat="42.432843" lon="-3.098705">
        <ele>758.694</ele>
        <time>2021-07-25T10:47:59Z</time>
      </trkpt>
      <trkpt lat="42.432944" lon="-3.098273">
        <ele>760.073</ele>
        <time>2021-07-25T10:48:10Z</time>
      </trkpt>
      <trkpt lat="42.433029" lon="-3.097907">
        <ele>761.085</ele>
        <time>2021-07-25T10:48:19Z</time>
      </trkpt>
      <trkpt lat="42.433109" lon="-3.097559">
        <ele>761.913</ele>
        <time>2021-07-25T10:48:28Z</time>
      </trkpt>
      <trkpt lat="42.433203" lon="-3.097178">
        <ele>762.908</ele>
        <time>2021-07-25T10:48:38Z</time>
      </trkpt>
      <trkpt lat="42.433298" lon="-3.096748">
        <ele>763.954</ele>
        <time>2021-07-25T10:48:49Z</time>
      </trkpt>
      <trkpt lat="42.433404" lon="-3.096257">
        <ele>767.216</ele>
        <time>2021-07-25T10:49:01Z</time>
      </trkpt>
      <trkpt lat="42.433491" lon="-3.095880">
        <ele>768.263</ele>
        <time>2021-07-25T10:49:11Z</time>
      </trkpt>
      <trkpt lat="42.433527" lon="-3.095728">
        <ele>768.283</ele>
        <time>2021-07-25T10:49:19Z</time>
      </trkpt>
      <trkpt lat="42.433589" lon="-3.095474">
        <ele>769.137</ele>
        <time>2021-07-25T10:49:29Z</time>
      </trkpt>
      <trkpt lat="42.433672" lon="-3.095131">
        <ele>769.125</ele>
        <time>2021-07-25T10:49:41Z</time>
      </trkpt>
      <trkpt lat="42.433719" lon="-3.094899">
        <ele>770.692</ele>
        <time>2021-07-25T10:49:49Z</time>
      </trkpt>
      <trkpt lat="42.433781" lon="-3.094613">
        <ele>772.020</ele>
        <time>2021-07-25T10:49:58Z</time>
      </trkpt>
      <trkpt lat="42.433880" lon="-3.094167">
        <ele>773.035</ele>
        <time>2021-07-25T10:50:11Z</time>
      </trkpt>
      <trkpt lat="42.433886" lon="-3.094138">
        <ele>772.086</ele>
        <time>2021-07-25T10:50:15Z</time>
      </trkpt>
      <trkpt lat="42.433885" lon="-3.094151">
        <ele>772.014</ele>
        <time>2021-07-25T10:50:29Z</time>
      </trkpt>
      <trkpt lat="42.433891" lon="-3.094126">
        <ele>771.108</ele>
        <time>2021-07-25T10:50:34Z</time>
      </trkpt>
      <trkpt lat="42.433899" lon="-3.094111">
        <ele>771.120</ele>
        <time>2021-07-25T10:50:35Z</time>
      </trkpt>
      <trkpt lat="42.433954" lon="-3.093897">
        <ele>771.182</ele>
        <time>2021-07-25T10:50:41Z</time>
      </trkpt>
      <trkpt lat="42.434048" lon="-3.093524">
        <ele>770.119</ele>
        <time>2021-07-25T10:50:48Z</time>
      </trkpt>
      <trkpt lat="42.434173" lon="-3.093040">
        <ele>767.759</ele>
        <time>2021-07-25T10:50:55Z</time>
      </trkpt>
      <trkpt lat="42.434340" lon="-3.092386">
        <ele>765.383</ele>
        <time>2021-07-25T10:51:02Z</time>
      </trkpt>
      <trkpt lat="42.434589" lon="-3.091441">
        <ele>761.921</ele>
        <time>2021-07-25T10:51:11Z</time>
      </trkpt>
      <trkpt lat="42.434920" lon="-3.090197">
        <ele>758.158</ele>
        <time>2021-07-25T10:51:24Z</time>
      </trkpt>
      <trkpt lat="42.435056" lon="-3.089661">
        <ele>757.616</ele>
        <time>2021-07-25T10:51:31Z</time>
      </trkpt>
      <trkpt lat="42.435213" lon="-3.089111">
        <ele>757.661</ele>
        <time>2021-07-25T10:51:40Z</time>
      </trkpt>
      <trkpt lat="42.435407" lon="-3.088555">
        <ele>757.621</ele>
        <time>2021-07-25T10:51:50Z</time>
      </trkpt>
      <trkpt lat="42.435625" lon="-3.088056">
        <ele>758.113</ele>
        <time>2021-07-25T10:52:00Z</time>
      </trkpt>
      <trkpt lat="42.435911" lon="-3.087577">
        <ele>758.108</ele>
        <time>2021-07-25T10:52:11Z</time>
      </trkpt>
      <trkpt lat="42.436291" lon="-3.087117">
        <ele>759.163</ele>
        <time>2021-07-25T10:52:23Z</time>
      </trkpt>
      <trkpt lat="42.436699" lon="-3.086786">
        <ele>761.085</ele>
        <time>2021-07-25T10:52:35Z</time>
      </trkpt>
      <trkpt lat="42.436995" lon="-3.086572">
        <ele>762.912</ele>
        <time>2021-07-25T10:52:46Z</time>
      </trkpt>
      <trkpt lat="42.437254" lon="-3.086364">
        <ele>764.852</ele>
        <time>2021-07-25T10:52:57Z</time>
      </trkpt>
      <trkpt lat="42.437396" lon="-3.086096">
        <ele>766.356</ele>
        <time>2021-07-25T10:53:07Z</time>
      </trkpt>
      <trkpt lat="42.437501" lon="-3.085827">
        <ele>767.264</ele>
        <time>2021-07-25T10:53:16Z</time>
      </trkpt>
      <trkpt lat="42.437625" lon="-3.085476">
        <ele>768.231</ele>
        <time>2021-07-25T10:53:27Z</time>
      </trkpt>
      <trkpt lat="42.437753" lon="-3.085125">
        <ele>769.119</ele>
        <time>2021-07-25T10:53:37Z</time>
      </trkpt>
      <trkpt lat="42.437896" lon="-3.084702">
        <ele>769.671</ele>
        <time>2021-07-25T10:53:49Z</time>
      </trkpt>
      <trkpt lat="42.437958" lon="-3.084345">
        <ele>770.141</ele>
        <time>2021-07-25T10:53:58Z</time>
      </trkpt>
      <trkpt lat="42.437973" lon="-3.083921">
        <ele>770.615</ele>
        <time>2021-07-25T10:54:08Z</time>
      </trkpt>
      <trkpt lat="42.437950" lon="-3.083483">
        <ele>771.108</ele>
        <time>2021-07-25T10:54:18Z</time>
      </trkpt>
      <trkpt lat="42.437917" lon="-3.083018">
        <ele>771.614</ele>
        <time>2021-07-25T10:54:28Z</time>
      </trkpt>
      <trkpt lat="42.437898" lon="-3.082727">
        <ele>772.016</ele>
        <time>2021-07-25T10:54:34Z</time>
      </trkpt>
      <trkpt lat="42.437871" lon="-3.082280">
        <ele>772.043</ele>
        <time>2021-07-25T10:54:43Z</time>
      </trkpt>
      <trkpt lat="42.437835" lon="-3.081747">
        <ele>771.613</ele>
        <time>2021-07-25T10:54:53Z</time>
      </trkpt>
      <trkpt lat="42.437824" lon="-3.081584">
        <ele>771.137</ele>
        <time>2021-07-25T10:54:56Z</time>
      </trkpt>
      <trkpt lat="42.437819" lon="-3.081528">
        <ele>770.685</ele>
        <time>2021-07-25T10:54:57Z</time>
      </trkpt>
      <trkpt lat="42.437775" lon="-3.080780">
        <ele>769.192</ele>
        <time>2021-07-25T10:55:09Z</time>
      </trkpt>
      <trkpt lat="42.437761" lon="-3.080556">
        <ele>768.270</ele>
        <time>2021-07-25T10:55:12Z</time>
      </trkpt>
      <trkpt lat="42.437712" lon="-3.079901">
        <ele>765.386</ele>
        <time>2021-07-25T10:55:19Z</time>
      </trkpt>
      <trkpt lat="42.437639" lon="-3.078735">
        <ele>761.560</ele>
        <time>2021-07-25T10:55:29Z</time>
      </trkpt>
      <trkpt lat="42.437584" lon="-3.077771">
        <ele>760.526</ele>
        <time>2021-07-25T10:55:38Z</time>
      </trkpt>
      <trkpt lat="42.437539" lon="-3.077117">
        <ele>760.508</ele>
        <time>2021-07-25T10:55:46Z</time>
      </trkpt>
      <trkpt lat="42.437497" lon="-3.076440">
        <ele>761.015</ele>
        <time>2021-07-25T10:55:56Z</time>
      </trkpt>
      <trkpt lat="42.437439" lon="-3.075512">
        <ele>761.917</ele>
        <time>2021-07-25T10:56:10Z</time>
      </trkpt>
      <trkpt lat="42.437387" lon="-3.074649">
        <ele>763.454</ele>
        <time>2021-07-25T10:56:23Z</time>
      </trkpt>
      <trkpt lat="42.437344" lon="-3.073936">
        <ele>762.954</ele>
        <time>2021-07-25T10:56:34Z</time>
      </trkpt>
      <trkpt lat="42.437305" lon="-3.073247">
        <ele>761.518</ele>
        <time>2021-07-25T10:56:44Z</time>
      </trkpt>
      <trkpt lat="42.437267" lon="-3.072600">
        <ele>759.576</ele>
        <time>2021-07-25T10:56:53Z</time>
      </trkpt>
      <trkpt lat="42.437235" lon="-3.071783">
        <ele>757.193</ele>
        <time>2021-07-25T10:57:03Z</time>
      </trkpt>
      <trkpt lat="42.437220" lon="-3.070871">
        <ele>754.781</ele>
        <time>2021-07-25T10:57:13Z</time>
      </trkpt>
      <trkpt lat="42.437222" lon="-3.070128">
        <ele>752.859</ele>
        <time>2021-07-25T10:57:21Z</time>
      </trkpt>
      <trkpt lat="42.437239" lon="-3.068809">
        <ele>750.403</ele>
        <time>2021-07-25T10:57:35Z</time>
      </trkpt>
      <trkpt lat="42.437247" lon="-3.067993">
        <ele>750.423</ele>
        <time>2021-07-25T10:57:45Z</time>
      </trkpt>
      <trkpt lat="42.437245" lon="-3.067244">
        <ele>749.408</ele>
        <time>2021-07-25T10:57:56Z</time>
      </trkpt>
      <trkpt lat="42.437254" lon="-3.066496">
        <ele>749.452</ele>
        <time>2021-07-25T10:58:08Z</time>
      </trkpt>
      <trkpt lat="42.437336" lon="-3.065919">
        <ele>748.024</ele>
        <time>2021-07-25T10:58:18Z</time>
      </trkpt>
      <trkpt lat="42.437557" lon="-3.065339">
        <ele>746.691</ele>
        <time>2021-07-25T10:58:28Z</time>
      </trkpt>
      <trkpt lat="42.437804" lon="-3.064810">
        <ele>744.681</ele>
        <time>2021-07-25T10:58:37Z</time>
      </trkpt>
      <trkpt lat="42.438118" lon="-3.064166">
        <ele>743.215</ele>
        <time>2021-07-25T10:58:47Z</time>
      </trkpt>
      <trkpt lat="42.438379" lon="-3.063537">
        <ele>741.353</ele>
        <time>2021-07-25T10:58:56Z</time>
      </trkpt>
      <trkpt lat="42.438652" lon="-3.062896">
        <ele>740.340</ele>
        <time>2021-07-25T10:59:06Z</time>
      </trkpt>
      <trkpt lat="42.438662" lon="-3.062845">
        <ele>740.318</ele>
        <time>2021-07-25T10:59:07Z</time>
      </trkpt>
      <trkpt lat="42.438660" lon="-3.062801">
        <ele>740.396</ele>
        <time>2021-07-25T10:59:08Z</time>
      </trkpt>
      <trkpt lat="42.438643" lon="-3.062756">
        <ele>740.331</ele>
        <time>2021-07-25T10:59:09Z</time>
      </trkpt>
      <trkpt lat="42.438619" lon="-3.062726">
        <ele>740.324</ele>
        <time>2021-07-25T10:59:10Z</time>
      </trkpt>
      <trkpt lat="42.438598" lon="-3.062708">
        <ele>740.308</ele>
        <time>2021-07-25T10:59:11Z</time>
      </trkpt>
      <trkpt lat="42.438571" lon="-3.062688">
        <ele>740.346</ele>
        <time>2021-07-25T10:59:12Z</time>
      </trkpt>
      <trkpt lat="42.438345" lon="-3.062478">
        <ele>741.318</ele>
        <time>2021-07-25T10:59:20Z</time>
      </trkpt>
      <trkpt lat="42.438105" lon="-3.062165">
        <ele>741.315</ele>
        <time>2021-07-25T10:59:30Z</time>
      </trkpt>
      <trkpt lat="42.438107" lon="-3.062111">
        <ele>740.865</ele>
        <time>2021-07-25T10:59:31Z</time>
      </trkpt>
      <trkpt lat="42.438118" lon="-3.062059">
        <ele>740.889</ele>
        <time>2021-07-25T10:59:32Z</time>
      </trkpt>
      <trkpt lat="42.438135" lon="-3.062007">
        <ele>740.877</ele>
        <time>2021-07-25T10:59:33Z</time>
      </trkpt>
      <trkpt lat="42.438361" lon="-3.061425">
        <ele>739.314</ele>
        <time>2021-07-25T10:59:44Z</time>
      </trkpt>
      <trkpt lat="42.438604" lon="-3.060811">
        <ele>737.982</ele>
        <time>2021-07-25T10:59:55Z</time>
      </trkpt>
      <trkpt lat="42.438663" lon="-3.060641">
        <ele>737.495</ele>
        <time>2021-07-25T10:59:58Z</time>
      </trkpt>
      <trkpt lat="42.438937" lon="-3.060052">
        <ele>736.549</ele>
        <time>2021-07-25T11:00:09Z</time>
      </trkpt>
      <trkpt lat="42.438983" lon="-3.059947">
        <ele>736.523</ele>
        <time>2021-07-25T11:00:11Z</time>
      </trkpt>
      <trkpt lat="42.439249" lon="-3.059357">
        <ele>735.008</ele>
        <time>2021-07-25T11:00:21Z</time>
      </trkpt>
      <trkpt lat="42.439484" lon="-3.058874">
        <ele>734.196</ele>
        <time>2021-07-25T11:00:30Z</time>
      </trkpt>
      <trkpt lat="42.439512" lon="-3.058820">
        <ele>734.198</ele>
        <time>2021-07-25T11:00:31Z</time>
      </trkpt>
      <trkpt lat="42.439771" lon="-3.058257">
        <ele>733.115</ele>
        <time>2021-07-25T11:00:41Z</time>
      </trkpt>
      <trkpt lat="42.439843" lon="-3.058086">
        <ele>733.175</ele>
        <time>2021-07-25T11:00:44Z</time>
      </trkpt>
      <trkpt lat="42.440105" lon="-3.057556">
        <ele>731.769</ele>
        <time>2021-07-25T11:00:53Z</time>
      </trkpt>
      <trkpt lat="42.440398" lon="-3.057020">
        <ele>730.727</ele>
        <time>2021-07-25T11:01:03Z</time>
      </trkpt>
      <trkpt lat="42.440733" lon="-3.056415">
        <ele>729.714</ele>
        <time>2021-07-25T11:01:14Z</time>
      </trkpt>
      <trkpt lat="42.441048" lon="-3.055845">
        <ele>728.362</ele>
        <time>2021-07-25T11:01:24Z</time>
      </trkpt>
      <trkpt lat="42.441351" lon="-3.055311">
        <ele>727.894</ele>
        <time>2021-07-25T11:01:34Z</time>
      </trkpt>
      <trkpt lat="42.441576" lon="-3.054887">
        <ele>726.457</ele>
        <time>2021-07-25T11:01:43Z</time>
      </trkpt>
      <trkpt lat="42.441755" lon="-3.054557">
        <ele>725.422</ele>
        <time>2021-07-25T11:01:50Z</time>
      </trkpt>
      <trkpt lat="42.441778" lon="-3.054512">
        <ele>725.408</ele>
        <time>2021-07-25T11:01:51Z</time>
      </trkpt>
      <trkpt lat="42.442031" lon="-3.054127">
        <ele>725.446</ele>
        <time>2021-07-25T11:01:59Z</time>
      </trkpt>
      <trkpt lat="42.442242" lon="-3.053837">
        <ele>725.428</ele>
        <time>2021-07-25T11:02:06Z</time>
      </trkpt>
      <trkpt lat="42.442352" lon="-3.053667">
        <ele>725.475</ele>
        <time>2021-07-25T11:02:10Z</time>
      </trkpt>
      <trkpt lat="42.442659" lon="-3.053188">
        <ele>726.475</ele>
        <time>2021-07-25T11:02:21Z</time>
      </trkpt>
      <trkpt lat="42.442860" lon="-3.052833">
        <ele>726.829</ele>
        <time>2021-07-25T11:02:30Z</time>
      </trkpt>
      <trkpt lat="42.443016" lon="-3.052526">
        <ele>727.827</ele>
        <time>2021-07-25T11:02:39Z</time>
      </trkpt>
      <trkpt lat="42.443173" lon="-3.052234">
        <ele>729.334</ele>
        <time>2021-07-25T11:02:49Z</time>
      </trkpt>
      <trkpt lat="42.443281" lon="-3.051964">
        <ele>730.742</ele>
        <time>2021-07-25T11:02:58Z</time>
      </trkpt>
      <trkpt lat="42.443399" lon="-3.051583">
        <ele>732.157</ele>
        <time>2021-07-25T11:03:10Z</time>
      </trkpt>
      <trkpt lat="42.443514" lon="-3.051190">
        <ele>734.100</ele>
        <time>2021-07-25T11:03:21Z</time>
      </trkpt>
      <trkpt lat="42.443614" lon="-3.050884">
        <ele>735.520</ele>
        <time>2021-07-25T11:03:30Z</time>
      </trkpt>
      <trkpt lat="42.443712" lon="-3.050606">
        <ele>736.908</ele>
        <time>2021-07-25T11:03:39Z</time>
      </trkpt>
      <trkpt lat="42.443801" lon="-3.050349">
        <ele>738.412</ele>
        <time>2021-07-25T11:03:48Z</time>
      </trkpt>
      <trkpt lat="42.443839" lon="-3.050237">
        <ele>738.964</ele>
        <time>2021-07-25T11:03:55Z</time>
      </trkpt>
      <trkpt lat="42.443928" lon="-3.049982">
        <ele>738.941</ele>
        <time>2021-07-25T11:04:03Z</time>
      </trkpt>
      <trkpt lat="42.444075" lon="-3.049554">
        <ele>737.431</ele>
        <time>2021-07-25T11:04:12Z</time>
      </trkpt>
      <trkpt lat="42.444255" lon="-3.048917">
        <ele>736.095</ele>
        <time>2021-07-25T11:04:22Z</time>
      </trkpt>
      <trkpt lat="42.444466" lon="-3.048131">
        <ele>734.193</ele>
        <time>2021-07-25T11:04:33Z</time>
      </trkpt>
      <trkpt lat="42.444602" lon="-3.047610">
        <ele>733.640</ele>
        <time>2021-07-25T11:04:41Z</time>
      </trkpt>
      <trkpt lat="42.444682" lon="-3.047322">
        <ele>733.618</ele>
        <time>2021-07-25T11:04:48Z</time>
      </trkpt>
      <trkpt lat="42.444714" lon="-3.047176">
        <ele>734.544</ele>
        <time>2021-07-25T11:04:57Z</time>
      </trkpt>
      <trkpt lat="42.444718" lon="-3.047161">
        <ele>735.005</ele>
        <time>2021-07-25T11:04:58Z</time>
      </trkpt>
      <trkpt lat="42.444724" lon="-3.047147">
        <ele>734.515</ele>
        <time>2021-07-25T11:04:59Z</time>
      </trkpt>
      <trkpt lat="42.444731" lon="-3.047133">
        <ele>734.508</ele>
        <time>2021-07-25T11:05:00Z</time>
      </trkpt>
      <trkpt lat="42.444737" lon="-3.047119">
        <ele>734.551</ele>
        <time>2021-07-25T11:05:01Z</time>
      </trkpt>
      <trkpt lat="42.444741" lon="-3.047104">
        <ele>735.033</ele>
        <time>2021-07-25T11:05:02Z</time>
      </trkpt>
      <trkpt lat="42.444742" lon="-3.047089">
        <ele>735.030</ele>
        <time>2021-07-25T11:05:03Z</time>
      </trkpt>
      <trkpt lat="42.444743" lon="-3.047074">
        <ele>735.020</ele>
        <time>2021-07-25T11:05:04Z</time>
      </trkpt>
      <trkpt lat="42.444780" lon="-3.046948">
        <ele>735.594</ele>
        <time>2021-07-25T11:05:12Z</time>
      </trkpt>
      <trkpt lat="42.444822" lon="-3.046801">
        <ele>736.052</ele>
        <time>2021-07-25T11:05:20Z</time>
      </trkpt>
      <trkpt lat="42.444875" lon="-3.046593">
        <ele>737.969</ele>
        <time>2021-07-25T11:05:29Z</time>
      </trkpt>
      <trkpt lat="42.444957" lon="-3.046283">
        <ele>740.337</ele>
        <time>2021-07-25T11:05:42Z</time>
      </trkpt>
      <trkpt lat="42.445002" lon="-3.046128">
        <ele>741.754</ele>
        <time>2021-07-25T11:05:49Z</time>
      </trkpt>
      <trkpt lat="42.445056" lon="-3.045959">
        <ele>743.256</ele>
        <time>2021-07-25T11:05:58Z</time>
      </trkpt>
      <trkpt lat="42.445056" lon="-3.045888">
        <ele>743.711</ele>
        <time>2021-07-25T11:06:02Z</time>
      </trkpt>
      <trkpt lat="42.445050" lon="-3.045872">
        <ele>743.708</ele>
        <time>2021-07-25T11:06:03Z</time>
      </trkpt>
      <trkpt lat="42.445040" lon="-3.045852">
        <ele>743.712</ele>
        <time>2021-07-25T11:06:09Z</time>
      </trkpt>
      <trkpt lat="42.445043" lon="-3.045859">
        <ele>743.784</ele>
        <time>2021-07-25T11:06:19Z</time>
      </trkpt>
      <trkpt lat="42.445041" lon="-3.045861">
        <ele>743.711</ele>
        <time>2021-07-25T11:06:31Z</time>
      </trkpt>
      <trkpt lat="42.445041" lon="-3.045869">
        <ele>743.791</ele>
        <time>2021-07-25T11:06:43Z</time>
      </trkpt>
      <trkpt lat="42.445043" lon="-3.045867">
        <ele>743.785</ele>
        <time>2021-07-25T11:06:58Z</time>
      </trkpt>
      <trkpt lat="42.445037" lon="-3.045859">
        <ele>744.283</ele>
        <time>2021-07-25T11:07:10Z</time>
      </trkpt>
      <trkpt lat="42.445039" lon="-3.045859">
        <ele>743.750</ele>
        <time>2021-07-25T11:07:21Z</time>
      </trkpt>
      <trkpt lat="42.445038" lon="-3.045863">
        <ele>744.638</ele>
        <time>2021-07-25T11:07:34Z</time>
      </trkpt>
      <trkpt lat="42.445039" lon="-3.045851">
        <ele>744.249</ele>
        <time>2021-07-25T11:07:51Z</time>
      </trkpt>
      <trkpt lat="42.445041" lon="-3.045848">
        <ele>744.602</ele>
        <time>2021-07-25T11:08:07Z</time>
      </trkpt>
      <trkpt lat="42.445039" lon="-3.045844">
        <ele>745.122</ele>
        <time>2021-07-25T11:08:26Z</time>
      </trkpt>
      <trkpt lat="42.445039" lon="-3.045850">
        <ele>745.108</ele>
        <time>2021-07-25T11:08:40Z</time>
      </trkpt>
      <trkpt lat="42.445041" lon="-3.045847">
        <ele>744.281</ele>
        <time>2021-07-25T11:08:56Z</time>
      </trkpt>
      <trkpt lat="42.445040" lon="-3.045856">
        <ele>743.783</ele>
        <time>2021-07-25T11:09:13Z</time>
      </trkpt>
      <trkpt lat="42.445037" lon="-3.045857">
        <ele>744.210</ele>
        <time>2021-07-25T11:09:30Z</time>
      </trkpt>
      <trkpt lat="42.445039" lon="-3.045851">
        <ele>743.280</ele>
        <time>2021-07-25T11:09:48Z</time>
      </trkpt>
      <trkpt lat="42.445035" lon="-3.045862">
        <ele>743.274</ele>
        <time>2021-07-25T11:10:08Z</time>
      </trkpt>
      <trkpt lat="42.445034" lon="-3.045850">
        <ele>743.212</ele>
        <time>2021-07-25T11:10:28Z</time>
      </trkpt>
      <trkpt lat="42.445033" lon="-3.045847">
        <ele>743.279</ele>
        <time>2021-07-25T11:10:45Z</time>
      </trkpt>
      <trkpt lat="42.445040" lon="-3.045861">
        <ele>742.767</ele>
        <time>2021-07-25T11:11:02Z</time>
      </trkpt>
      <trkpt lat="42.445033" lon="-3.045828">
        <ele>742.723</ele>
        <time>2021-07-25T11:11:12Z</time>
      </trkpt>
      <trkpt lat="42.445034" lon="-3.045810">
        <ele>742.783</ele>
        <time>2021-07-25T11:11:13Z</time>
      </trkpt>
      <trkpt lat="42.445041" lon="-3.045772">
        <ele>743.211</ele>
        <time>2021-07-25T11:11:15Z</time>
      </trkpt>
      <trkpt lat="42.445048" lon="-3.045759">
        <ele>743.208</ele>
        <time>2021-07-25T11:11:16Z</time>
      </trkpt>
      <trkpt lat="42.445052" lon="-3.045746">
        <ele>743.229</ele>
        <time>2021-07-25T11:11:17Z</time>
      </trkpt>
      <trkpt lat="42.445075" lon="-3.045630">
        <ele>742.761</ele>
        <time>2021-07-25T11:11:25Z</time>
      </trkpt>
      <trkpt lat="42.445077" lon="-3.045621">
        <ele>742.788</ele>
        <time>2021-07-25T11:11:32Z</time>
      </trkpt>
      <trkpt lat="42.445083" lon="-3.045623">
        <ele>742.268</ele>
        <time>2021-07-25T11:11:48Z</time>
      </trkpt>
      <trkpt lat="42.445087" lon="-3.045619">
        <ele>742.262</ele>
        <time>2021-07-25T11:11:49Z</time>
      </trkpt>
      <trkpt lat="42.445094" lon="-3.045607">
        <ele>741.760</ele>
        <time>2021-07-25T11:11:50Z</time>
      </trkpt>
      <trkpt lat="42.445104" lon="-3.045590">
        <ele>741.717</ele>
        <time>2021-07-25T11:11:51Z</time>
      </trkpt>
      <trkpt lat="42.445115" lon="-3.045571">
        <ele>741.785</ele>
        <time>2021-07-25T11:11:52Z</time>
      </trkpt>
      <trkpt lat="42.445127" lon="-3.045547">
        <ele>741.797</ele>
        <time>2021-07-25T11:11:53Z</time>
      </trkpt>
      <trkpt lat="42.445141" lon="-3.045520">
        <ele>741.723</ele>
        <time>2021-07-25T11:11:54Z</time>
      </trkpt>
      <trkpt lat="42.445157" lon="-3.045493">
        <ele>741.325</ele>
        <time>2021-07-25T11:11:55Z</time>
      </trkpt>
      <trkpt lat="42.445373" lon="-3.045176">
        <ele>740.308</ele>
        <time>2021-07-25T11:12:05Z</time>
      </trkpt>
      <trkpt lat="42.445657" lon="-3.044767">
        <ele>738.996</ele>
        <time>2021-07-25T11:12:15Z</time>
      </trkpt>
      <trkpt lat="42.445942" lon="-3.044353">
        <ele>736.968</ele>
        <time>2021-07-25T11:12:25Z</time>
      </trkpt>
      <trkpt lat="42.446236" lon="-3.043923">
        <ele>735.075</ele>
        <time>2021-07-25T11:12:35Z</time>
      </trkpt>
      <trkpt lat="42.446377" lon="-3.043723">
        <ele>734.115</ele>
        <time>2021-07-25T11:12:41Z</time>
      </trkpt>
      <trkpt lat="42.446505" lon="-3.043511">
        <ele>732.649</ele>
        <time>2021-07-25T11:12:47Z</time>
      </trkpt>
      <trkpt lat="42.446663" lon="-3.043294">
        <ele>731.227</ele>
        <time>2021-07-25T11:12:54Z</time>
      </trkpt>
      <trkpt lat="42.446817" lon="-3.043056">
        <ele>729.754</ele>
        <time>2021-07-25T11:13:02Z</time>
      </trkpt>
      <trkpt lat="42.446983" lon="-3.042788">
        <ele>727.892</ele>
        <time>2021-07-25T11:13:10Z</time>
      </trkpt>
      <trkpt lat="42.447118" lon="-3.042534">
        <ele>726.424</ele>
        <time>2021-07-25T11:13:17Z</time>
      </trkpt>
      <trkpt lat="42.447261" lon="-3.042241">
        <ele>724.404</ele>
        <time>2021-07-25T11:13:25Z</time>
      </trkpt>
      <trkpt lat="42.447401" lon="-3.042012">
        <ele>723.514</ele>
        <time>2021-07-25T11:13:33Z</time>
      </trkpt>
      <trkpt lat="42.447562" lon="-3.041731">
        <ele>721.108</ele>
        <time>2021-07-25T11:13:41Z</time>
      </trkpt>
      <trkpt lat="42.447705" lon="-3.041511">
        <ele>719.639</ele>
        <time>2021-07-25T11:13:48Z</time>
      </trkpt>
      <trkpt lat="42.447862" lon="-3.041251">
        <ele>717.731</ele>
        <time>2021-07-25T11:13:56Z</time>
      </trkpt>
      <trkpt lat="42.448040" lon="-3.040924">
        <ele>716.868</ele>
        <time>2021-07-25T11:14:03Z</time>
      </trkpt>
      <trkpt lat="42.448222" lon="-3.040583">
        <ele>714.858</ele>
        <time>2021-07-25T11:14:10Z</time>
      </trkpt>
      <trkpt lat="42.448360" lon="-3.040314">
        <ele>713.432</ele>
        <time>2021-07-25T11:14:16Z</time>
      </trkpt>
      <trkpt lat="42.448503" lon="-3.040020">
        <ele>711.950</ele>
        <time>2021-07-25T11:14:24Z</time>
      </trkpt>
      <trkpt lat="42.448624" lon="-3.039655">
        <ele>709.527</ele>
        <time>2021-07-25T11:14:33Z</time>
      </trkpt>
      <trkpt lat="42.448661" lon="-3.039472">
        <ele>708.135</ele>
        <time>2021-07-25T11:14:39Z</time>
      </trkpt>
      <trkpt lat="42.448721" lon="-3.039251">
        <ele>706.721</ele>
        <time>2021-07-25T11:14:46Z</time>
      </trkpt>
      <trkpt lat="42.448771" lon="-3.039172">
        <ele>706.241</ele>
        <time>2021-07-25T11:14:48Z</time>
      </trkpt>
      <trkpt lat="42.448801" lon="-3.039134">
        <ele>705.705</ele>
        <time>2021-07-25T11:14:49Z</time>
      </trkpt>
      <trkpt lat="42.448832" lon="-3.039104">
        <ele>705.708</ele>
        <time>2021-07-25T11:14:50Z</time>
      </trkpt>
      <trkpt lat="42.448864" lon="-3.039074">
        <ele>705.289</ele>
        <time>2021-07-25T11:14:51Z</time>
      </trkpt>
      <trkpt lat="42.448894" lon="-3.039047">
        <ele>705.211</ele>
        <time>2021-07-25T11:14:52Z</time>
      </trkpt>
      <trkpt lat="42.449188" lon="-3.038754">
        <ele>703.318</ele>
        <time>2021-07-25T11:15:01Z</time>
      </trkpt>
      <trkpt lat="42.449496" lon="-3.038442">
        <ele>701.458</ele>
        <time>2021-07-25T11:15:10Z</time>
      </trkpt>
      <trkpt lat="42.449785" lon="-3.038146">
        <ele>699.952</ele>
        <time>2021-07-25T11:15:18Z</time>
      </trkpt>
      <trkpt lat="42.449818" lon="-3.038112">
        <ele>699.910</ele>
        <time>2021-07-25T11:15:19Z</time>
      </trkpt>
      <trkpt lat="42.450088" lon="-3.037824">
        <ele>699.057</ele>
        <time>2021-07-25T11:15:27Z</time>
      </trkpt>
      <trkpt lat="42.450264" lon="-3.037647">
        <ele>698.075</ele>
        <time>2021-07-25T11:15:32Z</time>
      </trkpt>
      <trkpt lat="42.450298" lon="-3.037613">
        <ele>698.065</ele>
        <time>2021-07-25T11:15:33Z</time>
      </trkpt>
      <trkpt lat="42.450678" lon="-3.037235">
        <ele>696.668</ele>
        <time>2021-07-25T11:15:45Z</time>
      </trkpt>
      <trkpt lat="42.450826" lon="-3.037064">
        <ele>696.614</ele>
        <time>2021-07-25T11:15:52Z</time>
      </trkpt>
      <trkpt lat="42.450837" lon="-3.036869">
        <ele>696.108</ele>
        <time>2021-07-25T11:15:59Z</time>
      </trkpt>
      <trkpt lat="42.450741" lon="-3.036661">
        <ele>695.663</ele>
        <time>2021-07-25T11:16:05Z</time>
      </trkpt>
      <trkpt lat="42.450607" lon="-3.036377">
        <ele>694.615</ele>
        <time>2021-07-25T11:16:12Z</time>
      </trkpt>
      <trkpt lat="42.450435" lon="-3.036014">
        <ele>693.272</ele>
        <time>2021-07-25T11:16:20Z</time>
      </trkpt>
      <trkpt lat="42.450223" lon="-3.035591">
        <ele>692.282</ele>
        <time>2021-07-25T11:16:29Z</time>
      </trkpt>
      <trkpt lat="42.450066" lon="-3.035283">
        <ele>691.866</ele>
        <time>2021-07-25T11:16:37Z</time>
      </trkpt>
      <trkpt lat="42.449957" lon="-3.035032">
        <ele>691.824</ele>
        <time>2021-07-25T11:16:46Z</time>
      </trkpt>
      <trkpt lat="42.449953" lon="-3.035012">
        <ele>691.381</ele>
        <time>2021-07-25T11:16:51Z</time>
      </trkpt>
      <trkpt lat="42.449953" lon="-3.035004">
        <ele>692.279</ele>
        <time>2021-07-25T11:17:05Z</time>
      </trkpt>
      <trkpt lat="42.449950" lon="-3.035008">
        <ele>691.392</ele>
        <time>2021-07-25T11:17:26Z</time>
      </trkpt>
      <trkpt lat="42.449945" lon="-3.035009">
        <ele>691.373</ele>
        <time>2021-07-25T11:17:48Z</time>
      </trkpt>
      <trkpt lat="42.449944" lon="-3.035015">
        <ele>691.320</ele>
        <time>2021-07-25T11:18:01Z</time>
      </trkpt>
      <trkpt lat="42.449964" lon="-3.035017">
        <ele>691.308</ele>
        <time>2021-07-25T11:18:06Z</time>
      </trkpt>
      <trkpt lat="42.449977" lon="-3.035026">
        <ele>691.356</ele>
        <time>2021-07-25T11:18:07Z</time>
      </trkpt>
      <trkpt lat="42.449988" lon="-3.035042">
        <ele>691.398</ele>
        <time>2021-07-25T11:18:08Z</time>
      </trkpt>
      <trkpt lat="42.450002" lon="-3.035072">
        <ele>691.325</ele>
        <time>2021-07-25T11:18:09Z</time>
      </trkpt>
      <trkpt lat="42.450018" lon="-3.035105">
        <ele>691.395</ele>
        <time>2021-07-25T11:18:10Z</time>
      </trkpt>
      <trkpt lat="42.450156" lon="-3.035429">
        <ele>690.869</ele>
        <time>2021-07-25T11:18:19Z</time>
      </trkpt>
      <trkpt lat="42.450289" lon="-3.035675">
        <ele>691.387</ele>
        <time>2021-07-25T11:18:28Z</time>
      </trkpt>
      <trkpt lat="42.450406" lon="-3.035924">
        <ele>691.364</ele>
        <time>2021-07-25T11:18:38Z</time>
      </trkpt>
      <trkpt lat="42.450554" lon="-3.036259">
        <ele>692.212</ele>
        <time>2021-07-25T11:18:48Z</time>
      </trkpt>
      <trkpt lat="42.450708" lon="-3.036576">
        <ele>694.697</ele>
        <time>2021-07-25T11:18:59Z</time>
      </trkpt>
      <trkpt lat="42.450886" lon="-3.036943">
        <ele>697.023</ele>
        <time>2021-07-25T11:19:09Z</time>
      </trkpt>
      <trkpt lat="42.451036" lon="-3.037226">
        <ele>698.525</ele>
        <time>2021-07-25T11:19:18Z</time>
      </trkpt>
      <trkpt lat="42.451163" lon="-3.037505">
        <ele>701.408</ele>
        <time>2021-07-25T11:19:27Z</time>
      </trkpt>
      <trkpt lat="42.451278" lon="-3.037771">
        <ele>702.846</ele>
        <time>2021-07-25T11:19:36Z</time>
      </trkpt>
      <trkpt lat="42.451428" lon="-3.038087">
        <ele>703.348</ele>
        <time>2021-07-25T11:19:47Z</time>
      </trkpt>
      <trkpt lat="42.451590" lon="-3.038407">
        <ele>701.975</ele>
        <time>2021-07-25T11:19:56Z</time>
      </trkpt>
      <trkpt lat="42.451752" lon="-3.038745">
        <ele>699.535</ele>
        <time>2021-07-25T11:20:02Z</time>
      </trkpt>
      <trkpt lat="42.451958" lon="-3.039185">
        <ele>695.129</ele>
        <time>2021-07-25T11:20:09Z</time>
      </trkpt>
      <trkpt lat="42.452237" lon="-3.039765">
        <ele>690.377</ele>
        <time>2021-07-25T11:20:17Z</time>
      </trkpt>
      <trkpt lat="42.452419" lon="-3.040138">
        <ele>687.484</ele>
        <time>2021-07-25T11:20:23Z</time>
      </trkpt>
      <trkpt lat="42.452479" lon="-3.040256">
        <ele>687.012</ele>
        <time>2021-07-25T11:20:27Z</time>
      </trkpt>
      <trkpt lat="42.452481" lon="-3.040259">
        <ele>687.936</ele>
        <time>2021-07-25T11:20:33Z</time>
      </trkpt>
      <trkpt lat="42.452471" lon="-3.040257">
        <ele>687.417</ele>
        <time>2021-07-25T11:20:44Z</time>
      </trkpt>
      <trkpt lat="42.452476" lon="-3.040248">
        <ele>688.418</ele>
        <time>2021-07-25T11:20:58Z</time>
      </trkpt>
      <trkpt lat="42.452492" lon="-3.040253">
        <ele>688.408</ele>
        <time>2021-07-25T11:21:00Z</time>
      </trkpt>
      <trkpt lat="42.452507" lon="-3.040248">
        <ele>688.440</ele>
        <time>2021-07-25T11:21:01Z</time>
      </trkpt>
      <trkpt lat="42.452522" lon="-3.040230">
        <ele>688.482</ele>
        <time>2021-07-25T11:21:02Z</time>
      </trkpt>
      <trkpt lat="42.452536" lon="-3.040209">
        <ele>688.939</ele>
        <time>2021-07-25T11:21:03Z</time>
      </trkpt>
      <trkpt lat="42.452552" lon="-3.040178">
        <ele>688.929</ele>
        <time>2021-07-25T11:21:04Z</time>
      </trkpt>
      <trkpt lat="42.452731" lon="-3.039868">
        <ele>687.953</ele>
        <time>2021-07-25T11:21:12Z</time>
      </trkpt>
      <trkpt lat="42.452989" lon="-3.039417">
        <ele>687.011</ele>
        <time>2021-07-25T11:21:22Z</time>
      </trkpt>
      <trkpt lat="42.453274" lon="-3.038918">
        <ele>686.098</ele>
        <time>2021-07-25T11:21:32Z</time>
      </trkpt>
      <trkpt lat="42.453610" lon="-3.038329">
        <ele>685.026</ele>
        <time>2021-07-25T11:21:43Z</time>
      </trkpt>
      <trkpt lat="42.453970" lon="-3.037695">
        <ele>683.649</ele>
        <time>2021-07-25T11:21:54Z</time>
      </trkpt>
      <trkpt lat="42.454317" lon="-3.037096">
        <ele>682.602</ele>
        <time>2021-07-25T11:22:05Z</time>
      </trkpt>
      <trkpt lat="42.454669" lon="-3.036479">
        <ele>682.122</ele>
        <time>2021-07-25T11:22:16Z</time>
      </trkpt>
      <trkpt lat="42.455022" lon="-3.035862">
        <ele>680.708</ele>
        <time>2021-07-25T11:22:27Z</time>
      </trkpt>
      <trkpt lat="42.455386" lon="-3.035096">
        <ele>678.891</ele>
        <time>2021-07-25T11:22:39Z</time>
      </trkpt>
      <trkpt lat="42.455626" lon="-3.034440">
        <ele>677.843</ele>
        <time>2021-07-25T11:22:49Z</time>
      </trkpt>
      <trkpt lat="42.455900" lon="-3.033694">
        <ele>676.430</ele>
        <time>2021-07-25T11:23:00Z</time>
      </trkpt>
      <trkpt lat="42.456204" lon="-3.032813">
        <ele>674.950</ele>
        <time>2021-07-25T11:23:12Z</time>
      </trkpt>
      <trkpt lat="42.456449" lon="-3.031875">
        <ele>674.534</ele>
        <time>2021-07-25T11:23:24Z</time>
      </trkpt>
      <trkpt lat="42.456629" lon="-3.031133">
        <ele>673.512</ele>
        <time>2021-07-25T11:23:34Z</time>
      </trkpt>
      <trkpt lat="42.456756" lon="-3.030600">
        <ele>675.449</ele>
        <time>2021-07-25T11:23:43Z</time>
      </trkpt>
      <trkpt lat="42.456871" lon="-3.030123">
        <ele>676.477</ele>
        <time>2021-07-25T11:23:53Z</time>
      </trkpt>
      <trkpt lat="42.456967" lon="-3.029702">
        <ele>677.397</ele>
        <time>2021-07-25T11:24:03Z</time>
      </trkpt>
      <trkpt lat="42.457043" lon="-3.029320">
        <ele>678.323</ele>
        <time>2021-07-25T11:24:13Z</time>
      </trkpt>
      <trkpt lat="42.457100" lon="-3.028927">
        <ele>679.325</ele>
        <time>2021-07-25T11:24:24Z</time>
      </trkpt>
      <trkpt lat="42.457134" lon="-3.028588">
        <ele>680.208</ele>
        <time>2021-07-25T11:24:34Z</time>
      </trkpt>
      <trkpt lat="42.457138" lon="-3.028234">
        <ele>681.756</ele>
        <time>2021-07-25T11:24:45Z</time>
      </trkpt>
      <trkpt lat="42.457111" lon="-3.027912">
        <ele>683.178</ele>
        <time>2021-07-25T11:24:55Z</time>
      </trkpt>
      <trkpt lat="42.457075" lon="-3.027565">
        <ele>684.635</ele>
        <time>2021-07-25T11:25:06Z</time>
      </trkpt>
      <trkpt lat="42.457023" lon="-3.027174">
        <ele>686.045</ele>
        <time>2021-07-25T11:25:18Z</time>
      </trkpt>
      <trkpt lat="42.456963" lon="-3.026824">
        <ele>687.439</ele>
        <time>2021-07-25T11:25:29Z</time>
      </trkpt>
      <trkpt lat="42.456919" lon="-3.026511">
        <ele>688.957</ele>
        <time>2021-07-25T11:25:39Z</time>
      </trkpt>
      <trkpt lat="42.456794" lon="-3.026124">
        <ele>691.374</ele>
        <time>2021-07-25T11:25:52Z</time>
      </trkpt>
      <trkpt lat="42.456677" lon="-3.025814">
        <ele>693.272</ele>
        <time>2021-07-25T11:26:03Z</time>
      </trkpt>
      <trkpt lat="42.456552" lon="-3.025555">
        <ele>694.285</ele>
        <time>2021-07-25T11:26:13Z</time>
      </trkpt>
      <trkpt lat="42.456387" lon="-3.025233">
        <ele>696.189</ele>
        <time>2021-07-25T11:26:25Z</time>
      </trkpt>
      <trkpt lat="42.456194" lon="-3.024914">
        <ele>698.017</ele>
        <time>2021-07-25T11:26:37Z</time>
      </trkpt>
      <trkpt lat="42.455984" lon="-3.024602">
        <ele>698.508</ele>
        <time>2021-07-25T11:26:48Z</time>
      </trkpt>
      <trkpt lat="42.455733" lon="-3.024279">
        <ele>699.085</ele>
        <time>2021-07-25T11:26:59Z</time>
      </trkpt>
      <trkpt lat="42.455451" lon="-3.023830">
        <ele>699.087</ele>
        <time>2021-07-25T11:27:12Z</time>
      </trkpt>
      <trkpt lat="42.455160" lon="-3.023382">
        <ele>699.524</ele>
        <time>2021-07-25T11:27:24Z</time>
      </trkpt>
      <trkpt lat="42.454848" lon="-3.022902">
        <ele>699.984</ele>
        <time>2021-07-25T11:27:36Z</time>
      </trkpt>
      <trkpt lat="42.454553" lon="-3.022458">
        <ele>699.978</ele>
        <time>2021-07-25T11:27:47Z</time>
      </trkpt>
      <trkpt lat="42.454446" lon="-3.022281">
        <ele>699.566</ele>
        <time>2021-07-25T11:27:51Z</time>
      </trkpt>
      <trkpt lat="42.454145" lon="-3.021698">
        <ele>699.533</ele>
        <time>2021-07-25T11:28:03Z</time>
      </trkpt>
      <trkpt lat="42.453878" lon="-3.021111">
        <ele>699.011</ele>
        <time>2021-07-25T11:28:14Z</time>
      </trkpt>
      <trkpt lat="42.453667" lon="-3.020519">
        <ele>698.523</ele>
        <time>2021-07-25T11:28:24Z</time>
      </trkpt>
      <trkpt lat="42.453626" lon="-3.020406">
        <ele>698.083</ele>
        <time>2021-07-25T11:28:26Z</time>
      </trkpt>
      <trkpt lat="42.453525" lon="-3.019845">
        <ele>697.511</ele>
        <time>2021-07-25T11:28:35Z</time>
      </trkpt>
      <trkpt lat="42.453442" lon="-3.018897">
        <ele>694.608</ele>
        <time>2021-07-25T11:28:49Z</time>
      </trkpt>
      <trkpt lat="42.453371" lon="-3.018066">
        <ele>692.719</ele>
        <time>2021-07-25T11:29:01Z</time>
      </trkpt>
      <trkpt lat="42.453299" lon="-3.017187">
        <ele>692.261</ele>
        <time>2021-07-25T11:29:14Z</time>
      </trkpt>
      <trkpt lat="42.453216" lon="-3.016179">
        <ele>690.358</ele>
        <time>2021-07-25T11:29:28Z</time>
      </trkpt>
      <trkpt lat="42.453142" lon="-3.015354">
        <ele>688.498</ele>
        <time>2021-07-25T11:29:39Z</time>
      </trkpt>
      <trkpt lat="42.453059" lon="-3.014356">
        <ele>686.072</ele>
        <time>2021-07-25T11:29:52Z</time>
      </trkpt>
      <trkpt lat="42.452986" lon="-3.013510">
        <ele>684.680</ele>
        <time>2021-07-25T11:30:03Z</time>
      </trkpt>
      <trkpt lat="42.452915" lon="-3.012583">
        <ele>683.167</ele>
        <time>2021-07-25T11:30:15Z</time>
      </trkpt>
      <trkpt lat="42.452864" lon="-3.011750">
        <ele>682.165</ele>
        <time>2021-07-25T11:30:25Z</time>
      </trkpt>
      <trkpt lat="42.452784" lon="-3.010799">
        <ele>681.243</ele>
        <time>2021-07-25T11:30:37Z</time>
      </trkpt>
      <trkpt lat="42.452704" lon="-3.009815">
        <ele>680.264</ele>
        <time>2021-07-25T11:30:50Z</time>
      </trkpt>
      <trkpt lat="42.452625" lon="-3.008856">
        <ele>679.310</ele>
        <time>2021-07-25T11:31:02Z</time>
      </trkpt>
      <trkpt lat="42.452555" lon="-3.008015">
        <ele>678.808</ele>
        <time>2021-07-25T11:31:13Z</time>
      </trkpt>
      <trkpt lat="42.452488" lon="-3.007221">
        <ele>677.351</ele>
        <time>2021-07-25T11:31:24Z</time>
      </trkpt>
      <trkpt lat="42.452403" lon="-3.006164">
        <ele>674.593</ele>
        <time>2021-07-25T11:31:38Z</time>
      </trkpt>
      <trkpt lat="42.452337" lon="-3.005300">
        <ele>673.010</ele>
        <time>2021-07-25T11:31:49Z</time>
      </trkpt>
      <trkpt lat="42.452271" lon="-3.004435">
        <ele>672.170</ele>
        <time>2021-07-25T11:32:00Z</time>
      </trkpt>
      <trkpt lat="42.452199" lon="-3.003520">
        <ele>671.124</ele>
        <time>2021-07-25T11:32:11Z</time>
      </trkpt>
      <trkpt lat="42.452084" lon="-3.002215">
        <ele>669.272</ele>
        <time>2021-07-25T11:32:27Z</time>
      </trkpt>
      <trkpt lat="42.452006" lon="-3.001290">
        <ele>668.269</ele>
        <time>2021-07-25T11:32:38Z</time>
      </trkpt>
      <trkpt lat="42.451922" lon="-3.000301">
        <ele>667.237</ele>
        <time>2021-07-25T11:32:50Z</time>
      </trkpt>
      <trkpt lat="42.451838" lon="-2.999298">
        <ele>666.376</ele>
        <time>2021-07-25T11:33:02Z</time>
      </trkpt>
      <trkpt lat="42.451752" lon="-2.998396">
        <ele>665.890</ele>
        <time>2021-07-25T11:33:13Z</time>
      </trkpt>
      <trkpt lat="42.451632" lon="-2.997311">
        <ele>665.319</ele>
        <time>2021-07-25T11:33:26Z</time>
      </trkpt>
      <trkpt lat="42.451547" lon="-2.996614">
        <ele>664.808</ele>
        <time>2021-07-25T11:33:35Z</time>
      </trkpt>
      <trkpt lat="42.451417" lon="-2.995649">
        <ele>664.444</ele>
        <time>2021-07-25T11:33:47Z</time>
      </trkpt>
      <trkpt lat="42.451285" lon="-2.994730">
        <ele>663.496</ele>
        <time>2021-07-25T11:33:58Z</time>
      </trkpt>
      <trkpt lat="42.451152" lon="-2.993799">
        <ele>663.453</ele>
        <time>2021-07-25T11:34:09Z</time>
      </trkpt>
      <trkpt lat="42.450981" lon="-2.992611">
        <ele>662.483</ele>
        <time>2021-07-25T11:34:23Z</time>
      </trkpt>
      <trkpt lat="42.450819" lon="-2.991479">
        <ele>661.037</ele>
        <time>2021-07-25T11:34:36Z</time>
      </trkpt>
      <trkpt lat="42.450644" lon="-2.990474">
        <ele>660.065</ele>
        <time>2021-07-25T11:34:48Z</time>
      </trkpt>
      <trkpt lat="42.450510" lon="-2.989607">
        <ele>658.692</ele>
        <time>2021-07-25T11:34:58Z</time>
      </trkpt>
      <trkpt lat="42.450464" lon="-2.989266">
        <ele>657.660</ele>
        <time>2021-07-25T11:35:02Z</time>
      </trkpt>
      <trkpt lat="42.450452" lon="-2.989179">
        <ele>657.671</ele>
        <time>2021-07-25T11:35:03Z</time>
      </trkpt>
      <trkpt lat="42.450327" lon="-2.988274">
        <ele>655.241</ele>
        <time>2021-07-25T11:35:14Z</time>
      </trkpt>
      <trkpt lat="42.450139" lon="-2.987421">
        <ele>653.815</ele>
        <time>2021-07-25T11:35:25Z</time>
      </trkpt>
      <trkpt lat="42.449922" lon="-2.986669">
        <ele>651.408</ele>
        <time>2021-07-25T11:35:34Z</time>
      </trkpt>
      <trkpt lat="42.449547" lon="-2.985493">
        <ele>648.094</ele>
        <time>2021-07-25T11:35:47Z</time>
      </trkpt>
      <trkpt lat="42.449216" lon="-2.984469">
        <ele>645.616</ele>
        <time>2021-07-25T11:35:58Z</time>
      </trkpt>
      <trkpt lat="42.448895" lon="-2.983422">
        <ele>644.223</ele>
        <time>2021-07-25T11:36:10Z</time>
      </trkpt>
      <trkpt lat="42.448633" lon="-2.982586">
        <ele>642.723</ele>
        <time>2021-07-25T11:36:21Z</time>
      </trkpt>
      <trkpt lat="42.448392" lon="-2.981799">
        <ele>641.827</ele>
        <time>2021-07-25T11:36:31Z</time>
      </trkpt>
      <trkpt lat="42.448109" lon="-2.980902">
        <ele>641.365</ele>
        <time>2021-07-25T11:36:43Z</time>
      </trkpt>
      <trkpt lat="42.447817" lon="-2.979956">
        <ele>640.312</ele>
        <time>2021-07-25T11:36:55Z</time>
      </trkpt>
      <trkpt lat="42.447574" lon="-2.979157">
        <ele>639.480</ele>
        <time>2021-07-25T11:37:06Z</time>
      </trkpt>
      <trkpt lat="42.447365" lon="-2.978482">
        <ele>639.487</ele>
        <time>2021-07-25T11:37:16Z</time>
      </trkpt>
      <trkpt lat="42.447165" lon="-2.977839">
        <ele>638.942</ele>
        <time>2021-07-25T11:37:26Z</time>
      </trkpt>
      <trkpt lat="42.446931" lon="-2.977098">
        <ele>638.426</ele>
        <time>2021-07-25T11:37:37Z</time>
      </trkpt>
      <trkpt lat="42.446694" lon="-2.976325">
        <ele>637.408</ele>
        <time>2021-07-25T11:37:49Z</time>
      </trkpt>
      <trkpt lat="42.446447" lon="-2.975540">
        <ele>636.545</ele>
        <time>2021-07-25T11:38:01Z</time>
      </trkpt>
      <trkpt lat="42.446211" lon="-2.974771">
        <ele>636.047</ele>
        <time>2021-07-25T11:38:13Z</time>
      </trkpt>
      <trkpt lat="42.446004" lon="-2.974091">
        <ele>636.054</ele>
        <time>2021-07-25T11:38:24Z</time>
      </trkpt>
      <trkpt lat="42.445837" lon="-2.973557">
        <ele>636.054</ele>
        <time>2021-07-25T11:38:33Z</time>
      </trkpt>
      <trkpt lat="42.445618" lon="-2.972849">
        <ele>636.598</ele>
        <time>2021-07-25T11:38:45Z</time>
      </trkpt>
      <trkpt lat="42.445370" lon="-2.972041">
        <ele>637.086</ele>
        <time>2021-07-25T11:38:59Z</time>
      </trkpt>
      <trkpt lat="42.445212" lon="-2.971551">
        <ele>637.013</ele>
        <time>2021-07-25T11:39:08Z</time>
      </trkpt>
      <trkpt lat="42.445033" lon="-2.970987">
        <ele>637.971</ele>
        <time>2021-07-25T11:39:19Z</time>
      </trkpt>
      <trkpt lat="42.444904" lon="-2.970591">
        <ele>637.463</ele>
        <time>2021-07-25T11:39:27Z</time>
      </trkpt>
      <trkpt lat="42.444716" lon="-2.969978">
        <ele>637.944</ele>
        <time>2021-07-25T11:39:39Z</time>
      </trkpt>
      <trkpt lat="42.444572" lon="-2.969529">
        <ele>638.418</ele>
        <time>2021-07-25T11:39:49Z</time>
      </trkpt>
      <trkpt lat="42.444426" lon="-2.969061">
        <ele>638.908</ele>
        <time>2021-07-25T11:40:00Z</time>
      </trkpt>
      <trkpt lat="42.444289" lon="-2.968628">
        <ele>640.313</ele>
        <time>2021-07-25T11:40:11Z</time>
      </trkpt>
      <trkpt lat="42.444166" lon="-2.968253">
        <ele>641.875</ele>
        <time>2021-07-25T11:40:21Z</time>
      </trkpt>
      <trkpt lat="42.444044" lon="-2.967844">
        <ele>642.762</ele>
        <time>2021-07-25T11:40:31Z</time>
      </trkpt>
      <trkpt lat="42.443905" lon="-2.967387">
        <ele>643.722</ele>
        <time>2021-07-25T11:40:42Z</time>
      </trkpt>
      <trkpt lat="42.443763" lon="-2.966905">
        <ele>644.716</ele>
        <time>2021-07-25T11:40:53Z</time>
      </trkpt>
      <trkpt lat="42.443617" lon="-2.966443">
        <ele>645.624</ele>
        <time>2021-07-25T11:41:04Z</time>
      </trkpt>
      <trkpt lat="42.443474" lon="-2.965979">
        <ele>645.611</ele>
        <time>2021-07-25T11:41:14Z</time>
      </trkpt>
      <trkpt lat="42.443370" lon="-2.965640">
        <ele>645.689</ele>
        <time>2021-07-25T11:41:22Z</time>
      </trkpt>
      <trkpt lat="42.443292" lon="-2.965383">
        <ele>645.641</ele>
        <time>2021-07-25T11:41:28Z</time>
      </trkpt>
      <trkpt lat="42.443087" lon="-2.964707">
        <ele>646.681</ele>
        <time>2021-07-25T11:41:41Z</time>
      </trkpt>
      <trkpt lat="42.442912" lon="-2.964167">
        <ele>646.109</ele>
        <time>2021-07-25T11:41:51Z</time>
      </trkpt>
      <trkpt lat="42.442733" lon="-2.963586">
        <ele>646.108</ele>
        <time>2021-07-25T11:42:02Z</time>
      </trkpt>
      <trkpt lat="42.442503" lon="-2.962828">
        <ele>646.141</ele>
        <time>2021-07-25T11:42:16Z</time>
      </trkpt>
      <trkpt lat="42.442352" lon="-2.962316">
        <ele>647.173</ele>
        <time>2021-07-25T11:42:26Z</time>
      </trkpt>
      <trkpt lat="42.442287" lon="-2.962105">
        <ele>647.110</ele>
        <time>2021-07-25T11:42:33Z</time>
      </trkpt>
      <trkpt lat="42.442203" lon="-2.961797">
        <ele>647.560</ele>
        <time>2021-07-25T11:42:42Z</time>
      </trkpt>
      <trkpt lat="42.442058" lon="-2.961332">
        <ele>647.594</ele>
        <time>2021-07-25T11:42:54Z</time>
      </trkpt>
      <trkpt lat="42.441920" lon="-2.960863">
        <ele>647.572</ele>
        <time>2021-07-25T11:43:05Z</time>
      </trkpt>
      <trkpt lat="42.441799" lon="-2.960479">
        <ele>647.149</ele>
        <time>2021-07-25T11:43:16Z</time>
      </trkpt>
      <trkpt lat="42.441809" lon="-2.960483">
        <ele>646.697</ele>
        <time>2021-07-25T11:43:36Z</time>
      </trkpt>
      <trkpt lat="42.441792" lon="-2.960427">
        <ele>646.614</ele>
        <time>2021-07-25T11:43:44Z</time>
      </trkpt>
      <trkpt lat="42.441734" lon="-2.960248">
        <ele>646.654</ele>
        <time>2021-07-25T11:43:51Z</time>
      </trkpt>
      <trkpt lat="42.441626" lon="-2.959924">
        <ele>646.109</ele>
        <time>2021-07-25T11:44:00Z</time>
      </trkpt>
      <trkpt lat="42.441464" lon="-2.959460">
        <ele>646.608</ele>
        <time>2021-07-25T11:44:10Z</time>
      </trkpt>
      <trkpt lat="42.441294" lon="-2.958982">
        <ele>646.678</ele>
        <time>2021-07-25T11:44:19Z</time>
      </trkpt>
      <trkpt lat="42.441274" lon="-2.958925">
        <ele>646.680</ele>
        <time>2021-07-25T11:44:20Z</time>
      </trkpt>
      <trkpt lat="42.441247" lon="-2.958878">
        <ele>646.147</ele>
        <time>2021-07-25T11:44:21Z</time>
      </trkpt>
      <trkpt lat="42.441057" lon="-2.958567">
        <ele>647.577</ele>
        <time>2021-07-25T11:44:28Z</time>
      </trkpt>
      <trkpt lat="42.440719" lon="-2.958184">
        <ele>648.041</ele>
        <time>2021-07-25T11:44:39Z</time>
      </trkpt>
      <trkpt lat="42.440414" lon="-2.957875">
        <ele>648.549</ele>
        <time>2021-07-25T11:44:49Z</time>
      </trkpt>
      <trkpt lat="42.440159" lon="-2.957675">
        <ele>648.516</ele>
        <time>2021-07-25T11:44:57Z</time>
      </trkpt>
      <trkpt lat="42.440097" lon="-2.957546">
        <ele>648.584</ele>
        <time>2021-07-25T11:45:00Z</time>
      </trkpt>
      <trkpt lat="42.440099" lon="-2.957493">
        <ele>648.559</ele>
        <time>2021-07-25T11:45:01Z</time>
      </trkpt>
      <trkpt lat="42.440116" lon="-2.957449">
        <ele>648.503</ele>
        <time>2021-07-25T11:45:02Z</time>
      </trkpt>
      <trkpt lat="42.440274" lon="-2.957383">
        <ele>648.023</ele>
        <time>2021-07-25T11:45:06Z</time>
      </trkpt>
      <trkpt lat="42.440702" lon="-2.957258">
        <ele>647.508</ele>
        <time>2021-07-25T11:45:16Z</time>
      </trkpt>
      <trkpt lat="42.441058" lon="-2.957140">
        <ele>648.562</ele>
        <time>2021-07-25T11:45:26Z</time>
      </trkpt>
      <trkpt lat="42.441139" lon="-2.957101">
        <ele>648.534</ele>
        <time>2021-07-25T11:45:29Z</time>
      </trkpt>
      <trkpt lat="42.441145" lon="-2.956982">
        <ele>648.091</ele>
        <time>2021-07-25T11:45:35Z</time>
      </trkpt>
      <trkpt lat="42.441141" lon="-2.956955">
        <ele>649.081</ele>
        <time>2021-07-25T11:45:47Z</time>
      </trkpt>
      <trkpt lat="42.441118" lon="-2.956781">
        <ele>647.565</ele>
        <time>2021-07-25T11:45:52Z</time>
      </trkpt>
      <trkpt lat="42.441098" lon="-2.956549">
        <ele>647.113</ele>
        <time>2021-07-25T11:45:58Z</time>
      </trkpt>
      <trkpt lat="42.441081" lon="-2.956228">
        <ele>646.650</ele>
        <time>2021-07-25T11:46:06Z</time>
      </trkpt>
      <trkpt lat="42.441052" lon="-2.955839">
        <ele>646.648</ele>
        <time>2021-07-25T11:46:16Z</time>
      </trkpt>
      <trkpt lat="42.441051" lon="-2.955693">
        <ele>645.689</ele>
        <time>2021-07-25T11:46:21Z</time>
      </trkpt>
      <trkpt lat="42.440912" lon="-2.955696">
        <ele>646.106</ele>
        <time>2021-07-25T11:46:28Z</time>
      </trkpt>
      <trkpt lat="42.440700" lon="-2.955706">
        <ele>646.126</ele>
        <time>2021-07-25T11:46:34Z</time>
      </trkpt>
      <trkpt lat="42.440483" lon="-2.955727">
        <ele>647.508</ele>
        <time>2021-07-25T11:46:41Z</time>
      </trkpt>
      <trkpt lat="42.440456" lon="-2.955715">
        <ele>648.545</ele>
        <time>2021-07-25T11:46:46Z</time>
      </trkpt>
      <trkpt lat="42.440438" lon="-2.955642">
        <ele>649.037</ele>
        <time>2021-07-25T11:46:50Z</time>
      </trkpt>
      <trkpt lat="42.440401" lon="-2.955367">
        <ele>648.564</ele>
        <time>2021-07-25T11:46:58Z</time>
      </trkpt>
      <trkpt lat="42.440408" lon="-2.955025">
        <ele>647.554</ele>
        <time>2021-07-25T11:47:06Z</time>
      </trkpt>
      <trkpt lat="42.440410" lon="-2.954673">
        <ele>646.198</ele>
        <time>2021-07-25T11:47:15Z</time>
      </trkpt>
      <trkpt lat="42.440423" lon="-2.954479">
        <ele>646.636</ele>
        <time>2021-07-25T11:47:22Z</time>
      </trkpt>
      <trkpt lat="42.440386" lon="-2.954301">
        <ele>648.573</ele>
        <time>2021-07-25T11:47:30Z</time>
      </trkpt>
      <trkpt lat="42.440388" lon="-2.954288">
        <ele>649.941</ele>
        <time>2021-07-25T11:47:38Z</time>
      </trkpt>
      <trkpt lat="42.440372" lon="-2.954273">
        <ele>649.597</ele>
        <time>2021-07-25T11:47:51Z</time>
      </trkpt>
      <trkpt lat="42.440123" lon="-2.954310">
        <ele>634.123</ele>
        <time>2021-07-26T06:20:55Z</time>
      </trkpt>
      <trkpt lat="42.440124" lon="-2.954261">
        <ele>636.525</ele>
        <time>2021-07-26T06:21:09Z</time>
      </trkpt>
      <trkpt lat="42.440173" lon="-2.954335">
        <ele>643.208</ele>
        <time>2021-07-26T06:21:22Z</time>
      </trkpt>
      <trkpt lat="42.440285" lon="-2.954320">
        <ele>641.836</ele>
        <time>2021-07-26T06:21:32Z</time>
      </trkpt>
      <trkpt lat="42.440308" lon="-2.954274">
        <ele>640.878</ele>
        <time>2021-07-26T06:21:37Z</time>
      </trkpt>
      <trkpt lat="42.440343" lon="-2.953969">
        <ele>636.515</ele>
        <time>2021-07-26T06:21:50Z</time>
      </trkpt>
      <trkpt lat="42.440353" lon="-2.953954">
        <ele>637.485</ele>
        <time>2021-07-26T06:21:55Z</time>
      </trkpt>
      <trkpt lat="42.440446" lon="-2.953939">
        <ele>638.939</ele>
        <time>2021-07-26T06:22:05Z</time>
      </trkpt>
      <trkpt lat="42.440575" lon="-2.953868">
        <ele>641.817</ele>
        <time>2021-07-26T06:22:17Z</time>
      </trkpt>
      <trkpt lat="42.440715" lon="-2.953792">
        <ele>650.434</ele>
        <time>2021-07-26T06:22:26Z</time>
      </trkpt>
      <trkpt lat="42.440727" lon="-2.953805">
        <ele>652.312</ele>
        <time>2021-07-26T06:22:36Z</time>
      </trkpt>
      <trkpt lat="42.440721" lon="-2.953773">
        <ele>652.337</ele>
        <time>2021-07-26T06:22:50Z</time>
      </trkpt>
      <trkpt lat="42.440717" lon="-2.953761">
        <ele>648.549</ele>
        <time>2021-07-26T06:23:06Z</time>
      </trkpt>
      <trkpt lat="42.440718" lon="-2.953773">
        <ele>648.013</ele>
        <time>2021-07-26T06:23:19Z</time>
      </trkpt>
      <trkpt lat="42.440746" lon="-2.953742">
        <ele>647.508</ele>
        <time>2021-07-26T06:23:32Z</time>
      </trkpt>
      <trkpt lat="42.440822" lon="-2.953587">
        <ele>647.580</ele>
        <time>2021-07-26T06:23:41Z</time>
      </trkpt>
      <trkpt lat="42.440850" lon="-2.953408">
        <ele>647.172</ele>
        <time>2021-07-26T06:23:48Z</time>
      </trkpt>
      <trkpt lat="42.440937" lon="-2.953246">
        <ele>647.519</ele>
        <time>2021-07-26T06:23:55Z</time>
      </trkpt>
      <trkpt lat="42.440937" lon="-2.953132">
        <ele>647.559</ele>
        <time>2021-07-26T06:24:00Z</time>
      </trkpt>
      <trkpt lat="42.440890" lon="-2.952823">
        <ele>646.123</ele>
        <time>2021-07-26T06:24:09Z</time>
      </trkpt>
      <trkpt lat="42.440839" lon="-2.952585">
        <ele>643.711</ele>
        <time>2021-07-26T06:24:16Z</time>
      </trkpt>
      <trkpt lat="42.440803" lon="-2.952313">
        <ele>642.728</ele>
        <time>2021-07-26T06:24:24Z</time>
      </trkpt>
      <trkpt lat="42.440763" lon="-2.952039">
        <ele>641.376</ele>
        <time>2021-07-26T06:24:32Z</time>
      </trkpt>
      <trkpt lat="42.440740" lon="-2.951943">
        <ele>641.346</ele>
        <time>2021-07-26T06:24:37Z</time>
      </trkpt>
      <trkpt lat="42.440740" lon="-2.951902">
        <ele>639.488</ele>
        <time>2021-07-26T06:24:55Z</time>
      </trkpt>
      <trkpt lat="42.440723" lon="-2.951760">
        <ele>638.916</ele>
        <time>2021-07-26T06:25:02Z</time>
      </trkpt>
      <trkpt lat="42.440690" lon="-2.951545">
        <ele>637.408</ele>
        <time>2021-07-26T06:25:09Z</time>
      </trkpt>
      <trkpt lat="42.440644" lon="-2.951317">
        <ele>636.551</ele>
        <time>2021-07-26T06:25:18Z</time>
      </trkpt>
      <trkpt lat="42.440606" lon="-2.951084">
        <ele>636.573</ele>
        <time>2021-07-26T06:25:25Z</time>
      </trkpt>
      <trkpt lat="42.440541" lon="-2.950811">
        <ele>636.590</ele>
        <time>2021-07-26T06:25:32Z</time>
      </trkpt>
      <trkpt lat="42.440509" lon="-2.950471">
        <ele>634.660</ele>
        <time>2021-07-26T06:25:40Z</time>
      </trkpt>
      <trkpt lat="42.440470" lon="-2.950292">
        <ele>634.194</ele>
        <time>2021-07-26T06:25:44Z</time>
      </trkpt>
      <trkpt lat="42.440386" lon="-2.949837">
        <ele>634.182</ele>
        <time>2021-07-26T06:25:54Z</time>
      </trkpt>
      <trkpt lat="42.440335" lon="-2.949556">
        <ele>631.279</ele>
        <time>2021-07-26T06:26:02Z</time>
      </trkpt>
      <trkpt lat="42.440269" lon="-2.949361">
        <ele>630.767</ele>
        <time>2021-07-26T06:26:11Z</time>
      </trkpt>
      <trkpt lat="42.440235" lon="-2.949173">
        <ele>631.291</ele>
        <time>2021-07-26T06:26:18Z</time>
      </trkpt>
      <trkpt lat="42.440230" lon="-2.949157">
        <ele>631.281</ele>
        <time>2021-07-26T06:26:20Z</time>
      </trkpt>
      <trkpt lat="42.440241" lon="-2.949134">
        <ele>631.719</ele>
        <time>2021-07-26T06:26:21Z</time>
      </trkpt>
      <trkpt lat="42.440245" lon="-2.949111">
        <ele>631.708</ele>
        <time>2021-07-26T06:26:22Z</time>
      </trkpt>
      <trkpt lat="42.440233" lon="-2.949067">
        <ele>632.226</ele>
        <time>2021-07-26T06:26:25Z</time>
      </trkpt>
      <trkpt lat="42.440216" lon="-2.949054">
        <ele>630.748</ele>
        <time>2021-07-26T06:26:30Z</time>
      </trkpt>
      <trkpt lat="42.440185" lon="-2.949034">
        <ele>629.845</ele>
        <time>2021-07-26T06:26:36Z</time>
      </trkpt>
      <trkpt lat="42.440162" lon="-2.949000">
        <ele>629.815</ele>
        <time>2021-07-26T06:26:45Z</time>
      </trkpt>
      <trkpt lat="42.440149" lon="-2.948945">
        <ele>630.719</ele>
        <time>2021-07-26T06:26:48Z</time>
      </trkpt>
      <trkpt lat="42.440083" lon="-2.948604">
        <ele>630.767</ele>
        <time>2021-07-26T06:26:56Z</time>
      </trkpt>
      <trkpt lat="42.439971" lon="-2.948015">
        <ele>631.264</ele>
        <time>2021-07-26T06:27:08Z</time>
      </trkpt>
      <trkpt lat="42.439868" lon="-2.947514">
        <ele>631.232</ele>
        <time>2021-07-26T06:27:18Z</time>
      </trkpt>
      <trkpt lat="42.439743" lon="-2.946962">
        <ele>630.787</ele>
        <time>2021-07-26T06:27:29Z</time>
      </trkpt>
      <trkpt lat="42.439622" lon="-2.946395">
        <ele>630.742</ele>
        <time>2021-07-26T06:27:40Z</time>
      </trkpt>
      <trkpt lat="42.439502" lon="-2.945849">
        <ele>631.226</ele>
        <time>2021-07-26T06:27:50Z</time>
      </trkpt>
      <trkpt lat="42.439393" lon="-2.945446">
        <ele>631.708</ele>
        <time>2021-07-26T06:27:58Z</time>
      </trkpt>
      <trkpt lat="42.439264" lon="-2.945254">
        <ele>632.225</ele>
        <time>2021-07-26T06:28:04Z</time>
      </trkpt>
      <trkpt lat="42.439234" lon="-2.944936">
        <ele>631.787</ele>
        <time>2021-07-26T06:28:10Z</time>
      </trkpt>
      <trkpt lat="42.439226" lon="-2.944711">
        <ele>631.214</ele>
        <time>2021-07-26T06:28:14Z</time>
      </trkpt>
      <trkpt lat="42.439110" lon="-2.944142">
        <ele>630.754</ele>
        <time>2021-07-26T06:28:24Z</time>
      </trkpt>
      <trkpt lat="42.439026" lon="-2.943699">
        <ele>630.798</ele>
        <time>2021-07-26T06:28:32Z</time>
      </trkpt>
      <trkpt lat="42.438905" lon="-2.943032">
        <ele>633.116</ele>
        <time>2021-07-26T06:28:44Z</time>
      </trkpt>
      <trkpt lat="42.438783" lon="-2.942309">
        <ele>636.073</ele>
        <time>2021-07-26T06:28:56Z</time>
      </trkpt>
      <trkpt lat="42.438645" lon="-2.941550">
        <ele>640.351</ele>
        <time>2021-07-26T06:29:08Z</time>
      </trkpt>
      <trkpt lat="42.438493" lon="-2.940710">
        <ele>641.359</ele>
        <time>2021-07-26T06:29:22Z</time>
      </trkpt>
      <trkpt lat="42.438356" lon="-2.939965">
        <ele>641.303</ele>
        <time>2021-07-26T06:29:34Z</time>
      </trkpt>
      <trkpt lat="42.438234" lon="-2.939293">
        <ele>640.823</ele>
        <time>2021-07-26T06:29:45Z</time>
      </trkpt>
      <trkpt lat="42.438164" lon="-2.939067">
        <ele>640.808</ele>
        <time>2021-07-26T06:29:50Z</time>
      </trkpt>
      <trkpt lat="42.438123" lon="-2.939035">
        <ele>641.372</ele>
        <time>2021-07-26T06:29:52Z</time>
      </trkpt>
      <trkpt lat="42.438098" lon="-2.939033">
        <ele>641.894</ele>
        <time>2021-07-26T06:29:53Z</time>
      </trkpt>
      <trkpt lat="42.438079" lon="-2.939032">
        <ele>641.861</ele>
        <time>2021-07-26T06:29:54Z</time>
      </trkpt>
      <trkpt lat="42.438066" lon="-2.939030">
        <ele>642.321</ele>
        <time>2021-07-26T06:29:55Z</time>
      </trkpt>
      <trkpt lat="42.438053" lon="-2.939029">
        <ele>642.325</ele>
        <time>2021-07-26T06:29:56Z</time>
      </trkpt>
      <trkpt lat="42.438044" lon="-2.939022">
        <ele>642.373</ele>
        <time>2021-07-26T06:29:57Z</time>
      </trkpt>
      <trkpt lat="42.438038" lon="-2.939011">
        <ele>642.760</ele>
        <time>2021-07-26T06:29:58Z</time>
      </trkpt>
      <trkpt lat="42.438035" lon="-2.938996">
        <ele>643.248</ele>
        <time>2021-07-26T06:29:59Z</time>
      </trkpt>
      <trkpt lat="42.438039" lon="-2.938982">
        <ele>643.234</ele>
        <time>2021-07-26T06:30:00Z</time>
      </trkpt>
      <trkpt lat="42.438047" lon="-2.938967">
        <ele>643.255</ele>
        <time>2021-07-26T06:30:01Z</time>
      </trkpt>
      <trkpt lat="42.438059" lon="-2.938958">
        <ele>643.210</ele>
        <time>2021-07-26T06:30:02Z</time>
      </trkpt>
      <trkpt lat="42.438074" lon="-2.938956">
        <ele>643.208</ele>
        <time>2021-07-26T06:30:03Z</time>
      </trkpt>
      <trkpt lat="42.438088" lon="-2.938958">
        <ele>643.270</ele>
        <time>2021-07-26T06:30:04Z</time>
      </trkpt>
      <trkpt lat="42.438103" lon="-2.938956">
        <ele>643.262</ele>
        <time>2021-07-26T06:30:05Z</time>
      </trkpt>
      <trkpt lat="42.438117" lon="-2.938947">
        <ele>643.769</ele>
        <time>2021-07-26T06:30:06Z</time>
      </trkpt>
      <trkpt lat="42.438129" lon="-2.938931">
        <ele>643.289</ele>
        <time>2021-07-26T06:30:07Z</time>
      </trkpt>
      <trkpt lat="42.438139" lon="-2.938907">
        <ele>643.283</ele>
        <time>2021-07-26T06:30:08Z</time>
      </trkpt>
      <trkpt lat="42.438145" lon="-2.938879">
        <ele>642.771</ele>
        <time>2021-07-26T06:30:09Z</time>
      </trkpt>
      <trkpt lat="42.438148" lon="-2.938845">
        <ele>642.748</ele>
        <time>2021-07-26T06:30:10Z</time>
      </trkpt>
      <trkpt lat="42.438145" lon="-2.938808">
        <ele>642.716</ele>
        <time>2021-07-26T06:30:11Z</time>
      </trkpt>
      <trkpt lat="42.438139" lon="-2.938769">
        <ele>642.342</ele>
        <time>2021-07-26T06:30:12Z</time>
      </trkpt>
      <trkpt lat="42.438066" lon="-2.938366">
        <ele>641.322</ele>
        <time>2021-07-26T06:30:21Z</time>
      </trkpt>
      <trkpt lat="42.437934" lon="-2.937681">
        <ele>641.314</ele>
        <time>2021-07-26T06:30:34Z</time>
      </trkpt>
      <trkpt lat="42.437822" lon="-2.937080">
        <ele>639.808</ele>
        <time>2021-07-26T06:30:46Z</time>
      </trkpt>
      <trkpt lat="42.437734" lon="-2.936573">
        <ele>638.971</ele>
        <time>2021-07-26T06:30:55Z</time>
      </trkpt>
      <trkpt lat="42.437596" lon="-2.935898">
        <ele>637.963</ele>
        <time>2021-07-26T06:31:06Z</time>
      </trkpt>
      <trkpt lat="42.437446" lon="-2.935131">
        <ele>637.040</ele>
        <time>2021-07-26T06:31:18Z</time>
      </trkpt>
      <trkpt lat="42.437307" lon="-2.934346">
        <ele>636.510</ele>
        <time>2021-07-26T06:31:30Z</time>
      </trkpt>
      <trkpt lat="42.437176" lon="-2.933629">
        <ele>635.534</ele>
        <time>2021-07-26T06:31:41Z</time>
      </trkpt>
      <trkpt lat="42.437032" lon="-2.932850">
        <ele>635.032</ele>
        <time>2021-07-26T06:31:53Z</time>
      </trkpt>
      <trkpt lat="42.436859" lon="-2.931997">
        <ele>636.029</ele>
        <time>2021-07-26T06:32:06Z</time>
      </trkpt>
      <trkpt lat="42.436711" lon="-2.931204">
        <ele>635.547</ele>
        <time>2021-07-26T06:32:18Z</time>
      </trkpt>
      <trkpt lat="42.436554" lon="-2.930308">
        <ele>634.635</ele>
        <time>2021-07-26T06:32:31Z</time>
      </trkpt>
      <trkpt lat="42.436426" lon="-2.929597">
        <ele>635.586</ele>
        <time>2021-07-26T06:32:43Z</time>
      </trkpt>
      <trkpt lat="42.436347" lon="-2.929151">
        <ele>637.014</ele>
        <time>2021-07-26T06:32:53Z</time>
      </trkpt>
      <trkpt lat="42.436269" lon="-2.928728">
        <ele>639.408</ele>
        <time>2021-07-26T06:33:04Z</time>
      </trkpt>
      <trkpt lat="42.436197" lon="-2.928365">
        <ele>639.830</ele>
        <time>2021-07-26T06:33:13Z</time>
      </trkpt>
      <trkpt lat="42.436131" lon="-2.928020">
        <ele>640.312</ele>
        <time>2021-07-26T06:33:22Z</time>
      </trkpt>
      <trkpt lat="42.436054" lon="-2.927613">
        <ele>641.899</ele>
        <time>2021-07-26T06:33:32Z</time>
      </trkpt>
      <trkpt lat="42.435971" lon="-2.927129">
        <ele>642.799</ele>
        <time>2021-07-26T06:33:43Z</time>
      </trkpt>
      <trkpt lat="42.435867" lon="-2.926545">
        <ele>643.743</ele>
        <time>2021-07-26T06:33:56Z</time>
      </trkpt>
      <trkpt lat="42.435760" lon="-2.925979">
        <ele>645.131</ele>
        <time>2021-07-26T06:34:09Z</time>
      </trkpt>
      <trkpt lat="42.435656" lon="-2.925412">
        <ele>646.178</ele>
        <time>2021-07-26T06:34:22Z</time>
      </trkpt>
      <trkpt lat="42.435562" lon="-2.924902">
        <ele>647.536</ele>
        <time>2021-07-26T06:34:34Z</time>
      </trkpt>
      <trkpt lat="42.435470" lon="-2.924404">
        <ele>649.085</ele>
        <time>2021-07-26T06:34:46Z</time>
      </trkpt>
      <trkpt lat="42.435377" lon="-2.923876">
        <ele>649.989</ele>
        <time>2021-07-26T06:34:58Z</time>
      </trkpt>
      <trkpt lat="42.435301" lon="-2.923462">
        <ele>650.417</ele>
        <time>2021-07-26T06:35:07Z</time>
      </trkpt>
      <trkpt lat="42.435210" lon="-2.922956">
        <ele>649.908</ele>
        <time>2021-07-26T06:35:17Z</time>
      </trkpt>
      <trkpt lat="42.435102" lon="-2.922363">
        <ele>649.515</ele>
        <time>2021-07-26T06:35:28Z</time>
      </trkpt>
      <trkpt lat="42.435006" lon="-2.921829">
        <ele>649.527</ele>
        <time>2021-07-26T06:35:38Z</time>
      </trkpt>
      <trkpt lat="42.434896" lon="-2.921231">
        <ele>649.564</ele>
        <time>2021-07-26T06:35:49Z</time>
      </trkpt>
      <trkpt lat="42.434799" lon="-2.920696">
        <ele>649.584</ele>
        <time>2021-07-26T06:35:59Z</time>
      </trkpt>
      <trkpt lat="42.434687" lon="-2.920117">
        <ele>650.958</ele>
        <time>2021-07-26T06:36:11Z</time>
      </trkpt>
      <trkpt lat="42.434626" lon="-2.919763">
        <ele>652.356</ele>
        <time>2021-07-26T06:36:20Z</time>
      </trkpt>
      <trkpt lat="42.434579" lon="-2.919484">
        <ele>653.823</ele>
        <time>2021-07-26T06:36:28Z</time>
      </trkpt>
      <trkpt lat="42.434527" lon="-2.919165">
        <ele>655.711</ele>
        <time>2021-07-26T06:36:37Z</time>
      </trkpt>
      <trkpt lat="42.434464" lon="-2.918819">
        <ele>657.664</ele>
        <time>2021-07-26T06:36:47Z</time>
      </trkpt>
      <trkpt lat="42.434409" lon="-2.918535">
        <ele>659.106</ele>
        <time>2021-07-26T06:36:55Z</time>
      </trkpt>
      <trkpt lat="42.434350" lon="-2.918186">
        <ele>660.516</ele>
        <time>2021-07-26T06:37:05Z</time>
      </trkpt>
      <trkpt lat="42.434288" lon="-2.917873">
        <ele>662.008</ele>
        <time>2021-07-26T06:37:14Z</time>
      </trkpt>
      <trkpt lat="42.434222" lon="-2.917508">
        <ele>663.483</ele>
        <time>2021-07-26T06:37:24Z</time>
      </trkpt>
      <trkpt lat="42.434157" lon="-2.917125">
        <ele>664.815</ele>
        <time>2021-07-26T06:37:34Z</time>
      </trkpt>
      <trkpt lat="42.434083" lon="-2.916774">
        <ele>665.352</ele>
        <time>2021-07-26T06:37:43Z</time>
      </trkpt>
      <trkpt lat="42.434013" lon="-2.916398">
        <ele>665.352</ele>
        <time>2021-07-26T06:37:52Z</time>
      </trkpt>
      <trkpt lat="42.433935" lon="-2.915955">
        <ele>665.396</ele>
        <time>2021-07-26T06:38:02Z</time>
      </trkpt>
      <trkpt lat="42.433856" lon="-2.915518">
        <ele>664.834</ele>
        <time>2021-07-26T06:38:12Z</time>
      </trkpt>
      <trkpt lat="42.433777" lon="-2.915093">
        <ele>664.461</ele>
        <time>2021-07-26T06:38:20Z</time>
      </trkpt>
      <trkpt lat="42.433659" lon="-2.914582">
        <ele>663.459</ele>
        <time>2021-07-26T06:38:30Z</time>
      </trkpt>
      <trkpt lat="42.433483" lon="-2.914049">
        <ele>663.417</ele>
        <time>2021-07-26T06:38:40Z</time>
      </trkpt>
      <trkpt lat="42.433304" lon="-2.913536">
        <ele>663.987</ele>
        <time>2021-07-26T06:38:50Z</time>
      </trkpt>
      <trkpt lat="42.433161" lon="-2.913005">
        <ele>663.915</ele>
        <time>2021-07-26T06:39:00Z</time>
      </trkpt>
      <trkpt lat="42.433007" lon="-2.912227">
        <ele>663.908</ele>
        <time>2021-07-26T06:39:14Z</time>
      </trkpt>
      <trkpt lat="42.432876" lon="-2.911563">
        <ele>663.968</ele>
        <time>2021-07-26T06:39:26Z</time>
      </trkpt>
      <trkpt lat="42.432755" lon="-2.910892">
        <ele>664.860</ele>
        <time>2021-07-26T06:39:39Z</time>
      </trkpt>
      <trkpt lat="42.432684" lon="-2.910417">
        <ele>665.837</ele>
        <time>2021-07-26T06:39:49Z</time>
      </trkpt>
      <trkpt lat="42.432636" lon="-2.909893">
        <ele>666.837</ele>
        <time>2021-07-26T06:40:00Z</time>
      </trkpt>
      <trkpt lat="42.432598" lon="-2.909463">
        <ele>667.741</ele>
        <time>2021-07-26T06:40:09Z</time>
      </trkpt>
      <trkpt lat="42.432547" lon="-2.908905">
        <ele>669.219</ele>
        <time>2021-07-26T06:40:21Z</time>
      </trkpt>
      <trkpt lat="42.432499" lon="-2.908372">
        <ele>670.176</ele>
        <time>2021-07-26T06:40:33Z</time>
      </trkpt>
      <trkpt lat="42.432424" lon="-2.907813">
        <ele>671.624</ele>
        <time>2021-07-26T06:40:45Z</time>
      </trkpt>
      <trkpt lat="42.432286" lon="-2.907312">
        <ele>672.529</ele>
        <time>2021-07-26T06:40:56Z</time>
      </trkpt>
      <trkpt lat="42.432144" lon="-2.906946">
        <ele>674.000</ele>
        <time>2021-07-26T06:41:06Z</time>
      </trkpt>
      <trkpt lat="42.432023" lon="-2.906651">
        <ele>675.420</ele>
        <time>2021-07-26T06:41:15Z</time>
      </trkpt>
      <trkpt lat="42.431913" lon="-2.906395">
        <ele>676.408</ele>
        <time>2021-07-26T06:41:23Z</time>
      </trkpt>
      <trkpt lat="42.431794" lon="-2.906123">
        <ele>677.869</ele>
        <time>2021-07-26T06:41:31Z</time>
      </trkpt>
      <trkpt lat="42.431557" lon="-2.905698">
        <ele>678.891</ele>
        <time>2021-07-26T06:41:44Z</time>
      </trkpt>
      <trkpt lat="42.431366" lon="-2.905469">
        <ele>678.818</ele>
        <time>2021-07-26T06:41:53Z</time>
      </trkpt>
      <trkpt lat="42.431149" lon="-2.905262">
        <ele>679.758</ele>
        <time>2021-07-26T06:42:02Z</time>
      </trkpt>
      <trkpt lat="42.430910" lon="-2.905037">
        <ele>680.232</ele>
        <time>2021-07-26T06:42:12Z</time>
      </trkpt>
      <trkpt lat="42.430669" lon="-2.904816">
        <ele>681.280</ele>
        <time>2021-07-26T06:42:22Z</time>
      </trkpt>
      <trkpt lat="42.430365" lon="-2.904546">
        <ele>681.727</ele>
        <time>2021-07-26T06:42:34Z</time>
      </trkpt>
      <trkpt lat="42.429994" lon="-2.904232">
        <ele>682.685</ele>
        <time>2021-07-26T06:42:48Z</time>
      </trkpt>
      <trkpt lat="42.429651" lon="-2.903980">
        <ele>684.168</ele>
        <time>2021-07-26T06:43:01Z</time>
      </trkpt>
      <trkpt lat="42.429366" lon="-2.903785">
        <ele>686.042</ele>
        <time>2021-07-26T06:43:12Z</time>
      </trkpt>
      <trkpt lat="42.429074" lon="-2.903601">
        <ele>687.026</ele>
        <time>2021-07-26T06:43:23Z</time>
      </trkpt>
      <trkpt lat="42.428862" lon="-2.903462">
        <ele>687.908</ele>
        <time>2021-07-26T06:43:31Z</time>
      </trkpt>
      <trkpt lat="42.428569" lon="-2.903272">
        <ele>688.963</ele>
        <time>2021-07-26T06:43:42Z</time>
      </trkpt>
      <trkpt lat="42.428181" lon="-2.903024">
        <ele>690.335</ele>
        <time>2021-07-26T06:43:56Z</time>
      </trkpt>
      <trkpt lat="42.427877" lon="-2.902823">
        <ele>691.372</ele>
        <time>2021-07-26T06:44:07Z</time>
      </trkpt>
      <trkpt lat="42.427503" lon="-2.902587">
        <ele>692.722</ele>
        <time>2021-07-26T06:44:20Z</time>
      </trkpt>
      <trkpt lat="42.427152" lon="-2.902357">
        <ele>693.766</ele>
        <time>2021-07-26T06:44:32Z</time>
      </trkpt>
      <trkpt lat="42.426837" lon="-2.902152">
        <ele>694.644</ele>
        <time>2021-07-26T06:44:43Z</time>
      </trkpt>
      <trkpt lat="42.426526" lon="-2.901949">
        <ele>696.141</ele>
        <time>2021-07-26T06:44:54Z</time>
      </trkpt>
      <trkpt lat="42.426252" lon="-2.901770">
        <ele>697.049</ele>
        <time>2021-07-26T06:45:04Z</time>
      </trkpt>
      <trkpt lat="42.425941" lon="-2.901569">
        <ele>698.085</ele>
        <time>2021-07-26T06:45:15Z</time>
      </trkpt>
      <trkpt lat="42.425670" lon="-2.901409">
        <ele>698.589</ele>
        <time>2021-07-26T06:45:24Z</time>
      </trkpt>
      <trkpt lat="42.425306" lon="-2.901206">
        <ele>699.517</ele>
        <time>2021-07-26T06:45:36Z</time>
      </trkpt>
      <trkpt lat="42.425040" lon="-2.901065">
        <ele>700.408</ele>
        <time>2021-07-26T06:45:45Z</time>
      </trkpt>
      <trkpt lat="42.424768" lon="-2.900919">
        <ele>701.915</ele>
        <time>2021-07-26T06:45:54Z</time>
      </trkpt>
      <trkpt lat="42.424368" lon="-2.900753">
        <ele>703.317</ele>
        <time>2021-07-26T06:46:07Z</time>
      </trkpt>
      <trkpt lat="42.424156" lon="-2.900825">
        <ele>704.394</ele>
        <time>2021-07-26T06:46:14Z</time>
      </trkpt>
      <trkpt lat="42.423960" lon="-2.900838">
        <ele>704.754</ele>
        <time>2021-07-26T06:46:20Z</time>
      </trkpt>
      <trkpt lat="42.423781" lon="-2.900640">
        <ele>705.778</ele>
        <time>2021-07-26T06:46:27Z</time>
      </trkpt>
      <trkpt lat="42.423670" lon="-2.900338">
        <ele>705.766</ele>
        <time>2021-07-26T06:46:34Z</time>
      </trkpt>
      <trkpt lat="42.423529" lon="-2.900202">
        <ele>705.723</ele>
        <time>2021-07-26T06:46:39Z</time>
      </trkpt>
      <trkpt lat="42.423227" lon="-2.900051">
        <ele>706.291</ele>
        <time>2021-07-26T06:46:49Z</time>
      </trkpt>
      <trkpt lat="42.422885" lon="-2.899929">
        <ele>706.753</ele>
        <time>2021-07-26T06:47:00Z</time>
      </trkpt>
      <trkpt lat="42.422541" lon="-2.899859">
        <ele>708.104</ele>
        <time>2021-07-26T06:47:11Z</time>
      </trkpt>
      <trkpt lat="42.422245" lon="-2.899811">
        <ele>708.614</ele>
        <time>2021-07-26T06:47:21Z</time>
      </trkpt>
      <trkpt lat="42.421903" lon="-2.899755">
        <ele>709.508</ele>
        <time>2021-07-26T06:47:32Z</time>
      </trkpt>
      <trkpt lat="42.421596" lon="-2.899697">
        <ele>710.562</ele>
        <time>2021-07-26T06:47:42Z</time>
      </trkpt>
      <trkpt lat="42.421194" lon="-2.899630">
        <ele>711.564</ele>
        <time>2021-07-26T06:47:55Z</time>
      </trkpt>
      <trkpt lat="42.420791" lon="-2.899561">
        <ele>713.451</ele>
        <time>2021-07-26T06:48:08Z</time>
      </trkpt>
      <trkpt lat="42.420336" lon="-2.899482">
        <ele>714.431</ele>
        <time>2021-07-26T06:48:23Z</time>
      </trkpt>
      <trkpt lat="42.420003" lon="-2.899428">
        <ele>715.845</ele>
        <time>2021-07-26T06:48:34Z</time>
      </trkpt>
      <trkpt lat="42.419634" lon="-2.899363">
        <ele>716.343</ele>
        <time>2021-07-26T06:48:46Z</time>
      </trkpt>
      <trkpt lat="42.419211" lon="-2.899287">
        <ele>717.720</ele>
        <time>2021-07-26T06:48:59Z</time>
      </trkpt>
      <trkpt lat="42.418797" lon="-2.899213">
        <ele>719.298</ele>
        <time>2021-07-26T06:49:12Z</time>
      </trkpt>
      <trkpt lat="42.418474" lon="-2.899156">
        <ele>720.112</ele>
        <time>2021-07-26T06:49:23Z</time>
      </trkpt>
      <trkpt lat="42.418125" lon="-2.899098">
        <ele>721.632</ele>
        <time>2021-07-26T06:49:35Z</time>
      </trkpt>
      <trkpt lat="42.417768" lon="-2.899027">
        <ele>723.505</ele>
        <time>2021-07-26T06:49:47Z</time>
      </trkpt>
      <trkpt lat="42.417370" lon="-2.898970">
        <ele>724.408</ele>
        <time>2021-07-26T06:50:01Z</time>
      </trkpt>
      <trkpt lat="42.417088" lon="-2.898923">
        <ele>725.428</ele>
        <time>2021-07-26T06:50:11Z</time>
      </trkpt>
      <trkpt lat="42.416747" lon="-2.898863">
        <ele>726.440</ele>
        <time>2021-07-26T06:50:23Z</time>
      </trkpt>
      <trkpt lat="42.416426" lon="-2.898810">
        <ele>727.387</ele>
        <time>2021-07-26T06:50:34Z</time>
      </trkpt>
      <trkpt lat="42.416159" lon="-2.898764">
        <ele>727.877</ele>
        <time>2021-07-26T06:50:43Z</time>
      </trkpt>
      <trkpt lat="42.415888" lon="-2.898722">
        <ele>728.381</ele>
        <time>2021-07-26T06:50:52Z</time>
      </trkpt>
      <trkpt lat="42.415594" lon="-2.898673">
        <ele>729.399</ele>
        <time>2021-07-26T06:51:02Z</time>
      </trkpt>
      <trkpt lat="42.415231" lon="-2.898594">
        <ele>729.766</ele>
        <time>2021-07-26T06:51:15Z</time>
      </trkpt>
      <trkpt lat="42.414988" lon="-2.898449">
        <ele>729.734</ele>
        <time>2021-07-26T06:51:24Z</time>
      </trkpt>
      <trkpt lat="42.414758" lon="-2.898194">
        <ele>731.275</ele>
        <time>2021-07-26T06:51:34Z</time>
      </trkpt>
      <trkpt lat="42.414602" lon="-2.897875">
        <ele>732.128</ele>
        <time>2021-07-26T06:51:43Z</time>
      </trkpt>
      <trkpt lat="42.414510" lon="-2.897617">
        <ele>734.520</ele>
        <time>2021-07-26T06:51:51Z</time>
      </trkpt>
      <trkpt lat="42.414421" lon="-2.897310">
        <ele>736.908</ele>
        <time>2021-07-26T06:52:01Z</time>
      </trkpt>
      <trkpt lat="42.414324" lon="-2.897022">
        <ele>738.924</ele>
        <time>2021-07-26T06:52:11Z</time>
      </trkpt>
      <trkpt lat="42.414175" lon="-2.896909">
        <ele>740.326</ele>
        <time>2021-07-26T06:52:19Z</time>
      </trkpt>
      <trkpt lat="42.413972" lon="-2.896796">
        <ele>741.743</ele>
        <time>2021-07-26T06:52:27Z</time>
      </trkpt>
      <trkpt lat="42.413894" lon="-2.896598">
        <ele>741.743</ele>
        <time>2021-07-26T06:52:33Z</time>
      </trkpt>
      <trkpt lat="42.413779" lon="-2.896402">
        <ele>742.797</ele>
        <time>2021-07-26T06:52:40Z</time>
      </trkpt>
      <trkpt lat="42.413572" lon="-2.896331">
        <ele>743.285</ele>
        <time>2021-07-26T06:52:49Z</time>
      </trkpt>
      <trkpt lat="42.413339" lon="-2.896348">
        <ele>744.272</ele>
        <time>2021-07-26T06:52:59Z</time>
      </trkpt>
      <trkpt lat="42.413181" lon="-2.896364">
        <ele>744.690</ele>
        <time>2021-07-26T06:53:07Z</time>
      </trkpt>
      <trkpt lat="42.413000" lon="-2.896400">
        <ele>745.661</ele>
        <time>2021-07-26T06:53:16Z</time>
      </trkpt>
      <trkpt lat="42.412764" lon="-2.896421">
        <ele>746.621</ele>
        <time>2021-07-26T06:53:27Z</time>
      </trkpt>
      <trkpt lat="42.412746" lon="-2.896402">
        <ele>747.013</ele>
        <time>2021-07-26T06:53:28Z</time>
      </trkpt>
      <trkpt lat="42.412737" lon="-2.896382">
        <ele>747.008</ele>
        <time>2021-07-26T06:53:29Z</time>
      </trkpt>
      <trkpt lat="42.412731" lon="-2.896359">
        <ele>747.073</ele>
        <time>2021-07-26T06:53:30Z</time>
      </trkpt>
      <trkpt lat="42.412729" lon="-2.896329">
        <ele>746.625</ele>
        <time>2021-07-26T06:53:31Z</time>
      </trkpt>
      <trkpt lat="42.412727" lon="-2.896294">
        <ele>746.652</ele>
        <time>2021-07-26T06:53:32Z</time>
      </trkpt>
      <trkpt lat="42.412759" lon="-2.896070">
        <ele>745.122</ele>
        <time>2021-07-26T06:53:38Z</time>
      </trkpt>
      <trkpt lat="42.412830" lon="-2.895824">
        <ele>744.266</ele>
        <time>2021-07-26T06:53:44Z</time>
      </trkpt>
      <trkpt lat="42.412968" lon="-2.895445">
        <ele>743.764</ele>
        <time>2021-07-26T06:53:51Z</time>
      </trkpt>
      <trkpt lat="42.413010" lon="-2.895334">
        <ele>743.241</ele>
        <time>2021-07-26T06:53:53Z</time>
      </trkpt>
      <trkpt lat="42.413030" lon="-2.895299">
        <ele>743.269</ele>
        <time>2021-07-26T06:53:54Z</time>
      </trkpt>
      <trkpt lat="42.413056" lon="-2.895270">
        <ele>743.751</ele>
        <time>2021-07-26T06:53:55Z</time>
      </trkpt>
      <trkpt lat="42.413293" lon="-2.895117">
        <ele>744.601</ele>
        <time>2021-07-26T06:54:04Z</time>
      </trkpt>
      <trkpt lat="42.413350" lon="-2.895079">
        <ele>745.111</ele>
        <time>2021-07-26T06:54:08Z</time>
      </trkpt>
      <trkpt lat="42.413361" lon="-2.895086">
        <ele>745.108</ele>
        <time>2021-07-26T06:54:09Z</time>
      </trkpt>
      <trkpt lat="42.413367" lon="-2.895101">
        <ele>745.612</ele>
        <time>2021-07-26T06:54:10Z</time>
      </trkpt>
      <trkpt lat="42.413367" lon="-2.895115">
        <ele>745.684</ele>
        <time>2021-07-26T06:54:11Z</time>
      </trkpt>
      <trkpt lat="42.413360" lon="-2.895130">
        <ele>745.631</ele>
        <time>2021-07-26T06:54:12Z</time>
      </trkpt>
      <trkpt lat="42.413348" lon="-2.895138">
        <ele>745.141</ele>
        <time>2021-07-26T06:54:13Z</time>
      </trkpt>
      <trkpt lat="42.413332" lon="-2.895149">
        <ele>745.165</ele>
        <time>2021-07-26T06:54:14Z</time>
      </trkpt>
      <trkpt lat="42.413311" lon="-2.895161">
        <ele>745.123</ele>
        <time>2021-07-26T06:54:15Z</time>
      </trkpt>
      <trkpt lat="42.413285" lon="-2.895175">
        <ele>745.140</ele>
        <time>2021-07-26T06:54:16Z</time>
      </trkpt>
      <trkpt lat="42.413259" lon="-2.895199">
        <ele>744.698</ele>
        <time>2021-07-26T06:54:20Z</time>
      </trkpt>
      <trkpt lat="42.413263" lon="-2.895193">
        <ele>745.141</ele>
        <time>2021-07-26T06:54:30Z</time>
      </trkpt>
      <trkpt lat="42.413305" lon="-2.895211">
        <ele>745.681</ele>
        <time>2021-07-26T06:54:57Z</time>
      </trkpt>
      <trkpt lat="42.413304" lon="-2.895210">
        <ele>745.109</ele>
        <time>2021-07-26T06:55:17Z</time>
      </trkpt>
      <trkpt lat="42.413308" lon="-2.895206">
        <ele>745.108</ele>
        <time>2021-07-26T06:55:42Z</time>
      </trkpt>
      <trkpt lat="42.413297" lon="-2.895192">
        <ele>745.131</ele>
        <time>2021-07-26T06:56:00Z</time>
      </trkpt>
      <trkpt lat="42.413282" lon="-2.895186">
        <ele>744.233</ele>
        <time>2021-07-26T06:56:17Z</time>
      </trkpt>
      <trkpt lat="42.413269" lon="-2.895190">
        <ele>744.660</ele>
        <time>2021-07-26T06:56:41Z</time>
      </trkpt>
      <trkpt lat="42.413252" lon="-2.895162">
        <ele>744.280</ele>
        <time>2021-07-26T06:56:48Z</time>
      </trkpt>
      <trkpt lat="42.413270" lon="-2.895132">
        <ele>744.234</ele>
        <time>2021-07-26T06:56:53Z</time>
      </trkpt>
      <trkpt lat="42.413286" lon="-2.895122">
        <ele>744.282</ele>
        <time>2021-07-26T06:56:54Z</time>
      </trkpt>
      <trkpt lat="42.413302" lon="-2.895116">
        <ele>744.249</ele>
        <time>2021-07-26T06:56:55Z</time>
      </trkpt>
      <trkpt lat="42.413433" lon="-2.895012">
        <ele>745.187</ele>
        <time>2021-07-26T06:57:03Z</time>
      </trkpt>
      <trkpt lat="42.413527" lon="-2.894908">
        <ele>745.615</ele>
        <time>2021-07-26T06:57:11Z</time>
      </trkpt>
      <trkpt lat="42.413633" lon="-2.894735">
        <ele>745.665</ele>
        <time>2021-07-26T06:57:21Z</time>
      </trkpt>
      <trkpt lat="42.413657" lon="-2.894675">
        <ele>745.611</ele>
        <time>2021-07-26T06:57:25Z</time>
      </trkpt>
      <trkpt lat="42.413668" lon="-2.894663">
        <ele>745.608</ele>
        <time>2021-07-26T06:57:26Z</time>
      </trkpt>
      <trkpt lat="42.413681" lon="-2.894649">
        <ele>745.678</ele>
        <time>2021-07-26T06:57:27Z</time>
      </trkpt>
      <trkpt lat="42.413817" lon="-2.894449">
        <ele>745.190</ele>
        <time>2021-07-26T06:57:35Z</time>
      </trkpt>
      <trkpt lat="42.414035" lon="-2.894112">
        <ele>743.777</ele>
        <time>2021-07-26T06:57:44Z</time>
      </trkpt>
      <trkpt lat="42.414066" lon="-2.894066">
        <ele>743.277</ele>
        <time>2021-07-26T06:57:45Z</time>
      </trkpt>
      <trkpt lat="42.414097" lon="-2.894021">
        <ele>743.241</ele>
        <time>2021-07-26T06:57:46Z</time>
      </trkpt>
      <trkpt lat="42.414216" lon="-2.893837">
        <ele>742.299</ele>
        <time>2021-07-26T06:57:50Z</time>
      </trkpt>
      <trkpt lat="42.414407" lon="-2.893355">
        <ele>741.376</ele>
        <time>2021-07-26T06:57:58Z</time>
      </trkpt>
      <trkpt lat="42.414410" lon="-2.893286">
        <ele>740.874</ele>
        <time>2021-07-26T06:57:59Z</time>
      </trkpt>
      <trkpt lat="42.414388" lon="-2.892693">
        <ele>739.896</ele>
        <time>2021-07-26T06:58:08Z</time>
      </trkpt>
      <trkpt lat="42.414408" lon="-2.892602">
        <ele>739.831</ele>
        <time>2021-07-26T06:58:10Z</time>
      </trkpt>
      <trkpt lat="42.414437" lon="-2.892565">
        <ele>739.324</ele>
        <time>2021-07-26T06:58:11Z</time>
      </trkpt>
      <trkpt lat="42.414476" lon="-2.892539">
        <ele>739.308</ele>
        <time>2021-07-26T06:58:12Z</time>
      </trkpt>
      <trkpt lat="42.414624" lon="-2.892520">
        <ele>738.446</ele>
        <time>2021-07-26T06:58:15Z</time>
      </trkpt>
      <trkpt lat="42.414921" lon="-2.892511">
        <ele>737.438</ele>
        <time>2021-07-26T06:58:22Z</time>
      </trkpt>
      <trkpt lat="42.415225" lon="-2.892506">
        <ele>736.015</ele>
        <time>2021-07-26T06:58:29Z</time>
      </trkpt>
      <trkpt lat="42.415588" lon="-2.892481">
        <ele>733.685</ele>
        <time>2021-07-26T06:58:36Z</time>
      </trkpt>
      <trkpt lat="42.415635" lon="-2.892476">
        <ele>733.619</ele>
        <time>2021-07-26T06:58:37Z</time>
      </trkpt>
      <trkpt lat="42.415752" lon="-2.892330">
        <ele>732.167</ele>
        <time>2021-07-26T06:58:42Z</time>
      </trkpt>
      <trkpt lat="42.415753" lon="-2.892284">
        <ele>732.134</ele>
        <time>2021-07-26T06:58:43Z</time>
      </trkpt>
      <trkpt lat="42.415721" lon="-2.891706">
        <ele>732.112</ele>
        <time>2021-07-26T06:58:56Z</time>
      </trkpt>
      <trkpt lat="42.415713" lon="-2.891301">
        <ele>732.694</ele>
        <time>2021-07-26T06:59:05Z</time>
      </trkpt>
      <trkpt lat="42.415699" lon="-2.890891">
        <ele>732.657</ele>
        <time>2021-07-26T06:59:14Z</time>
      </trkpt>
      <trkpt lat="42.415684" lon="-2.890520">
        <ele>733.122</ele>
        <time>2021-07-26T06:59:23Z</time>
      </trkpt>
      <trkpt lat="42.415685" lon="-2.890099">
        <ele>733.608</ele>
        <time>2021-07-26T06:59:32Z</time>
      </trkpt>
      <trkpt lat="42.415796" lon="-2.889813">
        <ele>733.696</ele>
        <time>2021-07-26T06:59:39Z</time>
      </trkpt>
      <trkpt lat="42.415975" lon="-2.889512">
        <ele>733.628</ele>
        <time>2021-07-26T06:59:47Z</time>
      </trkpt>
      <trkpt lat="42.416151" lon="-2.889225">
        <ele>733.645</ele>
        <time>2021-07-26T06:59:55Z</time>
      </trkpt>
      <trkpt lat="42.416305" lon="-2.888973">
        <ele>733.135</ele>
        <time>2021-07-26T07:00:01Z</time>
      </trkpt>
      <trkpt lat="42.416592" lon="-2.888512">
        <ele>731.739</ele>
        <time>2021-07-26T07:00:11Z</time>
      </trkpt>
      <trkpt lat="42.416853" lon="-2.888097">
        <ele>730.287</ele>
        <time>2021-07-26T07:00:19Z</time>
      </trkpt>
      <trkpt lat="42.417065" lon="-2.887740">
        <ele>729.324</ele>
        <time>2021-07-26T07:00:26Z</time>
      </trkpt>
      <trkpt lat="42.417252" lon="-2.887463">
        <ele>728.862</ele>
        <time>2021-07-26T07:00:34Z</time>
      </trkpt>
      <trkpt lat="42.417498" lon="-2.887070">
        <ele>727.828</ele>
        <time>2021-07-26T07:00:43Z</time>
      </trkpt>
      <trkpt lat="42.417759" lon="-2.886667">
        <ele>726.489</ele>
        <time>2021-07-26T07:00:51Z</time>
      </trkpt>
      <trkpt lat="42.417845" lon="-2.886531">
        <ele>725.917</ele>
        <time>2021-07-26T07:00:56Z</time>
      </trkpt>
      <trkpt lat="42.417887" lon="-2.886469">
        <ele>725.908</ele>
        <time>2021-07-26T07:01:00Z</time>
      </trkpt>
      <trkpt lat="42.417893" lon="-2.886437">
        <ele>725.499</ele>
        <time>2021-07-26T07:01:02Z</time>
      </trkpt>
      <trkpt lat="42.417883" lon="-2.886359">
        <ele>724.451</ele>
        <time>2021-07-26T07:01:08Z</time>
      </trkpt>
      <trkpt lat="42.417901" lon="-2.886344">
        <ele>724.468</ele>
        <time>2021-07-26T07:01:09Z</time>
      </trkpt>
      <trkpt lat="42.417926" lon="-2.886325">
        <ele>724.418</ele>
        <time>2021-07-26T07:01:10Z</time>
      </trkpt>
      <trkpt lat="42.418095" lon="-2.886156">
        <ele>724.432</ele>
        <time>2021-07-26T07:01:17Z</time>
      </trkpt>
      <trkpt lat="42.418293" lon="-2.885866">
        <ele>724.030</ele>
        <time>2021-07-26T07:01:26Z</time>
      </trkpt>
      <trkpt lat="42.418349" lon="-2.885804">
        <ele>724.017</ele>
        <time>2021-07-26T07:01:29Z</time>
      </trkpt>
      <trkpt lat="42.418371" lon="-2.885800">
        <ele>724.465</ele>
        <time>2021-07-26T07:01:30Z</time>
      </trkpt>
      <trkpt lat="42.418393" lon="-2.885804">
        <ele>724.466</ele>
        <time>2021-07-26T07:01:31Z</time>
      </trkpt>
      <trkpt lat="42.418414" lon="-2.885809">
        <ele>724.429</ele>
        <time>2021-07-26T07:01:32Z</time>
      </trkpt>
      <trkpt lat="42.418435" lon="-2.885815">
        <ele>724.421</ele>
        <time>2021-07-26T07:01:33Z</time>
      </trkpt>
      <trkpt lat="42.418588" lon="-2.885853">
        <ele>725.908</ele>
        <time>2021-07-26T07:01:40Z</time>
      </trkpt>
      <trkpt lat="42.418613" lon="-2.885842">
        <ele>725.993</ele>
        <time>2021-07-26T07:01:41Z</time>
      </trkpt>
      <trkpt lat="42.418633" lon="-2.885823">
        <ele>726.435</ele>
        <time>2021-07-26T07:01:42Z</time>
      </trkpt>
      <trkpt lat="42.418779" lon="-2.885620">
        <ele>724.992</ele>
        <time>2021-07-26T07:01:47Z</time>
      </trkpt>
      <trkpt lat="42.419041" lon="-2.885228">
        <ele>723.042</ele>
        <time>2021-07-26T07:01:56Z</time>
      </trkpt>
      <trkpt lat="42.419197" lon="-2.884966">
        <ele>720.696</ele>
        <time>2021-07-26T07:02:04Z</time>
      </trkpt>
      <trkpt lat="42.419391" lon="-2.884650">
        <ele>717.794</ele>
        <time>2021-07-26T07:02:13Z</time>
      </trkpt>
      <trkpt lat="42.419626" lon="-2.884257">
        <ele>715.361</ele>
        <time>2021-07-26T07:02:23Z</time>
      </trkpt>
      <trkpt lat="42.419867" lon="-2.883822">
        <ele>714.879</ele>
        <time>2021-07-26T07:02:34Z</time>
      </trkpt>
      <trkpt lat="42.420180" lon="-2.883290">
        <ele>713.967</ele>
        <time>2021-07-26T07:02:46Z</time>
      </trkpt>
      <trkpt lat="42.420477" lon="-2.882798">
        <ele>712.481</ele>
        <time>2021-07-26T07:02:58Z</time>
      </trkpt>
      <trkpt lat="42.420752" lon="-2.882339">
        <ele>711.519</ele>
        <time>2021-07-26T07:03:09Z</time>
      </trkpt>
      <trkpt lat="42.421017" lon="-2.881898">
        <ele>709.508</ele>
        <time>2021-07-26T07:03:21Z</time>
      </trkpt>
      <trkpt lat="42.421207" lon="-2.881577">
        <ele>709.193</ele>
        <time>2021-07-26T07:03:31Z</time>
      </trkpt>
      <trkpt lat="42.421481" lon="-2.881115">
        <ele>708.135</ele>
        <time>2021-07-26T07:03:44Z</time>
      </trkpt>
      <trkpt lat="42.421711" lon="-2.880717">
        <ele>707.142</ele>
        <time>2021-07-26T07:03:55Z</time>
      </trkpt>
      <trkpt lat="42.421935" lon="-2.880345">
        <ele>706.262</ele>
        <time>2021-07-26T07:04:05Z</time>
      </trkpt>
      <trkpt lat="42.422130" lon="-2.880011">
        <ele>705.246</ele>
        <time>2021-07-26T07:04:14Z</time>
      </trkpt>
      <trkpt lat="42.422353" lon="-2.879641">
        <ele>703.854</ele>
        <time>2021-07-26T07:04:23Z</time>
      </trkpt>
      <trkpt lat="42.422560" lon="-2.879290">
        <ele>702.871</ele>
        <time>2021-07-26T07:04:32Z</time>
      </trkpt>
      <trkpt lat="42.422690" lon="-2.879028">
        <ele>701.979</ele>
        <time>2021-07-26T07:04:41Z</time>
      </trkpt>
      <trkpt lat="42.422792" lon="-2.878866">
        <ele>700.924</ele>
        <time>2021-07-26T07:04:47Z</time>
      </trkpt>
      <trkpt lat="42.422956" lon="-2.878651">
        <ele>699.004</ele>
        <time>2021-07-26T07:04:54Z</time>
      </trkpt>
      <trkpt lat="42.423148" lon="-2.878414">
        <ele>696.114</ele>
        <time>2021-07-26T07:05:00Z</time>
      </trkpt>
      <trkpt lat="42.423400" lon="-2.878035">
        <ele>691.808</ele>
        <time>2021-07-26T07:05:07Z</time>
      </trkpt>
      <trkpt lat="42.423599" lon="-2.877697">
        <ele>687.459</ele>
        <time>2021-07-26T07:05:13Z</time>
      </trkpt>
      <trkpt lat="42.423701" lon="-2.877528">
        <ele>684.611</ele>
        <time>2021-07-26T07:05:17Z</time>
      </trkpt>
      <trkpt lat="42.423837" lon="-2.877249">
        <ele>681.218</ele>
        <time>2021-07-26T07:05:23Z</time>
      </trkpt>
      <trkpt lat="42.424016" lon="-2.876895">
        <ele>677.348</ele>
        <time>2021-07-26T07:05:29Z</time>
      </trkpt>
      <trkpt lat="42.424153" lon="-2.876605">
        <ele>674.022</ele>
        <time>2021-07-26T07:05:35Z</time>
      </trkpt>
      <trkpt lat="42.424293" lon="-2.876215">
        <ele>671.620</ele>
        <time>2021-07-26T07:05:42Z</time>
      </trkpt>
      <trkpt lat="42.424402" lon="-2.875781">
        <ele>669.237</ele>
        <time>2021-07-26T07:05:48Z</time>
      </trkpt>
      <trkpt lat="42.424515" lon="-2.875351">
        <ele>666.885</ele>
        <time>2021-07-26T07:05:54Z</time>
      </trkpt>
      <trkpt lat="42.424583" lon="-2.875061">
        <ele>665.343</ele>
        <time>2021-07-26T07:05:59Z</time>
      </trkpt>
      <trkpt lat="42.424596" lon="-2.875028">
        <ele>665.364</ele>
        <time>2021-07-26T07:06:03Z</time>
      </trkpt>
      <trkpt lat="42.424607" lon="-2.875016">
        <ele>666.310</ele>
        <time>2021-07-26T07:06:17Z</time>
      </trkpt>
      <trkpt lat="42.424657" lon="-2.874793">
        <ele>664.408</ele>
        <time>2021-07-26T07:06:23Z</time>
      </trkpt>
      <trkpt lat="42.424757" lon="-2.874385">
        <ele>662.081</ele>
        <time>2021-07-26T07:06:31Z</time>
      </trkpt>
      <trkpt lat="42.424858" lon="-2.873974">
        <ele>659.643</ele>
        <time>2021-07-26T07:06:37Z</time>
      </trkpt>
      <trkpt lat="42.424982" lon="-2.873428">
        <ele>656.280</ele>
        <time>2021-07-26T07:06:43Z</time>
      </trkpt>
      <trkpt lat="42.425070" lon="-2.872748">
        <ele>650.430</ele>
        <time>2021-07-26T07:06:49Z</time>
      </trkpt>
      <trkpt lat="42.425143" lon="-2.872064">
        <ele>645.124</ele>
        <time>2021-07-26T07:06:55Z</time>
      </trkpt>
      <trkpt lat="42.425196" lon="-2.871563">
        <ele>641.872</ele>
        <time>2021-07-26T07:07:00Z</time>
      </trkpt>
      <trkpt lat="42.425212" lon="-2.871360">
        <ele>639.849</ele>
        <time>2021-07-26T07:07:03Z</time>
      </trkpt>
      <trkpt lat="42.425218" lon="-2.871284">
        <ele>639.417</ele>
        <time>2021-07-26T07:07:07Z</time>
      </trkpt>
      <trkpt lat="42.425230" lon="-2.871282">
        <ele>641.384</ele>
        <time>2021-07-26T07:07:24Z</time>
      </trkpt>
      <trkpt lat="42.425224" lon="-2.871274">
        <ele>642.707</ele>
        <time>2021-07-26T07:07:49Z</time>
      </trkpt>
      <trkpt lat="42.425235" lon="-2.871209">
        <ele>642.317</ele>
        <time>2021-07-26T07:07:57Z</time>
      </trkpt>
      <trkpt lat="42.425303" lon="-2.870926">
        <ele>640.308</ele>
        <time>2021-07-26T07:08:02Z</time>
      </trkpt>
      <trkpt lat="42.425490" lon="-2.870263">
        <ele>633.635</ele>
        <time>2021-07-26T07:08:10Z</time>
      </trkpt>
      <trkpt lat="42.425723" lon="-2.869498">
        <ele>625.477</ele>
        <time>2021-07-26T07:08:18Z</time>
      </trkpt>
      <trkpt lat="42.425930" lon="-2.868718">
        <ele>620.624</ele>
        <time>2021-07-26T07:08:25Z</time>
      </trkpt>
      <trkpt lat="42.426158" lon="-2.867926">
        <ele>616.874</ele>
        <time>2021-07-26T07:08:33Z</time>
      </trkpt>
      <trkpt lat="42.426275" lon="-2.867517">
        <ele>615.368</ele>
        <time>2021-07-26T07:08:39Z</time>
      </trkpt>
      <trkpt lat="42.426377" lon="-2.867128">
        <ele>614.926</ele>
        <time>2021-07-26T07:08:47Z</time>
      </trkpt>
      <trkpt lat="42.426468" lon="-2.866792">
        <ele>613.923</ele>
        <time>2021-07-26T07:08:55Z</time>
      </trkpt>
      <trkpt lat="42.426545" lon="-2.866495">
        <ele>614.981</ele>
        <time>2021-07-26T07:09:05Z</time>
      </trkpt>
      <trkpt lat="42.426616" lon="-2.866305">
        <ele>614.987</ele>
        <time>2021-07-26T07:09:13Z</time>
      </trkpt>
      <trkpt lat="42.426679" lon="-2.866116">
        <ele>614.442</ele>
        <time>2021-07-26T07:09:20Z</time>
      </trkpt>
      <trkpt lat="42.426766" lon="-2.865818">
        <ele>613.926</ele>
        <time>2021-07-26T07:09:30Z</time>
      </trkpt>
      <trkpt lat="42.426850" lon="-2.865532">
        <ele>612.908</ele>
        <time>2021-07-26T07:09:40Z</time>
      </trkpt>
      <trkpt lat="42.426891" lon="-2.865369">
        <ele>612.555</ele>
        <time>2021-07-26T07:09:46Z</time>
      </trkpt>
      <trkpt lat="42.426896" lon="-2.865336">
        <ele>612.537</ele>
        <time>2021-07-26T07:09:47Z</time>
      </trkpt>
      <trkpt lat="42.426904" lon="-2.865299">
        <ele>612.574</ele>
        <time>2021-07-26T07:09:48Z</time>
      </trkpt>
      <trkpt lat="42.426914" lon="-2.865264">
        <ele>612.534</ele>
        <time>2021-07-26T07:09:49Z</time>
      </trkpt>
      <trkpt lat="42.426925" lon="-2.865226">
        <ele>612.518</ele>
        <time>2021-07-26T07:09:50Z</time>
      </trkpt>
      <trkpt lat="42.426992" lon="-2.864949">
        <ele>612.526</ele>
        <time>2021-07-26T07:09:58Z</time>
      </trkpt>
      <trkpt lat="42.427051" lon="-2.864568">
        <ele>612.013</ele>
        <time>2021-07-26T07:10:07Z</time>
      </trkpt>
      <trkpt lat="42.427087" lon="-2.864213">
        <ele>610.551</ele>
        <time>2021-07-26T07:10:15Z</time>
      </trkpt>
      <trkpt lat="42.427118" lon="-2.863836">
        <ele>607.656</ele>
        <time>2021-07-26T07:10:23Z</time>
      </trkpt>
      <trkpt lat="42.427145" lon="-2.863554">
        <ele>606.259</ele>
        <time>2021-07-26T07:10:30Z</time>
      </trkpt>
      <trkpt lat="42.427162" lon="-2.863224">
        <ele>605.214</ele>
        <time>2021-07-26T07:10:38Z</time>
      </trkpt>
      <trkpt lat="42.427195" lon="-2.862790">
        <ele>603.308</ele>
        <time>2021-07-26T07:10:46Z</time>
      </trkpt>
      <trkpt lat="42.427222" lon="-2.862451">
        <ele>602.462</ele>
        <time>2021-07-26T07:10:53Z</time>
      </trkpt>
      <trkpt lat="42.427270" lon="-2.861990">
        <ele>601.464</ele>
        <time>2021-07-26T07:11:02Z</time>
      </trkpt>
      <trkpt lat="42.427288" lon="-2.861828">
        <ele>600.911</ele>
        <time>2021-07-26T07:11:05Z</time>
      </trkpt>
      <trkpt lat="42.427296" lon="-2.861776">
        <ele>600.931</ele>
        <time>2021-07-26T07:11:06Z</time>
      </trkpt>
      <trkpt lat="42.427299" lon="-2.861727">
        <ele>600.465</ele>
        <time>2021-07-26T07:11:07Z</time>
      </trkpt>
      <trkpt lat="42.427298" lon="-2.861673">
        <ele>600.413</ele>
        <time>2021-07-26T07:11:08Z</time>
      </trkpt>
      <trkpt lat="42.427293" lon="-2.861624">
        <ele>600.450</ele>
        <time>2021-07-26T07:11:09Z</time>
      </trkpt>
      <trkpt lat="42.427324" lon="-2.861202">
        <ele>599.538</ele>
        <time>2021-07-26T07:11:17Z</time>
      </trkpt>
      <trkpt lat="42.427356" lon="-2.860815">
        <ele>599.043</ele>
        <time>2021-07-26T07:11:25Z</time>
      </trkpt>
      <trkpt lat="42.427376" lon="-2.860345">
        <ele>598.064</ele>
        <time>2021-07-26T07:11:35Z</time>
      </trkpt>
      <trkpt lat="42.427426" lon="-2.860133">
        <ele>598.010</ele>
        <time>2021-07-26T07:11:41Z</time>
      </trkpt>
      <trkpt lat="42.427574" lon="-2.859848">
        <ele>598.008</ele>
        <time>2021-07-26T07:11:49Z</time>
      </trkpt>
      <trkpt lat="42.427701" lon="-2.859631">
        <ele>597.661</ele>
        <time>2021-07-26T07:11:56Z</time>
      </trkpt>
      <trkpt lat="42.427834" lon="-2.859396">
        <ele>597.123</ele>
        <time>2021-07-26T07:12:03Z</time>
      </trkpt>
      <trkpt lat="42.428017" lon="-2.859065">
        <ele>596.670</ele>
        <time>2021-07-26T07:12:12Z</time>
      </trkpt>
      <trkpt lat="42.428236" lon="-2.858677">
        <ele>595.650</ele>
        <time>2021-07-26T07:12:23Z</time>
      </trkpt>
      <trkpt lat="42.428472" lon="-2.858267">
        <ele>594.294</ele>
        <time>2021-07-26T07:12:34Z</time>
      </trkpt>
      <trkpt lat="42.428667" lon="-2.857916">
        <ele>593.242</ele>
        <time>2021-07-26T07:12:43Z</time>
      </trkpt>
      <trkpt lat="42.428903" lon="-2.857496">
        <ele>592.399</ele>
        <time>2021-07-26T07:12:54Z</time>
      </trkpt>
      <trkpt lat="42.429166" lon="-2.857033">
        <ele>590.837</ele>
        <time>2021-07-26T07:13:06Z</time>
      </trkpt>
      <trkpt lat="42.429383" lon="-2.856657">
        <ele>590.372</ele>
        <time>2021-07-26T07:13:16Z</time>
      </trkpt>
      <trkpt lat="42.429584" lon="-2.856298">
        <ele>589.913</ele>
        <time>2021-07-26T07:13:26Z</time>
      </trkpt>
      <trkpt lat="42.429802" lon="-2.855886">
        <ele>589.414</ele>
        <time>2021-07-26T07:13:37Z</time>
      </trkpt>
      <trkpt lat="42.430048" lon="-2.855413">
        <ele>588.408</ele>
        <time>2021-07-26T07:13:50Z</time>
      </trkpt>
      <trkpt lat="42.430267" lon="-2.854980">
        <ele>587.514</ele>
        <time>2021-07-26T07:14:01Z</time>
      </trkpt>
      <trkpt lat="42.430449" lon="-2.854644">
        <ele>586.536</ele>
        <time>2021-07-26T07:14:09Z</time>
      </trkpt>
      <trkpt lat="42.430718" lon="-2.854126">
        <ele>585.523</ele>
        <time>2021-07-26T07:14:21Z</time>
      </trkpt>
      <trkpt lat="42.430973" lon="-2.853654">
        <ele>585.193</ele>
        <time>2021-07-26T07:14:32Z</time>
      </trkpt>
      <trkpt lat="42.431133" lon="-2.853336">
        <ele>584.687</ele>
        <time>2021-07-26T07:14:40Z</time>
      </trkpt>
      <trkpt lat="42.431289" lon="-2.852930">
        <ele>584.645</ele>
        <time>2021-07-26T07:14:50Z</time>
      </trkpt>
      <trkpt lat="42.431420" lon="-2.852460">
        <ele>585.192</ele>
        <time>2021-07-26T07:15:01Z</time>
      </trkpt>
      <trkpt lat="42.431538" lon="-2.852018">
        <ele>584.640</ele>
        <time>2021-07-26T07:15:11Z</time>
      </trkpt>
      <trkpt lat="42.431701" lon="-2.851444">
        <ele>583.632</ele>
        <time>2021-07-26T07:15:23Z</time>
      </trkpt>
      <trkpt lat="42.431849" lon="-2.850900">
        <ele>582.792</ele>
        <time>2021-07-26T07:15:35Z</time>
      </trkpt>
      <trkpt lat="42.431999" lon="-2.850367">
        <ele>581.711</ele>
        <time>2021-07-26T07:15:47Z</time>
      </trkpt>
      <trkpt lat="42.432158" lon="-2.849877">
        <ele>581.208</ele>
        <time>2021-07-26T07:15:58Z</time>
      </trkpt>
      <trkpt lat="42.432314" lon="-2.849378">
        <ele>581.230</ele>
        <time>2021-07-26T07:16:09Z</time>
      </trkpt>
      <trkpt lat="42.432420" lon="-2.849087">
        <ele>581.792</ele>
        <time>2021-07-26T07:16:17Z</time>
      </trkpt>
      <trkpt lat="42.432647" lon="-2.848852">
        <ele>580.289</ele>
        <time>2021-07-26T07:16:24Z</time>
      </trkpt>
      <trkpt lat="42.432833" lon="-2.848619">
        <ele>579.379</ele>
        <time>2021-07-26T07:16:30Z</time>
      </trkpt>
      <trkpt lat="42.432860" lon="-2.848571">
        <ele>579.323</ele>
        <time>2021-07-26T07:16:31Z</time>
      </trkpt>
      <trkpt lat="42.432883" lon="-2.848521">
        <ele>578.891</ele>
        <time>2021-07-26T07:16:32Z</time>
      </trkpt>
      <trkpt lat="42.432904" lon="-2.848468">
        <ele>578.868</ele>
        <time>2021-07-26T07:16:33Z</time>
      </trkpt>
      <trkpt lat="42.432922" lon="-2.848409">
        <ele>578.346</ele>
        <time>2021-07-26T07:16:34Z</time>
      </trkpt>
      <trkpt lat="42.432936" lon="-2.848352">
        <ele>578.397</ele>
        <time>2021-07-26T07:16:35Z</time>
      </trkpt>
      <trkpt lat="42.432945" lon="-2.848292">
        <ele>577.823</ele>
        <time>2021-07-26T07:16:36Z</time>
      </trkpt>
      <trkpt lat="42.432950" lon="-2.848228">
        <ele>577.825</ele>
        <time>2021-07-26T07:16:37Z</time>
      </trkpt>
      <trkpt lat="42.432953" lon="-2.848169">
        <ele>577.808</ele>
        <time>2021-07-26T07:16:38Z</time>
      </trkpt>
      <trkpt lat="42.432933" lon="-2.847724">
        <ele>577.486</ele>
        <time>2021-07-26T07:16:46Z</time>
      </trkpt>
      <trkpt lat="42.432815" lon="-2.847170">
        <ele>577.438</ele>
        <time>2021-07-26T07:16:56Z</time>
      </trkpt>
      <trkpt lat="42.432688" lon="-2.846551">
        <ele>576.935</ele>
        <time>2021-07-26T07:17:06Z</time>
      </trkpt>
      <trkpt lat="42.432650" lon="-2.845973">
        <ele>576.965</ele>
        <time>2021-07-26T07:17:15Z</time>
      </trkpt>
      <trkpt lat="42.432709" lon="-2.845447">
        <ele>576.469</ele>
        <time>2021-07-26T07:17:24Z</time>
      </trkpt>
      <trkpt lat="42.432834" lon="-2.844807">
        <ele>575.057</ele>
        <time>2021-07-26T07:17:34Z</time>
      </trkpt>
      <trkpt lat="42.432972" lon="-2.844163">
        <ele>574.574</ele>
        <time>2021-07-26T07:17:44Z</time>
      </trkpt>
      <trkpt lat="42.433091" lon="-2.843596">
        <ele>574.592</ele>
        <time>2021-07-26T07:17:53Z</time>
      </trkpt>
      <trkpt lat="42.433191" lon="-2.843126">
        <ele>574.526</ele>
        <time>2021-07-26T07:18:01Z</time>
      </trkpt>
      <trkpt lat="42.433305" lon="-2.842465">
        <ele>574.047</ele>
        <time>2021-07-26T07:18:12Z</time>
      </trkpt>
      <trkpt lat="42.433456" lon="-2.841883">
        <ele>573.511</ele>
        <time>2021-07-26T07:18:22Z</time>
      </trkpt>
      <trkpt lat="42.433648" lon="-2.841328">
        <ele>573.508</ele>
        <time>2021-07-26T07:18:32Z</time>
      </trkpt>
      <trkpt lat="42.433705" lon="-2.841256">
        <ele>573.039</ele>
        <time>2021-07-26T07:18:34Z</time>
      </trkpt>
      <trkpt lat="42.433741" lon="-2.841235">
        <ele>573.011</ele>
        <time>2021-07-26T07:18:35Z</time>
      </trkpt>
      <trkpt lat="42.433781" lon="-2.841221">
        <ele>573.088</ele>
        <time>2021-07-26T07:18:36Z</time>
      </trkpt>
      <trkpt lat="42.433822" lon="-2.841213">
        <ele>572.678</ele>
        <time>2021-07-26T07:18:37Z</time>
      </trkpt>
      <trkpt lat="42.433866" lon="-2.841208">
        <ele>572.192</ele>
        <time>2021-07-26T07:18:38Z</time>
      </trkpt>
      <trkpt lat="42.433906" lon="-2.841189">
        <ele>572.170</ele>
        <time>2021-07-26T07:18:39Z</time>
      </trkpt>
      <trkpt lat="42.433941" lon="-2.841154">
        <ele>572.117</ele>
        <time>2021-07-26T07:18:40Z</time>
      </trkpt>
      <trkpt lat="42.433968" lon="-2.841098">
        <ele>571.655</ele>
        <time>2021-07-26T07:18:41Z</time>
      </trkpt>
      <trkpt lat="42.433979" lon="-2.841036">
        <ele>571.638</ele>
        <time>2021-07-26T07:18:42Z</time>
      </trkpt>
      <trkpt lat="42.433982" lon="-2.840991">
        <ele>571.670</ele>
        <time>2021-07-26T07:18:43Z</time>
      </trkpt>
      <trkpt lat="42.433981" lon="-2.840936">
        <ele>571.117</ele>
        <time>2021-07-26T07:18:44Z</time>
      </trkpt>
      <trkpt lat="42.433978" lon="-2.840881">
        <ele>571.108</ele>
        <time>2021-07-26T07:18:45Z</time>
      </trkpt>
      <trkpt lat="42.434002" lon="-2.840484">
        <ele>571.140</ele>
        <time>2021-07-26T07:18:52Z</time>
      </trkpt>
      <trkpt lat="42.434006" lon="-2.840431">
        <ele>571.162</ele>
        <time>2021-07-26T07:18:53Z</time>
      </trkpt>
      <trkpt lat="42.434039" lon="-2.840061">
        <ele>571.129</ele>
        <time>2021-07-26T07:19:00Z</time>
      </trkpt>
      <trkpt lat="42.434034" lon="-2.840007">
        <ele>571.189</ele>
        <time>2021-07-26T07:19:01Z</time>
      </trkpt>
      <trkpt lat="42.434024" lon="-2.839951">
        <ele>571.153</ele>
        <time>2021-07-26T07:19:02Z</time>
      </trkpt>
      <trkpt lat="42.434010" lon="-2.839897">
        <ele>571.111</ele>
        <time>2021-07-26T07:19:03Z</time>
      </trkpt>
      <trkpt lat="42.433993" lon="-2.839840">
        <ele>571.168</ele>
        <time>2021-07-26T07:19:04Z</time>
      </trkpt>
      <trkpt lat="42.433770" lon="-2.839267">
        <ele>570.666</ele>
        <time>2021-07-26T07:19:14Z</time>
      </trkpt>
      <trkpt lat="42.433668" lon="-2.838949">
        <ele>570.666</ele>
        <time>2021-07-26T07:19:19Z</time>
      </trkpt>
      <trkpt lat="42.433656" lon="-2.838886">
        <ele>570.629</ele>
        <time>2021-07-26T07:19:20Z</time>
      </trkpt>
      <trkpt lat="42.433634" lon="-2.838693">
        <ele>570.621</ele>
        <time>2021-07-26T07:19:23Z</time>
      </trkpt>
      <trkpt lat="42.433617" lon="-2.837976">
        <ele>569.208</ele>
        <time>2021-07-26T07:19:34Z</time>
      </trkpt>
      <trkpt lat="42.433587" lon="-2.837214">
        <ele>568.293</ele>
        <time>2021-07-26T07:19:46Z</time>
      </trkpt>
      <trkpt lat="42.433555" lon="-2.836794">
        <ele>568.235</ele>
        <time>2021-07-26T07:19:54Z</time>
      </trkpt>
      <trkpt lat="42.433541" lon="-2.836438">
        <ele>568.212</ele>
        <time>2021-07-26T07:20:02Z</time>
      </trkpt>
      <trkpt lat="42.433529" lon="-2.836094">
        <ele>567.812</ele>
        <time>2021-07-26T07:20:09Z</time>
      </trkpt>
      <trkpt lat="42.433526" lon="-2.835576">
        <ele>567.896</ele>
        <time>2021-07-26T07:20:18Z</time>
      </trkpt>
      <trkpt lat="42.433531" lon="-2.835511">
        <ele>567.844</ele>
        <time>2021-07-26T07:20:19Z</time>
      </trkpt>
      <trkpt lat="42.433535" lon="-2.835450">
        <ele>567.891</ele>
        <time>2021-07-26T07:20:20Z</time>
      </trkpt>
      <trkpt lat="42.433554" lon="-2.834830">
        <ele>567.829</ele>
        <time>2021-07-26T07:20:30Z</time>
      </trkpt>
      <trkpt lat="42.433590" lon="-2.834341">
        <ele>567.887</ele>
        <time>2021-07-26T07:20:38Z</time>
      </trkpt>
      <trkpt lat="42.433589" lon="-2.834046">
        <ele>567.842</ele>
        <time>2021-07-26T07:20:43Z</time>
      </trkpt>
      <trkpt lat="42.433593" lon="-2.833986">
        <ele>567.826</ele>
        <time>2021-07-26T07:20:44Z</time>
      </trkpt>
      <trkpt lat="42.433601" lon="-2.833926">
        <ele>567.808</ele>
        <time>2021-07-26T07:20:45Z</time>
      </trkpt>
      <trkpt lat="42.433612" lon="-2.833865">
        <ele>567.825</ele>
        <time>2021-07-26T07:20:46Z</time>
      </trkpt>
      <trkpt lat="42.433628" lon="-2.833813">
        <ele>567.827</ele>
        <time>2021-07-26T07:20:47Z</time>
      </trkpt>
      <trkpt lat="42.433648" lon="-2.833761">
        <ele>567.824</ele>
        <time>2021-07-26T07:20:48Z</time>
      </trkpt>
      <trkpt lat="42.433821" lon="-2.833423">
        <ele>567.824</ele>
        <time>2021-07-26T07:20:56Z</time>
      </trkpt>
      <trkpt lat="42.433869" lon="-2.833312">
        <ele>567.368</ele>
        <time>2021-07-26T07:21:02Z</time>
      </trkpt>
      <trkpt lat="42.433931" lon="-2.833212">
        <ele>566.866</ele>
        <time>2021-07-26T07:21:09Z</time>
      </trkpt>
      <trkpt lat="42.433942" lon="-2.833205">
        <ele>566.393</ele>
        <time>2021-07-26T07:21:16Z</time>
      </trkpt>
      <trkpt lat="42.433981" lon="-2.833173">
        <ele>566.321</ele>
        <time>2021-07-26T07:21:28Z</time>
      </trkpt>
      <trkpt lat="42.434077" lon="-2.832965">
        <ele>564.914</ele>
        <time>2021-07-26T07:21:36Z</time>
      </trkpt>
      <trkpt lat="42.434157" lon="-2.832691">
        <ele>563.954</ele>
        <time>2021-07-26T07:21:44Z</time>
      </trkpt>
      <trkpt lat="42.434187" lon="-2.832339">
        <ele>563.409</ele>
        <time>2021-07-26T07:21:53Z</time>
      </trkpt>
      <trkpt lat="42.434223" lon="-2.831848">
        <ele>562.908</ele>
        <time>2021-07-26T07:22:03Z</time>
      </trkpt>
      <trkpt lat="42.434221" lon="-2.831394">
        <ele>563.438</ele>
        <time>2021-07-26T07:22:12Z</time>
      </trkpt>
      <trkpt lat="42.434179" lon="-2.830906">
        <ele>562.930</ele>
        <time>2021-07-26T07:22:22Z</time>
      </trkpt>
      <trkpt lat="42.434124" lon="-2.830446">
        <ele>562.537</ele>
        <time>2021-07-26T07:22:32Z</time>
      </trkpt>
      <trkpt lat="42.434102" lon="-2.829966">
        <ele>562.037</ele>
        <time>2021-07-26T07:22:41Z</time>
      </trkpt>
      <trkpt lat="42.434110" lon="-2.829416">
        <ele>562.021</ele>
        <time>2021-07-26T07:22:51Z</time>
      </trkpt>
      <trkpt lat="42.434114" lon="-2.829362">
        <ele>562.039</ele>
        <time>2021-07-26T07:22:52Z</time>
      </trkpt>
      <trkpt lat="42.434118" lon="-2.829304">
        <ele>561.546</ele>
        <time>2021-07-26T07:22:53Z</time>
      </trkpt>
      <trkpt lat="42.434126" lon="-2.828728">
        <ele>561.084</ele>
        <time>2021-07-26T07:23:02Z</time>
      </trkpt>
      <trkpt lat="42.434056" lon="-2.828200">
        <ele>560.547</ele>
        <time>2021-07-26T07:23:11Z</time>
      </trkpt>
      <trkpt lat="42.434009" lon="-2.827947">
        <ele>560.529</ele>
        <time>2021-07-26T07:23:16Z</time>
      </trkpt>
      <trkpt lat="42.434000" lon="-2.827889">
        <ele>560.521</ele>
        <time>2021-07-26T07:23:17Z</time>
      </trkpt>
      <trkpt lat="42.433970" lon="-2.827461">
        <ele>561.008</ele>
        <time>2021-07-26T07:23:24Z</time>
      </trkpt>
      <trkpt lat="42.433929" lon="-2.826837">
        <ele>561.531</ele>
        <time>2021-07-26T07:23:34Z</time>
      </trkpt>
      <trkpt lat="42.433864" lon="-2.826177">
        <ele>560.133</ele>
        <time>2021-07-26T07:23:44Z</time>
      </trkpt>
      <trkpt lat="42.433818" lon="-2.825619">
        <ele>559.650</ele>
        <time>2021-07-26T07:23:53Z</time>
      </trkpt>
      <trkpt lat="42.433803" lon="-2.825607">
        <ele>559.630</ele>
        <time>2021-07-26T07:23:57Z</time>
      </trkpt>
      <trkpt lat="42.433815" lon="-2.825622">
        <ele>558.654</ele>
        <time>2021-07-26T07:24:12Z</time>
      </trkpt>
      <trkpt lat="42.433813" lon="-2.825623">
        <ele>558.162</ele>
        <time>2021-07-26T07:24:35Z</time>
      </trkpt>
      <trkpt lat="42.433809" lon="-2.825618">
        <ele>557.749</ele>
        <time>2021-07-26T07:24:47Z</time>
      </trkpt>
      <trkpt lat="42.433819" lon="-2.825578">
        <ele>557.717</ele>
        <time>2021-07-26T07:24:50Z</time>
      </trkpt>
      <trkpt lat="42.433823" lon="-2.825466">
        <ele>557.763</ele>
        <time>2021-07-26T07:24:55Z</time>
      </trkpt>
      <trkpt lat="42.433819" lon="-2.825430">
        <ele>557.744</ele>
        <time>2021-07-26T07:24:56Z</time>
      </trkpt>
      <trkpt lat="42.433812" lon="-2.825364">
        <ele>557.718</ele>
        <time>2021-07-26T07:24:58Z</time>
      </trkpt>
      <trkpt lat="42.433782" lon="-2.824913">
        <ele>557.708</ele>
        <time>2021-07-26T07:25:08Z</time>
      </trkpt>
      <trkpt lat="42.433741" lon="-2.824374">
        <ele>557.293</ele>
        <time>2021-07-26T07:25:18Z</time>
      </trkpt>
      <trkpt lat="42.433700" lon="-2.823743">
        <ele>556.765</ele>
        <time>2021-07-26T07:25:29Z</time>
      </trkpt>
      <trkpt lat="42.433650" lon="-2.823139">
        <ele>556.772</ele>
        <time>2021-07-26T07:25:39Z</time>
      </trkpt>
      <trkpt lat="42.433642" lon="-2.823080">
        <ele>556.772</ele>
        <time>2021-07-26T07:25:40Z</time>
      </trkpt>
      <trkpt lat="42.433636" lon="-2.823018">
        <ele>556.756</ele>
        <time>2021-07-26T07:25:41Z</time>
      </trkpt>
      <trkpt lat="42.433555" lon="-2.822444">
        <ele>555.744</ele>
        <time>2021-07-26T07:25:50Z</time>
      </trkpt>
      <trkpt lat="42.433471" lon="-2.821881">
        <ele>555.741</ele>
        <time>2021-07-26T07:25:59Z</time>
      </trkpt>
      <trkpt lat="42.433387" lon="-2.821271">
        <ele>555.349</ele>
        <time>2021-07-26T07:26:10Z</time>
      </trkpt>
      <trkpt lat="42.433309" lon="-2.820802">
        <ele>555.315</ele>
        <time>2021-07-26T07:26:20Z</time>
      </trkpt>
      <trkpt lat="42.433236" lon="-2.820704">
        <ele>554.865</ele>
        <time>2021-07-26T07:26:25Z</time>
      </trkpt>
      <trkpt lat="42.433219" lon="-2.820703">
        <ele>554.811</ele>
        <time>2021-07-26T07:26:26Z</time>
      </trkpt>
      <trkpt lat="42.433037" lon="-2.820805">
        <ele>553.308</ele>
        <time>2021-07-26T07:26:34Z</time>
      </trkpt>
      <trkpt lat="42.432779" lon="-2.820974">
        <ele>553.328</ele>
        <time>2021-07-26T07:26:43Z</time>
      </trkpt>
      <trkpt lat="42.432541" lon="-2.821128">
        <ele>554.390</ele>
        <time>2021-07-26T07:26:53Z</time>
      </trkpt>
      <trkpt lat="42.432467" lon="-2.821084">
        <ele>554.337</ele>
        <time>2021-07-26T07:26:59Z</time>
      </trkpt>
      <trkpt lat="42.432381" lon="-2.820896">
        <ele>554.327</ele>
        <time>2021-07-26T07:27:08Z</time>
      </trkpt>
      <trkpt lat="42.432289" lon="-2.820714">
        <ele>555.371</ele>
        <time>2021-07-26T07:27:17Z</time>
      </trkpt>
      <trkpt lat="42.432169" lon="-2.820520">
        <ele>556.239</ele>
        <time>2021-07-26T07:27:28Z</time>
      </trkpt>
      <trkpt lat="42.432052" lon="-2.820343">
        <ele>557.236</ele>
        <time>2021-07-26T07:27:38Z</time>
      </trkpt>
      <trkpt lat="42.431959" lon="-2.820194">
        <ele>557.744</ele>
        <time>2021-07-26T07:27:47Z</time>
      </trkpt>
      <trkpt lat="42.431840" lon="-2.820057">
        <ele>558.698</ele>
        <time>2021-07-26T07:27:57Z</time>
      </trkpt>
      <trkpt lat="42.431732" lon="-2.819909">
        <ele>559.115</ele>
        <time>2021-07-26T07:28:06Z</time>
      </trkpt>
      <trkpt lat="42.431607" lon="-2.819773">
        <ele>560.526</ele>
        <time>2021-07-26T07:28:15Z</time>
      </trkpt>
      <trkpt lat="42.431500" lon="-2.819603">
        <ele>562.908</ele>
        <time>2021-07-26T07:28:25Z</time>
      </trkpt>
      <trkpt lat="42.431444" lon="-2.819525">
        <ele>564.446</ele>
        <time>2021-07-26T07:28:31Z</time>
      </trkpt>
      <trkpt lat="42.431437" lon="-2.819507">
        <ele>564.498</ele>
        <time>2021-07-26T07:28:32Z</time>
      </trkpt>
      <trkpt lat="42.431429" lon="-2.819492">
        <ele>564.975</ele>
        <time>2021-07-26T07:28:33Z</time>
      </trkpt>
      <trkpt lat="42.431320" lon="-2.819370">
        <ele>566.335</ele>
        <time>2021-07-26T07:28:42Z</time>
      </trkpt>
      <trkpt lat="42.431203" lon="-2.819265">
        <ele>568.779</ele>
        <time>2021-07-26T07:28:52Z</time>
      </trkpt>
      <trkpt lat="42.431077" lon="-2.819158">
        <ele>570.297</ele>
        <time>2021-07-26T07:29:02Z</time>
      </trkpt>
      <trkpt lat="42.430974" lon="-2.819104">
        <ele>570.284</ele>
        <time>2021-07-26T07:29:10Z</time>
      </trkpt>
      <trkpt lat="42.430858" lon="-2.819017">
        <ele>571.152</ele>
        <time>2021-07-26T07:29:20Z</time>
      </trkpt>
      <trkpt lat="42.430725" lon="-2.818902">
        <ele>571.629</ele>
        <time>2021-07-26T07:29:30Z</time>
      </trkpt>
      <trkpt lat="42.430606" lon="-2.818814">
        <ele>572.600</ele>
        <time>2021-07-26T07:29:38Z</time>
      </trkpt>
      <trkpt lat="42.430441" lon="-2.818700">
        <ele>575.020</ele>
        <time>2021-07-26T07:29:48Z</time>
      </trkpt>
      <trkpt lat="42.430287" lon="-2.818537">
        <ele>576.408</ele>
        <time>2021-07-26T07:29:58Z</time>
      </trkpt>
      <trkpt lat="42.430136" lon="-2.818344">
        <ele>576.499</ele>
        <time>2021-07-26T07:30:08Z</time>
      </trkpt>
      <trkpt lat="42.430009" lon="-2.818192">
        <ele>576.421</ele>
        <time>2021-07-26T07:30:16Z</time>
      </trkpt>
      <trkpt lat="42.429951" lon="-2.818117">
        <ele>575.988</ele>
        <time>2021-07-26T07:30:23Z</time>
      </trkpt>
      <trkpt lat="42.429949" lon="-2.818126">
        <ele>576.978</ele>
        <time>2021-07-26T07:30:36Z</time>
      </trkpt>
      <trkpt lat="42.429925" lon="-2.818093">
        <ele>577.462</ele>
        <time>2021-07-26T07:30:47Z</time>
      </trkpt>
      <trkpt lat="42.429818" lon="-2.817934">
        <ele>576.420</ele>
        <time>2021-07-26T07:30:54Z</time>
      </trkpt>
      <trkpt lat="42.429701" lon="-2.817705">
        <ele>575.997</ele>
        <time>2021-07-26T07:31:02Z</time>
      </trkpt>
      <trkpt lat="42.429621" lon="-2.817570">
        <ele>574.545</ele>
        <time>2021-07-26T07:31:09Z</time>
      </trkpt>
      <trkpt lat="42.429496" lon="-2.817332">
        <ele>573.018</ele>
        <time>2021-07-26T07:31:18Z</time>
      </trkpt>
      <trkpt lat="42.429416" lon="-2.817119">
        <ele>572.198</ele>
        <time>2021-07-26T07:31:26Z</time>
      </trkpt>
      <trkpt lat="42.429324" lon="-2.816868">
        <ele>571.117</ele>
        <time>2021-07-26T07:31:34Z</time>
      </trkpt>
      <trkpt lat="42.429282" lon="-2.816724">
        <ele>571.108</ele>
        <time>2021-07-26T07:31:43Z</time>
      </trkpt>
      <trkpt lat="42.429221" lon="-2.816562">
        <ele>571.178</ele>
        <time>2021-07-26T07:31:52Z</time>
      </trkpt>
      <trkpt lat="42.429151" lon="-2.816318">
        <ele>571.120</ele>
        <time>2021-07-26T07:32:02Z</time>
      </trkpt>
      <trkpt lat="42.429100" lon="-2.816115">
        <ele>570.657</ele>
        <time>2021-07-26T07:32:10Z</time>
      </trkpt>
      <trkpt lat="42.429091" lon="-2.816093">
        <ele>570.657</ele>
        <time>2021-07-26T07:32:11Z</time>
      </trkpt>
      <trkpt lat="42.429015" lon="-2.815816">
        <ele>569.291</ele>
        <time>2021-07-26T07:32:21Z</time>
      </trkpt>
      <trkpt lat="42.428875" lon="-2.815482">
        <ele>567.859</ele>
        <time>2021-07-26T07:32:31Z</time>
      </trkpt>
      <trkpt lat="42.428843" lon="-2.815337">
        <ele>567.836</ele>
        <time>2021-07-26T07:32:37Z</time>
      </trkpt>
      <trkpt lat="42.428856" lon="-2.815330">
        <ele>567.884</ele>
        <time>2021-07-26T07:32:43Z</time>
      </trkpt>
      <trkpt lat="42.428852" lon="-2.815333">
        <ele>567.834</ele>
        <time>2021-07-26T07:32:51Z</time>
      </trkpt>
      <trkpt lat="42.428853" lon="-2.815331">
        <ele>568.255</ele>
        <time>2021-07-26T07:33:10Z</time>
      </trkpt>
      <trkpt lat="42.428850" lon="-2.815327">
        <ele>567.310</ele>
        <time>2021-07-26T07:33:24Z</time>
      </trkpt>
      <trkpt lat="42.428846" lon="-2.815356">
        <ele>567.308</ele>
        <time>2021-07-26T07:33:31Z</time>
      </trkpt>
      <trkpt lat="42.428827" lon="-2.815359">
        <ele>567.310</ele>
        <time>2021-07-26T07:33:36Z</time>
      </trkpt>
      <trkpt lat="42.428819" lon="-2.815346">
        <ele>567.332</ele>
        <time>2021-07-26T07:33:37Z</time>
      </trkpt>
      <trkpt lat="42.428815" lon="-2.815328">
        <ele>567.319</ele>
        <time>2021-07-26T07:33:38Z</time>
      </trkpt>
      <trkpt lat="42.428748" lon="-2.815100">
        <ele>566.879</ele>
        <time>2021-07-26T07:33:46Z</time>
      </trkpt>
      <trkpt lat="42.428645" lon="-2.814703">
        <ele>566.863</ele>
        <time>2021-07-26T07:33:56Z</time>
      </trkpt>
      <trkpt lat="42.428563" lon="-2.814263">
        <ele>566.851</ele>
        <time>2021-07-26T07:34:06Z</time>
      </trkpt>
      <trkpt lat="42.428469" lon="-2.813901">
        <ele>566.348</ele>
        <time>2021-07-26T07:34:15Z</time>
      </trkpt>
      <trkpt lat="42.428359" lon="-2.813560">
        <ele>565.396</ele>
        <time>2021-07-26T07:34:23Z</time>
      </trkpt>
      <trkpt lat="42.428217" lon="-2.813169">
        <ele>563.924</ele>
        <time>2021-07-26T07:34:33Z</time>
      </trkpt>
      <trkpt lat="42.428054" lon="-2.812715">
        <ele>561.504</ele>
        <time>2021-07-26T07:34:42Z</time>
      </trkpt>
      <trkpt lat="42.427889" lon="-2.812348">
        <ele>560.114</ele>
        <time>2021-07-26T07:34:51Z</time>
      </trkpt>
      <trkpt lat="42.427718" lon="-2.811976">
        <ele>558.608</ele>
        <time>2021-07-26T07:34:59Z</time>
      </trkpt>
      <trkpt lat="42.427527" lon="-2.811539">
        <ele>557.789</ele>
        <time>2021-07-26T07:35:08Z</time>
      </trkpt>
      <trkpt lat="42.427397" lon="-2.811255">
        <ele>557.281</ele>
        <time>2021-07-26T07:35:16Z</time>
      </trkpt>
      <trkpt lat="42.427264" lon="-2.810980">
        <ele>556.268</ele>
        <time>2021-07-26T07:35:23Z</time>
      </trkpt>
      <trkpt lat="42.427202" lon="-2.810829">
        <ele>556.248</ele>
        <time>2021-07-26T07:35:26Z</time>
      </trkpt>
      <trkpt lat="42.427182" lon="-2.810773">
        <ele>555.742</ele>
        <time>2021-07-26T07:35:27Z</time>
      </trkpt>
      <trkpt lat="42.427165" lon="-2.810723">
        <ele>555.780</ele>
        <time>2021-07-26T07:35:28Z</time>
      </trkpt>
      <trkpt lat="42.427068" lon="-2.810410">
        <ele>554.827</ele>
        <time>2021-07-26T07:35:35Z</time>
      </trkpt>
      <trkpt lat="42.426973" lon="-2.810064">
        <ele>553.855</ele>
        <time>2021-07-26T07:35:43Z</time>
      </trkpt>
      <trkpt lat="42.426866" lon="-2.809714">
        <ele>552.437</ele>
        <time>2021-07-26T07:35:52Z</time>
      </trkpt>
      <trkpt lat="42.426759" lon="-2.809353">
        <ele>552.449</ele>
        <time>2021-07-26T07:36:01Z</time>
      </trkpt>
      <trkpt lat="42.426655" lon="-2.809061">
        <ele>551.413</ele>
        <time>2021-07-26T07:36:08Z</time>
      </trkpt>
      <trkpt lat="42.426527" lon="-2.808602">
        <ele>550.008</ele>
        <time>2021-07-26T07:36:16Z</time>
      </trkpt>
      <trkpt lat="42.426442" lon="-2.808283">
        <ele>550.050</ele>
        <time>2021-07-26T07:36:23Z</time>
      </trkpt>
      <trkpt lat="42.426335" lon="-2.807867">
        <ele>549.542</ele>
        <time>2021-07-26T07:36:32Z</time>
      </trkpt>
      <trkpt lat="42.426213" lon="-2.807344">
        <ele>549.539</ele>
        <time>2021-07-26T07:36:42Z</time>
      </trkpt>
      <trkpt lat="42.426144" lon="-2.806795">
        <ele>550.019</ele>
        <time>2021-07-26T07:36:52Z</time>
      </trkpt>
      <trkpt lat="42.426062" lon="-2.806087">
        <ele>550.033</ele>
        <time>2021-07-26T07:37:04Z</time>
      </trkpt>
      <trkpt lat="42.425987" lon="-2.805425">
        <ele>549.561</ele>
        <time>2021-07-26T07:37:15Z</time>
      </trkpt>
      <trkpt lat="42.425922" lon="-2.804839">
        <ele>549.598</ele>
        <time>2021-07-26T07:37:24Z</time>
      </trkpt>
      <trkpt lat="42.425853" lon="-2.804188">
        <ele>549.066</ele>
        <time>2021-07-26T07:37:34Z</time>
      </trkpt>
      <trkpt lat="42.425800" lon="-2.803715">
        <ele>548.552</ele>
        <time>2021-07-26T07:37:43Z</time>
      </trkpt>
      <trkpt lat="42.425692" lon="-2.803562">
        <ele>548.053</ele>
        <time>2021-07-26T07:37:49Z</time>
      </trkpt>
      <trkpt lat="42.425474" lon="-2.803373">
        <ele>547.108</ele>
        <time>2021-07-26T07:37:56Z</time>
      </trkpt>
      <trkpt lat="42.425135" lon="-2.803049">
        <ele>547.608</ele>
        <time>2021-07-26T07:38:06Z</time>
      </trkpt>
      <trkpt lat="42.424902" lon="-2.802836">
        <ele>549.012</ele>
        <time>2021-07-26T07:38:14Z</time>
      </trkpt>
      <trkpt lat="42.424739" lon="-2.802779">
        <ele>548.524</ele>
        <time>2021-07-26T07:38:20Z</time>
      </trkpt>
      <trkpt lat="42.424673" lon="-2.802770">
        <ele>548.081</ele>
        <time>2021-07-26T07:38:23Z</time>
      </trkpt>
      <trkpt lat="42.424656" lon="-2.802780">
        <ele>548.091</ele>
        <time>2021-07-26T07:38:24Z</time>
      </trkpt>
      <trkpt lat="42.424648" lon="-2.802786">
        <ele>548.065</ele>
        <time>2021-07-26T07:38:25Z</time>
      </trkpt>
      <trkpt lat="42.424630" lon="-2.802837">
        <ele>548.053</ele>
        <time>2021-07-26T07:38:31Z</time>
      </trkpt>
      <trkpt lat="42.424631" lon="-2.802838">
        <ele>547.650</ele>
        <time>2021-07-26T07:38:39Z</time>
      </trkpt>
      <trkpt lat="42.424633" lon="-2.802827">
        <ele>546.668</ele>
        <time>2021-07-26T07:38:51Z</time>
      </trkpt>
      <trkpt lat="42.424632" lon="-2.802818">
        <ele>546.149</ele>
        <time>2021-07-26T07:39:05Z</time>
      </trkpt>
      <trkpt lat="42.424635" lon="-2.802825">
        <ele>546.102</ele>
        <time>2021-07-26T07:39:31Z</time>
      </trkpt>
      <trkpt lat="42.424631" lon="-2.802836">
        <ele>545.622</ele>
        <time>2021-07-26T07:39:49Z</time>
      </trkpt>
      <trkpt lat="42.424631" lon="-2.802826">
        <ele>545.208</ele>
        <time>2021-07-26T07:40:10Z</time>
      </trkpt>
      <trkpt lat="42.424633" lon="-2.802824">
        <ele>545.231</ele>
        <time>2021-07-26T07:40:34Z</time>
      </trkpt>
      <trkpt lat="42.424633" lon="-2.802816">
        <ele>545.633</ele>
        <time>2021-07-26T07:40:53Z</time>
      </trkpt>
      <trkpt lat="42.424636" lon="-2.802816">
        <ele>546.160</ele>
        <time>2021-07-26T07:41:15Z</time>
      </trkpt>
      <trkpt lat="42.424641" lon="-2.802801">
        <ele>546.690</ele>
        <time>2021-07-26T07:41:19Z</time>
      </trkpt>
      <trkpt lat="42.424628" lon="-2.802767">
        <ele>547.684</ele>
        <time>2021-07-26T07:41:27Z</time>
      </trkpt>
      <trkpt lat="42.424632" lon="-2.802762">
        <ele>547.682</ele>
        <time>2021-07-26T07:41:30Z</time>
      </trkpt>
      <trkpt lat="42.424703" lon="-2.802675">
        <ele>548.019</ele>
        <time>2021-07-26T07:41:37Z</time>
      </trkpt>
      <trkpt lat="42.424701" lon="-2.802648">
        <ele>548.077</ele>
        <time>2021-07-26T07:41:38Z</time>
      </trkpt>
      <trkpt lat="42.424688" lon="-2.802628">
        <ele>548.086</ele>
        <time>2021-07-26T07:41:39Z</time>
      </trkpt>
      <trkpt lat="42.424670" lon="-2.802613">
        <ele>548.060</ele>
        <time>2021-07-26T07:41:40Z</time>
      </trkpt>
      <trkpt lat="42.424649" lon="-2.802601">
        <ele>548.026</ele>
        <time>2021-07-26T07:41:41Z</time>
      </trkpt>
      <trkpt lat="42.424555" lon="-2.802423">
        <ele>548.508</ele>
        <time>2021-07-26T07:41:48Z</time>
      </trkpt>
      <trkpt lat="42.424513" lon="-2.802021">
        <ele>550.985</ele>
        <time>2021-07-26T07:41:58Z</time>
      </trkpt>
      <trkpt lat="42.424452" lon="-2.801734">
        <ele>552.427</ele>
        <time>2021-07-26T07:42:06Z</time>
      </trkpt>
      <trkpt lat="42.424354" lon="-2.801420">
        <ele>554.334</ele>
        <time>2021-07-26T07:42:16Z</time>
      </trkpt>
      <trkpt lat="42.424289" lon="-2.801221">
        <ele>556.274</ele>
        <time>2021-07-26T07:42:23Z</time>
      </trkpt>
      <trkpt lat="42.424180" lon="-2.800980">
        <ele>557.278</ele>
        <time>2021-07-26T07:42:32Z</time>
      </trkpt>
      <trkpt lat="42.424085" lon="-2.800712">
        <ele>558.636</ele>
        <time>2021-07-26T07:42:41Z</time>
      </trkpt>
      <trkpt lat="42.423988" lon="-2.800486">
        <ele>560.123</ele>
        <time>2021-07-26T07:42:49Z</time>
      </trkpt>
      <trkpt lat="42.423916" lon="-2.800253">
        <ele>559.621</ele>
        <time>2021-07-26T07:42:57Z</time>
      </trkpt>
      <trkpt lat="42.423844" lon="-2.800011">
        <ele>559.667</ele>
        <time>2021-07-26T07:43:04Z</time>
      </trkpt>
      <trkpt lat="42.423735" lon="-2.799717">
        <ele>558.681</ele>
        <time>2021-07-26T07:43:12Z</time>
      </trkpt>
      <trkpt lat="42.423608" lon="-2.799407">
        <ele>559.119</ele>
        <time>2021-07-26T07:43:21Z</time>
      </trkpt>
      <trkpt lat="42.423445" lon="-2.799018">
        <ele>561.008</ele>
        <time>2021-07-26T07:43:32Z</time>
      </trkpt>
      <trkpt lat="42.423350" lon="-2.798781">
        <ele>561.573</ele>
        <time>2021-07-26T07:43:40Z</time>
      </trkpt>
      <trkpt lat="42.423264" lon="-2.798476">
        <ele>561.075</ele>
        <time>2021-07-26T07:43:50Z</time>
      </trkpt>
      <trkpt lat="42.423168" lon="-2.798054">
        <ele>561.552</ele>
        <time>2021-07-26T07:44:01Z</time>
      </trkpt>
      <trkpt lat="42.423069" lon="-2.797690">
        <ele>562.512</ele>
        <time>2021-07-26T07:44:09Z</time>
      </trkpt>
      <trkpt lat="42.423002" lon="-2.797369">
        <ele>563.496</ele>
        <time>2021-07-26T07:44:16Z</time>
      </trkpt>
      <trkpt lat="42.422956" lon="-2.796992">
        <ele>562.944</ele>
        <time>2021-07-26T07:44:23Z</time>
      </trkpt>
      <trkpt lat="42.422869" lon="-2.796436">
        <ele>560.141</ele>
        <time>2021-07-26T07:44:31Z</time>
      </trkpt>
      <trkpt lat="42.422719" lon="-2.795544">
        <ele>555.759</ele>
        <time>2021-07-26T07:44:41Z</time>
      </trkpt>
      <trkpt lat="42.422561" lon="-2.794690">
        <ele>553.821</ele>
        <time>2021-07-26T07:44:51Z</time>
      </trkpt>
      <trkpt lat="42.422438" lon="-2.794025">
        <ele>553.841</ele>
        <time>2021-07-26T07:45:00Z</time>
      </trkpt>
      <trkpt lat="42.422347" lon="-2.793526">
        <ele>553.805</ele>
        <time>2021-07-26T07:45:09Z</time>
      </trkpt>
      <trkpt lat="42.422216" lon="-2.793042">
        <ele>553.808</ele>
        <time>2021-07-26T07:45:19Z</time>
      </trkpt>
      <trkpt lat="42.422060" lon="-2.792616">
        <ele>552.999</ele>
        <time>2021-07-26T07:45:28Z</time>
      </trkpt>
      <trkpt lat="42.421891" lon="-2.792142">
        <ele>551.911</ele>
        <time>2021-07-26T07:45:38Z</time>
      </trkpt>
      <trkpt lat="42.421776" lon="-2.791775">
        <ele>551.918</ele>
        <time>2021-07-26T07:45:46Z</time>
      </trkpt>
      <trkpt lat="42.421622" lon="-2.791309">
        <ele>552.428</ele>
        <time>2021-07-26T07:45:56Z</time>
      </trkpt>
      <trkpt lat="42.421513" lon="-2.790995">
        <ele>552.462</ele>
        <time>2021-07-26T07:46:04Z</time>
      </trkpt>
      <trkpt lat="42.421376" lon="-2.790634">
        <ele>552.920</ele>
        <time>2021-07-26T07:46:12Z</time>
      </trkpt>
      <trkpt lat="42.421184" lon="-2.790171">
        <ele>552.917</ele>
        <time>2021-07-26T07:46:23Z</time>
      </trkpt>
      <trkpt lat="42.420962" lon="-2.789647">
        <ele>552.925</ele>
        <time>2021-07-26T07:46:35Z</time>
      </trkpt>
      <trkpt lat="42.420792" lon="-2.789190">
        <ele>552.475</ele>
        <time>2021-07-26T07:46:45Z</time>
      </trkpt>
      <trkpt lat="42.420718" lon="-2.788865">
        <ele>552.428</ele>
        <time>2021-07-26T07:46:51Z</time>
      </trkpt>
      <trkpt lat="42.420700" lon="-2.788337">
        <ele>551.420</ele>
        <time>2021-07-26T07:46:58Z</time>
      </trkpt>
      <trkpt lat="42.420662" lon="-2.787525">
        <ele>550.008</ele>
        <time>2021-07-26T07:47:07Z</time>
      </trkpt>
      <trkpt lat="42.420602" lon="-2.786511">
        <ele>548.034</ele>
        <time>2021-07-26T07:47:17Z</time>
      </trkpt>
      <trkpt lat="42.420534" lon="-2.785683">
        <ele>546.636</ele>
        <time>2021-07-26T07:47:25Z</time>
      </trkpt>
      <trkpt lat="42.420422" lon="-2.784745">
        <ele>546.153</ele>
        <time>2021-07-26T07:47:35Z</time>
      </trkpt>
      <trkpt lat="42.420334" lon="-2.784165">
        <ele>546.673</ele>
        <time>2021-07-26T07:47:43Z</time>
      </trkpt>
      <trkpt lat="42.420230" lon="-2.783452">
        <ele>548.597</ele>
        <time>2021-07-26T07:47:54Z</time>
      </trkpt>
      <trkpt lat="42.420179" lon="-2.782932">
        <ele>550.465</ele>
        <time>2021-07-26T07:48:04Z</time>
      </trkpt>
      <trkpt lat="42.420161" lon="-2.782290">
        <ele>552.972</ele>
        <time>2021-07-26T07:48:16Z</time>
      </trkpt>
      <trkpt lat="42.420160" lon="-2.781754">
        <ele>554.830</ele>
        <time>2021-07-26T07:48:27Z</time>
      </trkpt>
      <trkpt lat="42.420172" lon="-2.781401">
        <ele>555.793</ele>
        <time>2021-07-26T07:48:37Z</time>
      </trkpt>
      <trkpt lat="42.420180" lon="-2.780940">
        <ele>555.765</ele>
        <time>2021-07-26T07:48:48Z</time>
      </trkpt>
      <trkpt lat="42.420113" lon="-2.780480">
        <ele>555.721</ele>
        <time>2021-07-26T07:48:57Z</time>
      </trkpt>
      <trkpt lat="42.420005" lon="-2.780051">
        <ele>555.708</ele>
        <time>2021-07-26T07:49:06Z</time>
      </trkpt>
      <trkpt lat="42.419893" lon="-2.779538">
        <ele>555.796</ele>
        <time>2021-07-26T07:49:16Z</time>
      </trkpt>
      <trkpt lat="42.419832" lon="-2.778874">
        <ele>555.748</ele>
        <time>2021-07-26T07:49:27Z</time>
      </trkpt>
      <trkpt lat="42.419780" lon="-2.778141">
        <ele>555.745</ele>
        <time>2021-07-26T07:49:39Z</time>
      </trkpt>
      <trkpt lat="42.419692" lon="-2.777626">
        <ele>555.795</ele>
        <time>2021-07-26T07:49:48Z</time>
      </trkpt>
      <trkpt lat="42.419642" lon="-2.777343">
        <ele>555.799</ele>
        <time>2021-07-26T07:49:54Z</time>
      </trkpt>
      <trkpt lat="42.419546" lon="-2.776887">
        <ele>555.347</ele>
        <time>2021-07-26T07:50:04Z</time>
      </trkpt>
      <trkpt lat="42.419472" lon="-2.776483">
        <ele>553.894</ele>
        <time>2021-07-26T07:50:13Z</time>
      </trkpt>
      <trkpt lat="42.419409" lon="-2.776153">
        <ele>552.932</ele>
        <time>2021-07-26T07:50:21Z</time>
      </trkpt>
      <trkpt lat="42.419345" lon="-2.775838">
        <ele>552.426</ele>
        <time>2021-07-26T07:50:30Z</time>
      </trkpt>
      <trkpt lat="42.419277" lon="-2.775501">
        <ele>551.447</ele>
        <time>2021-07-26T07:50:39Z</time>
      </trkpt>
      <trkpt lat="42.419161" lon="-2.775080">
        <ele>550.411</ele>
        <time>2021-07-26T07:50:49Z</time>
      </trkpt>
      <trkpt lat="42.419010" lon="-2.774587">
        <ele>549.508</ele>
        <time>2021-07-26T07:51:00Z</time>
      </trkpt>
      <trkpt lat="42.418859" lon="-2.774043">
        <ele>549.049</ele>
        <time>2021-07-26T07:51:12Z</time>
      </trkpt>
      <trkpt lat="42.418793" lon="-2.773752">
        <ele>548.531</ele>
        <time>2021-07-26T07:51:20Z</time>
      </trkpt>
      <trkpt lat="42.418716" lon="-2.773483">
        <ele>548.588</ele>
        <time>2021-07-26T07:51:26Z</time>
      </trkpt>
      <trkpt lat="42.418597" lon="-2.773006">
        <ele>549.018</ele>
        <time>2021-07-26T07:51:35Z</time>
      </trkpt>
      <trkpt lat="42.418586" lon="-2.772950">
        <ele>549.032</ele>
        <time>2021-07-26T07:51:36Z</time>
      </trkpt>
      <trkpt lat="42.418461" lon="-2.772378">
        <ele>549.570</ele>
        <time>2021-07-26T07:51:47Z</time>
      </trkpt>
      <trkpt lat="42.418356" lon="-2.772053">
        <ele>550.097</ele>
        <time>2021-07-26T07:51:54Z</time>
      </trkpt>
      <trkpt lat="42.418175" lon="-2.771403">
        <ele>550.465</ele>
        <time>2021-07-26T07:52:07Z</time>
      </trkpt>
      <trkpt lat="42.418053" lon="-2.770812">
        <ele>551.428</ele>
        <time>2021-07-26T07:52:18Z</time>
      </trkpt>
      <trkpt lat="42.417939" lon="-2.770258">
        <ele>552.989</ele>
        <time>2021-07-26T07:52:29Z</time>
      </trkpt>
      <trkpt lat="42.417866" lon="-2.769683">
        <ele>554.317</ele>
        <time>2021-07-26T07:52:40Z</time>
      </trkpt>
      <trkpt lat="42.417821" lon="-2.769023">
        <ele>555.308</ele>
        <time>2021-07-26T07:52:52Z</time>
      </trkpt>
      <trkpt lat="42.417793" lon="-2.768533">
        <ele>555.349</ele>
        <time>2021-07-26T07:53:02Z</time>
      </trkpt>
      <trkpt lat="42.417775" lon="-2.768294">
        <ele>554.841</ele>
        <time>2021-07-26T07:53:09Z</time>
      </trkpt>
      <trkpt lat="42.417743" lon="-2.768029">
        <ele>555.338</ele>
        <time>2021-07-26T07:53:16Z</time>
      </trkpt>
      <trkpt lat="42.417693" lon="-2.767588">
        <ele>555.758</ele>
        <time>2021-07-26T07:53:26Z</time>
      </trkpt>
      <trkpt lat="42.417628" lon="-2.767158">
        <ele>554.332</ele>
        <time>2021-07-26T07:53:35Z</time>
      </trkpt>
      <trkpt lat="42.417524" lon="-2.766612">
        <ele>552.460</ele>
        <time>2021-07-26T07:53:43Z</time>
      </trkpt>
      <trkpt lat="42.417476" lon="-2.765947">
        <ele>550.957</ele>
        <time>2021-07-26T07:53:51Z</time>
      </trkpt>
      <trkpt lat="42.417395" lon="-2.765228">
        <ele>549.585</ele>
        <time>2021-07-26T07:53:59Z</time>
      </trkpt>
      <trkpt lat="42.417231" lon="-2.764362">
        <ele>547.145</ele>
        <time>2021-07-26T07:54:08Z</time>
      </trkpt>
      <trkpt lat="42.417060" lon="-2.763509">
        <ele>545.647</ele>
        <time>2021-07-26T07:54:17Z</time>
      </trkpt>
      <trkpt lat="42.416908" lon="-2.762583">
        <ele>544.711</ele>
        <time>2021-07-26T07:54:27Z</time>
      </trkpt>
      <trkpt lat="42.416688" lon="-2.761584">
        <ele>542.808</ele>
        <time>2021-07-26T07:54:38Z</time>
      </trkpt>
      <trkpt lat="42.416486" lon="-2.760751">
        <ele>540.471</ele>
        <time>2021-07-26T07:54:47Z</time>
      </trkpt>
      <trkpt lat="42.416346" lon="-2.760028">
        <ele>537.923</ele>
        <time>2021-07-26T07:54:54Z</time>
      </trkpt>
      <trkpt lat="42.416309" lon="-2.759936">
        <ele>537.540</ele>
        <time>2021-07-26T07:54:55Z</time>
      </trkpt>
      <trkpt lat="42.416098" lon="-2.759445">
        <ele>534.150</ele>
        <time>2021-07-26T07:55:01Z</time>
      </trkpt>
      <trkpt lat="42.416078" lon="-2.759403">
        <ele>534.144</ele>
        <time>2021-07-26T07:55:02Z</time>
      </trkpt>
      <trkpt lat="42.416059" lon="-2.759383">
        <ele>534.142</ele>
        <time>2021-07-26T07:55:03Z</time>
      </trkpt>
      <trkpt lat="42.416042" lon="-2.759380">
        <ele>533.649</ele>
        <time>2021-07-26T07:55:07Z</time>
      </trkpt>
      <trkpt lat="42.416045" lon="-2.759361">
        <ele>533.627</ele>
        <time>2021-07-26T07:55:21Z</time>
      </trkpt>
      <trkpt lat="42.416057" lon="-2.759361">
        <ele>533.625</ele>
        <time>2021-07-26T07:55:42Z</time>
      </trkpt>
      <trkpt lat="42.416060" lon="-2.759358">
        <ele>533.626</ele>
        <time>2021-07-26T07:55:59Z</time>
      </trkpt>
      <trkpt lat="42.416052" lon="-2.759369">
        <ele>532.708</ele>
        <time>2021-07-26T07:56:07Z</time>
      </trkpt>
      <trkpt lat="42.416050" lon="-2.759383">
        <ele>533.608</ele>
        <time>2021-07-26T07:56:21Z</time>
      </trkpt>
      <trkpt lat="42.416028" lon="-2.759374">
        <ele>533.659</ele>
        <time>2021-07-26T07:56:30Z</time>
      </trkpt>
      <trkpt lat="42.416013" lon="-2.759359">
        <ele>533.681</ele>
        <time>2021-07-26T07:56:31Z</time>
      </trkpt>
      <trkpt lat="42.415996" lon="-2.759336">
        <ele>533.688</ele>
        <time>2021-07-26T07:56:32Z</time>
      </trkpt>
      <trkpt lat="42.415979" lon="-2.759309">
        <ele>533.648</ele>
        <time>2021-07-26T07:56:33Z</time>
      </trkpt>
      <trkpt lat="42.415966" lon="-2.759271">
        <ele>533.162</ele>
        <time>2021-07-26T07:56:34Z</time>
      </trkpt>
      <trkpt lat="42.415961" lon="-2.759225">
        <ele>532.760</ele>
        <time>2021-07-26T07:56:35Z</time>
      </trkpt>
      <trkpt lat="42.415961" lon="-2.759172">
        <ele>532.247</ele>
        <time>2021-07-26T07:56:36Z</time>
      </trkpt>
      <trkpt lat="42.415962" lon="-2.759108">
        <ele>532.265</ele>
        <time>2021-07-26T07:56:37Z</time>
      </trkpt>
      <trkpt lat="42.415970" lon="-2.758601">
        <ele>528.842</ele>
        <time>2021-07-26T07:56:43Z</time>
      </trkpt>
      <trkpt lat="42.416005" lon="-2.757765">
        <ele>524.522</ele>
        <time>2021-07-26T07:56:50Z</time>
      </trkpt>
      <trkpt lat="42.416078" lon="-2.756620">
        <ele>521.614</ele>
        <time>2021-07-26T07:56:59Z</time>
      </trkpt>
      <trkpt lat="42.416153" lon="-2.755599">
        <ele>520.608</ele>
        <time>2021-07-26T07:57:08Z</time>
      </trkpt>
      <trkpt lat="42.416146" lon="-2.754844">
        <ele>520.631</ele>
        <time>2021-07-26T07:57:16Z</time>
      </trkpt>
      <trkpt lat="42.416131" lon="-2.754760">
        <ele>520.643</ele>
        <time>2021-07-26T07:57:17Z</time>
      </trkpt>
      <trkpt lat="42.416118" lon="-2.754687">
        <ele>520.650</ele>
        <time>2021-07-26T07:57:18Z</time>
      </trkpt>
      <trkpt lat="42.416110" lon="-2.754610">
        <ele>520.630</ele>
        <time>2021-07-26T07:57:19Z</time>
      </trkpt>
      <trkpt lat="42.416112" lon="-2.754533">
        <ele>520.684</ele>
        <time>2021-07-26T07:57:20Z</time>
      </trkpt>
      <trkpt lat="42.416122" lon="-2.754463">
        <ele>520.622</ele>
        <time>2021-07-26T07:57:21Z</time>
      </trkpt>
      <trkpt lat="42.416134" lon="-2.754392">
        <ele>520.299</ele>
        <time>2021-07-26T07:57:22Z</time>
      </trkpt>
      <trkpt lat="42.416202" lon="-2.753993">
        <ele>520.217</ele>
        <time>2021-07-26T07:57:29Z</time>
      </trkpt>
      <trkpt lat="42.416242" lon="-2.753658">
        <ele>520.215</ele>
        <time>2021-07-26T07:57:37Z</time>
      </trkpt>
      <trkpt lat="42.416294" lon="-2.753223">
        <ele>521.165</ele>
        <time>2021-07-26T07:57:48Z</time>
      </trkpt>
      <trkpt lat="42.416295" lon="-2.752961">
        <ele>522.111</ele>
        <time>2021-07-26T07:57:56Z</time>
      </trkpt>
      <trkpt lat="42.416300" lon="-2.752727">
        <ele>523.508</ele>
        <time>2021-07-26T07:58:04Z</time>
      </trkpt>
      <trkpt lat="42.416285" lon="-2.752479">
        <ele>526.428</ele>
        <time>2021-07-26T07:58:13Z</time>
      </trkpt>
      <trkpt lat="42.416291" lon="-2.752304">
        <ele>527.980</ele>
        <time>2021-07-26T07:58:20Z</time>
      </trkpt>
      <trkpt lat="42.416316" lon="-2.752037">
        <ele>529.357</ele>
        <time>2021-07-26T07:58:30Z</time>
      </trkpt>
      <trkpt lat="42.416332" lon="-2.751824">
        <ele>530.337</ele>
        <time>2021-07-26T07:58:40Z</time>
      </trkpt>
      <trkpt lat="42.416312" lon="-2.751673">
        <ele>530.711</ele>
        <time>2021-07-26T07:58:49Z</time>
      </trkpt>
      <trkpt lat="42.416256" lon="-2.751496">
        <ele>530.389</ele>
        <time>2021-07-26T07:59:00Z</time>
      </trkpt>
      <trkpt lat="42.416152" lon="-2.751377">
        <ele>531.736</ele>
        <time>2021-07-26T07:59:09Z</time>
      </trkpt>
      <trkpt lat="42.416015" lon="-2.751231">
        <ele>532.794</ele>
        <time>2021-07-26T07:59:19Z</time>
      </trkpt>
      <trkpt lat="42.415886" lon="-2.751053">
        <ele>534.164</ele>
        <time>2021-07-26T07:59:30Z</time>
      </trkpt>
      <trkpt lat="42.415780" lon="-2.750874">
        <ele>535.506</ele>
        <time>2021-07-26T07:59:40Z</time>
      </trkpt>
      <trkpt lat="42.415657" lon="-2.750667">
        <ele>537.516</ele>
        <time>2021-07-26T07:59:51Z</time>
      </trkpt>
      <trkpt lat="42.415608" lon="-2.750495">
        <ele>537.508</ele>
        <time>2021-07-26T07:59:59Z</time>
      </trkpt>
      <trkpt lat="42.415561" lon="-2.750311">
        <ele>538.463</ele>
        <time>2021-07-26T08:00:07Z</time>
      </trkpt>
      <trkpt lat="42.415523" lon="-2.750113">
        <ele>540.475</ele>
        <time>2021-07-26T08:00:15Z</time>
      </trkpt>
      <trkpt lat="42.415478" lon="-2.749908">
        <ele>541.842</ele>
        <time>2021-07-26T08:00:23Z</time>
      </trkpt>
      <trkpt lat="42.415425" lon="-2.749609">
        <ele>543.252</ele>
        <time>2021-07-26T08:00:34Z</time>
      </trkpt>
      <trkpt lat="42.415378" lon="-2.749395">
        <ele>545.266</ele>
        <time>2021-07-26T08:00:42Z</time>
      </trkpt>
      <trkpt lat="42.415367" lon="-2.749338">
        <ele>545.694</ele>
        <time>2021-07-26T08:00:45Z</time>
      </trkpt>
      <trkpt lat="42.415366" lon="-2.749321">
        <ele>546.191</ele>
        <time>2021-07-26T08:00:46Z</time>
      </trkpt>
      <trkpt lat="42.415367" lon="-2.749304">
        <ele>545.649</ele>
        <time>2021-07-26T08:00:47Z</time>
      </trkpt>
      <trkpt lat="42.415368" lon="-2.749284">
        <ele>545.643</ele>
        <time>2021-07-26T08:00:48Z</time>
      </trkpt>
      <trkpt lat="42.415366" lon="-2.749263">
        <ele>546.164</ele>
        <time>2021-07-26T08:00:49Z</time>
      </trkpt>
      <trkpt lat="42.415340" lon="-2.749023">
        <ele>547.110</ele>
        <time>2021-07-26T08:00:59Z</time>
      </trkpt>
      <trkpt lat="42.415346" lon="-2.748877">
        <ele>547.608</ele>
        <time>2021-07-26T08:01:05Z</time>
      </trkpt>
      <trkpt lat="42.415332" lon="-2.748646">
        <ele>547.161</ele>
        <time>2021-07-26T08:01:12Z</time>
      </trkpt>
      <trkpt lat="42.415293" lon="-2.748213">
        <ele>545.673</ele>
        <time>2021-07-26T08:01:20Z</time>
      </trkpt>
      <trkpt lat="42.415278" lon="-2.748152">
        <ele>546.120</ele>
        <time>2021-07-26T08:01:21Z</time>
      </trkpt>
      <trkpt lat="42.415256" lon="-2.748095">
        <ele>546.170</ele>
        <time>2021-07-26T08:01:22Z</time>
      </trkpt>
      <trkpt lat="42.415235" lon="-2.748034">
        <ele>546.124</ele>
        <time>2021-07-26T08:01:23Z</time>
      </trkpt>
      <trkpt lat="42.415217" lon="-2.747979">
        <ele>546.172</ele>
        <time>2021-07-26T08:01:24Z</time>
      </trkpt>
      <trkpt lat="42.415195" lon="-2.747923">
        <ele>546.189</ele>
        <time>2021-07-26T08:01:25Z</time>
      </trkpt>
      <trkpt lat="42.415165" lon="-2.747870">
        <ele>546.137</ele>
        <time>2021-07-26T08:01:26Z</time>
      </trkpt>
      <trkpt lat="42.415136" lon="-2.747822">
        <ele>546.179</ele>
        <time>2021-07-26T08:01:27Z</time>
      </trkpt>
      <trkpt lat="42.415111" lon="-2.747775">
        <ele>546.105</ele>
        <time>2021-07-26T08:01:28Z</time>
      </trkpt>
      <trkpt lat="42.415089" lon="-2.747729">
        <ele>546.125</ele>
        <time>2021-07-26T08:01:29Z</time>
      </trkpt>
      <trkpt lat="42.414950" lon="-2.747354">
        <ele>546.608</ele>
        <time>2021-07-26T08:01:38Z</time>
      </trkpt>
      <trkpt lat="42.414836" lon="-2.746918">
        <ele>546.634</ele>
        <time>2021-07-26T08:01:49Z</time>
      </trkpt>
      <trkpt lat="42.414772" lon="-2.746590">
        <ele>547.666</ele>
        <time>2021-07-26T08:01:59Z</time>
      </trkpt>
      <trkpt lat="42.414716" lon="-2.746325">
        <ele>548.053</ele>
        <time>2021-07-26T08:02:09Z</time>
      </trkpt>
      <trkpt lat="42.414634" lon="-2.746080">
        <ele>550.943</ele>
        <time>2021-07-26T08:02:20Z</time>
      </trkpt>
      <trkpt lat="42.414539" lon="-2.745865">
        <ele>552.957</ele>
        <time>2021-07-26T08:02:29Z</time>
      </trkpt>
      <trkpt lat="42.414473" lon="-2.745663">
        <ele>553.835</ele>
        <time>2021-07-26T08:02:38Z</time>
      </trkpt>
      <trkpt lat="42.414469" lon="-2.745469">
        <ele>555.332</ele>
        <time>2021-07-26T08:02:45Z</time>
      </trkpt>
      <trkpt lat="42.414471" lon="-2.745430">
        <ele>555.770</ele>
        <time>2021-07-26T08:02:47Z</time>
      </trkpt>
      <trkpt lat="42.414477" lon="-2.745418">
        <ele>556.232</ele>
        <time>2021-07-26T08:02:48Z</time>
      </trkpt>
      <trkpt lat="42.414483" lon="-2.745406">
        <ele>556.292</ele>
        <time>2021-07-26T08:02:49Z</time>
      </trkpt>
      <trkpt lat="42.414503" lon="-2.745338">
        <ele>555.711</ele>
        <time>2021-07-26T08:02:56Z</time>
      </trkpt>
      <trkpt lat="42.414501" lon="-2.745354">
        <ele>555.308</ele>
        <time>2021-07-26T08:03:10Z</time>
      </trkpt>
      <trkpt lat="42.414500" lon="-2.745324">
        <ele>556.290</ele>
        <time>2021-07-26T08:03:19Z</time>
      </trkpt>
      <trkpt lat="42.414501" lon="-2.745321">
        <ele>556.722</ele>
        <time>2021-07-26T08:03:30Z</time>
      </trkpt>
      <trkpt lat="42.414498" lon="-2.745308">
        <ele>556.279</ele>
        <time>2021-07-26T08:03:32Z</time>
      </trkpt>
      <trkpt lat="42.414434" lon="-2.745127">
        <ele>554.349</ele>
        <time>2021-07-26T08:03:40Z</time>
      </trkpt>
      <trkpt lat="42.414361" lon="-2.744855">
        <ele>552.473</ele>
        <time>2021-07-26T08:03:47Z</time>
      </trkpt>
      <trkpt lat="42.414334" lon="-2.744694">
        <ele>551.471</ele>
        <time>2021-07-26T08:03:50Z</time>
      </trkpt>
      <trkpt lat="42.414326" lon="-2.744631">
        <ele>550.998</ele>
        <time>2021-07-26T08:03:51Z</time>
      </trkpt>
      <trkpt lat="42.414320" lon="-2.744245">
        <ele>549.596</ele>
        <time>2021-07-26T08:03:57Z</time>
      </trkpt>
      <trkpt lat="42.414318" lon="-2.744178">
        <ele>549.585</ele>
        <time>2021-07-26T08:03:58Z</time>
      </trkpt>
      <trkpt lat="42.414313" lon="-2.743909">
        <ele>548.589</ele>
        <time>2021-07-26T08:04:03Z</time>
      </trkpt>
      <trkpt lat="42.414271" lon="-2.743621">
        <ele>548.017</ele>
        <time>2021-07-26T08:04:11Z</time>
      </trkpt>
      <trkpt lat="42.414195" lon="-2.743286">
        <ele>548.508</ele>
        <time>2021-07-26T08:04:20Z</time>
      </trkpt>
      <trkpt lat="42.414060" lon="-2.743011">
        <ele>547.145</ele>
        <time>2021-07-26T08:04:28Z</time>
      </trkpt>
      <trkpt lat="42.414053" lon="-2.742717">
        <ele>545.287</ele>
        <time>2021-07-26T08:04:35Z</time>
      </trkpt>
      <trkpt lat="42.414095" lon="-2.742440">
        <ele>543.784</ele>
        <time>2021-07-26T08:04:41Z</time>
      </trkpt>
      <trkpt lat="42.414199" lon="-2.742106">
        <ele>540.474</ele>
        <time>2021-07-26T08:04:46Z</time>
      </trkpt>
      <trkpt lat="42.414412" lon="-2.741625">
        <ele>536.588</ele>
        <time>2021-07-26T08:04:52Z</time>
      </trkpt>
      <trkpt lat="42.414542" lon="-2.741205">
        <ele>531.716</ele>
        <time>2021-07-26T08:04:58Z</time>
      </trkpt>
      <trkpt lat="42.414622" lon="-2.740908">
        <ele>528.853</ele>
        <time>2021-07-26T08:05:04Z</time>
      </trkpt>
      <trkpt lat="42.414714" lon="-2.740688">
        <ele>525.571</ele>
        <time>2021-07-26T08:05:11Z</time>
      </trkpt>
      <trkpt lat="42.414717" lon="-2.740647">
        <ele>525.041</ele>
        <time>2021-07-26T08:05:17Z</time>
      </trkpt>
      <trkpt lat="42.414749" lon="-2.740572">
        <ele>524.581</ele>
        <time>2021-07-26T08:05:21Z</time>
      </trkpt>
      <trkpt lat="42.414869" lon="-2.740442">
        <ele>522.609</ele>
        <time>2021-07-26T08:05:30Z</time>
      </trkpt>
      <trkpt lat="42.414958" lon="-2.740299">
        <ele>521.608</ele>
        <time>2021-07-26T08:05:38Z</time>
      </trkpt>
      <trkpt lat="42.415079" lon="-2.740117">
        <ele>522.121</ele>
        <time>2021-07-26T08:05:44Z</time>
      </trkpt>
      <trkpt lat="42.415276" lon="-2.739765">
        <ele>519.293</ele>
        <time>2021-07-26T08:05:52Z</time>
      </trkpt>
      <trkpt lat="42.415426" lon="-2.739485">
        <ele>517.890</ele>
        <time>2021-07-26T08:06:00Z</time>
      </trkpt>
      <trkpt lat="42.415461" lon="-2.739221">
        <ele>514.940</ele>
        <time>2021-07-26T08:06:06Z</time>
      </trkpt>
      <trkpt lat="42.415526" lon="-2.738784">
        <ele>513.084</ele>
        <time>2021-07-26T08:06:13Z</time>
      </trkpt>
      <trkpt lat="42.415549" lon="-2.738558">
        <ele>511.092</ele>
        <time>2021-07-26T08:06:18Z</time>
      </trkpt>
      <trkpt lat="42.415542" lon="-2.738543">
        <ele>511.069</ele>
        <time>2021-07-26T08:06:19Z</time>
      </trkpt>
      <trkpt lat="42.415531" lon="-2.738536">
        <ele>511.047</ele>
        <time>2021-07-26T08:06:20Z</time>
      </trkpt>
      <trkpt lat="42.415435" lon="-2.738586">
        <ele>512.088</ele>
        <time>2021-07-26T08:06:26Z</time>
      </trkpt>
      <trkpt lat="42.415384" lon="-2.738653">
        <ele>512.524</ele>
        <time>2021-07-26T08:06:30Z</time>
      </trkpt>
      <trkpt lat="42.415369" lon="-2.738672">
        <ele>512.526</ele>
        <time>2021-07-26T08:06:31Z</time>
      </trkpt>
      <trkpt lat="42.415356" lon="-2.738687">
        <ele>513.008</ele>
        <time>2021-07-26T08:06:32Z</time>
      </trkpt>
      <trkpt lat="42.415347" lon="-2.738700">
        <ele>513.015</ele>
        <time>2021-07-26T08:06:33Z</time>
      </trkpt>
      <trkpt lat="42.415342" lon="-2.738703">
        <ele>513.927</ele>
        <time>2021-07-26T08:06:38Z</time>
      </trkpt>
      <trkpt lat="42.415350" lon="-2.738685">
        <ele>515.454</ele>
        <time>2021-07-26T08:06:56Z</time>
      </trkpt>
      <trkpt lat="42.415350" lon="-2.738694">
        <ele>517.384</ele>
        <time>2021-07-26T08:07:18Z</time>
      </trkpt>
      <trkpt lat="42.415372" lon="-2.738691">
        <ele>518.288</ele>
        <time>2021-07-26T08:07:39Z</time>
      </trkpt>
      <trkpt lat="42.415371" lon="-2.738701">
        <ele>519.216</ele>
        <time>2021-07-26T08:08:01Z</time>
      </trkpt>
      <trkpt lat="42.415370" lon="-2.738698">
        <ele>520.623</ele>
        <time>2021-07-26T08:08:13Z</time>
      </trkpt>
      <trkpt lat="42.415358" lon="-2.738696">
        <ele>520.671</ele>
        <time>2021-07-26T08:08:38Z</time>
      </trkpt>
      <trkpt lat="42.415365" lon="-2.738691">
        <ele>525.069</ele>
        <time>2021-07-26T08:09:05Z</time>
      </trkpt>
      <trkpt lat="42.415373" lon="-2.738695">
        <ele>527.404</ele>
        <time>2021-07-26T08:09:29Z</time>
      </trkpt>
      <trkpt lat="42.415369" lon="-2.738701">
        <ele>526.424</ele>
        <time>2021-07-26T08:09:49Z</time>
      </trkpt>
      <trkpt lat="42.415372" lon="-2.738714">
        <ele>525.508</ele>
        <time>2021-07-26T08:10:12Z</time>
      </trkpt>
      <trkpt lat="42.415374" lon="-2.738709">
        <ele>526.413</ele>
        <time>2021-07-26T08:10:32Z</time>
      </trkpt>
      <trkpt lat="42.415380" lon="-2.738711">
        <ele>527.915</ele>
        <time>2021-07-26T08:10:54Z</time>
      </trkpt>
      <trkpt lat="42.415388" lon="-2.738703">
        <ele>528.322</ele>
        <time>2021-07-26T08:11:18Z</time>
      </trkpt>
      <trkpt lat="42.415397" lon="-2.738712">
        <ele>531.272</ele>
        <time>2021-07-26T08:11:35Z</time>
      </trkpt>
      <trkpt lat="42.415401" lon="-2.738725">
        <ele>530.326</ele>
        <time>2021-07-26T08:11:56Z</time>
      </trkpt>
      <trkpt lat="42.415394" lon="-2.738717">
        <ele>530.324</ele>
        <time>2021-07-26T08:12:12Z</time>
      </trkpt>
      <trkpt lat="42.415393" lon="-2.738720">
        <ele>529.811</ele>
        <time>2021-07-26T08:12:30Z</time>
      </trkpt>
      <trkpt lat="42.415391" lon="-2.738721">
        <ele>529.359</ele>
        <time>2021-07-26T08:12:51Z</time>
      </trkpt>
      <trkpt lat="42.415387" lon="-2.738735">
        <ele>526.998</ele>
        <time>2021-07-26T08:13:14Z</time>
      </trkpt>
      <trkpt lat="42.415389" lon="-2.738730">
        <ele>527.915</ele>
        <time>2021-07-26T08:13:37Z</time>
      </trkpt>
      <trkpt lat="42.415386" lon="-2.738734">
        <ele>528.826</ele>
        <time>2021-07-26T08:13:53Z</time>
      </trkpt>
      <trkpt lat="42.415381" lon="-2.738738">
        <ele>526.908</ele>
        <time>2021-07-26T08:14:09Z</time>
      </trkpt>
      <trkpt lat="42.415371" lon="-2.738734">
        <ele>524.016</ele>
        <time>2021-07-26T08:14:24Z</time>
      </trkpt>
      <trkpt lat="42.415366" lon="-2.738720">
        <ele>521.138</ele>
        <time>2021-07-26T08:14:38Z</time>
      </trkpt>
      <trkpt lat="42.415359" lon="-2.738708">
        <ele>520.655</ele>
        <time>2021-07-26T08:14:59Z</time>
      </trkpt>
      <trkpt lat="42.415359" lon="-2.738701">
        <ele>520.215</ele>
        <time>2021-07-26T08:15:21Z</time>
      </trkpt>
      <trkpt lat="42.415358" lon="-2.738698">
        <ele>521.649</ele>
        <time>2021-07-26T08:15:39Z</time>
      </trkpt>
      <trkpt lat="42.415365" lon="-2.738707">
        <ele>522.127</ele>
        <time>2021-07-26T08:15:56Z</time>
      </trkpt>
      <trkpt lat="42.415369" lon="-2.738712">
        <ele>522.694</ele>
        <time>2021-07-26T08:16:08Z</time>
      </trkpt>
      <trkpt lat="42.415374" lon="-2.738708">
        <ele>523.042</ele>
        <time>2021-07-26T08:16:26Z</time>
      </trkpt>
      <trkpt lat="42.415373" lon="-2.738725">
        <ele>521.649</ele>
        <time>2021-07-26T08:16:42Z</time>
      </trkpt>
      <trkpt lat="42.415381" lon="-2.738730">
        <ele>525.002</ele>
        <time>2021-07-26T08:17:05Z</time>
      </trkpt>
      <trkpt lat="42.415379" lon="-2.738729">
        <ele>523.522</ele>
        <time>2021-07-26T08:17:22Z</time>
      </trkpt>
      <trkpt lat="42.415380" lon="-2.738725">
        <ele>523.008</ele>
        <time>2021-07-26T08:17:35Z</time>
      </trkpt>
      <trkpt lat="42.415370" lon="-2.738732">
        <ele>523.031</ele>
        <time>2021-07-26T08:17:54Z</time>
      </trkpt>
      <trkpt lat="42.415377" lon="-2.738719">
        <ele>521.673</ele>
        <time>2021-07-26T08:18:06Z</time>
      </trkpt>
      <trkpt lat="42.415377" lon="-2.738706">
        <ele>520.210</ele>
        <time>2021-07-26T08:18:13Z</time>
      </trkpt>
      <trkpt lat="42.415386" lon="-2.738692">
        <ele>519.780</ele>
        <time>2021-07-26T08:18:16Z</time>
      </trkpt>
      <trkpt lat="42.415399" lon="-2.738669">
        <ele>519.794</ele>
        <time>2021-07-26T08:18:18Z</time>
      </trkpt>
      <trkpt lat="42.415410" lon="-2.738665">
        <ele>519.282</ele>
        <time>2021-07-26T08:18:19Z</time>
      </trkpt>
      <trkpt lat="42.415441" lon="-2.738652">
        <ele>519.229</ele>
        <time>2021-07-26T08:18:22Z</time>
      </trkpt>
      <trkpt lat="42.415449" lon="-2.738638">
        <ele>518.737</ele>
        <time>2021-07-26T08:18:23Z</time>
      </trkpt>
      <trkpt lat="42.415454" lon="-2.738621">
        <ele>518.236</ele>
        <time>2021-07-26T08:18:24Z</time>
      </trkpt>
      <trkpt lat="42.415481" lon="-2.738556">
        <ele>518.217</ele>
        <time>2021-07-26T08:18:31Z</time>
      </trkpt>
      <trkpt lat="42.415495" lon="-2.738541">
        <ele>518.218</ele>
        <time>2021-07-26T08:18:33Z</time>
      </trkpt>
      <trkpt lat="42.415509" lon="-2.738532">
        <ele>518.208</ele>
        <time>2021-07-26T08:18:34Z</time>
      </trkpt>
      <trkpt lat="42.415526" lon="-2.738522">
        <ele>518.260</ele>
        <time>2021-07-26T08:18:35Z</time>
      </trkpt>
      <trkpt lat="42.415586" lon="-2.738445">
        <ele>517.812</ele>
        <time>2021-07-26T08:18:42Z</time>
      </trkpt>
      <trkpt lat="42.415671" lon="-2.738287">
        <ele>517.369</ele>
        <time>2021-07-26T08:18:49Z</time>
      </trkpt>
      <trkpt lat="42.415767" lon="-2.738087">
        <ele>516.379</ele>
        <time>2021-07-26T08:18:53Z</time>
      </trkpt>
      <trkpt lat="42.415890" lon="-2.737759">
        <ele>513.463</ele>
        <time>2021-07-26T08:19:00Z</time>
      </trkpt>
      <trkpt lat="42.415927" lon="-2.737644">
        <ele>512.521</ele>
        <time>2021-07-26T08:19:02Z</time>
      </trkpt>
      <trkpt lat="42.415932" lon="-2.737297">
        <ele>511.098</ele>
        <time>2021-07-26T08:19:07Z</time>
      </trkpt>
      <trkpt lat="42.415894" lon="-2.737217">
        <ele>510.156</ele>
        <time>2021-07-26T08:19:11Z</time>
      </trkpt>
      <trkpt lat="42.415931" lon="-2.737211">
        <ele>509.131</ele>
        <time>2021-07-26T08:19:24Z</time>
      </trkpt>
      <trkpt lat="42.415930" lon="-2.737148">
        <ele>510.161</ele>
        <time>2021-07-26T08:19:37Z</time>
      </trkpt>
      <trkpt lat="42.415916" lon="-2.737125">
        <ele>510.607</ele>
        <time>2021-07-26T08:19:47Z</time>
      </trkpt>
      <trkpt lat="42.415906" lon="-2.737113">
        <ele>511.508</ele>
        <time>2021-07-26T08:20:02Z</time>
      </trkpt>
      <trkpt lat="42.415912" lon="-2.737096">
        <ele>513.060</ele>
        <time>2021-07-26T08:20:15Z</time>
      </trkpt>
      <trkpt lat="42.415915" lon="-2.737085">
        <ele>514.962</ele>
        <time>2021-07-26T08:20:27Z</time>
      </trkpt>
      <trkpt lat="42.415925" lon="-2.737075">
        <ele>514.939</ele>
        <time>2021-07-26T08:20:39Z</time>
      </trkpt>
      <trkpt lat="42.415926" lon="-2.737069">
        <ele>514.969</ele>
        <time>2021-07-26T08:20:43Z</time>
      </trkpt>
      <trkpt lat="42.415909" lon="-2.736909">
        <ele>513.493</ele>
        <time>2021-07-26T08:20:49Z</time>
      </trkpt>
      <trkpt lat="42.415834" lon="-2.736542">
        <ele>510.611</ele>
        <time>2021-07-26T08:20:56Z</time>
      </trkpt>
      <trkpt lat="42.415795" lon="-2.736215">
        <ele>508.128</ele>
        <time>2021-07-26T08:21:03Z</time>
      </trkpt>
      <trkpt lat="42.415775" lon="-2.736047">
        <ele>505.736</ele>
        <time>2021-07-26T08:21:09Z</time>
      </trkpt>
      <trkpt lat="42.415799" lon="-2.735879">
        <ele>504.834</ele>
        <time>2021-07-26T08:21:19Z</time>
      </trkpt>
      <trkpt lat="42.415811" lon="-2.735849">
        <ele>504.855</ele>
        <time>2021-07-26T08:21:25Z</time>
      </trkpt>
      <trkpt lat="42.415814" lon="-2.735739">
        <ele>504.310</ele>
        <time>2021-07-26T08:21:30Z</time>
      </trkpt>
      <trkpt lat="42.415835" lon="-2.735585">
        <ele>502.408</ele>
        <time>2021-07-26T08:21:36Z</time>
      </trkpt>
      <trkpt lat="42.415799" lon="-2.735350">
        <ele>500.930</ele>
        <time>2021-07-26T08:21:44Z</time>
      </trkpt>
      <trkpt lat="42.415754" lon="-2.735244">
        <ele>500.592</ele>
        <time>2021-07-26T08:21:48Z</time>
      </trkpt>
      <trkpt lat="42.415756" lon="-2.735215">
        <ele>499.519</ele>
        <time>2021-07-26T08:21:55Z</time>
      </trkpt>
      <trkpt lat="42.415734" lon="-2.735220">
        <ele>496.199</ele>
        <time>2021-07-26T08:22:08Z</time>
      </trkpt>
      <trkpt lat="42.415724" lon="-2.735210">
        <ele>497.183</ele>
        <time>2021-07-26T08:22:18Z</time>
      </trkpt>
      <trkpt lat="42.415726" lon="-2.735214">
        <ele>498.131</ele>
        <time>2021-07-26T08:22:31Z</time>
      </trkpt>
      <trkpt lat="42.415726" lon="-2.735211">
        <ele>498.158</ele>
        <time>2021-07-26T08:22:41Z</time>
      </trkpt>
      <trkpt lat="42.415726" lon="-2.735204">
        <ele>497.656</ele>
        <time>2021-07-26T08:22:51Z</time>
      </trkpt>
      <trkpt lat="42.415742" lon="-2.735211">
        <ele>497.671</ele>
        <time>2021-07-26T08:22:58Z</time>
      </trkpt>
      <trkpt lat="42.415745" lon="-2.735213">
        <ele>497.641</ele>
        <time>2021-07-26T08:23:04Z</time>
      </trkpt>
      <trkpt lat="42.415733" lon="-2.735143">
        <ele>497.615</ele>
        <time>2021-07-26T08:23:08Z</time>
      </trkpt>
      <trkpt lat="42.415803" lon="-2.734909">
        <ele>496.108</ele>
        <time>2021-07-26T08:23:17Z</time>
      </trkpt>
      <trkpt lat="42.415853" lon="-2.734725">
        <ele>497.114</ele>
        <time>2021-07-26T08:23:25Z</time>
      </trkpt>
      <trkpt lat="42.415863" lon="-2.734685">
        <ele>496.626</ele>
        <time>2021-07-26T08:23:27Z</time>
      </trkpt>
      <trkpt lat="42.415937" lon="-2.734706">
        <ele>496.663</ele>
        <time>2021-07-26T08:23:33Z</time>
      </trkpt>
      <trkpt lat="42.416027" lon="-2.734874">
        <ele>496.673</ele>
        <time>2021-07-26T08:23:42Z</time>
      </trkpt>
      <trkpt lat="42.416073" lon="-2.734984">
        <ele>496.147</ele>
        <time>2021-07-26T08:23:49Z</time>
      </trkpt>
      <trkpt lat="42.416048" lon="-2.734956">
        <ele>492.315</ele>
        <time>2021-07-26T08:24:02Z</time>
      </trkpt>
      <trkpt lat="42.416031" lon="-2.735016">
        <ele>494.722</ele>
        <time>2021-07-26T08:24:12Z</time>
      </trkpt>
      <trkpt lat="42.416024" lon="-2.735130">
        <ele>495.210</ele>
        <time>2021-07-26T08:24:18Z</time>
      </trkpt>
      <trkpt lat="42.416057" lon="-2.735285">
        <ele>496.193</ele>
        <time>2021-07-26T08:24:26Z</time>
      </trkpt>
      <trkpt lat="42.416054" lon="-2.735332">
        <ele>497.165</ele>
        <time>2021-07-26T08:24:33Z</time>
      </trkpt>
      <trkpt lat="42.416039" lon="-2.735377">
        <ele>499.021</ele>
        <time>2021-07-26T08:24:46Z</time>
      </trkpt>
      <trkpt lat="42.416022" lon="-2.735388">
        <ele>499.008</ele>
        <time>2021-07-26T08:24:57Z</time>
      </trkpt>
      <trkpt lat="42.416009" lon="-2.735404">
        <ele>497.616</ele>
        <time>2021-07-26T08:25:08Z</time>
      </trkpt>
      <trkpt lat="42.416011" lon="-2.735408">
        <ele>497.688</ele>
        <time>2021-07-26T08:25:09Z</time>
      </trkpt>
      <trkpt lat="42.416074" lon="-2.735412">
        <ele>497.625</ele>
        <time>2021-07-26T08:25:15Z</time>
      </trkpt>
      <trkpt lat="42.416197" lon="-2.735368">
        <ele>496.685</ele>
        <time>2021-07-26T08:25:24Z</time>
      </trkpt>
      <trkpt lat="42.416373" lon="-2.735287">
        <ele>496.619</ele>
        <time>2021-07-26T08:25:32Z</time>
      </trkpt>
      <trkpt lat="42.416542" lon="-2.735253">
        <ele>497.657</ele>
        <time>2021-07-26T08:25:40Z</time>
      </trkpt>
      <trkpt lat="42.416615" lon="-2.735273">
        <ele>498.124</ele>
        <time>2021-07-26T08:25:45Z</time>
      </trkpt>
      <trkpt lat="42.416636" lon="-2.735207">
        <ele>498.192</ele>
        <time>2021-07-26T08:25:51Z</time>
      </trkpt>
      <trkpt lat="42.416632" lon="-2.735050">
        <ele>497.699</ele>
        <time>2021-07-26T08:25:58Z</time>
      </trkpt>
      <trkpt lat="42.416613" lon="-2.734897">
        <ele>498.107</ele>
        <time>2021-07-26T08:26:05Z</time>
      </trkpt>
      <trkpt lat="42.416596" lon="-2.734843">
        <ele>498.527</ele>
        <time>2021-07-26T08:26:08Z</time>
      </trkpt>
      <trkpt lat="42.416561" lon="-2.734757">
        <ele>501.408</ele>
        <time>2021-07-26T08:26:13Z</time>
      </trkpt>
      <trkpt lat="42.416612" lon="-2.734641">
        <ele>502.946</ele>
        <time>2021-07-26T08:26:17Z</time>
      </trkpt>
      <trkpt lat="42.416767" lon="-2.734603">
        <ele>504.318</ele>
        <time>2021-07-26T08:26:28Z</time>
      </trkpt>
      <trkpt lat="42.416881" lon="-2.734583">
        <ele>504.315</ele>
        <time>2021-07-26T08:26:35Z</time>
      </trkpt>
      <trkpt lat="42.416939" lon="-2.734648">
        <ele>504.855</ele>
        <time>2021-07-26T08:26:39Z</time>
      </trkpt>
      <trkpt lat="42.417010" lon="-2.734708">
        <ele>505.799</ele>
        <time>2021-07-26T08:26:43Z</time>
      </trkpt>
      <trkpt lat="42.417123" lon="-2.734703">
        <ele>508.697</ele>
        <time>2021-07-26T08:26:47Z</time>
      </trkpt>
      <trkpt lat="42.417246" lon="-2.734662">
        <ele>513.474</ele>
        <time>2021-07-26T08:26:53Z</time>
      </trkpt>
      <trkpt lat="42.417310" lon="-2.734664">
        <ele>508.612</ele>
        <time>2021-07-26T08:26:58Z</time>
      </trkpt>
      <trkpt lat="42.417336" lon="-2.734700">
        <ele>507.274</ele>
        <time>2021-07-26T08:27:00Z</time>
      </trkpt>
      <trkpt lat="42.417422" lon="-2.734693">
        <ele>506.756</ele>
        <time>2021-07-26T08:27:05Z</time>
      </trkpt>
      <trkpt lat="42.417516" lon="-2.734760">
        <ele>505.321</ele>
        <time>2021-07-26T08:27:11Z</time>
      </trkpt>
      <trkpt lat="42.417574" lon="-2.734808">
        <ele>505.308</ele>
        <time>2021-07-26T08:27:15Z</time>
      </trkpt>
      <trkpt lat="42.417632" lon="-2.734935">
        <ele>504.844</ele>
        <time>2021-07-26T08:27:22Z</time>
      </trkpt>
      <trkpt lat="42.417609" lon="-2.734954">
        <ele>504.326</ele>
        <time>2021-07-26T08:27:30Z</time>
      </trkpt>
      <trkpt lat="42.417607" lon="-2.734939">
        <ele>505.373</ele>
        <time>2021-07-26T08:27:49Z</time>
      </trkpt>
      <trkpt lat="42.417596" lon="-2.734912">
        <ele>505.383</ele>
        <time>2021-07-26T08:27:52Z</time>
      </trkpt>
      <trkpt lat="42.417596" lon="-2.734856">
        <ele>502.977</ele>
        <time>2021-07-26T08:27:59Z</time>
      </trkpt>
      <trkpt lat="42.417602" lon="-2.734861">
        <ele>502.965</ele>
        <time>2021-07-26T08:28:07Z</time>
      </trkpt>
      <trkpt lat="42.417592" lon="-2.734870">
        <ele>502.472</ele>
        <time>2021-07-26T08:28:14Z</time>
      </trkpt>
      <trkpt lat="42.417594" lon="-2.734880">
        <ele>502.450</ele>
        <time>2021-07-26T08:28:15Z</time>
      </trkpt>
      <trkpt lat="42.417613" lon="-2.734912">
        <ele>501.995</ele>
        <time>2021-07-26T08:28:18Z</time>
      </trkpt>
      <trkpt lat="42.417681" lon="-2.734932">
        <ele>499.049</ele>
        <time>2021-07-26T08:28:24Z</time>
      </trkpt>
      <trkpt lat="42.417712" lon="-2.734933">
        <ele>497.623</ele>
        <time>2021-07-26T08:28:26Z</time>
      </trkpt>
      <trkpt lat="42.417888" lon="-2.734872">
        <ele>491.808</ele>
        <time>2021-07-26T08:28:35Z</time>
      </trkpt>
      <trkpt lat="42.418055" lon="-2.734861">
        <ele>493.286</ele>
        <time>2021-07-26T08:28:43Z</time>
      </trkpt>
      <trkpt lat="42.418259" lon="-2.734790">
        <ele>497.688</ele>
        <time>2021-07-26T08:28:50Z</time>
      </trkpt>
      <trkpt lat="42.418281" lon="-2.734771">
        <ele>498.135</ele>
        <time>2021-07-26T08:28:51Z</time>
      </trkpt>
      <trkpt lat="42.418260" lon="-2.734648">
        <ele>497.685</ele>
        <time>2021-07-26T08:28:55Z</time>
      </trkpt>
      <trkpt lat="42.418177" lon="-2.734438">
        <ele>496.179</ele>
        <time>2021-07-26T08:29:01Z</time>
      </trkpt>
      <trkpt lat="42.418093" lon="-2.734228">
        <ele>495.717</ele>
        <time>2021-07-26T08:29:08Z</time>
      </trkpt>
      <trkpt lat="42.418143" lon="-2.734180">
        <ele>496.164</ele>
        <time>2021-07-26T08:29:14Z</time>
      </trkpt>
      <trkpt lat="42.418157" lon="-2.734177">
        <ele>496.182</ele>
        <time>2021-07-26T08:29:15Z</time>
      </trkpt>
      <trkpt lat="42.418214" lon="-2.734130">
        <ele>496.691</ele>
        <time>2021-07-26T08:29:22Z</time>
      </trkpt>
      <trkpt lat="42.418185" lon="-2.733965">
        <ele>497.181</ele>
        <time>2021-07-26T08:29:28Z</time>
      </trkpt>
      <trkpt lat="42.418109" lon="-2.733856">
        <ele>496.119</ele>
        <time>2021-07-26T08:29:33Z</time>
      </trkpt>
      <trkpt lat="42.418021" lon="-2.733790">
        <ele>500.008</ele>
        <time>2021-07-26T08:29:42Z</time>
      </trkpt>
      <trkpt lat="42.418045" lon="-2.733696">
        <ele>500.566</ele>
        <time>2021-07-26T08:29:47Z</time>
      </trkpt>
      <trkpt lat="42.418040" lon="-2.733556">
        <ele>500.588</ele>
        <time>2021-07-26T08:29:53Z</time>
      </trkpt>
      <trkpt lat="42.417969" lon="-2.733413">
        <ele>500.955</ele>
        <time>2021-07-26T08:30:00Z</time>
      </trkpt>
      <trkpt lat="42.417924" lon="-2.733332">
        <ele>502.965</ele>
        <time>2021-07-26T08:30:05Z</time>
      </trkpt>
      <trkpt lat="42.417894" lon="-2.733329">
        <ele>503.839</ele>
        <time>2021-07-26T08:30:06Z</time>
      </trkpt>
      <trkpt lat="42.417876" lon="-2.733328">
        <ele>504.397</ele>
        <time>2021-07-26T08:30:07Z</time>
      </trkpt>
      <trkpt lat="42.417854" lon="-2.733328">
        <ele>504.854</ele>
        <time>2021-07-26T08:30:08Z</time>
      </trkpt>
      <trkpt lat="42.417833" lon="-2.733327">
        <ele>505.392</ele>
        <time>2021-07-26T08:30:09Z</time>
      </trkpt>
      <trkpt lat="42.417813" lon="-2.733328">
        <ele>505.758</ele>
        <time>2021-07-26T08:30:10Z</time>
      </trkpt>
      <trkpt lat="42.417794" lon="-2.733328">
        <ele>506.252</ele>
        <time>2021-07-26T08:30:11Z</time>
      </trkpt>
      <trkpt lat="42.417734" lon="-2.733325">
        <ele>507.217</ele>
        <time>2021-07-26T08:30:17Z</time>
      </trkpt>
      <trkpt lat="42.417612" lon="-2.733226">
        <ele>509.108</ele>
        <time>2021-07-26T08:30:24Z</time>
      </trkpt>
      <trkpt lat="42.417553" lon="-2.733069">
        <ele>505.732</ele>
        <time>2021-07-26T08:30:32Z</time>
      </trkpt>
      <trkpt lat="42.417538" lon="-2.732891">
        <ele>504.324</ele>
        <time>2021-07-26T08:30:41Z</time>
      </trkpt>
      <trkpt lat="42.417511" lon="-2.732716">
        <ele>501.951</ele>
        <time>2021-07-26T08:30:49Z</time>
      </trkpt>
      <trkpt lat="42.417456" lon="-2.732443">
        <ele>498.591</ele>
        <time>2021-07-26T08:31:00Z</time>
      </trkpt>
      <trkpt lat="42.417423" lon="-2.732245">
        <ele>496.125</ele>
        <time>2021-07-26T08:31:09Z</time>
      </trkpt>
      <trkpt lat="42.417425" lon="-2.732175">
        <ele>495.743</ele>
        <time>2021-07-26T08:31:15Z</time>
      </trkpt>
      <trkpt lat="42.417417" lon="-2.732182">
        <ele>495.270</ele>
        <time>2021-07-26T08:31:28Z</time>
      </trkpt>
      <trkpt lat="42.417427" lon="-2.732159">
        <ele>494.228</ele>
        <time>2021-07-26T08:31:40Z</time>
      </trkpt>
      <trkpt lat="42.417423" lon="-2.732162">
        <ele>491.385</ele>
        <time>2021-07-26T08:32:00Z</time>
      </trkpt>
      <trkpt lat="42.417439" lon="-2.732151">
        <ele>492.389</ele>
        <time>2021-07-26T08:32:18Z</time>
      </trkpt>
      <trkpt lat="42.417443" lon="-2.732148">
        <ele>494.217</ele>
        <time>2021-07-26T08:32:36Z</time>
      </trkpt>
      <trkpt lat="42.417422" lon="-2.732169">
        <ele>494.208</ele>
        <time>2021-07-26T08:32:50Z</time>
      </trkpt>
      <trkpt lat="42.417418" lon="-2.732183">
        <ele>491.365</ele>
        <time>2021-07-26T08:33:08Z</time>
      </trkpt>
      <trkpt lat="42.417431" lon="-2.732183">
        <ele>491.857</ele>
        <time>2021-07-26T08:33:24Z</time>
      </trkpt>
      <trkpt lat="42.417417" lon="-2.732155">
        <ele>491.814</ele>
        <time>2021-07-26T08:33:31Z</time>
      </trkpt>
      <trkpt lat="42.417413" lon="-2.732141">
        <ele>491.894</ele>
        <time>2021-07-26T08:33:32Z</time>
      </trkpt>
      <trkpt lat="42.417403" lon="-2.732075">
        <ele>492.338</ele>
        <time>2021-07-26T08:33:36Z</time>
      </trkpt>
      <trkpt lat="42.417418" lon="-2.732042">
        <ele>491.886</ele>
        <time>2021-07-26T08:33:39Z</time>
      </trkpt>
      <trkpt lat="42.417424" lon="-2.732013">
        <ele>492.313</ele>
        <time>2021-07-26T08:33:41Z</time>
      </trkpt>
      <trkpt lat="42.417372" lon="-2.731924">
        <ele>489.421</ele>
        <time>2021-07-26T08:33:48Z</time>
      </trkpt>
      <trkpt lat="42.417364" lon="-2.731898">
        <ele>488.966</ele>
        <time>2021-07-26T08:33:50Z</time>
      </trkpt>
      <trkpt lat="42.417364" lon="-2.731881">
        <ele>488.429</ele>
        <time>2021-07-26T08:33:51Z</time>
      </trkpt>
      <trkpt lat="42.417358" lon="-2.731769">
        <ele>485.621</ele>
        <time>2021-07-26T08:33:57Z</time>
      </trkpt>
      <trkpt lat="42.417348" lon="-2.731757">
        <ele>485.608</ele>
        <time>2021-07-26T08:33:58Z</time>
      </trkpt>
      <trkpt lat="42.417334" lon="-2.731750">
        <ele>485.143</ele>
        <time>2021-07-26T08:33:59Z</time>
      </trkpt>
      <trkpt lat="42.417319" lon="-2.731746">
        <ele>485.185</ele>
        <time>2021-07-26T08:34:00Z</time>
      </trkpt>
      <trkpt lat="42.417297" lon="-2.731745">
        <ele>485.142</ele>
        <time>2021-07-26T08:34:01Z</time>
      </trkpt>
      <trkpt lat="42.417281" lon="-2.731742">
        <ele>485.662</ele>
        <time>2021-07-26T08:34:02Z</time>
      </trkpt>
      <trkpt lat="42.417263" lon="-2.731734">
        <ele>485.676</ele>
        <time>2021-07-26T08:34:03Z</time>
      </trkpt>
      <trkpt lat="42.417248" lon="-2.731726">
        <ele>485.664</ele>
        <time>2021-07-26T08:34:04Z</time>
      </trkpt>
      <trkpt lat="42.417129" lon="-2.731599">
        <ele>488.441</ele>
        <time>2021-07-26T08:34:14Z</time>
      </trkpt>
      <trkpt lat="42.417035" lon="-2.731452">
        <ele>492.319</ele>
        <time>2021-07-26T08:34:24Z</time>
      </trkpt>
      <trkpt lat="42.416964" lon="-2.731309">
        <ele>494.231</ele>
        <time>2021-07-26T08:34:33Z</time>
      </trkpt>
      <trkpt lat="42.416943" lon="-2.731172">
        <ele>494.261</ele>
        <time>2021-07-26T08:34:40Z</time>
      </trkpt>
      <trkpt lat="42.416939" lon="-2.731098">
        <ele>492.807</ele>
        <time>2021-07-26T08:34:47Z</time>
      </trkpt>
      <trkpt lat="42.416950" lon="-2.731016">
        <ele>489.408</ele>
        <time>2021-07-26T08:34:56Z</time>
      </trkpt>
      <trkpt lat="42.416941" lon="-2.730990">
        <ele>488.070</ele>
        <time>2021-07-26T08:35:06Z</time>
      </trkpt>
      <trkpt lat="42.416967" lon="-2.730839">
        <ele>487.092</ele>
        <time>2021-07-26T08:35:15Z</time>
      </trkpt>
      <trkpt lat="42.417005" lon="-2.730685">
        <ele>487.069</ele>
        <time>2021-07-26T08:35:23Z</time>
      </trkpt>
      <trkpt lat="42.417031" lon="-2.730592">
        <ele>487.089</ele>
        <time>2021-07-26T08:35:29Z</time>
      </trkpt>
      <trkpt lat="42.417048" lon="-2.730544">
        <ele>486.523</ele>
        <time>2021-07-26T08:35:32Z</time>
      </trkpt>
      <trkpt lat="42.417101" lon="-2.730468">
        <ele>484.171</ele>
        <time>2021-07-26T08:35:38Z</time>
      </trkpt>
      <trkpt lat="42.417123" lon="-2.730419">
        <ele>481.778</ele>
        <time>2021-07-26T08:35:42Z</time>
      </trkpt>
      <trkpt lat="42.417126" lon="-2.730404">
        <ele>481.276</ele>
        <time>2021-07-26T08:35:43Z</time>
      </trkpt>
      <trkpt lat="42.417137" lon="-2.730381">
        <ele>480.347</ele>
        <time>2021-07-26T08:35:44Z</time>
      </trkpt>
      <trkpt lat="42.417140" lon="-2.730371">
        <ele>480.329</ele>
        <time>2021-07-26T08:35:45Z</time>
      </trkpt>
      <trkpt lat="42.417142" lon="-2.730350">
        <ele>479.821</ele>
        <time>2021-07-26T08:35:46Z</time>
      </trkpt>
      <trkpt lat="42.417180" lon="-2.730197">
        <ele>477.408</ele>
        <time>2021-07-26T08:35:54Z</time>
      </trkpt>
      <trkpt lat="42.417313" lon="-2.730063">
        <ele>479.821</ele>
        <time>2021-07-26T08:36:05Z</time>
      </trkpt>
      <trkpt lat="42.417305" lon="-2.729978">
        <ele>485.643</ele>
        <time>2021-07-26T08:36:11Z</time>
      </trkpt>
      <trkpt lat="42.417321" lon="-2.729945">
        <ele>487.050</ele>
        <time>2021-07-26T08:36:13Z</time>
      </trkpt>
      <trkpt lat="42.417336" lon="-2.729920">
        <ele>487.540</ele>
        <time>2021-07-26T08:36:15Z</time>
      </trkpt>
      <trkpt lat="42.417441" lon="-2.729719">
        <ele>489.924</ele>
        <time>2021-07-26T08:36:22Z</time>
      </trkpt>
      <trkpt lat="42.417452" lon="-2.729671">
        <ele>490.842</ele>
        <time>2021-07-26T08:36:24Z</time>
      </trkpt>
      <trkpt lat="42.417457" lon="-2.729646">
        <ele>490.499</ele>
        <time>2021-07-26T08:36:26Z</time>
      </trkpt>
      <trkpt lat="42.417462" lon="-2.729633">
        <ele>490.447</ele>
        <time>2021-07-26T08:36:27Z</time>
      </trkpt>
      <trkpt lat="42.417462" lon="-2.729619">
        <ele>490.833</ele>
        <time>2021-07-26T08:36:28Z</time>
      </trkpt>
      <trkpt lat="42.417446" lon="-2.729600">
        <ele>489.423</ele>
        <time>2021-07-26T08:36:33Z</time>
      </trkpt>
      <trkpt lat="42.417438" lon="-2.729581">
        <ele>488.015</ele>
        <time>2021-07-26T08:36:42Z</time>
      </trkpt>
      <trkpt lat="42.417428" lon="-2.729580">
        <ele>487.508</ele>
        <time>2021-07-26T08:36:52Z</time>
      </trkpt>
      <trkpt lat="42.417415" lon="-2.729571">
        <ele>487.580</ele>
        <time>2021-07-26T08:36:53Z</time>
      </trkpt>
      <trkpt lat="42.417319" lon="-2.729510">
        <ele>487.562</ele>
        <time>2021-07-26T08:37:00Z</time>
      </trkpt>
      <trkpt lat="42.417299" lon="-2.729469">
        <ele>487.569</ele>
        <time>2021-07-26T08:37:05Z</time>
      </trkpt>
      <trkpt lat="42.417319" lon="-2.729416">
        <ele>488.029</ele>
        <time>2021-07-26T08:37:13Z</time>
      </trkpt>
      <trkpt lat="42.417351" lon="-2.729397">
        <ele>488.493</ele>
        <time>2021-07-26T08:37:26Z</time>
      </trkpt>
      <trkpt lat="42.417341" lon="-2.729402">
        <ele>489.991</ele>
        <time>2021-07-26T08:37:34Z</time>
      </trkpt>
      <trkpt lat="42.417343" lon="-2.729399">
        <ele>489.918</ele>
        <time>2021-07-26T08:37:45Z</time>
      </trkpt>
      <trkpt lat="42.417419" lon="-2.729394">
        <ele>495.766</ele>
        <time>2021-07-26T08:38:02Z</time>
      </trkpt>
      <trkpt lat="42.417468" lon="-2.729407">
        <ele>502.978</ele>
        <time>2021-07-26T08:38:19Z</time>
      </trkpt>
      <trkpt lat="42.417515" lon="-2.729413">
        <ele>506.233</ele>
        <time>2021-07-26T08:38:35Z</time>
      </trkpt>
      <trkpt lat="42.417521" lon="-2.729401">
        <ele>505.726</ele>
        <time>2021-07-26T08:38:48Z</time>
      </trkpt>
      <trkpt lat="42.417490" lon="-2.729392">
        <ele>502.408</ele>
        <time>2021-07-26T08:39:03Z</time>
      </trkpt>
      <trkpt lat="42.417444" lon="-2.729387">
        <ele>500.514</ele>
        <time>2021-07-26T08:39:24Z</time>
      </trkpt>
      <trkpt lat="42.417459" lon="-2.729383">
        <ele>501.416</ele>
        <time>2021-07-26T08:39:39Z</time>
      </trkpt>
      <trkpt lat="42.417472" lon="-2.729354">
        <ele>501.923</ele>
        <time>2021-07-26T08:39:58Z</time>
      </trkpt>
      <trkpt lat="42.417477" lon="-2.729349">
        <ele>500.523</ele>
        <time>2021-07-26T08:40:08Z</time>
      </trkpt>
      <trkpt lat="42.417473" lon="-2.729385">
        <ele>502.487</ele>
        <time>2021-07-26T08:40:23Z</time>
      </trkpt>
      <trkpt lat="42.417451" lon="-2.729411">
        <ele>505.385</ele>
        <time>2021-07-26T08:40:40Z</time>
      </trkpt>
      <trkpt lat="42.417437" lon="-2.729439">
        <ele>504.332</ele>
        <time>2021-07-26T08:40:53Z</time>
      </trkpt>
      <trkpt lat="42.417450" lon="-2.729454">
        <ele>504.860</ele>
        <time>2021-07-26T08:41:09Z</time>
      </trkpt>
      <trkpt lat="42.417454" lon="-2.729480">
        <ele>505.788</ele>
        <time>2021-07-26T08:41:24Z</time>
      </trkpt>
      <trkpt lat="42.417449" lon="-2.729477">
        <ele>508.124</ele>
        <time>2021-07-26T08:41:38Z</time>
      </trkpt>
      <trkpt lat="42.417467" lon="-2.729453">
        <ele>509.626</ele>
        <time>2021-07-26T08:41:56Z</time>
      </trkpt>
      <trkpt lat="42.417456" lon="-2.729459">
        <ele>511.508</ele>
        <time>2021-07-26T08:42:06Z</time>
      </trkpt>
      <trkpt lat="42.417426" lon="-2.729462">
        <ele>515.495</ele>
        <time>2021-07-26T08:42:24Z</time>
      </trkpt>
      <trkpt lat="42.417428" lon="-2.729487">
        <ele>513.047</ele>
        <time>2021-07-26T08:42:45Z</time>
      </trkpt>
      <trkpt lat="42.417419" lon="-2.729514">
        <ele>510.664</ele>
        <time>2021-07-26T08:43:04Z</time>
      </trkpt>
      <trkpt lat="42.417405" lon="-2.729538">
        <ele>509.634</ele>
        <time>2021-07-26T08:43:21Z</time>
      </trkpt>
      <trkpt lat="42.417391" lon="-2.729544">
        <ele>510.628</ele>
        <time>2021-07-26T08:43:37Z</time>
      </trkpt>
      <trkpt lat="42.417421" lon="-2.729562">
        <ele>512.576</ele>
        <time>2021-07-26T08:43:51Z</time>
      </trkpt>
      <trkpt lat="42.417409" lon="-2.729573">
        <ele>513.083</ele>
        <time>2021-07-26T08:44:04Z</time>
      </trkpt>
      <trkpt lat="42.417413" lon="-2.729565">
        <ele>512.541</ele>
        <time>2021-07-26T08:44:17Z</time>
      </trkpt>
      <trkpt lat="42.417430" lon="-2.729575">
        <ele>513.088</ele>
        <time>2021-07-26T08:44:30Z</time>
      </trkpt>
      <trkpt lat="42.417437" lon="-2.729582">
        <ele>513.424</ele>
        <time>2021-07-26T08:44:42Z</time>
      </trkpt>
      <trkpt lat="42.417448" lon="-2.729582">
        <ele>513.926</ele>
        <time>2021-07-26T08:44:48Z</time>
      </trkpt>
      <trkpt lat="42.417446" lon="-2.729579">
        <ele>514.908</ele>
        <time>2021-07-26T08:44:58Z</time>
      </trkpt>
      <trkpt lat="42.417430" lon="-2.729565">
        <ele>515.485</ele>
        <time>2021-07-26T08:45:06Z</time>
      </trkpt>
      <trkpt lat="42.417498" lon="-2.729547">
        <ele>513.917</ele>
        <time>2021-07-26T08:45:12Z</time>
      </trkpt>
      <trkpt lat="42.417519" lon="-2.729568">
        <ele>512.514</ele>
        <time>2021-07-26T08:45:18Z</time>
      </trkpt>
      <trkpt lat="42.417526" lon="-2.729584">
        <ele>511.084</ele>
        <time>2021-07-26T08:45:21Z</time>
      </trkpt>
      <trkpt lat="42.417568" lon="-2.729525">
        <ele>510.138</ele>
        <time>2021-07-26T08:45:25Z</time>
      </trkpt>
      <trkpt lat="42.417648" lon="-2.729312">
        <ele>509.176</ele>
        <time>2021-07-26T08:45:32Z</time>
      </trkpt>
      <trkpt lat="42.417749" lon="-2.729009">
        <ele>508.133</ele>
        <time>2021-07-26T08:45:41Z</time>
      </trkpt>
      <trkpt lat="42.417853" lon="-2.728750">
        <ele>509.671</ele>
        <time>2021-07-26T08:45:50Z</time>
      </trkpt>
      <trkpt lat="42.417929" lon="-2.728499">
        <ele>512.032</ele>
        <time>2021-07-26T08:45:59Z</time>
      </trkpt>
      <trkpt lat="42.417994" lon="-2.728249">
        <ele>511.592</ele>
        <time>2021-07-26T08:46:08Z</time>
      </trkpt>
      <trkpt lat="42.418051" lon="-2.727997">
        <ele>511.511</ele>
        <time>2021-07-26T08:46:18Z</time>
      </trkpt>
      <trkpt lat="42.418099" lon="-2.727759">
        <ele>515.408</ele>
        <time>2021-07-26T08:46:27Z</time>
      </trkpt>
      <trkpt lat="42.418161" lon="-2.727496">
        <ele>518.740</ele>
        <time>2021-07-26T08:46:37Z</time>
      </trkpt>
      <trkpt lat="42.418191" lon="-2.727342">
        <ele>520.222</ele>
        <time>2021-07-26T08:46:44Z</time>
      </trkpt>
      <trkpt lat="42.418211" lon="-2.727135">
        <ele>520.669</ele>
        <time>2021-07-26T08:46:51Z</time>
      </trkpt>
      <trkpt lat="42.418294" lon="-2.726839">
        <ele>519.719</ele>
        <time>2021-07-26T08:47:00Z</time>
      </trkpt>
      <trkpt lat="42.418343" lon="-2.726545">
        <ele>521.673</ele>
        <time>2021-07-26T08:47:08Z</time>
      </trkpt>
      <trkpt lat="42.418408" lon="-2.726194">
        <ele>522.661</ele>
        <time>2021-07-26T08:47:16Z</time>
      </trkpt>
      <trkpt lat="42.418453" lon="-2.725725">
        <ele>522.628</ele>
        <time>2021-07-26T08:47:27Z</time>
      </trkpt>
      <trkpt lat="42.418424" lon="-2.725620">
        <ele>521.116</ele>
        <time>2021-07-26T08:47:33Z</time>
      </trkpt>
      <trkpt lat="42.418383" lon="-2.725472">
        <ele>520.298</ele>
        <time>2021-07-26T08:47:36Z</time>
      </trkpt>
      <trkpt lat="42.418381" lon="-2.725416">
        <ele>520.215</ele>
        <time>2021-07-26T08:47:37Z</time>
      </trkpt>
      <trkpt lat="42.418385" lon="-2.725360">
        <ele>520.226</ele>
        <time>2021-07-26T08:47:38Z</time>
      </trkpt>
      <trkpt lat="42.418387" lon="-2.725306">
        <ele>520.208</ele>
        <time>2021-07-26T08:47:39Z</time>
      </trkpt>
      <trkpt lat="42.418352" lon="-2.725148">
        <ele>520.256</ele>
        <time>2021-07-26T08:47:42Z</time>
      </trkpt>
      <trkpt lat="42.418215" lon="-2.724643">
        <ele>518.278</ele>
        <time>2021-07-26T08:47:52Z</time>
      </trkpt>
      <trkpt lat="42.418072" lon="-2.724177">
        <ele>518.215</ele>
        <time>2021-07-26T08:48:02Z</time>
      </trkpt>
      <trkpt lat="42.417917" lon="-2.723660">
        <ele>518.715</ele>
        <time>2021-07-26T08:48:12Z</time>
      </trkpt>
      <trkpt lat="42.417810" lon="-2.723303">
        <ele>517.819</ele>
        <time>2021-07-26T08:48:20Z</time>
      </trkpt>
      <trkpt lat="42.417646" lon="-2.722714">
        <ele>515.867</ele>
        <time>2021-07-26T08:48:32Z</time>
      </trkpt>
      <trkpt lat="42.417473" lon="-2.722150">
        <ele>514.454</ele>
        <time>2021-07-26T08:48:43Z</time>
      </trkpt>
      <trkpt lat="42.417375" lon="-2.721802">
        <ele>514.452</ele>
        <time>2021-07-26T08:48:50Z</time>
      </trkpt>
      <trkpt lat="42.417248" lon="-2.721382">
        <ele>513.975</ele>
        <time>2021-07-26T08:48:59Z</time>
      </trkpt>
      <trkpt lat="42.417081" lon="-2.720842">
        <ele>515.428</ele>
        <time>2021-07-26T08:49:11Z</time>
      </trkpt>
      <trkpt lat="42.416946" lon="-2.720370">
        <ele>516.820</ele>
        <time>2021-07-26T08:49:21Z</time>
      </trkpt>
      <trkpt lat="42.416760" lon="-2.719742">
        <ele>517.808</ele>
        <time>2021-07-26T08:49:34Z</time>
      </trkpt>
      <trkpt lat="42.416616" lon="-2.719274">
        <ele>519.284</ele>
        <time>2021-07-26T08:49:44Z</time>
      </trkpt>
      <trkpt lat="42.416471" lon="-2.718788">
        <ele>519.746</ele>
        <time>2021-07-26T08:49:55Z</time>
      </trkpt>
      <trkpt lat="42.416342" lon="-2.718322">
        <ele>520.283</ele>
        <time>2021-07-26T08:50:05Z</time>
      </trkpt>
      <trkpt lat="42.416193" lon="-2.717809">
        <ele>521.173</ele>
        <time>2021-07-26T08:50:16Z</time>
      </trkpt>
      <trkpt lat="42.416072" lon="-2.717383">
        <ele>522.187</ele>
        <time>2021-07-26T08:50:25Z</time>
      </trkpt>
      <trkpt lat="42.415892" lon="-2.716738">
        <ele>523.075</ele>
        <time>2021-07-26T08:50:39Z</time>
      </trkpt>
      <trkpt lat="42.415737" lon="-2.716176">
        <ele>524.062</ele>
        <time>2021-07-26T08:50:51Z</time>
      </trkpt>
      <trkpt lat="42.415586" lon="-2.715666">
        <ele>526.420</ele>
        <time>2021-07-26T08:51:02Z</time>
      </trkpt>
      <trkpt lat="42.415464" lon="-2.715182">
        <ele>527.463</ele>
        <time>2021-07-26T08:51:12Z</time>
      </trkpt>
      <trkpt lat="42.415357" lon="-2.714804">
        <ele>528.344</ele>
        <time>2021-07-26T08:51:20Z</time>
      </trkpt>
      <trkpt lat="42.415227" lon="-2.714355">
        <ele>529.318</ele>
        <time>2021-07-26T08:51:30Z</time>
      </trkpt>
      <trkpt lat="42.415096" lon="-2.713891">
        <ele>529.808</ele>
        <time>2021-07-26T08:51:40Z</time>
      </trkpt>
      <trkpt lat="42.414935" lon="-2.713334">
        <ele>530.723</ele>
        <time>2021-07-26T08:51:52Z</time>
      </trkpt>
      <trkpt lat="42.414775" lon="-2.712741">
        <ele>531.295</ele>
        <time>2021-07-26T08:52:05Z</time>
      </trkpt>
      <trkpt lat="42.414697" lon="-2.712513">
        <ele>531.772</ele>
        <time>2021-07-26T08:52:12Z</time>
      </trkpt>
      <trkpt lat="42.414694" lon="-2.712518">
        <ele>532.292</ele>
        <time>2021-07-26T08:52:20Z</time>
      </trkpt>
      <trkpt lat="42.414677" lon="-2.712525">
        <ele>534.616</ele>
        <time>2021-07-26T08:52:34Z</time>
      </trkpt>
      <trkpt lat="42.414682" lon="-2.712492">
        <ele>534.114</ele>
        <time>2021-07-26T08:52:42Z</time>
      </trkpt>
      <trkpt lat="42.414674" lon="-2.712464">
        <ele>534.171</ele>
        <time>2021-07-26T08:52:43Z</time>
      </trkpt>
      <trkpt lat="42.414595" lon="-2.712149">
        <ele>534.659</ele>
        <time>2021-07-26T08:52:51Z</time>
      </trkpt>
      <trkpt lat="42.414470" lon="-2.711703">
        <ele>535.539</ele>
        <time>2021-07-26T08:53:01Z</time>
      </trkpt>
      <trkpt lat="42.414375" lon="-2.711287">
        <ele>536.001</ele>
        <time>2021-07-26T08:53:10Z</time>
      </trkpt>
      <trkpt lat="42.414235" lon="-2.710865">
        <ele>537.021</ele>
        <time>2021-07-26T08:53:19Z</time>
      </trkpt>
      <trkpt lat="42.414072" lon="-2.710354">
        <ele>537.508</ele>
        <time>2021-07-26T08:53:30Z</time>
      </trkpt>
      <trkpt lat="42.413938" lon="-2.709909">
        <ele>537.920</ele>
        <time>2021-07-26T08:53:40Z</time>
      </trkpt>
      <trkpt lat="42.413796" lon="-2.709393">
        <ele>538.452</ele>
        <time>2021-07-26T08:53:51Z</time>
      </trkpt>
      <trkpt lat="42.413621" lon="-2.708749">
        <ele>539.929</ele>
        <time>2021-07-26T08:54:04Z</time>
      </trkpt>
      <trkpt lat="42.413467" lon="-2.708230">
        <ele>541.849</ele>
        <time>2021-07-26T08:54:15Z</time>
      </trkpt>
      <trkpt lat="42.413345" lon="-2.707808">
        <ele>543.293</ele>
        <time>2021-07-26T08:54:24Z</time>
      </trkpt>
      <trkpt lat="42.413201" lon="-2.707292">
        <ele>544.751</ele>
        <time>2021-07-26T08:54:35Z</time>
      </trkpt>
      <trkpt lat="42.413076" lon="-2.706861">
        <ele>545.268</ele>
        <time>2021-07-26T08:54:44Z</time>
      </trkpt>
      <trkpt lat="42.412932" lon="-2.706341">
        <ele>545.256</ele>
        <time>2021-07-26T08:54:55Z</time>
      </trkpt>
      <trkpt lat="42.412776" lon="-2.705820">
        <ele>546.684</ele>
        <time>2021-07-26T08:55:06Z</time>
      </trkpt>
      <trkpt lat="42.412687" lon="-2.705394">
        <ele>548.007</ele>
        <time>2021-07-26T08:55:15Z</time>
      </trkpt>
      <trkpt lat="42.412555" lon="-2.705181">
        <ele>548.517</ele>
        <time>2021-07-26T08:55:21Z</time>
      </trkpt>
      <trkpt lat="42.412388" lon="-2.704918">
        <ele>548.508</ele>
        <time>2021-07-26T08:55:28Z</time>
      </trkpt>
      <trkpt lat="42.412365" lon="-2.704552">
        <ele>548.575</ele>
        <time>2021-07-26T08:55:35Z</time>
      </trkpt>
      <trkpt lat="42.412267" lon="-2.704157">
        <ele>549.077</ele>
        <time>2021-07-26T08:55:43Z</time>
      </trkpt>
      <trkpt lat="42.412163" lon="-2.703779">
        <ele>550.074</ele>
        <time>2021-07-26T08:55:51Z</time>
      </trkpt>
      <trkpt lat="42.412053" lon="-2.703345">
        <ele>551.444</ele>
        <time>2021-07-26T08:56:00Z</time>
      </trkpt>
      <trkpt lat="42.411924" lon="-2.702873">
        <ele>552.488</ele>
        <time>2021-07-26T08:56:10Z</time>
      </trkpt>
      <trkpt lat="42.411797" lon="-2.702401">
        <ele>553.356</ele>
        <time>2021-07-26T08:56:20Z</time>
      </trkpt>
      <trkpt lat="42.411637" lon="-2.701852">
        <ele>553.833</ele>
        <time>2021-07-26T08:56:32Z</time>
      </trkpt>
      <trkpt lat="42.411544" lon="-2.701536">
        <ele>554.331</ele>
        <time>2021-07-26T08:56:39Z</time>
      </trkpt>
      <trkpt lat="42.411415" lon="-2.701076">
        <ele>554.843</ele>
        <time>2021-07-26T08:56:49Z</time>
      </trkpt>
      <trkpt lat="42.411273" lon="-2.700618">
        <ele>556.264</ele>
        <time>2021-07-26T08:56:59Z</time>
      </trkpt>
      <trkpt lat="42.411100" lon="-2.700023">
        <ele>557.710</ele>
        <time>2021-07-26T08:57:11Z</time>
      </trkpt>
      <trkpt lat="42.410960" lon="-2.699537">
        <ele>558.608</ele>
        <time>2021-07-26T08:57:21Z</time>
      </trkpt>
      <trkpt lat="42.410806" lon="-2.698994">
        <ele>560.171</ele>
        <time>2021-07-26T08:57:32Z</time>
      </trkpt>
      <trkpt lat="42.410654" lon="-2.698474">
        <ele>560.573</ele>
        <time>2021-07-26T08:57:43Z</time>
      </trkpt>
      <trkpt lat="42.410516" lon="-2.697937">
        <ele>561.020</ele>
        <time>2021-07-26T08:57:54Z</time>
      </trkpt>
      <trkpt lat="42.410375" lon="-2.697444">
        <ele>562.050</ele>
        <time>2021-07-26T08:58:05Z</time>
      </trkpt>
      <trkpt lat="42.410259" lon="-2.697035">
        <ele>562.934</ele>
        <time>2021-07-26T08:58:14Z</time>
      </trkpt>
      <trkpt lat="42.410114" lon="-2.696535">
        <ele>563.982</ele>
        <time>2021-07-26T08:58:24Z</time>
      </trkpt>
      <trkpt lat="42.409961" lon="-2.695979">
        <ele>565.889</ele>
        <time>2021-07-26T08:58:35Z</time>
      </trkpt>
      <trkpt lat="42.409856" lon="-2.695587">
        <ele>567.347</ele>
        <time>2021-07-26T08:58:43Z</time>
      </trkpt>
      <trkpt lat="42.409708" lon="-2.695078">
        <ele>567.838</ele>
        <time>2021-07-26T08:58:53Z</time>
      </trkpt>
      <trkpt lat="42.409599" lon="-2.694702">
        <ele>568.270</ele>
        <time>2021-07-26T08:59:01Z</time>
      </trkpt>
      <trkpt lat="42.409480" lon="-2.694241">
        <ele>568.717</ele>
        <time>2021-07-26T08:59:10Z</time>
      </trkpt>
      <trkpt lat="42.409348" lon="-2.693640">
        <ele>568.708</ele>
        <time>2021-07-26T08:59:21Z</time>
      </trkpt>
      <trkpt lat="42.409263" lon="-2.693120">
        <ele>567.820</ele>
        <time>2021-07-26T08:59:30Z</time>
      </trkpt>
      <trkpt lat="42.409183" lon="-2.692540">
        <ele>566.342</ele>
        <time>2021-07-26T08:59:40Z</time>
      </trkpt>
      <trkpt lat="42.409129" lon="-2.691804">
        <ele>565.849</ele>
        <time>2021-07-26T08:59:53Z</time>
      </trkpt>
      <trkpt lat="42.409102" lon="-2.691227">
        <ele>565.349</ele>
        <time>2021-07-26T09:00:02Z</time>
      </trkpt>
      <trkpt lat="42.409104" lon="-2.690555">
        <ele>565.373</ele>
        <time>2021-07-26T09:00:13Z</time>
      </trkpt>
      <trkpt lat="42.409132" lon="-2.690088">
        <ele>565.361</ele>
        <time>2021-07-26T09:00:21Z</time>
      </trkpt>
      <trkpt lat="42.409186" lon="-2.689537">
        <ele>565.368</ele>
        <time>2021-07-26T09:00:30Z</time>
      </trkpt>
      <trkpt lat="42.409311" lon="-2.688846">
        <ele>564.486</ele>
        <time>2021-07-26T09:00:41Z</time>
      </trkpt>
      <trkpt lat="42.409363" lon="-2.688596">
        <ele>563.929</ele>
        <time>2021-07-26T09:00:45Z</time>
      </trkpt>
      <trkpt lat="42.409374" lon="-2.688535">
        <ele>563.900</ele>
        <time>2021-07-26T09:00:46Z</time>
      </trkpt>
      <trkpt lat="42.409473" lon="-2.688000">
        <ele>563.920</ele>
        <time>2021-07-26T09:00:55Z</time>
      </trkpt>
      <trkpt lat="42.409608" lon="-2.687318">
        <ele>563.408</ele>
        <time>2021-07-26T09:01:06Z</time>
      </trkpt>
      <trkpt lat="42.409734" lon="-2.686692">
        <ele>562.969</ele>
        <time>2021-07-26T09:01:16Z</time>
      </trkpt>
      <trkpt lat="42.409892" lon="-2.685932">
        <ele>562.921</ele>
        <time>2021-07-26T09:01:28Z</time>
      </trkpt>
      <trkpt lat="42.410045" lon="-2.685182">
        <ele>563.448</ele>
        <time>2021-07-26T09:01:40Z</time>
      </trkpt>
      <trkpt lat="42.410197" lon="-2.684438">
        <ele>563.428</ele>
        <time>2021-07-26T09:01:52Z</time>
      </trkpt>
      <trkpt lat="42.410339" lon="-2.683743">
        <ele>562.982</ele>
        <time>2021-07-26T09:02:04Z</time>
      </trkpt>
      <trkpt lat="42.410460" lon="-2.683136">
        <ele>562.920</ele>
        <time>2021-07-26T09:02:14Z</time>
      </trkpt>
      <trkpt lat="42.410579" lon="-2.682543">
        <ele>562.997</ele>
        <time>2021-07-26T09:02:24Z</time>
      </trkpt>
      <trkpt lat="42.410702" lon="-2.681922">
        <ele>563.975</ele>
        <time>2021-07-26T09:02:35Z</time>
      </trkpt>
      <trkpt lat="42.410861" lon="-2.681174">
        <ele>564.413</ele>
        <time>2021-07-26T09:02:48Z</time>
      </trkpt>
      <trkpt lat="42.410993" lon="-2.680531">
        <ele>564.443</ele>
        <time>2021-07-26T09:02:59Z</time>
      </trkpt>
      <trkpt lat="42.411004" lon="-2.680473">
        <ele>564.407</ele>
        <time>2021-07-26T09:03:00Z</time>
      </trkpt>
      <trkpt lat="42.411106" lon="-2.679962">
        <ele>564.408</ele>
        <time>2021-07-26T09:03:09Z</time>
      </trkpt>
      <trkpt lat="42.411259" lon="-2.679237">
        <ele>564.918</ele>
        <time>2021-07-26T09:03:22Z</time>
      </trkpt>
      <trkpt lat="42.411384" lon="-2.678658">
        <ele>564.450</ele>
        <time>2021-07-26T09:03:32Z</time>
      </trkpt>
      <trkpt lat="42.411394" lon="-2.678605">
        <ele>564.997</ele>
        <time>2021-07-26T09:03:33Z</time>
      </trkpt>
      <trkpt lat="42.411501" lon="-2.678032">
        <ele>565.317</ele>
        <time>2021-07-26T09:03:44Z</time>
      </trkpt>
      <trkpt lat="42.411589" lon="-2.677592">
        <ele>566.841</ele>
        <time>2021-07-26T09:03:54Z</time>
      </trkpt>
      <trkpt lat="42.411669" lon="-2.677204">
        <ele>567.829</ele>
        <time>2021-07-26T09:04:04Z</time>
      </trkpt>
      <trkpt lat="42.411748" lon="-2.676819">
        <ele>569.786</ele>
        <time>2021-07-26T09:04:14Z</time>
      </trkpt>
      <trkpt lat="42.411799" lon="-2.676550">
        <ele>571.144</ele>
        <time>2021-07-26T09:04:22Z</time>
      </trkpt>
      <trkpt lat="42.411862" lon="-2.676223">
        <ele>572.613</ele>
        <time>2021-07-26T09:04:31Z</time>
      </trkpt>
      <trkpt lat="42.411860" lon="-2.676073">
        <ele>573.043</ele>
        <time>2021-07-26T09:04:37Z</time>
      </trkpt>
      <trkpt lat="42.411870" lon="-2.676060">
        <ele>573.507</ele>
        <time>2021-07-26T09:04:44Z</time>
      </trkpt>
      <trkpt lat="42.411891" lon="-2.676057">
        <ele>573.008</ele>
        <time>2021-07-26T09:05:03Z</time>
      </trkpt>
      <trkpt lat="42.411886" lon="-2.676069">
        <ele>575.028</ele>
        <time>2021-07-26T09:05:18Z</time>
      </trkpt>
      <trkpt lat="42.411882" lon="-2.676057">
        <ele>575.050</ele>
        <time>2021-07-26T09:05:32Z</time>
      </trkpt>
      <trkpt lat="42.411887" lon="-2.676048">
        <ele>573.037</ele>
        <time>2021-07-26T09:05:50Z</time>
      </trkpt>
      <trkpt lat="42.411885" lon="-2.676039">
        <ele>574.597</ele>
        <time>2021-07-26T09:06:10Z</time>
      </trkpt>
      <trkpt lat="42.411889" lon="-2.676033">
        <ele>573.561</ele>
        <time>2021-07-26T09:06:27Z</time>
      </trkpt>
      <trkpt lat="42.411882" lon="-2.676035">
        <ele>574.039</ele>
        <time>2021-07-26T09:06:42Z</time>
      </trkpt>
      <trkpt lat="42.411888" lon="-2.676049">
        <ele>573.046</ele>
        <time>2021-07-26T09:06:59Z</time>
      </trkpt>
      <trkpt lat="42.411875" lon="-2.676055">
        <ele>572.694</ele>
        <time>2021-07-26T09:07:24Z</time>
      </trkpt>
      <trkpt lat="42.411887" lon="-2.676062">
        <ele>572.658</ele>
        <time>2021-07-26T09:07:38Z</time>
      </trkpt>
      <trkpt lat="42.411884" lon="-2.676071">
        <ele>573.052</ele>
        <time>2021-07-26T09:07:52Z</time>
      </trkpt>
      <trkpt lat="42.411877" lon="-2.676076">
        <ele>573.017</ele>
        <time>2021-07-26T09:08:12Z</time>
      </trkpt>
      <trkpt lat="42.411892" lon="-2.676069">
        <ele>574.508</ele>
        <time>2021-07-26T09:08:32Z</time>
      </trkpt>
      <trkpt lat="42.411885" lon="-2.676066">
        <ele>574.072</ele>
        <time>2021-07-26T09:08:51Z</time>
      </trkpt>
      <trkpt lat="42.411881" lon="-2.676065">
        <ele>576.914</ele>
        <time>2021-07-26T09:09:07Z</time>
      </trkpt>
      <trkpt lat="42.411884" lon="-2.676066">
        <ele>575.421</ele>
        <time>2021-07-26T09:09:24Z</time>
      </trkpt>
      <trkpt lat="42.411881" lon="-2.676072">
        <ele>575.951</ele>
        <time>2021-07-26T09:09:41Z</time>
      </trkpt>
      <trkpt lat="42.411879" lon="-2.676074">
        <ele>573.545</ele>
        <time>2021-07-26T09:10:01Z</time>
      </trkpt>
      <trkpt lat="42.411884" lon="-2.676061">
        <ele>571.643</ele>
        <time>2021-07-26T09:10:18Z</time>
      </trkpt>
      <trkpt lat="42.411877" lon="-2.676065">
        <ele>573.580</ele>
        <time>2021-07-26T09:10:31Z</time>
      </trkpt>
      <trkpt lat="42.411891" lon="-2.676058">
        <ele>572.178</ele>
        <time>2021-07-26T09:10:48Z</time>
      </trkpt>
      <trkpt lat="42.411881" lon="-2.676063">
        <ele>571.642</ele>
        <time>2021-07-26T09:11:05Z</time>
      </trkpt>
      <trkpt lat="42.411880" lon="-2.676071">
        <ele>573.022</ele>
        <time>2021-07-26T09:11:24Z</time>
      </trkpt>
      <trkpt lat="42.411877" lon="-2.676079">
        <ele>571.614</ele>
        <time>2021-07-26T09:11:39Z</time>
      </trkpt>
      <trkpt lat="42.411869" lon="-2.676083">
        <ele>573.508</ele>
        <time>2021-07-26T09:11:54Z</time>
      </trkpt>
      <trkpt lat="42.411867" lon="-2.676079">
        <ele>573.551</ele>
        <time>2021-07-26T09:12:13Z</time>
      </trkpt>
      <trkpt lat="42.411860" lon="-2.676061">
        <ele>572.683</ele>
        <time>2021-07-26T09:12:30Z</time>
      </trkpt>
      <trkpt lat="42.411883" lon="-2.676058">
        <ele>574.010</ele>
        <time>2021-07-26T09:12:47Z</time>
      </trkpt>
      <trkpt lat="42.411876" lon="-2.676062">
        <ele>575.420</ele>
        <time>2021-07-26T09:13:02Z</time>
      </trkpt>
      <trkpt lat="42.411873" lon="-2.676052">
        <ele>573.514</ele>
        <time>2021-07-26T09:13:17Z</time>
      </trkpt>
      <trkpt lat="42.411882" lon="-2.676053">
        <ele>574.052</ele>
        <time>2021-07-26T09:13:34Z</time>
      </trkpt>
      <trkpt lat="42.411887" lon="-2.676055">
        <ele>574.099</ele>
        <time>2021-07-26T09:13:56Z</time>
      </trkpt>
      <trkpt lat="42.411881" lon="-2.676068">
        <ele>575.037</ele>
        <time>2021-07-26T09:14:19Z</time>
      </trkpt>
      <trkpt lat="42.411885" lon="-2.676061">
        <ele>575.422</ele>
        <time>2021-07-26T09:14:37Z</time>
      </trkpt>
      <trkpt lat="42.411897" lon="-2.676065">
        <ele>575.062</ele>
        <time>2021-07-26T09:14:58Z</time>
      </trkpt>
      <trkpt lat="42.411895" lon="-2.676053">
        <ele>573.008</ele>
        <time>2021-07-26T09:15:18Z</time>
      </trkpt>
      <trkpt lat="42.411893" lon="-2.676071">
        <ele>572.108</ele>
        <time>2021-07-26T09:15:41Z</time>
      </trkpt>
      <trkpt lat="42.411896" lon="-2.676057">
        <ele>573.089</ele>
        <time>2021-07-26T09:16:06Z</time>
      </trkpt>
      <trkpt lat="42.411890" lon="-2.676064">
        <ele>571.621</ele>
        <time>2021-07-26T09:16:27Z</time>
      </trkpt>
      <trkpt lat="42.411891" lon="-2.676063">
        <ele>571.128</ele>
        <time>2021-07-26T09:16:56Z</time>
      </trkpt>
      <trkpt lat="42.411895" lon="-2.676065">
        <ele>572.688</ele>
        <time>2021-07-26T09:17:18Z</time>
      </trkpt>
      <trkpt lat="42.411895" lon="-2.676074">
        <ele>574.532</ele>
        <time>2021-07-26T09:17:40Z</time>
      </trkpt>
      <trkpt lat="42.411893" lon="-2.676085">
        <ele>574.540</ele>
        <time>2021-07-26T09:18:01Z</time>
      </trkpt>
      <trkpt lat="42.411882" lon="-2.676073">
        <ele>573.527</ele>
        <time>2021-07-26T09:18:26Z</time>
      </trkpt>
      <trkpt lat="42.411891" lon="-2.676085">
        <ele>572.135</ele>
        <time>2021-07-26T09:18:51Z</time>
      </trkpt>
      <trkpt lat="42.411884" lon="-2.676068">
        <ele>572.614</ele>
        <time>2021-07-26T09:19:12Z</time>
      </trkpt>
      <trkpt lat="42.411900" lon="-2.676037">
        <ele>572.654</ele>
        <time>2021-07-26T09:19:23Z</time>
      </trkpt>
      <trkpt lat="42.411908" lon="-2.676030">
        <ele>573.009</ele>
        <time>2021-07-26T09:19:24Z</time>
      </trkpt>
      <trkpt lat="42.411927" lon="-2.675995">
        <ele>573.508</ele>
        <time>2021-07-26T09:19:31Z</time>
      </trkpt>
      <trkpt lat="42.411930" lon="-2.675968">
        <ele>574.028</ele>
        <time>2021-07-26T09:19:36Z</time>
      </trkpt>
      <trkpt lat="42.411936" lon="-2.675887">
        <ele>574.580</ele>
        <time>2021-07-26T09:19:42Z</time>
      </trkpt>
      <trkpt lat="42.411961" lon="-2.675775">
        <ele>574.577</ele>
        <time>2021-07-26T09:19:49Z</time>
      </trkpt>
      <trkpt lat="42.411971" lon="-2.675703">
        <ele>575.057</ele>
        <time>2021-07-26T09:19:52Z</time>
      </trkpt>
      <trkpt lat="42.411975" lon="-2.675682">
        <ele>574.551</ele>
        <time>2021-07-26T09:19:53Z</time>
      </trkpt>
      <trkpt lat="42.412017" lon="-2.675430">
        <ele>575.019</ele>
        <time>2021-07-26T09:20:03Z</time>
      </trkpt>
      <trkpt lat="42.412051" lon="-2.675211">
        <ele>575.416</ele>
        <time>2021-07-26T09:20:10Z</time>
      </trkpt>
      <trkpt lat="42.412087" lon="-2.674913">
        <ele>576.444</ele>
        <time>2021-07-26T09:20:19Z</time>
      </trkpt>
      <trkpt lat="42.412106" lon="-2.674619">
        <ele>577.423</ele>
        <time>2021-07-26T09:20:28Z</time>
      </trkpt>
      <trkpt lat="42.412113" lon="-2.674219">
        <ele>578.883</ele>
        <time>2021-07-26T09:20:40Z</time>
      </trkpt>
      <trkpt lat="42.412102" lon="-2.673881">
        <ele>580.711</ele>
        <time>2021-07-26T09:20:50Z</time>
      </trkpt>
      <trkpt lat="42.412072" lon="-2.673581">
        <ele>581.208</ele>
        <time>2021-07-26T09:20:59Z</time>
      </trkpt>
      <trkpt lat="42.412042" lon="-2.673223">
        <ele>582.799</ele>
        <time>2021-07-26T09:21:09Z</time>
      </trkpt>
      <trkpt lat="42.411994" lon="-2.672918">
        <ele>583.691</ele>
        <time>2021-07-26T09:21:18Z</time>
      </trkpt>
      <trkpt lat="42.411938" lon="-2.672510">
        <ele>585.138</ele>
        <time>2021-07-26T09:21:29Z</time>
      </trkpt>
      <trkpt lat="42.411881" lon="-2.672070">
        <ele>586.568</ele>
        <time>2021-07-26T09:21:40Z</time>
      </trkpt>
      <trkpt lat="42.411822" lon="-2.671601">
        <ele>587.522</ele>
        <time>2021-07-26T09:21:52Z</time>
      </trkpt>
      <trkpt lat="42.411769" lon="-2.671176">
        <ele>587.960</ele>
        <time>2021-07-26T09:22:03Z</time>
      </trkpt>
      <trkpt lat="42.411700" lon="-2.670664">
        <ele>588.417</ele>
        <time>2021-07-26T09:22:16Z</time>
      </trkpt>
      <trkpt lat="42.411636" lon="-2.670188">
        <ele>588.415</ele>
        <time>2021-07-26T09:22:28Z</time>
      </trkpt>
      <trkpt lat="42.411578" lon="-2.669759">
        <ele>590.313</ele>
        <time>2021-07-26T09:22:39Z</time>
      </trkpt>
      <trkpt lat="42.411534" lon="-2.669403">
        <ele>591.343</ele>
        <time>2021-07-26T09:22:48Z</time>
      </trkpt>
      <trkpt lat="42.411485" lon="-2.669012">
        <ele>592.307</ele>
        <time>2021-07-26T09:22:58Z</time>
      </trkpt>
      <trkpt lat="42.411446" lon="-2.668616">
        <ele>593.708</ele>
        <time>2021-07-26T09:23:08Z</time>
      </trkpt>
      <trkpt lat="42.411395" lon="-2.667963">
        <ele>595.648</ele>
        <time>2021-07-26T09:23:23Z</time>
      </trkpt>
      <trkpt lat="42.411362" lon="-2.667557">
        <ele>596.670</ele>
        <time>2021-07-26T09:23:33Z</time>
      </trkpt>
      <trkpt lat="42.411336" lon="-2.667125">
        <ele>597.657</ele>
        <time>2021-07-26T09:23:44Z</time>
      </trkpt>
      <trkpt lat="42.411317" lon="-2.666714">
        <ele>599.047</ele>
        <time>2021-07-26T09:23:55Z</time>
      </trkpt>
      <trkpt lat="42.411304" lon="-2.666341">
        <ele>600.041</ele>
        <time>2021-07-26T09:24:05Z</time>
      </trkpt>
      <trkpt lat="42.411296" lon="-2.665877">
        <ele>601.469</ele>
        <time>2021-07-26T09:24:18Z</time>
      </trkpt>
      <trkpt lat="42.411276" lon="-2.665424">
        <ele>602.876</ele>
        <time>2021-07-26T09:24:30Z</time>
      </trkpt>
      <trkpt lat="42.411266" lon="-2.665071">
        <ele>604.334</ele>
        <time>2021-07-26T09:24:40Z</time>
      </trkpt>
      <trkpt lat="42.411259" lon="-2.664760">
        <ele>605.771</ele>
        <time>2021-07-26T09:24:49Z</time>
      </trkpt>
      <trkpt lat="42.411247" lon="-2.664484">
        <ele>606.741</ele>
        <time>2021-07-26T09:24:57Z</time>
      </trkpt>
      <trkpt lat="42.411234" lon="-2.664238">
        <ele>607.615</ele>
        <time>2021-07-26T09:25:05Z</time>
      </trkpt>
      <trkpt lat="42.411230" lon="-2.663936">
        <ele>608.608</ele>
        <time>2021-07-26T09:25:14Z</time>
      </trkpt>
      <trkpt lat="42.411217" lon="-2.663554">
        <ele>609.674</ele>
        <time>2021-07-26T09:25:25Z</time>
      </trkpt>
      <trkpt lat="42.411205" lon="-2.663196">
        <ele>610.526</ele>
        <time>2021-07-26T09:25:36Z</time>
      </trkpt>
      <trkpt lat="42.411192" lon="-2.662888">
        <ele>612.093</ele>
        <time>2021-07-26T09:25:45Z</time>
      </trkpt>
      <trkpt lat="42.411183" lon="-2.662474">
        <ele>613.443</ele>
        <time>2021-07-26T09:25:56Z</time>
      </trkpt>
      <trkpt lat="42.411170" lon="-2.662020">
        <ele>614.447</ele>
        <time>2021-07-26T09:26:08Z</time>
      </trkpt>
      <trkpt lat="42.411155" lon="-2.661600">
        <ele>614.925</ele>
        <time>2021-07-26T09:26:18Z</time>
      </trkpt>
      <trkpt lat="42.411136" lon="-2.661119">
        <ele>615.832</ele>
        <time>2021-07-26T09:26:29Z</time>
      </trkpt>
      <trkpt lat="42.411130" lon="-2.660653">
        <ele>616.390</ele>
        <time>2021-07-26T09:26:39Z</time>
      </trkpt>
      <trkpt lat="42.411105" lon="-2.660107">
        <ele>616.853</ele>
        <time>2021-07-26T09:26:51Z</time>
      </trkpt>
      <trkpt lat="42.411073" lon="-2.659634">
        <ele>617.704</ele>
        <time>2021-07-26T09:27:01Z</time>
      </trkpt>
      <trkpt lat="42.411018" lon="-2.659118">
        <ele>618.714</ele>
        <time>2021-07-26T09:27:12Z</time>
      </trkpt>
      <trkpt lat="42.410958" lon="-2.658543">
        <ele>619.208</ele>
        <time>2021-07-26T09:27:24Z</time>
      </trkpt>
      <trkpt lat="42.410893" lon="-2.657988">
        <ele>619.732</ele>
        <time>2021-07-26T09:27:35Z</time>
      </trkpt>
      <trkpt lat="42.410838" lon="-2.657474">
        <ele>620.684</ele>
        <time>2021-07-26T09:27:45Z</time>
      </trkpt>
      <trkpt lat="42.410777" lon="-2.656913">
        <ele>621.161</ele>
        <time>2021-07-26T09:27:56Z</time>
      </trkpt>
      <trkpt lat="42.410720" lon="-2.656415">
        <ele>621.641</ele>
        <time>2021-07-26T09:28:06Z</time>
      </trkpt>
      <trkpt lat="42.410655" lon="-2.655818">
        <ele>622.535</ele>
        <time>2021-07-26T09:28:18Z</time>
      </trkpt>
      <trkpt lat="42.410603" lon="-2.655330">
        <ele>623.083</ele>
        <time>2021-07-26T09:28:28Z</time>
      </trkpt>
      <trkpt lat="42.410565" lon="-2.654921">
        <ele>623.580</ele>
        <time>2021-07-26T09:28:37Z</time>
      </trkpt>
      <trkpt lat="42.410531" lon="-2.654422">
        <ele>624.018</ele>
        <time>2021-07-26T09:28:48Z</time>
      </trkpt>
      <trkpt lat="42.410535" lon="-2.653870">
        <ele>624.533</ele>
        <time>2021-07-26T09:28:59Z</time>
      </trkpt>
      <trkpt lat="42.410548" lon="-2.653397">
        <ele>624.523</ele>
        <time>2021-07-26T09:29:09Z</time>
      </trkpt>
      <trkpt lat="42.410559" lon="-2.653003">
        <ele>624.915</ele>
        <time>2021-07-26T09:29:18Z</time>
      </trkpt>
      <trkpt lat="42.410579" lon="-2.652476">
        <ele>626.408</ele>
        <time>2021-07-26T09:29:30Z</time>
      </trkpt>
      <trkpt lat="42.410622" lon="-2.651985">
        <ele>627.480</ele>
        <time>2021-07-26T09:29:41Z</time>
      </trkpt>
      <trkpt lat="42.410740" lon="-2.651482">
        <ele>628.832</ele>
        <time>2021-07-26T09:29:52Z</time>
      </trkpt>
      <trkpt lat="42.410895" lon="-2.651064">
        <ele>630.249</ele>
        <time>2021-07-26T09:30:02Z</time>
      </trkpt>
      <trkpt lat="42.411089" lon="-2.650708">
        <ele>631.759</ele>
        <time>2021-07-26T09:30:12Z</time>
      </trkpt>
      <trkpt lat="42.411329" lon="-2.650411">
        <ele>633.113</ele>
        <time>2021-07-26T09:30:23Z</time>
      </trkpt>
      <trkpt lat="42.411591" lon="-2.650167">
        <ele>635.071</ele>
        <time>2021-07-26T09:30:33Z</time>
      </trkpt>
      <trkpt lat="42.411903" lon="-2.649965">
        <ele>637.078</ele>
        <time>2021-07-26T09:30:44Z</time>
      </trkpt>
      <trkpt lat="42.412233" lon="-2.649846">
        <ele>637.916</ele>
        <time>2021-07-26T09:30:55Z</time>
      </trkpt>
      <trkpt lat="42.412559" lon="-2.649767">
        <ele>638.411</ele>
        <time>2021-07-26T09:31:06Z</time>
      </trkpt>
      <trkpt lat="42.412905" lon="-2.649682">
        <ele>638.421</ele>
        <time>2021-07-26T09:31:17Z</time>
      </trkpt>
      <trkpt lat="42.413221" lon="-2.649598">
        <ele>638.903</ele>
        <time>2021-07-26T09:31:27Z</time>
      </trkpt>
      <trkpt lat="42.413564" lon="-2.649472">
        <ele>639.408</ele>
        <time>2021-07-26T09:31:38Z</time>
      </trkpt>
      <trkpt lat="42.413827" lon="-2.649343">
        <ele>640.818</ele>
        <time>2021-07-26T09:31:47Z</time>
      </trkpt>
      <trkpt lat="42.414130" lon="-2.649142">
        <ele>641.840</ele>
        <time>2021-07-26T09:31:58Z</time>
      </trkpt>
      <trkpt lat="42.414410" lon="-2.648915">
        <ele>642.727</ele>
        <time>2021-07-26T09:32:09Z</time>
      </trkpt>
      <trkpt lat="42.414644" lon="-2.648686">
        <ele>643.257</ele>
        <time>2021-07-26T09:32:18Z</time>
      </trkpt>
      <trkpt lat="42.414912" lon="-2.648367">
        <ele>644.781</ele>
        <time>2021-07-26T09:32:29Z</time>
      </trkpt>
      <trkpt lat="42.415227" lon="-2.647912">
        <ele>645.669</ele>
        <time>2021-07-26T09:32:43Z</time>
      </trkpt>
      <trkpt lat="42.415429" lon="-2.647538">
        <ele>646.146</ele>
        <time>2021-07-26T09:32:54Z</time>
      </trkpt>
      <trkpt lat="42.415647" lon="-2.647075">
        <ele>646.684</ele>
        <time>2021-07-26T09:33:07Z</time>
      </trkpt>
      <trkpt lat="42.415716" lon="-2.646921">
        <ele>647.122</ele>
        <time>2021-07-26T09:33:14Z</time>
      </trkpt>
      <trkpt lat="42.415787" lon="-2.646773">
        <ele>647.562</ele>
        <time>2021-07-26T09:33:22Z</time>
      </trkpt>
      <trkpt lat="42.415940" lon="-2.646425">
        <ele>648.008</ele>
        <time>2021-07-26T09:33:31Z</time>
      </trkpt>
      <trkpt lat="42.416115" lon="-2.645998">
        <ele>648.508</ele>
        <time>2021-07-26T09:33:41Z</time>
      </trkpt>
      <trkpt lat="42.416346" lon="-2.645525">
        <ele>649.999</ele>
        <time>2021-07-26T09:33:53Z</time>
      </trkpt>
      <trkpt lat="42.416555" lon="-2.645108">
        <ele>650.931</ele>
        <time>2021-07-26T09:34:04Z</time>
      </trkpt>
      <trkpt lat="42.416708" lon="-2.644767">
        <ele>651.958</ele>
        <time>2021-07-26T09:34:14Z</time>
      </trkpt>
      <trkpt lat="42.416878" lon="-2.644355">
        <ele>652.898</ele>
        <time>2021-07-26T09:34:25Z</time>
      </trkpt>
      <trkpt lat="42.416960" lon="-2.644105">
        <ele>653.352</ele>
        <time>2021-07-26T09:34:31Z</time>
      </trkpt>
      <trkpt lat="42.417173" lon="-2.643646">
        <ele>654.390</ele>
        <time>2021-07-26T09:34:43Z</time>
      </trkpt>
      <trkpt lat="42.417338" lon="-2.643231">
        <ele>654.347</ele>
        <time>2021-07-26T09:34:53Z</time>
      </trkpt>
      <trkpt lat="42.417482" lon="-2.642776">
        <ele>654.855</ele>
        <time>2021-07-26T09:35:04Z</time>
      </trkpt>
      <trkpt lat="42.417592" lon="-2.642296">
        <ele>653.814</ele>
        <time>2021-07-26T09:35:14Z</time>
      </trkpt>
      <trkpt lat="42.417662" lon="-2.641807">
        <ele>652.854</ele>
        <time>2021-07-26T09:35:23Z</time>
      </trkpt>
      <trkpt lat="42.417702" lon="-2.641210">
        <ele>651.409</ele>
        <time>2021-07-26T09:35:31Z</time>
      </trkpt>
      <trkpt lat="42.417662" lon="-2.640527">
        <ele>649.508</ele>
        <time>2021-07-26T09:35:38Z</time>
      </trkpt>
      <trkpt lat="42.417530" lon="-2.639726">
        <ele>646.688</ele>
        <time>2021-07-26T09:35:45Z</time>
      </trkpt>
      <trkpt lat="42.417235" lon="-2.638781">
        <ele>643.750</ele>
        <time>2021-07-26T09:35:53Z</time>
      </trkpt>
      <trkpt lat="42.416860" lon="-2.637800">
        <ele>640.817</ele>
        <time>2021-07-26T09:36:01Z</time>
      </trkpt>
      <trkpt lat="42.416424" lon="-2.636669">
        <ele>637.997</ele>
        <time>2021-07-26T09:36:10Z</time>
      </trkpt>
      <trkpt lat="42.415904" lon="-2.635480">
        <ele>635.021</ele>
        <time>2021-07-26T09:36:20Z</time>
      </trkpt>
      <trkpt lat="42.415384" lon="-2.634302">
        <ele>632.659</ele>
        <time>2021-07-26T09:36:30Z</time>
      </trkpt>
      <trkpt lat="42.414836" lon="-2.633067">
        <ele>629.336</ele>
        <time>2021-07-26T09:36:41Z</time>
      </trkpt>
      <trkpt lat="42.414316" lon="-2.631896">
        <ele>624.924</ele>
        <time>2021-07-26T09:36:52Z</time>
      </trkpt>
      <trkpt lat="42.413832" lon="-2.630803">
        <ele>622.594</ele>
        <time>2021-07-26T09:37:03Z</time>
      </trkpt>
      <trkpt lat="42.413413" lon="-2.629847">
        <ele>620.657</ele>
        <time>2021-07-26T09:37:13Z</time>
      </trkpt>
      <trkpt lat="42.413286" lon="-2.629586">
        <ele>619.722</ele>
        <time>2021-07-26T09:37:16Z</time>
      </trkpt>
      <trkpt lat="42.413231" lon="-2.629505">
        <ele>619.708</ele>
        <time>2021-07-26T09:37:17Z</time>
      </trkpt>
      <trkpt lat="42.413173" lon="-2.629436">
        <ele>620.176</ele>
        <time>2021-07-26T09:37:18Z</time>
      </trkpt>
      <trkpt lat="42.413111" lon="-2.629379">
        <ele>620.148</ele>
        <time>2021-07-26T09:37:19Z</time>
      </trkpt>
      <trkpt lat="42.413045" lon="-2.629331">
        <ele>620.175</ele>
        <time>2021-07-26T09:37:20Z</time>
      </trkpt>
      <trkpt lat="42.412980" lon="-2.629295">
        <ele>620.645</ele>
        <time>2021-07-26T09:37:21Z</time>
      </trkpt>
      <trkpt lat="42.412917" lon="-2.629267">
        <ele>620.699</ele>
        <time>2021-07-26T09:37:22Z</time>
      </trkpt>
      <trkpt lat="42.412629" lon="-2.629135">
        <ele>622.167</ele>
        <time>2021-07-26T09:37:28Z</time>
      </trkpt>
      <trkpt lat="42.412393" lon="-2.628890">
        <ele>623.594</ele>
        <time>2021-07-26T09:37:36Z</time>
      </trkpt>
      <trkpt lat="42.412288" lon="-2.628516">
        <ele>624.572</ele>
        <time>2021-07-26T09:37:44Z</time>
      </trkpt>
      <trkpt lat="42.412286" lon="-2.628464">
        <ele>624.547</ele>
        <time>2021-07-26T09:37:45Z</time>
      </trkpt>
      <trkpt lat="42.412240" lon="-2.628205">
        <ele>624.529</ele>
        <time>2021-07-26T09:37:50Z</time>
      </trkpt>
      <trkpt lat="42.412216" lon="-2.628162">
        <ele>624.521</ele>
        <time>2021-07-26T09:37:51Z</time>
      </trkpt>
      <trkpt lat="42.412188" lon="-2.628126">
        <ele>624.508</ele>
        <time>2021-07-26T09:37:52Z</time>
      </trkpt>
      <trkpt lat="42.412152" lon="-2.628096">
        <ele>624.061</ele>
        <time>2021-07-26T09:37:53Z</time>
      </trkpt>
      <trkpt lat="42.412113" lon="-2.628078">
        <ele>624.043</ele>
        <time>2021-07-26T09:37:54Z</time>
      </trkpt>
      <trkpt lat="42.412070" lon="-2.628067">
        <ele>624.070</ele>
        <time>2021-07-26T09:37:55Z</time>
      </trkpt>
      <trkpt lat="42.412030" lon="-2.628063">
        <ele>623.560</ele>
        <time>2021-07-26T09:37:56Z</time>
      </trkpt>
      <trkpt lat="42.411993" lon="-2.628063">
        <ele>623.594</ele>
        <time>2021-07-26T09:37:57Z</time>
      </trkpt>
      <trkpt lat="42.411955" lon="-2.628066">
        <ele>623.552</ele>
        <time>2021-07-26T09:37:58Z</time>
      </trkpt>
      <trkpt lat="42.411792" lon="-2.628070">
        <ele>622.539</ele>
        <time>2021-07-26T09:38:05Z</time>
      </trkpt>
      <trkpt lat="42.411775" lon="-2.628064">
        <ele>622.187</ele>
        <time>2021-07-26T09:38:06Z</time>
      </trkpt>
      <trkpt lat="42.411764" lon="-2.628047">
        <ele>622.177</ele>
        <time>2021-07-26T09:38:07Z</time>
      </trkpt>
      <trkpt lat="42.411756" lon="-2.628016">
        <ele>622.161</ele>
        <time>2021-07-26T09:38:08Z</time>
      </trkpt>
      <trkpt lat="42.411757" lon="-2.627975">
        <ele>622.127</ele>
        <time>2021-07-26T09:38:09Z</time>
      </trkpt>
      <trkpt lat="42.411763" lon="-2.627950">
        <ele>621.608</ele>
        <time>2021-07-26T09:38:10Z</time>
      </trkpt>
      <trkpt lat="42.411774" lon="-2.627900">
        <ele>621.114</ele>
        <time>2021-07-26T09:38:11Z</time>
      </trkpt>
      <trkpt lat="42.411777" lon="-2.627851">
        <ele>620.646</ele>
        <time>2021-07-26T09:38:12Z</time>
      </trkpt>
      <trkpt lat="42.411778" lon="-2.627786">
        <ele>620.153</ele>
        <time>2021-07-26T09:38:13Z</time>
      </trkpt>
      <trkpt lat="42.411777" lon="-2.627701">
        <ele>619.223</ele>
        <time>2021-07-26T09:38:14Z</time>
      </trkpt>
      <trkpt lat="42.411779" lon="-2.627069">
        <ele>617.387</ele>
        <time>2021-07-26T09:38:22Z</time>
      </trkpt>
      <trkpt lat="42.411807" lon="-2.626466">
        <ele>616.885</ele>
        <time>2021-07-26T09:38:32Z</time>
      </trkpt>
      <trkpt lat="42.411839" lon="-2.625884">
        <ele>615.372</ele>
        <time>2021-07-26T09:38:42Z</time>
      </trkpt>
      <trkpt lat="42.411874" lon="-2.625299">
        <ele>614.420</ele>
        <time>2021-07-26T09:38:53Z</time>
      </trkpt>
      <trkpt lat="42.411895" lon="-2.624746">
        <ele>613.456</ele>
        <time>2021-07-26T09:39:04Z</time>
      </trkpt>
      <trkpt lat="42.411949" lon="-2.624182">
        <ele>612.559</ele>
        <time>2021-07-26T09:39:15Z</time>
      </trkpt>
      <trkpt lat="42.412000" lon="-2.623690">
        <ele>612.014</ele>
        <time>2021-07-26T09:39:25Z</time>
      </trkpt>
      <trkpt lat="42.412022" lon="-2.623174">
        <ele>611.008</ele>
        <time>2021-07-26T09:39:36Z</time>
      </trkpt>
      <trkpt lat="42.412002" lon="-2.622729">
        <ele>610.562</ele>
        <time>2021-07-26T09:39:45Z</time>
      </trkpt>
      <trkpt lat="42.412067" lon="-2.622508">
        <ele>610.564</ele>
        <time>2021-07-26T09:39:51Z</time>
      </trkpt>
      <trkpt lat="42.412132" lon="-2.622242">
        <ele>611.551</ele>
        <time>2021-07-26T09:39:58Z</time>
      </trkpt>
      <trkpt lat="42.412081" lon="-2.621857">
        <ele>613.961</ele>
        <time>2021-07-26T09:40:08Z</time>
      </trkpt>
      <trkpt lat="42.412062" lon="-2.621423">
        <ele>615.855</ele>
        <time>2021-07-26T09:40:19Z</time>
      </trkpt>
      <trkpt lat="42.412055" lon="-2.620971">
        <ele>615.833</ele>
        <time>2021-07-26T09:40:29Z</time>
      </trkpt>
      <trkpt lat="42.412066" lon="-2.620611">
        <ele>613.410</ele>
        <time>2021-07-26T09:40:36Z</time>
      </trkpt>
      <trkpt lat="42.412091" lon="-2.620374">
        <ele>612.048</ele>
        <time>2021-07-26T09:40:40Z</time>
      </trkpt>
      <trkpt lat="42.412127" lon="-2.619741">
        <ele>608.666</ele>
        <time>2021-07-26T09:40:50Z</time>
      </trkpt>
      <trkpt lat="42.412133" lon="-2.619144">
        <ele>605.729</ele>
        <time>2021-07-26T09:40:59Z</time>
      </trkpt>
      <trkpt lat="42.412140" lon="-2.618499">
        <ele>603.821</ele>
        <time>2021-07-26T09:41:09Z</time>
      </trkpt>
      <trkpt lat="42.412158" lon="-2.617792">
        <ele>602.408</ele>
        <time>2021-07-26T09:41:20Z</time>
      </trkpt>
      <trkpt lat="42.412170" lon="-2.617073">
        <ele>601.973</ele>
        <time>2021-07-26T09:41:33Z</time>
      </trkpt>
      <trkpt lat="42.412169" lon="-2.616481">
        <ele>601.915</ele>
        <time>2021-07-26T09:41:44Z</time>
      </trkpt>
      <trkpt lat="42.412188" lon="-2.616004">
        <ele>601.912</ele>
        <time>2021-07-26T09:41:53Z</time>
      </trkpt>
      <trkpt lat="42.412191" lon="-2.615415">
        <ele>601.462</ele>
        <time>2021-07-26T09:42:04Z</time>
      </trkpt>
      <trkpt lat="42.412194" lon="-2.614785">
        <ele>600.456</ele>
        <time>2021-07-26T09:42:16Z</time>
      </trkpt>
      <trkpt lat="42.412210" lon="-2.614301">
        <ele>599.554</ele>
        <time>2021-07-26T09:42:25Z</time>
      </trkpt>
      <trkpt lat="42.412214" lon="-2.613916">
        <ele>599.041</ele>
        <time>2021-07-26T09:42:32Z</time>
      </trkpt>
      <trkpt lat="42.412246" lon="-2.613201">
        <ele>597.699</ele>
        <time>2021-07-26T09:42:43Z</time>
      </trkpt>
      <trkpt lat="42.412311" lon="-2.612450">
        <ele>595.674</ele>
        <time>2021-07-26T09:42:53Z</time>
      </trkpt>
      <trkpt lat="42.412426" lon="-2.611749">
        <ele>594.756</ele>
        <time>2021-07-26T09:43:03Z</time>
      </trkpt>
      <trkpt lat="42.412544" lon="-2.611028">
        <ele>593.221</ele>
        <time>2021-07-26T09:43:13Z</time>
      </trkpt>
      <trkpt lat="42.412671" lon="-2.610430">
        <ele>592.308</ele>
        <time>2021-07-26T09:43:22Z</time>
      </trkpt>
      <trkpt lat="42.412813" lon="-2.609844">
        <ele>589.444</ele>
        <time>2021-07-26T09:43:31Z</time>
      </trkpt>
      <trkpt lat="42.413047" lon="-2.609021">
        <ele>587.996</ele>
        <time>2021-07-26T09:43:42Z</time>
      </trkpt>
      <trkpt lat="42.413222" lon="-2.608476">
        <ele>587.053</ele>
        <time>2021-07-26T09:43:50Z</time>
      </trkpt>
      <trkpt lat="42.413392" lon="-2.607984">
        <ele>586.013</ele>
        <time>2021-07-26T09:43:58Z</time>
      </trkpt>
      <trkpt lat="42.413612" lon="-2.607349">
        <ele>585.167</ele>
        <time>2021-07-26T09:44:08Z</time>
      </trkpt>
      <trkpt lat="42.413857" lon="-2.606732">
        <ele>584.145</ele>
        <time>2021-07-26T09:44:18Z</time>
      </trkpt>
      <trkpt lat="42.413877" lon="-2.606675">
        <ele>584.182</ele>
        <time>2021-07-26T09:44:19Z</time>
      </trkpt>
      <trkpt lat="42.414095" lon="-2.606011">
        <ele>582.780</ele>
        <time>2021-07-26T09:44:30Z</time>
      </trkpt>
      <trkpt lat="42.414342" lon="-2.605348">
        <ele>581.278</ele>
        <time>2021-07-26T09:44:40Z</time>
      </trkpt>
      <trkpt lat="42.414513" lon="-2.604879">
        <ele>580.733</ele>
        <time>2021-07-26T09:44:48Z</time>
      </trkpt>
      <trkpt lat="42.414683" lon="-2.604406">
        <ele>579.826</ele>
        <time>2021-07-26T09:44:56Z</time>
      </trkpt>
      <trkpt lat="42.414862" lon="-2.603881">
        <ele>577.808</ele>
        <time>2021-07-26T09:45:05Z</time>
      </trkpt>
      <trkpt lat="42.414907" lon="-2.603761">
        <ele>577.844</ele>
        <time>2021-07-26T09:45:07Z</time>
      </trkpt>
      <trkpt lat="42.415142" lon="-2.603133">
        <ele>576.436</ele>
        <time>2021-07-26T09:45:17Z</time>
      </trkpt>
      <trkpt lat="42.415390" lon="-2.602452">
        <ele>575.023</ele>
        <time>2021-07-26T09:45:28Z</time>
      </trkpt>
      <trkpt lat="42.415618" lon="-2.601816">
        <ele>574.023</ele>
        <time>2021-07-26T09:45:38Z</time>
      </trkpt>
      <trkpt lat="42.415848" lon="-2.601159">
        <ele>574.077</ele>
        <time>2021-07-26T09:45:49Z</time>
      </trkpt>
      <trkpt lat="42.416013" lon="-2.600721">
        <ele>573.085</ele>
        <time>2021-07-26T09:45:57Z</time>
      </trkpt>
      <trkpt lat="42.416026" lon="-2.600671">
        <ele>573.052</ele>
        <time>2021-07-26T09:45:58Z</time>
      </trkpt>
      <trkpt lat="42.416041" lon="-2.600617">
        <ele>572.660</ele>
        <time>2021-07-26T09:45:59Z</time>
      </trkpt>
      <trkpt lat="42.416060" lon="-2.600568">
        <ele>572.661</ele>
        <time>2021-07-26T09:46:00Z</time>
      </trkpt>
      <trkpt lat="42.416082" lon="-2.600514">
        <ele>572.121</ele>
        <time>2021-07-26T09:46:01Z</time>
      </trkpt>
      <trkpt lat="42.416324" lon="-2.599995">
        <ele>570.213</ele>
        <time>2021-07-26T09:46:11Z</time>
      </trkpt>
      <trkpt lat="42.416561" lon="-2.599527">
        <ele>568.208</ele>
        <time>2021-07-26T09:46:21Z</time>
      </trkpt>
      <trkpt lat="42.416749" lon="-2.599107">
        <ele>566.823</ele>
        <time>2021-07-26T09:46:30Z</time>
      </trkpt>
      <trkpt lat="42.416951" lon="-2.598627">
        <ele>565.875</ele>
        <time>2021-07-26T09:46:39Z</time>
      </trkpt>
      <trkpt lat="42.417171" lon="-2.598180">
        <ele>563.962</ele>
        <time>2021-07-26T09:46:47Z</time>
      </trkpt>
      <trkpt lat="42.417343" lon="-2.597791">
        <ele>562.552</ele>
        <time>2021-07-26T09:46:54Z</time>
      </trkpt>
      <trkpt lat="42.417617" lon="-2.597242">
        <ele>560.576</ele>
        <time>2021-07-26T09:47:03Z</time>
      </trkpt>
      <trkpt lat="42.417906" lon="-2.596623">
        <ele>559.194</ele>
        <time>2021-07-26T09:47:13Z</time>
      </trkpt>
      <trkpt lat="42.418195" lon="-2.595983">
        <ele>557.221</ele>
        <time>2021-07-26T09:47:23Z</time>
      </trkpt>
      <trkpt lat="42.418487" lon="-2.595380">
        <ele>556.279</ele>
        <time>2021-07-26T09:47:33Z</time>
      </trkpt>
      <trkpt lat="42.418756" lon="-2.594791">
        <ele>555.381</ele>
        <time>2021-07-26T09:47:43Z</time>
      </trkpt>
      <trkpt lat="42.418918" lon="-2.594415">
        <ele>555.361</ele>
        <time>2021-07-26T09:47:50Z</time>
      </trkpt>
      <trkpt lat="42.419149" lon="-2.593920">
        <ele>554.817</ele>
        <time>2021-07-26T09:47:59Z</time>
      </trkpt>
      <trkpt lat="42.419172" lon="-2.593860">
        <ele>554.808</ele>
        <time>2021-07-26T09:48:00Z</time>
      </trkpt>
      <trkpt lat="42.419387" lon="-2.593363">
        <ele>553.895</ele>
        <time>2021-07-26T09:48:09Z</time>
      </trkpt>
      <trkpt lat="42.419639" lon="-2.592736">
        <ele>552.927</ele>
        <time>2021-07-26T09:48:20Z</time>
      </trkpt>
      <trkpt lat="42.419818" lon="-2.592234">
        <ele>554.374</ele>
        <time>2021-07-26T09:48:30Z</time>
      </trkpt>
      <trkpt lat="42.419959" lon="-2.591831">
        <ele>556.224</ele>
        <time>2021-07-26T09:48:40Z</time>
      </trkpt>
      <trkpt lat="42.420058" lon="-2.591503">
        <ele>557.718</ele>
        <time>2021-07-26T09:48:49Z</time>
      </trkpt>
      <trkpt lat="42.420138" lon="-2.591255">
        <ele>558.146</ele>
        <time>2021-07-26T09:48:56Z</time>
      </trkpt>
      <trkpt lat="42.420225" lon="-2.590951">
        <ele>559.643</ele>
        <time>2021-07-26T09:49:04Z</time>
      </trkpt>
      <trkpt lat="42.420315" lon="-2.590580">
        <ele>559.181</ele>
        <time>2021-07-26T09:49:13Z</time>
      </trkpt>
      <trkpt lat="42.420256" lon="-2.590397">
        <ele>559.656</ele>
        <time>2021-07-26T09:49:19Z</time>
      </trkpt>
      <trkpt lat="42.420096" lon="-2.590350">
        <ele>561.059</ele>
        <time>2021-07-26T09:49:26Z</time>
      </trkpt>
      <trkpt lat="42.420004" lon="-2.590273">
        <ele>562.014</ele>
        <time>2021-07-26T09:49:31Z</time>
      </trkpt>
      <trkpt lat="42.419999" lon="-2.590244">
        <ele>562.008</ele>
        <time>2021-07-26T09:49:32Z</time>
      </trkpt>
      <trkpt lat="42.420001" lon="-2.590208">
        <ele>562.042</ele>
        <time>2021-07-26T09:49:33Z</time>
      </trkpt>
      <trkpt lat="42.420011" lon="-2.590167">
        <ele>562.074</ele>
        <time>2021-07-26T09:49:34Z</time>
      </trkpt>
      <trkpt lat="42.420033" lon="-2.590123">
        <ele>562.081</ele>
        <time>2021-07-26T09:49:35Z</time>
      </trkpt>
      <trkpt lat="42.420058" lon="-2.590088">
        <ele>562.081</ele>
        <time>2021-07-26T09:49:36Z</time>
      </trkpt>
      <trkpt lat="42.420090" lon="-2.590052">
        <ele>561.585</ele>
        <time>2021-07-26T09:49:37Z</time>
      </trkpt>
      <trkpt lat="42.420124" lon="-2.590020">
        <ele>561.573</ele>
        <time>2021-07-26T09:49:38Z</time>
      </trkpt>
      <trkpt lat="42.420168" lon="-2.589982">
        <ele>561.520</ele>
        <time>2021-07-26T09:49:39Z</time>
      </trkpt>
      <trkpt lat="42.420246" lon="-2.589902">
        <ele>561.068</ele>
        <time>2021-07-26T09:49:41Z</time>
      </trkpt>
      <trkpt lat="42.420283" lon="-2.589848">
        <ele>561.058</ele>
        <time>2021-07-26T09:49:42Z</time>
      </trkpt>
      <trkpt lat="42.420388" lon="-2.589694">
        <ele>560.152</ele>
        <time>2021-07-26T09:49:45Z</time>
      </trkpt>
      <trkpt lat="42.420431" lon="-2.589657">
        <ele>559.617</ele>
        <time>2021-07-26T09:49:46Z</time>
      </trkpt>
      <trkpt lat="42.420475" lon="-2.589630">
        <ele>559.608</ele>
        <time>2021-07-26T09:49:47Z</time>
      </trkpt>
      <trkpt lat="42.420569" lon="-2.589571">
        <ele>559.162</ele>
        <time>2021-07-26T09:49:49Z</time>
      </trkpt>
      <trkpt lat="42.420612" lon="-2.589522">
        <ele>559.174</ele>
        <time>2021-07-26T09:49:50Z</time>
      </trkpt>
      <trkpt lat="42.420648" lon="-2.589465">
        <ele>558.671</ele>
        <time>2021-07-26T09:49:51Z</time>
      </trkpt>
      <trkpt lat="42.420681" lon="-2.589395">
        <ele>558.621</ele>
        <time>2021-07-26T09:49:52Z</time>
      </trkpt>
      <trkpt lat="42.420715" lon="-2.589320">
        <ele>558.135</ele>
        <time>2021-07-26T09:49:53Z</time>
      </trkpt>
      <trkpt lat="42.420949" lon="-2.588782">
        <ele>557.773</ele>
        <time>2021-07-26T09:50:02Z</time>
      </trkpt>
      <trkpt lat="42.421174" lon="-2.588231">
        <ele>556.280</ele>
        <time>2021-07-26T09:50:11Z</time>
      </trkpt>
      <trkpt lat="42.421430" lon="-2.587616">
        <ele>553.838</ele>
        <time>2021-07-26T09:50:20Z</time>
      </trkpt>
      <trkpt lat="42.421714" lon="-2.586958">
        <ele>551.427</ele>
        <time>2021-07-26T09:50:28Z</time>
      </trkpt>
      <trkpt lat="42.422069" lon="-2.586125">
        <ele>549.068</ele>
        <time>2021-07-26T09:50:37Z</time>
      </trkpt>
      <trkpt lat="42.422499" lon="-2.585122">
        <ele>545.614</ele>
        <time>2021-07-26T09:50:47Z</time>
      </trkpt>
      <trkpt lat="42.422954" lon="-2.584057">
        <ele>542.308</ele>
        <time>2021-07-26T09:50:57Z</time>
      </trkpt>
      <trkpt lat="42.423421" lon="-2.582967">
        <ele>539.489</ele>
        <time>2021-07-26T09:51:07Z</time>
      </trkpt>
      <trkpt lat="42.423952" lon="-2.581726">
        <ele>535.551</ele>
        <time>2021-07-26T09:51:19Z</time>
      </trkpt>
      <trkpt lat="42.424510" lon="-2.580412">
        <ele>531.258</ele>
        <time>2021-07-26T09:51:32Z</time>
      </trkpt>
      <trkpt lat="42.425003" lon="-2.579261">
        <ele>527.418</ele>
        <time>2021-07-26T09:51:43Z</time>
      </trkpt>
      <trkpt lat="42.425459" lon="-2.578190">
        <ele>524.572</ele>
        <time>2021-07-26T09:51:54Z</time>
      </trkpt>
      <trkpt lat="42.425809" lon="-2.577372">
        <ele>522.670</ele>
        <time>2021-07-26T09:52:03Z</time>
      </trkpt>
      <trkpt lat="42.426138" lon="-2.576599">
        <ele>520.687</ele>
        <time>2021-07-26T09:52:12Z</time>
      </trkpt>
      <trkpt lat="42.426472" lon="-2.575820">
        <ele>518.725</ele>
        <time>2021-07-26T09:52:21Z</time>
      </trkpt>
      <trkpt lat="42.426942" lon="-2.574763">
        <ele>514.946</ele>
        <time>2021-07-26T09:52:33Z</time>
      </trkpt>
      <trkpt lat="42.427287" lon="-2.574031">
        <ele>513.088</ele>
        <time>2021-07-26T09:52:42Z</time>
      </trkpt>
      <trkpt lat="42.427551" lon="-2.573471">
        <ele>511.516</ele>
        <time>2021-07-26T09:52:50Z</time>
      </trkpt>
      <trkpt lat="42.427778" lon="-2.573013">
        <ele>511.008</ele>
        <time>2021-07-26T09:52:59Z</time>
      </trkpt>
      <trkpt lat="42.428024" lon="-2.572485">
        <ele>510.641</ele>
        <time>2021-07-26T09:53:09Z</time>
      </trkpt>
      <trkpt lat="42.428238" lon="-2.572030">
        <ele>510.193</ele>
        <time>2021-07-26T09:53:18Z</time>
      </trkpt>
      <trkpt lat="42.428515" lon="-2.571456">
        <ele>509.630</ele>
        <time>2021-07-26T09:53:29Z</time>
      </trkpt>
      <trkpt lat="42.428783" lon="-2.570900">
        <ele>508.620</ele>
        <time>2021-07-26T09:53:39Z</time>
      </trkpt>
      <trkpt lat="42.429059" lon="-2.570320">
        <ele>508.184</ele>
        <time>2021-07-26T09:53:49Z</time>
      </trkpt>
      <trkpt lat="42.429286" lon="-2.569825">
        <ele>507.732</ele>
        <time>2021-07-26T09:53:59Z</time>
      </trkpt>
      <trkpt lat="42.429629" lon="-2.569120">
        <ele>506.779</ele>
        <time>2021-07-26T09:54:12Z</time>
      </trkpt>
      <trkpt lat="42.429960" lon="-2.568391">
        <ele>508.637</ele>
        <time>2021-07-26T09:54:26Z</time>
      </trkpt>
      <trkpt lat="42.430138" lon="-2.567915">
        <ele>511.074</ele>
        <time>2021-07-26T09:54:36Z</time>
      </trkpt>
      <trkpt lat="42.430204" lon="-2.567533">
        <ele>512.556</ele>
        <time>2021-07-26T09:54:44Z</time>
      </trkpt>
      <trkpt lat="42.430291" lon="-2.566993">
        <ele>512.521</ele>
        <time>2021-07-26T09:54:54Z</time>
      </trkpt>
      <trkpt lat="42.430387" lon="-2.566426">
        <ele>510.108</ele>
        <time>2021-07-26T09:55:05Z</time>
      </trkpt>
      <trkpt lat="42.430473" lon="-2.566059">
        <ele>509.154</ele>
        <time>2021-07-26T09:55:15Z</time>
      </trkpt>
      <trkpt lat="42.430544" lon="-2.565621">
        <ele>508.126</ele>
        <time>2021-07-26T09:55:25Z</time>
      </trkpt>
      <trkpt lat="42.430575" lon="-2.565295">
        <ele>507.723</ele>
        <time>2021-07-26T09:55:32Z</time>
      </trkpt>
      <trkpt lat="42.430622" lon="-2.564931">
        <ele>508.173</ele>
        <time>2021-07-26T09:55:40Z</time>
      </trkpt>
      <trkpt lat="42.430621" lon="-2.564657">
        <ele>509.667</ele>
        <time>2021-07-26T09:55:48Z</time>
      </trkpt>
      <trkpt lat="42.430502" lon="-2.564592">
        <ele>508.615</ele>
        <time>2021-07-26T09:55:53Z</time>
      </trkpt>
      <trkpt lat="42.430364" lon="-2.564493">
        <ele>507.242</ele>
        <time>2021-07-26T09:56:00Z</time>
      </trkpt>
      <trkpt lat="42.430212" lon="-2.564377">
        <ele>507.710</ele>
        <time>2021-07-26T09:56:07Z</time>
      </trkpt>
      <trkpt lat="42.430036" lon="-2.564212">
        <ele>509.629</ele>
        <time>2021-07-26T09:56:14Z</time>
      </trkpt>
      <trkpt lat="42.429863" lon="-2.564014">
        <ele>511.000</ele>
        <time>2021-07-26T09:56:23Z</time>
      </trkpt>
      <trkpt lat="42.429732" lon="-2.563766">
        <ele>511.020</ele>
        <time>2021-07-26T09:56:33Z</time>
      </trkpt>
      <trkpt lat="42.429719" lon="-2.563747">
        <ele>510.608</ele>
        <time>2021-07-26T09:56:34Z</time>
      </trkpt>
      <trkpt lat="42.429702" lon="-2.563724">
        <ele>510.689</ele>
        <time>2021-07-26T09:56:35Z</time>
      </trkpt>
      <trkpt lat="42.429686" lon="-2.563700">
        <ele>510.671</ele>
        <time>2021-07-26T09:56:36Z</time>
      </trkpt>
      <trkpt lat="42.429641" lon="-2.563595">
        <ele>509.168</ele>
        <time>2021-07-26T09:56:43Z</time>
      </trkpt>
      <trkpt lat="42.429583" lon="-2.563444">
        <ele>508.618</ele>
        <time>2021-07-26T09:56:52Z</time>
      </trkpt>
      <trkpt lat="42.429496" lon="-2.563278">
        <ele>509.152</ele>
        <time>2021-07-26T09:57:00Z</time>
      </trkpt>
      <trkpt lat="42.429414" lon="-2.563051">
        <ele>509.670</ele>
        <time>2021-07-26T09:57:08Z</time>
      </trkpt>
      <trkpt lat="42.429289" lon="-2.562709">
        <ele>509.647</ele>
        <time>2021-07-26T09:57:19Z</time>
      </trkpt>
      <trkpt lat="42.429181" lon="-2.562406">
        <ele>511.095</ele>
        <time>2021-07-26T09:57:27Z</time>
      </trkpt>
      <trkpt lat="42.429121" lon="-2.562274">
        <ele>510.617</ele>
        <time>2021-07-26T09:57:33Z</time>
      </trkpt>
      <trkpt lat="42.429094" lon="-2.562162">
        <ele>510.687</ele>
        <time>2021-07-26T09:57:38Z</time>
      </trkpt>
      <trkpt lat="42.429102" lon="-2.562140">
        <ele>510.615</ele>
        <time>2021-07-26T09:57:39Z</time>
      </trkpt>
      <trkpt lat="42.429126" lon="-2.562074">
        <ele>510.108</ele>
        <time>2021-07-26T09:57:42Z</time>
      </trkpt>
      <trkpt lat="42.429126" lon="-2.562049">
        <ele>510.158</ele>
        <time>2021-07-26T09:57:43Z</time>
      </trkpt>
      <trkpt lat="42.429124" lon="-2.562027">
        <ele>510.140</ele>
        <time>2021-07-26T09:57:44Z</time>
      </trkpt>
      <trkpt lat="42.429121" lon="-2.562007">
        <ele>510.187</ele>
        <time>2021-07-26T09:57:45Z</time>
      </trkpt>
      <trkpt lat="42.429119" lon="-2.561989">
        <ele>510.647</ele>
        <time>2021-07-26T09:57:46Z</time>
      </trkpt>
      <trkpt lat="42.429114" lon="-2.561800">
        <ele>512.571</ele>
        <time>2021-07-26T09:57:57Z</time>
      </trkpt>
      <trkpt lat="42.429103" lon="-2.561659">
        <ele>513.439</ele>
        <time>2021-07-26T09:58:06Z</time>
      </trkpt>
      <trkpt lat="42.429096" lon="-2.561507">
        <ele>513.976</ele>
        <time>2021-07-26T09:58:15Z</time>
      </trkpt>
      <trkpt lat="42.429095" lon="-2.561464">
        <ele>513.474</ele>
        <time>2021-07-26T09:58:17Z</time>
      </trkpt>
      <trkpt lat="42.429111" lon="-2.561434">
        <ele>513.019</ele>
        <time>2021-07-26T09:58:22Z</time>
      </trkpt>
      <trkpt lat="42.429112" lon="-2.561406">
        <ele>512.009</ele>
        <time>2021-07-26T09:58:28Z</time>
      </trkpt>
      <trkpt lat="42.429104" lon="-2.561414">
        <ele>509.119</ele>
        <time>2021-07-26T09:58:40Z</time>
      </trkpt>
      <trkpt lat="42.429098" lon="-2.561406">
        <ele>511.008</ele>
        <time>2021-07-26T09:58:52Z</time>
      </trkpt>
      <trkpt lat="42.429082" lon="-2.561406">
        <ele>510.618</ele>
        <time>2021-07-26T09:59:06Z</time>
      </trkpt>
      <trkpt lat="42.429095" lon="-2.561399">
        <ele>508.180</ele>
        <time>2021-07-26T09:59:16Z</time>
      </trkpt>
      <trkpt lat="42.429103" lon="-2.561402">
        <ele>506.297</ele>
        <time>2021-07-26T09:59:29Z</time>
      </trkpt>
      <trkpt lat="42.429126" lon="-2.561390">
        <ele>507.257</ele>
        <time>2021-07-26T09:59:39Z</time>
      </trkpt>
      <trkpt lat="42.429132" lon="-2.561417">
        <ele>505.331</ele>
        <time>2021-07-26T09:59:55Z</time>
      </trkpt>
      <trkpt lat="42.429172" lon="-2.561428">
        <ele>502.419</ele>
        <time>2021-07-26T10:00:05Z</time>
      </trkpt>
      <trkpt lat="42.429160" lon="-2.561412">
        <ele>501.486</ele>
        <time>2021-07-26T10:00:18Z</time>
      </trkpt>
      <trkpt lat="42.429167" lon="-2.561400">
        <ele>500.934</ele>
        <time>2021-07-26T10:00:28Z</time>
      </trkpt>
      <trkpt lat="42.429175" lon="-2.561440">
        <ele>499.071</ele>
        <time>2021-07-26T10:00:44Z</time>
      </trkpt>
      <trkpt lat="42.429194" lon="-2.561444">
        <ele>501.441</ele>
        <time>2021-07-26T10:00:53Z</time>
      </trkpt>
      <trkpt lat="42.429196" lon="-2.561449">
        <ele>501.915</ele>
        <time>2021-07-26T10:00:54Z</time>
      </trkpt>
      <trkpt lat="42.429216" lon="-2.561486">
        <ele>506.708</ele>
        <time>2021-07-26T10:01:04Z</time>
      </trkpt>
      <trkpt lat="42.429232" lon="-2.561477">
        <ele>509.684</ele>
        <time>2021-07-26T10:01:13Z</time>
      </trkpt>
      <trkpt lat="42.429305" lon="-2.561498">
        <ele>511.566</ele>
        <time>2021-07-26T10:01:22Z</time>
      </trkpt>
      <trkpt lat="42.429315" lon="-2.561501">
        <ele>511.583</ele>
        <time>2021-07-26T10:01:23Z</time>
      </trkpt>
      <trkpt lat="42.429423" lon="-2.561518">
        <ele>513.093</ele>
        <time>2021-07-26T10:01:34Z</time>
      </trkpt>
      <trkpt lat="42.429465" lon="-2.561496">
        <ele>513.427</ele>
        <time>2021-07-26T10:01:41Z</time>
      </trkpt>
      <trkpt lat="42.429469" lon="-2.561434">
        <ele>513.085</ele>
        <time>2021-07-26T10:01:49Z</time>
      </trkpt>
      <trkpt lat="42.429479" lon="-2.561432">
        <ele>515.422</ele>
        <time>2021-07-26T10:02:03Z</time>
      </trkpt>
      <trkpt lat="42.429462" lon="-2.561459">
        <ele>518.770</ele>
        <time>2021-07-26T10:02:18Z</time>
      </trkpt>
      <trkpt lat="42.429465" lon="-2.561462">
        <ele>518.297</ele>
        <time>2021-07-26T10:02:34Z</time>
      </trkpt>
      <trkpt lat="42.429464" lon="-2.561447">
        <ele>521.123</ele>
        <time>2021-07-26T10:02:48Z</time>
      </trkpt>
      <trkpt lat="42.429466" lon="-2.561392">
        <ele>523.525</ele>
        <time>2021-07-26T10:03:04Z</time>
      </trkpt>
      <trkpt lat="42.429434" lon="-2.561427">
        <ele>526.408</ele>
        <time>2021-07-26T10:03:24Z</time>
      </trkpt>
      <trkpt lat="42.429441" lon="-2.561452">
        <ele>526.996</ele>
        <time>2021-07-26T10:03:39Z</time>
      </trkpt>
      <trkpt lat="42.429456" lon="-2.561462">
        <ele>527.978</ele>
        <time>2021-07-26T10:03:58Z</time>
      </trkpt>
      <trkpt lat="42.429448" lon="-2.561423">
        <ele>528.385</ele>
        <time>2021-07-26T10:04:17Z</time>
      </trkpt>
      <trkpt lat="42.429442" lon="-2.561383">
        <ele>527.485</ele>
        <time>2021-07-26T10:04:35Z</time>
      </trkpt>
      <trkpt lat="42.429447" lon="-2.561387">
        <ele>527.969</ele>
        <time>2021-07-26T10:04:50Z</time>
      </trkpt>
      <trkpt lat="42.429471" lon="-2.561386">
        <ele>526.997</ele>
        <time>2021-07-26T10:05:11Z</time>
      </trkpt>
      <trkpt lat="42.429455" lon="-2.561406">
        <ele>524.594</ele>
        <time>2021-07-26T10:05:35Z</time>
      </trkpt>
      <trkpt lat="42.429437" lon="-2.561393">
        <ele>524.052</ele>
        <time>2021-07-26T10:05:53Z</time>
      </trkpt>
      <trkpt lat="42.429421" lon="-2.561414">
        <ele>523.525</ele>
        <time>2021-07-26T10:06:09Z</time>
      </trkpt>
      <trkpt lat="42.429412" lon="-2.561428">
        <ele>522.626</ele>
        <time>2021-07-26T10:06:26Z</time>
      </trkpt>
      <trkpt lat="42.429421" lon="-2.561431">
        <ele>522.608</ele>
        <time>2021-07-26T10:06:42Z</time>
      </trkpt>
      <trkpt lat="42.429421" lon="-2.561440">
        <ele>522.608</ele>
        <time>2021-07-26T10:07:00Z</time>
      </trkpt>
      <trkpt lat="42.429485" lon="-2.561441">
        <ele>520.639</ele>
        <time>2021-07-26T10:07:19Z</time>
      </trkpt>
      <trkpt lat="42.429507" lon="-2.561446">
        <ele>518.231</ele>
        <time>2021-07-26T10:07:31Z</time>
      </trkpt>
      <trkpt lat="42.429517" lon="-2.561436">
        <ele>514.958</ele>
        <time>2021-07-26T10:07:49Z</time>
      </trkpt>
      <trkpt lat="42.429500" lon="-2.561450">
        <ele>512.538</ele>
        <time>2021-07-26T10:08:07Z</time>
      </trkpt>
      <trkpt lat="42.429469" lon="-2.561440">
        <ele>513.972</ele>
        <time>2021-07-26T10:08:23Z</time>
      </trkpt>
      <trkpt lat="42.429443" lon="-2.561456">
        <ele>513.990</ele>
        <time>2021-07-26T10:08:44Z</time>
      </trkpt>
      <trkpt lat="42.429458" lon="-2.561474">
        <ele>516.897</ele>
        <time>2021-07-26T10:09:02Z</time>
      </trkpt>
      <trkpt lat="42.429467" lon="-2.561463">
        <ele>518.785</ele>
        <time>2021-07-26T10:09:23Z</time>
      </trkpt>
      <trkpt lat="42.429467" lon="-2.561444">
        <ele>519.221</ele>
        <time>2021-07-26T10:09:39Z</time>
      </trkpt>
      <trkpt lat="42.429481" lon="-2.561456">
        <ele>518.741</ele>
        <time>2021-07-26T10:09:55Z</time>
      </trkpt>
      <trkpt lat="42.429492" lon="-2.561454">
        <ele>517.305</ele>
        <time>2021-07-26T10:10:10Z</time>
      </trkpt>
      <trkpt lat="42.429471" lon="-2.561441">
        <ele>514.908</ele>
        <time>2021-07-26T10:10:26Z</time>
      </trkpt>
      <trkpt lat="42.429462" lon="-2.561425">
        <ele>513.459</ele>
        <time>2021-07-26T10:10:48Z</time>
      </trkpt>
      <trkpt lat="42.429428" lon="-2.561430">
        <ele>513.991</ele>
        <time>2021-07-26T10:11:09Z</time>
      </trkpt>
      <trkpt lat="42.429437" lon="-2.561444">
        <ele>515.418</ele>
        <time>2021-07-26T10:11:28Z</time>
      </trkpt>
      <trkpt lat="42.429455" lon="-2.561448">
        <ele>513.448</ele>
        <time>2021-07-26T10:11:49Z</time>
      </trkpt>
      <trkpt lat="42.429452" lon="-2.561415">
        <ele>513.962</ele>
        <time>2021-07-26T10:12:05Z</time>
      </trkpt>
      <trkpt lat="42.429446" lon="-2.561389">
        <ele>515.890</ele>
        <time>2021-07-26T10:12:22Z</time>
      </trkpt>
      <trkpt lat="42.429446" lon="-2.561384">
        <ele>518.237</ele>
        <time>2021-07-26T10:12:42Z</time>
      </trkpt>
      <trkpt lat="42.429465" lon="-2.561389">
        <ele>518.225</ele>
        <time>2021-07-26T10:12:50Z</time>
      </trkpt>
      <trkpt lat="42.429478" lon="-2.561426">
        <ele>518.732</ele>
        <time>2021-07-26T10:12:55Z</time>
      </trkpt>
      <trkpt lat="42.429478" lon="-2.561506">
        <ele>518.292</ele>
        <time>2021-07-26T10:13:00Z</time>
      </trkpt>
      <trkpt lat="42.429435" lon="-2.561509">
        <ele>517.311</ele>
        <time>2021-07-26T10:13:06Z</time>
      </trkpt>
      <trkpt lat="42.429412" lon="-2.561501">
        <ele>517.308</ele>
        <time>2021-07-26T10:13:09Z</time>
      </trkpt>
      <trkpt lat="42.429207" lon="-2.561492">
        <ele>513.960</ele>
        <time>2021-07-26T10:13:18Z</time>
      </trkpt>
      <trkpt lat="42.429173" lon="-2.561472">
        <ele>513.492</ele>
        <time>2021-07-26T10:13:20Z</time>
      </trkpt>
      <trkpt lat="42.429131" lon="-2.561303">
        <ele>509.189</ele>
        <time>2021-07-26T10:13:27Z</time>
      </trkpt>
      <trkpt lat="42.429119" lon="-2.561209">
        <ele>508.679</ele>
        <time>2021-07-26T10:13:30Z</time>
      </trkpt>
      <trkpt lat="42.429113" lon="-2.561085">
        <ele>508.653</ele>
        <time>2021-07-26T10:13:34Z</time>
      </trkpt>
      <trkpt lat="42.429107" lon="-2.560872">
        <ele>507.291</ele>
        <time>2021-07-26T10:13:41Z</time>
      </trkpt>
      <trkpt lat="42.429174" lon="-2.560633">
        <ele>505.318</ele>
        <time>2021-07-26T10:13:49Z</time>
      </trkpt>
      <trkpt lat="42.429233" lon="-2.560298">
        <ele>506.276</ele>
        <time>2021-07-26T10:14:00Z</time>
      </trkpt>
      <trkpt lat="42.429299" lon="-2.559986">
        <ele>509.163</ele>
        <time>2021-07-26T10:14:10Z</time>
      </trkpt>
      <trkpt lat="42.429394" lon="-2.559726">
        <ele>509.144</ele>
        <time>2021-07-26T10:14:19Z</time>
      </trkpt>
      <trkpt lat="42.429451" lon="-2.559602">
        <ele>508.618</ele>
        <time>2021-07-26T10:14:26Z</time>
      </trkpt>
      <trkpt lat="42.429457" lon="-2.559606">
        <ele>508.108</ele>
        <time>2021-07-26T10:14:33Z</time>
      </trkpt>
      <trkpt lat="42.429496" lon="-2.559524">
        <ele>508.623</ele>
        <time>2021-07-26T10:14:42Z</time>
      </trkpt>
      <trkpt lat="42.429591" lon="-2.559380">
        <ele>508.195</ele>
        <time>2021-07-26T10:14:49Z</time>
      </trkpt>
      <trkpt lat="42.429680" lon="-2.559268">
        <ele>506.762</ele>
        <time>2021-07-26T10:14:55Z</time>
      </trkpt>
      <trkpt lat="42.429810" lon="-2.559130">
        <ele>507.262</ele>
        <time>2021-07-26T10:15:02Z</time>
      </trkpt>
      <trkpt lat="42.429999" lon="-2.558951">
        <ele>506.216</ele>
        <time>2021-07-26T10:15:11Z</time>
      </trkpt>
      <trkpt lat="42.430121" lon="-2.558946">
        <ele>504.814</ele>
        <time>2021-07-26T10:15:16Z</time>
      </trkpt>
      <trkpt lat="42.430344" lon="-2.558937">
        <ele>504.311</ele>
        <time>2021-07-26T10:15:23Z</time>
      </trkpt>
      <trkpt lat="42.430581" lon="-2.558930">
        <ele>503.849</ele>
        <time>2021-07-26T10:15:30Z</time>
      </trkpt>
      <trkpt lat="42.430857" lon="-2.558956">
        <ele>502.499</ele>
        <time>2021-07-26T10:15:37Z</time>
      </trkpt>
      <trkpt lat="42.431020" lon="-2.558983">
        <ele>501.407</ele>
        <time>2021-07-26T10:15:42Z</time>
      </trkpt>
      <trkpt lat="42.431049" lon="-2.558969">
        <ele>501.927</ele>
        <time>2021-07-26T10:15:43Z</time>
      </trkpt>
      <trkpt lat="42.431287" lon="-2.559056">
        <ele>504.808</ele>
        <time>2021-07-26T10:15:51Z</time>
      </trkpt>
      <trkpt lat="42.431403" lon="-2.559106">
        <ele>506.266</ele>
        <time>2021-07-26T10:15:54Z</time>
      </trkpt>
      <trkpt lat="42.431835" lon="-2.559197">
        <ele>508.648</ele>
        <time>2021-07-26T10:16:04Z</time>
      </trkpt>
      <trkpt lat="42.432062" lon="-2.559243">
        <ele>509.135</ele>
        <time>2021-07-26T10:16:11Z</time>
      </trkpt>
      <trkpt lat="42.432189" lon="-2.559217">
        <ele>505.345</ele>
        <time>2021-07-26T10:16:15Z</time>
      </trkpt>
      <trkpt lat="42.432223" lon="-2.559123">
        <ele>501.979</ele>
        <time>2021-07-26T10:16:19Z</time>
      </trkpt>
      <trkpt lat="42.432218" lon="-2.559087">
        <ele>501.417</ele>
        <time>2021-07-26T10:16:20Z</time>
      </trkpt>
      <trkpt lat="42.432213" lon="-2.559056">
        <ele>500.524</ele>
        <time>2021-07-26T10:16:21Z</time>
      </trkpt>
      <trkpt lat="42.432139" lon="-2.558785">
        <ele>497.652</ele>
        <time>2021-07-26T10:16:26Z</time>
      </trkpt>
      <trkpt lat="42.431997" lon="-2.558289">
        <ele>494.263</ele>
        <time>2021-07-26T10:16:32Z</time>
      </trkpt>
      <trkpt lat="42.431784" lon="-2.557597">
        <ele>488.944</ele>
        <time>2021-07-26T10:16:38Z</time>
      </trkpt>
      <trkpt lat="42.431533" lon="-2.556721">
        <ele>483.218</ele>
        <time>2021-07-26T10:16:45Z</time>
      </trkpt>
      <trkpt lat="42.431337" lon="-2.556151">
        <ele>481.708</ele>
        <time>2021-07-26T10:16:51Z</time>
      </trkpt>
      <trkpt lat="42.431263" lon="-2.555931">
        <ele>481.283</ele>
        <time>2021-07-26T10:16:56Z</time>
      </trkpt>
      <trkpt lat="42.431266" lon="-2.555929">
        <ele>480.885</ele>
        <time>2021-07-26T10:17:04Z</time>
      </trkpt>
      <trkpt lat="42.431266" lon="-2.555910">
        <ele>478.882</ele>
        <time>2021-07-26T10:17:21Z</time>
      </trkpt>
      <trkpt lat="42.431254" lon="-2.555888">
        <ele>478.312</ele>
        <time>2021-07-26T10:17:29Z</time>
      </trkpt>
      <trkpt lat="42.431184" lon="-2.555740">
        <ele>478.396</ele>
        <time>2021-07-26T10:17:36Z</time>
      </trkpt>
      <trkpt lat="42.431031" lon="-2.555590">
        <ele>478.834</ele>
        <time>2021-07-26T10:17:43Z</time>
      </trkpt>
      <trkpt lat="42.430899" lon="-2.555386">
        <ele>478.861</ele>
        <time>2021-07-26T10:17:50Z</time>
      </trkpt>
      <trkpt lat="42.430934" lon="-2.555195">
        <ele>478.879</ele>
        <time>2021-07-26T10:17:56Z</time>
      </trkpt>
      <trkpt lat="42.431074" lon="-2.555126">
        <ele>478.374</ele>
        <time>2021-07-26T10:18:01Z</time>
      </trkpt>
      <trkpt lat="42.431233" lon="-2.555257">
        <ele>477.956</ele>
        <time>2021-07-26T10:18:06Z</time>
      </trkpt>
      <trkpt lat="42.431274" lon="-2.555525">
        <ele>477.921</ele>
        <time>2021-07-26T10:18:12Z</time>
      </trkpt>
      <trkpt lat="42.431351" lon="-2.555837">
        <ele>478.808</ele>
        <time>2021-07-26T10:18:20Z</time>
      </trkpt>
      <trkpt lat="42.431474" lon="-2.556253">
        <ele>479.334</ele>
        <time>2021-07-26T10:18:30Z</time>
      </trkpt>
      <trkpt lat="42.431602" lon="-2.556653">
        <ele>479.396</ele>
        <time>2021-07-26T10:18:40Z</time>
      </trkpt>
      <trkpt lat="42.431726" lon="-2.557060">
        <ele>480.863</ele>
        <time>2021-07-26T10:18:51Z</time>
      </trkpt>
      <trkpt lat="42.431840" lon="-2.557432">
        <ele>483.633</ele>
        <time>2021-07-26T10:19:02Z</time>
      </trkpt>
      <trkpt lat="42.431895" lon="-2.557601">
        <ele>485.157</ele>
        <time>2021-07-26T10:19:09Z</time>
      </trkpt>
      <trkpt lat="42.431968" lon="-2.557866">
        <ele>487.015</ele>
        <time>2021-07-26T10:19:19Z</time>
      </trkpt>
      <trkpt lat="42.432053" lon="-2.558160">
        <ele>489.422</ele>
        <time>2021-07-26T10:19:30Z</time>
      </trkpt>
      <trkpt lat="42.432126" lon="-2.558416">
        <ele>491.810</ele>
        <time>2021-07-26T10:19:41Z</time>
      </trkpt>
      <trkpt lat="42.432167" lon="-2.558529">
        <ele>492.833</ele>
        <time>2021-07-26T10:19:50Z</time>
      </trkpt>
      <trkpt lat="42.432221" lon="-2.558710">
        <ele>493.223</ele>
        <time>2021-07-26T10:20:00Z</time>
      </trkpt>
      <trkpt lat="42.432282" lon="-2.558891">
        <ele>494.715</ele>
        <time>2021-07-26T10:20:09Z</time>
      </trkpt>
      <trkpt lat="42.432356" lon="-2.559110">
        <ele>496.608</ele>
        <time>2021-07-26T10:20:19Z</time>
      </trkpt>
      <trkpt lat="42.432421" lon="-2.559284">
        <ele>497.150</ele>
        <time>2021-07-26T10:20:29Z</time>
      </trkpt>
      <trkpt lat="42.432431" lon="-2.559296">
        <ele>496.192</ele>
        <time>2021-07-26T10:20:37Z</time>
      </trkpt>
      <trkpt lat="42.432434" lon="-2.559298">
        <ele>495.289</ele>
        <time>2021-07-26T10:20:54Z</time>
      </trkpt>
      <trkpt lat="42.432448" lon="-2.559316">
        <ele>495.229</ele>
        <time>2021-07-26T10:21:09Z</time>
      </trkpt>
      <trkpt lat="42.432443" lon="-2.559309">
        <ele>497.113</ele>
        <time>2021-07-26T10:21:28Z</time>
      </trkpt>
      <trkpt lat="42.432436" lon="-2.559297">
        <ele>495.781</ele>
        <time>2021-07-26T10:21:49Z</time>
      </trkpt>
      <trkpt lat="42.432428" lon="-2.559300">
        <ele>494.788</ele>
        <time>2021-07-26T10:22:03Z</time>
      </trkpt>
      <trkpt lat="42.432454" lon="-2.559307">
        <ele>494.246</ele>
        <time>2021-07-26T10:22:06Z</time>
      </trkpt>
      <trkpt lat="42.432470" lon="-2.559317">
        <ele>494.793</ele>
        <time>2021-07-26T10:22:07Z</time>
      </trkpt>
      <trkpt lat="42.432656" lon="-2.559405">
        <ele>494.765</ele>
        <time>2021-07-26T10:22:14Z</time>
      </trkpt>
      <trkpt lat="42.432792" lon="-2.559441">
        <ele>493.721</ele>
        <time>2021-07-26T10:22:17Z</time>
      </trkpt>
      <trkpt lat="42.432838" lon="-2.559445">
        <ele>493.208</ele>
        <time>2021-07-26T10:22:18Z</time>
      </trkpt>
      <trkpt lat="42.432873" lon="-2.559436">
        <ele>493.296</ele>
        <time>2021-07-26T10:22:19Z</time>
      </trkpt>
      <trkpt lat="42.432891" lon="-2.559412">
        <ele>492.818</ele>
        <time>2021-07-26T10:22:20Z</time>
      </trkpt>
      <trkpt lat="42.432866" lon="-2.559358">
        <ele>491.885</ele>
        <time>2021-07-26T10:22:22Z</time>
      </trkpt>
      <trkpt lat="42.432833" lon="-2.559349">
        <ele>491.325</ele>
        <time>2021-07-26T10:22:23Z</time>
      </trkpt>
      <trkpt lat="42.432807" lon="-2.559343">
        <ele>490.859</ele>
        <time>2021-07-26T10:22:24Z</time>
      </trkpt>
      <trkpt lat="42.432771" lon="-2.559332">
        <ele>490.877</ele>
        <time>2021-07-26T10:22:25Z</time>
      </trkpt>
      <trkpt lat="42.432614" lon="-2.559239">
        <ele>489.434</ele>
        <time>2021-07-26T10:22:30Z</time>
      </trkpt>
      <trkpt lat="42.432590" lon="-2.559185">
        <ele>489.442</ele>
        <time>2021-07-26T10:22:31Z</time>
      </trkpt>
      <trkpt lat="42.432577" lon="-2.559123">
        <ele>488.912</ele>
        <time>2021-07-26T10:22:32Z</time>
      </trkpt>
      <trkpt lat="42.432581" lon="-2.559048">
        <ele>488.432</ele>
        <time>2021-07-26T10:22:33Z</time>
      </trkpt>
      <trkpt lat="42.432603" lon="-2.558970">
        <ele>488.005</ele>
        <time>2021-07-26T10:22:34Z</time>
      </trkpt>
      <trkpt lat="42.432639" lon="-2.558886">
        <ele>487.008</ele>
        <time>2021-07-26T10:22:35Z</time>
      </trkpt>
      <trkpt lat="42.432683" lon="-2.558799">
        <ele>486.538</ele>
        <time>2021-07-26T10:22:36Z</time>
      </trkpt>
      <trkpt lat="42.432843" lon="-2.558423">
        <ele>484.640</ele>
        <time>2021-07-26T10:22:41Z</time>
      </trkpt>
      <trkpt lat="42.432916" lon="-2.558147">
        <ele>482.217</ele>
        <time>2021-07-26T10:22:46Z</time>
      </trkpt>
      <trkpt lat="42.433008" lon="-2.557805">
        <ele>478.887</ele>
        <time>2021-07-26T10:22:51Z</time>
      </trkpt>
      <trkpt lat="42.433206" lon="-2.557086">
        <ele>475.551</ele>
        <time>2021-07-26T10:22:59Z</time>
      </trkpt>
      <trkpt lat="42.433317" lon="-2.556739">
        <ele>474.589</ele>
        <time>2021-07-26T10:23:03Z</time>
      </trkpt>
      <trkpt lat="42.433337" lon="-2.556656">
        <ele>474.566</ele>
        <time>2021-07-26T10:23:04Z</time>
      </trkpt>
      <trkpt lat="42.433356" lon="-2.556580">
        <ele>474.564</ele>
        <time>2021-07-26T10:23:05Z</time>
      </trkpt>
      <trkpt lat="42.433563" lon="-2.555873">
        <ele>472.189</ele>
        <time>2021-07-26T10:23:15Z</time>
      </trkpt>
      <trkpt lat="42.433726" lon="-2.555271">
        <ele>471.606</ele>
        <time>2021-07-26T10:23:25Z</time>
      </trkpt>
      <trkpt lat="42.433888" lon="-2.554702">
        <ele>470.726</ele>
        <time>2021-07-26T10:23:34Z</time>
      </trkpt>
      <trkpt lat="42.433908" lon="-2.554642">
        <ele>470.708</ele>
        <time>2021-07-26T10:23:35Z</time>
      </trkpt>
      <trkpt lat="42.434088" lon="-2.554068">
        <ele>470.265</ele>
        <time>2021-07-26T10:23:45Z</time>
      </trkpt>
      <trkpt lat="42.434231" lon="-2.553543">
        <ele>470.217</ele>
        <time>2021-07-26T10:23:54Z</time>
      </trkpt>
      <trkpt lat="42.434275" lon="-2.553387">
        <ele>469.714</ele>
        <time>2021-07-26T10:23:57Z</time>
      </trkpt>
      <trkpt lat="42.434444" lon="-2.552873">
        <ele>469.794</ele>
        <time>2021-07-26T10:24:07Z</time>
      </trkpt>
      <trkpt lat="42.434618" lon="-2.552241">
        <ele>470.268</ele>
        <time>2021-07-26T10:24:18Z</time>
      </trkpt>
      <trkpt lat="42.434779" lon="-2.551629">
        <ele>469.796</ele>
        <time>2021-07-26T10:24:29Z</time>
      </trkpt>
      <trkpt lat="42.434833" lon="-2.551446">
        <ele>470.213</ele>
        <time>2021-07-26T10:24:35Z</time>
      </trkpt>
      <trkpt lat="42.434932" lon="-2.551158">
        <ele>470.711</ele>
        <time>2021-07-26T10:24:43Z</time>
      </trkpt>
      <trkpt lat="42.435004" lon="-2.550948">
        <ele>472.131</ele>
        <time>2021-07-26T10:24:52Z</time>
      </trkpt>
      <trkpt lat="42.435180" lon="-2.550654">
        <ele>474.061</ele>
        <time>2021-07-26T10:25:03Z</time>
      </trkpt>
      <trkpt lat="42.435305" lon="-2.550509">
        <ele>475.507</ele>
        <time>2021-07-26T10:25:10Z</time>
      </trkpt>
      <trkpt lat="42.435429" lon="-2.550353">
        <ele>476.908</ele>
        <time>2021-07-26T10:25:17Z</time>
      </trkpt>
      <trkpt lat="42.435613" lon="-2.550117">
        <ele>477.970</ele>
        <time>2021-07-26T10:25:27Z</time>
      </trkpt>
      <trkpt lat="42.435794" lon="-2.549865">
        <ele>477.972</ele>
        <time>2021-07-26T10:25:37Z</time>
      </trkpt>
      <trkpt lat="42.435917" lon="-2.549659">
        <ele>476.949</ele>
        <time>2021-07-26T10:25:44Z</time>
      </trkpt>
      <trkpt lat="42.435922" lon="-2.549515">
        <ele>476.459</ele>
        <time>2021-07-26T10:25:47Z</time>
      </trkpt>
      <trkpt lat="42.435913" lon="-2.549459">
        <ele>476.433</ele>
        <time>2021-07-26T10:25:48Z</time>
      </trkpt>
      <trkpt lat="42.435898" lon="-2.549399">
        <ele>475.951</ele>
        <time>2021-07-26T10:25:49Z</time>
      </trkpt>
      <trkpt lat="42.435874" lon="-2.549343">
        <ele>475.948</ele>
        <time>2021-07-26T10:25:50Z</time>
      </trkpt>
      <trkpt lat="42.435845" lon="-2.549286">
        <ele>475.546</ele>
        <time>2021-07-26T10:25:51Z</time>
      </trkpt>
      <trkpt lat="42.435818" lon="-2.549233">
        <ele>475.085</ele>
        <time>2021-07-26T10:25:52Z</time>
      </trkpt>
      <trkpt lat="42.435794" lon="-2.549178">
        <ele>475.089</ele>
        <time>2021-07-26T10:25:53Z</time>
      </trkpt>
      <trkpt lat="42.435647" lon="-2.548810">
        <ele>472.617</ele>
        <time>2021-07-26T10:25:59Z</time>
      </trkpt>
      <trkpt lat="42.435559" lon="-2.548269">
        <ele>471.608</ele>
        <time>2021-07-26T10:26:07Z</time>
      </trkpt>
      <trkpt lat="42.435591" lon="-2.547936">
        <ele>471.655</ele>
        <time>2021-07-26T10:26:14Z</time>
      </trkpt>
      <trkpt lat="42.435665" lon="-2.547631">
        <ele>472.657</ele>
        <time>2021-07-26T10:26:21Z</time>
      </trkpt>
      <trkpt lat="42.435743" lon="-2.547233">
        <ele>473.584</ele>
        <time>2021-07-26T10:26:30Z</time>
      </trkpt>
      <trkpt lat="42.435802" lon="-2.546779">
        <ele>473.574</ele>
        <time>2021-07-26T10:26:40Z</time>
      </trkpt>
      <trkpt lat="42.435839" lon="-2.546431">
        <ele>473.528</ele>
        <time>2021-07-26T10:26:48Z</time>
      </trkpt>
      <trkpt lat="42.435932" lon="-2.545880">
        <ele>474.026</ele>
        <time>2021-07-26T10:27:00Z</time>
      </trkpt>
      <trkpt lat="42.436029" lon="-2.545337">
        <ele>475.543</ele>
        <time>2021-07-26T10:27:13Z</time>
      </trkpt>
      <trkpt lat="42.436084" lon="-2.544997">
        <ele>475.031</ele>
        <time>2021-07-26T10:27:22Z</time>
      </trkpt>
      <trkpt lat="42.436139" lon="-2.544543">
        <ele>475.571</ele>
        <time>2021-07-26T10:27:31Z</time>
      </trkpt>
      <trkpt lat="42.436228" lon="-2.543799">
        <ele>476.941</ele>
        <time>2021-07-26T10:27:46Z</time>
      </trkpt>
      <trkpt lat="42.436270" lon="-2.543470">
        <ele>477.915</ele>
        <time>2021-07-26T10:27:55Z</time>
      </trkpt>
      <trkpt lat="42.436306" lon="-2.543122">
        <ele>479.308</ele>
        <time>2021-07-26T10:28:05Z</time>
      </trkpt>
      <trkpt lat="42.436346" lon="-2.542812">
        <ele>480.354</ele>
        <time>2021-07-26T10:28:15Z</time>
      </trkpt>
      <trkpt lat="42.436365" lon="-2.542732">
        <ele>480.836</ele>
        <time>2021-07-26T10:28:20Z</time>
      </trkpt>
      <trkpt lat="42.436471" lon="-2.542511">
        <ele>482.283</ele>
        <time>2021-07-26T10:28:30Z</time>
      </trkpt>
      <trkpt lat="42.436542" lon="-2.542450">
        <ele>482.233</ele>
        <time>2021-07-26T10:28:36Z</time>
      </trkpt>
      <trkpt lat="42.436556" lon="-2.542449">
        <ele>482.287</ele>
        <time>2021-07-26T10:28:37Z</time>
      </trkpt>
      <trkpt lat="42.436568" lon="-2.542448">
        <ele>482.275</ele>
        <time>2021-07-26T10:28:38Z</time>
      </trkpt>
      <trkpt lat="42.436586" lon="-2.542451">
        <ele>482.282</ele>
        <time>2021-07-26T10:28:40Z</time>
      </trkpt>
      <trkpt lat="42.436606" lon="-2.542447">
        <ele>482.260</ele>
        <time>2021-07-26T10:28:41Z</time>
      </trkpt>
      <trkpt lat="42.436620" lon="-2.542446">
        <ele>482.272</ele>
        <time>2021-07-26T10:28:42Z</time>
      </trkpt>
      <trkpt lat="42.436634" lon="-2.542447">
        <ele>482.213</ele>
        <time>2021-07-26T10:28:43Z</time>
      </trkpt>
      <trkpt lat="42.436646" lon="-2.542448">
        <ele>482.214</ele>
        <time>2021-07-26T10:28:44Z</time>
      </trkpt>
      <trkpt lat="42.436661" lon="-2.542449">
        <ele>482.208</ele>
        <time>2021-07-26T10:28:45Z</time>
      </trkpt>
      <trkpt lat="42.436676" lon="-2.542452">
        <ele>482.234</ele>
        <time>2021-07-26T10:28:46Z</time>
      </trkpt>
      <trkpt lat="42.436694" lon="-2.542457">
        <ele>482.216</ele>
        <time>2021-07-26T10:28:47Z</time>
      </trkpt>
      <trkpt lat="42.436715" lon="-2.542462">
        <ele>482.233</ele>
        <time>2021-07-26T10:28:48Z</time>
      </trkpt>
      <trkpt lat="42.436962" lon="-2.542533">
        <ele>482.763</ele>
        <time>2021-07-26T10:28:56Z</time>
      </trkpt>
      <trkpt lat="42.437314" lon="-2.542688">
        <ele>482.237</ele>
        <time>2021-07-26T10:29:05Z</time>
      </trkpt>
      <trkpt lat="42.437802" lon="-2.542908">
        <ele>481.255</ele>
        <time>2021-07-26T10:29:17Z</time>
      </trkpt>
      <trkpt lat="42.438147" lon="-2.543063">
        <ele>480.392</ele>
        <time>2021-07-26T10:29:25Z</time>
      </trkpt>
      <trkpt lat="42.438671" lon="-2.543298">
        <ele>478.870</ele>
        <time>2021-07-26T10:29:37Z</time>
      </trkpt>
      <trkpt lat="42.439185" lon="-2.543469">
        <ele>478.337</ele>
        <time>2021-07-26T10:29:48Z</time>
      </trkpt>
      <trkpt lat="42.439557" lon="-2.543496">
        <ele>477.449</ele>
        <time>2021-07-26T10:29:57Z</time>
      </trkpt>
      <trkpt lat="42.439632" lon="-2.543457">
        <ele>476.413</ele>
        <time>2021-07-26T10:30:01Z</time>
      </trkpt>
      <trkpt lat="42.439638" lon="-2.543439">
        <ele>476.408</ele>
        <time>2021-07-26T10:30:02Z</time>
      </trkpt>
      <trkpt lat="42.439629" lon="-2.543267">
        <ele>479.310</ele>
        <time>2021-07-26T10:30:09Z</time>
      </trkpt>
      <trkpt lat="42.439590" lon="-2.543002">
        <ele>482.232</ele>
        <time>2021-07-26T10:30:20Z</time>
      </trkpt>
      <trkpt lat="42.439587" lon="-2.542759">
        <ele>483.219</ele>
        <time>2021-07-26T10:30:28Z</time>
      </trkpt>
      <trkpt lat="42.439593" lon="-2.542502">
        <ele>484.189</ele>
        <time>2021-07-26T10:30:37Z</time>
      </trkpt>
      <trkpt lat="42.439518" lon="-2.542233">
        <ele>486.013</ele>
        <time>2021-07-26T10:30:49Z</time>
      </trkpt>
      <trkpt lat="42.439523" lon="-2.542239">
        <ele>485.131</ele>
        <time>2021-07-26T10:31:04Z</time>
      </trkpt>
      <trkpt lat="42.439501" lon="-2.542152">
        <ele>486.558</ele>
        <time>2021-07-26T10:31:13Z</time>
      </trkpt>
      <trkpt lat="42.439434" lon="-2.541939">
        <ele>488.046</ele>
        <time>2021-07-26T10:31:21Z</time>
      </trkpt>
      <trkpt lat="42.439374" lon="-2.541724">
        <ele>488.025</ele>
        <time>2021-07-26T10:31:30Z</time>
      </trkpt>
      <trkpt lat="42.439375" lon="-2.541705">
        <ele>488.026</ele>
        <time>2021-07-26T10:31:31Z</time>
      </trkpt>
      <trkpt lat="42.439375" lon="-2.541685">
        <ele>488.008</ele>
        <time>2021-07-26T10:31:32Z</time>
      </trkpt>
      <trkpt lat="42.439375" lon="-2.541660">
        <ele>488.008</ele>
        <time>2021-07-26T10:31:33Z</time>
      </trkpt>
      <trkpt lat="42.439376" lon="-2.541630">
        <ele>488.029</ele>
        <time>2021-07-26T10:31:34Z</time>
      </trkpt>
      <trkpt lat="42.439383" lon="-2.541596">
        <ele>487.591</ele>
        <time>2021-07-26T10:31:35Z</time>
      </trkpt>
      <trkpt lat="42.439499" lon="-2.541469">
        <ele>485.628</ele>
        <time>2021-07-26T10:31:40Z</time>
      </trkpt>
      <trkpt lat="42.439710" lon="-2.541392">
        <ele>483.698</ele>
        <time>2021-07-26T10:31:46Z</time>
      </trkpt>
      <trkpt lat="42.439744" lon="-2.541327">
        <ele>483.232</ele>
        <time>2021-07-26T10:31:48Z</time>
      </trkpt>
      <trkpt lat="42.439735" lon="-2.541290">
        <ele>483.270</ele>
        <time>2021-07-26T10:31:49Z</time>
      </trkpt>
      <trkpt lat="42.439725" lon="-2.541265">
        <ele>483.287</ele>
        <time>2021-07-26T10:31:50Z</time>
      </trkpt>
      <trkpt lat="42.439712" lon="-2.541234">
        <ele>483.285</ele>
        <time>2021-07-26T10:31:51Z</time>
      </trkpt>
      <trkpt lat="42.439599" lon="-2.540896">
        <ele>484.128</ele>
        <time>2021-07-26T10:32:00Z</time>
      </trkpt>
      <trkpt lat="42.439484" lon="-2.540500">
        <ele>486.089</ele>
        <time>2021-07-26T10:32:10Z</time>
      </trkpt>
      <trkpt lat="42.439389" lon="-2.540084">
        <ele>487.517</ele>
        <time>2021-07-26T10:32:20Z</time>
      </trkpt>
      <trkpt lat="42.439305" lon="-2.539584">
        <ele>488.008</ele>
        <time>2021-07-26T10:32:31Z</time>
      </trkpt>
      <trkpt lat="42.439224" lon="-2.539131">
        <ele>488.989</ele>
        <time>2021-07-26T10:32:41Z</time>
      </trkpt>
      <trkpt lat="42.439124" lon="-2.538631">
        <ele>489.961</ele>
        <time>2021-07-26T10:32:53Z</time>
      </trkpt>
      <trkpt lat="42.439022" lon="-2.538129">
        <ele>492.378</ele>
        <time>2021-07-26T10:33:05Z</time>
      </trkpt>
      <trkpt lat="42.438932" lon="-2.537650">
        <ele>493.758</ele>
        <time>2021-07-26T10:33:17Z</time>
      </trkpt>
      <trkpt lat="42.438849" lon="-2.537268">
        <ele>495.222</ele>
        <time>2021-07-26T10:33:27Z</time>
      </trkpt>
      <trkpt lat="42.438733" lon="-2.536998">
        <ele>497.180</ele>
        <time>2021-07-26T10:33:35Z</time>
      </trkpt>
      <trkpt lat="42.438610" lon="-2.536816">
        <ele>498.597</ele>
        <time>2021-07-26T10:33:43Z</time>
      </trkpt>
      <trkpt lat="42.438571" lon="-2.536658">
        <ele>498.515</ele>
        <time>2021-07-26T10:33:48Z</time>
      </trkpt>
      <trkpt lat="42.438464" lon="-2.536341">
        <ele>500.569</ele>
        <time>2021-07-26T10:33:57Z</time>
      </trkpt>
      <trkpt lat="42.438378" lon="-2.536191">
        <ele>500.904</ele>
        <time>2021-07-26T10:34:04Z</time>
      </trkpt>
      <trkpt lat="42.438306" lon="-2.536027">
        <ele>501.424</ele>
        <time>2021-07-26T10:34:10Z</time>
      </trkpt>
      <trkpt lat="42.438368" lon="-2.535814">
        <ele>501.408</ele>
        <time>2021-07-26T10:34:17Z</time>
      </trkpt>
      <trkpt lat="42.438496" lon="-2.535445">
        <ele>502.453</ele>
        <time>2021-07-26T10:34:27Z</time>
      </trkpt>
      <trkpt lat="42.438564" lon="-2.535023">
        <ele>502.985</ele>
        <time>2021-07-26T10:34:38Z</time>
      </trkpt>
      <trkpt lat="42.438598" lon="-2.534737">
        <ele>503.882</ele>
        <time>2021-07-26T10:34:46Z</time>
      </trkpt>
      <trkpt lat="42.438620" lon="-2.534472">
        <ele>505.782</ele>
        <time>2021-07-26T10:34:55Z</time>
      </trkpt>
      <trkpt lat="42.438641" lon="-2.534182">
        <ele>505.396</ele>
        <time>2021-07-26T10:35:02Z</time>
      </trkpt>
      <trkpt lat="42.438697" lon="-2.533903">
        <ele>504.354</ele>
        <time>2021-07-26T10:35:09Z</time>
      </trkpt>
      <trkpt lat="42.438753" lon="-2.533612">
        <ele>504.321</ele>
        <time>2021-07-26T10:35:17Z</time>
      </trkpt>
      <trkpt lat="42.438802" lon="-2.533338">
        <ele>504.889</ele>
        <time>2021-07-26T10:35:25Z</time>
      </trkpt>
      <trkpt lat="42.438828" lon="-2.533126">
        <ele>504.874</ele>
        <time>2021-07-26T10:35:31Z</time>
      </trkpt>
      <trkpt lat="42.438833" lon="-2.532862">
        <ele>505.356</ele>
        <time>2021-07-26T10:35:38Z</time>
      </trkpt>
      <trkpt lat="42.438845" lon="-2.532495">
        <ele>505.321</ele>
        <time>2021-07-26T10:35:47Z</time>
      </trkpt>
      <trkpt lat="42.438894" lon="-2.532045">
        <ele>507.208</ele>
        <time>2021-07-26T10:35:58Z</time>
      </trkpt>
      <trkpt lat="42.438995" lon="-2.531701">
        <ele>506.764</ele>
        <time>2021-07-26T10:36:07Z</time>
      </trkpt>
      <trkpt lat="42.439107" lon="-2.531316">
        <ele>506.276</ele>
        <time>2021-07-26T10:36:16Z</time>
      </trkpt>
      <trkpt lat="42.439177" lon="-2.531067">
        <ele>506.273</ele>
        <time>2021-07-26T10:36:23Z</time>
      </trkpt>
      <trkpt lat="42.439244" lon="-2.530723">
        <ele>505.363</ele>
        <time>2021-07-26T10:36:31Z</time>
      </trkpt>
      <trkpt lat="42.439323" lon="-2.530353">
        <ele>506.767</ele>
        <time>2021-07-26T10:36:40Z</time>
      </trkpt>
      <trkpt lat="42.439361" lon="-2.530105">
        <ele>508.135</ele>
        <time>2021-07-26T10:36:47Z</time>
      </trkpt>
      <trkpt lat="42.439425" lon="-2.529726">
        <ele>509.152</ele>
        <time>2021-07-26T10:36:57Z</time>
      </trkpt>
      <trkpt lat="42.439515" lon="-2.529348">
        <ele>509.630</ele>
        <time>2021-07-26T10:37:06Z</time>
      </trkpt>
      <trkpt lat="42.439575" lon="-2.529003">
        <ele>511.038</ele>
        <time>2021-07-26T10:37:15Z</time>
      </trkpt>
      <trkpt lat="42.439587" lon="-2.528762">
        <ele>513.470</ele>
        <time>2021-07-26T10:37:23Z</time>
      </trkpt>
      <trkpt lat="42.439614" lon="-2.528532">
        <ele>514.417</ele>
        <time>2021-07-26T10:37:30Z</time>
      </trkpt>
      <trkpt lat="42.439687" lon="-2.528063">
        <ele>513.408</ele>
        <time>2021-07-26T10:37:41Z</time>
      </trkpt>
      <trkpt lat="42.439718" lon="-2.527846">
        <ele>513.920</ele>
        <time>2021-07-26T10:37:48Z</time>
      </trkpt>
      <trkpt lat="42.439765" lon="-2.527483">
        <ele>514.432</ele>
        <time>2021-07-26T10:38:00Z</time>
      </trkpt>
      <trkpt lat="42.439791" lon="-2.527207">
        <ele>516.369</ele>
        <time>2021-07-26T10:38:09Z</time>
      </trkpt>
      <trkpt lat="42.439797" lon="-2.526882">
        <ele>518.769</ele>
        <time>2021-07-26T10:38:19Z</time>
      </trkpt>
      <trkpt lat="42.439807" lon="-2.526605">
        <ele>520.613</ele>
        <time>2021-07-26T10:38:28Z</time>
      </trkpt>
      <trkpt lat="42.439818" lon="-2.526382">
        <ele>520.691</ele>
        <time>2021-07-26T10:38:35Z</time>
      </trkpt>
      <trkpt lat="42.439847" lon="-2.525981">
        <ele>521.648</ele>
        <time>2021-07-26T10:38:44Z</time>
      </trkpt>
      <trkpt lat="42.439871" lon="-2.525572">
        <ele>522.656</ele>
        <time>2021-07-26T10:38:54Z</time>
      </trkpt>
      <trkpt lat="42.439893" lon="-2.525142">
        <ele>523.515</ele>
        <time>2021-07-26T10:39:05Z</time>
      </trkpt>
      <trkpt lat="42.439916" lon="-2.524913">
        <ele>523.565</ele>
        <time>2021-07-26T10:39:14Z</time>
      </trkpt>
      <trkpt lat="42.439944" lon="-2.524824">
        <ele>522.611</ele>
        <time>2021-07-26T10:39:22Z</time>
      </trkpt>
      <trkpt lat="42.439942" lon="-2.524808">
        <ele>522.108</ele>
        <time>2021-07-26T10:39:36Z</time>
      </trkpt>
      <trkpt lat="42.439946" lon="-2.524791">
        <ele>522.148</ele>
        <time>2021-07-26T10:39:37Z</time>
      </trkpt>
      <trkpt lat="42.439951" lon="-2.524768">
        <ele>522.110</ele>
        <time>2021-07-26T10:39:38Z</time>
      </trkpt>
      <trkpt lat="42.439955" lon="-2.524738">
        <ele>521.657</ele>
        <time>2021-07-26T10:39:39Z</time>
      </trkpt>
      <trkpt lat="42.439958" lon="-2.524698">
        <ele>521.657</ele>
        <time>2021-07-26T10:39:40Z</time>
      </trkpt>
      <trkpt lat="42.440009" lon="-2.524384">
        <ele>519.731</ele>
        <time>2021-07-26T10:39:45Z</time>
      </trkpt>
      <trkpt lat="42.440096" lon="-2.523900">
        <ele>516.859</ele>
        <time>2021-07-26T10:39:51Z</time>
      </trkpt>
      <trkpt lat="42.440098" lon="-2.523844">
        <ele>516.896</ele>
        <time>2021-07-26T10:39:52Z</time>
      </trkpt>
      <trkpt lat="42.440093" lon="-2.523793">
        <ele>516.834</ele>
        <time>2021-07-26T10:39:53Z</time>
      </trkpt>
      <trkpt lat="42.440084" lon="-2.523749">
        <ele>516.873</ele>
        <time>2021-07-26T10:39:54Z</time>
      </trkpt>
      <trkpt lat="42.440076" lon="-2.523726">
        <ele>516.885</ele>
        <time>2021-07-26T10:39:55Z</time>
      </trkpt>
      <trkpt lat="42.440070" lon="-2.523729">
        <ele>516.313</ele>
        <time>2021-07-26T10:40:01Z</time>
      </trkpt>
      <trkpt lat="42.440067" lon="-2.523737">
        <ele>516.308</ele>
        <time>2021-07-26T10:40:20Z</time>
      </trkpt>
      <trkpt lat="42.440066" lon="-2.523737">
        <ele>516.354</ele>
        <time>2021-07-26T10:40:34Z</time>
      </trkpt>
      <trkpt lat="42.440061" lon="-2.523739">
        <ele>515.856</ele>
        <time>2021-07-26T10:40:49Z</time>
      </trkpt>
      <trkpt lat="42.440061" lon="-2.523723">
        <ele>516.373</ele>
        <time>2021-07-26T10:40:55Z</time>
      </trkpt>
      <trkpt lat="42.440061" lon="-2.523704">
        <ele>516.313</ele>
        <time>2021-07-26T10:41:09Z</time>
      </trkpt>
      <trkpt lat="42.440018" lon="-2.523589">
        <ele>516.387</ele>
        <time>2021-07-26T10:41:16Z</time>
      </trkpt>
      <trkpt lat="42.439953" lon="-2.523398">
        <ele>515.435</ele>
        <time>2021-07-26T10:41:24Z</time>
      </trkpt>
      <trkpt lat="42.439860" lon="-2.523180">
        <ele>514.982</ele>
        <time>2021-07-26T10:41:31Z</time>
      </trkpt>
      <trkpt lat="42.439752" lon="-2.523001">
        <ele>513.480</ele>
        <time>2021-07-26T10:41:38Z</time>
      </trkpt>
      <trkpt lat="42.439636" lon="-2.522776">
        <ele>511.564</ele>
        <time>2021-07-26T10:41:46Z</time>
      </trkpt>
      <trkpt lat="42.439510" lon="-2.522511">
        <ele>510.606</ele>
        <time>2021-07-26T10:41:53Z</time>
      </trkpt>
      <trkpt lat="42.439427" lon="-2.522287">
        <ele>510.616</ele>
        <time>2021-07-26T10:42:00Z</time>
      </trkpt>
      <trkpt lat="42.439350" lon="-2.521988">
        <ele>509.108</ele>
        <time>2021-07-26T10:42:08Z</time>
      </trkpt>
      <trkpt lat="42.439313" lon="-2.521842">
        <ele>508.113</ele>
        <time>2021-07-26T10:42:14Z</time>
      </trkpt>
      <trkpt lat="42.439258" lon="-2.521664">
        <ele>507.295</ele>
        <time>2021-07-26T10:42:20Z</time>
      </trkpt>
      <trkpt lat="42.439207" lon="-2.521467">
        <ele>505.762</ele>
        <time>2021-07-26T10:42:28Z</time>
      </trkpt>
      <trkpt lat="42.439185" lon="-2.521350">
        <ele>504.822</ele>
        <time>2021-07-26T10:42:32Z</time>
      </trkpt>
      <trkpt lat="42.439109" lon="-2.521187">
        <ele>504.396</ele>
        <time>2021-07-26T10:42:40Z</time>
      </trkpt>
      <trkpt lat="42.438999" lon="-2.521022">
        <ele>503.324</ele>
        <time>2021-07-26T10:42:48Z</time>
      </trkpt>
      <trkpt lat="42.438886" lon="-2.520812">
        <ele>501.961</ele>
        <time>2021-07-26T10:42:56Z</time>
      </trkpt>
      <trkpt lat="42.438780" lon="-2.520551">
        <ele>500.529</ele>
        <time>2021-07-26T10:43:06Z</time>
      </trkpt>
      <trkpt lat="42.438784" lon="-2.520555">
        <ele>500.533</ele>
        <time>2021-07-26T10:43:17Z</time>
      </trkpt>
      <trkpt lat="42.438749" lon="-2.520442">
        <ele>500.023</ele>
        <time>2021-07-26T10:43:23Z</time>
      </trkpt>
      <trkpt lat="42.438633" lon="-2.520174">
        <ele>500.515</ele>
        <time>2021-07-26T10:43:31Z</time>
      </trkpt>
      <trkpt lat="42.438482" lon="-2.519858">
        <ele>499.508</ele>
        <time>2021-07-26T10:43:42Z</time>
      </trkpt>
      <trkpt lat="42.438306" lon="-2.519626">
        <ele>497.660</ele>
        <time>2021-07-26T10:43:48Z</time>
      </trkpt>
      <trkpt lat="42.438108" lon="-2.519240">
        <ele>494.732</ele>
        <time>2021-07-26T10:43:53Z</time>
      </trkpt>
      <trkpt lat="42.437925" lon="-2.518786">
        <ele>492.349</ele>
        <time>2021-07-26T10:43:59Z</time>
      </trkpt>
      <trkpt lat="42.437736" lon="-2.518166">
        <ele>488.979</ele>
        <time>2021-07-26T10:44:05Z</time>
      </trkpt>
      <trkpt lat="42.437538" lon="-2.517737">
        <ele>488.053</ele>
        <time>2021-07-26T10:44:10Z</time>
      </trkpt>
      <trkpt lat="42.437202" lon="-2.517258">
        <ele>488.041</ele>
        <time>2021-07-26T10:44:18Z</time>
      </trkpt>
      <trkpt lat="42.436727" lon="-2.516579">
        <ele>487.098</ele>
        <time>2021-07-26T10:44:31Z</time>
      </trkpt>
      <trkpt lat="42.436672" lon="-2.516510">
        <ele>486.566</ele>
        <time>2021-07-26T10:44:32Z</time>
      </trkpt>
      <trkpt lat="42.436550" lon="-2.516352">
        <ele>485.137</ele>
        <time>2021-07-26T10:44:36Z</time>
      </trkpt>
      <trkpt lat="42.436543" lon="-2.516275">
        <ele>484.649</ele>
        <time>2021-07-26T10:44:37Z</time>
      </trkpt>
      <trkpt lat="42.436554" lon="-2.516212">
        <ele>483.613</ele>
        <time>2021-07-26T10:44:38Z</time>
      </trkpt>
      <trkpt lat="42.436580" lon="-2.516155">
        <ele>483.208</ele>
        <time>2021-07-26T10:44:39Z</time>
      </trkpt>
      <trkpt lat="42.436634" lon="-2.516079">
        <ele>482.250</ele>
        <time>2021-07-26T10:44:40Z</time>
      </trkpt>
      <trkpt lat="42.436657" lon="-2.516042">
        <ele>481.732</ele>
        <time>2021-07-26T10:44:41Z</time>
      </trkpt>
      <trkpt lat="42.436690" lon="-2.515977">
        <ele>480.869</ele>
        <time>2021-07-26T10:44:42Z</time>
      </trkpt>
      <trkpt lat="42.436725" lon="-2.515908">
        <ele>480.369</ele>
        <time>2021-07-26T10:44:43Z</time>
      </trkpt>
      <trkpt lat="42.436770" lon="-2.515842">
        <ele>479.373</ele>
        <time>2021-07-26T10:44:44Z</time>
      </trkpt>
      <trkpt lat="42.436806" lon="-2.515800">
        <ele>478.851</ele>
        <time>2021-07-26T10:44:45Z</time>
      </trkpt>
      <trkpt lat="42.436853" lon="-2.515753">
        <ele>477.928</ele>
        <time>2021-07-26T10:44:46Z</time>
      </trkpt>
      <trkpt lat="42.436921" lon="-2.515701">
        <ele>476.926</ele>
        <time>2021-07-26T10:44:47Z</time>
      </trkpt>
      <trkpt lat="42.437289" lon="-2.515341">
        <ele>471.136</ele>
        <time>2021-07-26T10:44:53Z</time>
      </trkpt>
      <trkpt lat="42.437379" lon="-2.515205">
        <ele>469.217</ele>
        <time>2021-07-26T10:44:55Z</time>
      </trkpt>
      <trkpt lat="42.437423" lon="-2.515108">
        <ele>468.318</ele>
        <time>2021-07-26T10:44:57Z</time>
      </trkpt>
      <trkpt lat="42.437643" lon="-2.514610">
        <ele>463.908</ele>
        <time>2021-07-26T10:45:02Z</time>
      </trkpt>
      <trkpt lat="42.437753" lon="-2.514408">
        <ele>461.550</ele>
        <time>2021-07-26T10:45:05Z</time>
      </trkpt>
      <trkpt lat="42.437815" lon="-2.514359">
        <ele>461.082</ele>
        <time>2021-07-26T10:45:06Z</time>
      </trkpt>
      <trkpt lat="42.437858" lon="-2.514352">
        <ele>460.619</ele>
        <time>2021-07-26T10:45:07Z</time>
      </trkpt>
      <trkpt lat="42.437924" lon="-2.514364">
        <ele>460.149</ele>
        <time>2021-07-26T10:45:08Z</time>
      </trkpt>
      <trkpt lat="42.437979" lon="-2.514387">
        <ele>459.633</ele>
        <time>2021-07-26T10:45:09Z</time>
      </trkpt>
      <trkpt lat="42.438038" lon="-2.514421">
        <ele>459.151</ele>
        <time>2021-07-26T10:45:10Z</time>
      </trkpt>
      <trkpt lat="42.438116" lon="-2.514472">
        <ele>458.658</ele>
        <time>2021-07-26T10:45:11Z</time>
      </trkpt>
      <trkpt lat="42.438471" lon="-2.514742">
        <ele>455.376</ele>
        <time>2021-07-26T10:45:16Z</time>
      </trkpt>
      <trkpt lat="42.438569" lon="-2.514852">
        <ele>454.383</ele>
        <time>2021-07-26T10:45:17Z</time>
      </trkpt>
      <trkpt lat="42.438636" lon="-2.514948">
        <ele>453.825</ele>
        <time>2021-07-26T10:45:18Z</time>
      </trkpt>
      <trkpt lat="42.438786" lon="-2.515141">
        <ele>452.417</ele>
        <time>2021-07-26T10:45:21Z</time>
      </trkpt>
      <trkpt lat="42.438948" lon="-2.515258">
        <ele>451.908</ele>
        <time>2021-07-26T10:45:23Z</time>
      </trkpt>
      <trkpt lat="42.439074" lon="-2.515289">
        <ele>451.475</ele>
        <time>2021-07-26T10:45:24Z</time>
      </trkpt>
      <trkpt lat="42.439160" lon="-2.515294">
        <ele>451.437</ele>
        <time>2021-07-26T10:45:25Z</time>
      </trkpt>
      <trkpt lat="42.439213" lon="-2.515292">
        <ele>451.984</ele>
        <time>2021-07-26T10:45:26Z</time>
      </trkpt>
      <trkpt lat="42.439282" lon="-2.515276">
        <ele>451.944</ele>
        <time>2021-07-26T10:45:27Z</time>
      </trkpt>
      <trkpt lat="42.439343" lon="-2.515245">
        <ele>451.968</ele>
        <time>2021-07-26T10:45:28Z</time>
      </trkpt>
      <trkpt lat="42.439411" lon="-2.515201">
        <ele>451.976</ele>
        <time>2021-07-26T10:45:29Z</time>
      </trkpt>
      <trkpt lat="42.439475" lon="-2.515155">
        <ele>451.913</ele>
        <time>2021-07-26T10:45:30Z</time>
      </trkpt>
      <trkpt lat="42.439839" lon="-2.514926">
        <ele>451.481</ele>
        <time>2021-07-26T10:45:37Z</time>
      </trkpt>
      <trkpt lat="42.439880" lon="-2.514916">
        <ele>451.463</ele>
        <time>2021-07-26T10:45:38Z</time>
      </trkpt>
      <trkpt lat="42.440308" lon="-2.514869">
        <ele>451.044</ele>
        <time>2021-07-26T10:45:47Z</time>
      </trkpt>
      <trkpt lat="42.440747" lon="-2.514809">
        <ele>451.018</ele>
        <time>2021-07-26T10:45:57Z</time>
      </trkpt>
      <trkpt lat="42.441029" lon="-2.514807">
        <ele>450.508</ele>
        <time>2021-07-26T10:46:04Z</time>
      </trkpt>
      <trkpt lat="42.441383" lon="-2.514785">
        <ele>450.553</ele>
        <time>2021-07-26T10:46:13Z</time>
      </trkpt>
      <trkpt lat="42.441534" lon="-2.514729">
        <ele>450.595</ele>
        <time>2021-07-26T10:46:18Z</time>
      </trkpt>
      <trkpt lat="42.441549" lon="-2.514672">
        <ele>450.092</ele>
        <time>2021-07-26T10:46:19Z</time>
      </trkpt>
      <trkpt lat="42.441553" lon="-2.514631">
        <ele>450.542</ele>
        <time>2021-07-26T10:46:20Z</time>
      </trkpt>
      <trkpt lat="42.441548" lon="-2.514563">
        <ele>450.086</ele>
        <time>2021-07-26T10:46:21Z</time>
      </trkpt>
      <trkpt lat="42.441536" lon="-2.514491">
        <ele>450.024</ele>
        <time>2021-07-26T10:46:23Z</time>
      </trkpt>
      <trkpt lat="42.441433" lon="-2.514056">
        <ele>449.051</ele>
        <time>2021-07-26T10:46:30Z</time>
      </trkpt>
      <trkpt lat="42.441324" lon="-2.513713">
        <ele>448.149</ele>
        <time>2021-07-26T10:46:37Z</time>
      </trkpt>
      <trkpt lat="42.441352" lon="-2.513462">
        <ele>447.186</ele>
        <time>2021-07-26T10:46:42Z</time>
      </trkpt>
      <trkpt lat="42.441371" lon="-2.513373">
        <ele>446.660</ele>
        <time>2021-07-26T10:46:46Z</time>
      </trkpt>
      <trkpt lat="42.441381" lon="-2.513361">
        <ele>446.626</ele>
        <time>2021-07-26T10:46:47Z</time>
      </trkpt>
      <trkpt lat="42.441397" lon="-2.513354">
        <ele>446.608</ele>
        <time>2021-07-26T10:46:48Z</time>
      </trkpt>
      <trkpt lat="42.441408" lon="-2.513351">
        <ele>446.145</ele>
        <time>2021-07-26T10:46:49Z</time>
      </trkpt>
      <trkpt lat="42.441423" lon="-2.513350">
        <ele>446.157</ele>
        <time>2021-07-26T10:46:50Z</time>
      </trkpt>
      <trkpt lat="42.441459" lon="-2.513351">
        <ele>447.184</ele>
        <time>2021-07-26T10:46:56Z</time>
      </trkpt>
      <trkpt lat="42.441564" lon="-2.513366">
        <ele>447.114</ele>
        <time>2021-07-26T10:47:02Z</time>
      </trkpt>
      <trkpt lat="42.441816" lon="-2.513318">
        <ele>447.688</ele>
        <time>2021-07-26T10:47:10Z</time>
      </trkpt>
      <trkpt lat="42.442115" lon="-2.513199">
        <ele>447.196</ele>
        <time>2021-07-26T10:47:18Z</time>
      </trkpt>
      <trkpt lat="42.442151" lon="-2.513192">
        <ele>447.173</ele>
        <time>2021-07-26T10:47:19Z</time>
      </trkpt>
      <trkpt lat="42.442192" lon="-2.513189">
        <ele>447.171</ele>
        <time>2021-07-26T10:47:20Z</time>
      </trkpt>
      <trkpt lat="42.442501" lon="-2.513200">
        <ele>447.121</ele>
        <time>2021-07-26T10:47:28Z</time>
      </trkpt>
      <trkpt lat="42.442760" lon="-2.513254">
        <ele>448.141</ele>
        <time>2021-07-26T10:47:36Z</time>
      </trkpt>
      <trkpt lat="42.442981" lon="-2.513229">
        <ele>447.605</ele>
        <time>2021-07-26T10:47:44Z</time>
      </trkpt>
      <trkpt lat="42.443233" lon="-2.513166">
        <ele>446.608</ele>
        <time>2021-07-26T10:47:51Z</time>
      </trkpt>
      <trkpt lat="42.443359" lon="-2.513023">
        <ele>446.149</ele>
        <time>2021-07-26T10:47:55Z</time>
      </trkpt>
      <trkpt lat="42.443395" lon="-2.512948">
        <ele>445.731</ele>
        <time>2021-07-26T10:47:57Z</time>
      </trkpt>
      <trkpt lat="42.443438" lon="-2.512872">
        <ele>445.728</ele>
        <time>2021-07-26T10:47:59Z</time>
      </trkpt>
      <trkpt lat="42.443672" lon="-2.512464">
        <ele>445.298</ele>
        <time>2021-07-26T10:48:08Z</time>
      </trkpt>
      <trkpt lat="42.443849" lon="-2.512176">
        <ele>445.272</ele>
        <time>2021-07-26T10:48:16Z</time>
      </trkpt>
      <trkpt lat="42.444011" lon="-2.512074">
        <ele>445.290</ele>
        <time>2021-07-26T10:48:22Z</time>
      </trkpt>
      <trkpt lat="42.444091" lon="-2.512130">
        <ele>444.797</ele>
        <time>2021-07-26T10:48:24Z</time>
      </trkpt>
      <trkpt lat="42.444125" lon="-2.512179">
        <ele>444.735</ele>
        <time>2021-07-26T10:48:25Z</time>
      </trkpt>
      <trkpt lat="42.444156" lon="-2.512252">
        <ele>444.714</ele>
        <time>2021-07-26T10:48:27Z</time>
      </trkpt>
      <trkpt lat="42.444177" lon="-2.512319">
        <ele>444.754</ele>
        <time>2021-07-26T10:48:28Z</time>
      </trkpt>
      <trkpt lat="42.444279" lon="-2.512652">
        <ele>445.709</ele>
        <time>2021-07-26T10:48:36Z</time>
      </trkpt>
      <trkpt lat="42.444389" lon="-2.513075">
        <ele>445.708</ele>
        <time>2021-07-26T10:48:45Z</time>
      </trkpt>
      <trkpt lat="42.444524" lon="-2.513337">
        <ele>445.718</ele>
        <time>2021-07-26T10:48:53Z</time>
      </trkpt>
      <trkpt lat="42.444714" lon="-2.513308">
        <ele>445.750</ele>
        <time>2021-07-26T10:48:58Z</time>
      </trkpt>
      <trkpt lat="42.444884" lon="-2.513117">
        <ele>445.257</ele>
        <time>2021-07-26T10:49:05Z</time>
      </trkpt>
      <trkpt lat="42.444970" lon="-2.512845">
        <ele>444.717</ele>
        <time>2021-07-26T10:49:11Z</time>
      </trkpt>
      <trkpt lat="42.445096" lon="-2.512586">
        <ele>443.751</ele>
        <time>2021-07-26T10:49:18Z</time>
      </trkpt>
      <trkpt lat="42.445300" lon="-2.512205">
        <ele>442.339</ele>
        <time>2021-07-26T10:49:28Z</time>
      </trkpt>
      <trkpt lat="42.445479" lon="-2.511808">
        <ele>441.316</ele>
        <time>2021-07-26T10:49:37Z</time>
      </trkpt>
      <trkpt lat="42.445633" lon="-2.511414">
        <ele>440.934</ele>
        <time>2021-07-26T10:49:46Z</time>
      </trkpt>
      <trkpt lat="42.445835" lon="-2.511101">
        <ele>442.316</ele>
        <time>2021-07-26T10:49:55Z</time>
      </trkpt>
      <trkpt lat="42.446063" lon="-2.510772">
        <ele>442.376</ele>
        <time>2021-07-26T10:50:04Z</time>
      </trkpt>
      <trkpt lat="42.446097" lon="-2.510583">
        <ele>442.313</ele>
        <time>2021-07-26T10:50:10Z</time>
      </trkpt>
      <trkpt lat="42.446156" lon="-2.510422">
        <ele>443.708</ele>
        <time>2021-07-26T10:50:21Z</time>
      </trkpt>
      <trkpt lat="42.446219" lon="-2.510296">
        <ele>443.788</ele>
        <time>2021-07-26T10:50:30Z</time>
      </trkpt>
      <trkpt lat="42.446320" lon="-2.510119">
        <ele>444.720</ele>
        <time>2021-07-26T10:50:40Z</time>
      </trkpt>
      <trkpt lat="42.446417" lon="-2.509897">
        <ele>443.737</ele>
        <time>2021-07-26T10:50:45Z</time>
      </trkpt>
      <trkpt lat="42.446581" lon="-2.509454">
        <ele>442.367</ele>
        <time>2021-07-26T10:50:53Z</time>
      </trkpt>
      <trkpt lat="42.446586" lon="-2.509447">
        <ele>442.381</ele>
        <time>2021-07-26T10:50:57Z</time>
      </trkpt>
      <trkpt lat="42.446593" lon="-2.509460">
        <ele>444.289</ele>
        <time>2021-07-26T10:51:15Z</time>
      </trkpt>
      <trkpt lat="42.446586" lon="-2.509465">
        <ele>444.776</ele>
        <time>2021-07-26T10:51:35Z</time>
      </trkpt>
      <trkpt lat="42.446626" lon="-2.509364">
        <ele>444.784</ele>
        <time>2021-07-26T10:51:44Z</time>
      </trkpt>
      <trkpt lat="42.446770" lon="-2.509095">
        <ele>444.229</ele>
        <time>2021-07-26T10:51:52Z</time>
      </trkpt>
      <trkpt lat="42.446836" lon="-2.508960">
        <ele>444.200</ele>
        <time>2021-07-26T10:51:59Z</time>
      </trkpt>
      <trkpt lat="42.446829" lon="-2.508961">
        <ele>444.220</ele>
        <time>2021-07-26T10:52:00Z</time>
      </trkpt>
      <trkpt lat="42.446820" lon="-2.508977">
        <ele>444.208</ele>
        <time>2021-07-26T10:52:01Z</time>
      </trkpt>
      <trkpt lat="42.446815" lon="-2.508996">
        <ele>443.719</ele>
        <time>2021-07-26T10:52:02Z</time>
      </trkpt>
      <trkpt lat="42.446809" lon="-2.509015">
        <ele>443.711</ele>
        <time>2021-07-26T10:52:03Z</time>
      </trkpt>
      <trkpt lat="42.446798" lon="-2.509045">
        <ele>443.788</ele>
        <time>2021-07-26T10:52:05Z</time>
      </trkpt>
      <trkpt lat="42.446772" lon="-2.509075">
        <ele>443.758</ele>
        <time>2021-07-26T10:52:06Z</time>
      </trkpt>
      <trkpt lat="42.446753" lon="-2.509106">
        <ele>443.782</ele>
        <time>2021-07-26T10:52:07Z</time>
      </trkpt>
      <trkpt lat="42.446624" lon="-2.509376">
        <ele>443.360</ele>
        <time>2021-07-26T10:52:14Z</time>
      </trkpt>
      <trkpt lat="42.446619" lon="-2.509391">
        <ele>443.717</ele>
        <time>2021-07-26T10:52:18Z</time>
      </trkpt>
      <trkpt lat="42.446605" lon="-2.509401">
        <ele>444.295</ele>
        <time>2021-07-26T10:52:29Z</time>
      </trkpt>
      <trkpt lat="42.446601" lon="-2.509378">
        <ele>444.217</ele>
        <time>2021-07-26T10:52:31Z</time>
      </trkpt>
      <trkpt lat="42.446609" lon="-2.509361">
        <ele>444.287</ele>
        <time>2021-07-26T10:52:32Z</time>
      </trkpt>
      <trkpt lat="42.446618" lon="-2.509344">
        <ele>444.215</ele>
        <time>2021-07-26T10:52:33Z</time>
      </trkpt>
      <trkpt lat="42.446747" lon="-2.509130">
        <ele>444.708</ele>
        <time>2021-07-26T10:52:40Z</time>
      </trkpt>
      <trkpt lat="42.446935" lon="-2.508775">
        <ele>444.258</ele>
        <time>2021-07-26T10:52:50Z</time>
      </trkpt>
      <trkpt lat="42.447057" lon="-2.508452">
        <ele>443.780</ele>
        <time>2021-07-26T10:52:57Z</time>
      </trkpt>
      <trkpt lat="42.447135" lon="-2.508024">
        <ele>443.797</ele>
        <time>2021-07-26T10:53:05Z</time>
      </trkpt>
      <trkpt lat="42.447134" lon="-2.507965">
        <ele>443.777</ele>
        <time>2021-07-26T10:53:06Z</time>
      </trkpt>
      <trkpt lat="42.447086" lon="-2.507625">
        <ele>442.391</ele>
        <time>2021-07-26T10:53:12Z</time>
      </trkpt>
      <trkpt lat="42.446889" lon="-2.507061">
        <ele>440.479</ele>
        <time>2021-07-26T10:53:22Z</time>
      </trkpt>
      <trkpt lat="42.446765" lon="-2.506650">
        <ele>440.426</ele>
        <time>2021-07-26T10:53:30Z</time>
      </trkpt>
      <trkpt lat="42.446728" lon="-2.506352">
        <ele>440.454</ele>
        <time>2021-07-26T10:53:36Z</time>
      </trkpt>
      <trkpt lat="42.446720" lon="-2.505951">
        <ele>440.969</ele>
        <time>2021-07-26T10:53:45Z</time>
      </trkpt>
      <trkpt lat="42.446730" lon="-2.505574">
        <ele>441.304</ele>
        <time>2021-07-26T10:53:54Z</time>
      </trkpt>
      <trkpt lat="42.446765" lon="-2.505361">
        <ele>442.324</ele>
        <time>2021-07-26T10:54:02Z</time>
      </trkpt>
      <trkpt lat="42.446814" lon="-2.505250">
        <ele>442.308</ele>
        <time>2021-07-26T10:54:09Z</time>
      </trkpt>
      <trkpt lat="42.446910" lon="-2.505123">
        <ele>442.393</ele>
        <time>2021-07-26T10:54:16Z</time>
      </trkpt>
      <trkpt lat="42.447054" lon="-2.505033">
        <ele>440.995</ele>
        <time>2021-07-26T10:54:23Z</time>
      </trkpt>
      <trkpt lat="42.447066" lon="-2.505023">
        <ele>440.462</ele>
        <time>2021-07-26T10:54:24Z</time>
      </trkpt>
      <trkpt lat="42.447136" lon="-2.504932">
        <ele>442.382</ele>
        <time>2021-07-26T10:54:32Z</time>
      </trkpt>
      <trkpt lat="42.447175" lon="-2.504918">
        <ele>443.396</ele>
        <time>2021-07-26T10:54:36Z</time>
      </trkpt>
      <trkpt lat="42.447252" lon="-2.504921">
        <ele>443.784</ele>
        <time>2021-07-26T10:54:44Z</time>
      </trkpt>
      <trkpt lat="42.447267" lon="-2.504924">
        <ele>444.241</ele>
        <time>2021-07-26T10:54:59Z</time>
      </trkpt>
      <trkpt lat="42.447230" lon="-2.504917">
        <ele>447.179</ele>
        <time>2021-07-26T10:55:17Z</time>
      </trkpt>
      <trkpt lat="42.447261" lon="-2.504926">
        <ele>446.698</ele>
        <time>2021-07-26T10:55:27Z</time>
      </trkpt>
      <trkpt lat="42.447256" lon="-2.504926">
        <ele>448.115</ele>
        <time>2021-07-26T10:55:47Z</time>
      </trkpt>
      <trkpt lat="42.447265" lon="-2.504908">
        <ele>449.526</ele>
        <time>2021-07-26T10:55:54Z</time>
      </trkpt>
      <trkpt lat="42.447248" lon="-2.504883">
        <ele>450.008</ele>
        <time>2021-07-26T10:56:00Z</time>
      </trkpt>
      <trkpt lat="42.447236" lon="-2.504876">
        <ele>450.066</ele>
        <time>2021-07-26T10:56:01Z</time>
      </trkpt>
      <trkpt lat="42.447199" lon="-2.504840">
        <ele>449.028</ele>
        <time>2021-07-26T10:56:05Z</time>
      </trkpt>
      <trkpt lat="42.447210" lon="-2.504747">
        <ele>447.665</ele>
        <time>2021-07-26T10:56:13Z</time>
      </trkpt>
      <trkpt lat="42.447211" lon="-2.504725">
        <ele>447.625</ele>
        <time>2021-07-26T10:56:14Z</time>
      </trkpt>
      <trkpt lat="42.447211" lon="-2.504511">
        <ele>446.179</ele>
        <time>2021-07-26T10:56:24Z</time>
      </trkpt>
      <trkpt lat="42.447201" lon="-2.504452">
        <ele>445.287</ele>
        <time>2021-07-26T10:56:26Z</time>
      </trkpt>
      <trkpt lat="42.447269" lon="-2.504330">
        <ele>444.784</ele>
        <time>2021-07-26T10:56:33Z</time>
      </trkpt>
      <trkpt lat="42.447319" lon="-2.504123">
        <ele>442.822</ele>
        <time>2021-07-26T10:56:40Z</time>
      </trkpt>
      <trkpt lat="42.447346" lon="-2.503950">
        <ele>441.842</ele>
        <time>2021-07-26T10:56:46Z</time>
      </trkpt>
      <trkpt lat="42.447392" lon="-2.503916">
        <ele>441.822</ele>
        <time>2021-07-26T10:56:48Z</time>
      </trkpt>
      <trkpt lat="42.447507" lon="-2.503787">
        <ele>441.314</ele>
        <time>2021-07-26T10:56:55Z</time>
      </trkpt>
      <trkpt lat="42.447590" lon="-2.503780">
        <ele>441.308</ele>
        <time>2021-07-26T10:57:02Z</time>
      </trkpt>
      <trkpt lat="42.447652" lon="-2.503774">
        <ele>441.831</ele>
        <time>2021-07-26T10:57:09Z</time>
      </trkpt>
      <trkpt lat="42.447665" lon="-2.503750">
        <ele>443.783</ele>
        <time>2021-07-26T10:57:28Z</time>
      </trkpt>
      <trkpt lat="42.447651" lon="-2.503745">
        <ele>442.880</ele>
        <time>2021-07-26T10:57:49Z</time>
      </trkpt>
      <trkpt lat="42.447745" lon="-2.503766">
        <ele>442.830</ele>
        <time>2021-07-26T10:57:55Z</time>
      </trkpt>
      <trkpt lat="42.447817" lon="-2.503784">
        <ele>442.834</ele>
        <time>2021-07-26T10:57:58Z</time>
      </trkpt>
      <trkpt lat="42.447876" lon="-2.503810">
        <ele>442.842</ele>
        <time>2021-07-26T10:58:05Z</time>
      </trkpt>
      <trkpt lat="42.447881" lon="-2.503877">
        <ele>444.749</ele>
        <time>2021-07-26T10:58:21Z</time>
      </trkpt>
      <trkpt lat="42.447889" lon="-2.503858">
        <ele>444.217</ele>
        <time>2021-07-26T10:58:25Z</time>
      </trkpt>
      <trkpt lat="42.447967" lon="-2.503812">
        <ele>444.254</ele>
        <time>2021-07-26T10:58:31Z</time>
      </trkpt>
      <trkpt lat="42.448021" lon="-2.503761">
        <ele>444.756</ele>
        <time>2021-07-26T10:58:35Z</time>
      </trkpt>
      <trkpt lat="42.448160" lon="-2.503599">
        <ele>443.711</ele>
        <time>2021-07-26T10:58:44Z</time>
      </trkpt>
      <trkpt lat="42.448132" lon="-2.503447">
        <ele>443.308</ele>
        <time>2021-07-26T10:58:50Z</time>
      </trkpt>
      <trkpt lat="42.448069" lon="-2.503247">
        <ele>439.932</ele>
        <time>2021-07-26T10:58:58Z</time>
      </trkpt>
      <trkpt lat="42.447976" lon="-2.502988">
        <ele>438.984</ele>
        <time>2021-07-26T10:59:06Z</time>
      </trkpt>
      <trkpt lat="42.447854" lon="-2.502679">
        <ele>438.941</ele>
        <time>2021-07-26T10:59:16Z</time>
      </trkpt>
      <trkpt lat="42.447751" lon="-2.502369">
        <ele>439.421</ele>
        <time>2021-07-26T10:59:27Z</time>
      </trkpt>
      <trkpt lat="42.447718" lon="-2.502274">
        <ele>438.935</ele>
        <time>2021-07-26T10:59:32Z</time>
      </trkpt>
      <trkpt lat="42.447707" lon="-2.502262">
        <ele>438.973</ele>
        <time>2021-07-26T10:59:33Z</time>
      </trkpt>
      <trkpt lat="42.447697" lon="-2.502249">
        <ele>438.960</ele>
        <time>2021-07-26T10:59:34Z</time>
      </trkpt>
      <trkpt lat="42.447688" lon="-2.502243">
        <ele>438.978</ele>
        <time>2021-07-26T10:59:40Z</time>
      </trkpt>
      <trkpt lat="42.447680" lon="-2.502228">
        <ele>438.577</ele>
        <time>2021-07-26T10:59:52Z</time>
      </trkpt>
      <trkpt lat="42.447691" lon="-2.502234">
        <ele>439.461</ele>
        <time>2021-07-26T11:00:08Z</time>
      </trkpt>
      <trkpt lat="42.447680" lon="-2.502234">
        <ele>440.427</ele>
        <time>2021-07-26T11:00:29Z</time>
      </trkpt>
      <trkpt lat="42.447674" lon="-2.502229">
        <ele>439.408</ele>
        <time>2021-07-26T11:00:46Z</time>
      </trkpt>
      <trkpt lat="42.447670" lon="-2.502214">
        <ele>439.954</ele>
        <time>2021-07-26T11:00:47Z</time>
      </trkpt>
      <trkpt lat="42.447598" lon="-2.501982">
        <ele>439.996</ele>
        <time>2021-07-26T11:00:54Z</time>
      </trkpt>
      <trkpt lat="42.447440" lon="-2.501530">
        <ele>439.433</ele>
        <time>2021-07-26T11:01:05Z</time>
      </trkpt>
      <trkpt lat="42.447315" lon="-2.501175">
        <ele>439.473</ele>
        <time>2021-07-26T11:01:15Z</time>
      </trkpt>
      <trkpt lat="42.447194" lon="-2.500837">
        <ele>439.927</ele>
        <time>2021-07-26T11:01:26Z</time>
      </trkpt>
      <trkpt lat="42.447139" lon="-2.500601">
        <ele>439.445</ele>
        <time>2021-07-26T11:01:34Z</time>
      </trkpt>
      <trkpt lat="42.447152" lon="-2.500575">
        <ele>438.982</ele>
        <time>2021-07-26T11:01:35Z</time>
      </trkpt>
      <trkpt lat="42.447169" lon="-2.500548">
        <ele>438.950</ele>
        <time>2021-07-26T11:01:36Z</time>
      </trkpt>
      <trkpt lat="42.447217" lon="-2.500488">
        <ele>438.521</ele>
        <time>2021-07-26T11:01:38Z</time>
      </trkpt>
      <trkpt lat="42.447364" lon="-2.500322">
        <ele>437.541</ele>
        <time>2021-07-26T11:01:45Z</time>
      </trkpt>
      <trkpt lat="42.447514" lon="-2.500102">
        <ele>435.605</ele>
        <time>2021-07-26T11:01:51Z</time>
      </trkpt>
      <trkpt lat="42.447628" lon="-2.499906">
        <ele>433.608</ele>
        <time>2021-07-26T11:01:56Z</time>
      </trkpt>
      <trkpt lat="42.447698" lon="-2.499836">
        <ele>432.759</ele>
        <time>2021-07-26T11:02:02Z</time>
      </trkpt>
      <trkpt lat="42.447838" lon="-2.499895">
        <ele>431.731</ele>
        <time>2021-07-26T11:02:07Z</time>
      </trkpt>
      <trkpt lat="42.447881" lon="-2.499896">
        <ele>431.238</ele>
        <time>2021-07-26T11:02:09Z</time>
      </trkpt>
      <trkpt lat="42.447916" lon="-2.499885">
        <ele>430.388</ele>
        <time>2021-07-26T11:02:10Z</time>
      </trkpt>
      <trkpt lat="42.448085" lon="-2.499768">
        <ele>428.472</ele>
        <time>2021-07-26T11:02:16Z</time>
      </trkpt>
      <trkpt lat="42.448122" lon="-2.499708">
        <ele>428.420</ele>
        <time>2021-07-26T11:02:17Z</time>
      </trkpt>
      <trkpt lat="42.448141" lon="-2.499673">
        <ele>428.437</ele>
        <time>2021-07-26T11:02:18Z</time>
      </trkpt>
      <trkpt lat="42.448162" lon="-2.499628">
        <ele>428.875</ele>
        <time>2021-07-26T11:02:19Z</time>
      </trkpt>
      <trkpt lat="42.448253" lon="-2.499355">
        <ele>430.321</ele>
        <time>2021-07-26T11:02:27Z</time>
      </trkpt>
      <trkpt lat="42.448352" lon="-2.499133">
        <ele>431.741</ele>
        <time>2021-07-26T11:02:34Z</time>
      </trkpt>
      <trkpt lat="42.448548" lon="-2.498949">
        <ele>432.205</ele>
        <time>2021-07-26T11:02:42Z</time>
      </trkpt>
      <trkpt lat="42.448704" lon="-2.498682">
        <ele>432.208</ele>
        <time>2021-07-26T11:02:50Z</time>
      </trkpt>
      <trkpt lat="42.448765" lon="-2.498421">
        <ele>433.289</ele>
        <time>2021-07-26T11:02:57Z</time>
      </trkpt>
      <trkpt lat="42.448828" lon="-2.498231">
        <ele>433.211</ele>
        <time>2021-07-26T11:03:03Z</time>
      </trkpt>
      <trkpt lat="42.448857" lon="-2.498218">
        <ele>433.248</ele>
        <time>2021-07-26T11:03:04Z</time>
      </trkpt>
      <trkpt lat="42.448926" lon="-2.498207">
        <ele>433.648</ele>
        <time>2021-07-26T11:03:06Z</time>
      </trkpt>
      <trkpt lat="42.448957" lon="-2.498204">
        <ele>434.142</ele>
        <time>2021-07-26T11:03:07Z</time>
      </trkpt>
      <trkpt lat="42.448990" lon="-2.498205">
        <ele>434.190</ele>
        <time>2021-07-26T11:03:08Z</time>
      </trkpt>
      <trkpt lat="42.449019" lon="-2.498207">
        <ele>434.627</ele>
        <time>2021-07-26T11:03:09Z</time>
      </trkpt>
      <trkpt lat="42.449264" lon="-2.498201">
        <ele>438.015</ele>
        <time>2021-07-26T11:03:19Z</time>
      </trkpt>
      <trkpt lat="42.449502" lon="-2.497991">
        <ele>437.517</ele>
        <time>2021-07-26T11:03:28Z</time>
      </trkpt>
      <trkpt lat="42.449669" lon="-2.497853">
        <ele>437.087</ele>
        <time>2021-07-26T11:03:35Z</time>
      </trkpt>
      <trkpt lat="42.449684" lon="-2.497826">
        <ele>437.015</ele>
        <time>2021-07-26T11:03:36Z</time>
      </trkpt>
      <trkpt lat="42.449807" lon="-2.497597">
        <ele>434.108</ele>
        <time>2021-07-26T11:03:42Z</time>
      </trkpt>
      <trkpt lat="42.449819" lon="-2.497565">
        <ele>434.178</ele>
        <time>2021-07-26T11:03:43Z</time>
      </trkpt>
      <trkpt lat="42.449835" lon="-2.497505">
        <ele>433.680</ele>
        <time>2021-07-26T11:03:44Z</time>
      </trkpt>
      <trkpt lat="42.449847" lon="-2.497441">
        <ele>433.697</ele>
        <time>2021-07-26T11:03:45Z</time>
      </trkpt>
      <trkpt lat="42.449877" lon="-2.496852">
        <ele>431.297</ele>
        <time>2021-07-26T11:03:52Z</time>
      </trkpt>
      <trkpt lat="42.449919" lon="-2.496277">
        <ele>429.321</ele>
        <time>2021-07-26T11:03:59Z</time>
      </trkpt>
      <trkpt lat="42.449923" lon="-2.496184">
        <ele>428.859</ele>
        <time>2021-07-26T11:04:00Z</time>
      </trkpt>
      <trkpt lat="42.449896" lon="-2.495587">
        <ele>427.466</ele>
        <time>2021-07-26T11:04:06Z</time>
      </trkpt>
      <trkpt lat="42.450447" lon="-2.494283">
        <ele>423.144</ele>
        <time>2021-07-26T11:04:30Z</time>
      </trkpt>
      <trkpt lat="42.450527" lon="-2.494197">
        <ele>422.654</ele>
        <time>2021-07-26T11:04:32Z</time>
      </trkpt>
      <trkpt lat="42.450564" lon="-2.494135">
        <ele>422.656</ele>
        <time>2021-07-26T11:04:33Z</time>
      </trkpt>
      <trkpt lat="42.450598" lon="-2.494061">
        <ele>422.111</ele>
        <time>2021-07-26T11:04:34Z</time>
      </trkpt>
      <trkpt lat="42.450624" lon="-2.493988">
        <ele>422.108</ele>
        <time>2021-07-26T11:04:35Z</time>
      </trkpt>
      <trkpt lat="42.450649" lon="-2.493909">
        <ele>422.172</ele>
        <time>2021-07-26T11:04:36Z</time>
      </trkpt>
      <trkpt lat="42.450828" lon="-2.493398">
        <ele>421.144</ele>
        <time>2021-07-26T11:04:43Z</time>
      </trkpt>
      <trkpt lat="42.450848" lon="-2.493345">
        <ele>421.171</ele>
        <time>2021-07-26T11:04:44Z</time>
      </trkpt>
      <trkpt lat="42.450998" lon="-2.492762">
        <ele>421.171</ele>
        <time>2021-07-26T11:04:53Z</time>
      </trkpt>
      <trkpt lat="42.451132" lon="-2.492247">
        <ele>420.725</ele>
        <time>2021-07-26T11:05:01Z</time>
      </trkpt>
      <trkpt lat="42.451304" lon="-2.491626">
        <ele>419.243</ele>
        <time>2021-07-26T11:05:11Z</time>
      </trkpt>
      <trkpt lat="42.451458" lon="-2.491092">
        <ele>418.310</ele>
        <time>2021-07-26T11:05:19Z</time>
      </trkpt>
      <trkpt lat="42.451629" lon="-2.490319">
        <ele>417.828</ele>
        <time>2021-07-26T11:05:31Z</time>
      </trkpt>
      <trkpt lat="42.451916" lon="-2.489511">
        <ele>416.311</ele>
        <time>2021-07-26T11:05:44Z</time>
      </trkpt>
      <trkpt lat="42.452170" lon="-2.488836">
        <ele>415.921</ele>
        <time>2021-07-26T11:05:55Z</time>
      </trkpt>
      <trkpt lat="42.452465" lon="-2.488072">
        <ele>415.403</ele>
        <time>2021-07-26T11:06:08Z</time>
      </trkpt>
      <trkpt lat="42.452755" lon="-2.487347">
        <ele>414.408</ele>
        <time>2021-07-26T11:06:20Z</time>
      </trkpt>
      <trkpt lat="42.452985" lon="-2.486780">
        <ele>413.538</ele>
        <time>2021-07-26T11:06:30Z</time>
      </trkpt>
      <trkpt lat="42.453007" lon="-2.486655">
        <ele>413.060</ele>
        <time>2021-07-26T11:06:32Z</time>
      </trkpt>
      <trkpt lat="42.453014" lon="-2.486581">
        <ele>413.027</ele>
        <time>2021-07-26T11:06:33Z</time>
      </trkpt>
      <trkpt lat="42.453076" lon="-2.485848">
        <ele>413.517</ele>
        <time>2021-07-26T11:06:44Z</time>
      </trkpt>
      <trkpt lat="42.453104" lon="-2.485582">
        <ele>413.561</ele>
        <time>2021-07-26T11:06:48Z</time>
      </trkpt>
      <trkpt lat="42.453113" lon="-2.485517">
        <ele>413.559</ele>
        <time>2021-07-26T11:06:49Z</time>
      </trkpt>
      <trkpt lat="42.453148" lon="-2.485257">
        <ele>413.596</ele>
        <time>2021-07-26T11:06:53Z</time>
      </trkpt>
      <trkpt lat="42.453158" lon="-2.485192">
        <ele>413.564</ele>
        <time>2021-07-26T11:06:54Z</time>
      </trkpt>
      <trkpt lat="42.453239" lon="-2.484653">
        <ele>413.572</ele>
        <time>2021-07-26T11:07:02Z</time>
      </trkpt>
      <trkpt lat="42.453323" lon="-2.484102">
        <ele>413.513</ele>
        <time>2021-07-26T11:07:11Z</time>
      </trkpt>
      <trkpt lat="42.453425" lon="-2.483444">
        <ele>413.514</ele>
        <time>2021-07-26T11:07:21Z</time>
      </trkpt>
      <trkpt lat="42.453540" lon="-2.482922">
        <ele>413.508</ele>
        <time>2021-07-26T11:07:30Z</time>
      </trkpt>
      <trkpt lat="42.453631" lon="-2.482660">
        <ele>413.554</ele>
        <time>2021-07-26T11:07:35Z</time>
      </trkpt>
      <trkpt lat="42.453643" lon="-2.482627">
        <ele>413.576</ele>
        <time>2021-07-26T11:07:36Z</time>
      </trkpt>
      <trkpt lat="42.453728" lon="-2.482308">
        <ele>413.053</ele>
        <time>2021-07-26T11:07:45Z</time>
      </trkpt>
      <trkpt lat="42.453714" lon="-2.482293">
        <ele>413.513</ele>
        <time>2021-07-26T11:07:50Z</time>
      </trkpt>
      <trkpt lat="42.453698" lon="-2.482300">
        <ele>411.547</ele>
        <time>2021-07-26T11:08:17Z</time>
      </trkpt>
      <trkpt lat="42.453698" lon="-2.482312">
        <ele>412.065</ele>
        <time>2021-07-26T11:08:35Z</time>
      </trkpt>
      <trkpt lat="42.453712" lon="-2.482291">
        <ele>412.562</ele>
        <time>2021-07-26T11:08:38Z</time>
      </trkpt>
      <trkpt lat="42.453720" lon="-2.482272">
        <ele>412.590</ele>
        <time>2021-07-26T11:08:39Z</time>
      </trkpt>
      <trkpt lat="42.453728" lon="-2.482252">
        <ele>412.042</ele>
        <time>2021-07-26T11:08:40Z</time>
      </trkpt>
      <trkpt lat="42.453737" lon="-2.482226">
        <ele>412.022</ele>
        <time>2021-07-26T11:08:41Z</time>
      </trkpt>
      <trkpt lat="42.453751" lon="-2.482196">
        <ele>412.014</ele>
        <time>2021-07-26T11:08:42Z</time>
      </trkpt>
      <trkpt lat="42.453761" lon="-2.482165">
        <ele>412.008</ele>
        <time>2021-07-26T11:08:43Z</time>
      </trkpt>
      <trkpt lat="42.453772" lon="-2.482127">
        <ele>412.081</ele>
        <time>2021-07-26T11:08:44Z</time>
      </trkpt>
      <trkpt lat="42.453881" lon="-2.481837">
        <ele>412.553</ele>
        <time>2021-07-26T11:08:51Z</time>
      </trkpt>
      <trkpt lat="42.454076" lon="-2.481349">
        <ele>413.090</ele>
        <time>2021-07-26T11:09:01Z</time>
      </trkpt>
      <trkpt lat="42.454295" lon="-2.480824">
        <ele>412.080</ele>
        <time>2021-07-26T11:09:12Z</time>
      </trkpt>
      <trkpt lat="42.454520" lon="-2.480390">
        <ele>412.084</ele>
        <time>2021-07-26T11:09:21Z</time>
      </trkpt>
      <trkpt lat="42.454868" lon="-2.479679">
        <ele>412.022</ele>
        <time>2021-07-26T11:09:35Z</time>
      </trkpt>
      <trkpt lat="42.454936" lon="-2.479522">
        <ele>412.029</ele>
        <time>2021-07-26T11:09:38Z</time>
      </trkpt>
      <trkpt lat="42.454955" lon="-2.479464">
        <ele>412.067</ele>
        <time>2021-07-26T11:09:39Z</time>
      </trkpt>
      <trkpt lat="42.454967" lon="-2.479408">
        <ele>412.047</ele>
        <time>2021-07-26T11:09:40Z</time>
      </trkpt>
      <trkpt lat="42.455054" lon="-2.478765">
        <ele>412.029</ele>
        <time>2021-07-26T11:09:50Z</time>
      </trkpt>
      <trkpt lat="42.455203" lon="-2.477902">
        <ele>411.521</ele>
        <time>2021-07-26T11:10:04Z</time>
      </trkpt>
      <trkpt lat="42.455249" lon="-2.477627">
        <ele>411.108</ele>
        <time>2021-07-26T11:10:09Z</time>
      </trkpt>
      <trkpt lat="42.455263" lon="-2.477579">
        <ele>411.191</ele>
        <time>2021-07-26T11:10:10Z</time>
      </trkpt>
      <trkpt lat="42.455281" lon="-2.477523">
        <ele>410.673</ele>
        <time>2021-07-26T11:10:11Z</time>
      </trkpt>
      <trkpt lat="42.455301" lon="-2.477484">
        <ele>410.180</ele>
        <time>2021-07-26T11:10:12Z</time>
      </trkpt>
      <trkpt lat="42.455319" lon="-2.477454">
        <ele>409.650</ele>
        <time>2021-07-26T11:10:13Z</time>
      </trkpt>
      <trkpt lat="42.455397" lon="-2.477403">
        <ele>409.154</ele>
        <time>2021-07-26T11:10:19Z</time>
      </trkpt>
      <trkpt lat="42.455482" lon="-2.477392">
        <ele>409.662</ele>
        <time>2021-07-26T11:10:27Z</time>
      </trkpt>
      <trkpt lat="42.455654" lon="-2.477412">
        <ele>409.659</ele>
        <time>2021-07-26T11:10:36Z</time>
      </trkpt>
      <trkpt lat="42.455691" lon="-2.477392">
        <ele>410.187</ele>
        <time>2021-07-26T11:10:37Z</time>
      </trkpt>
      <trkpt lat="42.455712" lon="-2.477370">
        <ele>410.184</ele>
        <time>2021-07-26T11:10:38Z</time>
      </trkpt>
      <trkpt lat="42.455732" lon="-2.477340">
        <ele>410.107</ele>
        <time>2021-07-26T11:10:39Z</time>
      </trkpt>
      <trkpt lat="42.455757" lon="-2.477301">
        <ele>409.617</ele>
        <time>2021-07-26T11:10:40Z</time>
      </trkpt>
      <trkpt lat="42.455859" lon="-2.477032">
        <ele>410.108</ele>
        <time>2021-07-26T11:10:49Z</time>
      </trkpt>
      <trkpt lat="42.455951" lon="-2.476748">
        <ele>411.145</ele>
        <time>2021-07-26T11:10:59Z</time>
      </trkpt>
      <trkpt lat="42.456005" lon="-2.476453">
        <ele>413.597</ele>
        <time>2021-07-26T11:11:09Z</time>
      </trkpt>
      <trkpt lat="42.456057" lon="-2.476161">
        <ele>415.494</ele>
        <time>2021-07-26T11:11:18Z</time>
      </trkpt>
      <trkpt lat="42.456082" lon="-2.475826">
        <ele>417.354</ele>
        <time>2021-07-26T11:11:28Z</time>
      </trkpt>
      <trkpt lat="42.456151" lon="-2.475434">
        <ele>418.318</ele>
        <time>2021-07-26T11:11:38Z</time>
      </trkpt>
      <trkpt lat="42.456280" lon="-2.475098">
        <ele>417.866</ele>
        <time>2021-07-26T11:11:47Z</time>
      </trkpt>
      <trkpt lat="42.456389" lon="-2.474722">
        <ele>417.833</ele>
        <time>2021-07-26T11:11:56Z</time>
      </trkpt>
      <trkpt lat="42.456425" lon="-2.474324">
        <ele>417.811</ele>
        <time>2021-07-26T11:12:05Z</time>
      </trkpt>
      <trkpt lat="42.456467" lon="-2.473784">
        <ele>417.392</ele>
        <time>2021-07-26T11:12:15Z</time>
      </trkpt>
      <trkpt lat="42.456514" lon="-2.473554">
        <ele>416.373</ele>
        <time>2021-07-26T11:12:18Z</time>
      </trkpt>
      <trkpt lat="42.456536" lon="-2.473485">
        <ele>415.920</ele>
        <time>2021-07-26T11:12:19Z</time>
      </trkpt>
      <trkpt lat="42.456661" lon="-2.473168">
        <ele>414.908</ele>
        <time>2021-07-26T11:12:24Z</time>
      </trkpt>
      <trkpt lat="42.456818" lon="-2.472914">
        <ele>413.996</ele>
        <time>2021-07-26T11:12:30Z</time>
      </trkpt>
      <trkpt lat="42.456831" lon="-2.472800">
        <ele>413.598</ele>
        <time>2021-07-26T11:12:32Z</time>
      </trkpt>
      <trkpt lat="42.456886" lon="-2.472570">
        <ele>411.185</ele>
        <time>2021-07-26T11:12:37Z</time>
      </trkpt>
      <trkpt lat="42.456974" lon="-2.472349">
        <ele>411.535</ele>
        <time>2021-07-26T11:12:43Z</time>
      </trkpt>
      <trkpt lat="42.457150" lon="-2.472297">
        <ele>411.579</ele>
        <time>2021-07-26T11:12:49Z</time>
      </trkpt>
      <trkpt lat="42.457337" lon="-2.472308">
        <ele>411.547</ele>
        <time>2021-07-26T11:12:55Z</time>
      </trkpt>
      <trkpt lat="42.457376" lon="-2.472268">
        <ele>411.564</ele>
        <time>2021-07-26T11:12:57Z</time>
      </trkpt>
      <trkpt lat="42.457443" lon="-2.472060">
        <ele>411.592</ele>
        <time>2021-07-26T11:13:02Z</time>
      </trkpt>
      <trkpt lat="42.457594" lon="-2.471942">
        <ele>412.554</ele>
        <time>2021-07-26T11:13:08Z</time>
      </trkpt>
      <trkpt lat="42.457680" lon="-2.471726">
        <ele>413.056</ele>
        <time>2021-07-26T11:13:15Z</time>
      </trkpt>
      <trkpt lat="42.457808" lon="-2.471308">
        <ele>413.911</ele>
        <time>2021-07-26T11:13:25Z</time>
      </trkpt>
      <trkpt lat="42.457980" lon="-2.470918">
        <ele>413.908</ele>
        <time>2021-07-26T11:13:34Z</time>
      </trkpt>
      <trkpt lat="42.458198" lon="-2.470484">
        <ele>413.572</ele>
        <time>2021-07-26T11:13:44Z</time>
      </trkpt>
      <trkpt lat="42.458339" lon="-2.470248">
        <ele>413.524</ele>
        <time>2021-07-26T11:13:51Z</time>
      </trkpt>
      <trkpt lat="42.458545" lon="-2.470168">
        <ele>414.971</ele>
        <time>2021-07-26T11:13:58Z</time>
      </trkpt>
      <trkpt lat="42.458728" lon="-2.470217">
        <ele>414.971</ele>
        <time>2021-07-26T11:14:05Z</time>
      </trkpt>
      <trkpt lat="42.458827" lon="-2.470393">
        <ele>413.025</ele>
        <time>2021-07-26T11:14:12Z</time>
      </trkpt>
      <trkpt lat="42.458896" lon="-2.470330">
        <ele>411.563</ele>
        <time>2021-07-26T11:14:17Z</time>
      </trkpt>
      <trkpt lat="42.459033" lon="-2.469776">
        <ele>410.670</ele>
        <time>2021-07-26T11:14:28Z</time>
      </trkpt>
      <trkpt lat="42.459157" lon="-2.469260">
        <ele>409.678</ele>
        <time>2021-07-26T11:14:38Z</time>
      </trkpt>
      <trkpt lat="42.459168" lon="-2.469208">
        <ele>409.628</ele>
        <time>2021-07-26T11:14:39Z</time>
      </trkpt>
      <trkpt lat="42.459207" lon="-2.469051">
        <ele>409.189</ele>
        <time>2021-07-26T11:14:42Z</time>
      </trkpt>
      <trkpt lat="42.459356" lon="-2.468433">
        <ele>406.717</ele>
        <time>2021-07-26T11:14:53Z</time>
      </trkpt>
      <trkpt lat="42.459517" lon="-2.467763">
        <ele>405.308</ele>
        <time>2021-07-26T11:15:03Z</time>
      </trkpt>
      <trkpt lat="42.459677" lon="-2.467102">
        <ele>403.819</ele>
        <time>2021-07-26T11:15:12Z</time>
      </trkpt>
      <trkpt lat="42.459838" lon="-2.466505">
        <ele>401.981</ele>
        <time>2021-07-26T11:15:21Z</time>
      </trkpt>
      <trkpt lat="42.459934" lon="-2.466281">
        <ele>401.078</ele>
        <time>2021-07-26T11:15:27Z</time>
      </trkpt>
      <trkpt lat="42.460092" lon="-2.466283">
        <ele>401.058</ele>
        <time>2021-07-26T11:15:33Z</time>
      </trkpt>
      <trkpt lat="42.460393" lon="-2.466377">
        <ele>402.472</ele>
        <time>2021-07-26T11:15:41Z</time>
      </trkpt>
      <trkpt lat="42.460745" lon="-2.466534">
        <ele>403.850</ele>
        <time>2021-07-26T11:15:50Z</time>
      </trkpt>
      <trkpt lat="42.460875" lon="-2.466679">
        <ele>403.857</ele>
        <time>2021-07-26T11:15:55Z</time>
      </trkpt>
      <trkpt lat="42.460938" lon="-2.466704">
        <ele>403.865</ele>
        <time>2021-07-26T11:15:59Z</time>
      </trkpt>
      <trkpt lat="42.461136" lon="-2.466720">
        <ele>403.421</ele>
        <time>2021-07-26T11:16:06Z</time>
      </trkpt>
      <trkpt lat="42.461556" lon="-2.466904">
        <ele>402.441</ele>
        <time>2021-07-26T11:16:17Z</time>
      </trkpt>
      <trkpt lat="42.461927" lon="-2.467071">
        <ele>402.405</ele>
        <time>2021-07-26T11:16:28Z</time>
      </trkpt>
      <trkpt lat="42.461946" lon="-2.467077">
        <ele>402.408</ele>
        <time>2021-07-26T11:16:30Z</time>
      </trkpt>
      <trkpt lat="42.462034" lon="-2.466944">
        <ele>402.969</ele>
        <time>2021-07-26T11:16:38Z</time>
      </trkpt>
      <trkpt lat="42.462058" lon="-2.466932">
        <ele>403.851</ele>
        <time>2021-07-26T11:16:44Z</time>
      </trkpt>
      <trkpt lat="42.462075" lon="-2.466929">
        <ele>403.438</ele>
        <time>2021-07-26T11:16:46Z</time>
      </trkpt>
      <trkpt lat="42.462148" lon="-2.466924">
        <ele>404.328</ele>
        <time>2021-07-26T11:16:54Z</time>
      </trkpt>
      <trkpt lat="42.462273" lon="-2.466816">
        <ele>404.312</ele>
        <time>2021-07-26T11:16:59Z</time>
      </trkpt>
      <trkpt lat="42.462384" lon="-2.466453">
        <ele>403.490</ele>
        <time>2021-07-26T11:17:06Z</time>
      </trkpt>
      <trkpt lat="42.462514" lon="-2.465997">
        <ele>403.457</ele>
        <time>2021-07-26T11:17:14Z</time>
      </trkpt>
      <trkpt lat="42.462624" lon="-2.465513">
        <ele>403.445</ele>
        <time>2021-07-26T11:17:23Z</time>
      </trkpt>
      <trkpt lat="42.462811" lon="-2.464771">
        <ele>403.442</ele>
        <time>2021-07-26T11:17:35Z</time>
      </trkpt>
      <trkpt lat="42.462973" lon="-2.464100">
        <ele>403.422</ele>
        <time>2021-07-26T11:17:46Z</time>
      </trkpt>
      <trkpt lat="42.463135" lon="-2.463416">
        <ele>402.914</ele>
        <time>2021-07-26T11:17:58Z</time>
      </trkpt>
      <trkpt lat="42.463300" lon="-2.462781">
        <ele>401.408</ele>
        <time>2021-07-26T11:18:08Z</time>
      </trkpt>
      <trkpt lat="42.463394" lon="-2.462446">
        <ele>401.041</ele>
        <time>2021-07-26T11:18:13Z</time>
      </trkpt>
      <trkpt lat="42.463376" lon="-2.462123">
        <ele>401.073</ele>
        <time>2021-07-26T11:18:18Z</time>
      </trkpt>
      <trkpt lat="42.463431" lon="-2.462007">
        <ele>400.560</ele>
        <time>2021-07-26T11:18:20Z</time>
      </trkpt>
      <trkpt lat="42.463627" lon="-2.461480">
        <ele>399.560</ele>
        <time>2021-07-26T11:18:28Z</time>
      </trkpt>
      <trkpt lat="42.463783" lon="-2.460740">
        <ele>398.644</ele>
        <time>2021-07-26T11:18:40Z</time>
      </trkpt>
      <trkpt lat="42.463837" lon="-2.460448">
        <ele>397.172</ele>
        <time>2021-07-26T11:18:45Z</time>
      </trkpt>
      <trkpt lat="42.464001" lon="-2.459778">
        <ele>396.229</ele>
        <time>2021-07-26T11:18:56Z</time>
      </trkpt>
      <trkpt lat="42.464184" lon="-2.459109">
        <ele>395.787</ele>
        <time>2021-07-26T11:19:06Z</time>
      </trkpt>
      <trkpt lat="42.464323" lon="-2.458527">
        <ele>394.747</ele>
        <time>2021-07-26T11:19:15Z</time>
      </trkpt>
      <trkpt lat="42.464442" lon="-2.458057">
        <ele>394.229</ele>
        <time>2021-07-26T11:19:23Z</time>
      </trkpt>
      <trkpt lat="42.464468" lon="-2.457944">
        <ele>394.721</ele>
        <time>2021-07-26T11:19:28Z</time>
      </trkpt>
      <trkpt lat="42.464409" lon="-2.457910">
        <ele>397.108</ele>
        <time>2021-07-26T11:19:43Z</time>
      </trkpt>
      <trkpt lat="42.464403" lon="-2.457899">
        <ele>399.061</ele>
        <time>2021-07-26T11:19:55Z</time>
      </trkpt>
      <trkpt lat="42.464426" lon="-2.457820">
        <ele>400.083</ele>
        <time>2021-07-26T11:20:02Z</time>
      </trkpt>
      <trkpt lat="42.464496" lon="-2.457586">
        <ele>399.010</ele>
        <time>2021-07-26T11:20:07Z</time>
      </trkpt>
      <trkpt lat="42.464541" lon="-2.457405">
        <ele>399.090</ele>
        <time>2021-07-26T11:20:10Z</time>
      </trkpt>
      <trkpt lat="42.464660" lon="-2.456969">
        <ele>398.644</ele>
        <time>2021-07-26T11:20:17Z</time>
      </trkpt>
      <trkpt lat="42.464696" lon="-2.456854">
        <ele>398.182</ele>
        <time>2021-07-26T11:20:19Z</time>
      </trkpt>
      <trkpt lat="42.464873" lon="-2.456253">
        <ele>397.149</ele>
        <time>2021-07-26T11:20:29Z</time>
      </trkpt>
      <trkpt lat="42.464982" lon="-2.455694">
        <ele>396.667</ele>
        <time>2021-07-26T11:20:37Z</time>
      </trkpt>
      <trkpt lat="42.465131" lon="-2.455269">
        <ele>397.614</ele>
        <time>2021-07-26T11:20:45Z</time>
      </trkpt>
      <trkpt lat="42.465219" lon="-2.455066">
        <ele>398.654</ele>
        <time>2021-07-26T11:20:52Z</time>
      </trkpt>
      <trkpt lat="42.465224" lon="-2.454832">
        <ele>399.009</ele>
        <time>2021-07-26T11:20:58Z</time>
      </trkpt>
      <trkpt lat="42.465194" lon="-2.454761">
        <ele>401.008</ele>
        <time>2021-07-26T11:21:04Z</time>
      </trkpt>
      <trkpt lat="42.465187" lon="-2.454740">
        <ele>401.058</ele>
        <time>2021-07-26T11:21:06Z</time>
      </trkpt>
      <trkpt lat="42.465163" lon="-2.454560">
        <ele>401.930</ele>
        <time>2021-07-26T11:21:12Z</time>
      </trkpt>
      <trkpt lat="42.465150" lon="-2.454496">
        <ele>401.927</ele>
        <time>2021-07-26T11:21:14Z</time>
      </trkpt>
      <trkpt lat="42.465139" lon="-2.454452">
        <ele>401.417</ele>
        <time>2021-07-26T11:21:16Z</time>
      </trkpt>
      <trkpt lat="42.465320" lon="-2.454208">
        <ele>402.961</ele>
        <time>2021-07-26T11:21:24Z</time>
      </trkpt>
      <trkpt lat="42.465409" lon="-2.453893">
        <ele>404.399</ele>
        <time>2021-07-26T11:21:30Z</time>
      </trkpt>
      <trkpt lat="42.465486" lon="-2.453605">
        <ele>404.316</ele>
        <time>2021-07-26T11:21:35Z</time>
      </trkpt>
      <trkpt lat="42.465526" lon="-2.453439">
        <ele>403.844</ele>
        <time>2021-07-26T11:21:38Z</time>
      </trkpt>
      <trkpt lat="42.465638" lon="-2.453021">
        <ele>404.314</ele>
        <time>2021-07-26T11:21:46Z</time>
      </trkpt>
      <trkpt lat="42.465743" lon="-2.452751">
        <ele>406.254</ele>
        <time>2021-07-26T11:21:53Z</time>
      </trkpt>
      <trkpt lat="42.465755" lon="-2.452681">
        <ele>406.209</ele>
        <time>2021-07-26T11:21:55Z</time>
      </trkpt>
      <trkpt lat="42.465737" lon="-2.452588">
        <ele>407.208</ele>
        <time>2021-07-26T11:22:01Z</time>
      </trkpt>
      <trkpt lat="42.465745" lon="-2.452529">
        <ele>408.728</ele>
        <time>2021-07-26T11:22:18Z</time>
      </trkpt>
      <trkpt lat="42.465794" lon="-2.452536">
        <ele>410.170</ele>
        <time>2021-07-26T11:22:37Z</time>
      </trkpt>
      <trkpt lat="42.465794" lon="-2.452556">
        <ele>410.677</ele>
        <time>2021-07-26T11:22:49Z</time>
      </trkpt>
      <trkpt lat="42.465806" lon="-2.452528">
        <ele>413.087</ele>
        <time>2021-07-26T11:23:04Z</time>
      </trkpt>
      <trkpt lat="42.465812" lon="-2.452508">
        <ele>415.431</ele>
        <time>2021-07-26T11:23:19Z</time>
      </trkpt>
      <trkpt lat="42.465846" lon="-2.452518">
        <ele>418.389</ele>
        <time>2021-07-26T11:23:35Z</time>
      </trkpt>
      <trkpt lat="42.465834" lon="-2.452531">
        <ele>419.276</ele>
        <time>2021-07-26T11:23:42Z</time>
      </trkpt>
      <trkpt lat="42.465844" lon="-2.452524">
        <ele>420.234</ele>
        <time>2021-07-26T11:23:52Z</time>
      </trkpt>
      <trkpt lat="42.465843" lon="-2.452560">
        <ele>418.331</ele>
        <time>2021-07-26T11:24:03Z</time>
      </trkpt>
      <trkpt lat="42.465853" lon="-2.452594">
        <ele>417.361</ele>
        <time>2021-07-26T11:24:09Z</time>
      </trkpt>
      <trkpt lat="42.465880" lon="-2.452643">
        <ele>417.307</ele>
        <time>2021-07-26T11:24:17Z</time>
      </trkpt>
      <trkpt lat="42.465955" lon="-2.452613">
        <ele>416.308</ele>
        <time>2021-07-26T11:24:24Z</time>
      </trkpt>
      <trkpt lat="42.465967" lon="-2.452615">
        <ele>416.840</ele>
        <time>2021-07-26T11:24:25Z</time>
      </trkpt>
      <trkpt lat="42.466089" lon="-2.452657">
        <ele>420.272</ele>
        <time>2021-07-26T11:24:35Z</time>
      </trkpt>
      <trkpt lat="42.466194" lon="-2.452704">
        <ele>423.169</ele>
        <time>2021-07-26T11:24:44Z</time>
      </trkpt>
      <trkpt lat="42.466328" lon="-2.452754">
        <ele>427.469</ele>
        <time>2021-07-26T11:24:54Z</time>
      </trkpt>
      <trkpt lat="42.466470" lon="-2.452821">
        <ele>430.833</ele>
        <time>2021-07-26T11:25:05Z</time>
      </trkpt>
      <trkpt lat="42.466597" lon="-2.452888">
        <ele>433.651</ele>
        <time>2021-07-26T11:25:15Z</time>
      </trkpt>
      <trkpt lat="42.466698" lon="-2.452897">
        <ele>432.298</ele>
        <time>2021-07-26T11:25:21Z</time>
      </trkpt>
      <trkpt lat="42.466765" lon="-2.452891">
        <ele>424.526</ele>
        <time>2021-07-26T11:25:28Z</time>
      </trkpt>
      <trkpt lat="42.466825" lon="-2.452866">
        <ele>416.863</ele>
        <time>2021-07-26T11:25:35Z</time>
      </trkpt>
      <trkpt lat="42.466872" lon="-2.452846">
        <ele>414.944</ele>
        <time>2021-07-26T11:25:38Z</time>
      </trkpt>
      <trkpt lat="42.466913" lon="-2.452800">
        <ele>413.518</ele>
        <time>2021-07-26T11:25:42Z</time>
      </trkpt>
      <trkpt lat="42.466924" lon="-2.452703">
        <ele>409.108</ele>
        <time>2021-07-26T11:25:48Z</time>
      </trkpt>
      <trkpt lat="42.466899" lon="-2.452652">
        <ele>406.743</ele>
        <time>2021-07-26T11:25:53Z</time>
      </trkpt>
      <trkpt lat="42.466856" lon="-2.452568">
        <ele>404.355</ele>
        <time>2021-07-26T11:25:57Z</time>
      </trkpt>
      <trkpt lat="42.466708" lon="-2.452210">
        <ele>401.982</ele>
        <time>2021-07-26T11:26:06Z</time>
      </trkpt>
      <trkpt lat="42.466513" lon="-2.451765">
        <ele>400.582</ele>
        <time>2021-07-26T11:26:16Z</time>
      </trkpt>
      <trkpt lat="42.466369" lon="-2.451505">
        <ele>399.026</ele>
        <time>2021-07-26T11:26:24Z</time>
      </trkpt>
      <trkpt lat="42.466354" lon="-2.451480">
        <ele>398.144</ele>
        <time>2021-07-26T11:26:29Z</time>
      </trkpt>
      <trkpt lat="42.466412" lon="-2.451406">
        <ele>401.081</ele>
        <time>2021-07-26T11:26:35Z</time>
      </trkpt>
      <trkpt lat="42.466433" lon="-2.451324">
        <ele>400.579</ele>
        <time>2021-07-26T11:26:42Z</time>
      </trkpt>
      <trkpt lat="42.466507" lon="-2.451190">
        <ele>401.061</ele>
        <time>2021-07-26T11:26:50Z</time>
      </trkpt>
      <trkpt lat="42.466669" lon="-2.451130">
        <ele>399.521</ele>
        <time>2021-07-26T11:27:02Z</time>
      </trkpt>
      <trkpt lat="42.466828" lon="-2.451035">
        <ele>397.613</ele>
        <time>2021-07-26T11:27:14Z</time>
      </trkpt>
      <trkpt lat="42.466967" lon="-2.450928">
        <ele>395.708</ele>
        <time>2021-07-26T11:27:25Z</time>
      </trkpt>
      <trkpt lat="42.467070" lon="-2.450883">
        <ele>394.773</ele>
        <time>2021-07-26T11:27:33Z</time>
      </trkpt>
      <trkpt lat="42.467153" lon="-2.450751">
        <ele>392.875</ele>
        <time>2021-07-26T11:27:42Z</time>
      </trkpt>
      <trkpt lat="42.467182" lon="-2.450579">
        <ele>392.882</ele>
        <time>2021-07-26T11:27:51Z</time>
      </trkpt>
      <trkpt lat="42.467227" lon="-2.450389">
        <ele>391.862</ele>
        <time>2021-07-26T11:28:02Z</time>
      </trkpt>
      <trkpt lat="42.467234" lon="-2.450371">
        <ele>391.376</ele>
        <time>2021-07-26T11:28:06Z</time>
      </trkpt>
      <trkpt lat="42.467264" lon="-2.450319">
        <ele>391.364</ele>
        <time>2021-07-26T11:28:10Z</time>
      </trkpt>
      <trkpt lat="42.467344" lon="-2.450108">
        <ele>389.931</ele>
        <time>2021-07-26T11:28:22Z</time>
      </trkpt>
      <trkpt lat="42.467382" lon="-2.449988">
        <ele>390.479</ele>
        <time>2021-07-26T11:28:30Z</time>
      </trkpt>
      <trkpt lat="42.467395" lon="-2.449956">
        <ele>389.998</ele>
        <time>2021-07-26T11:28:37Z</time>
      </trkpt>
      <trkpt lat="42.467470" lon="-2.449790">
        <ele>389.915</ele>
        <time>2021-07-26T11:28:47Z</time>
      </trkpt>
      <trkpt lat="42.467492" lon="-2.449761">
        <ele>390.426</ele>
        <time>2021-07-26T11:28:53Z</time>
      </trkpt>
      <trkpt lat="42.467494" lon="-2.449762">
        <ele>390.408</ele>
        <time>2021-07-26T11:28:54Z</time>
      </trkpt>
      <trkpt lat="42.467606" lon="-2.449808">
        <ele>389.936</ele>
        <time>2021-07-26T11:29:00Z</time>
      </trkpt>
      <trkpt lat="42.467856" lon="-2.449969">
        <ele>388.528</ele>
        <time>2021-07-26T11:29:08Z</time>
      </trkpt>
      <trkpt lat="42.467986" lon="-2.449990">
        <ele>387.565</ele>
        <time>2021-07-26T11:29:12Z</time>
      </trkpt>
      <trkpt lat="42.468254" lon="-2.449877">
        <ele>383.795</ele>
        <time>2021-07-26T11:29:20Z</time>
      </trkpt>
      <trkpt lat="42.468410" lon="-2.449843">
        <ele>381.799</ele>
        <time>2021-07-26T11:29:26Z</time>
      </trkpt>
      <trkpt lat="42.468577" lon="-2.449849">
        <ele>380.867</ele>
        <time>2021-07-26T11:29:31Z</time>
      </trkpt>
      <trkpt lat="42.468833" lon="-2.449896">
        <ele>379.364</ele>
        <time>2021-07-26T11:29:38Z</time>
      </trkpt>
      <trkpt lat="42.468961" lon="-2.450044">
        <ele>378.452</ele>
        <time>2021-07-26T11:29:43Z</time>
      </trkpt>
      <trkpt lat="42.469030" lon="-2.450349">
        <ele>378.424</ele>
        <time>2021-07-26T11:29:50Z</time>
      </trkpt>
      <trkpt lat="42.469029" lon="-2.450517">
        <ele>377.404</ele>
        <time>2021-07-26T11:29:54Z</time>
      </trkpt>
      <trkpt lat="42.469040" lon="-2.450539">
        <ele>377.414</ele>
        <time>2021-07-26T11:29:55Z</time>
      </trkpt>
      <trkpt lat="42.469050" lon="-2.450552">
        <ele>377.408</ele>
        <time>2021-07-26T11:29:56Z</time>
      </trkpt>
      <trkpt lat="42.469058" lon="-2.450560">
        <ele>376.989</ele>
        <time>2021-07-26T11:29:57Z</time>
      </trkpt>
      <trkpt lat="42.469077" lon="-2.450546">
        <ele>376.991</ele>
        <time>2021-07-26T11:30:03Z</time>
      </trkpt>
      <trkpt lat="42.469077" lon="-2.450519">
        <ele>376.938</ele>
        <time>2021-07-26T11:30:09Z</time>
      </trkpt>
      <trkpt lat="42.469080" lon="-2.450498">
        <ele>377.448</ele>
        <time>2021-07-26T11:30:10Z</time>
      </trkpt>
      <trkpt lat="42.469083" lon="-2.450472">
        <ele>377.462</ele>
        <time>2021-07-26T11:30:11Z</time>
      </trkpt>
      <trkpt lat="42.469088" lon="-2.450443">
        <ele>377.480</ele>
        <time>2021-07-26T11:30:12Z</time>
      </trkpt>
      <trkpt lat="42.469096" lon="-2.450414">
        <ele>376.937</ele>
        <time>2021-07-26T11:30:13Z</time>
      </trkpt>
      <trkpt lat="42.469104" lon="-2.450386">
        <ele>376.955</ele>
        <time>2021-07-26T11:30:14Z</time>
      </trkpt>
      <trkpt lat="42.469162" lon="-2.450151">
        <ele>376.422</ele>
        <time>2021-07-26T11:30:22Z</time>
      </trkpt>
      <trkpt lat="42.469183" lon="-2.450144">
        <ele>376.462</ele>
        <time>2021-07-26T11:30:23Z</time>
      </trkpt>
      <trkpt lat="42.469204" lon="-2.450149">
        <ele>376.408</ele>
        <time>2021-07-26T11:30:24Z</time>
      </trkpt>
      <trkpt lat="42.469444" lon="-2.450236">
        <ele>378.908</ele>
        <time>2021-07-26T11:30:33Z</time>
      </trkpt>
      <trkpt lat="42.469663" lon="-2.450319">
        <ele>380.359</ele>
        <time>2021-07-26T11:30:40Z</time>
      </trkpt>
      <trkpt lat="42.469955" lon="-2.450448">
        <ele>380.361</ele>
        <time>2021-07-26T11:30:49Z</time>
      </trkpt>
      <trkpt lat="42.470274" lon="-2.450581">
        <ele>379.848</ele>
        <time>2021-07-26T11:30:59Z</time>
      </trkpt>
      <trkpt lat="42.470495" lon="-2.450689">
        <ele>379.378</ele>
        <time>2021-07-26T11:31:07Z</time>
      </trkpt>
      <trkpt lat="42.470746" lon="-2.450782">
        <ele>377.462</ele>
        <time>2021-07-26T11:31:15Z</time>
      </trkpt>
      <trkpt lat="42.471044" lon="-2.450908">
        <ele>376.970</ele>
        <time>2021-07-26T11:31:25Z</time>
      </trkpt>
      <trkpt lat="42.471218" lon="-2.450993">
        <ele>379.327</ele>
        <time>2021-07-26T11:31:33Z</time>
      </trkpt>
      <trkpt lat="42.471314" lon="-2.451085">
        <ele>379.875</ele>
        <time>2021-07-26T11:31:38Z</time>
      </trkpt>
      <trkpt lat="42.471252" lon="-2.451216">
        <ele>378.445</ele>
        <time>2021-07-26T11:31:43Z</time>
      </trkpt>
      <trkpt lat="42.471108" lon="-2.451444">
        <ele>377.447</ele>
        <time>2021-07-26T11:31:49Z</time>
      </trkpt>
      <trkpt lat="42.471040" lon="-2.451764">
        <ele>377.411</ele>
        <time>2021-07-26T11:31:56Z</time>
      </trkpt>
      <trkpt lat="42.470967" lon="-2.452222">
        <ele>377.908</ele>
        <time>2021-07-26T11:32:05Z</time>
      </trkpt>
      <trkpt lat="42.470932" lon="-2.452801">
        <ele>376.931</ele>
        <time>2021-07-26T11:32:16Z</time>
      </trkpt>
      <trkpt lat="42.470944" lon="-2.453272">
        <ele>375.583</ele>
        <time>2021-07-26T11:32:25Z</time>
      </trkpt>
      <trkpt lat="42.470913" lon="-2.453636">
        <ele>375.070</ele>
        <time>2021-07-26T11:32:33Z</time>
      </trkpt>
      <trkpt lat="42.470836" lon="-2.454138">
        <ele>375.020</ele>
        <time>2021-07-26T11:32:43Z</time>
      </trkpt>
      <trkpt lat="42.470806" lon="-2.454546">
        <ele>375.574</ele>
        <time>2021-07-26T11:32:52Z</time>
      </trkpt>
      <trkpt lat="42.470866" lon="-2.454566">
        <ele>375.512</ele>
        <time>2021-07-26T11:32:57Z</time>
      </trkpt>
      <trkpt lat="42.471027" lon="-2.454487">
        <ele>373.159</ele>
        <time>2021-07-26T11:33:06Z</time>
      </trkpt>
      <trkpt lat="42.471040" lon="-2.454493">
        <ele>372.627</ele>
        <time>2021-07-26T11:33:07Z</time>
      </trkpt>
      <trkpt lat="42.471062" lon="-2.454534">
        <ele>372.189</ele>
        <time>2021-07-26T11:33:14Z</time>
      </trkpt>
      <trkpt lat="42.471061" lon="-2.454518">
        <ele>369.706</ele>
        <time>2021-07-26T11:33:30Z</time>
      </trkpt>
      <trkpt lat="42.471078" lon="-2.454534">
        <ele>370.726</ele>
        <time>2021-07-26T11:33:35Z</time>
      </trkpt>
      <trkpt lat="42.471100" lon="-2.454581">
        <ele>371.208</ele>
        <time>2021-07-26T11:33:40Z</time>
      </trkpt>
      <trkpt lat="42.471056" lon="-2.454632">
        <ele>371.225</ele>
        <time>2021-07-26T11:33:45Z</time>
      </trkpt>
      <trkpt lat="42.471004" lon="-2.454647">
        <ele>372.147</ele>
        <time>2021-07-26T11:33:53Z</time>
      </trkpt>
      <trkpt lat="42.471011" lon="-2.454630">
        <ele>373.124</ele>
        <time>2021-07-26T11:34:08Z</time>
      </trkpt>
      <trkpt lat="42.471010" lon="-2.454639">
        <ele>371.684</ele>
        <time>2021-07-26T11:34:28Z</time>
      </trkpt>
      <trkpt lat="42.471017" lon="-2.454646">
        <ele>370.718</ele>
        <time>2021-07-26T11:34:43Z</time>
      </trkpt>
      <trkpt lat="42.470980" lon="-2.454674">
        <ele>371.236</ele>
        <time>2021-07-26T11:34:51Z</time>
      </trkpt>
      <trkpt lat="42.470990" lon="-2.454660">
        <ele>370.233</ele>
        <time>2021-07-26T11:35:08Z</time>
      </trkpt>
      <trkpt lat="42.470990" lon="-2.454656">
        <ele>370.791</ele>
        <time>2021-07-26T11:35:23Z</time>
      </trkpt>
      <trkpt lat="42.470975" lon="-2.454659">
        <ele>370.755</ele>
        <time>2021-07-26T11:35:38Z</time>
      </trkpt>
      <trkpt lat="42.470978" lon="-2.454646">
        <ele>370.207</ele>
        <time>2021-07-26T11:35:53Z</time>
      </trkpt>
      <trkpt lat="42.470981" lon="-2.454649">
        <ele>370.217</ele>
        <time>2021-07-26T11:36:10Z</time>
      </trkpt>
      <trkpt lat="42.470976" lon="-2.454663">
        <ele>371.608</ele>
        <time>2021-07-26T11:36:26Z</time>
      </trkpt>
      <trkpt lat="42.470967" lon="-2.454661">
        <ele>374.562</ele>
        <time>2021-07-26T11:36:42Z</time>
      </trkpt>
      <trkpt lat="42.470958" lon="-2.454667">
        <ele>376.954</ele>
        <time>2021-07-26T11:37:03Z</time>
      </trkpt>
      <trkpt lat="42.470959" lon="-2.454652">
        <ele>376.011</ele>
        <time>2021-07-26T11:37:16Z</time>
      </trkpt>
      <trkpt lat="42.470955" lon="-2.454643">
        <ele>374.581</ele>
        <time>2021-07-26T11:37:30Z</time>
      </trkpt>
      <trkpt lat="42.470964" lon="-2.454639">
        <ele>373.175</ele>
        <time>2021-07-26T11:37:46Z</time>
      </trkpt>
      <trkpt lat="42.470965" lon="-2.454635">
        <ele>372.693</ele>
        <time>2021-07-26T11:38:00Z</time>
      </trkpt>
      <trkpt lat="42.470958" lon="-2.454649">
        <ele>371.620</ele>
        <time>2021-07-26T11:38:21Z</time>
      </trkpt>
      <trkpt lat="42.470973" lon="-2.454643">
        <ele>371.688</ele>
        <time>2021-07-26T11:38:39Z</time>
      </trkpt>
      <trkpt lat="42.470987" lon="-2.454643">
        <ele>372.127</ele>
        <time>2021-07-26T11:38:56Z</time>
      </trkpt>
      <trkpt lat="42.470979" lon="-2.454655">
        <ele>370.768</ele>
        <time>2021-07-26T11:39:17Z</time>
      </trkpt>
      <trkpt lat="42.470966" lon="-2.454638">
        <ele>371.614</ele>
        <time>2021-07-26T11:39:35Z</time>
      </trkpt>
      <trkpt lat="42.470970" lon="-2.454658">
        <ele>372.108</ele>
        <time>2021-07-26T11:39:41Z</time>
      </trkpt>
      <trkpt lat="42.471052" lon="-2.454647">
        <ele>373.669</ele>
        <time>2021-07-26T11:39:49Z</time>
      </trkpt>
      <trkpt lat="42.471172" lon="-2.454617">
        <ele>374.011</ele>
        <time>2021-07-26T11:39:59Z</time>
      </trkpt>
      <trkpt lat="42.471182" lon="-2.454616">
        <ele>374.078</ele>
        <time>2021-07-26T11:40:00Z</time>
      </trkpt>
      <trkpt lat="42.471209" lon="-2.454630">
        <ele>373.698</ele>
        <time>2021-07-26T11:40:03Z</time>
      </trkpt>
      <trkpt lat="42.471256" lon="-2.454769">
        <ele>376.472</ele>
        <time>2021-07-26T11:40:12Z</time>
      </trkpt>
      <trkpt lat="42.471288" lon="-2.454901">
        <ele>376.020</ele>
        <time>2021-07-26T11:40:22Z</time>
      </trkpt>
      <trkpt lat="42.471291" lon="-2.454910">
        <ele>376.977</ele>
        <time>2021-07-26T11:40:37Z</time>
      </trkpt>
      <trkpt lat="42.471305" lon="-2.454918">
        <ele>377.995</ele>
        <time>2021-07-26T11:40:58Z</time>
      </trkpt>
      <trkpt lat="42.471306" lon="-2.454901">
        <ele>381.352</ele>
        <time>2021-07-26T11:41:25Z</time>
      </trkpt>
      <trkpt lat="42.471293" lon="-2.454913">
        <ele>381.353</ele>
        <time>2021-07-26T11:41:43Z</time>
      </trkpt>
      <trkpt lat="42.471266" lon="-2.454905">
        <ele>379.308</ele>
        <time>2021-07-26T11:42:01Z</time>
      </trkpt>
      <trkpt lat="42.471260" lon="-2.454915">
        <ele>378.908</ele>
        <time>2021-07-26T11:42:17Z</time>
      </trkpt>
      <trkpt lat="42.471277" lon="-2.454904">
        <ele>377.482</ele>
        <time>2021-07-26T11:42:30Z</time>
      </trkpt>
      <trkpt lat="42.471290" lon="-2.454910">
        <ele>375.524</ele>
        <time>2021-07-26T11:42:46Z</time>
      </trkpt>
      <trkpt lat="42.471292" lon="-2.454913">
        <ele>375.061</ele>
        <time>2021-07-26T11:43:05Z</time>
      </trkpt>
      <trkpt lat="42.471288" lon="-2.454897">
        <ele>374.031</ele>
        <time>2021-07-26T11:43:22Z</time>
      </trkpt>
      <trkpt lat="42.471301" lon="-2.454893">
        <ele>376.055</ele>
        <time>2021-07-26T11:43:39Z</time>
      </trkpt>
      <trkpt lat="42.471316" lon="-2.454896">
        <ele>376.493</ele>
        <time>2021-07-26T11:44:04Z</time>
      </trkpt>
      <trkpt lat="42.471309" lon="-2.454905">
        <ele>377.490</ele>
        <time>2021-07-26T11:44:21Z</time>
      </trkpt>
      <trkpt lat="42.471294" lon="-2.454907">
        <ele>377.458</ele>
        <time>2021-07-26T11:44:29Z</time>
      </trkpt>
      <trkpt lat="42.471291" lon="-2.454881">
        <ele>377.422</ele>
        <time>2021-07-26T11:44:39Z</time>
      </trkpt>
      <trkpt lat="42.471281" lon="-2.454883">
        <ele>376.962</ele>
        <time>2021-07-26T11:44:51Z</time>
      </trkpt>
      <trkpt lat="42.471253" lon="-2.454915">
        <ele>376.908</ele>
        <time>2021-07-26T11:45:05Z</time>
      </trkpt>
      <trkpt lat="42.471183" lon="-2.454854">
        <ele>350.008</ele>
        <time>2021-07-27T06:31:52Z</time>
      </trkpt>
      <trkpt lat="42.471021" lon="-2.454651">
        <ele>376.089</ele>
        <time>2021-07-27T06:33:02Z</time>
      </trkpt>
      <trkpt lat="42.470989" lon="-2.454622">
        <ele>379.351</ele>
        <time>2021-07-27T06:33:11Z</time>
      </trkpt>
      <trkpt lat="42.470988" lon="-2.454520">
        <ele>377.918</ele>
        <time>2021-07-27T06:33:21Z</time>
      </trkpt>
      <trkpt lat="42.470980" lon="-2.454428">
        <ele>373.118</ele>
        <time>2021-07-27T06:33:25Z</time>
      </trkpt>
      <trkpt lat="42.470930" lon="-2.454456">
        <ele>372.142</ele>
        <time>2021-07-27T06:33:29Z</time>
      </trkpt>
      <trkpt lat="42.470788" lon="-2.454535">
        <ele>372.190</ele>
        <time>2021-07-27T06:33:38Z</time>
      </trkpt>
      <trkpt lat="42.470794" lon="-2.454522">
        <ele>370.727</ele>
        <time>2021-07-27T06:33:43Z</time>
      </trkpt>
      <trkpt lat="42.470813" lon="-2.454540">
        <ele>369.725</ele>
        <time>2021-07-27T06:33:58Z</time>
      </trkpt>
      <trkpt lat="42.470818" lon="-2.454544">
        <ele>368.831</ele>
        <time>2021-07-27T06:34:02Z</time>
      </trkpt>
      <trkpt lat="42.470789" lon="-2.454381">
        <ele>368.361</ele>
        <time>2021-07-27T06:34:09Z</time>
      </trkpt>
      <trkpt lat="42.470808" lon="-2.454038">
        <ele>366.807</ele>
        <time>2021-07-27T06:34:18Z</time>
      </trkpt>
      <trkpt lat="42.470840" lon="-2.453738">
        <ele>365.408</ele>
        <time>2021-07-27T06:34:25Z</time>
      </trkpt>
      <trkpt lat="42.470872" lon="-2.453384">
        <ele>363.560</ele>
        <time>2021-07-27T06:34:34Z</time>
      </trkpt>
      <trkpt lat="42.470878" lon="-2.452980">
        <ele>362.522</ele>
        <time>2021-07-27T06:34:43Z</time>
      </trkpt>
      <trkpt lat="42.470907" lon="-2.452494">
        <ele>363.049</ele>
        <time>2021-07-27T06:34:53Z</time>
      </trkpt>
      <trkpt lat="42.470987" lon="-2.451989">
        <ele>364.459</ele>
        <time>2021-07-27T06:35:04Z</time>
      </trkpt>
      <trkpt lat="42.471079" lon="-2.451520">
        <ele>365.413</ele>
        <time>2021-07-27T06:35:14Z</time>
      </trkpt>
      <trkpt lat="42.471198" lon="-2.451247">
        <ele>366.891</ele>
        <time>2021-07-27T06:35:21Z</time>
      </trkpt>
      <trkpt lat="42.471348" lon="-2.451077">
        <ele>367.878</ele>
        <time>2021-07-27T06:35:28Z</time>
      </trkpt>
      <trkpt lat="42.471316" lon="-2.450885">
        <ele>366.836</ele>
        <time>2021-07-27T06:35:33Z</time>
      </trkpt>
      <trkpt lat="42.471300" lon="-2.450843">
        <ele>366.819</ele>
        <time>2021-07-27T06:35:34Z</time>
      </trkpt>
      <trkpt lat="42.471265" lon="-2.450692">
        <ele>366.409</ele>
        <time>2021-07-27T06:35:37Z</time>
      </trkpt>
      <trkpt lat="42.471282" lon="-2.450372">
        <ele>365.419</ele>
        <time>2021-07-27T06:35:43Z</time>
      </trkpt>
      <trkpt lat="42.471346" lon="-2.449912">
        <ele>364.408</ele>
        <time>2021-07-27T06:35:52Z</time>
      </trkpt>
      <trkpt lat="42.471389" lon="-2.449564">
        <ele>364.098</ele>
        <time>2021-07-27T06:35:59Z</time>
      </trkpt>
      <trkpt lat="42.471438" lon="-2.449151">
        <ele>363.560</ele>
        <time>2021-07-27T06:36:07Z</time>
      </trkpt>
      <trkpt lat="42.471468" lon="-2.448832">
        <ele>364.047</ele>
        <time>2021-07-27T06:36:14Z</time>
      </trkpt>
      <trkpt lat="42.471463" lon="-2.448606">
        <ele>364.017</ele>
        <time>2021-07-27T06:36:20Z</time>
      </trkpt>
      <trkpt lat="42.471402" lon="-2.448390">
        <ele>364.471</ele>
        <time>2021-07-27T06:36:25Z</time>
      </trkpt>
      <trkpt lat="42.471372" lon="-2.448067">
        <ele>363.549</ele>
        <time>2021-07-27T06:36:32Z</time>
      </trkpt>
      <trkpt lat="42.471353" lon="-2.447664">
        <ele>364.026</ele>
        <time>2021-07-27T06:36:41Z</time>
      </trkpt>
      <trkpt lat="42.471357" lon="-2.447145">
        <ele>364.044</ele>
        <time>2021-07-27T06:36:52Z</time>
      </trkpt>
      <trkpt lat="42.471361" lon="-2.446926">
        <ele>363.026</ele>
        <time>2021-07-27T06:36:58Z</time>
      </trkpt>
      <trkpt lat="42.471351" lon="-2.446901">
        <ele>363.047</ele>
        <time>2021-07-27T06:36:59Z</time>
      </trkpt>
      <trkpt lat="42.471336" lon="-2.446864">
        <ele>362.511</ele>
        <time>2021-07-27T06:37:00Z</time>
      </trkpt>
      <trkpt lat="42.471318" lon="-2.446832">
        <ele>362.508</ele>
        <time>2021-07-27T06:37:01Z</time>
      </trkpt>
      <trkpt lat="42.471300" lon="-2.446799">
        <ele>362.599</ele>
        <time>2021-07-27T06:37:02Z</time>
      </trkpt>
      <trkpt lat="42.471267" lon="-2.446723">
        <ele>363.021</ele>
        <time>2021-07-27T06:37:04Z</time>
      </trkpt>
      <trkpt lat="42.471185" lon="-2.446448">
        <ele>363.018</ele>
        <time>2021-07-27T06:37:14Z</time>
      </trkpt>
      <trkpt lat="42.471119" lon="-2.446210">
        <ele>363.518</ele>
        <time>2021-07-27T06:37:23Z</time>
      </trkpt>
      <trkpt lat="42.471041" lon="-2.445962">
        <ele>365.412</ele>
        <time>2021-07-27T06:37:33Z</time>
      </trkpt>
      <trkpt lat="42.470949" lon="-2.445666">
        <ele>364.450</ele>
        <time>2021-07-27T06:37:42Z</time>
      </trkpt>
      <trkpt lat="42.470878" lon="-2.445309">
        <ele>364.097</ele>
        <time>2021-07-27T06:37:52Z</time>
      </trkpt>
      <trkpt lat="42.470872" lon="-2.445240">
        <ele>364.045</ele>
        <time>2021-07-27T06:37:54Z</time>
      </trkpt>
      <trkpt lat="42.470936" lon="-2.445160">
        <ele>364.046</ele>
        <time>2021-07-27T06:37:59Z</time>
      </trkpt>
      <trkpt lat="42.471053" lon="-2.445097">
        <ele>365.988</ele>
        <time>2021-07-27T06:38:04Z</time>
      </trkpt>
      <trkpt lat="42.471076" lon="-2.445047">
        <ele>366.816</ele>
        <time>2021-07-27T06:38:06Z</time>
      </trkpt>
      <trkpt lat="42.471078" lon="-2.445014">
        <ele>366.808</ele>
        <time>2021-07-27T06:38:07Z</time>
      </trkpt>
      <trkpt lat="42.471076" lon="-2.444984">
        <ele>367.351</ele>
        <time>2021-07-27T06:38:08Z</time>
      </trkpt>
      <trkpt lat="42.471072" lon="-2.444952">
        <ele>367.393</ele>
        <time>2021-07-27T06:38:09Z</time>
      </trkpt>
      <trkpt lat="42.471013" lon="-2.444638">
        <ele>368.330</ele>
        <time>2021-07-27T06:38:18Z</time>
      </trkpt>
      <trkpt lat="42.470986" lon="-2.444408">
        <ele>370.790</ele>
        <time>2021-07-27T06:38:26Z</time>
      </trkpt>
      <trkpt lat="42.470944" lon="-2.444252">
        <ele>373.134</ele>
        <time>2021-07-27T06:38:33Z</time>
      </trkpt>
      <trkpt lat="42.470888" lon="-2.444140">
        <ele>373.182</ele>
        <time>2021-07-27T06:38:39Z</time>
      </trkpt>
      <trkpt lat="42.470892" lon="-2.444115">
        <ele>373.119</ele>
        <time>2021-07-27T06:38:40Z</time>
      </trkpt>
      <trkpt lat="42.470897" lon="-2.444092">
        <ele>373.197</ele>
        <time>2021-07-27T06:38:41Z</time>
      </trkpt>
      <trkpt lat="42.470906" lon="-2.444063">
        <ele>373.193</ele>
        <time>2021-07-27T06:38:42Z</time>
      </trkpt>
      <trkpt lat="42.470918" lon="-2.444034">
        <ele>373.665</ele>
        <time>2021-07-27T06:38:43Z</time>
      </trkpt>
      <trkpt lat="42.470934" lon="-2.444013">
        <ele>373.621</ele>
        <time>2021-07-27T06:38:44Z</time>
      </trkpt>
      <trkpt lat="42.470955" lon="-2.443999">
        <ele>373.608</ele>
        <time>2021-07-27T06:38:45Z</time>
      </trkpt>
      <trkpt lat="42.470975" lon="-2.443985">
        <ele>373.126</ele>
        <time>2021-07-27T06:38:46Z</time>
      </trkpt>
      <trkpt lat="42.470994" lon="-2.443964">
        <ele>373.148</ele>
        <time>2021-07-27T06:38:47Z</time>
      </trkpt>
      <trkpt lat="42.471005" lon="-2.443938">
        <ele>373.145</ele>
        <time>2021-07-27T06:38:48Z</time>
      </trkpt>
      <trkpt lat="42.471012" lon="-2.443905">
        <ele>373.175</ele>
        <time>2021-07-27T06:38:49Z</time>
      </trkpt>
      <trkpt lat="42.471019" lon="-2.443867">
        <ele>372.659</ele>
        <time>2021-07-27T06:38:50Z</time>
      </trkpt>
      <trkpt lat="42.471024" lon="-2.443845">
        <ele>372.637</ele>
        <time>2021-07-27T06:38:51Z</time>
      </trkpt>
      <trkpt lat="42.471031" lon="-2.443817">
        <ele>372.684</ele>
        <time>2021-07-27T06:38:52Z</time>
      </trkpt>
      <trkpt lat="42.471037" lon="-2.443790">
        <ele>372.172</ele>
        <time>2021-07-27T06:38:53Z</time>
      </trkpt>
      <trkpt lat="42.471043" lon="-2.443765">
        <ele>372.166</ele>
        <time>2021-07-27T06:38:54Z</time>
      </trkpt>
      <trkpt lat="42.471106" lon="-2.443521">
        <ele>371.629</ele>
        <time>2021-07-27T06:39:01Z</time>
      </trkpt>
      <trkpt lat="42.471197" lon="-2.443152">
        <ele>370.721</ele>
        <time>2021-07-27T06:39:10Z</time>
      </trkpt>
      <trkpt lat="42.471316" lon="-2.442697">
        <ele>369.208</ele>
        <time>2021-07-27T06:39:19Z</time>
      </trkpt>
      <trkpt lat="42.471444" lon="-2.442214">
        <ele>369.283</ele>
        <time>2021-07-27T06:39:29Z</time>
      </trkpt>
      <trkpt lat="42.471621" lon="-2.441664">
        <ele>369.725</ele>
        <time>2021-07-27T06:39:41Z</time>
      </trkpt>
      <trkpt lat="42.471772" lon="-2.441240">
        <ele>369.272</ele>
        <time>2021-07-27T06:39:51Z</time>
      </trkpt>
      <trkpt lat="42.471875" lon="-2.440977">
        <ele>369.292</ele>
        <time>2021-07-27T06:39:58Z</time>
      </trkpt>
      <trkpt lat="42.472104" lon="-2.440660">
        <ele>368.366</ele>
        <time>2021-07-27T06:40:07Z</time>
      </trkpt>
      <trkpt lat="42.472406" lon="-2.440309">
        <ele>366.464</ele>
        <time>2021-07-27T06:40:18Z</time>
      </trkpt>
      <trkpt lat="42.472597" lon="-2.440171">
        <ele>365.491</ele>
        <time>2021-07-27T06:40:26Z</time>
      </trkpt>
      <trkpt lat="42.472608" lon="-2.440176">
        <ele>365.979</ele>
        <time>2021-07-27T06:40:27Z</time>
      </trkpt>
      <trkpt lat="42.472714" lon="-2.440271">
        <ele>366.817</ele>
        <time>2021-07-27T06:40:34Z</time>
      </trkpt>
      <trkpt lat="42.472748" lon="-2.440257">
        <ele>366.887</ele>
        <time>2021-07-27T06:40:35Z</time>
      </trkpt>
      <trkpt lat="42.472973" lon="-2.440167">
        <ele>368.815</ele>
        <time>2021-07-27T06:40:42Z</time>
      </trkpt>
      <trkpt lat="42.473348" lon="-2.439913">
        <ele>369.208</ele>
        <time>2021-07-27T06:40:54Z</time>
      </trkpt>
      <trkpt lat="42.473579" lon="-2.439737">
        <ele>369.718</ele>
        <time>2021-07-27T06:41:02Z</time>
      </trkpt>
      <trkpt lat="42.473951" lon="-2.439587">
        <ele>370.220</ele>
        <time>2021-07-27T06:41:13Z</time>
      </trkpt>
      <trkpt lat="42.474276" lon="-2.439569">
        <ele>370.217</ele>
        <time>2021-07-27T06:41:22Z</time>
      </trkpt>
      <trkpt lat="42.474560" lon="-2.439536">
        <ele>370.287</ele>
        <time>2021-07-27T06:41:30Z</time>
      </trkpt>
      <trkpt lat="42.474959" lon="-2.439483">
        <ele>370.741</ele>
        <time>2021-07-27T06:41:40Z</time>
      </trkpt>
      <trkpt lat="42.475302" lon="-2.439380">
        <ele>369.719</ele>
        <time>2021-07-27T06:41:49Z</time>
      </trkpt>
      <trkpt lat="42.475582" lon="-2.439220">
        <ele>370.746</ele>
        <time>2021-07-27T06:41:57Z</time>
      </trkpt>
      <trkpt lat="42.475775" lon="-2.439166">
        <ele>372.164</ele>
        <time>2021-07-27T06:42:05Z</time>
      </trkpt>
      <trkpt lat="42.475872" lon="-2.439144">
        <ele>373.137</ele>
        <time>2021-07-27T06:42:11Z</time>
      </trkpt>
      <trkpt lat="42.476040" lon="-2.439138">
        <ele>374.049</ele>
        <time>2021-07-27T06:42:20Z</time>
      </trkpt>
      <trkpt lat="42.476196" lon="-2.439084">
        <ele>375.513</ele>
        <time>2021-07-27T06:42:30Z</time>
      </trkpt>
      <trkpt lat="42.476209" lon="-2.439073">
        <ele>375.508</ele>
        <time>2021-07-27T06:42:31Z</time>
      </trkpt>
      <trkpt lat="42.476221" lon="-2.439060">
        <ele>375.580</ele>
        <time>2021-07-27T06:42:32Z</time>
      </trkpt>
      <trkpt lat="42.476234" lon="-2.439049">
        <ele>376.072</ele>
        <time>2021-07-27T06:42:33Z</time>
      </trkpt>
      <trkpt lat="42.476246" lon="-2.439039">
        <ele>376.019</ele>
        <time>2021-07-27T06:42:34Z</time>
      </trkpt>
      <trkpt lat="42.476256" lon="-2.439030">
        <ele>376.019</ele>
        <time>2021-07-27T06:42:35Z</time>
      </trkpt>
      <trkpt lat="42.476264" lon="-2.439018">
        <ele>376.473</ele>
        <time>2021-07-27T06:42:36Z</time>
      </trkpt>
      <trkpt lat="42.476271" lon="-2.439004">
        <ele>376.451</ele>
        <time>2021-07-27T06:42:37Z</time>
      </trkpt>
      <trkpt lat="42.476278" lon="-2.438987">
        <ele>376.488</ele>
        <time>2021-07-27T06:42:38Z</time>
      </trkpt>
      <trkpt lat="42.476344" lon="-2.438867">
        <ele>379.326</ele>
        <time>2021-07-27T06:42:47Z</time>
      </trkpt>
      <trkpt lat="42.476362" lon="-2.438842">
        <ele>380.362</ele>
        <time>2021-07-27T06:42:50Z</time>
      </trkpt>
      <trkpt lat="42.476399" lon="-2.438757">
        <ele>381.383</ele>
        <time>2021-07-27T06:42:58Z</time>
      </trkpt>
      <trkpt lat="42.476414" lon="-2.438738">
        <ele>381.311</ele>
        <time>2021-07-27T06:43:00Z</time>
      </trkpt>
      <trkpt lat="42.476447" lon="-2.438668">
        <ele>381.708</ele>
        <time>2021-07-27T06:43:06Z</time>
      </trkpt>
      <trkpt lat="42.476519" lon="-2.438510">
        <ele>384.623</ele>
        <time>2021-07-27T06:43:17Z</time>
      </trkpt>
      <trkpt lat="42.476573" lon="-2.438395">
        <ele>386.185</ele>
        <time>2021-07-27T06:43:26Z</time>
      </trkpt>
      <trkpt lat="42.476579" lon="-2.438384">
        <ele>386.562</ele>
        <time>2021-07-27T06:43:27Z</time>
      </trkpt>
      <trkpt lat="42.476585" lon="-2.438372">
        <ele>386.572</ele>
        <time>2021-07-27T06:43:28Z</time>
      </trkpt>
      <trkpt lat="42.476615" lon="-2.438283">
        <ele>387.516</ele>
        <time>2021-07-27T06:43:35Z</time>
      </trkpt>
      <trkpt lat="42.476621" lon="-2.438269">
        <ele>388.014</ele>
        <time>2021-07-27T06:43:36Z</time>
      </trkpt>
      <trkpt lat="42.476649" lon="-2.438175">
        <ele>388.931</ele>
        <time>2021-07-27T06:43:43Z</time>
      </trkpt>
      <trkpt lat="42.476683" lon="-2.438110">
        <ele>389.459</ele>
        <time>2021-07-27T06:43:48Z</time>
      </trkpt>
      <trkpt lat="42.476685" lon="-2.438096">
        <ele>389.465</ele>
        <time>2021-07-27T06:43:49Z</time>
      </trkpt>
      <trkpt lat="42.476690" lon="-2.438081">
        <ele>389.468</ele>
        <time>2021-07-27T06:43:50Z</time>
      </trkpt>
      <trkpt lat="42.476697" lon="-2.438068">
        <ele>389.414</ele>
        <time>2021-07-27T06:43:51Z</time>
      </trkpt>
      <trkpt lat="42.476704" lon="-2.438054">
        <ele>389.408</ele>
        <time>2021-07-27T06:43:52Z</time>
      </trkpt>
      <trkpt lat="42.476712" lon="-2.438042">
        <ele>389.413</ele>
        <time>2021-07-27T06:43:53Z</time>
      </trkpt>
      <trkpt lat="42.476722" lon="-2.438032">
        <ele>389.995</ele>
        <time>2021-07-27T06:43:54Z</time>
      </trkpt>
      <trkpt lat="42.476732" lon="-2.438015">
        <ele>389.992</ele>
        <time>2021-07-27T06:43:55Z</time>
      </trkpt>
      <trkpt lat="42.476737" lon="-2.438007">
        <ele>389.942</ele>
        <time>2021-07-27T06:43:56Z</time>
      </trkpt>
      <trkpt lat="42.476745" lon="-2.437994">
        <ele>390.486</ele>
        <time>2021-07-27T06:43:57Z</time>
      </trkpt>
      <trkpt lat="42.476753" lon="-2.437981">
        <ele>390.464</ele>
        <time>2021-07-27T06:43:58Z</time>
      </trkpt>
      <trkpt lat="42.476760" lon="-2.437968">
        <ele>390.441</ele>
        <time>2021-07-27T06:43:59Z</time>
      </trkpt>
      <trkpt lat="42.476765" lon="-2.437952">
        <ele>390.479</ele>
        <time>2021-07-27T06:44:00Z</time>
      </trkpt>
      <trkpt lat="42.476771" lon="-2.437935">
        <ele>390.489</ele>
        <time>2021-07-27T06:44:01Z</time>
      </trkpt>
      <trkpt lat="42.476777" lon="-2.437918">
        <ele>390.406</ele>
        <time>2021-07-27T06:44:02Z</time>
      </trkpt>
      <trkpt lat="42.476785" lon="-2.437903">
        <ele>390.426</ele>
        <time>2021-07-27T06:44:03Z</time>
      </trkpt>
      <trkpt lat="42.476792" lon="-2.437888">
        <ele>390.908</ele>
        <time>2021-07-27T06:44:04Z</time>
      </trkpt>
      <trkpt lat="42.476799" lon="-2.437873">
        <ele>390.985</ele>
        <time>2021-07-27T06:44:05Z</time>
      </trkpt>
      <trkpt lat="42.476808" lon="-2.437860">
        <ele>390.977</ele>
        <time>2021-07-27T06:44:06Z</time>
      </trkpt>
      <trkpt lat="42.476814" lon="-2.437845">
        <ele>390.974</ele>
        <time>2021-07-27T06:44:07Z</time>
      </trkpt>
      <trkpt lat="42.476818" lon="-2.437830">
        <ele>391.344</ele>
        <time>2021-07-27T06:44:08Z</time>
      </trkpt>
      <trkpt lat="42.476825" lon="-2.437816">
        <ele>391.328</ele>
        <time>2021-07-27T06:44:09Z</time>
      </trkpt>
      <trkpt lat="42.476834" lon="-2.437802">
        <ele>391.316</ele>
        <time>2021-07-27T06:44:10Z</time>
      </trkpt>
      <trkpt lat="42.476843" lon="-2.437786">
        <ele>391.323</ele>
        <time>2021-07-27T06:44:11Z</time>
      </trkpt>
      <trkpt lat="42.476849" lon="-2.437770">
        <ele>391.831</ele>
        <time>2021-07-27T06:44:12Z</time>
      </trkpt>
      <trkpt lat="42.476855" lon="-2.437755">
        <ele>391.851</ele>
        <time>2021-07-27T06:44:13Z</time>
      </trkpt>
      <trkpt lat="42.476864" lon="-2.437740">
        <ele>391.801</ele>
        <time>2021-07-27T06:44:14Z</time>
      </trkpt>
      <trkpt lat="42.476873" lon="-2.437727">
        <ele>391.811</ele>
        <time>2021-07-27T06:44:15Z</time>
      </trkpt>
      <trkpt lat="42.476883" lon="-2.437714">
        <ele>392.308</ele>
        <time>2021-07-27T06:44:16Z</time>
      </trkpt>
      <trkpt lat="42.476946" lon="-2.437644">
        <ele>393.332</ele>
        <time>2021-07-27T06:44:22Z</time>
      </trkpt>
      <trkpt lat="42.476961" lon="-2.437633">
        <ele>393.824</ele>
        <time>2021-07-27T06:44:23Z</time>
      </trkpt>
      <trkpt lat="42.477082" lon="-2.437526">
        <ele>394.761</ele>
        <time>2021-07-27T06:44:33Z</time>
      </trkpt>
      <trkpt lat="42.477176" lon="-2.437475">
        <ele>395.721</ele>
        <time>2021-07-27T06:44:41Z</time>
      </trkpt>
      <trkpt lat="42.477264" lon="-2.437418">
        <ele>395.215</ele>
        <time>2021-07-27T06:44:48Z</time>
      </trkpt>
      <trkpt lat="42.477429" lon="-2.437337">
        <ele>397.153</ele>
        <time>2021-07-27T06:44:59Z</time>
      </trkpt>
      <trkpt lat="42.477576" lon="-2.437277">
        <ele>397.620</ele>
        <time>2021-07-27T06:45:08Z</time>
      </trkpt>
      <trkpt lat="42.477734" lon="-2.437213">
        <ele>398.628</ele>
        <time>2021-07-27T06:45:17Z</time>
      </trkpt>
      <trkpt lat="42.477855" lon="-2.437135">
        <ele>398.654</ele>
        <time>2021-07-27T06:45:25Z</time>
      </trkpt>
      <trkpt lat="42.477911" lon="-2.437096">
        <ele>399.056</ele>
        <time>2021-07-27T06:45:29Z</time>
      </trkpt>
      <trkpt lat="42.477924" lon="-2.437091">
        <ele>399.011</ele>
        <time>2021-07-27T06:45:30Z</time>
      </trkpt>
      <trkpt lat="42.477938" lon="-2.437081">
        <ele>399.008</ele>
        <time>2021-07-27T06:45:31Z</time>
      </trkpt>
      <trkpt lat="42.478105" lon="-2.436948">
        <ele>400.572</ele>
        <time>2021-07-27T06:45:43Z</time>
      </trkpt>
      <trkpt lat="42.478232" lon="-2.436869">
        <ele>401.934</ele>
        <time>2021-07-27T06:45:52Z</time>
      </trkpt>
      <trkpt lat="42.478371" lon="-2.436767">
        <ele>403.471</ele>
        <time>2021-07-27T06:46:02Z</time>
      </trkpt>
      <trkpt lat="42.478500" lon="-2.436667">
        <ele>403.831</ele>
        <time>2021-07-27T06:46:11Z</time>
      </trkpt>
      <trkpt lat="42.478706" lon="-2.436512">
        <ele>404.885</ele>
        <time>2021-07-27T06:46:24Z</time>
      </trkpt>
      <trkpt lat="42.478858" lon="-2.436398">
        <ele>406.293</ele>
        <time>2021-07-27T06:46:35Z</time>
      </trkpt>
      <trkpt lat="42.479037" lon="-2.436246">
        <ele>407.290</ele>
        <time>2021-07-27T06:46:46Z</time>
      </trkpt>
      <trkpt lat="42.479189" lon="-2.436125">
        <ele>408.748</ele>
        <time>2021-07-27T06:46:55Z</time>
      </trkpt>
      <trkpt lat="42.479364" lon="-2.436001">
        <ele>410.152</ele>
        <time>2021-07-27T06:47:05Z</time>
      </trkpt>
      <trkpt lat="42.479507" lon="-2.435905">
        <ele>412.053</ele>
        <time>2021-07-27T06:47:13Z</time>
      </trkpt>
      <trkpt lat="42.479692" lon="-2.435781">
        <ele>413.008</ele>
        <time>2021-07-27T06:47:23Z</time>
      </trkpt>
      <trkpt lat="42.479892" lon="-2.435655">
        <ele>413.508</ele>
        <time>2021-07-27T06:47:33Z</time>
      </trkpt>
      <trkpt lat="42.480071" lon="-2.435544">
        <ele>414.482</ele>
        <time>2021-07-27T06:47:42Z</time>
      </trkpt>
      <trkpt lat="42.480268" lon="-2.435433">
        <ele>414.464</ele>
        <time>2021-07-27T06:47:52Z</time>
      </trkpt>
      <trkpt lat="42.480488" lon="-2.435315">
        <ele>415.491</ele>
        <time>2021-07-27T06:48:02Z</time>
      </trkpt>
      <trkpt lat="42.480696" lon="-2.435214">
        <ele>416.321</ele>
        <time>2021-07-27T06:48:12Z</time>
      </trkpt>
      <trkpt lat="42.480931" lon="-2.435105">
        <ele>417.815</ele>
        <time>2021-07-27T06:48:24Z</time>
      </trkpt>
      <trkpt lat="42.481086" lon="-2.435031">
        <ele>419.723</ele>
        <time>2021-07-27T06:48:33Z</time>
      </trkpt>
      <trkpt lat="42.481096" lon="-2.435026">
        <ele>419.710</ele>
        <time>2021-07-27T06:48:39Z</time>
      </trkpt>
      <trkpt lat="42.481103" lon="-2.435019">
        <ele>420.778</ele>
        <time>2021-07-27T06:48:56Z</time>
      </trkpt>
      <trkpt lat="42.481094" lon="-2.435027">
        <ele>420.741</ele>
        <time>2021-07-27T06:49:07Z</time>
      </trkpt>
      <trkpt lat="42.481103" lon="-2.435037">
        <ele>419.281</ele>
        <time>2021-07-27T06:49:26Z</time>
      </trkpt>
      <trkpt lat="42.481082" lon="-2.435051">
        <ele>418.709</ele>
        <time>2021-07-27T06:49:39Z</time>
      </trkpt>
      <trkpt lat="42.481091" lon="-2.435034">
        <ele>419.208</ele>
        <time>2021-07-27T06:49:52Z</time>
      </trkpt>
      <trkpt lat="42.481125" lon="-2.435032">
        <ele>419.221</ele>
        <time>2021-07-27T06:49:57Z</time>
      </trkpt>
      <trkpt lat="42.481135" lon="-2.435030">
        <ele>419.213</ele>
        <time>2021-07-27T06:49:58Z</time>
      </trkpt>
      <trkpt lat="42.481144" lon="-2.435022">
        <ele>419.740</ele>
        <time>2021-07-27T06:49:59Z</time>
      </trkpt>
      <trkpt lat="42.481153" lon="-2.435015">
        <ele>419.720</ele>
        <time>2021-07-27T06:50:00Z</time>
      </trkpt>
      <trkpt lat="42.481161" lon="-2.435006">
        <ele>419.784</ele>
        <time>2021-07-27T06:50:01Z</time>
      </trkpt>
      <trkpt lat="42.481285" lon="-2.434939">
        <ele>420.732</ele>
        <time>2021-07-27T06:50:10Z</time>
      </trkpt>
      <trkpt lat="42.481401" lon="-2.434881">
        <ele>421.689</ele>
        <time>2021-07-27T06:50:17Z</time>
      </trkpt>
      <trkpt lat="42.481577" lon="-2.434775">
        <ele>422.647</ele>
        <time>2021-07-27T06:50:27Z</time>
      </trkpt>
      <trkpt lat="42.481742" lon="-2.434683">
        <ele>423.196</ele>
        <time>2021-07-27T06:50:35Z</time>
      </trkpt>
      <trkpt lat="42.481959" lon="-2.434560">
        <ele>424.031</ele>
        <time>2021-07-27T06:50:46Z</time>
      </trkpt>
      <trkpt lat="42.482176" lon="-2.434410">
        <ele>425.024</ele>
        <time>2021-07-27T06:50:57Z</time>
      </trkpt>
      <trkpt lat="42.482301" lon="-2.434318">
        <ele>425.508</ele>
        <time>2021-07-27T06:51:04Z</time>
      </trkpt>
      <trkpt lat="42.482479" lon="-2.434167">
        <ele>426.496</ele>
        <time>2021-07-27T06:51:14Z</time>
      </trkpt>
      <trkpt lat="42.482615" lon="-2.434006">
        <ele>426.438</ele>
        <time>2021-07-27T06:51:23Z</time>
      </trkpt>
      <trkpt lat="42.482776" lon="-2.433839">
        <ele>425.575</ele>
        <time>2021-07-27T06:51:30Z</time>
      </trkpt>
      <trkpt lat="42.483010" lon="-2.433584">
        <ele>425.055</ele>
        <time>2021-07-27T06:51:37Z</time>
      </trkpt>
      <trkpt lat="42.483230" lon="-2.433356">
        <ele>425.079</ele>
        <time>2021-07-27T06:51:45Z</time>
      </trkpt>
      <trkpt lat="42.483470" lon="-2.433126">
        <ele>425.517</ele>
        <time>2021-07-27T06:51:55Z</time>
      </trkpt>
      <trkpt lat="42.483673" lon="-2.432904">
        <ele>426.444</ele>
        <time>2021-07-27T06:52:04Z</time>
      </trkpt>
      <trkpt lat="42.483858" lon="-2.432708">
        <ele>427.472</ele>
        <time>2021-07-27T06:52:13Z</time>
      </trkpt>
      <trkpt lat="42.484053" lon="-2.432496">
        <ele>427.923</ele>
        <time>2021-07-27T06:52:23Z</time>
      </trkpt>
      <trkpt lat="42.484229" lon="-2.432260">
        <ele>429.383</ele>
        <time>2021-07-27T06:52:33Z</time>
      </trkpt>
      <trkpt lat="42.484373" lon="-2.432077">
        <ele>430.311</ele>
        <time>2021-07-27T06:52:41Z</time>
      </trkpt>
      <trkpt lat="42.484532" lon="-2.431873">
        <ele>431.208</ele>
        <time>2021-07-27T06:52:51Z</time>
      </trkpt>
      <trkpt lat="42.484675" lon="-2.431672">
        <ele>433.249</ele>
        <time>2021-07-27T06:53:01Z</time>
      </trkpt>
      <trkpt lat="42.484810" lon="-2.431458">
        <ele>435.181</ele>
        <time>2021-07-27T06:53:12Z</time>
      </trkpt>
      <trkpt lat="42.484904" lon="-2.431225">
        <ele>436.198</ele>
        <time>2021-07-27T06:53:22Z</time>
      </trkpt>
      <trkpt lat="42.484981" lon="-2.430978">
        <ele>435.128</ele>
        <time>2021-07-27T06:53:30Z</time>
      </trkpt>
      <trkpt lat="42.485050" lon="-2.430684">
        <ele>433.672</ele>
        <time>2021-07-27T06:53:37Z</time>
      </trkpt>
      <trkpt lat="42.485062" lon="-2.430623">
        <ele>433.220</ele>
        <time>2021-07-27T06:53:38Z</time>
      </trkpt>
      <trkpt lat="42.485075" lon="-2.430561">
        <ele>433.277</ele>
        <time>2021-07-27T06:53:39Z</time>
      </trkpt>
      <trkpt lat="42.485088" lon="-2.430492">
        <ele>432.765</ele>
        <time>2021-07-27T06:53:40Z</time>
      </trkpt>
      <trkpt lat="42.485233" lon="-2.429924">
        <ele>430.394</ele>
        <time>2021-07-27T06:53:47Z</time>
      </trkpt>
      <trkpt lat="42.485446" lon="-2.429035">
        <ele>428.457</ele>
        <time>2021-07-27T06:53:57Z</time>
      </trkpt>
      <trkpt lat="42.485653" lon="-2.428253">
        <ele>427.922</ele>
        <time>2021-07-27T06:54:06Z</time>
      </trkpt>
      <trkpt lat="42.485911" lon="-2.427644">
        <ele>426.408</ele>
        <time>2021-07-27T06:54:14Z</time>
      </trkpt>
      <trkpt lat="42.486091" lon="-2.427212">
        <ele>424.026</ele>
        <time>2021-07-27T06:54:20Z</time>
      </trkpt>
      <trkpt lat="42.486362" lon="-2.426670">
        <ele>417.378</ele>
        <time>2021-07-27T06:54:26Z</time>
      </trkpt>
      <trkpt lat="42.486587" lon="-2.426215">
        <ele>412.095</ele>
        <time>2021-07-27T06:54:32Z</time>
      </trkpt>
      <trkpt lat="42.486693" lon="-2.426006">
        <ele>411.165</ele>
        <time>2021-07-27T06:54:37Z</time>
      </trkpt>
      <trkpt lat="42.486974" lon="-2.425399">
        <ele>419.249</ele>
        <time>2021-07-27T06:54:56Z</time>
      </trkpt>
      <trkpt lat="42.487154" lon="-2.425043">
        <ele>412.577</ele>
        <time>2021-07-27T06:55:05Z</time>
      </trkpt>
      <trkpt lat="42.487402" lon="-2.424552">
        <ele>409.684</ele>
        <time>2021-07-27T06:55:13Z</time>
      </trkpt>
      <trkpt lat="42.487698" lon="-2.423956">
        <ele>406.712</ele>
        <time>2021-07-27T06:55:21Z</time>
      </trkpt>
      <trkpt lat="42.488041" lon="-2.423293">
        <ele>404.897</ele>
        <time>2021-07-27T06:55:29Z</time>
      </trkpt>
      <trkpt lat="42.488474" lon="-2.422372">
        <ele>401.423</ele>
        <time>2021-07-27T06:55:39Z</time>
      </trkpt>
      <trkpt lat="42.488645" lon="-2.421818">
        <ele>401.025</ele>
        <time>2021-07-27T06:55:45Z</time>
      </trkpt>
      <trkpt lat="42.488768" lon="-2.421161">
        <ele>400.008</ele>
        <time>2021-07-27T06:55:53Z</time>
      </trkpt>
      <trkpt lat="42.488899" lon="-2.420228">
        <ele>394.746</ele>
        <time>2021-07-27T06:56:02Z</time>
      </trkpt>
      <trkpt lat="42.489013" lon="-2.420087">
        <ele>393.318</ele>
        <time>2021-07-27T06:56:05Z</time>
      </trkpt>
      <trkpt lat="42.489130" lon="-2.419931">
        <ele>392.855</ele>
        <time>2021-07-27T06:56:10Z</time>
      </trkpt>
      <trkpt lat="42.489132" lon="-2.419491">
        <ele>392.825</ele>
        <time>2021-07-27T06:56:19Z</time>
      </trkpt>
      <trkpt lat="42.489138" lon="-2.419046">
        <ele>391.379</ele>
        <time>2021-07-27T06:56:27Z</time>
      </trkpt>
      <trkpt lat="42.489150" lon="-2.418987">
        <ele>391.327</ele>
        <time>2021-07-27T06:56:28Z</time>
      </trkpt>
      <trkpt lat="42.489351" lon="-2.418669">
        <ele>391.364</ele>
        <time>2021-07-27T06:56:35Z</time>
      </trkpt>
      <trkpt lat="42.489669" lon="-2.418381">
        <ele>391.822</ele>
        <time>2021-07-27T06:56:43Z</time>
      </trkpt>
      <trkpt lat="42.489725" lon="-2.418392">
        <ele>392.347</ele>
        <time>2021-07-27T06:56:44Z</time>
      </trkpt>
      <trkpt lat="42.489754" lon="-2.418399">
        <ele>392.329</ele>
        <time>2021-07-27T06:56:45Z</time>
      </trkpt>
      <trkpt lat="42.489845" lon="-2.418381">
        <ele>392.821</ele>
        <time>2021-07-27T06:56:50Z</time>
      </trkpt>
      <trkpt lat="42.489855" lon="-2.418366">
        <ele>392.308</ele>
        <time>2021-07-27T06:56:51Z</time>
      </trkpt>
      <trkpt lat="42.489917" lon="-2.418168">
        <ele>391.391</ele>
        <time>2021-07-27T06:56:58Z</time>
      </trkpt>
      <trkpt lat="42.489984" lon="-2.417840">
        <ele>391.833</ele>
        <time>2021-07-27T06:57:05Z</time>
      </trkpt>
      <trkpt lat="42.489996" lon="-2.417786">
        <ele>391.850</ele>
        <time>2021-07-27T06:57:06Z</time>
      </trkpt>
      <trkpt lat="42.490014" lon="-2.417731">
        <ele>391.810</ele>
        <time>2021-07-27T06:57:07Z</time>
      </trkpt>
      <trkpt lat="42.490158" lon="-2.417334">
        <ele>391.844</ele>
        <time>2021-07-27T06:57:15Z</time>
      </trkpt>
      <trkpt lat="42.490302" lon="-2.416900">
        <ele>390.932</ele>
        <time>2021-07-27T06:57:23Z</time>
      </trkpt>
      <trkpt lat="42.490483" lon="-2.416324">
        <ele>390.419</ele>
        <time>2021-07-27T06:57:34Z</time>
      </trkpt>
      <trkpt lat="42.490537" lon="-2.415868">
        <ele>391.877</ele>
        <time>2021-07-27T06:57:44Z</time>
      </trkpt>
      <trkpt lat="42.490500" lon="-2.415748">
        <ele>391.369</ele>
        <time>2021-07-27T06:57:48Z</time>
      </trkpt>
      <trkpt lat="42.490497" lon="-2.415685">
        <ele>391.304</ele>
        <time>2021-07-27T06:57:49Z</time>
      </trkpt>
      <trkpt lat="42.490502" lon="-2.415650">
        <ele>391.324</ele>
        <time>2021-07-27T06:57:50Z</time>
      </trkpt>
      <trkpt lat="42.490512" lon="-2.415587">
        <ele>390.908</ele>
        <time>2021-07-27T06:57:51Z</time>
      </trkpt>
      <trkpt lat="42.490521" lon="-2.415543">
        <ele>390.923</ele>
        <time>2021-07-27T06:57:52Z</time>
      </trkpt>
      <trkpt lat="42.490533" lon="-2.415487">
        <ele>390.915</ele>
        <time>2021-07-27T06:57:53Z</time>
      </trkpt>
      <trkpt lat="42.490837" lon="-2.414383">
        <ele>389.942</ele>
        <time>2021-07-27T06:58:12Z</time>
      </trkpt>
      <trkpt lat="42.491005" lon="-2.413773">
        <ele>390.472</ele>
        <time>2021-07-27T06:58:22Z</time>
      </trkpt>
      <trkpt lat="42.491075" lon="-2.413485">
        <ele>390.496</ele>
        <time>2021-07-27T06:58:28Z</time>
      </trkpt>
      <trkpt lat="42.491076" lon="-2.413466">
        <ele>390.464</ele>
        <time>2021-07-27T06:58:33Z</time>
      </trkpt>
      <trkpt lat="42.491067" lon="-2.413476">
        <ele>390.971</ele>
        <time>2021-07-27T06:58:46Z</time>
      </trkpt>
      <trkpt lat="42.491059" lon="-2.413496">
        <ele>390.419</ele>
        <time>2021-07-27T06:58:55Z</time>
      </trkpt>
      <trkpt lat="42.491051" lon="-2.413512">
        <ele>389.975</ele>
        <time>2021-07-27T06:58:57Z</time>
      </trkpt>
      <trkpt lat="42.491043" lon="-2.413533">
        <ele>389.928</ele>
        <time>2021-07-27T06:58:58Z</time>
      </trkpt>
      <trkpt lat="42.491024" lon="-2.413569">
        <ele>389.420</ele>
        <time>2021-07-27T06:59:00Z</time>
      </trkpt>
      <trkpt lat="42.491016" lon="-2.413580">
        <ele>389.408</ele>
        <time>2021-07-27T06:59:01Z</time>
      </trkpt>
      <trkpt lat="42.491005" lon="-2.413597">
        <ele>389.464</ele>
        <time>2021-07-27T06:59:02Z</time>
      </trkpt>
      <trkpt lat="42.490991" lon="-2.413614">
        <ele>389.446</ele>
        <time>2021-07-27T06:59:03Z</time>
      </trkpt>
      <trkpt lat="42.490975" lon="-2.413631">
        <ele>389.483</ele>
        <time>2021-07-27T06:59:04Z</time>
      </trkpt>
      <trkpt lat="42.490958" lon="-2.413648">
        <ele>389.493</ele>
        <time>2021-07-27T06:59:05Z</time>
      </trkpt>
      <trkpt lat="42.490938" lon="-2.413665">
        <ele>389.457</ele>
        <time>2021-07-27T06:59:06Z</time>
      </trkpt>
      <trkpt lat="42.490919" lon="-2.413678">
        <ele>388.945</ele>
        <time>2021-07-27T06:59:07Z</time>
      </trkpt>
      <trkpt lat="42.490902" lon="-2.413689">
        <ele>388.952</ele>
        <time>2021-07-27T06:59:12Z</time>
      </trkpt>
      <trkpt lat="42.490910" lon="-2.413697">
        <ele>388.990</ele>
        <time>2021-07-27T06:59:28Z</time>
      </trkpt>
      <trkpt lat="42.490815" lon="-2.413746">
        <ele>388.931</ele>
        <time>2021-07-27T06:59:33Z</time>
      </trkpt>
      <trkpt lat="42.490621" lon="-2.413751">
        <ele>388.061</ele>
        <time>2021-07-27T06:59:39Z</time>
      </trkpt>
      <trkpt lat="42.490585" lon="-2.413723">
        <ele>387.507</ele>
        <time>2021-07-27T06:59:40Z</time>
      </trkpt>
      <trkpt lat="42.490552" lon="-2.413686">
        <ele>387.508</ele>
        <time>2021-07-27T06:59:41Z</time>
      </trkpt>
      <trkpt lat="42.490523" lon="-2.413645">
        <ele>387.090</ele>
        <time>2021-07-27T06:59:42Z</time>
      </trkpt>
      <trkpt lat="42.490496" lon="-2.413599">
        <ele>387.062</ele>
        <time>2021-07-27T06:59:43Z</time>
      </trkpt>
      <trkpt lat="42.490471" lon="-2.413547">
        <ele>387.049</ele>
        <time>2021-07-27T06:59:44Z</time>
      </trkpt>
      <trkpt lat="42.490290" lon="-2.413176">
        <ele>386.189</ele>
        <time>2021-07-27T06:59:52Z</time>
      </trkpt>
      <trkpt lat="42.490091" lon="-2.412708">
        <ele>386.183</ele>
        <time>2021-07-27T07:00:02Z</time>
      </trkpt>
      <trkpt lat="42.489852" lon="-2.412195">
        <ele>385.191</ele>
        <time>2021-07-27T07:00:13Z</time>
      </trkpt>
      <trkpt lat="42.489756" lon="-2.411827">
        <ele>385.128</ele>
        <time>2021-07-27T07:00:20Z</time>
      </trkpt>
      <trkpt lat="42.489618" lon="-2.411493">
        <ele>385.186</ele>
        <time>2021-07-27T07:00:28Z</time>
      </trkpt>
      <trkpt lat="42.489400" lon="-2.411256">
        <ele>385.125</ele>
        <time>2021-07-27T07:00:36Z</time>
      </trkpt>
      <trkpt lat="42.489237" lon="-2.410961">
        <ele>384.626</ele>
        <time>2021-07-27T07:00:44Z</time>
      </trkpt>
      <trkpt lat="42.489294" lon="-2.410749">
        <ele>385.108</ele>
        <time>2021-07-27T07:00:49Z</time>
      </trkpt>
      <trkpt lat="42.489448" lon="-2.410479">
        <ele>386.108</ele>
        <time>2021-07-27T07:00:58Z</time>
      </trkpt>
      <trkpt lat="42.489614" lon="-2.410140">
        <ele>388.029</ele>
        <time>2021-07-27T07:01:09Z</time>
      </trkpt>
      <trkpt lat="42.489760" lon="-2.409802">
        <ele>388.991</ele>
        <time>2021-07-27T07:01:20Z</time>
      </trkpt>
      <trkpt lat="42.489885" lon="-2.409479">
        <ele>389.478</ele>
        <time>2021-07-27T07:01:30Z</time>
      </trkpt>
      <trkpt lat="42.489942" lon="-2.409194">
        <ele>389.968</ele>
        <time>2021-07-27T07:01:38Z</time>
      </trkpt>
      <trkpt lat="42.489972" lon="-2.408857">
        <ele>390.452</ele>
        <time>2021-07-27T07:01:47Z</time>
      </trkpt>
      <trkpt lat="42.490050" lon="-2.408492">
        <ele>389.990</ele>
        <time>2021-07-27T07:01:56Z</time>
      </trkpt>
      <trkpt lat="42.490117" lon="-2.408019">
        <ele>389.957</ele>
        <time>2021-07-27T07:02:06Z</time>
      </trkpt>
      <trkpt lat="42.490145" lon="-2.407567">
        <ele>390.945</ele>
        <time>2021-07-27T07:02:16Z</time>
      </trkpt>
      <trkpt lat="42.490166" lon="-2.407135">
        <ele>390.984</ele>
        <time>2021-07-27T07:02:26Z</time>
      </trkpt>
      <trkpt lat="42.490153" lon="-2.406816">
        <ele>392.307</ele>
        <time>2021-07-27T07:02:34Z</time>
      </trkpt>
      <trkpt lat="42.490136" lon="-2.406438">
        <ele>392.317</ele>
        <time>2021-07-27T07:02:43Z</time>
      </trkpt>
      <trkpt lat="42.490109" lon="-2.406001">
        <ele>391.808</ele>
        <time>2021-07-27T07:02:53Z</time>
      </trkpt>
      <trkpt lat="42.490097" lon="-2.405620">
        <ele>391.885</ele>
        <time>2021-07-27T07:03:02Z</time>
      </trkpt>
      <trkpt lat="42.490159" lon="-2.405197">
        <ele>391.867</ele>
        <time>2021-07-27T07:03:13Z</time>
      </trkpt>
      <trkpt lat="42.490249" lon="-2.404901">
        <ele>392.824</ele>
        <time>2021-07-27T07:03:23Z</time>
      </trkpt>
      <trkpt lat="42.490262" lon="-2.404896">
        <ele>392.834</ele>
        <time>2021-07-27T07:03:24Z</time>
      </trkpt>
      <trkpt lat="42.490277" lon="-2.404897">
        <ele>392.818</ele>
        <time>2021-07-27T07:03:25Z</time>
      </trkpt>
      <trkpt lat="42.490293" lon="-2.404914">
        <ele>392.856</ele>
        <time>2021-07-27T07:03:27Z</time>
      </trkpt>
      <trkpt lat="42.490303" lon="-2.404932">
        <ele>392.893</ele>
        <time>2021-07-27T07:03:28Z</time>
      </trkpt>
      <trkpt lat="42.490478" lon="-2.404967">
        <ele>393.341</ele>
        <time>2021-07-27T07:03:36Z</time>
      </trkpt>
      <trkpt lat="42.490768" lon="-2.404965">
        <ele>392.395</ele>
        <time>2021-07-27T07:03:45Z</time>
      </trkpt>
      <trkpt lat="42.490896" lon="-2.404892">
        <ele>392.349</ele>
        <time>2021-07-27T07:03:50Z</time>
      </trkpt>
      <trkpt lat="42.491137" lon="-2.404790">
        <ele>392.323</ele>
        <time>2021-07-27T07:04:00Z</time>
      </trkpt>
      <trkpt lat="42.491457" lon="-2.404653">
        <ele>392.808</ele>
        <time>2021-07-27T07:04:12Z</time>
      </trkpt>
      <trkpt lat="42.491795" lon="-2.404511">
        <ele>393.886</ele>
        <time>2021-07-27T07:04:24Z</time>
      </trkpt>
      <trkpt lat="42.491939" lon="-2.404477">
        <ele>393.888</ele>
        <time>2021-07-27T07:04:30Z</time>
      </trkpt>
      <trkpt lat="42.492153" lon="-2.404373">
        <ele>394.255</ele>
        <time>2021-07-27T07:04:38Z</time>
      </trkpt>
      <trkpt lat="42.492406" lon="-2.404198">
        <ele>395.235</ele>
        <time>2021-07-27T07:04:49Z</time>
      </trkpt>
      <trkpt lat="42.492528" lon="-2.404126">
        <ele>396.219</ele>
        <time>2021-07-27T07:04:56Z</time>
      </trkpt>
      <trkpt lat="42.492745" lon="-2.403999">
        <ele>398.117</ele>
        <time>2021-07-27T07:05:06Z</time>
      </trkpt>
      <trkpt lat="42.493005" lon="-2.403807">
        <ele>399.084</ele>
        <time>2021-07-27T07:05:17Z</time>
      </trkpt>
      <trkpt lat="42.493141" lon="-2.403678">
        <ele>400.062</ele>
        <time>2021-07-27T07:05:24Z</time>
      </trkpt>
      <trkpt lat="42.493276" lon="-2.403404">
        <ele>400.567</ele>
        <time>2021-07-27T07:05:33Z</time>
      </trkpt>
      <trkpt lat="42.493393" lon="-2.403155">
        <ele>401.981</ele>
        <time>2021-07-27T07:05:42Z</time>
      </trkpt>
      <trkpt lat="42.493477" lon="-2.402851">
        <ele>402.919</ele>
        <time>2021-07-27T07:05:51Z</time>
      </trkpt>
      <trkpt lat="42.493642" lon="-2.402523">
        <ele>403.408</ele>
        <time>2021-07-27T07:06:01Z</time>
      </trkpt>
      <trkpt lat="42.493782" lon="-2.402324">
        <ele>403.843</ele>
        <time>2021-07-27T07:06:09Z</time>
      </trkpt>
      <trkpt lat="42.493842" lon="-2.402066">
        <ele>403.455</ele>
        <time>2021-07-27T07:06:17Z</time>
      </trkpt>
      <trkpt lat="42.493838" lon="-2.401837">
        <ele>403.482</ele>
        <time>2021-07-27T07:06:24Z</time>
      </trkpt>
      <trkpt lat="42.493916" lon="-2.401590">
        <ele>402.982</ele>
        <time>2021-07-27T07:06:32Z</time>
      </trkpt>
      <trkpt lat="42.493992" lon="-2.401373">
        <ele>401.926</ele>
        <time>2021-07-27T07:06:39Z</time>
      </trkpt>
      <trkpt lat="42.494042" lon="-2.401157">
        <ele>400.574</ele>
        <time>2021-07-27T07:06:47Z</time>
      </trkpt>
      <trkpt lat="42.494098" lon="-2.400998">
        <ele>399.031</ele>
        <time>2021-07-27T07:06:54Z</time>
      </trkpt>
      <trkpt lat="42.494174" lon="-2.400820">
        <ele>396.699</ele>
        <time>2021-07-27T07:07:02Z</time>
      </trkpt>
      <trkpt lat="42.494309" lon="-2.400571">
        <ele>394.743</ele>
        <time>2021-07-27T07:07:09Z</time>
      </trkpt>
      <trkpt lat="42.494559" lon="-2.400141">
        <ele>393.864</ele>
        <time>2021-07-27T07:07:19Z</time>
      </trkpt>
      <trkpt lat="42.494713" lon="-2.399812">
        <ele>393.310</ele>
        <time>2021-07-27T07:07:27Z</time>
      </trkpt>
      <trkpt lat="42.494832" lon="-2.399472">
        <ele>393.308</ele>
        <time>2021-07-27T07:07:36Z</time>
      </trkpt>
      <trkpt lat="42.494932" lon="-2.399202">
        <ele>393.341</ele>
        <time>2021-07-27T07:07:44Z</time>
      </trkpt>
      <trkpt lat="42.495045" lon="-2.398785">
        <ele>393.313</ele>
        <time>2021-07-27T07:07:55Z</time>
      </trkpt>
      <trkpt lat="42.495163" lon="-2.398257">
        <ele>392.830</ele>
        <time>2021-07-27T07:08:09Z</time>
      </trkpt>
      <trkpt lat="42.495220" lon="-2.397927">
        <ele>392.840</ele>
        <time>2021-07-27T07:08:19Z</time>
      </trkpt>
      <trkpt lat="42.495260" lon="-2.397634">
        <ele>392.884</ele>
        <time>2021-07-27T07:08:29Z</time>
      </trkpt>
      <trkpt lat="42.495309" lon="-2.397382">
        <ele>392.822</ele>
        <time>2021-07-27T07:08:37Z</time>
      </trkpt>
      <trkpt lat="42.495341" lon="-2.397161">
        <ele>393.389</ele>
        <time>2021-07-27T07:08:44Z</time>
      </trkpt>
      <trkpt lat="42.495382" lon="-2.396949">
        <ele>393.377</ele>
        <time>2021-07-27T07:08:51Z</time>
      </trkpt>
      <trkpt lat="42.495404" lon="-2.396582">
        <ele>393.312</ele>
        <time>2021-07-27T07:09:01Z</time>
      </trkpt>
      <trkpt lat="42.495401" lon="-2.396361">
        <ele>393.332</ele>
        <time>2021-07-27T07:09:09Z</time>
      </trkpt>
      <trkpt lat="42.495388" lon="-2.396177">
        <ele>393.805</ele>
        <time>2021-07-27T07:09:17Z</time>
      </trkpt>
      <trkpt lat="42.495381" lon="-2.396139">
        <ele>393.308</ele>
        <time>2021-07-27T07:09:22Z</time>
      </trkpt>
      <trkpt lat="42.495393" lon="-2.396142">
        <ele>393.388</ele>
        <time>2021-07-27T07:09:32Z</time>
      </trkpt>
      <trkpt lat="42.495398" lon="-2.396136">
        <ele>393.390</ele>
        <time>2021-07-27T07:09:44Z</time>
      </trkpt>
      <trkpt lat="42.495405" lon="-2.396125">
        <ele>393.397</ele>
        <time>2021-07-27T07:09:45Z</time>
      </trkpt>
      <trkpt lat="42.495447" lon="-2.395956">
        <ele>393.867</ele>
        <time>2021-07-27T07:09:52Z</time>
      </trkpt>
      <trkpt lat="42.495490" lon="-2.395715">
        <ele>393.831</ele>
        <time>2021-07-27T07:10:01Z</time>
      </trkpt>
      <trkpt lat="42.495533" lon="-2.395426">
        <ele>394.219</ele>
        <time>2021-07-27T07:10:11Z</time>
      </trkpt>
      <trkpt lat="42.495569" lon="-2.395185">
        <ele>394.226</ele>
        <time>2021-07-27T07:10:21Z</time>
      </trkpt>
      <trkpt lat="42.495580" lon="-2.394954">
        <ele>393.824</ele>
        <time>2021-07-27T07:10:29Z</time>
      </trkpt>
      <trkpt lat="42.495578" lon="-2.394706">
        <ele>392.855</ele>
        <time>2021-07-27T07:10:38Z</time>
      </trkpt>
      <trkpt lat="42.495641" lon="-2.394462">
        <ele>391.807</ele>
        <time>2021-07-27T07:10:45Z</time>
      </trkpt>
      <trkpt lat="42.495770" lon="-2.394241">
        <ele>391.317</ele>
        <time>2021-07-27T07:10:52Z</time>
      </trkpt>
      <trkpt lat="42.495850" lon="-2.393898">
        <ele>391.808</ele>
        <time>2021-07-27T07:11:01Z</time>
      </trkpt>
      <trkpt lat="42.495904" lon="-2.393560">
        <ele>391.812</ele>
        <time>2021-07-27T07:11:10Z</time>
      </trkpt>
      <trkpt lat="42.495920" lon="-2.393222">
        <ele>392.364</ele>
        <time>2021-07-27T07:11:19Z</time>
      </trkpt>
      <trkpt lat="42.495911" lon="-2.392833">
        <ele>392.371</ele>
        <time>2021-07-27T07:11:29Z</time>
      </trkpt>
      <trkpt lat="42.495913" lon="-2.392508">
        <ele>392.371</ele>
        <time>2021-07-27T07:11:38Z</time>
      </trkpt>
      <trkpt lat="42.495985" lon="-2.392155">
        <ele>392.855</ele>
        <time>2021-07-27T07:11:47Z</time>
      </trkpt>
      <trkpt lat="42.496031" lon="-2.391906">
        <ele>393.373</ele>
        <time>2021-07-27T07:11:55Z</time>
      </trkpt>
      <trkpt lat="42.496055" lon="-2.391694">
        <ele>394.760</ele>
        <time>2021-07-27T07:12:03Z</time>
      </trkpt>
      <trkpt lat="42.496066" lon="-2.391513">
        <ele>396.238</ele>
        <time>2021-07-27T07:12:10Z</time>
      </trkpt>
      <trkpt lat="42.496050" lon="-2.391412">
        <ele>397.178</ele>
        <time>2021-07-27T07:12:14Z</time>
      </trkpt>
      <trkpt lat="42.496046" lon="-2.391384">
        <ele>397.633</ele>
        <time>2021-07-27T07:12:15Z</time>
      </trkpt>
      <trkpt lat="42.496042" lon="-2.391356">
        <ele>397.626</ele>
        <time>2021-07-27T07:12:16Z</time>
      </trkpt>
      <trkpt lat="42.495995" lon="-2.391132">
        <ele>399.008</ele>
        <time>2021-07-27T07:12:25Z</time>
      </trkpt>
      <trkpt lat="42.495959" lon="-2.390911">
        <ele>401.424</ele>
        <time>2021-07-27T07:12:34Z</time>
      </trkpt>
      <trkpt lat="42.495920" lon="-2.390559">
        <ele>404.316</ele>
        <time>2021-07-27T07:12:47Z</time>
      </trkpt>
      <trkpt lat="42.495906" lon="-2.390364">
        <ele>404.883</ele>
        <time>2021-07-27T07:12:58Z</time>
      </trkpt>
      <trkpt lat="42.495899" lon="-2.390174">
        <ele>404.373</ele>
        <time>2021-07-27T07:13:08Z</time>
      </trkpt>
      <trkpt lat="42.495892" lon="-2.390058">
        <ele>403.827</ele>
        <time>2021-07-27T07:13:16Z</time>
      </trkpt>
      <trkpt lat="42.495890" lon="-2.390059">
        <ele>404.365</ele>
        <time>2021-07-27T07:13:22Z</time>
      </trkpt>
      <trkpt lat="42.495894" lon="-2.390058">
        <ele>404.832</ele>
        <time>2021-07-27T07:13:41Z</time>
      </trkpt>
      <trkpt lat="42.495902" lon="-2.389963">
        <ele>404.360</ele>
        <time>2021-07-27T07:13:47Z</time>
      </trkpt>
      <trkpt lat="42.495920" lon="-2.389669">
        <ele>403.428</ele>
        <time>2021-07-27T07:13:54Z</time>
      </trkpt>
      <trkpt lat="42.495951" lon="-2.389279">
        <ele>402.489</ele>
        <time>2021-07-27T07:14:01Z</time>
      </trkpt>
      <trkpt lat="42.495985" lon="-2.389020">
        <ele>401.417</ele>
        <time>2021-07-27T07:14:08Z</time>
      </trkpt>
      <trkpt lat="42.496081" lon="-2.388731">
        <ele>400.008</ele>
        <time>2021-07-27T07:14:16Z</time>
      </trkpt>
      <trkpt lat="42.496205" lon="-2.388590">
        <ele>398.169</ele>
        <time>2021-07-27T07:14:23Z</time>
      </trkpt>
      <trkpt lat="42.496488" lon="-2.388522">
        <ele>396.281</ele>
        <time>2021-07-27T07:14:31Z</time>
      </trkpt>
      <trkpt lat="42.496668" lon="-2.388531">
        <ele>394.738</ele>
        <time>2021-07-27T07:14:37Z</time>
      </trkpt>
      <trkpt lat="42.496918" lon="-2.388621">
        <ele>394.278</ele>
        <time>2021-07-27T07:14:46Z</time>
      </trkpt>
      <trkpt lat="42.497230" lon="-2.388759">
        <ele>394.772</ele>
        <time>2021-07-27T07:14:57Z</time>
      </trkpt>
      <trkpt lat="42.497380" lon="-2.388821">
        <ele>396.230</ele>
        <time>2021-07-27T07:15:05Z</time>
      </trkpt>
      <trkpt lat="42.497524" lon="-2.388886">
        <ele>396.227</ele>
        <time>2021-07-27T07:15:14Z</time>
      </trkpt>
      <trkpt lat="42.497535" lon="-2.388902">
        <ele>396.615</ele>
        <time>2021-07-27T07:15:15Z</time>
      </trkpt>
      <trkpt lat="42.497538" lon="-2.388927">
        <ele>396.665</ele>
        <time>2021-07-27T07:15:16Z</time>
      </trkpt>
      <trkpt lat="42.497535" lon="-2.388950">
        <ele>396.668</ele>
        <time>2021-07-27T07:15:17Z</time>
      </trkpt>
      <trkpt lat="42.497529" lon="-2.388969">
        <ele>396.614</ele>
        <time>2021-07-27T07:15:18Z</time>
      </trkpt>
      <trkpt lat="42.497522" lon="-2.388985">
        <ele>396.208</ele>
        <time>2021-07-27T07:15:19Z</time>
      </trkpt>
      <trkpt lat="42.497470" lon="-2.389056">
        <ele>395.293</ele>
        <time>2021-07-27T07:15:24Z</time>
      </trkpt>
      <trkpt lat="42.497456" lon="-2.389053">
        <ele>395.225</ele>
        <time>2021-07-27T07:15:25Z</time>
      </trkpt>
      <trkpt lat="42.497407" lon="-2.389035">
        <ele>394.762</ele>
        <time>2021-07-27T07:15:30Z</time>
      </trkpt>
      <trkpt lat="42.497385" lon="-2.389054">
        <ele>394.222</ele>
        <time>2021-07-27T07:15:33Z</time>
      </trkpt>
      <trkpt lat="42.497375" lon="-2.389052">
        <ele>393.886</ele>
        <time>2021-07-27T07:15:34Z</time>
      </trkpt>
      <trkpt lat="42.497369" lon="-2.389034">
        <ele>394.264</ele>
        <time>2021-07-27T07:15:36Z</time>
      </trkpt>
      <trkpt lat="42.497402" lon="-2.389008">
        <ele>393.881</ele>
        <time>2021-07-27T07:15:39Z</time>
      </trkpt>
      <trkpt lat="42.497476" lon="-2.389061">
        <ele>394.259</ele>
        <time>2021-07-27T07:15:47Z</time>
      </trkpt>
      <trkpt lat="42.497486" lon="-2.389060">
        <ele>395.791</ele>
        <time>2021-07-27T07:15:58Z</time>
      </trkpt>
      <trkpt lat="42.497518" lon="-2.389038">
        <ele>396.281</ele>
        <time>2021-07-27T07:16:00Z</time>
      </trkpt>
      <trkpt lat="42.497527" lon="-2.389005">
        <ele>396.219</ele>
        <time>2021-07-27T07:16:01Z</time>
      </trkpt>
      <trkpt lat="42.497626" lon="-2.388831">
        <ele>394.208</ele>
        <time>2021-07-27T07:16:08Z</time>
      </trkpt>
      <trkpt lat="42.497859" lon="-2.388783">
        <ele>393.866</ele>
        <time>2021-07-27T07:16:15Z</time>
      </trkpt>
      <trkpt lat="42.498086" lon="-2.388878">
        <ele>392.818</ele>
        <time>2021-07-27T07:16:22Z</time>
      </trkpt>
      <trkpt lat="42.498426" lon="-2.388883">
        <ele>392.875</ele>
        <time>2021-07-27T07:16:32Z</time>
      </trkpt>
      <trkpt lat="42.498630" lon="-2.388839">
        <ele>393.355</ele>
        <time>2021-07-27T07:16:39Z</time>
      </trkpt>
      <trkpt lat="42.498822" lon="-2.388790">
        <ele>393.359</ele>
        <time>2021-07-27T07:16:47Z</time>
      </trkpt>
      <trkpt lat="42.499108" lon="-2.388720">
        <ele>393.837</ele>
        <time>2021-07-27T07:16:57Z</time>
      </trkpt>
      <trkpt lat="42.499369" lon="-2.388609">
        <ele>394.214</ele>
        <time>2021-07-27T07:17:06Z</time>
      </trkpt>
      <trkpt lat="42.499389" lon="-2.388588">
        <ele>395.282</ele>
        <time>2021-07-27T07:17:11Z</time>
      </trkpt>
      <trkpt lat="42.499386" lon="-2.388603">
        <ele>395.729</ele>
        <time>2021-07-27T07:17:26Z</time>
      </trkpt>
      <trkpt lat="42.499396" lon="-2.388615">
        <ele>394.700</ele>
        <time>2021-07-27T07:17:47Z</time>
      </trkpt>
      <trkpt lat="42.499382" lon="-2.388605">
        <ele>395.720</ele>
        <time>2021-07-27T07:18:11Z</time>
      </trkpt>
      <trkpt lat="42.499376" lon="-2.388613">
        <ele>396.608</ele>
        <time>2021-07-27T07:18:27Z</time>
      </trkpt>
      <trkpt lat="42.499384" lon="-2.388615">
        <ele>396.689</ele>
        <time>2021-07-27T07:18:50Z</time>
      </trkpt>
      <trkpt lat="42.499379" lon="-2.388604">
        <ele>394.711</ele>
        <time>2021-07-27T07:19:09Z</time>
      </trkpt>
      <trkpt lat="42.499379" lon="-2.388605">
        <ele>396.298</ele>
        <time>2021-07-27T07:19:32Z</time>
      </trkpt>
      <trkpt lat="42.499382" lon="-2.388596">
        <ele>395.718</ele>
        <time>2021-07-27T07:19:55Z</time>
      </trkpt>
      <trkpt lat="42.499389" lon="-2.388606">
        <ele>395.762</ele>
        <time>2021-07-27T07:20:12Z</time>
      </trkpt>
      <trkpt lat="42.499382" lon="-2.388614">
        <ele>395.280</ele>
        <time>2021-07-27T07:20:29Z</time>
      </trkpt>
      <trkpt lat="42.499374" lon="-2.388592">
        <ele>394.257</ele>
        <time>2021-07-27T07:20:53Z</time>
      </trkpt>
      <trkpt lat="42.499390" lon="-2.388577">
        <ele>393.895</ele>
        <time>2021-07-27T07:21:17Z</time>
      </trkpt>
      <trkpt lat="42.499368" lon="-2.388584">
        <ele>392.851</ele>
        <time>2021-07-27T07:21:37Z</time>
      </trkpt>
      <trkpt lat="42.499365" lon="-2.388597">
        <ele>392.801</ele>
        <time>2021-07-27T07:22:00Z</time>
      </trkpt>
      <trkpt lat="42.499383" lon="-2.388597">
        <ele>392.811</ele>
        <time>2021-07-27T07:22:18Z</time>
      </trkpt>
      <trkpt lat="42.499377" lon="-2.388588">
        <ele>392.808</ele>
        <time>2021-07-27T07:22:39Z</time>
      </trkpt>
      <trkpt lat="42.499372" lon="-2.388597">
        <ele>392.842</ele>
        <time>2021-07-27T07:23:02Z</time>
      </trkpt>
      <trkpt lat="42.499372" lon="-2.388603">
        <ele>393.894</ele>
        <time>2021-07-27T07:23:21Z</time>
      </trkpt>
      <trkpt lat="42.499377" lon="-2.388585">
        <ele>392.821</ele>
        <time>2021-07-27T07:23:41Z</time>
      </trkpt>
      <trkpt lat="42.499374" lon="-2.388592">
        <ele>392.841</ele>
        <time>2021-07-27T07:23:59Z</time>
      </trkpt>
      <trkpt lat="42.499383" lon="-2.388616">
        <ele>395.225</ele>
        <time>2021-07-27T07:24:16Z</time>
      </trkpt>
      <trkpt lat="42.499391" lon="-2.388603">
        <ele>394.773</ele>
        <time>2021-07-27T07:24:36Z</time>
      </trkpt>
      <trkpt lat="42.499396" lon="-2.388602">
        <ele>392.880</ele>
        <time>2021-07-27T07:24:53Z</time>
      </trkpt>
      <trkpt lat="42.499383" lon="-2.388599">
        <ele>395.798</ele>
        <time>2021-07-27T07:25:11Z</time>
      </trkpt>
      <trkpt lat="42.499373" lon="-2.388618">
        <ele>397.121</ele>
        <time>2021-07-27T07:25:37Z</time>
      </trkpt>
      <trkpt lat="42.499383" lon="-2.388608">
        <ele>395.741</ele>
        <time>2021-07-27T07:25:49Z</time>
      </trkpt>
      <trkpt lat="42.499390" lon="-2.388607">
        <ele>396.205</ele>
        <time>2021-07-27T07:25:50Z</time>
      </trkpt>
      <trkpt lat="42.499408" lon="-2.388603">
        <ele>396.208</ele>
        <time>2021-07-27T07:25:52Z</time>
      </trkpt>
      <trkpt lat="42.499423" lon="-2.388599">
        <ele>396.299</ele>
        <time>2021-07-27T07:25:53Z</time>
      </trkpt>
      <trkpt lat="42.499440" lon="-2.388596">
        <ele>396.251</ele>
        <time>2021-07-27T07:25:54Z</time>
      </trkpt>
      <trkpt lat="42.499459" lon="-2.388586">
        <ele>396.218</ele>
        <time>2021-07-27T07:25:55Z</time>
      </trkpt>
      <trkpt lat="42.499479" lon="-2.388571">
        <ele>396.268</ele>
        <time>2021-07-27T07:25:56Z</time>
      </trkpt>
      <trkpt lat="42.499497" lon="-2.388555">
        <ele>396.272</ele>
        <time>2021-07-27T07:25:57Z</time>
      </trkpt>
      <trkpt lat="42.499670" lon="-2.388410">
        <ele>396.210</ele>
        <time>2021-07-27T07:26:05Z</time>
      </trkpt>
      <trkpt lat="42.499879" lon="-2.388263">
        <ele>396.257</ele>
        <time>2021-07-27T07:26:13Z</time>
      </trkpt>
      <trkpt lat="42.500112" lon="-2.388084">
        <ele>396.625</ele>
        <time>2021-07-27T07:26:21Z</time>
      </trkpt>
      <trkpt lat="42.500405" lon="-2.387938">
        <ele>397.198</ele>
        <time>2021-07-27T07:26:31Z</time>
      </trkpt>
      <trkpt lat="42.500634" lon="-2.387982">
        <ele>397.115</ele>
        <time>2021-07-27T07:26:38Z</time>
      </trkpt>
      <trkpt lat="42.500862" lon="-2.388117">
        <ele>397.626</ele>
        <time>2021-07-27T07:26:46Z</time>
      </trkpt>
      <trkpt lat="42.501166" lon="-2.388166">
        <ele>397.608</ele>
        <time>2021-07-27T07:26:55Z</time>
      </trkpt>
      <trkpt lat="42.501511" lon="-2.388170">
        <ele>397.626</ele>
        <time>2021-07-27T07:27:05Z</time>
      </trkpt>
      <trkpt lat="42.501777" lon="-2.388060">
        <ele>398.158</ele>
        <time>2021-07-27T07:27:13Z</time>
      </trkpt>
      <trkpt lat="42.501972" lon="-2.387821">
        <ele>398.195</ele>
        <time>2021-07-27T07:27:21Z</time>
      </trkpt>
      <trkpt lat="42.502097" lon="-2.387541">
        <ele>398.695</ele>
        <time>2021-07-27T07:27:29Z</time>
      </trkpt>
      <trkpt lat="42.502237" lon="-2.387380">
        <ele>399.039</ele>
        <time>2021-07-27T07:27:35Z</time>
      </trkpt>
      <trkpt lat="42.502525" lon="-2.387216">
        <ele>399.537</ele>
        <time>2021-07-27T07:27:44Z</time>
      </trkpt>
      <trkpt lat="42.502867" lon="-2.387019">
        <ele>400.084</ele>
        <time>2021-07-27T07:27:55Z</time>
      </trkpt>
      <trkpt lat="42.503208" lon="-2.386911">
        <ele>401.052</ele>
        <time>2021-07-27T07:28:06Z</time>
      </trkpt>
      <trkpt lat="42.503350" lon="-2.386781">
        <ele>402.435</ele>
        <time>2021-07-27T07:28:12Z</time>
      </trkpt>
      <trkpt lat="42.503563" lon="-2.386485">
        <ele>403.486</ele>
        <time>2021-07-27T07:28:22Z</time>
      </trkpt>
      <trkpt lat="42.503794" lon="-2.386335">
        <ele>404.814</ele>
        <time>2021-07-27T07:28:30Z</time>
      </trkpt>
      <trkpt lat="42.504046" lon="-2.386070">
        <ele>405.308</ele>
        <time>2021-07-27T07:28:40Z</time>
      </trkpt>
      <trkpt lat="42.504296" lon="-2.385750">
        <ele>406.760</ele>
        <time>2021-07-27T07:28:52Z</time>
      </trkpt>
      <trkpt lat="42.504485" lon="-2.385527">
        <ele>407.742</ele>
        <time>2021-07-27T07:29:01Z</time>
      </trkpt>
      <trkpt lat="42.504768" lon="-2.385196">
        <ele>408.799</ele>
        <time>2021-07-27T07:29:14Z</time>
      </trkpt>
      <trkpt lat="42.505072" lon="-2.384898">
        <ele>410.149</ele>
        <time>2021-07-27T07:29:26Z</time>
      </trkpt>
      <trkpt lat="42.505266" lon="-2.384643">
        <ele>411.143</ele>
        <time>2021-07-27T07:29:35Z</time>
      </trkpt>
      <trkpt lat="42.505357" lon="-2.384351">
        <ele>413.061</ele>
        <time>2021-07-27T07:29:44Z</time>
      </trkpt>
      <trkpt lat="42.505526" lon="-2.384210">
        <ele>413.048</ele>
        <time>2021-07-27T07:29:51Z</time>
      </trkpt>
      <trkpt lat="42.505731" lon="-2.384117">
        <ele>413.926</ele>
        <time>2021-07-27T07:29:58Z</time>
      </trkpt>
      <trkpt lat="42.506003" lon="-2.384031">
        <ele>413.942</ele>
        <time>2021-07-27T07:30:07Z</time>
      </trkpt>
      <trkpt lat="42.506375" lon="-2.383982">
        <ele>414.422</ele>
        <time>2021-07-27T07:30:18Z</time>
      </trkpt>
      <trkpt lat="42.506868" lon="-2.383838">
        <ele>414.914</ele>
        <time>2021-07-27T07:30:32Z</time>
      </trkpt>
      <trkpt lat="42.507204" lon="-2.383726">
        <ele>414.908</ele>
        <time>2021-07-27T07:30:43Z</time>
      </trkpt>
      <trkpt lat="42.507359" lon="-2.383666">
        <ele>414.461</ele>
        <time>2021-07-27T07:30:49Z</time>
      </trkpt>
      <trkpt lat="42.507379" lon="-2.383641">
        <ele>414.493</ele>
        <time>2021-07-27T07:30:50Z</time>
      </trkpt>
      <trkpt lat="42.507400" lon="-2.383611">
        <ele>414.420</ele>
        <time>2021-07-27T07:30:51Z</time>
      </trkpt>
      <trkpt lat="42.507615" lon="-2.383278">
        <ele>415.960</ele>
        <time>2021-07-27T07:31:01Z</time>
      </trkpt>
      <trkpt lat="42.507847" lon="-2.382924">
        <ele>416.824</ele>
        <time>2021-07-27T07:31:12Z</time>
      </trkpt>
      <trkpt lat="42.508014" lon="-2.382671">
        <ele>418.332</ele>
        <time>2021-07-27T07:31:20Z</time>
      </trkpt>
      <trkpt lat="42.508207" lon="-2.382372">
        <ele>418.769</ele>
        <time>2021-07-27T07:31:29Z</time>
      </trkpt>
      <trkpt lat="42.508434" lon="-2.382023">
        <ele>418.747</ele>
        <time>2021-07-27T07:31:40Z</time>
      </trkpt>
      <trkpt lat="42.508662" lon="-2.381667">
        <ele>419.753</ele>
        <time>2021-07-27T07:31:51Z</time>
      </trkpt>
      <trkpt lat="42.508861" lon="-2.381366">
        <ele>419.704</ele>
        <time>2021-07-27T07:32:00Z</time>
      </trkpt>
      <trkpt lat="42.509096" lon="-2.380998">
        <ele>420.714</ele>
        <time>2021-07-27T07:32:11Z</time>
      </trkpt>
      <trkpt lat="42.509292" lon="-2.380695">
        <ele>421.608</ele>
        <time>2021-07-27T07:32:21Z</time>
      </trkpt>
      <trkpt lat="42.509533" lon="-2.380329">
        <ele>423.152</ele>
        <time>2021-07-27T07:32:33Z</time>
      </trkpt>
      <trkpt lat="42.509788" lon="-2.379942">
        <ele>424.064</ele>
        <time>2021-07-27T07:32:45Z</time>
      </trkpt>
      <trkpt lat="42.510017" lon="-2.379583">
        <ele>425.041</ele>
        <time>2021-07-27T07:32:56Z</time>
      </trkpt>
      <trkpt lat="42.510210" lon="-2.379281">
        <ele>425.091</ele>
        <time>2021-07-27T07:33:06Z</time>
      </trkpt>
      <trkpt lat="42.510396" lon="-2.379000">
        <ele>425.085</ele>
        <time>2021-07-27T07:33:16Z</time>
      </trkpt>
      <trkpt lat="42.510550" lon="-2.378751">
        <ele>424.533</ele>
        <time>2021-07-27T07:33:24Z</time>
      </trkpt>
      <trkpt lat="42.510650" lon="-2.378609">
        <ele>424.030</ele>
        <time>2021-07-27T07:33:31Z</time>
      </trkpt>
      <trkpt lat="42.510762" lon="-2.378431">
        <ele>423.668</ele>
        <time>2021-07-27T07:33:40Z</time>
      </trkpt>
      <trkpt lat="42.510836" lon="-2.378308">
        <ele>423.171</ele>
        <time>2021-07-27T07:33:48Z</time>
      </trkpt>
      <trkpt lat="42.510887" lon="-2.378226">
        <ele>422.641</ele>
        <time>2021-07-27T07:33:56Z</time>
      </trkpt>
      <trkpt lat="42.510881" lon="-2.378235">
        <ele>423.115</ele>
        <time>2021-07-27T07:34:11Z</time>
      </trkpt>
      <trkpt lat="42.510929" lon="-2.378164">
        <ele>423.108</ele>
        <time>2021-07-27T07:34:17Z</time>
      </trkpt>
      <trkpt lat="42.511103" lon="-2.377893">
        <ele>423.174</ele>
        <time>2021-07-27T07:34:25Z</time>
      </trkpt>
      <trkpt lat="42.511322" lon="-2.377556">
        <ele>422.646</ele>
        <time>2021-07-27T07:34:35Z</time>
      </trkpt>
      <trkpt lat="42.511556" lon="-2.377192">
        <ele>423.173</ele>
        <time>2021-07-27T07:34:44Z</time>
      </trkpt>
      <trkpt lat="42.511844" lon="-2.376732">
        <ele>423.183</ele>
        <time>2021-07-27T07:34:55Z</time>
      </trkpt>
      <trkpt lat="42.512156" lon="-2.376246">
        <ele>424.597</ele>
        <time>2021-07-27T07:35:07Z</time>
      </trkpt>
      <trkpt lat="42.512292" lon="-2.375909">
        <ele>426.095</ele>
        <time>2021-07-27T07:35:15Z</time>
      </trkpt>
      <trkpt lat="42.512359" lon="-2.375557">
        <ele>426.992</ele>
        <time>2021-07-27T07:35:24Z</time>
      </trkpt>
      <trkpt lat="42.512409" lon="-2.375289">
        <ele>426.940</ele>
        <time>2021-07-27T07:35:30Z</time>
      </trkpt>
      <trkpt lat="42.512557" lon="-2.375211">
        <ele>427.939</ele>
        <time>2021-07-27T07:35:35Z</time>
      </trkpt>
      <trkpt lat="42.512692" lon="-2.375277">
        <ele>428.801</ele>
        <time>2021-07-27T07:35:42Z</time>
      </trkpt>
      <trkpt lat="42.512800" lon="-2.375257">
        <ele>429.821</ele>
        <time>2021-07-27T07:35:48Z</time>
      </trkpt>
      <trkpt lat="42.512912" lon="-2.375102">
        <ele>431.708</ele>
        <time>2021-07-27T07:35:57Z</time>
      </trkpt>
      <trkpt lat="42.513027" lon="-2.374922">
        <ele>432.710</ele>
        <time>2021-07-27T07:36:07Z</time>
      </trkpt>
      <trkpt lat="42.513133" lon="-2.374761">
        <ele>433.672</ele>
        <time>2021-07-27T07:36:16Z</time>
      </trkpt>
      <trkpt lat="42.513253" lon="-2.374574">
        <ele>435.129</ele>
        <time>2021-07-27T07:36:26Z</time>
      </trkpt>
      <trkpt lat="42.513347" lon="-2.374427">
        <ele>436.189</ele>
        <time>2021-07-27T07:36:34Z</time>
      </trkpt>
      <trkpt lat="42.513442" lon="-2.374293">
        <ele>437.033</ele>
        <time>2021-07-27T07:36:42Z</time>
      </trkpt>
      <trkpt lat="42.513535" lon="-2.374135">
        <ele>438.591</ele>
        <time>2021-07-27T07:36:51Z</time>
      </trkpt>
      <trkpt lat="42.513652" lon="-2.373936">
        <ele>440.418</ele>
        <time>2021-07-27T07:37:02Z</time>
      </trkpt>
      <trkpt lat="42.513760" lon="-2.373774">
        <ele>442.386</ele>
        <time>2021-07-27T07:37:11Z</time>
      </trkpt>
      <trkpt lat="42.513861" lon="-2.373658">
        <ele>443.784</ele>
        <time>2021-07-27T07:37:18Z</time>
      </trkpt>
      <trkpt lat="42.513969" lon="-2.373694">
        <ele>444.207</ele>
        <time>2021-07-27T07:37:25Z</time>
      </trkpt>
      <trkpt lat="42.513991" lon="-2.373727">
        <ele>443.717</ele>
        <time>2021-07-27T07:37:31Z</time>
      </trkpt>
      <trkpt lat="42.514001" lon="-2.373730">
        <ele>443.308</ele>
        <time>2021-07-27T07:37:41Z</time>
      </trkpt>
      <trkpt lat="42.514006" lon="-2.373733">
        <ele>442.875</ele>
        <time>2021-07-27T07:37:49Z</time>
      </trkpt>
      <trkpt lat="42.514001" lon="-2.373731">
        <ele>442.377</ele>
        <time>2021-07-27T07:38:02Z</time>
      </trkpt>
      <trkpt lat="42.514000" lon="-2.373741">
        <ele>442.314</ele>
        <time>2021-07-27T07:38:05Z</time>
      </trkpt>
      <trkpt lat="42.513997" lon="-2.373755">
        <ele>442.374</ele>
        <time>2021-07-27T07:38:06Z</time>
      </trkpt>
      <trkpt lat="42.513954" lon="-2.373742">
        <ele>442.358</ele>
        <time>2021-07-27T07:38:10Z</time>
      </trkpt>
      <trkpt lat="42.513951" lon="-2.373722">
        <ele>442.396</ele>
        <time>2021-07-27T07:38:11Z</time>
      </trkpt>
      <trkpt lat="42.513955" lon="-2.373655">
        <ele>442.363</ele>
        <time>2021-07-27T07:38:14Z</time>
      </trkpt>
      <trkpt lat="42.514018" lon="-2.373642">
        <ele>442.391</ele>
        <time>2021-07-27T07:38:19Z</time>
      </trkpt>
      <trkpt lat="42.514170" lon="-2.373825">
        <ele>444.745</ele>
        <time>2021-07-27T07:38:28Z</time>
      </trkpt>
      <trkpt lat="42.514328" lon="-2.374015">
        <ele>448.547</ele>
        <time>2021-07-27T07:38:38Z</time>
      </trkpt>
      <trkpt lat="42.514409" lon="-2.374061">
        <ele>450.011</ele>
        <time>2021-07-27T07:38:44Z</time>
      </trkpt>
      <trkpt lat="42.514420" lon="-2.374061">
        <ele>450.008</ele>
        <time>2021-07-27T07:38:45Z</time>
      </trkpt>
      <trkpt lat="42.514447" lon="-2.374065">
        <ele>450.511</ele>
        <time>2021-07-27T07:38:53Z</time>
      </trkpt>
      <trkpt lat="42.514444" lon="-2.374048">
        <ele>451.423</ele>
        <time>2021-07-27T07:39:00Z</time>
      </trkpt>
      <trkpt lat="42.514409" lon="-2.374070">
        <ele>453.440</ele>
        <time>2021-07-27T07:39:12Z</time>
      </trkpt>
      <trkpt lat="42.514411" lon="-2.374086">
        <ele>453.480</ele>
        <time>2021-07-27T07:39:13Z</time>
      </trkpt>
      <trkpt lat="42.514420" lon="-2.374100">
        <ele>453.844</ele>
        <time>2021-07-27T07:39:14Z</time>
      </trkpt>
      <trkpt lat="42.514434" lon="-2.374106">
        <ele>453.822</ele>
        <time>2021-07-27T07:39:15Z</time>
      </trkpt>
      <trkpt lat="42.514448" lon="-2.374112">
        <ele>453.819</ele>
        <time>2021-07-27T07:39:16Z</time>
      </trkpt>
      <trkpt lat="42.514498" lon="-2.374149">
        <ele>453.887</ele>
        <time>2021-07-27T07:39:19Z</time>
      </trkpt>
      <trkpt lat="42.514728" lon="-2.374312">
        <ele>454.336</ele>
        <time>2021-07-27T07:39:31Z</time>
      </trkpt>
      <trkpt lat="42.514997" lon="-2.374483">
        <ele>456.217</ele>
        <time>2021-07-27T07:39:44Z</time>
      </trkpt>
      <trkpt lat="42.515183" lon="-2.374550">
        <ele>456.218</ele>
        <time>2021-07-27T07:39:52Z</time>
      </trkpt>
      <trkpt lat="42.515397" lon="-2.374592">
        <ele>456.708</ele>
        <time>2021-07-27T07:40:01Z</time>
      </trkpt>
      <trkpt lat="42.515512" lon="-2.374578">
        <ele>457.260</ele>
        <time>2021-07-27T07:40:08Z</time>
      </trkpt>
      <trkpt lat="42.515555" lon="-2.374486">
        <ele>458.272</ele>
        <time>2021-07-27T07:40:16Z</time>
      </trkpt>
      <trkpt lat="42.515553" lon="-2.374496">
        <ele>458.279</ele>
        <time>2021-07-27T07:40:32Z</time>
      </trkpt>
      <trkpt lat="42.515549" lon="-2.374491">
        <ele>458.219</ele>
        <time>2021-07-27T07:40:33Z</time>
      </trkpt>
      <trkpt lat="42.515495" lon="-2.374475">
        <ele>458.633</ele>
        <time>2021-07-27T07:40:38Z</time>
      </trkpt>
      <trkpt lat="42.515407" lon="-2.374410">
        <ele>460.161</ele>
        <time>2021-07-27T07:40:47Z</time>
      </trkpt>
      <trkpt lat="42.515396" lon="-2.374405">
        <ele>460.658</ele>
        <time>2021-07-27T07:40:48Z</time>
      </trkpt>
      <trkpt lat="42.515331" lon="-2.374318">
        <ele>461.066</ele>
        <time>2021-07-27T07:40:55Z</time>
      </trkpt>
      <trkpt lat="42.515301" lon="-2.374234">
        <ele>462.015</ele>
        <time>2021-07-27T07:41:03Z</time>
      </trkpt>
      <trkpt lat="42.515289" lon="-2.374156">
        <ele>463.465</ele>
        <time>2021-07-27T07:41:08Z</time>
      </trkpt>
      <trkpt lat="42.515284" lon="-2.373980">
        <ele>466.311</ele>
        <time>2021-07-27T07:41:17Z</time>
      </trkpt>
      <trkpt lat="42.515254" lon="-2.373844">
        <ele>467.308</ele>
        <time>2021-07-27T07:41:23Z</time>
      </trkpt>
      <trkpt lat="42.515231" lon="-2.373823">
        <ele>466.828</ele>
        <time>2021-07-27T07:41:25Z</time>
      </trkpt>
      <trkpt lat="42.515152" lon="-2.373806">
        <ele>465.410</ele>
        <time>2021-07-27T07:41:30Z</time>
      </trkpt>
      <trkpt lat="42.515055" lon="-2.373753">
        <ele>463.957</ele>
        <time>2021-07-27T07:41:37Z</time>
      </trkpt>
      <trkpt lat="42.514971" lon="-2.373672">
        <ele>464.927</ele>
        <time>2021-07-27T07:41:43Z</time>
      </trkpt>
      <trkpt lat="42.514939" lon="-2.373604">
        <ele>465.411</ele>
        <time>2021-07-27T07:41:50Z</time>
      </trkpt>
      <trkpt lat="42.514941" lon="-2.373580">
        <ele>465.999</ele>
        <time>2021-07-27T07:41:56Z</time>
      </trkpt>
      <trkpt lat="42.514941" lon="-2.373588">
        <ele>471.146</ele>
        <time>2021-07-27T07:42:10Z</time>
      </trkpt>
      <trkpt lat="42.514936" lon="-2.373599">
        <ele>475.924</ele>
        <time>2021-07-27T07:42:26Z</time>
      </trkpt>
      <trkpt lat="42.514956" lon="-2.373621">
        <ele>479.884</ele>
        <time>2021-07-27T07:42:45Z</time>
      </trkpt>
      <trkpt lat="42.514961" lon="-2.373629">
        <ele>482.207</ele>
        <time>2021-07-27T07:43:08Z</time>
      </trkpt>
      <trkpt lat="42.514943" lon="-2.373636">
        <ele>484.617</ele>
        <time>2021-07-27T07:43:28Z</time>
      </trkpt>
      <trkpt lat="42.514951" lon="-2.373651">
        <ele>483.608</ele>
        <time>2021-07-27T07:43:51Z</time>
      </trkpt>
      <trkpt lat="42.514941" lon="-2.373656">
        <ele>484.125</ele>
        <time>2021-07-27T07:44:12Z</time>
      </trkpt>
      <trkpt lat="42.514944" lon="-2.373666">
        <ele>483.297</ele>
        <time>2021-07-27T07:44:27Z</time>
      </trkpt>
      <trkpt lat="42.514954" lon="-2.373647">
        <ele>482.264</ele>
        <time>2021-07-27T07:44:40Z</time>
      </trkpt>
      <trkpt lat="42.514956" lon="-2.373613">
        <ele>479.824</ele>
        <time>2021-07-27T07:45:03Z</time>
      </trkpt>
      <trkpt lat="42.514960" lon="-2.373614">
        <ele>476.918</ele>
        <time>2021-07-27T07:45:22Z</time>
      </trkpt>
      <trkpt lat="42.514966" lon="-2.373634">
        <ele>476.966</ele>
        <time>2021-07-27T07:45:40Z</time>
      </trkpt>
      <trkpt lat="42.514968" lon="-2.373638">
        <ele>477.953</ele>
        <time>2021-07-27T07:45:57Z</time>
      </trkpt>
      <trkpt lat="42.514968" lon="-2.373664">
        <ele>479.331</ele>
        <time>2021-07-27T07:46:15Z</time>
      </trkpt>
      <trkpt lat="42.514948" lon="-2.373630">
        <ele>480.845</ele>
        <time>2021-07-27T07:46:34Z</time>
      </trkpt>
      <trkpt lat="42.514947" lon="-2.373631">
        <ele>482.747</ele>
        <time>2021-07-27T07:46:47Z</time>
      </trkpt>
      <trkpt lat="42.514934" lon="-2.373638">
        <ele>483.211</ele>
        <time>2021-07-27T07:46:58Z</time>
      </trkpt>
      <trkpt lat="42.514926" lon="-2.373623">
        <ele>481.708</ele>
        <time>2021-07-27T07:47:02Z</time>
      </trkpt>
      <trkpt lat="42.514896" lon="-2.373600">
        <ele>480.381</ele>
        <time>2021-07-27T07:47:05Z</time>
      </trkpt>
      <trkpt lat="42.514878" lon="-2.373528">
        <ele>478.863</ele>
        <time>2021-07-27T07:47:09Z</time>
      </trkpt>
      <trkpt lat="42.514884" lon="-2.373354">
        <ele>477.480</ele>
        <time>2021-07-27T07:47:16Z</time>
      </trkpt>
      <trkpt lat="42.514890" lon="-2.373169">
        <ele>476.470</ele>
        <time>2021-07-27T07:47:24Z</time>
      </trkpt>
      <trkpt lat="42.514911" lon="-2.373022">
        <ele>476.454</ele>
        <time>2021-07-27T07:47:32Z</time>
      </trkpt>
      <trkpt lat="42.514938" lon="-2.372824">
        <ele>478.332</ele>
        <time>2021-07-27T07:47:44Z</time>
      </trkpt>
      <trkpt lat="42.514929" lon="-2.372636">
        <ele>478.869</ele>
        <time>2021-07-27T07:47:54Z</time>
      </trkpt>
      <trkpt lat="42.514954" lon="-2.372406">
        <ele>478.337</ele>
        <time>2021-07-27T07:48:03Z</time>
      </trkpt>
      <trkpt lat="42.514974" lon="-2.372140">
        <ele>478.357</ele>
        <time>2021-07-27T07:48:13Z</time>
      </trkpt>
      <trkpt lat="42.514982" lon="-2.371976">
        <ele>478.300</ele>
        <time>2021-07-27T07:48:20Z</time>
      </trkpt>
      <trkpt lat="42.514977" lon="-2.371930">
        <ele>477.420</ele>
        <time>2021-07-27T07:48:27Z</time>
      </trkpt>
      <trkpt lat="42.514972" lon="-2.371929">
        <ele>478.308</ele>
        <time>2021-07-27T07:48:39Z</time>
      </trkpt>
      <trkpt lat="42.514962" lon="-2.371928">
        <ele>479.352</ele>
        <time>2021-07-27T07:48:48Z</time>
      </trkpt>
      <trkpt lat="42.514953" lon="-2.371938">
        <ele>479.824</ele>
        <time>2021-07-27T07:48:59Z</time>
      </trkpt>
      <trkpt lat="42.514980" lon="-2.371948">
        <ele>479.311</ele>
        <time>2021-07-27T07:49:12Z</time>
      </trkpt>
      <trkpt lat="42.514986" lon="-2.371945">
        <ele>477.471</ele>
        <time>2021-07-27T07:49:26Z</time>
      </trkpt>
      <trkpt lat="42.514980" lon="-2.371929">
        <ele>475.995</ele>
        <time>2021-07-27T07:49:39Z</time>
      </trkpt>
      <trkpt lat="42.514984" lon="-2.371934">
        <ele>476.473</ele>
        <time>2021-07-27T07:49:52Z</time>
      </trkpt>
      <trkpt lat="42.514987" lon="-2.371933">
        <ele>476.990</ele>
        <time>2021-07-27T07:49:59Z</time>
      </trkpt>
      <trkpt lat="42.514988" lon="-2.371927">
        <ele>476.998</ele>
        <time>2021-07-27T07:50:17Z</time>
      </trkpt>
      <trkpt lat="42.514985" lon="-2.371927">
        <ele>476.935</ele>
        <time>2021-07-27T07:50:28Z</time>
      </trkpt>
      <trkpt lat="42.514986" lon="-2.371922">
        <ele>475.986</ele>
        <time>2021-07-27T07:50:38Z</time>
      </trkpt>
      <trkpt lat="42.514991" lon="-2.371922">
        <ele>474.514</ele>
        <time>2021-07-27T07:50:51Z</time>
      </trkpt>
      <trkpt lat="42.515004" lon="-2.371928">
        <ele>475.908</ele>
        <time>2021-07-27T07:50:59Z</time>
      </trkpt>
      <trkpt lat="42.514981" lon="-2.371924">
        <ele>475.970</ele>
        <time>2021-07-27T07:51:10Z</time>
      </trkpt>
      <trkpt lat="42.514994" lon="-2.371921">
        <ele>475.062</ele>
        <time>2021-07-27T07:51:20Z</time>
      </trkpt>
      <trkpt lat="42.514982" lon="-2.371912">
        <ele>473.569</ele>
        <time>2021-07-27T07:51:41Z</time>
      </trkpt>
      <trkpt lat="42.514988" lon="-2.371908">
        <ele>472.199</ele>
        <time>2021-07-27T07:51:54Z</time>
      </trkpt>
      <trkpt lat="42.514967" lon="-2.371905">
        <ele>471.123</ele>
        <time>2021-07-27T07:52:05Z</time>
      </trkpt>
      <trkpt lat="42.514986" lon="-2.371898">
        <ele>469.731</ele>
        <time>2021-07-27T07:52:21Z</time>
      </trkpt>
      <trkpt lat="42.514981" lon="-2.371905">
        <ele>469.258</ele>
        <time>2021-07-27T07:52:30Z</time>
      </trkpt>
      <trkpt lat="42.514987" lon="-2.371903">
        <ele>468.756</ele>
        <time>2021-07-27T07:52:37Z</time>
      </trkpt>
      <trkpt lat="42.514982" lon="-2.371873">
        <ele>469.222</ele>
        <time>2021-07-27T07:52:44Z</time>
      </trkpt>
      <trkpt lat="42.514984" lon="-2.371850">
        <ele>468.762</ele>
        <time>2021-07-27T07:52:46Z</time>
      </trkpt>
      <trkpt lat="42.514986" lon="-2.371694">
        <ele>468.708</ele>
        <time>2021-07-27T07:52:57Z</time>
      </trkpt>
      <trkpt lat="42.514996" lon="-2.371564">
        <ele>470.208</ele>
        <time>2021-07-27T07:53:07Z</time>
      </trkpt>
      <trkpt lat="42.514987" lon="-2.371500">
        <ele>469.749</ele>
        <time>2021-07-27T07:53:14Z</time>
      </trkpt>
      <trkpt lat="42.514989" lon="-2.371409">
        <ele>470.791</ele>
        <time>2021-07-27T07:53:20Z</time>
      </trkpt>
      <trkpt lat="42.515006" lon="-2.371272">
        <ele>471.658</ele>
        <time>2021-07-27T07:53:30Z</time>
      </trkpt>
      <trkpt lat="42.515001" lon="-2.371202">
        <ele>473.148</ele>
        <time>2021-07-27T07:53:39Z</time>
      </trkpt>
      <trkpt lat="42.515014" lon="-2.371173">
        <ele>471.632</ele>
        <time>2021-07-27T07:53:52Z</time>
      </trkpt>
      <trkpt lat="42.515021" lon="-2.371162">
        <ele>470.750</ele>
        <time>2021-07-27T07:54:06Z</time>
      </trkpt>
      <trkpt lat="42.515007" lon="-2.371161">
        <ele>469.797</ele>
        <time>2021-07-27T07:54:16Z</time>
      </trkpt>
      <trkpt lat="42.515012" lon="-2.371155">
        <ele>469.235</ele>
        <time>2021-07-27T07:54:32Z</time>
      </trkpt>
      <trkpt lat="42.515040" lon="-2.371157">
        <ele>469.276</ele>
        <time>2021-07-27T07:54:45Z</time>
      </trkpt>
      <trkpt lat="42.515048" lon="-2.371187">
        <ele>469.290</ele>
        <time>2021-07-27T07:54:51Z</time>
      </trkpt>
      <trkpt lat="42.515047" lon="-2.371194">
        <ele>469.219</ele>
        <time>2021-07-27T07:54:53Z</time>
      </trkpt>
      <trkpt lat="42.515031" lon="-2.371272">
        <ele>468.708</ele>
        <time>2021-07-27T07:54:58Z</time>
      </trkpt>
      <trkpt lat="42.515021" lon="-2.371380">
        <ele>467.894</ele>
        <time>2021-07-27T07:55:03Z</time>
      </trkpt>
      <trkpt lat="42.515004" lon="-2.371637">
        <ele>466.886</ele>
        <time>2021-07-27T07:55:12Z</time>
      </trkpt>
      <trkpt lat="42.514980" lon="-2.371869">
        <ele>466.353</ele>
        <time>2021-07-27T07:55:21Z</time>
      </trkpt>
      <trkpt lat="42.514959" lon="-2.371921">
        <ele>465.413</ele>
        <time>2021-07-27T07:55:25Z</time>
      </trkpt>
      <trkpt lat="42.514864" lon="-2.371911">
        <ele>464.427</ele>
        <time>2021-07-27T07:55:31Z</time>
      </trkpt>
      <trkpt lat="42.514744" lon="-2.371918">
        <ele>463.455</ele>
        <time>2021-07-27T07:55:39Z</time>
      </trkpt>
      <trkpt lat="42.514618" lon="-2.371911">
        <ele>463.412</ele>
        <time>2021-07-27T07:55:46Z</time>
      </trkpt>
      <trkpt lat="42.514517" lon="-2.371921">
        <ele>463.490</ele>
        <time>2021-07-27T07:55:52Z</time>
      </trkpt>
      <trkpt lat="42.514469" lon="-2.371901">
        <ele>465.461</ele>
        <time>2021-07-27T07:55:58Z</time>
      </trkpt>
      <trkpt lat="42.514419" lon="-2.371920">
        <ele>467.321</ele>
        <time>2021-07-27T07:56:16Z</time>
      </trkpt>
      <trkpt lat="42.514429" lon="-2.371928">
        <ele>467.813</ele>
        <time>2021-07-27T07:56:27Z</time>
      </trkpt>
      <trkpt lat="42.514425" lon="-2.371939">
        <ele>471.108</ele>
        <time>2021-07-27T07:56:39Z</time>
      </trkpt>
      <trkpt lat="42.514314" lon="-2.371903">
        <ele>469.213</ele>
        <time>2021-07-27T07:56:44Z</time>
      </trkpt>
      <trkpt lat="42.514305" lon="-2.371880">
        <ele>468.785</ele>
        <time>2021-07-27T07:56:45Z</time>
      </trkpt>
      <trkpt lat="42.514306" lon="-2.371650">
        <ele>467.862</ele>
        <time>2021-07-27T07:56:54Z</time>
      </trkpt>
      <trkpt lat="42.514293" lon="-2.371525">
        <ele>467.832</ele>
        <time>2021-07-27T07:57:01Z</time>
      </trkpt>
      <trkpt lat="42.514279" lon="-2.371505">
        <ele>466.836</ele>
        <time>2021-07-27T07:57:10Z</time>
      </trkpt>
      <trkpt lat="42.514275" lon="-2.371499">
        <ele>466.344</ele>
        <time>2021-07-27T07:57:11Z</time>
      </trkpt>
      <trkpt lat="42.514264" lon="-2.371494">
        <ele>466.381</ele>
        <time>2021-07-27T07:57:12Z</time>
      </trkpt>
      <trkpt lat="42.514205" lon="-2.371433">
        <ele>466.319</ele>
        <time>2021-07-27T07:57:18Z</time>
      </trkpt>
      <trkpt lat="42.514245" lon="-2.371323">
        <ele>465.924</ele>
        <time>2021-07-27T07:57:23Z</time>
      </trkpt>
      <trkpt lat="42.514264" lon="-2.371292">
        <ele>465.904</ele>
        <time>2021-07-27T07:57:25Z</time>
      </trkpt>
      <trkpt lat="42.514301" lon="-2.371188">
        <ele>466.814</ele>
        <time>2021-07-27T07:57:33Z</time>
      </trkpt>
      <trkpt lat="42.514307" lon="-2.371210">
        <ele>466.808</ele>
        <time>2021-07-27T07:57:34Z</time>
      </trkpt>
      <trkpt lat="42.514304" lon="-2.371242">
        <ele>466.829</ele>
        <time>2021-07-27T07:57:35Z</time>
      </trkpt>
      <trkpt lat="42.514294" lon="-2.371269">
        <ele>466.831</ele>
        <time>2021-07-27T07:57:36Z</time>
      </trkpt>
      <trkpt lat="42.514277" lon="-2.371295">
        <ele>466.328</ele>
        <time>2021-07-27T07:57:37Z</time>
      </trkpt>
      <trkpt lat="42.514257" lon="-2.371317">
        <ele>466.328</ele>
        <time>2021-07-27T07:57:38Z</time>
      </trkpt>
      <trkpt lat="42.514208" lon="-2.371325">
        <ele>466.362</ele>
        <time>2021-07-27T07:57:40Z</time>
      </trkpt>
      <trkpt lat="42.514185" lon="-2.371293">
        <ele>466.820</ele>
        <time>2021-07-27T07:57:41Z</time>
      </trkpt>
      <trkpt lat="42.514175" lon="-2.371255">
        <ele>466.827</ele>
        <time>2021-07-27T07:57:42Z</time>
      </trkpt>
      <trkpt lat="42.514170" lon="-2.371209">
        <ele>466.335</ele>
        <time>2021-07-27T07:57:43Z</time>
      </trkpt>
      <trkpt lat="42.514169" lon="-2.371159">
        <ele>466.336</ele>
        <time>2021-07-27T07:57:44Z</time>
      </trkpt>
      <trkpt lat="42.514171" lon="-2.371114">
        <ele>465.917</ele>
        <time>2021-07-27T07:57:45Z</time>
      </trkpt>
      <trkpt lat="42.514183" lon="-2.370823">
        <ele>463.918</ele>
        <time>2021-07-27T07:57:52Z</time>
      </trkpt>
      <trkpt lat="42.514200" lon="-2.370520">
        <ele>462.008</ele>
        <time>2021-07-27T07:57:59Z</time>
      </trkpt>
      <trkpt lat="42.514218" lon="-2.370087">
        <ele>459.650</ele>
        <time>2021-07-27T07:58:07Z</time>
      </trkpt>
      <trkpt lat="42.514225" lon="-2.369947">
        <ele>459.182</ele>
        <time>2021-07-27T07:58:09Z</time>
      </trkpt>
      <trkpt lat="42.514239" lon="-2.369765">
        <ele>458.299</ele>
        <time>2021-07-27T07:58:12Z</time>
      </trkpt>
      <trkpt lat="42.514339" lon="-2.369316">
        <ele>456.789</ele>
        <time>2021-07-27T07:58:19Z</time>
      </trkpt>
      <trkpt lat="42.514477" lon="-2.368777">
        <ele>454.343</ele>
        <time>2021-07-27T07:58:27Z</time>
      </trkpt>
      <trkpt lat="42.514625" lon="-2.368169">
        <ele>451.481</ele>
        <time>2021-07-27T07:58:36Z</time>
      </trkpt>
      <trkpt lat="42.514629" lon="-2.368099">
        <ele>451.078</ele>
        <time>2021-07-27T07:58:37Z</time>
      </trkpt>
      <trkpt lat="42.514621" lon="-2.368030">
        <ele>451.066</ele>
        <time>2021-07-27T07:58:38Z</time>
      </trkpt>
      <trkpt lat="42.514598" lon="-2.367971">
        <ele>451.052</ele>
        <time>2021-07-27T07:58:39Z</time>
      </trkpt>
      <trkpt lat="42.514553" lon="-2.367927">
        <ele>450.553</ele>
        <time>2021-07-27T07:58:40Z</time>
      </trkpt>
      <trkpt lat="42.514498" lon="-2.367891">
        <ele>449.508</ele>
        <time>2021-07-27T07:58:41Z</time>
      </trkpt>
      <trkpt lat="42.514443" lon="-2.367850">
        <ele>449.008</ele>
        <time>2021-07-27T07:58:42Z</time>
      </trkpt>
      <trkpt lat="42.514404" lon="-2.367797">
        <ele>448.592</ele>
        <time>2021-07-27T07:58:43Z</time>
      </trkpt>
      <trkpt lat="42.514378" lon="-2.367712">
        <ele>447.684</ele>
        <time>2021-07-27T07:58:44Z</time>
      </trkpt>
      <trkpt lat="42.514382" lon="-2.367633">
        <ele>447.121</ele>
        <time>2021-07-27T07:58:45Z</time>
      </trkpt>
      <trkpt lat="42.514411" lon="-2.367551">
        <ele>447.151</ele>
        <time>2021-07-27T07:58:46Z</time>
      </trkpt>
      <trkpt lat="42.514440" lon="-2.367505">
        <ele>446.645</ele>
        <time>2021-07-27T07:58:47Z</time>
      </trkpt>
      <trkpt lat="42.514486" lon="-2.367454">
        <ele>446.653</ele>
        <time>2021-07-27T07:58:48Z</time>
      </trkpt>
      <trkpt lat="42.514532" lon="-2.367413">
        <ele>446.190</ele>
        <time>2021-07-27T07:58:49Z</time>
      </trkpt>
      <trkpt lat="42.514577" lon="-2.367370">
        <ele>446.158</ele>
        <time>2021-07-27T07:58:50Z</time>
      </trkpt>
      <trkpt lat="42.514615" lon="-2.367326">
        <ele>446.127</ele>
        <time>2021-07-27T07:58:51Z</time>
      </trkpt>
      <trkpt lat="42.514651" lon="-2.367275">
        <ele>446.168</ele>
        <time>2021-07-27T07:58:52Z</time>
      </trkpt>
      <trkpt lat="42.514677" lon="-2.367227">
        <ele>446.114</ele>
        <time>2021-07-27T07:58:53Z</time>
      </trkpt>
      <trkpt lat="42.514708" lon="-2.367165">
        <ele>445.708</ele>
        <time>2021-07-27T07:58:54Z</time>
      </trkpt>
      <trkpt lat="42.514923" lon="-2.366629">
        <ele>444.739</ele>
        <time>2021-07-27T07:59:04Z</time>
      </trkpt>
      <trkpt lat="42.514979" lon="-2.366470">
        <ele>444.741</ele>
        <time>2021-07-27T07:59:07Z</time>
      </trkpt>
      <trkpt lat="42.514996" lon="-2.366419">
        <ele>444.748</ele>
        <time>2021-07-27T07:59:08Z</time>
      </trkpt>
      <trkpt lat="42.515013" lon="-2.366365">
        <ele>444.778</ele>
        <time>2021-07-27T07:59:09Z</time>
      </trkpt>
      <trkpt lat="42.515029" lon="-2.366310">
        <ele>444.252</ele>
        <time>2021-07-27T07:59:10Z</time>
      </trkpt>
      <trkpt lat="42.515047" lon="-2.366253">
        <ele>444.230</ele>
        <time>2021-07-27T07:59:11Z</time>
      </trkpt>
      <trkpt lat="42.515196" lon="-2.365716">
        <ele>444.247</ele>
        <time>2021-07-27T07:59:21Z</time>
      </trkpt>
      <trkpt lat="42.515289" lon="-2.365301">
        <ele>444.725</ele>
        <time>2021-07-27T07:59:29Z</time>
      </trkpt>
      <trkpt lat="42.515378" lon="-2.364935">
        <ele>444.772</ele>
        <time>2021-07-27T07:59:36Z</time>
      </trkpt>
      <trkpt lat="42.515500" lon="-2.364463">
        <ele>446.113</ele>
        <time>2021-07-27T07:59:46Z</time>
      </trkpt>
      <trkpt lat="42.515622" lon="-2.363983">
        <ele>446.614</ele>
        <time>2021-07-27T07:59:56Z</time>
      </trkpt>
      <trkpt lat="42.515743" lon="-2.363480">
        <ele>446.608</ele>
        <time>2021-07-27T08:00:06Z</time>
      </trkpt>
      <trkpt lat="42.515891" lon="-2.362931">
        <ele>447.184</ele>
        <time>2021-07-27T08:00:16Z</time>
      </trkpt>
      <trkpt lat="42.516019" lon="-2.362409">
        <ele>448.196</ele>
        <time>2021-07-27T08:00:26Z</time>
      </trkpt>
      <trkpt lat="42.516134" lon="-2.361943">
        <ele>449.073</ele>
        <time>2021-07-27T08:00:35Z</time>
      </trkpt>
      <trkpt lat="42.516259" lon="-2.361408">
        <ele>449.513</ele>
        <time>2021-07-27T08:00:45Z</time>
      </trkpt>
      <trkpt lat="42.516396" lon="-2.360863">
        <ele>448.117</ele>
        <time>2021-07-27T08:00:55Z</time>
      </trkpt>
      <trkpt lat="42.516554" lon="-2.360184">
        <ele>446.645</ele>
        <time>2021-07-27T08:01:06Z</time>
      </trkpt>
      <trkpt lat="42.516697" lon="-2.359617">
        <ele>445.262</ele>
        <time>2021-07-27T08:01:14Z</time>
      </trkpt>
      <trkpt lat="42.516746" lon="-2.359269">
        <ele>445.270</ele>
        <time>2021-07-27T08:01:19Z</time>
      </trkpt>
      <trkpt lat="42.516740" lon="-2.359200">
        <ele>445.244</ele>
        <time>2021-07-27T08:01:20Z</time>
      </trkpt>
      <trkpt lat="42.516729" lon="-2.359138">
        <ele>445.205</ele>
        <time>2021-07-27T08:01:21Z</time>
      </trkpt>
      <trkpt lat="42.516701" lon="-2.359012">
        <ele>445.715</ele>
        <time>2021-07-27T08:01:23Z</time>
      </trkpt>
      <trkpt lat="42.516699" lon="-2.358958">
        <ele>445.708</ele>
        <time>2021-07-27T08:01:24Z</time>
      </trkpt>
      <trkpt lat="42.516709" lon="-2.358902">
        <ele>445.711</ele>
        <time>2021-07-27T08:01:25Z</time>
      </trkpt>
      <trkpt lat="42.516730" lon="-2.358850">
        <ele>445.753</ele>
        <time>2021-07-27T08:01:26Z</time>
      </trkpt>
      <trkpt lat="42.516759" lon="-2.358801">
        <ele>446.120</ele>
        <time>2021-07-27T08:01:27Z</time>
      </trkpt>
      <trkpt lat="42.516791" lon="-2.358763">
        <ele>446.130</ele>
        <time>2021-07-27T08:01:28Z</time>
      </trkpt>
      <trkpt lat="42.516827" lon="-2.358722">
        <ele>446.164</ele>
        <time>2021-07-27T08:01:29Z</time>
      </trkpt>
      <trkpt lat="42.516862" lon="-2.358682">
        <ele>446.172</ele>
        <time>2021-07-27T08:01:30Z</time>
      </trkpt>
      <trkpt lat="42.516922" lon="-2.358600">
        <ele>446.669</ele>
        <time>2021-07-27T08:01:32Z</time>
      </trkpt>
      <trkpt lat="42.516947" lon="-2.358550">
        <ele>447.147</ele>
        <time>2021-07-27T08:01:33Z</time>
      </trkpt>
      <trkpt lat="42.516964" lon="-2.358508">
        <ele>447.143</ele>
        <time>2021-07-27T08:01:34Z</time>
      </trkpt>
      <trkpt lat="42.516980" lon="-2.358460">
        <ele>447.164</ele>
        <time>2021-07-27T08:01:35Z</time>
      </trkpt>
      <trkpt lat="42.516993" lon="-2.358409">
        <ele>447.610</ele>
        <time>2021-07-27T08:01:36Z</time>
      </trkpt>
      <trkpt lat="42.517005" lon="-2.358369">
        <ele>447.608</ele>
        <time>2021-07-27T08:01:37Z</time>
      </trkpt>
      <trkpt lat="42.517018" lon="-2.358323">
        <ele>447.661</ele>
        <time>2021-07-27T08:01:38Z</time>
      </trkpt>
      <trkpt lat="42.517135" lon="-2.357844">
        <ele>449.053</ele>
        <time>2021-07-27T08:01:49Z</time>
      </trkpt>
      <trkpt lat="42.517226" lon="-2.357470">
        <ele>449.590</ele>
        <time>2021-07-27T08:01:57Z</time>
      </trkpt>
      <trkpt lat="42.517348" lon="-2.356948">
        <ele>448.550</ele>
        <time>2021-07-27T08:02:08Z</time>
      </trkpt>
      <trkpt lat="42.517486" lon="-2.356397">
        <ele>448.174</ele>
        <time>2021-07-27T08:02:18Z</time>
      </trkpt>
      <trkpt lat="42.517642" lon="-2.355790">
        <ele>447.692</ele>
        <time>2021-07-27T08:02:28Z</time>
      </trkpt>
      <trkpt lat="42.517821" lon="-2.355047">
        <ele>448.169</ele>
        <time>2021-07-27T08:02:41Z</time>
      </trkpt>
      <trkpt lat="42.517948" lon="-2.354515">
        <ele>449.587</ele>
        <time>2021-07-27T08:02:52Z</time>
      </trkpt>
      <trkpt lat="42.518038" lon="-2.354149">
        <ele>451.458</ele>
        <time>2021-07-27T08:03:03Z</time>
      </trkpt>
      <trkpt lat="42.518070" lon="-2.353962">
        <ele>452.952</ele>
        <time>2021-07-27T08:03:10Z</time>
      </trkpt>
      <trkpt lat="42.518113" lon="-2.353659">
        <ele>454.817</ele>
        <time>2021-07-27T08:03:21Z</time>
      </trkpt>
      <trkpt lat="42.518109" lon="-2.353360">
        <ele>457.708</ele>
        <time>2021-07-27T08:03:32Z</time>
      </trkpt>
      <trkpt lat="42.518079" lon="-2.353003">
        <ele>460.612</ele>
        <time>2021-07-27T08:03:45Z</time>
      </trkpt>
      <trkpt lat="42.518047" lon="-2.352681">
        <ele>462.524</ele>
        <time>2021-07-27T08:03:56Z</time>
      </trkpt>
      <trkpt lat="42.518018" lon="-2.352400">
        <ele>463.091</ele>
        <time>2021-07-27T08:04:06Z</time>
      </trkpt>
      <trkpt lat="42.518002" lon="-2.352215">
        <ele>463.071</ele>
        <time>2021-07-27T08:04:14Z</time>
      </trkpt>
      <trkpt lat="42.517989" lon="-2.351974">
        <ele>463.045</ele>
        <time>2021-07-27T08:04:25Z</time>
      </trkpt>
      <trkpt lat="42.517999" lon="-2.351714">
        <ele>463.483</ele>
        <time>2021-07-27T08:04:36Z</time>
      </trkpt>
      <trkpt lat="42.518052" lon="-2.351416">
        <ele>463.440</ele>
        <time>2021-07-27T08:04:48Z</time>
      </trkpt>
      <trkpt lat="42.518132" lon="-2.351040">
        <ele>464.948</ele>
        <time>2021-07-27T08:05:03Z</time>
      </trkpt>
      <trkpt lat="42.518206" lon="-2.350723">
        <ele>465.455</ele>
        <time>2021-07-27T08:05:15Z</time>
      </trkpt>
      <trkpt lat="42.518270" lon="-2.350435">
        <ele>466.807</ele>
        <time>2021-07-27T08:05:26Z</time>
      </trkpt>
      <trkpt lat="42.518271" lon="-2.350414">
        <ele>467.317</ele>
        <time>2021-07-27T08:05:32Z</time>
      </trkpt>
      <trkpt lat="42.518271" lon="-2.350427">
        <ele>467.308</ele>
        <time>2021-07-27T08:05:46Z</time>
      </trkpt>
      <trkpt lat="42.518271" lon="-2.350430">
        <ele>467.342</ele>
        <time>2021-07-27T08:05:59Z</time>
      </trkpt>
      <trkpt lat="42.518303" lon="-2.350314">
        <ele>467.844</ele>
        <time>2021-07-27T08:06:05Z</time>
      </trkpt>
      <trkpt lat="42.518365" lon="-2.350052">
        <ele>467.861</ele>
        <time>2021-07-27T08:06:12Z</time>
      </trkpt>
      <trkpt lat="42.518476" lon="-2.349596">
        <ele>467.871</ele>
        <time>2021-07-27T08:06:23Z</time>
      </trkpt>
      <trkpt lat="42.518575" lon="-2.349158">
        <ele>467.855</ele>
        <time>2021-07-27T08:06:33Z</time>
      </trkpt>
      <trkpt lat="42.518694" lon="-2.348630">
        <ele>468.333</ele>
        <time>2021-07-27T08:06:44Z</time>
      </trkpt>
      <trkpt lat="42.518815" lon="-2.348113">
        <ele>467.840</ele>
        <time>2021-07-27T08:06:55Z</time>
      </trkpt>
      <trkpt lat="42.518908" lon="-2.347698">
        <ele>468.768</ele>
        <time>2021-07-27T08:07:05Z</time>
      </trkpt>
      <trkpt lat="42.518982" lon="-2.347328">
        <ele>469.727</ele>
        <time>2021-07-27T08:07:14Z</time>
      </trkpt>
      <trkpt lat="42.519076" lon="-2.346904">
        <ele>470.268</ele>
        <time>2021-07-27T08:07:24Z</time>
      </trkpt>
      <trkpt lat="42.519171" lon="-2.346485">
        <ele>471.114</ele>
        <time>2021-07-27T08:07:34Z</time>
      </trkpt>
      <trkpt lat="42.519281" lon="-2.345999">
        <ele>471.608</ele>
        <time>2021-07-27T08:07:46Z</time>
      </trkpt>
      <trkpt lat="42.519372" lon="-2.345580">
        <ele>472.619</ele>
        <time>2021-07-27T08:07:56Z</time>
      </trkpt>
      <trkpt lat="42.519500" lon="-2.345024">
        <ele>474.041</ele>
        <time>2021-07-27T08:08:09Z</time>
      </trkpt>
      <trkpt lat="42.519597" lon="-2.344590">
        <ele>475.048</ele>
        <time>2021-07-27T08:08:20Z</time>
      </trkpt>
      <trkpt lat="42.519719" lon="-2.344070">
        <ele>475.948</ele>
        <time>2021-07-27T08:08:33Z</time>
      </trkpt>
      <trkpt lat="42.519836" lon="-2.343687">
        <ele>477.472</ele>
        <time>2021-07-27T08:08:43Z</time>
      </trkpt>
      <trkpt lat="42.519978" lon="-2.343294">
        <ele>478.320</ele>
        <time>2021-07-27T08:08:53Z</time>
      </trkpt>
      <trkpt lat="42.520152" lon="-2.342866">
        <ele>479.337</ele>
        <time>2021-07-27T08:09:04Z</time>
      </trkpt>
      <trkpt lat="42.520313" lon="-2.342462">
        <ele>479.845</ele>
        <time>2021-07-27T08:09:14Z</time>
      </trkpt>
      <trkpt lat="42.520496" lon="-2.342008">
        <ele>479.851</ele>
        <time>2021-07-27T08:09:25Z</time>
      </trkpt>
      <trkpt lat="42.520661" lon="-2.341618">
        <ele>480.801</ele>
        <time>2021-07-27T08:09:35Z</time>
      </trkpt>
      <trkpt lat="42.520788" lon="-2.341335">
        <ele>481.711</ele>
        <time>2021-07-27T08:09:43Z</time>
      </trkpt>
      <trkpt lat="42.520927" lon="-2.340963">
        <ele>482.208</ele>
        <time>2021-07-27T08:09:53Z</time>
      </trkpt>
      <trkpt lat="42.521052" lon="-2.340677">
        <ele>483.272</ele>
        <time>2021-07-27T08:10:01Z</time>
      </trkpt>
      <trkpt lat="42.521237" lon="-2.340322">
        <ele>484.174</ele>
        <time>2021-07-27T08:10:12Z</time>
      </trkpt>
      <trkpt lat="42.521417" lon="-2.340056">
        <ele>484.181</ele>
        <time>2021-07-27T08:10:20Z</time>
      </trkpt>
      <trkpt lat="42.521643" lon="-2.339769">
        <ele>484.161</ele>
        <time>2021-07-27T08:10:30Z</time>
      </trkpt>
      <trkpt lat="42.521919" lon="-2.339396">
        <ele>484.125</ele>
        <time>2021-07-27T08:10:43Z</time>
      </trkpt>
      <trkpt lat="42.522039" lon="-2.339217">
        <ele>483.243</ele>
        <time>2021-07-27T08:10:48Z</time>
      </trkpt>
      <trkpt lat="42.522286" lon="-2.338892">
        <ele>481.210</ele>
        <time>2021-07-27T08:10:54Z</time>
      </trkpt>
      <trkpt lat="42.522682" lon="-2.338371">
        <ele>478.388</ele>
        <time>2021-07-27T08:11:01Z</time>
      </trkpt>
      <trkpt lat="42.523126" lon="-2.337787">
        <ele>478.383</ele>
        <time>2021-07-27T08:11:09Z</time>
      </trkpt>
      <trkpt lat="42.523413" lon="-2.337411">
        <ele>479.325</ele>
        <time>2021-07-27T08:11:16Z</time>
      </trkpt>
      <trkpt lat="42.523569" lon="-2.337173">
        <ele>480.317</ele>
        <time>2021-07-27T08:11:23Z</time>
      </trkpt>
      <trkpt lat="42.523744" lon="-2.336877">
        <ele>481.708</ele>
        <time>2021-07-27T08:11:32Z</time>
      </trkpt>
      <trkpt lat="42.523817" lon="-2.336662">
        <ele>483.625</ele>
        <time>2021-07-27T08:11:40Z</time>
      </trkpt>
      <trkpt lat="42.523849" lon="-2.336504">
        <ele>484.147</ele>
        <time>2021-07-27T08:11:47Z</time>
      </trkpt>
      <trkpt lat="42.523896" lon="-2.336253">
        <ele>485.684</ele>
        <time>2021-07-27T08:11:57Z</time>
      </trkpt>
      <trkpt lat="42.523929" lon="-2.335996">
        <ele>487.064</ele>
        <time>2021-07-27T08:12:07Z</time>
      </trkpt>
      <trkpt lat="42.523953" lon="-2.335789">
        <ele>488.098</ele>
        <time>2021-07-27T08:12:15Z</time>
      </trkpt>
      <trkpt lat="42.523984" lon="-2.335489">
        <ele>489.936</ele>
        <time>2021-07-27T08:12:27Z</time>
      </trkpt>
      <trkpt lat="42.524006" lon="-2.335140">
        <ele>492.313</ele>
        <time>2021-07-27T08:12:40Z</time>
      </trkpt>
      <trkpt lat="42.524034" lon="-2.334909">
        <ele>493.281</ele>
        <time>2021-07-27T08:12:50Z</time>
      </trkpt>
      <trkpt lat="42.524060" lon="-2.334696">
        <ele>494.268</ele>
        <time>2021-07-27T08:12:59Z</time>
      </trkpt>
      <trkpt lat="42.524094" lon="-2.334440">
        <ele>494.742</ele>
        <time>2021-07-27T08:13:09Z</time>
      </trkpt>
      <trkpt lat="42.524119" lon="-2.334193">
        <ele>496.126</ele>
        <time>2021-07-27T08:13:19Z</time>
      </trkpt>
      <trkpt lat="42.524157" lon="-2.333924">
        <ele>498.108</ele>
        <time>2021-07-27T08:13:30Z</time>
      </trkpt>
      <trkpt lat="42.524172" lon="-2.333704">
        <ele>498.513</ele>
        <time>2021-07-27T08:13:39Z</time>
      </trkpt>
      <trkpt lat="42.524218" lon="-2.333405">
        <ele>500.045</ele>
        <time>2021-07-27T08:13:51Z</time>
      </trkpt>
      <trkpt lat="42.524272" lon="-2.333147">
        <ele>500.972</ele>
        <time>2021-07-27T08:14:02Z</time>
      </trkpt>
      <trkpt lat="42.524318" lon="-2.332898">
        <ele>502.452</ele>
        <time>2021-07-27T08:14:12Z</time>
      </trkpt>
      <trkpt lat="42.524372" lon="-2.332626">
        <ele>504.376</ele>
        <time>2021-07-27T08:14:22Z</time>
      </trkpt>
      <trkpt lat="42.524437" lon="-2.332349">
        <ele>505.724</ele>
        <time>2021-07-27T08:14:33Z</time>
      </trkpt>
      <trkpt lat="42.524485" lon="-2.332079">
        <ele>506.751</ele>
        <time>2021-07-27T08:14:43Z</time>
      </trkpt>
      <trkpt lat="42.524546" lon="-2.331751">
        <ele>508.169</ele>
        <time>2021-07-27T08:14:55Z</time>
      </trkpt>
      <trkpt lat="42.524608" lon="-2.331488">
        <ele>509.629</ele>
        <time>2021-07-27T08:15:05Z</time>
      </trkpt>
      <trkpt lat="42.524702" lon="-2.331264">
        <ele>510.100</ele>
        <time>2021-07-27T08:15:14Z</time>
      </trkpt>
      <trkpt lat="42.524811" lon="-2.331131">
        <ele>509.620</ele>
        <time>2021-07-27T08:15:21Z</time>
      </trkpt>
      <trkpt lat="42.525018" lon="-2.331039">
        <ele>508.608</ele>
        <time>2021-07-27T08:15:29Z</time>
      </trkpt>
      <trkpt lat="42.525216" lon="-2.331061">
        <ele>507.239</ele>
        <time>2021-07-27T08:15:33Z</time>
      </trkpt>
      <trkpt lat="42.525614" lon="-2.331233">
        <ele>504.811</ele>
        <time>2021-07-27T08:15:39Z</time>
      </trkpt>
      <trkpt lat="42.526121" lon="-2.331478">
        <ele>502.428</ele>
        <time>2021-07-27T08:15:46Z</time>
      </trkpt>
      <trkpt lat="42.526500" lon="-2.331656">
        <ele>500.558</ele>
        <time>2021-07-27T08:15:51Z</time>
      </trkpt>
      <trkpt lat="42.526584" lon="-2.331672">
        <ele>500.042</ele>
        <time>2021-07-27T08:15:52Z</time>
      </trkpt>
      <trkpt lat="42.526676" lon="-2.331670">
        <ele>499.580</ele>
        <time>2021-07-27T08:15:53Z</time>
      </trkpt>
      <trkpt lat="42.526761" lon="-2.331643">
        <ele>499.037</ele>
        <time>2021-07-27T08:15:54Z</time>
      </trkpt>
      <trkpt lat="42.526846" lon="-2.331585">
        <ele>498.555</ele>
        <time>2021-07-27T08:15:55Z</time>
      </trkpt>
      <trkpt lat="42.526919" lon="-2.331498">
        <ele>498.195</ele>
        <time>2021-07-27T08:15:56Z</time>
      </trkpt>
      <trkpt lat="42.526977" lon="-2.331380">
        <ele>497.649</ele>
        <time>2021-07-27T08:15:57Z</time>
      </trkpt>
      <trkpt lat="42.527009" lon="-2.331269">
        <ele>497.123</ele>
        <time>2021-07-27T08:15:58Z</time>
      </trkpt>
      <trkpt lat="42.527023" lon="-2.331139">
        <ele>496.608</ele>
        <time>2021-07-27T08:15:59Z</time>
      </trkpt>
      <trkpt lat="42.527010" lon="-2.331004">
        <ele>496.176</ele>
        <time>2021-07-27T08:16:00Z</time>
      </trkpt>
      <trkpt lat="42.526972" lon="-2.330878">
        <ele>495.218</ele>
        <time>2021-07-27T08:16:01Z</time>
      </trkpt>
      <trkpt lat="42.526916" lon="-2.330760">
        <ele>494.795</ele>
        <time>2021-07-27T08:16:02Z</time>
      </trkpt>
      <trkpt lat="42.526847" lon="-2.330650">
        <ele>493.775</ele>
        <time>2021-07-27T08:16:03Z</time>
      </trkpt>
      <trkpt lat="42.526772" lon="-2.330545">
        <ele>492.869</ele>
        <time>2021-07-27T08:16:04Z</time>
      </trkpt>
      <trkpt lat="42.526438" lon="-2.330013">
        <ele>489.417</ele>
        <time>2021-07-27T08:16:09Z</time>
      </trkpt>
      <trkpt lat="42.526273" lon="-2.329634">
        <ele>487.064</ele>
        <time>2021-07-27T08:16:12Z</time>
      </trkpt>
      <trkpt lat="42.526244" lon="-2.329511">
        <ele>486.592</ele>
        <time>2021-07-27T08:16:13Z</time>
      </trkpt>
      <trkpt lat="42.526227" lon="-2.329373">
        <ele>486.055</ele>
        <time>2021-07-27T08:16:14Z</time>
      </trkpt>
      <trkpt lat="42.526224" lon="-2.329227">
        <ele>485.107</ele>
        <time>2021-07-27T08:16:15Z</time>
      </trkpt>
      <trkpt lat="42.526228" lon="-2.329082">
        <ele>484.617</ele>
        <time>2021-07-27T08:16:16Z</time>
      </trkpt>
      <trkpt lat="42.526341" lon="-2.328337">
        <ele>480.308</ele>
        <time>2021-07-27T08:16:21Z</time>
      </trkpt>
      <trkpt lat="42.526348" lon="-2.328197">
        <ele>479.382</ele>
        <time>2021-07-27T08:16:22Z</time>
      </trkpt>
      <trkpt lat="42.526330" lon="-2.328061">
        <ele>478.374</ele>
        <time>2021-07-27T08:16:23Z</time>
      </trkpt>
      <trkpt lat="42.526289" lon="-2.327936">
        <ele>477.971</ele>
        <time>2021-07-27T08:16:24Z</time>
      </trkpt>
      <trkpt lat="42.526231" lon="-2.327818">
        <ele>477.461</ele>
        <time>2021-07-27T08:16:25Z</time>
      </trkpt>
      <trkpt lat="42.526173" lon="-2.327712">
        <ele>476.955</ele>
        <time>2021-07-27T08:16:26Z</time>
      </trkpt>
      <trkpt lat="42.525985" lon="-2.327234">
        <ele>474.013</ele>
        <time>2021-07-27T08:16:30Z</time>
      </trkpt>
      <trkpt lat="42.525962" lon="-2.327104">
        <ele>473.530</ele>
        <time>2021-07-27T08:16:31Z</time>
      </trkpt>
      <trkpt lat="42.525951" lon="-2.326966">
        <ele>472.688</ele>
        <time>2021-07-27T08:16:32Z</time>
      </trkpt>
      <trkpt lat="42.525955" lon="-2.326825">
        <ele>472.162</ele>
        <time>2021-07-27T08:16:33Z</time>
      </trkpt>
      <trkpt lat="42.525967" lon="-2.326691">
        <ele>471.183</ele>
        <time>2021-07-27T08:16:34Z</time>
      </trkpt>
      <trkpt lat="42.525985" lon="-2.326553">
        <ele>470.711</ele>
        <time>2021-07-27T08:16:35Z</time>
      </trkpt>
      <trkpt lat="42.526146" lon="-2.325419">
        <ele>465.408</ele>
        <time>2021-07-27T08:16:43Z</time>
      </trkpt>
      <trkpt lat="42.526198" lon="-2.325161">
        <ele>464.423</ele>
        <time>2021-07-27T08:16:45Z</time>
      </trkpt>
      <trkpt lat="42.526242" lon="-2.325039">
        <ele>463.475</ele>
        <time>2021-07-27T08:16:46Z</time>
      </trkpt>
      <trkpt lat="42.526296" lon="-2.324923">
        <ele>462.582</ele>
        <time>2021-07-27T08:16:47Z</time>
      </trkpt>
      <trkpt lat="42.526701" lon="-2.324180">
        <ele>456.762</ele>
        <time>2021-07-27T08:16:53Z</time>
      </trkpt>
      <trkpt lat="42.527110" lon="-2.323432">
        <ele>452.976</ele>
        <time>2021-07-27T08:16:59Z</time>
      </trkpt>
      <trkpt lat="42.527441" lon="-2.322879">
        <ele>452.964</ele>
        <time>2021-07-27T08:17:04Z</time>
      </trkpt>
      <trkpt lat="42.527516" lon="-2.322807">
        <ele>452.971</ele>
        <time>2021-07-27T08:17:05Z</time>
      </trkpt>
      <trkpt lat="42.527596" lon="-2.322754">
        <ele>452.989</ele>
        <time>2021-07-27T08:17:06Z</time>
      </trkpt>
      <trkpt lat="42.527678" lon="-2.322718">
        <ele>452.984</ele>
        <time>2021-07-27T08:17:07Z</time>
      </trkpt>
      <trkpt lat="42.527762" lon="-2.322683">
        <ele>452.407</ele>
        <time>2021-07-27T08:17:08Z</time>
      </trkpt>
      <trkpt lat="42.528152" lon="-2.322530">
        <ele>453.417</ele>
        <time>2021-07-27T08:17:14Z</time>
      </trkpt>
      <trkpt lat="42.528468" lon="-2.322397">
        <ele>453.408</ele>
        <time>2021-07-27T08:17:21Z</time>
      </trkpt>
      <trkpt lat="42.528721" lon="-2.322292">
        <ele>452.915</ele>
        <time>2021-07-27T08:17:29Z</time>
      </trkpt>
      <trkpt lat="42.528837" lon="-2.322246">
        <ele>453.467</ele>
        <time>2021-07-27T08:17:34Z</time>
      </trkpt>
      <trkpt lat="42.528858" lon="-2.322232">
        <ele>453.474</ele>
        <time>2021-07-27T08:17:35Z</time>
      </trkpt>
      <trkpt lat="42.529068" lon="-2.322135">
        <ele>453.454</ele>
        <time>2021-07-27T08:17:43Z</time>
      </trkpt>
      <trkpt lat="42.529311" lon="-2.322020">
        <ele>453.828</ele>
        <time>2021-07-27T08:17:52Z</time>
      </trkpt>
      <trkpt lat="42.529590" lon="-2.321898">
        <ele>454.846</ele>
        <time>2021-07-27T08:18:03Z</time>
      </trkpt>
      <trkpt lat="42.529773" lon="-2.321808">
        <ele>456.273</ele>
        <time>2021-07-27T08:18:11Z</time>
      </trkpt>
      <trkpt lat="42.530040" lon="-2.321700">
        <ele>457.751</ele>
        <time>2021-07-27T08:18:21Z</time>
      </trkpt>
      <trkpt lat="42.530310" lon="-2.321571">
        <ele>459.115</ele>
        <time>2021-07-27T08:18:31Z</time>
      </trkpt>
      <trkpt lat="42.530511" lon="-2.321484">
        <ele>459.165</ele>
        <time>2021-07-27T08:18:39Z</time>
      </trkpt>
      <trkpt lat="42.530641" lon="-2.321423">
        <ele>459.111</ele>
        <time>2021-07-27T08:18:44Z</time>
      </trkpt>
      <trkpt lat="42.530829" lon="-2.321320">
        <ele>460.608</ele>
        <time>2021-07-27T08:18:52Z</time>
      </trkpt>
      <trkpt lat="42.531136" lon="-2.321182">
        <ele>462.018</ele>
        <time>2021-07-27T08:19:03Z</time>
      </trkpt>
      <trkpt lat="42.531416" lon="-2.321074">
        <ele>462.520</ele>
        <time>2021-07-27T08:19:13Z</time>
      </trkpt>
      <trkpt lat="42.531667" lon="-2.320974">
        <ele>463.957</ele>
        <time>2021-07-27T08:19:23Z</time>
      </trkpt>
      <trkpt lat="42.531893" lon="-2.320960">
        <ele>465.987</ele>
        <time>2021-07-27T08:19:32Z</time>
      </trkpt>
      <trkpt lat="42.532147" lon="-2.320979">
        <ele>468.371</ele>
        <time>2021-07-27T08:19:42Z</time>
      </trkpt>
      <trkpt lat="42.532213" lon="-2.320976">
        <ele>468.349</ele>
        <time>2021-07-27T08:19:47Z</time>
      </trkpt>
      <trkpt lat="42.532414" lon="-2.320942">
        <ele>470.786</ele>
        <time>2021-07-27T08:19:58Z</time>
      </trkpt>
      <trkpt lat="42.532578" lon="-2.320908">
        <ele>471.644</ele>
        <time>2021-07-27T08:20:07Z</time>
      </trkpt>
      <trkpt lat="42.532698" lon="-2.320871">
        <ele>471.648</ele>
        <time>2021-07-27T08:20:14Z</time>
      </trkpt>
      <trkpt lat="42.532855" lon="-2.320784">
        <ele>473.161</ele>
        <time>2021-07-27T08:20:23Z</time>
      </trkpt>
      <trkpt lat="42.533024" lon="-2.320667">
        <ele>475.017</ele>
        <time>2021-07-27T08:20:33Z</time>
      </trkpt>
      <trkpt lat="42.533159" lon="-2.320531">
        <ele>475.908</ele>
        <time>2021-07-27T08:20:42Z</time>
      </trkpt>
      <trkpt lat="42.533302" lon="-2.320337">
        <ele>476.481</ele>
        <time>2021-07-27T08:20:52Z</time>
      </trkpt>
      <trkpt lat="42.533412" lon="-2.320149">
        <ele>477.483</ele>
        <time>2021-07-27T08:21:01Z</time>
      </trkpt>
      <trkpt lat="42.533537" lon="-2.319896">
        <ele>479.370</ele>
        <time>2021-07-27T08:21:12Z</time>
      </trkpt>
      <trkpt lat="42.533650" lon="-2.319662">
        <ele>480.370</ele>
        <time>2021-07-27T08:21:23Z</time>
      </trkpt>
      <trkpt lat="42.533762" lon="-2.319494">
        <ele>481.724</ele>
        <time>2021-07-27T08:21:32Z</time>
      </trkpt>
      <trkpt lat="42.533833" lon="-2.319383">
        <ele>482.292</ele>
        <time>2021-07-27T08:21:40Z</time>
      </trkpt>
      <trkpt lat="42.533998" lon="-2.319184">
        <ele>483.619</ele>
        <time>2021-07-27T08:21:50Z</time>
      </trkpt>
      <trkpt lat="42.534156" lon="-2.318999">
        <ele>485.137</ele>
        <time>2021-07-27T08:22:01Z</time>
      </trkpt>
      <trkpt lat="42.534294" lon="-2.318835">
        <ele>487.059</ele>
        <time>2021-07-27T08:22:11Z</time>
      </trkpt>
      <trkpt lat="42.534440" lon="-2.318655">
        <ele>489.403</ele>
        <time>2021-07-27T08:22:21Z</time>
      </trkpt>
      <trkpt lat="42.534541" lon="-2.318492">
        <ele>490.823</ele>
        <time>2021-07-27T08:22:29Z</time>
      </trkpt>
      <trkpt lat="42.534621" lon="-2.318271">
        <ele>492.808</ele>
        <time>2021-07-27T08:22:39Z</time>
      </trkpt>
      <trkpt lat="42.534666" lon="-2.318067">
        <ele>494.722</ele>
        <time>2021-07-27T08:22:47Z</time>
      </trkpt>
      <trkpt lat="42.534717" lon="-2.317833">
        <ele>496.684</ele>
        <time>2021-07-27T08:22:56Z</time>
      </trkpt>
      <trkpt lat="42.534759" lon="-2.317581">
        <ele>497.611</ele>
        <time>2021-07-27T08:23:06Z</time>
      </trkpt>
      <trkpt lat="42.534814" lon="-2.317289">
        <ele>498.541</ele>
        <time>2021-07-27T08:23:18Z</time>
      </trkpt>
      <trkpt lat="42.534829" lon="-2.317060">
        <ele>501.415</ele>
        <time>2021-07-27T08:23:27Z</time>
      </trkpt>
      <trkpt lat="42.534785" lon="-2.316840">
        <ele>502.943</ele>
        <time>2021-07-27T08:23:36Z</time>
      </trkpt>
      <trkpt lat="42.534700" lon="-2.316630">
        <ele>503.880</ele>
        <time>2021-07-27T08:23:46Z</time>
      </trkpt>
      <trkpt lat="42.534676" lon="-2.316599">
        <ele>503.398</ele>
        <time>2021-07-27T08:23:49Z</time>
      </trkpt>
      <trkpt lat="42.534671" lon="-2.316584">
        <ele>503.391</ele>
        <time>2021-07-27T08:23:50Z</time>
      </trkpt>
      <trkpt lat="42.534663" lon="-2.316569">
        <ele>503.381</ele>
        <time>2021-07-27T08:23:51Z</time>
      </trkpt>
      <trkpt lat="42.534569" lon="-2.316390">
        <ele>504.819</ele>
        <time>2021-07-27T08:24:01Z</time>
      </trkpt>
      <trkpt lat="42.534429" lon="-2.316151">
        <ele>505.708</ele>
        <time>2021-07-27T08:24:13Z</time>
      </trkpt>
      <trkpt lat="42.534305" lon="-2.315941">
        <ele>506.716</ele>
        <time>2021-07-27T08:24:23Z</time>
      </trkpt>
      <trkpt lat="42.534204" lon="-2.315753">
        <ele>508.128</ele>
        <time>2021-07-27T08:24:32Z</time>
      </trkpt>
      <trkpt lat="42.534119" lon="-2.315569">
        <ele>508.645</ele>
        <time>2021-07-27T08:24:41Z</time>
      </trkpt>
      <trkpt lat="42.534063" lon="-2.315363">
        <ele>508.665</ele>
        <time>2021-07-27T08:24:50Z</time>
      </trkpt>
      <trkpt lat="42.534021" lon="-2.315177">
        <ele>509.159</ele>
        <time>2021-07-27T08:24:58Z</time>
      </trkpt>
      <trkpt lat="42.533995" lon="-2.314958">
        <ele>510.667</ele>
        <time>2021-07-27T08:25:07Z</time>
      </trkpt>
      <trkpt lat="42.533972" lon="-2.314760">
        <ele>512.014</ele>
        <time>2021-07-27T08:25:16Z</time>
      </trkpt>
      <trkpt lat="42.533985" lon="-2.314617">
        <ele>512.552</ele>
        <time>2021-07-27T08:25:25Z</time>
      </trkpt>
      <trkpt lat="42.534055" lon="-2.314419">
        <ele>513.083</ele>
        <time>2021-07-27T08:25:34Z</time>
      </trkpt>
      <trkpt lat="42.534223" lon="-2.314344">
        <ele>514.425</ele>
        <time>2021-07-27T08:25:43Z</time>
      </trkpt>
      <trkpt lat="42.534401" lon="-2.314475">
        <ele>515.817</ele>
        <time>2021-07-27T08:25:52Z</time>
      </trkpt>
      <trkpt lat="42.534603" lon="-2.314690">
        <ele>515.808</ele>
        <time>2021-07-27T08:26:03Z</time>
      </trkpt>
      <trkpt lat="42.534724" lon="-2.314802">
        <ele>516.865</ele>
        <time>2021-07-27T08:26:11Z</time>
      </trkpt>
      <trkpt lat="42.534844" lon="-2.314899">
        <ele>516.867</ele>
        <time>2021-07-27T08:26:20Z</time>
      </trkpt>
      <trkpt lat="42.535073" lon="-2.314966">
        <ele>518.794</ele>
        <time>2021-07-27T08:26:32Z</time>
      </trkpt>
      <trkpt lat="42.535231" lon="-2.314947">
        <ele>520.264</ele>
        <time>2021-07-27T08:26:41Z</time>
      </trkpt>
      <trkpt lat="42.535398" lon="-2.314915">
        <ele>522.688</ele>
        <time>2021-07-27T08:26:50Z</time>
      </trkpt>
      <trkpt lat="42.535570" lon="-2.314865">
        <ele>525.586</ele>
        <time>2021-07-27T08:26:59Z</time>
      </trkpt>
      <trkpt lat="42.535763" lon="-2.314757">
        <ele>526.933</ele>
        <time>2021-07-27T08:27:10Z</time>
      </trkpt>
      <trkpt lat="42.535812" lon="-2.314589">
        <ele>528.351</ele>
        <time>2021-07-27T08:27:18Z</time>
      </trkpt>
      <trkpt lat="42.535794" lon="-2.314429">
        <ele>530.736</ele>
        <time>2021-07-27T08:27:27Z</time>
      </trkpt>
      <trkpt lat="42.535713" lon="-2.314273">
        <ele>532.217</ele>
        <time>2021-07-27T08:27:35Z</time>
      </trkpt>
      <trkpt lat="42.535626" lon="-2.314113">
        <ele>533.118</ele>
        <time>2021-07-27T08:27:43Z</time>
      </trkpt>
      <trkpt lat="42.535510" lon="-2.313895">
        <ele>534.608</ele>
        <time>2021-07-27T08:27:54Z</time>
      </trkpt>
      <trkpt lat="42.535414" lon="-2.313729">
        <ele>535.510</ele>
        <time>2021-07-27T08:28:02Z</time>
      </trkpt>
      <trkpt lat="42.535336" lon="-2.313563">
        <ele>537.512</ele>
        <time>2021-07-27T08:28:10Z</time>
      </trkpt>
      <trkpt lat="42.535242" lon="-2.313411">
        <ele>537.989</ele>
        <time>2021-07-27T08:28:18Z</time>
      </trkpt>
      <trkpt lat="42.535119" lon="-2.313191">
        <ele>538.919</ele>
        <time>2021-07-27T08:28:28Z</time>
      </trkpt>
      <trkpt lat="42.535015" lon="-2.312996">
        <ele>539.983</ele>
        <time>2021-07-27T08:28:37Z</time>
      </trkpt>
      <trkpt lat="42.534901" lon="-2.312775">
        <ele>540.891</ele>
        <time>2021-07-27T08:28:48Z</time>
      </trkpt>
      <trkpt lat="42.534820" lon="-2.312562">
        <ele>541.398</ele>
        <time>2021-07-27T08:28:57Z</time>
      </trkpt>
      <trkpt lat="42.534751" lon="-2.312321">
        <ele>543.266</ele>
        <time>2021-07-27T08:29:07Z</time>
      </trkpt>
      <trkpt lat="42.534724" lon="-2.312162">
        <ele>544.229</ele>
        <time>2021-07-27T08:29:14Z</time>
      </trkpt>
      <trkpt lat="42.534691" lon="-2.311962">
        <ele>544.700</ele>
        <time>2021-07-27T08:29:22Z</time>
      </trkpt>
      <trkpt lat="42.534698" lon="-2.311787">
        <ele>546.620</ele>
        <time>2021-07-27T08:29:29Z</time>
      </trkpt>
      <trkpt lat="42.534707" lon="-2.311660">
        <ele>548.008</ele>
        <time>2021-07-27T08:29:37Z</time>
      </trkpt>
      <trkpt lat="42.534724" lon="-2.311520">
        <ele>548.549</ele>
        <time>2021-07-27T08:29:47Z</time>
      </trkpt>
      <trkpt lat="42.534748" lon="-2.311385">
        <ele>548.571</ele>
        <time>2021-07-27T08:29:56Z</time>
      </trkpt>
      <trkpt lat="42.534759" lon="-2.311333">
        <ele>549.038</ele>
        <time>2021-07-27T08:29:59Z</time>
      </trkpt>
      <trkpt lat="42.534762" lon="-2.311312">
        <ele>549.028</ele>
        <time>2021-07-27T08:30:00Z</time>
      </trkpt>
      <trkpt lat="42.534790" lon="-2.311135">
        <ele>550.012</ele>
        <time>2021-07-27T08:30:09Z</time>
      </trkpt>
      <trkpt lat="42.534849" lon="-2.310909">
        <ele>550.940</ele>
        <time>2021-07-27T08:30:20Z</time>
      </trkpt>
      <trkpt lat="42.534911" lon="-2.310713">
        <ele>551.427</ele>
        <time>2021-07-27T08:30:29Z</time>
      </trkpt>
      <trkpt lat="42.534980" lon="-2.310503">
        <ele>552.415</ele>
        <time>2021-07-27T08:30:39Z</time>
      </trkpt>
      <trkpt lat="42.535045" lon="-2.310333">
        <ele>553.352</ele>
        <time>2021-07-27T08:30:47Z</time>
      </trkpt>
      <trkpt lat="42.535100" lon="-2.310150">
        <ele>554.353</ele>
        <time>2021-07-27T08:30:55Z</time>
      </trkpt>
      <trkpt lat="42.535200" lon="-2.309893">
        <ele>556.208</ele>
        <time>2021-07-27T08:31:07Z</time>
      </trkpt>
      <trkpt lat="42.535264" lon="-2.309717">
        <ele>557.208</ele>
        <time>2021-07-27T08:31:16Z</time>
      </trkpt>
      <trkpt lat="42.535287" lon="-2.309633">
        <ele>557.792</ele>
        <time>2021-07-27T08:31:24Z</time>
      </trkpt>
      <trkpt lat="42.535309" lon="-2.309474">
        <ele>558.174</ele>
        <time>2021-07-27T08:31:33Z</time>
      </trkpt>
      <trkpt lat="42.535399" lon="-2.309257">
        <ele>558.611</ele>
        <time>2021-07-27T08:31:42Z</time>
      </trkpt>
      <trkpt lat="42.535499" lon="-2.309025">
        <ele>559.111</ele>
        <time>2021-07-27T08:31:51Z</time>
      </trkpt>
      <trkpt lat="42.535603" lon="-2.308731">
        <ele>559.195</ele>
        <time>2021-07-27T08:32:02Z</time>
      </trkpt>
      <trkpt lat="42.535685" lon="-2.308476">
        <ele>560.153</ele>
        <time>2021-07-27T08:32:11Z</time>
      </trkpt>
      <trkpt lat="42.535767" lon="-2.308248">
        <ele>560.140</ele>
        <time>2021-07-27T08:32:19Z</time>
      </trkpt>
      <trkpt lat="42.535857" lon="-2.308035">
        <ele>560.198</ele>
        <time>2021-07-27T08:32:27Z</time>
      </trkpt>
      <trkpt lat="42.535963" lon="-2.307763">
        <ele>560.184</ele>
        <time>2021-07-27T08:32:36Z</time>
      </trkpt>
      <trkpt lat="42.536056" lon="-2.307476">
        <ele>560.107</ele>
        <time>2021-07-27T08:32:45Z</time>
      </trkpt>
      <trkpt lat="42.536160" lon="-2.307136">
        <ele>561.017</ele>
        <time>2021-07-27T08:32:55Z</time>
      </trkpt>
      <trkpt lat="42.536241" lon="-2.306772">
        <ele>561.508</ele>
        <time>2021-07-27T08:33:05Z</time>
      </trkpt>
      <trkpt lat="42.536276" lon="-2.306398">
        <ele>562.095</ele>
        <time>2021-07-27T08:33:15Z</time>
      </trkpt>
      <trkpt lat="42.536293" lon="-2.306027">
        <ele>563.937</ele>
        <time>2021-07-27T08:33:25Z</time>
      </trkpt>
      <trkpt lat="42.536307" lon="-2.305769">
        <ele>564.934</ele>
        <time>2021-07-27T08:33:32Z</time>
      </trkpt>
      <trkpt lat="42.536320" lon="-2.305439">
        <ele>566.364</ele>
        <time>2021-07-27T08:33:41Z</time>
      </trkpt>
      <trkpt lat="42.536334" lon="-2.305072">
        <ele>567.348</ele>
        <time>2021-07-27T08:33:51Z</time>
      </trkpt>
      <trkpt lat="42.536355" lon="-2.304715">
        <ele>568.766</ele>
        <time>2021-07-27T08:34:01Z</time>
      </trkpt>
      <trkpt lat="42.536374" lon="-2.304425">
        <ele>569.263</ele>
        <time>2021-07-27T08:34:09Z</time>
      </trkpt>
      <trkpt lat="42.536395" lon="-2.304073">
        <ele>569.211</ele>
        <time>2021-07-27T08:34:18Z</time>
      </trkpt>
      <trkpt lat="42.536535" lon="-2.303694">
        <ele>567.841</ele>
        <time>2021-07-27T08:34:27Z</time>
      </trkpt>
      <trkpt lat="42.536562" lon="-2.303647">
        <ele>567.381</ele>
        <time>2021-07-27T08:34:28Z</time>
      </trkpt>
      <trkpt lat="42.536592" lon="-2.303605">
        <ele>567.309</ele>
        <time>2021-07-27T08:34:29Z</time>
      </trkpt>
      <trkpt lat="42.536628" lon="-2.303565">
        <ele>566.808</ele>
        <time>2021-07-27T08:34:30Z</time>
      </trkpt>
      <trkpt lat="42.536759" lon="-2.303459">
        <ele>565.851</ele>
        <time>2021-07-27T08:34:33Z</time>
      </trkpt>
      <trkpt lat="42.537189" lon="-2.303242">
        <ele>563.493</ele>
        <time>2021-07-27T08:34:40Z</time>
      </trkpt>
      <trkpt lat="42.537257" lon="-2.303195">
        <ele>562.970</ele>
        <time>2021-07-27T08:34:41Z</time>
      </trkpt>
      <trkpt lat="42.537304" lon="-2.303153">
        <ele>562.920</ele>
        <time>2021-07-27T08:34:42Z</time>
      </trkpt>
      <trkpt lat="42.537363" lon="-2.303089">
        <ele>562.594</ele>
        <time>2021-07-27T08:34:43Z</time>
      </trkpt>
      <trkpt lat="42.537417" lon="-2.303021">
        <ele>562.512</ele>
        <time>2021-07-27T08:34:44Z</time>
      </trkpt>
      <trkpt lat="42.537466" lon="-2.302943">
        <ele>562.049</ele>
        <time>2021-07-27T08:34:45Z</time>
      </trkpt>
      <trkpt lat="42.537509" lon="-2.302852">
        <ele>561.557</ele>
        <time>2021-07-27T08:34:46Z</time>
      </trkpt>
      <trkpt lat="42.537543" lon="-2.302760">
        <ele>561.062</ele>
        <time>2021-07-27T08:34:47Z</time>
      </trkpt>
      <trkpt lat="42.537572" lon="-2.302668">
        <ele>561.083</ele>
        <time>2021-07-27T08:34:48Z</time>
      </trkpt>
      <trkpt lat="42.537764" lon="-2.302021">
        <ele>559.111</ele>
        <time>2021-07-27T08:34:55Z</time>
      </trkpt>
      <trkpt lat="42.537805" lon="-2.301935">
        <ele>558.608</ele>
        <time>2021-07-27T08:34:56Z</time>
      </trkpt>
      <trkpt lat="42.537853" lon="-2.301857">
        <ele>558.143</ele>
        <time>2021-07-27T08:34:57Z</time>
      </trkpt>
      <trkpt lat="42.537909" lon="-2.301784">
        <ele>557.765</ele>
        <time>2021-07-27T08:34:58Z</time>
      </trkpt>
      <trkpt lat="42.537977" lon="-2.301709">
        <ele>557.252</ele>
        <time>2021-07-27T08:34:59Z</time>
      </trkpt>
      <trkpt lat="42.538043" lon="-2.301646">
        <ele>556.282</ele>
        <time>2021-07-27T08:35:00Z</time>
      </trkpt>
      <trkpt lat="42.538114" lon="-2.301593">
        <ele>555.776</ele>
        <time>2021-07-27T08:35:01Z</time>
      </trkpt>
      <trkpt lat="42.538199" lon="-2.301543">
        <ele>555.354</ele>
        <time>2021-07-27T08:35:02Z</time>
      </trkpt>
      <trkpt lat="42.538287" lon="-2.301508">
        <ele>554.871</ele>
        <time>2021-07-27T08:35:03Z</time>
      </trkpt>
      <trkpt lat="42.538379" lon="-2.301486">
        <ele>553.819</ele>
        <time>2021-07-27T08:35:04Z</time>
      </trkpt>
      <trkpt lat="42.538483" lon="-2.301477">
        <ele>552.949</ele>
        <time>2021-07-27T08:35:05Z</time>
      </trkpt>
      <trkpt lat="42.538581" lon="-2.301488">
        <ele>552.402</ele>
        <time>2021-07-27T08:35:06Z</time>
      </trkpt>
      <trkpt lat="42.538691" lon="-2.301518">
        <ele>551.422</ele>
        <time>2021-07-27T08:35:07Z</time>
      </trkpt>
      <trkpt lat="42.538792" lon="-2.301563">
        <ele>550.408</ele>
        <time>2021-07-27T08:35:08Z</time>
      </trkpt>
      <trkpt lat="42.538890" lon="-2.301627">
        <ele>549.541</ele>
        <time>2021-07-27T08:35:09Z</time>
      </trkpt>
      <trkpt lat="42.538991" lon="-2.301719">
        <ele>548.533</ele>
        <time>2021-07-27T08:35:10Z</time>
      </trkpt>
      <trkpt lat="42.539081" lon="-2.301819">
        <ele>547.690</ele>
        <time>2021-07-27T08:35:11Z</time>
      </trkpt>
      <trkpt lat="42.539174" lon="-2.301932">
        <ele>546.660</ele>
        <time>2021-07-27T08:35:12Z</time>
      </trkpt>
      <trkpt lat="42.539457" lon="-2.302222">
        <ele>543.294</ele>
        <time>2021-07-27T08:35:15Z</time>
      </trkpt>
      <trkpt lat="42.539565" lon="-2.302281">
        <ele>542.312</ele>
        <time>2021-07-27T08:35:16Z</time>
      </trkpt>
      <trkpt lat="42.539687" lon="-2.302320">
        <ele>541.359</ele>
        <time>2021-07-27T08:35:17Z</time>
      </trkpt>
      <trkpt lat="42.539811" lon="-2.302340">
        <ele>540.867</ele>
        <time>2021-07-27T08:35:18Z</time>
      </trkpt>
      <trkpt lat="42.539923" lon="-2.302350">
        <ele>539.975</ele>
        <time>2021-07-27T08:35:19Z</time>
      </trkpt>
      <trkpt lat="42.540040" lon="-2.302345">
        <ele>538.928</ele>
        <time>2021-07-27T08:35:20Z</time>
      </trkpt>
      <trkpt lat="42.540148" lon="-2.302306">
        <ele>538.420</ele>
        <time>2021-07-27T08:35:21Z</time>
      </trkpt>
      <trkpt lat="42.540221" lon="-2.302237">
        <ele>537.908</ele>
        <time>2021-07-27T08:35:22Z</time>
      </trkpt>
      <trkpt lat="42.540273" lon="-2.302139">
        <ele>537.924</ele>
        <time>2021-07-27T08:35:23Z</time>
      </trkpt>
      <trkpt lat="42.540302" lon="-2.302029">
        <ele>537.946</ele>
        <time>2021-07-27T08:35:24Z</time>
      </trkpt>
      <trkpt lat="42.540307" lon="-2.301913">
        <ele>537.953</ele>
        <time>2021-07-27T08:35:25Z</time>
      </trkpt>
      <trkpt lat="42.540300" lon="-2.301819">
        <ele>538.433</ele>
        <time>2021-07-27T08:35:26Z</time>
      </trkpt>
      <trkpt lat="42.540287" lon="-2.301730">
        <ele>538.947</ele>
        <time>2021-07-27T08:35:27Z</time>
      </trkpt>
      <trkpt lat="42.540271" lon="-2.301652">
        <ele>539.415</ele>
        <time>2021-07-27T08:35:28Z</time>
      </trkpt>
      <trkpt lat="42.540256" lon="-2.301579">
        <ele>539.962</ele>
        <time>2021-07-27T08:35:29Z</time>
      </trkpt>
      <trkpt lat="42.540216" lon="-2.301366">
        <ele>541.390</ele>
        <time>2021-07-27T08:35:34Z</time>
      </trkpt>
      <trkpt lat="42.540182" lon="-2.301177">
        <ele>543.213</ele>
        <time>2021-07-27T08:35:40Z</time>
      </trkpt>
      <trkpt lat="42.540136" lon="-2.300938">
        <ele>544.243</ele>
        <time>2021-07-27T08:35:48Z</time>
      </trkpt>
      <trkpt lat="42.540100" lon="-2.300693">
        <ele>546.107</ele>
        <time>2021-07-27T08:35:57Z</time>
      </trkpt>
      <trkpt lat="42.540083" lon="-2.300421">
        <ele>549.508</ele>
        <time>2021-07-27T08:36:07Z</time>
      </trkpt>
      <trkpt lat="42.540142" lon="-2.300180">
        <ele>550.468</ele>
        <time>2021-07-27T08:36:16Z</time>
      </trkpt>
      <trkpt lat="42.540260" lon="-2.300027">
        <ele>549.540</ele>
        <time>2021-07-27T08:36:24Z</time>
      </trkpt>
      <trkpt lat="42.540443" lon="-2.299943">
        <ele>548.027</ele>
        <time>2021-07-27T08:36:32Z</time>
      </trkpt>
      <trkpt lat="42.540689" lon="-2.299938">
        <ele>547.687</ele>
        <time>2021-07-27T08:36:40Z</time>
      </trkpt>
      <trkpt lat="42.541038" lon="-2.299988">
        <ele>545.631</ele>
        <time>2021-07-27T08:36:47Z</time>
      </trkpt>
      <trkpt lat="42.541511" lon="-2.300049">
        <ele>542.849</ele>
        <time>2021-07-27T08:36:54Z</time>
      </trkpt>
      <trkpt lat="42.542091" lon="-2.300073">
        <ele>540.456</ele>
        <time>2021-07-27T08:37:01Z</time>
      </trkpt>
      <trkpt lat="42.542178" lon="-2.300058">
        <ele>540.494</ele>
        <time>2021-07-27T08:37:02Z</time>
      </trkpt>
      <trkpt lat="42.542255" lon="-2.300030">
        <ele>540.439</ele>
        <time>2021-07-27T08:37:03Z</time>
      </trkpt>
      <trkpt lat="42.542320" lon="-2.299986">
        <ele>540.801</ele>
        <time>2021-07-27T08:37:04Z</time>
      </trkpt>
      <trkpt lat="42.542380" lon="-2.299921">
        <ele>541.321</ele>
        <time>2021-07-27T08:37:05Z</time>
      </trkpt>
      <trkpt lat="42.542415" lon="-2.299863">
        <ele>541.308</ele>
        <time>2021-07-27T08:37:06Z</time>
      </trkpt>
      <trkpt lat="42.542444" lon="-2.299789">
        <ele>541.820</ele>
        <time>2021-07-27T08:37:07Z</time>
      </trkpt>
      <trkpt lat="42.542460" lon="-2.299726">
        <ele>541.842</ele>
        <time>2021-07-27T08:37:08Z</time>
      </trkpt>
      <trkpt lat="42.542470" lon="-2.299664">
        <ele>542.319</ele>
        <time>2021-07-27T08:37:09Z</time>
      </trkpt>
      <trkpt lat="42.542474" lon="-2.299604">
        <ele>543.219</ele>
        <time>2021-07-27T08:37:10Z</time>
      </trkpt>
      <trkpt lat="42.542472" lon="-2.299554">
        <ele>543.723</ele>
        <time>2021-07-27T08:37:11Z</time>
      </trkpt>
      <trkpt lat="42.542467" lon="-2.299519">
        <ele>544.731</ele>
        <time>2021-07-27T08:37:12Z</time>
      </trkpt>
      <trkpt lat="42.542461" lon="-2.299490">
        <ele>545.298</ele>
        <time>2021-07-27T08:37:13Z</time>
      </trkpt>
      <trkpt lat="42.542390" lon="-2.299308">
        <ele>547.176</ele>
        <time>2021-07-27T08:37:21Z</time>
      </trkpt>
      <trkpt lat="42.542285" lon="-2.299131">
        <ele>547.667</ele>
        <time>2021-07-27T08:37:29Z</time>
      </trkpt>
      <trkpt lat="42.542170" lon="-2.298922">
        <ele>548.581</ele>
        <time>2021-07-27T08:37:39Z</time>
      </trkpt>
      <trkpt lat="42.542062" lon="-2.298713">
        <ele>550.419</ele>
        <time>2021-07-27T08:37:49Z</time>
      </trkpt>
      <trkpt lat="42.541972" lon="-2.298572">
        <ele>551.908</ele>
        <time>2021-07-27T08:37:57Z</time>
      </trkpt>
      <trkpt lat="42.541930" lon="-2.298502">
        <ele>552.473</ele>
        <time>2021-07-27T08:38:03Z</time>
      </trkpt>
      <trkpt lat="42.541827" lon="-2.298381">
        <ele>553.885</ele>
        <time>2021-07-27T08:38:11Z</time>
      </trkpt>
      <trkpt lat="42.541742" lon="-2.298244">
        <ele>555.312</ele>
        <time>2021-07-27T08:38:19Z</time>
      </trkpt>
      <trkpt lat="42.541651" lon="-2.298040">
        <ele>557.242</ele>
        <time>2021-07-27T08:38:29Z</time>
      </trkpt>
      <trkpt lat="42.541604" lon="-2.297893">
        <ele>558.136</ele>
        <time>2021-07-27T08:38:36Z</time>
      </trkpt>
      <trkpt lat="42.541575" lon="-2.297738">
        <ele>559.674</ele>
        <time>2021-07-27T08:38:43Z</time>
      </trkpt>
      <trkpt lat="42.541556" lon="-2.297561">
        <ele>561.541</ele>
        <time>2021-07-27T08:38:51Z</time>
      </trkpt>
      <trkpt lat="42.541575" lon="-2.297384">
        <ele>562.599</ele>
        <time>2021-07-27T08:38:59Z</time>
      </trkpt>
      <trkpt lat="42.541603" lon="-2.297192">
        <ele>563.982</ele>
        <time>2021-07-27T08:39:07Z</time>
      </trkpt>
      <trkpt lat="42.541660" lon="-2.296995">
        <ele>563.443</ele>
        <time>2021-07-27T08:39:16Z</time>
      </trkpt>
      <trkpt lat="42.541688" lon="-2.296942">
        <ele>562.917</ele>
        <time>2021-07-27T08:39:20Z</time>
      </trkpt>
      <trkpt lat="42.541692" lon="-2.296943">
        <ele>562.008</ele>
        <time>2021-07-27T08:39:26Z</time>
      </trkpt>
      <trkpt lat="42.541699" lon="-2.296942">
        <ele>562.045</ele>
        <time>2021-07-27T08:39:27Z</time>
      </trkpt>
      <trkpt lat="42.541732" lon="-2.296940">
        <ele>561.547</ele>
        <time>2021-07-27T08:39:29Z</time>
      </trkpt>
      <trkpt lat="42.541800" lon="-2.296953">
        <ele>561.014</ele>
        <time>2021-07-27T08:39:34Z</time>
      </trkpt>
      <trkpt lat="42.541802" lon="-2.296954">
        <ele>561.094</ele>
        <time>2021-07-27T08:39:43Z</time>
      </trkpt>
      <trkpt lat="42.541802" lon="-2.296950">
        <ele>562.588</ele>
        <time>2021-07-27T08:40:00Z</time>
      </trkpt>
      <trkpt lat="42.541795" lon="-2.296964">
        <ele>562.586</ele>
        <time>2021-07-27T08:40:17Z</time>
      </trkpt>
      <trkpt lat="42.541790" lon="-2.296952">
        <ele>563.933</ele>
        <time>2021-07-27T08:40:31Z</time>
      </trkpt>
      <trkpt lat="42.541785" lon="-2.296942">
        <ele>562.941</ele>
        <time>2021-07-27T08:40:47Z</time>
      </trkpt>
      <trkpt lat="42.541792" lon="-2.296935">
        <ele>563.457</ele>
        <time>2021-07-27T08:41:00Z</time>
      </trkpt>
      <trkpt lat="42.541787" lon="-2.296932">
        <ele>563.400</ele>
        <time>2021-07-27T08:41:15Z</time>
      </trkpt>
      <trkpt lat="42.541781" lon="-2.296938">
        <ele>563.920</ele>
        <time>2021-07-27T08:41:31Z</time>
      </trkpt>
      <trkpt lat="42.541785" lon="-2.296942">
        <ele>563.908</ele>
        <time>2021-07-27T08:41:43Z</time>
      </trkpt>
      <trkpt lat="42.541791" lon="-2.296947">
        <ele>563.972</ele>
        <time>2021-07-27T08:41:57Z</time>
      </trkpt>
      <trkpt lat="42.541796" lon="-2.296963">
        <ele>563.914</ele>
        <time>2021-07-27T08:42:12Z</time>
      </trkpt>
      <trkpt lat="42.541791" lon="-2.296958">
        <ele>565.351</ele>
        <time>2021-07-27T08:42:24Z</time>
      </trkpt>
      <trkpt lat="42.541798" lon="-2.296946">
        <ele>565.871</ele>
        <time>2021-07-27T08:42:40Z</time>
      </trkpt>
      <trkpt lat="42.541800" lon="-2.296940">
        <ele>566.335</ele>
        <time>2021-07-27T08:42:53Z</time>
      </trkpt>
      <trkpt lat="42.541796" lon="-2.296934">
        <ele>566.893</ele>
        <time>2021-07-27T08:43:10Z</time>
      </trkpt>
      <trkpt lat="42.541791" lon="-2.296931">
        <ele>567.840</ele>
        <time>2021-07-27T08:43:20Z</time>
      </trkpt>
      <trkpt lat="42.541790" lon="-2.296930">
        <ele>567.888</ele>
        <time>2021-07-27T08:43:34Z</time>
      </trkpt>
      <trkpt lat="42.541787" lon="-2.296937">
        <ele>566.857</ele>
        <time>2021-07-27T08:43:49Z</time>
      </trkpt>
      <trkpt lat="42.541788" lon="-2.296948">
        <ele>566.300</ele>
        <time>2021-07-27T08:44:04Z</time>
      </trkpt>
      <trkpt lat="42.541787" lon="-2.296922">
        <ele>566.820</ele>
        <time>2021-07-27T08:44:25Z</time>
      </trkpt>
      <trkpt lat="42.541795" lon="-2.296917">
        <ele>568.708</ele>
        <time>2021-07-27T08:44:39Z</time>
      </trkpt>
      <trkpt lat="42.541801" lon="-2.296932">
        <ele>569.792</ele>
        <time>2021-07-27T08:44:57Z</time>
      </trkpt>
      <trkpt lat="42.541798" lon="-2.296935">
        <ele>569.744</ele>
        <time>2021-07-27T08:45:14Z</time>
      </trkpt>
      <trkpt lat="42.541797" lon="-2.296937">
        <ele>569.261</ele>
        <time>2021-07-27T08:45:28Z</time>
      </trkpt>
      <trkpt lat="42.541790" lon="-2.296924">
        <ele>570.261</ele>
        <time>2021-07-27T08:45:46Z</time>
      </trkpt>
      <trkpt lat="42.541789" lon="-2.296925">
        <ele>571.665</ele>
        <time>2021-07-27T08:46:01Z</time>
      </trkpt>
      <trkpt lat="42.541780" lon="-2.296936">
        <ele>572.123</ele>
        <time>2021-07-27T08:46:21Z</time>
      </trkpt>
      <trkpt lat="42.541782" lon="-2.296933">
        <ele>571.660</ele>
        <time>2021-07-27T08:46:37Z</time>
      </trkpt>
      <trkpt lat="42.541784" lon="-2.296933">
        <ele>570.658</ele>
        <time>2021-07-27T08:46:52Z</time>
      </trkpt>
      <trkpt lat="42.541786" lon="-2.296943">
        <ele>569.799</ele>
        <time>2021-07-27T08:47:10Z</time>
      </trkpt>
      <trkpt lat="42.541784" lon="-2.296946">
        <ele>569.707</ele>
        <time>2021-07-27T08:47:27Z</time>
      </trkpt>
      <trkpt lat="42.541775" lon="-2.296941">
        <ele>568.727</ele>
        <time>2021-07-27T08:47:47Z</time>
      </trkpt>
      <trkpt lat="42.541779" lon="-2.296942">
        <ele>567.808</ele>
        <time>2021-07-27T08:48:05Z</time>
      </trkpt>
      <trkpt lat="42.541779" lon="-2.296949">
        <ele>566.326</ele>
        <time>2021-07-27T08:48:26Z</time>
      </trkpt>
      <trkpt lat="42.541778" lon="-2.296952">
        <ele>564.988</ele>
        <time>2021-07-27T08:48:43Z</time>
      </trkpt>
      <trkpt lat="42.541783" lon="-2.296945">
        <ele>563.475</ele>
        <time>2021-07-27T08:49:02Z</time>
      </trkpt>
      <trkpt lat="42.541785" lon="-2.296947">
        <ele>563.985</ele>
        <time>2021-07-27T08:49:22Z</time>
      </trkpt>
      <trkpt lat="42.541780" lon="-2.296960">
        <ele>565.359</ele>
        <time>2021-07-27T08:49:40Z</time>
      </trkpt>
      <trkpt lat="42.541791" lon="-2.296964">
        <ele>564.967</ele>
        <time>2021-07-27T08:49:56Z</time>
      </trkpt>
      <trkpt lat="42.541793" lon="-2.296954">
        <ele>563.974</ele>
        <time>2021-07-27T08:50:14Z</time>
      </trkpt>
      <trkpt lat="42.541798" lon="-2.296952">
        <ele>563.432</ele>
        <time>2021-07-27T08:50:28Z</time>
      </trkpt>
      <trkpt lat="42.541802" lon="-2.296944">
        <ele>563.914</ele>
        <time>2021-07-27T08:50:47Z</time>
      </trkpt>
      <trkpt lat="42.541793" lon="-2.296956">
        <ele>564.454</ele>
        <time>2021-07-27T08:51:07Z</time>
      </trkpt>
      <trkpt lat="42.541792" lon="-2.296956">
        <ele>564.909</ele>
        <time>2021-07-27T08:51:26Z</time>
      </trkpt>
      <trkpt lat="42.541790" lon="-2.296954">
        <ele>564.908</ele>
        <time>2021-07-27T08:51:45Z</time>
      </trkpt>
      <trkpt lat="42.541795" lon="-2.296965">
        <ele>565.898</ele>
        <time>2021-07-27T08:52:02Z</time>
      </trkpt>
      <trkpt lat="42.541792" lon="-2.296950">
        <ele>566.310</ele>
        <time>2021-07-27T08:52:20Z</time>
      </trkpt>
      <trkpt lat="42.541790" lon="-2.296946">
        <ele>566.377</ele>
        <time>2021-07-27T08:52:36Z</time>
      </trkpt>
      <trkpt lat="42.541783" lon="-2.296947">
        <ele>566.397</ele>
        <time>2021-07-27T08:52:49Z</time>
      </trkpt>
      <trkpt lat="42.541783" lon="-2.296951">
        <ele>566.331</ele>
        <time>2021-07-27T08:53:04Z</time>
      </trkpt>
      <trkpt lat="42.541783" lon="-2.296947">
        <ele>565.369</ele>
        <time>2021-07-27T08:53:18Z</time>
      </trkpt>
      <trkpt lat="42.541780" lon="-2.296951">
        <ele>563.996</ele>
        <time>2021-07-27T08:53:35Z</time>
      </trkpt>
      <trkpt lat="42.541778" lon="-2.296966">
        <ele>563.994</ele>
        <time>2021-07-27T08:53:52Z</time>
      </trkpt>
      <trkpt lat="42.541782" lon="-2.296960">
        <ele>564.425</ele>
        <time>2021-07-27T08:54:10Z</time>
      </trkpt>
      <trkpt lat="42.541783" lon="-2.296954">
        <ele>563.926</ele>
        <time>2021-07-27T08:54:33Z</time>
      </trkpt>
      <trkpt lat="42.541786" lon="-2.296953">
        <ele>564.908</ele>
        <time>2021-07-27T08:54:53Z</time>
      </trkpt>
      <trkpt lat="42.541794" lon="-2.296948">
        <ele>565.808</ele>
        <time>2021-07-27T08:55:15Z</time>
      </trkpt>
      <trkpt lat="42.541775" lon="-2.296956">
        <ele>566.849</ele>
        <time>2021-07-27T08:55:40Z</time>
      </trkpt>
      <trkpt lat="42.541770" lon="-2.296955">
        <ele>566.851</ele>
        <time>2021-07-27T08:56:05Z</time>
      </trkpt>
      <trkpt lat="42.541773" lon="-2.296952">
        <ele>566.358</ele>
        <time>2021-07-27T08:56:21Z</time>
      </trkpt>
      <trkpt lat="42.541776" lon="-2.296957">
        <ele>566.898</ele>
        <time>2021-07-27T08:56:44Z</time>
      </trkpt>
      <trkpt lat="42.541772" lon="-2.296935">
        <ele>566.392</ele>
        <time>2021-07-27T08:57:00Z</time>
      </trkpt>
      <trkpt lat="42.541768" lon="-2.296939">
        <ele>567.330</ele>
        <time>2021-07-27T08:57:19Z</time>
      </trkpt>
      <trkpt lat="42.541778" lon="-2.296941">
        <ele>566.847</ele>
        <time>2021-07-27T08:57:36Z</time>
      </trkpt>
      <trkpt lat="42.541775" lon="-2.296947">
        <ele>567.365</ele>
        <time>2021-07-27T08:57:56Z</time>
      </trkpt>
      <trkpt lat="42.541771" lon="-2.296952">
        <ele>567.349</ele>
        <time>2021-07-27T08:58:12Z</time>
      </trkpt>
      <trkpt lat="42.541786" lon="-2.296951">
        <ele>567.802</ele>
        <time>2021-07-27T08:58:30Z</time>
      </trkpt>
      <trkpt lat="42.541787" lon="-2.296946">
        <ele>568.222</ele>
        <time>2021-07-27T08:58:53Z</time>
      </trkpt>
      <trkpt lat="42.541784" lon="-2.296951">
        <ele>569.708</ele>
        <time>2021-07-27T08:59:10Z</time>
      </trkpt>
      <trkpt lat="42.541784" lon="-2.296945">
        <ele>569.741</ele>
        <time>2021-07-27T08:59:32Z</time>
      </trkpt>
      <trkpt lat="42.541778" lon="-2.296951">
        <ele>567.813</ele>
        <time>2021-07-27T08:59:45Z</time>
      </trkpt>
      <trkpt lat="42.541774" lon="-2.296957">
        <ele>567.890</ele>
        <time>2021-07-27T09:00:01Z</time>
      </trkpt>
      <trkpt lat="42.541774" lon="-2.296961">
        <ele>568.250</ele>
        <time>2021-07-27T09:00:20Z</time>
      </trkpt>
      <trkpt lat="42.541763" lon="-2.296966">
        <ele>569.284</ele>
        <time>2021-07-27T09:00:34Z</time>
      </trkpt>
      <trkpt lat="42.541778" lon="-2.296955">
        <ele>570.252</ele>
        <time>2021-07-27T09:00:53Z</time>
      </trkpt>
      <trkpt lat="42.541782" lon="-2.296951">
        <ele>568.759</ele>
        <time>2021-07-27T09:01:14Z</time>
      </trkpt>
      <trkpt lat="42.541776" lon="-2.296944">
        <ele>569.297</ele>
        <time>2021-07-27T09:01:36Z</time>
      </trkpt>
      <trkpt lat="42.541757" lon="-2.296902">
        <ele>568.287</ele>
        <time>2021-07-27T09:01:42Z</time>
      </trkpt>
      <trkpt lat="42.541751" lon="-2.296890">
        <ele>567.842</ele>
        <time>2021-07-27T09:01:43Z</time>
      </trkpt>
      <trkpt lat="42.541748" lon="-2.296827">
        <ele>566.326</ele>
        <time>2021-07-27T09:01:47Z</time>
      </trkpt>
      <trkpt lat="42.541757" lon="-2.296791">
        <ele>565.308</ele>
        <time>2021-07-27T09:01:54Z</time>
      </trkpt>
      <trkpt lat="42.541789" lon="-2.296728">
        <ele>564.415</ele>
        <time>2021-07-27T09:02:03Z</time>
      </trkpt>
      <trkpt lat="42.541915" lon="-2.296485">
        <ele>562.567</ele>
        <time>2021-07-27T09:02:11Z</time>
      </trkpt>
      <trkpt lat="42.542102" lon="-2.296092">
        <ele>559.644</ele>
        <time>2021-07-27T09:02:19Z</time>
      </trkpt>
      <trkpt lat="42.542366" lon="-2.295536">
        <ele>557.274</ele>
        <time>2021-07-27T09:02:28Z</time>
      </trkpt>
      <trkpt lat="42.542649" lon="-2.294952">
        <ele>555.358</ele>
        <time>2021-07-27T09:02:37Z</time>
      </trkpt>
      <trkpt lat="42.542921" lon="-2.294365">
        <ele>553.396</ele>
        <time>2021-07-27T09:02:46Z</time>
      </trkpt>
      <trkpt lat="42.543127" lon="-2.293930">
        <ele>553.813</ele>
        <time>2021-07-27T09:02:54Z</time>
      </trkpt>
      <trkpt lat="42.543365" lon="-2.293443">
        <ele>553.351</ele>
        <time>2021-07-27T09:03:05Z</time>
      </trkpt>
      <trkpt lat="42.543590" lon="-2.293035">
        <ele>550.972</ele>
        <time>2021-07-27T09:03:13Z</time>
      </trkpt>
      <trkpt lat="42.543859" lon="-2.292540">
        <ele>547.113</ele>
        <time>2021-07-27T09:03:20Z</time>
      </trkpt>
      <trkpt lat="42.544249" lon="-2.291813">
        <ele>541.814</ele>
        <time>2021-07-27T09:03:28Z</time>
      </trkpt>
      <trkpt lat="42.544337" lon="-2.291586">
        <ele>540.808</ele>
        <time>2021-07-27T09:03:30Z</time>
      </trkpt>
      <trkpt lat="42.544366" lon="-2.291458">
        <ele>540.414</ele>
        <time>2021-07-27T09:03:31Z</time>
      </trkpt>
      <trkpt lat="42.544385" lon="-2.291332">
        <ele>539.976</ele>
        <time>2021-07-27T09:03:32Z</time>
      </trkpt>
      <trkpt lat="42.544532" lon="-2.290259">
        <ele>535.543</ele>
        <time>2021-07-27T09:03:40Z</time>
      </trkpt>
      <trkpt lat="42.544649" lon="-2.289317">
        <ele>531.723</ele>
        <time>2021-07-27T09:03:47Z</time>
      </trkpt>
      <trkpt lat="42.544739" lon="-2.288471">
        <ele>527.997</ele>
        <time>2021-07-27T09:03:53Z</time>
      </trkpt>
      <trkpt lat="42.544764" lon="-2.288364">
        <ele>527.495</ele>
        <time>2021-07-27T09:03:54Z</time>
      </trkpt>
      <trkpt lat="42.544805" lon="-2.288287">
        <ele>526.992</ele>
        <time>2021-07-27T09:03:55Z</time>
      </trkpt>
      <trkpt lat="42.544877" lon="-2.288230">
        <ele>526.410</ele>
        <time>2021-07-27T09:03:56Z</time>
      </trkpt>
      <trkpt lat="42.544932" lon="-2.288221">
        <ele>525.976</ele>
        <time>2021-07-27T09:03:57Z</time>
      </trkpt>
      <trkpt lat="42.545006" lon="-2.288238">
        <ele>525.590</ele>
        <time>2021-07-27T09:03:58Z</time>
      </trkpt>
      <trkpt lat="42.545081" lon="-2.288286">
        <ele>524.519</ele>
        <time>2021-07-27T09:03:59Z</time>
      </trkpt>
      <trkpt lat="42.545149" lon="-2.288352">
        <ele>524.008</ele>
        <time>2021-07-27T09:04:00Z</time>
      </trkpt>
      <trkpt lat="42.545215" lon="-2.288428">
        <ele>523.514</ele>
        <time>2021-07-27T09:04:01Z</time>
      </trkpt>
      <trkpt lat="42.545674" lon="-2.288968">
        <ele>519.276</ele>
        <time>2021-07-27T09:04:07Z</time>
      </trkpt>
      <trkpt lat="42.546350" lon="-2.289713">
        <ele>514.453</ele>
        <time>2021-07-27T09:04:15Z</time>
      </trkpt>
      <trkpt lat="42.546925" lon="-2.290346">
        <ele>509.613</ele>
        <time>2021-07-27T09:04:22Z</time>
      </trkpt>
      <trkpt lat="42.547276" lon="-2.290692">
        <ele>506.767</ele>
        <time>2021-07-27T09:04:26Z</time>
      </trkpt>
      <trkpt lat="42.547372" lon="-2.290724">
        <ele>506.275</ele>
        <time>2021-07-27T09:04:27Z</time>
      </trkpt>
      <trkpt lat="42.547466" lon="-2.290717">
        <ele>505.752</ele>
        <time>2021-07-27T09:04:28Z</time>
      </trkpt>
      <trkpt lat="42.547558" lon="-2.290670">
        <ele>505.310</ele>
        <time>2021-07-27T09:04:29Z</time>
      </trkpt>
      <trkpt lat="42.547630" lon="-2.290595">
        <ele>505.328</ele>
        <time>2021-07-27T09:04:30Z</time>
      </trkpt>
      <trkpt lat="42.547685" lon="-2.290496">
        <ele>504.889</ele>
        <time>2021-07-27T09:04:31Z</time>
      </trkpt>
      <trkpt lat="42.547714" lon="-2.290389">
        <ele>504.817</ele>
        <time>2021-07-27T09:04:32Z</time>
      </trkpt>
      <trkpt lat="42.547720" lon="-2.290282">
        <ele>505.308</ele>
        <time>2021-07-27T09:04:33Z</time>
      </trkpt>
      <trkpt lat="42.547718" lon="-2.290172">
        <ele>505.389</ele>
        <time>2021-07-27T09:04:34Z</time>
      </trkpt>
      <trkpt lat="42.547709" lon="-2.289657">
        <ele>506.281</ele>
        <time>2021-07-27T09:04:40Z</time>
      </trkpt>
      <trkpt lat="42.547772" lon="-2.289158">
        <ele>506.228</ele>
        <time>2021-07-27T09:04:47Z</time>
      </trkpt>
      <trkpt lat="42.547795" lon="-2.289094">
        <ele>505.798</ele>
        <time>2021-07-27T09:04:48Z</time>
      </trkpt>
      <trkpt lat="42.547824" lon="-2.289024">
        <ele>505.322</ele>
        <time>2021-07-27T09:04:49Z</time>
      </trkpt>
      <trkpt lat="42.548025" lon="-2.288592">
        <ele>501.990</ele>
        <time>2021-07-27T09:04:54Z</time>
      </trkpt>
      <trkpt lat="42.548061" lon="-2.288485">
        <ele>501.447</ele>
        <time>2021-07-27T09:04:55Z</time>
      </trkpt>
      <trkpt lat="42.548084" lon="-2.288385">
        <ele>500.945</ele>
        <time>2021-07-27T09:04:56Z</time>
      </trkpt>
      <trkpt lat="42.548094" lon="-2.288273">
        <ele>500.584</ele>
        <time>2021-07-27T09:04:57Z</time>
      </trkpt>
      <trkpt lat="42.548090" lon="-2.288159">
        <ele>500.507</ele>
        <time>2021-07-27T09:04:58Z</time>
      </trkpt>
      <trkpt lat="42.548077" lon="-2.288055">
        <ele>500.917</ele>
        <time>2021-07-27T09:04:59Z</time>
      </trkpt>
      <trkpt lat="42.548057" lon="-2.287960">
        <ele>501.408</ele>
        <time>2021-07-27T09:05:00Z</time>
      </trkpt>
      <trkpt lat="42.548032" lon="-2.287878">
        <ele>501.455</ele>
        <time>2021-07-27T09:05:01Z</time>
      </trkpt>
      <trkpt lat="42.548004" lon="-2.287792">
        <ele>501.987</ele>
        <time>2021-07-27T09:05:02Z</time>
      </trkpt>
      <trkpt lat="42.547884" lon="-2.287430">
        <ele>503.384</ele>
        <time>2021-07-27T09:05:08Z</time>
      </trkpt>
      <trkpt lat="42.547788" lon="-2.287030">
        <ele>504.824</ele>
        <time>2021-07-27T09:05:17Z</time>
      </trkpt>
      <trkpt lat="42.547739" lon="-2.286552">
        <ele>504.878</ele>
        <time>2021-07-27T09:05:27Z</time>
      </trkpt>
      <trkpt lat="42.547719" lon="-2.286123">
        <ele>505.736</ele>
        <time>2021-07-27T09:05:37Z</time>
      </trkpt>
      <trkpt lat="42.547699" lon="-2.285659">
        <ele>507.283</ele>
        <time>2021-07-27T09:05:48Z</time>
      </trkpt>
      <trkpt lat="42.547707" lon="-2.285322">
        <ele>508.621</ele>
        <time>2021-07-27T09:05:57Z</time>
      </trkpt>
      <trkpt lat="42.547844" lon="-2.285065">
        <ele>508.653</ele>
        <time>2021-07-27T09:06:05Z</time>
      </trkpt>
      <trkpt lat="42.548068" lon="-2.284987">
        <ele>508.104</ele>
        <time>2021-07-27T09:06:12Z</time>
      </trkpt>
      <trkpt lat="42.548351" lon="-2.285026">
        <ele>506.714</ele>
        <time>2021-07-27T09:06:19Z</time>
      </trkpt>
      <trkpt lat="42.548716" lon="-2.285096">
        <ele>505.308</ele>
        <time>2021-07-27T09:06:26Z</time>
      </trkpt>
      <trkpt lat="42.549264" lon="-2.285189">
        <ele>502.972</ele>
        <time>2021-07-27T09:06:35Z</time>
      </trkpt>
      <trkpt lat="42.549515" lon="-2.285177">
        <ele>502.994</ele>
        <time>2021-07-27T09:06:39Z</time>
      </trkpt>
      <trkpt lat="42.549566" lon="-2.285159">
        <ele>502.911</ele>
        <time>2021-07-27T09:06:40Z</time>
      </trkpt>
      <trkpt lat="42.549746" lon="-2.285077">
        <ele>504.321</ele>
        <time>2021-07-27T09:06:45Z</time>
      </trkpt>
      <trkpt lat="42.550057" lon="-2.284932">
        <ele>506.215</ele>
        <time>2021-07-27T09:06:56Z</time>
      </trkpt>
      <trkpt lat="42.550322" lon="-2.284767">
        <ele>505.773</ele>
        <time>2021-07-27T09:07:05Z</time>
      </trkpt>
      <trkpt lat="42.550532" lon="-2.284440">
        <ele>502.910</ele>
        <time>2021-07-27T09:07:12Z</time>
      </trkpt>
      <trkpt lat="42.550683" lon="-2.284172">
        <ele>501.428</ele>
        <time>2021-07-27T09:07:16Z</time>
      </trkpt>
      <trkpt lat="42.551002" lon="-2.283779">
        <ele>498.535</ele>
        <time>2021-07-27T09:07:22Z</time>
      </trkpt>
      <trkpt lat="42.551286" lon="-2.283473">
        <ele>495.786</ele>
        <time>2021-07-27T09:07:27Z</time>
      </trkpt>
      <trkpt lat="42.551335" lon="-2.283387">
        <ele>495.214</ele>
        <time>2021-07-27T09:07:28Z</time>
      </trkpt>
      <trkpt lat="42.551376" lon="-2.283291">
        <ele>494.708</ele>
        <time>2021-07-27T09:07:29Z</time>
      </trkpt>
      <trkpt lat="42.551693" lon="-2.282353">
        <ele>489.440</ele>
        <time>2021-07-27T09:07:37Z</time>
      </trkpt>
      <trkpt lat="42.551753" lon="-2.282092">
        <ele>488.012</ele>
        <time>2021-07-27T09:07:39Z</time>
      </trkpt>
      <trkpt lat="42.551769" lon="-2.281946">
        <ele>487.069</ele>
        <time>2021-07-27T09:07:40Z</time>
      </trkpt>
      <trkpt lat="42.551772" lon="-2.281796">
        <ele>486.069</ele>
        <time>2021-07-27T09:07:41Z</time>
      </trkpt>
      <trkpt lat="42.551762" lon="-2.281638">
        <ele>485.673</ele>
        <time>2021-07-27T09:07:42Z</time>
      </trkpt>
      <trkpt lat="42.551738" lon="-2.281496">
        <ele>484.631</ele>
        <time>2021-07-27T09:07:43Z</time>
      </trkpt>
      <trkpt lat="42.551697" lon="-2.281338">
        <ele>483.648</ele>
        <time>2021-07-27T09:07:44Z</time>
      </trkpt>
      <trkpt lat="42.551654" lon="-2.281197">
        <ele>482.746</ele>
        <time>2021-07-27T09:07:45Z</time>
      </trkpt>
      <trkpt lat="42.551460" lon="-2.280438">
        <ele>477.963</ele>
        <time>2021-07-27T09:07:50Z</time>
      </trkpt>
      <trkpt lat="42.551443" lon="-2.280282">
        <ele>476.944</ele>
        <time>2021-07-27T09:07:51Z</time>
      </trkpt>
      <trkpt lat="42.551436" lon="-2.280129">
        <ele>475.918</ele>
        <time>2021-07-27T09:07:52Z</time>
      </trkpt>
      <trkpt lat="42.551482" lon="-2.279064">
        <ele>470.208</ele>
        <time>2021-07-27T09:07:59Z</time>
      </trkpt>
      <trkpt lat="42.551653" lon="-2.278249">
        <ele>466.883</ele>
        <time>2021-07-27T09:08:05Z</time>
      </trkpt>
      <trkpt lat="42.551921" lon="-2.277391">
        <ele>463.995</ele>
        <time>2021-07-27T09:08:12Z</time>
      </trkpt>
      <trkpt lat="42.551983" lon="-2.277281">
        <ele>463.942</ele>
        <time>2021-07-27T09:08:13Z</time>
      </trkpt>
      <trkpt lat="42.552477" lon="-2.276545">
        <ele>460.612</ele>
        <time>2021-07-27T09:08:21Z</time>
      </trkpt>
      <trkpt lat="42.552689" lon="-2.276197">
        <ele>459.616</ele>
        <time>2021-07-27T09:08:25Z</time>
      </trkpt>
      <trkpt lat="42.552726" lon="-2.276104">
        <ele>459.194</ele>
        <time>2021-07-27T09:08:26Z</time>
      </trkpt>
      <trkpt lat="42.552754" lon="-2.276015">
        <ele>459.191</ele>
        <time>2021-07-27T09:08:27Z</time>
      </trkpt>
      <trkpt lat="42.552777" lon="-2.275927">
        <ele>458.629</ele>
        <time>2021-07-27T09:08:28Z</time>
      </trkpt>
      <trkpt lat="42.552799" lon="-2.275824">
        <ele>458.675</ele>
        <time>2021-07-27T09:08:29Z</time>
      </trkpt>
      <trkpt lat="42.552816" lon="-2.275723">
        <ele>458.628</ele>
        <time>2021-07-27T09:08:30Z</time>
      </trkpt>
      <trkpt lat="42.553027" lon="-2.274567">
        <ele>456.720</ele>
        <time>2021-07-27T09:08:42Z</time>
      </trkpt>
      <trkpt lat="42.553192" lon="-2.273681">
        <ele>455.308</ele>
        <time>2021-07-27T09:08:52Z</time>
      </trkpt>
      <trkpt lat="42.553346" lon="-2.272891">
        <ele>454.894</ele>
        <time>2021-07-27T09:09:02Z</time>
      </trkpt>
      <trkpt lat="42.553459" lon="-2.272453">
        <ele>454.826</ele>
        <time>2021-07-27T09:09:09Z</time>
      </trkpt>
      <trkpt lat="42.553566" lon="-2.272222">
        <ele>453.833</ele>
        <time>2021-07-27T09:09:15Z</time>
      </trkpt>
      <trkpt lat="42.553762" lon="-2.271900">
        <ele>452.973</ele>
        <time>2021-07-27T09:09:24Z</time>
      </trkpt>
      <trkpt lat="42.553967" lon="-2.271531">
        <ele>452.497</ele>
        <time>2021-07-27T09:09:35Z</time>
      </trkpt>
      <trkpt lat="42.554162" lon="-2.271179">
        <ele>452.975</ele>
        <time>2021-07-27T09:09:44Z</time>
      </trkpt>
      <trkpt lat="42.554307" lon="-2.270801">
        <ele>453.492</ele>
        <time>2021-07-27T09:09:53Z</time>
      </trkpt>
      <trkpt lat="42.554326" lon="-2.270434">
        <ele>453.870</ele>
        <time>2021-07-27T09:10:02Z</time>
      </trkpt>
      <trkpt lat="42.554249" lon="-2.270141">
        <ele>456.298</ele>
        <time>2021-07-27T09:10:11Z</time>
      </trkpt>
      <trkpt lat="42.554141" lon="-2.269980">
        <ele>458.215</ele>
        <time>2021-07-27T09:10:18Z</time>
      </trkpt>
      <trkpt lat="42.554069" lon="-2.269884">
        <ele>459.626</ele>
        <time>2021-07-27T09:10:26Z</time>
      </trkpt>
      <trkpt lat="42.554074" lon="-2.269909">
        <ele>461.008</ele>
        <time>2021-07-27T09:10:41Z</time>
      </trkpt>
      <trkpt lat="42.554064" lon="-2.269900">
        <ele>462.076</ele>
        <time>2021-07-27T09:11:01Z</time>
      </trkpt>
      <trkpt lat="42.554061" lon="-2.269898">
        <ele>462.568</ele>
        <time>2021-07-27T09:11:14Z</time>
      </trkpt>
      <trkpt lat="42.554043" lon="-2.269847">
        <ele>462.595</ele>
        <time>2021-07-27T09:11:27Z</time>
      </trkpt>
      <trkpt lat="42.554035" lon="-2.269832">
        <ele>462.565</ele>
        <time>2021-07-27T09:11:28Z</time>
      </trkpt>
      <trkpt lat="42.554027" lon="-2.269815">
        <ele>462.559</ele>
        <time>2021-07-27T09:11:29Z</time>
      </trkpt>
      <trkpt lat="42.554014" lon="-2.269792">
        <ele>462.577</ele>
        <time>2021-07-27T09:11:30Z</time>
      </trkpt>
      <trkpt lat="42.553925" lon="-2.269666">
        <ele>464.954</ele>
        <time>2021-07-27T09:11:38Z</time>
      </trkpt>
      <trkpt lat="42.553804" lon="-2.269467">
        <ele>467.332</ele>
        <time>2021-07-27T09:11:47Z</time>
      </trkpt>
      <trkpt lat="42.553661" lon="-2.269265">
        <ele>470.765</ele>
        <time>2021-07-27T09:11:58Z</time>
      </trkpt>
      <trkpt lat="42.553607" lon="-2.269182">
        <ele>470.768</ele>
        <time>2021-07-27T09:12:04Z</time>
      </trkpt>
      <trkpt lat="42.553596" lon="-2.269172">
        <ele>470.214</ele>
        <time>2021-07-27T09:12:05Z</time>
      </trkpt>
      <trkpt lat="42.553587" lon="-2.269161">
        <ele>470.208</ele>
        <time>2021-07-27T09:12:06Z</time>
      </trkpt>
      <trkpt lat="42.553571" lon="-2.269160">
        <ele>470.273</ele>
        <time>2021-07-27T09:12:11Z</time>
      </trkpt>
      <trkpt lat="42.553585" lon="-2.269151">
        <ele>468.315</ele>
        <time>2021-07-27T09:12:30Z</time>
      </trkpt>
      <trkpt lat="42.553593" lon="-2.269149">
        <ele>474.092</ele>
        <time>2021-07-27T09:12:46Z</time>
      </trkpt>
      <trkpt lat="42.553559" lon="-2.269122">
        <ele>472.162</ele>
        <time>2021-07-27T09:12:58Z</time>
      </trkpt>
      <trkpt lat="42.553553" lon="-2.269105">
        <ele>472.196</ele>
        <time>2021-07-27T09:12:59Z</time>
      </trkpt>
      <trkpt lat="42.553543" lon="-2.269088">
        <ele>472.174</ele>
        <time>2021-07-27T09:13:00Z</time>
      </trkpt>
      <trkpt lat="42.553500" lon="-2.269020">
        <ele>471.691</ele>
        <time>2021-07-27T09:13:04Z</time>
      </trkpt>
      <trkpt lat="42.553488" lon="-2.269007">
        <ele>471.679</ele>
        <time>2021-07-27T09:13:05Z</time>
      </trkpt>
      <trkpt lat="42.553477" lon="-2.268990">
        <ele>472.126</ele>
        <time>2021-07-27T09:13:06Z</time>
      </trkpt>
      <trkpt lat="42.553467" lon="-2.268973">
        <ele>472.147</ele>
        <time>2021-07-27T09:13:07Z</time>
      </trkpt>
      <trkpt lat="42.553456" lon="-2.268958">
        <ele>472.611</ele>
        <time>2021-07-27T09:13:08Z</time>
      </trkpt>
      <trkpt lat="42.553446" lon="-2.268943">
        <ele>472.608</ele>
        <time>2021-07-27T09:13:09Z</time>
      </trkpt>
      <trkpt lat="42.553337" lon="-2.268791">
        <ele>473.589</ele>
        <time>2021-07-27T09:13:19Z</time>
      </trkpt>
      <trkpt lat="42.553248" lon="-2.268662">
        <ele>474.521</ele>
        <time>2021-07-27T09:13:27Z</time>
      </trkpt>
      <trkpt lat="42.553151" lon="-2.268525">
        <ele>475.538</ele>
        <time>2021-07-27T09:13:35Z</time>
      </trkpt>
      <trkpt lat="42.553027" lon="-2.268346">
        <ele>477.458</ele>
        <time>2021-07-27T09:13:45Z</time>
      </trkpt>
      <trkpt lat="42.552910" lon="-2.268183">
        <ele>479.852</ele>
        <time>2021-07-27T09:13:54Z</time>
      </trkpt>
      <trkpt lat="42.552807" lon="-2.268019">
        <ele>481.260</ele>
        <time>2021-07-27T09:14:03Z</time>
      </trkpt>
      <trkpt lat="42.552669" lon="-2.267812">
        <ele>481.717</ele>
        <time>2021-07-27T09:14:14Z</time>
      </trkpt>
      <trkpt lat="42.552548" lon="-2.267635">
        <ele>482.765</ele>
        <time>2021-07-27T09:14:24Z</time>
      </trkpt>
      <trkpt lat="42.552454" lon="-2.267484">
        <ele>484.195</ele>
        <time>2021-07-27T09:14:32Z</time>
      </trkpt>
      <trkpt lat="42.552361" lon="-2.267312">
        <ele>484.149</ele>
        <time>2021-07-27T09:14:41Z</time>
      </trkpt>
      <trkpt lat="42.552299" lon="-2.267188">
        <ele>482.223</ele>
        <time>2021-07-27T09:14:49Z</time>
      </trkpt>
      <trkpt lat="42.552247" lon="-2.267114">
        <ele>482.708</ele>
        <time>2021-07-27T09:14:58Z</time>
      </trkpt>
      <trkpt lat="42.552216" lon="-2.267044">
        <ele>482.246</ele>
        <time>2021-07-27T09:15:05Z</time>
      </trkpt>
      <trkpt lat="42.552206" lon="-2.267039">
        <ele>482.288</ele>
        <time>2021-07-27T09:15:06Z</time>
      </trkpt>
      <trkpt lat="42.552190" lon="-2.267021">
        <ele>482.245</ele>
        <time>2021-07-27T09:15:08Z</time>
      </trkpt>
      <trkpt lat="42.552187" lon="-2.267007">
        <ele>482.225</ele>
        <time>2021-07-27T09:15:09Z</time>
      </trkpt>
      <trkpt lat="42.552184" lon="-2.266995">
        <ele>482.289</ele>
        <time>2021-07-27T09:15:10Z</time>
      </trkpt>
      <trkpt lat="42.552162" lon="-2.266966">
        <ele>482.287</ele>
        <time>2021-07-27T09:15:17Z</time>
      </trkpt>
      <trkpt lat="42.552165" lon="-2.266962">
        <ele>481.794</ele>
        <time>2021-07-27T09:15:32Z</time>
      </trkpt>
      <trkpt lat="42.552171" lon="-2.266940">
        <ele>481.752</ele>
        <time>2021-07-27T09:15:35Z</time>
      </trkpt>
      <trkpt lat="42.552176" lon="-2.266903">
        <ele>482.263</ele>
        <time>2021-07-27T09:15:38Z</time>
      </trkpt>
      <trkpt lat="42.552173" lon="-2.266887">
        <ele>482.244</ele>
        <time>2021-07-27T09:15:39Z</time>
      </trkpt>
      <trkpt lat="42.552199" lon="-2.266761">
        <ele>482.718</ele>
        <time>2021-07-27T09:15:49Z</time>
      </trkpt>
      <trkpt lat="42.552265" lon="-2.266608">
        <ele>484.108</ele>
        <time>2021-07-27T09:15:58Z</time>
      </trkpt>
      <trkpt lat="42.552390" lon="-2.266452">
        <ele>484.113</ele>
        <time>2021-07-27T09:16:08Z</time>
      </trkpt>
      <trkpt lat="42.552518" lon="-2.266281">
        <ele>484.685</ele>
        <time>2021-07-27T09:16:19Z</time>
      </trkpt>
      <trkpt lat="42.552605" lon="-2.266201">
        <ele>484.622</ele>
        <time>2021-07-27T09:16:26Z</time>
      </trkpt>
      <trkpt lat="42.552661" lon="-2.266138">
        <ele>485.142</ele>
        <time>2021-07-27T09:16:31Z</time>
      </trkpt>
      <trkpt lat="42.552784" lon="-2.266017">
        <ele>485.666</ele>
        <time>2021-07-27T09:16:41Z</time>
      </trkpt>
      <trkpt lat="42.552902" lon="-2.265891">
        <ele>486.014</ele>
        <time>2021-07-27T09:16:51Z</time>
      </trkpt>
      <trkpt lat="42.552940" lon="-2.265833">
        <ele>486.591</ele>
        <time>2021-07-27T09:16:57Z</time>
      </trkpt>
      <trkpt lat="42.553053" lon="-2.265767">
        <ele>486.019</ele>
        <time>2021-07-27T09:17:07Z</time>
      </trkpt>
      <trkpt lat="42.553074" lon="-2.265757">
        <ele>486.032</ele>
        <time>2021-07-27T09:17:09Z</time>
      </trkpt>
      <trkpt lat="42.553103" lon="-2.265741">
        <ele>486.092</ele>
        <time>2021-07-27T09:17:10Z</time>
      </trkpt>
      <trkpt lat="42.553116" lon="-2.265730">
        <ele>486.011</ele>
        <time>2021-07-27T09:17:11Z</time>
      </trkpt>
      <trkpt lat="42.553126" lon="-2.265721">
        <ele>486.008</ele>
        <time>2021-07-27T09:17:12Z</time>
      </trkpt>
      <trkpt lat="42.553134" lon="-2.265711">
        <ele>486.050</ele>
        <time>2021-07-27T09:17:13Z</time>
      </trkpt>
      <trkpt lat="42.553143" lon="-2.265702">
        <ele>485.682</ele>
        <time>2021-07-27T09:17:14Z</time>
      </trkpt>
      <trkpt lat="42.553154" lon="-2.265694">
        <ele>485.669</ele>
        <time>2021-07-27T09:17:15Z</time>
      </trkpt>
      <trkpt lat="42.553167" lon="-2.265687">
        <ele>485.689</ele>
        <time>2021-07-27T09:17:16Z</time>
      </trkpt>
      <trkpt lat="42.553300" lon="-2.265582">
        <ele>485.653</ele>
        <time>2021-07-27T09:17:24Z</time>
      </trkpt>
      <trkpt lat="42.553445" lon="-2.265441">
        <ele>484.151</ele>
        <time>2021-07-27T09:17:32Z</time>
      </trkpt>
      <trkpt lat="42.553537" lon="-2.265346">
        <ele>483.298</ele>
        <time>2021-07-27T09:17:35Z</time>
      </trkpt>
      <trkpt lat="42.553575" lon="-2.265302">
        <ele>483.266</ele>
        <time>2021-07-27T09:17:36Z</time>
      </trkpt>
      <trkpt lat="42.553609" lon="-2.265259">
        <ele>482.781</ele>
        <time>2021-07-27T09:17:37Z</time>
      </trkpt>
      <trkpt lat="42.553657" lon="-2.265204">
        <ele>482.261</ele>
        <time>2021-07-27T09:17:38Z</time>
      </trkpt>
      <trkpt lat="42.553700" lon="-2.265148">
        <ele>481.717</ele>
        <time>2021-07-27T09:17:39Z</time>
      </trkpt>
      <trkpt lat="42.553741" lon="-2.265088">
        <ele>481.708</ele>
        <time>2021-07-27T09:17:40Z</time>
      </trkpt>
      <trkpt lat="42.553769" lon="-2.265044">
        <ele>481.255</ele>
        <time>2021-07-27T09:17:41Z</time>
      </trkpt>
      <trkpt lat="42.553810" lon="-2.264971">
        <ele>480.827</ele>
        <time>2021-07-27T09:17:42Z</time>
      </trkpt>
      <trkpt lat="42.553884" lon="-2.264815">
        <ele>480.334</ele>
        <time>2021-07-27T09:17:44Z</time>
      </trkpt>
      <trkpt lat="42.553917" lon="-2.264723">
        <ele>479.854</ele>
        <time>2021-07-27T09:17:45Z</time>
      </trkpt>
      <trkpt lat="42.553945" lon="-2.264631">
        <ele>479.398</ele>
        <time>2021-07-27T09:17:46Z</time>
      </trkpt>
      <trkpt lat="42.554155" lon="-2.263800">
        <ele>475.596</ele>
        <time>2021-07-27T09:17:54Z</time>
      </trkpt>
      <trkpt lat="42.554379" lon="-2.262841">
        <ele>471.143</ele>
        <time>2021-07-27T09:18:02Z</time>
      </trkpt>
      <trkpt lat="42.554646" lon="-2.261749">
        <ele>465.921</ele>
        <time>2021-07-27T09:18:10Z</time>
      </trkpt>
      <trkpt lat="42.554983" lon="-2.260342">
        <ele>461.039</ele>
        <time>2021-07-27T09:18:20Z</time>
      </trkpt>
      <trkpt lat="42.555191" lon="-2.259466">
        <ele>459.601</ele>
        <time>2021-07-27T09:18:27Z</time>
      </trkpt>
      <trkpt lat="42.555406" lon="-2.258585">
        <ele>458.221</ele>
        <time>2021-07-27T09:18:35Z</time>
      </trkpt>
      <trkpt lat="42.555645" lon="-2.257593">
        <ele>457.208</ele>
        <time>2021-07-27T09:18:45Z</time>
      </trkpt>
      <trkpt lat="42.555852" lon="-2.256734">
        <ele>455.890</ele>
        <time>2021-07-27T09:18:55Z</time>
      </trkpt>
      <trkpt lat="42.556038" lon="-2.255956">
        <ele>453.482</ele>
        <time>2021-07-27T09:19:04Z</time>
      </trkpt>
      <trkpt lat="42.556239" lon="-2.255126">
        <ele>450.549</ele>
        <time>2021-07-27T09:19:13Z</time>
      </trkpt>
      <trkpt lat="42.556471" lon="-2.254127">
        <ele>449.559</ele>
        <time>2021-07-27T09:19:24Z</time>
      </trkpt>
      <trkpt lat="42.556546" lon="-2.253804">
        <ele>450.093</ele>
        <time>2021-07-27T09:19:30Z</time>
      </trkpt>
      <trkpt lat="42.556595" lon="-2.253613">
        <ele>450.041</ele>
        <time>2021-07-27T09:19:37Z</time>
      </trkpt>
      <trkpt lat="42.556666" lon="-2.253333">
        <ele>451.038</ele>
        <time>2021-07-27T09:19:47Z</time>
      </trkpt>
      <trkpt lat="42.556755" lon="-2.252998">
        <ele>452.466</ele>
        <time>2021-07-27T09:19:57Z</time>
      </trkpt>
      <trkpt lat="42.556825" lon="-2.252702">
        <ele>452.987</ele>
        <time>2021-07-27T09:20:05Z</time>
      </trkpt>
      <trkpt lat="42.556903" lon="-2.252353">
        <ele>453.842</ele>
        <time>2021-07-27T09:20:15Z</time>
      </trkpt>
      <trkpt lat="42.556973" lon="-2.252081">
        <ele>455.826</ele>
        <time>2021-07-27T09:20:23Z</time>
      </trkpt>
      <trkpt lat="42.557041" lon="-2.251797">
        <ele>455.308</ele>
        <time>2021-07-27T09:20:32Z</time>
      </trkpt>
      <trkpt lat="42.557098" lon="-2.251491">
        <ele>456.255</ele>
        <time>2021-07-27T09:20:42Z</time>
      </trkpt>
      <trkpt lat="42.557134" lon="-2.251256">
        <ele>456.797</ele>
        <time>2021-07-27T09:20:51Z</time>
      </trkpt>
      <trkpt lat="42.557176" lon="-2.250992">
        <ele>456.744</ele>
        <time>2021-07-27T09:21:01Z</time>
      </trkpt>
      <trkpt lat="42.557211" lon="-2.250762">
        <ele>457.794</ele>
        <time>2021-07-27T09:21:09Z</time>
      </trkpt>
      <trkpt lat="42.557266" lon="-2.250406">
        <ele>460.118</ele>
        <time>2021-07-27T09:21:21Z</time>
      </trkpt>
      <trkpt lat="42.557305" lon="-2.250158">
        <ele>461.056</ele>
        <time>2021-07-27T09:21:30Z</time>
      </trkpt>
      <trkpt lat="42.557369" lon="-2.249815">
        <ele>461.543</ele>
        <time>2021-07-27T09:21:42Z</time>
      </trkpt>
      <trkpt lat="42.557392" lon="-2.249630">
        <ele>462.071</ele>
        <time>2021-07-27T09:21:51Z</time>
      </trkpt>
      <trkpt lat="42.557404" lon="-2.249552">
        <ele>463.083</ele>
        <time>2021-07-27T09:22:02Z</time>
      </trkpt>
      <trkpt lat="42.557453" lon="-2.249290">
        <ele>461.525</ele>
        <time>2021-07-27T09:22:08Z</time>
      </trkpt>
      <trkpt lat="42.557538" lon="-2.248828">
        <ele>458.617</ele>
        <time>2021-07-27T09:22:14Z</time>
      </trkpt>
      <trkpt lat="42.557678" lon="-2.248059">
        <ele>454.308</ele>
        <time>2021-07-27T09:22:21Z</time>
      </trkpt>
      <trkpt lat="42.557882" lon="-2.246977">
        <ele>447.675</ele>
        <time>2021-07-27T09:22:29Z</time>
      </trkpt>
      <trkpt lat="42.558150" lon="-2.245537">
        <ele>441.897</ele>
        <time>2021-07-27T09:22:39Z</time>
      </trkpt>
      <trkpt lat="42.558366" lon="-2.244371">
        <ele>440.464</ele>
        <time>2021-07-27T09:22:48Z</time>
      </trkpt>
      <trkpt lat="42.558522" lon="-2.243530">
        <ele>440.984</ele>
        <time>2021-07-27T09:22:56Z</time>
      </trkpt>
      <trkpt lat="42.558647" lon="-2.242868">
        <ele>440.918</ele>
        <time>2021-07-27T09:23:04Z</time>
      </trkpt>
      <trkpt lat="42.558724" lon="-2.242448">
        <ele>441.886</ele>
        <time>2021-07-27T09:23:11Z</time>
      </trkpt>
      <trkpt lat="42.558807" lon="-2.241972">
        <ele>443.373</ele>
        <time>2021-07-27T09:23:21Z</time>
      </trkpt>
      <trkpt lat="42.558882" lon="-2.241556">
        <ele>442.831</ele>
        <time>2021-07-27T09:23:29Z</time>
      </trkpt>
      <trkpt lat="42.559027" lon="-2.240819">
        <ele>441.398</ele>
        <time>2021-07-27T09:23:40Z</time>
      </trkpt>
      <trkpt lat="42.559159" lon="-2.240108">
        <ele>440.415</ele>
        <time>2021-07-27T09:23:51Z</time>
      </trkpt>
      <trkpt lat="42.559224" lon="-2.239771">
        <ele>441.826</ele>
        <time>2021-07-27T09:23:59Z</time>
      </trkpt>
      <trkpt lat="42.559305" lon="-2.239340">
        <ele>443.308</ele>
        <time>2021-07-27T09:24:11Z</time>
      </trkpt>
      <trkpt lat="42.559363" lon="-2.239005">
        <ele>444.776</ele>
        <time>2021-07-27T09:24:21Z</time>
      </trkpt>
      <trkpt lat="42.559436" lon="-2.238668">
        <ele>446.138</ele>
        <time>2021-07-27T09:24:31Z</time>
      </trkpt>
      <trkpt lat="42.559532" lon="-2.238196">
        <ele>447.665</ele>
        <time>2021-07-27T09:24:44Z</time>
      </trkpt>
      <trkpt lat="42.559582" lon="-2.237859">
        <ele>447.635</ele>
        <time>2021-07-27T09:24:53Z</time>
      </trkpt>
      <trkpt lat="42.559640" lon="-2.237540">
        <ele>447.659</ele>
        <time>2021-07-27T09:25:01Z</time>
      </trkpt>
      <trkpt lat="42.559733" lon="-2.237041">
        <ele>447.647</ele>
        <time>2021-07-27T09:25:13Z</time>
      </trkpt>
      <trkpt lat="42.559822" lon="-2.236597">
        <ele>448.164</ele>
        <time>2021-07-27T09:25:24Z</time>
      </trkpt>
      <trkpt lat="42.559898" lon="-2.236188">
        <ele>447.652</ele>
        <time>2021-07-27T09:25:33Z</time>
      </trkpt>
      <trkpt lat="42.559955" lon="-2.235889">
        <ele>447.143</ele>
        <time>2021-07-27T09:25:41Z</time>
      </trkpt>
      <trkpt lat="42.560052" lon="-2.235352">
        <ele>446.664</ele>
        <time>2021-07-27T09:25:52Z</time>
      </trkpt>
      <trkpt lat="42.560155" lon="-2.234784">
        <ele>446.110</ele>
        <time>2021-07-27T09:26:02Z</time>
      </trkpt>
      <trkpt lat="42.560250" lon="-2.234307">
        <ele>446.608</ele>
        <time>2021-07-27T09:26:12Z</time>
      </trkpt>
      <trkpt lat="42.560351" lon="-2.233759">
        <ele>448.511</ele>
        <time>2021-07-27T09:26:24Z</time>
      </trkpt>
      <trkpt lat="42.560453" lon="-2.233223">
        <ele>449.543</ele>
        <time>2021-07-27T09:26:36Z</time>
      </trkpt>
      <trkpt lat="42.560520" lon="-2.232848">
        <ele>451.020</ele>
        <time>2021-07-27T09:26:45Z</time>
      </trkpt>
      <trkpt lat="42.560604" lon="-2.232389">
        <ele>451.430</ele>
        <time>2021-07-27T09:26:56Z</time>
      </trkpt>
      <trkpt lat="42.560674" lon="-2.231953">
        <ele>452.974</ele>
        <time>2021-07-27T09:27:06Z</time>
      </trkpt>
      <trkpt lat="42.560782" lon="-2.231375">
        <ele>452.472</ele>
        <time>2021-07-27T09:27:18Z</time>
      </trkpt>
      <trkpt lat="42.560877" lon="-2.230851">
        <ele>450.549</ele>
        <time>2021-07-27T09:27:26Z</time>
      </trkpt>
      <trkpt lat="42.561008" lon="-2.230162">
        <ele>448.197</ele>
        <time>2021-07-27T09:27:34Z</time>
      </trkpt>
      <trkpt lat="42.561191" lon="-2.229202">
        <ele>447.197</ele>
        <time>2021-07-27T09:27:44Z</time>
      </trkpt>
      <trkpt lat="42.561301" lon="-2.228617">
        <ele>447.623</ele>
        <time>2021-07-27T09:27:52Z</time>
      </trkpt>
      <trkpt lat="42.561433" lon="-2.227868">
        <ele>446.625</ele>
        <time>2021-07-27T09:28:03Z</time>
      </trkpt>
      <trkpt lat="42.561499" lon="-2.227497">
        <ele>447.608</ele>
        <time>2021-07-27T09:28:10Z</time>
      </trkpt>
      <trkpt lat="42.561590" lon="-2.226998">
        <ele>449.066</ele>
        <time>2021-07-27T09:28:23Z</time>
      </trkpt>
      <trkpt lat="42.561650" lon="-2.226649">
        <ele>450.568</ele>
        <time>2021-07-27T09:28:32Z</time>
      </trkpt>
      <trkpt lat="42.561725" lon="-2.226228">
        <ele>452.925</ele>
        <time>2021-07-27T09:28:43Z</time>
      </trkpt>
      <trkpt lat="42.561791" lon="-2.225888">
        <ele>453.435</ele>
        <time>2021-07-27T09:28:53Z</time>
      </trkpt>
      <trkpt lat="42.561827" lon="-2.225687">
        <ele>453.879</ele>
        <time>2021-07-27T09:29:02Z</time>
      </trkpt>
      <trkpt lat="42.561905" lon="-2.225291">
        <ele>453.817</ele>
        <time>2021-07-27T09:29:12Z</time>
      </trkpt>
      <trkpt lat="42.561981" lon="-2.224901">
        <ele>454.864</ele>
        <time>2021-07-27T09:29:22Z</time>
      </trkpt>
      <trkpt lat="42.562023" lon="-2.224637">
        <ele>455.342</ele>
        <time>2021-07-27T09:29:29Z</time>
      </trkpt>
      <trkpt lat="42.562085" lon="-2.224323">
        <ele>456.254</ele>
        <time>2021-07-27T09:29:38Z</time>
      </trkpt>
      <trkpt lat="42.562148" lon="-2.223991">
        <ele>457.256</ele>
        <time>2021-07-27T09:29:46Z</time>
      </trkpt>
      <trkpt lat="42.562224" lon="-2.223597">
        <ele>456.711</ele>
        <time>2021-07-27T09:29:55Z</time>
      </trkpt>
      <trkpt lat="42.562351" lon="-2.222933">
        <ele>455.808</ele>
        <time>2021-07-27T09:30:07Z</time>
      </trkpt>
      <trkpt lat="42.562477" lon="-2.222250">
        <ele>455.382</ele>
        <time>2021-07-27T09:30:18Z</time>
      </trkpt>
      <trkpt lat="42.562566" lon="-2.221768">
        <ele>454.824</ele>
        <time>2021-07-27T09:30:27Z</time>
      </trkpt>
      <trkpt lat="42.562679" lon="-2.221186">
        <ele>455.831</ele>
        <time>2021-07-27T09:30:37Z</time>
      </trkpt>
      <trkpt lat="42.562787" lon="-2.220580">
        <ele>455.881</ele>
        <time>2021-07-27T09:30:47Z</time>
      </trkpt>
      <trkpt lat="42.562914" lon="-2.219903">
        <ele>456.275</ele>
        <time>2021-07-27T09:30:58Z</time>
      </trkpt>
      <trkpt lat="42.563020" lon="-2.219334">
        <ele>456.723</ele>
        <time>2021-07-27T09:31:07Z</time>
      </trkpt>
      <trkpt lat="42.563136" lon="-2.218711">
        <ele>457.260</ele>
        <time>2021-07-27T09:31:17Z</time>
      </trkpt>
      <trkpt lat="42.563245" lon="-2.218128">
        <ele>457.788</ele>
        <time>2021-07-27T09:31:27Z</time>
      </trkpt>
      <trkpt lat="42.563311" lon="-2.217757">
        <ele>458.263</ele>
        <time>2021-07-27T09:31:36Z</time>
      </trkpt>
      <trkpt lat="42.563366" lon="-2.217450">
        <ele>459.144</ele>
        <time>2021-07-27T09:31:45Z</time>
      </trkpt>
      <trkpt lat="42.563414" lon="-2.217177">
        <ele>460.618</ele>
        <time>2021-07-27T09:31:53Z</time>
      </trkpt>
      <trkpt lat="42.563485" lon="-2.216819">
        <ele>461.008</ele>
        <time>2021-07-27T09:32:03Z</time>
      </trkpt>
      <trkpt lat="42.563495" lon="-2.216686">
        <ele>461.573</ele>
        <time>2021-07-27T09:32:09Z</time>
      </trkpt>
      <trkpt lat="42.563539" lon="-2.216478">
        <ele>462.055</ele>
        <time>2021-07-27T09:32:15Z</time>
      </trkpt>
      <trkpt lat="42.563611" lon="-2.216119">
        <ele>462.572</ele>
        <time>2021-07-27T09:32:24Z</time>
      </trkpt>
      <trkpt lat="42.563704" lon="-2.215640">
        <ele>461.552</ele>
        <time>2021-07-27T09:32:34Z</time>
      </trkpt>
      <trkpt lat="42.563825" lon="-2.215040">
        <ele>459.616</ele>
        <time>2021-07-27T09:32:43Z</time>
      </trkpt>
      <trkpt lat="42.563996" lon="-2.214208">
        <ele>458.644</ele>
        <time>2021-07-27T09:32:55Z</time>
      </trkpt>
      <trkpt lat="42.564072" lon="-2.213790">
        <ele>459.121</ele>
        <time>2021-07-27T09:33:03Z</time>
      </trkpt>
      <trkpt lat="42.564158" lon="-2.213355">
        <ele>460.689</ele>
        <time>2021-07-27T09:33:13Z</time>
      </trkpt>
      <trkpt lat="42.564233" lon="-2.212994">
        <ele>462.086</ele>
        <time>2021-07-27T09:33:22Z</time>
      </trkpt>
      <trkpt lat="42.564310" lon="-2.212585">
        <ele>463.060</ele>
        <time>2021-07-27T09:33:32Z</time>
      </trkpt>
      <trkpt lat="42.564402" lon="-2.212088">
        <ele>463.026</ele>
        <time>2021-07-27T09:33:43Z</time>
      </trkpt>
      <trkpt lat="42.564483" lon="-2.211662">
        <ele>463.408</ele>
        <time>2021-07-27T09:33:52Z</time>
      </trkpt>
      <trkpt lat="42.564575" lon="-2.211163">
        <ele>463.995</ele>
        <time>2021-07-27T09:34:03Z</time>
      </trkpt>
      <trkpt lat="42.564700" lon="-2.210529">
        <ele>463.467</ele>
        <time>2021-07-27T09:34:15Z</time>
      </trkpt>
      <trkpt lat="42.564792" lon="-2.210074">
        <ele>463.424</ele>
        <time>2021-07-27T09:34:23Z</time>
      </trkpt>
      <trkpt lat="42.564814" lon="-2.209956">
        <ele>463.444</ele>
        <time>2021-07-27T09:34:25Z</time>
      </trkpt>
      <trkpt lat="42.564949" lon="-2.209310">
        <ele>463.038</ele>
        <time>2021-07-27T09:34:35Z</time>
      </trkpt>
      <trkpt lat="42.565080" lon="-2.208699">
        <ele>463.416</ele>
        <time>2021-07-27T09:34:44Z</time>
      </trkpt>
      <trkpt lat="42.565141" lon="-2.208384">
        <ele>464.443</ele>
        <time>2021-07-27T09:34:51Z</time>
      </trkpt>
      <trkpt lat="42.565243" lon="-2.207792">
        <ele>465.411</ele>
        <time>2021-07-27T09:35:03Z</time>
      </trkpt>
      <trkpt lat="42.565339" lon="-2.207299">
        <ele>465.469</ele>
        <time>2021-07-27T09:35:13Z</time>
      </trkpt>
      <trkpt lat="42.565430" lon="-2.206785">
        <ele>465.404</ele>
        <time>2021-07-27T09:35:23Z</time>
      </trkpt>
      <trkpt lat="42.565540" lon="-2.206153">
        <ele>464.924</ele>
        <time>2021-07-27T09:35:35Z</time>
      </trkpt>
      <trkpt lat="42.565598" lon="-2.205722">
        <ele>464.408</ele>
        <time>2021-07-27T09:35:42Z</time>
      </trkpt>
      <trkpt lat="42.565652" lon="-2.205095">
        <ele>463.423</ele>
        <time>2021-07-27T09:35:52Z</time>
      </trkpt>
      <trkpt lat="42.565724" lon="-2.204478">
        <ele>463.085</ele>
        <time>2021-07-27T09:36:02Z</time>
      </trkpt>
      <trkpt lat="42.565765" lon="-2.203838">
        <ele>463.092</ele>
        <time>2021-07-27T09:36:12Z</time>
      </trkpt>
      <trkpt lat="42.565773" lon="-2.203349">
        <ele>463.082</ele>
        <time>2021-07-27T09:36:20Z</time>
      </trkpt>
      <trkpt lat="42.565797" lon="-2.203303">
        <ele>462.586</ele>
        <time>2021-07-27T09:36:21Z</time>
      </trkpt>
      <trkpt lat="42.565830" lon="-2.203268">
        <ele>462.554</ele>
        <time>2021-07-27T09:36:22Z</time>
      </trkpt>
      <trkpt lat="42.565862" lon="-2.203246">
        <ele>462.541</ele>
        <time>2021-07-27T09:36:23Z</time>
      </trkpt>
      <trkpt lat="42.565900" lon="-2.203225">
        <ele>462.519</ele>
        <time>2021-07-27T09:36:24Z</time>
      </trkpt>
      <trkpt lat="42.566085" lon="-2.203075">
        <ele>463.016</ele>
        <time>2021-07-27T09:36:30Z</time>
      </trkpt>
      <trkpt lat="42.566209" lon="-2.202809">
        <ele>463.976</ele>
        <time>2021-07-27T09:36:37Z</time>
      </trkpt>
      <trkpt lat="42.566287" lon="-2.202468">
        <ele>464.913</ele>
        <time>2021-07-27T09:36:46Z</time>
      </trkpt>
      <trkpt lat="42.566380" lon="-2.201985">
        <ele>467.808</ele>
        <time>2021-07-27T09:36:58Z</time>
      </trkpt>
      <trkpt lat="42.566461" lon="-2.201570">
        <ele>468.758</ele>
        <time>2021-07-27T09:37:08Z</time>
      </trkpt>
      <trkpt lat="42.566534" lon="-2.201181">
        <ele>469.730</ele>
        <time>2021-07-27T09:37:18Z</time>
      </trkpt>
      <trkpt lat="42.566611" lon="-2.200786">
        <ele>469.767</ele>
        <time>2021-07-27T09:37:27Z</time>
      </trkpt>
      <trkpt lat="42.566694" lon="-2.200362">
        <ele>470.217</ele>
        <time>2021-07-27T09:37:37Z</time>
      </trkpt>
      <trkpt lat="42.566768" lon="-2.200003">
        <ele>470.751</ele>
        <time>2021-07-27T09:37:45Z</time>
      </trkpt>
      <trkpt lat="42.566864" lon="-2.199502">
        <ele>471.169</ele>
        <time>2021-07-27T09:37:55Z</time>
      </trkpt>
      <trkpt lat="42.566988" lon="-2.198906">
        <ele>470.786</ele>
        <time>2021-07-27T09:38:07Z</time>
      </trkpt>
      <trkpt lat="42.567051" lon="-2.198567">
        <ele>471.174</ele>
        <time>2021-07-27T09:38:16Z</time>
      </trkpt>
      <trkpt lat="42.567082" lon="-2.198392">
        <ele>470.719</ele>
        <time>2021-07-27T09:38:22Z</time>
      </trkpt>
      <trkpt lat="42.567124" lon="-2.198170">
        <ele>470.209</ele>
        <time>2021-07-27T09:38:30Z</time>
      </trkpt>
      <trkpt lat="42.567180" lon="-2.197876">
        <ele>469.219</ele>
        <time>2021-07-27T09:38:36Z</time>
      </trkpt>
      <trkpt lat="42.567284" lon="-2.197373">
        <ele>466.308</ele>
        <time>2021-07-27T09:38:43Z</time>
      </trkpt>
      <trkpt lat="42.567417" lon="-2.196679">
        <ele>463.048</ele>
        <time>2021-07-27T09:38:51Z</time>
      </trkpt>
      <trkpt lat="42.567546" lon="-2.195995">
        <ele>459.150</ele>
        <time>2021-07-27T09:38:59Z</time>
      </trkpt>
      <trkpt lat="42.567576" lon="-2.195805">
        <ele>458.217</ele>
        <time>2021-07-27T09:39:06Z</time>
      </trkpt>
      <trkpt lat="42.567597" lon="-2.195768">
        <ele>457.257</ele>
        <time>2021-07-27T09:39:18Z</time>
      </trkpt>
      <trkpt lat="42.567616" lon="-2.195632">
        <ele>457.291</ele>
        <time>2021-07-27T09:39:25Z</time>
      </trkpt>
      <trkpt lat="42.567674" lon="-2.195349">
        <ele>455.389</ele>
        <time>2021-07-27T09:39:34Z</time>
      </trkpt>
      <trkpt lat="42.567721" lon="-2.195127">
        <ele>453.476</ele>
        <time>2021-07-27T09:39:42Z</time>
      </trkpt>
      <trkpt lat="42.567724" lon="-2.195103">
        <ele>453.464</ele>
        <time>2021-07-27T09:39:43Z</time>
      </trkpt>
      <trkpt lat="42.567722" lon="-2.195097">
        <ele>453.423</ele>
        <time>2021-07-27T09:39:49Z</time>
      </trkpt>
      <trkpt lat="42.567718" lon="-2.195089">
        <ele>454.883</ele>
        <time>2021-07-27T09:40:03Z</time>
      </trkpt>
      <trkpt lat="42.567728" lon="-2.195070">
        <ele>454.811</ele>
        <time>2021-07-27T09:40:06Z</time>
      </trkpt>
      <trkpt lat="42.567751" lon="-2.195039">
        <ele>454.808</ele>
        <time>2021-07-27T09:40:08Z</time>
      </trkpt>
      <trkpt lat="42.567873" lon="-2.194918">
        <ele>454.399</ele>
        <time>2021-07-27T09:40:14Z</time>
      </trkpt>
      <trkpt lat="42.567987" lon="-2.194789">
        <ele>452.441</ele>
        <time>2021-07-27T09:40:18Z</time>
      </trkpt>
      <trkpt lat="42.568198" lon="-2.194474">
        <ele>449.548</ele>
        <time>2021-07-27T09:40:24Z</time>
      </trkpt>
      <trkpt lat="42.568329" lon="-2.194278">
        <ele>447.698</ele>
        <time>2021-07-27T09:40:30Z</time>
      </trkpt>
      <trkpt lat="42.568496" lon="-2.194057">
        <ele>446.172</ele>
        <time>2021-07-27T09:40:38Z</time>
      </trkpt>
      <trkpt lat="42.568645" lon="-2.193904">
        <ele>446.170</ele>
        <time>2021-07-27T09:40:45Z</time>
      </trkpt>
      <trkpt lat="42.568794" lon="-2.193669">
        <ele>446.627</ele>
        <time>2021-07-27T09:40:54Z</time>
      </trkpt>
      <trkpt lat="42.568880" lon="-2.193470">
        <ele>446.685</ele>
        <time>2021-07-27T09:41:03Z</time>
      </trkpt>
      <trkpt lat="42.568922" lon="-2.193240">
        <ele>447.143</ele>
        <time>2021-07-27T09:41:12Z</time>
      </trkpt>
      <trkpt lat="42.568944" lon="-2.193203">
        <ele>447.164</ele>
        <time>2021-07-27T09:41:18Z</time>
      </trkpt>
      <trkpt lat="42.568949" lon="-2.193207">
        <ele>449.010</ele>
        <time>2021-07-27T09:41:33Z</time>
      </trkpt>
      <trkpt lat="42.568938" lon="-2.193210">
        <ele>451.008</ele>
        <time>2021-07-27T09:41:57Z</time>
      </trkpt>
      <trkpt lat="42.568940" lon="-2.193184">
        <ele>450.521</ele>
        <time>2021-07-27T09:41:59Z</time>
      </trkpt>
      <trkpt lat="42.568939" lon="-2.193166">
        <ele>450.563</ele>
        <time>2021-07-27T09:42:00Z</time>
      </trkpt>
      <trkpt lat="42.568939" lon="-2.193127">
        <ele>450.080</ele>
        <time>2021-07-27T09:42:02Z</time>
      </trkpt>
      <trkpt lat="42.569021" lon="-2.192961">
        <ele>447.690</ele>
        <time>2021-07-27T09:42:12Z</time>
      </trkpt>
      <trkpt lat="42.569101" lon="-2.192824">
        <ele>446.684</ele>
        <time>2021-07-27T09:42:23Z</time>
      </trkpt>
      <trkpt lat="42.569109" lon="-2.192805">
        <ele>446.112</ele>
        <time>2021-07-27T09:42:31Z</time>
      </trkpt>
      <trkpt lat="42.569127" lon="-2.192764">
        <ele>445.729</ele>
        <time>2021-07-27T09:42:39Z</time>
      </trkpt>
      <trkpt lat="42.569178" lon="-2.192624">
        <ele>446.157</ele>
        <time>2021-07-27T09:42:47Z</time>
      </trkpt>
      <trkpt lat="42.569181" lon="-2.192609">
        <ele>446.682</ele>
        <time>2021-07-27T09:42:48Z</time>
      </trkpt>
      <trkpt lat="42.569181" lon="-2.192562">
        <ele>447.643</ele>
        <time>2021-07-27T09:42:52Z</time>
      </trkpt>
      <trkpt lat="42.569191" lon="-2.192480">
        <ele>448.517</ele>
        <time>2021-07-27T09:42:57Z</time>
      </trkpt>
      <trkpt lat="42.569160" lon="-2.192369">
        <ele>448.508</ele>
        <time>2021-07-27T09:43:07Z</time>
      </trkpt>
      <trkpt lat="42.569133" lon="-2.192363">
        <ele>450.045</ele>
        <time>2021-07-27T09:43:18Z</time>
      </trkpt>
      <trkpt lat="42.569116" lon="-2.192360">
        <ele>451.457</ele>
        <time>2021-07-27T09:43:36Z</time>
      </trkpt>
      <trkpt lat="42.569127" lon="-2.192352">
        <ele>451.994</ele>
        <time>2021-07-27T09:43:38Z</time>
      </trkpt>
      <trkpt lat="42.569144" lon="-2.192312">
        <ele>453.864</ele>
        <time>2021-07-27T09:43:44Z</time>
      </trkpt>
      <trkpt lat="42.569160" lon="-2.192360">
        <ele>456.778</ele>
        <time>2021-07-27T09:43:53Z</time>
      </trkpt>
      <trkpt lat="42.569158" lon="-2.192417">
        <ele>461.546</ele>
        <time>2021-07-27T09:44:00Z</time>
      </trkpt>
      <trkpt lat="42.569154" lon="-2.192466">
        <ele>464.963</ele>
        <time>2021-07-27T09:44:13Z</time>
      </trkpt>
      <trkpt lat="42.569167" lon="-2.192490">
        <ele>468.791</ele>
        <time>2021-07-27T09:44:19Z</time>
      </trkpt>
      <trkpt lat="42.569183" lon="-2.192492">
        <ele>469.255</ele>
        <time>2021-07-27T09:44:27Z</time>
      </trkpt>
      <trkpt lat="42.569196" lon="-2.192489">
        <ele>468.707</ele>
        <time>2021-07-27T09:44:30Z</time>
      </trkpt>
      <trkpt lat="42.569294" lon="-2.192385">
        <ele>461.517</ele>
        <time>2021-07-27T09:44:38Z</time>
      </trkpt>
      <trkpt lat="42.569355" lon="-2.192250">
        <ele>456.208</ele>
        <time>2021-07-27T09:44:46Z</time>
      </trkpt>
      <trkpt lat="42.569391" lon="-2.192168">
        <ele>452.462</ele>
        <time>2021-07-27T09:44:50Z</time>
      </trkpt>
      <trkpt lat="42.569445" lon="-2.192020">
        <ele>448.184</ele>
        <time>2021-07-27T09:44:57Z</time>
      </trkpt>
      <trkpt lat="42.569507" lon="-2.191982">
        <ele>442.381</ele>
        <time>2021-07-27T09:45:06Z</time>
      </trkpt>
      <trkpt lat="42.569467" lon="-2.191855">
        <ele>439.951</ele>
        <time>2021-07-27T09:45:11Z</time>
      </trkpt>
      <trkpt lat="42.569422" lon="-2.191807">
        <ele>437.045</ele>
        <time>2021-07-27T09:45:15Z</time>
      </trkpt>
      <trkpt lat="42.569344" lon="-2.191780">
        <ele>430.853</ele>
        <time>2021-07-27T09:45:22Z</time>
      </trkpt>
      <trkpt lat="42.569190" lon="-2.191688">
        <ele>428.440</ele>
        <time>2021-07-27T09:45:29Z</time>
      </trkpt>
      <trkpt lat="42.569117" lon="-2.191656">
        <ele>430.338</ele>
        <time>2021-07-27T09:45:33Z</time>
      </trkpt>
      <trkpt lat="42.569056" lon="-2.191640">
        <ele>436.179</ele>
        <time>2021-07-27T09:45:45Z</time>
      </trkpt>
      <trkpt lat="42.569039" lon="-2.191637">
        <ele>437.505</ele>
        <time>2021-07-27T09:45:58Z</time>
      </trkpt>
      <trkpt lat="42.569024" lon="-2.191615">
        <ele>444.725</ele>
        <time>2021-07-27T09:46:17Z</time>
      </trkpt>
      <trkpt lat="42.569046" lon="-2.191589">
        <ele>451.908</ele>
        <time>2021-07-27T09:46:47Z</time>
      </trkpt>
      <trkpt lat="42.569054" lon="-2.191585">
        <ele>454.384</ele>
        <time>2021-07-27T09:47:17Z</time>
      </trkpt>
      <trkpt lat="42.569041" lon="-2.191588">
        <ele>455.346</ele>
        <time>2021-07-27T09:47:42Z</time>
      </trkpt>
      <trkpt lat="42.569033" lon="-2.191594">
        <ele>456.223</ele>
        <time>2021-07-27T09:48:04Z</time>
      </trkpt>
      <trkpt lat="42.569042" lon="-2.191610">
        <ele>458.273</ele>
        <time>2021-07-27T09:48:34Z</time>
      </trkpt>
      <trkpt lat="42.569042" lon="-2.191615">
        <ele>459.687</ele>
        <time>2021-07-27T09:48:56Z</time>
      </trkpt>
      <trkpt lat="42.569041" lon="-2.191624">
        <ele>461.545</ele>
        <time>2021-07-27T09:49:22Z</time>
      </trkpt>
      <trkpt lat="42.569035" lon="-2.191629">
        <ele>461.572</ele>
        <time>2021-07-27T09:49:45Z</time>
      </trkpt>
      <trkpt lat="42.569024" lon="-2.191633">
        <ele>461.090</ele>
        <time>2021-07-27T09:50:02Z</time>
      </trkpt>
      <trkpt lat="42.569017" lon="-2.191639">
        <ele>460.629</ele>
        <time>2021-07-27T09:50:26Z</time>
      </trkpt>
      <trkpt lat="42.569018" lon="-2.191650">
        <ele>460.100</ele>
        <time>2021-07-27T09:50:49Z</time>
      </trkpt>
      <trkpt lat="42.569017" lon="-2.191647">
        <ele>459.620</ele>
        <time>2021-07-27T09:51:10Z</time>
      </trkpt>
      <trkpt lat="42.569021" lon="-2.191645">
        <ele>460.108</ele>
        <time>2021-07-27T09:51:31Z</time>
      </trkpt>
      <trkpt lat="42.569027" lon="-2.191654">
        <ele>459.649</ele>
        <time>2021-07-27T09:51:50Z</time>
      </trkpt>
      <trkpt lat="42.569030" lon="-2.191646">
        <ele>459.661</ele>
        <time>2021-07-27T09:52:01Z</time>
      </trkpt>
      <trkpt lat="42.569028" lon="-2.191641">
        <ele>459.118</ele>
        <time>2021-07-27T09:52:16Z</time>
      </trkpt>
      <trkpt lat="42.569009" lon="-2.191623">
        <ele>458.678</ele>
        <time>2021-07-27T09:52:20Z</time>
      </trkpt>
      <trkpt lat="42.568900" lon="-2.191513">
        <ele>453.412</ele>
        <time>2021-07-27T09:52:28Z</time>
      </trkpt>
      <trkpt lat="42.568889" lon="-2.191498">
        <ele>452.480</ele>
        <time>2021-07-27T09:52:29Z</time>
      </trkpt>
      <trkpt lat="42.568825" lon="-2.191389">
        <ele>445.777</ele>
        <time>2021-07-27T09:52:36Z</time>
      </trkpt>
      <trkpt lat="42.568740" lon="-2.191308">
        <ele>445.265</ele>
        <time>2021-07-27T09:52:42Z</time>
      </trkpt>
      <trkpt lat="42.568540" lon="-2.191168">
        <ele>450.548</ele>
        <time>2021-07-27T09:52:52Z</time>
      </trkpt>
      <trkpt lat="42.568522" lon="-2.191155">
        <ele>450.561</ele>
        <time>2021-07-27T09:52:53Z</time>
      </trkpt>
      <trkpt lat="42.568505" lon="-2.191105">
        <ele>451.417</ele>
        <time>2021-07-27T09:52:55Z</time>
      </trkpt>
      <trkpt lat="42.568507" lon="-2.191069">
        <ele>451.408</ele>
        <time>2021-07-27T09:52:57Z</time>
      </trkpt>
      <trkpt lat="42.568515" lon="-2.191023">
        <ele>451.411</ele>
        <time>2021-07-27T09:52:58Z</time>
      </trkpt>
      <trkpt lat="42.568520" lon="-2.190996">
        <ele>451.483</ele>
        <time>2021-07-27T09:52:59Z</time>
      </trkpt>
      <trkpt lat="42.568542" lon="-2.190910">
        <ele>451.930</ele>
        <time>2021-07-27T09:53:03Z</time>
      </trkpt>
      <trkpt lat="42.568558" lon="-2.190895">
        <ele>451.010</ele>
        <time>2021-07-27T09:53:09Z</time>
      </trkpt>
      <trkpt lat="42.568582" lon="-2.190870">
        <ele>450.544</ele>
        <time>2021-07-27T09:53:20Z</time>
      </trkpt>
      <trkpt lat="42.568648" lon="-2.190697">
        <ele>452.492</ele>
        <time>2021-07-27T09:53:28Z</time>
      </trkpt>
      <trkpt lat="42.568655" lon="-2.190434">
        <ele>457.719</ele>
        <time>2021-07-27T09:53:38Z</time>
      </trkpt>
      <trkpt lat="42.568686" lon="-2.190164">
        <ele>459.617</ele>
        <time>2021-07-27T09:53:47Z</time>
      </trkpt>
      <trkpt lat="42.568727" lon="-2.189867">
        <ele>460.127</ele>
        <time>2021-07-27T09:53:56Z</time>
      </trkpt>
      <trkpt lat="42.568765" lon="-2.189571">
        <ele>460.168</ele>
        <time>2021-07-27T09:54:05Z</time>
      </trkpt>
      <trkpt lat="42.568812" lon="-2.189161">
        <ele>462.014</ele>
        <time>2021-07-27T09:54:17Z</time>
      </trkpt>
      <trkpt lat="42.568859" lon="-2.188860">
        <ele>462.008</ele>
        <time>2021-07-27T09:54:26Z</time>
      </trkpt>
      <trkpt lat="42.568914" lon="-2.188512">
        <ele>462.529</ele>
        <time>2021-07-27T09:54:36Z</time>
      </trkpt>
      <trkpt lat="42.568975" lon="-2.188125">
        <ele>463.981</ele>
        <time>2021-07-27T09:54:47Z</time>
      </trkpt>
      <trkpt lat="42.569040" lon="-2.187776">
        <ele>464.978</ele>
        <time>2021-07-27T09:54:57Z</time>
      </trkpt>
      <trkpt lat="42.569096" lon="-2.187467">
        <ele>465.478</ele>
        <time>2021-07-27T09:55:06Z</time>
      </trkpt>
      <trkpt lat="42.569114" lon="-2.187179">
        <ele>465.912</ele>
        <time>2021-07-27T09:55:15Z</time>
      </trkpt>
      <trkpt lat="42.569092" lon="-2.187169">
        <ele>465.460</ele>
        <time>2021-07-27T09:55:16Z</time>
      </trkpt>
      <trkpt lat="42.569069" lon="-2.187164">
        <ele>465.427</ele>
        <time>2021-07-27T09:55:17Z</time>
      </trkpt>
      <trkpt lat="42.568936" lon="-2.187114">
        <ele>463.445</ele>
        <time>2021-07-27T09:55:21Z</time>
      </trkpt>
      <trkpt lat="42.568897" lon="-2.187089">
        <ele>463.082</ele>
        <time>2021-07-27T09:55:22Z</time>
      </trkpt>
      <trkpt lat="42.568675" lon="-2.186911">
        <ele>460.143</ele>
        <time>2021-07-27T09:55:29Z</time>
      </trkpt>
      <trkpt lat="42.568664" lon="-2.186904">
        <ele>460.617</ele>
        <time>2021-07-27T09:55:34Z</time>
      </trkpt>
      <trkpt lat="42.568669" lon="-2.186908">
        <ele>459.608</ele>
        <time>2021-07-27T09:55:44Z</time>
      </trkpt>
      <trkpt lat="42.568681" lon="-2.186934">
        <ele>463.425</ele>
        <time>2021-07-27T09:56:02Z</time>
      </trkpt>
      <trkpt lat="42.568651" lon="-2.186896">
        <ele>463.037</ele>
        <time>2021-07-27T09:56:19Z</time>
      </trkpt>
      <trkpt lat="42.568693" lon="-2.186913">
        <ele>467.314</ele>
        <time>2021-07-27T09:56:36Z</time>
      </trkpt>
      <trkpt lat="42.568664" lon="-2.186885">
        <ele>464.464</ele>
        <time>2021-07-27T09:56:51Z</time>
      </trkpt>
      <trkpt lat="42.568703" lon="-2.186914">
        <ele>467.358</ele>
        <time>2021-07-27T09:57:06Z</time>
      </trkpt>
      <trkpt lat="42.568666" lon="-2.186903">
        <ele>462.036</ele>
        <time>2021-07-27T09:57:22Z</time>
      </trkpt>
      <trkpt lat="42.568675" lon="-2.186880">
        <ele>463.023</ele>
        <time>2021-07-27T09:57:32Z</time>
      </trkpt>
      <trkpt lat="42.568683" lon="-2.186887">
        <ele>462.051</ele>
        <time>2021-07-27T09:57:39Z</time>
      </trkpt>
      <trkpt lat="42.568692" lon="-2.186893">
        <ele>462.066</ele>
        <time>2021-07-27T09:57:40Z</time>
      </trkpt>
      <trkpt lat="42.568701" lon="-2.186905">
        <ele>462.029</ele>
        <time>2021-07-27T09:57:41Z</time>
      </trkpt>
      <trkpt lat="42.568715" lon="-2.186923">
        <ele>462.021</ele>
        <time>2021-07-27T09:57:42Z</time>
      </trkpt>
      <trkpt lat="42.568728" lon="-2.186937">
        <ele>462.008</ele>
        <time>2021-07-27T09:57:43Z</time>
      </trkpt>
      <trkpt lat="42.568746" lon="-2.186954">
        <ele>462.013</ele>
        <time>2021-07-27T09:57:44Z</time>
      </trkpt>
      <trkpt lat="42.568765" lon="-2.186973">
        <ele>462.035</ele>
        <time>2021-07-27T09:57:45Z</time>
      </trkpt>
      <trkpt lat="42.568943" lon="-2.187088">
        <ele>463.912</ele>
        <time>2021-07-27T09:57:53Z</time>
      </trkpt>
      <trkpt lat="42.569101" lon="-2.187136">
        <ele>464.442</ele>
        <time>2021-07-27T09:58:02Z</time>
      </trkpt>
      <trkpt lat="42.569139" lon="-2.187111">
        <ele>464.996</ele>
        <time>2021-07-27T09:58:05Z</time>
      </trkpt>
      <trkpt lat="42.569148" lon="-2.187088">
        <ele>464.924</ele>
        <time>2021-07-27T09:58:06Z</time>
      </trkpt>
      <trkpt lat="42.569202" lon="-2.186789">
        <ele>465.411</ele>
        <time>2021-07-27T09:58:14Z</time>
      </trkpt>
      <trkpt lat="42.569259" lon="-2.186427">
        <ele>466.359</ele>
        <time>2021-07-27T09:58:23Z</time>
      </trkpt>
      <trkpt lat="42.569331" lon="-2.185968">
        <ele>465.938</ele>
        <time>2021-07-27T09:58:34Z</time>
      </trkpt>
      <trkpt lat="42.569403" lon="-2.185522">
        <ele>466.370</ele>
        <time>2021-07-27T09:58:44Z</time>
      </trkpt>
      <trkpt lat="42.569471" lon="-2.185078">
        <ele>466.817</ele>
        <time>2021-07-27T09:58:54Z</time>
      </trkpt>
      <trkpt lat="42.569543" lon="-2.184678">
        <ele>466.308</ele>
        <time>2021-07-27T09:59:03Z</time>
      </trkpt>
      <trkpt lat="42.569628" lon="-2.184138">
        <ele>466.860</ele>
        <time>2021-07-27T09:59:15Z</time>
      </trkpt>
      <trkpt lat="42.569698" lon="-2.183723">
        <ele>467.862</ele>
        <time>2021-07-27T09:59:24Z</time>
      </trkpt>
      <trkpt lat="42.569780" lon="-2.183253">
        <ele>467.899</ele>
        <time>2021-07-27T09:59:34Z</time>
      </trkpt>
      <trkpt lat="42.569839" lon="-2.182879">
        <ele>467.839</ele>
        <time>2021-07-27T09:59:42Z</time>
      </trkpt>
      <trkpt lat="42.569921" lon="-2.182400">
        <ele>468.313</ele>
        <time>2021-07-27T09:59:52Z</time>
      </trkpt>
      <trkpt lat="42.570023" lon="-2.181792">
        <ele>468.331</ele>
        <time>2021-07-27T10:00:04Z</time>
      </trkpt>
      <trkpt lat="42.570123" lon="-2.181148">
        <ele>467.368</ele>
        <time>2021-07-27T10:00:16Z</time>
      </trkpt>
      <trkpt lat="42.570208" lon="-2.180617">
        <ele>467.856</ele>
        <time>2021-07-27T10:00:26Z</time>
      </trkpt>
      <trkpt lat="42.570312" lon="-2.180008">
        <ele>468.362</ele>
        <time>2021-07-27T10:00:37Z</time>
      </trkpt>
      <trkpt lat="42.570329" lon="-2.179900">
        <ele>468.783</ele>
        <time>2021-07-27T10:00:39Z</time>
      </trkpt>
      <trkpt lat="42.570334" lon="-2.179846">
        <ele>468.711</ele>
        <time>2021-07-27T10:00:40Z</time>
      </trkpt>
      <trkpt lat="42.570428" lon="-2.179279">
        <ele>469.708</ele>
        <time>2021-07-27T10:00:51Z</time>
      </trkpt>
      <trkpt lat="42.570526" lon="-2.178743">
        <ele>470.223</ele>
        <time>2021-07-27T10:01:02Z</time>
      </trkpt>
      <trkpt lat="42.570599" lon="-2.178232">
        <ele>470.235</ele>
        <time>2021-07-27T10:01:13Z</time>
      </trkpt>
      <trkpt lat="42.570648" lon="-2.177944">
        <ele>470.222</ele>
        <time>2021-07-27T10:01:21Z</time>
      </trkpt>
      <trkpt lat="42.570646" lon="-2.177866">
        <ele>470.232</ele>
        <time>2021-07-27T10:01:27Z</time>
      </trkpt>
      <trkpt lat="42.570665" lon="-2.177870">
        <ele>470.746</ele>
        <time>2021-07-27T10:01:42Z</time>
      </trkpt>
      <trkpt lat="42.570651" lon="-2.177863">
        <ele>470.234</ele>
        <time>2021-07-27T10:02:03Z</time>
      </trkpt>
      <trkpt lat="42.570650" lon="-2.177857">
        <ele>470.241</ele>
        <time>2021-07-27T10:02:12Z</time>
      </trkpt>
      <trkpt lat="42.570655" lon="-2.177844">
        <ele>470.259</ele>
        <time>2021-07-27T10:02:13Z</time>
      </trkpt>
      <trkpt lat="42.570659" lon="-2.177824">
        <ele>470.299</ele>
        <time>2021-07-27T10:02:14Z</time>
      </trkpt>
      <trkpt lat="42.570663" lon="-2.177804">
        <ele>470.207</ele>
        <time>2021-07-27T10:02:15Z</time>
      </trkpt>
      <trkpt lat="42.570670" lon="-2.177780">
        <ele>470.227</ele>
        <time>2021-07-27T10:02:16Z</time>
      </trkpt>
      <trkpt lat="42.570680" lon="-2.177750">
        <ele>470.208</ele>
        <time>2021-07-27T10:02:17Z</time>
      </trkpt>
      <trkpt lat="42.570688" lon="-2.177721">
        <ele>470.786</ele>
        <time>2021-07-27T10:02:18Z</time>
      </trkpt>
      <trkpt lat="42.570755" lon="-2.177335">
        <ele>471.118</ele>
        <time>2021-07-27T10:02:27Z</time>
      </trkpt>
      <trkpt lat="42.570849" lon="-2.176760">
        <ele>471.145</ele>
        <time>2021-07-27T10:02:39Z</time>
      </trkpt>
      <trkpt lat="42.570942" lon="-2.176181">
        <ele>472.155</ele>
        <time>2021-07-27T10:02:50Z</time>
      </trkpt>
      <trkpt lat="42.571032" lon="-2.175576">
        <ele>472.619</ele>
        <time>2021-07-27T10:03:02Z</time>
      </trkpt>
      <trkpt lat="42.571072" lon="-2.175066">
        <ele>471.637</ele>
        <time>2021-07-27T10:03:12Z</time>
      </trkpt>
      <trkpt lat="42.571117" lon="-2.174429">
        <ele>469.244</ele>
        <time>2021-07-27T10:03:23Z</time>
      </trkpt>
      <trkpt lat="42.571152" lon="-2.173887">
        <ele>466.812</ele>
        <time>2021-07-27T10:03:30Z</time>
      </trkpt>
      <trkpt lat="42.571151" lon="-2.173811">
        <ele>466.827</ele>
        <time>2021-07-27T10:03:31Z</time>
      </trkpt>
      <trkpt lat="42.571141" lon="-2.173736">
        <ele>466.368</ele>
        <time>2021-07-27T10:03:32Z</time>
      </trkpt>
      <trkpt lat="42.571066" lon="-2.173430">
        <ele>465.914</ele>
        <time>2021-07-27T10:03:38Z</time>
      </trkpt>
      <trkpt lat="42.571034" lon="-2.173289">
        <ele>466.308</ele>
        <time>2021-07-27T10:03:43Z</time>
      </trkpt>
      <trkpt lat="42.571141" lon="-2.173104">
        <ele>466.339</ele>
        <time>2021-07-27T10:03:48Z</time>
      </trkpt>
      <trkpt lat="42.571352" lon="-2.172802">
        <ele>466.351</ele>
        <time>2021-07-27T10:03:56Z</time>
      </trkpt>
      <trkpt lat="42.571704" lon="-2.172294">
        <ele>466.868</ele>
        <time>2021-07-27T10:04:09Z</time>
      </trkpt>
      <trkpt lat="42.572014" lon="-2.171863">
        <ele>465.968</ele>
        <time>2021-07-27T10:04:20Z</time>
      </trkpt>
      <trkpt lat="42.572344" lon="-2.171405">
        <ele>464.982</ele>
        <time>2021-07-27T10:04:31Z</time>
      </trkpt>
      <trkpt lat="42.572375" lon="-2.171362">
        <ele>464.940</ele>
        <time>2021-07-27T10:04:32Z</time>
      </trkpt>
      <trkpt lat="42.572723" lon="-2.170890">
        <ele>464.437</ele>
        <time>2021-07-27T10:04:43Z</time>
      </trkpt>
      <trkpt lat="42.573057" lon="-2.170423">
        <ele>463.965</ele>
        <time>2021-07-27T10:04:53Z</time>
      </trkpt>
      <trkpt lat="42.573399" lon="-2.169874">
        <ele>463.434</ele>
        <time>2021-07-27T10:05:04Z</time>
      </trkpt>
      <trkpt lat="42.573694" lon="-2.169302">
        <ele>463.455</ele>
        <time>2021-07-27T10:05:15Z</time>
      </trkpt>
      <trkpt lat="42.573931" lon="-2.168746">
        <ele>463.910</ele>
        <time>2021-07-27T10:05:26Z</time>
      </trkpt>
      <trkpt lat="42.574086" lon="-2.168267">
        <ele>464.408</ele>
        <time>2021-07-27T10:05:36Z</time>
      </trkpt>
      <trkpt lat="42.574184" lon="-2.167868">
        <ele>464.910</ele>
        <time>2021-07-27T10:05:45Z</time>
      </trkpt>
      <trkpt lat="42.574322" lon="-2.167180">
        <ele>465.922</ele>
        <time>2021-07-27T10:06:00Z</time>
      </trkpt>
      <trkpt lat="42.574401" lon="-2.166737">
        <ele>465.949</ele>
        <time>2021-07-27T10:06:09Z</time>
      </trkpt>
      <trkpt lat="42.574492" lon="-2.166253">
        <ele>466.339</ele>
        <time>2021-07-27T10:06:19Z</time>
      </trkpt>
      <trkpt lat="42.574608" lon="-2.165631">
        <ele>466.813</ele>
        <time>2021-07-27T10:06:31Z</time>
      </trkpt>
      <trkpt lat="42.574714" lon="-2.165077">
        <ele>467.361</ele>
        <time>2021-07-27T10:06:42Z</time>
      </trkpt>
      <trkpt lat="42.574835" lon="-2.164473">
        <ele>467.888</ele>
        <time>2021-07-27T10:06:55Z</time>
      </trkpt>
      <trkpt lat="42.574954" lon="-2.163824">
        <ele>468.786</ele>
        <time>2021-07-27T10:07:08Z</time>
      </trkpt>
      <trkpt lat="42.575030" lon="-2.163442">
        <ele>469.275</ele>
        <time>2021-07-27T10:07:16Z</time>
      </trkpt>
      <trkpt lat="42.575125" lon="-2.162906">
        <ele>469.728</ele>
        <time>2021-07-27T10:07:26Z</time>
      </trkpt>
      <trkpt lat="42.575209" lon="-2.162464">
        <ele>470.720</ele>
        <time>2021-07-27T10:07:35Z</time>
      </trkpt>
      <trkpt lat="42.575316" lon="-2.161892">
        <ele>471.608</ele>
        <time>2021-07-27T10:07:47Z</time>
      </trkpt>
      <trkpt lat="42.575416" lon="-2.161353">
        <ele>472.164</ele>
        <time>2021-07-27T10:07:58Z</time>
      </trkpt>
      <trkpt lat="42.575540" lon="-2.160733">
        <ele>473.136</ele>
        <time>2021-07-27T10:08:11Z</time>
      </trkpt>
      <trkpt lat="42.575587" lon="-2.160490">
        <ele>474.013</ele>
        <time>2021-07-27T10:08:18Z</time>
      </trkpt>
      <trkpt lat="42.575651" lon="-2.160123">
        <ele>474.533</ele>
        <time>2021-07-27T10:08:27Z</time>
      </trkpt>
      <trkpt lat="42.575741" lon="-2.159635">
        <ele>475.997</ele>
        <time>2021-07-27T10:08:39Z</time>
      </trkpt>
      <trkpt lat="42.575825" lon="-2.159190">
        <ele>477.425</ele>
        <time>2021-07-27T10:08:50Z</time>
      </trkpt>
      <trkpt lat="42.575885" lon="-2.158859">
        <ele>478.382</ele>
        <time>2021-07-27T10:08:59Z</time>
      </trkpt>
      <trkpt lat="42.575951" lon="-2.158478">
        <ele>478.880</ele>
        <time>2021-07-27T10:09:09Z</time>
      </trkpt>
      <trkpt lat="42.576020" lon="-2.158123">
        <ele>480.379</ele>
        <time>2021-07-27T10:09:19Z</time>
      </trkpt>
      <trkpt lat="42.576100" lon="-2.157720">
        <ele>481.705</ele>
        <time>2021-07-27T10:09:31Z</time>
      </trkpt>
      <trkpt lat="42.576144" lon="-2.157488">
        <ele>482.725</ele>
        <time>2021-07-27T10:09:38Z</time>
      </trkpt>
      <trkpt lat="42.576209" lon="-2.157115">
        <ele>483.608</ele>
        <time>2021-07-27T10:09:49Z</time>
      </trkpt>
      <trkpt lat="42.576290" lon="-2.156721">
        <ele>484.654</ele>
        <time>2021-07-27T10:10:00Z</time>
      </trkpt>
      <trkpt lat="42.576355" lon="-2.156342">
        <ele>485.196</ele>
        <time>2021-07-27T10:10:11Z</time>
      </trkpt>
      <trkpt lat="42.576405" lon="-2.156059">
        <ele>486.083</ele>
        <time>2021-07-27T10:10:20Z</time>
      </trkpt>
      <trkpt lat="42.576527" lon="-2.155723">
        <ele>488.073</ele>
        <time>2021-07-27T10:10:32Z</time>
      </trkpt>
      <trkpt lat="42.576615" lon="-2.155550">
        <ele>488.947</ele>
        <time>2021-07-27T10:10:39Z</time>
      </trkpt>
      <trkpt lat="42.576718" lon="-2.155368">
        <ele>490.435</ele>
        <time>2021-07-27T10:10:47Z</time>
      </trkpt>
      <trkpt lat="42.576873" lon="-2.155141">
        <ele>492.322</ele>
        <time>2021-07-27T10:10:57Z</time>
      </trkpt>
      <trkpt lat="42.577040" lon="-2.154932">
        <ele>494.210</ele>
        <time>2021-07-27T10:11:07Z</time>
      </trkpt>
      <trkpt lat="42.577167" lon="-2.154757">
        <ele>494.791</ele>
        <time>2021-07-27T10:11:15Z</time>
      </trkpt>
      <trkpt lat="42.577319" lon="-2.154561">
        <ele>495.781</ele>
        <time>2021-07-27T10:11:24Z</time>
      </trkpt>
      <trkpt lat="42.577553" lon="-2.154258">
        <ele>496.119</ele>
        <time>2021-07-27T10:11:36Z</time>
      </trkpt>
      <trkpt lat="42.577720" lon="-2.154029">
        <ele>496.608</ele>
        <time>2021-07-27T10:11:44Z</time>
      </trkpt>
      <trkpt lat="42.577926" lon="-2.153777">
        <ele>496.166</ele>
        <time>2021-07-27T10:11:53Z</time>
      </trkpt>
      <trkpt lat="42.578187" lon="-2.153471">
        <ele>495.218</ele>
        <time>2021-07-27T10:12:03Z</time>
      </trkpt>
      <trkpt lat="42.578476" lon="-2.153133">
        <ele>493.755</ele>
        <time>2021-07-27T10:12:12Z</time>
      </trkpt>
      <trkpt lat="42.578834" lon="-2.152751">
        <ele>492.865</ele>
        <time>2021-07-27T10:12:20Z</time>
      </trkpt>
      <trkpt lat="42.578884" lon="-2.152692">
        <ele>492.339</ele>
        <time>2021-07-27T10:12:21Z</time>
      </trkpt>
      <trkpt lat="42.578931" lon="-2.152622">
        <ele>491.877</ele>
        <time>2021-07-27T10:12:22Z</time>
      </trkpt>
      <trkpt lat="42.578974" lon="-2.152540">
        <ele>491.814</ele>
        <time>2021-07-27T10:12:23Z</time>
      </trkpt>
      <trkpt lat="42.579002" lon="-2.152457">
        <ele>491.872</ele>
        <time>2021-07-27T10:12:24Z</time>
      </trkpt>
      <trkpt lat="42.579020" lon="-2.152361">
        <ele>492.365</ele>
        <time>2021-07-27T10:12:25Z</time>
      </trkpt>
      <trkpt lat="42.579025" lon="-2.152273">
        <ele>492.368</ele>
        <time>2021-07-27T10:12:26Z</time>
      </trkpt>
      <trkpt lat="42.579019" lon="-2.152178">
        <ele>492.314</ele>
        <time>2021-07-27T10:12:27Z</time>
      </trkpt>
      <trkpt lat="42.579003" lon="-2.152096">
        <ele>491.808</ele>
        <time>2021-07-27T10:12:28Z</time>
      </trkpt>
      <trkpt lat="42.578984" lon="-2.152013">
        <ele>491.863</ele>
        <time>2021-07-27T10:12:29Z</time>
      </trkpt>
      <trkpt lat="42.578968" lon="-2.151940">
        <ele>491.355</ele>
        <time>2021-07-27T10:12:30Z</time>
      </trkpt>
      <trkpt lat="42.578948" lon="-2.151865">
        <ele>491.352</ele>
        <time>2021-07-27T10:12:31Z</time>
      </trkpt>
      <trkpt lat="42.578867" lon="-2.151494">
        <ele>490.492</ele>
        <time>2021-07-27T10:12:36Z</time>
      </trkpt>
      <trkpt lat="42.578869" lon="-2.151429">
        <ele>490.496</ele>
        <time>2021-07-27T10:12:37Z</time>
      </trkpt>
      <trkpt lat="42.578881" lon="-2.151305">
        <ele>490.824</ele>
        <time>2021-07-27T10:12:39Z</time>
      </trkpt>
      <trkpt lat="42.578889" lon="-2.151250">
        <ele>490.841</ele>
        <time>2021-07-27T10:12:40Z</time>
      </trkpt>
      <trkpt lat="42.578902" lon="-2.151198">
        <ele>490.819</ele>
        <time>2021-07-27T10:12:41Z</time>
      </trkpt>
      <trkpt lat="42.579035" lon="-2.150930">
        <ele>492.884</ele>
        <time>2021-07-27T10:12:48Z</time>
      </trkpt>
      <trkpt lat="42.579188" lon="-2.150710">
        <ele>494.207</ele>
        <time>2021-07-27T10:12:55Z</time>
      </trkpt>
      <trkpt lat="42.579378" lon="-2.150432">
        <ele>495.717</ele>
        <time>2021-07-27T10:13:05Z</time>
      </trkpt>
      <trkpt lat="42.579579" lon="-2.150141">
        <ele>497.608</ele>
        <time>2021-07-27T10:13:16Z</time>
      </trkpt>
      <trkpt lat="42.579786" lon="-2.149832">
        <ele>499.595</ele>
        <time>2021-07-27T10:13:28Z</time>
      </trkpt>
      <trkpt lat="42.579934" lon="-2.149609">
        <ele>500.997</ele>
        <time>2021-07-27T10:13:37Z</time>
      </trkpt>
      <trkpt lat="42.580085" lon="-2.149374">
        <ele>500.584</ele>
        <time>2021-07-27T10:13:45Z</time>
      </trkpt>
      <trkpt lat="42.580319" lon="-2.149017">
        <ele>498.134</ele>
        <time>2021-07-27T10:13:54Z</time>
      </trkpt>
      <trkpt lat="42.580636" lon="-2.148546">
        <ele>497.188</ele>
        <time>2021-07-27T10:14:03Z</time>
      </trkpt>
      <trkpt lat="42.580786" lon="-2.148327">
        <ele>499.056</ele>
        <time>2021-07-27T10:14:09Z</time>
      </trkpt>
      <trkpt lat="42.580985" lon="-2.148036">
        <ele>500.593</ele>
        <time>2021-07-27T10:14:19Z</time>
      </trkpt>
      <trkpt lat="42.581177" lon="-2.147754">
        <ele>502.421</ele>
        <time>2021-07-27T10:14:30Z</time>
      </trkpt>
      <trkpt lat="42.581302" lon="-2.147572">
        <ele>503.315</ele>
        <time>2021-07-27T10:14:37Z</time>
      </trkpt>
      <trkpt lat="42.581426" lon="-2.147380">
        <ele>504.865</ele>
        <time>2021-07-27T10:14:45Z</time>
      </trkpt>
      <trkpt lat="42.581589" lon="-2.147146">
        <ele>505.311</ele>
        <time>2021-07-27T10:14:56Z</time>
      </trkpt>
      <trkpt lat="42.581757" lon="-2.146894">
        <ele>506.708</ele>
        <time>2021-07-27T10:15:07Z</time>
      </trkpt>
      <trkpt lat="42.581875" lon="-2.146721">
        <ele>508.648</ele>
        <time>2021-07-27T10:15:15Z</time>
      </trkpt>
      <trkpt lat="42.582006" lon="-2.146517">
        <ele>509.140</ele>
        <time>2021-07-27T10:15:24Z</time>
      </trkpt>
      <trkpt lat="42.582184" lon="-2.146258">
        <ele>510.197</ele>
        <time>2021-07-27T10:15:35Z</time>
      </trkpt>
      <trkpt lat="42.582354" lon="-2.145993">
        <ele>511.077</ele>
        <time>2021-07-27T10:15:45Z</time>
      </trkpt>
      <trkpt lat="42.582483" lon="-2.145810">
        <ele>512.041</ele>
        <time>2021-07-27T10:15:53Z</time>
      </trkpt>
      <trkpt lat="42.582541" lon="-2.145735">
        <ele>513.059</ele>
        <time>2021-07-27T10:16:00Z</time>
      </trkpt>
      <trkpt lat="42.582549" lon="-2.145721">
        <ele>513.016</ele>
        <time>2021-07-27T10:16:01Z</time>
      </trkpt>
      <trkpt lat="42.582558" lon="-2.145706">
        <ele>513.034</ele>
        <time>2021-07-27T10:16:02Z</time>
      </trkpt>
      <trkpt lat="42.582665" lon="-2.145545">
        <ele>513.974</ele>
        <time>2021-07-27T10:16:11Z</time>
      </trkpt>
      <trkpt lat="42.582828" lon="-2.145304">
        <ele>514.956</ele>
        <time>2021-07-27T10:16:22Z</time>
      </trkpt>
      <trkpt lat="42.582936" lon="-2.145141">
        <ele>514.421</ele>
        <time>2021-07-27T10:16:30Z</time>
      </trkpt>
      <trkpt lat="42.583082" lon="-2.144915">
        <ele>513.008</ele>
        <time>2021-07-27T10:16:39Z</time>
      </trkpt>
      <trkpt lat="42.583306" lon="-2.144563">
        <ele>511.574</ele>
        <time>2021-07-27T10:16:47Z</time>
      </trkpt>
      <trkpt lat="42.583622" lon="-2.144099">
        <ele>509.666</ele>
        <time>2021-07-27T10:16:55Z</time>
      </trkpt>
      <trkpt lat="42.584031" lon="-2.143499">
        <ele>508.143</ele>
        <time>2021-07-27T10:17:04Z</time>
      </trkpt>
      <trkpt lat="42.584271" lon="-2.143136">
        <ele>509.133</ele>
        <time>2021-07-27T10:17:11Z</time>
      </trkpt>
      <trkpt lat="42.584428" lon="-2.142905">
        <ele>510.147</ele>
        <time>2021-07-27T10:17:18Z</time>
      </trkpt>
      <trkpt lat="42.584646" lon="-2.142573">
        <ele>510.175</ele>
        <time>2021-07-27T10:17:27Z</time>
      </trkpt>
      <trkpt lat="42.584896" lon="-2.142202">
        <ele>508.652</ele>
        <time>2021-07-27T10:17:36Z</time>
      </trkpt>
      <trkpt lat="42.585221" lon="-2.141716">
        <ele>507.790</ele>
        <time>2021-07-27T10:17:46Z</time>
      </trkpt>
      <trkpt lat="42.585504" lon="-2.141299">
        <ele>507.271</ele>
        <time>2021-07-27T10:17:54Z</time>
      </trkpt>
      <trkpt lat="42.585825" lon="-2.140846">
        <ele>507.741</ele>
        <time>2021-07-27T10:18:04Z</time>
      </trkpt>
      <trkpt lat="42.586107" lon="-2.140427">
        <ele>508.115</ele>
        <time>2021-07-27T10:18:15Z</time>
      </trkpt>
      <trkpt lat="42.586372" lon="-2.140038">
        <ele>508.608</ele>
        <time>2021-07-27T10:18:25Z</time>
      </trkpt>
      <trkpt lat="42.586584" lon="-2.139713">
        <ele>508.624</ele>
        <time>2021-07-27T10:18:34Z</time>
      </trkpt>
      <trkpt lat="42.586826" lon="-2.139342">
        <ele>507.236</ele>
        <time>2021-07-27T10:18:43Z</time>
      </trkpt>
      <trkpt lat="42.586857" lon="-2.139300">
        <ele>507.283</ele>
        <time>2021-07-27T10:18:44Z</time>
      </trkpt>
      <trkpt lat="42.587098" lon="-2.138947">
        <ele>505.733</ele>
        <time>2021-07-27T10:18:52Z</time>
      </trkpt>
      <trkpt lat="42.587421" lon="-2.138589">
        <ele>504.387</ele>
        <time>2021-07-27T10:19:01Z</time>
      </trkpt>
      <trkpt lat="42.587883" lon="-2.138169">
        <ele>502.475</ele>
        <time>2021-07-27T10:19:11Z</time>
      </trkpt>
      <trkpt lat="42.588462" lon="-2.137674">
        <ele>500.942</ele>
        <time>2021-07-27T10:19:23Z</time>
      </trkpt>
      <trkpt lat="42.588973" lon="-2.137379">
        <ele>499.520</ele>
        <time>2021-07-27T10:19:32Z</time>
      </trkpt>
      <trkpt lat="42.589484" lon="-2.137321">
        <ele>499.045</ele>
        <time>2021-07-27T10:19:40Z</time>
      </trkpt>
      <trkpt lat="42.589860" lon="-2.137292">
        <ele>499.547</ele>
        <time>2021-07-27T10:19:47Z</time>
      </trkpt>
      <trkpt lat="42.590353" lon="-2.137239">
        <ele>500.011</ele>
        <time>2021-07-27T10:19:57Z</time>
      </trkpt>
      <trkpt lat="42.590519" lon="-2.137217">
        <ele>499.508</ele>
        <time>2021-07-27T10:20:00Z</time>
      </trkpt>
      <trkpt lat="42.590559" lon="-2.137210">
        <ele>499.581</ele>
        <time>2021-07-27T10:20:01Z</time>
      </trkpt>
      <trkpt lat="42.591109" lon="-2.137154">
        <ele>500.933</ele>
        <time>2021-07-27T10:20:13Z</time>
      </trkpt>
      <trkpt lat="42.591464" lon="-2.137128">
        <ele>501.950</ele>
        <time>2021-07-27T10:20:21Z</time>
      </trkpt>
      <trkpt lat="42.591908" lon="-2.137066">
        <ele>502.470</ele>
        <time>2021-07-27T10:20:32Z</time>
      </trkpt>
      <trkpt lat="42.592385" lon="-2.136885">
        <ele>502.954</ele>
        <time>2021-07-27T10:20:44Z</time>
      </trkpt>
      <trkpt lat="42.592686" lon="-2.136643">
        <ele>502.442</ele>
        <time>2021-07-27T10:20:53Z</time>
      </trkpt>
      <trkpt lat="42.592979" lon="-2.136340">
        <ele>502.959</ele>
        <time>2021-07-27T10:21:02Z</time>
      </trkpt>
      <trkpt lat="42.593199" lon="-2.135966">
        <ele>503.857</ele>
        <time>2021-07-27T10:21:12Z</time>
      </trkpt>
      <trkpt lat="42.593318" lon="-2.135709">
        <ele>504.821</ele>
        <time>2021-07-27T10:21:19Z</time>
      </trkpt>
      <trkpt lat="42.593414" lon="-2.135456">
        <ele>504.841</ele>
        <time>2021-07-27T10:21:26Z</time>
      </trkpt>
      <trkpt lat="42.593526" lon="-2.135119">
        <ele>505.305</ele>
        <time>2021-07-27T10:21:35Z</time>
      </trkpt>
      <trkpt lat="42.593656" lon="-2.134727">
        <ele>506.208</ele>
        <time>2021-07-27T10:21:45Z</time>
      </trkpt>
      <trkpt lat="42.593788" lon="-2.134333">
        <ele>506.739</ele>
        <time>2021-07-27T10:21:56Z</time>
      </trkpt>
      <trkpt lat="42.593907" lon="-2.133975">
        <ele>507.281</ele>
        <time>2021-07-27T10:22:05Z</time>
      </trkpt>
      <trkpt lat="42.594092" lon="-2.133429">
        <ele>507.728</ele>
        <time>2021-07-27T10:22:18Z</time>
      </trkpt>
      <trkpt lat="42.594243" lon="-2.132995">
        <ele>508.158</ele>
        <time>2021-07-27T10:22:29Z</time>
      </trkpt>
      <trkpt lat="42.594375" lon="-2.132615">
        <ele>509.132</ele>
        <time>2021-07-27T10:22:39Z</time>
      </trkpt>
      <trkpt lat="42.594504" lon="-2.132217">
        <ele>509.670</ele>
        <time>2021-07-27T10:22:50Z</time>
      </trkpt>
      <trkpt lat="42.594608" lon="-2.131917">
        <ele>509.637</ele>
        <time>2021-07-27T10:22:58Z</time>
      </trkpt>
      <trkpt lat="42.594720" lon="-2.131590">
        <ele>510.195</ele>
        <time>2021-07-27T10:23:07Z</time>
      </trkpt>
      <trkpt lat="42.594800" lon="-2.131359">
        <ele>510.639</ele>
        <time>2021-07-27T10:23:14Z</time>
      </trkpt>
      <trkpt lat="42.594925" lon="-2.130974">
        <ele>510.601</ele>
        <time>2021-07-27T10:23:24Z</time>
      </trkpt>
      <trkpt lat="42.595042" lon="-2.130609">
        <ele>510.621</ele>
        <time>2021-07-27T10:23:34Z</time>
      </trkpt>
      <trkpt lat="42.595131" lon="-2.130337">
        <ele>511.008</ele>
        <time>2021-07-27T10:23:43Z</time>
      </trkpt>
      <trkpt lat="42.595236" lon="-2.130021">
        <ele>510.680</ele>
        <time>2021-07-27T10:23:52Z</time>
      </trkpt>
      <trkpt lat="42.595310" lon="-2.129801">
        <ele>511.542</ele>
        <time>2021-07-27T10:23:58Z</time>
      </trkpt>
      <trkpt lat="42.595402" lon="-2.129507">
        <ele>512.049</ele>
        <time>2021-07-27T10:24:06Z</time>
      </trkpt>
      <trkpt lat="42.595539" lon="-2.129122">
        <ele>512.099</ele>
        <time>2021-07-27T10:24:16Z</time>
      </trkpt>
      <trkpt lat="42.595673" lon="-2.128734">
        <ele>513.053</ele>
        <time>2021-07-27T10:24:26Z</time>
      </trkpt>
      <trkpt lat="42.595832" lon="-2.128282">
        <ele>513.971</ele>
        <time>2021-07-27T10:24:38Z</time>
      </trkpt>
      <trkpt lat="42.595950" lon="-2.127908">
        <ele>514.418</ele>
        <time>2021-07-27T10:24:48Z</time>
      </trkpt>
      <trkpt lat="42.596093" lon="-2.127500">
        <ele>515.476</ele>
        <time>2021-07-27T10:24:59Z</time>
      </trkpt>
      <trkpt lat="42.596175" lon="-2.127265">
        <ele>515.468</ele>
        <time>2021-07-27T10:25:07Z</time>
      </trkpt>
      <trkpt lat="42.596258" lon="-2.127014">
        <ele>515.842</ele>
        <time>2021-07-27T10:25:14Z</time>
      </trkpt>
      <trkpt lat="42.596432" lon="-2.126524">
        <ele>516.826</ele>
        <time>2021-07-27T10:25:27Z</time>
      </trkpt>
      <trkpt lat="42.596545" lon="-2.126183">
        <ele>517.308</ele>
        <time>2021-07-27T10:25:36Z</time>
      </trkpt>
      <trkpt lat="42.596658" lon="-2.125842">
        <ele>517.853</ele>
        <time>2021-07-27T10:25:45Z</time>
      </trkpt>
      <trkpt lat="42.596768" lon="-2.125508">
        <ele>518.275</ele>
        <time>2021-07-27T10:25:54Z</time>
      </trkpt>
      <trkpt lat="42.596911" lon="-2.125088">
        <ele>518.772</ele>
        <time>2021-07-27T10:26:05Z</time>
      </trkpt>
      <trkpt lat="42.597071" lon="-2.124610">
        <ele>519.222</ele>
        <time>2021-07-27T10:26:18Z</time>
      </trkpt>
      <trkpt lat="42.597157" lon="-2.124365">
        <ele>520.276</ele>
        <time>2021-07-27T10:26:26Z</time>
      </trkpt>
      <trkpt lat="42.597249" lon="-2.124089">
        <ele>521.694</ele>
        <time>2021-07-27T10:26:36Z</time>
      </trkpt>
      <trkpt lat="42.597320" lon="-2.123872">
        <ele>522.691</ele>
        <time>2021-07-27T10:26:44Z</time>
      </trkpt>
      <trkpt lat="42.597413" lon="-2.123564">
        <ele>523.539</ele>
        <time>2021-07-27T10:26:54Z</time>
      </trkpt>
      <trkpt lat="42.597503" lon="-2.123298">
        <ele>524.528</ele>
        <time>2021-07-27T10:27:03Z</time>
      </trkpt>
      <trkpt lat="42.597575" lon="-2.123074">
        <ele>525.089</ele>
        <time>2021-07-27T10:27:11Z</time>
      </trkpt>
      <trkpt lat="42.597683" lon="-2.122794">
        <ele>526.417</ele>
        <time>2021-07-27T10:27:21Z</time>
      </trkpt>
      <trkpt lat="42.597761" lon="-2.122597">
        <ele>526.908</ele>
        <time>2021-07-27T10:27:28Z</time>
      </trkpt>
      <trkpt lat="42.597859" lon="-2.122376">
        <ele>527.939</ele>
        <time>2021-07-27T10:27:36Z</time>
      </trkpt>
      <trkpt lat="42.597965" lon="-2.122148">
        <ele>528.861</ele>
        <time>2021-07-27T10:27:44Z</time>
      </trkpt>
      <trkpt lat="42.598077" lon="-2.121937">
        <ele>529.388</ele>
        <time>2021-07-27T10:27:52Z</time>
      </trkpt>
      <trkpt lat="42.598255" lon="-2.121640">
        <ele>528.818</ele>
        <time>2021-07-27T10:28:02Z</time>
      </trkpt>
      <trkpt lat="42.598380" lon="-2.121442">
        <ele>528.842</ele>
        <time>2021-07-27T10:28:10Z</time>
      </trkpt>
      <trkpt lat="42.598539" lon="-2.121190">
        <ele>528.850</ele>
        <time>2021-07-27T10:28:19Z</time>
      </trkpt>
      <trkpt lat="42.598728" lon="-2.120876">
        <ele>528.837</ele>
        <time>2021-07-27T10:28:31Z</time>
      </trkpt>
      <trkpt lat="42.598893" lon="-2.120661">
        <ele>527.925</ele>
        <time>2021-07-27T10:28:39Z</time>
      </trkpt>
      <trkpt lat="42.599036" lon="-2.120422">
        <ele>527.437</ele>
        <time>2021-07-27T10:28:46Z</time>
      </trkpt>
      <trkpt lat="42.599240" lon="-2.120136">
        <ele>525.549</ele>
        <time>2021-07-27T10:28:53Z</time>
      </trkpt>
      <trkpt lat="42.599504" lon="-2.119746">
        <ele>523.513</ele>
        <time>2021-07-27T10:29:00Z</time>
      </trkpt>
      <trkpt lat="42.599632" lon="-2.119535">
        <ele>522.608</ele>
        <time>2021-07-27T10:29:03Z</time>
      </trkpt>
      <trkpt lat="42.599659" lon="-2.119425">
        <ele>522.150</ele>
        <time>2021-07-27T10:29:04Z</time>
      </trkpt>
      <trkpt lat="42.599662" lon="-2.119336">
        <ele>522.122</ele>
        <time>2021-07-27T10:29:05Z</time>
      </trkpt>
      <trkpt lat="42.599662" lon="-2.119228">
        <ele>522.179</ele>
        <time>2021-07-27T10:29:06Z</time>
      </trkpt>
      <trkpt lat="42.599669" lon="-2.119157">
        <ele>522.159</ele>
        <time>2021-07-27T10:29:07Z</time>
      </trkpt>
      <trkpt lat="42.599691" lon="-2.119069">
        <ele>522.193</ele>
        <time>2021-07-27T10:29:08Z</time>
      </trkpt>
      <trkpt lat="42.599733" lon="-2.118986">
        <ele>522.191</ele>
        <time>2021-07-27T10:29:09Z</time>
      </trkpt>
      <trkpt lat="42.599779" lon="-2.118940">
        <ele>522.198</ele>
        <time>2021-07-27T10:29:10Z</time>
      </trkpt>
      <trkpt lat="42.599829" lon="-2.118913">
        <ele>522.676</ele>
        <time>2021-07-27T10:29:11Z</time>
      </trkpt>
      <trkpt lat="42.599889" lon="-2.118896">
        <ele>522.688</ele>
        <time>2021-07-27T10:29:12Z</time>
      </trkpt>
      <trkpt lat="42.599957" lon="-2.118885">
        <ele>522.124</ele>
        <time>2021-07-27T10:29:13Z</time>
      </trkpt>
      <trkpt lat="42.600066" lon="-2.118851">
        <ele>522.126</ele>
        <time>2021-07-27T10:29:15Z</time>
      </trkpt>
      <trkpt lat="42.600110" lon="-2.118820">
        <ele>522.608</ele>
        <time>2021-07-27T10:29:16Z</time>
      </trkpt>
      <trkpt lat="42.600144" lon="-2.118781">
        <ele>522.635</ele>
        <time>2021-07-27T10:29:17Z</time>
      </trkpt>
      <trkpt lat="42.600176" lon="-2.118736">
        <ele>522.627</ele>
        <time>2021-07-27T10:29:18Z</time>
      </trkpt>
      <trkpt lat="42.600203" lon="-2.118696">
        <ele>523.034</ele>
        <time>2021-07-27T10:29:19Z</time>
      </trkpt>
      <trkpt lat="42.600352" lon="-2.118471">
        <ele>524.564</ele>
        <time>2021-07-27T10:29:26Z</time>
      </trkpt>
      <trkpt lat="42.600570" lon="-2.118151">
        <ele>527.438</ele>
        <time>2021-07-27T10:29:36Z</time>
      </trkpt>
      <trkpt lat="42.600700" lon="-2.117961">
        <ele>528.396</ele>
        <time>2021-07-27T10:29:43Z</time>
      </trkpt>
      <trkpt lat="42.600797" lon="-2.117809">
        <ele>528.393</ele>
        <time>2021-07-27T10:29:49Z</time>
      </trkpt>
      <trkpt lat="42.600976" lon="-2.117529">
        <ele>528.871</ele>
        <time>2021-07-27T10:29:58Z</time>
      </trkpt>
      <trkpt lat="42.601199" lon="-2.117195">
        <ele>528.835</ele>
        <time>2021-07-27T10:30:09Z</time>
      </trkpt>
      <trkpt lat="42.601452" lon="-2.116808">
        <ele>527.486</ele>
        <time>2021-07-27T10:30:19Z</time>
      </trkpt>
      <trkpt lat="42.601748" lon="-2.116358">
        <ele>525.514</ele>
        <time>2021-07-27T10:30:27Z</time>
      </trkpt>
      <trkpt lat="42.602116" lon="-2.115813">
        <ele>524.008</ele>
        <time>2021-07-27T10:30:35Z</time>
      </trkpt>
      <trkpt lat="42.602435" lon="-2.115334">
        <ele>524.530</ele>
        <time>2021-07-27T10:30:43Z</time>
      </trkpt>
      <trkpt lat="42.602614" lon="-2.115058">
        <ele>525.082</ele>
        <time>2021-07-27T10:30:50Z</time>
      </trkpt>
      <trkpt lat="42.602786" lon="-2.114810">
        <ele>525.539</ele>
        <time>2021-07-27T10:30:59Z</time>
      </trkpt>
      <trkpt lat="42.602940" lon="-2.114577">
        <ele>525.989</ele>
        <time>2021-07-27T10:31:07Z</time>
      </trkpt>
      <trkpt lat="42.603125" lon="-2.114309">
        <ele>525.983</ele>
        <time>2021-07-27T10:31:16Z</time>
      </trkpt>
      <trkpt lat="42.603318" lon="-2.114004">
        <ele>526.451</ele>
        <time>2021-07-27T10:31:25Z</time>
      </trkpt>
      <trkpt lat="42.603520" lon="-2.113691">
        <ele>526.988</ele>
        <time>2021-07-27T10:31:34Z</time>
      </trkpt>
      <trkpt lat="42.603759" lon="-2.113341">
        <ele>527.486</ele>
        <time>2021-07-27T10:31:44Z</time>
      </trkpt>
      <trkpt lat="42.604016" lon="-2.112968">
        <ele>527.451</ele>
        <time>2021-07-27T10:31:55Z</time>
      </trkpt>
      <trkpt lat="42.604256" lon="-2.112591">
        <ele>527.401</ele>
        <time>2021-07-27T10:32:06Z</time>
      </trkpt>
      <trkpt lat="42.604486" lon="-2.112229">
        <ele>527.911</ele>
        <time>2021-07-27T10:32:17Z</time>
      </trkpt>
      <trkpt lat="42.604656" lon="-2.111977">
        <ele>528.308</ele>
        <time>2021-07-27T10:32:26Z</time>
      </trkpt>
      <trkpt lat="42.604825" lon="-2.111740">
        <ele>529.882</ele>
        <time>2021-07-27T10:32:36Z</time>
      </trkpt>
      <trkpt lat="42.604910" lon="-2.111612">
        <ele>531.244</ele>
        <time>2021-07-27T10:32:44Z</time>
      </trkpt>
      <trkpt lat="42.605076" lon="-2.111457">
        <ele>533.641</ele>
        <time>2021-07-27T10:32:54Z</time>
      </trkpt>
      <trkpt lat="42.605298" lon="-2.111332">
        <ele>535.181</ele>
        <time>2021-07-27T10:33:05Z</time>
      </trkpt>
      <trkpt lat="42.605520" lon="-2.111179">
        <ele>536.585</ele>
        <time>2021-07-27T10:33:17Z</time>
      </trkpt>
      <trkpt lat="42.605704" lon="-2.111051">
        <ele>537.553</ele>
        <time>2021-07-27T10:33:27Z</time>
      </trkpt>
      <trkpt lat="42.605849" lon="-2.110959">
        <ele>537.980</ele>
        <time>2021-07-27T10:33:35Z</time>
      </trkpt>
      <trkpt lat="42.606052" lon="-2.110824">
        <ele>539.468</ele>
        <time>2021-07-27T10:33:47Z</time>
      </trkpt>
      <trkpt lat="42.606084" lon="-2.110809">
        <ele>539.473</ele>
        <time>2021-07-27T10:33:49Z</time>
      </trkpt>
      <trkpt lat="42.606100" lon="-2.110797">
        <ele>539.985</ele>
        <time>2021-07-27T10:33:50Z</time>
      </trkpt>
      <trkpt lat="42.606117" lon="-2.110786">
        <ele>539.913</ele>
        <time>2021-07-27T10:33:51Z</time>
      </trkpt>
      <trkpt lat="42.606134" lon="-2.110775">
        <ele>539.908</ele>
        <time>2021-07-27T10:33:52Z</time>
      </trkpt>
      <trkpt lat="42.606151" lon="-2.110764">
        <ele>540.424</ele>
        <time>2021-07-27T10:33:53Z</time>
      </trkpt>
      <trkpt lat="42.606294" lon="-2.110659">
        <ele>540.836</ele>
        <time>2021-07-27T10:34:02Z</time>
      </trkpt>
      <trkpt lat="42.606431" lon="-2.110578">
        <ele>541.843</ele>
        <time>2021-07-27T10:34:10Z</time>
      </trkpt>
      <trkpt lat="42.606592" lon="-2.110477">
        <ele>542.823</ele>
        <time>2021-07-27T10:34:20Z</time>
      </trkpt>
      <trkpt lat="42.606652" lon="-2.110439">
        <ele>543.267</ele>
        <time>2021-07-27T10:34:28Z</time>
      </trkpt>
      <trkpt lat="42.606751" lon="-2.110356">
        <ele>544.295</ele>
        <time>2021-07-27T10:34:36Z</time>
      </trkpt>
      <trkpt lat="42.606858" lon="-2.110278">
        <ele>545.212</ele>
        <time>2021-07-27T10:34:43Z</time>
      </trkpt>
      <trkpt lat="42.606961" lon="-2.110179">
        <ele>546.140</ele>
        <time>2021-07-27T10:34:50Z</time>
      </trkpt>
      <trkpt lat="42.607105" lon="-2.110007">
        <ele>548.518</ele>
        <time>2021-07-27T10:35:01Z</time>
      </trkpt>
      <trkpt lat="42.607217" lon="-2.109833">
        <ele>550.098</ele>
        <time>2021-07-27T10:35:10Z</time>
      </trkpt>
      <trkpt lat="42.607349" lon="-2.109681">
        <ele>551.417</ele>
        <time>2021-07-27T10:35:19Z</time>
      </trkpt>
      <trkpt lat="42.607478" lon="-2.109513">
        <ele>552.908</ele>
        <time>2021-07-27T10:35:28Z</time>
      </trkpt>
      <trkpt lat="42.607611" lon="-2.109355">
        <ele>552.918</ele>
        <time>2021-07-27T10:35:38Z</time>
      </trkpt>
      <trkpt lat="42.607747" lon="-2.109233">
        <ele>552.970</ele>
        <time>2021-07-27T10:35:47Z</time>
      </trkpt>
      <trkpt lat="42.607936" lon="-2.109078">
        <ele>553.817</ele>
        <time>2021-07-27T10:35:57Z</time>
      </trkpt>
      <trkpt lat="42.608092" lon="-2.108948">
        <ele>553.847</ele>
        <time>2021-07-27T10:36:06Z</time>
      </trkpt>
      <trkpt lat="42.608102" lon="-2.108946">
        <ele>553.881</ele>
        <time>2021-07-27T10:36:13Z</time>
      </trkpt>
      <trkpt lat="42.608095" lon="-2.108960">
        <ele>552.939</ele>
        <time>2021-07-27T10:36:32Z</time>
      </trkpt>
      <trkpt lat="42.608136" lon="-2.108918">
        <ele>553.836</ele>
        <time>2021-07-27T10:36:46Z</time>
      </trkpt>
      <trkpt lat="42.608317" lon="-2.108770">
        <ele>554.894</ele>
        <time>2021-07-27T10:36:55Z</time>
      </trkpt>
      <trkpt lat="42.608582" lon="-2.108562">
        <ele>556.279</ele>
        <time>2021-07-27T10:37:08Z</time>
      </trkpt>
      <trkpt lat="42.608789" lon="-2.108393">
        <ele>557.205</ele>
        <time>2021-07-27T10:37:19Z</time>
      </trkpt>
      <trkpt lat="42.608946" lon="-2.108276">
        <ele>558.125</ele>
        <time>2021-07-27T10:37:27Z</time>
      </trkpt>
      <trkpt lat="42.609153" lon="-2.108127">
        <ele>559.608</ele>
        <time>2021-07-27T10:37:38Z</time>
      </trkpt>
      <trkpt lat="42.609297" lon="-2.108014">
        <ele>560.594</ele>
        <time>2021-07-27T10:37:46Z</time>
      </trkpt>
      <trkpt lat="42.609493" lon="-2.107858">
        <ele>562.076</ele>
        <time>2021-07-27T10:37:57Z</time>
      </trkpt>
      <trkpt lat="42.609638" lon="-2.107742">
        <ele>562.923</ele>
        <time>2021-07-27T10:38:05Z</time>
      </trkpt>
      <trkpt lat="42.609788" lon="-2.107630">
        <ele>563.993</ele>
        <time>2021-07-27T10:38:13Z</time>
      </trkpt>
      <trkpt lat="42.609891" lon="-2.107549">
        <ele>565.357</ele>
        <time>2021-07-27T10:38:20Z</time>
      </trkpt>
      <trkpt lat="42.610019" lon="-2.107441">
        <ele>565.835</ele>
        <time>2021-07-27T10:38:29Z</time>
      </trkpt>
      <trkpt lat="42.610013" lon="-2.107428">
        <ele>565.882</ele>
        <time>2021-07-27T10:38:34Z</time>
      </trkpt>
      <trkpt lat="42.610015" lon="-2.107424">
        <ele>565.810</ele>
        <time>2021-07-27T10:38:50Z</time>
      </trkpt>
      <trkpt lat="42.610030" lon="-2.107419">
        <ele>566.358</ele>
        <time>2021-07-27T10:39:02Z</time>
      </trkpt>
      <trkpt lat="42.610029" lon="-2.107415">
        <ele>566.352</ele>
        <time>2021-07-27T10:39:15Z</time>
      </trkpt>
      <trkpt lat="42.610050" lon="-2.107403">
        <ele>566.317</ele>
        <time>2021-07-27T10:39:19Z</time>
      </trkpt>
      <trkpt lat="42.610188" lon="-2.107284">
        <ele>567.808</ele>
        <time>2021-07-27T10:39:30Z</time>
      </trkpt>
      <trkpt lat="42.610344" lon="-2.107161">
        <ele>568.782</ele>
        <time>2021-07-27T10:39:40Z</time>
      </trkpt>
      <trkpt lat="42.610532" lon="-2.107023">
        <ele>570.284</ele>
        <time>2021-07-27T10:39:51Z</time>
      </trkpt>
      <trkpt lat="42.610667" lon="-2.106922">
        <ele>571.121</ele>
        <time>2021-07-27T10:39:59Z</time>
      </trkpt>
      <trkpt lat="42.610838" lon="-2.106797">
        <ele>572.641</ele>
        <time>2021-07-27T10:40:09Z</time>
      </trkpt>
      <trkpt lat="42.610957" lon="-2.106697">
        <ele>574.035</ele>
        <time>2021-07-27T10:40:17Z</time>
      </trkpt>
      <trkpt lat="42.611090" lon="-2.106592">
        <ele>575.463</ele>
        <time>2021-07-27T10:40:26Z</time>
      </trkpt>
      <trkpt lat="42.611247" lon="-2.106463">
        <ele>576.940</ele>
        <time>2021-07-27T10:40:36Z</time>
      </trkpt>
      <trkpt lat="42.611422" lon="-2.106332">
        <ele>578.318</ele>
        <time>2021-07-27T10:40:46Z</time>
      </trkpt>
      <trkpt lat="42.611553" lon="-2.106221">
        <ele>579.855</ele>
        <time>2021-07-27T10:40:55Z</time>
      </trkpt>
      <trkpt lat="42.611688" lon="-2.106127">
        <ele>580.207</ele>
        <time>2021-07-27T10:41:05Z</time>
      </trkpt>
      <trkpt lat="42.611829" lon="-2.106007">
        <ele>581.217</ele>
        <time>2021-07-27T10:41:13Z</time>
      </trkpt>
      <trkpt lat="42.611972" lon="-2.105894">
        <ele>581.208</ele>
        <time>2021-07-27T10:41:21Z</time>
      </trkpt>
      <trkpt lat="42.612131" lon="-2.105770">
        <ele>581.252</ele>
        <time>2021-07-27T10:41:30Z</time>
      </trkpt>
      <trkpt lat="42.612298" lon="-2.105634">
        <ele>581.224</ele>
        <time>2021-07-27T10:41:37Z</time>
      </trkpt>
      <trkpt lat="42.612508" lon="-2.105461">
        <ele>580.791</ele>
        <time>2021-07-27T10:41:46Z</time>
      </trkpt>
      <trkpt lat="42.612957" lon="-2.105107">
        <ele>580.281</ele>
        <time>2021-07-27T10:41:58Z</time>
      </trkpt>
      <trkpt lat="42.613507" lon="-2.104655">
        <ele>579.875</ele>
        <time>2021-07-27T10:42:11Z</time>
      </trkpt>
      <trkpt lat="42.613762" lon="-2.104455">
        <ele>581.263</ele>
        <time>2021-07-27T10:42:19Z</time>
      </trkpt>
      <trkpt lat="42.613934" lon="-2.104316">
        <ele>581.730</ele>
        <time>2021-07-27T10:42:27Z</time>
      </trkpt>
      <trkpt lat="42.614182" lon="-2.104112">
        <ele>581.798</ele>
        <time>2021-07-27T10:42:37Z</time>
      </trkpt>
      <trkpt lat="42.614437" lon="-2.103911">
        <ele>582.239</ele>
        <time>2021-07-27T10:42:47Z</time>
      </trkpt>
      <trkpt lat="42.614550" lon="-2.103829">
        <ele>582.701</ele>
        <time>2021-07-27T10:42:54Z</time>
      </trkpt>
      <trkpt lat="42.614627" lon="-2.103765">
        <ele>583.621</ele>
        <time>2021-07-27T10:43:03Z</time>
      </trkpt>
      <trkpt lat="42.614728" lon="-2.103696">
        <ele>584.108</ele>
        <time>2021-07-27T10:43:12Z</time>
      </trkpt>
      <trkpt lat="42.614904" lon="-2.103560">
        <ele>584.650</ele>
        <time>2021-07-27T10:43:25Z</time>
      </trkpt>
      <trkpt lat="42.615084" lon="-2.103416">
        <ele>586.042</ele>
        <time>2021-07-27T10:43:36Z</time>
      </trkpt>
      <trkpt lat="42.615179" lon="-2.103339">
        <ele>587.019</ele>
        <time>2021-07-27T10:43:43Z</time>
      </trkpt>
      <trkpt lat="42.615298" lon="-2.103226">
        <ele>587.939</ele>
        <time>2021-07-27T10:43:52Z</time>
      </trkpt>
      <trkpt lat="42.615460" lon="-2.103087">
        <ele>589.493</ele>
        <time>2021-07-27T10:44:03Z</time>
      </trkpt>
      <trkpt lat="42.615625" lon="-2.102960">
        <ele>590.881</ele>
        <time>2021-07-27T10:44:14Z</time>
      </trkpt>
      <trkpt lat="42.615772" lon="-2.102839">
        <ele>592.758</ele>
        <time>2021-07-27T10:44:24Z</time>
      </trkpt>
      <trkpt lat="42.615917" lon="-2.102729">
        <ele>594.296</ele>
        <time>2021-07-27T10:44:34Z</time>
      </trkpt>
      <trkpt lat="42.616070" lon="-2.102585">
        <ele>595.647</ele>
        <time>2021-07-27T10:44:44Z</time>
      </trkpt>
      <trkpt lat="42.616087" lon="-2.102568">
        <ele>595.629</ele>
        <time>2021-07-27T10:44:45Z</time>
      </trkpt>
      <trkpt lat="42.616262" lon="-2.102444">
        <ele>597.621</ele>
        <time>2021-07-27T10:44:55Z</time>
      </trkpt>
      <trkpt lat="42.616414" lon="-2.102304">
        <ele>599.008</ele>
        <time>2021-07-27T10:45:05Z</time>
      </trkpt>
      <trkpt lat="42.616402" lon="-2.102283">
        <ele>599.021</ele>
        <time>2021-07-27T10:45:06Z</time>
      </trkpt>
      <trkpt lat="42.616386" lon="-2.102270">
        <ele>598.543</ele>
        <time>2021-07-27T10:45:07Z</time>
      </trkpt>
      <trkpt lat="42.616374" lon="-2.102260">
        <ele>598.530</ele>
        <time>2021-07-27T10:45:08Z</time>
      </trkpt>
      <trkpt lat="42.616357" lon="-2.102250">
        <ele>597.680</ele>
        <time>2021-07-27T10:45:13Z</time>
      </trkpt>
      <trkpt lat="42.616354" lon="-2.102251">
        <ele>598.064</ele>
        <time>2021-07-27T10:45:25Z</time>
      </trkpt>
      <trkpt lat="42.616347" lon="-2.102230">
        <ele>599.042</ele>
        <time>2021-07-27T10:45:53Z</time>
      </trkpt>
      <trkpt lat="42.616337" lon="-2.102227">
        <ele>600.099</ele>
        <time>2021-07-27T10:46:21Z</time>
      </trkpt>
      <trkpt lat="42.616335" lon="-2.102223">
        <ele>598.057</ele>
        <time>2021-07-27T10:46:40Z</time>
      </trkpt>
      <trkpt lat="42.616334" lon="-2.102227">
        <ele>599.555</ele>
        <time>2021-07-27T10:47:06Z</time>
      </trkpt>
      <trkpt lat="42.616344" lon="-2.102301">
        <ele>608.107</ele>
        <time>2021-07-27T10:47:30Z</time>
      </trkpt>
      <trkpt lat="42.616345" lon="-2.102269">
        <ele>604.817</ele>
        <time>2021-07-27T10:47:50Z</time>
      </trkpt>
      <trkpt lat="42.616345" lon="-2.102264">
        <ele>605.708</ele>
        <time>2021-07-27T10:47:59Z</time>
      </trkpt>
      <trkpt lat="42.616360" lon="-2.102247">
        <ele>605.732</ele>
        <time>2021-07-27T10:48:05Z</time>
      </trkpt>
      <trkpt lat="42.616376" lon="-2.102250">
        <ele>605.774</ele>
        <time>2021-07-27T10:48:06Z</time>
      </trkpt>
      <trkpt lat="42.616395" lon="-2.102249">
        <ele>605.281</ele>
        <time>2021-07-27T10:48:07Z</time>
      </trkpt>
      <trkpt lat="42.616416" lon="-2.102242">
        <ele>605.221</ele>
        <time>2021-07-27T10:48:08Z</time>
      </trkpt>
      <trkpt lat="42.616427" lon="-2.102235">
        <ele>604.875</ele>
        <time>2021-07-27T10:48:09Z</time>
      </trkpt>
      <trkpt lat="42.616446" lon="-2.102224">
        <ele>605.263</ele>
        <time>2021-07-27T10:48:10Z</time>
      </trkpt>
      <trkpt lat="42.616663" lon="-2.102109">
        <ele>605.730</ele>
        <time>2021-07-27T10:48:21Z</time>
      </trkpt>
      <trkpt lat="42.616897" lon="-2.101939">
        <ele>604.318</ele>
        <time>2021-07-27T10:48:34Z</time>
      </trkpt>
      <trkpt lat="42.617043" lon="-2.101836">
        <ele>604.858</ele>
        <time>2021-07-27T10:48:42Z</time>
      </trkpt>
      <trkpt lat="42.617185" lon="-2.101728">
        <ele>604.852</ele>
        <time>2021-07-27T10:48:50Z</time>
      </trkpt>
      <trkpt lat="42.617357" lon="-2.101586">
        <ele>605.217</ele>
        <time>2021-07-27T10:49:01Z</time>
      </trkpt>
      <trkpt lat="42.617455" lon="-2.101504">
        <ele>605.708</ele>
        <time>2021-07-27T10:49:07Z</time>
      </trkpt>
      <trkpt lat="42.617473" lon="-2.101492">
        <ele>605.772</ele>
        <time>2021-07-27T10:49:08Z</time>
      </trkpt>
      <trkpt lat="42.617641" lon="-2.101353">
        <ele>606.754</ele>
        <time>2021-07-27T10:49:18Z</time>
      </trkpt>
      <trkpt lat="42.617724" lon="-2.101292">
        <ele>607.281</ele>
        <time>2021-07-27T10:49:25Z</time>
      </trkpt>
      <trkpt lat="42.617870" lon="-2.101184">
        <ele>607.621</ele>
        <time>2021-07-27T10:49:33Z</time>
      </trkpt>
      <trkpt lat="42.618063" lon="-2.101065">
        <ele>607.275</ele>
        <time>2021-07-27T10:49:42Z</time>
      </trkpt>
      <trkpt lat="42.618255" lon="-2.100940">
        <ele>607.223</ele>
        <time>2021-07-27T10:49:49Z</time>
      </trkpt>
      <trkpt lat="42.618501" lon="-2.100783">
        <ele>607.240</ele>
        <time>2021-07-27T10:49:57Z</time>
      </trkpt>
      <trkpt lat="42.618776" lon="-2.100607">
        <ele>606.258</ele>
        <time>2021-07-27T10:50:04Z</time>
      </trkpt>
      <trkpt lat="42.619136" lon="-2.100387">
        <ele>603.344</ele>
        <time>2021-07-27T10:50:10Z</time>
      </trkpt>
      <trkpt lat="42.619700" lon="-2.100037">
        <ele>599.505</ele>
        <time>2021-07-27T10:50:17Z</time>
      </trkpt>
      <trkpt lat="42.620650" lon="-2.099448">
        <ele>597.615</ele>
        <time>2021-07-27T10:50:28Z</time>
      </trkpt>
      <trkpt lat="42.621035" lon="-2.099214">
        <ele>599.508</ele>
        <time>2021-07-27T10:50:34Z</time>
      </trkpt>
      <trkpt lat="42.621217" lon="-2.099109">
        <ele>601.441</ele>
        <time>2021-07-27T10:50:39Z</time>
      </trkpt>
      <trkpt lat="42.621405" lon="-2.098987">
        <ele>603.343</ele>
        <time>2021-07-27T10:50:47Z</time>
      </trkpt>
      <trkpt lat="42.621645" lon="-2.098835">
        <ele>604.870</ele>
        <time>2021-07-27T10:50:57Z</time>
      </trkpt>
      <trkpt lat="42.621879" lon="-2.098669">
        <ele>605.740</ele>
        <time>2021-07-27T10:51:07Z</time>
      </trkpt>
      <trkpt lat="42.622148" lon="-2.098460">
        <ele>607.234</ele>
        <time>2021-07-27T10:51:18Z</time>
      </trkpt>
      <trkpt lat="42.622360" lon="-2.098249">
        <ele>609.642</ele>
        <time>2021-07-27T10:51:28Z</time>
      </trkpt>
      <trkpt lat="42.622536" lon="-2.098044">
        <ele>611.539</ele>
        <time>2021-07-27T10:51:38Z</time>
      </trkpt>
      <trkpt lat="42.622631" lon="-2.097918">
        <ele>612.067</ele>
        <time>2021-07-27T10:51:46Z</time>
      </trkpt>
      <trkpt lat="42.622744" lon="-2.097749">
        <ele>612.513</ele>
        <time>2021-07-27T10:51:55Z</time>
      </trkpt>
      <trkpt lat="42.622891" lon="-2.097491">
        <ele>614.443</ele>
        <time>2021-07-27T10:52:07Z</time>
      </trkpt>
      <trkpt lat="42.622993" lon="-2.097289">
        <ele>615.307</ele>
        <time>2021-07-27T10:52:16Z</time>
      </trkpt>
      <trkpt lat="42.623138" lon="-2.097019">
        <ele>616.808</ele>
        <time>2021-07-27T10:52:28Z</time>
      </trkpt>
      <trkpt lat="42.623271" lon="-2.096844">
        <ele>618.288</ele>
        <time>2021-07-27T10:52:37Z</time>
      </trkpt>
      <trkpt lat="42.623410" lon="-2.096704">
        <ele>619.760</ele>
        <time>2021-07-27T10:52:45Z</time>
      </trkpt>
      <trkpt lat="42.623578" lon="-2.096606">
        <ele>621.627</ele>
        <time>2021-07-27T10:52:54Z</time>
      </trkpt>
      <trkpt lat="42.623741" lon="-2.096568">
        <ele>622.547</ele>
        <time>2021-07-27T10:53:02Z</time>
      </trkpt>
      <trkpt lat="42.623889" lon="-2.096465">
        <ele>622.551</ele>
        <time>2021-07-27T10:53:10Z</time>
      </trkpt>
      <trkpt lat="42.624059" lon="-2.096403">
        <ele>622.199</ele>
        <time>2021-07-27T10:53:17Z</time>
      </trkpt>
      <trkpt lat="42.624200" lon="-2.096499">
        <ele>621.626</ele>
        <time>2021-07-27T10:53:24Z</time>
      </trkpt>
      <trkpt lat="42.624290" lon="-2.096669">
        <ele>622.194</ele>
        <time>2021-07-27T10:53:31Z</time>
      </trkpt>
      <trkpt lat="42.624290" lon="-2.096848">
        <ele>622.177</ele>
        <time>2021-07-27T10:53:37Z</time>
      </trkpt>
      <trkpt lat="42.624277" lon="-2.097119">
        <ele>621.661</ele>
        <time>2021-07-27T10:53:46Z</time>
      </trkpt>
      <trkpt lat="42.624376" lon="-2.097329">
        <ele>620.127</ele>
        <time>2021-07-27T10:53:53Z</time>
      </trkpt>
      <trkpt lat="42.624444" lon="-2.097445">
        <ele>620.108</ele>
        <time>2021-07-27T10:53:59Z</time>
      </trkpt>
      <trkpt lat="42.624451" lon="-2.097459">
        <ele>620.164</ele>
        <time>2021-07-27T10:54:00Z</time>
      </trkpt>
      <trkpt lat="42.624552" lon="-2.097673">
        <ele>619.746</ele>
        <time>2021-07-27T10:54:11Z</time>
      </trkpt>
      <trkpt lat="42.624700" lon="-2.097954">
        <ele>619.263</ele>
        <time>2021-07-27T10:54:20Z</time>
      </trkpt>
      <trkpt lat="42.624848" lon="-2.098213">
        <ele>618.293</ele>
        <time>2021-07-27T10:54:26Z</time>
      </trkpt>
      <trkpt lat="42.624886" lon="-2.098257">
        <ele>618.237</ele>
        <time>2021-07-27T10:54:27Z</time>
      </trkpt>
      <trkpt lat="42.624916" lon="-2.098277">
        <ele>618.275</ele>
        <time>2021-07-27T10:54:28Z</time>
      </trkpt>
      <trkpt lat="42.624962" lon="-2.098298">
        <ele>618.292</ele>
        <time>2021-07-27T10:54:29Z</time>
      </trkpt>
      <trkpt lat="42.625006" lon="-2.098313">
        <ele>618.240</ele>
        <time>2021-07-27T10:54:30Z</time>
      </trkpt>
      <trkpt lat="42.625043" lon="-2.098322">
        <ele>618.254</ele>
        <time>2021-07-27T10:54:31Z</time>
      </trkpt>
      <trkpt lat="42.625080" lon="-2.098330">
        <ele>618.256</ele>
        <time>2021-07-27T10:54:32Z</time>
      </trkpt>
      <trkpt lat="42.625113" lon="-2.098346">
        <ele>618.211</ele>
        <time>2021-07-27T10:54:33Z</time>
      </trkpt>
      <trkpt lat="42.625145" lon="-2.098369">
        <ele>618.208</ele>
        <time>2021-07-27T10:54:34Z</time>
      </trkpt>
      <trkpt lat="42.625172" lon="-2.098393">
        <ele>618.282</ele>
        <time>2021-07-27T10:54:35Z</time>
      </trkpt>
      <trkpt lat="42.625197" lon="-2.098418">
        <ele>618.244</ele>
        <time>2021-07-27T10:54:36Z</time>
      </trkpt>
      <trkpt lat="42.625398" lon="-2.098553">
        <ele>617.771</ele>
        <time>2021-07-27T10:54:45Z</time>
      </trkpt>
      <trkpt lat="42.625568" lon="-2.098473">
        <ele>617.741</ele>
        <time>2021-07-27T10:54:52Z</time>
      </trkpt>
      <trkpt lat="42.625648" lon="-2.098255">
        <ele>617.325</ele>
        <time>2021-07-27T10:54:58Z</time>
      </trkpt>
      <trkpt lat="42.625680" lon="-2.097967">
        <ele>616.333</ele>
        <time>2021-07-27T10:55:05Z</time>
      </trkpt>
      <trkpt lat="42.625743" lon="-2.097632">
        <ele>615.860</ele>
        <time>2021-07-27T10:55:14Z</time>
      </trkpt>
      <trkpt lat="42.625805" lon="-2.097400">
        <ele>615.818</ele>
        <time>2021-07-27T10:55:22Z</time>
      </trkpt>
      <trkpt lat="42.625864" lon="-2.097199">
        <ele>615.821</ele>
        <time>2021-07-27T10:55:30Z</time>
      </trkpt>
      <trkpt lat="42.625932" lon="-2.096989">
        <ele>615.341</ele>
        <time>2021-07-27T10:55:37Z</time>
      </trkpt>
      <trkpt lat="42.626020" lon="-2.096755">
        <ele>613.905</ele>
        <time>2021-07-27T10:55:44Z</time>
      </trkpt>
      <trkpt lat="42.626119" lon="-2.096517">
        <ele>613.908</ele>
        <time>2021-07-27T10:55:51Z</time>
      </trkpt>
      <trkpt lat="42.626252" lon="-2.096222">
        <ele>613.459</ele>
        <time>2021-07-27T10:55:59Z</time>
      </trkpt>
      <trkpt lat="42.626454" lon="-2.095833">
        <ele>612.061</ele>
        <time>2021-07-27T10:56:06Z</time>
      </trkpt>
      <trkpt lat="42.626737" lon="-2.095352">
        <ele>610.048</ele>
        <time>2021-07-27T10:56:13Z</time>
      </trkpt>
      <trkpt lat="42.627139" lon="-2.094723">
        <ele>607.698</ele>
        <time>2021-07-27T10:56:21Z</time>
      </trkpt>
      <trkpt lat="42.627714" lon="-2.093827">
        <ele>603.852</ele>
        <time>2021-07-27T10:56:31Z</time>
      </trkpt>
      <trkpt lat="42.628245" lon="-2.093037">
        <ele>600.950</ele>
        <time>2021-07-27T10:56:40Z</time>
      </trkpt>
      <trkpt lat="42.628286" lon="-2.092962">
        <ele>600.497</ele>
        <time>2021-07-27T10:56:43Z</time>
      </trkpt>
      <trkpt lat="42.628292" lon="-2.092954">
        <ele>600.445</ele>
        <time>2021-07-27T10:56:50Z</time>
      </trkpt>
      <trkpt lat="42.628304" lon="-2.092940">
        <ele>600.024</ele>
        <time>2021-07-27T10:56:51Z</time>
      </trkpt>
      <trkpt lat="42.628319" lon="-2.092922">
        <ele>600.004</ele>
        <time>2021-07-27T10:56:52Z</time>
      </trkpt>
      <trkpt lat="42.628332" lon="-2.092900">
        <ele>600.014</ele>
        <time>2021-07-27T10:56:53Z</time>
      </trkpt>
      <trkpt lat="42.628349" lon="-2.092868">
        <ele>599.508</ele>
        <time>2021-07-27T10:56:54Z</time>
      </trkpt>
      <trkpt lat="42.628370" lon="-2.092836">
        <ele>599.569</ele>
        <time>2021-07-27T10:56:55Z</time>
      </trkpt>
      <trkpt lat="42.628576" lon="-2.092507">
        <ele>598.051</ele>
        <time>2021-07-27T10:57:02Z</time>
      </trkpt>
      <trkpt lat="42.628800" lon="-2.092166">
        <ele>597.148</ele>
        <time>2021-07-27T10:57:09Z</time>
      </trkpt>
      <trkpt lat="42.628944" lon="-2.091945">
        <ele>595.678</ele>
        <time>2021-07-27T10:57:16Z</time>
      </trkpt>
      <trkpt lat="42.629154" lon="-2.091607">
        <ele>594.792</ele>
        <time>2021-07-27T10:57:24Z</time>
      </trkpt>
      <trkpt lat="42.629467" lon="-2.091138">
        <ele>593.260</ele>
        <time>2021-07-27T10:57:33Z</time>
      </trkpt>
      <trkpt lat="42.629699" lon="-2.090782">
        <ele>591.397</ele>
        <time>2021-07-27T10:57:39Z</time>
      </trkpt>
      <trkpt lat="42.630006" lon="-2.090332">
        <ele>588.975</ele>
        <time>2021-07-27T10:57:45Z</time>
      </trkpt>
      <trkpt lat="42.630072" lon="-2.090263">
        <ele>588.416</ele>
        <time>2021-07-27T10:57:46Z</time>
      </trkpt>
      <trkpt lat="42.630148" lon="-2.090196">
        <ele>587.976</ele>
        <time>2021-07-27T10:57:47Z</time>
      </trkpt>
      <trkpt lat="42.630233" lon="-2.090135">
        <ele>587.013</ele>
        <time>2021-07-27T10:57:48Z</time>
      </trkpt>
      <trkpt lat="42.630304" lon="-2.090093">
        <ele>587.008</ele>
        <time>2021-07-27T10:57:49Z</time>
      </trkpt>
      <trkpt lat="42.630395" lon="-2.090045">
        <ele>586.588</ele>
        <time>2021-07-27T10:57:50Z</time>
      </trkpt>
      <trkpt lat="42.631077" lon="-2.089720">
        <ele>585.130</ele>
        <time>2021-07-27T10:57:58Z</time>
      </trkpt>
      <trkpt lat="42.631661" lon="-2.089443">
        <ele>585.187</ele>
        <time>2021-07-27T10:58:06Z</time>
      </trkpt>
      <trkpt lat="42.632071" lon="-2.089247">
        <ele>585.137</ele>
        <time>2021-07-27T10:58:13Z</time>
      </trkpt>
      <trkpt lat="42.632426" lon="-2.089052">
        <ele>585.541</ele>
        <time>2021-07-27T10:58:22Z</time>
      </trkpt>
      <trkpt lat="42.632615" lon="-2.088899">
        <ele>584.629</ele>
        <time>2021-07-27T10:58:29Z</time>
      </trkpt>
      <trkpt lat="42.632785" lon="-2.088765">
        <ele>583.696</ele>
        <time>2021-07-27T10:58:37Z</time>
      </trkpt>
      <trkpt lat="42.633052" lon="-2.088551">
        <ele>581.794</ele>
        <time>2021-07-27T10:58:44Z</time>
      </trkpt>
      <trkpt lat="42.633467" lon="-2.088206">
        <ele>578.836</ele>
        <time>2021-07-27T10:58:51Z</time>
      </trkpt>
      <trkpt lat="42.633992" lon="-2.087760">
        <ele>578.817</ele>
        <time>2021-07-27T10:59:00Z</time>
      </trkpt>
      <trkpt lat="42.634258" lon="-2.087523">
        <ele>579.818</ele>
        <time>2021-07-27T10:59:07Z</time>
      </trkpt>
      <trkpt lat="42.634413" lon="-2.087418">
        <ele>580.208</ele>
        <time>2021-07-27T10:59:13Z</time>
      </trkpt>
      <trkpt lat="42.634616" lon="-2.087290">
        <ele>581.240</ele>
        <time>2021-07-27T10:59:22Z</time>
      </trkpt>
      <trkpt lat="42.634828" lon="-2.087192">
        <ele>584.662</ele>
        <time>2021-07-27T10:59:31Z</time>
      </trkpt>
      <trkpt lat="42.634999" lon="-2.087133">
        <ele>586.579</ele>
        <time>2021-07-27T10:59:38Z</time>
      </trkpt>
      <trkpt lat="42.635230" lon="-2.087143">
        <ele>587.029</ele>
        <time>2021-07-27T10:59:48Z</time>
      </trkpt>
      <trkpt lat="42.635442" lon="-2.087140">
        <ele>587.573</ele>
        <time>2021-07-27T10:59:57Z</time>
      </trkpt>
      <trkpt lat="42.635635" lon="-2.086997">
        <ele>586.041</ele>
        <time>2021-07-27T11:00:04Z</time>
      </trkpt>
      <trkpt lat="42.635772" lon="-2.086806">
        <ele>584.668</ele>
        <time>2021-07-27T11:00:12Z</time>
      </trkpt>
      <trkpt lat="42.635774" lon="-2.086581">
        <ele>583.146</ele>
        <time>2021-07-27T11:00:18Z</time>
      </trkpt>
      <trkpt lat="42.635727" lon="-2.086242">
        <ele>581.212</ele>
        <time>2021-07-27T11:00:28Z</time>
      </trkpt>
      <trkpt lat="42.635665" lon="-2.086077">
        <ele>578.832</ele>
        <time>2021-07-27T11:00:34Z</time>
      </trkpt>
      <trkpt lat="42.635671" lon="-2.086062">
        <ele>578.805</ele>
        <time>2021-07-27T11:00:35Z</time>
      </trkpt>
      <trkpt lat="42.635696" lon="-2.086059">
        <ele>578.808</ele>
        <time>2021-07-27T11:00:38Z</time>
      </trkpt>
      <trkpt lat="42.635699" lon="-2.086019">
        <ele>578.328</ele>
        <time>2021-07-27T11:00:42Z</time>
      </trkpt>
      <trkpt lat="42.635687" lon="-2.086007">
        <ele>578.360</ele>
        <time>2021-07-27T11:00:43Z</time>
      </trkpt>
      <trkpt lat="42.635675" lon="-2.085999">
        <ele>577.857</ele>
        <time>2021-07-27T11:00:44Z</time>
      </trkpt>
      <trkpt lat="42.635663" lon="-2.085995">
        <ele>577.867</ele>
        <time>2021-07-27T11:00:45Z</time>
      </trkpt>
      <trkpt lat="42.635650" lon="-2.085983">
        <ele>577.831</ele>
        <time>2021-07-27T11:00:46Z</time>
      </trkpt>
      <trkpt lat="42.635635" lon="-2.085967">
        <ele>577.859</ele>
        <time>2021-07-27T11:00:47Z</time>
      </trkpt>
      <trkpt lat="42.635619" lon="-2.085944">
        <ele>577.866</ele>
        <time>2021-07-27T11:00:48Z</time>
      </trkpt>
      <trkpt lat="42.635601" lon="-2.085923">
        <ele>577.894</ele>
        <time>2021-07-27T11:00:49Z</time>
      </trkpt>
      <trkpt lat="42.635580" lon="-2.085903">
        <ele>577.859</ele>
        <time>2021-07-27T11:00:50Z</time>
      </trkpt>
      <trkpt lat="42.635558" lon="-2.085881">
        <ele>577.803</ele>
        <time>2021-07-27T11:00:51Z</time>
      </trkpt>
      <trkpt lat="42.635540" lon="-2.085859">
        <ele>577.823</ele>
        <time>2021-07-27T11:00:52Z</time>
      </trkpt>
      <trkpt lat="42.635437" lon="-2.085678">
        <ele>576.908</ele>
        <time>2021-07-27T11:01:00Z</time>
      </trkpt>
      <trkpt lat="42.635424" lon="-2.085654">
        <ele>576.482</ele>
        <time>2021-07-27T11:01:05Z</time>
      </trkpt>
      <trkpt lat="42.635414" lon="-2.085615">
        <ele>577.894</ele>
        <time>2021-07-27T11:01:16Z</time>
      </trkpt>
      <trkpt lat="42.635416" lon="-2.085599">
        <ele>577.411</ele>
        <time>2021-07-27T11:01:36Z</time>
      </trkpt>
      <trkpt lat="42.635418" lon="-2.085600">
        <ele>576.931</ele>
        <time>2021-07-27T11:01:52Z</time>
      </trkpt>
      <trkpt lat="42.635392" lon="-2.085587">
        <ele>576.915</ele>
        <time>2021-07-27T11:02:14Z</time>
      </trkpt>
      <trkpt lat="42.635395" lon="-2.085624">
        <ele>577.433</ele>
        <time>2021-07-27T11:02:39Z</time>
      </trkpt>
      <trkpt lat="42.635397" lon="-2.085601">
        <ele>575.990</ele>
        <time>2021-07-27T11:03:07Z</time>
      </trkpt>
      <trkpt lat="42.635397" lon="-2.085563">
        <ele>576.968</ele>
        <time>2021-07-27T11:03:26Z</time>
      </trkpt>
      <trkpt lat="42.635407" lon="-2.085613">
        <ele>575.979</ele>
        <time>2021-07-27T11:03:42Z</time>
      </trkpt>
      <trkpt lat="42.635394" lon="-2.085626">
        <ele>574.505</ele>
        <time>2021-07-27T11:04:07Z</time>
      </trkpt>
      <trkpt lat="42.635410" lon="-2.085612">
        <ele>573.525</ele>
        <time>2021-07-27T11:04:34Z</time>
      </trkpt>
      <trkpt lat="42.635427" lon="-2.085637">
        <ele>573.508</ele>
        <time>2021-07-27T11:05:00Z</time>
      </trkpt>
      <trkpt lat="42.635437" lon="-2.085620">
        <ele>575.934</ele>
        <time>2021-07-27T11:05:23Z</time>
      </trkpt>
      <trkpt lat="42.635398" lon="-2.085637">
        <ele>579.326</ele>
        <time>2021-07-27T11:05:42Z</time>
      </trkpt>
      <trkpt lat="42.635422" lon="-2.085615">
        <ele>578.343</ele>
        <time>2021-07-27T11:06:07Z</time>
      </trkpt>
      <trkpt lat="42.635400" lon="-2.085629">
        <ele>580.283</ele>
        <time>2021-07-27T11:06:32Z</time>
      </trkpt>
      <trkpt lat="42.635419" lon="-2.085617">
        <ele>578.827</ele>
        <time>2021-07-27T11:06:59Z</time>
      </trkpt>
      <trkpt lat="42.635443" lon="-2.085629">
        <ele>576.965</ele>
        <time>2021-07-27T11:07:24Z</time>
      </trkpt>
      <trkpt lat="42.635436" lon="-2.085602">
        <ele>576.942</ele>
        <time>2021-07-27T11:07:43Z</time>
      </trkpt>
      <trkpt lat="42.635460" lon="-2.085589">
        <ele>571.680</ele>
        <time>2021-07-27T11:43:08Z</time>
      </trkpt>
      <trkpt lat="42.635441" lon="-2.085561">
        <ele>563.922</ele>
        <time>2021-07-27T11:43:19Z</time>
      </trkpt>
      <trkpt lat="42.635430" lon="-2.085581">
        <ele>566.362</ele>
        <time>2021-07-27T11:43:30Z</time>
      </trkpt>
      <trkpt lat="42.635436" lon="-2.085588">
        <ele>570.608</ele>
        <time>2021-07-27T11:43:43Z</time>
      </trkpt>
      <trkpt lat="42.635424" lon="-2.085618">
        <ele>571.608</ele>
        <time>2021-07-27T11:43:49Z</time>
      </trkpt>
      <trkpt lat="42.635323" lon="-2.085532">
        <ele>571.179</ele>
        <time>2021-07-27T11:43:56Z</time>
      </trkpt>
      <trkpt lat="42.635265" lon="-2.085461">
        <ele>572.141</ele>
        <time>2021-07-27T11:44:03Z</time>
      </trkpt>
      <trkpt lat="42.635230" lon="-2.085430">
        <ele>572.198</ele>
        <time>2021-07-27T11:44:05Z</time>
      </trkpt>
      <trkpt lat="42.635106" lon="-2.085297">
        <ele>572.118</ele>
        <time>2021-07-27T11:44:13Z</time>
      </trkpt>
      <trkpt lat="42.635109" lon="-2.085264">
        <ele>572.182</ele>
        <time>2021-07-27T11:44:14Z</time>
      </trkpt>
      <trkpt lat="42.635115" lon="-2.085240">
        <ele>572.190</ele>
        <time>2021-07-27T11:44:15Z</time>
      </trkpt>
      <trkpt lat="42.635234" lon="-2.085000">
        <ele>572.127</ele>
        <time>2021-07-27T11:44:22Z</time>
      </trkpt>
      <trkpt lat="42.635458" lon="-2.084723">
        <ele>571.185</ele>
        <time>2021-07-27T11:44:31Z</time>
      </trkpt>
      <trkpt lat="42.635692" lon="-2.084451">
        <ele>571.111</ele>
        <time>2021-07-27T11:44:40Z</time>
      </trkpt>
      <trkpt lat="42.635957" lon="-2.084108">
        <ele>570.621</ele>
        <time>2021-07-27T11:44:50Z</time>
      </trkpt>
      <trkpt lat="42.636195" lon="-2.083738">
        <ele>570.603</ele>
        <time>2021-07-27T11:45:00Z</time>
      </trkpt>
      <trkpt lat="42.636394" lon="-2.083417">
        <ele>570.608</ele>
        <time>2021-07-27T11:45:09Z</time>
      </trkpt>
      <trkpt lat="42.636626" lon="-2.083002">
        <ele>571.658</ele>
        <time>2021-07-27T11:45:20Z</time>
      </trkpt>
      <trkpt lat="42.636733" lon="-2.082737">
        <ele>572.660</ele>
        <time>2021-07-27T11:45:27Z</time>
      </trkpt>
      <trkpt lat="42.636796" lon="-2.082447">
        <ele>572.187</ele>
        <time>2021-07-27T11:45:34Z</time>
      </trkpt>
      <trkpt lat="42.636826" lon="-2.082293">
        <ele>571.647</ele>
        <time>2021-07-27T11:45:37Z</time>
      </trkpt>
      <trkpt lat="42.636881" lon="-2.081853">
        <ele>570.641</ele>
        <time>2021-07-27T11:45:44Z</time>
      </trkpt>
      <trkpt lat="42.636955" lon="-2.081333">
        <ele>570.619</ele>
        <time>2021-07-27T11:45:52Z</time>
      </trkpt>
      <trkpt lat="42.636979" lon="-2.081052">
        <ele>571.646</ele>
        <time>2021-07-27T11:45:59Z</time>
      </trkpt>
      <trkpt lat="42.637017" lon="-2.080784">
        <ele>573.594</ele>
        <time>2021-07-27T11:46:09Z</time>
      </trkpt>
      <trkpt lat="42.637030" lon="-2.080630">
        <ele>575.054</ele>
        <time>2021-07-27T11:46:16Z</time>
      </trkpt>
      <trkpt lat="42.637044" lon="-2.080586">
        <ele>575.056</ele>
        <time>2021-07-27T11:46:19Z</time>
      </trkpt>
      <trkpt lat="42.637047" lon="-2.080567">
        <ele>575.411</ele>
        <time>2021-07-27T11:46:20Z</time>
      </trkpt>
      <trkpt lat="42.637050" lon="-2.080547">
        <ele>575.408</ele>
        <time>2021-07-27T11:46:21Z</time>
      </trkpt>
      <trkpt lat="42.637052" lon="-2.080524">
        <ele>575.442</ele>
        <time>2021-07-27T11:46:22Z</time>
      </trkpt>
      <trkpt lat="42.637053" lon="-2.080500">
        <ele>575.914</ele>
        <time>2021-07-27T11:46:23Z</time>
      </trkpt>
      <trkpt lat="42.637055" lon="-2.080474">
        <ele>575.921</ele>
        <time>2021-07-27T11:46:24Z</time>
      </trkpt>
      <trkpt lat="42.637056" lon="-2.080451">
        <ele>575.971</ele>
        <time>2021-07-27T11:46:25Z</time>
      </trkpt>
      <trkpt lat="42.637081" lon="-2.080149">
        <ele>577.495</ele>
        <time>2021-07-27T11:46:36Z</time>
      </trkpt>
      <trkpt lat="42.637106" lon="-2.079931">
        <ele>578.323</ele>
        <time>2021-07-27T11:46:44Z</time>
      </trkpt>
      <trkpt lat="42.637138" lon="-2.079668">
        <ele>579.380</ele>
        <time>2021-07-27T11:46:55Z</time>
      </trkpt>
      <trkpt lat="42.637182" lon="-2.079317">
        <ele>581.218</ele>
        <time>2021-07-27T11:47:09Z</time>
      </trkpt>
      <trkpt lat="42.637199" lon="-2.079106">
        <ele>581.761</ele>
        <time>2021-07-27T11:47:18Z</time>
      </trkpt>
      <trkpt lat="42.637222" lon="-2.078914">
        <ele>582.721</ele>
        <time>2021-07-27T11:47:26Z</time>
      </trkpt>
      <trkpt lat="42.637242" lon="-2.078752">
        <ele>584.113</ele>
        <time>2021-07-27T11:47:33Z</time>
      </trkpt>
      <trkpt lat="42.637279" lon="-2.078542">
        <ele>585.108</ele>
        <time>2021-07-27T11:47:42Z</time>
      </trkpt>
      <trkpt lat="42.637329" lon="-2.078300">
        <ele>586.513</ele>
        <time>2021-07-27T11:47:52Z</time>
      </trkpt>
      <trkpt lat="42.637391" lon="-2.078045">
        <ele>587.945</ele>
        <time>2021-07-27T11:48:02Z</time>
      </trkpt>
      <trkpt lat="42.637438" lon="-2.077822">
        <ele>589.992</ele>
        <time>2021-07-27T11:48:11Z</time>
      </trkpt>
      <trkpt lat="42.637498" lon="-2.077601">
        <ele>591.882</ele>
        <time>2021-07-27T11:48:20Z</time>
      </trkpt>
      <trkpt lat="42.637548" lon="-2.077374">
        <ele>593.226</ele>
        <time>2021-07-27T11:48:29Z</time>
      </trkpt>
      <trkpt lat="42.637625" lon="-2.077061">
        <ele>594.734</ele>
        <time>2021-07-27T11:48:41Z</time>
      </trkpt>
      <trkpt lat="42.637678" lon="-2.076831">
        <ele>595.661</ele>
        <time>2021-07-27T11:48:51Z</time>
      </trkpt>
      <trkpt lat="42.637680" lon="-2.076813">
        <ele>595.699</ele>
        <time>2021-07-27T11:48:52Z</time>
      </trkpt>
      <trkpt lat="42.637683" lon="-2.076791">
        <ele>595.648</ele>
        <time>2021-07-27T11:48:53Z</time>
      </trkpt>
      <trkpt lat="42.637757" lon="-2.076499">
        <ele>597.161</ele>
        <time>2021-07-27T11:49:04Z</time>
      </trkpt>
      <trkpt lat="42.637831" lon="-2.076186">
        <ele>597.617</ele>
        <time>2021-07-27T11:49:15Z</time>
      </trkpt>
      <trkpt lat="42.637900" lon="-2.075906">
        <ele>598.008</ele>
        <time>2021-07-27T11:49:25Z</time>
      </trkpt>
      <trkpt lat="42.637962" lon="-2.075697">
        <ele>598.561</ele>
        <time>2021-07-27T11:49:33Z</time>
      </trkpt>
      <trkpt lat="42.638040" lon="-2.075400">
        <ele>599.023</ele>
        <time>2021-07-27T11:49:43Z</time>
      </trkpt>
      <trkpt lat="42.638126" lon="-2.075103">
        <ele>600.450</ele>
        <time>2021-07-27T11:49:54Z</time>
      </trkpt>
      <trkpt lat="42.638180" lon="-2.074864">
        <ele>600.930</ele>
        <time>2021-07-27T11:50:03Z</time>
      </trkpt>
      <trkpt lat="42.638266" lon="-2.074568">
        <ele>601.914</ele>
        <time>2021-07-27T11:50:14Z</time>
      </trkpt>
      <trkpt lat="42.638349" lon="-2.074246">
        <ele>601.942</ele>
        <time>2021-07-27T11:50:24Z</time>
      </trkpt>
      <trkpt lat="42.638409" lon="-2.073970">
        <ele>601.959</ele>
        <time>2021-07-27T11:50:32Z</time>
      </trkpt>
      <trkpt lat="42.638464" lon="-2.073551">
        <ele>600.957</ele>
        <time>2021-07-27T11:50:42Z</time>
      </trkpt>
      <trkpt lat="42.638467" lon="-2.073173">
        <ele>600.042</ele>
        <time>2021-07-27T11:50:50Z</time>
      </trkpt>
      <trkpt lat="42.638467" lon="-2.072679">
        <ele>598.522</ele>
        <time>2021-07-27T11:50:58Z</time>
      </trkpt>
      <trkpt lat="42.638495" lon="-2.072272">
        <ele>596.614</ele>
        <time>2021-07-27T11:51:04Z</time>
      </trkpt>
      <trkpt lat="42.638626" lon="-2.071722">
        <ele>593.708</ele>
        <time>2021-07-27T11:51:10Z</time>
      </trkpt>
      <trkpt lat="42.638890" lon="-2.071144">
        <ele>591.811</ele>
        <time>2021-07-27T11:51:16Z</time>
      </trkpt>
      <trkpt lat="42.639200" lon="-2.070524">
        <ele>591.863</ele>
        <time>2021-07-27T11:51:23Z</time>
      </trkpt>
      <trkpt lat="42.639370" lon="-2.070173">
        <ele>592.710</ele>
        <time>2021-07-27T11:51:29Z</time>
      </trkpt>
      <trkpt lat="42.639546" lon="-2.069828">
        <ele>593.710</ele>
        <time>2021-07-27T11:51:37Z</time>
      </trkpt>
      <trkpt lat="42.639755" lon="-2.069444">
        <ele>594.294</ele>
        <time>2021-07-27T11:51:46Z</time>
      </trkpt>
      <trkpt lat="42.639958" lon="-2.069055">
        <ele>594.212</ele>
        <time>2021-07-27T11:51:56Z</time>
      </trkpt>
      <trkpt lat="42.640181" lon="-2.068620">
        <ele>593.299</ele>
        <time>2021-07-27T11:52:06Z</time>
      </trkpt>
      <trkpt lat="42.640464" lon="-2.068076">
        <ele>591.397</ele>
        <time>2021-07-27T11:52:17Z</time>
      </trkpt>
      <trkpt lat="42.640607" lon="-2.067785">
        <ele>591.373</ele>
        <time>2021-07-27T11:52:23Z</time>
      </trkpt>
      <trkpt lat="42.640631" lon="-2.067735">
        <ele>591.385</ele>
        <time>2021-07-27T11:52:24Z</time>
      </trkpt>
      <trkpt lat="42.640886" lon="-2.067244">
        <ele>591.313</ele>
        <time>2021-07-27T11:52:34Z</time>
      </trkpt>
      <trkpt lat="42.641162" lon="-2.066709">
        <ele>590.808</ele>
        <time>2021-07-27T11:52:45Z</time>
      </trkpt>
      <trkpt lat="42.641442" lon="-2.066135">
        <ele>589.454</ele>
        <time>2021-07-27T11:52:57Z</time>
      </trkpt>
      <trkpt lat="42.641635" lon="-2.065736">
        <ele>589.476</ele>
        <time>2021-07-27T11:53:06Z</time>
      </trkpt>
      <trkpt lat="42.641642" lon="-2.065748">
        <ele>589.983</ele>
        <time>2021-07-27T11:53:13Z</time>
      </trkpt>
      <trkpt lat="42.641645" lon="-2.065781">
        <ele>589.483</ele>
        <time>2021-07-27T11:53:42Z</time>
      </trkpt>
      <trkpt lat="42.641634" lon="-2.065756">
        <ele>589.957</ele>
        <time>2021-07-27T11:54:04Z</time>
      </trkpt>
      <trkpt lat="42.641643" lon="-2.065738">
        <ele>589.465</ele>
        <time>2021-07-27T11:54:15Z</time>
      </trkpt>
      <trkpt lat="42.641648" lon="-2.065726">
        <ele>589.962</ele>
        <time>2021-07-27T11:54:26Z</time>
      </trkpt>
      <trkpt lat="42.641739" lon="-2.065576">
        <ele>588.920</ele>
        <time>2021-07-27T11:54:36Z</time>
      </trkpt>
      <trkpt lat="42.641841" lon="-2.065361">
        <ele>588.964</ele>
        <time>2021-07-27T11:54:43Z</time>
      </trkpt>
      <trkpt lat="42.642048" lon="-2.064948">
        <ele>588.906</ele>
        <time>2021-07-27T11:54:53Z</time>
      </trkpt>
      <trkpt lat="42.642192" lon="-2.064645">
        <ele>588.416</ele>
        <time>2021-07-27T11:55:00Z</time>
      </trkpt>
      <trkpt lat="42.642419" lon="-2.064185">
        <ele>587.908</ele>
        <time>2021-07-27T11:55:10Z</time>
      </trkpt>
      <trkpt lat="42.642713" lon="-2.063576">
        <ele>586.083</ele>
        <time>2021-07-27T11:55:22Z</time>
      </trkpt>
      <trkpt lat="42.642825" lon="-2.063361">
        <ele>585.575</ele>
        <time>2021-07-27T11:55:26Z</time>
      </trkpt>
      <trkpt lat="42.643106" lon="-2.062745">
        <ele>584.182</ele>
        <time>2021-07-27T11:55:36Z</time>
      </trkpt>
      <trkpt lat="42.643353" lon="-2.062195">
        <ele>583.112</ele>
        <time>2021-07-27T11:55:45Z</time>
      </trkpt>
      <trkpt lat="42.643455" lon="-2.061966">
        <ele>582.786</ele>
        <time>2021-07-27T11:55:49Z</time>
      </trkpt>
      <trkpt lat="42.643475" lon="-2.061900">
        <ele>582.754</ele>
        <time>2021-07-27T11:55:50Z</time>
      </trkpt>
      <trkpt lat="42.643488" lon="-2.061831">
        <ele>582.261</ele>
        <time>2021-07-27T11:55:51Z</time>
      </trkpt>
      <trkpt lat="42.643492" lon="-2.061757">
        <ele>582.249</ele>
        <time>2021-07-27T11:55:52Z</time>
      </trkpt>
      <trkpt lat="42.643496" lon="-2.061707">
        <ele>582.234</ele>
        <time>2021-07-27T11:55:53Z</time>
      </trkpt>
      <trkpt lat="42.643508" lon="-2.061636">
        <ele>581.755</ele>
        <time>2021-07-27T11:55:54Z</time>
      </trkpt>
      <trkpt lat="42.643520" lon="-2.061589">
        <ele>581.710</ele>
        <time>2021-07-27T11:55:55Z</time>
      </trkpt>
      <trkpt lat="42.643544" lon="-2.061521">
        <ele>581.708</ele>
        <time>2021-07-27T11:55:56Z</time>
      </trkpt>
      <trkpt lat="42.643578" lon="-2.061458">
        <ele>581.230</ele>
        <time>2021-07-27T11:55:57Z</time>
      </trkpt>
      <trkpt lat="42.643601" lon="-2.061425">
        <ele>581.212</ele>
        <time>2021-07-27T11:55:58Z</time>
      </trkpt>
      <trkpt lat="42.643646" lon="-2.061372">
        <ele>580.749</ele>
        <time>2021-07-27T11:55:59Z</time>
      </trkpt>
      <trkpt lat="42.643695" lon="-2.061327">
        <ele>580.719</ele>
        <time>2021-07-27T11:56:00Z</time>
      </trkpt>
      <trkpt lat="42.643719" lon="-2.061302">
        <ele>580.733</ele>
        <time>2021-07-27T11:56:01Z</time>
      </trkpt>
      <trkpt lat="42.643770" lon="-2.061241">
        <ele>580.771</ele>
        <time>2021-07-27T11:56:02Z</time>
      </trkpt>
      <trkpt lat="42.643810" lon="-2.061188">
        <ele>580.218</ele>
        <time>2021-07-27T11:56:03Z</time>
      </trkpt>
      <trkpt lat="42.644048" lon="-2.060701">
        <ele>578.866</ele>
        <time>2021-07-27T11:56:11Z</time>
      </trkpt>
      <trkpt lat="42.644375" lon="-2.059906">
        <ele>577.419</ele>
        <time>2021-07-27T11:56:22Z</time>
      </trkpt>
      <trkpt lat="42.644547" lon="-2.059459">
        <ele>577.409</ele>
        <time>2021-07-27T11:56:30Z</time>
      </trkpt>
      <trkpt lat="42.644761" lon="-2.058891">
        <ele>576.919</ele>
        <time>2021-07-27T11:56:41Z</time>
      </trkpt>
      <trkpt lat="42.644932" lon="-2.058452">
        <ele>575.908</ele>
        <time>2021-07-27T11:56:50Z</time>
      </trkpt>
      <trkpt lat="42.645189" lon="-2.057813">
        <ele>574.538</ele>
        <time>2021-07-27T11:57:01Z</time>
      </trkpt>
      <trkpt lat="42.645273" lon="-2.057597">
        <ele>573.580</ele>
        <time>2021-07-27T11:57:05Z</time>
      </trkpt>
      <trkpt lat="42.645490" lon="-2.057062">
        <ele>572.117</ele>
        <time>2021-07-27T11:57:14Z</time>
      </trkpt>
      <trkpt lat="42.645768" lon="-2.056357">
        <ele>570.247</ele>
        <time>2021-07-27T11:57:24Z</time>
      </trkpt>
      <trkpt lat="42.646039" lon="-2.055665">
        <ele>568.241</ele>
        <time>2021-07-27T11:57:33Z</time>
      </trkpt>
      <trkpt lat="42.646393" lon="-2.054781">
        <ele>564.939</ele>
        <time>2021-07-27T11:57:43Z</time>
      </trkpt>
      <trkpt lat="42.646867" lon="-2.053613">
        <ele>561.016</ele>
        <time>2021-07-27T11:57:56Z</time>
      </trkpt>
      <trkpt lat="42.647203" lon="-2.052833">
        <ele>556.724</ele>
        <time>2021-07-27T11:58:04Z</time>
      </trkpt>
      <trkpt lat="42.647458" lon="-2.052252">
        <ele>553.879</ele>
        <time>2021-07-27T11:58:10Z</time>
      </trkpt>
      <trkpt lat="42.647591" lon="-2.051927">
        <ele>551.905</ele>
        <time>2021-07-27T11:58:15Z</time>
      </trkpt>
      <trkpt lat="42.647789" lon="-2.051494">
        <ele>550.025</ele>
        <time>2021-07-27T11:58:23Z</time>
      </trkpt>
      <trkpt lat="42.647939" lon="-2.051190">
        <ele>548.008</ele>
        <time>2021-07-27T11:58:29Z</time>
      </trkpt>
      <trkpt lat="42.647963" lon="-2.051157">
        <ele>547.664</ele>
        <time>2021-07-27T11:58:34Z</time>
      </trkpt>
      <trkpt lat="42.647994" lon="-2.051114">
        <ele>546.636</ele>
        <time>2021-07-27T11:58:45Z</time>
      </trkpt>
      <trkpt lat="42.648110" lon="-2.050887">
        <ele>546.163</ele>
        <time>2021-07-27T11:58:56Z</time>
      </trkpt>
      <trkpt lat="42.648246" lon="-2.050663">
        <ele>545.263</ele>
        <time>2021-07-27T11:59:06Z</time>
      </trkpt>
      <trkpt lat="42.648323" lon="-2.050542">
        <ele>544.767</ele>
        <time>2021-07-27T11:59:13Z</time>
      </trkpt>
      <trkpt lat="42.648400" lon="-2.050432">
        <ele>544.275</ele>
        <time>2021-07-27T11:59:21Z</time>
      </trkpt>
      <trkpt lat="42.648498" lon="-2.050286">
        <ele>542.892</ele>
        <time>2021-07-27T11:59:27Z</time>
      </trkpt>
      <trkpt lat="42.648712" lon="-2.049973">
        <ele>540.450</ele>
        <time>2021-07-27T11:59:34Z</time>
      </trkpt>
      <trkpt lat="42.648991" lon="-2.049568">
        <ele>537.014</ele>
        <time>2021-07-27T11:59:42Z</time>
      </trkpt>
      <trkpt lat="42.649303" lon="-2.049103">
        <ele>534.154</ele>
        <time>2021-07-27T11:59:49Z</time>
      </trkpt>
      <trkpt lat="42.649706" lon="-2.048506">
        <ele>530.709</ele>
        <time>2021-07-27T11:59:58Z</time>
      </trkpt>
      <trkpt lat="42.650036" lon="-2.048009">
        <ele>528.308</ele>
        <time>2021-07-27T12:00:06Z</time>
      </trkpt>
      <trkpt lat="42.650291" lon="-2.047652">
        <ele>526.488</ele>
        <time>2021-07-27T12:00:12Z</time>
      </trkpt>
      <trkpt lat="42.650547" lon="-2.047276">
        <ele>524.090</ele>
        <time>2021-07-27T12:00:20Z</time>
      </trkpt>
      <trkpt lat="42.650673" lon="-2.047124">
        <ele>523.047</ele>
        <time>2021-07-27T12:00:23Z</time>
      </trkpt>
      <trkpt lat="42.650712" lon="-2.047062">
        <ele>522.137</ele>
        <time>2021-07-27T12:00:24Z</time>
      </trkpt>
      <trkpt lat="42.650858" lon="-2.046789">
        <ele>520.651</ele>
        <time>2021-07-27T12:00:28Z</time>
      </trkpt>
      <trkpt lat="42.651127" lon="-2.046372">
        <ele>517.329</ele>
        <time>2021-07-27T12:00:34Z</time>
      </trkpt>
      <trkpt lat="42.651338" lon="-2.046008">
        <ele>514.946</ele>
        <time>2021-07-27T12:00:40Z</time>
      </trkpt>
      <trkpt lat="42.651499" lon="-2.045738">
        <ele>513.424</ele>
        <time>2021-07-27T12:00:45Z</time>
      </trkpt>
      <trkpt lat="42.651521" lon="-2.045675">
        <ele>513.059</ele>
        <time>2021-07-27T12:00:46Z</time>
      </trkpt>
      <trkpt lat="42.651535" lon="-2.045611">
        <ele>512.503</ele>
        <time>2021-07-27T12:00:47Z</time>
      </trkpt>
      <trkpt lat="42.651539" lon="-2.045553">
        <ele>512.023</ele>
        <time>2021-07-27T12:00:48Z</time>
      </trkpt>
      <trkpt lat="42.651529" lon="-2.045474">
        <ele>511.508</ele>
        <time>2021-07-27T12:00:49Z</time>
      </trkpt>
      <trkpt lat="42.651514" lon="-2.045408">
        <ele>511.582</ele>
        <time>2021-07-27T12:00:50Z</time>
      </trkpt>
      <trkpt lat="42.651499" lon="-2.045356">
        <ele>511.564</ele>
        <time>2021-07-27T12:00:51Z</time>
      </trkpt>
      <trkpt lat="42.651483" lon="-2.045307">
        <ele>511.511</ele>
        <time>2021-07-27T12:00:52Z</time>
      </trkpt>
      <trkpt lat="42.651297" lon="-2.044909">
        <ele>512.051</ele>
        <time>2021-07-27T12:01:01Z</time>
      </trkpt>
      <trkpt lat="42.651085" lon="-2.044699">
        <ele>513.065</ele>
        <time>2021-07-27T12:01:09Z</time>
      </trkpt>
      <trkpt lat="42.650868" lon="-2.044609">
        <ele>514.463</ele>
        <time>2021-07-27T12:01:17Z</time>
      </trkpt>
      <trkpt lat="42.650653" lon="-2.044497">
        <ele>514.940</ele>
        <time>2021-07-27T12:01:26Z</time>
      </trkpt>
      <trkpt lat="42.650457" lon="-2.044356">
        <ele>515.858</ele>
        <time>2021-07-27T12:01:35Z</time>
      </trkpt>
      <trkpt lat="42.650363" lon="-2.044224">
        <ele>515.888</ele>
        <time>2021-07-27T12:01:43Z</time>
      </trkpt>
      <trkpt lat="42.650361" lon="-2.044205">
        <ele>515.824</ele>
        <time>2021-07-27T12:01:44Z</time>
      </trkpt>
      <trkpt lat="42.650359" lon="-2.044183">
        <ele>515.826</ele>
        <time>2021-07-27T12:01:45Z</time>
      </trkpt>
      <trkpt lat="42.650357" lon="-2.044161">
        <ele>515.808</ele>
        <time>2021-07-27T12:01:46Z</time>
      </trkpt>
      <trkpt lat="42.650356" lon="-2.044139">
        <ele>516.355</ele>
        <time>2021-07-27T12:01:47Z</time>
      </trkpt>
      <trkpt lat="42.650365" lon="-2.043917">
        <ele>516.367</ele>
        <time>2021-07-27T12:01:56Z</time>
      </trkpt>
      <trkpt lat="42.650368" lon="-2.043733">
        <ele>516.374</ele>
        <time>2021-07-27T12:02:04Z</time>
      </trkpt>
      <trkpt lat="42.650366" lon="-2.043635">
        <ele>516.824</ele>
        <time>2021-07-27T12:02:09Z</time>
      </trkpt>
      <trkpt lat="42.650361" lon="-2.043614">
        <ele>516.888</ele>
        <time>2021-07-27T12:02:16Z</time>
      </trkpt>
      <trkpt lat="42.650367" lon="-2.043598">
        <ele>518.236</ele>
        <time>2021-07-27T12:02:34Z</time>
      </trkpt>
      <trkpt lat="42.650382" lon="-2.043568">
        <ele>517.813</ele>
        <time>2021-07-27T12:02:55Z</time>
      </trkpt>
      <trkpt lat="42.650388" lon="-2.043572">
        <ele>517.821</ele>
        <time>2021-07-27T12:03:09Z</time>
      </trkpt>
      <trkpt lat="42.650403" lon="-2.043606">
        <ele>517.853</ele>
        <time>2021-07-27T12:03:17Z</time>
      </trkpt>
      <trkpt lat="42.650399" lon="-2.043615">
        <ele>517.804</ele>
        <time>2021-07-27T12:03:29Z</time>
      </trkpt>
      <trkpt lat="42.650398" lon="-2.043616">
        <ele>518.214</ele>
        <time>2021-07-27T12:03:32Z</time>
      </trkpt>
      <trkpt lat="42.650373" lon="-2.043772">
        <ele>516.808</ele>
        <time>2021-07-27T12:03:40Z</time>
      </trkpt>
      <trkpt lat="42.650367" lon="-2.043810">
        <ele>516.312</ele>
        <time>2021-07-27T12:03:42Z</time>
      </trkpt>
      <trkpt lat="42.650364" lon="-2.044016">
        <ele>515.834</ele>
        <time>2021-07-27T12:03:50Z</time>
      </trkpt>
      <trkpt lat="42.650314" lon="-2.044131">
        <ele>516.391</ele>
        <time>2021-07-27T12:03:56Z</time>
      </trkpt>
      <trkpt lat="42.650304" lon="-2.044139">
        <ele>516.841</ele>
        <time>2021-07-27T12:03:57Z</time>
      </trkpt>
      <trkpt lat="42.650255" lon="-2.044204">
        <ele>516.865</ele>
        <time>2021-07-27T12:04:04Z</time>
      </trkpt>
      <trkpt lat="42.650264" lon="-2.044215">
        <ele>516.853</ele>
        <time>2021-07-27T12:04:05Z</time>
      </trkpt>
      <trkpt lat="42.650280" lon="-2.044226">
        <ele>517.350</ele>
        <time>2021-07-27T12:04:06Z</time>
      </trkpt>
      <trkpt lat="42.650298" lon="-2.044236">
        <ele>517.388</ele>
        <time>2021-07-27T12:04:07Z</time>
      </trkpt>
      <trkpt lat="42.650321" lon="-2.044245">
        <ele>517.386</ele>
        <time>2021-07-27T12:04:08Z</time>
      </trkpt>
      <trkpt lat="42.650522" lon="-2.044385">
        <ele>516.860</ele>
        <time>2021-07-27T12:04:16Z</time>
      </trkpt>
      <trkpt lat="42.650818" lon="-2.044557">
        <ele>515.826</ele>
        <time>2021-07-27T12:04:26Z</time>
      </trkpt>
      <trkpt lat="42.651122" lon="-2.044691">
        <ele>515.408</ele>
        <time>2021-07-27T12:04:35Z</time>
      </trkpt>
      <trkpt lat="42.651229" lon="-2.044775">
        <ele>515.485</ele>
        <time>2021-07-27T12:04:38Z</time>
      </trkpt>
      <trkpt lat="42.651453" lon="-2.045137">
        <ele>513.937</ele>
        <time>2021-07-27T12:04:45Z</time>
      </trkpt>
      <trkpt lat="42.651564" lon="-2.045408">
        <ele>513.054</ele>
        <time>2021-07-27T12:04:49Z</time>
      </trkpt>
      <trkpt lat="42.651592" lon="-2.045447">
        <ele>513.014</ele>
        <time>2021-07-27T12:04:50Z</time>
      </trkpt>
      <trkpt lat="42.651629" lon="-2.045464">
        <ele>512.548</ele>
        <time>2021-07-27T12:04:51Z</time>
      </trkpt>
      <trkpt lat="42.651661" lon="-2.045458">
        <ele>512.596</ele>
        <time>2021-07-27T12:04:52Z</time>
      </trkpt>
      <trkpt lat="42.651684" lon="-2.045433">
        <ele>512.083</ele>
        <time>2021-07-27T12:04:53Z</time>
      </trkpt>
      <trkpt lat="42.651713" lon="-2.045388">
        <ele>511.551</ele>
        <time>2021-07-27T12:04:54Z</time>
      </trkpt>
      <trkpt lat="42.651726" lon="-2.045357">
        <ele>511.075</ele>
        <time>2021-07-27T12:04:55Z</time>
      </trkpt>
      <trkpt lat="42.651749" lon="-2.045304">
        <ele>510.628</ele>
        <time>2021-07-27T12:04:56Z</time>
      </trkpt>
      <trkpt lat="42.651773" lon="-2.045252">
        <ele>510.620</ele>
        <time>2021-07-27T12:04:57Z</time>
      </trkpt>
      <trkpt lat="42.652011" lon="-2.044799">
        <ele>507.708</ele>
        <time>2021-07-27T12:05:04Z</time>
      </trkpt>
      <trkpt lat="42.652134" lon="-2.044564">
        <ele>506.254</ele>
        <time>2021-07-27T12:05:09Z</time>
      </trkpt>
      <trkpt lat="42.652334" lon="-2.044210">
        <ele>503.836</ele>
        <time>2021-07-27T12:05:17Z</time>
      </trkpt>
      <trkpt lat="42.652544" lon="-2.043815">
        <ele>501.473</ele>
        <time>2021-07-27T12:05:23Z</time>
      </trkpt>
      <trkpt lat="42.652932" lon="-2.043108">
        <ele>497.663</ele>
        <time>2021-07-27T12:05:33Z</time>
      </trkpt>
      <trkpt lat="42.653129" lon="-2.042775">
        <ele>495.287</ele>
        <time>2021-07-27T12:05:39Z</time>
      </trkpt>
      <trkpt lat="42.653437" lon="-2.042237">
        <ele>491.885</ele>
        <time>2021-07-27T12:05:48Z</time>
      </trkpt>
      <trkpt lat="42.653777" lon="-2.041671">
        <ele>488.922</ele>
        <time>2021-07-27T12:05:55Z</time>
      </trkpt>
      <trkpt lat="42.654092" lon="-2.041191">
        <ele>487.530</ele>
        <time>2021-07-27T12:06:02Z</time>
      </trkpt>
      <trkpt lat="42.654376" lon="-2.040747">
        <ele>488.053</ele>
        <time>2021-07-27T12:06:10Z</time>
      </trkpt>
      <trkpt lat="42.654525" lon="-2.040519">
        <ele>488.004</ele>
        <time>2021-07-27T12:06:17Z</time>
      </trkpt>
      <trkpt lat="42.654702" lon="-2.040257">
        <ele>488.414</ele>
        <time>2021-07-27T12:06:26Z</time>
      </trkpt>
      <trkpt lat="42.654917" lon="-2.039917">
        <ele>490.408</ele>
        <time>2021-07-27T12:06:38Z</time>
      </trkpt>
      <trkpt lat="42.655113" lon="-2.039607">
        <ele>490.862</ele>
        <time>2021-07-27T12:06:49Z</time>
      </trkpt>
      <trkpt lat="42.655340" lon="-2.039234">
        <ele>491.834</ele>
        <time>2021-07-27T12:07:00Z</time>
      </trkpt>
      <trkpt lat="42.655533" lon="-2.038917">
        <ele>492.331</ele>
        <time>2021-07-27T12:07:09Z</time>
      </trkpt>
      <trkpt lat="42.655833" lon="-2.038616">
        <ele>490.841</ele>
        <time>2021-07-27T12:07:18Z</time>
      </trkpt>
      <trkpt lat="42.656195" lon="-2.038265">
        <ele>489.415</ele>
        <time>2021-07-27T12:07:27Z</time>
      </trkpt>
      <trkpt lat="42.656389" lon="-2.038060">
        <ele>488.013</ele>
        <time>2021-07-27T12:07:33Z</time>
      </trkpt>
      <trkpt lat="42.656415" lon="-2.038013">
        <ele>487.520</ele>
        <time>2021-07-27T12:07:34Z</time>
      </trkpt>
      <trkpt lat="42.656471" lon="-2.037914">
        <ele>487.028</ele>
        <time>2021-07-27T12:07:36Z</time>
      </trkpt>
      <trkpt lat="42.656514" lon="-2.037874">
        <ele>486.522</ele>
        <time>2021-07-27T12:07:37Z</time>
      </trkpt>
      <trkpt lat="42.656562" lon="-2.037847">
        <ele>486.562</ele>
        <time>2021-07-27T12:07:38Z</time>
      </trkpt>
      <trkpt lat="42.656662" lon="-2.037797">
        <ele>486.508</ele>
        <time>2021-07-27T12:07:40Z</time>
      </trkpt>
      <trkpt lat="42.656971" lon="-2.037515">
        <ele>485.108</ele>
        <time>2021-07-27T12:07:47Z</time>
      </trkpt>
      <trkpt lat="42.657543" lon="-2.036964">
        <ele>484.169</ele>
        <time>2021-07-27T12:07:59Z</time>
      </trkpt>
      <trkpt lat="42.657846" lon="-2.036694">
        <ele>484.191</ele>
        <time>2021-07-27T12:08:07Z</time>
      </trkpt>
      <trkpt lat="42.658250" lon="-2.036287">
        <ele>486.048</ele>
        <time>2021-07-27T12:08:20Z</time>
      </trkpt>
      <trkpt lat="42.658611" lon="-2.035944">
        <ele>483.278</ele>
        <time>2021-07-27T12:08:29Z</time>
      </trkpt>
      <trkpt lat="42.658702" lon="-2.035850">
        <ele>482.792</ele>
        <time>2021-07-27T12:08:31Z</time>
      </trkpt>
      <trkpt lat="42.658742" lon="-2.035784">
        <ele>482.240</ele>
        <time>2021-07-27T12:08:32Z</time>
      </trkpt>
      <trkpt lat="42.658781" lon="-2.035673">
        <ele>481.717</ele>
        <time>2021-07-27T12:08:34Z</time>
      </trkpt>
      <trkpt lat="42.658788" lon="-2.035556">
        <ele>481.265</ele>
        <time>2021-07-27T12:08:35Z</time>
      </trkpt>
      <trkpt lat="42.658791" lon="-2.035478">
        <ele>480.819</ele>
        <time>2021-07-27T12:08:36Z</time>
      </trkpt>
      <trkpt lat="42.658810" lon="-2.035407">
        <ele>480.309</ele>
        <time>2021-07-27T12:08:37Z</time>
      </trkpt>
      <trkpt lat="42.658846" lon="-2.035355">
        <ele>479.819</ele>
        <time>2021-07-27T12:08:38Z</time>
      </trkpt>
      <trkpt lat="42.658898" lon="-2.035327">
        <ele>479.308</ele>
        <time>2021-07-27T12:08:39Z</time>
      </trkpt>
      <trkpt lat="42.658948" lon="-2.035330">
        <ele>479.348</ele>
        <time>2021-07-27T12:08:40Z</time>
      </trkpt>
      <trkpt lat="42.659004" lon="-2.035341">
        <ele>478.830</ele>
        <time>2021-07-27T12:08:41Z</time>
      </trkpt>
      <trkpt lat="42.659059" lon="-2.035341">
        <ele>478.867</ele>
        <time>2021-07-27T12:08:42Z</time>
      </trkpt>
      <trkpt lat="42.659106" lon="-2.035326">
        <ele>478.367</ele>
        <time>2021-07-27T12:08:43Z</time>
      </trkpt>
      <trkpt lat="42.659152" lon="-2.035291">
        <ele>477.911</ele>
        <time>2021-07-27T12:08:44Z</time>
      </trkpt>
      <trkpt lat="42.659194" lon="-2.035236">
        <ele>477.439</ele>
        <time>2021-07-27T12:08:45Z</time>
      </trkpt>
      <trkpt lat="42.659237" lon="-2.035147">
        <ele>476.466</ele>
        <time>2021-07-27T12:08:47Z</time>
      </trkpt>
      <trkpt lat="42.659272" lon="-2.035058">
        <ele>475.574</ele>
        <time>2021-07-27T12:08:48Z</time>
      </trkpt>
      <trkpt lat="42.659305" lon="-2.034988">
        <ele>474.598</ele>
        <time>2021-07-27T12:08:49Z</time>
      </trkpt>
      <trkpt lat="42.660295" lon="-2.033829">
        <ele>463.415</ele>
        <time>2021-07-27T12:09:09Z</time>
      </trkpt>
      <trkpt lat="42.660608" lon="-2.033747">
        <ele>461.026</ele>
        <time>2021-07-27T12:09:14Z</time>
      </trkpt>
      <trkpt lat="42.660648" lon="-2.033722">
        <ele>460.608</ele>
        <time>2021-07-27T12:09:15Z</time>
      </trkpt>
      <trkpt lat="42.660687" lon="-2.033687">
        <ele>460.146</ele>
        <time>2021-07-27T12:09:16Z</time>
      </trkpt>
      <trkpt lat="42.660757" lon="-2.033615">
        <ele>459.168</ele>
        <time>2021-07-27T12:09:18Z</time>
      </trkpt>
      <trkpt lat="42.660803" lon="-2.033589">
        <ele>458.655</ele>
        <time>2021-07-27T12:09:19Z</time>
      </trkpt>
      <trkpt lat="42.660849" lon="-2.033572">
        <ele>458.295</ele>
        <time>2021-07-27T12:09:20Z</time>
      </trkpt>
      <trkpt lat="42.660891" lon="-2.033562">
        <ele>457.759</ele>
        <time>2021-07-27T12:09:21Z</time>
      </trkpt>
      <trkpt lat="42.660944" lon="-2.033558">
        <ele>457.227</ele>
        <time>2021-07-27T12:09:22Z</time>
      </trkpt>
      <trkpt lat="42.660990" lon="-2.033556">
        <ele>456.784</ele>
        <time>2021-07-27T12:09:23Z</time>
      </trkpt>
      <trkpt lat="42.661227" lon="-2.033536">
        <ele>455.362</ele>
        <time>2021-07-27T12:09:28Z</time>
      </trkpt>
      <trkpt lat="42.661267" lon="-2.033521">
        <ele>455.384</ele>
        <time>2021-07-27T12:09:29Z</time>
      </trkpt>
      <trkpt lat="42.661317" lon="-2.033496">
        <ele>454.807</ele>
        <time>2021-07-27T12:09:30Z</time>
      </trkpt>
      <trkpt lat="42.661359" lon="-2.033473">
        <ele>454.817</ele>
        <time>2021-07-27T12:09:31Z</time>
      </trkpt>
      <trkpt lat="42.661398" lon="-2.033452">
        <ele>454.308</ele>
        <time>2021-07-27T12:09:32Z</time>
      </trkpt>
      <trkpt lat="42.661526" lon="-2.033374">
        <ele>452.985</ele>
        <time>2021-07-27T12:09:35Z</time>
      </trkpt>
      <trkpt lat="42.661575" lon="-2.033357">
        <ele>452.997</ele>
        <time>2021-07-27T12:09:36Z</time>
      </trkpt>
      <trkpt lat="42.661745" lon="-2.033335">
        <ele>451.424</ele>
        <time>2021-07-27T12:09:39Z</time>
      </trkpt>
      <trkpt lat="42.661848" lon="-2.033342">
        <ele>451.024</ele>
        <time>2021-07-27T12:09:41Z</time>
      </trkpt>
      <trkpt lat="42.661905" lon="-2.033332">
        <ele>450.558</ele>
        <time>2021-07-27T12:09:42Z</time>
      </trkpt>
      <trkpt lat="42.662384" lon="-2.033175">
        <ele>447.166</ele>
        <time>2021-07-27T12:09:50Z</time>
      </trkpt>
      <trkpt lat="42.662749" lon="-2.033018">
        <ele>445.293</ele>
        <time>2021-07-27T12:09:57Z</time>
      </trkpt>
      <trkpt lat="42.662958" lon="-2.032907">
        <ele>443.741</ele>
        <time>2021-07-27T12:10:02Z</time>
      </trkpt>
      <trkpt lat="42.662971" lon="-2.032861">
        <ele>443.758</ele>
        <time>2021-07-27T12:10:03Z</time>
      </trkpt>
      <trkpt lat="42.662970" lon="-2.032816">
        <ele>443.752</ele>
        <time>2021-07-27T12:10:04Z</time>
      </trkpt>
      <trkpt lat="42.662965" lon="-2.032635">
        <ele>442.317</ele>
        <time>2021-07-27T12:10:07Z</time>
      </trkpt>
      <trkpt lat="42.663147" lon="-2.032174">
        <ele>438.508</ele>
        <time>2021-07-27T12:10:15Z</time>
      </trkpt>
      <trkpt lat="42.663242" lon="-2.031970">
        <ele>437.022</ele>
        <time>2021-07-27T12:10:20Z</time>
      </trkpt>
      <trkpt lat="42.663268" lon="-2.031894">
        <ele>437.514</ele>
        <time>2021-07-27T12:10:25Z</time>
      </trkpt>
      <trkpt lat="42.663270" lon="-2.031890">
        <ele>438.081</ele>
        <time>2021-07-27T12:10:26Z</time>
      </trkpt>
      <trkpt lat="42.663257" lon="-2.031828">
        <ele>438.091</ele>
        <time>2021-07-27T12:10:29Z</time>
      </trkpt>
      <trkpt lat="42.663242" lon="-2.031798">
        <ele>438.025</ele>
        <time>2021-07-27T12:10:30Z</time>
      </trkpt>
      <trkpt lat="42.663231" lon="-2.031778">
        <ele>438.063</ele>
        <time>2021-07-27T12:10:31Z</time>
      </trkpt>
      <trkpt lat="42.663212" lon="-2.031758">
        <ele>438.580</ele>
        <time>2021-07-27T12:10:32Z</time>
      </trkpt>
      <trkpt lat="42.663188" lon="-2.031738">
        <ele>438.938</ele>
        <time>2021-07-27T12:10:33Z</time>
      </trkpt>
      <trkpt lat="42.662944" lon="-2.031571">
        <ele>443.382</ele>
        <time>2021-07-27T12:10:41Z</time>
      </trkpt>
      <trkpt lat="42.662614" lon="-2.031282">
        <ele>448.543</ele>
        <time>2021-07-27T12:10:51Z</time>
      </trkpt>
      <trkpt lat="42.662395" lon="-2.031127">
        <ele>448.117</ele>
        <time>2021-07-27T12:10:58Z</time>
      </trkpt>
      <trkpt lat="42.662142" lon="-2.030964">
        <ele>448.508</ele>
        <time>2021-07-27T12:11:06Z</time>
      </trkpt>
      <trkpt lat="42.661807" lon="-2.030770">
        <ele>451.455</ele>
        <time>2021-07-27T12:11:16Z</time>
      </trkpt>
      <trkpt lat="42.661422" lon="-2.030579">
        <ele>452.467</ele>
        <time>2021-07-27T12:11:27Z</time>
      </trkpt>
      <trkpt lat="42.660937" lon="-2.030345">
        <ele>453.474</ele>
        <time>2021-07-27T12:11:41Z</time>
      </trkpt>
      <trkpt lat="42.660554" lon="-2.030162">
        <ele>454.814</ele>
        <time>2021-07-27T12:11:52Z</time>
      </trkpt>
      <trkpt lat="42.660215" lon="-2.029999">
        <ele>455.358</ele>
        <time>2021-07-27T12:12:02Z</time>
      </trkpt>
      <trkpt lat="42.659822" lon="-2.029821">
        <ele>455.876</ele>
        <time>2021-07-27T12:12:13Z</time>
      </trkpt>
      <trkpt lat="42.659447" lon="-2.029646">
        <ele>457.253</ele>
        <time>2021-07-27T12:12:24Z</time>
      </trkpt>
      <trkpt lat="42.659082" lon="-2.029471">
        <ele>457.291</ele>
        <time>2021-07-27T12:12:35Z</time>
      </trkpt>
      <trkpt lat="42.658708" lon="-2.029379">
        <ele>454.899</ele>
        <time>2021-07-27T12:12:46Z</time>
      </trkpt>
      <trkpt lat="42.658458" lon="-2.029263">
        <ele>456.207</ele>
        <time>2021-07-27T12:12:54Z</time>
      </trkpt>
      <trkpt lat="42.658080" lon="-2.029067">
        <ele>459.127</ele>
        <time>2021-07-27T12:13:06Z</time>
      </trkpt>
      <trkpt lat="42.657872" lon="-2.028907">
        <ele>465.908</ele>
        <time>2021-07-27T12:13:13Z</time>
      </trkpt>
      <trkpt lat="42.657630" lon="-2.028767">
        <ele>463.986</ele>
        <time>2021-07-27T12:13:22Z</time>
      </trkpt>
      <trkpt lat="42.657321" lon="-2.028620">
        <ele>462.548</ele>
        <time>2021-07-27T12:13:33Z</time>
      </trkpt>
      <trkpt lat="42.656999" lon="-2.028478">
        <ele>464.915</ele>
        <time>2021-07-27T12:13:44Z</time>
      </trkpt>
      <trkpt lat="42.656703" lon="-2.028411">
        <ele>465.975</ele>
        <time>2021-07-27T12:13:54Z</time>
      </trkpt>
      <trkpt lat="42.656456" lon="-2.028378">
        <ele>465.959</ele>
        <time>2021-07-27T12:14:02Z</time>
      </trkpt>
      <trkpt lat="42.656188" lon="-2.028244">
        <ele>466.397</ele>
        <time>2021-07-27T12:14:11Z</time>
      </trkpt>
      <trkpt lat="42.655924" lon="-2.028122">
        <ele>467.324</ele>
        <time>2021-07-27T12:14:20Z</time>
      </trkpt>
      <trkpt lat="42.655625" lon="-2.028100">
        <ele>467.382</ele>
        <time>2021-07-27T12:14:30Z</time>
      </trkpt>
      <trkpt lat="42.655300" lon="-2.028144">
        <ele>466.864</ele>
        <time>2021-07-27T12:14:40Z</time>
      </trkpt>
      <trkpt lat="42.655076" lon="-2.027998">
        <ele>468.306</ele>
        <time>2021-07-27T12:14:47Z</time>
      </trkpt>
      <trkpt lat="42.654904" lon="-2.027680">
        <ele>469.716</ele>
        <time>2021-07-27T12:14:55Z</time>
      </trkpt>
      <trkpt lat="42.654699" lon="-2.027527">
        <ele>468.708</ele>
        <time>2021-07-27T12:15:02Z</time>
      </trkpt>
      <trkpt lat="42.654320" lon="-2.027262">
        <ele>466.313</ele>
        <time>2021-07-27T12:15:15Z</time>
      </trkpt>
      <trkpt lat="42.654047" lon="-2.027093">
        <ele>466.855</ele>
        <time>2021-07-27T12:15:25Z</time>
      </trkpt>
      <trkpt lat="42.653789" lon="-2.026909">
        <ele>466.312</ele>
        <time>2021-07-27T12:15:34Z</time>
      </trkpt>
      <trkpt lat="42.653760" lon="-2.026901">
        <ele>466.312</ele>
        <time>2021-07-27T12:15:35Z</time>
      </trkpt>
      <trkpt lat="42.653729" lon="-2.026905">
        <ele>466.376</ele>
        <time>2021-07-27T12:15:36Z</time>
      </trkpt>
      <trkpt lat="42.653700" lon="-2.026911">
        <ele>466.384</ele>
        <time>2021-07-27T12:15:37Z</time>
      </trkpt>
      <trkpt lat="42.653675" lon="-2.026911">
        <ele>466.351</ele>
        <time>2021-07-27T12:15:38Z</time>
      </trkpt>
      <trkpt lat="42.653645" lon="-2.026908">
        <ele>466.389</ele>
        <time>2021-07-27T12:15:39Z</time>
      </trkpt>
      <trkpt lat="42.653470" lon="-2.026988">
        <ele>466.861</ele>
        <time>2021-07-27T12:15:46Z</time>
      </trkpt>
      <trkpt lat="42.653381" lon="-2.027041">
        <ele>467.321</ele>
        <time>2021-07-27T12:15:50Z</time>
      </trkpt>
      <trkpt lat="42.653357" lon="-2.027032">
        <ele>467.313</ele>
        <time>2021-07-27T12:15:51Z</time>
      </trkpt>
      <trkpt lat="42.653336" lon="-2.027022">
        <ele>467.308</ele>
        <time>2021-07-27T12:15:52Z</time>
      </trkpt>
      <trkpt lat="42.653168" lon="-2.026907">
        <ele>465.913</ele>
        <time>2021-07-27T12:16:03Z</time>
      </trkpt>
      <trkpt lat="42.653167" lon="-2.026876">
        <ele>467.325</ele>
        <time>2021-07-27T12:16:11Z</time>
      </trkpt>
      <trkpt lat="42.653158" lon="-2.026883">
        <ele>467.822</ele>
        <time>2021-07-27T12:16:17Z</time>
      </trkpt>
      <trkpt lat="42.653138" lon="-2.026906">
        <ele>468.742</ele>
        <time>2021-07-27T12:16:30Z</time>
      </trkpt>
      <trkpt lat="42.653139" lon="-2.026908">
        <ele>467.866</ele>
        <time>2021-07-27T12:16:44Z</time>
      </trkpt>
      <trkpt lat="42.652843" lon="-2.026846">
        <ele>446.634</ele>
        <time>2021-07-28T06:17:47Z</time>
      </trkpt>
      <trkpt lat="42.652909" lon="-2.026826">
        <ele>451.411</ele>
        <time>2021-07-28T06:18:00Z</time>
      </trkpt>
      <trkpt lat="42.653130" lon="-2.026846">
        <ele>463.079</ele>
        <time>2021-07-28T06:18:11Z</time>
      </trkpt>
      <trkpt lat="42.653218" lon="-2.026792">
        <ele>466.875</ele>
        <time>2021-07-28T06:18:23Z</time>
      </trkpt>
      <trkpt lat="42.653224" lon="-2.026797">
        <ele>466.828</ele>
        <time>2021-07-28T06:18:27Z</time>
      </trkpt>
      <trkpt lat="42.653259" lon="-2.026719">
        <ele>467.820</ele>
        <time>2021-07-28T06:18:32Z</time>
      </trkpt>
      <trkpt lat="42.653359" lon="-2.026523">
        <ele>467.808</ele>
        <time>2021-07-28T06:18:45Z</time>
      </trkpt>
      <trkpt lat="42.653399" lon="-2.026400">
        <ele>468.344</ele>
        <time>2021-07-28T06:18:53Z</time>
      </trkpt>
      <trkpt lat="42.653472" lon="-2.026348">
        <ele>466.366</ele>
        <time>2021-07-28T06:19:01Z</time>
      </trkpt>
      <trkpt lat="42.653498" lon="-2.026365">
        <ele>466.893</ele>
        <time>2021-07-28T06:19:07Z</time>
      </trkpt>
      <trkpt lat="42.653553" lon="-2.026404">
        <ele>466.843</ele>
        <time>2021-07-28T06:19:11Z</time>
      </trkpt>
      <trkpt lat="42.653575" lon="-2.026418">
        <ele>466.847</ele>
        <time>2021-07-28T06:19:12Z</time>
      </trkpt>
      <trkpt lat="42.653591" lon="-2.026433">
        <ele>466.885</ele>
        <time>2021-07-28T06:19:13Z</time>
      </trkpt>
      <trkpt lat="42.653611" lon="-2.026453">
        <ele>467.342</ele>
        <time>2021-07-28T06:19:14Z</time>
      </trkpt>
      <trkpt lat="42.653632" lon="-2.026473">
        <ele>467.370</ele>
        <time>2021-07-28T06:19:15Z</time>
      </trkpt>
      <trkpt lat="42.653655" lon="-2.026492">
        <ele>466.832</ele>
        <time>2021-07-28T06:19:16Z</time>
      </trkpt>
      <trkpt lat="42.653677" lon="-2.026508">
        <ele>466.892</ele>
        <time>2021-07-28T06:19:17Z</time>
      </trkpt>
      <trkpt lat="42.653698" lon="-2.026523">
        <ele>466.811</ele>
        <time>2021-07-28T06:19:18Z</time>
      </trkpt>
      <trkpt lat="42.653720" lon="-2.026541">
        <ele>466.808</ele>
        <time>2021-07-28T06:19:19Z</time>
      </trkpt>
      <trkpt lat="42.653742" lon="-2.026561">
        <ele>466.840</ele>
        <time>2021-07-28T06:19:20Z</time>
      </trkpt>
      <trkpt lat="42.653971" lon="-2.026738">
        <ele>467.332</ele>
        <time>2021-07-28T06:19:29Z</time>
      </trkpt>
      <trkpt lat="42.654154" lon="-2.026871">
        <ele>468.779</ele>
        <time>2021-07-28T06:19:36Z</time>
      </trkpt>
      <trkpt lat="42.654418" lon="-2.027058">
        <ele>470.229</ele>
        <time>2021-07-28T06:19:46Z</time>
      </trkpt>
      <trkpt lat="42.654691" lon="-2.027255">
        <ele>471.133</ele>
        <time>2021-07-28T06:19:56Z</time>
      </trkpt>
      <trkpt lat="42.654938" lon="-2.027404">
        <ele>471.151</ele>
        <time>2021-07-28T06:20:05Z</time>
      </trkpt>
      <trkpt lat="42.655115" lon="-2.027433">
        <ele>470.768</ele>
        <time>2021-07-28T06:20:12Z</time>
      </trkpt>
      <trkpt lat="42.655306" lon="-2.027349">
        <ele>469.796</ele>
        <time>2021-07-28T06:20:19Z</time>
      </trkpt>
      <trkpt lat="42.655516" lon="-2.027100">
        <ele>469.798</ele>
        <time>2021-07-28T06:20:28Z</time>
      </trkpt>
      <trkpt lat="42.655607" lon="-2.026872">
        <ele>471.115</ele>
        <time>2021-07-28T06:20:35Z</time>
      </trkpt>
      <trkpt lat="42.655716" lon="-2.026475">
        <ele>472.626</ele>
        <time>2021-07-28T06:20:47Z</time>
      </trkpt>
      <trkpt lat="42.655735" lon="-2.026457">
        <ele>472.608</ele>
        <time>2021-07-28T06:20:48Z</time>
      </trkpt>
      <trkpt lat="42.655763" lon="-2.026444">
        <ele>472.696</ele>
        <time>2021-07-28T06:20:49Z</time>
      </trkpt>
      <trkpt lat="42.655791" lon="-2.026443">
        <ele>472.638</ele>
        <time>2021-07-28T06:20:50Z</time>
      </trkpt>
      <trkpt lat="42.655825" lon="-2.026451">
        <ele>472.175</ele>
        <time>2021-07-28T06:20:51Z</time>
      </trkpt>
      <trkpt lat="42.655861" lon="-2.026463">
        <ele>472.175</ele>
        <time>2021-07-28T06:20:52Z</time>
      </trkpt>
      <trkpt lat="42.656189" lon="-2.026612">
        <ele>470.279</ele>
        <time>2021-07-28T06:20:59Z</time>
      </trkpt>
      <trkpt lat="42.656759" lon="-2.026895">
        <ele>467.827</ele>
        <time>2021-07-28T06:21:08Z</time>
      </trkpt>
      <trkpt lat="42.657115" lon="-2.027077">
        <ele>467.314</ele>
        <time>2021-07-28T06:21:15Z</time>
      </trkpt>
      <trkpt lat="42.657316" lon="-2.027159">
        <ele>467.322</ele>
        <time>2021-07-28T06:21:19Z</time>
      </trkpt>
      <trkpt lat="42.657761" lon="-2.027368">
        <ele>465.971</ele>
        <time>2021-07-28T06:21:29Z</time>
      </trkpt>
      <trkpt lat="42.658091" lon="-2.027531">
        <ele>462.541</ele>
        <time>2021-07-28T06:21:38Z</time>
      </trkpt>
      <trkpt lat="42.658426" lon="-2.027679">
        <ele>460.615</ele>
        <time>2021-07-28T06:21:46Z</time>
      </trkpt>
      <trkpt lat="42.658667" lon="-2.027801">
        <ele>460.608</ele>
        <time>2021-07-28T06:21:51Z</time>
      </trkpt>
      <trkpt lat="42.659160" lon="-2.028000">
        <ele>460.144</ele>
        <time>2021-07-28T06:22:01Z</time>
      </trkpt>
      <trkpt lat="42.659516" lon="-2.028163">
        <ele>457.296</ele>
        <time>2021-07-28T06:22:08Z</time>
      </trkpt>
      <trkpt lat="42.659617" lon="-2.028223">
        <ele>456.293</ele>
        <time>2021-07-28T06:22:10Z</time>
      </trkpt>
      <trkpt lat="42.659659" lon="-2.028259">
        <ele>456.243</ele>
        <time>2021-07-28T06:22:11Z</time>
      </trkpt>
      <trkpt lat="42.659773" lon="-2.028363">
        <ele>455.897</ele>
        <time>2021-07-28T06:22:14Z</time>
      </trkpt>
      <trkpt lat="42.659813" lon="-2.028385">
        <ele>455.845</ele>
        <time>2021-07-28T06:22:15Z</time>
      </trkpt>
      <trkpt lat="42.659863" lon="-2.028404">
        <ele>455.312</ele>
        <time>2021-07-28T06:22:16Z</time>
      </trkpt>
      <trkpt lat="42.659915" lon="-2.028414">
        <ele>454.820</ele>
        <time>2021-07-28T06:22:17Z</time>
      </trkpt>
      <trkpt lat="42.659969" lon="-2.028424">
        <ele>454.355</ele>
        <time>2021-07-28T06:22:18Z</time>
      </trkpt>
      <trkpt lat="42.660296" lon="-2.028526">
        <ele>453.407</ele>
        <time>2021-07-28T06:22:25Z</time>
      </trkpt>
      <trkpt lat="42.660610" lon="-2.028639">
        <ele>452.917</ele>
        <time>2021-07-28T06:22:31Z</time>
      </trkpt>
      <trkpt lat="42.661072" lon="-2.028818">
        <ele>451.008</ele>
        <time>2021-07-28T06:22:39Z</time>
      </trkpt>
      <trkpt lat="42.661295" lon="-2.028903">
        <ele>450.062</ele>
        <time>2021-07-28T06:22:44Z</time>
      </trkpt>
      <trkpt lat="42.661454" lon="-2.028972">
        <ele>448.524</ele>
        <time>2021-07-28T06:22:50Z</time>
      </trkpt>
      <trkpt lat="42.661703" lon="-2.029105">
        <ele>447.181</ele>
        <time>2021-07-28T06:22:56Z</time>
      </trkpt>
      <trkpt lat="42.661857" lon="-2.029205">
        <ele>446.681</ele>
        <time>2021-07-28T06:22:59Z</time>
      </trkpt>
      <trkpt lat="42.662076" lon="-2.029451">
        <ele>445.725</ele>
        <time>2021-07-28T06:23:04Z</time>
      </trkpt>
      <trkpt lat="42.662107" lon="-2.029515">
        <ele>445.783</ele>
        <time>2021-07-28T06:23:05Z</time>
      </trkpt>
      <trkpt lat="42.662130" lon="-2.029579">
        <ele>445.250</ele>
        <time>2021-07-28T06:23:06Z</time>
      </trkpt>
      <trkpt lat="42.662139" lon="-2.029626">
        <ele>445.298</ele>
        <time>2021-07-28T06:23:07Z</time>
      </trkpt>
      <trkpt lat="42.662149" lon="-2.029670">
        <ele>445.243</ele>
        <time>2021-07-28T06:23:08Z</time>
      </trkpt>
      <trkpt lat="42.662173" lon="-2.029711">
        <ele>444.764</ele>
        <time>2021-07-28T06:23:09Z</time>
      </trkpt>
      <trkpt lat="42.662199" lon="-2.029753">
        <ele>444.210</ele>
        <time>2021-07-28T06:23:10Z</time>
      </trkpt>
      <trkpt lat="42.662222" lon="-2.029793">
        <ele>444.208</ele>
        <time>2021-07-28T06:23:11Z</time>
      </trkpt>
      <trkpt lat="42.662247" lon="-2.029834">
        <ele>443.711</ele>
        <time>2021-07-28T06:23:12Z</time>
      </trkpt>
      <trkpt lat="42.662274" lon="-2.029873">
        <ele>443.723</ele>
        <time>2021-07-28T06:23:13Z</time>
      </trkpt>
      <trkpt lat="42.662304" lon="-2.029911">
        <ele>443.390</ele>
        <time>2021-07-28T06:23:14Z</time>
      </trkpt>
      <trkpt lat="42.662341" lon="-2.029946">
        <ele>443.380</ele>
        <time>2021-07-28T06:23:15Z</time>
      </trkpt>
      <trkpt lat="42.662695" lon="-2.030238">
        <ele>441.824</ele>
        <time>2021-07-28T06:23:25Z</time>
      </trkpt>
      <trkpt lat="42.662909" lon="-2.030384">
        <ele>441.872</ele>
        <time>2021-07-28T06:23:33Z</time>
      </trkpt>
      <trkpt lat="42.663168" lon="-2.030590">
        <ele>440.469</ele>
        <time>2021-07-28T06:23:40Z</time>
      </trkpt>
      <trkpt lat="42.663457" lon="-2.030762">
        <ele>439.497</ele>
        <time>2021-07-28T06:23:47Z</time>
      </trkpt>
      <trkpt lat="42.663494" lon="-2.030778">
        <ele>438.992</ele>
        <time>2021-07-28T06:23:48Z</time>
      </trkpt>
      <trkpt lat="42.663651" lon="-2.030883">
        <ele>437.073</ele>
        <time>2021-07-28T06:23:52Z</time>
      </trkpt>
      <trkpt lat="42.663943" lon="-2.031133">
        <ele>436.520</ele>
        <time>2021-07-28T06:24:01Z</time>
      </trkpt>
      <trkpt lat="42.664174" lon="-2.031255">
        <ele>435.608</ele>
        <time>2021-07-28T06:24:08Z</time>
      </trkpt>
      <trkpt lat="42.664389" lon="-2.031343">
        <ele>436.576</ele>
        <time>2021-07-28T06:24:15Z</time>
      </trkpt>
      <trkpt lat="42.664631" lon="-2.031437">
        <ele>436.158</ele>
        <time>2021-07-28T06:24:22Z</time>
      </trkpt>
      <trkpt lat="42.664725" lon="-2.031633">
        <ele>435.175</ele>
        <time>2021-07-28T06:24:27Z</time>
      </trkpt>
      <trkpt lat="42.664780" lon="-2.031878">
        <ele>434.145</ele>
        <time>2021-07-28T06:24:33Z</time>
      </trkpt>
      <trkpt lat="42.664834" lon="-2.032057">
        <ele>434.179</ele>
        <time>2021-07-28T06:24:39Z</time>
      </trkpt>
      <trkpt lat="42.664847" lon="-2.032101">
        <ele>433.297</ele>
        <time>2021-07-28T06:24:44Z</time>
      </trkpt>
      <trkpt lat="42.664841" lon="-2.032109">
        <ele>430.834</ele>
        <time>2021-07-28T06:24:51Z</time>
      </trkpt>
      <trkpt lat="42.664847" lon="-2.032112">
        <ele>429.862</ele>
        <time>2021-07-28T06:25:02Z</time>
      </trkpt>
      <trkpt lat="42.664989" lon="-2.032076">
        <ele>428.884</ele>
        <time>2021-07-28T06:25:08Z</time>
      </trkpt>
      <trkpt lat="42.665326" lon="-2.032005">
        <ele>426.407</ele>
        <time>2021-07-28T06:25:16Z</time>
      </trkpt>
      <trkpt lat="42.665741" lon="-2.031994">
        <ele>424.017</ele>
        <time>2021-07-28T06:25:23Z</time>
      </trkpt>
      <trkpt lat="42.666169" lon="-2.031945">
        <ele>423.108</ele>
        <time>2021-07-28T06:25:31Z</time>
      </trkpt>
      <trkpt lat="42.666304" lon="-2.031910">
        <ele>423.185</ele>
        <time>2021-07-28T06:25:33Z</time>
      </trkpt>
      <trkpt lat="42.666486" lon="-2.031846">
        <ele>422.657</ele>
        <time>2021-07-28T06:25:38Z</time>
      </trkpt>
      <trkpt lat="42.666642" lon="-2.031948">
        <ele>422.614</ele>
        <time>2021-07-28T06:25:43Z</time>
      </trkpt>
      <trkpt lat="42.666810" lon="-2.031982">
        <ele>422.184</ele>
        <time>2021-07-28T06:25:48Z</time>
      </trkpt>
      <trkpt lat="42.666941" lon="-2.031887">
        <ele>422.188</ele>
        <time>2021-07-28T06:25:54Z</time>
      </trkpt>
      <trkpt lat="42.666950" lon="-2.031876">
        <ele>422.176</ele>
        <time>2021-07-28T06:25:55Z</time>
      </trkpt>
      <trkpt lat="42.666966" lon="-2.031870">
        <ele>421.643</ele>
        <time>2021-07-28T06:25:56Z</time>
      </trkpt>
      <trkpt lat="42.666981" lon="-2.031880">
        <ele>421.691</ele>
        <time>2021-07-28T06:25:57Z</time>
      </trkpt>
      <trkpt lat="42.666985" lon="-2.031905">
        <ele>421.624</ele>
        <time>2021-07-28T06:25:58Z</time>
      </trkpt>
      <trkpt lat="42.666972" lon="-2.031942">
        <ele>421.604</ele>
        <time>2021-07-28T06:25:59Z</time>
      </trkpt>
      <trkpt lat="42.666955" lon="-2.031960">
        <ele>422.114</ele>
        <time>2021-07-28T06:26:00Z</time>
      </trkpt>
      <trkpt lat="42.666926" lon="-2.031977">
        <ele>422.108</ele>
        <time>2021-07-28T06:26:01Z</time>
      </trkpt>
      <trkpt lat="42.666904" lon="-2.031987">
        <ele>422.669</ele>
        <time>2021-07-28T06:26:02Z</time>
      </trkpt>
      <trkpt lat="42.666628" lon="-2.032103">
        <ele>426.081</ele>
        <time>2021-07-28T06:26:11Z</time>
      </trkpt>
      <trkpt lat="42.666481" lon="-2.032050">
        <ele>426.458</ele>
        <time>2021-07-28T06:26:16Z</time>
      </trkpt>
      <trkpt lat="42.666462" lon="-2.031999">
        <ele>426.478</ele>
        <time>2021-07-28T06:26:17Z</time>
      </trkpt>
      <trkpt lat="42.666464" lon="-2.031926">
        <ele>426.072</ele>
        <time>2021-07-28T06:26:19Z</time>
      </trkpt>
      <trkpt lat="42.666502" lon="-2.031855">
        <ele>426.050</ele>
        <time>2021-07-28T06:26:20Z</time>
      </trkpt>
      <trkpt lat="42.666543" lon="-2.031802">
        <ele>425.517</ele>
        <time>2021-07-28T06:26:21Z</time>
      </trkpt>
      <trkpt lat="42.666569" lon="-2.031781">
        <ele>425.575</ele>
        <time>2021-07-28T06:26:22Z</time>
      </trkpt>
      <trkpt lat="42.666603" lon="-2.031753">
        <ele>426.038</ele>
        <time>2021-07-28T06:26:23Z</time>
      </trkpt>
      <trkpt lat="42.666639" lon="-2.031724">
        <ele>426.070</ele>
        <time>2021-07-28T06:26:24Z</time>
      </trkpt>
      <trkpt lat="42.666680" lon="-2.031698">
        <ele>426.917</ele>
        <time>2021-07-28T06:26:25Z</time>
      </trkpt>
      <trkpt lat="42.666873" lon="-2.031528">
        <ele>429.308</ele>
        <time>2021-07-28T06:26:32Z</time>
      </trkpt>
      <trkpt lat="42.667030" lon="-2.031333">
        <ele>431.250</ele>
        <time>2021-07-28T06:26:41Z</time>
      </trkpt>
      <trkpt lat="42.667170" lon="-2.031112">
        <ele>434.182</ele>
        <time>2021-07-28T06:26:50Z</time>
      </trkpt>
      <trkpt lat="42.667326" lon="-2.030879">
        <ele>437.029</ele>
        <time>2021-07-28T06:27:00Z</time>
      </trkpt>
      <trkpt lat="42.667428" lon="-2.030800">
        <ele>438.019</ele>
        <time>2021-07-28T06:27:06Z</time>
      </trkpt>
      <trkpt lat="42.667437" lon="-2.030786">
        <ele>438.053</ele>
        <time>2021-07-28T06:27:07Z</time>
      </trkpt>
      <trkpt lat="42.667445" lon="-2.030769">
        <ele>438.591</ele>
        <time>2021-07-28T06:27:13Z</time>
      </trkpt>
      <trkpt lat="42.667440" lon="-2.030712">
        <ele>439.418</ele>
        <time>2021-07-28T06:27:27Z</time>
      </trkpt>
      <trkpt lat="42.667445" lon="-2.030711">
        <ele>439.966</ele>
        <time>2021-07-28T06:27:32Z</time>
      </trkpt>
      <trkpt lat="42.667436" lon="-2.030724">
        <ele>440.415</ele>
        <time>2021-07-28T06:27:48Z</time>
      </trkpt>
      <trkpt lat="42.667436" lon="-2.030720">
        <ele>444.765</ele>
        <time>2021-07-28T06:28:01Z</time>
      </trkpt>
      <trkpt lat="42.667413" lon="-2.030635">
        <ele>450.011</ele>
        <time>2021-07-28T06:28:14Z</time>
      </trkpt>
      <trkpt lat="42.667410" lon="-2.030671">
        <ele>447.608</ele>
        <time>2021-07-28T06:28:28Z</time>
      </trkpt>
      <trkpt lat="42.667433" lon="-2.030758">
        <ele>443.758</ele>
        <time>2021-07-28T06:28:48Z</time>
      </trkpt>
      <trkpt lat="42.667428" lon="-2.030773">
        <ele>441.350</ele>
        <time>2021-07-28T06:29:07Z</time>
      </trkpt>
      <trkpt lat="42.667421" lon="-2.030732">
        <ele>444.747</ele>
        <time>2021-07-28T06:29:19Z</time>
      </trkpt>
      <trkpt lat="42.667441" lon="-2.030703">
        <ele>449.077</ele>
        <time>2021-07-28T06:29:28Z</time>
      </trkpt>
      <trkpt lat="42.667542" lon="-2.030640">
        <ele>447.691</ele>
        <time>2021-07-28T06:29:33Z</time>
      </trkpt>
      <trkpt lat="42.667712" lon="-2.030483">
        <ele>445.799</ele>
        <time>2021-07-28T06:29:42Z</time>
      </trkpt>
      <trkpt lat="42.667740" lon="-2.030449">
        <ele>445.796</ele>
        <time>2021-07-28T06:29:45Z</time>
      </trkpt>
      <trkpt lat="42.667748" lon="-2.030434">
        <ele>445.764</ele>
        <time>2021-07-28T06:29:46Z</time>
      </trkpt>
      <trkpt lat="42.667771" lon="-2.030454">
        <ele>443.366</ele>
        <time>2021-07-28T06:29:51Z</time>
      </trkpt>
      <trkpt lat="42.667738" lon="-2.030484">
        <ele>441.329</ele>
        <time>2021-07-28T06:29:57Z</time>
      </trkpt>
      <trkpt lat="42.667725" lon="-2.030497">
        <ele>440.921</ele>
        <time>2021-07-28T06:29:58Z</time>
      </trkpt>
      <trkpt lat="42.667718" lon="-2.030507">
        <ele>440.908</ele>
        <time>2021-07-28T06:29:59Z</time>
      </trkpt>
      <trkpt lat="42.667611" lon="-2.030627">
        <ele>439.963</ele>
        <time>2021-07-28T06:30:06Z</time>
      </trkpt>
      <trkpt lat="42.667473" lon="-2.030770">
        <ele>440.965</ele>
        <time>2021-07-28T06:30:14Z</time>
      </trkpt>
      <trkpt lat="42.667459" lon="-2.030782">
        <ele>441.382</ele>
        <time>2021-07-28T06:30:15Z</time>
      </trkpt>
      <trkpt lat="42.667444" lon="-2.030791">
        <ele>441.352</ele>
        <time>2021-07-28T06:30:16Z</time>
      </trkpt>
      <trkpt lat="42.667429" lon="-2.030803">
        <ele>441.356</ele>
        <time>2021-07-28T06:30:17Z</time>
      </trkpt>
      <trkpt lat="42.667410" lon="-2.030814">
        <ele>441.324</ele>
        <time>2021-07-28T06:30:18Z</time>
      </trkpt>
      <trkpt lat="42.667389" lon="-2.030832">
        <ele>441.341</ele>
        <time>2021-07-28T06:30:19Z</time>
      </trkpt>
      <trkpt lat="42.667368" lon="-2.030861">
        <ele>441.829</ele>
        <time>2021-07-28T06:30:20Z</time>
      </trkpt>
      <trkpt lat="42.667348" lon="-2.030891">
        <ele>441.878</ele>
        <time>2021-07-28T06:30:21Z</time>
      </trkpt>
      <trkpt lat="42.667183" lon="-2.031164">
        <ele>441.333</ele>
        <time>2021-07-28T06:30:29Z</time>
      </trkpt>
      <trkpt lat="42.667013" lon="-2.031457">
        <ele>439.926</ele>
        <time>2021-07-28T06:30:36Z</time>
      </trkpt>
      <trkpt lat="42.666944" lon="-2.031542">
        <ele>438.908</ele>
        <time>2021-07-28T06:30:38Z</time>
      </trkpt>
      <trkpt lat="42.666911" lon="-2.031571">
        <ele>438.574</ele>
        <time>2021-07-28T06:30:39Z</time>
      </trkpt>
      <trkpt lat="42.666882" lon="-2.031598">
        <ele>438.076</ele>
        <time>2021-07-28T06:30:40Z</time>
      </trkpt>
      <trkpt lat="42.666856" lon="-2.031628">
        <ele>437.553</ele>
        <time>2021-07-28T06:30:41Z</time>
      </trkpt>
      <trkpt lat="42.666825" lon="-2.031662">
        <ele>437.083</ele>
        <time>2021-07-28T06:30:43Z</time>
      </trkpt>
      <trkpt lat="42.666810" lon="-2.031687">
        <ele>436.517</ele>
        <time>2021-07-28T06:30:44Z</time>
      </trkpt>
      <trkpt lat="42.666815" lon="-2.031708">
        <ele>436.535</ele>
        <time>2021-07-28T06:30:45Z</time>
      </trkpt>
      <trkpt lat="42.666830" lon="-2.031713">
        <ele>435.692</ele>
        <time>2021-07-28T06:30:46Z</time>
      </trkpt>
      <trkpt lat="42.666851" lon="-2.031709">
        <ele>435.160</ele>
        <time>2021-07-28T06:30:47Z</time>
      </trkpt>
      <trkpt lat="42.666878" lon="-2.031691">
        <ele>434.611</ele>
        <time>2021-07-28T06:30:48Z</time>
      </trkpt>
      <trkpt lat="42.666900" lon="-2.031673">
        <ele>434.121</ele>
        <time>2021-07-28T06:30:49Z</time>
      </trkpt>
      <trkpt lat="42.666924" lon="-2.031654">
        <ele>433.603</ele>
        <time>2021-07-28T06:30:50Z</time>
      </trkpt>
      <trkpt lat="42.667187" lon="-2.031465">
        <ele>432.208</ele>
        <time>2021-07-28T06:30:59Z</time>
      </trkpt>
      <trkpt lat="42.667436" lon="-2.031258">
        <ele>430.898</ele>
        <time>2021-07-28T06:31:08Z</time>
      </trkpt>
      <trkpt lat="42.667678" lon="-2.031075">
        <ele>428.820</ele>
        <time>2021-07-28T06:31:16Z</time>
      </trkpt>
      <trkpt lat="42.667952" lon="-2.030837">
        <ele>428.497</ele>
        <time>2021-07-28T06:31:26Z</time>
      </trkpt>
      <trkpt lat="42.668046" lon="-2.030772">
        <ele>427.467</ele>
        <time>2021-07-28T06:31:30Z</time>
      </trkpt>
      <trkpt lat="42.668073" lon="-2.030762">
        <ele>426.931</ele>
        <time>2021-07-28T06:31:31Z</time>
      </trkpt>
      <trkpt lat="42.668103" lon="-2.030753">
        <ele>426.949</ele>
        <time>2021-07-28T06:31:32Z</time>
      </trkpt>
      <trkpt lat="42.668135" lon="-2.030744">
        <ele>426.926</ele>
        <time>2021-07-28T06:31:33Z</time>
      </trkpt>
      <trkpt lat="42.668163" lon="-2.030730">
        <ele>426.454</ele>
        <time>2021-07-28T06:31:34Z</time>
      </trkpt>
      <trkpt lat="42.668190" lon="-2.030712">
        <ele>426.459</ele>
        <time>2021-07-28T06:31:35Z</time>
      </trkpt>
      <trkpt lat="42.668213" lon="-2.030690">
        <ele>426.003</ele>
        <time>2021-07-28T06:31:36Z</time>
      </trkpt>
      <trkpt lat="42.668346" lon="-2.030534">
        <ele>425.523</ele>
        <time>2021-07-28T06:31:43Z</time>
      </trkpt>
      <trkpt lat="42.668612" lon="-2.030250">
        <ele>423.108</ele>
        <time>2021-07-28T06:31:55Z</time>
      </trkpt>
      <trkpt lat="42.668807" lon="-2.030013">
        <ele>421.642</ele>
        <time>2021-07-28T06:32:04Z</time>
      </trkpt>
      <trkpt lat="42.668864" lon="-2.029966">
        <ele>420.224</ele>
        <time>2021-07-28T06:32:09Z</time>
      </trkpt>
      <trkpt lat="42.668886" lon="-2.029985">
        <ele>417.891</ele>
        <time>2021-07-28T06:32:18Z</time>
      </trkpt>
      <trkpt lat="42.668987" lon="-2.029889">
        <ele>415.421</ele>
        <time>2021-07-28T06:32:25Z</time>
      </trkpt>
      <trkpt lat="42.669177" lon="-2.029679">
        <ele>416.345</ele>
        <time>2021-07-28T06:32:37Z</time>
      </trkpt>
      <trkpt lat="42.669245" lon="-2.029562">
        <ele>416.343</ele>
        <time>2021-07-28T06:32:44Z</time>
      </trkpt>
      <trkpt lat="42.669262" lon="-2.029593">
        <ele>416.840</ele>
        <time>2021-07-28T06:32:55Z</time>
      </trkpt>
      <trkpt lat="42.669265" lon="-2.029581">
        <ele>417.388</ele>
        <time>2021-07-28T06:33:09Z</time>
      </trkpt>
      <trkpt lat="42.669282" lon="-2.029587">
        <ele>415.473</ele>
        <time>2021-07-28T06:33:18Z</time>
      </trkpt>
      <trkpt lat="42.669292" lon="-2.029580">
        <ele>414.985</ele>
        <time>2021-07-28T06:33:19Z</time>
      </trkpt>
      <trkpt lat="42.669298" lon="-2.029568">
        <ele>414.913</ele>
        <time>2021-07-28T06:33:20Z</time>
      </trkpt>
      <trkpt lat="42.669305" lon="-2.029553">
        <ele>414.908</ele>
        <time>2021-07-28T06:33:21Z</time>
      </trkpt>
      <trkpt lat="42.669312" lon="-2.029537">
        <ele>415.434</ele>
        <time>2021-07-28T06:33:22Z</time>
      </trkpt>
      <trkpt lat="42.669308" lon="-2.029541">
        <ele>415.916</ele>
        <time>2021-07-28T06:33:28Z</time>
      </trkpt>
      <trkpt lat="42.669314" lon="-2.029596">
        <ele>414.953</ele>
        <time>2021-07-28T06:33:37Z</time>
      </trkpt>
      <trkpt lat="42.669336" lon="-2.029636">
        <ele>415.413</ele>
        <time>2021-07-28T06:33:50Z</time>
      </trkpt>
      <trkpt lat="42.669329" lon="-2.029647">
        <ele>416.337</ele>
        <time>2021-07-28T06:34:02Z</time>
      </trkpt>
      <trkpt lat="42.669305" lon="-2.029652">
        <ele>420.755</ele>
        <time>2021-07-28T06:34:17Z</time>
      </trkpt>
      <trkpt lat="42.669301" lon="-2.029639">
        <ele>421.152</ele>
        <time>2021-07-28T06:34:31Z</time>
      </trkpt>
      <trkpt lat="42.669292" lon="-2.029642">
        <ele>423.650</ele>
        <time>2021-07-28T06:34:41Z</time>
      </trkpt>
      <trkpt lat="42.669295" lon="-2.029624">
        <ele>423.699</ele>
        <time>2021-07-28T06:35:06Z</time>
      </trkpt>
      <trkpt lat="42.669305" lon="-2.029580">
        <ele>424.007</ele>
        <time>2021-07-28T06:35:22Z</time>
      </trkpt>
      <trkpt lat="42.669301" lon="-2.029560">
        <ele>428.827</ele>
        <time>2021-07-28T06:35:41Z</time>
      </trkpt>
      <trkpt lat="42.669313" lon="-2.029563">
        <ele>426.008</ele>
        <time>2021-07-28T06:35:58Z</time>
      </trkpt>
      <trkpt lat="42.669324" lon="-2.029617">
        <ele>425.066</ele>
        <time>2021-07-28T06:36:15Z</time>
      </trkpt>
      <trkpt lat="42.669352" lon="-2.029593">
        <ele>421.658</ele>
        <time>2021-07-28T06:36:34Z</time>
      </trkpt>
      <trkpt lat="42.669306" lon="-2.029589">
        <ele>420.745</ele>
        <time>2021-07-28T06:36:53Z</time>
      </trkpt>
      <trkpt lat="42.669291" lon="-2.029565">
        <ele>423.125</ele>
        <time>2021-07-28T06:37:06Z</time>
      </trkpt>
      <trkpt lat="42.669322" lon="-2.029514">
        <ele>424.599</ele>
        <time>2021-07-28T06:37:18Z</time>
      </trkpt>
      <trkpt lat="42.669335" lon="-2.029503">
        <ele>424.037</ele>
        <time>2021-07-28T06:37:19Z</time>
      </trkpt>
      <trkpt lat="42.669347" lon="-2.029492">
        <ele>424.094</ele>
        <time>2021-07-28T06:37:20Z</time>
      </trkpt>
      <trkpt lat="42.669359" lon="-2.029482">
        <ele>423.652</ele>
        <time>2021-07-28T06:37:21Z</time>
      </trkpt>
      <trkpt lat="42.669372" lon="-2.029473">
        <ele>422.612</ele>
        <time>2021-07-28T06:37:22Z</time>
      </trkpt>
      <trkpt lat="42.669424" lon="-2.029434">
        <ele>420.732</ele>
        <time>2021-07-28T06:37:26Z</time>
      </trkpt>
      <trkpt lat="42.669439" lon="-2.029424">
        <ele>420.705</ele>
        <time>2021-07-28T06:37:27Z</time>
      </trkpt>
      <trkpt lat="42.669452" lon="-2.029418">
        <ele>420.208</ele>
        <time>2021-07-28T06:37:28Z</time>
      </trkpt>
      <trkpt lat="42.669465" lon="-2.029414">
        <ele>420.288</ele>
        <time>2021-07-28T06:37:29Z</time>
      </trkpt>
      <trkpt lat="42.669477" lon="-2.029412">
        <ele>420.230</ele>
        <time>2021-07-28T06:37:30Z</time>
      </trkpt>
      <trkpt lat="42.669525" lon="-2.029408">
        <ele>419.757</ele>
        <time>2021-07-28T06:37:36Z</time>
      </trkpt>
      <trkpt lat="42.669529" lon="-2.029397">
        <ele>419.767</ele>
        <time>2021-07-28T06:37:37Z</time>
      </trkpt>
      <trkpt lat="42.669527" lon="-2.029373">
        <ele>421.111</ele>
        <time>2021-07-28T06:37:43Z</time>
      </trkpt>
      <trkpt lat="42.669532" lon="-2.029365">
        <ele>425.029</ele>
        <time>2021-07-28T06:37:54Z</time>
      </trkpt>
      <trkpt lat="42.669521" lon="-2.029391">
        <ele>425.016</ele>
        <time>2021-07-28T06:38:07Z</time>
      </trkpt>
      <trkpt lat="42.669514" lon="-2.029371">
        <ele>426.054</ele>
        <time>2021-07-28T06:38:16Z</time>
      </trkpt>
      <trkpt lat="42.669513" lon="-2.029336">
        <ele>426.474</ele>
        <time>2021-07-28T06:38:21Z</time>
      </trkpt>
      <trkpt lat="42.669503" lon="-2.029323">
        <ele>426.456</ele>
        <time>2021-07-28T06:38:22Z</time>
      </trkpt>
      <trkpt lat="42.669493" lon="-2.029306">
        <ele>426.421</ele>
        <time>2021-07-28T06:38:23Z</time>
      </trkpt>
      <trkpt lat="42.669478" lon="-2.029287">
        <ele>426.408</ele>
        <time>2021-07-28T06:38:24Z</time>
      </trkpt>
      <trkpt lat="42.669469" lon="-2.029274">
        <ele>426.444</ele>
        <time>2021-07-28T06:38:25Z</time>
      </trkpt>
      <trkpt lat="42.669478" lon="-2.029154">
        <ele>426.076</ele>
        <time>2021-07-28T06:38:31Z</time>
      </trkpt>
      <trkpt lat="42.669543" lon="-2.028990">
        <ele>425.053</ele>
        <time>2021-07-28T06:38:39Z</time>
      </trkpt>
      <trkpt lat="42.669649" lon="-2.028754">
        <ele>424.583</ele>
        <time>2021-07-28T06:38:49Z</time>
      </trkpt>
      <trkpt lat="42.669698" lon="-2.028565">
        <ele>421.687</ele>
        <time>2021-07-28T06:38:56Z</time>
      </trkpt>
      <trkpt lat="42.669738" lon="-2.028440">
        <ele>419.255</ele>
        <time>2021-07-28T06:39:03Z</time>
      </trkpt>
      <trkpt lat="42.669769" lon="-2.028365">
        <ele>417.822</ele>
        <time>2021-07-28T06:39:07Z</time>
      </trkpt>
      <trkpt lat="42.669771" lon="-2.028342">
        <ele>417.380</ele>
        <time>2021-07-28T06:39:08Z</time>
      </trkpt>
      <trkpt lat="42.669800" lon="-2.028159">
        <ele>415.426</ele>
        <time>2021-07-28T06:39:15Z</time>
      </trkpt>
      <trkpt lat="42.669843" lon="-2.027935">
        <ele>414.947</ele>
        <time>2021-07-28T06:39:22Z</time>
      </trkpt>
      <trkpt lat="42.669901" lon="-2.027575">
        <ele>414.411</ele>
        <time>2021-07-28T06:39:32Z</time>
      </trkpt>
      <trkpt lat="42.669913" lon="-2.027350">
        <ele>417.308</ele>
        <time>2021-07-28T06:39:38Z</time>
      </trkpt>
      <trkpt lat="42.669915" lon="-2.027125">
        <ele>417.839</ele>
        <time>2021-07-28T06:39:47Z</time>
      </trkpt>
      <trkpt lat="42.669886" lon="-2.026901">
        <ele>419.721</ele>
        <time>2021-07-28T06:39:56Z</time>
      </trkpt>
      <trkpt lat="42.669869" lon="-2.026672">
        <ele>421.178</ele>
        <time>2021-07-28T06:40:04Z</time>
      </trkpt>
      <trkpt lat="42.669838" lon="-2.026342">
        <ele>421.198</ele>
        <time>2021-07-28T06:40:14Z</time>
      </trkpt>
      <trkpt lat="42.669830" lon="-2.026177">
        <ele>421.612</ele>
        <time>2021-07-28T06:40:20Z</time>
      </trkpt>
      <trkpt lat="42.669822" lon="-2.025977">
        <ele>421.110</ele>
        <time>2021-07-28T06:40:28Z</time>
      </trkpt>
      <trkpt lat="42.669826" lon="-2.025727">
        <ele>421.177</ele>
        <time>2021-07-28T06:40:36Z</time>
      </trkpt>
      <trkpt lat="42.669817" lon="-2.025554">
        <ele>422.155</ele>
        <time>2021-07-28T06:40:43Z</time>
      </trkpt>
      <trkpt lat="42.669835" lon="-2.025350">
        <ele>422.697</ele>
        <time>2021-07-28T06:40:53Z</time>
      </trkpt>
      <trkpt lat="42.669855" lon="-2.025286">
        <ele>422.623</ele>
        <time>2021-07-28T06:41:00Z</time>
      </trkpt>
      <trkpt lat="42.669866" lon="-2.025280">
        <ele>422.625</ele>
        <time>2021-07-28T06:41:14Z</time>
      </trkpt>
      <trkpt lat="42.669870" lon="-2.025269">
        <ele>423.108</ele>
        <time>2021-07-28T06:41:34Z</time>
      </trkpt>
      <trkpt lat="42.669842" lon="-2.025270">
        <ele>422.686</ele>
        <time>2021-07-28T06:41:47Z</time>
      </trkpt>
      <trkpt lat="42.669849" lon="-2.025266">
        <ele>420.258</ele>
        <time>2021-07-28T06:42:00Z</time>
      </trkpt>
      <trkpt lat="42.669861" lon="-2.025275">
        <ele>420.795</ele>
        <time>2021-07-28T06:42:13Z</time>
      </trkpt>
      <trkpt lat="42.669850" lon="-2.025280">
        <ele>422.145</ele>
        <time>2021-07-28T06:42:32Z</time>
      </trkpt>
      <trkpt lat="42.669856" lon="-2.025252">
        <ele>421.179</ele>
        <time>2021-07-28T06:42:52Z</time>
      </trkpt>
      <trkpt lat="42.669854" lon="-2.025254">
        <ele>420.247</ele>
        <time>2021-07-28T06:43:08Z</time>
      </trkpt>
      <trkpt lat="42.669839" lon="-2.025250">
        <ele>418.374</ele>
        <time>2021-07-28T06:43:27Z</time>
      </trkpt>
      <trkpt lat="42.669848" lon="-2.025277">
        <ele>418.752</ele>
        <time>2021-07-28T06:43:43Z</time>
      </trkpt>
      <trkpt lat="42.669852" lon="-2.025302">
        <ele>420.253</ele>
        <time>2021-07-28T06:43:59Z</time>
      </trkpt>
      <trkpt lat="42.669854" lon="-2.025289">
        <ele>422.104</ele>
        <time>2021-07-28T06:44:16Z</time>
      </trkpt>
      <trkpt lat="42.669855" lon="-2.025268">
        <ele>423.114</ele>
        <time>2021-07-28T06:44:29Z</time>
      </trkpt>
      <trkpt lat="42.669886" lon="-2.025188">
        <ele>423.608</ele>
        <time>2021-07-28T06:44:35Z</time>
      </trkpt>
      <trkpt lat="42.669935" lon="-2.024982">
        <ele>422.142</ele>
        <time>2021-07-28T06:44:42Z</time>
      </trkpt>
      <trkpt lat="42.669994" lon="-2.024790">
        <ele>421.674</ele>
        <time>2021-07-28T06:44:50Z</time>
      </trkpt>
      <trkpt lat="42.670040" lon="-2.024668">
        <ele>421.191</ele>
        <time>2021-07-28T06:44:57Z</time>
      </trkpt>
      <trkpt lat="42.670023" lon="-2.024656">
        <ele>422.151</ele>
        <time>2021-07-28T06:45:11Z</time>
      </trkpt>
      <trkpt lat="42.670036" lon="-2.024630">
        <ele>422.125</ele>
        <time>2021-07-28T06:45:20Z</time>
      </trkpt>
      <trkpt lat="42.670048" lon="-2.024608">
        <ele>422.193</ele>
        <time>2021-07-28T06:45:22Z</time>
      </trkpt>
      <trkpt lat="42.670056" lon="-2.024599">
        <ele>422.150</ele>
        <time>2021-07-28T06:45:23Z</time>
      </trkpt>
      <trkpt lat="42.670081" lon="-2.024599">
        <ele>421.638</ele>
        <time>2021-07-28T06:45:28Z</time>
      </trkpt>
      <trkpt lat="42.670044" lon="-2.024632">
        <ele>421.649</ele>
        <time>2021-07-28T06:45:41Z</time>
      </trkpt>
      <trkpt lat="42.670081" lon="-2.024646">
        <ele>421.602</ele>
        <time>2021-07-28T06:45:51Z</time>
      </trkpt>
      <trkpt lat="42.670228" lon="-2.024676">
        <ele>422.122</ele>
        <time>2021-07-28T06:46:00Z</time>
      </trkpt>
      <trkpt lat="42.670364" lon="-2.024708">
        <ele>421.608</ele>
        <time>2021-07-28T06:46:07Z</time>
      </trkpt>
      <trkpt lat="42.670398" lon="-2.024717">
        <ele>421.141</ele>
        <time>2021-07-28T06:46:09Z</time>
      </trkpt>
      <trkpt lat="42.670480" lon="-2.024616">
        <ele>420.793</ele>
        <time>2021-07-28T06:46:14Z</time>
      </trkpt>
      <trkpt lat="42.670597" lon="-2.024254">
        <ele>421.110</ele>
        <time>2021-07-28T06:46:22Z</time>
      </trkpt>
      <trkpt lat="42.670602" lon="-2.023861">
        <ele>422.140</ele>
        <time>2021-07-28T06:46:30Z</time>
      </trkpt>
      <trkpt lat="42.670589" lon="-2.023809">
        <ele>422.164</ele>
        <time>2021-07-28T06:46:31Z</time>
      </trkpt>
      <trkpt lat="42.670572" lon="-2.023758">
        <ele>421.622</ele>
        <time>2021-07-28T06:46:32Z</time>
      </trkpt>
      <trkpt lat="42.670401" lon="-2.023303">
        <ele>420.779</ele>
        <time>2021-07-28T06:46:42Z</time>
      </trkpt>
      <trkpt lat="42.670165" lon="-2.022998">
        <ele>420.237</ele>
        <time>2021-07-28T06:46:51Z</time>
      </trkpt>
      <trkpt lat="42.670085" lon="-2.022942">
        <ele>420.269</ele>
        <time>2021-07-28T06:46:54Z</time>
      </trkpt>
      <trkpt lat="42.670066" lon="-2.022939">
        <ele>419.704</ele>
        <time>2021-07-28T06:46:55Z</time>
      </trkpt>
      <trkpt lat="42.670049" lon="-2.022942">
        <ele>419.724</ele>
        <time>2021-07-28T06:46:56Z</time>
      </trkpt>
      <trkpt lat="42.670012" lon="-2.022951">
        <ele>419.208</ele>
        <time>2021-07-28T06:47:02Z</time>
      </trkpt>
      <trkpt lat="42.670010" lon="-2.022954">
        <ele>417.313</ele>
        <time>2021-07-28T06:47:19Z</time>
      </trkpt>
      <trkpt lat="42.670002" lon="-2.022955">
        <ele>416.855</ele>
        <time>2021-07-28T06:47:35Z</time>
      </trkpt>
      <trkpt lat="42.670005" lon="-2.022942">
        <ele>417.382</ele>
        <time>2021-07-28T06:47:54Z</time>
      </trkpt>
      <trkpt lat="42.670018" lon="-2.022914">
        <ele>417.822</ele>
        <time>2021-07-28T06:47:59Z</time>
      </trkpt>
      <trkpt lat="42.670004" lon="-2.022894">
        <ele>418.376</ele>
        <time>2021-07-28T06:48:04Z</time>
      </trkpt>
      <trkpt lat="42.669882" lon="-2.022832">
        <ele>418.784</ele>
        <time>2021-07-28T06:48:12Z</time>
      </trkpt>
      <trkpt lat="42.669638" lon="-2.022693">
        <ele>420.221</ele>
        <time>2021-07-28T06:48:21Z</time>
      </trkpt>
      <trkpt lat="42.669283" lon="-2.022496">
        <ele>420.759</ele>
        <time>2021-07-28T06:48:32Z</time>
      </trkpt>
      <trkpt lat="42.668978" lon="-2.022331">
        <ele>421.197</ele>
        <time>2021-07-28T06:48:42Z</time>
      </trkpt>
      <trkpt lat="42.668661" lon="-2.022148">
        <ele>421.623</ele>
        <time>2021-07-28T06:48:53Z</time>
      </trkpt>
      <trkpt lat="42.668411" lon="-2.022000">
        <ele>423.625</ele>
        <time>2021-07-28T06:49:02Z</time>
      </trkpt>
      <trkpt lat="42.668110" lon="-2.021834">
        <ele>422.608</ele>
        <time>2021-07-28T06:49:12Z</time>
      </trkpt>
      <trkpt lat="42.667800" lon="-2.021697">
        <ele>421.616</ele>
        <time>2021-07-28T06:49:22Z</time>
      </trkpt>
      <trkpt lat="42.667670" lon="-2.021628">
        <ele>420.768</ele>
        <time>2021-07-28T06:49:28Z</time>
      </trkpt>
      <trkpt lat="42.667481" lon="-2.021545">
        <ele>420.785</ele>
        <time>2021-07-28T06:49:36Z</time>
      </trkpt>
      <trkpt lat="42.667148" lon="-2.021403">
        <ele>421.145</ele>
        <time>2021-07-28T06:49:47Z</time>
      </trkpt>
      <trkpt lat="42.666799" lon="-2.021256">
        <ele>420.789</ele>
        <time>2021-07-28T06:49:58Z</time>
      </trkpt>
      <trkpt lat="42.666505" lon="-2.021110">
        <ele>420.767</ele>
        <time>2021-07-28T06:50:08Z</time>
      </trkpt>
      <trkpt lat="42.666252" lon="-2.020948">
        <ele>419.774</ele>
        <time>2021-07-28T06:50:18Z</time>
      </trkpt>
      <trkpt lat="42.666041" lon="-2.020736">
        <ele>418.722</ele>
        <time>2021-07-28T06:50:27Z</time>
      </trkpt>
      <trkpt lat="42.665790" lon="-2.020391">
        <ele>419.243</ele>
        <time>2021-07-28T06:50:37Z</time>
      </trkpt>
      <trkpt lat="42.665552" lon="-2.020058">
        <ele>420.764</ele>
        <time>2021-07-28T06:50:47Z</time>
      </trkpt>
      <trkpt lat="42.665334" lon="-2.019762">
        <ele>421.610</ele>
        <time>2021-07-28T06:50:55Z</time>
      </trkpt>
      <trkpt lat="42.665016" lon="-2.019287">
        <ele>420.208</ele>
        <time>2021-07-28T06:51:06Z</time>
      </trkpt>
      <trkpt lat="42.664672" lon="-2.018759">
        <ele>419.291</ele>
        <time>2021-07-28T06:51:17Z</time>
      </trkpt>
      <trkpt lat="42.664453" lon="-2.018236">
        <ele>418.713</ele>
        <time>2021-07-28T06:51:27Z</time>
      </trkpt>
      <trkpt lat="42.664309" lon="-2.017581">
        <ele>418.790</ele>
        <time>2021-07-28T06:51:39Z</time>
      </trkpt>
      <trkpt lat="42.664308" lon="-2.017524">
        <ele>418.720</ele>
        <time>2021-07-28T06:51:40Z</time>
      </trkpt>
      <trkpt lat="42.664361" lon="-2.016865">
        <ele>419.714</ele>
        <time>2021-07-28T06:51:51Z</time>
      </trkpt>
      <trkpt lat="42.664393" lon="-2.016555">
        <ele>420.242</ele>
        <time>2021-07-28T06:51:56Z</time>
      </trkpt>
      <trkpt lat="42.664439" lon="-2.015975">
        <ele>420.779</ele>
        <time>2021-07-28T06:52:05Z</time>
      </trkpt>
      <trkpt lat="42.664513" lon="-2.015413">
        <ele>422.137</ele>
        <time>2021-07-28T06:52:15Z</time>
      </trkpt>
      <trkpt lat="42.664668" lon="-2.015065">
        <ele>423.615</ele>
        <time>2021-07-28T06:52:23Z</time>
      </trkpt>
      <trkpt lat="42.664911" lon="-2.014701">
        <ele>425.065</ele>
        <time>2021-07-28T06:52:32Z</time>
      </trkpt>
      <trkpt lat="42.665193" lon="-2.014210">
        <ele>425.511</ele>
        <time>2021-07-28T06:52:43Z</time>
      </trkpt>
      <trkpt lat="42.665372" lon="-2.013757">
        <ele>424.008</ele>
        <time>2021-07-28T06:52:51Z</time>
      </trkpt>
      <trkpt lat="42.665404" lon="-2.013619">
        <ele>423.678</ele>
        <time>2021-07-28T06:52:53Z</time>
      </trkpt>
      <trkpt lat="42.665492" lon="-2.012913">
        <ele>421.620</ele>
        <time>2021-07-28T06:53:02Z</time>
      </trkpt>
      <trkpt lat="42.665577" lon="-2.012058">
        <ele>420.767</ele>
        <time>2021-07-28T06:53:12Z</time>
      </trkpt>
      <trkpt lat="42.665669" lon="-2.011174">
        <ele>419.787</ele>
        <time>2021-07-28T06:53:23Z</time>
      </trkpt>
      <trkpt lat="42.665746" lon="-2.010523">
        <ele>419.211</ele>
        <time>2021-07-28T06:53:32Z</time>
      </trkpt>
      <trkpt lat="42.665842" lon="-2.009641">
        <ele>419.249</ele>
        <time>2021-07-28T06:53:45Z</time>
      </trkpt>
      <trkpt lat="42.665823" lon="-2.009031">
        <ele>419.286</ele>
        <time>2021-07-28T06:53:54Z</time>
      </trkpt>
      <trkpt lat="42.665629" lon="-2.008542">
        <ele>418.354</ele>
        <time>2021-07-28T06:54:02Z</time>
      </trkpt>
      <trkpt lat="42.665301" lon="-2.008176">
        <ele>417.855</ele>
        <time>2021-07-28T06:54:10Z</time>
      </trkpt>
      <trkpt lat="42.664896" lon="-2.007813">
        <ele>419.207</ele>
        <time>2021-07-28T06:54:19Z</time>
      </trkpt>
      <trkpt lat="42.664451" lon="-2.007517">
        <ele>421.617</ele>
        <time>2021-07-28T06:54:29Z</time>
      </trkpt>
      <trkpt lat="42.664118" lon="-2.007367">
        <ele>423.108</ele>
        <time>2021-07-28T06:54:38Z</time>
      </trkpt>
      <trkpt lat="42.663901" lon="-2.007281">
        <ele>424.522</ele>
        <time>2021-07-28T06:54:46Z</time>
      </trkpt>
      <trkpt lat="42.663689" lon="-2.007205">
        <ele>426.064</ele>
        <time>2021-07-28T06:54:55Z</time>
      </trkpt>
      <trkpt lat="42.663511" lon="-2.007143">
        <ele>426.911</ele>
        <time>2021-07-28T06:55:03Z</time>
      </trkpt>
      <trkpt lat="42.663409" lon="-2.007102">
        <ele>426.961</ele>
        <time>2021-07-28T06:55:10Z</time>
      </trkpt>
      <trkpt lat="42.663234" lon="-2.007052">
        <ele>428.415</ele>
        <time>2021-07-28T06:55:19Z</time>
      </trkpt>
      <trkpt lat="42.663009" lon="-2.006989">
        <ele>429.823</ele>
        <time>2021-07-28T06:55:31Z</time>
      </trkpt>
      <trkpt lat="42.662822" lon="-2.006911">
        <ele>431.240</ele>
        <time>2021-07-28T06:55:42Z</time>
      </trkpt>
      <trkpt lat="42.662625" lon="-2.006795">
        <ele>432.748</ele>
        <time>2021-07-28T06:55:54Z</time>
      </trkpt>
      <trkpt lat="42.662505" lon="-2.006672">
        <ele>433.282</ele>
        <time>2021-07-28T06:56:02Z</time>
      </trkpt>
      <trkpt lat="42.662318" lon="-2.006491">
        <ele>434.143</ele>
        <time>2021-07-28T06:56:15Z</time>
      </trkpt>
      <trkpt lat="42.662206" lon="-2.006366">
        <ele>434.617</ele>
        <time>2021-07-28T06:56:23Z</time>
      </trkpt>
      <trkpt lat="42.662067" lon="-2.006190">
        <ele>435.608</ele>
        <time>2021-07-28T06:56:34Z</time>
      </trkpt>
      <trkpt lat="42.661955" lon="-2.006071">
        <ele>436.145</ele>
        <time>2021-07-28T06:56:42Z</time>
      </trkpt>
      <trkpt lat="42.661850" lon="-2.005884">
        <ele>438.027</ele>
        <time>2021-07-28T06:56:52Z</time>
      </trkpt>
      <trkpt lat="42.661758" lon="-2.005673">
        <ele>438.914</ele>
        <time>2021-07-28T06:57:02Z</time>
      </trkpt>
      <trkpt lat="42.661662" lon="-2.005445">
        <ele>440.994</ele>
        <time>2021-07-28T06:57:13Z</time>
      </trkpt>
      <trkpt lat="42.661585" lon="-2.005197">
        <ele>442.368</ele>
        <time>2021-07-28T06:57:24Z</time>
      </trkpt>
      <trkpt lat="42.661521" lon="-2.004974">
        <ele>443.746</ele>
        <time>2021-07-28T06:57:34Z</time>
      </trkpt>
      <trkpt lat="42.661459" lon="-2.004681">
        <ele>445.253</ele>
        <time>2021-07-28T06:57:46Z</time>
      </trkpt>
      <trkpt lat="42.661424" lon="-2.004401">
        <ele>446.661</ele>
        <time>2021-07-28T06:57:57Z</time>
      </trkpt>
      <trkpt lat="42.661410" lon="-2.004181">
        <ele>448.186</ele>
        <time>2021-07-28T06:58:05Z</time>
      </trkpt>
      <trkpt lat="42.661410" lon="-2.003867">
        <ele>450.060</ele>
        <time>2021-07-28T06:58:16Z</time>
      </trkpt>
      <trkpt lat="42.661434" lon="-2.003523">
        <ele>452.926</ele>
        <time>2021-07-28T06:58:28Z</time>
      </trkpt>
      <trkpt lat="42.661463" lon="-2.003253">
        <ele>454.308</ele>
        <time>2021-07-28T06:58:38Z</time>
      </trkpt>
      <trkpt lat="42.661499" lon="-2.002957">
        <ele>455.315</ele>
        <time>2021-07-28T06:58:48Z</time>
      </trkpt>
      <trkpt lat="42.661534" lon="-2.002636">
        <ele>455.367</ele>
        <time>2021-07-28T06:58:59Z</time>
      </trkpt>
      <trkpt lat="42.661567" lon="-2.002381">
        <ele>455.314</ele>
        <time>2021-07-28T06:59:08Z</time>
      </trkpt>
      <trkpt lat="42.661604" lon="-2.002013">
        <ele>455.364</ele>
        <time>2021-07-28T06:59:17Z</time>
      </trkpt>
      <trkpt lat="42.661653" lon="-2.001585">
        <ele>455.868</ele>
        <time>2021-07-28T06:59:26Z</time>
      </trkpt>
      <trkpt lat="42.661699" lon="-2.001188">
        <ele>455.826</ele>
        <time>2021-07-28T06:59:36Z</time>
      </trkpt>
      <trkpt lat="42.661726" lon="-2.000818">
        <ele>455.853</ele>
        <time>2021-07-28T06:59:45Z</time>
      </trkpt>
      <trkpt lat="42.661750" lon="-2.000443">
        <ele>455.861</ele>
        <time>2021-07-28T06:59:55Z</time>
      </trkpt>
      <trkpt lat="42.661765" lon="-2.000127">
        <ele>454.869</ele>
        <time>2021-07-28T07:00:03Z</time>
      </trkpt>
      <trkpt lat="42.661772" lon="-1.999680">
        <ele>453.804</ele>
        <time>2021-07-28T07:00:13Z</time>
      </trkpt>
      <trkpt lat="42.661769" lon="-1.999166">
        <ele>452.424</ele>
        <time>2021-07-28T07:00:22Z</time>
      </trkpt>
      <trkpt lat="42.661751" lon="-1.998579">
        <ele>450.508</ele>
        <time>2021-07-28T07:00:30Z</time>
      </trkpt>
      <trkpt lat="42.661732" lon="-1.998186">
        <ele>449.553</ele>
        <time>2021-07-28T07:00:35Z</time>
      </trkpt>
      <trkpt lat="42.661713" lon="-1.998104">
        <ele>449.045</ele>
        <time>2021-07-28T07:00:36Z</time>
      </trkpt>
      <trkpt lat="42.661680" lon="-1.998036">
        <ele>449.042</ele>
        <time>2021-07-28T07:00:37Z</time>
      </trkpt>
      <trkpt lat="42.661637" lon="-1.997980">
        <ele>448.542</ele>
        <time>2021-07-28T07:00:38Z</time>
      </trkpt>
      <trkpt lat="42.661593" lon="-1.997950">
        <ele>448.116</ele>
        <time>2021-07-28T07:00:39Z</time>
      </trkpt>
      <trkpt lat="42.661532" lon="-1.997928">
        <ele>448.164</ele>
        <time>2021-07-28T07:00:40Z</time>
      </trkpt>
      <trkpt lat="42.661472" lon="-1.997916">
        <ele>448.161</ele>
        <time>2021-07-28T07:00:41Z</time>
      </trkpt>
      <trkpt lat="42.661404" lon="-1.997912">
        <ele>447.629</ele>
        <time>2021-07-28T07:00:42Z</time>
      </trkpt>
      <trkpt lat="42.661338" lon="-1.997915">
        <ele>447.629</ele>
        <time>2021-07-28T07:00:43Z</time>
      </trkpt>
      <trkpt lat="42.660863" lon="-1.997963">
        <ele>444.700</ele>
        <time>2021-07-28T07:00:51Z</time>
      </trkpt>
      <trkpt lat="42.660439" lon="-1.998015">
        <ele>442.820</ele>
        <time>2021-07-28T07:00:58Z</time>
      </trkpt>
      <trkpt lat="42.660293" lon="-1.998042">
        <ele>442.308</ele>
        <time>2021-07-28T07:01:03Z</time>
      </trkpt>
      <trkpt lat="42.660265" lon="-1.998054">
        <ele>441.869</ele>
        <time>2021-07-28T07:01:05Z</time>
      </trkpt>
      <trkpt lat="42.660261" lon="-1.998068">
        <ele>442.371</ele>
        <time>2021-07-28T07:01:11Z</time>
      </trkpt>
      <trkpt lat="42.660258" lon="-1.998071">
        <ele>442.838</ele>
        <time>2021-07-28T07:01:22Z</time>
      </trkpt>
      <trkpt lat="42.660253" lon="-1.998071">
        <ele>442.348</ele>
        <time>2021-07-28T07:01:38Z</time>
      </trkpt>
      <trkpt lat="42.660223" lon="-1.998073">
        <ele>441.882</ele>
        <time>2021-07-28T07:01:42Z</time>
      </trkpt>
      <trkpt lat="42.660216" lon="-1.998058">
        <ele>441.870</ele>
        <time>2021-07-28T07:01:43Z</time>
      </trkpt>
      <trkpt lat="42.660188" lon="-1.998024">
        <ele>441.337</ele>
        <time>2021-07-28T07:01:47Z</time>
      </trkpt>
      <trkpt lat="42.660142" lon="-1.998015">
        <ele>441.375</ele>
        <time>2021-07-28T07:01:50Z</time>
      </trkpt>
      <trkpt lat="42.660128" lon="-1.997991">
        <ele>441.371</ele>
        <time>2021-07-28T07:01:51Z</time>
      </trkpt>
      <trkpt lat="42.660123" lon="-1.997964">
        <ele>441.341</ele>
        <time>2021-07-28T07:01:52Z</time>
      </trkpt>
      <trkpt lat="42.660124" lon="-1.997955">
        <ele>441.315</ele>
        <time>2021-07-28T07:01:53Z</time>
      </trkpt>
      <trkpt lat="42.660127" lon="-1.997940">
        <ele>441.308</ele>
        <time>2021-07-28T07:01:54Z</time>
      </trkpt>
      <trkpt lat="42.660124" lon="-1.997925">
        <ele>441.384</ele>
        <time>2021-07-28T07:01:55Z</time>
      </trkpt>
      <trkpt lat="42.660117" lon="-1.997912">
        <ele>441.346</ele>
        <time>2021-07-28T07:01:56Z</time>
      </trkpt>
      <trkpt lat="42.660107" lon="-1.997895">
        <ele>441.843</ele>
        <time>2021-07-28T07:01:57Z</time>
      </trkpt>
      <trkpt lat="42.660103" lon="-1.997886">
        <ele>441.383</ele>
        <time>2021-07-28T07:01:58Z</time>
      </trkpt>
      <trkpt lat="42.660098" lon="-1.997872">
        <ele>441.347</ele>
        <time>2021-07-28T07:01:59Z</time>
      </trkpt>
      <trkpt lat="42.660096" lon="-1.997859">
        <ele>441.375</ele>
        <time>2021-07-28T07:02:00Z</time>
      </trkpt>
      <trkpt lat="42.660094" lon="-1.997839">
        <ele>441.382</ele>
        <time>2021-07-28T07:02:01Z</time>
      </trkpt>
      <trkpt lat="42.660090" lon="-1.997808">
        <ele>441.370</ele>
        <time>2021-07-28T07:02:03Z</time>
      </trkpt>
      <trkpt lat="42.660084" lon="-1.997793">
        <ele>441.337</ele>
        <time>2021-07-28T07:02:04Z</time>
      </trkpt>
      <trkpt lat="42.660082" lon="-1.997790">
        <ele>441.349</ele>
        <time>2021-07-28T07:02:10Z</time>
      </trkpt>
      <trkpt lat="42.660077" lon="-1.997723">
        <ele>441.813</ele>
        <time>2021-07-28T07:02:25Z</time>
      </trkpt>
      <trkpt lat="42.660049" lon="-1.997542">
        <ele>441.808</ele>
        <time>2021-07-28T07:02:32Z</time>
      </trkpt>
      <trkpt lat="42.659985" lon="-1.997213">
        <ele>441.890</ele>
        <time>2021-07-28T07:02:42Z</time>
      </trkpt>
      <trkpt lat="42.659902" lon="-1.996895">
        <ele>441.862</ele>
        <time>2021-07-28T07:02:51Z</time>
      </trkpt>
      <trkpt lat="42.659759" lon="-1.996425">
        <ele>440.429</ele>
        <time>2021-07-28T07:03:03Z</time>
      </trkpt>
      <trkpt lat="42.659597" lon="-1.996014">
        <ele>439.439</ele>
        <time>2021-07-28T07:03:12Z</time>
      </trkpt>
      <trkpt lat="42.659394" lon="-1.995632">
        <ele>438.913</ele>
        <time>2021-07-28T07:03:21Z</time>
      </trkpt>
      <trkpt lat="42.659160" lon="-1.995379">
        <ele>439.981</ele>
        <time>2021-07-28T07:03:29Z</time>
      </trkpt>
      <trkpt lat="42.658926" lon="-1.995151">
        <ele>440.448</ele>
        <time>2021-07-28T07:03:38Z</time>
      </trkpt>
      <trkpt lat="42.658765" lon="-1.994971">
        <ele>440.966</ele>
        <time>2021-07-28T07:03:46Z</time>
      </trkpt>
      <trkpt lat="42.658543" lon="-1.994779">
        <ele>438.514</ele>
        <time>2021-07-28T07:03:55Z</time>
      </trkpt>
      <trkpt lat="42.658414" lon="-1.994569">
        <ele>439.454</ele>
        <time>2021-07-28T07:04:02Z</time>
      </trkpt>
      <trkpt lat="42.658338" lon="-1.994463">
        <ele>439.909</ele>
        <time>2021-07-28T07:04:08Z</time>
      </trkpt>
      <trkpt lat="42.658243" lon="-1.994359">
        <ele>438.908</ele>
        <time>2021-07-28T07:04:15Z</time>
      </trkpt>
      <trkpt lat="42.658256" lon="-1.994352">
        <ele>437.098</ele>
        <time>2021-07-28T07:04:24Z</time>
      </trkpt>
      <trkpt lat="42.658236" lon="-1.994344">
        <ele>438.590</ele>
        <time>2021-07-28T07:04:36Z</time>
      </trkpt>
      <trkpt lat="42.658221" lon="-1.994353">
        <ele>438.947</ele>
        <time>2021-07-28T07:04:43Z</time>
      </trkpt>
      <trkpt lat="42.658205" lon="-1.994372">
        <ele>438.917</ele>
        <time>2021-07-28T07:04:45Z</time>
      </trkpt>
      <trkpt lat="42.658170" lon="-1.994401">
        <ele>438.581</ele>
        <time>2021-07-28T07:04:53Z</time>
      </trkpt>
      <trkpt lat="42.658168" lon="-1.994387">
        <ele>439.439</ele>
        <time>2021-07-28T07:05:07Z</time>
      </trkpt>
      <trkpt lat="42.658165" lon="-1.994407">
        <ele>438.966</ele>
        <time>2021-07-28T07:05:22Z</time>
      </trkpt>
      <trkpt lat="42.658142" lon="-1.994404">
        <ele>438.924</ele>
        <time>2021-07-28T07:05:28Z</time>
      </trkpt>
      <trkpt lat="42.658178" lon="-1.994329">
        <ele>439.459</ele>
        <time>2021-07-28T07:05:33Z</time>
      </trkpt>
      <trkpt lat="42.658194" lon="-1.994333">
        <ele>439.403</ele>
        <time>2021-07-28T07:05:34Z</time>
      </trkpt>
      <trkpt lat="42.658243" lon="-1.994347">
        <ele>439.423</ele>
        <time>2021-07-28T07:05:37Z</time>
      </trkpt>
      <trkpt lat="42.658265" lon="-1.994269">
        <ele>438.908</ele>
        <time>2021-07-28T07:05:43Z</time>
      </trkpt>
      <trkpt lat="42.658223" lon="-1.994137">
        <ele>437.522</ele>
        <time>2021-07-28T07:05:49Z</time>
      </trkpt>
      <trkpt lat="42.658258" lon="-1.993932">
        <ele>436.184</ele>
        <time>2021-07-28T07:05:55Z</time>
      </trkpt>
      <trkpt lat="42.658360" lon="-1.993674">
        <ele>432.221</ele>
        <time>2021-07-28T07:06:02Z</time>
      </trkpt>
      <trkpt lat="42.658473" lon="-1.993382">
        <ele>429.821</ele>
        <time>2021-07-28T07:06:09Z</time>
      </trkpt>
      <trkpt lat="42.658526" lon="-1.993077">
        <ele>427.425</ele>
        <time>2021-07-28T07:06:17Z</time>
      </trkpt>
      <trkpt lat="42.658600" lon="-1.992844">
        <ele>426.013</ele>
        <time>2021-07-28T07:06:22Z</time>
      </trkpt>
      <trkpt lat="42.658636" lon="-1.992739">
        <ele>425.070</ele>
        <time>2021-07-28T07:06:24Z</time>
      </trkpt>
      <trkpt lat="42.658738" lon="-1.992547">
        <ele>424.578</ele>
        <time>2021-07-28T07:06:28Z</time>
      </trkpt>
      <trkpt lat="42.658918" lon="-1.992312">
        <ele>423.645</ele>
        <time>2021-07-28T07:06:35Z</time>
      </trkpt>
      <trkpt lat="42.659087" lon="-1.992188">
        <ele>424.047</ele>
        <time>2021-07-28T07:06:44Z</time>
      </trkpt>
      <trkpt lat="42.659197" lon="-1.992168">
        <ele>422.611</ele>
        <time>2021-07-28T07:06:51Z</time>
      </trkpt>
      <trkpt lat="42.659190" lon="-1.992163">
        <ele>420.708</ele>
        <time>2021-07-28T07:06:58Z</time>
      </trkpt>
      <trkpt lat="42.659190" lon="-1.992157">
        <ele>418.751</ele>
        <time>2021-07-28T07:07:11Z</time>
      </trkpt>
      <trkpt lat="42.659263" lon="-1.992173">
        <ele>419.753</ele>
        <time>2021-07-28T07:07:20Z</time>
      </trkpt>
      <trkpt lat="42.659349" lon="-1.992132">
        <ele>421.620</ele>
        <time>2021-07-28T07:07:25Z</time>
      </trkpt>
      <trkpt lat="42.659359" lon="-1.992110">
        <ele>422.150</ele>
        <time>2021-07-28T07:07:26Z</time>
      </trkpt>
      <trkpt lat="42.659369" lon="-1.992087">
        <ele>422.644</ele>
        <time>2021-07-28T07:07:27Z</time>
      </trkpt>
      <trkpt lat="42.659412" lon="-1.991902">
        <ele>424.062</ele>
        <time>2021-07-28T07:07:35Z</time>
      </trkpt>
      <trkpt lat="42.659463" lon="-1.991671">
        <ele>422.159</ele>
        <time>2021-07-28T07:07:42Z</time>
      </trkpt>
      <trkpt lat="42.659574" lon="-1.991598">
        <ele>423.147</ele>
        <time>2021-07-28T07:07:48Z</time>
      </trkpt>
      <trkpt lat="42.659590" lon="-1.991590">
        <ele>423.645</ele>
        <time>2021-07-28T07:07:49Z</time>
      </trkpt>
      <trkpt lat="42.659608" lon="-1.991584">
        <ele>424.047</ele>
        <time>2021-07-28T07:07:50Z</time>
      </trkpt>
      <trkpt lat="42.659812" lon="-1.991489">
        <ele>426.911</ele>
        <time>2021-07-28T07:07:59Z</time>
      </trkpt>
      <trkpt lat="42.660062" lon="-1.991405">
        <ele>428.808</ele>
        <time>2021-07-28T07:08:09Z</time>
      </trkpt>
      <trkpt lat="42.660142" lon="-1.991360">
        <ele>428.431</ele>
        <time>2021-07-28T07:08:12Z</time>
      </trkpt>
      <trkpt lat="42.660345" lon="-1.991105">
        <ele>427.463</ele>
        <time>2021-07-28T07:08:22Z</time>
      </trkpt>
      <trkpt lat="42.660497" lon="-1.991010">
        <ele>427.970</ele>
        <time>2021-07-28T07:08:30Z</time>
      </trkpt>
      <trkpt lat="42.660629" lon="-1.990930">
        <ele>426.440</ele>
        <time>2021-07-28T07:08:37Z</time>
      </trkpt>
      <trkpt lat="42.660889" lon="-1.990796">
        <ele>428.434</ele>
        <time>2021-07-28T07:08:47Z</time>
      </trkpt>
      <trkpt lat="42.661218" lon="-1.990650">
        <ele>428.432</ele>
        <time>2021-07-28T07:08:58Z</time>
      </trkpt>
      <trkpt lat="42.661499" lon="-1.990550">
        <ele>428.499</ele>
        <time>2021-07-28T07:09:08Z</time>
      </trkpt>
      <trkpt lat="42.661755" lon="-1.990503">
        <ele>427.927</ele>
        <time>2021-07-28T07:09:16Z</time>
      </trkpt>
      <trkpt lat="42.662134" lon="-1.990360">
        <ele>427.926</ele>
        <time>2021-07-28T07:09:28Z</time>
      </trkpt>
      <trkpt lat="42.662486" lon="-1.990170">
        <ele>428.447</ele>
        <time>2021-07-28T07:09:40Z</time>
      </trkpt>
      <trkpt lat="42.662725" lon="-1.989920">
        <ele>429.311</ele>
        <time>2021-07-28T07:09:50Z</time>
      </trkpt>
      <trkpt lat="42.663003" lon="-1.989610">
        <ele>431.208</ele>
        <time>2021-07-28T07:10:02Z</time>
      </trkpt>
      <trkpt lat="42.663251" lon="-1.989332">
        <ele>432.739</ele>
        <time>2021-07-28T07:10:13Z</time>
      </trkpt>
      <trkpt lat="42.663538" lon="-1.989042">
        <ele>433.651</ele>
        <time>2021-07-28T07:10:24Z</time>
      </trkpt>
      <trkpt lat="42.663799" lon="-1.988765">
        <ele>435.168</ele>
        <time>2021-07-28T07:10:34Z</time>
      </trkpt>
      <trkpt lat="42.663999" lon="-1.988474">
        <ele>435.668</ele>
        <time>2021-07-28T07:10:43Z</time>
      </trkpt>
      <trkpt lat="42.664154" lon="-1.988056">
        <ele>434.642</ele>
        <time>2021-07-28T07:10:52Z</time>
      </trkpt>
      <trkpt lat="42.664241" lon="-1.987649">
        <ele>434.690</ele>
        <time>2021-07-28T07:11:00Z</time>
      </trkpt>
      <trkpt lat="42.664350" lon="-1.987119">
        <ele>435.177</ele>
        <time>2021-07-28T07:11:11Z</time>
      </trkpt>
      <trkpt lat="42.664436" lon="-1.986522">
        <ele>435.135</ele>
        <time>2021-07-28T07:11:23Z</time>
      </trkpt>
      <trkpt lat="42.664505" lon="-1.986079">
        <ele>435.174</ele>
        <time>2021-07-28T07:11:32Z</time>
      </trkpt>
      <trkpt lat="42.664603" lon="-1.985464">
        <ele>436.156</ele>
        <time>2021-07-28T07:11:44Z</time>
      </trkpt>
      <trkpt lat="42.664666" lon="-1.985070">
        <ele>437.521</ele>
        <time>2021-07-28T07:11:54Z</time>
      </trkpt>
      <trkpt lat="42.664731" lon="-1.984685">
        <ele>439.408</ele>
        <time>2021-07-28T07:12:05Z</time>
      </trkpt>
      <trkpt lat="42.664760" lon="-1.984440">
        <ele>440.464</ele>
        <time>2021-07-28T07:12:12Z</time>
      </trkpt>
      <trkpt lat="42.664815" lon="-1.984117">
        <ele>442.326</ele>
        <time>2021-07-28T07:12:21Z</time>
      </trkpt>
      <trkpt lat="42.664879" lon="-1.983737">
        <ele>444.293</ele>
        <time>2021-07-28T07:12:32Z</time>
      </trkpt>
      <trkpt lat="42.664929" lon="-1.983394">
        <ele>445.763</ele>
        <time>2021-07-28T07:12:42Z</time>
      </trkpt>
      <trkpt lat="42.664975" lon="-1.983065">
        <ele>446.667</ele>
        <time>2021-07-28T07:12:52Z</time>
      </trkpt>
      <trkpt lat="42.665032" lon="-1.982718">
        <ele>447.115</ele>
        <time>2021-07-28T07:13:02Z</time>
      </trkpt>
      <trkpt lat="42.665113" lon="-1.982215">
        <ele>448.112</ele>
        <time>2021-07-28T07:13:16Z</time>
      </trkpt>
      <trkpt lat="42.665158" lon="-1.981902">
        <ele>448.540</ele>
        <time>2021-07-28T07:13:24Z</time>
      </trkpt>
      <trkpt lat="42.665227" lon="-1.981517">
        <ele>449.569</ele>
        <time>2021-07-28T07:13:34Z</time>
      </trkpt>
      <trkpt lat="42.665281" lon="-1.981122">
        <ele>450.004</ele>
        <time>2021-07-28T07:13:44Z</time>
      </trkpt>
      <trkpt lat="42.665344" lon="-1.980586">
        <ele>451.424</ele>
        <time>2021-07-28T07:13:57Z</time>
      </trkpt>
      <trkpt lat="42.665397" lon="-1.980278">
        <ele>452.908</ele>
        <time>2021-07-28T07:14:05Z</time>
      </trkpt>
      <trkpt lat="42.665488" lon="-1.979895">
        <ele>453.843</ele>
        <time>2021-07-28T07:14:15Z</time>
      </trkpt>
      <trkpt lat="42.665564" lon="-1.979429">
        <ele>455.315</ele>
        <time>2021-07-28T07:14:27Z</time>
      </trkpt>
      <trkpt lat="42.665614" lon="-1.979107">
        <ele>455.822</ele>
        <time>2021-07-28T07:14:35Z</time>
      </trkpt>
      <trkpt lat="42.665625" lon="-1.978692">
        <ele>455.382</ele>
        <time>2021-07-28T07:14:44Z</time>
      </trkpt>
      <trkpt lat="42.665601" lon="-1.978211">
        <ele>455.316</ele>
        <time>2021-07-28T07:14:54Z</time>
      </trkpt>
      <trkpt lat="42.665499" lon="-1.977734">
        <ele>454.384</ele>
        <time>2021-07-28T07:15:03Z</time>
      </trkpt>
      <trkpt lat="42.665332" lon="-1.977276">
        <ele>452.491</ele>
        <time>2021-07-28T07:15:09Z</time>
      </trkpt>
      <trkpt lat="42.665078" lon="-1.976583">
        <ele>450.039</ele>
        <time>2021-07-28T07:15:16Z</time>
      </trkpt>
      <trkpt lat="42.665039" lon="-1.976503">
        <ele>450.518</ele>
        <time>2021-07-28T07:15:17Z</time>
      </trkpt>
      <trkpt lat="42.664996" lon="-1.976433">
        <ele>451.098</ele>
        <time>2021-07-28T07:15:18Z</time>
      </trkpt>
      <trkpt lat="42.664943" lon="-1.976382">
        <ele>451.017</ele>
        <time>2021-07-28T07:15:19Z</time>
      </trkpt>
      <trkpt lat="42.664886" lon="-1.976364">
        <ele>451.408</ele>
        <time>2021-07-28T07:15:20Z</time>
      </trkpt>
      <trkpt lat="42.664827" lon="-1.976348">
        <ele>451.498</ele>
        <time>2021-07-28T07:15:21Z</time>
      </trkpt>
      <trkpt lat="42.664791" lon="-1.976330">
        <ele>451.490</ele>
        <time>2021-07-28T07:15:22Z</time>
      </trkpt>
      <trkpt lat="42.664753" lon="-1.976298">
        <ele>451.947</ele>
        <time>2021-07-28T07:15:23Z</time>
      </trkpt>
      <trkpt lat="42.664726" lon="-1.976263">
        <ele>452.487</ele>
        <time>2021-07-28T07:15:24Z</time>
      </trkpt>
      <trkpt lat="42.664704" lon="-1.976216">
        <ele>452.441</ele>
        <time>2021-07-28T07:15:25Z</time>
      </trkpt>
      <trkpt lat="42.664691" lon="-1.976166">
        <ele>452.429</ele>
        <time>2021-07-28T07:15:26Z</time>
      </trkpt>
      <trkpt lat="42.664685" lon="-1.976111">
        <ele>452.486</ele>
        <time>2021-07-28T07:15:27Z</time>
      </trkpt>
      <trkpt lat="42.664683" lon="-1.976054">
        <ele>452.914</ele>
        <time>2021-07-28T07:15:28Z</time>
      </trkpt>
      <trkpt lat="42.664687" lon="-1.975996">
        <ele>452.924</ele>
        <time>2021-07-28T07:15:29Z</time>
      </trkpt>
      <trkpt lat="42.664693" lon="-1.975943">
        <ele>452.904</ele>
        <time>2021-07-28T07:15:30Z</time>
      </trkpt>
      <trkpt lat="42.664699" lon="-1.975888">
        <ele>453.414</ele>
        <time>2021-07-28T07:15:31Z</time>
      </trkpt>
      <trkpt lat="42.664700" lon="-1.975832">
        <ele>453.408</ele>
        <time>2021-07-28T07:15:32Z</time>
      </trkpt>
      <trkpt lat="42.664699" lon="-1.975780">
        <ele>453.439</ele>
        <time>2021-07-28T07:15:33Z</time>
      </trkpt>
      <trkpt lat="42.664768" lon="-1.975445">
        <ele>454.371</ele>
        <time>2021-07-28T07:15:40Z</time>
      </trkpt>
      <trkpt lat="42.664955" lon="-1.975282">
        <ele>455.848</ele>
        <time>2021-07-28T07:15:47Z</time>
      </trkpt>
      <trkpt lat="42.665190" lon="-1.975205">
        <ele>456.288</ele>
        <time>2021-07-28T07:15:56Z</time>
      </trkpt>
      <trkpt lat="42.665392" lon="-1.975101">
        <ele>457.252</ele>
        <time>2021-07-28T07:16:05Z</time>
      </trkpt>
      <trkpt lat="42.665516" lon="-1.975023">
        <ele>458.210</ele>
        <time>2021-07-28T07:16:12Z</time>
      </trkpt>
      <trkpt lat="42.665700" lon="-1.974857">
        <ele>460.617</ele>
        <time>2021-07-28T07:16:21Z</time>
      </trkpt>
      <trkpt lat="42.665850" lon="-1.974663">
        <ele>462.035</ele>
        <time>2021-07-28T07:16:30Z</time>
      </trkpt>
      <trkpt lat="42.665875" lon="-1.974632">
        <ele>462.022</ele>
        <time>2021-07-28T07:16:32Z</time>
      </trkpt>
      <trkpt lat="42.665970" lon="-1.974480">
        <ele>463.062</ele>
        <time>2021-07-28T07:16:40Z</time>
      </trkpt>
      <trkpt lat="42.666013" lon="-1.974397">
        <ele>463.408</ele>
        <time>2021-07-28T07:16:47Z</time>
      </trkpt>
      <trkpt lat="42.666028" lon="-1.974379">
        <ele>463.408</ele>
        <time>2021-07-28T07:16:53Z</time>
      </trkpt>
      <trkpt lat="42.666024" lon="-1.974376">
        <ele>461.589</ele>
        <time>2021-07-28T07:17:14Z</time>
      </trkpt>
      <trkpt lat="42.666023" lon="-1.974375">
        <ele>461.551</ele>
        <time>2021-07-28T07:17:32Z</time>
      </trkpt>
      <trkpt lat="42.666019" lon="-1.974370">
        <ele>461.058</ele>
        <time>2021-07-28T07:17:53Z</time>
      </trkpt>
      <trkpt lat="42.666023" lon="-1.974385">
        <ele>460.148</ele>
        <time>2021-07-28T07:18:19Z</time>
      </trkpt>
      <trkpt lat="42.666024" lon="-1.974374">
        <ele>460.612</ele>
        <time>2021-07-28T07:18:41Z</time>
      </trkpt>
      <trkpt lat="42.666021" lon="-1.974364">
        <ele>460.660</ele>
        <time>2021-07-28T07:19:11Z</time>
      </trkpt>
      <trkpt lat="42.666024" lon="-1.974373">
        <ele>460.147</ele>
        <time>2021-07-28T07:19:36Z</time>
      </trkpt>
      <trkpt lat="42.666014" lon="-1.974371">
        <ele>461.095</ele>
        <time>2021-07-28T07:20:06Z</time>
      </trkpt>
      <trkpt lat="42.666011" lon="-1.974382">
        <ele>460.142</ele>
        <time>2021-07-28T07:20:35Z</time>
      </trkpt>
      <trkpt lat="42.666011" lon="-1.974374">
        <ele>460.622</ele>
        <time>2021-07-28T07:21:00Z</time>
      </trkpt>
      <trkpt lat="42.666012" lon="-1.974378">
        <ele>460.114</ele>
        <time>2021-07-28T07:21:24Z</time>
      </trkpt>
      <trkpt lat="42.666025" lon="-1.974371">
        <ele>462.008</ele>
        <time>2021-07-28T07:21:48Z</time>
      </trkpt>
      <trkpt lat="42.666017" lon="-1.974375">
        <ele>462.051</ele>
        <time>2021-07-28T07:22:09Z</time>
      </trkpt>
      <trkpt lat="42.666016" lon="-1.974376">
        <ele>462.093</ele>
        <time>2021-07-28T07:22:35Z</time>
      </trkpt>
      <trkpt lat="42.666023" lon="-1.974383">
        <ele>461.530</ele>
        <time>2021-07-28T07:22:47Z</time>
      </trkpt>
      <trkpt lat="42.666016" lon="-1.974384">
        <ele>461.520</ele>
        <time>2021-07-28T07:23:09Z</time>
      </trkpt>
      <trkpt lat="42.666020" lon="-1.974383">
        <ele>463.044</ele>
        <time>2021-07-28T07:23:43Z</time>
      </trkpt>
      <trkpt lat="42.666018" lon="-1.974382">
        <ele>462.572</ele>
        <time>2021-07-28T07:24:04Z</time>
      </trkpt>
      <trkpt lat="42.666020" lon="-1.974376">
        <ele>462.539</ele>
        <time>2021-07-28T07:24:23Z</time>
      </trkpt>
      <trkpt lat="42.666019" lon="-1.974386">
        <ele>462.587</ele>
        <time>2021-07-28T07:24:48Z</time>
      </trkpt>
      <trkpt lat="42.666022" lon="-1.974382">
        <ele>462.581</ele>
        <time>2021-07-28T07:25:05Z</time>
      </trkpt>
      <trkpt lat="42.666017" lon="-1.974374">
        <ele>461.561</ele>
        <time>2021-07-28T07:25:29Z</time>
      </trkpt>
      <trkpt lat="42.666012" lon="-1.974367">
        <ele>461.517</ele>
        <time>2021-07-28T07:25:52Z</time>
      </trkpt>
      <trkpt lat="42.666009" lon="-1.974372">
        <ele>461.508</ele>
        <time>2021-07-28T07:26:11Z</time>
      </trkpt>
      <trkpt lat="42.666018" lon="-1.974384">
        <ele>462.555</ele>
        <time>2021-07-28T07:26:27Z</time>
      </trkpt>
      <trkpt lat="42.666027" lon="-1.974387">
        <ele>462.547</ele>
        <time>2021-07-28T07:26:47Z</time>
      </trkpt>
      <trkpt lat="42.666027" lon="-1.974376">
        <ele>462.574</ele>
        <time>2021-07-28T07:27:07Z</time>
      </trkpt>
      <trkpt lat="42.666028" lon="-1.974367">
        <ele>462.574</ele>
        <time>2021-07-28T07:27:24Z</time>
      </trkpt>
      <trkpt lat="42.666029" lon="-1.974375">
        <ele>462.538</ele>
        <time>2021-07-28T07:27:50Z</time>
      </trkpt>
      <trkpt lat="42.666017" lon="-1.974386">
        <ele>463.086</ele>
        <time>2021-07-28T07:28:06Z</time>
      </trkpt>
      <trkpt lat="42.666022" lon="-1.974385">
        <ele>462.593</ele>
        <time>2021-07-28T07:28:31Z</time>
      </trkpt>
      <trkpt lat="42.666019" lon="-1.974374">
        <ele>463.051</ele>
        <time>2021-07-28T07:28:53Z</time>
      </trkpt>
      <trkpt lat="42.666032" lon="-1.974378">
        <ele>463.498</ele>
        <time>2021-07-28T07:29:05Z</time>
      </trkpt>
      <trkpt lat="42.666053" lon="-1.974340">
        <ele>463.415</ele>
        <time>2021-07-28T07:29:11Z</time>
      </trkpt>
      <trkpt lat="42.666129" lon="-1.974197">
        <ele>464.426</ele>
        <time>2021-07-28T07:29:19Z</time>
      </trkpt>
      <trkpt lat="42.666223" lon="-1.973991">
        <ele>465.408</ele>
        <time>2021-07-28T07:29:28Z</time>
      </trkpt>
      <trkpt lat="42.666348" lon="-1.973712">
        <ele>466.836</ele>
        <time>2021-07-28T07:29:40Z</time>
      </trkpt>
      <trkpt lat="42.666453" lon="-1.973410">
        <ele>467.848</ele>
        <time>2021-07-28T07:29:51Z</time>
      </trkpt>
      <trkpt lat="42.666537" lon="-1.973122">
        <ele>468.385</ele>
        <time>2021-07-28T07:30:01Z</time>
      </trkpt>
      <trkpt lat="42.666625" lon="-1.972813">
        <ele>468.755</ele>
        <time>2021-07-28T07:30:12Z</time>
      </trkpt>
      <trkpt lat="42.666692" lon="-1.972543">
        <ele>468.769</ele>
        <time>2021-07-28T07:30:21Z</time>
      </trkpt>
      <trkpt lat="42.666732" lon="-1.972224">
        <ele>470.287</ele>
        <time>2021-07-28T07:30:31Z</time>
      </trkpt>
      <trkpt lat="42.666748" lon="-1.971914">
        <ele>471.144</ele>
        <time>2021-07-28T07:30:40Z</time>
      </trkpt>
      <trkpt lat="42.666755" lon="-1.971583">
        <ele>472.162</ele>
        <time>2021-07-28T07:30:49Z</time>
      </trkpt>
      <trkpt lat="42.666717" lon="-1.971127">
        <ele>473.184</ele>
        <time>2021-07-28T07:31:01Z</time>
      </trkpt>
      <trkpt lat="42.666676" lon="-1.970783">
        <ele>473.107</ele>
        <time>2021-07-28T07:31:10Z</time>
      </trkpt>
      <trkpt lat="42.666637" lon="-1.970488">
        <ele>474.517</ele>
        <time>2021-07-28T07:31:18Z</time>
      </trkpt>
      <trkpt lat="42.666598" lon="-1.970194">
        <ele>475.508</ele>
        <time>2021-07-28T07:31:26Z</time>
      </trkpt>
      <trkpt lat="42.666569" lon="-1.969906">
        <ele>477.925</ele>
        <time>2021-07-28T07:31:34Z</time>
      </trkpt>
      <trkpt lat="42.666523" lon="-1.969571">
        <ele>477.987</ele>
        <time>2021-07-28T07:31:43Z</time>
      </trkpt>
      <trkpt lat="42.666470" lon="-1.969127">
        <ele>478.394</ele>
        <time>2021-07-28T07:31:55Z</time>
      </trkpt>
      <trkpt lat="42.666441" lon="-1.968740">
        <ele>479.314</ele>
        <time>2021-07-28T07:32:05Z</time>
      </trkpt>
      <trkpt lat="42.666410" lon="-1.968348">
        <ele>480.828</ele>
        <time>2021-07-28T07:32:15Z</time>
      </trkpt>
      <trkpt lat="42.666389" lon="-1.968011">
        <ele>481.796</ele>
        <time>2021-07-28T07:32:24Z</time>
      </trkpt>
      <trkpt lat="42.666371" lon="-1.967604">
        <ele>483.223</ele>
        <time>2021-07-28T07:32:35Z</time>
      </trkpt>
      <trkpt lat="42.666358" lon="-1.967218">
        <ele>483.671</ele>
        <time>2021-07-28T07:32:45Z</time>
      </trkpt>
      <trkpt lat="42.666347" lon="-1.966854">
        <ele>485.698</ele>
        <time>2021-07-28T07:32:54Z</time>
      </trkpt>
      <trkpt lat="42.666329" lon="-1.966425">
        <ele>486.015</ele>
        <time>2021-07-28T07:33:04Z</time>
      </trkpt>
      <trkpt lat="42.666316" lon="-1.966076">
        <ele>486.026</ele>
        <time>2021-07-28T07:33:13Z</time>
      </trkpt>
      <trkpt lat="42.666304" lon="-1.965607">
        <ele>487.008</ele>
        <time>2021-07-28T07:33:25Z</time>
      </trkpt>
      <trkpt lat="42.666301" lon="-1.965150">
        <ele>488.436</ele>
        <time>2021-07-28T07:33:36Z</time>
      </trkpt>
      <trkpt lat="42.666302" lon="-1.964714">
        <ele>489.418</ele>
        <time>2021-07-28T07:33:46Z</time>
      </trkpt>
      <trkpt lat="42.666317" lon="-1.964096">
        <ele>490.475</ele>
        <time>2021-07-28T07:34:00Z</time>
      </trkpt>
      <trkpt lat="42.666345" lon="-1.963642">
        <ele>490.875</ele>
        <time>2021-07-28T07:34:10Z</time>
      </trkpt>
      <trkpt lat="42.666382" lon="-1.963212">
        <ele>490.449</ele>
        <time>2021-07-28T07:34:20Z</time>
      </trkpt>
      <trkpt lat="42.666426" lon="-1.962772">
        <ele>490.487</ele>
        <time>2021-07-28T07:34:30Z</time>
      </trkpt>
      <trkpt lat="42.666489" lon="-1.962241">
        <ele>489.964</ele>
        <time>2021-07-28T07:34:42Z</time>
      </trkpt>
      <trkpt lat="42.666577" lon="-1.961694">
        <ele>489.982</ele>
        <time>2021-07-28T07:34:54Z</time>
      </trkpt>
      <trkpt lat="42.666683" lon="-1.961187">
        <ele>488.993</ele>
        <time>2021-07-28T07:35:05Z</time>
      </trkpt>
      <trkpt lat="42.666768" lon="-1.960786">
        <ele>488.965</ele>
        <time>2021-07-28T07:35:14Z</time>
      </trkpt>
      <trkpt lat="42.666892" lon="-1.960253">
        <ele>487.521</ele>
        <time>2021-07-28T07:35:24Z</time>
      </trkpt>
      <trkpt lat="42.667002" lon="-1.959766">
        <ele>487.508</ele>
        <time>2021-07-28T07:35:32Z</time>
      </trkpt>
      <trkpt lat="42.667134" lon="-1.959244">
        <ele>486.016</ele>
        <time>2021-07-28T07:35:39Z</time>
      </trkpt>
      <trkpt lat="42.667311" lon="-1.958548">
        <ele>483.658</ele>
        <time>2021-07-28T07:35:47Z</time>
      </trkpt>
      <trkpt lat="42.667524" lon="-1.957670">
        <ele>481.245</ele>
        <time>2021-07-28T07:35:56Z</time>
      </trkpt>
      <trkpt lat="42.667699" lon="-1.956963">
        <ele>480.895</ele>
        <time>2021-07-28T07:36:04Z</time>
      </trkpt>
      <trkpt lat="42.667860" lon="-1.956344">
        <ele>480.899</ele>
        <time>2021-07-28T07:36:13Z</time>
      </trkpt>
      <trkpt lat="42.667976" lon="-1.955920">
        <ele>481.217</ele>
        <time>2021-07-28T07:36:21Z</time>
      </trkpt>
      <trkpt lat="42.668103" lon="-1.955439">
        <ele>480.844</ele>
        <time>2021-07-28T07:36:31Z</time>
      </trkpt>
      <trkpt lat="42.668160" lon="-1.955187">
        <ele>481.272</ele>
        <time>2021-07-28T07:36:37Z</time>
      </trkpt>
      <trkpt lat="42.668230" lon="-1.954963">
        <ele>480.874</ele>
        <time>2021-07-28T07:36:44Z</time>
      </trkpt>
      <trkpt lat="42.668344" lon="-1.954600">
        <ele>481.256</ele>
        <time>2021-07-28T07:36:52Z</time>
      </trkpt>
      <trkpt lat="42.668448" lon="-1.954206">
        <ele>480.821</ele>
        <time>2021-07-28T07:37:01Z</time>
      </trkpt>
      <trkpt lat="42.668558" lon="-1.953825">
        <ele>480.308</ele>
        <time>2021-07-28T07:37:10Z</time>
      </trkpt>
      <trkpt lat="42.668712" lon="-1.953364">
        <ele>479.894</ele>
        <time>2021-07-28T07:37:20Z</time>
      </trkpt>
      <trkpt lat="42.668871" lon="-1.952930">
        <ele>479.396</ele>
        <time>2021-07-28T07:37:29Z</time>
      </trkpt>
      <trkpt lat="42.668946" lon="-1.952718">
        <ele>478.853</ele>
        <time>2021-07-28T07:37:33Z</time>
      </trkpt>
      <trkpt lat="42.669012" lon="-1.952498">
        <ele>477.933</ele>
        <time>2021-07-28T07:37:37Z</time>
      </trkpt>
      <trkpt lat="42.669101" lon="-1.952266">
        <ele>477.467</ele>
        <time>2021-07-28T07:37:41Z</time>
      </trkpt>
      <trkpt lat="42.669225" lon="-1.951932">
        <ele>476.465</ele>
        <time>2021-07-28T07:37:48Z</time>
      </trkpt>
      <trkpt lat="42.669340" lon="-1.951628">
        <ele>475.542</ele>
        <time>2021-07-28T07:37:56Z</time>
      </trkpt>
      <trkpt lat="42.669502" lon="-1.951243">
        <ele>475.030</ele>
        <time>2021-07-28T07:38:04Z</time>
      </trkpt>
      <trkpt lat="42.669699" lon="-1.950741">
        <ele>474.595</ele>
        <time>2021-07-28T07:38:12Z</time>
      </trkpt>
      <trkpt lat="42.669875" lon="-1.950267">
        <ele>473.549</ele>
        <time>2021-07-28T07:38:20Z</time>
      </trkpt>
      <trkpt lat="42.669891" lon="-1.950235">
        <ele>473.523</ele>
        <time>2021-07-28T07:38:25Z</time>
      </trkpt>
      <trkpt lat="42.669886" lon="-1.950231">
        <ele>475.508</ele>
        <time>2021-07-28T07:38:39Z</time>
      </trkpt>
      <trkpt lat="42.669934" lon="-1.950124">
        <ele>474.526</ele>
        <time>2021-07-28T07:38:44Z</time>
      </trkpt>
      <trkpt lat="42.670069" lon="-1.949854">
        <ele>472.118</ele>
        <time>2021-07-28T07:38:51Z</time>
      </trkpt>
      <trkpt lat="42.670166" lon="-1.949674">
        <ele>470.295</ele>
        <time>2021-07-28T07:38:57Z</time>
      </trkpt>
      <trkpt lat="42.670220" lon="-1.949560">
        <ele>468.755</ele>
        <time>2021-07-28T07:39:05Z</time>
      </trkpt>
      <trkpt lat="42.670222" lon="-1.949563">
        <ele>468.389</ele>
        <time>2021-07-28T07:39:17Z</time>
      </trkpt>
      <trkpt lat="42.670231" lon="-1.949554">
        <ele>468.787</ele>
        <time>2021-07-28T07:39:21Z</time>
      </trkpt>
      <trkpt lat="42.670244" lon="-1.949536">
        <ele>468.334</ele>
        <time>2021-07-28T07:39:22Z</time>
      </trkpt>
      <trkpt lat="42.670371" lon="-1.949326">
        <ele>466.852</ele>
        <time>2021-07-28T07:39:27Z</time>
      </trkpt>
      <trkpt lat="42.670591" lon="-1.949013">
        <ele>464.935</ele>
        <time>2021-07-28T07:39:33Z</time>
      </trkpt>
      <trkpt lat="42.670757" lon="-1.948778">
        <ele>463.486</ele>
        <time>2021-07-28T07:39:38Z</time>
      </trkpt>
      <trkpt lat="42.670785" lon="-1.948724">
        <ele>463.014</ele>
        <time>2021-07-28T07:39:39Z</time>
      </trkpt>
      <trkpt lat="42.670969" lon="-1.948238">
        <ele>459.108</ele>
        <time>2021-07-28T07:39:46Z</time>
      </trkpt>
      <trkpt lat="42.671034" lon="-1.948012">
        <ele>457.260</ele>
        <time>2021-07-28T07:39:50Z</time>
      </trkpt>
      <trkpt lat="42.671153" lon="-1.947591">
        <ele>455.392</ele>
        <time>2021-07-28T07:39:58Z</time>
      </trkpt>
      <trkpt lat="42.671303" lon="-1.947272">
        <ele>455.819</ele>
        <time>2021-07-28T07:40:06Z</time>
      </trkpt>
      <trkpt lat="42.671489" lon="-1.947017">
        <ele>456.219</ele>
        <time>2021-07-28T07:40:15Z</time>
      </trkpt>
      <trkpt lat="42.671590" lon="-1.946890">
        <ele>456.783</ele>
        <time>2021-07-28T07:40:22Z</time>
      </trkpt>
      <trkpt lat="42.671686" lon="-1.946746">
        <ele>458.671</ele>
        <time>2021-07-28T07:40:31Z</time>
      </trkpt>
      <trkpt lat="42.671783" lon="-1.946643">
        <ele>462.098</ele>
        <time>2021-07-28T07:40:39Z</time>
      </trkpt>
      <trkpt lat="42.671889" lon="-1.946503">
        <ele>463.436</ele>
        <time>2021-07-28T07:40:48Z</time>
      </trkpt>
      <trkpt lat="42.671934" lon="-1.946390">
        <ele>463.431</ele>
        <time>2021-07-28T07:40:56Z</time>
      </trkpt>
      <trkpt lat="42.671932" lon="-1.946376">
        <ele>463.461</ele>
        <time>2021-07-28T07:40:57Z</time>
      </trkpt>
      <trkpt lat="42.671933" lon="-1.946362">
        <ele>463.907</ele>
        <time>2021-07-28T07:40:58Z</time>
      </trkpt>
      <trkpt lat="42.671935" lon="-1.946346">
        <ele>464.408</ele>
        <time>2021-07-28T07:40:59Z</time>
      </trkpt>
      <trkpt lat="42.671938" lon="-1.946329">
        <ele>464.920</ele>
        <time>2021-07-28T07:41:00Z</time>
      </trkpt>
      <trkpt lat="42.671999" lon="-1.946215">
        <ele>466.392</ele>
        <time>2021-07-28T07:41:08Z</time>
      </trkpt>
      <trkpt lat="42.672072" lon="-1.946081">
        <ele>465.469</ele>
        <time>2021-07-28T07:41:17Z</time>
      </trkpt>
      <trkpt lat="42.672157" lon="-1.945962">
        <ele>464.469</ele>
        <time>2021-07-28T07:41:25Z</time>
      </trkpt>
      <trkpt lat="42.672261" lon="-1.945831">
        <ele>463.983</ele>
        <time>2021-07-28T07:41:34Z</time>
      </trkpt>
      <trkpt lat="42.672377" lon="-1.945657">
        <ele>464.471</ele>
        <time>2021-07-28T07:41:43Z</time>
      </trkpt>
      <trkpt lat="42.672439" lon="-1.945522">
        <ele>463.428</ele>
        <time>2021-07-28T07:41:49Z</time>
      </trkpt>
      <trkpt lat="42.672547" lon="-1.945334">
        <ele>463.956</ele>
        <time>2021-07-28T07:41:57Z</time>
      </trkpt>
      <trkpt lat="42.672647" lon="-1.945128">
        <ele>464.471</ele>
        <time>2021-07-28T07:42:04Z</time>
      </trkpt>
      <trkpt lat="42.672635" lon="-1.945100">
        <ele>464.441</ele>
        <time>2021-07-28T07:42:05Z</time>
      </trkpt>
      <trkpt lat="42.672615" lon="-1.945088">
        <ele>464.915</ele>
        <time>2021-07-28T07:42:06Z</time>
      </trkpt>
      <trkpt lat="42.672598" lon="-1.945089">
        <ele>465.408</ele>
        <time>2021-07-28T07:42:07Z</time>
      </trkpt>
      <trkpt lat="42.672583" lon="-1.945096">
        <ele>465.954</ele>
        <time>2021-07-28T07:42:08Z</time>
      </trkpt>
      <trkpt lat="42.672569" lon="-1.945111">
        <ele>465.946</ele>
        <time>2021-07-28T07:42:09Z</time>
      </trkpt>
      <trkpt lat="42.672559" lon="-1.945125">
        <ele>466.393</ele>
        <time>2021-07-28T07:42:10Z</time>
      </trkpt>
      <trkpt lat="42.672548" lon="-1.945142">
        <ele>466.343</ele>
        <time>2021-07-28T07:42:11Z</time>
      </trkpt>
      <trkpt lat="42.672540" lon="-1.945155">
        <ele>466.337</ele>
        <time>2021-07-28T07:42:12Z</time>
      </trkpt>
      <trkpt lat="42.672532" lon="-1.945162">
        <ele>466.845</ele>
        <time>2021-07-28T07:42:13Z</time>
      </trkpt>
      <trkpt lat="42.672523" lon="-1.945165">
        <ele>466.842</ele>
        <time>2021-07-28T07:42:14Z</time>
      </trkpt>
      <trkpt lat="42.672493" lon="-1.945192">
        <ele>467.860</ele>
        <time>2021-07-28T07:42:21Z</time>
      </trkpt>
      <trkpt lat="42.672491" lon="-1.945206">
        <ele>469.724</ele>
        <time>2021-07-28T07:42:34Z</time>
      </trkpt>
      <trkpt lat="42.672483" lon="-1.945218">
        <ele>470.704</ele>
        <time>2021-07-28T07:42:39Z</time>
      </trkpt>
      <trkpt lat="42.672473" lon="-1.945224">
        <ele>470.714</ele>
        <time>2021-07-28T07:42:40Z</time>
      </trkpt>
      <trkpt lat="42.672461" lon="-1.945223">
        <ele>471.108</ele>
        <time>2021-07-28T07:42:41Z</time>
      </trkpt>
      <trkpt lat="42.672451" lon="-1.945217">
        <ele>471.619</ele>
        <time>2021-07-28T07:42:42Z</time>
      </trkpt>
      <trkpt lat="42.672443" lon="-1.945190">
        <ele>472.141</ele>
        <time>2021-07-28T07:42:44Z</time>
      </trkpt>
      <trkpt lat="42.672444" lon="-1.945170">
        <ele>472.658</ele>
        <time>2021-07-28T07:42:45Z</time>
      </trkpt>
      <trkpt lat="42.672451" lon="-1.945155">
        <ele>472.638</ele>
        <time>2021-07-28T07:42:46Z</time>
      </trkpt>
      <trkpt lat="42.672459" lon="-1.945144">
        <ele>472.672</ele>
        <time>2021-07-28T07:42:47Z</time>
      </trkpt>
      <trkpt lat="42.672469" lon="-1.945137">
        <ele>473.180</ele>
        <time>2021-07-28T07:42:48Z</time>
      </trkpt>
      <trkpt lat="42.672482" lon="-1.945132">
        <ele>473.577</ele>
        <time>2021-07-28T07:42:49Z</time>
      </trkpt>
      <trkpt lat="42.672518" lon="-1.945138">
        <ele>474.595</ele>
        <time>2021-07-28T07:42:53Z</time>
      </trkpt>
      <trkpt lat="42.672528" lon="-1.945140">
        <ele>475.037</ele>
        <time>2021-07-28T07:42:54Z</time>
      </trkpt>
      <trkpt lat="42.672540" lon="-1.945133">
        <ele>475.549</ele>
        <time>2021-07-28T07:42:55Z</time>
      </trkpt>
      <trkpt lat="42.672555" lon="-1.945124">
        <ele>475.913</ele>
        <time>2021-07-28T07:42:56Z</time>
      </trkpt>
      <trkpt lat="42.672570" lon="-1.945118">
        <ele>475.908</ele>
        <time>2021-07-28T07:42:57Z</time>
      </trkpt>
      <trkpt lat="42.672588" lon="-1.945110">
        <ele>475.950</ele>
        <time>2021-07-28T07:42:58Z</time>
      </trkpt>
      <trkpt lat="42.672610" lon="-1.945102">
        <ele>475.962</ele>
        <time>2021-07-28T07:42:59Z</time>
      </trkpt>
      <trkpt lat="42.672629" lon="-1.945095">
        <ele>475.549</ele>
        <time>2021-07-28T07:43:00Z</time>
      </trkpt>
      <trkpt lat="42.672651" lon="-1.945092">
        <ele>475.539</ele>
        <time>2021-07-28T07:43:01Z</time>
      </trkpt>
      <trkpt lat="42.672679" lon="-1.945089">
        <ele>475.043</ele>
        <time>2021-07-28T07:43:02Z</time>
      </trkpt>
      <trkpt lat="42.672783" lon="-1.944987">
        <ele>474.061</ele>
        <time>2021-07-28T07:43:07Z</time>
      </trkpt>
      <trkpt lat="42.672884" lon="-1.944834">
        <ele>473.118</ele>
        <time>2021-07-28T07:43:15Z</time>
      </trkpt>
      <trkpt lat="42.673017" lon="-1.944660">
        <ele>471.146</ele>
        <time>2021-07-28T07:43:25Z</time>
      </trkpt>
      <trkpt lat="42.673081" lon="-1.944566">
        <ele>470.739</ele>
        <time>2021-07-28T07:43:32Z</time>
      </trkpt>
      <trkpt lat="42.673135" lon="-1.944478">
        <ele>470.701</ele>
        <time>2021-07-28T07:43:37Z</time>
      </trkpt>
      <trkpt lat="42.673151" lon="-1.944467">
        <ele>470.721</ele>
        <time>2021-07-28T07:43:38Z</time>
      </trkpt>
      <trkpt lat="42.673171" lon="-1.944454">
        <ele>470.708</ele>
        <time>2021-07-28T07:43:39Z</time>
      </trkpt>
      <trkpt lat="42.673251" lon="-1.944379">
        <ele>469.710</ele>
        <time>2021-07-28T07:43:43Z</time>
      </trkpt>
      <trkpt lat="42.673261" lon="-1.944357">
        <ele>469.762</ele>
        <time>2021-07-28T07:43:44Z</time>
      </trkpt>
      <trkpt lat="42.673266" lon="-1.944331">
        <ele>469.779</ele>
        <time>2021-07-28T07:43:45Z</time>
      </trkpt>
      <trkpt lat="42.673266" lon="-1.944310">
        <ele>469.269</ele>
        <time>2021-07-28T07:43:46Z</time>
      </trkpt>
      <trkpt lat="42.673268" lon="-1.944301">
        <ele>468.713</ele>
        <time>2021-07-28T07:43:52Z</time>
      </trkpt>
      <trkpt lat="42.673274" lon="-1.944283">
        <ele>468.391</ele>
        <time>2021-07-28T07:44:05Z</time>
      </trkpt>
      <trkpt lat="42.673273" lon="-1.944272">
        <ele>468.738</ele>
        <time>2021-07-28T07:44:19Z</time>
      </trkpt>
      <trkpt lat="42.673272" lon="-1.944276">
        <ele>468.726</ele>
        <time>2021-07-28T07:44:28Z</time>
      </trkpt>
      <trkpt lat="42.673277" lon="-1.944269">
        <ele>469.272</ele>
        <time>2021-07-28T07:44:29Z</time>
      </trkpt>
      <trkpt lat="42.673285" lon="-1.944257">
        <ele>468.713</ele>
        <time>2021-07-28T07:44:30Z</time>
      </trkpt>
      <trkpt lat="42.673295" lon="-1.944242">
        <ele>468.714</ele>
        <time>2021-07-28T07:44:31Z</time>
      </trkpt>
      <trkpt lat="42.673307" lon="-1.944225">
        <ele>468.708</ele>
        <time>2021-07-28T07:44:32Z</time>
      </trkpt>
      <trkpt lat="42.673323" lon="-1.944206">
        <ele>468.774</ele>
        <time>2021-07-28T07:44:33Z</time>
      </trkpt>
      <trkpt lat="42.673498" lon="-1.943997">
        <ele>468.396</ele>
        <time>2021-07-28T07:44:41Z</time>
      </trkpt>
      <trkpt lat="42.673726" lon="-1.943778">
        <ele>465.973</ele>
        <time>2021-07-28T07:44:49Z</time>
      </trkpt>
      <trkpt lat="42.673964" lon="-1.943660">
        <ele>463.043</ele>
        <time>2021-07-28T07:44:56Z</time>
      </trkpt>
      <trkpt lat="42.674141" lon="-1.943591">
        <ele>460.687</ele>
        <time>2021-07-28T07:45:02Z</time>
      </trkpt>
      <trkpt lat="42.674405" lon="-1.943475">
        <ele>457.775</ele>
        <time>2021-07-28T07:45:07Z</time>
      </trkpt>
      <trkpt lat="42.674836" lon="-1.943264">
        <ele>453.872</ele>
        <time>2021-07-28T07:45:13Z</time>
      </trkpt>
      <trkpt lat="42.675146" lon="-1.943064">
        <ele>450.080</ele>
        <time>2021-07-28T07:45:18Z</time>
      </trkpt>
      <trkpt lat="42.675253" lon="-1.942946">
        <ele>449.078</ele>
        <time>2021-07-28T07:45:20Z</time>
      </trkpt>
      <trkpt lat="42.675293" lon="-1.942887">
        <ele>448.533</ele>
        <time>2021-07-28T07:45:21Z</time>
      </trkpt>
      <trkpt lat="42.675340" lon="-1.942796">
        <ele>448.126</ele>
        <time>2021-07-28T07:45:22Z</time>
      </trkpt>
      <trkpt lat="42.675378" lon="-1.942698">
        <ele>447.608</ele>
        <time>2021-07-28T07:45:23Z</time>
      </trkpt>
      <trkpt lat="42.675399" lon="-1.942634">
        <ele>447.654</ele>
        <time>2021-07-28T07:45:24Z</time>
      </trkpt>
      <trkpt lat="42.675706" lon="-1.941878">
        <ele>443.756</ele>
        <time>2021-07-28T07:45:32Z</time>
      </trkpt>
      <trkpt lat="42.676142" lon="-1.941199">
        <ele>439.963</ele>
        <time>2021-07-28T07:45:39Z</time>
      </trkpt>
      <trkpt lat="42.676700" lon="-1.940623">
        <ele>436.173</ele>
        <time>2021-07-28T07:45:46Z</time>
      </trkpt>
      <trkpt lat="42.677357" lon="-1.940084">
        <ele>431.767</ele>
        <time>2021-07-28T07:45:53Z</time>
      </trkpt>
      <trkpt lat="42.677823" lon="-1.939660">
        <ele>427.915</ele>
        <time>2021-07-28T07:45:58Z</time>
      </trkpt>
      <trkpt lat="42.677902" lon="-1.939557">
        <ele>426.992</ele>
        <time>2021-07-28T07:45:59Z</time>
      </trkpt>
      <trkpt lat="42.678114" lon="-1.939231">
        <ele>424.570</ele>
        <time>2021-07-28T07:46:02Z</time>
      </trkpt>
      <trkpt lat="42.678172" lon="-1.939105">
        <ele>424.058</ele>
        <time>2021-07-28T07:46:03Z</time>
      </trkpt>
      <trkpt lat="42.678219" lon="-1.938973">
        <ele>423.152</ele>
        <time>2021-07-28T07:46:04Z</time>
      </trkpt>
      <trkpt lat="42.678263" lon="-1.938824">
        <ele>422.617</ele>
        <time>2021-07-28T07:46:05Z</time>
      </trkpt>
      <trkpt lat="42.678301" lon="-1.938681">
        <ele>421.608</ele>
        <time>2021-07-28T07:46:06Z</time>
      </trkpt>
      <trkpt lat="42.678582" lon="-1.937411">
        <ele>415.452</ele>
        <time>2021-07-28T07:46:14Z</time>
      </trkpt>
      <trkpt lat="42.678693" lon="-1.936513">
        <ele>412.074</ele>
        <time>2021-07-28T07:46:20Z</time>
      </trkpt>
      <trkpt lat="42.678765" lon="-1.935590">
        <ele>407.761</ele>
        <time>2021-07-28T07:46:27Z</time>
      </trkpt>
      <trkpt lat="42.678794" lon="-1.935114">
        <ele>404.821</ele>
        <time>2021-07-28T07:46:32Z</time>
      </trkpt>
      <trkpt lat="42.678829" lon="-1.934451">
        <ele>400.595</ele>
        <time>2021-07-28T07:46:39Z</time>
      </trkpt>
      <trkpt lat="42.678867" lon="-1.933568">
        <ele>395.723</ele>
        <time>2021-07-28T07:46:46Z</time>
      </trkpt>
      <trkpt lat="42.678806" lon="-1.932560">
        <ele>391.350</ele>
        <time>2021-07-28T07:46:53Z</time>
      </trkpt>
      <trkpt lat="42.678737" lon="-1.931404">
        <ele>388.098</ele>
        <time>2021-07-28T07:47:01Z</time>
      </trkpt>
      <trkpt lat="42.678796" lon="-1.930511">
        <ele>387.095</ele>
        <time>2021-07-28T07:47:08Z</time>
      </trkpt>
      <trkpt lat="42.678978" lon="-1.929627">
        <ele>386.149</ele>
        <time>2021-07-28T07:47:16Z</time>
      </trkpt>
      <trkpt lat="42.679147" lon="-1.928763">
        <ele>384.123</ele>
        <time>2021-07-28T07:47:24Z</time>
      </trkpt>
      <trkpt lat="42.679211" lon="-1.928243">
        <ele>383.208</ele>
        <time>2021-07-28T07:47:29Z</time>
      </trkpt>
      <trkpt lat="42.679213" lon="-1.927470">
        <ele>383.236</ele>
        <time>2021-07-28T07:47:37Z</time>
      </trkpt>
      <trkpt lat="42.679143" lon="-1.926854">
        <ele>384.678</ele>
        <time>2021-07-28T07:47:45Z</time>
      </trkpt>
      <trkpt lat="42.679071" lon="-1.926485">
        <ele>385.175</ele>
        <time>2021-07-28T07:47:52Z</time>
      </trkpt>
      <trkpt lat="42.679010" lon="-1.926290">
        <ele>385.665</ele>
        <time>2021-07-28T07:47:58Z</time>
      </trkpt>
      <trkpt lat="42.678898" lon="-1.925978">
        <ele>387.049</ele>
        <time>2021-07-28T07:48:07Z</time>
      </trkpt>
      <trkpt lat="42.678755" lon="-1.925666">
        <ele>387.027</ele>
        <time>2021-07-28T07:48:16Z</time>
      </trkpt>
      <trkpt lat="42.678571" lon="-1.925327">
        <ele>387.574</ele>
        <time>2021-07-28T07:48:26Z</time>
      </trkpt>
      <trkpt lat="42.678384" lon="-1.924997">
        <ele>387.012</ele>
        <time>2021-07-28T07:48:36Z</time>
      </trkpt>
      <trkpt lat="42.678219" lon="-1.924773">
        <ele>388.953</ele>
        <time>2021-07-28T07:48:44Z</time>
      </trkpt>
      <trkpt lat="42.677975" lon="-1.924463">
        <ele>389.904</ele>
        <time>2021-07-28T07:48:55Z</time>
      </trkpt>
      <trkpt lat="42.677726" lon="-1.924140">
        <ele>390.914</ele>
        <time>2021-07-28T07:49:06Z</time>
      </trkpt>
      <trkpt lat="42.677478" lon="-1.923874">
        <ele>392.808</ele>
        <time>2021-07-28T07:49:17Z</time>
      </trkpt>
      <trkpt lat="42.677254" lon="-1.923824">
        <ele>392.382</ele>
        <time>2021-07-28T07:49:25Z</time>
      </trkpt>
      <trkpt lat="42.677100" lon="-1.923702">
        <ele>391.894</ele>
        <time>2021-07-28T07:49:31Z</time>
      </trkpt>
      <trkpt lat="42.677065" lon="-1.923480">
        <ele>391.891</ele>
        <time>2021-07-28T07:49:37Z</time>
      </trkpt>
      <trkpt lat="42.677041" lon="-1.923105">
        <ele>390.931</ele>
        <time>2021-07-28T07:49:47Z</time>
      </trkpt>
      <trkpt lat="42.676900" lon="-1.922731">
        <ele>390.455</ele>
        <time>2021-07-28T07:49:56Z</time>
      </trkpt>
      <trkpt lat="42.676761" lon="-1.922366">
        <ele>389.443</ele>
        <time>2021-07-28T07:50:03Z</time>
      </trkpt>
      <trkpt lat="42.676746" lon="-1.922310">
        <ele>388.930</ele>
        <time>2021-07-28T07:50:04Z</time>
      </trkpt>
      <trkpt lat="42.676729" lon="-1.922256">
        <ele>388.918</ele>
        <time>2021-07-28T07:50:05Z</time>
      </trkpt>
      <trkpt lat="42.676713" lon="-1.922214">
        <ele>388.987</ele>
        <time>2021-07-28T07:50:06Z</time>
      </trkpt>
      <trkpt lat="42.676699" lon="-1.922182">
        <ele>388.942</ele>
        <time>2021-07-28T07:50:07Z</time>
      </trkpt>
      <trkpt lat="42.676693" lon="-1.922167">
        <ele>388.526</ele>
        <time>2021-07-28T07:50:10Z</time>
      </trkpt>
      <trkpt lat="42.676693" lon="-1.922155">
        <ele>389.908</ele>
        <time>2021-07-28T07:50:26Z</time>
      </trkpt>
      <trkpt lat="42.676680" lon="-1.922134">
        <ele>388.935</ele>
        <time>2021-07-28T07:50:40Z</time>
      </trkpt>
      <trkpt lat="42.676617" lon="-1.921991">
        <ele>388.047</ele>
        <time>2021-07-28T07:50:54Z</time>
      </trkpt>
      <trkpt lat="42.676562" lon="-1.921842">
        <ele>388.024</ele>
        <time>2021-07-28T07:51:08Z</time>
      </trkpt>
      <trkpt lat="42.676545" lon="-1.921794">
        <ele>388.064</ele>
        <time>2021-07-28T07:51:17Z</time>
      </trkpt>
      <trkpt lat="42.676547" lon="-1.921800">
        <ele>388.028</ele>
        <time>2021-07-28T07:51:28Z</time>
      </trkpt>
      <trkpt lat="42.676536" lon="-1.921795">
        <ele>388.066</ele>
        <time>2021-07-28T07:51:40Z</time>
      </trkpt>
      <trkpt lat="42.676552" lon="-1.921796">
        <ele>386.163</ele>
        <time>2021-07-28T07:51:56Z</time>
      </trkpt>
      <trkpt lat="42.676542" lon="-1.921783">
        <ele>386.141</ele>
        <time>2021-07-28T07:52:10Z</time>
      </trkpt>
      <trkpt lat="42.676547" lon="-1.921797">
        <ele>387.036</ele>
        <time>2021-07-28T07:52:24Z</time>
      </trkpt>
      <trkpt lat="42.676542" lon="-1.921799">
        <ele>386.117</ele>
        <time>2021-07-28T07:52:42Z</time>
      </trkpt>
      <trkpt lat="42.676529" lon="-1.921790">
        <ele>386.118</ele>
        <time>2021-07-28T07:52:58Z</time>
      </trkpt>
      <trkpt lat="42.676544" lon="-1.921785">
        <ele>387.508</ele>
        <time>2021-07-28T07:53:14Z</time>
      </trkpt>
      <trkpt lat="42.676543" lon="-1.921794">
        <ele>386.540</ele>
        <time>2021-07-28T07:53:31Z</time>
      </trkpt>
      <trkpt lat="42.676537" lon="-1.921794">
        <ele>385.112</ele>
        <time>2021-07-28T07:53:47Z</time>
      </trkpt>
      <trkpt lat="42.676534" lon="-1.921792">
        <ele>385.159</ele>
        <time>2021-07-28T07:54:03Z</time>
      </trkpt>
      <trkpt lat="42.676530" lon="-1.921795">
        <ele>386.519</ele>
        <time>2021-07-28T07:54:17Z</time>
      </trkpt>
      <trkpt lat="42.676530" lon="-1.921794">
        <ele>385.663</ele>
        <time>2021-07-28T07:54:34Z</time>
      </trkpt>
      <trkpt lat="42.676529" lon="-1.921788">
        <ele>385.151</ele>
        <time>2021-07-28T07:54:48Z</time>
      </trkpt>
      <trkpt lat="42.676525" lon="-1.921782">
        <ele>384.198</ele>
        <time>2021-07-28T07:55:04Z</time>
      </trkpt>
      <trkpt lat="42.676527" lon="-1.921787">
        <ele>385.616</ele>
        <time>2021-07-28T07:55:20Z</time>
      </trkpt>
      <trkpt lat="42.676528" lon="-1.921784">
        <ele>386.533</ele>
        <time>2021-07-28T07:55:38Z</time>
      </trkpt>
      <trkpt lat="42.676536" lon="-1.921783">
        <ele>387.023</ele>
        <time>2021-07-28T07:55:54Z</time>
      </trkpt>
      <trkpt lat="42.676541" lon="-1.921776">
        <ele>386.515</ele>
        <time>2021-07-28T07:56:10Z</time>
      </trkpt>
      <trkpt lat="42.676527" lon="-1.921783">
        <ele>387.008</ele>
        <time>2021-07-28T07:56:27Z</time>
      </trkpt>
      <trkpt lat="42.676520" lon="-1.921797">
        <ele>388.050</ele>
        <time>2021-07-28T07:56:47Z</time>
      </trkpt>
      <trkpt lat="42.676522" lon="-1.921795">
        <ele>387.042</ele>
        <time>2021-07-28T07:57:02Z</time>
      </trkpt>
      <trkpt lat="42.676525" lon="-1.921785">
        <ele>386.529</ele>
        <time>2021-07-28T07:57:17Z</time>
      </trkpt>
      <trkpt lat="42.676529" lon="-1.921789">
        <ele>386.539</ele>
        <time>2021-07-28T07:57:34Z</time>
      </trkpt>
      <trkpt lat="42.676527" lon="-1.921797">
        <ele>387.583</ele>
        <time>2021-07-28T07:57:54Z</time>
      </trkpt>
      <trkpt lat="42.676526" lon="-1.921796">
        <ele>388.091</ele>
        <time>2021-07-28T07:58:09Z</time>
      </trkpt>
      <trkpt lat="42.676534" lon="-1.921786">
        <ele>387.028</ele>
        <time>2021-07-28T07:58:26Z</time>
      </trkpt>
      <trkpt lat="42.676534" lon="-1.921793">
        <ele>388.056</ele>
        <time>2021-07-28T07:58:41Z</time>
      </trkpt>
      <trkpt lat="42.676525" lon="-1.921797">
        <ele>388.975</ele>
        <time>2021-07-28T07:59:03Z</time>
      </trkpt>
      <trkpt lat="42.676524" lon="-1.921800">
        <ele>389.428</ele>
        <time>2021-07-28T07:59:16Z</time>
      </trkpt>
      <trkpt lat="42.676530" lon="-1.921801">
        <ele>388.020</ele>
        <time>2021-07-28T07:59:36Z</time>
      </trkpt>
      <trkpt lat="42.676519" lon="-1.921795">
        <ele>388.008</ele>
        <time>2021-07-28T07:59:53Z</time>
      </trkpt>
      <trkpt lat="42.676529" lon="-1.921790">
        <ele>387.574</ele>
        <time>2021-07-28T08:00:11Z</time>
      </trkpt>
      <trkpt lat="42.676518" lon="-1.921789">
        <ele>388.976</ele>
        <time>2021-07-28T08:00:29Z</time>
      </trkpt>
      <trkpt lat="42.676534" lon="-1.921794">
        <ele>388.053</ele>
        <time>2021-07-28T08:00:41Z</time>
      </trkpt>
      <trkpt lat="42.676542" lon="-1.921786">
        <ele>388.073</ele>
        <time>2021-07-28T08:00:55Z</time>
      </trkpt>
      <trkpt lat="42.676547" lon="-1.921773">
        <ele>388.517</ele>
        <time>2021-07-28T08:01:15Z</time>
      </trkpt>
      <trkpt lat="42.676549" lon="-1.921782">
        <ele>388.065</ele>
        <time>2021-07-28T08:01:33Z</time>
      </trkpt>
      <trkpt lat="42.676532" lon="-1.921756">
        <ele>388.522</ele>
        <time>2021-07-28T08:01:43Z</time>
      </trkpt>
      <trkpt lat="42.676482" lon="-1.921550">
        <ele>387.550</ele>
        <time>2021-07-28T08:01:50Z</time>
      </trkpt>
      <trkpt lat="42.676381" lon="-1.921216">
        <ele>386.138</ele>
        <time>2021-07-28T08:01:59Z</time>
      </trkpt>
      <trkpt lat="42.676249" lon="-1.920818">
        <ele>385.170</ele>
        <time>2021-07-28T08:02:07Z</time>
      </trkpt>
      <trkpt lat="42.676086" lon="-1.920342">
        <ele>383.217</ele>
        <time>2021-07-28T08:02:15Z</time>
      </trkpt>
      <trkpt lat="42.675935" lon="-1.919854">
        <ele>381.308</ele>
        <time>2021-07-28T08:02:24Z</time>
      </trkpt>
      <trkpt lat="42.675768" lon="-1.919352">
        <ele>380.320</ele>
        <time>2021-07-28T08:02:31Z</time>
      </trkpt>
      <trkpt lat="42.675467" lon="-1.918476">
        <ele>377.962</ele>
        <time>2021-07-28T08:02:41Z</time>
      </trkpt>
      <trkpt lat="42.675122" lon="-1.917427">
        <ele>376.949</ele>
        <time>2021-07-28T08:02:53Z</time>
      </trkpt>
      <trkpt lat="42.674807" lon="-1.916461">
        <ele>376.939</ele>
        <time>2021-07-28T08:03:06Z</time>
      </trkpt>
      <trkpt lat="42.674599" lon="-1.915822">
        <ele>376.433</ele>
        <time>2021-07-28T08:03:16Z</time>
      </trkpt>
      <trkpt lat="42.674380" lon="-1.915139">
        <ele>376.031</ele>
        <time>2021-07-28T08:03:28Z</time>
      </trkpt>
      <trkpt lat="42.674234" lon="-1.914706">
        <ele>375.578</ele>
        <time>2021-07-28T08:03:38Z</time>
      </trkpt>
      <trkpt lat="42.674078" lon="-1.914200">
        <ele>376.446</ele>
        <time>2021-07-28T08:03:50Z</time>
      </trkpt>
      <trkpt lat="42.673944" lon="-1.913730">
        <ele>377.483</ele>
        <time>2021-07-28T08:04:02Z</time>
      </trkpt>
      <trkpt lat="42.673793" lon="-1.913305">
        <ele>378.925</ele>
        <time>2021-07-28T08:04:14Z</time>
      </trkpt>
      <trkpt lat="42.673686" lon="-1.912980">
        <ele>380.317</ele>
        <time>2021-07-28T08:04:24Z</time>
      </trkpt>
      <trkpt lat="42.673579" lon="-1.912612">
        <ele>381.708</ele>
        <time>2021-07-28T08:04:36Z</time>
      </trkpt>
      <trkpt lat="42.673511" lon="-1.912344">
        <ele>383.225</ele>
        <time>2021-07-28T08:04:45Z</time>
      </trkpt>
      <trkpt lat="42.673420" lon="-1.911997">
        <ele>385.627</ele>
        <time>2021-07-28T08:04:57Z</time>
      </trkpt>
      <trkpt lat="42.673346" lon="-1.911710">
        <ele>388.084</ele>
        <time>2021-07-28T08:05:07Z</time>
      </trkpt>
      <trkpt lat="42.673270" lon="-1.911424">
        <ele>388.984</ele>
        <time>2021-07-28T08:05:18Z</time>
      </trkpt>
      <trkpt lat="42.673219" lon="-1.911224">
        <ele>390.468</ele>
        <time>2021-07-28T08:05:26Z</time>
      </trkpt>
      <trkpt lat="42.673165" lon="-1.910932">
        <ele>391.326</ele>
        <time>2021-07-28T08:05:37Z</time>
      </trkpt>
      <trkpt lat="42.673111" lon="-1.910630">
        <ele>392.353</ele>
        <time>2021-07-28T08:05:48Z</time>
      </trkpt>
      <trkpt lat="42.673068" lon="-1.910329">
        <ele>393.881</ele>
        <time>2021-07-28T08:05:59Z</time>
      </trkpt>
      <trkpt lat="42.673047" lon="-1.910075">
        <ele>395.257</ele>
        <time>2021-07-28T08:06:08Z</time>
      </trkpt>
      <trkpt lat="42.673029" lon="-1.909787">
        <ele>395.700</ele>
        <time>2021-07-28T08:06:19Z</time>
      </trkpt>
      <trkpt lat="42.673023" lon="-1.909464">
        <ele>396.620</ele>
        <time>2021-07-28T08:06:31Z</time>
      </trkpt>
      <trkpt lat="42.673027" lon="-1.909182">
        <ele>397.608</ele>
        <time>2021-07-28T08:06:41Z</time>
      </trkpt>
      <trkpt lat="42.673048" lon="-1.908789">
        <ele>399.062</ele>
        <time>2021-07-28T08:06:55Z</time>
      </trkpt>
      <trkpt lat="42.673087" lon="-1.908432">
        <ele>400.574</ele>
        <time>2021-07-28T08:07:08Z</time>
      </trkpt>
      <trkpt lat="42.673123" lon="-1.908190">
        <ele>400.561</ele>
        <time>2021-07-28T08:07:17Z</time>
      </trkpt>
      <trkpt lat="42.673186" lon="-1.907862">
        <ele>402.421</ele>
        <time>2021-07-28T08:07:29Z</time>
      </trkpt>
      <trkpt lat="42.673260" lon="-1.907578">
        <ele>404.315</ele>
        <time>2021-07-28T08:07:40Z</time>
      </trkpt>
      <trkpt lat="42.673360" lon="-1.907241">
        <ele>405.893</ele>
        <time>2021-07-28T08:07:53Z</time>
      </trkpt>
      <trkpt lat="42.673452" lon="-1.906964">
        <ele>407.750</ele>
        <time>2021-07-28T08:08:04Z</time>
      </trkpt>
      <trkpt lat="42.673555" lon="-1.906699">
        <ele>409.198</ele>
        <time>2021-07-28T08:08:15Z</time>
      </trkpt>
      <trkpt lat="42.673639" lon="-1.906481">
        <ele>409.652</ele>
        <time>2021-07-28T08:08:24Z</time>
      </trkpt>
      <trkpt lat="42.673761" lon="-1.906245">
        <ele>410.653</ele>
        <time>2021-07-28T08:08:34Z</time>
      </trkpt>
      <trkpt lat="42.673863" lon="-1.906054">
        <ele>411.108</ele>
        <time>2021-07-28T08:08:43Z</time>
      </trkpt>
      <trkpt lat="42.673970" lon="-1.905879">
        <ele>412.008</ele>
        <time>2021-07-28T08:08:51Z</time>
      </trkpt>
      <trkpt lat="42.674091" lon="-1.905699">
        <ele>413.062</ele>
        <time>2021-07-28T08:09:00Z</time>
      </trkpt>
      <trkpt lat="42.674239" lon="-1.905471">
        <ele>413.934</ele>
        <time>2021-07-28T08:09:11Z</time>
      </trkpt>
      <trkpt lat="42.674348" lon="-1.905306">
        <ele>415.431</ele>
        <time>2021-07-28T08:09:19Z</time>
      </trkpt>
      <trkpt lat="42.674497" lon="-1.905093">
        <ele>415.931</ele>
        <time>2021-07-28T08:09:29Z</time>
      </trkpt>
      <trkpt lat="42.674653" lon="-1.904875">
        <ele>417.345</ele>
        <time>2021-07-28T08:09:39Z</time>
      </trkpt>
      <trkpt lat="42.674812" lon="-1.904642">
        <ele>418.713</ele>
        <time>2021-07-28T08:09:50Z</time>
      </trkpt>
      <trkpt lat="42.674961" lon="-1.904389">
        <ele>420.770</ele>
        <time>2021-07-28T08:10:01Z</time>
      </trkpt>
      <trkpt lat="42.675099" lon="-1.904162">
        <ele>422.698</ele>
        <time>2021-07-28T08:10:11Z</time>
      </trkpt>
      <trkpt lat="42.675267" lon="-1.903875">
        <ele>424.557</ele>
        <time>2021-07-28T08:10:23Z</time>
      </trkpt>
      <trkpt lat="42.675405" lon="-1.903608">
        <ele>426.000</ele>
        <time>2021-07-28T08:10:34Z</time>
      </trkpt>
      <trkpt lat="42.675518" lon="-1.903300">
        <ele>427.420</ele>
        <time>2021-07-28T08:10:46Z</time>
      </trkpt>
      <trkpt lat="42.675620" lon="-1.903015">
        <ele>428.808</ele>
        <time>2021-07-28T08:10:57Z</time>
      </trkpt>
      <trkpt lat="42.675722" lon="-1.902707">
        <ele>429.872</ele>
        <time>2021-07-28T08:11:09Z</time>
      </trkpt>
      <trkpt lat="42.675818" lon="-1.902420">
        <ele>430.864</ele>
        <time>2021-07-28T08:11:20Z</time>
      </trkpt>
      <trkpt lat="42.675911" lon="-1.902164">
        <ele>431.761</ele>
        <time>2021-07-28T08:11:30Z</time>
      </trkpt>
      <trkpt lat="42.676050" lon="-1.901739">
        <ele>432.741</ele>
        <time>2021-07-28T08:11:46Z</time>
      </trkpt>
      <trkpt lat="42.676163" lon="-1.901425">
        <ele>434.175</ele>
        <time>2021-07-28T08:11:58Z</time>
      </trkpt>
      <trkpt lat="42.676259" lon="-1.901177">
        <ele>435.663</ele>
        <time>2021-07-28T08:12:08Z</time>
      </trkpt>
      <trkpt lat="42.676337" lon="-1.900937">
        <ele>437.080</ele>
        <time>2021-07-28T08:12:18Z</time>
      </trkpt>
      <trkpt lat="42.676436" lon="-1.900655">
        <ele>437.588</ele>
        <time>2021-07-28T08:12:29Z</time>
      </trkpt>
      <trkpt lat="42.676538" lon="-1.900390">
        <ele>438.592</ele>
        <time>2021-07-28T08:12:40Z</time>
      </trkpt>
      <trkpt lat="42.676618" lon="-1.900147">
        <ele>438.073</ele>
        <time>2021-07-28T08:12:50Z</time>
      </trkpt>
      <trkpt lat="42.676709" lon="-1.899895">
        <ele>439.420</ele>
        <time>2021-07-28T08:13:00Z</time>
      </trkpt>
      <trkpt lat="42.676765" lon="-1.899704">
        <ele>440.908</ele>
        <time>2021-07-28T08:13:08Z</time>
      </trkpt>
      <trkpt lat="42.676842" lon="-1.899427">
        <ele>442.366</ele>
        <time>2021-07-28T08:13:19Z</time>
      </trkpt>
      <trkpt lat="42.676904" lon="-1.899198">
        <ele>442.868</ele>
        <time>2021-07-28T08:13:28Z</time>
      </trkpt>
      <trkpt lat="42.676973" lon="-1.898910">
        <ele>444.765</ele>
        <time>2021-07-28T08:13:39Z</time>
      </trkpt>
      <trkpt lat="42.677019" lon="-1.898723">
        <ele>446.195</ele>
        <time>2021-07-28T08:13:47Z</time>
      </trkpt>
      <trkpt lat="42.677093" lon="-1.898472">
        <ele>447.669</ele>
        <time>2021-07-28T08:13:57Z</time>
      </trkpt>
      <trkpt lat="42.677128" lon="-1.898330">
        <ele>448.177</ele>
        <time>2021-07-28T08:14:04Z</time>
      </trkpt>
      <trkpt lat="42.677130" lon="-1.898316">
        <ele>448.194</ele>
        <time>2021-07-28T08:14:05Z</time>
      </trkpt>
      <trkpt lat="42.677175" lon="-1.898135">
        <ele>449.032</ele>
        <time>2021-07-28T08:14:13Z</time>
      </trkpt>
      <trkpt lat="42.677263" lon="-1.897843">
        <ele>451.092</ele>
        <time>2021-07-28T08:14:25Z</time>
      </trkpt>
      <trkpt lat="42.677339" lon="-1.897561">
        <ele>453.473</ele>
        <time>2021-07-28T08:14:36Z</time>
      </trkpt>
      <trkpt lat="42.677412" lon="-1.897319">
        <ele>454.820</ele>
        <time>2021-07-28T08:14:46Z</time>
      </trkpt>
      <trkpt lat="42.677479" lon="-1.897049">
        <ele>456.208</ele>
        <time>2021-07-28T08:14:57Z</time>
      </trkpt>
      <trkpt lat="42.677526" lon="-1.896863">
        <ele>458.266</ele>
        <time>2021-07-28T08:15:05Z</time>
      </trkpt>
      <trkpt lat="42.677571" lon="-1.896622">
        <ele>459.188</ele>
        <time>2021-07-28T08:15:14Z</time>
      </trkpt>
      <trkpt lat="42.677599" lon="-1.896334">
        <ele>458.615</ele>
        <time>2021-07-28T08:15:24Z</time>
      </trkpt>
      <trkpt lat="42.677637" lon="-1.895979">
        <ele>458.695</ele>
        <time>2021-07-28T08:15:34Z</time>
      </trkpt>
      <trkpt lat="42.677704" lon="-1.895492">
        <ele>458.679</ele>
        <time>2021-07-28T08:15:45Z</time>
      </trkpt>
      <trkpt lat="42.677720" lon="-1.895345">
        <ele>459.147</ele>
        <time>2021-07-28T08:15:51Z</time>
      </trkpt>
      <trkpt lat="42.677764" lon="-1.895028">
        <ele>459.144</ele>
        <time>2021-07-28T08:15:59Z</time>
      </trkpt>
      <trkpt lat="42.677841" lon="-1.894601">
        <ele>457.772</ele>
        <time>2021-07-28T08:16:10Z</time>
      </trkpt>
      <trkpt lat="42.677866" lon="-1.894381">
        <ele>457.251</ele>
        <time>2021-07-28T08:16:17Z</time>
      </trkpt>
      <trkpt lat="42.677912" lon="-1.894085">
        <ele>457.701</ele>
        <time>2021-07-28T08:16:25Z</time>
      </trkpt>
      <trkpt lat="42.677953" lon="-1.893757">
        <ele>458.211</ele>
        <time>2021-07-28T08:16:33Z</time>
      </trkpt>
      <trkpt lat="42.678012" lon="-1.893301">
        <ele>458.608</ele>
        <time>2021-07-28T08:16:44Z</time>
      </trkpt>
      <trkpt lat="42.678069" lon="-1.892910">
        <ele>459.622</ele>
        <time>2021-07-28T08:16:54Z</time>
      </trkpt>
      <trkpt lat="42.678128" lon="-1.892433">
        <ele>461.074</ele>
        <time>2021-07-28T08:17:06Z</time>
      </trkpt>
      <trkpt lat="42.678176" lon="-1.891941">
        <ele>461.511</ele>
        <time>2021-07-28T08:17:18Z</time>
      </trkpt>
      <trkpt lat="42.678172" lon="-1.891549">
        <ele>462.081</ele>
        <time>2021-07-28T08:17:27Z</time>
      </trkpt>
      <trkpt lat="42.678116" lon="-1.891113">
        <ele>462.085</ele>
        <time>2021-07-28T08:17:37Z</time>
      </trkpt>
      <trkpt lat="42.678031" lon="-1.890762">
        <ele>462.083</ele>
        <time>2021-07-28T08:17:46Z</time>
      </trkpt>
      <trkpt lat="42.677867" lon="-1.890311">
        <ele>463.080</ele>
        <time>2021-07-28T08:17:59Z</time>
      </trkpt>
      <trkpt lat="42.677787" lon="-1.890128">
        <ele>463.968</ele>
        <time>2021-07-28T08:18:06Z</time>
      </trkpt>
      <trkpt lat="42.677671" lon="-1.889954">
        <ele>465.419</ele>
        <time>2021-07-28T08:18:14Z</time>
      </trkpt>
      <trkpt lat="42.677591" lon="-1.889778">
        <ele>467.309</ele>
        <time>2021-07-28T08:18:22Z</time>
      </trkpt>
      <trkpt lat="42.677551" lon="-1.889531">
        <ele>468.719</ele>
        <time>2021-07-28T08:18:31Z</time>
      </trkpt>
      <trkpt lat="42.677458" lon="-1.889285">
        <ele>471.108</ele>
        <time>2021-07-28T08:18:41Z</time>
      </trkpt>
      <trkpt lat="42.677368" lon="-1.889060">
        <ele>472.178</ele>
        <time>2021-07-28T08:18:51Z</time>
      </trkpt>
      <trkpt lat="42.677287" lon="-1.888807">
        <ele>474.550</ele>
        <time>2021-07-28T08:19:01Z</time>
      </trkpt>
      <trkpt lat="42.677201" lon="-1.888601">
        <ele>475.937</ele>
        <time>2021-07-28T08:19:10Z</time>
      </trkpt>
      <trkpt lat="42.677129" lon="-1.888434">
        <ele>476.917</ele>
        <time>2021-07-28T08:19:18Z</time>
      </trkpt>
      <trkpt lat="42.677070" lon="-1.888222">
        <ele>481.261</ele>
        <time>2021-07-28T08:19:27Z</time>
      </trkpt>
      <trkpt lat="42.676984" lon="-1.888026">
        <ele>482.779</ele>
        <time>2021-07-28T08:19:36Z</time>
      </trkpt>
      <trkpt lat="42.676924" lon="-1.887872">
        <ele>482.716</ele>
        <time>2021-07-28T08:19:42Z</time>
      </trkpt>
      <trkpt lat="42.676840" lon="-1.887618">
        <ele>482.794</ele>
        <time>2021-07-28T08:19:51Z</time>
      </trkpt>
      <trkpt lat="42.676746" lon="-1.887315">
        <ele>483.279</ele>
        <time>2021-07-28T08:20:00Z</time>
      </trkpt>
      <trkpt lat="42.676633" lon="-1.886913">
        <ele>482.705</ele>
        <time>2021-07-28T08:20:11Z</time>
      </trkpt>
      <trkpt lat="42.676562" lon="-1.886633">
        <ele>481.725</ele>
        <time>2021-07-28T08:20:18Z</time>
      </trkpt>
      <trkpt lat="42.676453" lon="-1.886209">
        <ele>480.808</ele>
        <time>2021-07-28T08:20:29Z</time>
      </trkpt>
      <trkpt lat="42.676369" lon="-1.885901">
        <ele>480.354</ele>
        <time>2021-07-28T08:20:37Z</time>
      </trkpt>
      <trkpt lat="42.676280" lon="-1.885536">
        <ele>479.876</ele>
        <time>2021-07-28T08:20:46Z</time>
      </trkpt>
      <trkpt lat="42.676158" lon="-1.885076">
        <ele>479.393</ele>
        <time>2021-07-28T08:20:57Z</time>
      </trkpt>
      <trkpt lat="42.676021" lon="-1.884756">
        <ele>477.913</ele>
        <time>2021-07-28T08:21:05Z</time>
      </trkpt>
      <trkpt lat="42.675937" lon="-1.884645">
        <ele>477.477</ele>
        <time>2021-07-28T08:21:08Z</time>
      </trkpt>
      <trkpt lat="42.675615" lon="-1.884359">
        <ele>477.955</ele>
        <time>2021-07-28T08:21:18Z</time>
      </trkpt>
      <trkpt lat="42.675516" lon="-1.884124">
        <ele>478.322</ele>
        <time>2021-07-28T08:21:24Z</time>
      </trkpt>
      <trkpt lat="42.675394" lon="-1.883834">
        <ele>478.380</ele>
        <time>2021-07-28T08:21:31Z</time>
      </trkpt>
      <trkpt lat="42.675328" lon="-1.883554">
        <ele>477.998</ele>
        <time>2021-07-28T08:21:37Z</time>
      </trkpt>
      <trkpt lat="42.675259" lon="-1.883290">
        <ele>477.415</ele>
        <time>2021-07-28T08:21:43Z</time>
      </trkpt>
      <trkpt lat="42.675261" lon="-1.883230">
        <ele>476.926</ele>
        <time>2021-07-28T08:21:44Z</time>
      </trkpt>
      <trkpt lat="42.675296" lon="-1.882752">
        <ele>475.008</ele>
        <time>2021-07-28T08:21:51Z</time>
      </trkpt>
      <trkpt lat="42.675240" lon="-1.882219">
        <ele>473.146</ele>
        <time>2021-07-28T08:21:57Z</time>
      </trkpt>
      <trkpt lat="42.675119" lon="-1.881360">
        <ele>470.268</ele>
        <time>2021-07-28T08:22:05Z</time>
      </trkpt>
      <trkpt lat="42.675007" lon="-1.880505">
        <ele>469.265</ele>
        <time>2021-07-28T08:22:13Z</time>
      </trkpt>
      <trkpt lat="42.674886" lon="-1.879945">
        <ele>469.785</ele>
        <time>2021-07-28T08:22:20Z</time>
      </trkpt>
      <trkpt lat="42.674810" lon="-1.879645">
        <ele>470.789</ele>
        <time>2021-07-28T08:22:26Z</time>
      </trkpt>
      <trkpt lat="42.674719" lon="-1.879277">
        <ele>472.147</ele>
        <time>2021-07-28T08:22:35Z</time>
      </trkpt>
      <trkpt lat="42.674636" lon="-1.878946">
        <ele>474.084</ele>
        <time>2021-07-28T08:22:44Z</time>
      </trkpt>
      <trkpt lat="42.674553" lon="-1.878613">
        <ele>475.922</ele>
        <time>2021-07-28T08:22:53Z</time>
      </trkpt>
      <trkpt lat="42.674465" lon="-1.878265">
        <ele>477.923</ele>
        <time>2021-07-28T08:23:01Z</time>
      </trkpt>
      <trkpt lat="42.674397" lon="-1.877965">
        <ele>479.383</ele>
        <time>2021-07-28T08:23:09Z</time>
      </trkpt>
      <trkpt lat="42.674293" lon="-1.877567">
        <ele>479.811</ele>
        <time>2021-07-28T08:23:20Z</time>
      </trkpt>
      <trkpt lat="42.674224" lon="-1.877306">
        <ele>478.308</ele>
        <time>2021-07-28T08:23:27Z</time>
      </trkpt>
      <trkpt lat="42.674110" lon="-1.876884">
        <ele>476.959</ele>
        <time>2021-07-28T08:23:35Z</time>
      </trkpt>
      <trkpt lat="42.673990" lon="-1.876407">
        <ele>475.031</ele>
        <time>2021-07-28T08:23:41Z</time>
      </trkpt>
      <trkpt lat="42.673816" lon="-1.875700">
        <ele>472.158</ele>
        <time>2021-07-28T08:23:48Z</time>
      </trkpt>
      <trkpt lat="42.673600" lon="-1.874851">
        <ele>471.678</ele>
        <time>2021-07-28T08:23:57Z</time>
      </trkpt>
      <trkpt lat="42.673470" lon="-1.874358">
        <ele>472.622</ele>
        <time>2021-07-28T08:24:04Z</time>
      </trkpt>
      <trkpt lat="42.673388" lon="-1.874031">
        <ele>474.530</ele>
        <time>2021-07-28T08:24:11Z</time>
      </trkpt>
      <trkpt lat="42.673290" lon="-1.873634">
        <ele>475.087</ele>
        <time>2021-07-28T08:24:21Z</time>
      </trkpt>
      <trkpt lat="42.673195" lon="-1.873260">
        <ele>475.965</ele>
        <time>2021-07-28T08:24:30Z</time>
      </trkpt>
      <trkpt lat="42.673111" lon="-1.872915">
        <ele>477.977</ele>
        <time>2021-07-28T08:24:39Z</time>
      </trkpt>
      <trkpt lat="42.673039" lon="-1.872618">
        <ele>479.361</ele>
        <time>2021-07-28T08:24:47Z</time>
      </trkpt>
      <trkpt lat="42.672932" lon="-1.872193">
        <ele>481.227</ele>
        <time>2021-07-28T08:24:59Z</time>
      </trkpt>
      <trkpt lat="42.672866" lon="-1.871970">
        <ele>481.708</ele>
        <time>2021-07-28T08:25:06Z</time>
      </trkpt>
      <trkpt lat="42.672771" lon="-1.871589">
        <ele>482.744</ele>
        <time>2021-07-28T08:25:16Z</time>
      </trkpt>
      <trkpt lat="42.672714" lon="-1.871331">
        <ele>483.676</ele>
        <time>2021-07-28T08:25:24Z</time>
      </trkpt>
      <trkpt lat="42.672644" lon="-1.871046">
        <ele>483.613</ele>
        <time>2021-07-28T08:25:33Z</time>
      </trkpt>
      <trkpt lat="42.672547" lon="-1.870731">
        <ele>484.183</ele>
        <time>2021-07-28T08:25:42Z</time>
      </trkpt>
      <trkpt lat="42.672490" lon="-1.870473">
        <ele>485.137</ele>
        <time>2021-07-28T08:25:50Z</time>
      </trkpt>
      <trkpt lat="42.672413" lon="-1.870165">
        <ele>485.635</ele>
        <time>2021-07-28T08:25:58Z</time>
      </trkpt>
      <trkpt lat="42.672291" lon="-1.869673">
        <ele>486.072</ele>
        <time>2021-07-28T08:26:09Z</time>
      </trkpt>
      <trkpt lat="42.672169" lon="-1.869189">
        <ele>486.560</ele>
        <time>2021-07-28T08:26:19Z</time>
      </trkpt>
      <trkpt lat="42.672066" lon="-1.868789">
        <ele>487.059</ele>
        <time>2021-07-28T08:26:28Z</time>
      </trkpt>
      <trkpt lat="42.672006" lon="-1.868596">
        <ele>486.503</ele>
        <time>2021-07-28T08:26:32Z</time>
      </trkpt>
      <trkpt lat="42.671993" lon="-1.868539">
        <ele>486.023</ele>
        <time>2021-07-28T08:26:33Z</time>
      </trkpt>
      <trkpt lat="42.671892" lon="-1.868073">
        <ele>484.108</ele>
        <time>2021-07-28T08:26:39Z</time>
      </trkpt>
      <trkpt lat="42.671738" lon="-1.867379">
        <ele>479.842</ele>
        <time>2021-07-28T08:26:47Z</time>
      </trkpt>
      <trkpt lat="42.671573" lon="-1.866665">
        <ele>475.954</ele>
        <time>2021-07-28T08:26:54Z</time>
      </trkpt>
      <trkpt lat="42.671350" lon="-1.865608">
        <ele>470.251</ele>
        <time>2021-07-28T08:27:03Z</time>
      </trkpt>
      <trkpt lat="42.671286" lon="-1.865186">
        <ele>469.791</ele>
        <time>2021-07-28T08:27:07Z</time>
      </trkpt>
      <trkpt lat="42.671171" lon="-1.864704">
        <ele>467.865</ele>
        <time>2021-07-28T08:27:14Z</time>
      </trkpt>
      <trkpt lat="42.671077" lon="-1.864273">
        <ele>466.343</ele>
        <time>2021-07-28T08:27:21Z</time>
      </trkpt>
      <trkpt lat="42.671021" lon="-1.864042">
        <ele>464.980</ele>
        <time>2021-07-28T08:27:27Z</time>
      </trkpt>
      <trkpt lat="42.670938" lon="-1.863746">
        <ele>463.028</ele>
        <time>2021-07-28T08:27:34Z</time>
      </trkpt>
      <trkpt lat="42.670892" lon="-1.863634">
        <ele>462.594</ele>
        <time>2021-07-28T08:27:38Z</time>
      </trkpt>
      <trkpt lat="42.670828" lon="-1.863653">
        <ele>462.557</ele>
        <time>2021-07-28T08:27:41Z</time>
      </trkpt>
      <trkpt lat="42.670677" lon="-1.863734">
        <ele>461.522</ele>
        <time>2021-07-28T08:27:48Z</time>
      </trkpt>
      <trkpt lat="42.670545" lon="-1.863816">
        <ele>462.008</ele>
        <time>2021-07-28T08:27:54Z</time>
      </trkpt>
      <trkpt lat="42.670306" lon="-1.863950">
        <ele>463.036</ele>
        <time>2021-07-28T08:28:02Z</time>
      </trkpt>
      <trkpt lat="42.670072" lon="-1.864072">
        <ele>463.468</ele>
        <time>2021-07-28T08:28:11Z</time>
      </trkpt>
      <trkpt lat="42.670057" lon="-1.864084">
        <ele>463.995</ele>
        <time>2021-07-28T08:28:12Z</time>
      </trkpt>
      <trkpt lat="42.670009" lon="-1.864094">
        <ele>464.455</ele>
        <time>2021-07-28T08:28:16Z</time>
      </trkpt>
      <trkpt lat="42.670030" lon="-1.864120">
        <ele>464.419</ele>
        <time>2021-07-28T08:28:23Z</time>
      </trkpt>
      <trkpt lat="42.670023" lon="-1.864109">
        <ele>463.437</ele>
        <time>2021-07-28T08:28:30Z</time>
      </trkpt>
      <trkpt lat="42.670026" lon="-1.864136">
        <ele>462.594</ele>
        <time>2021-07-28T08:28:46Z</time>
      </trkpt>
      <trkpt lat="42.669983" lon="-1.864123">
        <ele>455.842</ele>
        <time>2021-07-28T08:29:17Z</time>
      </trkpt>
      <trkpt lat="42.669996" lon="-1.864105">
        <ele>456.744</ele>
        <time>2021-07-28T08:29:27Z</time>
      </trkpt>
      <trkpt lat="42.669998" lon="-1.864094">
        <ele>457.705</ele>
        <time>2021-07-28T08:29:33Z</time>
      </trkpt>
      <trkpt lat="42.669995" lon="-1.864087">
        <ele>457.215</ele>
        <time>2021-07-28T08:29:34Z</time>
      </trkpt>
      <trkpt lat="42.669902" lon="-1.864031">
        <ele>455.808</ele>
        <time>2021-07-28T08:29:41Z</time>
      </trkpt>
      <trkpt lat="42.669853" lon="-1.864021">
        <ele>455.331</ele>
        <time>2021-07-28T08:29:44Z</time>
      </trkpt>
      <trkpt lat="42.669679" lon="-1.864031">
        <ele>454.363</ele>
        <time>2021-07-28T08:29:53Z</time>
      </trkpt>
      <trkpt lat="42.669596" lon="-1.864031">
        <ele>453.890</ele>
        <time>2021-07-28T08:29:58Z</time>
      </trkpt>
      <trkpt lat="42.669380" lon="-1.864023">
        <ele>453.860</ele>
        <time>2021-07-28T08:30:07Z</time>
      </trkpt>
      <trkpt lat="42.669206" lon="-1.863940">
        <ele>454.884</ele>
        <time>2021-07-28T08:30:14Z</time>
      </trkpt>
      <trkpt lat="42.669101" lon="-1.863879">
        <ele>456.222</ele>
        <time>2021-07-28T08:30:19Z</time>
      </trkpt>
      <trkpt lat="42.669082" lon="-1.863718">
        <ele>455.879</ele>
        <time>2021-07-28T08:30:26Z</time>
      </trkpt>
      <trkpt lat="42.669027" lon="-1.863727">
        <ele>455.317</ele>
        <time>2021-07-28T08:30:29Z</time>
      </trkpt>
      <trkpt lat="42.668966" lon="-1.863749">
        <ele>453.886</ele>
        <time>2021-07-28T08:30:32Z</time>
      </trkpt>
      <trkpt lat="42.668866" lon="-1.863654">
        <ele>453.860</ele>
        <time>2021-07-28T08:30:39Z</time>
      </trkpt>
      <trkpt lat="42.668873" lon="-1.863490">
        <ele>454.826</ele>
        <time>2021-07-28T08:30:44Z</time>
      </trkpt>
      <trkpt lat="42.668893" lon="-1.863433">
        <ele>455.308</ele>
        <time>2021-07-28T08:30:47Z</time>
      </trkpt>
      <trkpt lat="42.668930" lon="-1.863268">
        <ele>455.895</ele>
        <time>2021-07-28T08:30:54Z</time>
      </trkpt>
      <trkpt lat="42.668928" lon="-1.863217">
        <ele>455.887</ele>
        <time>2021-07-28T08:30:59Z</time>
      </trkpt>
      <trkpt lat="42.668929" lon="-1.863209">
        <ele>455.344</ele>
        <time>2021-07-28T08:31:02Z</time>
      </trkpt>
      <trkpt lat="42.668938" lon="-1.862998">
        <ele>456.284</ele>
        <time>2021-07-28T08:31:10Z</time>
      </trkpt>
      <trkpt lat="42.668925" lon="-1.862764">
        <ele>456.788</ele>
        <time>2021-07-28T08:31:17Z</time>
      </trkpt>
      <trkpt lat="42.668937" lon="-1.862522">
        <ele>456.736</ele>
        <time>2021-07-28T08:31:26Z</time>
      </trkpt>
      <trkpt lat="42.668965" lon="-1.862356">
        <ele>458.683</ele>
        <time>2021-07-28T08:31:33Z</time>
      </trkpt>
      <trkpt lat="42.669023" lon="-1.862319">
        <ele>459.611</ele>
        <time>2021-07-28T08:31:40Z</time>
      </trkpt>
      <trkpt lat="42.669032" lon="-1.862326">
        <ele>458.662</ele>
        <time>2021-07-28T08:31:47Z</time>
      </trkpt>
      <trkpt lat="42.668998" lon="-1.862352">
        <ele>459.683</ele>
        <time>2021-07-28T08:32:10Z</time>
      </trkpt>
      <trkpt lat="42.668995" lon="-1.862384">
        <ele>463.411</ele>
        <time>2021-07-28T08:32:37Z</time>
      </trkpt>
      <trkpt lat="42.669028" lon="-1.862328">
        <ele>463.908</ele>
        <time>2021-07-28T08:32:48Z</time>
      </trkpt>
      <trkpt lat="42.669062" lon="-1.862297">
        <ele>459.153</ele>
        <time>2021-07-28T08:33:07Z</time>
      </trkpt>
      <trkpt lat="42.669060" lon="-1.862288">
        <ele>456.745</ele>
        <time>2021-07-28T08:33:30Z</time>
      </trkpt>
      <trkpt lat="42.669047" lon="-1.862285">
        <ele>456.752</ele>
        <time>2021-07-28T08:33:59Z</time>
      </trkpt>
      <trkpt lat="42.669071" lon="-1.862301">
        <ele>457.242</ele>
        <time>2021-07-28T08:34:31Z</time>
      </trkpt>
      <trkpt lat="42.669067" lon="-1.862298">
        <ele>455.856</ele>
        <time>2021-07-28T08:34:57Z</time>
      </trkpt>
      <trkpt lat="42.669057" lon="-1.862285">
        <ele>454.384</ele>
        <time>2021-07-28T08:35:22Z</time>
      </trkpt>
      <trkpt lat="42.669046" lon="-1.862305">
        <ele>453.831</ele>
        <time>2021-07-28T08:35:50Z</time>
      </trkpt>
      <trkpt lat="42.669030" lon="-1.862311">
        <ele>458.289</ele>
        <time>2021-07-28T08:36:17Z</time>
      </trkpt>
      <trkpt lat="42.669057" lon="-1.862307">
        <ele>460.654</ele>
        <time>2021-07-28T08:36:44Z</time>
      </trkpt>
      <trkpt lat="42.669067" lon="-1.862304">
        <ele>459.156</ele>
        <time>2021-07-28T08:37:03Z</time>
      </trkpt>
      <trkpt lat="42.669045" lon="-1.862308">
        <ele>456.711</ele>
        <time>2021-07-28T08:37:26Z</time>
      </trkpt>
      <trkpt lat="42.669049" lon="-1.862324">
        <ele>457.208</ele>
        <time>2021-07-28T08:37:54Z</time>
      </trkpt>
      <trkpt lat="42.669044" lon="-1.862332">
        <ele>455.852</ele>
        <time>2021-07-28T08:38:21Z</time>
      </trkpt>
      <trkpt lat="42.669056" lon="-1.862322">
        <ele>455.324</ele>
        <time>2021-07-28T08:38:46Z</time>
      </trkpt>
      <trkpt lat="42.669074" lon="-1.862282">
        <ele>454.831</ele>
        <time>2021-07-28T08:39:11Z</time>
      </trkpt>
      <trkpt lat="42.669073" lon="-1.862278">
        <ele>456.241</ele>
        <time>2021-07-28T08:39:26Z</time>
      </trkpt>
      <trkpt lat="42.669066" lon="-1.862268">
        <ele>456.765</ele>
        <time>2021-07-28T08:39:43Z</time>
      </trkpt>
      <trkpt lat="42.669046" lon="-1.862272">
        <ele>456.773</ele>
        <time>2021-07-28T08:39:59Z</time>
      </trkpt>
      <trkpt lat="42.669041" lon="-1.862285">
        <ele>456.250</ele>
        <time>2021-07-28T08:40:25Z</time>
      </trkpt>
      <trkpt lat="42.669035" lon="-1.862289">
        <ele>456.788</ele>
        <time>2021-07-28T08:40:39Z</time>
      </trkpt>
      <trkpt lat="42.669043" lon="-1.862299">
        <ele>456.776</ele>
        <time>2021-07-28T08:41:01Z</time>
      </trkpt>
      <trkpt lat="42.669043" lon="-1.862301">
        <ele>457.790</ele>
        <time>2021-07-28T08:41:22Z</time>
      </trkpt>
      <trkpt lat="42.669037" lon="-1.862281">
        <ele>457.219</ele>
        <time>2021-07-28T08:41:37Z</time>
      </trkpt>
      <trkpt lat="42.669042" lon="-1.862279">
        <ele>456.708</ele>
        <time>2021-07-28T08:41:53Z</time>
      </trkpt>
      <trkpt lat="42.669050" lon="-1.862286">
        <ele>457.214</ele>
        <time>2021-07-28T08:42:08Z</time>
      </trkpt>
      <trkpt lat="42.669055" lon="-1.862301">
        <ele>459.136</ele>
        <time>2021-07-28T08:42:30Z</time>
      </trkpt>
      <trkpt lat="42.669089" lon="-1.862283">
        <ele>460.143</ele>
        <time>2021-07-28T08:42:55Z</time>
      </trkpt>
      <trkpt lat="42.669079" lon="-1.862275">
        <ele>457.743</ele>
        <time>2021-07-28T08:43:16Z</time>
      </trkpt>
      <trkpt lat="42.669079" lon="-1.862289">
        <ele>455.887</ele>
        <time>2021-07-28T08:43:39Z</time>
      </trkpt>
      <trkpt lat="42.669062" lon="-1.862294">
        <ele>454.865</ele>
        <time>2021-07-28T08:43:55Z</time>
      </trkpt>
      <trkpt lat="42.669048" lon="-1.862297">
        <ele>453.812</ele>
        <time>2021-07-28T08:44:12Z</time>
      </trkpt>
      <trkpt lat="42.669058" lon="-1.862299">
        <ele>452.460</ele>
        <time>2021-07-28T08:44:33Z</time>
      </trkpt>
      <trkpt lat="42.669051" lon="-1.862293">
        <ele>451.473</ele>
        <time>2021-07-28T08:44:47Z</time>
      </trkpt>
      <trkpt lat="42.669059" lon="-1.862302">
        <ele>451.985</ele>
        <time>2021-07-28T08:45:07Z</time>
      </trkpt>
      <trkpt lat="42.669054" lon="-1.862311">
        <ele>451.913</ele>
        <time>2021-07-28T08:45:31Z</time>
      </trkpt>
      <trkpt lat="42.669058" lon="-1.862321">
        <ele>452.908</ele>
        <time>2021-07-28T08:45:52Z</time>
      </trkpt>
      <trkpt lat="42.669073" lon="-1.862310">
        <ele>454.894</ele>
        <time>2021-07-28T08:46:16Z</time>
      </trkpt>
      <trkpt lat="42.669092" lon="-1.862294">
        <ele>455.386</ele>
        <time>2021-07-28T08:46:37Z</time>
      </trkpt>
      <trkpt lat="42.669072" lon="-1.862278">
        <ele>453.493</ele>
        <time>2021-07-28T08:47:00Z</time>
      </trkpt>
      <trkpt lat="42.669052" lon="-1.862278">
        <ele>452.423</ele>
        <time>2021-07-28T08:47:27Z</time>
      </trkpt>
      <trkpt lat="42.669051" lon="-1.862282">
        <ele>451.027</ele>
        <time>2021-07-28T08:47:42Z</time>
      </trkpt>
      <trkpt lat="42.669070" lon="-1.862286">
        <ele>450.055</ele>
        <time>2021-07-28T08:47:59Z</time>
      </trkpt>
      <trkpt lat="42.669077" lon="-1.862286">
        <ele>451.482</ele>
        <time>2021-07-28T08:48:17Z</time>
      </trkpt>
      <trkpt lat="42.669056" lon="-1.862308">
        <ele>452.970</ele>
        <time>2021-07-28T08:48:41Z</time>
      </trkpt>
      <trkpt lat="42.669059" lon="-1.862305">
        <ele>453.849</ele>
        <time>2021-07-28T08:49:03Z</time>
      </trkpt>
      <trkpt lat="42.669060" lon="-1.862301">
        <ele>454.302</ele>
        <time>2021-07-28T08:49:25Z</time>
      </trkpt>
      <trkpt lat="42.669062" lon="-1.862246">
        <ele>456.222</ele>
        <time>2021-07-28T08:49:35Z</time>
      </trkpt>
      <trkpt lat="42.669059" lon="-1.862233">
        <ele>456.708</ele>
        <time>2021-07-28T08:49:36Z</time>
      </trkpt>
      <trkpt lat="42.668997" lon="-1.862148">
        <ele>457.261</ele>
        <time>2021-07-28T08:49:44Z</time>
      </trkpt>
      <trkpt lat="42.668973" lon="-1.862086">
        <ele>457.223</ele>
        <time>2021-07-28T08:49:52Z</time>
      </trkpt>
      <trkpt lat="42.668971" lon="-1.862085">
        <ele>456.780</ele>
        <time>2021-07-28T08:50:11Z</time>
      </trkpt>
      <trkpt lat="42.668958" lon="-1.862042">
        <ele>457.280</ele>
        <time>2021-07-28T08:50:18Z</time>
      </trkpt>
      <trkpt lat="42.668965" lon="-1.862043">
        <ele>456.224</ele>
        <time>2021-07-28T08:50:29Z</time>
      </trkpt>
      <trkpt lat="42.668935" lon="-1.861995">
        <ele>456.742</ele>
        <time>2021-07-28T08:50:39Z</time>
      </trkpt>
      <trkpt lat="42.668933" lon="-1.861900">
        <ele>456.729</ele>
        <time>2021-07-28T08:50:47Z</time>
      </trkpt>
      <trkpt lat="42.668946" lon="-1.861876">
        <ele>455.877</ele>
        <time>2021-07-28T08:50:49Z</time>
      </trkpt>
      <trkpt lat="42.668972" lon="-1.861850">
        <ele>454.335</ele>
        <time>2021-07-28T08:50:52Z</time>
      </trkpt>
      <trkpt lat="42.669013" lon="-1.861832">
        <ele>452.986</ele>
        <time>2021-07-28T08:50:55Z</time>
      </trkpt>
      <trkpt lat="42.669114" lon="-1.861675">
        <ele>453.414</ele>
        <time>2021-07-28T08:51:05Z</time>
      </trkpt>
      <trkpt lat="42.669181" lon="-1.861496">
        <ele>457.208</ele>
        <time>2021-07-28T08:51:15Z</time>
      </trkpt>
      <trkpt lat="42.669176" lon="-1.861312">
        <ele>459.120</ele>
        <time>2021-07-28T08:51:24Z</time>
      </trkpt>
      <trkpt lat="42.669161" lon="-1.861110">
        <ele>462.042</ele>
        <time>2021-07-28T08:51:33Z</time>
      </trkpt>
      <trkpt lat="42.669154" lon="-1.861004">
        <ele>463.999</ele>
        <time>2021-07-28T08:51:41Z</time>
      </trkpt>
      <trkpt lat="42.669162" lon="-1.860872">
        <ele>464.459</ele>
        <time>2021-07-28T08:51:50Z</time>
      </trkpt>
      <trkpt lat="42.669177" lon="-1.860740">
        <ele>466.383</ele>
        <time>2021-07-28T08:51:58Z</time>
      </trkpt>
      <trkpt lat="42.669183" lon="-1.860584">
        <ele>469.211</ele>
        <time>2021-07-28T08:52:07Z</time>
      </trkpt>
      <trkpt lat="42.669190" lon="-1.860551">
        <ele>470.228</ele>
        <time>2021-07-28T08:52:09Z</time>
      </trkpt>
      <trkpt lat="42.669218" lon="-1.860402">
        <ele>471.116</ele>
        <time>2021-07-28T08:52:17Z</time>
      </trkpt>
      <trkpt lat="42.669249" lon="-1.860211">
        <ele>472.166</ele>
        <time>2021-07-28T08:52:27Z</time>
      </trkpt>
      <trkpt lat="42.669253" lon="-1.860055">
        <ele>472.629</ele>
        <time>2021-07-28T08:52:35Z</time>
      </trkpt>
      <trkpt lat="42.669254" lon="-1.859907">
        <ele>473.121</ele>
        <time>2021-07-28T08:52:42Z</time>
      </trkpt>
      <trkpt lat="42.669261" lon="-1.859743">
        <ele>474.508</ele>
        <time>2021-07-28T08:52:50Z</time>
      </trkpt>
      <trkpt lat="42.669261" lon="-1.859724">
        <ele>474.553</ele>
        <time>2021-07-28T08:52:51Z</time>
      </trkpt>
      <trkpt lat="42.669184" lon="-1.859528">
        <ele>477.435</ele>
        <time>2021-07-28T08:53:02Z</time>
      </trkpt>
      <trkpt lat="42.669120" lon="-1.859385">
        <ele>479.862</ele>
        <time>2021-07-28T08:53:10Z</time>
      </trkpt>
      <trkpt lat="42.669051" lon="-1.859199">
        <ele>482.272</ele>
        <time>2021-07-28T08:53:19Z</time>
      </trkpt>
      <trkpt lat="42.668946" lon="-1.859006">
        <ele>483.236</ele>
        <time>2021-07-28T08:53:28Z</time>
      </trkpt>
      <trkpt lat="42.668952" lon="-1.858765">
        <ele>483.234</ele>
        <time>2021-07-28T08:53:36Z</time>
      </trkpt>
      <trkpt lat="42.668900" lon="-1.858527">
        <ele>483.211</ele>
        <time>2021-07-28T08:53:43Z</time>
      </trkpt>
      <trkpt lat="42.668723" lon="-1.858239">
        <ele>483.629</ele>
        <time>2021-07-28T08:53:55Z</time>
      </trkpt>
      <trkpt lat="42.668577" lon="-1.857922">
        <ele>486.092</ele>
        <time>2021-07-28T08:54:06Z</time>
      </trkpt>
      <trkpt lat="42.668510" lon="-1.857612">
        <ele>488.073</ele>
        <time>2021-07-28T08:54:16Z</time>
      </trkpt>
      <trkpt lat="42.668531" lon="-1.857190">
        <ele>488.920</ele>
        <time>2021-07-28T08:54:28Z</time>
      </trkpt>
      <trkpt lat="42.668566" lon="-1.856906">
        <ele>489.408</ele>
        <time>2021-07-28T08:54:38Z</time>
      </trkpt>
      <trkpt lat="42.668602" lon="-1.856670">
        <ele>490.426</ele>
        <time>2021-07-28T08:54:47Z</time>
      </trkpt>
      <trkpt lat="42.668636" lon="-1.856390">
        <ele>491.388</ele>
        <time>2021-07-28T08:54:58Z</time>
      </trkpt>
      <trkpt lat="42.668680" lon="-1.856157">
        <ele>491.885</ele>
        <time>2021-07-28T08:55:07Z</time>
      </trkpt>
      <trkpt lat="42.668704" lon="-1.855972">
        <ele>492.815</ele>
        <time>2021-07-28T08:55:14Z</time>
      </trkpt>
      <trkpt lat="42.668717" lon="-1.855632">
        <ele>494.729</ele>
        <time>2021-07-28T08:55:25Z</time>
      </trkpt>
      <trkpt lat="42.668699" lon="-1.855444">
        <ele>495.287</ele>
        <time>2021-07-28T08:55:32Z</time>
      </trkpt>
      <trkpt lat="42.668626" lon="-1.855250">
        <ele>496.664</ele>
        <time>2021-07-28T08:55:40Z</time>
      </trkpt>
      <trkpt lat="42.668588" lon="-1.855217">
        <ele>496.112</ele>
        <time>2021-07-28T08:55:46Z</time>
      </trkpt>
      <trkpt lat="42.668580" lon="-1.855218">
        <ele>496.118</ele>
        <time>2021-07-28T08:55:57Z</time>
      </trkpt>
      <trkpt lat="42.668589" lon="-1.855215">
        <ele>497.698</ele>
        <time>2021-07-28T08:56:10Z</time>
      </trkpt>
      <trkpt lat="42.668591" lon="-1.855204">
        <ele>498.117</ele>
        <time>2021-07-28T08:56:30Z</time>
      </trkpt>
      <trkpt lat="42.668586" lon="-1.855189">
        <ele>499.008</ele>
        <time>2021-07-28T08:56:37Z</time>
      </trkpt>
      <trkpt lat="42.668521" lon="-1.855050">
        <ele>499.538</ele>
        <time>2021-07-28T08:56:44Z</time>
      </trkpt>
      <trkpt lat="42.668384" lon="-1.854803">
        <ele>499.550</ele>
        <time>2021-07-28T08:56:53Z</time>
      </trkpt>
      <trkpt lat="42.668250" lon="-1.854527">
        <ele>499.537</ele>
        <time>2021-07-28T08:57:01Z</time>
      </trkpt>
      <trkpt lat="42.668129" lon="-1.854220">
        <ele>499.067</ele>
        <time>2021-07-28T08:57:09Z</time>
      </trkpt>
      <trkpt lat="42.668046" lon="-1.853887">
        <ele>500.061</ele>
        <time>2021-07-28T08:57:17Z</time>
      </trkpt>
      <trkpt lat="42.667988" lon="-1.853551">
        <ele>500.539</ele>
        <time>2021-07-28T08:57:24Z</time>
      </trkpt>
      <trkpt lat="42.667967" lon="-1.853110">
        <ele>499.056</ele>
        <time>2021-07-28T08:57:34Z</time>
      </trkpt>
      <trkpt lat="42.667991" lon="-1.852783">
        <ele>500.044</ele>
        <time>2021-07-28T08:57:42Z</time>
      </trkpt>
      <trkpt lat="42.668038" lon="-1.852461">
        <ele>500.034</ele>
        <time>2021-07-28T08:57:50Z</time>
      </trkpt>
      <trkpt lat="42.668101" lon="-1.852141">
        <ele>500.955</ele>
        <time>2021-07-28T08:57:59Z</time>
      </trkpt>
      <trkpt lat="42.668174" lon="-1.851803">
        <ele>501.910</ele>
        <time>2021-07-28T08:58:08Z</time>
      </trkpt>
      <trkpt lat="42.668234" lon="-1.851529">
        <ele>502.408</ele>
        <time>2021-07-28T08:58:16Z</time>
      </trkpt>
      <trkpt lat="42.668286" lon="-1.851136">
        <ele>501.970</ele>
        <time>2021-07-28T08:58:27Z</time>
      </trkpt>
      <trkpt lat="42.668295" lon="-1.850803">
        <ele>500.932</ele>
        <time>2021-07-28T08:58:34Z</time>
      </trkpt>
      <trkpt lat="42.668226" lon="-1.850380">
        <ele>500.089</ele>
        <time>2021-07-28T08:58:39Z</time>
      </trkpt>
      <trkpt lat="42.668072" lon="-1.849708">
        <ele>496.619</ele>
        <time>2021-07-28T08:58:45Z</time>
      </trkpt>
      <trkpt lat="42.667814" lon="-1.848909">
        <ele>491.353</ele>
        <time>2021-07-28T08:58:51Z</time>
      </trkpt>
      <trkpt lat="42.667672" lon="-1.848431">
        <ele>488.031</ele>
        <time>2021-07-28T08:58:55Z</time>
      </trkpt>
      <trkpt lat="42.667656" lon="-1.848312">
        <ele>487.548</ele>
        <time>2021-07-28T08:58:56Z</time>
      </trkpt>
      <trkpt lat="42.667654" lon="-1.848188">
        <ele>486.526</ele>
        <time>2021-07-28T08:58:57Z</time>
      </trkpt>
      <trkpt lat="42.667667" lon="-1.848069">
        <ele>485.677</ele>
        <time>2021-07-28T08:58:58Z</time>
      </trkpt>
      <trkpt lat="42.667691" lon="-1.847952">
        <ele>484.661</ele>
        <time>2021-07-28T08:58:59Z</time>
      </trkpt>
      <trkpt lat="42.667725" lon="-1.847823">
        <ele>484.127</ele>
        <time>2021-07-28T08:59:00Z</time>
      </trkpt>
      <trkpt lat="42.667768" lon="-1.847705">
        <ele>483.208</ele>
        <time>2021-07-28T08:59:01Z</time>
      </trkpt>
      <trkpt lat="42.667818" lon="-1.847596">
        <ele>482.224</ele>
        <time>2021-07-28T08:59:02Z</time>
      </trkpt>
      <trkpt lat="42.667880" lon="-1.847488">
        <ele>481.226</ele>
        <time>2021-07-28T08:59:03Z</time>
      </trkpt>
      <trkpt lat="42.667954" lon="-1.847390">
        <ele>480.313</ele>
        <time>2021-07-28T08:59:04Z</time>
      </trkpt>
      <trkpt lat="42.668041" lon="-1.847301">
        <ele>479.373</ele>
        <time>2021-07-28T08:59:05Z</time>
      </trkpt>
      <trkpt lat="42.668133" lon="-1.847218">
        <ele>478.367</ele>
        <time>2021-07-28T08:59:06Z</time>
      </trkpt>
      <trkpt lat="42.668706" lon="-1.846768">
        <ele>473.595</ele>
        <time>2021-07-28T08:59:12Z</time>
      </trkpt>
      <trkpt lat="42.668874" lon="-1.846597">
        <ele>471.622</ele>
        <time>2021-07-28T08:59:14Z</time>
      </trkpt>
      <trkpt lat="42.668943" lon="-1.846490">
        <ele>470.770</ele>
        <time>2021-07-28T08:59:15Z</time>
      </trkpt>
      <trkpt lat="42.668998" lon="-1.846366">
        <ele>469.728</ele>
        <time>2021-07-28T08:59:16Z</time>
      </trkpt>
      <trkpt lat="42.669035" lon="-1.846231">
        <ele>469.289</ele>
        <time>2021-07-28T08:59:17Z</time>
      </trkpt>
      <trkpt lat="42.669048" lon="-1.846092">
        <ele>468.317</ele>
        <time>2021-07-28T08:59:18Z</time>
      </trkpt>
      <trkpt lat="42.669038" lon="-1.845952">
        <ele>467.808</ele>
        <time>2021-07-28T08:59:19Z</time>
      </trkpt>
      <trkpt lat="42.669008" lon="-1.845815">
        <ele>466.899</ele>
        <time>2021-07-28T08:59:20Z</time>
      </trkpt>
      <trkpt lat="42.668952" lon="-1.845693">
        <ele>466.351</ele>
        <time>2021-07-28T08:59:21Z</time>
      </trkpt>
      <trkpt lat="42.668868" lon="-1.845591">
        <ele>465.998</ele>
        <time>2021-07-28T08:59:22Z</time>
      </trkpt>
      <trkpt lat="42.668780" lon="-1.845514">
        <ele>464.988</ele>
        <time>2021-07-28T08:59:23Z</time>
      </trkpt>
      <trkpt lat="42.668688" lon="-1.845433">
        <ele>464.442</ele>
        <time>2021-07-28T08:59:24Z</time>
      </trkpt>
      <trkpt lat="42.668597" lon="-1.845340">
        <ele>463.430</ele>
        <time>2021-07-28T08:59:25Z</time>
      </trkpt>
      <trkpt lat="42.668215" lon="-1.844939">
        <ele>461.077</ele>
        <time>2021-07-28T08:59:30Z</time>
      </trkpt>
      <trkpt lat="42.667929" lon="-1.844443">
        <ele>458.635</ele>
        <time>2021-07-28T08:59:35Z</time>
      </trkpt>
      <trkpt lat="42.667808" lon="-1.844156">
        <ele>457.779</ele>
        <time>2021-07-28T08:59:38Z</time>
      </trkpt>
      <trkpt lat="42.667782" lon="-1.844061">
        <ele>457.205</ele>
        <time>2021-07-28T08:59:39Z</time>
      </trkpt>
      <trkpt lat="42.667617" lon="-1.843416">
        <ele>453.825</ele>
        <time>2021-07-28T08:59:45Z</time>
      </trkpt>
      <trkpt lat="42.667536" lon="-1.842969">
        <ele>452.408</ele>
        <time>2021-07-28T08:59:49Z</time>
      </trkpt>
      <trkpt lat="42.667533" lon="-1.842859">
        <ele>451.464</ele>
        <time>2021-07-28T08:59:50Z</time>
      </trkpt>
      <trkpt lat="42.667567" lon="-1.841898">
        <ele>446.696</ele>
        <time>2021-07-28T08:59:58Z</time>
      </trkpt>
      <trkpt lat="42.667589" lon="-1.841520">
        <ele>445.223</ele>
        <time>2021-07-28T09:00:01Z</time>
      </trkpt>
      <trkpt lat="42.667615" lon="-1.841402">
        <ele>444.723</ele>
        <time>2021-07-28T09:00:02Z</time>
      </trkpt>
      <trkpt lat="42.667659" lon="-1.841293">
        <ele>444.297</ele>
        <time>2021-07-28T09:00:03Z</time>
      </trkpt>
      <trkpt lat="42.667721" lon="-1.841197">
        <ele>443.795</ele>
        <time>2021-07-28T09:00:04Z</time>
      </trkpt>
      <trkpt lat="42.667798" lon="-1.841118">
        <ele>442.872</ele>
        <time>2021-07-28T09:00:05Z</time>
      </trkpt>
      <trkpt lat="42.667884" lon="-1.841049">
        <ele>441.850</ele>
        <time>2021-07-28T09:00:06Z</time>
      </trkpt>
      <trkpt lat="42.668444" lon="-1.840607">
        <ele>436.521</ele>
        <time>2021-07-28T09:00:12Z</time>
      </trkpt>
      <trkpt lat="42.668527" lon="-1.840503">
        <ele>435.641</ele>
        <time>2021-07-28T09:00:13Z</time>
      </trkpt>
      <trkpt lat="42.668596" lon="-1.840383">
        <ele>435.105</ele>
        <time>2021-07-28T09:00:14Z</time>
      </trkpt>
      <trkpt lat="42.668646" lon="-1.840244">
        <ele>434.108</ele>
        <time>2021-07-28T09:00:15Z</time>
      </trkpt>
      <trkpt lat="42.668672" lon="-1.840095">
        <ele>433.619</ele>
        <time>2021-07-28T09:00:16Z</time>
      </trkpt>
      <trkpt lat="42.668669" lon="-1.839944">
        <ele>432.751</ele>
        <time>2021-07-28T09:00:17Z</time>
      </trkpt>
      <trkpt lat="42.668646" lon="-1.839797">
        <ele>431.718</ele>
        <time>2021-07-28T09:00:18Z</time>
      </trkpt>
      <trkpt lat="42.668601" lon="-1.839656">
        <ele>431.268</ele>
        <time>2021-07-28T09:00:19Z</time>
      </trkpt>
      <trkpt lat="42.668537" lon="-1.839526">
        <ele>430.892</ele>
        <time>2021-07-28T09:00:20Z</time>
      </trkpt>
      <trkpt lat="42.668458" lon="-1.839407">
        <ele>429.890</ele>
        <time>2021-07-28T09:00:21Z</time>
      </trkpt>
      <trkpt lat="42.668376" lon="-1.839288">
        <ele>429.327</ele>
        <time>2021-07-28T09:00:22Z</time>
      </trkpt>
      <trkpt lat="42.667807" lon="-1.838401">
        <ele>423.695</ele>
        <time>2021-07-28T09:00:29Z</time>
      </trkpt>
      <trkpt lat="42.667228" lon="-1.837511">
        <ele>417.816</ele>
        <time>2021-07-28T09:00:36Z</time>
      </trkpt>
      <trkpt lat="42.666952" lon="-1.837065">
        <ele>414.976</ele>
        <time>2021-07-28T09:00:40Z</time>
      </trkpt>
      <trkpt lat="42.666901" lon="-1.836938">
        <ele>414.413</ele>
        <time>2021-07-28T09:00:41Z</time>
      </trkpt>
      <trkpt lat="42.666863" lon="-1.836810">
        <ele>413.508</ele>
        <time>2021-07-28T09:00:42Z</time>
      </trkpt>
      <trkpt lat="42.666834" lon="-1.836673">
        <ele>412.088</ele>
        <time>2021-07-28T09:00:43Z</time>
      </trkpt>
      <trkpt lat="42.666817" lon="-1.836525">
        <ele>411.120</ele>
        <time>2021-07-28T09:00:44Z</time>
      </trkpt>
      <trkpt lat="42.666807" lon="-1.836386">
        <ele>410.117</ele>
        <time>2021-07-28T09:00:45Z</time>
      </trkpt>
      <trkpt lat="42.666806" lon="-1.836131">
        <ele>408.227</ele>
        <time>2021-07-28T09:00:47Z</time>
      </trkpt>
      <trkpt lat="42.666818" lon="-1.836011">
        <ele>407.721</ele>
        <time>2021-07-28T09:00:48Z</time>
      </trkpt>
      <trkpt lat="42.666940" lon="-1.835152">
        <ele>404.819</ele>
        <time>2021-07-28T09:00:55Z</time>
      </trkpt>
      <trkpt lat="42.667114" lon="-1.834396">
        <ele>401.976</ele>
        <time>2021-07-28T09:01:03Z</time>
      </trkpt>
      <trkpt lat="42.667321" lon="-1.833744">
        <ele>400.514</ele>
        <time>2021-07-28T09:01:10Z</time>
      </trkpt>
      <trkpt lat="42.667562" lon="-1.833097">
        <ele>399.085</ele>
        <time>2021-07-28T09:01:19Z</time>
      </trkpt>
      <trkpt lat="42.667664" lon="-1.832848">
        <ele>398.689</ele>
        <time>2021-07-28T09:01:23Z</time>
      </trkpt>
      <trkpt lat="42.668004" lon="-1.832188">
        <ele>397.117</ele>
        <time>2021-07-28T09:01:35Z</time>
      </trkpt>
      <trkpt lat="42.668241" lon="-1.831757">
        <ele>395.708</ele>
        <time>2021-07-28T09:01:44Z</time>
      </trkpt>
      <trkpt lat="42.668475" lon="-1.831384">
        <ele>393.865</ele>
        <time>2021-07-28T09:01:51Z</time>
      </trkpt>
      <trkpt lat="42.668818" lon="-1.830923">
        <ele>390.427</ele>
        <time>2021-07-28T09:01:58Z</time>
      </trkpt>
      <trkpt lat="42.668984" lon="-1.830715">
        <ele>388.514</ele>
        <time>2021-07-28T09:02:01Z</time>
      </trkpt>
      <trkpt lat="42.669531" lon="-1.830288">
        <ele>382.274</ele>
        <time>2021-07-28T09:02:08Z</time>
      </trkpt>
      <trkpt lat="42.669986" lon="-1.830119">
        <ele>376.988</ele>
        <time>2021-07-28T09:02:13Z</time>
      </trkpt>
      <trkpt lat="42.670105" lon="-1.830093">
        <ele>375.526</ele>
        <time>2021-07-28T09:02:14Z</time>
      </trkpt>
      <trkpt lat="42.670365" lon="-1.829851">
        <ele>372.633</ele>
        <time>2021-07-28T09:02:18Z</time>
      </trkpt>
      <trkpt lat="42.670399" lon="-1.829485">
        <ele>370.251</ele>
        <time>2021-07-28T09:02:21Z</time>
      </trkpt>
      <trkpt lat="42.670302" lon="-1.829243">
        <ele>368.855</ele>
        <time>2021-07-28T09:02:23Z</time>
      </trkpt>
      <trkpt lat="42.670236" lon="-1.829137">
        <ele>368.307</ele>
        <time>2021-07-28T09:02:24Z</time>
      </trkpt>
      <trkpt lat="42.669859" lon="-1.828639">
        <ele>364.917</ele>
        <time>2021-07-28T09:02:29Z</time>
      </trkpt>
      <trkpt lat="42.669335" lon="-1.828262">
        <ele>361.508</ele>
        <time>2021-07-28T09:02:34Z</time>
      </trkpt>
      <trkpt lat="42.668775" lon="-1.828123">
        <ele>359.622</ele>
        <time>2021-07-28T09:02:39Z</time>
      </trkpt>
      <trkpt lat="42.668688" lon="-1.828085">
        <ele>359.664</ele>
        <time>2021-07-28T09:02:40Z</time>
      </trkpt>
      <trkpt lat="42.668615" lon="-1.828019">
        <ele>359.661</ele>
        <time>2021-07-28T09:02:41Z</time>
      </trkpt>
      <trkpt lat="42.668509" lon="-1.827846">
        <ele>359.691</ele>
        <time>2021-07-28T09:02:43Z</time>
      </trkpt>
      <trkpt lat="42.668445" lon="-1.827767">
        <ele>359.695</ele>
        <time>2021-07-28T09:02:44Z</time>
      </trkpt>
      <trkpt lat="42.668386" lon="-1.827715">
        <ele>359.153</ele>
        <time>2021-07-28T09:02:45Z</time>
      </trkpt>
      <trkpt lat="42.668324" lon="-1.827662">
        <ele>359.160</ele>
        <time>2021-07-28T09:02:46Z</time>
      </trkpt>
      <trkpt lat="42.667999" lon="-1.827445">
        <ele>360.688</ele>
        <time>2021-07-28T09:02:51Z</time>
      </trkpt>
      <trkpt lat="42.667953" lon="-1.827390">
        <ele>360.681</ele>
        <time>2021-07-28T09:02:52Z</time>
      </trkpt>
      <trkpt lat="42.667913" lon="-1.827324">
        <ele>360.661</ele>
        <time>2021-07-28T09:02:53Z</time>
      </trkpt>
      <trkpt lat="42.667868" lon="-1.827266">
        <ele>361.117</ele>
        <time>2021-07-28T09:02:54Z</time>
      </trkpt>
      <trkpt lat="42.667800" lon="-1.827224">
        <ele>361.108</ele>
        <time>2021-07-28T09:02:55Z</time>
      </trkpt>
      <trkpt lat="42.667588" lon="-1.826955">
        <ele>360.695</ele>
        <time>2021-07-28T09:03:01Z</time>
      </trkpt>
      <trkpt lat="42.667625" lon="-1.826659">
        <ele>359.127</ele>
        <time>2021-07-28T09:03:05Z</time>
      </trkpt>
      <trkpt lat="42.667712" lon="-1.826553">
        <ele>359.194</ele>
        <time>2021-07-28T09:03:07Z</time>
      </trkpt>
      <trkpt lat="42.667901" lon="-1.826165">
        <ele>357.214</ele>
        <time>2021-07-28T09:03:13Z</time>
      </trkpt>
      <trkpt lat="42.667982" lon="-1.825369">
        <ele>354.818</ele>
        <time>2021-07-28T09:03:22Z</time>
      </trkpt>
      <trkpt lat="42.668056" lon="-1.824653">
        <ele>354.376</ele>
        <time>2021-07-28T09:03:32Z</time>
      </trkpt>
      <trkpt lat="42.668129" lon="-1.824088">
        <ele>354.363</ele>
        <time>2021-07-28T09:03:41Z</time>
      </trkpt>
      <trkpt lat="42.668195" lon="-1.823505">
        <ele>354.341</ele>
        <time>2021-07-28T09:03:51Z</time>
      </trkpt>
      <trkpt lat="42.668276" lon="-1.822894">
        <ele>352.936</ele>
        <time>2021-07-28T09:04:01Z</time>
      </trkpt>
      <trkpt lat="42.668315" lon="-1.822349">
        <ele>351.517</ele>
        <time>2021-07-28T09:04:09Z</time>
      </trkpt>
      <trkpt lat="42.668409" lon="-1.821985">
        <ele>351.518</ele>
        <time>2021-07-28T09:04:17Z</time>
      </trkpt>
      <trkpt lat="42.668586" lon="-1.821525">
        <ele>351.008</ele>
        <time>2021-07-28T09:04:28Z</time>
      </trkpt>
      <trkpt lat="42.668768" lon="-1.820990">
        <ele>349.570</ele>
        <time>2021-07-28T09:04:41Z</time>
      </trkpt>
      <trkpt lat="42.668893" lon="-1.820587">
        <ele>347.612</ele>
        <time>2021-07-28T09:04:51Z</time>
      </trkpt>
      <trkpt lat="42.668952" lon="-1.820355">
        <ele>347.159</ele>
        <time>2021-07-28T09:04:58Z</time>
      </trkpt>
      <trkpt lat="42.669054" lon="-1.820094">
        <ele>348.619</ele>
        <time>2021-07-28T09:05:05Z</time>
      </trkpt>
      <trkpt lat="42.669169" lon="-1.819762">
        <ele>350.063</ele>
        <time>2021-07-28T09:05:13Z</time>
      </trkpt>
      <trkpt lat="42.669307" lon="-1.819483">
        <ele>351.091</ele>
        <time>2021-07-28T09:05:21Z</time>
      </trkpt>
      <trkpt lat="42.669557" lon="-1.819230">
        <ele>351.948</ele>
        <time>2021-07-28T09:05:31Z</time>
      </trkpt>
      <trkpt lat="42.669732" lon="-1.819038">
        <ele>352.466</ele>
        <time>2021-07-28T09:05:40Z</time>
      </trkpt>
      <trkpt lat="42.669911" lon="-1.819022">
        <ele>351.517</ele>
        <time>2021-07-28T09:05:47Z</time>
      </trkpt>
      <trkpt lat="42.669956" lon="-1.819056">
        <ele>351.087</ele>
        <time>2021-07-28T09:05:49Z</time>
      </trkpt>
      <trkpt lat="42.669977" lon="-1.819085">
        <ele>350.515</ele>
        <time>2021-07-28T09:05:50Z</time>
      </trkpt>
      <trkpt lat="42.670001" lon="-1.819113">
        <ele>350.508</ele>
        <time>2021-07-28T09:05:51Z</time>
      </trkpt>
      <trkpt lat="42.670026" lon="-1.819136">
        <ele>350.078</ele>
        <time>2021-07-28T09:05:52Z</time>
      </trkpt>
      <trkpt lat="42.670054" lon="-1.819159">
        <ele>350.060</ele>
        <time>2021-07-28T09:05:53Z</time>
      </trkpt>
      <trkpt lat="42.670249" lon="-1.819213">
        <ele>350.017</ele>
        <time>2021-07-28T09:06:00Z</time>
      </trkpt>
      <trkpt lat="42.670335" lon="-1.819239">
        <ele>350.087</ele>
        <time>2021-07-28T09:06:05Z</time>
      </trkpt>
      <trkpt lat="42.670350" lon="-1.819240">
        <ele>350.031</ele>
        <time>2021-07-28T09:06:06Z</time>
      </trkpt>
      <trkpt lat="42.670408" lon="-1.819216">
        <ele>351.049</ele>
        <time>2021-07-28T09:06:13Z</time>
      </trkpt>
      <trkpt lat="42.670411" lon="-1.819229">
        <ele>351.046</ele>
        <time>2021-07-28T09:06:21Z</time>
      </trkpt>
      <trkpt lat="42.670415" lon="-1.819218">
        <ele>351.034</ele>
        <time>2021-07-28T09:06:42Z</time>
      </trkpt>
      <trkpt lat="42.670433" lon="-1.819219">
        <ele>351.585</ele>
        <time>2021-07-28T09:06:52Z</time>
      </trkpt>
      <trkpt lat="42.670548" lon="-1.819244">
        <ele>351.589</ele>
        <time>2021-07-28T09:07:00Z</time>
      </trkpt>
      <trkpt lat="42.670735" lon="-1.819341">
        <ele>351.517</ele>
        <time>2021-07-28T09:07:11Z</time>
      </trkpt>
      <trkpt lat="42.670798" lon="-1.819362">
        <ele>350.508</ele>
        <time>2021-07-28T09:07:15Z</time>
      </trkpt>
      <trkpt lat="42.670804" lon="-1.819357">
        <ele>350.575</ele>
        <time>2021-07-28T09:07:20Z</time>
      </trkpt>
      <trkpt lat="42.670791" lon="-1.819360">
        <ele>350.557</ele>
        <time>2021-07-28T09:07:35Z</time>
      </trkpt>
      <trkpt lat="42.670795" lon="-1.819345">
        <ele>351.954</ele>
        <time>2021-07-28T09:07:50Z</time>
      </trkpt>
      <trkpt lat="42.670802" lon="-1.819340">
        <ele>351.524</ele>
        <time>2021-07-28T09:08:05Z</time>
      </trkpt>
      <trkpt lat="42.670869" lon="-1.819344">
        <ele>351.048</ele>
        <time>2021-07-28T09:08:09Z</time>
      </trkpt>
      <trkpt lat="42.670888" lon="-1.819330">
        <ele>351.566</ele>
        <time>2021-07-28T09:08:10Z</time>
      </trkpt>
      <trkpt lat="42.670998" lon="-1.819122">
        <ele>351.933</ele>
        <time>2021-07-28T09:08:19Z</time>
      </trkpt>
      <trkpt lat="42.671121" lon="-1.818847">
        <ele>353.441</ele>
        <time>2021-07-28T09:08:31Z</time>
      </trkpt>
      <trkpt lat="42.671166" lon="-1.818741">
        <ele>354.374</ele>
        <time>2021-07-28T09:08:38Z</time>
      </trkpt>
      <trkpt lat="42.671172" lon="-1.818738">
        <ele>354.356</ele>
        <time>2021-07-28T09:08:53Z</time>
      </trkpt>
      <trkpt lat="42.671167" lon="-1.818740">
        <ele>355.821</ele>
        <time>2021-07-28T09:09:05Z</time>
      </trkpt>
      <trkpt lat="42.671172" lon="-1.818735">
        <ele>355.308</ele>
        <time>2021-07-28T09:09:14Z</time>
      </trkpt>
      <trkpt lat="42.671180" lon="-1.818702">
        <ele>355.364</ele>
        <time>2021-07-28T09:09:22Z</time>
      </trkpt>
      <trkpt lat="42.671187" lon="-1.818677">
        <ele>355.356</ele>
        <time>2021-07-28T09:09:28Z</time>
      </trkpt>
      <trkpt lat="42.671270" lon="-1.818500">
        <ele>352.933</ele>
        <time>2021-07-28T09:09:37Z</time>
      </trkpt>
      <trkpt lat="42.671345" lon="-1.818332">
        <ele>351.073</ele>
        <time>2021-07-28T09:09:45Z</time>
      </trkpt>
      <trkpt lat="42.671371" lon="-1.818274">
        <ele>349.597</ele>
        <time>2021-07-28T09:09:51Z</time>
      </trkpt>
      <trkpt lat="42.671364" lon="-1.818306">
        <ele>347.155</ele>
        <time>2021-07-28T09:10:11Z</time>
      </trkpt>
      <trkpt lat="42.671371" lon="-1.818278">
        <ele>347.112</ele>
        <time>2021-07-28T09:10:28Z</time>
      </trkpt>
      <trkpt lat="42.671384" lon="-1.818193">
        <ele>346.650</ele>
        <time>2021-07-28T09:10:37Z</time>
      </trkpt>
      <trkpt lat="42.671396" lon="-1.818173">
        <ele>346.692</ele>
        <time>2021-07-28T09:10:38Z</time>
      </trkpt>
      <trkpt lat="42.671412" lon="-1.818155">
        <ele>346.273</ele>
        <time>2021-07-28T09:10:39Z</time>
      </trkpt>
      <trkpt lat="42.671426" lon="-1.818136">
        <ele>346.220</ele>
        <time>2021-07-28T09:10:40Z</time>
      </trkpt>
      <trkpt lat="42.671486" lon="-1.818008">
        <ele>345.208</ele>
        <time>2021-07-28T09:10:47Z</time>
      </trkpt>
      <trkpt lat="42.671484" lon="-1.817990">
        <ele>345.276</ele>
        <time>2021-07-28T09:10:48Z</time>
      </trkpt>
      <trkpt lat="42.671473" lon="-1.817972">
        <ele>344.798</ele>
        <time>2021-07-28T09:10:49Z</time>
      </trkpt>
      <trkpt lat="42.671456" lon="-1.817962">
        <ele>344.285</ele>
        <time>2021-07-28T09:10:50Z</time>
      </trkpt>
      <trkpt lat="42.671336" lon="-1.817889">
        <ele>340.415</ele>
        <time>2021-07-28T09:10:58Z</time>
      </trkpt>
      <trkpt lat="42.671117" lon="-1.817784">
        <ele>337.059</ele>
        <time>2021-07-28T09:11:08Z</time>
      </trkpt>
      <trkpt lat="42.670949" lon="-1.817697">
        <ele>335.147</ele>
        <time>2021-07-28T09:11:15Z</time>
      </trkpt>
      <trkpt lat="42.670791" lon="-1.817580">
        <ele>337.034</ele>
        <time>2021-07-28T09:11:23Z</time>
      </trkpt>
      <trkpt lat="42.670652" lon="-1.817448">
        <ele>342.872</ele>
        <time>2021-07-28T09:11:31Z</time>
      </trkpt>
      <trkpt lat="42.670636" lon="-1.817424">
        <ele>343.823</ele>
        <time>2021-07-28T09:11:32Z</time>
      </trkpt>
      <trkpt lat="42.670641" lon="-1.817303">
        <ele>346.683</ele>
        <time>2021-07-28T09:11:37Z</time>
      </trkpt>
      <trkpt lat="42.670649" lon="-1.817246">
        <ele>347.611</ele>
        <time>2021-07-28T09:11:44Z</time>
      </trkpt>
      <trkpt lat="42.670655" lon="-1.817235">
        <ele>347.108</ele>
        <time>2021-07-28T09:11:57Z</time>
      </trkpt>
      <trkpt lat="42.670650" lon="-1.817207">
        <ele>347.699</ele>
        <time>2021-07-28T09:12:08Z</time>
      </trkpt>
      <trkpt lat="42.670701" lon="-1.817031">
        <ele>349.121</ele>
        <time>2021-07-28T09:12:16Z</time>
      </trkpt>
      <trkpt lat="42.670739" lon="-1.816865">
        <ele>350.048</ele>
        <time>2021-07-28T09:12:24Z</time>
      </trkpt>
      <trkpt lat="42.670731" lon="-1.816851">
        <ele>351.558</ele>
        <time>2021-07-28T09:12:32Z</time>
      </trkpt>
      <trkpt lat="42.670738" lon="-1.816824">
        <ele>351.922</ele>
        <time>2021-07-28T09:12:46Z</time>
      </trkpt>
      <trkpt lat="42.670788" lon="-1.816646">
        <ele>352.990</ele>
        <time>2021-07-28T09:12:52Z</time>
      </trkpt>
      <trkpt lat="42.670863" lon="-1.816245">
        <ele>353.417</ele>
        <time>2021-07-28T09:13:02Z</time>
      </trkpt>
      <trkpt lat="42.670931" lon="-1.815898">
        <ele>354.855</ele>
        <time>2021-07-28T09:13:12Z</time>
      </trkpt>
      <trkpt lat="42.670997" lon="-1.815555">
        <ele>353.932</ele>
        <time>2021-07-28T09:13:22Z</time>
      </trkpt>
      <trkpt lat="42.671005" lon="-1.815521">
        <ele>353.492</ele>
        <time>2021-07-28T09:13:23Z</time>
      </trkpt>
      <trkpt lat="42.671071" lon="-1.815491">
        <ele>353.411</ele>
        <time>2021-07-28T09:13:27Z</time>
      </trkpt>
      <trkpt lat="42.671164" lon="-1.815495">
        <ele>352.408</ele>
        <time>2021-07-28T09:13:32Z</time>
      </trkpt>
      <trkpt lat="42.671288" lon="-1.815531">
        <ele>350.570</ele>
        <time>2021-07-28T09:13:42Z</time>
      </trkpt>
      <trkpt lat="42.671315" lon="-1.815481">
        <ele>350.042</ele>
        <time>2021-07-28T09:13:44Z</time>
      </trkpt>
      <trkpt lat="42.671439" lon="-1.815418">
        <ele>350.539</ele>
        <time>2021-07-28T09:13:53Z</time>
      </trkpt>
      <trkpt lat="42.671482" lon="-1.815425">
        <ele>354.869</ele>
        <time>2021-07-28T09:14:00Z</time>
      </trkpt>
      <trkpt lat="42.671479" lon="-1.815439">
        <ele>358.743</ele>
        <time>2021-07-28T09:14:10Z</time>
      </trkpt>
      <trkpt lat="42.671520" lon="-1.815455">
        <ele>363.071</ele>
        <time>2021-07-28T09:14:24Z</time>
      </trkpt>
      <trkpt lat="42.671653" lon="-1.815515">
        <ele>364.088</ele>
        <time>2021-07-28T09:14:32Z</time>
      </trkpt>
      <trkpt lat="42.671814" lon="-1.815577">
        <ele>365.466</ele>
        <time>2021-07-28T09:14:43Z</time>
      </trkpt>
      <trkpt lat="42.671897" lon="-1.815607">
        <ele>363.528</ele>
        <time>2021-07-28T09:14:49Z</time>
      </trkpt>
      <trkpt lat="42.671952" lon="-1.815483">
        <ele>358.289</ele>
        <time>2021-07-28T09:14:56Z</time>
      </trkpt>
      <trkpt lat="42.672020" lon="-1.815215">
        <ele>353.417</ele>
        <time>2021-07-28T09:15:05Z</time>
      </trkpt>
      <trkpt lat="42.672064" lon="-1.815004">
        <ele>350.508</ele>
        <time>2021-07-28T09:15:14Z</time>
      </trkpt>
      <trkpt lat="42.672090" lon="-1.814857">
        <ele>347.169</ele>
        <time>2021-07-28T09:15:22Z</time>
      </trkpt>
      <trkpt lat="42.672125" lon="-1.814717">
        <ele>344.271</ele>
        <time>2021-07-28T09:15:32Z</time>
      </trkpt>
      <trkpt lat="42.672171" lon="-1.814611">
        <ele>341.868</ele>
        <time>2021-07-28T09:15:41Z</time>
      </trkpt>
      <trkpt lat="42.672213" lon="-1.814593">
        <ele>335.178</ele>
        <time>2021-07-28T09:16:00Z</time>
      </trkpt>
      <trkpt lat="42.672234" lon="-1.814554">
        <ele>333.722</ele>
        <time>2021-07-28T09:16:08Z</time>
      </trkpt>
      <trkpt lat="42.672280" lon="-1.814423">
        <ele>335.690</ele>
        <time>2021-07-28T09:16:16Z</time>
      </trkpt>
      <trkpt lat="42.672291" lon="-1.814361">
        <ele>337.577</ele>
        <time>2021-07-28T09:16:24Z</time>
      </trkpt>
      <trkpt lat="42.672280" lon="-1.814338">
        <ele>339.925</ele>
        <time>2021-07-28T09:16:38Z</time>
      </trkpt>
      <trkpt lat="42.672290" lon="-1.814347">
        <ele>343.873</ele>
        <time>2021-07-28T09:16:57Z</time>
      </trkpt>
      <trkpt lat="42.672274" lon="-1.814351">
        <ele>345.285</ele>
        <time>2021-07-28T09:17:32Z</time>
      </trkpt>
      <trkpt lat="42.672287" lon="-1.814364">
        <ele>348.113</ele>
        <time>2021-07-28T09:17:54Z</time>
      </trkpt>
      <trkpt lat="42.672294" lon="-1.814371">
        <ele>348.608</ele>
        <time>2021-07-28T09:18:17Z</time>
      </trkpt>
      <trkpt lat="42.672291" lon="-1.814365">
        <ele>350.064</ele>
        <time>2021-07-28T09:18:36Z</time>
      </trkpt>
      <trkpt lat="42.672279" lon="-1.814355">
        <ele>352.436</ele>
        <time>2021-07-28T09:18:55Z</time>
      </trkpt>
      <trkpt lat="42.672270" lon="-1.814365">
        <ele>352.983</ele>
        <time>2021-07-28T09:19:20Z</time>
      </trkpt>
      <trkpt lat="42.672275" lon="-1.814368">
        <ele>354.333</ele>
        <time>2021-07-28T09:19:45Z</time>
      </trkpt>
      <trkpt lat="42.672293" lon="-1.814355">
        <ele>353.457</ele>
        <time>2021-07-28T09:20:04Z</time>
      </trkpt>
      <trkpt lat="42.672310" lon="-1.814350">
        <ele>351.575</ele>
        <time>2021-07-28T09:20:21Z</time>
      </trkpt>
      <trkpt lat="42.672307" lon="-1.814335">
        <ele>349.512</ele>
        <time>2021-07-28T09:20:42Z</time>
      </trkpt>
      <trkpt lat="42.672289" lon="-1.814320">
        <ele>350.040</ele>
        <time>2021-07-28T09:20:57Z</time>
      </trkpt>
      <trkpt lat="42.672291" lon="-1.814314">
        <ele>350.025</ele>
        <time>2021-07-28T09:21:16Z</time>
      </trkpt>
      <trkpt lat="42.672306" lon="-1.814314">
        <ele>351.526</ele>
        <time>2021-07-28T09:21:35Z</time>
      </trkpt>
      <trkpt lat="42.672312" lon="-1.814320">
        <ele>351.908</ele>
        <time>2021-07-28T09:21:58Z</time>
      </trkpt>
      <trkpt lat="42.672333" lon="-1.814305">
        <ele>351.008</ele>
        <time>2021-07-28T09:22:17Z</time>
      </trkpt>
      <trkpt lat="42.672328" lon="-1.814187">
        <ele>351.569</ele>
        <time>2021-07-28T09:22:25Z</time>
      </trkpt>
      <trkpt lat="42.672321" lon="-1.814046">
        <ele>351.531</ele>
        <time>2021-07-28T09:22:33Z</time>
      </trkpt>
      <trkpt lat="42.672304" lon="-1.813887">
        <ele>354.848</ele>
        <time>2021-07-28T09:22:44Z</time>
      </trkpt>
      <trkpt lat="42.672286" lon="-1.813843">
        <ele>356.778</ele>
        <time>2021-07-28T09:22:52Z</time>
      </trkpt>
      <trkpt lat="42.672303" lon="-1.813739">
        <ele>356.732</ele>
        <time>2021-07-28T09:22:58Z</time>
      </trkpt>
      <trkpt lat="42.672341" lon="-1.813566">
        <ele>356.350</ele>
        <time>2021-07-28T09:23:04Z</time>
      </trkpt>
      <trkpt lat="42.672391" lon="-1.813421">
        <ele>355.337</ele>
        <time>2021-07-28T09:23:10Z</time>
      </trkpt>
      <trkpt lat="42.672379" lon="-1.813327">
        <ele>353.925</ele>
        <time>2021-07-28T09:23:14Z</time>
      </trkpt>
      <trkpt lat="42.672385" lon="-1.813302">
        <ele>353.469</ele>
        <time>2021-07-28T09:23:15Z</time>
      </trkpt>
      <trkpt lat="42.672390" lon="-1.813213">
        <ele>351.904</ele>
        <time>2021-07-28T09:23:19Z</time>
      </trkpt>
      <trkpt lat="42.672461" lon="-1.813053">
        <ele>347.124</ele>
        <time>2021-07-28T09:23:26Z</time>
      </trkpt>
      <trkpt lat="42.672473" lon="-1.812999">
        <ele>345.708</ele>
        <time>2021-07-28T09:23:28Z</time>
      </trkpt>
      <trkpt lat="42.672468" lon="-1.812933">
        <ele>345.233</ele>
        <time>2021-07-28T09:23:32Z</time>
      </trkpt>
      <trkpt lat="42.672482" lon="-1.812828">
        <ele>342.355</ele>
        <time>2021-07-28T09:23:35Z</time>
      </trkpt>
      <trkpt lat="42.672491" lon="-1.812791">
        <ele>341.882</ele>
        <time>2021-07-28T09:23:36Z</time>
      </trkpt>
      <trkpt lat="42.672500" lon="-1.812747">
        <ele>342.382</ele>
        <time>2021-07-28T09:23:37Z</time>
      </trkpt>
      <trkpt lat="42.672506" lon="-1.812712">
        <ele>342.346</ele>
        <time>2021-07-28T09:23:38Z</time>
      </trkpt>
      <trkpt lat="42.672511" lon="-1.812677">
        <ele>342.324</ele>
        <time>2021-07-28T09:23:39Z</time>
      </trkpt>
      <trkpt lat="42.672519" lon="-1.812641">
        <ele>342.331</ele>
        <time>2021-07-28T09:23:40Z</time>
      </trkpt>
      <trkpt lat="42.672528" lon="-1.812607">
        <ele>341.829</ele>
        <time>2021-07-28T09:23:41Z</time>
      </trkpt>
      <trkpt lat="42.672537" lon="-1.812582">
        <ele>341.495</ele>
        <time>2021-07-28T09:23:42Z</time>
      </trkpt>
      <trkpt lat="42.672549" lon="-1.812548">
        <ele>340.949</ele>
        <time>2021-07-28T09:23:43Z</time>
      </trkpt>
      <trkpt lat="42.672559" lon="-1.812520">
        <ele>340.423</ele>
        <time>2021-07-28T09:23:44Z</time>
      </trkpt>
      <trkpt lat="42.672572" lon="-1.812496">
        <ele>340.408</ele>
        <time>2021-07-28T09:23:45Z</time>
      </trkpt>
      <trkpt lat="42.672590" lon="-1.812471">
        <ele>339.946</ele>
        <time>2021-07-28T09:23:46Z</time>
      </trkpt>
      <trkpt lat="42.672607" lon="-1.812447">
        <ele>339.078</ele>
        <time>2021-07-28T09:23:47Z</time>
      </trkpt>
      <trkpt lat="42.672619" lon="-1.812418">
        <ele>338.575</ele>
        <time>2021-07-28T09:23:48Z</time>
      </trkpt>
      <trkpt lat="42.672629" lon="-1.812396">
        <ele>338.085</ele>
        <time>2021-07-28T09:23:49Z</time>
      </trkpt>
      <trkpt lat="42.672646" lon="-1.812364">
        <ele>337.519</ele>
        <time>2021-07-28T09:23:50Z</time>
      </trkpt>
      <trkpt lat="42.672659" lon="-1.812332">
        <ele>337.547</ele>
        <time>2021-07-28T09:23:51Z</time>
      </trkpt>
      <trkpt lat="42.672669" lon="-1.812300">
        <ele>337.074</ele>
        <time>2021-07-28T09:23:52Z</time>
      </trkpt>
      <trkpt lat="42.672762" lon="-1.811966">
        <ele>334.292</ele>
        <time>2021-07-28T09:24:02Z</time>
      </trkpt>
      <trkpt lat="42.672833" lon="-1.811646">
        <ele>337.036</ele>
        <time>2021-07-28T09:24:12Z</time>
      </trkpt>
      <trkpt lat="42.672886" lon="-1.811352">
        <ele>340.417</ele>
        <time>2021-07-28T09:24:21Z</time>
      </trkpt>
      <trkpt lat="42.672946" lon="-1.811101">
        <ele>342.318</ele>
        <time>2021-07-28T09:24:30Z</time>
      </trkpt>
      <trkpt lat="42.673000" lon="-1.810998">
        <ele>346.208</ele>
        <time>2021-07-28T09:24:37Z</time>
      </trkpt>
      <trkpt lat="42.672987" lon="-1.810992">
        <ele>347.690</ele>
        <time>2021-07-28T09:24:43Z</time>
      </trkpt>
      <trkpt lat="42.672987" lon="-1.810988">
        <ele>346.672</ele>
        <time>2021-07-28T09:25:00Z</time>
      </trkpt>
      <trkpt lat="42.672988" lon="-1.810966">
        <ele>346.659</ele>
        <time>2021-07-28T09:25:15Z</time>
      </trkpt>
      <trkpt lat="42.672984" lon="-1.810973">
        <ele>349.159</ele>
        <time>2021-07-28T09:25:29Z</time>
      </trkpt>
      <trkpt lat="42.672972" lon="-1.810977">
        <ele>350.533</ele>
        <time>2021-07-28T09:25:43Z</time>
      </trkpt>
      <trkpt lat="42.672974" lon="-1.810986">
        <ele>351.581</ele>
        <time>2021-07-28T09:25:55Z</time>
      </trkpt>
      <trkpt lat="42.672981" lon="-1.810955">
        <ele>351.988</ele>
        <time>2021-07-28T09:26:04Z</time>
      </trkpt>
      <trkpt lat="42.672985" lon="-1.810941">
        <ele>351.986</ele>
        <time>2021-07-28T09:26:05Z</time>
      </trkpt>
      <trkpt lat="42.673017" lon="-1.810830">
        <ele>349.579</ele>
        <time>2021-07-28T09:26:16Z</time>
      </trkpt>
      <trkpt lat="42.672966" lon="-1.810827">
        <ele>350.005</ele>
        <time>2021-07-28T09:26:29Z</time>
      </trkpt>
      <trkpt lat="42.672940" lon="-1.810822">
        <ele>350.025</ele>
        <time>2021-07-28T09:26:40Z</time>
      </trkpt>
      <trkpt lat="42.672922" lon="-1.810819">
        <ele>349.508</ele>
        <time>2021-07-28T09:26:51Z</time>
      </trkpt>
      <trkpt lat="42.672912" lon="-1.810824">
        <ele>350.044</ele>
        <time>2021-07-28T09:27:00Z</time>
      </trkpt>
      <trkpt lat="42.672901" lon="-1.810855">
        <ele>351.916</ele>
        <time>2021-07-28T09:27:14Z</time>
      </trkpt>
      <trkpt lat="42.672895" lon="-1.810869">
        <ele>352.983</ele>
        <time>2021-07-28T09:27:29Z</time>
      </trkpt>
      <trkpt lat="42.672895" lon="-1.810886">
        <ele>354.353</ele>
        <time>2021-07-28T09:27:46Z</time>
      </trkpt>
      <trkpt lat="42.672900" lon="-1.810892">
        <ele>354.357</ele>
        <time>2021-07-28T09:28:01Z</time>
      </trkpt>
      <trkpt lat="42.672911" lon="-1.810888">
        <ele>354.855</ele>
        <time>2021-07-28T09:28:17Z</time>
      </trkpt>
      <trkpt lat="42.672923" lon="-1.810892">
        <ele>355.382</ele>
        <time>2021-07-28T09:28:36Z</time>
      </trkpt>
      <trkpt lat="42.672926" lon="-1.810898">
        <ele>356.390</ele>
        <time>2021-07-28T09:28:50Z</time>
      </trkpt>
      <trkpt lat="42.672924" lon="-1.810886">
        <ele>357.266</ele>
        <time>2021-07-28T09:29:04Z</time>
      </trkpt>
      <trkpt lat="42.672943" lon="-1.810834">
        <ele>358.229</ele>
        <time>2021-07-28T09:29:15Z</time>
      </trkpt>
      <trkpt lat="42.673028" lon="-1.810599">
        <ele>355.821</ele>
        <time>2021-07-28T09:29:22Z</time>
      </trkpt>
      <trkpt lat="42.673135" lon="-1.810443">
        <ele>357.208</ele>
        <time>2021-07-28T09:29:30Z</time>
      </trkpt>
      <trkpt lat="42.673151" lon="-1.810413">
        <ele>356.753</ele>
        <time>2021-07-28T09:29:32Z</time>
      </trkpt>
      <trkpt lat="42.673211" lon="-1.810325">
        <ele>357.275</ele>
        <time>2021-07-28T09:29:37Z</time>
      </trkpt>
      <trkpt lat="42.673281" lon="-1.810348">
        <ele>357.222</ele>
        <time>2021-07-28T09:29:44Z</time>
      </trkpt>
      <trkpt lat="42.673298" lon="-1.810352">
        <ele>357.742</ele>
        <time>2021-07-28T09:29:46Z</time>
      </trkpt>
      <trkpt lat="42.673410" lon="-1.810383">
        <ele>357.786</ele>
        <time>2021-07-28T09:29:55Z</time>
      </trkpt>
      <trkpt lat="42.673523" lon="-1.810410">
        <ele>358.224</ele>
        <time>2021-07-28T09:30:02Z</time>
      </trkpt>
      <trkpt lat="42.673539" lon="-1.810415">
        <ele>358.741</ele>
        <time>2021-07-28T09:30:08Z</time>
      </trkpt>
      <trkpt lat="42.673542" lon="-1.810421">
        <ele>356.379</ele>
        <time>2021-07-28T09:30:28Z</time>
      </trkpt>
      <trkpt lat="42.673545" lon="-1.810416">
        <ele>356.332</ele>
        <time>2021-07-28T09:30:43Z</time>
      </trkpt>
      <trkpt lat="42.673556" lon="-1.810421">
        <ele>358.292</ele>
        <time>2021-07-28T09:30:51Z</time>
      </trkpt>
      <trkpt lat="42.673549" lon="-1.810420">
        <ele>360.111</ele>
        <time>2021-07-28T09:31:08Z</time>
      </trkpt>
      <trkpt lat="42.673555" lon="-1.810415">
        <ele>359.608</ele>
        <time>2021-07-28T09:31:19Z</time>
      </trkpt>
      <trkpt lat="42.673586" lon="-1.810436">
        <ele>359.650</ele>
        <time>2021-07-28T09:31:23Z</time>
      </trkpt>
      <trkpt lat="42.673629" lon="-1.810543">
        <ele>359.172</ele>
        <time>2021-07-28T09:31:32Z</time>
      </trkpt>
      <trkpt lat="42.673631" lon="-1.810547">
        <ele>361.519</ele>
        <time>2021-07-28T09:31:41Z</time>
      </trkpt>
      <trkpt lat="42.673629" lon="-1.810565">
        <ele>361.599</ele>
        <time>2021-07-28T09:31:56Z</time>
      </trkpt>
      <trkpt lat="42.673649" lon="-1.810563">
        <ele>360.663</ele>
        <time>2021-07-28T09:32:08Z</time>
      </trkpt>
      <trkpt lat="42.673656" lon="-1.810535">
        <ele>360.611</ele>
        <time>2021-07-28T09:32:16Z</time>
      </trkpt>
      <trkpt lat="42.673638" lon="-1.810450">
        <ele>359.648</ele>
        <time>2021-07-28T09:32:21Z</time>
      </trkpt>
      <trkpt lat="42.673702" lon="-1.810269">
        <ele>359.676</ele>
        <time>2021-07-28T09:32:29Z</time>
      </trkpt>
      <trkpt lat="42.673759" lon="-1.810148">
        <ele>359.113</ele>
        <time>2021-07-28T09:32:36Z</time>
      </trkpt>
      <trkpt lat="42.673790" lon="-1.810091">
        <ele>359.143</ele>
        <time>2021-07-28T09:32:40Z</time>
      </trkpt>
      <trkpt lat="42.673800" lon="-1.810079">
        <ele>359.107</ele>
        <time>2021-07-28T09:32:41Z</time>
      </trkpt>
      <trkpt lat="42.673812" lon="-1.810067">
        <ele>359.108</ele>
        <time>2021-07-28T09:32:42Z</time>
      </trkpt>
      <trkpt lat="42.673936" lon="-1.809892">
        <ele>358.218</ele>
        <time>2021-07-28T09:32:51Z</time>
      </trkpt>
      <trkpt lat="42.674083" lon="-1.809691">
        <ele>357.230</ele>
        <time>2021-07-28T09:32:59Z</time>
      </trkpt>
      <trkpt lat="42.674273" lon="-1.809413">
        <ele>356.347</ele>
        <time>2021-07-28T09:33:09Z</time>
      </trkpt>
      <trkpt lat="42.674521" lon="-1.809070">
        <ele>356.777</ele>
        <time>2021-07-28T09:33:21Z</time>
      </trkpt>
      <trkpt lat="42.674743" lon="-1.808741">
        <ele>356.731</ele>
        <time>2021-07-28T09:33:31Z</time>
      </trkpt>
      <trkpt lat="42.674968" lon="-1.808416">
        <ele>355.849</ele>
        <time>2021-07-28T09:33:41Z</time>
      </trkpt>
      <trkpt lat="42.675201" lon="-1.808084">
        <ele>356.376</ele>
        <time>2021-07-28T09:33:51Z</time>
      </trkpt>
      <trkpt lat="42.675467" lon="-1.807707">
        <ele>357.264</ele>
        <time>2021-07-28T09:34:02Z</time>
      </trkpt>
      <trkpt lat="42.675722" lon="-1.807401">
        <ele>357.763</ele>
        <time>2021-07-28T09:34:12Z</time>
      </trkpt>
      <trkpt lat="42.675965" lon="-1.807158">
        <ele>359.644</ele>
        <time>2021-07-28T09:34:21Z</time>
      </trkpt>
      <trkpt lat="42.676278" lon="-1.806859">
        <ele>359.618</ele>
        <time>2021-07-28T09:34:33Z</time>
      </trkpt>
      <trkpt lat="42.676491" lon="-1.806652">
        <ele>361.108</ele>
        <time>2021-07-28T09:34:42Z</time>
      </trkpt>
      <trkpt lat="42.676580" lon="-1.806442">
        <ele>361.183</ele>
        <time>2021-07-28T09:34:49Z</time>
      </trkpt>
      <trkpt lat="42.676551" lon="-1.806179">
        <ele>361.125</ele>
        <time>2021-07-28T09:34:55Z</time>
      </trkpt>
      <trkpt lat="42.676514" lon="-1.805970">
        <ele>360.162</ele>
        <time>2021-07-28T09:34:59Z</time>
      </trkpt>
      <trkpt lat="42.676512" lon="-1.805914">
        <ele>360.192</ele>
        <time>2021-07-28T09:35:00Z</time>
      </trkpt>
      <trkpt lat="42.676584" lon="-1.805615">
        <ele>359.186</ele>
        <time>2021-07-28T09:35:06Z</time>
      </trkpt>
      <trkpt lat="42.676726" lon="-1.805337">
        <ele>359.674</ele>
        <time>2021-07-28T09:35:13Z</time>
      </trkpt>
      <trkpt lat="42.676915" lon="-1.804966">
        <ele>359.691</ele>
        <time>2021-07-28T09:35:23Z</time>
      </trkpt>
      <trkpt lat="42.677121" lon="-1.804546">
        <ele>359.669</ele>
        <time>2021-07-28T09:35:34Z</time>
      </trkpt>
      <trkpt lat="42.677254" lon="-1.804106">
        <ele>360.176</ele>
        <time>2021-07-28T09:35:44Z</time>
      </trkpt>
      <trkpt lat="42.677270" lon="-1.803629">
        <ele>361.190</ele>
        <time>2021-07-28T09:35:54Z</time>
      </trkpt>
      <trkpt lat="42.677276" lon="-1.803238">
        <ele>362.519</ele>
        <time>2021-07-28T09:36:03Z</time>
      </trkpt>
      <trkpt lat="42.677258" lon="-1.802923">
        <ele>363.508</ele>
        <time>2021-07-28T09:36:11Z</time>
      </trkpt>
      <trkpt lat="42.677237" lon="-1.802539">
        <ele>362.534</ele>
        <time>2021-07-28T09:36:19Z</time>
      </trkpt>
      <trkpt lat="42.677233" lon="-1.802538">
        <ele>362.546</ele>
        <time>2021-07-28T09:36:23Z</time>
      </trkpt>
      <trkpt lat="42.677253" lon="-1.802543">
        <ele>362.033</ele>
        <time>2021-07-28T09:36:33Z</time>
      </trkpt>
      <trkpt lat="42.677235" lon="-1.802533">
        <ele>363.043</ele>
        <time>2021-07-28T09:36:50Z</time>
      </trkpt>
      <trkpt lat="42.677230" lon="-1.802465">
        <ele>363.037</ele>
        <time>2021-07-28T09:36:56Z</time>
      </trkpt>
      <trkpt lat="42.677225" lon="-1.802369">
        <ele>363.045</ele>
        <time>2021-07-28T09:37:03Z</time>
      </trkpt>
      <trkpt lat="42.677219" lon="-1.802019">
        <ele>362.582</ele>
        <time>2021-07-28T09:37:11Z</time>
      </trkpt>
      <trkpt lat="42.677220" lon="-1.801587">
        <ele>363.050</ele>
        <time>2021-07-28T09:37:21Z</time>
      </trkpt>
      <trkpt lat="42.677209" lon="-1.801119">
        <ele>362.549</ele>
        <time>2021-07-28T09:37:31Z</time>
      </trkpt>
      <trkpt lat="42.677205" lon="-1.800616">
        <ele>363.002</ele>
        <time>2021-07-28T09:37:42Z</time>
      </trkpt>
      <trkpt lat="42.677202" lon="-1.800151">
        <ele>362.522</ele>
        <time>2021-07-28T09:37:52Z</time>
      </trkpt>
      <trkpt lat="42.677196" lon="-1.799710">
        <ele>362.508</ele>
        <time>2021-07-28T09:38:01Z</time>
      </trkpt>
      <trkpt lat="42.677199" lon="-1.799213">
        <ele>363.061</ele>
        <time>2021-07-28T09:38:12Z</time>
      </trkpt>
      <trkpt lat="42.677196" lon="-1.798849">
        <ele>363.583</ele>
        <time>2021-07-28T09:38:21Z</time>
      </trkpt>
      <trkpt lat="42.677196" lon="-1.798457">
        <ele>364.430</ele>
        <time>2021-07-28T09:38:31Z</time>
      </trkpt>
      <trkpt lat="42.677196" lon="-1.798049">
        <ele>365.470</ele>
        <time>2021-07-28T09:38:41Z</time>
      </trkpt>
      <trkpt lat="42.677196" lon="-1.797628">
        <ele>365.954</ele>
        <time>2021-07-28T09:38:51Z</time>
      </trkpt>
      <trkpt lat="42.677183" lon="-1.797242">
        <ele>366.882</ele>
        <time>2021-07-28T09:39:01Z</time>
      </trkpt>
      <trkpt lat="42.677177" lon="-1.796845">
        <ele>366.839</ele>
        <time>2021-07-28T09:39:11Z</time>
      </trkpt>
      <trkpt lat="42.677176" lon="-1.796402">
        <ele>367.337</ele>
        <time>2021-07-28T09:39:21Z</time>
      </trkpt>
      <trkpt lat="42.677169" lon="-1.795934">
        <ele>367.342</ele>
        <time>2021-07-28T09:39:31Z</time>
      </trkpt>
      <trkpt lat="42.677157" lon="-1.795493">
        <ele>368.322</ele>
        <time>2021-07-28T09:39:41Z</time>
      </trkpt>
      <trkpt lat="42.677149" lon="-1.795113">
        <ele>367.814</ele>
        <time>2021-07-28T09:39:49Z</time>
      </trkpt>
      <trkpt lat="42.677118" lon="-1.794578">
        <ele>367.308</ele>
        <time>2021-07-28T09:40:00Z</time>
      </trkpt>
      <trkpt lat="42.677082" lon="-1.794167">
        <ele>367.811</ele>
        <time>2021-07-28T09:40:09Z</time>
      </trkpt>
      <trkpt lat="42.677041" lon="-1.793648">
        <ele>367.863</ele>
        <time>2021-07-28T09:40:20Z</time>
      </trkpt>
      <trkpt lat="42.677000" lon="-1.793162">
        <ele>368.310</ele>
        <time>2021-07-28T09:40:30Z</time>
      </trkpt>
      <trkpt lat="42.676956" lon="-1.792622">
        <ele>368.390</ele>
        <time>2021-07-28T09:40:41Z</time>
      </trkpt>
      <trkpt lat="42.676895" lon="-1.792007">
        <ele>368.334</ele>
        <time>2021-07-28T09:40:53Z</time>
      </trkpt>
      <trkpt lat="42.676854" lon="-1.791602">
        <ele>368.882</ele>
        <time>2021-07-28T09:41:01Z</time>
      </trkpt>
      <trkpt lat="42.676800" lon="-1.791099">
        <ele>368.829</ele>
        <time>2021-07-28T09:41:11Z</time>
      </trkpt>
      <trkpt lat="42.676764" lon="-1.790695">
        <ele>368.327</ele>
        <time>2021-07-28T09:41:20Z</time>
      </trkpt>
      <trkpt lat="42.676710" lon="-1.790027">
        <ele>370.231</ele>
        <time>2021-07-28T09:41:33Z</time>
      </trkpt>
      <trkpt lat="42.676658" lon="-1.789495">
        <ele>370.761</ele>
        <time>2021-07-28T09:41:43Z</time>
      </trkpt>
      <trkpt lat="42.676605" lon="-1.788894">
        <ele>371.207</ele>
        <time>2021-07-28T09:41:55Z</time>
      </trkpt>
      <trkpt lat="42.676558" lon="-1.788375">
        <ele>372.108</ele>
        <time>2021-07-28T09:42:05Z</time>
      </trkpt>
      <trkpt lat="42.676509" lon="-1.787811">
        <ele>373.160</ele>
        <time>2021-07-28T09:42:16Z</time>
      </trkpt>
      <trkpt lat="42.676456" lon="-1.787271">
        <ele>373.662</ele>
        <time>2021-07-28T09:42:27Z</time>
      </trkpt>
      <trkpt lat="42.676404" lon="-1.786748">
        <ele>375.599</ele>
        <time>2021-07-28T09:42:38Z</time>
      </trkpt>
      <trkpt lat="42.676361" lon="-1.786253">
        <ele>377.489</ele>
        <time>2021-07-28T09:42:49Z</time>
      </trkpt>
      <trkpt lat="42.676341" lon="-1.785838">
        <ele>378.453</ele>
        <time>2021-07-28T09:42:59Z</time>
      </trkpt>
      <trkpt lat="42.676309" lon="-1.785453">
        <ele>379.311</ele>
        <time>2021-07-28T09:43:08Z</time>
      </trkpt>
      <trkpt lat="42.676265" lon="-1.784967">
        <ele>379.838</ele>
        <time>2021-07-28T09:43:18Z</time>
      </trkpt>
      <trkpt lat="42.676234" lon="-1.784494">
        <ele>380.366</ele>
        <time>2021-07-28T09:43:28Z</time>
      </trkpt>
      <trkpt lat="42.676216" lon="-1.784076">
        <ele>381.342</ele>
        <time>2021-07-28T09:43:36Z</time>
      </trkpt>
      <trkpt lat="42.676207" lon="-1.783448">
        <ele>380.822</ele>
        <time>2021-07-28T09:43:47Z</time>
      </trkpt>
      <trkpt lat="42.676197" lon="-1.782915">
        <ele>381.314</ele>
        <time>2021-07-28T09:43:58Z</time>
      </trkpt>
      <trkpt lat="42.676189" lon="-1.782395">
        <ele>381.708</ele>
        <time>2021-07-28T09:44:08Z</time>
      </trkpt>
      <trkpt lat="42.676196" lon="-1.781994">
        <ele>381.771</ele>
        <time>2021-07-28T09:44:16Z</time>
      </trkpt>
      <trkpt lat="42.676205" lon="-1.781521">
        <ele>381.733</ele>
        <time>2021-07-28T09:44:25Z</time>
      </trkpt>
      <trkpt lat="42.676208" lon="-1.781011">
        <ele>382.260</ele>
        <time>2021-07-28T09:44:35Z</time>
      </trkpt>
      <trkpt lat="42.676212" lon="-1.780628">
        <ele>382.210</ele>
        <time>2021-07-28T09:44:42Z</time>
      </trkpt>
      <trkpt lat="42.676211" lon="-1.780571">
        <ele>382.274</ele>
        <time>2021-07-28T09:44:43Z</time>
      </trkpt>
      <trkpt lat="42.676210" lon="-1.780126">
        <ele>382.712</ele>
        <time>2021-07-28T09:44:51Z</time>
      </trkpt>
      <trkpt lat="42.676210" lon="-1.779843">
        <ele>382.719</ele>
        <time>2021-07-28T09:44:56Z</time>
      </trkpt>
      <trkpt lat="42.676211" lon="-1.779233">
        <ele>382.277</ele>
        <time>2021-07-28T09:45:07Z</time>
      </trkpt>
      <trkpt lat="42.676210" lon="-1.778661">
        <ele>381.761</ele>
        <time>2021-07-28T09:45:17Z</time>
      </trkpt>
      <trkpt lat="42.676210" lon="-1.778163">
        <ele>382.221</ele>
        <time>2021-07-28T09:45:26Z</time>
      </trkpt>
      <trkpt lat="42.676206" lon="-1.777593">
        <ele>382.213</ele>
        <time>2021-07-28T09:45:37Z</time>
      </trkpt>
      <trkpt lat="42.676199" lon="-1.776996">
        <ele>382.208</ele>
        <time>2021-07-28T09:45:48Z</time>
      </trkpt>
      <trkpt lat="42.676198" lon="-1.776343">
        <ele>382.763</ele>
        <time>2021-07-28T09:46:00Z</time>
      </trkpt>
      <trkpt lat="42.676189" lon="-1.775784">
        <ele>382.715</ele>
        <time>2021-07-28T09:46:10Z</time>
      </trkpt>
      <trkpt lat="42.676191" lon="-1.775510">
        <ele>382.782</ele>
        <time>2021-07-28T09:46:15Z</time>
      </trkpt>
      <trkpt lat="42.676190" lon="-1.775011">
        <ele>383.222</ele>
        <time>2021-07-28T09:46:24Z</time>
      </trkpt>
      <trkpt lat="42.676189" lon="-1.774511">
        <ele>384.136</ele>
        <time>2021-07-28T09:46:33Z</time>
      </trkpt>
      <trkpt lat="42.676178" lon="-1.773906">
        <ele>384.114</ele>
        <time>2021-07-28T09:46:44Z</time>
      </trkpt>
      <trkpt lat="42.676171" lon="-1.773233">
        <ele>385.131</ele>
        <time>2021-07-28T09:46:56Z</time>
      </trkpt>
      <trkpt lat="42.676167" lon="-1.772511">
        <ele>385.699</ele>
        <time>2021-07-28T09:47:08Z</time>
      </trkpt>
      <trkpt lat="42.676180" lon="-1.771923">
        <ele>386.133</ele>
        <time>2021-07-28T09:47:18Z</time>
      </trkpt>
      <trkpt lat="42.676182" lon="-1.771627">
        <ele>387.023</ele>
        <time>2021-07-28T09:47:25Z</time>
      </trkpt>
      <trkpt lat="42.676174" lon="-1.771440">
        <ele>387.015</ele>
        <time>2021-07-28T09:47:33Z</time>
      </trkpt>
      <trkpt lat="42.676172" lon="-1.771153">
        <ele>387.508</ele>
        <time>2021-07-28T09:47:39Z</time>
      </trkpt>
      <trkpt lat="42.676170" lon="-1.770555">
        <ele>388.010</ele>
        <time>2021-07-28T09:47:50Z</time>
      </trkpt>
      <trkpt lat="42.676169" lon="-1.770327">
        <ele>388.082</ele>
        <time>2021-07-28T09:47:54Z</time>
      </trkpt>
      <trkpt lat="42.676168" lon="-1.770273">
        <ele>388.579</ele>
        <time>2021-07-28T09:47:55Z</time>
      </trkpt>
      <trkpt lat="42.676171" lon="-1.770221">
        <ele>388.539</ele>
        <time>2021-07-28T09:47:56Z</time>
      </trkpt>
      <trkpt lat="42.676261" lon="-1.769805">
        <ele>389.433</ele>
        <time>2021-07-28T09:48:05Z</time>
      </trkpt>
      <trkpt lat="42.676391" lon="-1.769486">
        <ele>390.911</ele>
        <time>2021-07-28T09:48:13Z</time>
      </trkpt>
      <trkpt lat="42.676478" lon="-1.769144">
        <ele>391.838</ele>
        <time>2021-07-28T09:48:21Z</time>
      </trkpt>
      <trkpt lat="42.676474" lon="-1.768995">
        <ele>391.376</ele>
        <time>2021-07-28T09:48:24Z</time>
      </trkpt>
      <trkpt lat="42.676453" lon="-1.768891">
        <ele>391.353</ele>
        <time>2021-07-28T09:48:26Z</time>
      </trkpt>
      <trkpt lat="42.676259" lon="-1.768338">
        <ele>391.804</ele>
        <time>2021-07-28T09:48:37Z</time>
      </trkpt>
      <trkpt lat="42.676034" lon="-1.767634">
        <ele>391.814</ele>
        <time>2021-07-28T09:48:50Z</time>
      </trkpt>
      <trkpt lat="42.675882" lon="-1.767060">
        <ele>391.808</ele>
        <time>2021-07-28T09:49:00Z</time>
      </trkpt>
      <trkpt lat="42.675724" lon="-1.766506">
        <ele>391.352</ele>
        <time>2021-07-28T09:49:10Z</time>
      </trkpt>
      <trkpt lat="42.675516" lon="-1.765800">
        <ele>391.834</ele>
        <time>2021-07-28T09:49:23Z</time>
      </trkpt>
      <trkpt lat="42.675360" lon="-1.765256">
        <ele>392.341</ele>
        <time>2021-07-28T09:49:33Z</time>
      </trkpt>
      <trkpt lat="42.675152" lon="-1.764550">
        <ele>392.821</ele>
        <time>2021-07-28T09:49:45Z</time>
      </trkpt>
      <trkpt lat="42.674944" lon="-1.763870">
        <ele>392.335</ele>
        <time>2021-07-28T09:49:57Z</time>
      </trkpt>
      <trkpt lat="42.674765" lon="-1.763252">
        <ele>393.813</ele>
        <time>2021-07-28T09:50:08Z</time>
      </trkpt>
      <trkpt lat="42.674593" lon="-1.762661">
        <ele>394.290</ele>
        <time>2021-07-28T09:50:19Z</time>
      </trkpt>
      <trkpt lat="42.674413" lon="-1.762087">
        <ele>394.758</ele>
        <time>2021-07-28T09:50:30Z</time>
      </trkpt>
      <trkpt lat="42.674219" lon="-1.761561">
        <ele>394.761</ele>
        <time>2021-07-28T09:50:40Z</time>
      </trkpt>
      <trkpt lat="42.673944" lon="-1.760993">
        <ele>396.221</ele>
        <time>2021-07-28T09:50:51Z</time>
      </trkpt>
      <trkpt lat="42.673719" lon="-1.760621">
        <ele>396.213</ele>
        <time>2021-07-28T09:51:00Z</time>
      </trkpt>
      <trkpt lat="42.673538" lon="-1.760642">
        <ele>396.208</ele>
        <time>2021-07-28T09:51:05Z</time>
      </trkpt>
      <trkpt lat="42.673501" lon="-1.760669">
        <ele>396.253</ele>
        <time>2021-07-28T09:51:06Z</time>
      </trkpt>
      <trkpt lat="42.673176" lon="-1.760911">
        <ele>395.285</ele>
        <time>2021-07-28T09:51:16Z</time>
      </trkpt>
      <trkpt lat="42.672987" lon="-1.761056">
        <ele>393.332</ele>
        <time>2021-07-28T09:51:24Z</time>
      </trkpt>
      <trkpt lat="42.672715" lon="-1.761253">
        <ele>394.242</ele>
        <time>2021-07-28T09:51:35Z</time>
      </trkpt>
      <trkpt lat="42.672528" lon="-1.761392">
        <ele>395.266</ele>
        <time>2021-07-28T09:51:44Z</time>
      </trkpt>
      <trkpt lat="42.672391" lon="-1.761356">
        <ele>396.284</ele>
        <time>2021-07-28T09:51:52Z</time>
      </trkpt>
      <trkpt lat="42.672276" lon="-1.761234">
        <ele>397.141</ele>
        <time>2021-07-28T09:51:59Z</time>
      </trkpt>
      <trkpt lat="42.672200" lon="-1.761255">
        <ele>397.659</ele>
        <time>2021-07-28T09:52:03Z</time>
      </trkpt>
      <trkpt lat="42.672172" lon="-1.761282">
        <ele>398.131</ele>
        <time>2021-07-28T09:52:09Z</time>
      </trkpt>
      <trkpt lat="42.672166" lon="-1.761269">
        <ele>399.561</ele>
        <time>2021-07-28T09:52:26Z</time>
      </trkpt>
      <trkpt lat="42.672169" lon="-1.761266">
        <ele>400.007</ele>
        <time>2021-07-28T09:52:36Z</time>
      </trkpt>
      <trkpt lat="42.672167" lon="-1.761268">
        <ele>400.008</ele>
        <time>2021-07-28T09:52:45Z</time>
      </trkpt>
      <trkpt lat="42.672162" lon="-1.761274">
        <ele>398.610</ele>
        <time>2021-07-28T09:52:56Z</time>
      </trkpt>
      <trkpt lat="42.672183" lon="-1.761268">
        <ele>400.552</ele>
        <time>2021-07-28T09:53:15Z</time>
      </trkpt>
      <trkpt lat="42.672160" lon="-1.761290">
        <ele>400.579</ele>
        <time>2021-07-28T09:53:27Z</time>
      </trkpt>
      <trkpt lat="42.672151" lon="-1.761298">
        <ele>400.589</ele>
        <time>2021-07-28T09:53:28Z</time>
      </trkpt>
      <trkpt lat="42.672117" lon="-1.761352">
        <ele>400.083</ele>
        <time>2021-07-28T09:53:34Z</time>
      </trkpt>
      <trkpt lat="42.672092" lon="-1.761386">
        <ele>399.081</ele>
        <time>2021-07-28T09:53:44Z</time>
      </trkpt>
      <trkpt lat="42.672095" lon="-1.761406">
        <ele>397.648</ele>
        <time>2021-07-28T09:53:58Z</time>
      </trkpt>
      <trkpt lat="42.672095" lon="-1.761417">
        <ele>397.626</ele>
        <time>2021-07-28T09:53:59Z</time>
      </trkpt>
      <trkpt lat="42.672106" lon="-1.761556">
        <ele>396.692</ele>
        <time>2021-07-28T09:54:08Z</time>
      </trkpt>
      <trkpt lat="42.672141" lon="-1.761665">
        <ele>396.673</ele>
        <time>2021-07-28T09:54:18Z</time>
      </trkpt>
      <trkpt lat="42.672144" lon="-1.761725">
        <ele>397.120</ele>
        <time>2021-07-28T09:54:26Z</time>
      </trkpt>
      <trkpt lat="42.672156" lon="-1.761727">
        <ele>397.108</ele>
        <time>2021-07-28T09:54:28Z</time>
      </trkpt>
      <trkpt lat="42.672214" lon="-1.761738">
        <ele>396.676</ele>
        <time>2021-07-28T09:54:36Z</time>
      </trkpt>
      <trkpt lat="42.672201" lon="-1.761731">
        <ele>397.668</ele>
        <time>2021-07-28T09:54:54Z</time>
      </trkpt>
      <trkpt lat="42.672205" lon="-1.761725">
        <ele>398.625</ele>
        <time>2021-07-28T09:55:21Z</time>
      </trkpt>
      <trkpt lat="42.672203" lon="-1.761721">
        <ele>399.555</ele>
        <time>2021-07-28T09:55:35Z</time>
      </trkpt>
      <trkpt lat="42.672209" lon="-1.761730">
        <ele>400.089</ele>
        <time>2021-07-28T09:55:52Z</time>
      </trkpt>
      <trkpt lat="42.672208" lon="-1.761734">
        <ele>400.057</ele>
        <time>2021-07-28T09:56:04Z</time>
      </trkpt>
      <trkpt lat="42.672205" lon="-1.761737">
        <ele>399.564</ele>
        <time>2021-07-28T09:56:24Z</time>
      </trkpt>
      <trkpt lat="42.672214" lon="-1.761744">
        <ele>399.042</ele>
        <time>2021-07-28T09:56:38Z</time>
      </trkpt>
      <trkpt lat="42.672221" lon="-1.761802">
        <ele>398.652</ele>
        <time>2021-07-28T09:56:42Z</time>
      </trkpt>
      <trkpt lat="42.672229" lon="-1.761937">
        <ele>398.153</ele>
        <time>2021-07-28T09:56:53Z</time>
      </trkpt>
      <trkpt lat="42.672257" lon="-1.761956">
        <ele>397.608</ele>
        <time>2021-07-28T09:57:07Z</time>
      </trkpt>
      <trkpt lat="42.672273" lon="-1.761956">
        <ele>397.108</ele>
        <time>2021-07-28T09:57:23Z</time>
      </trkpt>
      <trkpt lat="42.672253" lon="-1.761933">
        <ele>398.652</ele>
        <time>2021-07-28T09:57:34Z</time>
      </trkpt>
      <trkpt lat="42.672252" lon="-1.761924">
        <ele>401.024</ele>
        <time>2021-07-28T09:57:50Z</time>
      </trkpt>
      <trkpt lat="42.672263" lon="-1.761934">
        <ele>399.561</ele>
        <time>2021-07-28T09:58:04Z</time>
      </trkpt>
      <trkpt lat="42.672264" lon="-1.761959">
        <ele>397.691</ele>
        <time>2021-07-28T09:58:24Z</time>
      </trkpt>
      <trkpt lat="42.672257" lon="-1.761952">
        <ele>395.715</ele>
        <time>2021-07-28T09:58:39Z</time>
      </trkpt>
      <trkpt lat="42.672255" lon="-1.761954">
        <ele>395.713</ele>
        <time>2021-07-28T09:58:51Z</time>
      </trkpt>
      <trkpt lat="42.672261" lon="-1.761955">
        <ele>395.250</ele>
        <time>2021-07-28T09:59:02Z</time>
      </trkpt>
      <trkpt lat="42.672258" lon="-1.761963">
        <ele>395.218</ele>
        <time>2021-07-28T09:59:14Z</time>
      </trkpt>
      <trkpt lat="42.672255" lon="-1.761960">
        <ele>395.272</ele>
        <time>2021-07-28T09:59:31Z</time>
      </trkpt>
      <trkpt lat="42.672254" lon="-1.761954">
        <ele>396.213</ele>
        <time>2021-07-28T09:59:53Z</time>
      </trkpt>
      <trkpt lat="42.672244" lon="-1.761950">
        <ele>395.714</ele>
        <time>2021-07-28T10:00:10Z</time>
      </trkpt>
      <trkpt lat="42.672233" lon="-1.761947">
        <ele>395.708</ele>
        <time>2021-07-28T10:00:26Z</time>
      </trkpt>
      <trkpt lat="42.672233" lon="-1.761950">
        <ele>395.214</ele>
        <time>2021-07-28T10:00:44Z</time>
      </trkpt>
      <trkpt lat="42.672241" lon="-1.761950">
        <ele>394.286</ele>
        <time>2021-07-28T10:00:59Z</time>
      </trkpt>
      <trkpt lat="42.672237" lon="-1.761954">
        <ele>394.253</ele>
        <time>2021-07-28T10:01:12Z</time>
      </trkpt>
      <trkpt lat="42.672236" lon="-1.761955">
        <ele>394.743</ele>
        <time>2021-07-28T10:01:29Z</time>
      </trkpt>
      <trkpt lat="42.672256" lon="-1.761943">
        <ele>396.677</ele>
        <time>2021-07-28T10:01:47Z</time>
      </trkpt>
      <trkpt lat="42.672255" lon="-1.761940">
        <ele>396.685</ele>
        <time>2021-07-28T10:02:02Z</time>
      </trkpt>
      <trkpt lat="42.672251" lon="-1.761944">
        <ele>396.252</ele>
        <time>2021-07-28T10:02:14Z</time>
      </trkpt>
      <trkpt lat="42.672258" lon="-1.761945">
        <ele>397.130</ele>
        <time>2021-07-28T10:02:31Z</time>
      </trkpt>
      <trkpt lat="42.672264" lon="-1.761948">
        <ele>397.194</ele>
        <time>2021-07-28T10:02:47Z</time>
      </trkpt>
      <trkpt lat="42.672245" lon="-1.761950">
        <ele>396.657</ele>
        <time>2021-07-28T10:03:03Z</time>
      </trkpt>
      <trkpt lat="42.672247" lon="-1.761939">
        <ele>396.622</ele>
        <time>2021-07-28T10:03:18Z</time>
      </trkpt>
      <trkpt lat="42.672251" lon="-1.761943">
        <ele>396.208</ele>
        <time>2021-07-28T10:03:31Z</time>
      </trkpt>
      <trkpt lat="42.672252" lon="-1.761939">
        <ele>396.686</ele>
        <time>2021-07-28T10:03:46Z</time>
      </trkpt>
      <trkpt lat="42.672251" lon="-1.761944">
        <ele>396.298</ele>
        <time>2021-07-28T10:04:01Z</time>
      </trkpt>
      <trkpt lat="42.672238" lon="-1.761941">
        <ele>396.685</ele>
        <time>2021-07-28T10:04:18Z</time>
      </trkpt>
      <trkpt lat="42.672242" lon="-1.761943">
        <ele>395.755</ele>
        <time>2021-07-28T10:04:35Z</time>
      </trkpt>
      <trkpt lat="42.672244" lon="-1.761946">
        <ele>395.739</ele>
        <time>2021-07-28T10:04:52Z</time>
      </trkpt>
      <trkpt lat="42.672252" lon="-1.761950">
        <ele>395.277</ele>
        <time>2021-07-28T10:05:07Z</time>
      </trkpt>
      <trkpt lat="42.672245" lon="-1.761941">
        <ele>395.264</ele>
        <time>2021-07-28T10:05:27Z</time>
      </trkpt>
      <trkpt lat="42.672250" lon="-1.761933">
        <ele>395.792</ele>
        <time>2021-07-28T10:05:41Z</time>
      </trkpt>
      <trkpt lat="42.672257" lon="-1.761933">
        <ele>395.224</ele>
        <time>2021-07-28T10:06:02Z</time>
      </trkpt>
      <trkpt lat="42.672254" lon="-1.761938">
        <ele>394.704</ele>
        <time>2021-07-28T10:06:20Z</time>
      </trkpt>
      <trkpt lat="42.672256" lon="-1.761942">
        <ele>395.714</ele>
        <time>2021-07-28T10:06:36Z</time>
      </trkpt>
      <trkpt lat="42.672255" lon="-1.761937">
        <ele>396.208</ele>
        <time>2021-07-28T10:06:57Z</time>
      </trkpt>
      <trkpt lat="42.672254" lon="-1.761940">
        <ele>395.719</ele>
        <time>2021-07-28T10:07:18Z</time>
      </trkpt>
      <trkpt lat="42.672248" lon="-1.761940">
        <ele>397.121</ele>
        <time>2021-07-28T10:07:39Z</time>
      </trkpt>
      <trkpt lat="42.672250" lon="-1.761942">
        <ele>396.658</ele>
        <time>2021-07-28T10:07:59Z</time>
      </trkpt>
      <trkpt lat="42.672259" lon="-1.761938">
        <ele>397.128</ele>
        <time>2021-07-28T10:08:20Z</time>
      </trkpt>
      <trkpt lat="42.672253" lon="-1.761936">
        <ele>397.622</ele>
        <time>2021-07-28T10:08:38Z</time>
      </trkpt>
      <trkpt lat="42.672246" lon="-1.761944">
        <ele>396.670</ele>
        <time>2021-07-28T10:08:57Z</time>
      </trkpt>
      <trkpt lat="42.672246" lon="-1.761945">
        <ele>396.637</ele>
        <time>2021-07-28T10:09:12Z</time>
      </trkpt>
      <trkpt lat="42.672244" lon="-1.761933">
        <ele>397.175</ele>
        <time>2021-07-28T10:09:24Z</time>
      </trkpt>
      <trkpt lat="42.672247" lon="-1.761946">
        <ele>398.669</ele>
        <time>2021-07-28T10:09:40Z</time>
      </trkpt>
      <trkpt lat="42.672258" lon="-1.761933">
        <ele>398.104</ele>
        <time>2021-07-28T10:09:47Z</time>
      </trkpt>
      <trkpt lat="42.672252" lon="-1.761922">
        <ele>397.124</ele>
        <time>2021-07-28T10:09:54Z</time>
      </trkpt>
      <trkpt lat="42.672252" lon="-1.761916">
        <ele>395.208</ele>
        <time>2021-07-28T10:10:12Z</time>
      </trkpt>
      <trkpt lat="42.672301" lon="-1.761912">
        <ele>395.243</ele>
        <time>2021-07-28T10:10:20Z</time>
      </trkpt>
      <trkpt lat="42.672366" lon="-1.761875">
        <ele>395.785</ele>
        <time>2021-07-28T10:10:28Z</time>
      </trkpt>
      <trkpt lat="42.672414" lon="-1.761872">
        <ele>395.212</ele>
        <time>2021-07-28T10:10:34Z</time>
      </trkpt>
      <trkpt lat="42.672413" lon="-1.761864">
        <ele>395.242</ele>
        <time>2021-07-28T10:10:35Z</time>
      </trkpt>
      <trkpt lat="42.672381" lon="-1.761760">
        <ele>396.226</ele>
        <time>2021-07-28T10:10:46Z</time>
      </trkpt>
      <trkpt lat="42.672397" lon="-1.761746">
        <ele>395.794</ele>
        <time>2021-07-28T10:10:48Z</time>
      </trkpt>
      <trkpt lat="42.672426" lon="-1.761729">
        <ele>395.761</ele>
        <time>2021-07-28T10:10:51Z</time>
      </trkpt>
      <trkpt lat="42.672452" lon="-1.761675">
        <ele>395.799</ele>
        <time>2021-07-28T10:10:59Z</time>
      </trkpt>
      <trkpt lat="42.672453" lon="-1.761672">
        <ele>395.227</ele>
        <time>2021-07-28T10:11:06Z</time>
      </trkpt>
      <trkpt lat="42.672434" lon="-1.761608">
        <ele>395.268</ele>
        <time>2021-07-28T10:11:10Z</time>
      </trkpt>
      <trkpt lat="42.672422" lon="-1.761467">
        <ele>395.214</ele>
        <time>2021-07-28T10:11:17Z</time>
      </trkpt>
      <trkpt lat="42.672454" lon="-1.761431">
        <ele>394.708</ele>
        <time>2021-07-28T10:11:19Z</time>
      </trkpt>
      <trkpt lat="42.672687" lon="-1.761249">
        <ele>394.269</ele>
        <time>2021-07-28T10:11:28Z</time>
      </trkpt>
      <trkpt lat="42.672918" lon="-1.761065">
        <ele>394.231</ele>
        <time>2021-07-28T10:11:38Z</time>
      </trkpt>
      <trkpt lat="42.673133" lon="-1.760903">
        <ele>395.258</ele>
        <time>2021-07-28T10:11:47Z</time>
      </trkpt>
      <trkpt lat="42.673369" lon="-1.760732">
        <ele>395.258</ele>
        <time>2021-07-28T10:11:55Z</time>
      </trkpt>
      <trkpt lat="42.673584" lon="-1.760508">
        <ele>395.772</ele>
        <time>2021-07-28T10:12:04Z</time>
      </trkpt>
      <trkpt lat="42.673708" lon="-1.760467">
        <ele>396.260</ele>
        <time>2021-07-28T10:12:10Z</time>
      </trkpt>
      <trkpt lat="42.673736" lon="-1.760494">
        <ele>395.737</ele>
        <time>2021-07-28T10:12:11Z</time>
      </trkpt>
      <trkpt lat="42.673762" lon="-1.760531">
        <ele>395.715</ele>
        <time>2021-07-28T10:12:12Z</time>
      </trkpt>
      <trkpt lat="42.673786" lon="-1.760571">
        <ele>395.768</ele>
        <time>2021-07-28T10:12:13Z</time>
      </trkpt>
      <trkpt lat="42.673809" lon="-1.760617">
        <ele>395.742</ele>
        <time>2021-07-28T10:12:14Z</time>
      </trkpt>
      <trkpt lat="42.674028" lon="-1.761041">
        <ele>395.226</ele>
        <time>2021-07-28T10:12:24Z</time>
      </trkpt>
      <trkpt lat="42.674295" lon="-1.761615">
        <ele>394.708</ele>
        <time>2021-07-28T10:12:37Z</time>
      </trkpt>
      <trkpt lat="42.674508" lon="-1.762208">
        <ele>393.813</ele>
        <time>2021-07-28T10:12:49Z</time>
      </trkpt>
      <trkpt lat="42.674685" lon="-1.762808">
        <ele>393.355</ele>
        <time>2021-07-28T10:13:00Z</time>
      </trkpt>
      <trkpt lat="42.674947" lon="-1.763690">
        <ele>392.342</ele>
        <time>2021-07-28T10:13:15Z</time>
      </trkpt>
      <trkpt lat="42.675120" lon="-1.764278">
        <ele>391.852</ele>
        <time>2021-07-28T10:13:25Z</time>
      </trkpt>
      <trkpt lat="42.675263" lon="-1.764747">
        <ele>391.396</ele>
        <time>2021-07-28T10:13:33Z</time>
      </trkpt>
      <trkpt lat="42.675432" lon="-1.765339">
        <ele>390.494</ele>
        <time>2021-07-28T10:13:43Z</time>
      </trkpt>
      <trkpt lat="42.675604" lon="-1.765922">
        <ele>389.961</ele>
        <time>2021-07-28T10:13:53Z</time>
      </trkpt>
      <trkpt lat="42.675798" lon="-1.766579">
        <ele>389.469</ele>
        <time>2021-07-28T10:14:04Z</time>
      </trkpt>
      <trkpt lat="42.675956" lon="-1.767116">
        <ele>389.442</ele>
        <time>2021-07-28T10:14:14Z</time>
      </trkpt>
      <trkpt lat="42.676185" lon="-1.767782">
        <ele>388.922</ele>
        <time>2021-07-28T10:14:26Z</time>
      </trkpt>
      <trkpt lat="42.676320" lon="-1.768269">
        <ele>388.514</ele>
        <time>2021-07-28T10:14:34Z</time>
      </trkpt>
      <trkpt lat="42.676579" lon="-1.768918">
        <ele>388.508</ele>
        <time>2021-07-28T10:14:45Z</time>
      </trkpt>
      <trkpt lat="42.676606" lon="-1.768970">
        <ele>388.591</ele>
        <time>2021-07-28T10:14:46Z</time>
      </trkpt>
      <trkpt lat="42.676680" lon="-1.769324">
        <ele>388.993</ele>
        <time>2021-07-28T10:14:52Z</time>
      </trkpt>
      <trkpt lat="42.676576" lon="-1.769520">
        <ele>388.550</ele>
        <time>2021-07-28T10:14:56Z</time>
      </trkpt>
      <trkpt lat="42.676493" lon="-1.769597">
        <ele>388.530</ele>
        <time>2021-07-28T10:14:58Z</time>
      </trkpt>
      <trkpt lat="42.676312" lon="-1.769885">
        <ele>388.034</ele>
        <time>2021-07-28T10:15:03Z</time>
      </trkpt>
      <trkpt lat="42.676286" lon="-1.769972">
        <ele>387.582</ele>
        <time>2021-07-28T10:15:04Z</time>
      </trkpt>
      <trkpt lat="42.676272" lon="-1.770041">
        <ele>387.069</ele>
        <time>2021-07-28T10:15:05Z</time>
      </trkpt>
      <trkpt lat="42.676258" lon="-1.770117">
        <ele>387.057</ele>
        <time>2021-07-28T10:15:06Z</time>
      </trkpt>
      <trkpt lat="42.676249" lon="-1.770202">
        <ele>387.067</ele>
        <time>2021-07-28T10:15:07Z</time>
      </trkpt>
      <trkpt lat="42.676227" lon="-1.771006">
        <ele>386.181</ele>
        <time>2021-07-28T10:15:17Z</time>
      </trkpt>
      <trkpt lat="42.676233" lon="-1.771860">
        <ele>385.119</ele>
        <time>2021-07-28T10:15:29Z</time>
      </trkpt>
      <trkpt lat="42.676234" lon="-1.772059">
        <ele>384.608</ele>
        <time>2021-07-28T10:15:32Z</time>
      </trkpt>
      <trkpt lat="42.676235" lon="-1.772122">
        <ele>384.653</ele>
        <time>2021-07-28T10:15:33Z</time>
      </trkpt>
      <trkpt lat="42.676237" lon="-1.772846">
        <ele>383.715</ele>
        <time>2021-07-28T10:15:44Z</time>
      </trkpt>
      <trkpt lat="42.676239" lon="-1.773454">
        <ele>383.292</ele>
        <time>2021-07-28T10:15:53Z</time>
      </trkpt>
      <trkpt lat="42.676246" lon="-1.774173">
        <ele>382.722</ele>
        <time>2021-07-28T10:16:04Z</time>
      </trkpt>
      <trkpt lat="42.676253" lon="-1.774899">
        <ele>381.716</ele>
        <time>2021-07-28T10:16:15Z</time>
      </trkpt>
      <trkpt lat="42.676252" lon="-1.775567">
        <ele>380.894</ele>
        <time>2021-07-28T10:16:25Z</time>
      </trkpt>
      <trkpt lat="42.676251" lon="-1.776247">
        <ele>380.391</ele>
        <time>2021-07-28T10:16:35Z</time>
      </trkpt>
      <trkpt lat="42.676256" lon="-1.776803">
        <ele>380.349</ele>
        <time>2021-07-28T10:16:43Z</time>
      </trkpt>
      <trkpt lat="42.676264" lon="-1.777532">
        <ele>380.391</ele>
        <time>2021-07-28T10:16:54Z</time>
      </trkpt>
      <trkpt lat="42.676260" lon="-1.778180">
        <ele>379.881</ele>
        <time>2021-07-28T10:17:04Z</time>
      </trkpt>
      <trkpt lat="42.676263" lon="-1.778844">
        <ele>380.319</ele>
        <time>2021-07-28T10:17:14Z</time>
      </trkpt>
      <trkpt lat="42.676266" lon="-1.779278">
        <ele>380.308</ele>
        <time>2021-07-28T10:17:21Z</time>
      </trkpt>
      <trkpt lat="42.676267" lon="-1.779906">
        <ele>380.866</ele>
        <time>2021-07-28T10:17:31Z</time>
      </trkpt>
      <trkpt lat="42.676270" lon="-1.780736">
        <ele>380.368</ele>
        <time>2021-07-28T10:17:44Z</time>
      </trkpt>
      <trkpt lat="42.676280" lon="-1.781407">
        <ele>380.325</ele>
        <time>2021-07-28T10:17:55Z</time>
      </trkpt>
      <trkpt lat="42.676278" lon="-1.781817">
        <ele>380.365</ele>
        <time>2021-07-28T10:18:02Z</time>
      </trkpt>
      <trkpt lat="42.676303" lon="-1.781870">
        <ele>380.349</ele>
        <time>2021-07-28T10:18:03Z</time>
      </trkpt>
      <trkpt lat="42.676341" lon="-1.781901">
        <ele>380.387</ele>
        <time>2021-07-28T10:18:04Z</time>
      </trkpt>
      <trkpt lat="42.676390" lon="-1.781907">
        <ele>380.314</ele>
        <time>2021-07-28T10:18:05Z</time>
      </trkpt>
      <trkpt lat="42.676427" lon="-1.781898">
        <ele>380.322</ele>
        <time>2021-07-28T10:18:06Z</time>
      </trkpt>
      <trkpt lat="42.676463" lon="-1.781878">
        <ele>380.323</ele>
        <time>2021-07-28T10:18:07Z</time>
      </trkpt>
      <trkpt lat="42.676499" lon="-1.781850">
        <ele>380.383</ele>
        <time>2021-07-28T10:18:08Z</time>
      </trkpt>
      <trkpt lat="42.676535" lon="-1.781820">
        <ele>380.311</ele>
        <time>2021-07-28T10:18:09Z</time>
      </trkpt>
      <trkpt lat="42.676786" lon="-1.781626">
        <ele>380.808</ele>
        <time>2021-07-28T10:18:17Z</time>
      </trkpt>
      <trkpt lat="42.677076" lon="-1.781409">
        <ele>381.789</ele>
        <time>2021-07-28T10:18:28Z</time>
      </trkpt>
      <trkpt lat="42.677320" lon="-1.781230">
        <ele>382.281</ele>
        <time>2021-07-28T10:18:37Z</time>
      </trkpt>
      <trkpt lat="42.677619" lon="-1.781015">
        <ele>383.288</ele>
        <time>2021-07-28T10:18:48Z</time>
      </trkpt>
      <trkpt lat="42.677896" lon="-1.780807">
        <ele>383.778</ele>
        <time>2021-07-28T10:18:59Z</time>
      </trkpt>
      <trkpt lat="42.678127" lon="-1.780640">
        <ele>384.112</ele>
        <time>2021-07-28T10:19:08Z</time>
      </trkpt>
      <trkpt lat="42.678349" lon="-1.780482">
        <ele>384.180</ele>
        <time>2021-07-28T10:19:17Z</time>
      </trkpt>
      <trkpt lat="42.678620" lon="-1.780271">
        <ele>385.147</ele>
        <time>2021-07-28T10:19:28Z</time>
      </trkpt>
      <trkpt lat="42.678802" lon="-1.780141">
        <ele>385.685</ele>
        <time>2021-07-28T10:19:35Z</time>
      </trkpt>
      <trkpt lat="42.678998" lon="-1.780005">
        <ele>385.655</ele>
        <time>2021-07-28T10:19:43Z</time>
      </trkpt>
      <trkpt lat="42.679212" lon="-1.779846">
        <ele>385.607</ele>
        <time>2021-07-28T10:19:52Z</time>
      </trkpt>
      <trkpt lat="42.679467" lon="-1.779651">
        <ele>386.117</ele>
        <time>2021-07-28T10:20:02Z</time>
      </trkpt>
      <trkpt lat="42.679723" lon="-1.779459">
        <ele>386.508</ele>
        <time>2021-07-28T10:20:12Z</time>
      </trkpt>
      <trkpt lat="42.680012" lon="-1.779258">
        <ele>386.512</ele>
        <time>2021-07-28T10:20:23Z</time>
      </trkpt>
      <trkpt lat="42.680285" lon="-1.779053">
        <ele>387.514</ele>
        <time>2021-07-28T10:20:34Z</time>
      </trkpt>
      <trkpt lat="42.680575" lon="-1.778852">
        <ele>388.991</ele>
        <time>2021-07-28T10:20:45Z</time>
      </trkpt>
      <trkpt lat="42.680820" lon="-1.778674">
        <ele>389.471</ele>
        <time>2021-07-28T10:20:55Z</time>
      </trkpt>
      <trkpt lat="42.681047" lon="-1.778500">
        <ele>389.955</ele>
        <time>2021-07-28T10:21:04Z</time>
      </trkpt>
      <trkpt lat="42.681250" lon="-1.778350">
        <ele>390.443</ele>
        <time>2021-07-28T10:21:12Z</time>
      </trkpt>
      <trkpt lat="42.681549" lon="-1.778124">
        <ele>390.420</ele>
        <time>2021-07-28T10:21:24Z</time>
      </trkpt>
      <trkpt lat="42.681781" lon="-1.777943">
        <ele>390.978</ele>
        <time>2021-07-28T10:21:33Z</time>
      </trkpt>
      <trkpt lat="42.682090" lon="-1.777689">
        <ele>392.351</ele>
        <time>2021-07-28T10:21:46Z</time>
      </trkpt>
      <trkpt lat="42.682312" lon="-1.777518">
        <ele>392.801</ele>
        <time>2021-07-28T10:21:56Z</time>
      </trkpt>
      <trkpt lat="42.682543" lon="-1.777325">
        <ele>393.811</ele>
        <time>2021-07-28T10:22:06Z</time>
      </trkpt>
      <trkpt lat="42.682860" lon="-1.777123">
        <ele>394.708</ele>
        <time>2021-07-28T10:22:18Z</time>
      </trkpt>
      <trkpt lat="42.683123" lon="-1.776968">
        <ele>395.232</ele>
        <time>2021-07-28T10:22:28Z</time>
      </trkpt>
      <trkpt lat="42.683366" lon="-1.776817">
        <ele>395.774</ele>
        <time>2021-07-28T10:22:38Z</time>
      </trkpt>
      <trkpt lat="42.683595" lon="-1.776671">
        <ele>396.261</ele>
        <time>2021-07-28T10:22:48Z</time>
      </trkpt>
      <trkpt lat="42.683852" lon="-1.776524">
        <ele>396.631</ele>
        <time>2021-07-28T10:22:58Z</time>
      </trkpt>
      <trkpt lat="42.684147" lon="-1.776329">
        <ele>397.175</ele>
        <time>2021-07-28T10:23:10Z</time>
      </trkpt>
      <trkpt lat="42.684344" lon="-1.776171">
        <ele>398.113</ele>
        <time>2021-07-28T10:23:19Z</time>
      </trkpt>
      <trkpt lat="42.684463" lon="-1.776057">
        <ele>399.090</ele>
        <time>2021-07-28T10:23:27Z</time>
      </trkpt>
      <trkpt lat="42.684730" lon="-1.775793">
        <ele>401.988</ele>
        <time>2021-07-28T10:23:41Z</time>
      </trkpt>
      <trkpt lat="42.684933" lon="-1.775595">
        <ele>403.433</ele>
        <time>2021-07-28T10:23:53Z</time>
      </trkpt>
      <trkpt lat="42.685094" lon="-1.775433">
        <ele>404.823</ele>
        <time>2021-07-28T10:24:03Z</time>
      </trkpt>
      <trkpt lat="42.685249" lon="-1.775291">
        <ele>406.215</ele>
        <time>2021-07-28T10:24:12Z</time>
      </trkpt>
      <trkpt lat="42.685375" lon="-1.775153">
        <ele>407.208</ele>
        <time>2021-07-28T10:24:21Z</time>
      </trkpt>
      <trkpt lat="42.685540" lon="-1.774980">
        <ele>409.140</ele>
        <time>2021-07-28T10:24:32Z</time>
      </trkpt>
      <trkpt lat="42.685662" lon="-1.774854">
        <ele>411.122</ele>
        <time>2021-07-28T10:24:40Z</time>
      </trkpt>
      <trkpt lat="42.685792" lon="-1.774717">
        <ele>411.579</ele>
        <time>2021-07-28T10:24:49Z</time>
      </trkpt>
      <trkpt lat="42.685891" lon="-1.774609">
        <ele>413.059</ele>
        <time>2021-07-28T10:24:57Z</time>
      </trkpt>
      <trkpt lat="42.686011" lon="-1.774476">
        <ele>414.483</ele>
        <time>2021-07-28T10:25:06Z</time>
      </trkpt>
      <trkpt lat="42.686150" lon="-1.774327">
        <ele>415.981</ele>
        <time>2021-07-28T10:25:16Z</time>
      </trkpt>
      <trkpt lat="42.686279" lon="-1.774191">
        <ele>416.828</ele>
        <time>2021-07-28T10:25:26Z</time>
      </trkpt>
      <trkpt lat="42.686392" lon="-1.774067">
        <ele>417.886</ele>
        <time>2021-07-28T10:25:35Z</time>
      </trkpt>
      <trkpt lat="42.686466" lon="-1.773970">
        <ele>418.762</ele>
        <time>2021-07-28T10:25:43Z</time>
      </trkpt>
      <trkpt lat="42.686596" lon="-1.773839">
        <ele>420.283</ele>
        <time>2021-07-28T10:25:53Z</time>
      </trkpt>
      <trkpt lat="42.686722" lon="-1.773707">
        <ele>421.611</ele>
        <time>2021-07-28T10:26:02Z</time>
      </trkpt>
      <trkpt lat="42.686873" lon="-1.773553">
        <ele>423.108</ele>
        <time>2021-07-28T10:26:13Z</time>
      </trkpt>
      <trkpt lat="42.687011" lon="-1.773402">
        <ele>424.573</ele>
        <time>2021-07-28T10:26:24Z</time>
      </trkpt>
      <trkpt lat="42.687147" lon="-1.773243">
        <ele>426.095</ele>
        <time>2021-07-28T10:26:35Z</time>
      </trkpt>
      <trkpt lat="42.687286" lon="-1.773090">
        <ele>427.432</ele>
        <time>2021-07-28T10:26:46Z</time>
      </trkpt>
      <trkpt lat="42.687410" lon="-1.772968">
        <ele>428.872</ele>
        <time>2021-07-28T10:26:55Z</time>
      </trkpt>
      <trkpt lat="42.687531" lon="-1.772842">
        <ele>430.896</ele>
        <time>2021-07-28T10:27:05Z</time>
      </trkpt>
      <trkpt lat="42.687653" lon="-1.772692">
        <ele>432.294</ele>
        <time>2021-07-28T10:27:15Z</time>
      </trkpt>
      <trkpt lat="42.687757" lon="-1.772577">
        <ele>433.611</ele>
        <time>2021-07-28T10:27:23Z</time>
      </trkpt>
      <trkpt lat="42.687855" lon="-1.772459">
        <ele>434.619</ele>
        <time>2021-07-28T10:27:31Z</time>
      </trkpt>
      <trkpt lat="42.687967" lon="-1.772373">
        <ele>436.136</ele>
        <time>2021-07-28T10:27:39Z</time>
      </trkpt>
      <trkpt lat="42.688070" lon="-1.772296">
        <ele>437.517</ele>
        <time>2021-07-28T10:27:46Z</time>
      </trkpt>
      <trkpt lat="42.688086" lon="-1.772281">
        <ele>437.518</ele>
        <time>2021-07-28T10:27:47Z</time>
      </trkpt>
      <trkpt lat="42.688100" lon="-1.772271">
        <ele>437.508</ele>
        <time>2021-07-28T10:27:48Z</time>
      </trkpt>
      <trkpt lat="42.688241" lon="-1.772163">
        <ele>438.980</ele>
        <time>2021-07-28T10:27:57Z</time>
      </trkpt>
      <trkpt lat="42.688369" lon="-1.772085">
        <ele>439.442</ele>
        <time>2021-07-28T10:28:05Z</time>
      </trkpt>
      <trkpt lat="42.688507" lon="-1.772006">
        <ele>440.419</ele>
        <time>2021-07-28T10:28:13Z</time>
      </trkpt>
      <trkpt lat="42.688696" lon="-1.771916">
        <ele>441.319</ele>
        <time>2021-07-28T10:28:23Z</time>
      </trkpt>
      <trkpt lat="42.688821" lon="-1.771850">
        <ele>442.393</ele>
        <time>2021-07-28T10:28:30Z</time>
      </trkpt>
      <trkpt lat="42.689011" lon="-1.771741">
        <ele>442.831</ele>
        <time>2021-07-28T10:28:40Z</time>
      </trkpt>
      <trkpt lat="42.689175" lon="-1.771606">
        <ele>442.378</ele>
        <time>2021-07-28T10:28:49Z</time>
      </trkpt>
      <trkpt lat="42.689324" lon="-1.771451">
        <ele>443.776</ele>
        <time>2021-07-28T10:28:59Z</time>
      </trkpt>
      <trkpt lat="42.689454" lon="-1.771341">
        <ele>443.787</ele>
        <time>2021-07-28T10:29:06Z</time>
      </trkpt>
      <trkpt lat="42.689648" lon="-1.771199">
        <ele>444.742</ele>
        <time>2021-07-28T10:29:15Z</time>
      </trkpt>
      <trkpt lat="42.689855" lon="-1.771068">
        <ele>445.226</ele>
        <time>2021-07-28T10:29:25Z</time>
      </trkpt>
      <trkpt lat="42.689993" lon="-1.770967">
        <ele>445.708</ele>
        <time>2021-07-28T10:29:34Z</time>
      </trkpt>
      <trkpt lat="42.690001" lon="-1.770957">
        <ele>444.285</ele>
        <time>2021-07-28T10:29:41Z</time>
      </trkpt>
      <trkpt lat="42.690015" lon="-1.770957">
        <ele>443.327</ele>
        <time>2021-07-28T10:29:59Z</time>
      </trkpt>
      <trkpt lat="42.690026" lon="-1.770956">
        <ele>443.394</ele>
        <time>2021-07-28T10:30:11Z</time>
      </trkpt>
      <trkpt lat="42.690133" lon="-1.770877">
        <ele>442.844</ele>
        <time>2021-07-28T10:30:18Z</time>
      </trkpt>
      <trkpt lat="42.690194" lon="-1.770833">
        <ele>442.818</ele>
        <time>2021-07-28T10:30:22Z</time>
      </trkpt>
      <trkpt lat="42.690205" lon="-1.770822">
        <ele>442.866</ele>
        <time>2021-07-28T10:30:23Z</time>
      </trkpt>
      <trkpt lat="42.690315" lon="-1.770739">
        <ele>442.873</ele>
        <time>2021-07-28T10:30:31Z</time>
      </trkpt>
      <trkpt lat="42.690338" lon="-1.770721">
        <ele>442.331</ele>
        <time>2021-07-28T10:30:33Z</time>
      </trkpt>
      <trkpt lat="42.690346" lon="-1.770705">
        <ele>442.373</ele>
        <time>2021-07-28T10:30:34Z</time>
      </trkpt>
      <trkpt lat="42.690359" lon="-1.770667">
        <ele>442.385</ele>
        <time>2021-07-28T10:30:41Z</time>
      </trkpt>
      <trkpt lat="42.690364" lon="-1.770685">
        <ele>441.813</ele>
        <time>2021-07-28T10:30:56Z</time>
      </trkpt>
      <trkpt lat="42.690366" lon="-1.770685">
        <ele>442.808</ele>
        <time>2021-07-28T10:31:11Z</time>
      </trkpt>
      <trkpt lat="42.690371" lon="-1.770674">
        <ele>442.844</ele>
        <time>2021-07-28T10:31:25Z</time>
      </trkpt>
      <trkpt lat="42.690377" lon="-1.770671">
        <ele>444.236</ele>
        <time>2021-07-28T10:31:48Z</time>
      </trkpt>
      <trkpt lat="42.690388" lon="-1.770681">
        <ele>441.873</ele>
        <time>2021-07-28T10:32:04Z</time>
      </trkpt>
      <trkpt lat="42.690382" lon="-1.770681">
        <ele>441.853</ele>
        <time>2021-07-28T10:32:21Z</time>
      </trkpt>
      <trkpt lat="42.690375" lon="-1.770691">
        <ele>442.317</ele>
        <time>2021-07-28T10:32:37Z</time>
      </trkpt>
      <trkpt lat="42.690392" lon="-1.770687">
        <ele>442.385</ele>
        <time>2021-07-28T10:32:48Z</time>
      </trkpt>
      <trkpt lat="42.690391" lon="-1.770664">
        <ele>443.392</ele>
        <time>2021-07-28T10:33:00Z</time>
      </trkpt>
      <trkpt lat="42.690389" lon="-1.770664">
        <ele>444.260</ele>
        <time>2021-07-28T10:33:10Z</time>
      </trkpt>
      <trkpt lat="42.690395" lon="-1.770678">
        <ele>444.746</ele>
        <time>2021-07-28T10:33:34Z</time>
      </trkpt>
      <trkpt lat="42.690391" lon="-1.770676">
        <ele>444.288</ele>
        <time>2021-07-28T10:33:50Z</time>
      </trkpt>
      <trkpt lat="42.690388" lon="-1.770668">
        <ele>443.316</ele>
        <time>2021-07-28T10:34:05Z</time>
      </trkpt>
      <trkpt lat="42.690375" lon="-1.770650">
        <ele>444.708</ele>
        <time>2021-07-28T10:34:15Z</time>
      </trkpt>
      <trkpt lat="42.690357" lon="-1.770660">
        <ele>443.781</ele>
        <time>2021-07-28T10:34:38Z</time>
      </trkpt>
      <trkpt lat="42.690358" lon="-1.770633">
        <ele>443.733</ele>
        <time>2021-07-28T10:34:48Z</time>
      </trkpt>
      <trkpt lat="42.690356" lon="-1.770625">
        <ele>443.790</ele>
        <time>2021-07-28T10:34:49Z</time>
      </trkpt>
      <trkpt lat="42.690281" lon="-1.770419">
        <ele>444.210</ele>
        <time>2021-07-28T10:34:58Z</time>
      </trkpt>
      <trkpt lat="42.690220" lon="-1.770244">
        <ele>443.774</ele>
        <time>2021-07-28T10:35:06Z</time>
      </trkpt>
      <trkpt lat="42.690165" lon="-1.770048">
        <ele>443.742</ele>
        <time>2021-07-28T10:35:15Z</time>
      </trkpt>
      <trkpt lat="42.690111" lon="-1.769854">
        <ele>445.769</ele>
        <time>2021-07-28T10:35:23Z</time>
      </trkpt>
      <trkpt lat="42.690047" lon="-1.769710">
        <ele>445.777</ele>
        <time>2021-07-28T10:35:31Z</time>
      </trkpt>
      <trkpt lat="42.690012" lon="-1.769608">
        <ele>446.147</ele>
        <time>2021-07-28T10:35:35Z</time>
      </trkpt>
      <trkpt lat="42.689991" lon="-1.769521">
        <ele>446.629</ele>
        <time>2021-07-28T10:35:38Z</time>
      </trkpt>
      <trkpt lat="42.690015" lon="-1.769465">
        <ele>447.121</ele>
        <time>2021-07-28T10:35:43Z</time>
      </trkpt>
      <trkpt lat="42.690008" lon="-1.769456">
        <ele>447.608</ele>
        <time>2021-07-28T10:35:51Z</time>
      </trkpt>
      <trkpt lat="42.690004" lon="-1.769458">
        <ele>447.671</ele>
        <time>2021-07-28T10:36:00Z</time>
      </trkpt>
      <trkpt lat="42.690014" lon="-1.769444">
        <ele>447.683</ele>
        <time>2021-07-28T10:36:13Z</time>
      </trkpt>
      <trkpt lat="42.690020" lon="-1.769443">
        <ele>448.120</ele>
        <time>2021-07-28T10:36:26Z</time>
      </trkpt>
      <trkpt lat="42.690015" lon="-1.769456">
        <ele>448.540</ele>
        <time>2021-07-28T10:36:44Z</time>
      </trkpt>
      <trkpt lat="42.689989" lon="-1.769450">
        <ele>451.484</ele>
        <time>2021-07-28T10:37:06Z</time>
      </trkpt>
      <trkpt lat="42.689983" lon="-1.769464">
        <ele>455.812</ele>
        <time>2021-07-28T10:37:24Z</time>
      </trkpt>
      <trkpt lat="42.689983" lon="-1.769488">
        <ele>459.669</ele>
        <time>2021-07-28T10:37:45Z</time>
      </trkpt>
      <trkpt lat="42.689977" lon="-1.769505">
        <ele>462.077</ele>
        <time>2021-07-28T10:38:07Z</time>
      </trkpt>
      <trkpt lat="42.689959" lon="-1.769499">
        <ele>464.964</ele>
        <time>2021-07-28T10:38:29Z</time>
      </trkpt>
      <trkpt lat="42.689955" lon="-1.769511">
        <ele>463.906</ele>
        <time>2021-07-28T10:38:46Z</time>
      </trkpt>
      <trkpt lat="42.689943" lon="-1.769498">
        <ele>463.916</ele>
        <time>2021-07-28T10:39:07Z</time>
      </trkpt>
      <trkpt lat="42.689947" lon="-1.769485">
        <ele>463.908</ele>
        <time>2021-07-28T10:39:24Z</time>
      </trkpt>
      <trkpt lat="42.690039" lon="-1.769437">
        <ele>442.813</ele>
        <time>2021-07-28T11:15:31Z</time>
      </trkpt>
      <trkpt lat="42.690006" lon="-1.769466">
        <ele>449.065</ele>
        <time>2021-07-28T11:15:42Z</time>
      </trkpt>
      <trkpt lat="42.689993" lon="-1.769478">
        <ele>450.052</ele>
        <time>2021-07-28T11:15:55Z</time>
      </trkpt>
      <trkpt lat="42.689993" lon="-1.769482">
        <ele>449.082</ele>
        <time>2021-07-28T11:16:02Z</time>
      </trkpt>
      <trkpt lat="42.689983" lon="-1.769443">
        <ele>448.146</ele>
        <time>2021-07-28T11:16:10Z</time>
      </trkpt>
      <trkpt lat="42.689914" lon="-1.769281">
        <ele>445.754</ele>
        <time>2021-07-28T11:16:22Z</time>
      </trkpt>
      <trkpt lat="42.689907" lon="-1.769254">
        <ele>445.211</ele>
        <time>2021-07-28T11:16:30Z</time>
      </trkpt>
      <trkpt lat="42.689910" lon="-1.769251">
        <ele>444.739</ele>
        <time>2021-07-28T11:16:47Z</time>
      </trkpt>
      <trkpt lat="42.689903" lon="-1.769238">
        <ele>444.256</ele>
        <time>2021-07-28T11:16:55Z</time>
      </trkpt>
      <trkpt lat="42.689898" lon="-1.769239">
        <ele>443.759</ele>
        <time>2021-07-28T11:16:56Z</time>
      </trkpt>
      <trkpt lat="42.689914" lon="-1.769318">
        <ele>443.314</ele>
        <time>2021-07-28T11:17:02Z</time>
      </trkpt>
      <trkpt lat="42.689983" lon="-1.769488">
        <ele>442.808</ele>
        <time>2021-07-28T11:17:08Z</time>
      </trkpt>
      <trkpt lat="42.690073" lon="-1.769706">
        <ele>442.812</ele>
        <time>2021-07-28T11:17:16Z</time>
      </trkpt>
      <trkpt lat="42.690152" lon="-1.769950">
        <ele>442.354</ele>
        <time>2021-07-28T11:17:24Z</time>
      </trkpt>
      <trkpt lat="42.690161" lon="-1.770197">
        <ele>440.951</ele>
        <time>2021-07-28T11:17:33Z</time>
      </trkpt>
      <trkpt lat="42.690133" lon="-1.770260">
        <ele>441.381</ele>
        <time>2021-07-28T11:17:37Z</time>
      </trkpt>
      <trkpt lat="42.690067" lon="-1.770518">
        <ele>440.965</ele>
        <time>2021-07-28T11:17:48Z</time>
      </trkpt>
      <trkpt lat="42.690048" lon="-1.770560">
        <ele>440.923</ele>
        <time>2021-07-28T11:17:54Z</time>
      </trkpt>
      <trkpt lat="42.690052" lon="-1.770557">
        <ele>441.320</ele>
        <time>2021-07-28T11:18:02Z</time>
      </trkpt>
      <trkpt lat="42.690049" lon="-1.770563">
        <ele>441.328</ele>
        <time>2021-07-28T11:18:18Z</time>
      </trkpt>
      <trkpt lat="42.690053" lon="-1.770549">
        <ele>440.988</ele>
        <time>2021-07-28T11:18:33Z</time>
      </trkpt>
      <trkpt lat="42.690042" lon="-1.770535">
        <ele>439.924</ele>
        <time>2021-07-28T11:18:49Z</time>
      </trkpt>
      <trkpt lat="42.690043" lon="-1.770530">
        <ele>439.426</ele>
        <time>2021-07-28T11:19:02Z</time>
      </trkpt>
      <trkpt lat="42.690042" lon="-1.770549">
        <ele>440.408</ele>
        <time>2021-07-28T11:19:12Z</time>
      </trkpt>
      <trkpt lat="42.690031" lon="-1.770547">
        <ele>440.465</ele>
        <time>2021-07-28T11:19:25Z</time>
      </trkpt>
      <trkpt lat="42.689998" lon="-1.770623">
        <ele>440.497</ele>
        <time>2021-07-28T11:19:33Z</time>
      </trkpt>
      <trkpt lat="42.689960" lon="-1.770707">
        <ele>439.944</ele>
        <time>2021-07-28T11:19:39Z</time>
      </trkpt>
      <trkpt lat="42.689976" lon="-1.770886">
        <ele>439.984</ele>
        <time>2021-07-28T11:19:46Z</time>
      </trkpt>
      <trkpt lat="42.689983" lon="-1.770932">
        <ele>439.988</ele>
        <time>2021-07-28T11:19:48Z</time>
      </trkpt>
      <trkpt lat="42.690039" lon="-1.770942">
        <ele>440.476</ele>
        <time>2021-07-28T11:19:54Z</time>
      </trkpt>
      <trkpt lat="42.690128" lon="-1.770868">
        <ele>441.873</ele>
        <time>2021-07-28T11:20:03Z</time>
      </trkpt>
      <trkpt lat="42.690216" lon="-1.770805">
        <ele>442.341</ele>
        <time>2021-07-28T11:20:12Z</time>
      </trkpt>
      <trkpt lat="42.690354" lon="-1.770704">
        <ele>441.812</ele>
        <time>2021-07-28T11:20:20Z</time>
      </trkpt>
      <trkpt lat="42.690572" lon="-1.770563">
        <ele>441.332</ele>
        <time>2021-07-28T11:20:29Z</time>
      </trkpt>
      <trkpt lat="42.690856" lon="-1.770394">
        <ele>439.905</ele>
        <time>2021-07-28T11:20:37Z</time>
      </trkpt>
      <trkpt lat="42.691183" lon="-1.770204">
        <ele>437.008</ele>
        <time>2021-07-28T11:20:44Z</time>
      </trkpt>
      <trkpt lat="42.691643" lon="-1.769967">
        <ele>434.158</ele>
        <time>2021-07-28T11:20:52Z</time>
      </trkpt>
      <trkpt lat="42.692150" lon="-1.769832">
        <ele>431.760</ele>
        <time>2021-07-28T11:20:59Z</time>
      </trkpt>
      <trkpt lat="42.692730" lon="-1.769774">
        <ele>429.367</ele>
        <time>2021-07-28T11:21:07Z</time>
      </trkpt>
      <trkpt lat="42.693503" lon="-1.769691">
        <ele>426.067</ele>
        <time>2021-07-28T11:21:17Z</time>
      </trkpt>
      <trkpt lat="42.693943" lon="-1.769531">
        <ele>425.051</ele>
        <time>2021-07-28T11:21:23Z</time>
      </trkpt>
      <trkpt lat="42.694319" lon="-1.769336">
        <ele>424.519</ele>
        <time>2021-07-28T11:21:30Z</time>
      </trkpt>
      <trkpt lat="42.694572" lon="-1.769179">
        <ele>424.566</ele>
        <time>2021-07-28T11:21:37Z</time>
      </trkpt>
      <trkpt lat="42.694864" lon="-1.768933">
        <ele>424.554</ele>
        <time>2021-07-28T11:21:47Z</time>
      </trkpt>
      <trkpt lat="42.695123" lon="-1.768690">
        <ele>425.085</ele>
        <time>2021-07-28T11:21:57Z</time>
      </trkpt>
      <trkpt lat="42.695365" lon="-1.768465">
        <ele>426.089</ele>
        <time>2021-07-28T11:22:07Z</time>
      </trkpt>
      <trkpt lat="42.695660" lon="-1.768171">
        <ele>426.017</ele>
        <time>2021-07-28T11:22:19Z</time>
      </trkpt>
      <trkpt lat="42.695907" lon="-1.767922">
        <ele>426.908</ele>
        <time>2021-07-28T11:22:30Z</time>
      </trkpt>
      <trkpt lat="42.696098" lon="-1.767710">
        <ele>426.975</ele>
        <time>2021-07-28T11:22:39Z</time>
      </trkpt>
      <trkpt lat="42.696328" lon="-1.767437">
        <ele>428.477</ele>
        <time>2021-07-28T11:22:50Z</time>
      </trkpt>
      <trkpt lat="42.696519" lon="-1.767205">
        <ele>428.864</ele>
        <time>2021-07-28T11:23:00Z</time>
      </trkpt>
      <trkpt lat="42.696706" lon="-1.766979">
        <ele>430.364</ele>
        <time>2021-07-28T11:23:10Z</time>
      </trkpt>
      <trkpt lat="42.696868" lon="-1.766775">
        <ele>431.248</ele>
        <time>2021-07-28T11:23:19Z</time>
      </trkpt>
      <trkpt lat="42.697009" lon="-1.766624">
        <ele>431.216</ele>
        <time>2021-07-28T11:23:27Z</time>
      </trkpt>
      <trkpt lat="42.697203" lon="-1.766486">
        <ele>431.783</ele>
        <time>2021-07-28T11:23:36Z</time>
      </trkpt>
      <trkpt lat="42.697504" lon="-1.766316">
        <ele>432.211</ele>
        <time>2021-07-28T11:23:48Z</time>
      </trkpt>
      <trkpt lat="42.697774" lon="-1.766165">
        <ele>432.231</ele>
        <time>2021-07-28T11:23:58Z</time>
      </trkpt>
      <trkpt lat="42.698079" lon="-1.766000">
        <ele>431.761</ele>
        <time>2021-07-28T11:24:09Z</time>
      </trkpt>
      <trkpt lat="42.698339" lon="-1.765848">
        <ele>433.207</ele>
        <time>2021-07-28T11:24:19Z</time>
      </trkpt>
      <trkpt lat="42.698600" lon="-1.765744">
        <ele>432.708</ele>
        <time>2021-07-28T11:24:28Z</time>
      </trkpt>
      <trkpt lat="42.698834" lon="-1.765696">
        <ele>433.290</ele>
        <time>2021-07-28T11:24:36Z</time>
      </trkpt>
      <trkpt lat="42.699120" lon="-1.765650">
        <ele>434.652</ele>
        <time>2021-07-28T11:24:46Z</time>
      </trkpt>
      <trkpt lat="42.699446" lon="-1.765594">
        <ele>434.619</ele>
        <time>2021-07-28T11:24:58Z</time>
      </trkpt>
      <trkpt lat="42.699861" lon="-1.765531">
        <ele>435.679</ele>
        <time>2021-07-28T11:25:13Z</time>
      </trkpt>
      <trkpt lat="42.700097" lon="-1.765487">
        <ele>435.113</ele>
        <time>2021-07-28T11:25:22Z</time>
      </trkpt>
      <trkpt lat="42.700368" lon="-1.765449">
        <ele>437.051</ele>
        <time>2021-07-28T11:25:32Z</time>
      </trkpt>
      <trkpt lat="42.700655" lon="-1.765389">
        <ele>437.578</ele>
        <time>2021-07-28T11:25:43Z</time>
      </trkpt>
      <trkpt lat="42.700872" lon="-1.765327">
        <ele>438.976</ele>
        <time>2021-07-28T11:25:52Z</time>
      </trkpt>
      <trkpt lat="42.701046" lon="-1.765247">
        <ele>439.477</ele>
        <time>2021-07-28T11:26:00Z</time>
      </trkpt>
      <trkpt lat="42.701270" lon="-1.765165">
        <ele>440.461</ele>
        <time>2021-07-28T11:26:10Z</time>
      </trkpt>
      <trkpt lat="42.701467" lon="-1.765098">
        <ele>441.327</ele>
        <time>2021-07-28T11:26:19Z</time>
      </trkpt>
      <trkpt lat="42.701697" lon="-1.765017">
        <ele>442.808</ele>
        <time>2021-07-28T11:26:30Z</time>
      </trkpt>
      <trkpt lat="42.701906" lon="-1.764960">
        <ele>443.364</ele>
        <time>2021-07-28T11:26:39Z</time>
      </trkpt>
      <trkpt lat="42.702126" lon="-1.764915">
        <ele>443.326</ele>
        <time>2021-07-28T11:26:48Z</time>
      </trkpt>
      <trkpt lat="42.702397" lon="-1.764870">
        <ele>443.763</ele>
        <time>2021-07-28T11:26:59Z</time>
      </trkpt>
      <trkpt lat="42.702658" lon="-1.764823">
        <ele>444.213</ele>
        <time>2021-07-28T11:27:10Z</time>
      </trkpt>
      <trkpt lat="42.702892" lon="-1.764783">
        <ele>444.247</ele>
        <time>2021-07-28T11:27:20Z</time>
      </trkpt>
      <trkpt lat="42.703188" lon="-1.764745">
        <ele>445.265</ele>
        <time>2021-07-28T11:27:33Z</time>
      </trkpt>
      <trkpt lat="42.703323" lon="-1.764716">
        <ele>446.642</ele>
        <time>2021-07-28T11:27:41Z</time>
      </trkpt>
      <trkpt lat="42.703480" lon="-1.764685">
        <ele>447.690</ele>
        <time>2021-07-28T11:27:49Z</time>
      </trkpt>
      <trkpt lat="42.703689" lon="-1.764621">
        <ele>448.578</ele>
        <time>2021-07-28T11:28:00Z</time>
      </trkpt>
      <trkpt lat="42.703899" lon="-1.764535">
        <ele>449.533</ele>
        <time>2021-07-28T11:28:11Z</time>
      </trkpt>
      <trkpt lat="42.704098" lon="-1.764458">
        <ele>450.026</ele>
        <time>2021-07-28T11:28:22Z</time>
      </trkpt>
      <trkpt lat="42.704299" lon="-1.764375">
        <ele>450.508</ele>
        <time>2021-07-28T11:28:33Z</time>
      </trkpt>
      <trkpt lat="42.704444" lon="-1.764314">
        <ele>451.464</ele>
        <time>2021-07-28T11:28:41Z</time>
      </trkpt>
      <trkpt lat="42.704607" lon="-1.764253">
        <ele>452.446</ele>
        <time>2021-07-28T11:28:50Z</time>
      </trkpt>
      <trkpt lat="42.704773" lon="-1.764174">
        <ele>454.313</ele>
        <time>2021-07-28T11:29:00Z</time>
      </trkpt>
      <trkpt lat="42.704932" lon="-1.764110">
        <ele>455.843</ele>
        <time>2021-07-28T11:29:10Z</time>
      </trkpt>
      <trkpt lat="42.705047" lon="-1.764063">
        <ele>457.237</ele>
        <time>2021-07-28T11:29:17Z</time>
      </trkpt>
      <trkpt lat="42.705158" lon="-1.764017">
        <ele>458.695</ele>
        <time>2021-07-28T11:29:25Z</time>
      </trkpt>
      <trkpt lat="42.705300" lon="-1.763936">
        <ele>460.162</ele>
        <time>2021-07-28T11:29:34Z</time>
      </trkpt>
      <trkpt lat="42.705452" lon="-1.763827">
        <ele>460.630</ele>
        <time>2021-07-28T11:29:44Z</time>
      </trkpt>
      <trkpt lat="42.705532" lon="-1.763763">
        <ele>460.669</ele>
        <time>2021-07-28T11:29:52Z</time>
      </trkpt>
      <trkpt lat="42.705632" lon="-1.763663">
        <ele>461.004</ele>
        <time>2021-07-28T11:30:01Z</time>
      </trkpt>
      <trkpt lat="42.705795" lon="-1.763490">
        <ele>462.524</ele>
        <time>2021-07-28T11:30:14Z</time>
      </trkpt>
      <trkpt lat="42.705953" lon="-1.763338">
        <ele>464.408</ele>
        <time>2021-07-28T11:30:25Z</time>
      </trkpt>
      <trkpt lat="42.706072" lon="-1.763217">
        <ele>465.413</ele>
        <time>2021-07-28T11:30:33Z</time>
      </trkpt>
      <trkpt lat="42.706246" lon="-1.763050">
        <ele>466.895</ele>
        <time>2021-07-28T11:30:45Z</time>
      </trkpt>
      <trkpt lat="42.706392" lon="-1.762904">
        <ele>468.732</ele>
        <time>2021-07-28T11:30:55Z</time>
      </trkpt>
      <trkpt lat="42.706443" lon="-1.762865">
        <ele>469.752</ele>
        <time>2021-07-28T11:31:00Z</time>
      </trkpt>
      <trkpt lat="42.706450" lon="-1.762854">
        <ele>469.786</ele>
        <time>2021-07-28T11:31:01Z</time>
      </trkpt>
      <trkpt lat="42.706524" lon="-1.762772">
        <ele>471.144</ele>
        <time>2021-07-28T11:31:09Z</time>
      </trkpt>
      <trkpt lat="42.706619" lon="-1.762671">
        <ele>472.691</ele>
        <time>2021-07-28T11:31:19Z</time>
      </trkpt>
      <trkpt lat="42.706720" lon="-1.762567">
        <ele>474.059</ele>
        <time>2021-07-28T11:31:30Z</time>
      </trkpt>
      <trkpt lat="42.706816" lon="-1.762464">
        <ele>475.522</ele>
        <time>2021-07-28T11:31:40Z</time>
      </trkpt>
      <trkpt lat="42.706887" lon="-1.762395">
        <ele>476.962</ele>
        <time>2021-07-28T11:31:48Z</time>
      </trkpt>
      <trkpt lat="42.706914" lon="-1.762367">
        <ele>476.908</ele>
        <time>2021-07-28T11:31:55Z</time>
      </trkpt>
      <trkpt lat="42.706939" lon="-1.762346">
        <ele>476.408</ele>
        <time>2021-07-28T11:32:03Z</time>
      </trkpt>
      <trkpt lat="42.706929" lon="-1.762343">
        <ele>476.979</ele>
        <time>2021-07-28T11:32:22Z</time>
      </trkpt>
      <trkpt lat="42.706983" lon="-1.762293">
        <ele>476.951</ele>
        <time>2021-07-28T11:32:29Z</time>
      </trkpt>
      <trkpt lat="42.707093" lon="-1.762184">
        <ele>478.378</ele>
        <time>2021-07-28T11:32:38Z</time>
      </trkpt>
      <trkpt lat="42.707231" lon="-1.762042">
        <ele>479.888</ele>
        <time>2021-07-28T11:32:48Z</time>
      </trkpt>
      <trkpt lat="42.707399" lon="-1.761862">
        <ele>481.272</ele>
        <time>2021-07-28T11:32:59Z</time>
      </trkpt>
      <trkpt lat="42.707550" lon="-1.761709">
        <ele>483.270</ele>
        <time>2021-07-28T11:33:08Z</time>
      </trkpt>
      <trkpt lat="42.707686" lon="-1.761557">
        <ele>484.177</ele>
        <time>2021-07-28T11:33:17Z</time>
      </trkpt>
      <trkpt lat="42.707853" lon="-1.761380">
        <ele>484.615</ele>
        <time>2021-07-28T11:33:27Z</time>
      </trkpt>
      <trkpt lat="42.708043" lon="-1.761222">
        <ele>485.618</ele>
        <time>2021-07-28T11:33:37Z</time>
      </trkpt>
      <trkpt lat="42.708224" lon="-1.761246">
        <ele>486.098</ele>
        <time>2021-07-28T11:33:44Z</time>
      </trkpt>
      <trkpt lat="42.708480" lon="-1.761350">
        <ele>487.017</ele>
        <time>2021-07-28T11:33:55Z</time>
      </trkpt>
      <trkpt lat="42.708678" lon="-1.761359">
        <ele>487.508</ele>
        <time>2021-07-28T11:34:04Z</time>
      </trkpt>
      <trkpt lat="42.708858" lon="-1.761199">
        <ele>488.048</ele>
        <time>2021-07-28T11:34:13Z</time>
      </trkpt>
      <trkpt lat="42.709028" lon="-1.760961">
        <ele>488.480</ele>
        <time>2021-07-28T11:34:24Z</time>
      </trkpt>
      <trkpt lat="42.709201" lon="-1.760707">
        <ele>488.437</ele>
        <time>2021-07-28T11:34:35Z</time>
      </trkpt>
      <trkpt lat="42.709340" lon="-1.760511">
        <ele>489.427</ele>
        <time>2021-07-28T11:34:45Z</time>
      </trkpt>
      <trkpt lat="42.709471" lon="-1.760288">
        <ele>490.441</ele>
        <time>2021-07-28T11:34:55Z</time>
      </trkpt>
      <trkpt lat="42.709613" lon="-1.760062">
        <ele>490.479</ele>
        <time>2021-07-28T11:35:05Z</time>
      </trkpt>
      <trkpt lat="42.709708" lon="-1.759933">
        <ele>490.856</ele>
        <time>2021-07-28T11:35:12Z</time>
      </trkpt>
      <trkpt lat="42.709854" lon="-1.759854">
        <ele>491.364</ele>
        <time>2021-07-28T11:35:20Z</time>
      </trkpt>
      <trkpt lat="42.709994" lon="-1.759912">
        <ele>492.352</ele>
        <time>2021-07-28T11:35:27Z</time>
      </trkpt>
      <trkpt lat="42.710181" lon="-1.759873">
        <ele>493.253</ele>
        <time>2021-07-28T11:35:36Z</time>
      </trkpt>
      <trkpt lat="42.710295" lon="-1.759749">
        <ele>493.208</ele>
        <time>2021-07-28T11:35:43Z</time>
      </trkpt>
      <trkpt lat="42.710439" lon="-1.759548">
        <ele>494.708</ele>
        <time>2021-07-28T11:35:53Z</time>
      </trkpt>
      <trkpt lat="42.710491" lon="-1.759518">
        <ele>494.772</ele>
        <time>2021-07-28T11:35:56Z</time>
      </trkpt>
      <trkpt lat="42.710508" lon="-1.759510">
        <ele>495.274</ele>
        <time>2021-07-28T11:35:57Z</time>
      </trkpt>
      <trkpt lat="42.710525" lon="-1.759506">
        <ele>495.261</ele>
        <time>2021-07-28T11:35:58Z</time>
      </trkpt>
      <trkpt lat="42.710544" lon="-1.759505">
        <ele>495.261</ele>
        <time>2021-07-28T11:35:59Z</time>
      </trkpt>
      <trkpt lat="42.710563" lon="-1.759504">
        <ele>495.275</ele>
        <time>2021-07-28T11:36:00Z</time>
      </trkpt>
      <trkpt lat="42.710581" lon="-1.759504">
        <ele>495.223</ele>
        <time>2021-07-28T11:36:01Z</time>
      </trkpt>
      <trkpt lat="42.710600" lon="-1.759503">
        <ele>495.290</ele>
        <time>2021-07-28T11:36:02Z</time>
      </trkpt>
      <trkpt lat="42.710620" lon="-1.759502">
        <ele>495.298</ele>
        <time>2021-07-28T11:36:03Z</time>
      </trkpt>
      <trkpt lat="42.710813" lon="-1.759453">
        <ele>494.755</ele>
        <time>2021-07-28T11:36:10Z</time>
      </trkpt>
      <trkpt lat="42.711093" lon="-1.759248">
        <ele>491.307</ele>
        <time>2021-07-28T11:36:16Z</time>
      </trkpt>
      <trkpt lat="42.711503" lon="-1.758867">
        <ele>487.517</ele>
        <time>2021-07-28T11:36:23Z</time>
      </trkpt>
      <trkpt lat="42.711930" lon="-1.758638">
        <ele>486.008</ele>
        <time>2021-07-28T11:36:30Z</time>
      </trkpt>
      <trkpt lat="42.712363" lon="-1.758475">
        <ele>484.172</ele>
        <time>2021-07-28T11:36:38Z</time>
      </trkpt>
      <trkpt lat="42.712512" lon="-1.758435">
        <ele>484.144</ele>
        <time>2021-07-28T11:36:41Z</time>
      </trkpt>
      <trkpt lat="42.712561" lon="-1.758436">
        <ele>484.131</ele>
        <time>2021-07-28T11:36:42Z</time>
      </trkpt>
      <trkpt lat="42.712724" lon="-1.758436">
        <ele>483.631</ele>
        <time>2021-07-28T11:36:45Z</time>
      </trkpt>
      <trkpt lat="42.713244" lon="-1.758489">
        <ele>482.795</ele>
        <time>2021-07-28T11:36:54Z</time>
      </trkpt>
      <trkpt lat="42.713869" lon="-1.758577">
        <ele>480.883</ele>
        <time>2021-07-28T11:37:05Z</time>
      </trkpt>
      <trkpt lat="42.714333" lon="-1.758652">
        <ele>479.330</ele>
        <time>2021-07-28T11:37:15Z</time>
      </trkpt>
      <trkpt lat="42.714612" lon="-1.758745">
        <ele>479.328</ele>
        <time>2021-07-28T11:37:23Z</time>
      </trkpt>
      <trkpt lat="42.714969" lon="-1.758956">
        <ele>478.848</ele>
        <time>2021-07-28T11:37:33Z</time>
      </trkpt>
      <trkpt lat="42.715269" lon="-1.759172">
        <ele>479.861</ele>
        <time>2021-07-28T11:37:43Z</time>
      </trkpt>
      <trkpt lat="42.715433" lon="-1.759292">
        <ele>481.717</ele>
        <time>2021-07-28T11:37:52Z</time>
      </trkpt>
      <trkpt lat="42.715625" lon="-1.759438">
        <ele>482.708</ele>
        <time>2021-07-28T11:38:02Z</time>
      </trkpt>
      <trkpt lat="42.715815" lon="-1.759577">
        <ele>484.641</ele>
        <time>2021-07-28T11:38:12Z</time>
      </trkpt>
      <trkpt lat="42.715950" lon="-1.759670">
        <ele>485.193</ele>
        <time>2021-07-28T11:38:20Z</time>
      </trkpt>
      <trkpt lat="42.716106" lon="-1.759787">
        <ele>485.670</ele>
        <time>2021-07-28T11:38:29Z</time>
      </trkpt>
      <trkpt lat="42.716260" lon="-1.759901">
        <ele>485.630</ele>
        <time>2021-07-28T11:38:38Z</time>
      </trkpt>
      <trkpt lat="42.716400" lon="-1.760001">
        <ele>486.574</ele>
        <time>2021-07-28T11:38:46Z</time>
      </trkpt>
      <trkpt lat="42.716595" lon="-1.760157">
        <ele>487.562</ele>
        <time>2021-07-28T11:38:57Z</time>
      </trkpt>
      <trkpt lat="42.716798" lon="-1.760315">
        <ele>487.599</ele>
        <time>2021-07-28T11:39:08Z</time>
      </trkpt>
      <trkpt lat="42.716970" lon="-1.760432">
        <ele>488.027</ele>
        <time>2021-07-28T11:39:17Z</time>
      </trkpt>
      <trkpt lat="42.717187" lon="-1.760595">
        <ele>488.996</ele>
        <time>2021-07-28T11:39:29Z</time>
      </trkpt>
      <trkpt lat="42.717395" lon="-1.760758">
        <ele>490.431</ele>
        <time>2021-07-28T11:39:40Z</time>
      </trkpt>
      <trkpt lat="42.717628" lon="-1.760935">
        <ele>491.324</ele>
        <time>2021-07-28T11:39:53Z</time>
      </trkpt>
      <trkpt lat="42.717849" lon="-1.761098">
        <ele>493.208</ele>
        <time>2021-07-28T11:40:06Z</time>
      </trkpt>
      <trkpt lat="42.717987" lon="-1.761185">
        <ele>493.776</ele>
        <time>2021-07-28T11:40:15Z</time>
      </trkpt>
      <trkpt lat="42.718149" lon="-1.761312">
        <ele>495.768</ele>
        <time>2021-07-28T11:40:26Z</time>
      </trkpt>
      <trkpt lat="42.718312" lon="-1.761428">
        <ele>497.115</ele>
        <time>2021-07-28T11:40:37Z</time>
      </trkpt>
      <trkpt lat="42.718459" lon="-1.761537">
        <ele>498.155</ele>
        <time>2021-07-28T11:40:47Z</time>
      </trkpt>
      <trkpt lat="42.718533" lon="-1.761606">
        <ele>498.569</ele>
        <time>2021-07-28T11:40:54Z</time>
      </trkpt>
      <trkpt lat="42.718562" lon="-1.761632">
        <ele>500.097</ele>
        <time>2021-07-28T11:41:07Z</time>
      </trkpt>
      <trkpt lat="42.718573" lon="-1.761637">
        <ele>500.044</ele>
        <time>2021-07-28T11:41:08Z</time>
      </trkpt>
      <trkpt lat="42.718587" lon="-1.761641">
        <ele>500.082</ele>
        <time>2021-07-28T11:41:09Z</time>
      </trkpt>
      <trkpt lat="42.718600" lon="-1.761646">
        <ele>500.099</ele>
        <time>2021-07-28T11:41:10Z</time>
      </trkpt>
      <trkpt lat="42.718613" lon="-1.761654">
        <ele>500.007</ele>
        <time>2021-07-28T11:41:11Z</time>
      </trkpt>
      <trkpt lat="42.718625" lon="-1.761664">
        <ele>500.527</ele>
        <time>2021-07-28T11:41:12Z</time>
      </trkpt>
      <trkpt lat="42.718637" lon="-1.761675">
        <ele>500.508</ele>
        <time>2021-07-28T11:41:13Z</time>
      </trkpt>
      <trkpt lat="42.718726" lon="-1.761750">
        <ele>501.966</ele>
        <time>2021-07-28T11:41:20Z</time>
      </trkpt>
      <trkpt lat="42.718754" lon="-1.761752">
        <ele>502.438</ele>
        <time>2021-07-28T11:41:22Z</time>
      </trkpt>
      <trkpt lat="42.718768" lon="-1.761760">
        <ele>502.495</ele>
        <time>2021-07-28T11:41:23Z</time>
      </trkpt>
      <trkpt lat="42.718893" lon="-1.761843">
        <ele>502.915</ele>
        <time>2021-07-28T11:41:32Z</time>
      </trkpt>
      <trkpt lat="42.719031" lon="-1.761931">
        <ele>505.369</ele>
        <time>2021-07-28T11:41:42Z</time>
      </trkpt>
      <trkpt lat="42.719180" lon="-1.762013">
        <ele>507.257</ele>
        <time>2021-07-28T11:41:52Z</time>
      </trkpt>
      <trkpt lat="42.719300" lon="-1.762057">
        <ele>508.184</ele>
        <time>2021-07-28T11:42:00Z</time>
      </trkpt>
      <trkpt lat="42.719422" lon="-1.762091">
        <ele>509.142</ele>
        <time>2021-07-28T11:42:08Z</time>
      </trkpt>
      <trkpt lat="42.719650" lon="-1.762117">
        <ele>510.651</ele>
        <time>2021-07-28T11:42:22Z</time>
      </trkpt>
      <trkpt lat="42.719802" lon="-1.762115">
        <ele>511.501</ele>
        <time>2021-07-28T11:42:32Z</time>
      </trkpt>
      <trkpt lat="42.719848" lon="-1.762123">
        <ele>512.011</ele>
        <time>2021-07-28T11:42:37Z</time>
      </trkpt>
      <trkpt lat="42.719859" lon="-1.762119">
        <ele>512.008</ele>
        <time>2021-07-28T11:42:38Z</time>
      </trkpt>
      <trkpt lat="42.719870" lon="-1.762121">
        <ele>512.082</ele>
        <time>2021-07-28T11:42:39Z</time>
      </trkpt>
      <trkpt lat="42.719882" lon="-1.762123">
        <ele>512.044</ele>
        <time>2021-07-28T11:42:40Z</time>
      </trkpt>
      <trkpt lat="42.719896" lon="-1.762120">
        <ele>512.091</ele>
        <time>2021-07-28T11:42:41Z</time>
      </trkpt>
      <trkpt lat="42.719911" lon="-1.762119">
        <ele>512.031</ele>
        <time>2021-07-28T11:42:42Z</time>
      </trkpt>
      <trkpt lat="42.719924" lon="-1.762120">
        <ele>512.075</ele>
        <time>2021-07-28T11:42:43Z</time>
      </trkpt>
      <trkpt lat="42.719939" lon="-1.762121">
        <ele>512.583</ele>
        <time>2021-07-28T11:42:44Z</time>
      </trkpt>
      <trkpt lat="42.719954" lon="-1.762123">
        <ele>512.520</ele>
        <time>2021-07-28T11:42:45Z</time>
      </trkpt>
      <trkpt lat="42.719966" lon="-1.762126">
        <ele>513.068</ele>
        <time>2021-07-28T11:42:46Z</time>
      </trkpt>
      <trkpt lat="42.719981" lon="-1.762126">
        <ele>513.029</ele>
        <time>2021-07-28T11:42:47Z</time>
      </trkpt>
      <trkpt lat="42.719997" lon="-1.762127">
        <ele>513.400</ele>
        <time>2021-07-28T11:42:48Z</time>
      </trkpt>
      <trkpt lat="42.720106" lon="-1.762121">
        <ele>514.920</ele>
        <time>2021-07-28T11:42:55Z</time>
      </trkpt>
      <trkpt lat="42.720245" lon="-1.762109">
        <ele>514.908</ele>
        <time>2021-07-28T11:43:04Z</time>
      </trkpt>
      <trkpt lat="42.720378" lon="-1.762103">
        <ele>515.479</ele>
        <time>2021-07-28T11:43:12Z</time>
      </trkpt>
      <trkpt lat="42.720495" lon="-1.762098">
        <ele>516.331</ele>
        <time>2021-07-28T11:43:20Z</time>
      </trkpt>
      <trkpt lat="42.720616" lon="-1.762099">
        <ele>517.388</ele>
        <time>2021-07-28T11:43:29Z</time>
      </trkpt>
      <trkpt lat="42.720712" lon="-1.762086">
        <ele>518.798</ele>
        <time>2021-07-28T11:43:37Z</time>
      </trkpt>
      <trkpt lat="42.720713" lon="-1.762091">
        <ele>519.212</ele>
        <time>2021-07-28T11:43:54Z</time>
      </trkpt>
      <trkpt lat="42.720756" lon="-1.762108">
        <ele>519.260</ele>
        <time>2021-07-28T11:44:03Z</time>
      </trkpt>
      <trkpt lat="42.720909" lon="-1.762083">
        <ele>520.617</ele>
        <time>2021-07-28T11:44:11Z</time>
      </trkpt>
      <trkpt lat="42.721100" lon="-1.762085">
        <ele>521.135</ele>
        <time>2021-07-28T11:44:22Z</time>
      </trkpt>
      <trkpt lat="42.721244" lon="-1.762083">
        <ele>521.621</ele>
        <time>2021-07-28T11:44:30Z</time>
      </trkpt>
      <trkpt lat="42.721396" lon="-1.762070">
        <ele>523.041</ele>
        <time>2021-07-28T11:44:39Z</time>
      </trkpt>
      <trkpt lat="42.721573" lon="-1.762056">
        <ele>525.005</ele>
        <time>2021-07-28T11:44:50Z</time>
      </trkpt>
      <trkpt lat="42.721746" lon="-1.762048">
        <ele>525.908</ele>
        <time>2021-07-28T11:45:01Z</time>
      </trkpt>
      <trkpt lat="42.721887" lon="-1.762042">
        <ele>526.919</ele>
        <time>2021-07-28T11:45:10Z</time>
      </trkpt>
      <trkpt lat="42.722051" lon="-1.762036">
        <ele>528.831</ele>
        <time>2021-07-28T11:45:20Z</time>
      </trkpt>
      <trkpt lat="42.722155" lon="-1.762043">
        <ele>528.848</ele>
        <time>2021-07-28T11:45:27Z</time>
      </trkpt>
      <trkpt lat="42.722291" lon="-1.762032">
        <ele>529.878</ele>
        <time>2021-07-28T11:45:35Z</time>
      </trkpt>
      <trkpt lat="42.722424" lon="-1.762036">
        <ele>531.262</ele>
        <time>2021-07-28T11:45:43Z</time>
      </trkpt>
      <trkpt lat="42.722585" lon="-1.762024">
        <ele>532.270</ele>
        <time>2021-07-28T11:45:53Z</time>
      </trkpt>
      <trkpt lat="42.722735" lon="-1.762006">
        <ele>533.197</ele>
        <time>2021-07-28T11:46:01Z</time>
      </trkpt>
      <trkpt lat="42.722905" lon="-1.762008">
        <ele>534.165</ele>
        <time>2021-07-28T11:46:10Z</time>
      </trkpt>
      <trkpt lat="42.723049" lon="-1.762000">
        <ele>535.188</ele>
        <time>2021-07-28T11:46:19Z</time>
      </trkpt>
      <trkpt lat="42.723214" lon="-1.761996">
        <ele>536.524</ele>
        <time>2021-07-28T11:46:28Z</time>
      </trkpt>
      <trkpt lat="42.723358" lon="-1.761995">
        <ele>537.526</ele>
        <time>2021-07-28T11:46:36Z</time>
      </trkpt>
      <trkpt lat="42.723519" lon="-1.761989">
        <ele>538.908</ele>
        <time>2021-07-28T11:46:44Z</time>
      </trkpt>
      <trkpt lat="42.723746" lon="-1.761989">
        <ele>539.975</ele>
        <time>2021-07-28T11:46:55Z</time>
      </trkpt>
      <trkpt lat="42.723965" lon="-1.761921">
        <ele>539.917</ele>
        <time>2021-07-28T11:47:05Z</time>
      </trkpt>
      <trkpt lat="42.724077" lon="-1.761777">
        <ele>539.944</ele>
        <time>2021-07-28T11:47:11Z</time>
      </trkpt>
      <trkpt lat="42.724237" lon="-1.761738">
        <ele>540.444</ele>
        <time>2021-07-28T11:47:18Z</time>
      </trkpt>
      <trkpt lat="42.724362" lon="-1.761833">
        <ele>540.488</ele>
        <time>2021-07-28T11:47:24Z</time>
      </trkpt>
      <trkpt lat="42.724518" lon="-1.761956">
        <ele>541.336</ele>
        <time>2021-07-28T11:47:32Z</time>
      </trkpt>
      <trkpt lat="42.724748" lon="-1.762028">
        <ele>541.343</ele>
        <time>2021-07-28T11:47:41Z</time>
      </trkpt>
      <trkpt lat="42.724948" lon="-1.762113">
        <ele>541.831</ele>
        <time>2021-07-28T11:47:49Z</time>
      </trkpt>
      <trkpt lat="42.725222" lon="-1.762270">
        <ele>542.882</ele>
        <time>2021-07-28T11:48:00Z</time>
      </trkpt>
      <trkpt lat="42.725489" lon="-1.762491">
        <ele>543.243</ele>
        <time>2021-07-28T11:48:11Z</time>
      </trkpt>
      <trkpt lat="42.725632" lon="-1.762626">
        <ele>543.717</ele>
        <time>2021-07-28T11:48:18Z</time>
      </trkpt>
      <trkpt lat="42.725653" lon="-1.762654">
        <ele>544.208</ele>
        <time>2021-07-28T11:48:19Z</time>
      </trkpt>
      <trkpt lat="42.725886" lon="-1.762991">
        <ele>545.635</ele>
        <time>2021-07-28T11:48:29Z</time>
      </trkpt>
      <trkpt lat="42.726090" lon="-1.763366">
        <ele>547.137</ele>
        <time>2021-07-28T11:48:40Z</time>
      </trkpt>
      <trkpt lat="42.726251" lon="-1.763633">
        <ele>547.634</ele>
        <time>2021-07-28T11:48:49Z</time>
      </trkpt>
      <trkpt lat="42.726423" lon="-1.763800">
        <ele>548.064</ele>
        <time>2021-07-28T11:48:56Z</time>
      </trkpt>
      <trkpt lat="42.726452" lon="-1.764099">
        <ele>548.068</ele>
        <time>2021-07-28T11:49:03Z</time>
      </trkpt>
      <trkpt lat="42.726470" lon="-1.764343">
        <ele>548.586</ele>
        <time>2021-07-28T11:49:09Z</time>
      </trkpt>
      <trkpt lat="42.726565" lon="-1.764612">
        <ele>549.523</ele>
        <time>2021-07-28T11:49:17Z</time>
      </trkpt>
      <trkpt lat="42.726648" lon="-1.764859">
        <ele>550.941</ele>
        <time>2021-07-28T11:49:26Z</time>
      </trkpt>
      <trkpt lat="42.726732" lon="-1.765178">
        <ele>552.471</ele>
        <time>2021-07-28T11:49:35Z</time>
      </trkpt>
      <trkpt lat="42.726779" lon="-1.765563">
        <ele>552.441</ele>
        <time>2021-07-28T11:49:44Z</time>
      </trkpt>
      <trkpt lat="42.726799" lon="-1.765953">
        <ele>551.915</ele>
        <time>2021-07-28T11:49:54Z</time>
      </trkpt>
      <trkpt lat="42.726889" lon="-1.766178">
        <ele>553.308</ele>
        <time>2021-07-28T11:50:01Z</time>
      </trkpt>
      <trkpt lat="42.726967" lon="-1.766228">
        <ele>553.884</ele>
        <time>2021-07-28T11:50:05Z</time>
      </trkpt>
      <trkpt lat="42.727088" lon="-1.766232">
        <ele>554.886</ele>
        <time>2021-07-28T11:50:12Z</time>
      </trkpt>
      <trkpt lat="42.727294" lon="-1.766208">
        <ele>555.773</ele>
        <time>2021-07-28T11:50:23Z</time>
      </trkpt>
      <trkpt lat="42.727455" lon="-1.766178">
        <ele>557.273</ele>
        <time>2021-07-28T11:50:33Z</time>
      </trkpt>
      <trkpt lat="42.727633" lon="-1.766158">
        <ele>559.137</ele>
        <time>2021-07-28T11:50:43Z</time>
      </trkpt>
      <trkpt lat="42.727671" lon="-1.766157">
        <ele>560.145</ele>
        <time>2021-07-28T11:50:49Z</time>
      </trkpt>
      <trkpt lat="42.727687" lon="-1.766154">
        <ele>560.582</ele>
        <time>2021-07-28T11:51:05Z</time>
      </trkpt>
      <trkpt lat="42.727699" lon="-1.766155">
        <ele>561.080</ele>
        <time>2021-07-28T11:51:23Z</time>
      </trkpt>
      <trkpt lat="42.727733" lon="-1.766145">
        <ele>561.047</ele>
        <time>2021-07-28T11:51:49Z</time>
      </trkpt>
      <trkpt lat="42.727740" lon="-1.766164">
        <ele>560.129</ele>
        <time>2021-07-28T11:51:59Z</time>
      </trkpt>
      <trkpt lat="42.727728" lon="-1.766158">
        <ele>560.121</ele>
        <time>2021-07-28T11:52:13Z</time>
      </trkpt>
      <trkpt lat="42.727734" lon="-1.766157">
        <ele>560.108</ele>
        <time>2021-07-28T11:52:29Z</time>
      </trkpt>
      <trkpt lat="42.727748" lon="-1.766160">
        <ele>560.581</ele>
        <time>2021-07-28T11:52:41Z</time>
      </trkpt>
      <trkpt lat="42.727760" lon="-1.766162">
        <ele>560.553</ele>
        <time>2021-07-28T11:52:42Z</time>
      </trkpt>
      <trkpt lat="42.727781" lon="-1.766159">
        <ele>560.520</ele>
        <time>2021-07-28T11:52:44Z</time>
      </trkpt>
      <trkpt lat="42.727793" lon="-1.766161">
        <ele>560.590</ele>
        <time>2021-07-28T11:52:45Z</time>
      </trkpt>
      <trkpt lat="42.727805" lon="-1.766161">
        <ele>560.554</ele>
        <time>2021-07-28T11:52:46Z</time>
      </trkpt>
      <trkpt lat="42.727817" lon="-1.766160">
        <ele>561.012</ele>
        <time>2021-07-28T11:52:47Z</time>
      </trkpt>
      <trkpt lat="42.727829" lon="-1.766163">
        <ele>561.059</ele>
        <time>2021-07-28T11:52:48Z</time>
      </trkpt>
      <trkpt lat="42.727953" lon="-1.766164">
        <ele>562.587</ele>
        <time>2021-07-28T11:52:57Z</time>
      </trkpt>
      <trkpt lat="42.728097" lon="-1.766164">
        <ele>564.414</ele>
        <time>2021-07-28T11:53:06Z</time>
      </trkpt>
      <trkpt lat="42.728273" lon="-1.766176">
        <ele>567.354</ele>
        <time>2021-07-28T11:53:16Z</time>
      </trkpt>
      <trkpt lat="42.728391" lon="-1.766175">
        <ele>569.209</ele>
        <time>2021-07-28T11:53:23Z</time>
      </trkpt>
      <trkpt lat="42.728552" lon="-1.766165">
        <ele>571.108</ele>
        <time>2021-07-28T11:53:32Z</time>
      </trkpt>
      <trkpt lat="42.728677" lon="-1.766136">
        <ele>573.078</ele>
        <time>2021-07-28T11:53:41Z</time>
      </trkpt>
      <trkpt lat="42.728771" lon="-1.766136">
        <ele>574.080</ele>
        <time>2021-07-28T11:53:48Z</time>
      </trkpt>
      <trkpt lat="42.728955" lon="-1.766109">
        <ele>574.077</ele>
        <time>2021-07-28T11:53:58Z</time>
      </trkpt>
      <trkpt lat="42.729134" lon="-1.766080">
        <ele>575.087</ele>
        <time>2021-07-28T11:54:08Z</time>
      </trkpt>
      <trkpt lat="42.729276" lon="-1.766028">
        <ele>575.471</ele>
        <time>2021-07-28T11:54:16Z</time>
      </trkpt>
      <trkpt lat="42.729358" lon="-1.766014">
        <ele>575.929</ele>
        <time>2021-07-28T11:54:21Z</time>
      </trkpt>
      <trkpt lat="42.729373" lon="-1.766007">
        <ele>576.496</ele>
        <time>2021-07-28T11:54:22Z</time>
      </trkpt>
      <trkpt lat="42.729387" lon="-1.766002">
        <ele>576.484</ele>
        <time>2021-07-28T11:54:23Z</time>
      </trkpt>
      <trkpt lat="42.729545" lon="-1.765927">
        <ele>576.431</ele>
        <time>2021-07-28T11:54:33Z</time>
      </trkpt>
      <trkpt lat="42.729685" lon="-1.765875">
        <ele>577.461</ele>
        <time>2021-07-28T11:54:42Z</time>
      </trkpt>
      <trkpt lat="42.729849" lon="-1.765785">
        <ele>577.807</ele>
        <time>2021-07-28T11:54:53Z</time>
      </trkpt>
      <trkpt lat="42.729975" lon="-1.765702">
        <ele>578.808</ele>
        <time>2021-07-28T11:55:02Z</time>
      </trkpt>
      <trkpt lat="42.730125" lon="-1.765592">
        <ele>580.280</ele>
        <time>2021-07-28T11:55:13Z</time>
      </trkpt>
      <trkpt lat="42.730232" lon="-1.765495">
        <ele>581.262</ele>
        <time>2021-07-28T11:55:22Z</time>
      </trkpt>
      <trkpt lat="42.730350" lon="-1.765394">
        <ele>582.229</ele>
        <time>2021-07-28T11:55:32Z</time>
      </trkpt>
      <trkpt lat="42.730476" lon="-1.765254">
        <ele>583.159</ele>
        <time>2021-07-28T11:55:44Z</time>
      </trkpt>
      <trkpt lat="42.730571" lon="-1.765164">
        <ele>583.663</ele>
        <time>2021-07-28T11:55:53Z</time>
      </trkpt>
      <trkpt lat="42.730679" lon="-1.765036">
        <ele>585.191</ele>
        <time>2021-07-28T11:56:04Z</time>
      </trkpt>
      <trkpt lat="42.730781" lon="-1.764934">
        <ele>586.018</ele>
        <time>2021-07-28T11:56:13Z</time>
      </trkpt>
      <trkpt lat="42.730894" lon="-1.764789">
        <ele>587.566</ele>
        <time>2021-07-28T11:56:24Z</time>
      </trkpt>
      <trkpt lat="42.730976" lon="-1.764709">
        <ele>587.923</ele>
        <time>2021-07-28T11:56:32Z</time>
      </trkpt>
      <trkpt lat="42.730987" lon="-1.764702">
        <ele>588.483</ele>
        <time>2021-07-28T11:56:33Z</time>
      </trkpt>
      <trkpt lat="42.731002" lon="-1.764683">
        <ele>588.411</ele>
        <time>2021-07-28T11:56:35Z</time>
      </trkpt>
      <trkpt lat="42.731022" lon="-1.764636">
        <ele>588.408</ele>
        <time>2021-07-28T11:56:39Z</time>
      </trkpt>
      <trkpt lat="42.731030" lon="-1.764625">
        <ele>588.989</ele>
        <time>2021-07-28T11:56:40Z</time>
      </trkpt>
      <trkpt lat="42.731052" lon="-1.764605">
        <ele>589.441</ele>
        <time>2021-07-28T11:56:42Z</time>
      </trkpt>
      <trkpt lat="42.731060" lon="-1.764597">
        <ele>589.438</ele>
        <time>2021-07-28T11:56:43Z</time>
      </trkpt>
      <trkpt lat="42.731149" lon="-1.764494">
        <ele>589.958</ele>
        <time>2021-07-28T11:56:52Z</time>
      </trkpt>
      <trkpt lat="42.731239" lon="-1.764386">
        <ele>592.322</ele>
        <time>2021-07-28T11:57:01Z</time>
      </trkpt>
      <trkpt lat="42.731252" lon="-1.764378">
        <ele>592.710</ele>
        <time>2021-07-28T11:57:02Z</time>
      </trkpt>
      <trkpt lat="42.731263" lon="-1.764366">
        <ele>592.787</ele>
        <time>2021-07-28T11:57:03Z</time>
      </trkpt>
      <trkpt lat="42.731274" lon="-1.764355">
        <ele>592.795</ele>
        <time>2021-07-28T11:57:04Z</time>
      </trkpt>
      <trkpt lat="42.731289" lon="-1.764344">
        <ele>592.739</ele>
        <time>2021-07-28T11:57:05Z</time>
      </trkpt>
      <trkpt lat="42.731300" lon="-1.764333">
        <ele>593.201</ele>
        <time>2021-07-28T11:57:06Z</time>
      </trkpt>
      <trkpt lat="42.731307" lon="-1.764321">
        <ele>593.221</ele>
        <time>2021-07-28T11:57:07Z</time>
      </trkpt>
      <trkpt lat="42.731316" lon="-1.764311">
        <ele>593.208</ele>
        <time>2021-07-28T11:57:08Z</time>
      </trkpt>
      <trkpt lat="42.731325" lon="-1.764302">
        <ele>593.710</ele>
        <time>2021-07-28T11:57:09Z</time>
      </trkpt>
      <trkpt lat="42.731337" lon="-1.764291">
        <ele>593.732</ele>
        <time>2021-07-28T11:57:10Z</time>
      </trkpt>
      <trkpt lat="42.731347" lon="-1.764279">
        <ele>593.769</ele>
        <time>2021-07-28T11:57:11Z</time>
      </trkpt>
      <trkpt lat="42.731355" lon="-1.764272">
        <ele>594.299</ele>
        <time>2021-07-28T11:57:12Z</time>
      </trkpt>
      <trkpt lat="42.731366" lon="-1.764264">
        <ele>594.763</ele>
        <time>2021-07-28T11:57:13Z</time>
      </trkpt>
      <trkpt lat="42.731378" lon="-1.764253">
        <ele>594.721</ele>
        <time>2021-07-28T11:57:14Z</time>
      </trkpt>
      <trkpt lat="42.731488" lon="-1.764156">
        <ele>596.148</ele>
        <time>2021-07-28T11:57:23Z</time>
      </trkpt>
      <trkpt lat="42.731593" lon="-1.764055">
        <ele>597.696</ele>
        <time>2021-07-28T11:57:32Z</time>
      </trkpt>
      <trkpt lat="42.731683" lon="-1.763984">
        <ele>598.545</ele>
        <time>2021-07-28T11:57:40Z</time>
      </trkpt>
      <trkpt lat="42.731788" lon="-1.763907">
        <ele>599.547</ele>
        <time>2021-07-28T11:57:48Z</time>
      </trkpt>
      <trkpt lat="42.731940" lon="-1.763795">
        <ele>600.911</ele>
        <time>2021-07-28T11:58:00Z</time>
      </trkpt>
      <trkpt lat="42.732047" lon="-1.763726">
        <ele>602.808</ele>
        <time>2021-07-28T11:58:09Z</time>
      </trkpt>
      <trkpt lat="42.732172" lon="-1.763657">
        <ele>603.841</ele>
        <time>2021-07-28T11:58:18Z</time>
      </trkpt>
      <trkpt lat="42.732341" lon="-1.763567">
        <ele>606.293</ele>
        <time>2021-07-28T11:58:32Z</time>
      </trkpt>
      <trkpt lat="42.732473" lon="-1.763515">
        <ele>609.110</ele>
        <time>2021-07-28T11:58:43Z</time>
      </trkpt>
      <trkpt lat="42.732603" lon="-1.763465">
        <ele>610.530</ele>
        <time>2021-07-28T11:58:53Z</time>
      </trkpt>
      <trkpt lat="42.732751" lon="-1.763437">
        <ele>612.574</ele>
        <time>2021-07-28T11:59:03Z</time>
      </trkpt>
      <trkpt lat="42.732902" lon="-1.763394">
        <ele>613.442</ele>
        <time>2021-07-28T11:59:13Z</time>
      </trkpt>
      <trkpt lat="42.733047" lon="-1.763372">
        <ele>614.459</ele>
        <time>2021-07-28T11:59:22Z</time>
      </trkpt>
      <trkpt lat="42.733202" lon="-1.763356">
        <ele>615.347</ele>
        <time>2021-07-28T11:59:32Z</time>
      </trkpt>
      <trkpt lat="42.733377" lon="-1.763338">
        <ele>616.362</ele>
        <time>2021-07-28T11:59:43Z</time>
      </trkpt>
      <trkpt lat="42.733560" lon="-1.763329">
        <ele>617.783</ele>
        <time>2021-07-28T11:59:54Z</time>
      </trkpt>
      <trkpt lat="42.733648" lon="-1.763319">
        <ele>618.711</ele>
        <time>2021-07-28T12:00:02Z</time>
      </trkpt>
      <trkpt lat="42.733763" lon="-1.763306">
        <ele>619.708</ele>
        <time>2021-07-28T12:00:11Z</time>
      </trkpt>
      <trkpt lat="42.733918" lon="-1.763316">
        <ele>621.163</ele>
        <time>2021-07-28T12:00:22Z</time>
      </trkpt>
      <trkpt lat="42.734042" lon="-1.763312">
        <ele>622.195</ele>
        <time>2021-07-28T12:00:31Z</time>
      </trkpt>
      <trkpt lat="42.734176" lon="-1.763295">
        <ele>623.592</ele>
        <time>2021-07-28T12:00:40Z</time>
      </trkpt>
      <trkpt lat="42.734192" lon="-1.763297">
        <ele>623.592</ele>
        <time>2021-07-28T12:00:41Z</time>
      </trkpt>
      <trkpt lat="42.734344" lon="-1.763289">
        <ele>624.976</ele>
        <time>2021-07-28T12:00:51Z</time>
      </trkpt>
      <trkpt lat="42.734521" lon="-1.763259">
        <ele>626.434</ele>
        <time>2021-07-28T12:01:03Z</time>
      </trkpt>
      <trkpt lat="42.734642" lon="-1.763283">
        <ele>627.471</ele>
        <time>2021-07-28T12:01:12Z</time>
      </trkpt>
      <trkpt lat="42.734773" lon="-1.763296">
        <ele>627.849</ele>
        <time>2021-07-28T12:01:21Z</time>
      </trkpt>
      <trkpt lat="42.734885" lon="-1.763318">
        <ele>628.817</ele>
        <time>2021-07-28T12:01:29Z</time>
      </trkpt>
      <trkpt lat="42.735060" lon="-1.763347">
        <ele>631.287</ele>
        <time>2021-07-28T12:01:41Z</time>
      </trkpt>
      <trkpt lat="42.735179" lon="-1.763363">
        <ele>632.615</ele>
        <time>2021-07-28T12:01:49Z</time>
      </trkpt>
      <trkpt lat="42.735322" lon="-1.763395">
        <ele>633.108</ele>
        <time>2021-07-28T12:01:58Z</time>
      </trkpt>
      <trkpt lat="42.735394" lon="-1.763404">
        <ele>634.138</ele>
        <time>2021-07-28T12:02:05Z</time>
      </trkpt>
      <trkpt lat="42.735479" lon="-1.763434">
        <ele>635.590</ele>
        <time>2021-07-28T12:02:12Z</time>
      </trkpt>
      <trkpt lat="42.735583" lon="-1.763457">
        <ele>637.087</ele>
        <time>2021-07-28T12:02:20Z</time>
      </trkpt>
      <trkpt lat="42.735595" lon="-1.763465">
        <ele>636.527</ele>
        <time>2021-07-28T12:02:21Z</time>
      </trkpt>
      <trkpt lat="42.735734" lon="-1.763508">
        <ele>637.971</ele>
        <time>2021-07-28T12:02:31Z</time>
      </trkpt>
      <trkpt lat="42.735885" lon="-1.763550">
        <ele>639.819</ele>
        <time>2021-07-28T12:02:41Z</time>
      </trkpt>
      <trkpt lat="42.736034" lon="-1.763591">
        <ele>641.326</ele>
        <time>2021-07-28T12:02:51Z</time>
      </trkpt>
      <trkpt lat="42.736157" lon="-1.763622">
        <ele>642.354</ele>
        <time>2021-07-28T12:02:59Z</time>
      </trkpt>
      <trkpt lat="42.736331" lon="-1.763679">
        <ele>643.737</ele>
        <time>2021-07-28T12:03:10Z</time>
      </trkpt>
      <trkpt lat="42.736426" lon="-1.763706">
        <ele>644.249</ele>
        <time>2021-07-28T12:03:17Z</time>
      </trkpt>
      <trkpt lat="42.736539" lon="-1.763744">
        <ele>646.113</ele>
        <time>2021-07-28T12:03:27Z</time>
      </trkpt>
      <trkpt lat="42.736631" lon="-1.763771">
        <ele>648.008</ele>
        <time>2021-07-28T12:03:34Z</time>
      </trkpt>
      <trkpt lat="42.736738" lon="-1.763807">
        <ele>649.070</ele>
        <time>2021-07-28T12:03:42Z</time>
      </trkpt>
      <trkpt lat="42.736873" lon="-1.763866">
        <ele>650.492</ele>
        <time>2021-07-28T12:03:52Z</time>
      </trkpt>
      <trkpt lat="42.737001" lon="-1.763904">
        <ele>650.969</ele>
        <time>2021-07-28T12:04:01Z</time>
      </trkpt>
      <trkpt lat="42.737191" lon="-1.764012">
        <ele>652.859</ele>
        <time>2021-07-28T12:04:14Z</time>
      </trkpt>
      <trkpt lat="42.737325" lon="-1.764103">
        <ele>654.373</ele>
        <time>2021-07-28T12:04:23Z</time>
      </trkpt>
      <trkpt lat="42.737464" lon="-1.764203">
        <ele>655.251</ele>
        <time>2021-07-28T12:04:32Z</time>
      </trkpt>
      <trkpt lat="42.737600" lon="-1.764309">
        <ele>655.288</ele>
        <time>2021-07-28T12:04:41Z</time>
      </trkpt>
      <trkpt lat="42.737734" lon="-1.764411">
        <ele>657.226</ele>
        <time>2021-07-28T12:04:50Z</time>
      </trkpt>
      <trkpt lat="42.737815" lon="-1.764453">
        <ele>658.619</ele>
        <time>2021-07-28T12:04:57Z</time>
      </trkpt>
      <trkpt lat="42.737919" lon="-1.764517">
        <ele>660.509</ele>
        <time>2021-07-28T12:05:06Z</time>
      </trkpt>
      <trkpt lat="42.738051" lon="-1.764591">
        <ele>661.019</ele>
        <time>2021-07-28T12:05:16Z</time>
      </trkpt>
      <trkpt lat="42.738175" lon="-1.764661">
        <ele>662.408</ele>
        <time>2021-07-28T12:05:25Z</time>
      </trkpt>
      <trkpt lat="42.738332" lon="-1.764727">
        <ele>663.988</ele>
        <time>2021-07-28T12:05:35Z</time>
      </trkpt>
      <trkpt lat="42.738504" lon="-1.764782">
        <ele>665.880</ele>
        <time>2021-07-28T12:05:45Z</time>
      </trkpt>
      <trkpt lat="42.738646" lon="-1.764820">
        <ele>667.777</ele>
        <time>2021-07-28T12:05:54Z</time>
      </trkpt>
      <trkpt lat="42.738748" lon="-1.764843">
        <ele>669.247</ele>
        <time>2021-07-28T12:06:01Z</time>
      </trkpt>
      <trkpt lat="42.738902" lon="-1.764871">
        <ele>669.741</ele>
        <time>2021-07-28T12:06:10Z</time>
      </trkpt>
      <trkpt lat="42.739098" lon="-1.764909">
        <ele>671.629</ele>
        <time>2021-07-28T12:06:21Z</time>
      </trkpt>
      <trkpt lat="42.739279" lon="-1.764934">
        <ele>673.026</ele>
        <time>2021-07-28T12:06:31Z</time>
      </trkpt>
      <trkpt lat="42.739371" lon="-1.764962">
        <ele>674.014</ele>
        <time>2021-07-28T12:06:39Z</time>
      </trkpt>
      <trkpt lat="42.739362" lon="-1.764956">
        <ele>674.035</ele>
        <time>2021-07-28T12:06:49Z</time>
      </trkpt>
      <trkpt lat="42.739375" lon="-1.764968">
        <ele>674.086</ele>
        <time>2021-07-28T12:07:00Z</time>
      </trkpt>
      <trkpt lat="42.739378" lon="-1.764963">
        <ele>674.014</ele>
        <time>2021-07-28T12:07:14Z</time>
      </trkpt>
      <trkpt lat="42.739348" lon="-1.764962">
        <ele>675.408</ele>
        <time>2021-07-28T12:07:30Z</time>
      </trkpt>
      <trkpt lat="42.739355" lon="-1.764970">
        <ele>674.090</ele>
        <time>2021-07-28T12:07:44Z</time>
      </trkpt>
      <trkpt lat="42.739371" lon="-1.764975">
        <ele>674.052</ele>
        <time>2021-07-28T12:08:00Z</time>
      </trkpt>
      <trkpt lat="42.739378" lon="-1.764973">
        <ele>673.049</ele>
        <time>2021-07-28T12:08:15Z</time>
      </trkpt>
      <trkpt lat="42.739372" lon="-1.764948">
        <ele>674.069</ele>
        <time>2021-07-28T12:08:29Z</time>
      </trkpt>
      <trkpt lat="42.739373" lon="-1.764940">
        <ele>674.083</ele>
        <time>2021-07-28T12:08:41Z</time>
      </trkpt>
      <trkpt lat="42.739359" lon="-1.764933">
        <ele>673.571</ele>
        <time>2021-07-28T12:08:54Z</time>
      </trkpt>
      <trkpt lat="42.739327" lon="-1.764948">
        <ele>675.448</ele>
        <time>2021-07-28T12:09:04Z</time>
      </trkpt>
      <trkpt lat="42.739356" lon="-1.764933">
        <ele>674.916</ele>
        <time>2021-07-28T12:09:20Z</time>
      </trkpt>
      <trkpt lat="42.739373" lon="-1.764909">
        <ele>675.976</ele>
        <time>2021-07-28T12:09:36Z</time>
      </trkpt>
      <trkpt lat="42.739392" lon="-1.764929">
        <ele>676.490</ele>
        <time>2021-07-28T12:09:49Z</time>
      </trkpt>
      <trkpt lat="42.739393" lon="-1.764941">
        <ele>674.919</ele>
        <time>2021-07-28T12:10:00Z</time>
      </trkpt>
      <trkpt lat="42.739406" lon="-1.764947">
        <ele>673.508</ele>
        <time>2021-07-28T12:10:11Z</time>
      </trkpt>
      <trkpt lat="42.739378" lon="-1.764963">
        <ele>672.164</ele>
        <time>2021-07-28T12:10:19Z</time>
      </trkpt>
      <trkpt lat="42.739360" lon="-1.764964">
        <ele>672.146</ele>
        <time>2021-07-28T12:10:23Z</time>
      </trkpt>
      <trkpt lat="42.739346" lon="-1.764952">
        <ele>672.143</ele>
        <time>2021-07-28T12:10:24Z</time>
      </trkpt>
      <trkpt lat="42.739336" lon="-1.764934">
        <ele>671.633</ele>
        <time>2021-07-28T12:10:25Z</time>
      </trkpt>
      <trkpt lat="42.739333" lon="-1.764911">
        <ele>671.687</ele>
        <time>2021-07-28T12:10:26Z</time>
      </trkpt>
      <trkpt lat="42.739338" lon="-1.764895">
        <ele>671.145</ele>
        <time>2021-07-28T12:10:27Z</time>
      </trkpt>
      <trkpt lat="42.739347" lon="-1.764886">
        <ele>670.622</ele>
        <time>2021-07-28T12:10:28Z</time>
      </trkpt>
      <trkpt lat="42.739362" lon="-1.764881">
        <ele>670.630</ele>
        <time>2021-07-28T12:10:29Z</time>
      </trkpt>
      <trkpt lat="42.739378" lon="-1.764881">
        <ele>670.113</ele>
        <time>2021-07-28T12:10:30Z</time>
      </trkpt>
      <trkpt lat="42.739391" lon="-1.764880">
        <ele>670.143</ele>
        <time>2021-07-28T12:10:31Z</time>
      </trkpt>
      <trkpt lat="42.739406" lon="-1.764876">
        <ele>670.607</ele>
        <time>2021-07-28T12:10:32Z</time>
      </trkpt>
      <trkpt lat="42.739420" lon="-1.764875">
        <ele>670.608</ele>
        <time>2021-07-28T12:10:33Z</time>
      </trkpt>
      <trkpt lat="42.739433" lon="-1.764875">
        <ele>670.648</ele>
        <time>2021-07-28T12:10:34Z</time>
      </trkpt>
      <trkpt lat="42.739448" lon="-1.764875">
        <ele>671.130</ele>
        <time>2021-07-28T12:10:35Z</time>
      </trkpt>
      <trkpt lat="42.739463" lon="-1.764872">
        <ele>671.137</ele>
        <time>2021-07-28T12:10:36Z</time>
      </trkpt>
      <trkpt lat="42.739477" lon="-1.764870">
        <ele>671.177</ele>
        <time>2021-07-28T12:10:37Z</time>
      </trkpt>
      <trkpt lat="42.739491" lon="-1.764868">
        <ele>671.621</ele>
        <time>2021-07-28T12:10:38Z</time>
      </trkpt>
      <trkpt lat="42.739504" lon="-1.764868">
        <ele>671.699</ele>
        <time>2021-07-28T12:10:39Z</time>
      </trkpt>
      <trkpt lat="42.739520" lon="-1.764868">
        <ele>672.196</ele>
        <time>2021-07-28T12:10:40Z</time>
      </trkpt>
      <trkpt lat="42.739530" lon="-1.764867">
        <ele>672.524</ele>
        <time>2021-07-28T12:10:41Z</time>
      </trkpt>
      <trkpt lat="42.739542" lon="-1.764865">
        <ele>672.586</ele>
        <time>2021-07-28T12:10:42Z</time>
      </trkpt>
      <trkpt lat="42.739555" lon="-1.764865">
        <ele>673.060</ele>
        <time>2021-07-28T12:10:43Z</time>
      </trkpt>
      <trkpt lat="42.739591" lon="-1.764861">
        <ele>673.526</ele>
        <time>2021-07-28T12:10:46Z</time>
      </trkpt>
      <trkpt lat="42.739606" lon="-1.764853">
        <ele>674.508</ele>
        <time>2021-07-28T12:10:52Z</time>
      </trkpt>
      <trkpt lat="42.739635" lon="-1.764857">
        <ele>675.435</ele>
        <time>2021-07-28T12:10:55Z</time>
      </trkpt>
      <trkpt lat="42.739791" lon="-1.764851">
        <ele>676.967</ele>
        <time>2021-07-28T12:11:09Z</time>
      </trkpt>
      <trkpt lat="42.739865" lon="-1.764848">
        <ele>677.864</ele>
        <time>2021-07-28T12:11:16Z</time>
      </trkpt>
      <trkpt lat="42.739925" lon="-1.764853">
        <ele>678.334</ele>
        <time>2021-07-28T12:11:22Z</time>
      </trkpt>
      <trkpt lat="42.739935" lon="-1.764850">
        <ele>678.368</ele>
        <time>2021-07-28T12:11:23Z</time>
      </trkpt>
      <trkpt lat="42.739947" lon="-1.764848">
        <ele>678.826</ele>
        <time>2021-07-28T12:11:24Z</time>
      </trkpt>
      <trkpt lat="42.740057" lon="-1.764832">
        <ele>681.263</ele>
        <time>2021-07-28T12:11:35Z</time>
      </trkpt>
      <trkpt lat="42.740146" lon="-1.764792">
        <ele>683.141</ele>
        <time>2021-07-28T12:11:45Z</time>
      </trkpt>
      <trkpt lat="42.740201" lon="-1.764743">
        <ele>683.695</ele>
        <time>2021-07-28T12:11:52Z</time>
      </trkpt>
      <trkpt lat="42.740209" lon="-1.764733">
        <ele>684.149</ele>
        <time>2021-07-28T12:11:53Z</time>
      </trkpt>
      <trkpt lat="42.740215" lon="-1.764722">
        <ele>684.123</ele>
        <time>2021-07-28T12:11:54Z</time>
      </trkpt>
      <trkpt lat="42.740245" lon="-1.764671">
        <ele>684.608</ele>
        <time>2021-07-28T12:12:02Z</time>
      </trkpt>
      <trkpt lat="42.740276" lon="-1.764601">
        <ele>685.016</ele>
        <time>2021-07-28T12:12:09Z</time>
      </trkpt>
      <trkpt lat="42.740300" lon="-1.764486">
        <ele>685.098</ele>
        <time>2021-07-28T12:12:19Z</time>
      </trkpt>
      <trkpt lat="42.740321" lon="-1.764475">
        <ele>684.145</ele>
        <time>2021-07-28T12:12:32Z</time>
      </trkpt>
      <trkpt lat="42.740325" lon="-1.764416">
        <ele>685.565</ele>
        <time>2021-07-28T12:12:39Z</time>
      </trkpt>
      <trkpt lat="42.740323" lon="-1.764389">
        <ele>685.549</ele>
        <time>2021-07-28T12:12:41Z</time>
      </trkpt>
      <trkpt lat="42.740320" lon="-1.764374">
        <ele>685.557</ele>
        <time>2021-07-28T12:12:42Z</time>
      </trkpt>
      <trkpt lat="42.740319" lon="-1.764358">
        <ele>685.534</ele>
        <time>2021-07-28T12:12:43Z</time>
      </trkpt>
      <trkpt lat="42.740318" lon="-1.764340">
        <ele>686.012</ele>
        <time>2021-07-28T12:12:44Z</time>
      </trkpt>
      <trkpt lat="42.740320" lon="-1.764320">
        <ele>686.043</ele>
        <time>2021-07-28T12:12:45Z</time>
      </trkpt>
      <trkpt lat="42.740322" lon="-1.764305">
        <ele>686.064</ele>
        <time>2021-07-28T12:12:46Z</time>
      </trkpt>
      <trkpt lat="42.740324" lon="-1.764290">
        <ele>686.010</ele>
        <time>2021-07-28T12:12:47Z</time>
      </trkpt>
      <trkpt lat="42.740333" lon="-1.764122">
        <ele>687.008</ele>
        <time>2021-07-28T12:12:57Z</time>
      </trkpt>
      <trkpt lat="42.740341" lon="-1.763965">
        <ele>687.471</ele>
        <time>2021-07-28T12:13:06Z</time>
      </trkpt>
      <trkpt lat="42.740349" lon="-1.763802">
        <ele>688.433</ele>
        <time>2021-07-28T12:13:15Z</time>
      </trkpt>
      <trkpt lat="42.740356" lon="-1.763653">
        <ele>689.430</ele>
        <time>2021-07-28T12:13:23Z</time>
      </trkpt>
      <trkpt lat="42.740359" lon="-1.763549">
        <ele>691.390</ele>
        <time>2021-07-28T12:13:30Z</time>
      </trkpt>
      <trkpt lat="42.740358" lon="-1.763412">
        <ele>691.844</ele>
        <time>2021-07-28T12:13:37Z</time>
      </trkpt>
      <trkpt lat="42.740348" lon="-1.763261">
        <ele>691.852</ele>
        <time>2021-07-28T12:13:44Z</time>
      </trkpt>
      <trkpt lat="42.740317" lon="-1.763059">
        <ele>692.289</ele>
        <time>2021-07-28T12:13:53Z</time>
      </trkpt>
      <trkpt lat="42.740274" lon="-1.762858">
        <ele>693.767</ele>
        <time>2021-07-28T12:14:02Z</time>
      </trkpt>
      <trkpt lat="42.740219" lon="-1.762640">
        <ele>696.123</ele>
        <time>2021-07-28T12:14:12Z</time>
      </trkpt>
      <trkpt lat="42.740161" lon="-1.762438">
        <ele>697.583</ele>
        <time>2021-07-28T12:14:21Z</time>
      </trkpt>
      <trkpt lat="42.740119" lon="-1.762272">
        <ele>699.011</ele>
        <time>2021-07-28T12:14:30Z</time>
      </trkpt>
      <trkpt lat="42.740068" lon="-1.762052">
        <ele>699.908</ele>
        <time>2021-07-28T12:14:39Z</time>
      </trkpt>
      <trkpt lat="42.739998" lon="-1.761777">
        <ele>701.939</ele>
        <time>2021-07-28T12:14:49Z</time>
      </trkpt>
      <trkpt lat="42.739948" lon="-1.761566">
        <ele>703.341</ele>
        <time>2021-07-28T12:14:57Z</time>
      </trkpt>
      <trkpt lat="42.739900" lon="-1.761355">
        <ele>704.788</ele>
        <time>2021-07-28T12:15:05Z</time>
      </trkpt>
      <trkpt lat="42.739858" lon="-1.761181">
        <ele>704.718</ele>
        <time>2021-07-28T12:15:12Z</time>
      </trkpt>
      <trkpt lat="42.739801" lon="-1.760944">
        <ele>706.212</ele>
        <time>2021-07-28T12:15:22Z</time>
      </trkpt>
      <trkpt lat="42.739750" lon="-1.760711">
        <ele>707.620</ele>
        <time>2021-07-28T12:15:31Z</time>
      </trkpt>
      <trkpt lat="42.739687" lon="-1.760457">
        <ele>707.667</ele>
        <time>2021-07-28T12:15:41Z</time>
      </trkpt>
      <trkpt lat="42.739634" lon="-1.760237">
        <ele>708.155</ele>
        <time>2021-07-28T12:15:50Z</time>
      </trkpt>
      <trkpt lat="42.739581" lon="-1.760038">
        <ele>708.645</ele>
        <time>2021-07-28T12:15:59Z</time>
      </trkpt>
      <trkpt lat="42.739576" lon="-1.760018">
        <ele>708.647</ele>
        <time>2021-07-28T12:16:00Z</time>
      </trkpt>
      <trkpt lat="42.739570" lon="-1.759995">
        <ele>709.111</ele>
        <time>2021-07-28T12:16:01Z</time>
      </trkpt>
      <trkpt lat="42.739566" lon="-1.759971">
        <ele>709.108</ele>
        <time>2021-07-28T12:16:02Z</time>
      </trkpt>
      <trkpt lat="42.739560" lon="-1.759944">
        <ele>709.151</ele>
        <time>2021-07-28T12:16:03Z</time>
      </trkpt>
      <trkpt lat="42.739554" lon="-1.759918">
        <ele>709.153</ele>
        <time>2021-07-28T12:16:04Z</time>
      </trkpt>
      <trkpt lat="42.739483" lon="-1.759632">
        <ele>710.580</ele>
        <time>2021-07-28T12:16:15Z</time>
      </trkpt>
      <trkpt lat="42.739434" lon="-1.759469">
        <ele>711.570</ele>
        <time>2021-07-28T12:16:22Z</time>
      </trkpt>
      <trkpt lat="42.739391" lon="-1.759304">
        <ele>712.434</ele>
        <time>2021-07-28T12:16:29Z</time>
      </trkpt>
      <trkpt lat="42.739329" lon="-1.759074">
        <ele>712.942</ele>
        <time>2021-07-28T12:16:39Z</time>
      </trkpt>
      <trkpt lat="42.739282" lon="-1.758898">
        <ele>713.469</ele>
        <time>2021-07-28T12:16:47Z</time>
      </trkpt>
      <trkpt lat="42.739220" lon="-1.758641">
        <ele>714.437</ele>
        <time>2021-07-28T12:16:58Z</time>
      </trkpt>
      <trkpt lat="42.739159" lon="-1.758403">
        <ele>714.894</ele>
        <time>2021-07-28T12:17:08Z</time>
      </trkpt>
      <trkpt lat="42.739110" lon="-1.758207">
        <ele>715.357</ele>
        <time>2021-07-28T12:17:16Z</time>
      </trkpt>
      <trkpt lat="42.739065" lon="-1.757966">
        <ele>716.322</ele>
        <time>2021-07-28T12:17:26Z</time>
      </trkpt>
      <trkpt lat="42.739020" lon="-1.757766">
        <ele>717.708</ele>
        <time>2021-07-28T12:17:34Z</time>
      </trkpt>
      <trkpt lat="42.738970" lon="-1.757556">
        <ele>718.246</ele>
        <time>2021-07-28T12:17:43Z</time>
      </trkpt>
      <trkpt lat="42.738919" lon="-1.757338">
        <ele>719.248</ele>
        <time>2021-07-28T12:17:52Z</time>
      </trkpt>
      <trkpt lat="42.738870" lon="-1.757114">
        <ele>720.145</ele>
        <time>2021-07-28T12:18:02Z</time>
      </trkpt>
      <trkpt lat="42.738823" lon="-1.756896">
        <ele>721.125</ele>
        <time>2021-07-28T12:18:11Z</time>
      </trkpt>
      <trkpt lat="42.738772" lon="-1.756657">
        <ele>722.589</ele>
        <time>2021-07-28T12:18:21Z</time>
      </trkpt>
      <trkpt lat="42.738718" lon="-1.756413">
        <ele>723.557</ele>
        <time>2021-07-28T12:18:31Z</time>
      </trkpt>
      <trkpt lat="42.738680" lon="-1.756241">
        <ele>724.464</ele>
        <time>2021-07-28T12:18:38Z</time>
      </trkpt>
      <trkpt lat="42.738623" lon="-1.756004">
        <ele>726.422</ele>
        <time>2021-07-28T12:18:48Z</time>
      </trkpt>
      <trkpt lat="42.738582" lon="-1.755817">
        <ele>727.326</ele>
        <time>2021-07-28T12:18:56Z</time>
      </trkpt>
      <trkpt lat="42.738544" lon="-1.755638">
        <ele>727.847</ele>
        <time>2021-07-28T12:19:04Z</time>
      </trkpt>
      <trkpt lat="42.738500" lon="-1.755446">
        <ele>729.311</ele>
        <time>2021-07-28T12:19:12Z</time>
      </trkpt>
      <trkpt lat="42.738467" lon="-1.755321">
        <ele>730.208</ele>
        <time>2021-07-28T12:19:19Z</time>
      </trkpt>
      <trkpt lat="42.738430" lon="-1.755152">
        <ele>731.299</ele>
        <time>2021-07-28T12:19:27Z</time>
      </trkpt>
      <trkpt lat="42.738369" lon="-1.754905">
        <ele>732.191</ele>
        <time>2021-07-28T12:19:38Z</time>
      </trkpt>
      <trkpt lat="42.738308" lon="-1.754625">
        <ele>734.158</ele>
        <time>2021-07-28T12:19:50Z</time>
      </trkpt>
      <trkpt lat="42.738262" lon="-1.754437">
        <ele>735.048</ele>
        <time>2021-07-28T12:19:58Z</time>
      </trkpt>
      <trkpt lat="42.738201" lon="-1.754146">
        <ele>737.412</ele>
        <time>2021-07-28T12:20:09Z</time>
      </trkpt>
      <trkpt lat="42.738140" lon="-1.753901">
        <ele>738.480</ele>
        <time>2021-07-28T12:20:19Z</time>
      </trkpt>
      <trkpt lat="42.738132" lon="-1.753882">
        <ele>739.357</ele>
        <time>2021-07-28T12:20:26Z</time>
      </trkpt>
      <trkpt lat="42.738131" lon="-1.753882">
        <ele>738.945</ele>
        <time>2021-07-28T12:20:38Z</time>
      </trkpt>
      <trkpt lat="42.738129" lon="-1.753877">
        <ele>737.931</ele>
        <time>2021-07-28T12:20:51Z</time>
      </trkpt>
      <trkpt lat="42.738134" lon="-1.753886">
        <ele>737.961</ele>
        <time>2021-07-28T12:21:03Z</time>
      </trkpt>
      <trkpt lat="42.738133" lon="-1.753894">
        <ele>738.407</ele>
        <time>2021-07-28T12:21:14Z</time>
      </trkpt>
      <trkpt lat="42.738131" lon="-1.753873">
        <ele>738.908</ele>
        <time>2021-07-28T12:21:29Z</time>
      </trkpt>
      <trkpt lat="42.738102" lon="-1.753783">
        <ele>738.910</ele>
        <time>2021-07-28T12:21:38Z</time>
      </trkpt>
      <trkpt lat="42.738045" lon="-1.753515">
        <ele>739.372</ele>
        <time>2021-07-28T12:21:47Z</time>
      </trkpt>
      <trkpt lat="42.737987" lon="-1.753256">
        <ele>740.379</ele>
        <time>2021-07-28T12:21:55Z</time>
      </trkpt>
      <trkpt lat="42.737929" lon="-1.753021">
        <ele>740.889</ele>
        <time>2021-07-28T12:22:02Z</time>
      </trkpt>
      <trkpt lat="42.737860" lon="-1.752740">
        <ele>741.763</ele>
        <time>2021-07-28T12:22:10Z</time>
      </trkpt>
      <trkpt lat="42.737773" lon="-1.752409">
        <ele>743.211</ele>
        <time>2021-07-28T12:22:20Z</time>
      </trkpt>
      <trkpt lat="42.737711" lon="-1.752169">
        <ele>743.738</ele>
        <time>2021-07-28T12:22:28Z</time>
      </trkpt>
      <trkpt lat="42.737640" lon="-1.751859">
        <ele>744.616</ele>
        <time>2021-07-28T12:22:37Z</time>
      </trkpt>
      <trkpt lat="42.737635" lon="-1.751845">
        <ele>744.613</ele>
        <time>2021-07-28T12:22:38Z</time>
      </trkpt>
      <trkpt lat="42.737632" lon="-1.751831">
        <ele>744.643</ele>
        <time>2021-07-28T12:22:39Z</time>
      </trkpt>
      <trkpt lat="42.737606" lon="-1.751678">
        <ele>745.107</ele>
        <time>2021-07-28T12:22:49Z</time>
      </trkpt>
      <trkpt lat="42.737555" lon="-1.751417">
        <ele>745.608</ele>
        <time>2021-07-28T12:22:59Z</time>
      </trkpt>
      <trkpt lat="42.737495" lon="-1.751092">
        <ele>745.698</ele>
        <time>2021-07-28T12:23:11Z</time>
      </trkpt>
      <trkpt lat="42.737450" lon="-1.750893">
        <ele>746.160</ele>
        <time>2021-07-28T12:23:20Z</time>
      </trkpt>
      <trkpt lat="42.737409" lon="-1.750765">
        <ele>746.187</ele>
        <time>2021-07-28T12:23:28Z</time>
      </trkpt>
      <trkpt lat="42.737366" lon="-1.750569">
        <ele>747.577</ele>
        <time>2021-07-28T12:23:37Z</time>
      </trkpt>
      <trkpt lat="42.737306" lon="-1.750396">
        <ele>748.091</ele>
        <time>2021-07-28T12:23:44Z</time>
      </trkpt>
      <trkpt lat="42.737192" lon="-1.750091">
        <ele>748.519</ele>
        <time>2021-07-28T12:23:53Z</time>
      </trkpt>
      <trkpt lat="42.737060" lon="-1.749772">
        <ele>748.586</ele>
        <time>2021-07-28T12:24:02Z</time>
      </trkpt>
      <trkpt lat="42.736914" lon="-1.749470">
        <ele>749.014</ele>
        <time>2021-07-28T12:24:11Z</time>
      </trkpt>
      <trkpt lat="42.736757" lon="-1.749132">
        <ele>749.919</ele>
        <time>2021-07-28T12:24:21Z</time>
      </trkpt>
      <trkpt lat="42.736598" lon="-1.748755">
        <ele>750.409</ele>
        <time>2021-07-28T12:24:32Z</time>
      </trkpt>
      <trkpt lat="42.736467" lon="-1.748441">
        <ele>751.419</ele>
        <time>2021-07-28T12:24:41Z</time>
      </trkpt>
      <trkpt lat="42.736392" lon="-1.748239">
        <ele>751.808</ele>
        <time>2021-07-28T12:24:47Z</time>
      </trkpt>
      <trkpt lat="42.736273" lon="-1.747881">
        <ele>752.318</ele>
        <time>2021-07-28T12:24:57Z</time>
      </trkpt>
      <trkpt lat="42.736211" lon="-1.747566">
        <ele>752.840</ele>
        <time>2021-07-28T12:25:06Z</time>
      </trkpt>
      <trkpt lat="42.736180" lon="-1.747220">
        <ele>754.237</ele>
        <time>2021-07-28T12:25:16Z</time>
      </trkpt>
      <trkpt lat="42.736171" lon="-1.746916">
        <ele>754.727</ele>
        <time>2021-07-28T12:25:25Z</time>
      </trkpt>
      <trkpt lat="42.736171" lon="-1.746562">
        <ele>754.781</ele>
        <time>2021-07-28T12:25:35Z</time>
      </trkpt>
      <trkpt lat="42.736162" lon="-1.746196">
        <ele>756.269</ele>
        <time>2021-07-28T12:25:46Z</time>
      </trkpt>
      <trkpt lat="42.736154" lon="-1.745866">
        <ele>757.196</ele>
        <time>2021-07-28T12:25:57Z</time>
      </trkpt>
      <trkpt lat="42.736121" lon="-1.745495">
        <ele>758.674</ele>
        <time>2021-07-28T12:26:09Z</time>
      </trkpt>
      <trkpt lat="42.736086" lon="-1.745207">
        <ele>759.135</ele>
        <time>2021-07-28T12:26:19Z</time>
      </trkpt>
      <trkpt lat="42.736053" lon="-1.744968">
        <ele>759.586</ele>
        <time>2021-07-28T12:26:28Z</time>
      </trkpt>
      <trkpt lat="42.736021" lon="-1.744756">
        <ele>759.514</ele>
        <time>2021-07-28T12:26:37Z</time>
      </trkpt>
      <trkpt lat="42.735964" lon="-1.744580">
        <ele>760.008</ele>
        <time>2021-07-28T12:26:45Z</time>
      </trkpt>
      <trkpt lat="42.735936" lon="-1.744364">
        <ele>760.520</ele>
        <time>2021-07-28T12:26:55Z</time>
      </trkpt>
      <trkpt lat="42.735905" lon="-1.744145">
        <ele>761.512</ele>
        <time>2021-07-28T12:27:07Z</time>
      </trkpt>
      <trkpt lat="42.735884" lon="-1.743980">
        <ele>761.939</ele>
        <time>2021-07-28T12:27:15Z</time>
      </trkpt>
      <trkpt lat="42.735865" lon="-1.743865">
        <ele>762.449</ele>
        <time>2021-07-28T12:27:22Z</time>
      </trkpt>
      <trkpt lat="42.735842" lon="-1.743730">
        <ele>762.473</ele>
        <time>2021-07-28T12:27:31Z</time>
      </trkpt>
      <trkpt lat="42.735818" lon="-1.743554">
        <ele>762.951</ele>
        <time>2021-07-28T12:27:41Z</time>
      </trkpt>
      <trkpt lat="42.735787" lon="-1.743362">
        <ele>763.478</ele>
        <time>2021-07-28T12:27:51Z</time>
      </trkpt>
      <trkpt lat="42.735756" lon="-1.743128">
        <ele>763.956</ele>
        <time>2021-07-28T12:27:59Z</time>
      </trkpt>
      <trkpt lat="42.735741" lon="-1.742915">
        <ele>764.324</ele>
        <time>2021-07-28T12:28:07Z</time>
      </trkpt>
      <trkpt lat="42.735747" lon="-1.742896">
        <ele>764.304</ele>
        <time>2021-07-28T12:28:08Z</time>
      </trkpt>
      <trkpt lat="42.735755" lon="-1.742877">
        <ele>764.314</ele>
        <time>2021-07-28T12:28:09Z</time>
      </trkpt>
      <trkpt lat="42.735765" lon="-1.742853">
        <ele>764.308</ele>
        <time>2021-07-28T12:28:10Z</time>
      </trkpt>
      <trkpt lat="42.735773" lon="-1.742831">
        <ele>764.889</ele>
        <time>2021-07-28T12:28:11Z</time>
      </trkpt>
      <trkpt lat="42.735779" lon="-1.742812">
        <ele>764.811</ele>
        <time>2021-07-28T12:28:12Z</time>
      </trkpt>
      <trkpt lat="42.735782" lon="-1.742801">
        <ele>764.888</ele>
        <time>2021-07-28T12:28:13Z</time>
      </trkpt>
      <trkpt lat="42.735782" lon="-1.742782">
        <ele>764.828</ele>
        <time>2021-07-28T12:28:14Z</time>
      </trkpt>
      <trkpt lat="42.735779" lon="-1.742762">
        <ele>764.872</ele>
        <time>2021-07-28T12:28:15Z</time>
      </trkpt>
      <trkpt lat="42.735781" lon="-1.742694">
        <ele>764.870</ele>
        <time>2021-07-28T12:28:20Z</time>
      </trkpt>
      <trkpt lat="42.735808" lon="-1.742638">
        <ele>765.367</ele>
        <time>2021-07-28T12:28:28Z</time>
      </trkpt>
      <trkpt lat="42.735808" lon="-1.742635">
        <ele>765.335</ele>
        <time>2021-07-28T12:28:40Z</time>
      </trkpt>
      <trkpt lat="42.735817" lon="-1.742633">
        <ele>764.881</ele>
        <time>2021-07-28T12:28:57Z</time>
      </trkpt>
      <trkpt lat="42.735829" lon="-1.742639">
        <ele>764.861</ele>
        <time>2021-07-28T12:28:59Z</time>
      </trkpt>
      <trkpt lat="42.735829" lon="-1.742655">
        <ele>764.817</ele>
        <time>2021-07-28T12:29:04Z</time>
      </trkpt>
      <trkpt lat="42.735823" lon="-1.742657">
        <ele>766.708</ele>
        <time>2021-07-28T12:29:22Z</time>
      </trkpt>
      <trkpt lat="42.735821" lon="-1.742648">
        <ele>767.255</ele>
        <time>2021-07-28T12:29:47Z</time>
      </trkpt>
      <trkpt lat="42.735818" lon="-1.742675">
        <ele>767.267</ele>
        <time>2021-07-28T12:30:07Z</time>
      </trkpt>
      <trkpt lat="42.735795" lon="-1.742720">
        <ele>766.734</ele>
        <time>2021-07-28T12:30:14Z</time>
      </trkpt>
      <trkpt lat="42.735786" lon="-1.742723">
        <ele>766.744</ele>
        <time>2021-07-28T12:30:22Z</time>
      </trkpt>
      <trkpt lat="42.735784" lon="-1.742729">
        <ele>765.388</ele>
        <time>2021-07-28T12:30:44Z</time>
      </trkpt>
      <trkpt lat="42.735784" lon="-1.742717">
        <ele>764.356</ele>
        <time>2021-07-28T12:31:05Z</time>
      </trkpt>
      <trkpt lat="42.735785" lon="-1.742711">
        <ele>764.843</ele>
        <time>2021-07-28T12:31:21Z</time>
      </trkpt>
      <trkpt lat="42.735788" lon="-1.742716">
        <ele>764.381</ele>
        <time>2021-07-28T12:31:48Z</time>
      </trkpt>
      <trkpt lat="42.735790" lon="-1.742725">
        <ele>763.485</ele>
        <time>2021-07-28T12:32:11Z</time>
      </trkpt>
      <trkpt lat="42.735794" lon="-1.742731">
        <ele>762.489</ele>
        <time>2021-07-28T12:32:26Z</time>
      </trkpt>
      <trkpt lat="42.735784" lon="-1.742719">
        <ele>762.917</ele>
        <time>2021-07-28T12:32:41Z</time>
      </trkpt>
      <trkpt lat="42.735787" lon="-1.742718">
        <ele>763.908</ele>
        <time>2021-07-28T12:33:02Z</time>
      </trkpt>
      <trkpt lat="42.735791" lon="-1.742723">
        <ele>764.395</ele>
        <time>2021-07-28T12:33:16Z</time>
      </trkpt>
      <trkpt lat="42.735793" lon="-1.742722">
        <ele>765.887</ele>
        <time>2021-07-28T12:33:39Z</time>
      </trkpt>
      <trkpt lat="42.735790" lon="-1.742718">
        <ele>765.864</ele>
        <time>2021-07-28T12:33:59Z</time>
      </trkpt>
      <trkpt lat="42.735796" lon="-1.742723">
        <ele>765.864</ele>
        <time>2021-07-28T12:34:22Z</time>
      </trkpt>
      <trkpt lat="42.735797" lon="-1.742717">
        <ele>764.838</ele>
        <time>2021-07-28T12:34:46Z</time>
      </trkpt>
      <trkpt lat="42.735796" lon="-1.742714">
        <ele>765.396</ele>
        <time>2021-07-28T12:35:00Z</time>
      </trkpt>
      <trkpt lat="42.735792" lon="-1.742700">
        <ele>765.873</ele>
        <time>2021-07-28T12:35:20Z</time>
      </trkpt>
      <trkpt lat="42.735789" lon="-1.742700">
        <ele>765.831</ele>
        <time>2021-07-28T12:35:42Z</time>
      </trkpt>
      <trkpt lat="42.735797" lon="-1.742715">
        <ele>764.824</ele>
        <time>2021-07-28T12:36:01Z</time>
      </trkpt>
      <trkpt lat="42.735791" lon="-1.742715">
        <ele>764.804</ele>
        <time>2021-07-28T12:36:16Z</time>
      </trkpt>
      <trkpt lat="42.735791" lon="-1.742711">
        <ele>763.914</ele>
        <time>2021-07-28T12:36:34Z</time>
      </trkpt>
      <trkpt lat="42.735789" lon="-1.742714">
        <ele>763.908</ele>
        <time>2021-07-28T12:36:51Z</time>
      </trkpt>
      <trkpt lat="42.735786" lon="-1.742713">
        <ele>763.429</ele>
        <time>2021-07-28T12:37:11Z</time>
      </trkpt>
      <trkpt lat="42.735781" lon="-1.742713">
        <ele>763.421</ele>
        <time>2021-07-28T12:37:29Z</time>
      </trkpt>
      <trkpt lat="42.735790" lon="-1.742717">
        <ele>763.948</ele>
        <time>2021-07-28T12:37:46Z</time>
      </trkpt>
      <trkpt lat="42.735797" lon="-1.742719">
        <ele>763.428</ele>
        <time>2021-07-28T12:38:02Z</time>
      </trkpt>
      <trkpt lat="42.735792" lon="-1.742713">
        <ele>766.332</ele>
        <time>2021-07-28T12:38:21Z</time>
      </trkpt>
      <trkpt lat="42.735794" lon="-1.742701">
        <ele>766.790</ele>
        <time>2021-07-28T12:38:41Z</time>
      </trkpt>
      <trkpt lat="42.735797" lon="-1.742720">
        <ele>766.397</ele>
        <time>2021-07-28T12:38:47Z</time>
      </trkpt>
      <trkpt lat="42.735793" lon="-1.742734">
        <ele>766.375</ele>
        <time>2021-07-28T12:38:48Z</time>
      </trkpt>
      <trkpt lat="42.735793" lon="-1.742749">
        <ele>766.328</ele>
        <time>2021-07-28T12:38:49Z</time>
      </trkpt>
      <trkpt lat="42.735780" lon="-1.742836">
        <ele>766.389</ele>
        <time>2021-07-28T12:38:55Z</time>
      </trkpt>
      <trkpt lat="42.735765" lon="-1.742902">
        <ele>765.317</ele>
        <time>2021-07-28T12:38:59Z</time>
      </trkpt>
      <trkpt lat="42.735780" lon="-1.742999">
        <ele>765.308</ele>
        <time>2021-07-28T12:39:05Z</time>
      </trkpt>
      <trkpt lat="42.735787" lon="-1.743125">
        <ele>765.329</ele>
        <time>2021-07-28T12:39:12Z</time>
      </trkpt>
      <trkpt lat="42.735825" lon="-1.743338">
        <ele>764.861</ele>
        <time>2021-07-28T12:39:22Z</time>
      </trkpt>
      <trkpt lat="42.735860" lon="-1.743588">
        <ele>764.368</ele>
        <time>2021-07-28T12:39:30Z</time>
      </trkpt>
      <trkpt lat="42.735895" lon="-1.743851">
        <ele>763.418</ele>
        <time>2021-07-28T12:39:37Z</time>
      </trkpt>
      <trkpt lat="42.735948" lon="-1.744184">
        <ele>762.912</ele>
        <time>2021-07-28T12:39:44Z</time>
      </trkpt>
      <trkpt lat="42.735981" lon="-1.744477">
        <ele>761.960</ele>
        <time>2021-07-28T12:39:50Z</time>
      </trkpt>
      <trkpt lat="42.736057" lon="-1.744991">
        <ele>760.597</ele>
        <time>2021-07-28T12:40:00Z</time>
      </trkpt>
      <trkpt lat="42.736138" lon="-1.745551">
        <ele>759.535</ele>
        <time>2021-07-28T12:40:10Z</time>
      </trkpt>
      <trkpt lat="42.736172" lon="-1.746030">
        <ele>758.137</ele>
        <time>2021-07-28T12:40:17Z</time>
      </trkpt>
      <trkpt lat="42.736171" lon="-1.746097">
        <ele>758.149</ele>
        <time>2021-07-28T12:40:18Z</time>
      </trkpt>
      <trkpt lat="42.736164" lon="-1.746158">
        <ele>757.613</ele>
        <time>2021-07-28T12:40:19Z</time>
      </trkpt>
      <trkpt lat="42.736130" lon="-1.746289">
        <ele>757.108</ele>
        <time>2021-07-28T12:40:23Z</time>
      </trkpt>
      <trkpt lat="42.736128" lon="-1.746305">
        <ele>757.140</ele>
        <time>2021-07-28T12:40:24Z</time>
      </trkpt>
      <trkpt lat="42.736128" lon="-1.746305">
        <ele>757.662</ele>
        <time>2021-07-28T12:40:29Z</time>
      </trkpt>
      <trkpt lat="42.736123" lon="-1.746306">
        <ele>758.699</ele>
        <time>2021-07-28T12:40:40Z</time>
      </trkpt>
      <trkpt lat="42.736122" lon="-1.746311">
        <ele>759.589</ele>
        <time>2021-07-28T12:40:59Z</time>
      </trkpt>
      <trkpt lat="42.736126" lon="-1.746310">
        <ele>759.113</ele>
        <time>2021-07-28T12:41:13Z</time>
      </trkpt>
      <trkpt lat="42.736131" lon="-1.746312">
        <ele>758.631</ele>
        <time>2021-07-28T12:41:21Z</time>
      </trkpt>
      <trkpt lat="42.736134" lon="-1.746334">
        <ele>758.638</ele>
        <time>2021-07-28T12:41:23Z</time>
      </trkpt>
      <trkpt lat="42.736140" lon="-1.746351">
        <ele>758.126</ele>
        <time>2021-07-28T12:41:24Z</time>
      </trkpt>
      <trkpt lat="42.736147" lon="-1.746369">
        <ele>758.136</ele>
        <time>2021-07-28T12:41:25Z</time>
      </trkpt>
      <trkpt lat="42.736154" lon="-1.746388">
        <ele>757.617</ele>
        <time>2021-07-28T12:41:26Z</time>
      </trkpt>
      <trkpt lat="42.736160" lon="-1.746409">
        <ele>757.618</ele>
        <time>2021-07-28T12:41:27Z</time>
      </trkpt>
      <trkpt lat="42.736164" lon="-1.746433">
        <ele>757.608</ele>
        <time>2021-07-28T12:41:28Z</time>
      </trkpt>
      <trkpt lat="42.736169" lon="-1.746460">
        <ele>757.630</ele>
        <time>2021-07-28T12:41:29Z</time>
      </trkpt>
      <trkpt lat="42.736178" lon="-1.746644">
        <ele>757.112</ele>
        <time>2021-07-28T12:41:35Z</time>
      </trkpt>
      <trkpt lat="42.736178" lon="-1.746927">
        <ele>756.659</ele>
        <time>2021-07-28T12:41:41Z</time>
      </trkpt>
      <trkpt lat="42.736203" lon="-1.747399">
        <ele>755.219</ele>
        <time>2021-07-28T12:41:48Z</time>
      </trkpt>
      <trkpt lat="42.736330" lon="-1.748015">
        <ele>753.323</ele>
        <time>2021-07-28T12:41:55Z</time>
      </trkpt>
      <trkpt lat="42.736567" lon="-1.748630">
        <ele>751.881</ele>
        <time>2021-07-28T12:42:02Z</time>
      </trkpt>
      <trkpt lat="42.736922" lon="-1.749419">
        <ele>749.968</ele>
        <time>2021-07-28T12:42:12Z</time>
      </trkpt>
      <trkpt lat="42.737270" lon="-1.750241">
        <ele>748.096</ele>
        <time>2021-07-28T12:42:22Z</time>
      </trkpt>
      <trkpt lat="42.737481" lon="-1.750882">
        <ele>747.579</ele>
        <time>2021-07-28T12:42:30Z</time>
      </trkpt>
      <trkpt lat="42.737640" lon="-1.751643">
        <ele>746.105</ele>
        <time>2021-07-28T12:42:40Z</time>
      </trkpt>
      <trkpt lat="42.737785" lon="-1.752300">
        <ele>744.625</ele>
        <time>2021-07-28T12:42:49Z</time>
      </trkpt>
      <trkpt lat="42.737947" lon="-1.752935">
        <ele>743.708</ele>
        <time>2021-07-28T12:42:59Z</time>
      </trkpt>
      <trkpt lat="42.738098" lon="-1.753560">
        <ele>741.324</ele>
        <time>2021-07-28T12:43:08Z</time>
      </trkpt>
      <trkpt lat="42.738237" lon="-1.754133">
        <ele>739.346</ele>
        <time>2021-07-28T12:43:15Z</time>
      </trkpt>
      <trkpt lat="42.738388" lon="-1.754797">
        <ele>735.533</ele>
        <time>2021-07-28T12:43:21Z</time>
      </trkpt>
      <trkpt lat="42.738590" lon="-1.755750">
        <ele>730.243</ele>
        <time>2021-07-28T12:43:28Z</time>
      </trkpt>
      <trkpt lat="42.738832" lon="-1.756776">
        <ele>724.417</ele>
        <time>2021-07-28T12:43:35Z</time>
      </trkpt>
      <trkpt lat="42.739169" lon="-1.758276">
        <ele>718.255</ele>
        <time>2021-07-28T12:43:45Z</time>
      </trkpt>
      <trkpt lat="42.739475" lon="-1.759471">
        <ele>712.432</ele>
        <time>2021-07-28T12:43:53Z</time>
      </trkpt>
      <trkpt lat="42.739879" lon="-1.761122">
        <ele>706.740</ele>
        <time>2021-07-28T12:44:04Z</time>
      </trkpt>
      <trkpt lat="42.740248" lon="-1.762622">
        <ele>699.952</ele>
        <time>2021-07-28T12:44:14Z</time>
      </trkpt>
      <trkpt lat="42.740399" lon="-1.763419">
        <ele>695.653</ele>
        <time>2021-07-28T12:44:19Z</time>
      </trkpt>
      <trkpt lat="42.740403" lon="-1.763588">
        <ele>694.608</ele>
        <time>2021-07-28T12:44:20Z</time>
      </trkpt>
      <trkpt lat="42.740366" lon="-1.764370">
        <ele>689.408</ele>
        <time>2021-07-28T12:44:25Z</time>
      </trkpt>
      <trkpt lat="42.740446" lon="-1.765026">
        <ele>685.082</ele>
        <time>2021-07-28T12:44:30Z</time>
      </trkpt>
      <trkpt lat="42.740590" lon="-1.765566">
        <ele>682.114</ele>
        <time>2021-07-28T12:44:35Z</time>
      </trkpt>
      <trkpt lat="42.740633" lon="-1.765663">
        <ele>681.771</ele>
        <time>2021-07-28T12:44:36Z</time>
      </trkpt>
      <trkpt lat="42.740688" lon="-1.765753">
        <ele>681.711</ele>
        <time>2021-07-28T12:44:37Z</time>
      </trkpt>
      <trkpt lat="42.740907" lon="-1.766035">
        <ele>679.315</ele>
        <time>2021-07-28T12:44:41Z</time>
      </trkpt>
      <trkpt lat="42.740970" lon="-1.766083">
        <ele>678.813</ele>
        <time>2021-07-28T12:44:42Z</time>
      </trkpt>
      <trkpt lat="42.741045" lon="-1.766122">
        <ele>678.340</ele>
        <time>2021-07-28T12:44:43Z</time>
      </trkpt>
      <trkpt lat="42.741119" lon="-1.766141">
        <ele>677.878</ele>
        <time>2021-07-28T12:44:44Z</time>
      </trkpt>
      <trkpt lat="42.741192" lon="-1.766143">
        <ele>677.342</ele>
        <time>2021-07-28T12:44:45Z</time>
      </trkpt>
      <trkpt lat="42.741268" lon="-1.766135">
        <ele>676.922</ele>
        <time>2021-07-28T12:44:46Z</time>
      </trkpt>
      <trkpt lat="42.741343" lon="-1.766112">
        <ele>675.914</ele>
        <time>2021-07-28T12:44:47Z</time>
      </trkpt>
      <trkpt lat="42.741415" lon="-1.766076">
        <ele>675.408</ele>
        <time>2021-07-28T12:44:48Z</time>
      </trkpt>
      <trkpt lat="42.741479" lon="-1.766023">
        <ele>674.521</ele>
        <time>2021-07-28T12:44:49Z</time>
      </trkpt>
      <trkpt lat="42.741537" lon="-1.765954">
        <ele>673.533</ele>
        <time>2021-07-28T12:44:50Z</time>
      </trkpt>
      <trkpt lat="42.741586" lon="-1.765865">
        <ele>672.560</ele>
        <time>2021-07-28T12:44:51Z</time>
      </trkpt>
      <trkpt lat="42.741625" lon="-1.765766">
        <ele>671.680</ele>
        <time>2021-07-28T12:44:52Z</time>
      </trkpt>
      <trkpt lat="42.741653" lon="-1.765656">
        <ele>671.144</ele>
        <time>2021-07-28T12:44:53Z</time>
      </trkpt>
      <trkpt lat="42.741668" lon="-1.765548">
        <ele>670.682</ele>
        <time>2021-07-28T12:44:54Z</time>
      </trkpt>
      <trkpt lat="42.741679" lon="-1.765438">
        <ele>670.149</ele>
        <time>2021-07-28T12:44:55Z</time>
      </trkpt>
      <trkpt lat="42.741721" lon="-1.764935">
        <ele>667.267</ele>
        <time>2021-07-28T12:45:00Z</time>
      </trkpt>
      <trkpt lat="42.741720" lon="-1.764870">
        <ele>667.256</ele>
        <time>2021-07-28T12:45:01Z</time>
      </trkpt>
      <trkpt lat="42.741712" lon="-1.764771">
        <ele>667.259</ele>
        <time>2021-07-28T12:45:05Z</time>
      </trkpt>
      <trkpt lat="42.741700" lon="-1.764697">
        <ele>666.314</ele>
        <time>2021-07-28T12:45:11Z</time>
      </trkpt>
      <trkpt lat="42.741738" lon="-1.764560">
        <ele>665.308</ele>
        <time>2021-07-28T12:45:14Z</time>
      </trkpt>
      <trkpt lat="42.741770" lon="-1.764504">
        <ele>665.382</ele>
        <time>2021-07-28T12:45:15Z</time>
      </trkpt>
      <trkpt lat="42.741803" lon="-1.764456">
        <ele>664.864</ele>
        <time>2021-07-28T12:45:16Z</time>
      </trkpt>
      <trkpt lat="42.741842" lon="-1.764403">
        <ele>664.831</ele>
        <time>2021-07-28T12:45:17Z</time>
      </trkpt>
      <trkpt lat="42.741885" lon="-1.764345">
        <ele>664.411</ele>
        <time>2021-07-28T12:45:18Z</time>
      </trkpt>
      <trkpt lat="42.742205" lon="-1.763882">
        <ele>659.695</ele>
        <time>2021-07-28T12:45:24Z</time>
      </trkpt>
      <trkpt lat="42.742305" lon="-1.763685">
        <ele>658.193</ele>
        <time>2021-07-28T12:45:26Z</time>
      </trkpt>
      <trkpt lat="42.742534" lon="-1.762970">
        <ele>652.330</ele>
        <time>2021-07-28T12:45:32Z</time>
      </trkpt>
      <trkpt lat="42.742765" lon="-1.761877">
        <ele>645.188</ele>
        <time>2021-07-28T12:45:40Z</time>
      </trkpt>
      <trkpt lat="42.742855" lon="-1.760995">
        <ele>638.985</ele>
        <time>2021-07-28T12:45:46Z</time>
      </trkpt>
      <trkpt lat="42.742926" lon="-1.760253">
        <ele>634.689</ele>
        <time>2021-07-28T12:45:52Z</time>
      </trkpt>
      <trkpt lat="42.743104" lon="-1.759630">
        <ele>630.217</ele>
        <time>2021-07-28T12:45:57Z</time>
      </trkpt>
      <trkpt lat="42.743455" lon="-1.759041">
        <ele>625.908</ele>
        <time>2021-07-28T12:46:02Z</time>
      </trkpt>
      <trkpt lat="42.744045" lon="-1.758419">
        <ele>619.255</ele>
        <time>2021-07-28T12:46:08Z</time>
      </trkpt>
      <trkpt lat="42.744387" lon="-1.758004">
        <ele>614.457</ele>
        <time>2021-07-28T12:46:12Z</time>
      </trkpt>
      <trkpt lat="42.744757" lon="-1.757456">
        <ele>609.684</ele>
        <time>2021-07-28T12:46:17Z</time>
      </trkpt>
      <trkpt lat="42.744843" lon="-1.757367">
        <ele>608.174</ele>
        <time>2021-07-28T12:46:18Z</time>
      </trkpt>
      <trkpt lat="42.744943" lon="-1.757278">
        <ele>607.268</ele>
        <time>2021-07-28T12:46:19Z</time>
      </trkpt>
      <trkpt lat="42.745045" lon="-1.757200">
        <ele>605.766</ele>
        <time>2021-07-28T12:46:20Z</time>
      </trkpt>
      <trkpt lat="42.745152" lon="-1.757132">
        <ele>604.873</ele>
        <time>2021-07-28T12:46:21Z</time>
      </trkpt>
      <trkpt lat="42.745261" lon="-1.757075">
        <ele>603.841</ele>
        <time>2021-07-28T12:46:22Z</time>
      </trkpt>
      <trkpt lat="42.745363" lon="-1.757032">
        <ele>602.876</ele>
        <time>2021-07-28T12:46:23Z</time>
      </trkpt>
      <trkpt lat="42.745464" lon="-1.757002">
        <ele>601.990</ele>
        <time>2021-07-28T12:46:24Z</time>
      </trkpt>
      <trkpt lat="42.745575" lon="-1.756979">
        <ele>600.419</ele>
        <time>2021-07-28T12:46:25Z</time>
      </trkpt>
      <trkpt lat="42.746278" lon="-1.756865">
        <ele>593.708</ele>
        <time>2021-07-28T12:46:31Z</time>
      </trkpt>
      <trkpt lat="42.746675" lon="-1.756672">
        <ele>589.994</ele>
        <time>2021-07-28T12:46:35Z</time>
      </trkpt>
      <trkpt lat="42.747143" lon="-1.756179">
        <ele>586.586</ele>
        <time>2021-07-28T12:46:41Z</time>
      </trkpt>
      <trkpt lat="42.747719" lon="-1.755339">
        <ele>582.283</ele>
        <time>2021-07-28T12:46:49Z</time>
      </trkpt>
      <trkpt lat="42.747828" lon="-1.755089">
        <ele>581.753</ele>
        <time>2021-07-28T12:46:51Z</time>
      </trkpt>
      <trkpt lat="42.747868" lon="-1.754965">
        <ele>581.217</ele>
        <time>2021-07-28T12:46:52Z</time>
      </trkpt>
      <trkpt lat="42.747994" lon="-1.754298">
        <ele>578.835</ele>
        <time>2021-07-28T12:46:58Z</time>
      </trkpt>
      <trkpt lat="42.748009" lon="-1.754068">
        <ele>577.852</ele>
        <time>2021-07-28T12:47:00Z</time>
      </trkpt>
      <trkpt lat="42.747955" lon="-1.753412">
        <ele>573.570</ele>
        <time>2021-07-28T12:47:05Z</time>
      </trkpt>
      <trkpt lat="42.747755" lon="-1.752703">
        <ele>569.274</ele>
        <time>2021-07-28T12:47:10Z</time>
      </trkpt>
      <trkpt lat="42.747497" lon="-1.751823">
        <ele>565.356</ele>
        <time>2021-07-28T12:47:16Z</time>
      </trkpt>
      <trkpt lat="42.747427" lon="-1.751068">
        <ele>562.521</ele>
        <time>2021-07-28T12:47:21Z</time>
      </trkpt>
      <trkpt lat="42.747457" lon="-1.750230">
        <ele>558.608</ele>
        <time>2021-07-28T12:47:27Z</time>
      </trkpt>
      <trkpt lat="42.747524" lon="-1.749955">
        <ele>557.274</ele>
        <time>2021-07-28T12:47:29Z</time>
      </trkpt>
      <trkpt lat="42.747562" lon="-1.749845">
        <ele>556.776</ele>
        <time>2021-07-28T12:47:30Z</time>
      </trkpt>
      <trkpt lat="42.747609" lon="-1.749729">
        <ele>556.233</ele>
        <time>2021-07-28T12:47:31Z</time>
      </trkpt>
      <trkpt lat="42.747664" lon="-1.749618">
        <ele>555.393</ele>
        <time>2021-07-28T12:47:32Z</time>
      </trkpt>
      <trkpt lat="42.747733" lon="-1.749507">
        <ele>554.827</ele>
        <time>2021-07-28T12:47:33Z</time>
      </trkpt>
      <trkpt lat="42.747801" lon="-1.749407">
        <ele>554.395</ele>
        <time>2021-07-28T12:47:34Z</time>
      </trkpt>
      <trkpt lat="42.747875" lon="-1.749306">
        <ele>553.342</ele>
        <time>2021-07-28T12:47:35Z</time>
      </trkpt>
      <trkpt lat="42.747960" lon="-1.749215">
        <ele>552.930</ele>
        <time>2021-07-28T12:47:36Z</time>
      </trkpt>
      <trkpt lat="42.748041" lon="-1.749141">
        <ele>551.944</ele>
        <time>2021-07-28T12:47:37Z</time>
      </trkpt>
      <trkpt lat="42.748129" lon="-1.749072">
        <ele>551.405</ele>
        <time>2021-07-28T12:47:38Z</time>
      </trkpt>
      <trkpt lat="42.748224" lon="-1.749006">
        <ele>550.415</ele>
        <time>2021-07-28T12:47:39Z</time>
      </trkpt>
      <trkpt lat="42.748314" lon="-1.748953">
        <ele>549.508</ele>
        <time>2021-07-28T12:47:40Z</time>
      </trkpt>
      <trkpt lat="42.748889" lon="-1.748694">
        <ele>546.161</ele>
        <time>2021-07-28T12:47:46Z</time>
      </trkpt>
      <trkpt lat="42.749403" lon="-1.748342">
        <ele>544.783</ele>
        <time>2021-07-28T12:47:52Z</time>
      </trkpt>
      <trkpt lat="42.749697" lon="-1.747959">
        <ele>543.730</ele>
        <time>2021-07-28T12:47:57Z</time>
      </trkpt>
      <trkpt lat="42.750087" lon="-1.747206">
        <ele>542.310</ele>
        <time>2021-07-28T12:48:06Z</time>
      </trkpt>
      <trkpt lat="42.750349" lon="-1.746547">
        <ele>537.974</ele>
        <time>2021-07-28T12:48:13Z</time>
      </trkpt>
      <trkpt lat="42.750476" lon="-1.745924">
        <ele>534.122</ele>
        <time>2021-07-28T12:48:18Z</time>
      </trkpt>
      <trkpt lat="42.750669" lon="-1.744920">
        <ele>526.929</ele>
        <time>2021-07-28T12:48:25Z</time>
      </trkpt>
      <trkpt lat="42.750959" lon="-1.744206">
        <ele>521.127</ele>
        <time>2021-07-28T12:48:30Z</time>
      </trkpt>
      <trkpt lat="42.751300" lon="-1.743709">
        <ele>517.875</ele>
        <time>2021-07-28T12:48:34Z</time>
      </trkpt>
      <trkpt lat="42.751867" lon="-1.743181">
        <ele>515.828</ele>
        <time>2021-07-28T12:48:40Z</time>
      </trkpt>
      <trkpt lat="42.752350" lon="-1.742817">
        <ele>516.320</ele>
        <time>2021-07-28T12:48:46Z</time>
      </trkpt>
      <trkpt lat="42.752662" lon="-1.742575">
        <ele>518.208</ele>
        <time>2021-07-28T12:48:52Z</time>
      </trkpt>
      <trkpt lat="42.752904" lon="-1.742383">
        <ele>519.794</ele>
        <time>2021-07-28T12:48:59Z</time>
      </trkpt>
      <trkpt lat="42.753233" lon="-1.742131">
        <ele>520.666</ele>
        <time>2021-07-28T12:49:10Z</time>
      </trkpt>
      <trkpt lat="42.753462" lon="-1.741942">
        <ele>521.153</ele>
        <time>2021-07-28T12:49:19Z</time>
      </trkpt>
      <trkpt lat="42.753671" lon="-1.741780">
        <ele>521.693</ele>
        <time>2021-07-28T12:49:28Z</time>
      </trkpt>
      <trkpt lat="42.753715" lon="-1.741750">
        <ele>522.117</ele>
        <time>2021-07-28T12:49:31Z</time>
      </trkpt>
      <trkpt lat="42.753863" lon="-1.741645">
        <ele>522.665</ele>
        <time>2021-07-28T12:49:38Z</time>
      </trkpt>
      <trkpt lat="42.754119" lon="-1.741448">
        <ele>524.072</ele>
        <time>2021-07-28T12:49:48Z</time>
      </trkpt>
      <trkpt lat="42.754414" lon="-1.741206">
        <ele>525.510</ele>
        <time>2021-07-28T12:50:00Z</time>
      </trkpt>
      <trkpt lat="42.754736" lon="-1.740886">
        <ele>526.446</ele>
        <time>2021-07-28T12:50:12Z</time>
      </trkpt>
      <trkpt lat="42.755035" lon="-1.740474">
        <ele>526.488</ele>
        <time>2021-07-28T12:50:24Z</time>
      </trkpt>
      <trkpt lat="42.755227" lon="-1.740117">
        <ele>525.916</ele>
        <time>2021-07-28T12:50:32Z</time>
      </trkpt>
      <trkpt lat="42.755497" lon="-1.739580">
        <ele>524.008</ele>
        <time>2021-07-28T12:50:41Z</time>
      </trkpt>
      <trkpt lat="42.755875" lon="-1.738836">
        <ele>522.681</ele>
        <time>2021-07-28T12:50:53Z</time>
      </trkpt>
      <trkpt lat="42.756277" lon="-1.738046">
        <ele>522.153</ele>
        <time>2021-07-28T12:51:06Z</time>
      </trkpt>
      <trkpt lat="42.756576" lon="-1.737455">
        <ele>521.650</ele>
        <time>2021-07-28T12:51:17Z</time>
      </trkpt>
      <trkpt lat="42.756874" lon="-1.736875">
        <ele>520.620</ele>
        <time>2021-07-28T12:51:28Z</time>
      </trkpt>
      <trkpt lat="42.757126" lon="-1.736378">
        <ele>520.224</ele>
        <time>2021-07-28T12:51:38Z</time>
      </trkpt>
      <trkpt lat="42.757332" lon="-1.735992">
        <ele>520.692</ele>
        <time>2021-07-28T12:51:46Z</time>
      </trkpt>
      <trkpt lat="42.757587" lon="-1.735464">
        <ele>520.299</ele>
        <time>2021-07-28T12:51:57Z</time>
      </trkpt>
      <trkpt lat="42.757786" lon="-1.735071">
        <ele>519.727</ele>
        <time>2021-07-28T12:52:06Z</time>
      </trkpt>
      <trkpt lat="42.757976" lon="-1.734686">
        <ele>520.244</ele>
        <time>2021-07-28T12:52:15Z</time>
      </trkpt>
      <trkpt lat="42.758219" lon="-1.734208">
        <ele>520.205</ele>
        <time>2021-07-28T12:52:26Z</time>
      </trkpt>
      <trkpt lat="42.758487" lon="-1.733725">
        <ele>520.215</ele>
        <time>2021-07-28T12:52:37Z</time>
      </trkpt>
      <trkpt lat="42.758766" lon="-1.733312">
        <ele>519.708</ele>
        <time>2021-07-28T12:52:48Z</time>
      </trkpt>
      <trkpt lat="42.759068" lon="-1.732953">
        <ele>519.251</ele>
        <time>2021-07-28T12:52:58Z</time>
      </trkpt>
      <trkpt lat="42.759501" lon="-1.732547">
        <ele>518.283</ele>
        <time>2021-07-28T12:53:09Z</time>
      </trkpt>
      <trkpt lat="42.760018" lon="-1.732151">
        <ele>516.890</ele>
        <time>2021-07-28T12:53:21Z</time>
      </trkpt>
      <trkpt lat="42.760427" lon="-1.731849">
        <ele>517.810</ele>
        <time>2021-07-28T12:53:31Z</time>
      </trkpt>
      <trkpt lat="42.760630" lon="-1.731707">
        <ele>518.714</ele>
        <time>2021-07-28T12:53:38Z</time>
      </trkpt>
      <trkpt lat="42.760828" lon="-1.731565">
        <ele>520.662</ele>
        <time>2021-07-28T12:53:47Z</time>
      </trkpt>
      <trkpt lat="42.760989" lon="-1.731448">
        <ele>522.189</ele>
        <time>2021-07-28T12:53:55Z</time>
      </trkpt>
      <trkpt lat="42.761205" lon="-1.731283">
        <ele>524.037</ele>
        <time>2021-07-28T12:54:06Z</time>
      </trkpt>
      <trkpt lat="42.761376" lon="-1.731146">
        <ele>524.581</ele>
        <time>2021-07-28T12:54:15Z</time>
      </trkpt>
      <trkpt lat="42.761535" lon="-1.731020">
        <ele>524.561</ele>
        <time>2021-07-28T12:54:24Z</time>
      </trkpt>
      <trkpt lat="42.761716" lon="-1.730882">
        <ele>525.517</ele>
        <time>2021-07-28T12:54:33Z</time>
      </trkpt>
      <trkpt lat="42.761949" lon="-1.730693">
        <ele>526.408</ele>
        <time>2021-07-28T12:54:44Z</time>
      </trkpt>
      <trkpt lat="42.762198" lon="-1.730483">
        <ele>527.465</ele>
        <time>2021-07-28T12:54:55Z</time>
      </trkpt>
      <trkpt lat="42.762478" lon="-1.730196">
        <ele>527.987</ele>
        <time>2021-07-28T12:55:06Z</time>
      </trkpt>
      <trkpt lat="42.762747" lon="-1.729900">
        <ele>526.934</ele>
        <time>2021-07-28T12:55:16Z</time>
      </trkpt>
      <trkpt lat="42.763037" lon="-1.729595">
        <ele>525.534</ele>
        <time>2021-07-28T12:55:25Z</time>
      </trkpt>
      <trkpt lat="42.763363" lon="-1.729179">
        <ele>525.058</ele>
        <time>2021-07-28T12:55:34Z</time>
      </trkpt>
      <trkpt lat="42.763391" lon="-1.729122">
        <ele>524.596</ele>
        <time>2021-07-28T12:55:35Z</time>
      </trkpt>
      <trkpt lat="42.763417" lon="-1.729060">
        <ele>524.543</ele>
        <time>2021-07-28T12:55:36Z</time>
      </trkpt>
      <trkpt lat="42.763499" lon="-1.728779">
        <ele>523.061</ele>
        <time>2021-07-28T12:55:40Z</time>
      </trkpt>
      <trkpt lat="42.763509" lon="-1.728702">
        <ele>523.069</ele>
        <time>2021-07-28T12:55:41Z</time>
      </trkpt>
      <trkpt lat="42.763509" lon="-1.728628">
        <ele>522.604</ele>
        <time>2021-07-28T12:55:42Z</time>
      </trkpt>
      <trkpt lat="42.763498" lon="-1.728557">
        <ele>522.124</ele>
        <time>2021-07-28T12:55:43Z</time>
      </trkpt>
      <trkpt lat="42.763474" lon="-1.728488">
        <ele>522.108</ele>
        <time>2021-07-28T12:55:44Z</time>
      </trkpt>
      <trkpt lat="42.763443" lon="-1.728428">
        <ele>521.643</ele>
        <time>2021-07-28T12:55:45Z</time>
      </trkpt>
      <trkpt lat="42.763413" lon="-1.728372">
        <ele>521.635</ele>
        <time>2021-07-28T12:55:46Z</time>
      </trkpt>
      <trkpt lat="42.763389" lon="-1.728317">
        <ele>521.622</ele>
        <time>2021-07-28T12:55:47Z</time>
      </trkpt>
      <trkpt lat="42.763375" lon="-1.728265">
        <ele>521.152</ele>
        <time>2021-07-28T12:55:48Z</time>
      </trkpt>
      <trkpt lat="42.763367" lon="-1.728213">
        <ele>521.136</ele>
        <time>2021-07-28T12:55:49Z</time>
      </trkpt>
      <trkpt lat="42.763365" lon="-1.728159">
        <ele>521.194</ele>
        <time>2021-07-28T12:55:50Z</time>
      </trkpt>
      <trkpt lat="42.763370" lon="-1.728105">
        <ele>521.161</ele>
        <time>2021-07-28T12:55:51Z</time>
      </trkpt>
      <trkpt lat="42.763382" lon="-1.728056">
        <ele>520.679</ele>
        <time>2021-07-28T12:55:52Z</time>
      </trkpt>
      <trkpt lat="42.763399" lon="-1.728011">
        <ele>520.638</ele>
        <time>2021-07-28T12:55:53Z</time>
      </trkpt>
      <trkpt lat="42.763423" lon="-1.727968">
        <ele>520.670</ele>
        <time>2021-07-28T12:55:54Z</time>
      </trkpt>
      <trkpt lat="42.763447" lon="-1.727934">
        <ele>520.617</ele>
        <time>2021-07-28T12:55:55Z</time>
      </trkpt>
      <trkpt lat="42.763472" lon="-1.727907">
        <ele>520.608</ele>
        <time>2021-07-28T12:55:56Z</time>
      </trkpt>
      <trkpt lat="42.763501" lon="-1.727889">
        <ele>520.630</ele>
        <time>2021-07-28T12:55:57Z</time>
      </trkpt>
      <trkpt lat="42.763530" lon="-1.727885">
        <ele>520.652</ele>
        <time>2021-07-28T12:55:58Z</time>
      </trkpt>
      <trkpt lat="42.763558" lon="-1.727885">
        <ele>520.649</ele>
        <time>2021-07-28T12:55:59Z</time>
      </trkpt>
      <trkpt lat="42.763669" lon="-1.727965">
        <ele>521.149</ele>
        <time>2021-07-28T12:56:03Z</time>
      </trkpt>
      <trkpt lat="42.763734" lon="-1.728218">
        <ele>521.653</ele>
        <time>2021-07-28T12:56:10Z</time>
      </trkpt>
      <trkpt lat="42.763628" lon="-1.728397">
        <ele>522.171</ele>
        <time>2021-07-28T12:56:15Z</time>
      </trkpt>
      <trkpt lat="42.763486" lon="-1.728404">
        <ele>521.658</ele>
        <time>2021-07-28T12:56:19Z</time>
      </trkpt>
      <trkpt lat="42.763377" lon="-1.728251">
        <ele>521.686</ele>
        <time>2021-07-28T12:56:24Z</time>
      </trkpt>
      <trkpt lat="42.763404" lon="-1.728011">
        <ele>521.143</ele>
        <time>2021-07-28T12:56:29Z</time>
      </trkpt>
      <trkpt lat="42.763399" lon="-1.727771">
        <ele>520.664</ele>
        <time>2021-07-28T12:56:34Z</time>
      </trkpt>
      <trkpt lat="42.763232" lon="-1.727439">
        <ele>519.710</ele>
        <time>2021-07-28T12:56:42Z</time>
      </trkpt>
      <trkpt lat="42.763062" lon="-1.727046">
        <ele>519.208</ele>
        <time>2021-07-28T12:56:52Z</time>
      </trkpt>
      <trkpt lat="42.762985" lon="-1.726948">
        <ele>519.231</ele>
        <time>2021-07-28T12:56:57Z</time>
      </trkpt>
      <trkpt lat="42.762988" lon="-1.726943">
        <ele>520.243</ele>
        <time>2021-07-28T12:57:08Z</time>
      </trkpt>
      <trkpt lat="42.762982" lon="-1.726916">
        <ele>520.670</ele>
        <time>2021-07-28T12:57:17Z</time>
      </trkpt>
      <trkpt lat="42.763027" lon="-1.726918">
        <ele>520.660</ele>
        <time>2021-07-28T12:57:21Z</time>
      </trkpt>
      <trkpt lat="42.763125" lon="-1.727064">
        <ele>520.234</ele>
        <time>2021-07-28T12:57:28Z</time>
      </trkpt>
      <trkpt lat="42.763277" lon="-1.727417">
        <ele>521.112</ele>
        <time>2021-07-28T12:57:39Z</time>
      </trkpt>
      <trkpt lat="42.763443" lon="-1.727772">
        <ele>521.119</ele>
        <time>2021-07-28T12:57:49Z</time>
      </trkpt>
      <trkpt lat="42.763603" lon="-1.727870">
        <ele>520.627</ele>
        <time>2021-07-28T12:57:54Z</time>
      </trkpt>
      <trkpt lat="42.763769" lon="-1.728052">
        <ele>520.274</ele>
        <time>2021-07-28T12:58:00Z</time>
      </trkpt>
      <trkpt lat="42.763859" lon="-1.728176">
        <ele>520.256</ele>
        <time>2021-07-28T12:58:05Z</time>
      </trkpt>
      <trkpt lat="42.763861" lon="-1.728164">
        <ele>519.221</ele>
        <time>2021-07-28T12:58:10Z</time>
      </trkpt>
      <trkpt lat="42.763922" lon="-1.728186">
        <ele>519.208</ele>
        <time>2021-07-28T12:58:15Z</time>
      </trkpt>
      <trkpt lat="42.764096" lon="-1.728103">
        <ele>518.744</ele>
        <time>2021-07-28T12:58:22Z</time>
      </trkpt>
      <trkpt lat="42.764263" lon="-1.727911">
        <ele>517.886</ele>
        <time>2021-07-28T12:58:28Z</time>
      </trkpt>
      <trkpt lat="42.764480" lon="-1.727524">
        <ele>515.873</ele>
        <time>2021-07-28T12:58:36Z</time>
      </trkpt>
      <trkpt lat="42.764748" lon="-1.727020">
        <ele>512.553</ele>
        <time>2021-07-28T12:58:45Z</time>
      </trkpt>
      <trkpt lat="42.765035" lon="-1.726478">
        <ele>509.187</ele>
        <time>2021-07-28T12:58:52Z</time>
      </trkpt>
      <trkpt lat="42.765433" lon="-1.725874">
        <ele>504.365</ele>
        <time>2021-07-28T12:59:00Z</time>
      </trkpt>
      <trkpt lat="42.765953" lon="-1.725280">
        <ele>499.072</ele>
        <time>2021-07-28T12:59:08Z</time>
      </trkpt>
      <trkpt lat="42.766613" lon="-1.724540">
        <ele>492.380</ele>
        <time>2021-07-28T12:59:17Z</time>
      </trkpt>
      <trkpt lat="42.767224" lon="-1.723864">
        <ele>486.042</ele>
        <time>2021-07-28T12:59:25Z</time>
      </trkpt>
      <trkpt lat="42.767874" lon="-1.723146">
        <ele>480.822</ele>
        <time>2021-07-28T12:59:33Z</time>
      </trkpt>
      <trkpt lat="42.767944" lon="-1.723051">
        <ele>480.314</ele>
        <time>2021-07-28T12:59:34Z</time>
      </trkpt>
      <trkpt lat="42.768000" lon="-1.722943">
        <ele>480.308</ele>
        <time>2021-07-28T12:59:35Z</time>
      </trkpt>
      <trkpt lat="42.768041" lon="-1.722818">
        <ele>480.361</ele>
        <time>2021-07-28T12:59:36Z</time>
      </trkpt>
      <trkpt lat="42.768063" lon="-1.722699">
        <ele>480.383</ele>
        <time>2021-07-28T12:59:37Z</time>
      </trkpt>
      <trkpt lat="42.768070" lon="-1.722581">
        <ele>480.320</ele>
        <time>2021-07-28T12:59:38Z</time>
      </trkpt>
      <trkpt lat="42.768064" lon="-1.722468">
        <ele>480.840</ele>
        <time>2021-07-28T12:59:39Z</time>
      </trkpt>
      <trkpt lat="42.768040" lon="-1.722362">
        <ele>480.884</ele>
        <time>2021-07-28T12:59:40Z</time>
      </trkpt>
      <trkpt lat="42.768008" lon="-1.722281">
        <ele>481.242</ele>
        <time>2021-07-28T12:59:41Z</time>
      </trkpt>
      <trkpt lat="42.767973" lon="-1.722201">
        <ele>481.289</ele>
        <time>2021-07-28T12:59:42Z</time>
      </trkpt>
      <trkpt lat="42.767859" lon="-1.721955">
        <ele>481.257</ele>
        <time>2021-07-28T12:59:46Z</time>
      </trkpt>
      <trkpt lat="42.767823" lon="-1.721850">
        <ele>481.237</ele>
        <time>2021-07-28T12:59:48Z</time>
      </trkpt>
      <trkpt lat="42.767717" lon="-1.721687">
        <ele>482.749</ele>
        <time>2021-07-28T12:59:53Z</time>
      </trkpt>
      <trkpt lat="42.767702" lon="-1.721432">
        <ele>484.613</ele>
        <time>2021-07-28T13:00:00Z</time>
      </trkpt>
      <trkpt lat="42.767791" lon="-1.721203">
        <ele>485.108</ele>
        <time>2021-07-28T13:00:07Z</time>
      </trkpt>
      <trkpt lat="42.767946" lon="-1.720901">
        <ele>486.540</ele>
        <time>2021-07-28T13:00:16Z</time>
      </trkpt>
      <trkpt lat="42.768175" lon="-1.720473">
        <ele>487.572</ele>
        <time>2021-07-28T13:00:28Z</time>
      </trkpt>
      <trkpt lat="42.768366" lon="-1.720105">
        <ele>487.579</ele>
        <time>2021-07-28T13:00:38Z</time>
      </trkpt>
      <trkpt lat="42.768522" lon="-1.719808">
        <ele>486.569</ele>
        <time>2021-07-28T13:00:46Z</time>
      </trkpt>
      <trkpt lat="42.768747" lon="-1.719366">
        <ele>486.033</ele>
        <time>2021-07-28T13:00:56Z</time>
      </trkpt>
      <trkpt lat="42.769017" lon="-1.718846">
        <ele>485.631</ele>
        <time>2021-07-28T13:01:07Z</time>
      </trkpt>
      <trkpt lat="42.769337" lon="-1.718251">
        <ele>485.658</ele>
        <time>2021-07-28T13:01:19Z</time>
      </trkpt>
      <trkpt lat="42.769702" lon="-1.717576">
        <ele>485.196</ele>
        <time>2021-07-28T13:01:32Z</time>
      </trkpt>
      <trkpt lat="42.770014" lon="-1.716977">
        <ele>484.648</ele>
        <time>2021-07-28T13:01:44Z</time>
      </trkpt>
      <trkpt lat="42.770307" lon="-1.716454">
        <ele>482.761</ele>
        <time>2021-07-28T13:01:54Z</time>
      </trkpt>
      <trkpt lat="42.770630" lon="-1.715969">
        <ele>480.817</ele>
        <time>2021-07-28T13:02:02Z</time>
      </trkpt>
      <trkpt lat="42.771035" lon="-1.715451">
        <ele>477.908</ele>
        <time>2021-07-28T13:02:10Z</time>
      </trkpt>
      <trkpt lat="42.771583" lon="-1.714806">
        <ele>474.561</ele>
        <time>2021-07-28T13:02:19Z</time>
      </trkpt>
      <trkpt lat="42.772108" lon="-1.714196">
        <ele>470.763</ele>
        <time>2021-07-28T13:02:27Z</time>
      </trkpt>
      <trkpt lat="42.772739" lon="-1.713463">
        <ele>466.860</ele>
        <time>2021-07-28T13:02:36Z</time>
      </trkpt>
      <trkpt lat="42.773074" lon="-1.713047">
        <ele>466.360</ele>
        <time>2021-07-28T13:02:42Z</time>
      </trkpt>
      <trkpt lat="42.773471" lon="-1.712539">
        <ele>463.464</ele>
        <time>2021-07-28T13:02:50Z</time>
      </trkpt>
      <trkpt lat="42.773787" lon="-1.712196">
        <ele>463.462</ele>
        <time>2021-07-28T13:02:57Z</time>
      </trkpt>
      <trkpt lat="42.773860" lon="-1.712123">
        <ele>463.449</ele>
        <time>2021-07-28T13:02:59Z</time>
      </trkpt>
      <trkpt lat="42.773894" lon="-1.712088">
        <ele>463.957</ele>
        <time>2021-07-28T13:03:00Z</time>
      </trkpt>
      <trkpt lat="42.774210" lon="-1.711758">
        <ele>464.477</ele>
        <time>2021-07-28T13:03:10Z</time>
      </trkpt>
      <trkpt lat="42.774564" lon="-1.711337">
        <ele>464.461</ele>
        <time>2021-07-28T13:03:22Z</time>
      </trkpt>
      <trkpt lat="42.774854" lon="-1.710985">
        <ele>464.427</ele>
        <time>2021-07-28T13:03:32Z</time>
      </trkpt>
      <trkpt lat="42.774980" lon="-1.710804">
        <ele>464.408</ele>
        <time>2021-07-28T13:03:38Z</time>
      </trkpt>
      <trkpt lat="42.775253" lon="-1.710450">
        <ele>463.954</ele>
        <time>2021-07-28T13:03:47Z</time>
      </trkpt>
      <trkpt lat="42.775617" lon="-1.709986">
        <ele>463.486</ele>
        <time>2021-07-28T13:03:58Z</time>
      </trkpt>
      <trkpt lat="42.776074" lon="-1.709437">
        <ele>461.593</ele>
        <time>2021-07-28T13:04:11Z</time>
      </trkpt>
      <trkpt lat="42.776493" lon="-1.708930">
        <ele>460.653</ele>
        <time>2021-07-28T13:04:23Z</time>
      </trkpt>
      <trkpt lat="42.776844" lon="-1.708439">
        <ele>459.197</ele>
        <time>2021-07-28T13:04:34Z</time>
      </trkpt>
      <trkpt lat="42.777090" lon="-1.708057">
        <ele>457.215</ele>
        <time>2021-07-28T13:04:41Z</time>
      </trkpt>
      <trkpt lat="42.777201" lon="-1.707777">
        <ele>457.242</ele>
        <time>2021-07-28T13:04:45Z</time>
      </trkpt>
      <trkpt lat="42.777430" lon="-1.707255">
        <ele>455.830</ele>
        <time>2021-07-28T13:04:53Z</time>
      </trkpt>
      <trkpt lat="42.777523" lon="-1.707154">
        <ele>455.837</ele>
        <time>2021-07-28T13:04:55Z</time>
      </trkpt>
      <trkpt lat="42.777671" lon="-1.707049">
        <ele>455.349</ele>
        <time>2021-07-28T13:04:58Z</time>
      </trkpt>
      <trkpt lat="42.777726" lon="-1.707025">
        <ele>455.813</ele>
        <time>2021-07-28T13:04:59Z</time>
      </trkpt>
      <trkpt lat="42.777926" lon="-1.706963">
        <ele>455.808</ele>
        <time>2021-07-28T13:05:03Z</time>
      </trkpt>
      <trkpt lat="42.777978" lon="-1.706936">
        <ele>455.370</ele>
        <time>2021-07-28T13:05:04Z</time>
      </trkpt>
      <trkpt lat="42.778022" lon="-1.706908">
        <ele>455.322</ele>
        <time>2021-07-28T13:05:05Z</time>
      </trkpt>
      <trkpt lat="42.778062" lon="-1.706874">
        <ele>455.389</ele>
        <time>2021-07-28T13:05:06Z</time>
      </trkpt>
      <trkpt lat="42.778107" lon="-1.706828">
        <ele>455.349</ele>
        <time>2021-07-28T13:05:07Z</time>
      </trkpt>
      <trkpt lat="42.778145" lon="-1.706781">
        <ele>454.893</ele>
        <time>2021-07-28T13:05:08Z</time>
      </trkpt>
      <trkpt lat="42.778553" lon="-1.706280">
        <ele>455.371</ele>
        <time>2021-07-28T13:05:19Z</time>
      </trkpt>
      <trkpt lat="42.778731" lon="-1.706007">
        <ele>455.888</ele>
        <time>2021-07-28T13:05:27Z</time>
      </trkpt>
      <trkpt lat="42.778909" lon="-1.705730">
        <ele>457.756</ele>
        <time>2021-07-28T13:05:37Z</time>
      </trkpt>
      <trkpt lat="42.779054" lon="-1.705504">
        <ele>459.615</ele>
        <time>2021-07-28T13:05:47Z</time>
      </trkpt>
      <trkpt lat="42.779165" lon="-1.705307">
        <ele>461.065</ele>
        <time>2021-07-28T13:05:56Z</time>
      </trkpt>
      <trkpt lat="42.779279" lon="-1.705099">
        <ele>462.511</ele>
        <time>2021-07-28T13:06:05Z</time>
      </trkpt>
      <trkpt lat="42.779323" lon="-1.704932">
        <ele>463.008</ele>
        <time>2021-07-28T13:06:12Z</time>
      </trkpt>
      <trkpt lat="42.779346" lon="-1.704786">
        <ele>463.918</ele>
        <time>2021-07-28T13:06:19Z</time>
      </trkpt>
      <trkpt lat="42.779399" lon="-1.704657">
        <ele>463.970</ele>
        <time>2021-07-28T13:06:25Z</time>
      </trkpt>
      <trkpt lat="42.779403" lon="-1.704641">
        <ele>463.447</ele>
        <time>2021-07-28T13:06:31Z</time>
      </trkpt>
      <trkpt lat="42.779403" lon="-1.704646">
        <ele>464.427</ele>
        <time>2021-07-28T13:06:43Z</time>
      </trkpt>
      <trkpt lat="42.779436" lon="-1.704579">
        <ele>464.911</ele>
        <time>2021-07-28T13:06:51Z</time>
      </trkpt>
      <trkpt lat="42.779445" lon="-1.704567">
        <ele>464.489</ele>
        <time>2021-07-28T13:06:59Z</time>
      </trkpt>
      <trkpt lat="42.779451" lon="-1.704554">
        <ele>464.986</ele>
        <time>2021-07-28T13:07:00Z</time>
      </trkpt>
      <trkpt lat="42.779458" lon="-1.704536">
        <ele>464.944</ele>
        <time>2021-07-28T13:07:01Z</time>
      </trkpt>
      <trkpt lat="42.779466" lon="-1.704511">
        <ele>464.952</ele>
        <time>2021-07-28T13:07:02Z</time>
      </trkpt>
      <trkpt lat="42.779478" lon="-1.704486">
        <ele>464.953</ele>
        <time>2021-07-28T13:07:03Z</time>
      </trkpt>
      <trkpt lat="42.779569" lon="-1.704308">
        <ele>463.908</ele>
        <time>2021-07-28T13:07:11Z</time>
      </trkpt>
      <trkpt lat="42.779529" lon="-1.704166">
        <ele>463.908</ele>
        <time>2021-07-28T13:07:16Z</time>
      </trkpt>
      <trkpt lat="42.779337" lon="-1.703885">
        <ele>462.542</ele>
        <time>2021-07-28T13:07:25Z</time>
      </trkpt>
      <trkpt lat="42.779080" lon="-1.703536">
        <ele>463.064</ele>
        <time>2021-07-28T13:07:36Z</time>
      </trkpt>
      <trkpt lat="42.778869" lon="-1.703261">
        <ele>463.091</ele>
        <time>2021-07-28T13:07:45Z</time>
      </trkpt>
      <trkpt lat="42.778571" lon="-1.702897">
        <ele>462.541</ele>
        <time>2021-07-28T13:07:56Z</time>
      </trkpt>
      <trkpt lat="42.778262" lon="-1.702528">
        <ele>462.555</ele>
        <time>2021-07-28T13:08:07Z</time>
      </trkpt>
      <trkpt lat="42.777982" lon="-1.702196">
        <ele>463.053</ele>
        <time>2021-07-28T13:08:17Z</time>
      </trkpt>
      <trkpt lat="42.777673" lon="-1.701810">
        <ele>463.040</ele>
        <time>2021-07-28T13:08:28Z</time>
      </trkpt>
      <trkpt lat="42.777378" lon="-1.701447">
        <ele>465.488</ele>
        <time>2021-07-28T13:08:39Z</time>
      </trkpt>
      <trkpt lat="42.777169" lon="-1.701193">
        <ele>466.385</ele>
        <time>2021-07-28T13:08:47Z</time>
      </trkpt>
      <trkpt lat="42.776933" lon="-1.700889">
        <ele>466.889</ele>
        <time>2021-07-28T13:08:57Z</time>
      </trkpt>
      <trkpt lat="42.776706" lon="-1.700607">
        <ele>467.817</ele>
        <time>2021-07-28T13:09:07Z</time>
      </trkpt>
      <trkpt lat="42.776529" lon="-1.700391">
        <ele>468.708</ele>
        <time>2021-07-28T13:09:15Z</time>
      </trkpt>
      <trkpt lat="42.776367" lon="-1.700202">
        <ele>469.765</ele>
        <time>2021-07-28T13:09:22Z</time>
      </trkpt>
      <trkpt lat="42.776155" lon="-1.699935">
        <ele>470.227</ele>
        <time>2021-07-28T13:09:31Z</time>
      </trkpt>
      <trkpt lat="42.775984" lon="-1.699716">
        <ele>471.164</ele>
        <time>2021-07-28T13:09:39Z</time>
      </trkpt>
      <trkpt lat="42.775818" lon="-1.699519">
        <ele>472.114</ele>
        <time>2021-07-28T13:09:46Z</time>
      </trkpt>
      <trkpt lat="42.775602" lon="-1.699250">
        <ele>472.648</ele>
        <time>2021-07-28T13:09:55Z</time>
      </trkpt>
      <trkpt lat="42.775386" lon="-1.699000">
        <ele>473.596</ele>
        <time>2021-07-28T13:10:04Z</time>
      </trkpt>
      <trkpt lat="42.775195" lon="-1.698770">
        <ele>474.023</ele>
        <time>2021-07-28T13:10:12Z</time>
      </trkpt>
      <trkpt lat="42.774939" lon="-1.698494">
        <ele>475.081</ele>
        <time>2021-07-28T13:10:22Z</time>
      </trkpt>
      <trkpt lat="42.774661" lon="-1.698281">
        <ele>475.584</ele>
        <time>2021-07-28T13:10:32Z</time>
      </trkpt>
      <trkpt lat="42.774403" lon="-1.698112">
        <ele>476.407</ele>
        <time>2021-07-28T13:10:41Z</time>
      </trkpt>
      <trkpt lat="42.774176" lon="-1.697968">
        <ele>477.417</ele>
        <time>2021-07-28T13:10:49Z</time>
      </trkpt>
      <trkpt lat="42.773950" lon="-1.697838">
        <ele>478.308</ele>
        <time>2021-07-28T13:10:56Z</time>
      </trkpt>
      <trkpt lat="42.773652" lon="-1.697660">
        <ele>479.375</ele>
        <time>2021-07-28T13:11:05Z</time>
      </trkpt>
      <trkpt lat="42.773309" lon="-1.697429">
        <ele>480.327</ele>
        <time>2021-07-28T13:11:16Z</time>
      </trkpt>
      <trkpt lat="42.773094" lon="-1.697263">
        <ele>481.244</ele>
        <time>2021-07-28T13:11:24Z</time>
      </trkpt>
      <trkpt lat="42.772838" lon="-1.697007">
        <ele>483.224</ele>
        <time>2021-07-28T13:11:34Z</time>
      </trkpt>
      <trkpt lat="42.772645" lon="-1.696785">
        <ele>484.658</ele>
        <time>2021-07-28T13:11:42Z</time>
      </trkpt>
      <trkpt lat="42.772463" lon="-1.696562">
        <ele>487.026</ele>
        <time>2021-07-28T13:11:50Z</time>
      </trkpt>
      <trkpt lat="42.772337" lon="-1.696420">
        <ele>488.063</ele>
        <time>2021-07-28T13:11:57Z</time>
      </trkpt>
      <trkpt lat="42.772176" lon="-1.696227">
        <ele>488.011</ele>
        <time>2021-07-28T13:12:04Z</time>
      </trkpt>
      <trkpt lat="42.771980" lon="-1.695993">
        <ele>488.448</ele>
        <time>2021-07-28T13:12:13Z</time>
      </trkpt>
      <trkpt lat="42.771856" lon="-1.695793">
        <ele>488.461</ele>
        <time>2021-07-28T13:12:20Z</time>
      </trkpt>
      <trkpt lat="42.771895" lon="-1.695596">
        <ele>488.017</ele>
        <time>2021-07-28T13:12:27Z</time>
      </trkpt>
      <trkpt lat="42.772034" lon="-1.695330">
        <ele>488.008</ele>
        <time>2021-07-28T13:12:36Z</time>
      </trkpt>
      <trkpt lat="42.772220" lon="-1.695041">
        <ele>485.131</ele>
        <time>2021-07-28T13:12:45Z</time>
      </trkpt>
      <trkpt lat="42.772411" lon="-1.694778">
        <ele>482.773</ele>
        <time>2021-07-28T13:12:54Z</time>
      </trkpt>
      <trkpt lat="42.772621" lon="-1.694502">
        <ele>479.810</ele>
        <time>2021-07-28T13:13:03Z</time>
      </trkpt>
      <trkpt lat="42.772698" lon="-1.694368">
        <ele>478.810</ele>
        <time>2021-07-28T13:13:10Z</time>
      </trkpt>
      <trkpt lat="42.772690" lon="-1.694373">
        <ele>478.364</ele>
        <time>2021-07-28T13:13:17Z</time>
      </trkpt>
      <trkpt lat="42.772709" lon="-1.694343">
        <ele>478.312</ele>
        <time>2021-07-28T13:13:26Z</time>
      </trkpt>
      <trkpt lat="42.772738" lon="-1.694297">
        <ele>478.879</ele>
        <time>2021-07-28T13:13:31Z</time>
      </trkpt>
      <trkpt lat="42.772738" lon="-1.694280">
        <ele>478.887</ele>
        <time>2021-07-28T13:13:32Z</time>
      </trkpt>
      <trkpt lat="42.772739" lon="-1.694263">
        <ele>478.352</ele>
        <time>2021-07-28T13:13:33Z</time>
      </trkpt>
      <trkpt lat="42.772808" lon="-1.694122">
        <ele>476.953</ele>
        <time>2021-07-28T13:13:39Z</time>
      </trkpt>
      <trkpt lat="42.773008" lon="-1.693967">
        <ele>475.508</ele>
        <time>2021-07-28T13:13:47Z</time>
      </trkpt>
      <trkpt lat="42.773156" lon="-1.693854">
        <ele>474.508</ele>
        <time>2021-07-28T13:13:54Z</time>
      </trkpt>
      <trkpt lat="42.773278" lon="-1.693737">
        <ele>473.582</ele>
        <time>2021-07-28T13:14:02Z</time>
      </trkpt>
      <trkpt lat="42.773400" lon="-1.693627">
        <ele>472.614</ele>
        <time>2021-07-28T13:14:09Z</time>
      </trkpt>
      <trkpt lat="42.773561" lon="-1.693426">
        <ele>471.611</ele>
        <time>2021-07-28T13:14:19Z</time>
      </trkpt>
      <trkpt lat="42.773672" lon="-1.693257">
        <ele>470.751</ele>
        <time>2021-07-28T13:14:27Z</time>
      </trkpt>
      <trkpt lat="42.773847" lon="-1.693045">
        <ele>469.725</ele>
        <time>2021-07-28T13:14:38Z</time>
      </trkpt>
      <trkpt lat="42.773995" lon="-1.692870">
        <ele>469.723</ele>
        <time>2021-07-28T13:14:48Z</time>
      </trkpt>
      <trkpt lat="42.774135" lon="-1.692690">
        <ele>469.750</ele>
        <time>2021-07-28T13:14:57Z</time>
      </trkpt>
      <trkpt lat="42.774264" lon="-1.692495">
        <ele>468.758</ele>
        <time>2021-07-28T13:15:06Z</time>
      </trkpt>
      <trkpt lat="42.774362" lon="-1.692357">
        <ele>467.815</ele>
        <time>2021-07-28T13:15:13Z</time>
      </trkpt>
      <trkpt lat="42.774475" lon="-1.692249">
        <ele>467.865</ele>
        <time>2021-07-28T13:15:20Z</time>
      </trkpt>
      <trkpt lat="42.774574" lon="-1.692148">
        <ele>467.311</ele>
        <time>2021-07-28T13:15:28Z</time>
      </trkpt>
      <trkpt lat="42.774652" lon="-1.692064">
        <ele>466.308</ele>
        <time>2021-07-28T13:15:36Z</time>
      </trkpt>
      <trkpt lat="42.774752" lon="-1.691930">
        <ele>465.998</ele>
        <time>2021-07-28T13:15:45Z</time>
      </trkpt>
      <trkpt lat="42.774873" lon="-1.691760">
        <ele>465.480</ele>
        <time>2021-07-28T13:15:53Z</time>
      </trkpt>
      <trkpt lat="42.775019" lon="-1.691573">
        <ele>464.937</ele>
        <time>2021-07-28T13:16:01Z</time>
      </trkpt>
      <trkpt lat="42.775136" lon="-1.691460">
        <ele>464.427</ele>
        <time>2021-07-28T13:16:07Z</time>
      </trkpt>
      <trkpt lat="42.775301" lon="-1.691349">
        <ele>463.931</ele>
        <time>2021-07-28T13:16:16Z</time>
      </trkpt>
      <trkpt lat="42.775444" lon="-1.691186">
        <ele>462.589</ele>
        <time>2021-07-28T13:16:25Z</time>
      </trkpt>
      <trkpt lat="42.775601" lon="-1.691093">
        <ele>458.686</ele>
        <time>2021-07-28T13:16:31Z</time>
      </trkpt>
      <trkpt lat="42.775835" lon="-1.690997">
        <ele>455.364</ele>
        <time>2021-07-28T13:16:39Z</time>
      </trkpt>
      <trkpt lat="42.775854" lon="-1.690985">
        <ele>454.869</ele>
        <time>2021-07-28T13:16:45Z</time>
      </trkpt>
      <trkpt lat="42.775957" lon="-1.690927">
        <ele>453.404</ele>
        <time>2021-07-28T13:16:51Z</time>
      </trkpt>
      <trkpt lat="42.776217" lon="-1.690801">
        <ele>451.424</ele>
        <time>2021-07-28T13:16:57Z</time>
      </trkpt>
      <trkpt lat="42.776674" lon="-1.690569">
        <ele>450.008</ele>
        <time>2021-07-28T13:17:07Z</time>
      </trkpt>
      <trkpt lat="42.777193" lon="-1.690314">
        <ele>448.533</ele>
        <time>2021-07-28T13:17:17Z</time>
      </trkpt>
      <trkpt lat="42.777516" lon="-1.690145">
        <ele>448.125</ele>
        <time>2021-07-28T13:17:25Z</time>
      </trkpt>
      <trkpt lat="42.777596" lon="-1.690098">
        <ele>447.652</ele>
        <time>2021-07-28T13:17:27Z</time>
      </trkpt>
      <trkpt lat="42.777733" lon="-1.690036">
        <ele>447.612</ele>
        <time>2021-07-28T13:17:31Z</time>
      </trkpt>
      <trkpt lat="42.778047" lon="-1.689867">
        <ele>446.126</ele>
        <time>2021-07-28T13:17:40Z</time>
      </trkpt>
      <trkpt lat="42.778161" lon="-1.689745">
        <ele>446.124</ele>
        <time>2021-07-28T13:17:46Z</time>
      </trkpt>
      <trkpt lat="42.778158" lon="-1.689753">
        <ele>446.131</ele>
        <time>2021-07-28T13:17:54Z</time>
      </trkpt>
      <trkpt lat="42.778158" lon="-1.689746">
        <ele>446.159</ele>
        <time>2021-07-28T13:18:07Z</time>
      </trkpt>
      <trkpt lat="42.778159" lon="-1.689746">
        <ele>445.221</ele>
        <time>2021-07-28T13:18:16Z</time>
      </trkpt>
      <trkpt lat="42.778159" lon="-1.689749">
        <ele>445.241</ele>
        <time>2021-07-28T13:18:29Z</time>
      </trkpt>
      <trkpt lat="42.778160" lon="-1.689751">
        <ele>444.205</ele>
        <time>2021-07-28T13:18:46Z</time>
      </trkpt>
      <trkpt lat="42.778154" lon="-1.689747">
        <ele>443.708</ele>
        <time>2021-07-28T13:19:01Z</time>
      </trkpt>
      <trkpt lat="42.778155" lon="-1.689745">
        <ele>443.799</ele>
        <time>2021-07-28T13:19:10Z</time>
      </trkpt>
      <trkpt lat="42.778157" lon="-1.689740">
        <ele>443.711</ele>
        <time>2021-07-28T13:19:24Z</time>
      </trkpt>
      <trkpt lat="42.778156" lon="-1.689748">
        <ele>444.248</ele>
        <time>2021-07-28T13:19:37Z</time>
      </trkpt>
      <trkpt lat="42.778155" lon="-1.689750">
        <ele>444.268</ele>
        <time>2021-07-28T13:19:48Z</time>
      </trkpt>
      <trkpt lat="42.778156" lon="-1.689748">
        <ele>444.742</ele>
        <time>2021-07-28T13:20:03Z</time>
      </trkpt>
      <trkpt lat="42.778159" lon="-1.689731">
        <ele>444.740</ele>
        <time>2021-07-28T13:20:16Z</time>
      </trkpt>
      <trkpt lat="42.778161" lon="-1.689714">
        <ele>445.227</ele>
        <time>2021-07-28T13:20:23Z</time>
      </trkpt>
      <trkpt lat="42.778162" lon="-1.689716">
        <ele>445.215</ele>
        <time>2021-07-28T13:20:33Z</time>
      </trkpt>
      <trkpt lat="42.778161" lon="-1.689714">
        <ele>446.137</ele>
        <time>2021-07-28T13:20:49Z</time>
      </trkpt>
      <trkpt lat="42.778160" lon="-1.689709">
        <ele>446.649</ele>
        <time>2021-07-28T13:21:09Z</time>
      </trkpt>
      <trkpt lat="42.778165" lon="-1.689704">
        <ele>446.613</ele>
        <time>2021-07-28T13:21:25Z</time>
      </trkpt>
      <trkpt lat="42.778172" lon="-1.689632">
        <ele>446.108</ele>
        <time>2021-07-28T13:21:32Z</time>
      </trkpt>
      <trkpt lat="42.778184" lon="-1.689378">
        <ele>445.780</ele>
        <time>2021-07-28T13:21:39Z</time>
      </trkpt>
      <trkpt lat="42.778167" lon="-1.688979">
        <ele>445.742</ele>
        <time>2021-07-28T13:21:49Z</time>
      </trkpt>
      <trkpt lat="42.778213" lon="-1.688551">
        <ele>446.159</ele>
        <time>2021-07-28T13:21:59Z</time>
      </trkpt>
      <trkpt lat="42.778345" lon="-1.688236">
        <ele>445.739</ele>
        <time>2021-07-28T13:22:07Z</time>
      </trkpt>
      <trkpt lat="42.778515" lon="-1.687986">
        <ele>445.233</ele>
        <time>2021-07-28T13:22:14Z</time>
      </trkpt>
      <trkpt lat="42.778823" lon="-1.687583">
        <ele>444.281</ele>
        <time>2021-07-28T13:22:25Z</time>
      </trkpt>
      <trkpt lat="42.779084" lon="-1.687253">
        <ele>443.758</ele>
        <time>2021-07-28T13:22:34Z</time>
      </trkpt>
      <trkpt lat="42.779375" lon="-1.686869">
        <ele>442.396</ele>
        <time>2021-07-28T13:22:44Z</time>
      </trkpt>
      <trkpt lat="42.779661" lon="-1.686492">
        <ele>441.381</ele>
        <time>2021-07-28T13:22:53Z</time>
      </trkpt>
      <trkpt lat="42.779915" lon="-1.686128">
        <ele>439.961</ele>
        <time>2021-07-28T13:23:01Z</time>
      </trkpt>
      <trkpt lat="42.780002" lon="-1.686026">
        <ele>439.417</ele>
        <time>2021-07-28T13:23:04Z</time>
      </trkpt>
      <trkpt lat="42.780025" lon="-1.685980">
        <ele>438.908</ele>
        <time>2021-07-28T13:23:05Z</time>
      </trkpt>
      <trkpt lat="42.780243" lon="-1.685576">
        <ele>438.015</ele>
        <time>2021-07-28T13:23:13Z</time>
      </trkpt>
      <trkpt lat="42.780579" lon="-1.685013">
        <ele>437.077</ele>
        <time>2021-07-28T13:23:23Z</time>
      </trkpt>
      <trkpt lat="42.780957" lon="-1.684387">
        <ele>437.014</ele>
        <time>2021-07-28T13:23:34Z</time>
      </trkpt>
      <trkpt lat="42.781322" lon="-1.683803">
        <ele>437.554</ele>
        <time>2021-07-28T13:23:46Z</time>
      </trkpt>
      <trkpt lat="42.781591" lon="-1.683301">
        <ele>439.958</ele>
        <time>2021-07-28T13:23:57Z</time>
      </trkpt>
      <trkpt lat="42.781801" lon="-1.682785">
        <ele>439.926</ele>
        <time>2021-07-28T13:24:08Z</time>
      </trkpt>
      <trkpt lat="42.781957" lon="-1.682599">
        <ele>439.453</ele>
        <time>2021-07-28T13:24:15Z</time>
      </trkpt>
      <trkpt lat="42.782110" lon="-1.682405">
        <ele>438.591</ele>
        <time>2021-07-28T13:24:22Z</time>
      </trkpt>
      <trkpt lat="42.782361" lon="-1.682088">
        <ele>437.095</ele>
        <time>2021-07-28T13:24:32Z</time>
      </trkpt>
      <trkpt lat="42.782556" lon="-1.681760">
        <ele>436.549</ele>
        <time>2021-07-28T13:24:42Z</time>
      </trkpt>
      <trkpt lat="42.782799" lon="-1.681430">
        <ele>436.523</ele>
        <time>2021-07-28T13:24:53Z</time>
      </trkpt>
      <trkpt lat="42.783071" lon="-1.681181">
        <ele>436.508</ele>
        <time>2021-07-28T13:25:04Z</time>
      </trkpt>
      <trkpt lat="42.783317" lon="-1.680992">
        <ele>437.576</ele>
        <time>2021-07-28T13:25:14Z</time>
      </trkpt>
      <trkpt lat="42.783570" lon="-1.680764">
        <ele>438.568</ele>
        <time>2021-07-28T13:25:25Z</time>
      </trkpt>
      <trkpt lat="42.783763" lon="-1.680634">
        <ele>439.465</ele>
        <time>2021-07-28T13:25:34Z</time>
      </trkpt>
      <trkpt lat="42.783939" lon="-1.680532">
        <ele>440.435</ele>
        <time>2021-07-28T13:25:43Z</time>
      </trkpt>
      <trkpt lat="42.784110" lon="-1.680401">
        <ele>440.939</ele>
        <time>2021-07-28T13:25:52Z</time>
      </trkpt>
      <trkpt lat="42.784276" lon="-1.680241">
        <ele>441.897</ele>
        <time>2021-07-28T13:26:01Z</time>
      </trkpt>
      <trkpt lat="42.784405" lon="-1.680084">
        <ele>443.774</ele>
        <time>2021-07-28T13:26:10Z</time>
      </trkpt>
      <trkpt lat="42.784506" lon="-1.679951">
        <ele>445.712</ele>
        <time>2021-07-28T13:26:17Z</time>
      </trkpt>
      <trkpt lat="42.784529" lon="-1.679926">
        <ele>446.119</ele>
        <time>2021-07-28T13:26:19Z</time>
      </trkpt>
      <trkpt lat="42.784540" lon="-1.679925">
        <ele>446.609</ele>
        <time>2021-07-28T13:26:20Z</time>
      </trkpt>
      <trkpt lat="42.784552" lon="-1.679927">
        <ele>446.619</ele>
        <time>2021-07-28T13:26:21Z</time>
      </trkpt>
      <trkpt lat="42.784563" lon="-1.679926">
        <ele>447.108</ele>
        <time>2021-07-28T13:26:22Z</time>
      </trkpt>
      <trkpt lat="42.784574" lon="-1.679914">
        <ele>447.178</ele>
        <time>2021-07-28T13:26:23Z</time>
      </trkpt>
      <trkpt lat="42.784580" lon="-1.679893">
        <ele>447.140</ele>
        <time>2021-07-28T13:26:24Z</time>
      </trkpt>
      <trkpt lat="42.784578" lon="-1.679868">
        <ele>447.177</ele>
        <time>2021-07-28T13:26:25Z</time>
      </trkpt>
      <trkpt lat="42.784594" lon="-1.679704">
        <ele>447.697</ele>
        <time>2021-07-28T13:26:31Z</time>
      </trkpt>
      <trkpt lat="42.784711" lon="-1.679566">
        <ele>448.521</ele>
        <time>2021-07-28T13:26:39Z</time>
      </trkpt>
      <trkpt lat="42.784826" lon="-1.679440">
        <ele>449.059</ele>
        <time>2021-07-28T13:26:46Z</time>
      </trkpt>
      <trkpt lat="42.784978" lon="-1.679290">
        <ele>449.526</ele>
        <time>2021-07-28T13:26:55Z</time>
      </trkpt>
      <trkpt lat="42.785137" lon="-1.679126">
        <ele>451.944</ele>
        <time>2021-07-28T13:27:05Z</time>
      </trkpt>
      <trkpt lat="42.785298" lon="-1.678971">
        <ele>452.922</ele>
        <time>2021-07-28T13:27:15Z</time>
      </trkpt>
      <trkpt lat="42.785478" lon="-1.678792">
        <ele>454.362</ele>
        <time>2021-07-28T13:27:26Z</time>
      </trkpt>
      <trkpt lat="42.785648" lon="-1.678626">
        <ele>456.208</ele>
        <time>2021-07-28T13:27:36Z</time>
      </trkpt>
      <trkpt lat="42.785833" lon="-1.678446">
        <ele>456.708</ele>
        <time>2021-07-28T13:27:47Z</time>
      </trkpt>
      <trkpt lat="42.785951" lon="-1.678252">
        <ele>457.219</ele>
        <time>2021-07-28T13:27:56Z</time>
      </trkpt>
      <trkpt lat="42.785936" lon="-1.678024">
        <ele>457.741</ele>
        <time>2021-07-28T13:28:04Z</time>
      </trkpt>
      <trkpt lat="42.785911" lon="-1.677946">
        <ele>457.268</ele>
        <time>2021-07-28T13:28:08Z</time>
      </trkpt>
      <trkpt lat="42.785948" lon="-1.677992">
        <ele>458.288</ele>
        <time>2021-07-28T13:28:13Z</time>
      </trkpt>
      <trkpt lat="42.785990" lon="-1.678073">
        <ele>457.772</ele>
        <time>2021-07-28T13:28:18Z</time>
      </trkpt>
      <trkpt lat="42.786023" lon="-1.678060">
        <ele>457.730</ele>
        <time>2021-07-28T13:28:21Z</time>
      </trkpt>
      <trkpt lat="42.786087" lon="-1.677860">
        <ele>458.657</ele>
        <time>2021-07-28T13:28:29Z</time>
      </trkpt>
      <trkpt lat="42.786168" lon="-1.677608">
        <ele>459.665</ele>
        <time>2021-07-28T13:28:38Z</time>
      </trkpt>
      <trkpt lat="42.786270" lon="-1.677344">
        <ele>463.025</ele>
        <time>2021-07-28T13:28:47Z</time>
      </trkpt>
      <trkpt lat="42.786339" lon="-1.677161">
        <ele>462.526</ele>
        <time>2021-07-28T13:28:55Z</time>
      </trkpt>
      <trkpt lat="42.786362" lon="-1.677077">
        <ele>463.408</ele>
        <time>2021-07-28T13:28:59Z</time>
      </trkpt>
      <trkpt lat="42.786392" lon="-1.677058">
        <ele>463.408</ele>
        <time>2021-07-28T13:29:00Z</time>
      </trkpt>
      <trkpt lat="42.786414" lon="-1.677051">
        <ele>463.049</ele>
        <time>2021-07-28T13:29:01Z</time>
      </trkpt>
      <trkpt lat="42.786446" lon="-1.677043">
        <ele>462.561</ele>
        <time>2021-07-28T13:29:02Z</time>
      </trkpt>
      <trkpt lat="42.786714" lon="-1.676898">
        <ele>463.468</ele>
        <time>2021-07-28T13:29:11Z</time>
      </trkpt>
      <trkpt lat="42.787000" lon="-1.676700">
        <ele>463.918</ele>
        <time>2021-07-28T13:29:21Z</time>
      </trkpt>
      <trkpt lat="42.787268" lon="-1.676526">
        <ele>464.922</ele>
        <time>2021-07-28T13:29:32Z</time>
      </trkpt>
      <trkpt lat="42.787496" lon="-1.676365">
        <ele>466.810</ele>
        <time>2021-07-28T13:29:42Z</time>
      </trkpt>
      <trkpt lat="42.787702" lon="-1.676189">
        <ele>467.347</ele>
        <time>2021-07-28T13:29:51Z</time>
      </trkpt>
      <trkpt lat="42.787895" lon="-1.675900">
        <ele>467.375</ele>
        <time>2021-07-28T13:30:01Z</time>
      </trkpt>
      <trkpt lat="42.788112" lon="-1.675573">
        <ele>466.336</ele>
        <time>2021-07-28T13:30:08Z</time>
      </trkpt>
      <trkpt lat="42.788224" lon="-1.675415">
        <ele>466.317</ele>
        <time>2021-07-28T13:30:11Z</time>
      </trkpt>
      <trkpt lat="42.788253" lon="-1.675352">
        <ele>466.818</ele>
        <time>2021-07-28T13:30:12Z</time>
      </trkpt>
      <trkpt lat="42.788271" lon="-1.675281">
        <ele>466.808</ele>
        <time>2021-07-28T13:30:13Z</time>
      </trkpt>
      <trkpt lat="42.788289" lon="-1.675221">
        <ele>466.850</ele>
        <time>2021-07-28T13:30:14Z</time>
      </trkpt>
      <trkpt lat="42.788320" lon="-1.675174">
        <ele>466.812</ele>
        <time>2021-07-28T13:30:15Z</time>
      </trkpt>
      <trkpt lat="42.788362" lon="-1.675149">
        <ele>466.329</ele>
        <time>2021-07-28T13:30:16Z</time>
      </trkpt>
      <trkpt lat="42.788410" lon="-1.675138">
        <ele>465.949</ele>
        <time>2021-07-28T13:30:17Z</time>
      </trkpt>
      <trkpt lat="42.788462" lon="-1.675127">
        <ele>465.433</ele>
        <time>2021-07-28T13:30:18Z</time>
      </trkpt>
      <trkpt lat="42.788518" lon="-1.675111">
        <ele>464.961</ele>
        <time>2021-07-28T13:30:19Z</time>
      </trkpt>
      <trkpt lat="42.788690" lon="-1.675083">
        <ele>463.478</ele>
        <time>2021-07-28T13:30:22Z</time>
      </trkpt>
      <trkpt lat="42.788917" lon="-1.675078">
        <ele>462.586</ele>
        <time>2021-07-28T13:30:27Z</time>
      </trkpt>
      <trkpt lat="42.789287" lon="-1.675059">
        <ele>459.164</ele>
        <time>2021-07-28T13:30:33Z</time>
      </trkpt>
      <trkpt lat="42.789780" lon="-1.675017">
        <ele>455.306</ele>
        <time>2021-07-28T13:30:39Z</time>
      </trkpt>
      <trkpt lat="42.790470" lon="-1.674835">
        <ele>448.116</ele>
        <time>2021-07-28T13:30:46Z</time>
      </trkpt>
      <trkpt lat="42.790881" lon="-1.674630">
        <ele>443.308</ele>
        <time>2021-07-28T13:30:51Z</time>
      </trkpt>
      <trkpt lat="42.791380" lon="-1.674309">
        <ele>438.523</ele>
        <time>2021-07-28T13:30:58Z</time>
      </trkpt>
      <trkpt lat="42.791918" lon="-1.673923">
        <ele>434.655</ele>
        <time>2021-07-28T13:31:06Z</time>
      </trkpt>
      <trkpt lat="42.792375" lon="-1.673674">
        <ele>431.262</ele>
        <time>2021-07-28T13:31:13Z</time>
      </trkpt>
      <trkpt lat="42.792864" lon="-1.673461">
        <ele>427.452</ele>
        <time>2021-07-28T13:31:20Z</time>
      </trkpt>
      <trkpt lat="42.793326" lon="-1.673258">
        <ele>423.136</ele>
        <time>2021-07-28T13:31:26Z</time>
      </trkpt>
      <trkpt lat="42.793480" lon="-1.673176">
        <ele>422.184</ele>
        <time>2021-07-28T13:31:28Z</time>
      </trkpt>
      <trkpt lat="42.793566" lon="-1.673112">
        <ele>421.161</ele>
        <time>2021-07-28T13:31:29Z</time>
      </trkpt>
      <trkpt lat="42.794033" lon="-1.672703">
        <ele>419.719</ele>
        <time>2021-07-28T13:31:36Z</time>
      </trkpt>
      <trkpt lat="42.794401" lon="-1.672294">
        <ele>418.344</ele>
        <time>2021-07-28T13:31:43Z</time>
      </trkpt>
      <trkpt lat="42.794852" lon="-1.671780">
        <ele>416.805</ele>
        <time>2021-07-28T13:31:53Z</time>
      </trkpt>
      <trkpt lat="42.795122" lon="-1.671398">
        <ele>418.315</ele>
        <time>2021-07-28T13:32:01Z</time>
      </trkpt>
      <trkpt lat="42.795298" lon="-1.671026">
        <ele>420.208</ele>
        <time>2021-07-28T13:32:10Z</time>
      </trkpt>
      <trkpt lat="42.795418" lon="-1.670649">
        <ele>421.671</ele>
        <time>2021-07-28T13:32:19Z</time>
      </trkpt>
      <trkpt lat="42.795550" lon="-1.670119">
        <ele>421.673</ele>
        <time>2021-07-28T13:32:30Z</time>
      </trkpt>
      <trkpt lat="42.795704" lon="-1.669696">
        <ele>419.760</ele>
        <time>2021-07-28T13:32:37Z</time>
      </trkpt>
      <trkpt lat="42.796009" lon="-1.669179">
        <ele>416.390</ele>
        <time>2021-07-28T13:32:44Z</time>
      </trkpt>
      <trkpt lat="42.796509" lon="-1.668507">
        <ele>413.974</ele>
        <time>2021-07-28T13:32:53Z</time>
      </trkpt>
      <trkpt lat="42.796799" lon="-1.668134">
        <ele>413.962</ele>
        <time>2021-07-28T13:33:00Z</time>
      </trkpt>
      <trkpt lat="42.796820" lon="-1.668103">
        <ele>413.949</ele>
        <time>2021-07-28T13:33:01Z</time>
      </trkpt>
      <trkpt lat="42.796845" lon="-1.668034">
        <ele>414.497</ele>
        <time>2021-07-28T13:33:04Z</time>
      </trkpt>
      <trkpt lat="42.796858" lon="-1.668023">
        <ele>414.985</ele>
        <time>2021-07-28T13:33:12Z</time>
      </trkpt>
      <trkpt lat="42.796838" lon="-1.668026">
        <ele>415.989</ele>
        <time>2021-07-28T13:33:28Z</time>
      </trkpt>
      <trkpt lat="42.796963" lon="-1.668144">
        <ele>414.917</ele>
        <time>2021-07-28T13:33:36Z</time>
      </trkpt>
      <trkpt lat="42.797111" lon="-1.668315">
        <ele>414.408</ele>
        <time>2021-07-28T13:33:43Z</time>
      </trkpt>
      <trkpt lat="42.797138" lon="-1.668309">
        <ele>413.955</ele>
        <time>2021-07-28T13:33:44Z</time>
      </trkpt>
      <trkpt lat="42.797166" lon="-1.668278">
        <ele>413.967</ele>
        <time>2021-07-28T13:33:45Z</time>
      </trkpt>
      <trkpt lat="42.797379" lon="-1.667976">
        <ele>413.014</ele>
        <time>2021-07-28T13:33:53Z</time>
      </trkpt>
      <trkpt lat="42.797684" lon="-1.667469">
        <ele>411.574</ele>
        <time>2021-07-28T13:34:04Z</time>
      </trkpt>
      <trkpt lat="42.797923" lon="-1.667070">
        <ele>411.518</ele>
        <time>2021-07-28T13:34:14Z</time>
      </trkpt>
      <trkpt lat="42.798157" lon="-1.666853">
        <ele>411.156</ele>
        <time>2021-07-28T13:34:21Z</time>
      </trkpt>
      <trkpt lat="42.798425" lon="-1.666610">
        <ele>412.043</ele>
        <time>2021-07-28T13:34:29Z</time>
      </trkpt>
      <trkpt lat="42.798803" lon="-1.666361">
        <ele>413.091</ele>
        <time>2021-07-28T13:34:40Z</time>
      </trkpt>
      <trkpt lat="42.799164" lon="-1.666162">
        <ele>413.514</ele>
        <time>2021-07-28T13:34:50Z</time>
      </trkpt>
      <trkpt lat="42.799496" lon="-1.665982">
        <ele>413.954</ele>
        <time>2021-07-28T13:35:00Z</time>
      </trkpt>
      <trkpt lat="42.799770" lon="-1.665912">
        <ele>413.909</ele>
        <time>2021-07-28T13:35:08Z</time>
      </trkpt>
      <trkpt lat="42.799944" lon="-1.665823">
        <ele>414.408</ele>
        <time>2021-07-28T13:35:13Z</time>
      </trkpt>
      <trkpt lat="42.800205" lon="-1.665611">
        <ele>414.498</ele>
        <time>2021-07-28T13:35:21Z</time>
      </trkpt>
      <trkpt lat="42.800508" lon="-1.665423">
        <ele>413.970</ele>
        <time>2021-07-28T13:35:30Z</time>
      </trkpt>
      <trkpt lat="42.800710" lon="-1.665391">
        <ele>413.517</ele>
        <time>2021-07-28T13:35:37Z</time>
      </trkpt>
      <trkpt lat="42.800792" lon="-1.665407">
        <ele>414.977</ele>
        <time>2021-07-28T13:35:41Z</time>
      </trkpt>
      <trkpt lat="42.800810" lon="-1.665392">
        <ele>414.921</ele>
        <time>2021-07-28T13:35:42Z</time>
      </trkpt>
      <trkpt lat="42.800823" lon="-1.665363">
        <ele>414.979</ele>
        <time>2021-07-28T13:35:43Z</time>
      </trkpt>
      <trkpt lat="42.800825" lon="-1.665338">
        <ele>414.936</ele>
        <time>2021-07-28T13:35:44Z</time>
      </trkpt>
      <trkpt lat="42.800822" lon="-1.665312">
        <ele>415.494</ele>
        <time>2021-07-28T13:35:45Z</time>
      </trkpt>
      <trkpt lat="42.800820" lon="-1.665284">
        <ele>415.426</ele>
        <time>2021-07-28T13:35:46Z</time>
      </trkpt>
      <trkpt lat="42.800852" lon="-1.665154">
        <ele>416.347</ele>
        <time>2021-07-28T13:35:53Z</time>
      </trkpt>
      <trkpt lat="42.800869" lon="-1.665183">
        <ele>417.811</ele>
        <time>2021-07-28T13:36:04Z</time>
      </trkpt>
      <trkpt lat="42.800881" lon="-1.665185">
        <ele>417.308</ele>
        <time>2021-07-28T13:36:11Z</time>
      </trkpt>
      <trkpt lat="42.800885" lon="-1.665181">
        <ele>417.829</ele>
        <time>2021-07-28T13:36:18Z</time>
      </trkpt>
      <trkpt lat="42.800893" lon="-1.665189">
        <ele>418.751</ele>
        <time>2021-07-28T13:36:27Z</time>
      </trkpt>
      <trkpt lat="42.800891" lon="-1.665180">
        <ele>418.748</ele>
        <time>2021-07-28T13:36:37Z</time>
      </trkpt>
      <trkpt lat="42.800882" lon="-1.665171">
        <ele>419.278</ele>
        <time>2021-07-28T13:36:44Z</time>
      </trkpt>
      <trkpt lat="42.800868" lon="-1.665168">
        <ele>419.222</ele>
        <time>2021-07-28T13:36:54Z</time>
      </trkpt>
      <trkpt lat="42.800882" lon="-1.665178">
        <ele>420.210</ele>
        <time>2021-07-28T13:37:05Z</time>
      </trkpt>
      <trkpt lat="42.800904" lon="-1.665180">
        <ele>421.197</ele>
        <time>2021-07-28T13:37:14Z</time>
      </trkpt>
      <trkpt lat="42.800921" lon="-1.665176">
        <ele>421.155</ele>
        <time>2021-07-28T13:37:15Z</time>
      </trkpt>
      <trkpt lat="42.801055" lon="-1.665114">
        <ele>421.156</ele>
        <time>2021-07-28T13:37:24Z</time>
      </trkpt>
      <trkpt lat="42.801071" lon="-1.665102">
        <ele>420.759</ele>
        <time>2021-07-28T13:37:25Z</time>
      </trkpt>
      <trkpt lat="42.801091" lon="-1.665092">
        <ele>420.714</ele>
        <time>2021-07-28T13:37:26Z</time>
      </trkpt>
      <trkpt lat="42.801114" lon="-1.665088">
        <ele>420.708</ele>
        <time>2021-07-28T13:37:27Z</time>
      </trkpt>
      <trkpt lat="42.801139" lon="-1.665089">
        <ele>420.742</ele>
        <time>2021-07-28T13:37:28Z</time>
      </trkpt>
      <trkpt lat="42.801161" lon="-1.665098">
        <ele>420.284</ele>
        <time>2021-07-28T13:37:29Z</time>
      </trkpt>
      <trkpt lat="42.801186" lon="-1.665112">
        <ele>420.211</ele>
        <time>2021-07-28T13:37:30Z</time>
      </trkpt>
      <trkpt lat="42.801207" lon="-1.665129">
        <ele>419.751</ele>
        <time>2021-07-28T13:37:31Z</time>
      </trkpt>
      <trkpt lat="42.801268" lon="-1.665182">
        <ele>418.385</ele>
        <time>2021-07-28T13:37:35Z</time>
      </trkpt>
      <trkpt lat="42.801281" lon="-1.665184">
        <ele>418.313</ele>
        <time>2021-07-28T13:37:36Z</time>
      </trkpt>
      <trkpt lat="42.801293" lon="-1.665182">
        <ele>418.390</ele>
        <time>2021-07-28T13:37:37Z</time>
      </trkpt>
      <trkpt lat="42.801305" lon="-1.665179">
        <ele>418.348</ele>
        <time>2021-07-28T13:37:38Z</time>
      </trkpt>
      <trkpt lat="42.801319" lon="-1.665173">
        <ele>418.335</ele>
        <time>2021-07-28T13:37:39Z</time>
      </trkpt>
      <trkpt lat="42.801329" lon="-1.665156">
        <ele>418.786</ele>
        <time>2021-07-28T13:37:40Z</time>
      </trkpt>
      <trkpt lat="42.801335" lon="-1.665139">
        <ele>418.714</ele>
        <time>2021-07-28T13:37:41Z</time>
      </trkpt>
      <trkpt lat="42.801376" lon="-1.665005">
        <ele>420.708</ele>
        <time>2021-07-28T13:37:49Z</time>
      </trkpt>
      <trkpt lat="42.801433" lon="-1.664802">
        <ele>420.710</ele>
        <time>2021-07-28T13:37:56Z</time>
      </trkpt>
      <trkpt lat="42.801464" lon="-1.664525">
        <ele>421.682</ele>
        <time>2021-07-28T13:38:04Z</time>
      </trkpt>
      <trkpt lat="42.801536" lon="-1.664251">
        <ele>421.159</ele>
        <time>2021-07-28T13:38:11Z</time>
      </trkpt>
      <trkpt lat="42.801614" lon="-1.663929">
        <ele>422.159</ele>
        <time>2021-07-28T13:38:19Z</time>
      </trkpt>
      <trkpt lat="42.801741" lon="-1.663648">
        <ele>423.113</ele>
        <time>2021-07-28T13:38:27Z</time>
      </trkpt>
      <trkpt lat="42.801901" lon="-1.663413">
        <ele>422.621</ele>
        <time>2021-07-28T13:38:35Z</time>
      </trkpt>
      <trkpt lat="42.802063" lon="-1.663075">
        <ele>420.728</ele>
        <time>2021-07-28T13:38:45Z</time>
      </trkpt>
      <trkpt lat="42.802172" lon="-1.662824">
        <ele>420.736</ele>
        <time>2021-07-28T13:38:54Z</time>
      </trkpt>
      <trkpt lat="42.802160" lon="-1.662790">
        <ele>420.736</ele>
        <time>2021-07-28T13:38:55Z</time>
      </trkpt>
      <trkpt lat="42.802144" lon="-1.662766">
        <ele>420.217</ele>
        <time>2021-07-28T13:38:56Z</time>
      </trkpt>
      <trkpt lat="42.802119" lon="-1.662740">
        <ele>420.218</ele>
        <time>2021-07-28T13:38:57Z</time>
      </trkpt>
      <trkpt lat="42.802103" lon="-1.662706">
        <ele>420.208</ele>
        <time>2021-07-28T13:38:58Z</time>
      </trkpt>
      <trkpt lat="42.802100" lon="-1.662667">
        <ele>420.230</ele>
        <time>2021-07-28T13:38:59Z</time>
      </trkpt>
      <trkpt lat="42.802111" lon="-1.662626">
        <ele>419.752</ele>
        <time>2021-07-28T13:39:00Z</time>
      </trkpt>
      <trkpt lat="42.802126" lon="-1.662600">
        <ele>419.789</ele>
        <time>2021-07-28T13:39:01Z</time>
      </trkpt>
      <trkpt lat="42.802140" lon="-1.662581">
        <ele>420.269</ele>
        <time>2021-07-28T13:39:02Z</time>
      </trkpt>
      <trkpt lat="42.802157" lon="-1.662559">
        <ele>420.253</ele>
        <time>2021-07-28T13:39:03Z</time>
      </trkpt>
      <trkpt lat="42.802174" lon="-1.662535">
        <ele>420.231</ele>
        <time>2021-07-28T13:39:04Z</time>
      </trkpt>
      <trkpt lat="42.802291" lon="-1.662376">
        <ele>421.638</ele>
        <time>2021-07-28T13:39:12Z</time>
      </trkpt>
      <trkpt lat="42.802394" lon="-1.662227">
        <ele>422.166</ele>
        <time>2021-07-28T13:39:20Z</time>
      </trkpt>
      <trkpt lat="42.802568" lon="-1.662029">
        <ele>423.144</ele>
        <time>2021-07-28T13:39:30Z</time>
      </trkpt>
      <trkpt lat="42.802696" lon="-1.661888">
        <ele>425.505</ele>
        <time>2021-07-28T13:39:39Z</time>
      </trkpt>
      <trkpt lat="42.802817" lon="-1.661764">
        <ele>426.915</ele>
        <time>2021-07-28T13:39:47Z</time>
      </trkpt>
      <trkpt lat="42.802978" lon="-1.661614">
        <ele>427.408</ele>
        <time>2021-07-28T13:39:57Z</time>
      </trkpt>
      <trkpt lat="42.803143" lon="-1.661463">
        <ele>428.471</ele>
        <time>2021-07-28T13:40:07Z</time>
      </trkpt>
      <trkpt lat="42.803357" lon="-1.661269">
        <ele>428.453</ele>
        <time>2021-07-28T13:40:17Z</time>
      </trkpt>
      <trkpt lat="42.803609" lon="-1.661048">
        <ele>428.430</ele>
        <time>2021-07-28T13:40:28Z</time>
      </trkpt>
      <trkpt lat="42.803829" lon="-1.660862">
        <ele>428.830</ele>
        <time>2021-07-28T13:40:37Z</time>
      </trkpt>
      <trkpt lat="42.804082" lon="-1.660669">
        <ele>428.824</ele>
        <time>2021-07-28T13:40:47Z</time>
      </trkpt>
      <trkpt lat="42.804339" lon="-1.660472">
        <ele>429.872</ele>
        <time>2021-07-28T13:40:57Z</time>
      </trkpt>
      <trkpt lat="42.804400" lon="-1.660313">
        <ele>430.849</ele>
        <time>2021-07-28T13:41:03Z</time>
      </trkpt>
      <trkpt lat="42.804471" lon="-1.660120">
        <ele>431.217</ele>
        <time>2021-07-28T13:41:08Z</time>
      </trkpt>
      <trkpt lat="42.804619" lon="-1.660016">
        <ele>432.734</ele>
        <time>2021-07-28T13:41:15Z</time>
      </trkpt>
      <trkpt lat="42.804752" lon="-1.659955">
        <ele>433.655</ele>
        <time>2021-07-28T13:41:22Z</time>
      </trkpt>
      <trkpt lat="42.804920" lon="-1.659810">
        <ele>434.610</ele>
        <time>2021-07-28T13:41:31Z</time>
      </trkpt>
      <trkpt lat="42.805077" lon="-1.659583">
        <ele>434.608</ele>
        <time>2021-07-28T13:41:42Z</time>
      </trkpt>
      <trkpt lat="42.805201" lon="-1.659479">
        <ele>437.090</ele>
        <time>2021-07-28T13:41:50Z</time>
      </trkpt>
      <trkpt lat="42.805310" lon="-1.659359">
        <ele>439.412</ele>
        <time>2021-07-28T13:41:57Z</time>
      </trkpt>
      <trkpt lat="42.805448" lon="-1.659186">
        <ele>440.929</ele>
        <time>2021-07-28T13:42:06Z</time>
      </trkpt>
      <trkpt lat="42.805615" lon="-1.658962">
        <ele>442.369</ele>
        <time>2021-07-28T13:42:18Z</time>
      </trkpt>
      <trkpt lat="42.805742" lon="-1.658798">
        <ele>443.723</ele>
        <time>2021-07-28T13:42:27Z</time>
      </trkpt>
      <trkpt lat="42.805868" lon="-1.658624">
        <ele>444.221</ele>
        <time>2021-07-28T13:42:37Z</time>
      </trkpt>
      <trkpt lat="42.805994" lon="-1.658446">
        <ele>446.168</ele>
        <time>2021-07-28T13:42:46Z</time>
      </trkpt>
      <trkpt lat="42.806152" lon="-1.658205">
        <ele>447.646</ele>
        <time>2021-07-28T13:42:58Z</time>
      </trkpt>
      <trkpt lat="42.806155" lon="-1.658080">
        <ele>448.517</ele>
        <time>2021-07-28T13:43:03Z</time>
      </trkpt>
      <trkpt lat="42.806169" lon="-1.658062">
        <ele>448.587</ele>
        <time>2021-07-28T13:43:04Z</time>
      </trkpt>
      <trkpt lat="42.806300" lon="-1.657905">
        <ele>448.515</ele>
        <time>2021-07-28T13:43:13Z</time>
      </trkpt>
      <trkpt lat="42.806394" lon="-1.657693">
        <ele>447.608</ele>
        <time>2021-07-28T13:43:20Z</time>
      </trkpt>
      <trkpt lat="42.806547" lon="-1.657374">
        <ele>448.518</ele>
        <time>2021-07-28T13:43:29Z</time>
      </trkpt>
      <trkpt lat="42.806597" lon="-1.657272">
        <ele>448.540</ele>
        <time>2021-07-28T13:43:32Z</time>
      </trkpt>
      <trkpt lat="42.806538" lon="-1.657049">
        <ele>447.127</ele>
        <time>2021-07-28T13:43:38Z</time>
      </trkpt>
      <trkpt lat="42.806609" lon="-1.656927">
        <ele>447.687</ele>
        <time>2021-07-28T13:43:43Z</time>
      </trkpt>
      <trkpt lat="42.806652" lon="-1.656885">
        <ele>448.541</ele>
        <time>2021-07-28T13:43:45Z</time>
      </trkpt>
      <trkpt lat="42.806774" lon="-1.656871">
        <ele>449.589</ele>
        <time>2021-07-28T13:43:50Z</time>
      </trkpt>
      <trkpt lat="42.807026" lon="-1.656481">
        <ele>449.566</ele>
        <time>2021-07-28T13:44:01Z</time>
      </trkpt>
      <trkpt lat="42.807216" lon="-1.656196">
        <ele>450.594</ele>
        <time>2021-07-28T13:44:09Z</time>
      </trkpt>
      <trkpt lat="42.807380" lon="-1.655924">
        <ele>451.073</ele>
        <time>2021-07-28T13:44:17Z</time>
      </trkpt>
      <trkpt lat="42.807504" lon="-1.655704">
        <ele>452.985</ele>
        <time>2021-07-28T13:44:23Z</time>
      </trkpt>
      <trkpt lat="42.807646" lon="-1.655496">
        <ele>457.213</ele>
        <time>2021-07-28T13:44:29Z</time>
      </trkpt>
      <trkpt lat="42.807679" lon="-1.655446">
        <ele>458.608</ele>
        <time>2021-07-28T13:44:31Z</time>
      </trkpt>
      <trkpt lat="42.807765" lon="-1.655237">
        <ele>463.094</ele>
        <time>2021-07-28T13:44:36Z</time>
      </trkpt>
      <trkpt lat="42.807957" lon="-1.654953">
        <ele>467.866</ele>
        <time>2021-07-28T13:44:44Z</time>
      </trkpt>
      <trkpt lat="42.808079" lon="-1.654756">
        <ele>470.233</ele>
        <time>2021-07-28T13:44:50Z</time>
      </trkpt>
      <trkpt lat="42.808125" lon="-1.654570">
        <ele>472.653</ele>
        <time>2021-07-28T13:44:55Z</time>
      </trkpt>
      <trkpt lat="42.808309" lon="-1.654379">
        <ele>475.967</ele>
        <time>2021-07-28T13:45:02Z</time>
      </trkpt>
      <trkpt lat="42.808451" lon="-1.654218">
        <ele>477.935</ele>
        <time>2021-07-28T13:45:08Z</time>
      </trkpt>
      <trkpt lat="42.808580" lon="-1.653940">
        <ele>481.722</ele>
        <time>2021-07-28T13:45:16Z</time>
      </trkpt>
      <trkpt lat="42.808679" lon="-1.653757">
        <ele>481.220</ele>
        <time>2021-07-28T13:45:22Z</time>
      </trkpt>
      <trkpt lat="42.808774" lon="-1.653651">
        <ele>481.763</ele>
        <time>2021-07-28T13:45:27Z</time>
      </trkpt>
      <trkpt lat="42.808874" lon="-1.653459">
        <ele>482.744</ele>
        <time>2021-07-28T13:45:32Z</time>
      </trkpt>
      <trkpt lat="42.808960" lon="-1.653342">
        <ele>484.118</ele>
        <time>2021-07-28T13:45:36Z</time>
      </trkpt>
      <trkpt lat="42.809071" lon="-1.653223">
        <ele>482.208</ele>
        <time>2021-07-28T13:45:43Z</time>
      </trkpt>
      <trkpt lat="42.808835" lon="-1.653333">
        <ele>482.213</ele>
        <time>2021-07-28T13:46:03Z</time>
      </trkpt>
      <trkpt lat="42.808794" lon="-1.653288">
        <ele>484.615</ele>
        <time>2021-07-28T13:46:22Z</time>
      </trkpt>
      <trkpt lat="42.808791" lon="-1.653343">
        <ele>485.122</ele>
        <time>2021-07-28T13:46:30Z</time>
      </trkpt>
      <trkpt lat="42.808816" lon="-1.653441">
        <ele>485.682</ele>
        <time>2021-07-28T13:46:34Z</time>
      </trkpt>
      <trkpt lat="42.808890" lon="-1.653281">
        <ele>503.346</ele>
        <time>2021-07-28T13:46:38Z</time>
      </trkpt>
      <trkpt lat="42.809079" lon="-1.653229">
        <ele>509.654</ele>
        <time>2021-07-28T13:46:45Z</time>
      </trkpt>
      <trkpt lat="42.809303" lon="-1.653162">
        <ele>512.581</ele>
        <time>2021-07-28T13:46:51Z</time>
      </trkpt>
      <trkpt lat="42.809441" lon="-1.653119">
        <ele>510.659</ele>
        <time>2021-07-28T13:46:55Z</time>
      </trkpt>
      <trkpt lat="42.809486" lon="-1.653013">
        <ele>508.666</ele>
        <time>2021-07-28T13:46:59Z</time>
      </trkpt>
      <trkpt lat="42.809418" lon="-1.652786">
        <ele>506.229</ele>
        <time>2021-07-28T13:47:05Z</time>
      </trkpt>
      <trkpt lat="42.809452" lon="-1.652691">
        <ele>504.321</ele>
        <time>2021-07-28T13:47:08Z</time>
      </trkpt>
      <trkpt lat="42.809499" lon="-1.652637">
        <ele>502.408</ele>
        <time>2021-07-28T13:47:10Z</time>
      </trkpt>
      <trkpt lat="42.809592" lon="-1.652712">
        <ele>500.523</ele>
        <time>2021-07-28T13:47:15Z</time>
      </trkpt>
      <trkpt lat="42.809715" lon="-1.652882">
        <ele>499.555</ele>
        <time>2021-07-28T13:47:21Z</time>
      </trkpt>
      <trkpt lat="42.809859" lon="-1.653083">
        <ele>498.172</ele>
        <time>2021-07-28T13:47:26Z</time>
      </trkpt>
      <trkpt lat="42.810010" lon="-1.653310">
        <ele>493.212</ele>
        <time>2021-07-28T13:47:33Z</time>
      </trkpt>
      <trkpt lat="42.810265" lon="-1.653487">
        <ele>489.466</ele>
        <time>2021-07-28T13:47:40Z</time>
      </trkpt>
      <trkpt lat="42.810516" lon="-1.653615">
        <ele>488.474</ele>
        <time>2021-07-28T13:47:47Z</time>
      </trkpt>
      <trkpt lat="42.810838" lon="-1.653811">
        <ele>484.191</ele>
        <time>2021-07-28T13:47:55Z</time>
      </trkpt>
      <trkpt lat="42.810975" lon="-1.653896">
        <ele>483.629</ele>
        <time>2021-07-28T13:47:59Z</time>
      </trkpt>
      <trkpt lat="42.811284" lon="-1.654104">
        <ele>481.278</ele>
        <time>2021-07-28T13:48:07Z</time>
      </trkpt>
      <trkpt lat="42.811655" lon="-1.654332">
        <ele>476.933</ele>
        <time>2021-07-28T13:48:16Z</time>
      </trkpt>
      <trkpt lat="42.811910" lon="-1.654439">
        <ele>474.526</ele>
        <time>2021-07-28T13:48:23Z</time>
      </trkpt>
      <trkpt lat="42.812146" lon="-1.654428">
        <ele>472.608</ele>
        <time>2021-07-28T13:48:29Z</time>
      </trkpt>
      <trkpt lat="42.812419" lon="-1.654341">
        <ele>469.294</ele>
        <time>2021-07-28T13:48:36Z</time>
      </trkpt>
      <trkpt lat="42.812700" lon="-1.654234">
        <ele>464.946</ele>
        <time>2021-07-28T13:48:43Z</time>
      </trkpt>
      <trkpt lat="42.812861" lon="-1.654094">
        <ele>463.983</ele>
        <time>2021-07-28T13:48:48Z</time>
      </trkpt>
      <trkpt lat="42.813061" lon="-1.653897">
        <ele>462.553</ele>
        <time>2021-07-28T13:48:54Z</time>
      </trkpt>
      <trkpt lat="42.813365" lon="-1.653593">
        <ele>460.137</ele>
        <time>2021-07-28T13:49:03Z</time>
      </trkpt>
      <trkpt lat="42.813675" lon="-1.653270">
        <ele>459.635</ele>
        <time>2021-07-28T13:49:13Z</time>
      </trkpt>
      <trkpt lat="42.813885" lon="-1.653046">
        <ele>458.272</ele>
        <time>2021-07-28T13:49:20Z</time>
      </trkpt>
      <trkpt lat="42.814029" lon="-1.652875">
        <ele>457.290</ele>
        <time>2021-07-28T13:49:27Z</time>
      </trkpt>
      <trkpt lat="42.814079" lon="-1.652844">
        <ele>456.725</ele>
        <time>2021-07-28T13:49:29Z</time>
      </trkpt>
      <trkpt lat="42.814196" lon="-1.652573">
        <ele>454.326</ele>
        <time>2021-07-28T13:49:36Z</time>
      </trkpt>
      <trkpt lat="42.814200" lon="-1.652513">
        <ele>453.808</ele>
        <time>2021-07-28T13:49:41Z</time>
      </trkpt>
      <trkpt lat="42.814229" lon="-1.652493">
        <ele>453.408</ele>
        <time>2021-07-28T13:49:52Z</time>
      </trkpt>
      <trkpt lat="42.814235" lon="-1.652434">
        <ele>451.499</ele>
        <time>2021-07-28T13:50:09Z</time>
      </trkpt>
      <trkpt lat="42.814337" lon="-1.652340">
        <ele>451.041</ele>
        <time>2021-07-28T13:50:15Z</time>
      </trkpt>
      <trkpt lat="42.814517" lon="-1.652334">
        <ele>450.568</ele>
        <time>2021-07-28T13:50:21Z</time>
      </trkpt>
      <trkpt lat="42.814574" lon="-1.652375">
        <ele>450.548</ele>
        <time>2021-07-28T13:50:23Z</time>
      </trkpt>
      <trkpt lat="42.814685" lon="-1.652286">
        <ele>450.572</ele>
        <time>2021-07-28T13:50:28Z</time>
      </trkpt>
      <trkpt lat="42.814734" lon="-1.652203">
        <ele>450.560</ele>
        <time>2021-07-28T13:50:30Z</time>
      </trkpt>
      <trkpt lat="42.814965" lon="-1.651867">
        <ele>451.067</ele>
        <time>2021-07-28T13:50:39Z</time>
      </trkpt>
      <trkpt lat="42.815091" lon="-1.651702">
        <ele>452.975</ele>
        <time>2021-07-28T13:50:45Z</time>
      </trkpt>
      <trkpt lat="42.815149" lon="-1.651644">
        <ele>451.431</ele>
        <time>2021-07-28T13:50:51Z</time>
      </trkpt>
      <trkpt lat="42.815169" lon="-1.651640">
        <ele>449.061</ele>
        <time>2021-07-28T13:51:04Z</time>
      </trkpt>
      <trkpt lat="42.815243" lon="-1.651541">
        <ele>449.007</ele>
        <time>2021-07-28T13:51:09Z</time>
      </trkpt>
      <trkpt lat="42.815277" lon="-1.651355">
        <ele>450.008</ele>
        <time>2021-07-28T13:51:14Z</time>
      </trkpt>
      <trkpt lat="42.815363" lon="-1.651260">
        <ele>450.080</ele>
        <time>2021-07-28T13:51:19Z</time>
      </trkpt>
      <trkpt lat="42.815381" lon="-1.651232">
        <ele>450.032</ele>
        <time>2021-07-28T13:51:20Z</time>
      </trkpt>
      <trkpt lat="42.815474" lon="-1.650966">
        <ele>451.439</ele>
        <time>2021-07-28T13:51:28Z</time>
      </trkpt>
      <trkpt lat="42.815461" lon="-1.650631">
        <ele>452.979</ele>
        <time>2021-07-28T13:51:36Z</time>
      </trkpt>
      <trkpt lat="42.815467" lon="-1.650581">
        <ele>453.813</ele>
        <time>2021-07-28T13:51:38Z</time>
      </trkpt>
      <trkpt lat="42.815480" lon="-1.650553">
        <ele>455.881</ele>
        <time>2021-07-28T13:51:47Z</time>
      </trkpt>
      <trkpt lat="42.815487" lon="-1.650554">
        <ele>456.228</ele>
        <time>2021-07-28T13:51:52Z</time>
      </trkpt>
      <trkpt lat="42.815610" lon="-1.650524">
        <ele>460.696</ele>
        <time>2021-07-28T13:52:00Z</time>
      </trkpt>
      <trkpt lat="42.815725" lon="-1.650533">
        <ele>463.037</ele>
        <time>2021-07-28T13:52:06Z</time>
      </trkpt>
      <trkpt lat="42.815811" lon="-1.650568">
        <ele>463.949</ele>
        <time>2021-07-28T13:52:09Z</time>
      </trkpt>
      <trkpt lat="42.815937" lon="-1.650433">
        <ele>463.413</ele>
        <time>2021-07-28T13:52:14Z</time>
      </trkpt>
      <trkpt lat="42.816170" lon="-1.650166">
        <ele>464.408</ele>
        <time>2021-07-28T13:52:23Z</time>
      </trkpt>
      <trkpt lat="42.816242" lon="-1.650078">
        <ele>464.990</ele>
        <time>2021-07-28T13:52:28Z</time>
      </trkpt>
      <trkpt lat="42.816356" lon="-1.649918">
        <ele>465.412</ele>
        <time>2021-07-28T13:52:34Z</time>
      </trkpt>
      <trkpt lat="42.816544" lon="-1.649689">
        <ele>465.929</ele>
        <time>2021-07-28T13:52:42Z</time>
      </trkpt>
      <trkpt lat="42.816566" lon="-1.649675">
        <ele>465.929</ele>
        <time>2021-07-28T13:52:43Z</time>
      </trkpt>
      <trkpt lat="42.816714" lon="-1.649618">
        <ele>464.443</ele>
        <time>2021-07-28T13:52:50Z</time>
      </trkpt>
      <trkpt lat="42.816735" lon="-1.649587">
        <ele>463.921</ele>
        <time>2021-07-28T13:52:51Z</time>
      </trkpt>
      <trkpt lat="42.816892" lon="-1.649345">
        <ele>462.588</ele>
        <time>2021-07-28T13:52:59Z</time>
      </trkpt>
      <trkpt lat="42.817062" lon="-1.649041">
        <ele>460.656</ele>
        <time>2021-07-28T13:53:08Z</time>
      </trkpt>
      <trkpt lat="42.817140" lon="-1.648903">
        <ele>460.181</ele>
        <time>2021-07-28T13:53:12Z</time>
      </trkpt>
      <trkpt lat="42.817262" lon="-1.648590">
        <ele>462.061</ele>
        <time>2021-07-28T13:53:20Z</time>
      </trkpt>
      <trkpt lat="42.817392" lon="-1.648193">
        <ele>465.417</ele>
        <time>2021-07-28T13:53:29Z</time>
      </trkpt>
      <trkpt lat="42.817510" lon="-1.647868">
        <ele>469.708</ele>
        <time>2021-07-28T13:53:37Z</time>
      </trkpt>
      <trkpt lat="42.817628" lon="-1.647512">
        <ele>475.045</ele>
        <time>2021-07-28T13:53:45Z</time>
      </trkpt>
      <trkpt lat="42.817685" lon="-1.647302">
        <ele>479.317</ele>
        <time>2021-07-28T13:53:51Z</time>
      </trkpt>
      <trkpt lat="42.817704" lon="-1.647279">
        <ele>483.284</ele>
        <time>2021-07-28T13:53:56Z</time>
      </trkpt>
      <trkpt lat="42.817724" lon="-1.647275">
        <ele>485.174</ele>
        <time>2021-07-28T13:54:08Z</time>
      </trkpt>
      <trkpt lat="42.817767" lon="-1.647139">
        <ele>485.198</ele>
        <time>2021-07-28T13:54:14Z</time>
      </trkpt>
      <trkpt lat="42.817809" lon="-1.646949">
        <ele>484.186</ele>
        <time>2021-07-28T13:54:19Z</time>
      </trkpt>
      <trkpt lat="42.817907" lon="-1.646618">
        <ele>484.623</ele>
        <time>2021-07-28T13:54:26Z</time>
      </trkpt>
      <trkpt lat="42.817979" lon="-1.646355">
        <ele>485.681</ele>
        <time>2021-07-28T13:54:32Z</time>
      </trkpt>
      <trkpt lat="42.818058" lon="-1.646112">
        <ele>487.545</ele>
        <time>2021-07-28T13:54:38Z</time>
      </trkpt>
      <trkpt lat="42.818159" lon="-1.645833">
        <ele>491.347</ele>
        <time>2021-07-28T13:54:45Z</time>
      </trkpt>
      <trkpt lat="42.818255" lon="-1.645558">
        <ele>495.211</ele>
        <time>2021-07-28T13:54:52Z</time>
      </trkpt>
      <trkpt lat="42.818306" lon="-1.645158">
        <ele>495.708</ele>
        <time>2021-07-28T13:55:01Z</time>
      </trkpt>
      <trkpt lat="42.818323" lon="-1.644978">
        <ele>488.031</ele>
        <time>2021-07-28T13:55:07Z</time>
      </trkpt>
      <trkpt lat="42.818301" lon="-1.644855">
        <ele>486.043</ele>
        <time>2021-07-28T13:55:11Z</time>
      </trkpt>
      <trkpt lat="42.818283" lon="-1.644694">
        <ele>482.710</ele>
        <time>2021-07-28T13:55:16Z</time>
      </trkpt>
      <trkpt lat="42.818233" lon="-1.644482">
        <ele>479.840</ele>
        <time>2021-07-28T13:55:24Z</time>
      </trkpt>
      <trkpt lat="42.818165" lon="-1.644317">
        <ele>472.644</ele>
        <time>2021-07-28T13:55:32Z</time>
      </trkpt>
      <trkpt lat="42.818212" lon="-1.644195">
        <ele>470.782</ele>
        <time>2021-07-28T13:55:37Z</time>
      </trkpt>
      <trkpt lat="42.818239" lon="-1.644112">
        <ele>470.239</ele>
        <time>2021-07-28T13:55:43Z</time>
      </trkpt>
      <trkpt lat="42.818247" lon="-1.644086">
        <ele>470.217</ele>
        <time>2021-07-28T13:55:56Z</time>
      </trkpt>
      <trkpt lat="42.818277" lon="-1.643975">
        <ele>467.829</ele>
        <time>2021-07-28T13:56:03Z</time>
      </trkpt>
      <trkpt lat="42.818329" lon="-1.643831">
        <ele>466.300</ele>
        <time>2021-07-28T13:56:11Z</time>
      </trkpt>
      <trkpt lat="42.818376" lon="-1.643699">
        <ele>467.820</ele>
        <time>2021-07-28T13:56:18Z</time>
      </trkpt>
      <trkpt lat="42.818384" lon="-1.643680">
        <ele>467.808</ele>
        <time>2021-07-28T13:56:19Z</time>
      </trkpt>
      <trkpt lat="42.818404" lon="-1.643563">
        <ele>470.779</ele>
        <time>2021-07-28T13:56:27Z</time>
      </trkpt>
      <trkpt lat="42.818401" lon="-1.643521">
        <ele>471.181</ele>
        <time>2021-07-28T13:56:30Z</time>
      </trkpt>
      <trkpt lat="42.818429" lon="-1.643382">
        <ele>472.198</ele>
        <time>2021-07-28T13:56:36Z</time>
      </trkpt>
      <trkpt lat="42.818455" lon="-1.643280">
        <ele>472.638</ele>
        <time>2021-07-28T13:56:39Z</time>
      </trkpt>
      <trkpt lat="42.818513" lon="-1.643045">
        <ele>472.172</ele>
        <time>2021-07-28T13:56:46Z</time>
      </trkpt>
      <trkpt lat="42.818554" lon="-1.643003">
        <ele>469.750</ele>
        <time>2021-07-28T13:56:48Z</time>
      </trkpt>
      <trkpt lat="42.818684" lon="-1.642851">
        <ele>461.567</ele>
        <time>2021-07-28T13:56:54Z</time>
      </trkpt>
      <trkpt lat="42.818756" lon="-1.642811">
        <ele>459.195</ele>
        <time>2021-07-28T13:56:58Z</time>
      </trkpt>
      <trkpt lat="42.818792" lon="-1.642762">
        <ele>457.712</ele>
        <time>2021-07-28T13:57:05Z</time>
      </trkpt>
      <trkpt lat="42.818805" lon="-1.642705">
        <ele>456.232</ele>
        <time>2021-07-28T13:57:16Z</time>
      </trkpt>
      <trkpt lat="42.818821" lon="-1.642681">
        <ele>457.205</ele>
        <time>2021-07-28T13:57:18Z</time>
      </trkpt>
      <trkpt lat="42.818854" lon="-1.642632">
        <ele>462.008</ele>
        <time>2021-07-28T13:57:26Z</time>
      </trkpt>
      <trkpt lat="42.818850" lon="-1.642642">
        <ele>463.488</ele>
        <time>2021-07-28T13:57:29Z</time>
      </trkpt>
      <trkpt lat="42.818931" lon="-1.642746">
        <ele>468.770</ele>
        <time>2021-07-28T13:57:36Z</time>
      </trkpt>
      <trkpt lat="42.818940" lon="-1.642798">
        <ele>472.127</ele>
        <time>2021-07-28T13:57:46Z</time>
      </trkpt>
      <trkpt lat="42.818993" lon="-1.642829">
        <ele>472.627</ele>
        <time>2021-07-28T13:57:53Z</time>
      </trkpt>
      <trkpt lat="42.819152" lon="-1.642920">
        <ele>472.111</ele>
        <time>2021-07-28T13:58:01Z</time>
      </trkpt>
      <trkpt lat="42.819304" lon="-1.642974">
        <ele>472.189</ele>
        <time>2021-07-28T13:58:08Z</time>
      </trkpt>
      <trkpt lat="42.819471" lon="-1.643061">
        <ele>469.256</ele>
        <time>2021-07-28T13:58:16Z</time>
      </trkpt>
      <trkpt lat="42.819527" lon="-1.643104">
        <ele>467.324</ele>
        <time>2021-07-28T13:58:19Z</time>
      </trkpt>
      <trkpt lat="42.819715" lon="-1.643111">
        <ele>467.363</ele>
        <time>2021-07-28T13:58:27Z</time>
      </trkpt>
      <trkpt lat="42.819739" lon="-1.643114">
        <ele>467.844</ele>
        <time>2021-07-28T13:58:28Z</time>
      </trkpt>
      <trkpt lat="42.819904" lon="-1.643132">
        <ele>471.618</ele>
        <time>2021-07-28T13:58:35Z</time>
      </trkpt>
      <trkpt lat="42.820160" lon="-1.643139">
        <ele>473.108</ele>
        <time>2021-07-28T13:58:43Z</time>
      </trkpt>
      <trkpt lat="42.820418" lon="-1.643217">
        <ele>469.733</ele>
        <time>2021-07-28T13:58:51Z</time>
      </trkpt>
      <trkpt lat="42.820747" lon="-1.643324">
        <ele>466.865</ele>
        <time>2021-07-28T13:59:00Z</time>
      </trkpt>
      <trkpt lat="42.820903" lon="-1.643312">
        <ele>463.082</ele>
        <time>2021-07-28T13:59:05Z</time>
      </trkpt>
      <trkpt lat="42.820970" lon="-1.643276">
        <ele>461.012</ele>
        <time>2021-07-28T13:59:08Z</time>
      </trkpt>
      <trkpt lat="42.821024" lon="-1.643108">
        <ele>455.356</ele>
        <time>2021-07-28T13:59:15Z</time>
      </trkpt>
      <trkpt lat="42.821083" lon="-1.642834">
        <ele>446.164</ele>
        <time>2021-07-28T13:59:22Z</time>
      </trkpt>
      <trkpt lat="42.821128" lon="-1.642577">
        <ele>443.741</ele>
        <time>2021-07-28T13:59:29Z</time>
      </trkpt>
      <trkpt lat="42.821163" lon="-1.642396">
        <ele>440.939</ele>
        <time>2021-07-28T13:59:36Z</time>
      </trkpt>
      <trkpt lat="42.821198" lon="-1.642302">
        <ele>440.439</ele>
        <time>2021-07-28T13:59:38Z</time>
      </trkpt>
      <trkpt lat="42.821296" lon="-1.642198">
        <ele>438.901</ele>
        <time>2021-07-28T13:59:42Z</time>
      </trkpt>
      <trkpt lat="42.821326" lon="-1.642145">
        <ele>437.521</ele>
        <time>2021-07-28T13:59:50Z</time>
      </trkpt>
      <trkpt lat="42.821343" lon="-1.642142">
        <ele>437.008</ele>
        <time>2021-07-28T13:59:57Z</time>
      </trkpt>
      <trkpt lat="42.821342" lon="-1.642138">
        <ele>436.570</ele>
        <time>2021-07-28T14:00:07Z</time>
      </trkpt>
      <trkpt lat="42.821348" lon="-1.642137">
        <ele>435.152</ele>
        <time>2021-07-28T14:00:14Z</time>
      </trkpt>
      <trkpt lat="42.821389" lon="-1.642057">
        <ele>435.149</ele>
        <time>2021-07-28T14:00:18Z</time>
      </trkpt>
      <trkpt lat="42.821563" lon="-1.641815">
        <ele>432.239</ele>
        <time>2021-07-28T14:00:28Z</time>
      </trkpt>
      <trkpt lat="42.821615" lon="-1.641657">
        <ele>429.823</ele>
        <time>2021-07-28T14:00:35Z</time>
      </trkpt>
      <trkpt lat="42.821629" lon="-1.641618">
        <ele>428.841</ele>
        <time>2021-07-28T14:00:40Z</time>
      </trkpt>
      <trkpt lat="42.821615" lon="-1.641621">
        <ele>430.338</ele>
        <time>2021-07-28T14:00:51Z</time>
      </trkpt>
      <trkpt lat="42.821609" lon="-1.641625">
        <ele>430.866</ele>
        <time>2021-07-28T14:01:02Z</time>
      </trkpt>
      <trkpt lat="42.821607" lon="-1.641614">
        <ele>432.266</ele>
        <time>2021-07-28T14:01:16Z</time>
      </trkpt>
      <trkpt lat="42.821613" lon="-1.641543">
        <ele>434.129</ele>
        <time>2021-07-28T14:01:24Z</time>
      </trkpt>
      <trkpt lat="42.821689" lon="-1.641247">
        <ele>433.221</ele>
        <time>2021-07-28T14:01:31Z</time>
      </trkpt>
      <trkpt lat="42.821726" lon="-1.641081">
        <ele>431.708</ele>
        <time>2021-07-28T14:01:34Z</time>
      </trkpt>
      <trkpt lat="42.821837" lon="-1.640672">
        <ele>428.453</ele>
        <time>2021-07-28T14:01:42Z</time>
      </trkpt>
      <trkpt lat="42.821846" lon="-1.640426">
        <ele>425.595</ele>
        <time>2021-07-28T14:01:48Z</time>
      </trkpt>
      <trkpt lat="42.821743" lon="-1.640271">
        <ele>425.512</ele>
        <time>2021-07-28T14:01:53Z</time>
      </trkpt>
      <trkpt lat="42.821496" lon="-1.640166">
        <ele>424.542</ele>
        <time>2021-07-28T14:02:01Z</time>
      </trkpt>
      <trkpt lat="42.821239" lon="-1.640037">
        <ele>424.046</ele>
        <time>2021-07-28T14:02:10Z</time>
      </trkpt>
      <trkpt lat="42.821098" lon="-1.639847">
        <ele>422.124</ele>
        <time>2021-07-28T14:02:16Z</time>
      </trkpt>
      <trkpt lat="42.820989" lon="-1.639596">
        <ele>420.771</ele>
        <time>2021-07-28T14:02:25Z</time>
      </trkpt>
      <trkpt lat="42.820899" lon="-1.639558">
        <ele>420.799</ele>
        <time>2021-07-28T14:02:30Z</time>
      </trkpt>
      <trkpt lat="42.820861" lon="-1.639540">
        <ele>421.155</ele>
        <time>2021-07-28T14:02:33Z</time>
      </trkpt>
      <trkpt lat="42.820828" lon="-1.639491">
        <ele>421.607</ele>
        <time>2021-07-28T14:02:41Z</time>
      </trkpt>
      <trkpt lat="42.820805" lon="-1.639459">
        <ele>420.217</ele>
        <time>2021-07-28T14:02:56Z</time>
      </trkpt>
      <trkpt lat="42.820816" lon="-1.639468">
        <ele>422.608</ele>
        <time>2021-07-28T14:03:08Z</time>
      </trkpt>
      <trkpt lat="42.820840" lon="-1.639472">
        <ele>422.192</ele>
        <time>2021-07-28T14:03:22Z</time>
      </trkpt>
      <trkpt lat="42.820829" lon="-1.639473">
        <ele>421.664</ele>
        <time>2021-07-28T14:03:40Z</time>
      </trkpt>
      <trkpt lat="42.820761" lon="-1.639498">
        <ele>423.131</ele>
        <time>2021-07-28T14:04:00Z</time>
      </trkpt>
      <trkpt lat="42.820769" lon="-1.639494">
        <ele>423.111</ele>
        <time>2021-07-28T14:04:04Z</time>
      </trkpt>
      <trkpt lat="42.820799" lon="-1.639426">
        <ele>423.155</ele>
        <time>2021-07-28T14:04:08Z</time>
      </trkpt>
      <trkpt lat="42.820813" lon="-1.639332">
        <ele>423.673</ele>
        <time>2021-07-28T14:04:13Z</time>
      </trkpt>
      <trkpt lat="42.820815" lon="-1.639295">
        <ele>424.530</ele>
        <time>2021-07-28T14:04:20Z</time>
      </trkpt>
      <trkpt lat="42.820833" lon="-1.639278">
        <ele>425.098</ele>
        <time>2021-07-28T14:04:34Z</time>
      </trkpt>
      <trkpt lat="42.820861" lon="-1.639275">
        <ele>426.968</ele>
        <time>2021-07-28T14:04:45Z</time>
      </trkpt>
      <trkpt lat="42.820857" lon="-1.639239">
        <ele>430.342</ele>
        <time>2021-07-28T14:05:00Z</time>
      </trkpt>
      <trkpt lat="42.820839" lon="-1.639251">
        <ele>424.526</ele>
        <time>2021-07-28T14:05:15Z</time>
      </trkpt>
      <trkpt lat="42.820842" lon="-1.639237">
        <ele>422.608</ele>
        <time>2021-07-28T14:05:24Z</time>
      </trkpt>
      <trkpt lat="42.820811" lon="-1.639140">
        <ele>422.653</ele>
        <time>2021-07-28T14:05:29Z</time>
      </trkpt>
      <trkpt lat="42.820792" lon="-1.638957">
        <ele>420.715</ele>
        <time>2021-07-28T14:05:35Z</time>
      </trkpt>
      <trkpt lat="42.820794" lon="-1.638666">
        <ele>419.732</ele>
        <time>2021-07-28T14:05:41Z</time>
      </trkpt>
      <trkpt lat="42.820847" lon="-1.638466">
        <ele>420.722</ele>
        <time>2021-07-28T14:05:47Z</time>
      </trkpt>
      <trkpt lat="42.820918" lon="-1.638270">
        <ele>423.676</ele>
        <time>2021-07-28T14:05:55Z</time>
      </trkpt>
      <trkpt lat="42.820952" lon="-1.638180">
        <ele>424.544</ele>
        <time>2021-07-28T14:05:59Z</time>
      </trkpt>
      <trkpt lat="42.820955" lon="-1.638155">
        <ele>425.051</ele>
        <time>2021-07-28T14:06:00Z</time>
      </trkpt>
      <trkpt lat="42.820965" lon="-1.638099">
        <ele>425.559</ele>
        <time>2021-07-28T14:06:07Z</time>
      </trkpt>
      <trkpt lat="42.820978" lon="-1.638061">
        <ele>425.511</ele>
        <time>2021-07-28T14:06:15Z</time>
      </trkpt>
      <trkpt lat="42.821039" lon="-1.637926">
        <ele>425.021</ele>
        <time>2021-07-28T14:06:21Z</time>
      </trkpt>
      <trkpt lat="42.821118" lon="-1.637737">
        <ele>422.603</ele>
        <time>2021-07-28T14:06:28Z</time>
      </trkpt>
      <trkpt lat="42.821123" lon="-1.637708">
        <ele>422.108</ele>
        <time>2021-07-28T14:06:29Z</time>
      </trkpt>
      <trkpt lat="42.821118" lon="-1.637680">
        <ele>421.628</ele>
        <time>2021-07-28T14:06:30Z</time>
      </trkpt>
      <trkpt lat="42.821107" lon="-1.637652">
        <ele>421.660</ele>
        <time>2021-07-28T14:06:31Z</time>
      </trkpt>
      <trkpt lat="42.821070" lon="-1.637607">
        <ele>420.777</ele>
        <time>2021-07-28T14:06:33Z</time>
      </trkpt>
      <trkpt lat="42.820806" lon="-1.637484">
        <ele>418.757</ele>
        <time>2021-07-28T14:06:42Z</time>
      </trkpt>
      <trkpt lat="42.820750" lon="-1.637458">
        <ele>418.331</ele>
        <time>2021-07-28T14:06:44Z</time>
      </trkpt>
      <trkpt lat="42.820725" lon="-1.637407">
        <ele>418.329</ele>
        <time>2021-07-28T14:06:47Z</time>
      </trkpt>
      <trkpt lat="42.820770" lon="-1.637170">
        <ele>419.266</ele>
        <time>2021-07-28T14:06:54Z</time>
      </trkpt>
      <trkpt lat="42.820851" lon="-1.636713">
        <ele>421.124</ele>
        <time>2021-07-28T14:07:04Z</time>
      </trkpt>
      <trkpt lat="42.820875" lon="-1.636588">
        <ele>421.196</ele>
        <time>2021-07-28T14:07:10Z</time>
      </trkpt>
      <trkpt lat="42.820878" lon="-1.636559">
        <ele>421.131</ele>
        <time>2021-07-28T14:07:17Z</time>
      </trkpt>
      <trkpt lat="42.820898" lon="-1.636473">
        <ele>421.124</ele>
        <time>2021-07-28T14:07:22Z</time>
      </trkpt>
      <trkpt lat="42.820972" lon="-1.636174">
        <ele>421.608</ele>
        <time>2021-07-28T14:07:31Z</time>
      </trkpt>
      <trkpt lat="42.821070" lon="-1.635825">
        <ele>421.646</ele>
        <time>2021-07-28T14:07:41Z</time>
      </trkpt>
      <trkpt lat="42.821138" lon="-1.635500">
        <ele>421.678</ele>
        <time>2021-07-28T14:07:49Z</time>
      </trkpt>
      <trkpt lat="42.821239" lon="-1.635170">
        <ele>420.785</ele>
        <time>2021-07-28T14:07:57Z</time>
      </trkpt>
      <trkpt lat="42.821381" lon="-1.634771">
        <ele>421.135</ele>
        <time>2021-07-28T14:08:07Z</time>
      </trkpt>
      <trkpt lat="42.821479" lon="-1.634378">
        <ele>420.769</ele>
        <time>2021-07-28T14:08:16Z</time>
      </trkpt>
      <trkpt lat="42.821491" lon="-1.634071">
        <ele>422.197</ele>
        <time>2021-07-28T14:08:24Z</time>
      </trkpt>
      <trkpt lat="42.821497" lon="-1.633841">
        <ele>423.154</ele>
        <time>2021-07-28T14:08:30Z</time>
      </trkpt>
      <trkpt lat="42.821486" lon="-1.633433">
        <ele>423.172</ele>
        <time>2021-07-28T14:08:38Z</time>
      </trkpt>
      <trkpt lat="42.821468" lon="-1.633273">
        <ele>422.694</ele>
        <time>2021-07-28T14:08:41Z</time>
      </trkpt>
      <trkpt lat="42.821434" lon="-1.632959">
        <ele>422.657</ele>
        <time>2021-07-28T14:08:48Z</time>
      </trkpt>
      <trkpt lat="42.821415" lon="-1.632637">
        <ele>422.622</ele>
        <time>2021-07-28T14:08:55Z</time>
      </trkpt>
      <trkpt lat="42.821404" lon="-1.632333">
        <ele>422.608</ele>
        <time>2021-07-28T14:09:01Z</time>
      </trkpt>
      <trkpt lat="42.821385" lon="-1.632056">
        <ele>423.616</ele>
        <time>2021-07-28T14:09:07Z</time>
      </trkpt>
      <trkpt lat="42.821353" lon="-1.631638">
        <ele>425.078</ele>
        <time>2021-07-28T14:09:16Z</time>
      </trkpt>
      <trkpt lat="42.821329" lon="-1.631281">
        <ele>426.015</ele>
        <time>2021-07-28T14:09:24Z</time>
      </trkpt>
      <trkpt lat="42.821324" lon="-1.631204">
        <ele>426.435</ele>
        <time>2021-07-28T14:09:29Z</time>
      </trkpt>
      <trkpt lat="42.821322" lon="-1.631193">
        <ele>426.959</ele>
        <time>2021-07-28T14:09:39Z</time>
      </trkpt>
      <trkpt lat="42.821324" lon="-1.631197">
        <ele>426.947</ele>
        <time>2021-07-28T14:09:49Z</time>
      </trkpt>
      <trkpt lat="42.821329" lon="-1.631181">
        <ele>426.944</ele>
        <time>2021-07-28T14:09:54Z</time>
      </trkpt>
      <trkpt lat="42.821328" lon="-1.631087">
        <ele>426.932</ele>
        <time>2021-07-28T14:09:59Z</time>
      </trkpt>
      <trkpt lat="42.821298" lon="-1.630845">
        <ele>426.915</ele>
        <time>2021-07-28T14:10:06Z</time>
      </trkpt>
      <trkpt lat="42.821256" lon="-1.630460">
        <ele>426.065</ele>
        <time>2021-07-28T14:10:14Z</time>
      </trkpt>
      <trkpt lat="42.821199" lon="-1.630069">
        <ele>425.511</ele>
        <time>2021-07-28T14:10:22Z</time>
      </trkpt>
      <trkpt lat="42.821173" lon="-1.629764">
        <ele>424.508</ele>
        <time>2021-07-28T14:10:30Z</time>
      </trkpt>
      <trkpt lat="42.821283" lon="-1.629376">
        <ele>424.048</ele>
        <time>2021-07-28T14:10:39Z</time>
      </trkpt>
      <trkpt lat="42.821401" lon="-1.628959">
        <ele>423.150</ele>
        <time>2021-07-28T14:10:48Z</time>
      </trkpt>
      <trkpt lat="42.821518" lon="-1.628548">
        <ele>423.697</ele>
        <time>2021-07-28T14:10:57Z</time>
      </trkpt>
      <trkpt lat="42.821601" lon="-1.628253">
        <ele>423.147</ele>
        <time>2021-07-28T14:11:04Z</time>
      </trkpt>
      <trkpt lat="42.821700" lon="-1.627881">
        <ele>423.651</ele>
        <time>2021-07-28T14:11:12Z</time>
      </trkpt>
      <trkpt lat="42.821813" lon="-1.627454">
        <ele>423.639</ele>
        <time>2021-07-28T14:11:21Z</time>
      </trkpt>
      <trkpt lat="42.821900" lon="-1.627124">
        <ele>423.666</ele>
        <time>2021-07-28T14:11:28Z</time>
      </trkpt>
      <trkpt lat="42.822017" lon="-1.626745">
        <ele>423.124</ele>
        <time>2021-07-28T14:11:36Z</time>
      </trkpt>
      <trkpt lat="42.822030" lon="-1.626637">
        <ele>423.143</ele>
        <time>2021-07-28T14:11:39Z</time>
      </trkpt>
      <trkpt lat="42.821939" lon="-1.626370">
        <ele>422.164</ele>
        <time>2021-07-28T14:11:46Z</time>
      </trkpt>
      <trkpt lat="42.821949" lon="-1.626321">
        <ele>422.110</ele>
        <time>2021-07-28T14:11:47Z</time>
      </trkpt>
      <trkpt lat="42.822041" lon="-1.625924">
        <ele>422.608</ele>
        <time>2021-07-28T14:11:55Z</time>
      </trkpt>
      <trkpt lat="42.822041" lon="-1.625896">
        <ele>422.141</ele>
        <time>2021-07-28T14:11:58Z</time>
      </trkpt>
      <trkpt lat="42.822049" lon="-1.625872">
        <ele>422.173</ele>
        <time>2021-07-28T14:12:07Z</time>
      </trkpt>
      <trkpt lat="42.822053" lon="-1.625839">
        <ele>422.120</ele>
        <time>2021-07-28T14:12:17Z</time>
      </trkpt>
      <trkpt lat="42.822073" lon="-1.625661">
        <ele>422.150</ele>
        <time>2021-07-28T14:12:22Z</time>
      </trkpt>
      <trkpt lat="42.822119" lon="-1.625310">
        <ele>423.144</ele>
        <time>2021-07-28T14:12:29Z</time>
      </trkpt>
      <trkpt lat="42.822105" lon="-1.624999">
        <ele>424.042</ele>
        <time>2021-07-28T14:12:35Z</time>
      </trkpt>
      <trkpt lat="42.822137" lon="-1.624580">
        <ele>425.049</ele>
        <time>2021-07-28T14:12:43Z</time>
      </trkpt>
      <trkpt lat="42.822172" lon="-1.624170">
        <ele>425.517</ele>
        <time>2021-07-28T14:12:51Z</time>
      </trkpt>
      <trkpt lat="42.822207" lon="-1.623822">
        <ele>427.453</ele>
        <time>2021-07-28T14:12:58Z</time>
      </trkpt>
      <trkpt lat="42.822241" lon="-1.623491">
        <ele>429.804</ele>
        <time>2021-07-28T14:13:05Z</time>
      </trkpt>
      <trkpt lat="42.822264" lon="-1.623179">
        <ele>431.214</ele>
        <time>2021-07-28T14:13:12Z</time>
      </trkpt>
      <trkpt lat="42.822203" lon="-1.622854">
        <ele>433.608</ele>
        <time>2021-07-28T14:13:19Z</time>
      </trkpt>
      <trkpt lat="42.822199" lon="-1.622537">
        <ele>435.682</ele>
        <time>2021-07-28T14:13:25Z</time>
      </trkpt>
      <trkpt lat="42.822182" lon="-1.622101">
        <ele>435.134</ele>
        <time>2021-07-28T14:13:33Z</time>
      </trkpt>
      <trkpt lat="42.822146" lon="-1.621891">
        <ele>436.561</ele>
        <time>2021-07-28T14:13:38Z</time>
      </trkpt>
      <trkpt lat="42.822021" lon="-1.621633">
        <ele>438.521</ele>
        <time>2021-07-28T14:13:45Z</time>
      </trkpt>
      <trkpt lat="42.822004" lon="-1.621572">
        <ele>438.085</ele>
        <time>2021-07-28T14:13:47Z</time>
      </trkpt>
      <trkpt lat="42.822133" lon="-1.621396">
        <ele>438.093</ele>
        <time>2021-07-28T14:13:54Z</time>
      </trkpt>
      <trkpt lat="42.822169" lon="-1.621356">
        <ele>437.540</ele>
        <time>2021-07-28T14:13:56Z</time>
      </trkpt>
      <trkpt lat="42.822101" lon="-1.621311">
        <ele>436.518</ele>
        <time>2021-07-28T14:14:01Z</time>
      </trkpt>
      <trkpt lat="42.822057" lon="-1.621295">
        <ele>436.159</ele>
        <time>2021-07-28T14:14:03Z</time>
      </trkpt>
      <trkpt lat="42.821988" lon="-1.621197">
        <ele>434.603</ele>
        <time>2021-07-28T14:14:10Z</time>
      </trkpt>
      <trkpt lat="42.821984" lon="-1.621169">
        <ele>433.623</ele>
        <time>2021-07-28T14:14:13Z</time>
      </trkpt>
      <trkpt lat="42.821945" lon="-1.620922">
        <ele>431.708</ele>
        <time>2021-07-28T14:14:21Z</time>
      </trkpt>
      <trkpt lat="42.822006" lon="-1.620676">
        <ele>430.872</ele>
        <time>2021-07-28T14:14:27Z</time>
      </trkpt>
      <trkpt lat="42.822255" lon="-1.620371">
        <ele>428.864</ele>
        <time>2021-07-28T14:14:35Z</time>
      </trkpt>
      <trkpt lat="42.822624" lon="-1.619959">
        <ele>428.451</ele>
        <time>2021-07-28T14:14:45Z</time>
      </trkpt>
      <trkpt lat="42.822964" lon="-1.619549">
        <ele>429.351</ele>
        <time>2021-07-28T14:14:54Z</time>
      </trkpt>
      <trkpt lat="42.823039" lon="-1.619462">
        <ele>429.385</ele>
        <time>2021-07-28T14:14:56Z</time>
      </trkpt>
      <trkpt lat="42.823131" lon="-1.619302">
        <ele>430.383</ele>
        <time>2021-07-28T14:14:59Z</time>
      </trkpt>
      <trkpt lat="42.823319" lon="-1.619128">
        <ele>431.220</ele>
        <time>2021-07-28T14:15:04Z</time>
      </trkpt>
      <trkpt lat="42.823356" lon="-1.619093">
        <ele>431.298</ele>
        <time>2021-07-28T14:15:05Z</time>
      </trkpt>
      <trkpt lat="42.823771" lon="-1.618654">
        <ele>432.221</ele>
        <time>2021-07-28T14:15:17Z</time>
      </trkpt>
      <trkpt lat="42.823830" lon="-1.618579">
        <ele>432.241</ele>
        <time>2021-07-28T14:15:19Z</time>
      </trkpt>
      <trkpt lat="42.824035" lon="-1.618371">
        <ele>432.705</ele>
        <time>2021-07-28T14:15:25Z</time>
      </trkpt>
      <trkpt lat="42.824189" lon="-1.618188">
        <ele>432.708</ele>
        <time>2021-07-28T14:15:30Z</time>
      </trkpt>
      <trkpt lat="42.824494" lon="-1.617875">
        <ele>437.519</ele>
        <time>2021-07-28T14:15:39Z</time>
      </trkpt>
      <trkpt lat="42.824540" lon="-1.617822">
        <ele>438.571</ele>
        <time>2021-07-28T14:15:41Z</time>
      </trkpt>
      <trkpt lat="42.824545" lon="-1.617757">
        <ele>439.938</ele>
        <time>2021-07-28T14:15:47Z</time>
      </trkpt>
      <trkpt lat="42.824623" lon="-1.617783">
        <ele>443.728</ele>
        <time>2021-07-28T14:15:53Z</time>
      </trkpt>
      <trkpt lat="42.824650" lon="-1.617793">
        <ele>444.722</ele>
        <time>2021-07-28T14:15:56Z</time>
      </trkpt>
      <trkpt lat="42.824666" lon="-1.617809">
        <ele>444.770</ele>
        <time>2021-07-28T14:16:04Z</time>
      </trkpt>
      <trkpt lat="42.824678" lon="-1.617823">
        <ele>440.977</ele>
        <time>2021-07-28T14:16:17Z</time>
      </trkpt>
      <trkpt lat="42.824737" lon="-1.617751">
        <ele>442.385</ele>
        <time>2021-07-28T14:16:25Z</time>
      </trkpt>
      <trkpt lat="42.824796" lon="-1.617649">
        <ele>442.372</ele>
        <time>2021-07-28T14:16:33Z</time>
      </trkpt>
      <trkpt lat="42.824864" lon="-1.617544">
        <ele>441.313</ele>
        <time>2021-07-28T14:16:41Z</time>
      </trkpt>
      <trkpt lat="42.824923" lon="-1.617481">
        <ele>441.814</ele>
        <time>2021-07-28T14:16:47Z</time>
      </trkpt>
      <trkpt lat="42.824985" lon="-1.617428">
        <ele>441.808</ele>
        <time>2021-07-28T14:16:53Z</time>
      </trkpt>
      <trkpt lat="42.825021" lon="-1.617393">
        <ele>442.394</ele>
        <time>2021-07-28T14:16:56Z</time>
      </trkpt>
      <trkpt lat="42.825047" lon="-1.617348">
        <ele>441.866</ele>
        <time>2021-07-28T14:16:59Z</time>
      </trkpt>
      <trkpt lat="42.825171" lon="-1.617282">
        <ele>438.983</ele>
        <time>2021-07-28T14:17:09Z</time>
      </trkpt>
      <trkpt lat="42.825216" lon="-1.617182">
        <ele>438.963</ele>
        <time>2021-07-28T14:17:14Z</time>
      </trkpt>
      <trkpt lat="42.825266" lon="-1.617180">
        <ele>438.027</ele>
        <time>2021-07-28T14:17:18Z</time>
      </trkpt>
      <trkpt lat="42.825324" lon="-1.617116">
        <ele>438.935</ele>
        <time>2021-07-28T14:17:24Z</time>
      </trkpt>
      <trkpt lat="42.825459" lon="-1.617233">
        <ele>436.122</ele>
        <time>2021-07-28T14:17:34Z</time>
      </trkpt>
      <trkpt lat="42.825555" lon="-1.617346">
        <ele>434.660</ele>
        <time>2021-07-28T14:17:44Z</time>
      </trkpt>
      <trkpt lat="42.825566" lon="-1.617374">
        <ele>432.217</ele>
        <time>2021-07-28T14:17:53Z</time>
      </trkpt>
      <trkpt lat="42.825580" lon="-1.617420">
        <ele>429.887</ele>
        <time>2021-07-28T14:18:02Z</time>
      </trkpt>
    </trkseg>
  </trk>
</gpx>
